<?xml version='1.0' encoding='UTF-8'?><gpx version="1.1" creator="JPX - https://github.com/jenetics/jpx" xmlns="http://www.topografix.com/GPX/1/1"><trk><trkseg><trkpt lat="44.9580367" lon="8.2577983"><ele>223.0</ele><time>2026-04-25T06:59:38.997Z</time></trkpt><trkpt lat="44.9580617" lon="8.2576717"><ele>223.0</ele><time>2026-04-25T06:59:41.992Z</time></trkpt><trkpt lat="44.9581217" lon="8.257575"><ele>223.0</ele><time>2026-04-25T06:59:43.994Z</time></trkpt><trkpt lat="44.9582183" lon="8.2574467"><ele>223.0</ele><time>2026-04-25T06:59:46.002Z</time></trkpt><trkpt lat="44.9582917" lon="8.2573783"><ele>223.0</ele><time>2026-04-25T06:59:46.994Z</time></trkpt><trkpt lat="44.95837" lon="8.257315"><ele>222.4</ele><time>2026-04-25T06:59:47.994Z</time></trkpt><trkpt lat="44.95846" lon="8.2572683"><ele>221.8</ele><time>2026-04-25T06:59:48.996Z</time></trkpt><trkpt lat="44.9585383" lon="8.257205"><ele>221.2</ele><time>2026-04-25T06:59:49.994Z</time></trkpt><trkpt lat="44.9586217" lon="8.2571383"><ele>220.6</ele><time>2026-04-25T06:59:50.996Z</time></trkpt><trkpt lat="44.958705" lon="8.2570783"><ele>220.0</ele><time>2026-04-25T06:59:51.995Z</time></trkpt><trkpt lat="44.9587867" lon="8.2570267"><ele>220.0</ele><time>2026-04-25T06:59:52.994Z</time></trkpt><trkpt lat="44.95887" lon="8.2569733"><ele>220.0</ele><time>2026-04-25T06:59:53.997Z</time></trkpt><trkpt lat="44.9589567" lon="8.2569217"><ele>220.0</ele><time>2026-04-25T06:59:55Z</time></trkpt><trkpt lat="44.9590467" lon="8.25686"><ele>220.0</ele><time>2026-04-25T06:59:56.001Z</time></trkpt><trkpt lat="44.959135" lon="8.2568"><ele>220.0</ele><time>2026-04-25T06:59:56.994Z</time></trkpt><trkpt lat="44.959225" lon="8.2567433"><ele>219.6</ele><time>2026-04-25T06:59:57.998Z</time></trkpt><trkpt lat="44.9593233" lon="8.2566733"><ele>219.2</ele><time>2026-04-25T06:59:59.001Z</time></trkpt><trkpt lat="44.95942" lon="8.2566183"><ele>218.8</ele><time>2026-04-25T06:59:59.993Z</time></trkpt><trkpt lat="44.95952" lon="8.2565567"><ele>218.4</ele><time>2026-04-25T07:00:00.994Z</time></trkpt><trkpt lat="44.959615" lon="8.2565033"><ele>218.0</ele><time>2026-04-25T07:00:01.994Z</time></trkpt><trkpt lat="44.9597117" lon="8.2564517"><ele>218.0</ele><time>2026-04-25T07:00:02.997Z</time></trkpt><trkpt lat="44.9598117" lon="8.2564"><ele>218.0</ele><time>2026-04-25T07:00:03.995Z</time></trkpt><trkpt lat="44.9599083" lon="8.2563467"><ele>218.0</ele><time>2026-04-25T07:00:04.993Z</time></trkpt><trkpt lat="44.9600083" lon="8.256295"><ele>218.0</ele><time>2026-04-25T07:00:05.995Z</time></trkpt><trkpt lat="44.96011" lon="8.2562433"><ele>218.0</ele><time>2026-04-25T07:00:06.996Z</time></trkpt><trkpt lat="44.960215" lon="8.2561867"><ele>218.0</ele><time>2026-04-25T07:00:07.997Z</time></trkpt><trkpt lat="44.9603167" lon="8.256125"><ele>218.0</ele><time>2026-04-25T07:00:08.995Z</time></trkpt><trkpt lat="44.9604183" lon="8.256065"><ele>218.0</ele><time>2026-04-25T07:00:09.996Z</time></trkpt><trkpt lat="44.9605267" lon="8.2560167"><ele>218.0</ele><time>2026-04-25T07:00:10.996Z</time></trkpt><trkpt lat="44.9606517" lon="8.25599"><ele>218.0</ele><time>2026-04-25T07:00:11.997Z</time></trkpt><trkpt lat="44.9607633" lon="8.2559517"><ele>218.0</ele><time>2026-04-25T07:00:12.994Z</time></trkpt><trkpt lat="44.9608833" lon="8.2559283"><ele>218.0</ele><time>2026-04-25T07:00:13.997Z</time></trkpt><trkpt lat="44.961005" lon="8.255905"><ele>218.0</ele><time>2026-04-25T07:00:15.001Z</time></trkpt><trkpt lat="44.9611283" lon="8.2558933"><ele>219.25</ele><time>2026-04-25T07:00:15.994Z</time></trkpt><trkpt lat="44.96125" lon="8.2558817"><ele>220.5</ele><time>2026-04-25T07:00:16.997Z</time></trkpt><trkpt lat="44.96137" lon="8.25588"><ele>221.75</ele><time>2026-04-25T07:00:17.997Z</time></trkpt><trkpt lat="44.9614867" lon="8.255865"><ele>223.0</ele><time>2026-04-25T07:00:18.995Z</time></trkpt><trkpt lat="44.961605" lon="8.2558317"><ele>223.0</ele><time>2026-04-25T07:00:19.996Z</time></trkpt><trkpt lat="44.9617217" lon="8.2557817"><ele>223.0</ele><time>2026-04-25T07:00:20.996Z</time></trkpt><trkpt lat="44.9618317" lon="8.255725"><ele>223.0</ele><time>2026-04-25T07:00:21.995Z</time></trkpt><trkpt lat="44.96194" lon="8.255655"><ele>223.0</ele><time>2026-04-25T07:00:22.995Z</time></trkpt><trkpt lat="44.9620467" lon="8.2555683"><ele>223.0</ele><time>2026-04-25T07:00:23.996Z</time></trkpt><trkpt lat="44.9621467" lon="8.2554817"><ele>223.0</ele><time>2026-04-25T07:00:24.995Z</time></trkpt><trkpt lat="44.9622533" lon="8.25539"><ele>223.0</ele><time>2026-04-25T07:00:25.994Z</time></trkpt><trkpt lat="44.9623633" lon="8.2552933"><ele>223.0</ele><time>2026-04-25T07:00:26.999Z</time></trkpt><trkpt lat="44.9624733" lon="8.2551917"><ele>221.75</ele><time>2026-04-25T07:00:27.996Z</time></trkpt><trkpt lat="44.9625917" lon="8.2550783"><ele>220.5</ele><time>2026-04-25T07:00:28.996Z</time></trkpt><trkpt lat="44.96271" lon="8.254985"><ele>219.25</ele><time>2026-04-25T07:00:29.999Z</time></trkpt><trkpt lat="44.9628367" lon="8.2548933"><ele>218.0</ele><time>2026-04-25T07:00:31.001Z</time></trkpt><trkpt lat="44.9629633" lon="8.25481"><ele>218.5</ele><time>2026-04-25T07:00:31.995Z</time></trkpt><trkpt lat="44.9630833" lon="8.2547367"><ele>219.0</ele><time>2026-04-25T07:00:32.998Z</time></trkpt><trkpt lat="44.9632" lon="8.2546783"><ele>219.5</ele><time>2026-04-25T07:00:33.996Z</time></trkpt><trkpt lat="44.963325" lon="8.25463"><ele>220.0</ele><time>2026-04-25T07:00:34.997Z</time></trkpt><trkpt lat="44.96344" lon="8.25458"><ele>220.0</ele><time>2026-04-25T07:00:35.997Z</time></trkpt><trkpt lat="44.9635567" lon="8.2545433"><ele>220.0</ele><time>2026-04-25T07:00:36.997Z</time></trkpt><trkpt lat="44.963675" lon="8.2545117"><ele>220.0</ele><time>2026-04-25T07:00:37.994Z</time></trkpt><trkpt lat="44.9637967" lon="8.25449"><ele>220.0</ele><time>2026-04-25T07:00:38.994Z</time></trkpt><trkpt lat="44.9639267" lon="8.2544767"><ele>220.0</ele><time>2026-04-25T07:00:39.995Z</time></trkpt><trkpt lat="44.96406" lon="8.2544617"><ele>220.0</ele><time>2026-04-25T07:00:41.001Z</time></trkpt><trkpt lat="44.9641983" lon="8.254465"><ele>220.0</ele><time>2026-04-25T07:00:41.996Z</time></trkpt><trkpt lat="44.9643317" lon="8.254465"><ele>220.0</ele><time>2026-04-25T07:00:43.001Z</time></trkpt><trkpt lat="44.96447" lon="8.254475"><ele>220.75</ele><time>2026-04-25T07:00:43.994Z</time></trkpt><trkpt lat="44.9646017" lon="8.2544983"><ele>221.5</ele><time>2026-04-25T07:00:44.995Z</time></trkpt><trkpt lat="44.9647417" lon="8.2545067"><ele>222.25</ele><time>2026-04-25T07:00:45.996Z</time></trkpt><trkpt lat="44.9648833" lon="8.254505"><ele>223.0</ele><time>2026-04-25T07:00:46.997Z</time></trkpt><trkpt lat="44.9650167" lon="8.2545067"><ele>224.25</ele><time>2026-04-25T07:00:47.999Z</time></trkpt><trkpt lat="44.9651517" lon="8.2545"><ele>225.5</ele><time>2026-04-25T07:00:48.994Z</time></trkpt><trkpt lat="44.965285" lon="8.2544817"><ele>226.75</ele><time>2026-04-25T07:00:49.993Z</time></trkpt><trkpt lat="44.965415" lon="8.2544483"><ele>228.0</ele><time>2026-04-25T07:00:50.998Z</time></trkpt><trkpt lat="44.9655517" lon="8.254415"><ele>228.0</ele><time>2026-04-25T07:00:51.996Z</time></trkpt><trkpt lat="44.96569" lon="8.2543783"><ele>228.0</ele><time>2026-04-25T07:00:52.995Z</time></trkpt><trkpt lat="44.965825" lon="8.25434"><ele>228.0</ele><time>2026-04-25T07:00:53.996Z</time></trkpt><trkpt lat="44.9659583" lon="8.2543033"><ele>228.0</ele><time>2026-04-25T07:00:54.996Z</time></trkpt><trkpt lat="44.9660917" lon="8.2542717"><ele>227.75</ele><time>2026-04-25T07:00:55.995Z</time></trkpt><trkpt lat="44.9662167" lon="8.2542483"><ele>227.5</ele><time>2026-04-25T07:00:57Z</time></trkpt><trkpt lat="44.9663467" lon="8.2542233"><ele>227.25</ele><time>2026-04-25T07:00:57.994Z</time></trkpt><trkpt lat="44.9664717" lon="8.2541983"><ele>227.0</ele><time>2026-04-25T07:00:58.999Z</time></trkpt><trkpt lat="44.9665917" lon="8.2541983"><ele>228.5</ele><time>2026-04-25T07:00:59.994Z</time></trkpt><trkpt lat="44.9667117" lon="8.2542083"><ele>230.0</ele><time>2026-04-25T07:01:01.002Z</time></trkpt><trkpt lat="44.9668283" lon="8.2542617"><ele>231.5</ele><time>2026-04-25T07:01:01.994Z</time></trkpt><trkpt lat="44.96694" lon="8.25436"><ele>233.0</ele><time>2026-04-25T07:01:02.995Z</time></trkpt><trkpt lat="44.9670417" lon="8.2544917"><ele>233.0</ele><time>2026-04-25T07:01:03.995Z</time></trkpt><trkpt lat="44.9671283" lon="8.2546417"><ele>233.0</ele><time>2026-04-25T07:01:04.992Z</time></trkpt><trkpt lat="44.9672133" lon="8.254795"><ele>233.0</ele><time>2026-04-25T07:01:05.995Z</time></trkpt><trkpt lat="44.9673017" lon="8.2549533"><ele>233.0</ele><time>2026-04-25T07:01:06.997Z</time></trkpt><trkpt lat="44.9673983" lon="8.255105"><ele>233.25</ele><time>2026-04-25T07:01:07.996Z</time></trkpt><trkpt lat="44.967515" lon="8.2552267"><ele>233.5</ele><time>2026-04-25T07:01:08.997Z</time></trkpt><trkpt lat="44.9676433" lon="8.2553317"><ele>233.75</ele><time>2026-04-25T07:01:09.994Z</time></trkpt><trkpt lat="44.9677783" lon="8.2554233"><ele>234.0</ele><time>2026-04-25T07:01:10.995Z</time></trkpt><trkpt lat="44.967915" lon="8.2555067"><ele>234.0</ele><time>2026-04-25T07:01:11.995Z</time></trkpt><trkpt lat="44.9680583" lon="8.2555817"><ele>234.0</ele><time>2026-04-25T07:01:12.993Z</time></trkpt><trkpt lat="44.9682033" lon="8.2556517"><ele>234.0</ele><time>2026-04-25T07:01:13.995Z</time></trkpt><trkpt lat="44.9683517" lon="8.2557083"><ele>231.5</ele><time>2026-04-25T07:01:14.996Z</time></trkpt><trkpt lat="44.9685" lon="8.2557583"><ele>229.0</ele><time>2026-04-25T07:01:15.994Z</time></trkpt><trkpt lat="44.96865" lon="8.2557967"><ele>226.5</ele><time>2026-04-25T07:01:16.997Z</time></trkpt><trkpt lat="44.968785" lon="8.2558533"><ele>224.0</ele><time>2026-04-25T07:01:17.999Z</time></trkpt><trkpt lat="44.9689067" lon="8.25593"><ele>224.0</ele><time>2026-04-25T07:01:19Z</time></trkpt><trkpt lat="44.9690067" lon="8.256035"><ele>224.0</ele><time>2026-04-25T07:01:19.996Z</time></trkpt><trkpt lat="44.9690833" lon="8.2561817"><ele>224.0</ele><time>2026-04-25T07:01:20.996Z</time></trkpt><trkpt lat="44.9691517" lon="8.2563433"><ele>224.0</ele><time>2026-04-25T07:01:22Z</time></trkpt><trkpt lat="44.9692033" lon="8.2565133"><ele>219.75</ele><time>2026-04-25T07:01:22.998Z</time></trkpt><trkpt lat="44.9692467" lon="8.256695"><ele>215.5</ele><time>2026-04-25T07:01:24.003Z</time></trkpt><trkpt lat="44.969295" lon="8.2568583"><ele>211.25</ele><time>2026-04-25T07:01:25Z</time></trkpt><trkpt lat="44.969345" lon="8.2570217"><ele>207.0</ele><time>2026-04-25T07:01:25.999Z</time></trkpt><trkpt lat="44.9694083" lon="8.2571733"><ele>210.75</ele><time>2026-04-25T07:01:26.998Z</time></trkpt><trkpt lat="44.9694833" lon="8.257325"><ele>214.5</ele><time>2026-04-25T07:01:27.999Z</time></trkpt><trkpt lat="44.9695683" lon="8.2574617"><ele>218.25</ele><time>2026-04-25T07:01:28.995Z</time></trkpt><trkpt lat="44.9696633" lon="8.257585"><ele>222.0</ele><time>2026-04-25T07:01:30Z</time></trkpt><trkpt lat="44.9697667" lon="8.2577017"><ele>222.0</ele><time>2026-04-25T07:01:31.001Z</time></trkpt><trkpt lat="44.969875" lon="8.2578067"><ele>222.0</ele><time>2026-04-25T07:01:31.997Z</time></trkpt><trkpt lat="44.96999" lon="8.257905"><ele>222.0</ele><time>2026-04-25T07:01:32.999Z</time></trkpt><trkpt lat="44.9701117" lon="8.2580017"><ele>222.0</ele><time>2026-04-25T07:01:33.995Z</time></trkpt><trkpt lat="44.9702317" lon="8.25811"><ele>221.0</ele><time>2026-04-25T07:01:34.995Z</time></trkpt><trkpt lat="44.9703467" lon="8.25822"><ele>220.0</ele><time>2026-04-25T07:01:36Z</time></trkpt><trkpt lat="44.9704533" lon="8.2583433"><ele>219.0</ele><time>2026-04-25T07:01:36.995Z</time></trkpt><trkpt lat="44.9705567" lon="8.2584583"><ele>218.0</ele><time>2026-04-25T07:01:37.999Z</time></trkpt><trkpt lat="44.97066" lon="8.25857"><ele>218.0</ele><time>2026-04-25T07:01:39.005Z</time></trkpt><trkpt lat="44.9707567" lon="8.258685"><ele>218.0</ele><time>2026-04-25T07:01:40Z</time></trkpt><trkpt lat="44.97086" lon="8.2587883"><ele>218.0</ele><time>2026-04-25T07:01:40.996Z</time></trkpt><trkpt lat="44.9709617" lon="8.2588783"><ele>218.0</ele><time>2026-04-25T07:01:41.995Z</time></trkpt><trkpt lat="44.971065" lon="8.2589633"><ele>219.0</ele><time>2026-04-25T07:01:42.994Z</time></trkpt><trkpt lat="44.9711717" lon="8.259045"><ele>220.0</ele><time>2026-04-25T07:01:43.996Z</time></trkpt><trkpt lat="44.9712817" lon="8.2591217"><ele>221.0</ele><time>2026-04-25T07:01:45.006Z</time></trkpt><trkpt lat="44.9713917" lon="8.2591867"><ele>222.0</ele><time>2026-04-25T07:01:45.996Z</time></trkpt><trkpt lat="44.9714967" lon="8.2592417"><ele>222.0</ele><time>2026-04-25T07:01:46.995Z</time></trkpt><trkpt lat="44.9715967" lon="8.2593033"><ele>222.0</ele><time>2026-04-25T07:01:47.991Z</time></trkpt><trkpt lat="44.9716883" lon="8.2593767"><ele>222.0</ele><time>2026-04-25T07:01:49Z</time></trkpt><trkpt lat="44.9717733" lon="8.2594633"><ele>222.0</ele><time>2026-04-25T07:01:49.994Z</time></trkpt><trkpt lat="44.971845" lon="8.2595667"><ele>222.0</ele><time>2026-04-25T07:01:50.997Z</time></trkpt><trkpt lat="44.9719017" lon="8.2596817"><ele>220.2</ele><time>2026-04-25T07:01:51.994Z</time></trkpt><trkpt lat="44.971955" lon="8.259795"><ele>218.39999999999998</ele><time>2026-04-25T07:01:52.995Z</time></trkpt><trkpt lat="44.972005" lon="8.2599067"><ele>216.60000000000002</ele><time>2026-04-25T07:01:53.999Z</time></trkpt><trkpt lat="44.9720517" lon="8.26002"><ele>214.8</ele><time>2026-04-25T07:01:54.995Z</time></trkpt><trkpt lat="44.9720983" lon="8.2601367"><ele>213.0</ele><time>2026-04-25T07:01:55.994Z</time></trkpt><trkpt lat="44.9721483" lon="8.2602517"><ele>213.0</ele><time>2026-04-25T07:01:56.995Z</time></trkpt><trkpt lat="44.9722017" lon="8.2603633"><ele>213.0</ele><time>2026-04-25T07:01:57.994Z</time></trkpt><trkpt lat="44.9722617" lon="8.2604717"><ele>213.0</ele><time>2026-04-25T07:01:58.995Z</time></trkpt><trkpt lat="44.9723217" lon="8.2605817"><ele>213.0</ele><time>2026-04-25T07:01:59.993Z</time></trkpt><trkpt lat="44.972385" lon="8.2606867"><ele>213.0</ele><time>2026-04-25T07:02:00.995Z</time></trkpt><trkpt lat="44.9724517" lon="8.2607833"><ele>213.8</ele><time>2026-04-25T07:02:01.99Z</time></trkpt><trkpt lat="44.9725233" lon="8.26087"><ele>214.60000000000002</ele><time>2026-04-25T07:02:02.994Z</time></trkpt><trkpt lat="44.97259" lon="8.26096"><ele>215.39999999999998</ele><time>2026-04-25T07:02:03.995Z</time></trkpt><trkpt lat="44.9726567" lon="8.261045"><ele>216.2</ele><time>2026-04-25T07:02:04.994Z</time></trkpt><trkpt lat="44.9727233" lon="8.261135"><ele>217.0</ele><time>2026-04-25T07:02:05.996Z</time></trkpt><trkpt lat="44.9727933" lon="8.2612283"><ele>217.0</ele><time>2026-04-25T07:02:06.999Z</time></trkpt><trkpt lat="44.9728717" lon="8.2613217"><ele>217.0</ele><time>2026-04-25T07:02:07.998Z</time></trkpt><trkpt lat="44.972955" lon="8.2614233"><ele>217.0</ele><time>2026-04-25T07:02:08.998Z</time></trkpt><trkpt lat="44.9730417" lon="8.261525"><ele>217.0</ele><time>2026-04-25T07:02:09.992Z</time></trkpt><trkpt lat="44.9731267" lon="8.2616267"><ele>217.0</ele><time>2026-04-25T07:02:10.993Z</time></trkpt><trkpt lat="44.9732017" lon="8.26174"><ele>216.8</ele><time>2026-04-25T07:02:11.997Z</time></trkpt><trkpt lat="44.9732683" lon="8.2618633"><ele>216.6</ele><time>2026-04-25T07:02:12.996Z</time></trkpt><trkpt lat="44.9733233" lon="8.2620017"><ele>216.40000000000003</ele><time>2026-04-25T07:02:13.995Z</time></trkpt><trkpt lat="44.9733733" lon="8.26214"><ele>216.20000000000002</ele><time>2026-04-25T07:02:14.995Z</time></trkpt><trkpt lat="44.973415" lon="8.26227"><ele>216.0</ele><time>2026-04-25T07:02:15.997Z</time></trkpt><trkpt lat="44.9734533" lon="8.2623967"><ele>216.0</ele><time>2026-04-25T07:02:16.995Z</time></trkpt><trkpt lat="44.97349" lon="8.2625167"><ele>216.00000000000003</ele><time>2026-04-25T07:02:17.998Z</time></trkpt><trkpt lat="44.973525" lon="8.2626417"><ele>216.00000000000003</ele><time>2026-04-25T07:02:18.999Z</time></trkpt><trkpt lat="44.9735617" lon="8.2627617"><ele>216.0</ele><time>2026-04-25T07:02:19.995Z</time></trkpt><trkpt lat="44.9735967" lon="8.262875"><ele>216.0</ele><time>2026-04-25T07:02:20.994Z</time></trkpt><trkpt lat="44.973635" lon="8.2629917"><ele>216.0</ele><time>2026-04-25T07:02:21.992Z</time></trkpt><trkpt lat="44.97367" lon="8.2631067"><ele>216.00000000000003</ele><time>2026-04-25T07:02:22.993Z</time></trkpt><trkpt lat="44.9737067" lon="8.2632233"><ele>216.00000000000003</ele><time>2026-04-25T07:02:23.989Z</time></trkpt><trkpt lat="44.9737467" lon="8.2633467"><ele>216.0</ele><time>2026-04-25T07:02:24.996Z</time></trkpt><trkpt lat="44.973785" lon="8.263475"><ele>216.0</ele><time>2026-04-25T07:02:25.997Z</time></trkpt><trkpt lat="44.973825" lon="8.263605"><ele>217.8</ele><time>2026-04-25T07:02:26.999Z</time></trkpt><trkpt lat="44.9738617" lon="8.26374"><ele>219.60000000000002</ele><time>2026-04-25T07:02:27.995Z</time></trkpt><trkpt lat="44.9738967" lon="8.26388"><ele>221.4</ele><time>2026-04-25T07:02:28.997Z</time></trkpt><trkpt lat="44.9739317" lon="8.26402"><ele>223.2</ele><time>2026-04-25T07:02:29.997Z</time></trkpt><trkpt lat="44.9739633" lon="8.2641667"><ele>225.0</ele><time>2026-04-25T07:02:30.995Z</time></trkpt><trkpt lat="44.9739867" lon="8.264315"><ele>226.2</ele><time>2026-04-25T07:02:31.999Z</time></trkpt><trkpt lat="44.9739967" lon="8.2644633"><ele>227.4</ele><time>2026-04-25T07:02:32.999Z</time></trkpt><trkpt lat="44.9739867" lon="8.2646083"><ele>228.60000000000002</ele><time>2026-04-25T07:02:33.999Z</time></trkpt><trkpt lat="44.973965" lon="8.2647467"><ele>229.8</ele><time>2026-04-25T07:02:34.996Z</time></trkpt><trkpt lat="44.9739333" lon="8.2648833"><ele>231.0</ele><time>2026-04-25T07:02:35.998Z</time></trkpt><trkpt lat="44.9739" lon="8.2650217"><ele>231.20000000000002</ele><time>2026-04-25T07:02:36.997Z</time></trkpt><trkpt lat="44.9738667" lon="8.2651533"><ele>231.40000000000003</ele><time>2026-04-25T07:02:37.998Z</time></trkpt><trkpt lat="44.9738317" lon="8.2652817"><ele>231.6</ele><time>2026-04-25T07:02:38.995Z</time></trkpt><trkpt lat="44.9737933" lon="8.265405"><ele>231.8</ele><time>2026-04-25T07:02:39.999Z</time></trkpt><trkpt lat="44.97375" lon="8.2655183"><ele>232.0</ele><time>2026-04-25T07:02:40.995Z</time></trkpt><trkpt lat="44.9737033" lon="8.265625"><ele>232.0</ele><time>2026-04-25T07:02:41.995Z</time></trkpt><trkpt lat="44.9736567" lon="8.2657217"><ele>232.0</ele><time>2026-04-25T07:02:43.006Z</time></trkpt><trkpt lat="44.97361" lon="8.26581"><ele>232.0</ele><time>2026-04-25T07:02:43.994Z</time></trkpt><trkpt lat="44.97356" lon="8.2658817"><ele>232.0</ele><time>2026-04-25T07:02:44.994Z</time></trkpt><trkpt lat="44.9734667" lon="8.265995"><ele>232.0</ele><time>2026-04-25T07:02:46.996Z</time></trkpt><trkpt lat="44.973375" lon="8.266105"><ele>231.99999999999997</ele><time>2026-04-25T07:02:48.998Z</time></trkpt><trkpt lat="44.9733883" lon="8.26628"><ele>232.0</ele><time>2026-04-25T07:02:50.996Z</time></trkpt><trkpt lat="44.9734133" lon="8.2663717"><ele>232.0</ele><time>2026-04-25T07:02:51.999Z</time></trkpt><trkpt lat="44.973455" lon="8.26645"><ele>232.0</ele><time>2026-04-25T07:02:52.997Z</time></trkpt><trkpt lat="44.973505" lon="8.2665183"><ele>231.99999999999997</ele><time>2026-04-25T07:02:53.995Z</time></trkpt><trkpt lat="44.9735567" lon="8.2665867"><ele>232.0</ele><time>2026-04-25T07:02:54.996Z</time></trkpt><trkpt lat="44.9736083" lon="8.2666533"><ele>230.8</ele><time>2026-04-25T07:02:55.993Z</time></trkpt><trkpt lat="44.9736633" lon="8.2667333"><ele>229.6</ele><time>2026-04-25T07:02:56.997Z</time></trkpt><trkpt lat="44.9737183" lon="8.2668283"><ele>228.40000000000003</ele><time>2026-04-25T07:02:57.995Z</time></trkpt><trkpt lat="44.97377" lon="8.2669383"><ele>227.20000000000002</ele><time>2026-04-25T07:02:58.996Z</time></trkpt><trkpt lat="44.9738167" lon="8.2670617"><ele>226.0</ele><time>2026-04-25T07:02:59.996Z</time></trkpt><trkpt lat="44.973845" lon="8.2672033"><ele>224.0</ele><time>2026-04-25T07:03:00.995Z</time></trkpt><trkpt lat="44.9738667" lon="8.26746"><ele>222.0</ele><time>2026-04-25T07:03:01.995Z</time></trkpt><trkpt lat="44.9738983" lon="8.2676833"><ele>220.0</ele><time>2026-04-25T07:03:02.993Z</time></trkpt><trkpt lat="44.97392" lon="8.26796"><ele>219.66666666666666</ele><time>2026-04-25T07:03:03.997Z</time></trkpt><trkpt lat="44.9739467" lon="8.26823"><ele>219.33333333333331</ele><time>2026-04-25T07:03:04.996Z</time></trkpt><trkpt lat="44.9739817" lon="8.2685017"><ele>219.0</ele><time>2026-04-25T07:03:06.002Z</time></trkpt><trkpt lat="44.974035" lon="8.26876"><ele>219.33333333333331</ele><time>2026-04-25T07:03:06.995Z</time></trkpt><trkpt lat="44.9740867" lon="8.269"><ele>219.66666666666666</ele><time>2026-04-25T07:03:07.994Z</time></trkpt><trkpt lat="44.974135" lon="8.2692233"><ele>220.0</ele><time>2026-04-25T07:03:08.995Z</time></trkpt><trkpt lat="44.9741867" lon="8.269445"><ele>218.0</ele><time>2026-04-25T07:03:09.996Z</time></trkpt><trkpt lat="44.9742433" lon="8.2696667"><ele>216.0</ele><time>2026-04-25T07:03:10.992Z</time></trkpt><trkpt lat="44.97431" lon="8.2698667"><ele>214.0</ele><time>2026-04-25T07:03:11.997Z</time></trkpt><trkpt lat="44.9743867" lon="8.2700567"><ele>214.0</ele><time>2026-04-25T07:03:12.997Z</time></trkpt><trkpt lat="44.974465" lon="8.2702317"><ele>214.0</ele><time>2026-04-25T07:03:13.995Z</time></trkpt><trkpt lat="44.9745417" lon="8.2704083"><ele>214.0</ele><time>2026-04-25T07:03:14.996Z</time></trkpt><trkpt lat="44.97462" lon="8.27058"><ele>214.0</ele><time>2026-04-25T07:03:15.992Z</time></trkpt><trkpt lat="44.974695" lon="8.2707483"><ele>216.5</ele><time>2026-04-25T07:03:16.994Z</time></trkpt><trkpt lat="44.9747683" lon="8.2709167"><ele>219.0</ele><time>2026-04-25T07:03:17.994Z</time></trkpt><trkpt lat="44.974835" lon="8.271085"><ele>221.5</ele><time>2026-04-25T07:03:18.996Z</time></trkpt><trkpt lat="44.9749017" lon="8.27125"><ele>224.0</ele><time>2026-04-25T07:03:19.994Z</time></trkpt><trkpt lat="44.9749667" lon="8.271415"><ele>223.0</ele><time>2026-04-25T07:03:21Z</time></trkpt><trkpt lat="44.9750283" lon="8.27158"><ele>222.0</ele><time>2026-04-25T07:03:21.992Z</time></trkpt><trkpt lat="44.9751017" lon="8.27175"><ele>221.0</ele><time>2026-04-25T07:03:23Z</time></trkpt><trkpt lat="44.975185" lon="8.2719217"><ele>220.0</ele><time>2026-04-25T07:03:24Z</time></trkpt><trkpt lat="44.97527" lon="8.2720917"><ele>220.0</ele><time>2026-04-25T07:03:24.994Z</time></trkpt><trkpt lat="44.9753683" lon="8.272255"><ele>220.0</ele><time>2026-04-25T07:03:25.995Z</time></trkpt><trkpt lat="44.975475" lon="8.2724117"><ele>220.0</ele><time>2026-04-25T07:03:26.997Z</time></trkpt><trkpt lat="44.975585" lon="8.272565"><ele>222.33333333333331</ele><time>2026-04-25T07:03:27.996Z</time></trkpt><trkpt lat="44.9757083" lon="8.2727067"><ele>224.66666666666669</ele><time>2026-04-25T07:03:28.994Z</time></trkpt><trkpt lat="44.975835" lon="8.2728417"><ele>227.0</ele><time>2026-04-25T07:03:29.995Z</time></trkpt><trkpt lat="44.9759633" lon="8.27298"><ele>225.66666666666669</ele><time>2026-04-25T07:03:30.994Z</time></trkpt><trkpt lat="44.9760933" lon="8.2730967"><ele>224.33333333333331</ele><time>2026-04-25T07:03:31.993Z</time></trkpt><trkpt lat="44.976225" lon="8.2732117"><ele>223.0</ele><time>2026-04-25T07:03:32.997Z</time></trkpt><trkpt lat="44.9763533" lon="8.2733167"><ele>223.0</ele><time>2026-04-25T07:03:33.993Z</time></trkpt><trkpt lat="44.976475" lon="8.2734067"><ele>223.0</ele><time>2026-04-25T07:03:34.997Z</time></trkpt><trkpt lat="44.976595" lon="8.2734933"><ele>223.0</ele><time>2026-04-25T07:03:35.997Z</time></trkpt><trkpt lat="44.97668" lon="8.27361"><ele>223.0</ele><time>2026-04-25T07:03:36.994Z</time></trkpt><trkpt lat="44.97676" lon="8.2737333"><ele>219.0</ele><time>2026-04-25T07:03:37.997Z</time></trkpt><trkpt lat="44.9767767" lon="8.273915"><ele>215.0</ele><time>2026-04-25T07:03:38.999Z</time></trkpt><trkpt lat="44.9767567" lon="8.2741433"><ele>211.0</ele><time>2026-04-25T07:03:40Z</time></trkpt><trkpt lat="44.9767517" lon="8.2743617"><ele>207.0</ele><time>2026-04-25T07:03:40.992Z</time></trkpt><trkpt lat="44.9767583" lon="8.274575"><ele>207.25</ele><time>2026-04-25T07:03:41.995Z</time></trkpt><trkpt lat="44.976785" lon="8.2747833"><ele>207.5</ele><time>2026-04-25T07:03:43.004Z</time></trkpt><trkpt lat="44.9768167" lon="8.2749833"><ele>207.75</ele><time>2026-04-25T07:03:43.998Z</time></trkpt><trkpt lat="44.9768417" lon="8.2751933"><ele>208.0</ele><time>2026-04-25T07:03:44.997Z</time></trkpt><trkpt lat="44.9768733" lon="8.275405"><ele>210.0</ele><time>2026-04-25T07:03:45.995Z</time></trkpt><trkpt lat="44.976905" lon="8.2756133"><ele>212.0</ele><time>2026-04-25T07:03:46.994Z</time></trkpt><trkpt lat="44.97692" lon="8.2758167"><ele>214.0</ele><time>2026-04-25T07:03:47.994Z</time></trkpt><trkpt lat="44.97693" lon="8.2760183"><ele>216.0</ele><time>2026-04-25T07:03:48.994Z</time></trkpt><trkpt lat="44.97692" lon="8.2762233"><ele>216.0</ele><time>2026-04-25T07:03:49.995Z</time></trkpt><trkpt lat="44.9768717" lon="8.2764183"><ele>216.0</ele><time>2026-04-25T07:03:50.996Z</time></trkpt><trkpt lat="44.976815" lon="8.27661"><ele>216.0</ele><time>2026-04-25T07:03:51.999Z</time></trkpt><trkpt lat="44.9767633" lon="8.2768083"><ele>216.0</ele><time>2026-04-25T07:03:52.994Z</time></trkpt><trkpt lat="44.9767083" lon="8.2770033"><ele>218.25</ele><time>2026-04-25T07:03:53.995Z</time></trkpt><trkpt lat="44.9766567" lon="8.2772017"><ele>220.5</ele><time>2026-04-25T07:03:54.995Z</time></trkpt><trkpt lat="44.9766183" lon="8.2774067"><ele>222.75</ele><time>2026-04-25T07:03:55.995Z</time></trkpt><trkpt lat="44.9765967" lon="8.2776083"><ele>225.0</ele><time>2026-04-25T07:03:56.996Z</time></trkpt><trkpt lat="44.9765867" lon="8.2778133"><ele>225.25</ele><time>2026-04-25T07:03:57.995Z</time></trkpt><trkpt lat="44.9765933" lon="8.2780133"><ele>225.5</ele><time>2026-04-25T07:03:58.995Z</time></trkpt><trkpt lat="44.9766017" lon="8.2782117"><ele>225.75</ele><time>2026-04-25T07:04:00Z</time></trkpt><trkpt lat="44.9766067" lon="8.2784133"><ele>226.0</ele><time>2026-04-25T07:04:00.994Z</time></trkpt><trkpt lat="44.976605" lon="8.2786217"><ele>226.33333333333331</ele><time>2026-04-25T07:04:01.996Z</time></trkpt><trkpt lat="44.9766083" lon="8.278845"><ele>226.66666666666669</ele><time>2026-04-25T07:04:02.995Z</time></trkpt><trkpt lat="44.97661" lon="8.27907"><ele>227.0</ele><time>2026-04-25T07:04:03.997Z</time></trkpt><trkpt lat="44.9765983" lon="8.2792933"><ele>227.0</ele><time>2026-04-25T07:04:04.992Z</time></trkpt><trkpt lat="44.9765683" lon="8.279515"><ele>227.0</ele><time>2026-04-25T07:04:05.995Z</time></trkpt><trkpt lat="44.9765283" lon="8.2797383"><ele>227.0</ele><time>2026-04-25T07:04:06.998Z</time></trkpt><trkpt lat="44.9764883" lon="8.2799633"><ele>226.0</ele><time>2026-04-25T07:04:07.997Z</time></trkpt><trkpt lat="44.9764533" lon="8.2801833"><ele>225.0</ele><time>2026-04-25T07:04:08.996Z</time></trkpt><trkpt lat="44.976425" lon="8.2804017"><ele>224.0</ele><time>2026-04-25T07:04:09.998Z</time></trkpt><trkpt lat="44.976395" lon="8.2806117"><ele>223.0</ele><time>2026-04-25T07:04:10.998Z</time></trkpt><trkpt lat="44.976365" lon="8.2808183"><ele>222.0</ele><time>2026-04-25T07:04:11.996Z</time></trkpt><trkpt lat="44.9763417" lon="8.2810167"><ele>221.0</ele><time>2026-04-25T07:04:13.001Z</time></trkpt><trkpt lat="44.97632" lon="8.2812"><ele>220.0</ele><time>2026-04-25T07:04:13.997Z</time></trkpt><trkpt lat="44.9763" lon="8.281375"><ele>220.4</ele><time>2026-04-25T07:04:14.995Z</time></trkpt><trkpt lat="44.9762767" lon="8.2815333"><ele>220.8</ele><time>2026-04-25T07:04:15.999Z</time></trkpt><trkpt lat="44.976255" lon="8.2816767"><ele>221.2</ele><time>2026-04-25T07:04:16.995Z</time></trkpt><trkpt lat="44.9762333" lon="8.2818033"><ele>221.6</ele><time>2026-04-25T07:04:17.996Z</time></trkpt><trkpt lat="44.9762167" lon="8.28191"><ele>222.0</ele><time>2026-04-25T07:04:18.994Z</time></trkpt><trkpt lat="44.9762017" lon="8.282015"><ele>222.0</ele><time>2026-04-25T07:04:19.993Z</time></trkpt><trkpt lat="44.9761883" lon="8.282105"><ele>222.0</ele><time>2026-04-25T07:04:20.991Z</time></trkpt><trkpt lat="44.9762883" lon="8.2821"><ele>222.0</ele><time>2026-04-25T07:04:28.996Z</time></trkpt><trkpt lat="44.9763833" lon="8.2821083"><ele>222.0</ele><time>2026-04-25T07:04:30.003Z</time></trkpt><trkpt lat="44.9764717" lon="8.282105"><ele>222.0</ele><time>2026-04-25T07:04:30.995Z</time></trkpt><trkpt lat="44.9765683" lon="8.2821133"><ele>222.0</ele><time>2026-04-25T07:04:31.996Z</time></trkpt><trkpt lat="44.97666" lon="8.28212"><ele>222.6</ele><time>2026-04-25T07:04:32.994Z</time></trkpt><trkpt lat="44.9767583" lon="8.2821267"><ele>223.2</ele><time>2026-04-25T07:04:33.996Z</time></trkpt><trkpt lat="44.97686" lon="8.2821317"><ele>223.8</ele><time>2026-04-25T07:04:34.994Z</time></trkpt><trkpt lat="44.9769683" lon="8.282145"><ele>224.4</ele><time>2026-04-25T07:04:35.994Z</time></trkpt><trkpt lat="44.9770883" lon="8.282155"><ele>225.0</ele><time>2026-04-25T07:04:36.997Z</time></trkpt><trkpt lat="44.9772117" lon="8.2821583"><ele>225.0</ele><time>2026-04-25T07:04:37.996Z</time></trkpt><trkpt lat="44.97734" lon="8.2821633"><ele>225.0</ele><time>2026-04-25T07:04:38.995Z</time></trkpt><trkpt lat="44.9774617" lon="8.282175"><ele>225.0</ele><time>2026-04-25T07:04:39.994Z</time></trkpt><trkpt lat="44.977585" lon="8.282195"><ele>225.0</ele><time>2026-04-25T07:04:40.995Z</time></trkpt><trkpt lat="44.9777133" lon="8.28222"><ele>226.5</ele><time>2026-04-25T07:04:41.999Z</time></trkpt><trkpt lat="44.97784" lon="8.2822667"><ele>228.0</ele><time>2026-04-25T07:04:42.996Z</time></trkpt><trkpt lat="44.977965" lon="8.2823433"><ele>229.5</ele><time>2026-04-25T07:04:43.996Z</time></trkpt><trkpt lat="44.9780883" lon="8.2824433"><ele>231.0</ele><time>2026-04-25T07:04:45.001Z</time></trkpt><trkpt lat="44.9782083" lon="8.2825533"><ele>231.0</ele><time>2026-04-25T07:04:45.993Z</time></trkpt><trkpt lat="44.978335" lon="8.2826683"><ele>231.0</ele><time>2026-04-25T07:04:46.994Z</time></trkpt><trkpt lat="44.9784583" lon="8.2827883"><ele>231.0</ele><time>2026-04-25T07:04:47.996Z</time></trkpt><trkpt lat="44.978585" lon="8.2829067"><ele>232.75</ele><time>2026-04-25T07:04:48.996Z</time></trkpt><trkpt lat="44.9787017" lon="8.2830233"><ele>234.5</ele><time>2026-04-25T07:04:49.995Z</time></trkpt><trkpt lat="44.9788183" lon="8.283135"><ele>236.25</ele><time>2026-04-25T07:04:51Z</time></trkpt><trkpt lat="44.9789333" lon="8.2832433"><ele>238.0</ele><time>2026-04-25T07:04:51.994Z</time></trkpt><trkpt lat="44.9790383" lon="8.2833467"><ele>238.0</ele><time>2026-04-25T07:04:52.995Z</time></trkpt><trkpt lat="44.9791417" lon="8.28344"><ele>238.0</ele><time>2026-04-25T07:04:53.993Z</time></trkpt><trkpt lat="44.97924" lon="8.28352"><ele>238.0</ele><time>2026-04-25T07:04:54.995Z</time></trkpt><trkpt lat="44.9793417" lon="8.2835817"><ele>238.0</ele><time>2026-04-25T07:04:55.99Z</time></trkpt><trkpt lat="44.9794467" lon="8.2836283"><ele>240.0</ele><time>2026-04-25T07:04:56.999Z</time></trkpt><trkpt lat="44.9795567" lon="8.28367"><ele>242.0</ele><time>2026-04-25T07:04:57.992Z</time></trkpt><trkpt lat="44.97967" lon="8.283695"><ele>244.0</ele><time>2026-04-25T07:04:59.001Z</time></trkpt><trkpt lat="44.97979" lon="8.2836983"><ele>246.0</ele><time>2026-04-25T07:05:00.003Z</time></trkpt><trkpt lat="44.9799133" lon="8.2836833"><ele>246.5</ele><time>2026-04-25T07:05:00.996Z</time></trkpt><trkpt lat="44.98004" lon="8.28366"><ele>247.0</ele><time>2026-04-25T07:05:01.995Z</time></trkpt><trkpt lat="44.980175" lon="8.2836317"><ele>247.5</ele><time>2026-04-25T07:05:02.992Z</time></trkpt><trkpt lat="44.98031" lon="8.2836067"><ele>248.0</ele><time>2026-04-25T07:05:04Z</time></trkpt><trkpt lat="44.98045" lon="8.2835833"><ele>248.0</ele><time>2026-04-25T07:05:04.997Z</time></trkpt><trkpt lat="44.98059" lon="8.2835667"><ele>248.0</ele><time>2026-04-25T07:05:06.001Z</time></trkpt><trkpt lat="44.9807267" lon="8.2835533"><ele>248.0</ele><time>2026-04-25T07:05:07Z</time></trkpt><trkpt lat="44.9808617" lon="8.2835383"><ele>248.0</ele><time>2026-04-25T07:05:07.995Z</time></trkpt><trkpt lat="44.9809917" lon="8.2835217"><ele>248.75</ele><time>2026-04-25T07:05:08.996Z</time></trkpt><trkpt lat="44.9811183" lon="8.2835117"><ele>249.5</ele><time>2026-04-25T07:05:09.999Z</time></trkpt><trkpt lat="44.98124" lon="8.2835317"><ele>250.25</ele><time>2026-04-25T07:05:10.995Z</time></trkpt><trkpt lat="44.9813633" lon="8.2835767"><ele>251.0</ele><time>2026-04-25T07:05:11.997Z</time></trkpt><trkpt lat="44.9814817" lon="8.2836517"><ele>251.0</ele><time>2026-04-25T07:05:13.002Z</time></trkpt><trkpt lat="44.9815817" lon="8.2837617"><ele>251.0</ele><time>2026-04-25T07:05:13.995Z</time></trkpt><trkpt lat="44.9816667" lon="8.2839"><ele>251.0</ele><time>2026-04-25T07:05:14.998Z</time></trkpt><trkpt lat="44.9817433" lon="8.2840533"><ele>251.0</ele><time>2026-04-25T07:05:15.992Z</time></trkpt><trkpt lat="44.981815" lon="8.284215"><ele>253.0</ele><time>2026-04-25T07:05:16.995Z</time></trkpt><trkpt lat="44.98189" lon="8.2843733"><ele>255.0</ele><time>2026-04-25T07:05:17.997Z</time></trkpt><trkpt lat="44.9819683" lon="8.284535"><ele>257.0</ele><time>2026-04-25T07:05:18.994Z</time></trkpt><trkpt lat="44.9820517" lon="8.2846967"><ele>259.0</ele><time>2026-04-25T07:05:19.994Z</time></trkpt><trkpt lat="44.982135" lon="8.2848583"><ele>259.0</ele><time>2026-04-25T07:05:20.994Z</time></trkpt><trkpt lat="44.9822133" lon="8.2850267"><ele>259.0</ele><time>2026-04-25T07:05:21.994Z</time></trkpt><trkpt lat="44.982295" lon="8.2851917"><ele>259.0</ele><time>2026-04-25T07:05:22.996Z</time></trkpt><trkpt lat="44.9823767" lon="8.2853583"><ele>259.0</ele><time>2026-04-25T07:05:23.998Z</time></trkpt><trkpt lat="44.98246" lon="8.2855233"><ele>259.25</ele><time>2026-04-25T07:05:24.995Z</time></trkpt><trkpt lat="44.9825517" lon="8.2856717"><ele>259.5</ele><time>2026-04-25T07:05:26Z</time></trkpt><trkpt lat="44.9826517" lon="8.2857917"><ele>259.75</ele><time>2026-04-25T07:05:26.995Z</time></trkpt><trkpt lat="44.9827633" lon="8.2858783"><ele>260.0</ele><time>2026-04-25T07:05:27.995Z</time></trkpt><trkpt lat="44.9828817" lon="8.285935"><ele>260.0</ele><time>2026-04-25T07:05:29.002Z</time></trkpt><trkpt lat="44.9830083" lon="8.2859583"><ele>260.0</ele><time>2026-04-25T07:05:29.994Z</time></trkpt><trkpt lat="44.9831417" lon="8.285945"><ele>260.0</ele><time>2026-04-25T07:05:30.998Z</time></trkpt><trkpt lat="44.9832767" lon="8.285925"><ele>260.0</ele><time>2026-04-25T07:05:31.993Z</time></trkpt><trkpt lat="44.9834183" lon="8.2858783"><ele>258.6666666666667</ele><time>2026-04-25T07:05:32.997Z</time></trkpt><trkpt lat="44.98356" lon="8.285815"><ele>257.3333333333333</ele><time>2026-04-25T07:05:33.996Z</time></trkpt><trkpt lat="44.9836983" lon="8.2857117"><ele>256.0</ele><time>2026-04-25T07:05:34.995Z</time></trkpt><trkpt lat="44.9838233" lon="8.285575"><ele>256.0</ele><time>2026-04-25T07:05:35.991Z</time></trkpt><trkpt lat="44.9839333" lon="8.285395"><ele>256.0</ele><time>2026-04-25T07:05:36.996Z</time></trkpt><trkpt lat="44.98404" lon="8.2852083"><ele>256.0</ele><time>2026-04-25T07:05:37.998Z</time></trkpt><trkpt lat="44.9841433" lon="8.2850433"><ele>256.66666666666663</ele><time>2026-04-25T07:05:38.997Z</time></trkpt><trkpt lat="44.9842617" lon="8.2849117"><ele>257.3333333333333</ele><time>2026-04-25T07:05:39.999Z</time></trkpt><trkpt lat="44.9843933" lon="8.28481"><ele>258.0</ele><time>2026-04-25T07:05:40.997Z</time></trkpt><trkpt lat="44.984535" lon="8.28474"><ele>258.0</ele><time>2026-04-25T07:05:41.996Z</time></trkpt><trkpt lat="44.984685" lon="8.2846867"><ele>258.0</ele><time>2026-04-25T07:05:42.994Z</time></trkpt><trkpt lat="44.9848433" lon="8.2846467"><ele>258.0</ele><time>2026-04-25T07:05:43.996Z</time></trkpt><trkpt lat="44.9850033" lon="8.2846"><ele>259.6666666666667</ele><time>2026-04-25T07:05:44.995Z</time></trkpt><trkpt lat="44.98516" lon="8.284555"><ele>261.33333333333337</ele><time>2026-04-25T07:05:46.001Z</time></trkpt><trkpt lat="44.985315" lon="8.2845267"><ele>263.0</ele><time>2026-04-25T07:05:46.993Z</time></trkpt><trkpt lat="44.9854683" lon="8.2845033"><ele>263.0</ele><time>2026-04-25T07:05:47.994Z</time></trkpt><trkpt lat="44.985625" lon="8.284475"><ele>263.0</ele><time>2026-04-25T07:05:48.996Z</time></trkpt><trkpt lat="44.9857883" lon="8.28445"><ele>263.0</ele><time>2026-04-25T07:05:49.994Z</time></trkpt><trkpt lat="44.9859533" lon="8.2844383"><ele>261.6666666666667</ele><time>2026-04-25T07:05:50.997Z</time></trkpt><trkpt lat="44.986115" lon="8.2844483"><ele>260.3333333333333</ele><time>2026-04-25T07:05:51.995Z</time></trkpt><trkpt lat="44.98627" lon="8.2844867"><ele>259.0</ele><time>2026-04-25T07:05:52.999Z</time></trkpt><trkpt lat="44.986415" lon="8.2845433"><ele>259.0</ele><time>2026-04-25T07:05:53.994Z</time></trkpt><trkpt lat="44.98655" lon="8.2846183"><ele>259.0</ele><time>2026-04-25T07:05:55.002Z</time></trkpt><trkpt lat="44.9866867" lon="8.2847033"><ele>259.0</ele><time>2026-04-25T07:05:55.996Z</time></trkpt><trkpt lat="44.9868167" lon="8.28478"><ele>259.0</ele><time>2026-04-25T07:05:56.998Z</time></trkpt><trkpt lat="44.986945" lon="8.2848617"><ele>259.25</ele><time>2026-04-25T07:05:58Z</time></trkpt><trkpt lat="44.98707" lon="8.2849283"><ele>259.5</ele><time>2026-04-25T07:05:58.991Z</time></trkpt><trkpt lat="44.9871967" lon="8.28499"><ele>259.75</ele><time>2026-04-25T07:05:59.993Z</time></trkpt><trkpt lat="44.9873217" lon="8.2850533"><ele>260.0</ele><time>2026-04-25T07:06:01.003Z</time></trkpt><trkpt lat="44.9874467" lon="8.2851217"><ele>260.75</ele><time>2026-04-25T07:06:01.994Z</time></trkpt><trkpt lat="44.9875767" lon="8.2851717"><ele>261.5</ele><time>2026-04-25T07:06:02.998Z</time></trkpt><trkpt lat="44.9877017" lon="8.2852067"><ele>262.25</ele><time>2026-04-25T07:06:04.002Z</time></trkpt><trkpt lat="44.9878333" lon="8.285225"><ele>263.0</ele><time>2026-04-25T07:06:04.995Z</time></trkpt><trkpt lat="44.9879667" lon="8.2852233"><ele>263.0</ele><time>2026-04-25T07:06:05.995Z</time></trkpt><trkpt lat="44.9881017" lon="8.2852183"><ele>263.0</ele><time>2026-04-25T07:06:06.997Z</time></trkpt><trkpt lat="44.9882317" lon="8.285215"><ele>263.0</ele><time>2026-04-25T07:06:07.994Z</time></trkpt><trkpt lat="44.988365" lon="8.2852167"><ele>263.0</ele><time>2026-04-25T07:06:08.994Z</time></trkpt><trkpt lat="44.9884983" lon="8.2852267"><ele>264.0</ele><time>2026-04-25T07:06:09.999Z</time></trkpt><trkpt lat="44.9886317" lon="8.28524"><ele>265.0</ele><time>2026-04-25T07:06:10.998Z</time></trkpt><trkpt lat="44.98877" lon="8.2852483"><ele>266.0</ele><time>2026-04-25T07:06:11.997Z</time></trkpt><trkpt lat="44.9889083" lon="8.28524"><ele>267.0</ele><time>2026-04-25T07:06:12.999Z</time></trkpt><trkpt lat="44.9890417" lon="8.28522"><ele>267.0</ele><time>2026-04-25T07:06:13.997Z</time></trkpt><trkpt lat="44.9891733" lon="8.2851767"><ele>267.0</ele><time>2026-04-25T07:06:14.997Z</time></trkpt><trkpt lat="44.989305" lon="8.2851267"><ele>267.0</ele><time>2026-04-25T07:06:15.997Z</time></trkpt><trkpt lat="44.9894383" lon="8.2850783"><ele>267.0</ele><time>2026-04-25T07:06:16.999Z</time></trkpt><trkpt lat="44.9895683" lon="8.2850283"><ele>268.5</ele><time>2026-04-25T07:06:17.991Z</time></trkpt><trkpt lat="44.9897" lon="8.28498"><ele>270.0</ele><time>2026-04-25T07:06:18.996Z</time></trkpt><trkpt lat="44.9898267" lon="8.2849367"><ele>271.5</ele><time>2026-04-25T07:06:19.999Z</time></trkpt><trkpt lat="44.98995" lon="8.2848983"><ele>273.0</ele><time>2026-04-25T07:06:20.996Z</time></trkpt><trkpt lat="44.9900783" lon="8.2848383"><ele>275.0</ele><time>2026-04-25T07:06:21.998Z</time></trkpt><trkpt lat="44.9901983" lon="8.28475"><ele>277.0</ele><time>2026-04-25T07:06:22.993Z</time></trkpt><trkpt lat="44.9903183" lon="8.284655"><ele>279.0</ele><time>2026-04-25T07:06:23.993Z</time></trkpt><trkpt lat="44.9904417" lon="8.284545"><ele>281.0</ele><time>2026-04-25T07:06:24.994Z</time></trkpt><trkpt lat="44.9905667" lon="8.28443"><ele>281.0</ele><time>2026-04-25T07:06:25.991Z</time></trkpt><trkpt lat="44.9907017" lon="8.28432"><ele>281.0</ele><time>2026-04-25T07:06:26.996Z</time></trkpt><trkpt lat="44.9908467" lon="8.284215"><ele>281.0</ele><time>2026-04-25T07:06:27.994Z</time></trkpt><trkpt lat="44.9909867" lon="8.2841067"><ele>279.75</ele><time>2026-04-25T07:06:28.995Z</time></trkpt><trkpt lat="44.9911117" lon="8.2840083"><ele>278.5</ele><time>2026-04-25T07:06:29.997Z</time></trkpt><trkpt lat="44.9912167" lon="8.2838983"><ele>277.25</ele><time>2026-04-25T07:06:30.997Z</time></trkpt><trkpt lat="44.9912933" lon="8.28376"><ele>276.0</ele><time>2026-04-25T07:06:31.996Z</time></trkpt><trkpt lat="44.9913517" lon="8.2835917"><ele>276.0</ele><time>2026-04-25T07:06:32.994Z</time></trkpt><trkpt lat="44.9913867" lon="8.28339"><ele>276.0</ele><time>2026-04-25T07:06:33.997Z</time></trkpt><trkpt lat="44.991385" lon="8.2831917"><ele>276.0</ele><time>2026-04-25T07:06:34.998Z</time></trkpt><trkpt lat="44.991355" lon="8.283035"><ele>276.0</ele><time>2026-04-25T07:06:36Z</time></trkpt><trkpt lat="44.9913217" lon="8.2828717"><ele>276.5</ele><time>2026-04-25T07:06:36.997Z</time></trkpt><trkpt lat="44.9912983" lon="8.28271"><ele>277.0</ele><time>2026-04-25T07:06:37.997Z</time></trkpt><trkpt lat="44.991265" lon="8.28255"><ele>277.5</ele><time>2026-04-25T07:06:38.999Z</time></trkpt><trkpt lat="44.9912483" lon="8.2824"><ele>278.0</ele><time>2026-04-25T07:06:39.998Z</time></trkpt><trkpt lat="44.9912383" lon="8.282245"><ele>279.2</ele><time>2026-04-25T07:06:40.994Z</time></trkpt><trkpt lat="44.9912367" lon="8.2821017"><ele>280.4</ele><time>2026-04-25T07:06:41.992Z</time></trkpt><trkpt lat="44.9912483" lon="8.2819367"><ele>281.59999999999997</ele><time>2026-04-25T07:06:42.991Z</time></trkpt><trkpt lat="44.9912783" lon="8.2817967"><ele>282.8</ele><time>2026-04-25T07:06:43.996Z</time></trkpt><trkpt lat="44.9913217" lon="8.281665"><ele>284.0</ele><time>2026-04-25T07:06:44.994Z</time></trkpt><trkpt lat="44.99138" lon="8.2815417"><ele>284.0</ele><time>2026-04-25T07:06:45.997Z</time></trkpt><trkpt lat="44.9914483" lon="8.2814133"><ele>284.0</ele><time>2026-04-25T07:06:46.994Z</time></trkpt><trkpt lat="44.991515" lon="8.2812717"><ele>284.0</ele><time>2026-04-25T07:06:47.995Z</time></trkpt><trkpt lat="44.991595" lon="8.281135"><ele>284.0</ele><time>2026-04-25T07:06:48.993Z</time></trkpt><trkpt lat="44.9916867" lon="8.2810067"><ele>284.0</ele><time>2026-04-25T07:06:49.996Z</time></trkpt><trkpt lat="44.9917933" lon="8.2809"><ele>284.0</ele><time>2026-04-25T07:06:50.996Z</time></trkpt><trkpt lat="44.9919017" lon="8.28081"><ele>284.0</ele><time>2026-04-25T07:06:52.001Z</time></trkpt><trkpt lat="44.9920133" lon="8.2807333"><ele>284.0</ele><time>2026-04-25T07:06:52.992Z</time></trkpt><trkpt lat="44.9921383" lon="8.2806817"><ele>284.0</ele><time>2026-04-25T07:06:53.994Z</time></trkpt><trkpt lat="44.9922683" lon="8.2806417"><ele>284.0</ele><time>2026-04-25T07:06:54.999Z</time></trkpt><trkpt lat="44.9924" lon="8.2806067"><ele>284.0</ele><time>2026-04-25T07:06:55.993Z</time></trkpt><trkpt lat="44.9925367" lon="8.2805767"><ele>284.0</ele><time>2026-04-25T07:06:56.995Z</time></trkpt><trkpt lat="44.992675" lon="8.2805633"><ele>282.0</ele><time>2026-04-25T07:06:57.993Z</time></trkpt><trkpt lat="44.9928183" lon="8.2805517"><ele>280.0</ele><time>2026-04-25T07:06:58.992Z</time></trkpt><trkpt lat="44.99296" lon="8.28055"><ele>278.0</ele><time>2026-04-25T07:06:59.996Z</time></trkpt><trkpt lat="44.9931033" lon="8.28056"><ele>276.0</ele><time>2026-04-25T07:07:00.995Z</time></trkpt><trkpt lat="44.9932517" lon="8.2805817"><ele>277.0</ele><time>2026-04-25T07:07:01.997Z</time></trkpt><trkpt lat="44.9934" lon="8.2806033"><ele>278.0</ele><time>2026-04-25T07:07:02.996Z</time></trkpt><trkpt lat="44.9935533" lon="8.280615"><ele>279.0</ele><time>2026-04-25T07:07:03.993Z</time></trkpt><trkpt lat="44.9937067" lon="8.2806267"><ele>279.0</ele><time>2026-04-25T07:07:04.992Z</time></trkpt><trkpt lat="44.993865" lon="8.28063"><ele>279.0</ele><time>2026-04-25T07:07:05.995Z</time></trkpt><trkpt lat="44.9940217" lon="8.2806367"><ele>279.0</ele><time>2026-04-25T07:07:06.994Z</time></trkpt><trkpt lat="44.99418" lon="8.28065"><ele>277.3333333333333</ele><time>2026-04-25T07:07:07.996Z</time></trkpt><trkpt lat="44.9943483" lon="8.2806533"><ele>275.66666666666663</ele><time>2026-04-25T07:07:08.997Z</time></trkpt><trkpt lat="44.994505" lon="8.2806633"><ele>274.0</ele><time>2026-04-25T07:07:09.996Z</time></trkpt><trkpt lat="44.99466" lon="8.2806783"><ele>274.0</ele><time>2026-04-25T07:07:10.994Z</time></trkpt><trkpt lat="44.994815" lon="8.2806867"><ele>274.0</ele><time>2026-04-25T07:07:11.992Z</time></trkpt><trkpt lat="44.9949633" lon="8.280695"><ele>274.0</ele><time>2026-04-25T07:07:13Z</time></trkpt><trkpt lat="44.9951033" lon="8.2807083"><ele>274.0</ele><time>2026-04-25T07:07:13.993Z</time></trkpt><trkpt lat="44.9952433" lon="8.2807017"><ele>274.0</ele><time>2026-04-25T07:07:14.998Z</time></trkpt><trkpt lat="44.9953767" lon="8.2806933"><ele>274.0</ele><time>2026-04-25T07:07:16.004Z</time></trkpt><trkpt lat="44.995505" lon="8.28067"><ele>274.0</ele><time>2026-04-25T07:07:16.996Z</time></trkpt><trkpt lat="44.9956317" lon="8.2806333"><ele>274.0</ele><time>2026-04-25T07:07:17.996Z</time></trkpt><trkpt lat="44.9957517" lon="8.28058"><ele>272.5</ele><time>2026-04-25T07:07:18.997Z</time></trkpt><trkpt lat="44.9958717" lon="8.280515"><ele>271.0</ele><time>2026-04-25T07:07:19.996Z</time></trkpt><trkpt lat="44.9959883" lon="8.2804533"><ele>269.5</ele><time>2026-04-25T07:07:20.998Z</time></trkpt><trkpt lat="44.9961033" lon="8.28039"><ele>268.0</ele><time>2026-04-25T07:07:21.996Z</time></trkpt><trkpt lat="44.9962267" lon="8.2803183"><ele>268.0</ele><time>2026-04-25T07:07:22.997Z</time></trkpt><trkpt lat="44.996355" lon="8.28024"><ele>268.0</ele><time>2026-04-25T07:07:23.999Z</time></trkpt><trkpt lat="44.996495" lon="8.2801583"><ele>268.0</ele><time>2026-04-25T07:07:25.001Z</time></trkpt><trkpt lat="44.9966433" lon="8.2800767"><ele>266.3333333333333</ele><time>2026-04-25T07:07:25.998Z</time></trkpt><trkpt lat="44.9967933" lon="8.2799817"><ele>264.6666666666667</ele><time>2026-04-25T07:07:26.996Z</time></trkpt><trkpt lat="44.99695" lon="8.2798717"><ele>263.0</ele><time>2026-04-25T07:07:28.001Z</time></trkpt><trkpt lat="44.9971" lon="8.2797533"><ele>263.0</ele><time>2026-04-25T07:07:28.995Z</time></trkpt><trkpt lat="44.9972483" lon="8.2796367"><ele>263.0</ele><time>2026-04-25T07:07:29.995Z</time></trkpt><trkpt lat="44.99739" lon="8.2795217"><ele>263.0</ele><time>2026-04-25T07:07:30.996Z</time></trkpt><trkpt lat="44.9975233" lon="8.2794067"><ele>266.6666666666667</ele><time>2026-04-25T07:07:31.996Z</time></trkpt><trkpt lat="44.9976483" lon="8.2792917"><ele>270.3333333333333</ele><time>2026-04-25T07:07:32.994Z</time></trkpt><trkpt lat="44.99778" lon="8.2791767"><ele>274.0</ele><time>2026-04-25T07:07:33.996Z</time></trkpt><trkpt lat="44.997905" lon="8.2790617"><ele>274.0</ele><time>2026-04-25T07:07:34.994Z</time></trkpt><trkpt lat="44.9980267" lon="8.27895"><ele>274.0</ele><time>2026-04-25T07:07:35.998Z</time></trkpt><trkpt lat="44.9981417" lon="8.2788383"><ele>274.0</ele><time>2026-04-25T07:07:37Z</time></trkpt><trkpt lat="44.998245" lon="8.2787267"><ele>274.0</ele><time>2026-04-25T07:07:37.999Z</time></trkpt><trkpt lat="44.9983433" lon="8.2786183"><ele>273.4</ele><time>2026-04-25T07:07:38.997Z</time></trkpt><trkpt lat="44.9984367" lon="8.2785133"><ele>272.79999999999995</ele><time>2026-04-25T07:07:40Z</time></trkpt><trkpt lat="44.9985183" lon="8.2784217"><ele>272.20000000000005</ele><time>2026-04-25T07:07:40.996Z</time></trkpt><trkpt lat="44.99859" lon="8.27835"><ele>271.6</ele><time>2026-04-25T07:07:41.999Z</time></trkpt><trkpt lat="44.9986617" lon="8.2783033"><ele>271.0</ele><time>2026-04-25T07:07:42.998Z</time></trkpt><trkpt lat="44.9987317" lon="8.27828"><ele>271.0</ele><time>2026-04-25T07:07:43.995Z</time></trkpt><trkpt lat="44.998835" lon="8.2783117"><ele>271.0</ele><time>2026-04-25T07:07:46Z</time></trkpt><trkpt lat="44.998875" lon="8.278505"><ele>271.0</ele><time>2026-04-25T07:07:47.995Z</time></trkpt><trkpt lat="44.9988917" lon="8.2786283"><ele>271.0</ele><time>2026-04-25T07:07:49Z</time></trkpt><trkpt lat="44.998905" lon="8.2787667"><ele>271.0</ele><time>2026-04-25T07:07:50Z</time></trkpt><trkpt lat="44.998915" lon="8.2789217"><ele>270.0</ele><time>2026-04-25T07:07:50.999Z</time></trkpt><trkpt lat="44.9989267" lon="8.2790783"><ele>269.0</ele><time>2026-04-25T07:07:51.997Z</time></trkpt><trkpt lat="44.9989433" lon="8.27924"><ele>268.0</ele><time>2026-04-25T07:07:52.998Z</time></trkpt><trkpt lat="44.9989667" lon="8.2794183"><ele>267.0</ele><time>2026-04-25T07:07:53.996Z</time></trkpt><trkpt lat="44.998995" lon="8.27961"><ele>265.75</ele><time>2026-04-25T07:07:54.997Z</time></trkpt><trkpt lat="44.999025" lon="8.2798083"><ele>264.5</ele><time>2026-04-25T07:07:55.998Z</time></trkpt><trkpt lat="44.9990533" lon="8.2800183"><ele>263.25</ele><time>2026-04-25T07:07:56.996Z</time></trkpt><trkpt lat="44.9990733" lon="8.28023"><ele>262.0</ele><time>2026-04-25T07:07:57.999Z</time></trkpt><trkpt lat="44.99909" lon="8.2804417"><ele>261.0</ele><time>2026-04-25T07:07:58.995Z</time></trkpt><trkpt lat="44.99911" lon="8.2806533"><ele>260.0</ele><time>2026-04-25T07:08:00.005Z</time></trkpt><trkpt lat="44.9991317" lon="8.280865"><ele>259.0</ele><time>2026-04-25T07:08:00.996Z</time></trkpt><trkpt lat="44.99915" lon="8.2810783"><ele>259.0</ele><time>2026-04-25T07:08:02.001Z</time></trkpt><trkpt lat="44.9991667" lon="8.2812917"><ele>259.0</ele><time>2026-04-25T07:08:02.997Z</time></trkpt><trkpt lat="44.9991783" lon="8.2815083"><ele>259.0</ele><time>2026-04-25T07:08:03.992Z</time></trkpt><trkpt lat="44.99918" lon="8.2817283"><ele>258.0</ele><time>2026-04-25T07:08:05.001Z</time></trkpt><trkpt lat="44.9991483" lon="8.2819383"><ele>257.0</ele><time>2026-04-25T07:08:05.993Z</time></trkpt><trkpt lat="44.99911" lon="8.28213"><ele>256.0</ele><time>2026-04-25T07:08:06.995Z</time></trkpt><trkpt lat="44.9990833" lon="8.2823117"><ele>255.0</ele><time>2026-04-25T07:08:07.995Z</time></trkpt><trkpt lat="44.9990783" lon="8.2824867"><ele>254.0</ele><time>2026-04-25T07:08:08.999Z</time></trkpt><trkpt lat="44.999115" lon="8.28266"><ele>253.0</ele><time>2026-04-25T07:08:09.994Z</time></trkpt><trkpt lat="44.99919" lon="8.28283"><ele>252.0</ele><time>2026-04-25T07:08:10.996Z</time></trkpt><trkpt lat="44.9992967" lon="8.2829817"><ele>251.0</ele><time>2026-04-25T07:08:11.996Z</time></trkpt><trkpt lat="44.999425" lon="8.2831183"><ele>247.0</ele><time>2026-04-25T07:08:12.996Z</time></trkpt><trkpt lat="44.9995683" lon="8.283245"><ele>243.0</ele><time>2026-04-25T07:08:13.997Z</time></trkpt><trkpt lat="44.9997133" lon="8.2833583"><ele>239.0</ele><time>2026-04-25T07:08:14.998Z</time></trkpt><trkpt lat="44.999855" lon="8.2834667"><ele>239.0</ele><time>2026-04-25T07:08:15.995Z</time></trkpt><trkpt lat="44.999995" lon="8.2835767"><ele>239.0</ele><time>2026-04-25T07:08:16.993Z</time></trkpt><trkpt lat="45.000125" lon="8.2837083"><ele>239.0</ele><time>2026-04-25T07:08:17.995Z</time></trkpt><trkpt lat="45.0002333" lon="8.2838567"><ele>238.66666666666669</ele><time>2026-04-25T07:08:18.993Z</time></trkpt><trkpt lat="45.00032" lon="8.284045"><ele>238.33333333333331</ele><time>2026-04-25T07:08:19.997Z</time></trkpt><trkpt lat="45.000395" lon="8.2842483"><ele>238.0</ele><time>2026-04-25T07:08:21.002Z</time></trkpt><trkpt lat="45.0004583" lon="8.2844633"><ele>238.0</ele><time>2026-04-25T07:08:21.999Z</time></trkpt><trkpt lat="45.0005067" lon="8.2846883"><ele>238.0</ele><time>2026-04-25T07:08:22.996Z</time></trkpt><trkpt lat="45.0005333" lon="8.2849233"><ele>238.0</ele><time>2026-04-25T07:08:23.995Z</time></trkpt><trkpt lat="45.0005367" lon="8.2851583"><ele>237.0</ele><time>2026-04-25T07:08:24.998Z</time></trkpt><trkpt lat="45.000505" lon="8.285395"><ele>236.0</ele><time>2026-04-25T07:08:25.996Z</time></trkpt><trkpt lat="45.0004467" lon="8.2856267"><ele>235.0</ele><time>2026-04-25T07:08:26.996Z</time></trkpt><trkpt lat="45.0003667" lon="8.285845"><ele>235.0</ele><time>2026-04-25T07:08:28.002Z</time></trkpt><trkpt lat="45.0002783" lon="8.28606"><ele>235.0</ele><time>2026-04-25T07:08:28.995Z</time></trkpt><trkpt lat="45.0001883" lon="8.28626"><ele>235.0</ele><time>2026-04-25T07:08:29.996Z</time></trkpt><trkpt lat="45.00012" lon="8.2864517"><ele>236.5</ele><time>2026-04-25T07:08:30.993Z</time></trkpt><trkpt lat="45.0000667" lon="8.2866317"><ele>238.0</ele><time>2026-04-25T07:08:31.999Z</time></trkpt><trkpt lat="45.0000417" lon="8.2868167"><ele>239.5</ele><time>2026-04-25T07:08:32.998Z</time></trkpt><trkpt lat="45.0000533" lon="8.287"><ele>241.0</ele><time>2026-04-25T07:08:33.998Z</time></trkpt><trkpt lat="45.000095" lon="8.2871783"><ele>241.0</ele><time>2026-04-25T07:08:34.999Z</time></trkpt><trkpt lat="45.00016" lon="8.2873717"><ele>241.0</ele><time>2026-04-25T07:08:36.001Z</time></trkpt><trkpt lat="45.0002183" lon="8.2875717"><ele>241.0</ele><time>2026-04-25T07:08:37.001Z</time></trkpt><trkpt lat="45.00027" lon="8.28778"><ele>241.0</ele><time>2026-04-25T07:08:37.996Z</time></trkpt><trkpt lat="45.000305" lon="8.28799"><ele>241.0</ele><time>2026-04-25T07:08:38.996Z</time></trkpt><trkpt lat="45.0003217" lon="8.2882033"><ele>241.0</ele><time>2026-04-25T07:08:39.998Z</time></trkpt><trkpt lat="45.0003233" lon="8.2884183"><ele>240.75</ele><time>2026-04-25T07:08:40.998Z</time></trkpt><trkpt lat="45.0003217" lon="8.2886267"><ele>240.5</ele><time>2026-04-25T07:08:42Z</time></trkpt><trkpt lat="45.00032" lon="8.2888317"><ele>240.25</ele><time>2026-04-25T07:08:42.996Z</time></trkpt><trkpt lat="45.0003183" lon="8.289035"><ele>240.0</ele><time>2026-04-25T07:08:43.998Z</time></trkpt><trkpt lat="45.0003067" lon="8.289235"><ele>240.75</ele><time>2026-04-25T07:08:44.995Z</time></trkpt><trkpt lat="45.0002783" lon="8.2894267"><ele>241.5</ele><time>2026-04-25T07:08:45.996Z</time></trkpt><trkpt lat="45.00023" lon="8.2896067"><ele>242.25</ele><time>2026-04-25T07:08:46.994Z</time></trkpt><trkpt lat="45.000155" lon="8.289765"><ele>243.0</ele><time>2026-04-25T07:08:47.996Z</time></trkpt><trkpt lat="45.0000567" lon="8.289895"><ele>245.25</ele><time>2026-04-25T07:08:48.997Z</time></trkpt><trkpt lat="44.9999383" lon="8.2900017"><ele>247.5</ele><time>2026-04-25T07:08:49.999Z</time></trkpt><trkpt lat="44.999815" lon="8.29008"><ele>249.75</ele><time>2026-04-25T07:08:50.996Z</time></trkpt><trkpt lat="44.9996967" lon="8.2901383"><ele>252.0</ele><time>2026-04-25T07:08:51.996Z</time></trkpt><trkpt lat="44.9995933" lon="8.290195"><ele>252.0</ele><time>2026-04-25T07:08:52.996Z</time></trkpt><trkpt lat="44.9995083" lon="8.2902733"><ele>252.0</ele><time>2026-04-25T07:08:53.998Z</time></trkpt><trkpt lat="44.99944" lon="8.2903733"><ele>252.0</ele><time>2026-04-25T07:08:54.993Z</time></trkpt><trkpt lat="44.999395" lon="8.2905"><ele>252.0</ele><time>2026-04-25T07:08:55.998Z</time></trkpt><trkpt lat="44.99938" lon="8.29064"><ele>252.0</ele><time>2026-04-25T07:08:57Z</time></trkpt><trkpt lat="44.9993933" lon="8.29079"><ele>254.75</ele><time>2026-04-25T07:08:57.995Z</time></trkpt><trkpt lat="44.9994383" lon="8.2909483"><ele>257.5</ele><time>2026-04-25T07:08:58.999Z</time></trkpt><trkpt lat="44.9995" lon="8.2911133"><ele>260.25</ele><time>2026-04-25T07:08:59.999Z</time></trkpt><trkpt lat="44.9995683" lon="8.2912867"><ele>263.0</ele><time>2026-04-25T07:09:00.996Z</time></trkpt><trkpt lat="44.9996417" lon="8.2914633"><ele>263.0</ele><time>2026-04-25T07:09:01.994Z</time></trkpt><trkpt lat="44.9997133" lon="8.2916417"><ele>263.0</ele><time>2026-04-25T07:09:02.997Z</time></trkpt><trkpt lat="44.9997833" lon="8.2918183"><ele>263.0</ele><time>2026-04-25T07:09:03.996Z</time></trkpt><trkpt lat="44.9998533" lon="8.2919967"><ele>263.0</ele><time>2026-04-25T07:09:04.997Z</time></trkpt><trkpt lat="44.999925" lon="8.2921733"><ele>261.25</ele><time>2026-04-25T07:09:06Z</time></trkpt><trkpt lat="44.9999983" lon="8.29235"><ele>259.5</ele><time>2026-04-25T07:09:06.998Z</time></trkpt><trkpt lat="45.00007" lon="8.29253"><ele>257.75</ele><time>2026-04-25T07:09:07.997Z</time></trkpt><trkpt lat="45.0001417" lon="8.2927083"><ele>256.0</ele><time>2026-04-25T07:09:08.999Z</time></trkpt><trkpt lat="45.0002133" lon="8.2928867"><ele>256.0</ele><time>2026-04-25T07:09:09.995Z</time></trkpt><trkpt lat="45.0002833" lon="8.2930583"><ele>256.0</ele><time>2026-04-25T07:09:10.999Z</time></trkpt><trkpt lat="45.0003467" lon="8.2932233"><ele>256.0</ele><time>2026-04-25T07:09:11.996Z</time></trkpt><trkpt lat="45.0004067" lon="8.2933717"><ele>256.0</ele><time>2026-04-25T07:09:12.999Z</time></trkpt><trkpt lat="45.0004567" lon="8.2935133"><ele>255.49999999999997</ele><time>2026-04-25T07:09:14Z</time></trkpt><trkpt lat="45.0005017" lon="8.2936417"><ele>255.0</ele><time>2026-04-25T07:09:14.992Z</time></trkpt><trkpt lat="45.0005333" lon="8.29376"><ele>254.5</ele><time>2026-04-25T07:09:15.993Z</time></trkpt><trkpt lat="45.0005533" lon="8.2938617"><ele>254.0</ele><time>2026-04-25T07:09:16.993Z</time></trkpt><trkpt lat="45.0005667" lon="8.2939617"><ele>253.49999999999997</ele><time>2026-04-25T07:09:17.993Z</time></trkpt><trkpt lat="45.0005933" lon="8.2940583"><ele>253.0</ele><time>2026-04-25T07:09:18.994Z</time></trkpt><trkpt lat="45.0006317" lon="8.294165"><ele>254.4</ele><time>2026-04-25T07:09:19.998Z</time></trkpt><trkpt lat="45.0006783" lon="8.294285"><ele>255.8</ele><time>2026-04-25T07:09:20.997Z</time></trkpt><trkpt lat="45.0007217" lon="8.29441"><ele>257.2</ele><time>2026-04-25T07:09:21.993Z</time></trkpt><trkpt lat="45.000755" lon="8.294555"><ele>258.6</ele><time>2026-04-25T07:09:22.999Z</time></trkpt><trkpt lat="45.0007817" lon="8.2947133"><ele>260.0</ele><time>2026-04-25T07:09:23.995Z</time></trkpt><trkpt lat="45.0008033" lon="8.2948817"><ele>259.25</ele><time>2026-04-25T07:09:24.997Z</time></trkpt><trkpt lat="45.00083" lon="8.2950517"><ele>258.5</ele><time>2026-04-25T07:09:25.996Z</time></trkpt><trkpt lat="45.0008517" lon="8.2952267"><ele>257.75</ele><time>2026-04-25T07:09:26.994Z</time></trkpt><trkpt lat="45.0008717" lon="8.2954067"><ele>257.0</ele><time>2026-04-25T07:09:27.997Z</time></trkpt><trkpt lat="45.0008933" lon="8.2955917"><ele>256.0</ele><time>2026-04-25T07:09:28.995Z</time></trkpt><trkpt lat="45.000915" lon="8.29578"><ele>255.0</ele><time>2026-04-25T07:09:29.997Z</time></trkpt><trkpt lat="45.000935" lon="8.2959617"><ele>254.0</ele><time>2026-04-25T07:09:30.996Z</time></trkpt><trkpt lat="45.0009533" lon="8.2961433"><ele>253.0</ele><time>2026-04-25T07:09:31.999Z</time></trkpt><trkpt lat="45.000975" lon="8.296325"><ele>252.25</ele><time>2026-04-25T07:09:33.001Z</time></trkpt><trkpt lat="45.000995" lon="8.2965083"><ele>251.5</ele><time>2026-04-25T07:09:33.993Z</time></trkpt><trkpt lat="45.0010167" lon="8.2966933"><ele>250.75</ele><time>2026-04-25T07:09:34.995Z</time></trkpt><trkpt lat="45.00104" lon="8.2968817"><ele>250.0</ele><time>2026-04-25T07:09:35.996Z</time></trkpt><trkpt lat="45.00108" lon="8.2970683"><ele>250.0</ele><time>2026-04-25T07:09:36.996Z</time></trkpt><trkpt lat="45.0011283" lon="8.297245"><ele>250.0</ele><time>2026-04-25T07:09:37.997Z</time></trkpt><trkpt lat="45.00118" lon="8.297425"><ele>250.0</ele><time>2026-04-25T07:09:39.002Z</time></trkpt><trkpt lat="45.0012317" lon="8.2976033"><ele>250.0</ele><time>2026-04-25T07:09:39.998Z</time></trkpt><trkpt lat="45.0012883" lon="8.297775"><ele>250.25</ele><time>2026-04-25T07:09:40.992Z</time></trkpt><trkpt lat="45.0013383" lon="8.2979467"><ele>250.5</ele><time>2026-04-25T07:09:41.996Z</time></trkpt><trkpt lat="45.0013883" lon="8.29811"><ele>250.75</ele><time>2026-04-25T07:09:42.999Z</time></trkpt><trkpt lat="45.0014367" lon="8.298265"><ele>251.0</ele><time>2026-04-25T07:09:43.996Z</time></trkpt><trkpt lat="45.0014833" lon="8.298405"><ele>251.00000000000003</ele><time>2026-04-25T07:09:44.997Z</time></trkpt><trkpt lat="45.00152" lon="8.29852"><ele>251.0</ele><time>2026-04-25T07:09:45.996Z</time></trkpt><trkpt lat="45.0015483" lon="8.2986367"><ele>251.0</ele><time>2026-04-25T07:09:46.992Z</time></trkpt><trkpt lat="45.0015867" lon="8.2987233"><ele>251.0</ele><time>2026-04-25T07:09:47.995Z</time></trkpt><trkpt lat="45.001645" lon="8.2987783"><ele>251.00000000000003</ele><time>2026-04-25T07:09:49.001Z</time></trkpt><trkpt lat="45.00172" lon="8.2987883"><ele>251.0</ele><time>2026-04-25T07:09:49.995Z</time></trkpt><trkpt lat="45.0018167" lon="8.2987317"><ele>250.60000000000002</ele><time>2026-04-25T07:09:50.998Z</time></trkpt><trkpt lat="45.0019083" lon="8.2986867"><ele>250.20000000000002</ele><time>2026-04-25T07:09:51.994Z</time></trkpt><trkpt lat="45.0019917" lon="8.2986433"><ele>249.79999999999998</ele><time>2026-04-25T07:09:53Z</time></trkpt><trkpt lat="45.0020633" lon="8.2986033"><ele>249.39999999999998</ele><time>2026-04-25T07:09:53.997Z</time></trkpt><trkpt lat="45.0021267" lon="8.2985717"><ele>249.0</ele><time>2026-04-25T07:09:54.999Z</time></trkpt><trkpt lat="45.0022467" lon="8.2985417"><ele>249.0</ele><time>2026-04-25T07:09:56.999Z</time></trkpt><trkpt lat="45.002355" lon="8.29857"><ele>248.99999999999997</ele><time>2026-04-25T07:09:58.995Z</time></trkpt><trkpt lat="45.0023783" lon="8.2987333"><ele>248.99999999999997</ele><time>2026-04-25T07:10:00.997Z</time></trkpt><trkpt lat="45.00236" lon="8.29884"><ele>249.0</ele><time>2026-04-25T07:10:01.993Z</time></trkpt><trkpt lat="45.0022667" lon="8.2989417"><ele>249.0</ele><time>2026-04-25T07:10:02.999Z</time></trkpt><trkpt lat="45.0021717" lon="8.2990333"><ele>248.2</ele><time>2026-04-25T07:10:03.995Z</time></trkpt><trkpt lat="45.0020733" lon="8.2991067"><ele>247.39999999999998</ele><time>2026-04-25T07:10:04.993Z</time></trkpt><trkpt lat="45.0019783" lon="8.2991833"><ele>246.6</ele><time>2026-04-25T07:10:05.995Z</time></trkpt><trkpt lat="45.0018817" lon="8.299255"><ele>245.8</ele><time>2026-04-25T07:10:07.002Z</time></trkpt><trkpt lat="45.00179" lon="8.2993233"><ele>245.0</ele><time>2026-04-25T07:10:07.996Z</time></trkpt><trkpt lat="45.001705" lon="8.2993883"><ele>242.8</ele><time>2026-04-25T07:10:08.998Z</time></trkpt><trkpt lat="45.0016317" lon="8.2994633"><ele>240.6</ele><time>2026-04-25T07:10:09.991Z</time></trkpt><trkpt lat="45.00157" lon="8.2995467"><ele>238.39999999999998</ele><time>2026-04-25T07:10:10.996Z</time></trkpt><trkpt lat="45.001575" lon="8.299655"><ele>236.2</ele><time>2026-04-25T07:10:11.995Z</time></trkpt><trkpt lat="45.0016683" lon="8.2997917"><ele>234.0</ele><time>2026-04-25T07:10:13.996Z</time></trkpt><trkpt lat="45.0017517" lon="8.2997667"><ele>236.2</ele><time>2026-04-25T07:10:14.997Z</time></trkpt><trkpt lat="45.0018283" lon="8.2997367"><ele>238.39999999999998</ele><time>2026-04-25T07:10:15.998Z</time></trkpt><trkpt lat="45.0019183" lon="8.2996733"><ele>240.6</ele><time>2026-04-25T07:10:16.999Z</time></trkpt><trkpt lat="45.0020117" lon="8.2995967"><ele>242.8</ele><time>2026-04-25T07:10:17.992Z</time></trkpt><trkpt lat="45.002105" lon="8.29952"><ele>245.0</ele><time>2026-04-25T07:10:18.999Z</time></trkpt><trkpt lat="45.0021933" lon="8.2994567"><ele>245.00000000000003</ele><time>2026-04-25T07:10:19.998Z</time></trkpt><trkpt lat="45.002275" lon="8.2994233"><ele>245.0</ele><time>2026-04-25T07:10:20.997Z</time></trkpt><trkpt lat="45.0023567" lon="8.2994083"><ele>245.0</ele><time>2026-04-25T07:10:21.996Z</time></trkpt><trkpt lat="45.002415" lon="8.29945"><ele>245.0</ele><time>2026-04-25T07:10:22.995Z</time></trkpt><trkpt lat="45.0023933" lon="8.2996017"><ele>245.00000000000003</ele><time>2026-04-25T07:10:25Z</time></trkpt><trkpt lat="45.0023383" lon="8.2996767"><ele>245.0</ele><time>2026-04-25T07:10:25.999Z</time></trkpt><trkpt lat="45.00227" lon="8.29975"><ele>242.25</ele><time>2026-04-25T07:10:26.994Z</time></trkpt><trkpt lat="45.002185" lon="8.2998383"><ele>239.5</ele><time>2026-04-25T07:10:27.997Z</time></trkpt><trkpt lat="45.0020933" lon="8.2999433"><ele>236.75</ele><time>2026-04-25T07:10:28.996Z</time></trkpt><trkpt lat="45.0020117" lon="8.300065"><ele>234.0</ele><time>2026-04-25T07:10:29.996Z</time></trkpt><trkpt lat="45.0019417" lon="8.3002117"><ele>234.0</ele><time>2026-04-25T07:10:30.997Z</time></trkpt><trkpt lat="45.0018717" lon="8.3003783"><ele>234.0</ele><time>2026-04-25T07:10:31.997Z</time></trkpt><trkpt lat="45.0018117" lon="8.3005533"><ele>234.0</ele><time>2026-04-25T07:10:32.998Z</time></trkpt><trkpt lat="45.0017533" lon="8.3007333"><ele>234.0</ele><time>2026-04-25T07:10:34.002Z</time></trkpt><trkpt lat="45.001695" lon="8.3009167"><ele>232.25</ele><time>2026-04-25T07:10:34.996Z</time></trkpt><trkpt lat="45.00164" lon="8.3010967"><ele>230.5</ele><time>2026-04-25T07:10:35.994Z</time></trkpt><trkpt lat="45.001585" lon="8.3012783"><ele>228.75</ele><time>2026-04-25T07:10:36.996Z</time></trkpt><trkpt lat="45.0015333" lon="8.3014617"><ele>227.0</ele><time>2026-04-25T07:10:37.993Z</time></trkpt><trkpt lat="45.00148" lon="8.30165"><ele>227.0</ele><time>2026-04-25T07:10:38.999Z</time></trkpt><trkpt lat="45.0014267" lon="8.3018433"><ele>227.0</ele><time>2026-04-25T07:10:39.998Z</time></trkpt><trkpt lat="45.0013667" lon="8.3020383"><ele>227.0</ele><time>2026-04-25T07:10:40.994Z</time></trkpt><trkpt lat="45.0013083" lon="8.3022367"><ele>227.0</ele><time>2026-04-25T07:10:41.992Z</time></trkpt><trkpt lat="45.001245" lon="8.30243"><ele>224.33333333333334</ele><time>2026-04-25T07:10:43.005Z</time></trkpt><trkpt lat="45.0011783" lon="8.3026217"><ele>221.66666666666669</ele><time>2026-04-25T07:10:43.995Z</time></trkpt><trkpt lat="45.001105" lon="8.3028083"><ele>219.0</ele><time>2026-04-25T07:10:45.001Z</time></trkpt><trkpt lat="45.0010233" lon="8.3029917"><ele>219.0</ele><time>2026-04-25T07:10:46.003Z</time></trkpt><trkpt lat="45.0009333" lon="8.303175"><ele>219.0</ele><time>2026-04-25T07:10:46.998Z</time></trkpt><trkpt lat="45.000845" lon="8.30336"><ele>219.0</ele><time>2026-04-25T07:10:47.994Z</time></trkpt><trkpt lat="45.0007567" lon="8.3035483"><ele>219.0</ele><time>2026-04-25T07:10:48.998Z</time></trkpt><trkpt lat="45.0006667" lon="8.3037367"><ele>219.0</ele><time>2026-04-25T07:10:50Z</time></trkpt><trkpt lat="45.0005817" lon="8.3039083"><ele>219.0</ele><time>2026-04-25T07:10:50.995Z</time></trkpt><trkpt lat="45.0005017" lon="8.304075"><ele>217.25</ele><time>2026-04-25T07:10:51.998Z</time></trkpt><trkpt lat="45.0004233" lon="8.30424"><ele>215.5</ele><time>2026-04-25T07:10:53.001Z</time></trkpt><trkpt lat="45.000355" lon="8.3043967"><ele>213.75</ele><time>2026-04-25T07:10:54.002Z</time></trkpt><trkpt lat="45.0003" lon="8.30455"><ele>212.0</ele><time>2026-04-25T07:10:54.997Z</time></trkpt><trkpt lat="45.0002733" lon="8.3047017"><ele>210.0</ele><time>2026-04-25T07:10:55.996Z</time></trkpt><trkpt lat="45.0002817" lon="8.3048417"><ele>208.0</ele><time>2026-04-25T07:10:56.996Z</time></trkpt><trkpt lat="45.00032" lon="8.304965"><ele>206.0</ele><time>2026-04-25T07:10:57.996Z</time></trkpt><trkpt lat="45.00038" lon="8.305065"><ele>204.0</ele><time>2026-04-25T07:10:58.998Z</time></trkpt><trkpt lat="45.00046" lon="8.30513"><ele>202.0</ele><time>2026-04-25T07:10:59.995Z</time></trkpt><trkpt lat="45.0005617" lon="8.3051333"><ele>202.0</ele><time>2026-04-25T07:11:00.994Z</time></trkpt><trkpt lat="45.0006667" lon="8.3050883"><ele>202.0</ele><time>2026-04-25T07:11:01.996Z</time></trkpt><trkpt lat="45.0007717" lon="8.3050283"><ele>202.0</ele><time>2026-04-25T07:11:02.996Z</time></trkpt><trkpt lat="45.0008917" lon="8.3049583"><ele>202.0</ele><time>2026-04-25T07:11:03.993Z</time></trkpt><trkpt lat="45.0010217" lon="8.3048883"><ele>202.25</ele><time>2026-04-25T07:11:04.995Z</time></trkpt><trkpt lat="45.0011567" lon="8.3048217"><ele>202.5</ele><time>2026-04-25T07:11:05.995Z</time></trkpt><trkpt lat="45.0012933" lon="8.3047483"><ele>202.75</ele><time>2026-04-25T07:11:06.994Z</time></trkpt><trkpt lat="45.0014267" lon="8.3046733"><ele>203.0</ele><time>2026-04-25T07:11:07.996Z</time></trkpt><trkpt lat="45.00156" lon="8.3045983"><ele>201.0</ele><time>2026-04-25T07:11:08.998Z</time></trkpt><trkpt lat="45.0016917" lon="8.3045217"><ele>199.0</ele><time>2026-04-25T07:11:09.994Z</time></trkpt><trkpt lat="45.0018167" lon="8.3044417"><ele>197.0</ele><time>2026-04-25T07:11:10.997Z</time></trkpt><trkpt lat="45.0019383" lon="8.3043683"><ele>195.0</ele><time>2026-04-25T07:11:11.996Z</time></trkpt><trkpt lat="45.002065" lon="8.3043067"><ele>195.0</ele><time>2026-04-25T07:11:12.993Z</time></trkpt><trkpt lat="45.002195" lon="8.3042833"><ele>195.0</ele><time>2026-04-25T07:11:13.995Z</time></trkpt><trkpt lat="45.0023267" lon="8.3043083"><ele>195.0</ele><time>2026-04-25T07:11:14.995Z</time></trkpt><trkpt lat="45.00245" lon="8.3043817"><ele>195.0</ele><time>2026-04-25T07:11:15.999Z</time></trkpt><trkpt lat="45.0025617" lon="8.3044917"><ele>193.0</ele><time>2026-04-25T07:11:16.999Z</time></trkpt><trkpt lat="45.0026567" lon="8.304635"><ele>191.0</ele><time>2026-04-25T07:11:17.998Z</time></trkpt><trkpt lat="45.0027383" lon="8.3048"><ele>189.0</ele><time>2026-04-25T07:11:19Z</time></trkpt><trkpt lat="45.0028017" lon="8.30498"><ele>187.0</ele><time>2026-04-25T07:11:19.997Z</time></trkpt><trkpt lat="45.0028567" lon="8.305165"><ele>186.0</ele><time>2026-04-25T07:11:20.996Z</time></trkpt><trkpt lat="45.0029067" lon="8.3053567"><ele>185.0</ele><time>2026-04-25T07:11:21.994Z</time></trkpt><trkpt lat="45.0029617" lon="8.305545"><ele>184.0</ele><time>2026-04-25T07:11:22.997Z</time></trkpt><trkpt lat="45.0030267" lon="8.3057233"><ele>183.0</ele><time>2026-04-25T07:11:23.996Z</time></trkpt><trkpt lat="45.0031067" lon="8.3058867"><ele>182.75</ele><time>2026-04-25T07:11:24.997Z</time></trkpt><trkpt lat="45.0031933" lon="8.30603"><ele>182.5</ele><time>2026-04-25T07:11:25.997Z</time></trkpt><trkpt lat="45.0032733" lon="8.3061667"><ele>182.25</ele><time>2026-04-25T07:11:26.997Z</time></trkpt><trkpt lat="45.0033417" lon="8.3063"><ele>182.0</ele><time>2026-04-25T07:11:27.997Z</time></trkpt><trkpt lat="45.0033917" lon="8.3064417"><ele>181.25</ele><time>2026-04-25T07:11:28.997Z</time></trkpt><trkpt lat="45.003425" lon="8.3065867"><ele>180.5</ele><time>2026-04-25T07:11:29.993Z</time></trkpt><trkpt lat="45.003425" lon="8.306755"><ele>179.75</ele><time>2026-04-25T07:11:30.998Z</time></trkpt><trkpt lat="45.0034017" lon="8.3069333"><ele>179.0</ele><time>2026-04-25T07:11:31.996Z</time></trkpt><trkpt lat="45.00336" lon="8.3071233"><ele>179.25</ele><time>2026-04-25T07:11:32.997Z</time></trkpt><trkpt lat="45.0033083" lon="8.3073167"><ele>179.5</ele><time>2026-04-25T07:11:33.998Z</time></trkpt><trkpt lat="45.0032517" lon="8.3075133"><ele>179.75</ele><time>2026-04-25T07:11:34.995Z</time></trkpt><trkpt lat="45.0031867" lon="8.3077"><ele>180.0</ele><time>2026-04-25T07:11:35.999Z</time></trkpt><trkpt lat="45.0031217" lon="8.307875"><ele>180.0</ele><time>2026-04-25T07:11:36.996Z</time></trkpt><trkpt lat="45.00305" lon="8.30804"><ele>180.0</ele><time>2026-04-25T07:11:37.996Z</time></trkpt><trkpt lat="45.0029683" lon="8.3082067"><ele>180.0</ele><time>2026-04-25T07:11:38.997Z</time></trkpt><trkpt lat="45.002885" lon="8.3083683"><ele>180.0</ele><time>2026-04-25T07:11:39.996Z</time></trkpt><trkpt lat="45.002795" lon="8.30853"><ele>180.0</ele><time>2026-04-25T07:11:40.995Z</time></trkpt><trkpt lat="45.0027033" lon="8.3086967"><ele>180.0</ele><time>2026-04-25T07:11:41.996Z</time></trkpt><trkpt lat="45.00261" lon="8.3088583"><ele>180.0</ele><time>2026-04-25T07:11:42.993Z</time></trkpt><trkpt lat="45.002515" lon="8.30902"><ele>180.0</ele><time>2026-04-25T07:11:43.997Z</time></trkpt><trkpt lat="45.0024233" lon="8.3091917"><ele>180.0</ele><time>2026-04-25T07:11:44.996Z</time></trkpt><trkpt lat="45.00234" lon="8.3093733"><ele>180.0</ele><time>2026-04-25T07:11:46.006Z</time></trkpt><trkpt lat="45.0022683" lon="8.3095633"><ele>180.0</ele><time>2026-04-25T07:11:46.997Z</time></trkpt><trkpt lat="45.0022033" lon="8.3097617"><ele>179.33333333333334</ele><time>2026-04-25T07:11:47.994Z</time></trkpt><trkpt lat="45.0021433" lon="8.3099583"><ele>178.66666666666669</ele><time>2026-04-25T07:11:49Z</time></trkpt><trkpt lat="45.0020833" lon="8.3101633"><ele>178.0</ele><time>2026-04-25T07:11:49.994Z</time></trkpt><trkpt lat="45.0020367" lon="8.310365"><ele>177.66666666666669</ele><time>2026-04-25T07:11:50.996Z</time></trkpt><trkpt lat="45.0020117" lon="8.31058"><ele>177.33333333333334</ele><time>2026-04-25T07:11:51.997Z</time></trkpt><trkpt lat="45.0020117" lon="8.310805"><ele>177.0</ele><time>2026-04-25T07:11:52.995Z</time></trkpt><trkpt lat="45.0020333" lon="8.3110233"><ele>177.0</ele><time>2026-04-25T07:11:53.996Z</time></trkpt><trkpt lat="45.0020667" lon="8.3112483"><ele>177.0</ele><time>2026-04-25T07:11:54.995Z</time></trkpt><trkpt lat="45.0021083" lon="8.3114733"><ele>177.0</ele><time>2026-04-25T07:11:55.997Z</time></trkpt><trkpt lat="45.002155" lon="8.311695"><ele>177.66666666666666</ele><time>2026-04-25T07:11:56.993Z</time></trkpt><trkpt lat="45.002205" lon="8.3119167"><ele>178.33333333333331</ele><time>2026-04-25T07:11:58Z</time></trkpt><trkpt lat="45.0022583" lon="8.3121367"><ele>179.0</ele><time>2026-04-25T07:11:58.996Z</time></trkpt><trkpt lat="45.0023117" lon="8.3123567"><ele>179.0</ele><time>2026-04-25T07:11:59.995Z</time></trkpt><trkpt lat="45.002365" lon="8.312575"><ele>179.0</ele><time>2026-04-25T07:12:00.998Z</time></trkpt><trkpt lat="45.0024167" lon="8.3127917"><ele>179.0</ele><time>2026-04-25T07:12:01.997Z</time></trkpt><trkpt lat="45.00247" lon="8.3130067"><ele>178.66666666666666</ele><time>2026-04-25T07:12:02.996Z</time></trkpt><trkpt lat="45.0025233" lon="8.313225"><ele>178.33333333333334</ele><time>2026-04-25T07:12:03.997Z</time></trkpt><trkpt lat="45.002575" lon="8.3134417"><ele>178.0</ele><time>2026-04-25T07:12:04.992Z</time></trkpt><trkpt lat="45.0026267" lon="8.3136583"><ele>178.0</ele><time>2026-04-25T07:12:05.998Z</time></trkpt><trkpt lat="45.0026733" lon="8.31387"><ele>178.0</ele><time>2026-04-25T07:12:06.994Z</time></trkpt><trkpt lat="45.0027167" lon="8.3140783"><ele>178.0</ele><time>2026-04-25T07:12:07.992Z</time></trkpt><trkpt lat="45.0027567" lon="8.3142833"><ele>178.0</ele><time>2026-04-25T07:12:08.997Z</time></trkpt><trkpt lat="45.0027833" lon="8.3144867"><ele>178.0</ele><time>2026-04-25T07:12:10.004Z</time></trkpt><trkpt lat="45.002795" lon="8.3146917"><ele>178.0</ele><time>2026-04-25T07:12:10.994Z</time></trkpt><trkpt lat="45.002795" lon="8.3148967"><ele>178.0</ele><time>2026-04-25T07:12:12.003Z</time></trkpt><trkpt lat="45.0027883" lon="8.3150983"><ele>178.0</ele><time>2026-04-25T07:12:12.996Z</time></trkpt><trkpt lat="45.0027767" lon="8.315305"><ele>178.0</ele><time>2026-04-25T07:12:13.995Z</time></trkpt><trkpt lat="45.002765" lon="8.3155083"><ele>178.0</ele><time>2026-04-25T07:12:14.996Z</time></trkpt><trkpt lat="45.0027567" lon="8.3157133"><ele>178.0</ele><time>2026-04-25T07:12:16Z</time></trkpt><trkpt lat="45.0027467" lon="8.3159217"><ele>178.0</ele><time>2026-04-25T07:12:16.996Z</time></trkpt><trkpt lat="45.00274" lon="8.31613"><ele>178.0</ele><time>2026-04-25T07:12:17.998Z</time></trkpt><trkpt lat="45.0027367" lon="8.3163433"><ele>178.0</ele><time>2026-04-25T07:12:18.994Z</time></trkpt><trkpt lat="45.0027533" lon="8.3165517"><ele>178.0</ele><time>2026-04-25T07:12:19.997Z</time></trkpt><trkpt lat="45.00279" lon="8.3167567"><ele>178.0</ele><time>2026-04-25T07:12:20.993Z</time></trkpt><trkpt lat="45.0028467" lon="8.3169583"><ele>178.0</ele><time>2026-04-25T07:12:22Z</time></trkpt><trkpt lat="45.0029167" lon="8.317155"><ele>178.0</ele><time>2026-04-25T07:12:22.998Z</time></trkpt><trkpt lat="45.0029983" lon="8.317345"><ele>177.66666666666669</ele><time>2026-04-25T07:12:23.997Z</time></trkpt><trkpt lat="45.003085" lon="8.3175333"><ele>177.33333333333334</ele><time>2026-04-25T07:12:24.993Z</time></trkpt><trkpt lat="45.0031733" lon="8.3177233"><ele>177.0</ele><time>2026-04-25T07:12:25.994Z</time></trkpt><trkpt lat="45.0032617" lon="8.3179117"><ele>179.66666666666666</ele><time>2026-04-25T07:12:26.995Z</time></trkpt><trkpt lat="45.0033483" lon="8.3180983"><ele>182.33333333333331</ele><time>2026-04-25T07:12:28.001Z</time></trkpt><trkpt lat="45.0034383" lon="8.31828"><ele>185.0</ele><time>2026-04-25T07:12:28.995Z</time></trkpt><trkpt lat="45.0035283" lon="8.318455"><ele>185.0</ele><time>2026-04-25T07:12:29.997Z</time></trkpt><trkpt lat="45.0036133" lon="8.31863"><ele>185.0</ele><time>2026-04-25T07:12:30.996Z</time></trkpt><trkpt lat="45.0036967" lon="8.3188033"><ele>185.0</ele><time>2026-04-25T07:12:31.995Z</time></trkpt><trkpt lat="45.00378" lon="8.3189767"><ele>185.0</ele><time>2026-04-25T07:12:32.995Z</time></trkpt><trkpt lat="45.00386" lon="8.319145"><ele>185.5</ele><time>2026-04-25T07:12:33.994Z</time></trkpt><trkpt lat="45.0039383" lon="8.3193133"><ele>186.0</ele><time>2026-04-25T07:12:34.995Z</time></trkpt><trkpt lat="45.0040167" lon="8.319475"><ele>186.5</ele><time>2026-04-25T07:12:35.994Z</time></trkpt><trkpt lat="45.0040917" lon="8.31964"><ele>187.0</ele><time>2026-04-25T07:12:36.997Z</time></trkpt><trkpt lat="45.0041667" lon="8.3198033"><ele>187.0</ele><time>2026-04-25T07:12:37.995Z</time></trkpt><trkpt lat="45.0042483" lon="8.31997"><ele>187.0</ele><time>2026-04-25T07:12:38.993Z</time></trkpt><trkpt lat="45.0043283" lon="8.3201367"><ele>187.0</ele><time>2026-04-25T07:12:39.997Z</time></trkpt><trkpt lat="45.0044083" lon="8.3203017"><ele>187.0</ele><time>2026-04-25T07:12:41Z</time></trkpt><trkpt lat="45.0044883" lon="8.3204667"><ele>188.25</ele><time>2026-04-25T07:12:41.997Z</time></trkpt><trkpt lat="45.0045683" lon="8.3206333"><ele>189.5</ele><time>2026-04-25T07:12:42.998Z</time></trkpt><trkpt lat="45.0046467" lon="8.3207983"><ele>190.75</ele><time>2026-04-25T07:12:43.996Z</time></trkpt><trkpt lat="45.0047217" lon="8.3209617"><ele>192.0</ele><time>2026-04-25T07:12:45Z</time></trkpt><trkpt lat="45.0047933" lon="8.321115"><ele>192.0</ele><time>2026-04-25T07:12:45.995Z</time></trkpt><trkpt lat="45.0048667" lon="8.3212667"><ele>192.0</ele><time>2026-04-25T07:12:46.991Z</time></trkpt><trkpt lat="45.0049367" lon="8.3214083"><ele>192.0</ele><time>2026-04-25T07:12:47.996Z</time></trkpt><trkpt lat="45.0050033" lon="8.321555"><ele>192.0</ele><time>2026-04-25T07:12:48.997Z</time></trkpt><trkpt lat="45.0050683" lon="8.3217033"><ele>192.0</ele><time>2026-04-25T07:12:49.997Z</time></trkpt><trkpt lat="45.0051383" lon="8.3218533"><ele>192.0</ele><time>2026-04-25T07:12:50.998Z</time></trkpt><trkpt lat="45.0052067" lon="8.3220033"><ele>192.0</ele><time>2026-04-25T07:12:51.995Z</time></trkpt><trkpt lat="45.0052783" lon="8.3221517"><ele>192.0</ele><time>2026-04-25T07:12:52.995Z</time></trkpt><trkpt lat="45.0053467" lon="8.3222933"><ele>191.5</ele><time>2026-04-25T07:12:53.995Z</time></trkpt><trkpt lat="45.0054133" lon="8.3224383"><ele>191.0</ele><time>2026-04-25T07:12:55.001Z</time></trkpt><trkpt lat="45.0054833" lon="8.322585"><ele>190.5</ele><time>2026-04-25T07:12:55.997Z</time></trkpt><trkpt lat="45.0055533" lon="8.3227317"><ele>190.0</ele><time>2026-04-25T07:12:56.998Z</time></trkpt><trkpt lat="45.0056217" lon="8.3228833"><ele>190.0</ele><time>2026-04-25T07:12:57.995Z</time></trkpt><trkpt lat="45.0056967" lon="8.323035"><ele>190.0</ele><time>2026-04-25T07:12:58.993Z</time></trkpt><trkpt lat="45.0057717" lon="8.3231817"><ele>190.0</ele><time>2026-04-25T07:12:59.996Z</time></trkpt><trkpt lat="45.0058517" lon="8.3233283"><ele>190.0</ele><time>2026-04-25T07:13:00.996Z</time></trkpt><trkpt lat="45.0059383" lon="8.3234733"><ele>191.0</ele><time>2026-04-25T07:13:02.001Z</time></trkpt><trkpt lat="45.00603" lon="8.32362"><ele>192.0</ele><time>2026-04-25T07:13:02.993Z</time></trkpt><trkpt lat="45.0061283" lon="8.3237667"><ele>193.0</ele><time>2026-04-25T07:13:03.996Z</time></trkpt><trkpt lat="45.00623" lon="8.323915"><ele>194.0</ele><time>2026-04-25T07:13:05Z</time></trkpt><trkpt lat="45.0063317" lon="8.3240633"><ele>194.0</ele><time>2026-04-25T07:13:05.996Z</time></trkpt><trkpt lat="45.0064317" lon="8.3242133"><ele>194.0</ele><time>2026-04-25T07:13:06.999Z</time></trkpt><trkpt lat="45.00653" lon="8.3243667"><ele>194.0</ele><time>2026-04-25T07:13:08.001Z</time></trkpt><trkpt lat="45.0066283" lon="8.32452"><ele>194.0</ele><time>2026-04-25T07:13:08.999Z</time></trkpt><trkpt lat="45.00673" lon="8.32467"><ele>193.5</ele><time>2026-04-25T07:13:09.996Z</time></trkpt><trkpt lat="45.0068317" lon="8.3248167"><ele>193.0</ele><time>2026-04-25T07:13:10.992Z</time></trkpt><trkpt lat="45.0069433" lon="8.32495"><ele>192.5</ele><time>2026-04-25T07:13:12Z</time></trkpt><trkpt lat="45.0070617" lon="8.325065"><ele>192.0</ele><time>2026-04-25T07:13:12.994Z</time></trkpt><trkpt lat="45.00719" lon="8.325165"><ele>192.0</ele><time>2026-04-25T07:13:14.001Z</time></trkpt><trkpt lat="45.0073233" lon="8.3252583"><ele>192.0</ele><time>2026-04-25T07:13:15.002Z</time></trkpt><trkpt lat="45.0074567" lon="8.3253467"><ele>192.0</ele><time>2026-04-25T07:13:16.002Z</time></trkpt><trkpt lat="45.0075967" lon="8.3254233"><ele>192.0</ele><time>2026-04-25T07:13:16.993Z</time></trkpt><trkpt lat="45.0077433" lon="8.32549"><ele>192.33333333333331</ele><time>2026-04-25T07:13:17.997Z</time></trkpt><trkpt lat="45.007895" lon="8.3255517"><ele>192.66666666666666</ele><time>2026-04-25T07:13:18.997Z</time></trkpt><trkpt lat="45.0080533" lon="8.3256083"><ele>193.0</ele><time>2026-04-25T07:13:19.992Z</time></trkpt><trkpt lat="45.0082117" lon="8.325655"><ele>191.0</ele><time>2026-04-25T07:13:20.996Z</time></trkpt><trkpt lat="45.008375" lon="8.3256917"><ele>189.0</ele><time>2026-04-25T07:13:21.999Z</time></trkpt><trkpt lat="45.00854" lon="8.3257283"><ele>187.0</ele><time>2026-04-25T07:13:22.993Z</time></trkpt><trkpt lat="45.0087017" lon="8.3257583"><ele>187.0</ele><time>2026-04-25T07:13:23.997Z</time></trkpt><trkpt lat="45.0088583" lon="8.3257883"><ele>187.0</ele><time>2026-04-25T07:13:24.997Z</time></trkpt><trkpt lat="45.0090033" lon="8.325815"><ele>187.0</ele><time>2026-04-25T07:13:26.008Z</time></trkpt><trkpt lat="45.0091317" lon="8.3258633"><ele>187.0</ele><time>2026-04-25T07:13:27Z</time></trkpt><trkpt lat="45.0092417" lon="8.3259467"><ele>187.25</ele><time>2026-04-25T07:13:27.999Z</time></trkpt><trkpt lat="45.00934" lon="8.3260667"><ele>187.5</ele><time>2026-04-25T07:13:28.997Z</time></trkpt><trkpt lat="45.0094217" lon="8.3262267"><ele>187.75</ele><time>2026-04-25T07:13:29.998Z</time></trkpt><trkpt lat="45.0094917" lon="8.3264117"><ele>188.0</ele><time>2026-04-25T07:13:30.998Z</time></trkpt><trkpt lat="45.00955" lon="8.3266167"><ele>186.0</ele><time>2026-04-25T07:13:31.997Z</time></trkpt><trkpt lat="45.0096083" lon="8.3268367"><ele>184.0</ele><time>2026-04-25T07:13:32.998Z</time></trkpt><trkpt lat="45.00967" lon="8.3270717"><ele>182.0</ele><time>2026-04-25T07:13:33.998Z</time></trkpt><trkpt lat="45.0097367" lon="8.3273183"><ele>181.33333333333331</ele><time>2026-04-25T07:13:34.995Z</time></trkpt><trkpt lat="45.0098" lon="8.3275683"><ele>180.66666666666666</ele><time>2026-04-25T07:13:35.993Z</time></trkpt><trkpt lat="45.0098633" lon="8.32782"><ele>180.0</ele><time>2026-04-25T07:13:36.999Z</time></trkpt><trkpt lat="45.0099317" lon="8.3280767"><ele>181.0</ele><time>2026-04-25T07:13:37.994Z</time></trkpt><trkpt lat="45.0100017" lon="8.328335"><ele>182.0</ele><time>2026-04-25T07:13:38.993Z</time></trkpt><trkpt lat="45.0100733" lon="8.3285967"><ele>183.0</ele><time>2026-04-25T07:13:39.998Z</time></trkpt><trkpt lat="45.0101483" lon="8.3288533"><ele>183.66666666666666</ele><time>2026-04-25T07:13:40.995Z</time></trkpt><trkpt lat="45.010225" lon="8.3291067"><ele>184.33333333333331</ele><time>2026-04-25T07:13:41.995Z</time></trkpt><trkpt lat="45.0103" lon="8.32936"><ele>185.0</ele><time>2026-04-25T07:13:42.996Z</time></trkpt><trkpt lat="45.0103733" lon="8.329615"><ele>184.33333333333331</ele><time>2026-04-25T07:13:43.995Z</time></trkpt><trkpt lat="45.0104467" lon="8.32987"><ele>183.66666666666666</ele><time>2026-04-25T07:13:44.996Z</time></trkpt><trkpt lat="45.01052" lon="8.3301283"><ele>183.0</ele><time>2026-04-25T07:13:45.995Z</time></trkpt><trkpt lat="45.0105933" lon="8.3303833"><ele>182.66666666666666</ele><time>2026-04-25T07:13:46.996Z</time></trkpt><trkpt lat="45.0106667" lon="8.3306317"><ele>182.33333333333331</ele><time>2026-04-25T07:13:47.995Z</time></trkpt><trkpt lat="45.0107367" lon="8.3308717"><ele>182.0</ele><time>2026-04-25T07:13:48.997Z</time></trkpt><trkpt lat="45.010805" lon="8.3311083"><ele>183.33333333333331</ele><time>2026-04-25T07:13:49.994Z</time></trkpt><trkpt lat="45.0108783" lon="8.3313333"><ele>184.66666666666666</ele><time>2026-04-25T07:13:50.994Z</time></trkpt><trkpt lat="45.01096" lon="8.331545"><ele>186.0</ele><time>2026-04-25T07:13:51.995Z</time></trkpt><trkpt lat="45.0110567" lon="8.331745"><ele>186.0</ele><time>2026-04-25T07:13:52.995Z</time></trkpt><trkpt lat="45.01117" lon="8.3319333"><ele>186.0</ele><time>2026-04-25T07:13:54Z</time></trkpt><trkpt lat="45.011295" lon="8.3321167"><ele>186.0</ele><time>2026-04-25T07:13:54.996Z</time></trkpt><trkpt lat="45.01142" lon="8.3323"><ele>186.33333333333334</ele><time>2026-04-25T07:13:55.998Z</time></trkpt><trkpt lat="45.0115467" lon="8.3324833"><ele>186.66666666666669</ele><time>2026-04-25T07:13:56.997Z</time></trkpt><trkpt lat="45.0116767" lon="8.332665"><ele>187.0</ele><time>2026-04-25T07:13:57.993Z</time></trkpt><trkpt lat="45.011805" lon="8.3328417"><ele>186.66666666666669</ele><time>2026-04-25T07:13:58.995Z</time></trkpt><trkpt lat="45.0119333" lon="8.3330167"><ele>186.33333333333334</ele><time>2026-04-25T07:13:59.996Z</time></trkpt><trkpt lat="45.0120683" lon="8.3331833"><ele>186.0</ele><time>2026-04-25T07:14:00.997Z</time></trkpt><trkpt lat="45.012205" lon="8.3333317"><ele>186.0</ele><time>2026-04-25T07:14:01.994Z</time></trkpt><trkpt lat="45.01235" lon="8.3334683"><ele>186.0</ele><time>2026-04-25T07:14:02.997Z</time></trkpt><trkpt lat="45.0125" lon="8.3336"><ele>186.0</ele><time>2026-04-25T07:14:03.993Z</time></trkpt><trkpt lat="45.012655" lon="8.33372"><ele>187.66666666666666</ele><time>2026-04-25T07:14:04.999Z</time></trkpt><trkpt lat="45.012815" lon="8.3338267"><ele>189.33333333333331</ele><time>2026-04-25T07:14:05.996Z</time></trkpt><trkpt lat="45.012975" lon="8.333925"><ele>191.0</ele><time>2026-04-25T07:14:06.995Z</time></trkpt><trkpt lat="45.0131383" lon="8.334015"><ele>191.0</ele><time>2026-04-25T07:14:07.998Z</time></trkpt><trkpt lat="45.0132967" lon="8.3341017"><ele>191.0</ele><time>2026-04-25T07:14:08.999Z</time></trkpt><trkpt lat="45.0134567" lon="8.3341883"><ele>191.0</ele><time>2026-04-25T07:14:09.998Z</time></trkpt><trkpt lat="45.01362" lon="8.3342733"><ele>192.66666666666666</ele><time>2026-04-25T07:14:10.998Z</time></trkpt><trkpt lat="45.0137817" lon="8.3343567"><ele>194.33333333333331</ele><time>2026-04-25T07:14:11.996Z</time></trkpt><trkpt lat="45.0139433" lon="8.3344383"><ele>196.0</ele><time>2026-04-25T07:14:12.998Z</time></trkpt><trkpt lat="45.0141067" lon="8.3345217"><ele>195.66666666666666</ele><time>2026-04-25T07:14:13.995Z</time></trkpt><trkpt lat="45.0142633" lon="8.3346033"><ele>195.33333333333331</ele><time>2026-04-25T07:14:14.994Z</time></trkpt><trkpt lat="45.0144117" lon="8.33468"><ele>195.0</ele><time>2026-04-25T07:14:15.995Z</time></trkpt><trkpt lat="45.01455" lon="8.33475"><ele>195.0</ele><time>2026-04-25T07:14:16.994Z</time></trkpt><trkpt lat="45.0146717" lon="8.3348283"><ele>195.0</ele><time>2026-04-25T07:14:18.002Z</time></trkpt><trkpt lat="45.01477" lon="8.3349367"><ele>195.0</ele><time>2026-04-25T07:14:18.995Z</time></trkpt><trkpt lat="45.0148467" lon="8.3350833"><ele>195.0</ele><time>2026-04-25T07:14:19.995Z</time></trkpt><trkpt lat="45.0149" lon="8.3352617"><ele>195.0</ele><time>2026-04-25T07:14:20.996Z</time></trkpt><trkpt lat="45.0149333" lon="8.3354583"><ele>195.0</ele><time>2026-04-25T07:14:22Z</time></trkpt><trkpt lat="45.0149683" lon="8.3356567"><ele>195.0</ele><time>2026-04-25T07:14:22.995Z</time></trkpt><trkpt lat="45.0150033" lon="8.3358583"><ele>195.0</ele><time>2026-04-25T07:14:23.996Z</time></trkpt><trkpt lat="45.01504" lon="8.336055"><ele>195.25</ele><time>2026-04-25T07:14:24.995Z</time></trkpt><trkpt lat="45.01508" lon="8.336245"><ele>195.5</ele><time>2026-04-25T07:14:25.998Z</time></trkpt><trkpt lat="45.01512" lon="8.3364333"><ele>195.75</ele><time>2026-04-25T07:14:26.996Z</time></trkpt><trkpt lat="45.0151683" lon="8.336615"><ele>196.0</ele><time>2026-04-25T07:14:27.992Z</time></trkpt><trkpt lat="45.0152367" lon="8.3367833"><ele>196.25</ele><time>2026-04-25T07:14:28.994Z</time></trkpt><trkpt lat="45.0153317" lon="8.3369117"><ele>196.5</ele><time>2026-04-25T07:14:29.994Z</time></trkpt><trkpt lat="45.0154433" lon="8.336995"><ele>196.75</ele><time>2026-04-25T07:14:30.997Z</time></trkpt><trkpt lat="45.0155667" lon="8.3370367"><ele>197.0</ele><time>2026-04-25T07:14:31.992Z</time></trkpt><trkpt lat="45.015695" lon="8.337055"><ele>198.25</ele><time>2026-04-25T07:14:32.998Z</time></trkpt><trkpt lat="45.01583" lon="8.33706"><ele>199.5</ele><time>2026-04-25T07:14:33.993Z</time></trkpt><trkpt lat="45.0159667" lon="8.3370667"><ele>200.75</ele><time>2026-04-25T07:14:34.993Z</time></trkpt><trkpt lat="45.0161017" lon="8.337075"><ele>202.0</ele><time>2026-04-25T07:14:36.003Z</time></trkpt><trkpt lat="45.0162317" lon="8.337085"><ele>202.0</ele><time>2026-04-25T07:14:36.999Z</time></trkpt><trkpt lat="45.01636" lon="8.3370967"><ele>202.0</ele><time>2026-04-25T07:14:37.994Z</time></trkpt><trkpt lat="45.0164917" lon="8.337105"><ele>202.0</ele><time>2026-04-25T07:14:38.995Z</time></trkpt><trkpt lat="45.0166367" lon="8.337115"><ele>202.0</ele><time>2026-04-25T07:14:39.994Z</time></trkpt><trkpt lat="45.016795" lon="8.3371283"><ele>203.33333333333331</ele><time>2026-04-25T07:14:40.995Z</time></trkpt><trkpt lat="45.0169583" lon="8.33714"><ele>204.66666666666669</ele><time>2026-04-25T07:14:41.997Z</time></trkpt><trkpt lat="45.01712" lon="8.3371533"><ele>206.0</ele><time>2026-04-25T07:14:42.997Z</time></trkpt><trkpt lat="45.0172783" lon="8.3371667"><ele>206.0</ele><time>2026-04-25T07:14:43.992Z</time></trkpt><trkpt lat="45.0174283" lon="8.33718"><ele>206.0</ele><time>2026-04-25T07:14:44.998Z</time></trkpt><trkpt lat="45.0175767" lon="8.337195"><ele>206.0</ele><time>2026-04-25T07:14:46.002Z</time></trkpt><trkpt lat="45.0177183" lon="8.3372033"><ele>206.0</ele><time>2026-04-25T07:14:46.997Z</time></trkpt><trkpt lat="45.0178517" lon="8.3372117"><ele>206.75</ele><time>2026-04-25T07:14:47.994Z</time></trkpt><trkpt lat="45.017985" lon="8.3372183"><ele>207.5</ele><time>2026-04-25T07:14:48.998Z</time></trkpt><trkpt lat="45.018115" lon="8.3372217"><ele>208.25</ele><time>2026-04-25T07:14:49.995Z</time></trkpt><trkpt lat="45.0182417" lon="8.3372217"><ele>209.0</ele><time>2026-04-25T07:14:51Z</time></trkpt><trkpt lat="45.018365" lon="8.3372233"><ele>212.0</ele><time>2026-04-25T07:14:51.994Z</time></trkpt><trkpt lat="45.0184883" lon="8.337225"><ele>215.0</ele><time>2026-04-25T07:14:52.996Z</time></trkpt><trkpt lat="45.018615" lon="8.3372267"><ele>218.0</ele><time>2026-04-25T07:14:53.995Z</time></trkpt><trkpt lat="45.0187433" lon="8.3372267"><ele>221.0</ele><time>2026-04-25T07:14:54.996Z</time></trkpt><trkpt lat="45.0188733" lon="8.3372267"><ele>221.0</ele><time>2026-04-25T07:14:55.998Z</time></trkpt><trkpt lat="45.0190067" lon="8.337235"><ele>221.0</ele><time>2026-04-25T07:14:56.997Z</time></trkpt><trkpt lat="45.0191367" lon="8.3372367"><ele>221.0</ele><time>2026-04-25T07:14:57.993Z</time></trkpt><trkpt lat="45.0192683" lon="8.3372367"><ele>221.0</ele><time>2026-04-25T07:14:58.997Z</time></trkpt><trkpt lat="45.0193967" lon="8.3372383"><ele>223.25</ele><time>2026-04-25T07:14:59.997Z</time></trkpt><trkpt lat="45.019525" lon="8.3372333"><ele>225.5</ele><time>2026-04-25T07:15:00.994Z</time></trkpt><trkpt lat="45.019655" lon="8.3372283"><ele>227.75</ele><time>2026-04-25T07:15:01.997Z</time></trkpt><trkpt lat="45.0197817" lon="8.3372267"><ele>230.0</ele><time>2026-04-25T07:15:02.993Z</time></trkpt><trkpt lat="45.01991" lon="8.3372217"><ele>229.5</ele><time>2026-04-25T07:15:03.998Z</time></trkpt><trkpt lat="45.0200333" lon="8.3372183"><ele>229.0</ele><time>2026-04-25T07:15:04.997Z</time></trkpt><trkpt lat="45.0201517" lon="8.3372167"><ele>228.5</ele><time>2026-04-25T07:15:05.998Z</time></trkpt><trkpt lat="45.020265" lon="8.337215"><ele>228.0</ele><time>2026-04-25T07:15:06.999Z</time></trkpt><trkpt lat="45.0203767" lon="8.3372167"><ele>228.0</ele><time>2026-04-25T07:15:07.999Z</time></trkpt><trkpt lat="45.0204817" lon="8.33722"><ele>228.0</ele><time>2026-04-25T07:15:08.999Z</time></trkpt><trkpt lat="45.02058" lon="8.337215"><ele>228.0</ele><time>2026-04-25T07:15:09.995Z</time></trkpt><trkpt lat="45.0206733" lon="8.337215"><ele>228.0</ele><time>2026-04-25T07:15:10.997Z</time></trkpt><trkpt lat="45.0207667" lon="8.3372183"><ele>228.0</ele><time>2026-04-25T07:15:12.001Z</time></trkpt><trkpt lat="45.020855" lon="8.33722"><ele>230.16666666666666</ele><time>2026-04-25T07:15:12.998Z</time></trkpt><trkpt lat="45.0209433" lon="8.3372233"><ele>232.33333333333331</ele><time>2026-04-25T07:15:13.996Z</time></trkpt><trkpt lat="45.02103" lon="8.337225"><ele>234.5</ele><time>2026-04-25T07:15:15.003Z</time></trkpt><trkpt lat="45.021115" lon="8.3372283"><ele>236.66666666666666</ele><time>2026-04-25T07:15:15.999Z</time></trkpt><trkpt lat="45.0211883" lon="8.3372417"><ele>238.83333333333331</ele><time>2026-04-25T07:15:16.998Z</time></trkpt><trkpt lat="45.0212533" lon="8.33726"><ele>241.0</ele><time>2026-04-25T07:15:17.997Z</time></trkpt><trkpt lat="45.02135" lon="8.337275"><ele>241.0</ele><time>2026-04-25T07:15:19.999Z</time></trkpt><trkpt lat="45.0214183" lon="8.3373067"><ele>241.00000000000003</ele><time>2026-04-25T07:15:23Z</time></trkpt><trkpt lat="45.02151" lon="8.3373733"><ele>241.00000000000003</ele><time>2026-04-25T07:15:53.998Z</time></trkpt><trkpt lat="45.0215883" lon="8.3374383"><ele>241.0</ele><time>2026-04-25T07:15:55.994Z</time></trkpt><trkpt lat="45.0215533" lon="8.33756"><ele>241.0</ele><time>2026-04-25T07:15:57.994Z</time></trkpt><trkpt lat="45.0214667" lon="8.337725"><ele>241.0</ele><time>2026-04-25T07:15:59.994Z</time></trkpt><trkpt lat="45.0213967" lon="8.3378467"><ele>241.00000000000003</ele><time>2026-04-25T07:16:00.995Z</time></trkpt><trkpt lat="45.021305" lon="8.3379317"><ele>241.00000000000003</ele><time>2026-04-25T07:16:01.998Z</time></trkpt><trkpt lat="45.02123" lon="8.3380367"><ele>241.0</ele><time>2026-04-25T07:16:02.996Z</time></trkpt><trkpt lat="45.0211367" lon="8.338125"><ele>241.0</ele><time>2026-04-25T07:16:03.997Z</time></trkpt><trkpt lat="45.0210533" lon="8.3382267"><ele>241.0</ele><time>2026-04-25T07:16:04.992Z</time></trkpt><trkpt lat="45.0209633" lon="8.3383183"><ele>241.0</ele><time>2026-04-25T07:16:05.998Z</time></trkpt><trkpt lat="45.0208583" lon="8.3384117"><ele>241.0</ele><time>2026-04-25T07:16:06.997Z</time></trkpt><trkpt lat="45.02076" lon="8.3385067"><ele>241.0</ele><time>2026-04-25T07:16:07.994Z</time></trkpt><trkpt lat="45.02065" lon="8.3386017"><ele>241.0</ele><time>2026-04-25T07:16:08.997Z</time></trkpt><trkpt lat="45.0205383" lon="8.3387017"><ele>241.0</ele><time>2026-04-25T07:16:09.995Z</time></trkpt><trkpt lat="45.020415" lon="8.3388"><ele>241.0</ele><time>2026-04-25T07:16:10.996Z</time></trkpt><trkpt lat="45.020295" lon="8.3389"><ele>241.0</ele><time>2026-04-25T07:16:11.997Z</time></trkpt><trkpt lat="45.0201767" lon="8.339"><ele>241.5</ele><time>2026-04-25T07:16:12.996Z</time></trkpt><trkpt lat="45.0200667" lon="8.3391017"><ele>242.0</ele><time>2026-04-25T07:16:13.993Z</time></trkpt><trkpt lat="45.0199467" lon="8.3392083"><ele>242.5</ele><time>2026-04-25T07:16:14.996Z</time></trkpt><trkpt lat="45.0198283" lon="8.3393167"><ele>243.0</ele><time>2026-04-25T07:16:15.998Z</time></trkpt><trkpt lat="45.0197" lon="8.3394183"><ele>243.0</ele><time>2026-04-25T07:16:16.992Z</time></trkpt><trkpt lat="45.0195733" lon="8.3395167"><ele>243.0</ele><time>2026-04-25T07:16:18.002Z</time></trkpt><trkpt lat="45.0194583" lon="8.3396133"><ele>243.0</ele><time>2026-04-25T07:16:18.994Z</time></trkpt><trkpt lat="45.0193567" lon="8.3397"><ele>243.0</ele><time>2026-04-25T07:16:19.996Z</time></trkpt><trkpt lat="45.0192633" lon="8.339785"><ele>243.60000000000002</ele><time>2026-04-25T07:16:20.997Z</time></trkpt><trkpt lat="45.01918" lon="8.3398733"><ele>244.20000000000002</ele><time>2026-04-25T07:16:21.995Z</time></trkpt><trkpt lat="45.0191133" lon="8.3399767"><ele>244.8</ele><time>2026-04-25T07:16:22.998Z</time></trkpt><trkpt lat="45.0190717" lon="8.340105"><ele>245.4</ele><time>2026-04-25T07:16:23.994Z</time></trkpt><trkpt lat="45.0190583" lon="8.3402467"><ele>246.0</ele><time>2026-04-25T07:16:24.997Z</time></trkpt><trkpt lat="45.0190733" lon="8.3403767"><ele>246.0</ele><time>2026-04-25T07:16:25.995Z</time></trkpt><trkpt lat="45.019115" lon="8.340495"><ele>246.0</ele><time>2026-04-25T07:16:26.999Z</time></trkpt><trkpt lat="45.019185" lon="8.34061"><ele>246.0</ele><time>2026-04-25T07:16:27.992Z</time></trkpt><trkpt lat="45.019275" lon="8.340735"><ele>246.0</ele><time>2026-04-25T07:16:28.996Z</time></trkpt><trkpt lat="45.0193733" lon="8.340855"><ele>246.0</ele><time>2026-04-25T07:16:29.992Z</time></trkpt><trkpt lat="45.0194683" lon="8.3409717"><ele>246.0</ele><time>2026-04-25T07:16:30.997Z</time></trkpt><trkpt lat="45.019565" lon="8.3410917"><ele>246.0</ele><time>2026-04-25T07:16:31.994Z</time></trkpt><trkpt lat="45.0196683" lon="8.3412"><ele>246.0</ele><time>2026-04-25T07:16:32.993Z</time></trkpt><trkpt lat="45.0197667" lon="8.3413167"><ele>245.75</ele><time>2026-04-25T07:16:33.995Z</time></trkpt><trkpt lat="45.019865" lon="8.3414317"><ele>245.5</ele><time>2026-04-25T07:16:34.992Z</time></trkpt><trkpt lat="45.0199667" lon="8.34155"><ele>245.25</ele><time>2026-04-25T07:16:35.996Z</time></trkpt><trkpt lat="45.020065" lon="8.3416717"><ele>245.0</ele><time>2026-04-25T07:16:36.998Z</time></trkpt><trkpt lat="45.0201617" lon="8.3417967"><ele>245.0</ele><time>2026-04-25T07:16:37.999Z</time></trkpt><trkpt lat="45.0202517" lon="8.3419317"><ele>245.0</ele><time>2026-04-25T07:16:38.993Z</time></trkpt><trkpt lat="45.020335" lon="8.3420783"><ele>245.0</ele><time>2026-04-25T07:16:39.992Z</time></trkpt><trkpt lat="45.0203967" lon="8.34225"><ele>245.0</ele><time>2026-04-25T07:16:40.996Z</time></trkpt><trkpt lat="45.0204433" lon="8.342435"><ele>244.25</ele><time>2026-04-25T07:16:41.992Z</time></trkpt><trkpt lat="45.02048" lon="8.3426283"><ele>243.5</ele><time>2026-04-25T07:16:42.999Z</time></trkpt><trkpt lat="45.0205033" lon="8.3428233"><ele>242.75</ele><time>2026-04-25T07:16:43.994Z</time></trkpt><trkpt lat="45.020525" lon="8.3430133"><ele>242.0</ele><time>2026-04-25T07:16:44.995Z</time></trkpt><trkpt lat="45.02054" lon="8.34321"><ele>241.25</ele><time>2026-04-25T07:16:45.994Z</time></trkpt><trkpt lat="45.0205567" lon="8.3434083"><ele>240.5</ele><time>2026-04-25T07:16:46.991Z</time></trkpt><trkpt lat="45.0205717" lon="8.34361"><ele>239.75</ele><time>2026-04-25T07:16:47.992Z</time></trkpt><trkpt lat="45.0205867" lon="8.3438117"><ele>239.0</ele><time>2026-04-25T07:16:48.998Z</time></trkpt><trkpt lat="45.0205983" lon="8.344015"><ele>239.0</ele><time>2026-04-25T07:16:49.99Z</time></trkpt><trkpt lat="45.020615" lon="8.3442167"><ele>239.0</ele><time>2026-04-25T07:16:50.998Z</time></trkpt><trkpt lat="45.0206317" lon="8.34442"><ele>239.0</ele><time>2026-04-25T07:16:51.995Z</time></trkpt><trkpt lat="45.0206467" lon="8.344625"><ele>239.0</ele><time>2026-04-25T07:16:53Z</time></trkpt><trkpt lat="45.0206633" lon="8.3448317"><ele>238.75</ele><time>2026-04-25T07:16:53.996Z</time></trkpt><trkpt lat="45.0206867" lon="8.3450383"><ele>238.5</ele><time>2026-04-25T07:16:54.996Z</time></trkpt><trkpt lat="45.0207067" lon="8.345245"><ele>238.25</ele><time>2026-04-25T07:16:55.997Z</time></trkpt><trkpt lat="45.0207217" lon="8.34546"><ele>238.0</ele><time>2026-04-25T07:16:56.993Z</time></trkpt><trkpt lat="45.0207383" lon="8.3456683"><ele>237.5</ele><time>2026-04-25T07:16:57.997Z</time></trkpt><trkpt lat="45.0207567" lon="8.345875"><ele>237.0</ele><time>2026-04-25T07:16:58.994Z</time></trkpt><trkpt lat="45.0207717" lon="8.3460817"><ele>236.5</ele><time>2026-04-25T07:16:59.996Z</time></trkpt><trkpt lat="45.0207883" lon="8.34629"><ele>236.0</ele><time>2026-04-25T07:17:00.998Z</time></trkpt><trkpt lat="45.020805" lon="8.346505"><ele>238.66666666666669</ele><time>2026-04-25T07:17:01.994Z</time></trkpt><trkpt lat="45.020825" lon="8.34672"><ele>241.33333333333331</ele><time>2026-04-25T07:17:02.993Z</time></trkpt><trkpt lat="45.02085" lon="8.3469317"><ele>244.0</ele><time>2026-04-25T07:17:04.003Z</time></trkpt><trkpt lat="45.02087" lon="8.3471417"><ele>243.0</ele><time>2026-04-25T07:17:04.992Z</time></trkpt><trkpt lat="45.0208883" lon="8.3473533"><ele>242.0</ele><time>2026-04-25T07:17:05.998Z</time></trkpt><trkpt lat="45.020895" lon="8.3475733"><ele>241.0</ele><time>2026-04-25T07:17:06.993Z</time></trkpt><trkpt lat="45.020895" lon="8.3477917"><ele>241.0</ele><time>2026-04-25T07:17:07.994Z</time></trkpt><trkpt lat="45.0208717" lon="8.3480117"><ele>241.0</ele><time>2026-04-25T07:17:08.998Z</time></trkpt><trkpt lat="45.0208217" lon="8.348235"><ele>241.0</ele><time>2026-04-25T07:17:09.993Z</time></trkpt><trkpt lat="45.0207567" lon="8.34844"><ele>240.33333333333331</ele><time>2026-04-25T07:17:10.993Z</time></trkpt><trkpt lat="45.0206767" lon="8.3486433"><ele>239.66666666666669</ele><time>2026-04-25T07:17:11.998Z</time></trkpt><trkpt lat="45.02059" lon="8.348835"><ele>239.0</ele><time>2026-04-25T07:17:12.999Z</time></trkpt><trkpt lat="45.0205017" lon="8.349025"><ele>240.66666666666669</ele><time>2026-04-25T07:17:13.992Z</time></trkpt><trkpt lat="45.0204117" lon="8.3492167"><ele>242.33333333333331</ele><time>2026-04-25T07:17:14.992Z</time></trkpt><trkpt lat="45.0203233" lon="8.34941"><ele>244.0</ele><time>2026-04-25T07:17:15.994Z</time></trkpt><trkpt lat="45.0202317" lon="8.3496017"><ele>244.0</ele><time>2026-04-25T07:17:16.992Z</time></trkpt><trkpt lat="45.0201383" lon="8.3497933"><ele>244.0</ele><time>2026-04-25T07:17:18.001Z</time></trkpt><trkpt lat="45.0200517" lon="8.349985"><ele>244.0</ele><time>2026-04-25T07:17:18.993Z</time></trkpt><trkpt lat="45.01996" lon="8.350175"><ele>244.0</ele><time>2026-04-25T07:17:19.997Z</time></trkpt><trkpt lat="45.01987" lon="8.35037"><ele>244.0</ele><time>2026-04-25T07:17:20.997Z</time></trkpt><trkpt lat="45.019785" lon="8.350565"><ele>244.0</ele><time>2026-04-25T07:17:21.994Z</time></trkpt><trkpt lat="45.0196967" lon="8.3507633"><ele>246.0</ele><time>2026-04-25T07:17:22.993Z</time></trkpt><trkpt lat="45.0196083" lon="8.3509617"><ele>248.0</ele><time>2026-04-25T07:17:23.993Z</time></trkpt><trkpt lat="45.019525" lon="8.3511617"><ele>250.0</ele><time>2026-04-25T07:17:24.996Z</time></trkpt><trkpt lat="45.0194383" lon="8.3513617"><ele>251.66666666666666</ele><time>2026-04-25T07:17:25.996Z</time></trkpt><trkpt lat="45.0193517" lon="8.3515617"><ele>253.33333333333331</ele><time>2026-04-25T07:17:27.005Z</time></trkpt><trkpt lat="45.0192667" lon="8.3517617"><ele>255.0</ele><time>2026-04-25T07:17:27.994Z</time></trkpt><trkpt lat="45.0191833" lon="8.3519567"><ele>254.5</ele><time>2026-04-25T07:17:28.998Z</time></trkpt><trkpt lat="45.0191017" lon="8.3521417"><ele>254.0</ele><time>2026-04-25T07:17:29.996Z</time></trkpt><trkpt lat="45.0190267" lon="8.3523117"><ele>253.5</ele><time>2026-04-25T07:17:30.996Z</time></trkpt><trkpt lat="45.0189633" lon="8.3524733"><ele>253.0</ele><time>2026-04-25T07:17:31.992Z</time></trkpt><trkpt lat="45.0189233" lon="8.3526267"><ele>253.5</ele><time>2026-04-25T07:17:32.996Z</time></trkpt><trkpt lat="45.018905" lon="8.3527917"><ele>254.0</ele><time>2026-04-25T07:17:33.995Z</time></trkpt><trkpt lat="45.018915" lon="8.3529617"><ele>254.5</ele><time>2026-04-25T07:17:34.996Z</time></trkpt><trkpt lat="45.0189533" lon="8.35313"><ele>255.0</ele><time>2026-04-25T07:17:35.997Z</time></trkpt><trkpt lat="45.0190167" lon="8.3532983"><ele>255.0</ele><time>2026-04-25T07:17:36.994Z</time></trkpt><trkpt lat="45.0190967" lon="8.3534683"><ele>255.0</ele><time>2026-04-25T07:17:37.993Z</time></trkpt><trkpt lat="45.0191833" lon="8.3536367"><ele>255.0</ele><time>2026-04-25T07:17:38.995Z</time></trkpt><trkpt lat="45.0192733" lon="8.3538067"><ele>255.0</ele><time>2026-04-25T07:17:39.994Z</time></trkpt><trkpt lat="45.0193633" lon="8.353975"><ele>253.5</ele><time>2026-04-25T07:17:40.993Z</time></trkpt><trkpt lat="45.019455" lon="8.35414"><ele>252.0</ele><time>2026-04-25T07:17:41.998Z</time></trkpt><trkpt lat="45.0195467" lon="8.3543017"><ele>250.5</ele><time>2026-04-25T07:17:42.995Z</time></trkpt><trkpt lat="45.019635" lon="8.3544617"><ele>249.0</ele><time>2026-04-25T07:17:43.993Z</time></trkpt><trkpt lat="45.0197217" lon="8.3546217"><ele>248.25</ele><time>2026-04-25T07:17:44.997Z</time></trkpt><trkpt lat="45.0198" lon="8.3547883"><ele>247.5</ele><time>2026-04-25T07:17:45.995Z</time></trkpt><trkpt lat="45.0198567" lon="8.3549717"><ele>246.75</ele><time>2026-04-25T07:17:46.994Z</time></trkpt><trkpt lat="45.01989" lon="8.355155"><ele>246.0</ele><time>2026-04-25T07:17:48.002Z</time></trkpt><trkpt lat="45.0198867" lon="8.355345"><ele>246.0</ele><time>2026-04-25T07:17:48.996Z</time></trkpt><trkpt lat="45.0198467" lon="8.3555167"><ele>246.0</ele><time>2026-04-25T07:17:49.995Z</time></trkpt><trkpt lat="45.01977" lon="8.3556567"><ele>246.0</ele><time>2026-04-25T07:17:50.997Z</time></trkpt><trkpt lat="45.0196667" lon="8.355755"><ele>246.0</ele><time>2026-04-25T07:17:51.996Z</time></trkpt><trkpt lat="45.01955" lon="8.3558367"><ele>244.75</ele><time>2026-04-25T07:17:52.997Z</time></trkpt><trkpt lat="45.019435" lon="8.3559317"><ele>243.5</ele><time>2026-04-25T07:17:53.995Z</time></trkpt><trkpt lat="45.0193333" lon="8.356055"><ele>242.25</ele><time>2026-04-25T07:17:55.002Z</time></trkpt><trkpt lat="45.0192467" lon="8.3562"><ele>241.0</ele><time>2026-04-25T07:17:55.99Z</time></trkpt><trkpt lat="45.0191683" lon="8.3563583"><ele>239.0</ele><time>2026-04-25T07:17:56.998Z</time></trkpt><trkpt lat="45.019095" lon="8.3565317"><ele>237.0</ele><time>2026-04-25T07:17:57.998Z</time></trkpt><trkpt lat="45.019025" lon="8.3567083"><ele>235.0</ele><time>2026-04-25T07:17:58.995Z</time></trkpt><trkpt lat="45.0189567" lon="8.356885"><ele>233.0</ele><time>2026-04-25T07:17:59.996Z</time></trkpt><trkpt lat="45.018885" lon="8.35706"><ele>232.5</ele><time>2026-04-25T07:18:00.995Z</time></trkpt><trkpt lat="45.0188133" lon="8.3572383"><ele>232.0</ele><time>2026-04-25T07:18:01.994Z</time></trkpt><trkpt lat="45.01874" lon="8.35741"><ele>231.5</ele><time>2026-04-25T07:18:02.996Z</time></trkpt><trkpt lat="45.0186667" lon="8.3575733"><ele>231.0</ele><time>2026-04-25T07:18:03.998Z</time></trkpt><trkpt lat="45.0185967" lon="8.3577283"><ele>231.0</ele><time>2026-04-25T07:18:04.998Z</time></trkpt><trkpt lat="45.0185317" lon="8.357865"><ele>231.00000000000003</ele><time>2026-04-25T07:18:05.997Z</time></trkpt><trkpt lat="45.0184717" lon="8.3579817"><ele>231.00000000000003</ele><time>2026-04-25T07:18:06.997Z</time></trkpt><trkpt lat="45.01841" lon="8.3580983"><ele>231.0</ele><time>2026-04-25T07:18:07.994Z</time></trkpt><trkpt lat="45.01835" lon="8.358225"><ele>231.0</ele><time>2026-04-25T07:18:09.002Z</time></trkpt><trkpt lat="45.01829" lon="8.3583783"><ele>231.33333333333331</ele><time>2026-04-25T07:18:09.992Z</time></trkpt><trkpt lat="45.0182283" lon="8.3585583"><ele>231.66666666666666</ele><time>2026-04-25T07:18:10.994Z</time></trkpt><trkpt lat="45.01816" lon="8.35876"><ele>232.0</ele><time>2026-04-25T07:18:11.995Z</time></trkpt><trkpt lat="45.018085" lon="8.3589783"><ele>233.66666666666666</ele><time>2026-04-25T07:18:12.996Z</time></trkpt><trkpt lat="45.018005" lon="8.3591983"><ele>235.33333333333331</ele><time>2026-04-25T07:18:13.996Z</time></trkpt><trkpt lat="45.0179233" lon="8.35942"><ele>237.0</ele><time>2026-04-25T07:18:15Z</time></trkpt><trkpt lat="45.01784" lon="8.3596467"><ele>237.66666666666669</ele><time>2026-04-25T07:18:15.996Z</time></trkpt><trkpt lat="45.0177567" lon="8.35987"><ele>238.33333333333334</ele><time>2026-04-25T07:18:16.994Z</time></trkpt><trkpt lat="45.017675" lon="8.3600917"><ele>239.0</ele><time>2026-04-25T07:18:17.997Z</time></trkpt><trkpt lat="45.017595" lon="8.3603117"><ele>239.0</ele><time>2026-04-25T07:18:18.996Z</time></trkpt><trkpt lat="45.0175133" lon="8.3605383"><ele>239.0</ele><time>2026-04-25T07:18:19.992Z</time></trkpt><trkpt lat="45.0174333" lon="8.36076"><ele>239.0</ele><time>2026-04-25T07:18:20.999Z</time></trkpt><trkpt lat="45.0173517" lon="8.360985"><ele>239.66666666666669</ele><time>2026-04-25T07:18:21.997Z</time></trkpt><trkpt lat="45.0172717" lon="8.361205"><ele>240.33333333333331</ele><time>2026-04-25T07:18:22.999Z</time></trkpt><trkpt lat="45.0171933" lon="8.3614217"><ele>241.0</ele><time>2026-04-25T07:18:23.996Z</time></trkpt><trkpt lat="45.0171133" lon="8.3616383"><ele>241.66666666666666</ele><time>2026-04-25T07:18:24.997Z</time></trkpt><trkpt lat="45.0170383" lon="8.3618517"><ele>242.33333333333331</ele><time>2026-04-25T07:18:25.996Z</time></trkpt><trkpt lat="45.0169617" lon="8.3620633"><ele>243.0</ele><time>2026-04-25T07:18:26.997Z</time></trkpt><trkpt lat="45.0168833" lon="8.3622767"><ele>243.0</ele><time>2026-04-25T07:18:27.992Z</time></trkpt><trkpt lat="45.0168067" lon="8.36249"><ele>243.0</ele><time>2026-04-25T07:18:28.996Z</time></trkpt><trkpt lat="45.01673" lon="8.362705"><ele>243.0</ele><time>2026-04-25T07:18:29.996Z</time></trkpt><trkpt lat="45.0166517" lon="8.3629217"><ele>245.66666666666669</ele><time>2026-04-25T07:18:30.999Z</time></trkpt><trkpt lat="45.016575" lon="8.3631383"><ele>248.33333333333334</ele><time>2026-04-25T07:18:31.996Z</time></trkpt><trkpt lat="45.016495" lon="8.3633483"><ele>251.0</ele><time>2026-04-25T07:18:32.996Z</time></trkpt><trkpt lat="45.01642" lon="8.3635567"><ele>251.0</ele><time>2026-04-25T07:18:34.002Z</time></trkpt><trkpt lat="45.0163433" lon="8.36376"><ele>251.0</ele><time>2026-04-25T07:18:34.996Z</time></trkpt><trkpt lat="45.0162667" lon="8.3639617"><ele>251.0</ele><time>2026-04-25T07:18:35.998Z</time></trkpt><trkpt lat="45.0161883" lon="8.364165"><ele>251.66666666666669</ele><time>2026-04-25T07:18:36.995Z</time></trkpt><trkpt lat="45.0161083" lon="8.3643633"><ele>252.33333333333331</ele><time>2026-04-25T07:18:37.996Z</time></trkpt><trkpt lat="45.0160267" lon="8.3645633"><ele>253.0</ele><time>2026-04-25T07:18:38.998Z</time></trkpt><trkpt lat="45.0159467" lon="8.36476"><ele>250.0</ele><time>2026-04-25T07:18:39.994Z</time></trkpt><trkpt lat="45.015865" lon="8.3649617"><ele>247.0</ele><time>2026-04-25T07:18:40.996Z</time></trkpt><trkpt lat="45.0157833" lon="8.3651633"><ele>244.0</ele><time>2026-04-25T07:18:42Z</time></trkpt><trkpt lat="45.0157" lon="8.3653617"><ele>242.66666666666666</ele><time>2026-04-25T07:18:42.996Z</time></trkpt><trkpt lat="45.0156183" lon="8.3655567"><ele>241.33333333333331</ele><time>2026-04-25T07:18:43.997Z</time></trkpt><trkpt lat="45.015535" lon="8.3657483"><ele>240.0</ele><time>2026-04-25T07:18:44.995Z</time></trkpt><trkpt lat="45.0154533" lon="8.3659433"><ele>240.0</ele><time>2026-04-25T07:18:45.999Z</time></trkpt><trkpt lat="45.0153733" lon="8.3661433"><ele>240.0</ele><time>2026-04-25T07:18:46.995Z</time></trkpt><trkpt lat="45.01529" lon="8.3663433"><ele>240.0</ele><time>2026-04-25T07:18:47.997Z</time></trkpt><trkpt lat="45.015205" lon="8.366545"><ele>238.0</ele><time>2026-04-25T07:18:48.999Z</time></trkpt><trkpt lat="45.0151217" lon="8.3667517"><ele>236.0</ele><time>2026-04-25T07:18:49.998Z</time></trkpt><trkpt lat="45.0150333" lon="8.3669583"><ele>234.0</ele><time>2026-04-25T07:18:50.997Z</time></trkpt><trkpt lat="45.0149433" lon="8.3671667"><ele>231.0</ele><time>2026-04-25T07:18:51.995Z</time></trkpt><trkpt lat="45.014855" lon="8.3673783"><ele>228.0</ele><time>2026-04-25T07:18:52.998Z</time></trkpt><trkpt lat="45.01477" lon="8.36759"><ele>225.0</ele><time>2026-04-25T07:18:53.998Z</time></trkpt><trkpt lat="45.0146833" lon="8.3677967"><ele>225.0</ele><time>2026-04-25T07:18:54.995Z</time></trkpt><trkpt lat="45.0145983" lon="8.3679983"><ele>225.0</ele><time>2026-04-25T07:18:55.993Z</time></trkpt><trkpt lat="45.0145117" lon="8.3681983"><ele>225.0</ele><time>2026-04-25T07:18:56.997Z</time></trkpt><trkpt lat="45.0144283" lon="8.368395"><ele>224.66666666666669</ele><time>2026-04-25T07:18:57.994Z</time></trkpt><trkpt lat="45.0143417" lon="8.3685933"><ele>224.33333333333334</ele><time>2026-04-25T07:18:58.996Z</time></trkpt><trkpt lat="45.0142583" lon="8.3687917"><ele>224.0</ele><time>2026-04-25T07:18:59.997Z</time></trkpt><trkpt lat="45.0141767" lon="8.3689917"><ele>221.0</ele><time>2026-04-25T07:19:00.994Z</time></trkpt><trkpt lat="45.0140933" lon="8.3691917"><ele>218.0</ele><time>2026-04-25T07:19:01.994Z</time></trkpt><trkpt lat="45.0140133" lon="8.3693883"><ele>215.0</ele><time>2026-04-25T07:19:02.994Z</time></trkpt><trkpt lat="45.0139333" lon="8.3695867"><ele>216.33333333333334</ele><time>2026-04-25T07:19:03.996Z</time></trkpt><trkpt lat="45.0138533" lon="8.3697833"><ele>217.66666666666669</ele><time>2026-04-25T07:19:04.996Z</time></trkpt><trkpt lat="45.0137733" lon="8.369975"><ele>219.0</ele><time>2026-04-25T07:19:05.997Z</time></trkpt><trkpt lat="45.0136933" lon="8.3701667"><ele>219.0</ele><time>2026-04-25T07:19:07.001Z</time></trkpt><trkpt lat="45.0136133" lon="8.370355"><ele>219.0</ele><time>2026-04-25T07:19:07.999Z</time></trkpt><trkpt lat="45.0135367" lon="8.3705467"><ele>219.0</ele><time>2026-04-25T07:19:08.998Z</time></trkpt><trkpt lat="45.0134567" lon="8.3707367"><ele>220.0</ele><time>2026-04-25T07:19:09.995Z</time></trkpt><trkpt lat="45.0133783" lon="8.3709283"><ele>221.0</ele><time>2026-04-25T07:19:10.995Z</time></trkpt><trkpt lat="45.0132967" lon="8.3711217"><ele>222.0</ele><time>2026-04-25T07:19:11.998Z</time></trkpt><trkpt lat="45.0132133" lon="8.37132"><ele>218.66666666666669</ele><time>2026-04-25T07:19:12.996Z</time></trkpt><trkpt lat="45.01313" lon="8.3715233"><ele>215.33333333333334</ele><time>2026-04-25T07:19:13.995Z</time></trkpt><trkpt lat="45.0130467" lon="8.3717283"><ele>212.0</ele><time>2026-04-25T07:19:14.996Z</time></trkpt><trkpt lat="45.01296" lon="8.3719333"><ele>212.0</ele><time>2026-04-25T07:19:15.997Z</time></trkpt><trkpt lat="45.0128767" lon="8.3721367"><ele>212.0</ele><time>2026-04-25T07:19:17Z</time></trkpt><trkpt lat="45.0127967" lon="8.3723333"><ele>212.0</ele><time>2026-04-25T07:19:17.997Z</time></trkpt><trkpt lat="45.0127183" lon="8.3725233"><ele>212.5</ele><time>2026-04-25T07:19:19.002Z</time></trkpt><trkpt lat="45.0126433" lon="8.37271"><ele>213.0</ele><time>2026-04-25T07:19:19.996Z</time></trkpt><trkpt lat="45.0125683" lon="8.3728883"><ele>213.5</ele><time>2026-04-25T07:19:20.998Z</time></trkpt><trkpt lat="45.0124933" lon="8.3730633"><ele>214.0</ele><time>2026-04-25T07:19:21.998Z</time></trkpt><trkpt lat="45.0124167" lon="8.37324"><ele>212.0</ele><time>2026-04-25T07:19:22.993Z</time></trkpt><trkpt lat="45.0123433" lon="8.37342"><ele>210.0</ele><time>2026-04-25T07:19:23.996Z</time></trkpt><trkpt lat="45.0122667" lon="8.3736"><ele>208.0</ele><time>2026-04-25T07:19:24.999Z</time></trkpt><trkpt lat="45.0121917" lon="8.3737833"><ele>206.0</ele><time>2026-04-25T07:19:25.995Z</time></trkpt><trkpt lat="45.012115" lon="8.3739683"><ele>206.0</ele><time>2026-04-25T07:19:26.998Z</time></trkpt><trkpt lat="45.0120317" lon="8.37416"><ele>206.0</ele><time>2026-04-25T07:19:27.993Z</time></trkpt><trkpt lat="45.0119517" lon="8.37436"><ele>206.0</ele><time>2026-04-25T07:19:28.995Z</time></trkpt><trkpt lat="45.0118733" lon="8.374565"><ele>206.0</ele><time>2026-04-25T07:19:29.993Z</time></trkpt><trkpt lat="45.011795" lon="8.374775"><ele>206.0</ele><time>2026-04-25T07:19:31.002Z</time></trkpt><trkpt lat="45.0117217" lon="8.3749883"><ele>206.0</ele><time>2026-04-25T07:19:32.004Z</time></trkpt><trkpt lat="45.0116517" lon="8.3752133"><ele>205.0</ele><time>2026-04-25T07:19:33Z</time></trkpt><trkpt lat="45.0115933" lon="8.37544"><ele>204.0</ele><time>2026-04-25T07:19:33.998Z</time></trkpt><trkpt lat="45.0115417" lon="8.375675"><ele>203.0</ele><time>2026-04-25T07:19:34.996Z</time></trkpt><trkpt lat="45.01149" lon="8.3759133"><ele>203.0</ele><time>2026-04-25T07:19:35.999Z</time></trkpt><trkpt lat="45.0114483" lon="8.3761533"><ele>203.0</ele><time>2026-04-25T07:19:36.996Z</time></trkpt><trkpt lat="45.011425" lon="8.37639"><ele>203.0</ele><time>2026-04-25T07:19:38.005Z</time></trkpt><trkpt lat="45.0114117" lon="8.3766233"><ele>204.0</ele><time>2026-04-25T07:19:39.001Z</time></trkpt><trkpt lat="45.0114117" lon="8.3768533"><ele>205.0</ele><time>2026-04-25T07:19:39.995Z</time></trkpt><trkpt lat="45.0114167" lon="8.3770817"><ele>206.0</ele><time>2026-04-25T07:19:40.997Z</time></trkpt><trkpt lat="45.0114233" lon="8.3773117"><ele>207.0</ele><time>2026-04-25T07:19:41.994Z</time></trkpt><trkpt lat="45.0114317" lon="8.3775333"><ele>208.0</ele><time>2026-04-25T07:19:43Z</time></trkpt><trkpt lat="45.0114433" lon="8.3777567"><ele>209.0</ele><time>2026-04-25T07:19:43.996Z</time></trkpt><trkpt lat="45.0114533" lon="8.3779817"><ele>209.33333333333334</ele><time>2026-04-25T07:19:45.005Z</time></trkpt><trkpt lat="45.01146" lon="8.3782067"><ele>209.66666666666669</ele><time>2026-04-25T07:19:45.995Z</time></trkpt><trkpt lat="45.0114683" lon="8.37843"><ele>210.0</ele><time>2026-04-25T07:19:46.994Z</time></trkpt><trkpt lat="45.011475" lon="8.3786533"><ele>209.33333333333331</ele><time>2026-04-25T07:19:47.995Z</time></trkpt><trkpt lat="45.0114817" lon="8.3788767"><ele>208.66666666666666</ele><time>2026-04-25T07:19:48.997Z</time></trkpt><trkpt lat="45.0114883" lon="8.3791017"><ele>208.0</ele><time>2026-04-25T07:19:49.992Z</time></trkpt><trkpt lat="45.0114967" lon="8.37932"><ele>208.0</ele><time>2026-04-25T07:19:50.998Z</time></trkpt><trkpt lat="45.011505" lon="8.3795317"><ele>208.0</ele><time>2026-04-25T07:19:52Z</time></trkpt><trkpt lat="45.0115133" lon="8.3797467"><ele>208.0</ele><time>2026-04-25T07:19:52.994Z</time></trkpt><trkpt lat="45.0115217" lon="8.3799617"><ele>207.66666666666666</ele><time>2026-04-25T07:19:54Z</time></trkpt><trkpt lat="45.0115283" lon="8.38018"><ele>207.33333333333331</ele><time>2026-04-25T07:19:54.996Z</time></trkpt><trkpt lat="45.011535" lon="8.38039"><ele>207.0</ele><time>2026-04-25T07:19:55.996Z</time></trkpt><trkpt lat="45.0115433" lon="8.3806"><ele>207.0</ele><time>2026-04-25T07:19:56.997Z</time></trkpt><trkpt lat="45.01155" lon="8.38081"><ele>207.0</ele><time>2026-04-25T07:19:57.996Z</time></trkpt><trkpt lat="45.0115583" lon="8.3810217"><ele>207.0</ele><time>2026-04-25T07:19:59.003Z</time></trkpt><trkpt lat="45.0115667" lon="8.3812333"><ele>207.0</ele><time>2026-04-25T07:19:59.996Z</time></trkpt><trkpt lat="45.011575" lon="8.3814433"><ele>206.0</ele><time>2026-04-25T07:20:00.999Z</time></trkpt><trkpt lat="45.0115833" lon="8.3816567"><ele>205.0</ele><time>2026-04-25T07:20:01.996Z</time></trkpt><trkpt lat="45.0115883" lon="8.3818717"><ele>204.0</ele><time>2026-04-25T07:20:02.999Z</time></trkpt><trkpt lat="45.0115917" lon="8.382085"><ele>203.25</ele><time>2026-04-25T07:20:03.996Z</time></trkpt><trkpt lat="45.0115933" lon="8.3822967"><ele>202.5</ele><time>2026-04-25T07:20:04.993Z</time></trkpt><trkpt lat="45.011595" lon="8.3825083"><ele>201.75</ele><time>2026-04-25T07:20:05.993Z</time></trkpt><trkpt lat="45.0115983" lon="8.38272"><ele>201.0</ele><time>2026-04-25T07:20:06.994Z</time></trkpt><trkpt lat="45.0115983" lon="8.3829283"><ele>201.25</ele><time>2026-04-25T07:20:07.994Z</time></trkpt><trkpt lat="45.011585" lon="8.383135"><ele>201.5</ele><time>2026-04-25T07:20:08.998Z</time></trkpt><trkpt lat="45.01156" lon="8.3833383"><ele>201.75</ele><time>2026-04-25T07:20:09.997Z</time></trkpt><trkpt lat="45.0115267" lon="8.38353"><ele>202.0</ele><time>2026-04-25T07:20:11.001Z</time></trkpt><trkpt lat="45.0114767" lon="8.3837167"><ele>202.25</ele><time>2026-04-25T07:20:11.992Z</time></trkpt><trkpt lat="45.011415" lon="8.3838967"><ele>202.5</ele><time>2026-04-25T07:20:12.995Z</time></trkpt><trkpt lat="45.01134" lon="8.3840733"><ele>202.75</ele><time>2026-04-25T07:20:13.997Z</time></trkpt><trkpt lat="45.0112483" lon="8.3842417"><ele>203.0</ele><time>2026-04-25T07:20:14.995Z</time></trkpt><trkpt lat="45.0111517" lon="8.3844017"><ele>203.0</ele><time>2026-04-25T07:20:15.999Z</time></trkpt><trkpt lat="45.011055" lon="8.384555"><ele>203.0</ele><time>2026-04-25T07:20:16.995Z</time></trkpt><trkpt lat="45.0109533" lon="8.3847067"><ele>203.0</ele><time>2026-04-25T07:20:17.996Z</time></trkpt><trkpt lat="45.010855" lon="8.38486"><ele>203.0</ele><time>2026-04-25T07:20:18.995Z</time></trkpt><trkpt lat="45.010755" lon="8.3850117"><ele>202.5</ele><time>2026-04-25T07:20:19.996Z</time></trkpt><trkpt lat="45.0106583" lon="8.3851567"><ele>202.0</ele><time>2026-04-25T07:20:20.997Z</time></trkpt><trkpt lat="45.0105633" lon="8.3853033"><ele>201.5</ele><time>2026-04-25T07:20:21.994Z</time></trkpt><trkpt lat="45.01047" lon="8.3854533"><ele>201.0</ele><time>2026-04-25T07:20:22.997Z</time></trkpt><trkpt lat="45.0103767" lon="8.3855983"><ele>202.25</ele><time>2026-04-25T07:20:24.006Z</time></trkpt><trkpt lat="45.0102883" lon="8.3857417"><ele>203.5</ele><time>2026-04-25T07:20:24.997Z</time></trkpt><trkpt lat="45.0102017" lon="8.3858817"><ele>204.75</ele><time>2026-04-25T07:20:25.998Z</time></trkpt><trkpt lat="45.0101217" lon="8.386015"><ele>206.0</ele><time>2026-04-25T07:20:26.997Z</time></trkpt><trkpt lat="45.0100433" lon="8.386135"><ele>205.4</ele><time>2026-04-25T07:20:27.997Z</time></trkpt><trkpt lat="45.0099717" lon="8.38625"><ele>204.8</ele><time>2026-04-25T07:20:28.996Z</time></trkpt><trkpt lat="45.0099017" lon="8.38636"><ele>204.20000000000002</ele><time>2026-04-25T07:20:29.999Z</time></trkpt><trkpt lat="45.0098317" lon="8.3864483"><ele>203.60000000000002</ele><time>2026-04-25T07:20:30.998Z</time></trkpt><trkpt lat="45.0097667" lon="8.3865183"><ele>203.0</ele><time>2026-04-25T07:20:31.994Z</time></trkpt><trkpt lat="45.0097017" lon="8.3865733"><ele>204.2</ele><time>2026-04-25T07:20:33.002Z</time></trkpt><trkpt lat="45.0096183" lon="8.3866067"><ele>205.4</ele><time>2026-04-25T07:20:33.999Z</time></trkpt><trkpt lat="45.0095233" lon="8.3866183"><ele>206.6</ele><time>2026-04-25T07:20:34.999Z</time></trkpt><trkpt lat="45.009405" lon="8.3865667"><ele>207.79999999999998</ele><time>2026-04-25T07:20:35.997Z</time></trkpt><trkpt lat="45.0092883" lon="8.3865317"><ele>209.0</ele><time>2026-04-25T07:20:36.999Z</time></trkpt><trkpt lat="45.00916" lon="8.386505"><ele>207.25</ele><time>2026-04-25T07:20:37.994Z</time></trkpt><trkpt lat="45.0090317" lon="8.3864967"><ele>205.5</ele><time>2026-04-25T07:20:38.995Z</time></trkpt><trkpt lat="45.0089017" lon="8.38651"><ele>203.75</ele><time>2026-04-25T07:20:39.997Z</time></trkpt><trkpt lat="45.00878" lon="8.3865467"><ele>202.0</ele><time>2026-04-25T07:20:41.003Z</time></trkpt><trkpt lat="45.00866" lon="8.3866017"><ele>202.0</ele><time>2026-04-25T07:20:41.999Z</time></trkpt><trkpt lat="45.0085367" lon="8.3866683"><ele>202.0</ele><time>2026-04-25T07:20:42.998Z</time></trkpt><trkpt lat="45.0084083" lon="8.3867367"><ele>202.0</ele><time>2026-04-25T07:20:43.996Z</time></trkpt><trkpt lat="45.0082767" lon="8.386805"><ele>202.0</ele><time>2026-04-25T07:20:44.993Z</time></trkpt><trkpt lat="45.0081367" lon="8.3868733"><ele>200.66666666666666</ele><time>2026-04-25T07:20:45.995Z</time></trkpt><trkpt lat="45.0079883" lon="8.3869433"><ele>199.33333333333331</ele><time>2026-04-25T07:20:46.993Z</time></trkpt><trkpt lat="45.0078383" lon="8.3870117"><ele>198.0</ele><time>2026-04-25T07:20:47.999Z</time></trkpt><trkpt lat="45.00769" lon="8.38708"><ele>198.0</ele><time>2026-04-25T07:20:48.995Z</time></trkpt><trkpt lat="45.0075417" lon="8.3871483"><ele>198.0</ele><time>2026-04-25T07:20:49.996Z</time></trkpt><trkpt lat="45.0073917" lon="8.3872217"><ele>198.0</ele><time>2026-04-25T07:20:51.002Z</time></trkpt><trkpt lat="45.0072417" lon="8.3872967"><ele>197.0</ele><time>2026-04-25T07:20:51.995Z</time></trkpt><trkpt lat="45.0070933" lon="8.3873683"><ele>196.0</ele><time>2026-04-25T07:20:53Z</time></trkpt><trkpt lat="45.0069467" lon="8.3874383"><ele>195.0</ele><time>2026-04-25T07:20:53.993Z</time></trkpt><trkpt lat="45.0068" lon="8.38751"><ele>192.66666666666666</ele><time>2026-04-25T07:20:54.996Z</time></trkpt><trkpt lat="45.0066517" lon="8.3875817"><ele>190.33333333333331</ele><time>2026-04-25T07:20:55.996Z</time></trkpt><trkpt lat="45.006505" lon="8.3876533"><ele>188.0</ele><time>2026-04-25T07:20:56.995Z</time></trkpt><trkpt lat="45.0063567" lon="8.387725"><ele>188.0</ele><time>2026-04-25T07:20:58.003Z</time></trkpt><trkpt lat="45.0062067" lon="8.3878"><ele>188.0</ele><time>2026-04-25T07:20:58.995Z</time></trkpt><trkpt lat="45.0060583" lon="8.3878783"><ele>188.0</ele><time>2026-04-25T07:20:59.997Z</time></trkpt><trkpt lat="45.0059083" lon="8.3879533"><ele>187.0</ele><time>2026-04-25T07:21:00.995Z</time></trkpt><trkpt lat="45.00576" lon="8.3880283"><ele>186.0</ele><time>2026-04-25T07:21:01.995Z</time></trkpt><trkpt lat="45.0056117" lon="8.3881033"><ele>185.0</ele><time>2026-04-25T07:21:03Z</time></trkpt><trkpt lat="45.0054633" lon="8.38818"><ele>185.0</ele><time>2026-04-25T07:21:03.996Z</time></trkpt><trkpt lat="45.0053133" lon="8.388255"><ele>185.0</ele><time>2026-04-25T07:21:04.993Z</time></trkpt><trkpt lat="45.0051633" lon="8.38833"><ele>185.0</ele><time>2026-04-25T07:21:05.993Z</time></trkpt><trkpt lat="45.0050117" lon="8.388405"><ele>182.33333333333331</ele><time>2026-04-25T07:21:06.998Z</time></trkpt><trkpt lat="45.0048583" lon="8.3884817"><ele>179.66666666666666</ele><time>2026-04-25T07:21:07.997Z</time></trkpt><trkpt lat="45.0047017" lon="8.3885533"><ele>177.0</ele><time>2026-04-25T07:21:09Z</time></trkpt><trkpt lat="45.0045433" lon="8.3886183"><ele>177.0</ele><time>2026-04-25T07:21:09.997Z</time></trkpt><trkpt lat="45.0043817" lon="8.3886783"><ele>177.0</ele><time>2026-04-25T07:21:10.993Z</time></trkpt><trkpt lat="45.0042183" lon="8.3887283"><ele>177.0</ele><time>2026-04-25T07:21:11.996Z</time></trkpt><trkpt lat="45.0040533" lon="8.3887767"><ele>175.33333333333334</ele><time>2026-04-25T07:21:12.996Z</time></trkpt><trkpt lat="45.0038883" lon="8.3888183"><ele>173.66666666666669</ele><time>2026-04-25T07:21:13.996Z</time></trkpt><trkpt lat="45.0037233" lon="8.38885"><ele>172.0</ele><time>2026-04-25T07:21:14.997Z</time></trkpt><trkpt lat="45.0035567" lon="8.3888767"><ele>172.0</ele><time>2026-04-25T07:21:15.997Z</time></trkpt><trkpt lat="45.0033867" lon="8.3889"><ele>172.0</ele><time>2026-04-25T07:21:16.994Z</time></trkpt><trkpt lat="45.0032183" lon="8.388925"><ele>172.0</ele><time>2026-04-25T07:21:17.997Z</time></trkpt><trkpt lat="45.0030467" lon="8.3889417"><ele>170.0</ele><time>2026-04-25T07:21:18.996Z</time></trkpt><trkpt lat="45.0028717" lon="8.3889617"><ele>168.0</ele><time>2026-04-25T07:21:19.994Z</time></trkpt><trkpt lat="45.002695" lon="8.38898"><ele>166.0</ele><time>2026-04-25T07:21:20.999Z</time></trkpt><trkpt lat="45.0025133" lon="8.3889917"><ele>165.66666666666669</ele><time>2026-04-25T07:21:21.995Z</time></trkpt><trkpt lat="45.0023317" lon="8.389005"><ele>165.33333333333334</ele><time>2026-04-25T07:21:22.996Z</time></trkpt><trkpt lat="45.0021483" lon="8.3890117"><ele>165.0</ele><time>2026-04-25T07:21:23.994Z</time></trkpt><trkpt lat="45.0019667" lon="8.3890233"><ele>165.0</ele><time>2026-04-25T07:21:24.998Z</time></trkpt><trkpt lat="45.00179" lon="8.38904"><ele>165.0</ele><time>2026-04-25T07:21:25.995Z</time></trkpt><trkpt lat="45.0016133" lon="8.389055"><ele>165.0</ele><time>2026-04-25T07:21:26.998Z</time></trkpt><trkpt lat="45.0014383" lon="8.38907"><ele>164.33333333333334</ele><time>2026-04-25T07:21:27.999Z</time></trkpt><trkpt lat="45.0012633" lon="8.3890817"><ele>163.66666666666669</ele><time>2026-04-25T07:21:28.999Z</time></trkpt><trkpt lat="45.0010883" lon="8.3890967"><ele>163.0</ele><time>2026-04-25T07:21:29.998Z</time></trkpt><trkpt lat="45.0009183" lon="8.3891133"><ele>161.66666666666669</ele><time>2026-04-25T07:21:30.998Z</time></trkpt><trkpt lat="45.0007467" lon="8.389125"><ele>160.33333333333334</ele><time>2026-04-25T07:21:31.996Z</time></trkpt><trkpt lat="45.00058" lon="8.38914"><ele>159.0</ele><time>2026-04-25T07:21:32.999Z</time></trkpt><trkpt lat="45.0004117" lon="8.3891567"><ele>159.0</ele><time>2026-04-25T07:21:33.997Z</time></trkpt><trkpt lat="45.000245" lon="8.3891717"><ele>159.0</ele><time>2026-04-25T07:21:35.001Z</time></trkpt><trkpt lat="45.00008" lon="8.38919"><ele>159.0</ele><time>2026-04-25T07:21:36Z</time></trkpt><trkpt lat="44.9999183" lon="8.3892167"><ele>159.0</ele><time>2026-04-25T07:21:36.997Z</time></trkpt><trkpt lat="44.999755" lon="8.3892483"><ele>159.0</ele><time>2026-04-25T07:21:37.998Z</time></trkpt><trkpt lat="44.9995917" lon="8.3892983"><ele>159.0</ele><time>2026-04-25T07:21:38.997Z</time></trkpt><trkpt lat="44.9994283" lon="8.3893633"><ele>159.0</ele><time>2026-04-25T07:21:39.995Z</time></trkpt><trkpt lat="44.9992633" lon="8.3894383"><ele>159.0</ele><time>2026-04-25T07:21:40.996Z</time></trkpt><trkpt lat="44.9991" lon="8.3895217"><ele>159.0</ele><time>2026-04-25T07:21:41.995Z</time></trkpt><trkpt lat="44.9989383" lon="8.3896117"><ele>158.33333333333334</ele><time>2026-04-25T07:21:43Z</time></trkpt><trkpt lat="44.9987767" lon="8.3897033"><ele>157.66666666666669</ele><time>2026-04-25T07:21:43.997Z</time></trkpt><trkpt lat="44.9986167" lon="8.389795"><ele>157.0</ele><time>2026-04-25T07:21:44.997Z</time></trkpt><trkpt lat="44.998455" lon="8.3898867"><ele>156.33333333333334</ele><time>2026-04-25T07:21:46.003Z</time></trkpt><trkpt lat="44.9982933" lon="8.3899767"><ele>155.66666666666666</ele><time>2026-04-25T07:21:46.996Z</time></trkpt><trkpt lat="44.9981317" lon="8.390065"><ele>155.0</ele><time>2026-04-25T07:21:47.996Z</time></trkpt><trkpt lat="44.9979717" lon="8.3901583"><ele>155.0</ele><time>2026-04-25T07:21:49.002Z</time></trkpt><trkpt lat="44.9978133" lon="8.390245"><ele>155.0</ele><time>2026-04-25T07:21:49.995Z</time></trkpt><trkpt lat="44.997655" lon="8.39033"><ele>155.0</ele><time>2026-04-25T07:21:50.995Z</time></trkpt><trkpt lat="44.997495" lon="8.3904133"><ele>154.66666666666666</ele><time>2026-04-25T07:21:51.998Z</time></trkpt><trkpt lat="44.997335" lon="8.3904983"><ele>154.33333333333334</ele><time>2026-04-25T07:21:52.997Z</time></trkpt><trkpt lat="44.9971783" lon="8.3905867"><ele>154.0</ele><time>2026-04-25T07:21:53.999Z</time></trkpt><trkpt lat="44.9970217" lon="8.3906733"><ele>154.33333333333334</ele><time>2026-04-25T07:21:54.997Z</time></trkpt><trkpt lat="44.996865" lon="8.390765"><ele>154.66666666666666</ele><time>2026-04-25T07:21:55.999Z</time></trkpt><trkpt lat="44.996705" lon="8.3908567"><ele>155.0</ele><time>2026-04-25T07:21:56.995Z</time></trkpt><trkpt lat="44.9965483" lon="8.3909517"><ele>155.0</ele><time>2026-04-25T07:21:57.994Z</time></trkpt><trkpt lat="44.99639" lon="8.391045"><ele>155.0</ele><time>2026-04-25T07:21:58.996Z</time></trkpt><trkpt lat="44.99623" lon="8.3911367"><ele>155.0</ele><time>2026-04-25T07:21:59.998Z</time></trkpt><trkpt lat="44.99607" lon="8.3912267"><ele>155.0</ele><time>2026-04-25T07:22:00.997Z</time></trkpt><trkpt lat="44.99591" lon="8.3913183"><ele>155.0</ele><time>2026-04-25T07:22:01.997Z</time></trkpt><trkpt lat="44.9957533" lon="8.3914083"><ele>155.0</ele><time>2026-04-25T07:22:02.997Z</time></trkpt><trkpt lat="44.9955983" lon="8.3914917"><ele>155.0</ele><time>2026-04-25T07:22:03.997Z</time></trkpt><trkpt lat="44.9954517" lon="8.3915583"><ele>155.0</ele><time>2026-04-25T07:22:04.998Z</time></trkpt><trkpt lat="44.99531" lon="8.3916"><ele>155.0</ele><time>2026-04-25T07:22:06Z</time></trkpt><trkpt lat="44.9951817" lon="8.3916133"><ele>155.0</ele><time>2026-04-25T07:22:06.995Z</time></trkpt><trkpt lat="44.9950683" lon="8.39161"><ele>154.8</ele><time>2026-04-25T07:22:08.002Z</time></trkpt><trkpt lat="44.994975" lon="8.3915833"><ele>154.6</ele><time>2026-04-25T07:22:09.001Z</time></trkpt><trkpt lat="44.9948917" lon="8.3915283"><ele>154.4</ele><time>2026-04-25T07:22:09.994Z</time></trkpt><trkpt lat="44.9948133" lon="8.391455"><ele>154.2</ele><time>2026-04-25T07:22:11.002Z</time></trkpt><trkpt lat="44.9947417" lon="8.3913833"><ele>154.0</ele><time>2026-04-25T07:22:11.996Z</time></trkpt><trkpt lat="44.9946567" lon="8.3913367"><ele>154.0</ele><time>2026-04-25T07:22:12.999Z</time></trkpt><trkpt lat="44.9945733" lon="8.391315"><ele>154.0</ele><time>2026-04-25T07:22:14Z</time></trkpt><trkpt lat="44.994505" lon="8.39137"><ele>154.0</ele><time>2026-04-25T07:22:14.998Z</time></trkpt><trkpt lat="44.9944383" lon="8.3914483"><ele>154.0</ele><time>2026-04-25T07:22:16.001Z</time></trkpt><trkpt lat="44.9943867" lon="8.3915667"><ele>154.0</ele><time>2026-04-25T07:22:16.995Z</time></trkpt><trkpt lat="44.9943517" lon="8.3917133"><ele>154.0</ele><time>2026-04-25T07:22:17.998Z</time></trkpt><trkpt lat="44.994305" lon="8.3918533"><ele>154.0</ele><time>2026-04-25T07:22:18.999Z</time></trkpt><trkpt lat="44.9942433" lon="8.39199"><ele>154.0</ele><time>2026-04-25T07:22:19.994Z</time></trkpt><trkpt lat="44.9941717" lon="8.3921267"><ele>154.0</ele><time>2026-04-25T07:22:20.999Z</time></trkpt><trkpt lat="44.9941" lon="8.3922683"><ele>153.25</ele><time>2026-04-25T07:22:21.994Z</time></trkpt><trkpt lat="44.9940367" lon="8.39242"><ele>152.5</ele><time>2026-04-25T07:22:22.994Z</time></trkpt><trkpt lat="44.9939817" lon="8.3925867"><ele>151.75</ele><time>2026-04-25T07:22:23.998Z</time></trkpt><trkpt lat="44.993935" lon="8.3927633"><ele>151.0</ele><time>2026-04-25T07:22:24.995Z</time></trkpt><trkpt lat="44.9938917" lon="8.3929483"><ele>150.75</ele><time>2026-04-25T07:22:25.996Z</time></trkpt><trkpt lat="44.9938467" lon="8.3931433"><ele>150.5</ele><time>2026-04-25T07:22:26.997Z</time></trkpt><trkpt lat="44.9938" lon="8.3933383"><ele>150.25</ele><time>2026-04-25T07:22:28Z</time></trkpt><trkpt lat="44.9937533" lon="8.3935417"><ele>150.0</ele><time>2026-04-25T07:22:28.997Z</time></trkpt><trkpt lat="44.9937033" lon="8.39375"><ele>149.66666666666666</ele><time>2026-04-25T07:22:29.997Z</time></trkpt><trkpt lat="44.9936533" lon="8.3939617"><ele>149.33333333333331</ele><time>2026-04-25T07:22:30.996Z</time></trkpt><trkpt lat="44.9936" lon="8.394185"><ele>149.0</ele><time>2026-04-25T07:22:31.994Z</time></trkpt><trkpt lat="44.993545" lon="8.39441"><ele>149.0</ele><time>2026-04-25T07:22:33Z</time></trkpt><trkpt lat="44.9934917" lon="8.3946317"><ele>149.0</ele><time>2026-04-25T07:22:33.999Z</time></trkpt><trkpt lat="44.99344" lon="8.3948533"><ele>149.0</ele><time>2026-04-25T07:22:34.997Z</time></trkpt><trkpt lat="44.9933867" lon="8.395075"><ele>149.33333333333331</ele><time>2026-04-25T07:22:35.997Z</time></trkpt><trkpt lat="44.993335" lon="8.3952917"><ele>149.66666666666666</ele><time>2026-04-25T07:22:36.993Z</time></trkpt><trkpt lat="44.9932817" lon="8.39551"><ele>150.0</ele><time>2026-04-25T07:22:37.994Z</time></trkpt><trkpt lat="44.9932267" lon="8.39572"><ele>150.0</ele><time>2026-04-25T07:22:38.995Z</time></trkpt><trkpt lat="44.993175" lon="8.3959283"><ele>150.0</ele><time>2026-04-25T07:22:40.001Z</time></trkpt><trkpt lat="44.9931233" lon="8.396135"><ele>150.0</ele><time>2026-04-25T07:22:40.993Z</time></trkpt><trkpt lat="44.9930733" lon="8.3963417"><ele>150.0</ele><time>2026-04-25T07:22:41.998Z</time></trkpt><trkpt lat="44.993025" lon="8.3965517"><ele>150.0</ele><time>2026-04-25T07:22:42.996Z</time></trkpt><trkpt lat="44.9929717" lon="8.3967583"><ele>150.0</ele><time>2026-04-25T07:22:43.999Z</time></trkpt><trkpt lat="44.99292" lon="8.3969683"><ele>149.66666666666666</ele><time>2026-04-25T07:22:44.999Z</time></trkpt><trkpt lat="44.99287" lon="8.3971867"><ele>149.33333333333331</ele><time>2026-04-25T07:22:45.991Z</time></trkpt><trkpt lat="44.9928167" lon="8.3974033"><ele>149.0</ele><time>2026-04-25T07:22:46.996Z</time></trkpt><trkpt lat="44.9927667" lon="8.39762"><ele>149.0</ele><time>2026-04-25T07:22:47.998Z</time></trkpt><trkpt lat="44.9927133" lon="8.397835"><ele>149.0</ele><time>2026-04-25T07:22:48.996Z</time></trkpt><trkpt lat="44.99266" lon="8.39805"><ele>149.0</ele><time>2026-04-25T07:22:49.998Z</time></trkpt><trkpt lat="44.9926067" lon="8.39827"><ele>149.0</ele><time>2026-04-25T07:22:50.998Z</time></trkpt><trkpt lat="44.992555" lon="8.398495"><ele>149.0</ele><time>2026-04-25T07:22:51.996Z</time></trkpt><trkpt lat="44.9924983" lon="8.3987233"><ele>149.0</ele><time>2026-04-25T07:22:52.993Z</time></trkpt><trkpt lat="44.992445" lon="8.398955"><ele>149.0</ele><time>2026-04-25T07:22:54.002Z</time></trkpt><trkpt lat="44.9923883" lon="8.399185"><ele>149.0</ele><time>2026-04-25T07:22:54.997Z</time></trkpt><trkpt lat="44.99233" lon="8.3994167"><ele>149.0</ele><time>2026-04-25T07:22:56.001Z</time></trkpt><trkpt lat="44.9922733" lon="8.3996467"><ele>148.66666666666666</ele><time>2026-04-25T07:22:56.994Z</time></trkpt><trkpt lat="44.992215" lon="8.399875"><ele>148.33333333333334</ele><time>2026-04-25T07:22:58Z</time></trkpt><trkpt lat="44.9921567" lon="8.4001083"><ele>148.0</ele><time>2026-04-25T07:22:58.994Z</time></trkpt><trkpt lat="44.9921" lon="8.40034"><ele>147.66666666666669</ele><time>2026-04-25T07:23:00.006Z</time></trkpt><trkpt lat="44.992045" lon="8.40057"><ele>147.33333333333334</ele><time>2026-04-25T07:23:00.993Z</time></trkpt><trkpt lat="44.9919867" lon="8.400805"><ele>147.0</ele><time>2026-04-25T07:23:01.996Z</time></trkpt><trkpt lat="44.991925" lon="8.4010383"><ele>147.0</ele><time>2026-04-25T07:23:02.995Z</time></trkpt><trkpt lat="44.991865" lon="8.40127"><ele>147.0</ele><time>2026-04-25T07:23:03.996Z</time></trkpt><trkpt lat="44.991805" lon="8.401505"><ele>147.0</ele><time>2026-04-25T07:23:04.994Z</time></trkpt><trkpt lat="44.991745" lon="8.4017383"><ele>146.66666666666666</ele><time>2026-04-25T07:23:05.993Z</time></trkpt><trkpt lat="44.9916783" lon="8.40197"><ele>146.33333333333331</ele><time>2026-04-25T07:23:06.999Z</time></trkpt><trkpt lat="44.991605" lon="8.4021883"><ele>146.0</ele><time>2026-04-25T07:23:07.994Z</time></trkpt><trkpt lat="44.9915217" lon="8.4023933"><ele>146.0</ele><time>2026-04-25T07:23:08.996Z</time></trkpt><trkpt lat="44.99143" lon="8.4025867"><ele>146.0</ele><time>2026-04-25T07:23:09.992Z</time></trkpt><trkpt lat="44.991325" lon="8.4027683"><ele>146.0</ele><time>2026-04-25T07:23:10.992Z</time></trkpt><trkpt lat="44.99121" lon="8.40293"><ele>146.0</ele><time>2026-04-25T07:23:11.997Z</time></trkpt><trkpt lat="44.9910817" lon="8.403075"><ele>146.0</ele><time>2026-04-25T07:23:13Z</time></trkpt><trkpt lat="44.990945" lon="8.4031983"><ele>146.0</ele><time>2026-04-25T07:23:13.999Z</time></trkpt><trkpt lat="44.9908017" lon="8.4033067"><ele>146.66666666666666</ele><time>2026-04-25T07:23:14.996Z</time></trkpt><trkpt lat="44.9906517" lon="8.4033983"><ele>147.33333333333334</ele><time>2026-04-25T07:23:15.997Z</time></trkpt><trkpt lat="44.990495" lon="8.4034817"><ele>148.0</ele><time>2026-04-25T07:23:17Z</time></trkpt><trkpt lat="44.9903367" lon="8.4035633"><ele>148.0</ele><time>2026-04-25T07:23:17.998Z</time></trkpt><trkpt lat="44.9901717" lon="8.4036433"><ele>148.0</ele><time>2026-04-25T07:23:18.999Z</time></trkpt><trkpt lat="44.99" lon="8.4037267"><ele>148.0</ele><time>2026-04-25T07:23:19.998Z</time></trkpt><trkpt lat="44.98983" lon="8.4038067"><ele>148.0</ele><time>2026-04-25T07:23:20.999Z</time></trkpt><trkpt lat="44.98966" lon="8.4038933"><ele>148.0</ele><time>2026-04-25T07:23:21.995Z</time></trkpt><trkpt lat="44.98949" lon="8.4039817"><ele>148.0</ele><time>2026-04-25T07:23:22.996Z</time></trkpt><trkpt lat="44.9893183" lon="8.40407"><ele>149.33333333333334</ele><time>2026-04-25T07:23:23.998Z</time></trkpt><trkpt lat="44.98915" lon="8.40416"><ele>150.66666666666666</ele><time>2026-04-25T07:23:24.998Z</time></trkpt><trkpt lat="44.988975" lon="8.404245"><ele>152.0</ele><time>2026-04-25T07:23:25.997Z</time></trkpt><trkpt lat="44.9888" lon="8.404335"><ele>152.0</ele><time>2026-04-25T07:23:26.996Z</time></trkpt><trkpt lat="44.9886233" lon="8.4044217"><ele>152.0</ele><time>2026-04-25T07:23:27.996Z</time></trkpt><trkpt lat="44.9884483" lon="8.4045083"><ele>152.0</ele><time>2026-04-25T07:23:28.997Z</time></trkpt><trkpt lat="44.9882733" lon="8.4045933"><ele>150.66666666666666</ele><time>2026-04-25T07:23:29.995Z</time></trkpt><trkpt lat="44.9880983" lon="8.4046683"><ele>149.33333333333334</ele><time>2026-04-25T07:23:30.996Z</time></trkpt><trkpt lat="44.98792" lon="8.40474"><ele>148.0</ele><time>2026-04-25T07:23:31.997Z</time></trkpt><trkpt lat="44.9877433" lon="8.4048033"><ele>148.0</ele><time>2026-04-25T07:23:33Z</time></trkpt><trkpt lat="44.98757" lon="8.404855"><ele>148.0</ele><time>2026-04-25T07:23:33.998Z</time></trkpt><trkpt lat="44.987395" lon="8.404895"><ele>148.0</ele><time>2026-04-25T07:23:34.994Z</time></trkpt><trkpt lat="44.9872233" lon="8.404925"><ele>149.66666666666669</ele><time>2026-04-25T07:23:35.998Z</time></trkpt><trkpt lat="44.9870483" lon="8.4049517"><ele>151.33333333333334</ele><time>2026-04-25T07:23:36.997Z</time></trkpt><trkpt lat="44.9868733" lon="8.4049733"><ele>153.0</ele><time>2026-04-25T07:23:37.998Z</time></trkpt><trkpt lat="44.9866983" lon="8.40499"><ele>154.33333333333334</ele><time>2026-04-25T07:23:38.998Z</time></trkpt><trkpt lat="44.9865233" lon="8.405005"><ele>155.66666666666669</ele><time>2026-04-25T07:23:39.994Z</time></trkpt><trkpt lat="44.98635" lon="8.4050167"><ele>157.0</ele><time>2026-04-25T07:23:40.997Z</time></trkpt><trkpt lat="44.9861733" lon="8.4050283"><ele>157.0</ele><time>2026-04-25T07:23:41.997Z</time></trkpt><trkpt lat="44.986" lon="8.4050417"><ele>157.0</ele><time>2026-04-25T07:23:42.998Z</time></trkpt><trkpt lat="44.9858267" lon="8.4050517"><ele>157.0</ele><time>2026-04-25T07:23:43.995Z</time></trkpt><trkpt lat="44.985655" lon="8.4050617"><ele>158.33333333333334</ele><time>2026-04-25T07:23:44.996Z</time></trkpt><trkpt lat="44.985485" lon="8.4050717"><ele>159.66666666666666</ele><time>2026-04-25T07:23:45.994Z</time></trkpt><trkpt lat="44.985315" lon="8.40509"><ele>161.0</ele><time>2026-04-25T07:23:46.995Z</time></trkpt><trkpt lat="44.9851517" lon="8.4051217"><ele>164.0</ele><time>2026-04-25T07:23:47.998Z</time></trkpt><trkpt lat="44.9849983" lon="8.4051767"><ele>167.0</ele><time>2026-04-25T07:23:48.999Z</time></trkpt><trkpt lat="44.9848533" lon="8.4052733"><ele>170.0</ele><time>2026-04-25T07:23:49.995Z</time></trkpt><trkpt lat="44.9847233" lon="8.4054"><ele>166.66666666666666</ele><time>2026-04-25T07:23:50.999Z</time></trkpt><trkpt lat="44.9846117" lon="8.4055717"><ele>163.33333333333334</ele><time>2026-04-25T07:23:51.998Z</time></trkpt><trkpt lat="44.98452" lon="8.405765"><ele>160.0</ele><time>2026-04-25T07:23:52.995Z</time></trkpt><trkpt lat="44.9844433" lon="8.405975"><ele>160.0</ele><time>2026-04-25T07:23:53.994Z</time></trkpt><trkpt lat="44.98437" lon="8.4061883"><ele>160.0</ele><time>2026-04-25T07:23:54.996Z</time></trkpt><trkpt lat="44.9842967" lon="8.4064017"><ele>160.0</ele><time>2026-04-25T07:23:55.995Z</time></trkpt><trkpt lat="44.9842217" lon="8.4066083"><ele>163.33333333333334</ele><time>2026-04-25T07:23:57.005Z</time></trkpt><trkpt lat="44.9841467" lon="8.4068083"><ele>166.66666666666666</ele><time>2026-04-25T07:23:57.999Z</time></trkpt><trkpt lat="44.9840717" lon="8.4069983"><ele>170.0</ele><time>2026-04-25T07:23:59.001Z</time></trkpt><trkpt lat="44.9840017" lon="8.4071717"><ele>170.75</ele><time>2026-04-25T07:23:59.996Z</time></trkpt><trkpt lat="44.9839367" lon="8.4073333"><ele>171.5</ele><time>2026-04-25T07:24:00.999Z</time></trkpt><trkpt lat="44.9838633" lon="8.4074817"><ele>172.25</ele><time>2026-04-25T07:24:01.995Z</time></trkpt><trkpt lat="44.9837783" lon="8.407625"><ele>173.0</ele><time>2026-04-25T07:24:03.004Z</time></trkpt><trkpt lat="44.9836817" lon="8.4077433"><ele>173.0</ele><time>2026-04-25T07:24:03.995Z</time></trkpt><trkpt lat="44.9835767" lon="8.4078417"><ele>173.0</ele><time>2026-04-25T07:24:04.999Z</time></trkpt><trkpt lat="44.9834633" lon="8.40793"><ele>173.0</ele><time>2026-04-25T07:24:06.001Z</time></trkpt><trkpt lat="44.9833433" lon="8.408005"><ele>173.0</ele><time>2026-04-25T07:24:06.997Z</time></trkpt><trkpt lat="44.983225" lon="8.408075"><ele>174.25</ele><time>2026-04-25T07:24:07.999Z</time></trkpt><trkpt lat="44.9831017" lon="8.4081467"><ele>175.5</ele><time>2026-04-25T07:24:08.995Z</time></trkpt><trkpt lat="44.9829767" lon="8.4082183"><ele>176.75</ele><time>2026-04-25T07:24:09.999Z</time></trkpt><trkpt lat="44.9828383" lon="8.40828"><ele>178.0</ele><time>2026-04-25T07:24:10.997Z</time></trkpt><trkpt lat="44.9826883" lon="8.408335"><ele>178.0</ele><time>2026-04-25T07:24:11.998Z</time></trkpt><trkpt lat="44.98254" lon="8.4084017"><ele>178.0</ele><time>2026-04-25T07:24:13Z</time></trkpt><trkpt lat="44.982395" lon="8.4084767"><ele>178.0</ele><time>2026-04-25T07:24:14.003Z</time></trkpt><trkpt lat="44.9822483" lon="8.4085517"><ele>177.66666666666669</ele><time>2026-04-25T07:24:14.997Z</time></trkpt><trkpt lat="44.982095" lon="8.40863"><ele>177.33333333333334</ele><time>2026-04-25T07:24:15.996Z</time></trkpt><trkpt lat="44.981945" lon="8.40871"><ele>177.0</ele><time>2026-04-25T07:24:16.997Z</time></trkpt><trkpt lat="44.9817917" lon="8.40879"><ele>176.33333333333334</ele><time>2026-04-25T07:24:17.996Z</time></trkpt><trkpt lat="44.98164" lon="8.4088667"><ele>175.66666666666669</ele><time>2026-04-25T07:24:18.996Z</time></trkpt><trkpt lat="44.98149" lon="8.40894"><ele>175.0</ele><time>2026-04-25T07:24:20.005Z</time></trkpt><trkpt lat="44.981345" lon="8.409015"><ele>175.0</ele><time>2026-04-25T07:24:20.997Z</time></trkpt><trkpt lat="44.9812" lon="8.4090883"><ele>175.0</ele><time>2026-04-25T07:24:21.997Z</time></trkpt><trkpt lat="44.9810567" lon="8.4091583"><ele>175.0</ele><time>2026-04-25T07:24:22.998Z</time></trkpt><trkpt lat="44.9809067" lon="8.4092333"><ele>174.33333333333334</ele><time>2026-04-25T07:24:23.998Z</time></trkpt><trkpt lat="44.9807517" lon="8.40931"><ele>173.66666666666666</ele><time>2026-04-25T07:24:25Z</time></trkpt><trkpt lat="44.9805917" lon="8.4093883"><ele>173.0</ele><time>2026-04-25T07:24:25.995Z</time></trkpt><trkpt lat="44.9804333" lon="8.4094683"><ele>173.0</ele><time>2026-04-25T07:24:26.999Z</time></trkpt><trkpt lat="44.980275" lon="8.409555"><ele>173.0</ele><time>2026-04-25T07:24:27.998Z</time></trkpt><trkpt lat="44.9801233" lon="8.4096667"><ele>173.0</ele><time>2026-04-25T07:24:29.003Z</time></trkpt><trkpt lat="44.9799883" lon="8.4097933"><ele>172.0</ele><time>2026-04-25T07:24:29.998Z</time></trkpt><trkpt lat="44.9798633" lon="8.4099383"><ele>171.0</ele><time>2026-04-25T07:24:30.996Z</time></trkpt><trkpt lat="44.9797517" lon="8.4101017"><ele>170.0</ele><time>2026-04-25T07:24:31.994Z</time></trkpt><trkpt lat="44.9796417" lon="8.4102767"><ele>170.0</ele><time>2026-04-25T07:24:32.997Z</time></trkpt><trkpt lat="44.9795317" lon="8.4104633"><ele>170.0</ele><time>2026-04-25T07:24:34.001Z</time></trkpt><trkpt lat="44.9794167" lon="8.4106517"><ele>170.0</ele><time>2026-04-25T07:24:34.996Z</time></trkpt><trkpt lat="44.9793" lon="8.4108367"><ele>170.33333333333331</ele><time>2026-04-25T07:24:35.994Z</time></trkpt><trkpt lat="44.9791867" lon="8.4110217"><ele>170.66666666666666</ele><time>2026-04-25T07:24:37.001Z</time></trkpt><trkpt lat="44.97907" lon="8.4112083"><ele>171.0</ele><time>2026-04-25T07:24:37.994Z</time></trkpt><trkpt lat="44.978955" lon="8.411395"><ele>169.66666666666666</ele><time>2026-04-25T07:24:38.996Z</time></trkpt><trkpt lat="44.97884" lon="8.41158"><ele>168.33333333333331</ele><time>2026-04-25T07:24:39.997Z</time></trkpt><trkpt lat="44.978725" lon="8.411765"><ele>167.0</ele><time>2026-04-25T07:24:40.992Z</time></trkpt><trkpt lat="44.9786117" lon="8.4119533"><ele>167.0</ele><time>2026-04-25T07:24:41.997Z</time></trkpt><trkpt lat="44.9784933" lon="8.41214"><ele>167.0</ele><time>2026-04-25T07:24:42.992Z</time></trkpt><trkpt lat="44.9783833" lon="8.4123267"><ele>167.0</ele><time>2026-04-25T07:24:43.995Z</time></trkpt><trkpt lat="44.97827" lon="8.4125083"><ele>167.33333333333331</ele><time>2026-04-25T07:24:44.997Z</time></trkpt><trkpt lat="44.9781583" lon="8.4126967"><ele>167.66666666666666</ele><time>2026-04-25T07:24:45.995Z</time></trkpt><trkpt lat="44.9780433" lon="8.4128833"><ele>168.0</ele><time>2026-04-25T07:24:46.994Z</time></trkpt><trkpt lat="44.9779283" lon="8.4130667"><ele>170.33333333333334</ele><time>2026-04-25T07:24:47.994Z</time></trkpt><trkpt lat="44.9778117" lon="8.4132533"><ele>172.66666666666669</ele><time>2026-04-25T07:24:48.997Z</time></trkpt><trkpt lat="44.9776983" lon="8.4134383"><ele>175.0</ele><time>2026-04-25T07:24:49.992Z</time></trkpt><trkpt lat="44.9775883" lon="8.413625"><ele>172.33333333333334</ele><time>2026-04-25T07:24:50.993Z</time></trkpt><trkpt lat="44.9774767" lon="8.4138117"><ele>169.66666666666666</ele><time>2026-04-25T07:24:51.992Z</time></trkpt><trkpt lat="44.9773633" lon="8.413995"><ele>167.0</ele><time>2026-04-25T07:24:52.993Z</time></trkpt><trkpt lat="44.9772517" lon="8.414175"><ele>167.0</ele><time>2026-04-25T07:24:53.993Z</time></trkpt><trkpt lat="44.9771383" lon="8.4143567"><ele>167.0</ele><time>2026-04-25T07:24:54.996Z</time></trkpt><trkpt lat="44.9770233" lon="8.4145417"><ele>167.0</ele><time>2026-04-25T07:24:55.994Z</time></trkpt><trkpt lat="44.97691" lon="8.4147283"><ele>165.66666666666666</ele><time>2026-04-25T07:24:56.999Z</time></trkpt><trkpt lat="44.97679" lon="8.4149183"><ele>164.33333333333334</ele><time>2026-04-25T07:24:57.997Z</time></trkpt><trkpt lat="44.9766717" lon="8.41511"><ele>163.0</ele><time>2026-04-25T07:24:58.994Z</time></trkpt><trkpt lat="44.9765483" lon="8.4153083"><ele>163.0</ele><time>2026-04-25T07:24:59.999Z</time></trkpt><trkpt lat="44.976425" lon="8.4155067"><ele>163.0</ele><time>2026-04-25T07:25:00.996Z</time></trkpt><trkpt lat="44.9763" lon="8.415705"><ele>163.0</ele><time>2026-04-25T07:25:02Z</time></trkpt><trkpt lat="44.9761767" lon="8.4159083"><ele>163.0</ele><time>2026-04-25T07:25:02.994Z</time></trkpt><trkpt lat="44.9760517" lon="8.4161133"><ele>163.0</ele><time>2026-04-25T07:25:03.997Z</time></trkpt><trkpt lat="44.9759217" lon="8.41632"><ele>163.0</ele><time>2026-04-25T07:25:04.994Z</time></trkpt><trkpt lat="44.97579" lon="8.4165317"><ele>162.66666666666669</ele><time>2026-04-25T07:25:05.997Z</time></trkpt><trkpt lat="44.97566" lon="8.4167417"><ele>162.33333333333334</ele><time>2026-04-25T07:25:06.999Z</time></trkpt><trkpt lat="44.9755317" lon="8.4169483"><ele>162.0</ele><time>2026-04-25T07:25:07.997Z</time></trkpt><trkpt lat="44.975405" lon="8.417155"><ele>163.0</ele><time>2026-04-25T07:25:08.995Z</time></trkpt><trkpt lat="44.97528" lon="8.4173633"><ele>164.0</ele><time>2026-04-25T07:25:09.997Z</time></trkpt><trkpt lat="44.9751533" lon="8.4175717"><ele>165.0</ele><time>2026-04-25T07:25:10.994Z</time></trkpt><trkpt lat="44.975025" lon="8.4177833"><ele>164.0</ele><time>2026-04-25T07:25:11.995Z</time></trkpt><trkpt lat="44.9748933" lon="8.4179933"><ele>163.0</ele><time>2026-04-25T07:25:12.995Z</time></trkpt><trkpt lat="44.9747633" lon="8.4182033"><ele>162.0</ele><time>2026-04-25T07:25:13.998Z</time></trkpt><trkpt lat="44.9746333" lon="8.4184083"><ele>162.0</ele><time>2026-04-25T07:25:14.997Z</time></trkpt><trkpt lat="44.9745067" lon="8.4186133"><ele>162.0</ele><time>2026-04-25T07:25:15.995Z</time></trkpt><trkpt lat="44.9743833" lon="8.41882"><ele>162.0</ele><time>2026-04-25T07:25:16.995Z</time></trkpt><trkpt lat="44.9742617" lon="8.419025"><ele>161.0</ele><time>2026-04-25T07:25:17.998Z</time></trkpt><trkpt lat="44.9741367" lon="8.419225"><ele>160.0</ele><time>2026-04-25T07:25:18.995Z</time></trkpt><trkpt lat="44.9740117" lon="8.4194217"><ele>159.0</ele><time>2026-04-25T07:25:19.994Z</time></trkpt><trkpt lat="44.9738867" lon="8.4196167"><ele>160.0</ele><time>2026-04-25T07:25:20.998Z</time></trkpt><trkpt lat="44.9737617" lon="8.4198183"><ele>161.0</ele><time>2026-04-25T07:25:21.995Z</time></trkpt><trkpt lat="44.9736417" lon="8.42001"><ele>162.0</ele><time>2026-04-25T07:25:23.001Z</time></trkpt><trkpt lat="44.97352" lon="8.4201967"><ele>162.0</ele><time>2026-04-25T07:25:23.995Z</time></trkpt><trkpt lat="44.9734" lon="8.4203833"><ele>162.0</ele><time>2026-04-25T07:25:24.996Z</time></trkpt><trkpt lat="44.9732833" lon="8.4205733"><ele>162.0</ele><time>2026-04-25T07:25:25.994Z</time></trkpt><trkpt lat="44.973165" lon="8.42076"><ele>160.66666666666666</ele><time>2026-04-25T07:25:27Z</time></trkpt><trkpt lat="44.973045" lon="8.4209317"><ele>159.33333333333331</ele><time>2026-04-25T07:25:27.992Z</time></trkpt><trkpt lat="44.97292" lon="8.4211067"><ele>158.0</ele><time>2026-04-25T07:25:28.996Z</time></trkpt><trkpt lat="44.9727933" lon="8.42127"><ele>157.33333333333331</ele><time>2026-04-25T07:25:29.994Z</time></trkpt><trkpt lat="44.9726667" lon="8.4214267"><ele>156.66666666666666</ele><time>2026-04-25T07:25:30.994Z</time></trkpt><trkpt lat="44.97254" lon="8.4215883"><ele>156.0</ele><time>2026-04-25T07:25:31.995Z</time></trkpt><trkpt lat="44.9724117" lon="8.4217517"><ele>156.0</ele><time>2026-04-25T07:25:32.994Z</time></trkpt><trkpt lat="44.9722833" lon="8.421915"><ele>156.0</ele><time>2026-04-25T07:25:33.996Z</time></trkpt><trkpt lat="44.9721567" lon="8.42208"><ele>156.0</ele><time>2026-04-25T07:25:34.996Z</time></trkpt><trkpt lat="44.97203" lon="8.4222467"><ele>155.0</ele><time>2026-04-25T07:25:35.996Z</time></trkpt><trkpt lat="44.9719033" lon="8.42241"><ele>154.0</ele><time>2026-04-25T07:25:37Z</time></trkpt><trkpt lat="44.9717767" lon="8.422575"><ele>153.0</ele><time>2026-04-25T07:25:38Z</time></trkpt><trkpt lat="44.9716467" lon="8.4227383"><ele>153.0</ele><time>2026-04-25T07:25:38.995Z</time></trkpt><trkpt lat="44.9715183" lon="8.4229017"><ele>153.0</ele><time>2026-04-25T07:25:39.998Z</time></trkpt><trkpt lat="44.9713917" lon="8.4230633"><ele>153.0</ele><time>2026-04-25T07:25:40.998Z</time></trkpt><trkpt lat="44.9712617" lon="8.4232283"><ele>155.66666666666666</ele><time>2026-04-25T07:25:41.997Z</time></trkpt><trkpt lat="44.971135" lon="8.4233933"><ele>158.33333333333331</ele><time>2026-04-25T07:25:42.997Z</time></trkpt><trkpt lat="44.9710083" lon="8.4235533"><ele>161.0</ele><time>2026-04-25T07:25:43.998Z</time></trkpt><trkpt lat="44.970885" lon="8.4237133"><ele>160.0</ele><time>2026-04-25T07:25:44.993Z</time></trkpt><trkpt lat="44.970765" lon="8.4238733"><ele>159.0</ele><time>2026-04-25T07:25:45.994Z</time></trkpt><trkpt lat="44.970645" lon="8.4240283"><ele>158.0</ele><time>2026-04-25T07:25:46.995Z</time></trkpt><trkpt lat="44.97053" lon="8.42418"><ele>158.0</ele><time>2026-04-25T07:25:47.994Z</time></trkpt><trkpt lat="44.9704183" lon="8.4243233"><ele>158.0</ele><time>2026-04-25T07:25:48.996Z</time></trkpt><trkpt lat="44.9703133" lon="8.42446"><ele>158.0</ele><time>2026-04-25T07:25:49.991Z</time></trkpt><trkpt lat="44.9702117" lon="8.42459"><ele>158.0</ele><time>2026-04-25T07:25:50.993Z</time></trkpt><trkpt lat="44.9701117" lon="8.42472"><ele>156.5</ele><time>2026-04-25T07:25:51.991Z</time></trkpt><trkpt lat="44.970015" lon="8.424845"><ele>155.0</ele><time>2026-04-25T07:25:52.992Z</time></trkpt><trkpt lat="44.9699233" lon="8.4249633"><ele>153.5</ele><time>2026-04-25T07:25:53.993Z</time></trkpt><trkpt lat="44.9698333" lon="8.4250783"><ele>152.0</ele><time>2026-04-25T07:25:54.997Z</time></trkpt><trkpt lat="44.9697417" lon="8.4251933"><ele>152.0</ele><time>2026-04-25T07:25:55.997Z</time></trkpt><trkpt lat="44.969645" lon="8.4253117"><ele>152.0</ele><time>2026-04-25T07:25:56.992Z</time></trkpt><trkpt lat="44.9695417" lon="8.42543"><ele>152.0</ele><time>2026-04-25T07:25:57.994Z</time></trkpt><trkpt lat="44.969435" lon="8.4255483"><ele>152.0</ele><time>2026-04-25T07:25:58.993Z</time></trkpt><trkpt lat="44.969325" lon="8.4256633"><ele>151.75</ele><time>2026-04-25T07:25:59.994Z</time></trkpt><trkpt lat="44.9692083" lon="8.4257733"><ele>151.5</ele><time>2026-04-25T07:26:00.993Z</time></trkpt><trkpt lat="44.9690883" lon="8.425865"><ele>151.25</ele><time>2026-04-25T07:26:01.997Z</time></trkpt><trkpt lat="44.968965" lon="8.42594"><ele>151.0</ele><time>2026-04-25T07:26:02.994Z</time></trkpt><trkpt lat="44.9688483" lon="8.4260083"><ele>151.0</ele><time>2026-04-25T07:26:03.996Z</time></trkpt><trkpt lat="44.9687317" lon="8.42608"><ele>151.0</ele><time>2026-04-25T07:26:04.993Z</time></trkpt><trkpt lat="44.9686133" lon="8.4261467"><ele>151.0</ele><time>2026-04-25T07:26:05.993Z</time></trkpt><trkpt lat="44.9684967" lon="8.4262133"><ele>151.0</ele><time>2026-04-25T07:26:06.996Z</time></trkpt><trkpt lat="44.9683833" lon="8.4262783"><ele>151.0</ele><time>2026-04-25T07:26:07.996Z</time></trkpt><trkpt lat="44.9682683" lon="8.426345"><ele>151.0</ele><time>2026-04-25T07:26:08.994Z</time></trkpt><trkpt lat="44.9681567" lon="8.426415"><ele>151.0</ele><time>2026-04-25T07:26:09.997Z</time></trkpt><trkpt lat="44.9680433" lon="8.4264783"><ele>151.0</ele><time>2026-04-25T07:26:10.993Z</time></trkpt><trkpt lat="44.96793" lon="8.426545"><ele>151.0</ele><time>2026-04-25T07:26:11.996Z</time></trkpt><trkpt lat="44.9678183" lon="8.426615"><ele>151.0</ele><time>2026-04-25T07:26:12.993Z</time></trkpt><trkpt lat="44.9677017" lon="8.4266833"><ele>151.0</ele><time>2026-04-25T07:26:13.999Z</time></trkpt><trkpt lat="44.9675833" lon="8.4267467"><ele>151.0</ele><time>2026-04-25T07:26:14.997Z</time></trkpt><trkpt lat="44.9674617" lon="8.426805"><ele>151.5</ele><time>2026-04-25T07:26:15.994Z</time></trkpt><trkpt lat="44.967345" lon="8.4268683"><ele>152.0</ele><time>2026-04-25T07:26:16.992Z</time></trkpt><trkpt lat="44.9672317" lon="8.4269383"><ele>152.5</ele><time>2026-04-25T07:26:17.993Z</time></trkpt><trkpt lat="44.9671167" lon="8.4270083"><ele>153.0</ele><time>2026-04-25T07:26:18.992Z</time></trkpt><trkpt lat="44.9670017" lon="8.4270733"><ele>153.0</ele><time>2026-04-25T07:26:19.996Z</time></trkpt><trkpt lat="44.9668867" lon="8.4271433"><ele>153.0</ele><time>2026-04-25T07:26:20.995Z</time></trkpt><trkpt lat="44.9667717" lon="8.4272183"><ele>153.0</ele><time>2026-04-25T07:26:21.997Z</time></trkpt><trkpt lat="44.9666533" lon="8.42729"><ele>153.0</ele><time>2026-04-25T07:26:22.999Z</time></trkpt><trkpt lat="44.96654" lon="8.4273583"><ele>152.5</ele><time>2026-04-25T07:26:24Z</time></trkpt><trkpt lat="44.966425" lon="8.4274283"><ele>152.0</ele><time>2026-04-25T07:26:24.995Z</time></trkpt><trkpt lat="44.96631" lon="8.427495"><ele>151.5</ele><time>2026-04-25T07:26:25.995Z</time></trkpt><trkpt lat="44.9661983" lon="8.427555"><ele>151.0</ele><time>2026-04-25T07:26:26.996Z</time></trkpt><trkpt lat="44.9660817" lon="8.427615"><ele>151.0</ele><time>2026-04-25T07:26:28Z</time></trkpt><trkpt lat="44.965965" lon="8.42768"><ele>151.0</ele><time>2026-04-25T07:26:28.993Z</time></trkpt><trkpt lat="44.965845" lon="8.427745"><ele>151.0</ele><time>2026-04-25T07:26:29.994Z</time></trkpt><trkpt lat="44.9657267" lon="8.4278133"><ele>151.0</ele><time>2026-04-25T07:26:30.997Z</time></trkpt><trkpt lat="44.9656083" lon="8.427885"><ele>151.5</ele><time>2026-04-25T07:26:31.993Z</time></trkpt><trkpt lat="44.96549" lon="8.4279617"><ele>152.0</ele><time>2026-04-25T07:26:33Z</time></trkpt><trkpt lat="44.9653683" lon="8.4280283"><ele>152.5</ele><time>2026-04-25T07:26:33.995Z</time></trkpt><trkpt lat="44.96525" lon="8.4281"><ele>153.0</ele><time>2026-04-25T07:26:34.992Z</time></trkpt><trkpt lat="44.96513" lon="8.4281733"><ele>152.5</ele><time>2026-04-25T07:26:35.993Z</time></trkpt><trkpt lat="44.9650083" lon="8.42825"><ele>152.0</ele><time>2026-04-25T07:26:36.995Z</time></trkpt><trkpt lat="44.964885" lon="8.4283217"><ele>151.5</ele><time>2026-04-25T07:26:37.993Z</time></trkpt><trkpt lat="44.96476" lon="8.4283917"><ele>151.0</ele><time>2026-04-25T07:26:38.999Z</time></trkpt><trkpt lat="44.96463" lon="8.42845"><ele>151.0</ele><time>2026-04-25T07:26:39.995Z</time></trkpt><trkpt lat="44.9645033" lon="8.4285233"><ele>151.0</ele><time>2026-04-25T07:26:40.996Z</time></trkpt><trkpt lat="44.964375" lon="8.4285967"><ele>151.0</ele><time>2026-04-25T07:26:41.999Z</time></trkpt><trkpt lat="44.9642533" lon="8.4286783"><ele>151.0</ele><time>2026-04-25T07:26:42.994Z</time></trkpt><trkpt lat="44.9641333" lon="8.4287567"><ele>150.5</ele><time>2026-04-25T07:26:43.995Z</time></trkpt><trkpt lat="44.9640117" lon="8.428825"><ele>150.0</ele><time>2026-04-25T07:26:44.998Z</time></trkpt><trkpt lat="44.9638867" lon="8.4288933"><ele>149.5</ele><time>2026-04-25T07:26:46Z</time></trkpt><trkpt lat="44.9637617" lon="8.4289633"><ele>149.0</ele><time>2026-04-25T07:26:46.996Z</time></trkpt><trkpt lat="44.96364" lon="8.4290217"><ele>149.0</ele><time>2026-04-25T07:26:47.995Z</time></trkpt><trkpt lat="44.9635117" lon="8.4290783"><ele>149.0</ele><time>2026-04-25T07:26:48.994Z</time></trkpt><trkpt lat="44.9633883" lon="8.4291333"><ele>149.0</ele><time>2026-04-25T07:26:49.994Z</time></trkpt><trkpt lat="44.9632683" lon="8.4291917"><ele>149.0</ele><time>2026-04-25T07:26:50.993Z</time></trkpt><trkpt lat="44.96315" lon="8.4292267"><ele>149.5</ele><time>2026-04-25T07:26:51.996Z</time></trkpt><trkpt lat="44.9630283" lon="8.4292667"><ele>150.0</ele><time>2026-04-25T07:26:52.995Z</time></trkpt><trkpt lat="44.9629083" lon="8.4293067"><ele>150.5</ele><time>2026-04-25T07:26:53.993Z</time></trkpt><trkpt lat="44.9627867" lon="8.429335"><ele>151.0</ele><time>2026-04-25T07:26:54.994Z</time></trkpt><trkpt lat="44.962665" lon="8.4293633"><ele>151.0</ele><time>2026-04-25T07:26:55.997Z</time></trkpt><trkpt lat="44.9625383" lon="8.429395"><ele>151.0</ele><time>2026-04-25T07:26:56.998Z</time></trkpt><trkpt lat="44.9624133" lon="8.4294183"><ele>151.0</ele><time>2026-04-25T07:26:57.997Z</time></trkpt><trkpt lat="44.96229" lon="8.4294417"><ele>151.0</ele><time>2026-04-25T07:26:58.997Z</time></trkpt><trkpt lat="44.96217" lon="8.4294617"><ele>151.4</ele><time>2026-04-25T07:27:00.008Z</time></trkpt><trkpt lat="44.962055" lon="8.4294767"><ele>151.8</ele><time>2026-04-25T07:27:00.997Z</time></trkpt><trkpt lat="44.9619417" lon="8.4294917"><ele>152.20000000000002</ele><time>2026-04-25T07:27:01.999Z</time></trkpt><trkpt lat="44.9618367" lon="8.4295033"><ele>152.6</ele><time>2026-04-25T07:27:03.006Z</time></trkpt><trkpt lat="44.9617417" lon="8.4295183"><ele>153.0</ele><time>2026-04-25T07:27:03.993Z</time></trkpt><trkpt lat="44.9616583" lon="8.4295233"><ele>153.33333333333334</ele><time>2026-04-25T07:27:04.995Z</time></trkpt><trkpt lat="44.9615833" lon="8.4295317"><ele>153.66666666666666</ele><time>2026-04-25T07:27:05.997Z</time></trkpt><trkpt lat="44.96151" lon="8.4295333"><ele>154.0</ele><time>2026-04-25T07:27:06.998Z</time></trkpt><trkpt lat="44.9614367" lon="8.4295317"><ele>154.33333333333331</ele><time>2026-04-25T07:27:07.997Z</time></trkpt><trkpt lat="44.9613483" lon="8.4295317"><ele>154.66666666666666</ele><time>2026-04-25T07:27:08.998Z</time></trkpt><trkpt lat="44.9612567" lon="8.4295217"><ele>155.0</ele><time>2026-04-25T07:27:09.998Z</time></trkpt><trkpt lat="44.96116" lon="8.4295167"><ele>155.0</ele><time>2026-04-25T07:27:10.997Z</time></trkpt><trkpt lat="44.9610667" lon="8.429515"><ele>155.0</ele><time>2026-04-25T07:27:12Z</time></trkpt><trkpt lat="44.9609917" lon="8.4294983"><ele>155.0</ele><time>2026-04-25T07:27:12.996Z</time></trkpt><trkpt lat="44.9609083" lon="8.42951"><ele>155.0</ele><time>2026-04-25T07:27:13.996Z</time></trkpt><trkpt lat="44.9608133" lon="8.429545"><ele>155.0</ele><time>2026-04-25T07:27:14.999Z</time></trkpt><trkpt lat="44.9607167" lon="8.4295833"><ele>154.0</ele><time>2026-04-25T07:27:16.002Z</time></trkpt><trkpt lat="44.96062" lon="8.4296317"><ele>153.0</ele><time>2026-04-25T07:27:16.992Z</time></trkpt><trkpt lat="44.9605217" lon="8.42968"><ele>152.0</ele><time>2026-04-25T07:27:17.994Z</time></trkpt><trkpt lat="44.960415" lon="8.4297283"><ele>151.0</ele><time>2026-04-25T07:27:18.994Z</time></trkpt><trkpt lat="44.960305" lon="8.4297783"><ele>150.0</ele><time>2026-04-25T07:27:19.999Z</time></trkpt><trkpt lat="44.9601867" lon="8.4298183"><ele>149.8</ele><time>2026-04-25T07:27:20.997Z</time></trkpt><trkpt lat="44.9600733" lon="8.4298567"><ele>149.6</ele><time>2026-04-25T07:27:21.999Z</time></trkpt><trkpt lat="44.9599683" lon="8.429895"><ele>149.4</ele><time>2026-04-25T07:27:22.995Z</time></trkpt><trkpt lat="44.9598617" lon="8.4299333"><ele>149.2</ele><time>2026-04-25T07:27:23.998Z</time></trkpt><trkpt lat="44.9597583" lon="8.4299767"><ele>149.0</ele><time>2026-04-25T07:27:24.995Z</time></trkpt><trkpt lat="44.9596583" lon="8.4300133"><ele>149.0</ele><time>2026-04-25T07:27:25.993Z</time></trkpt><trkpt lat="44.959555" lon="8.4300583"><ele>149.0</ele><time>2026-04-25T07:27:26.996Z</time></trkpt><trkpt lat="44.95945" lon="8.4301017"><ele>149.0</ele><time>2026-04-25T07:27:27.995Z</time></trkpt><trkpt lat="44.9593467" lon="8.4301483"><ele>149.0</ele><time>2026-04-25T07:27:28.993Z</time></trkpt><trkpt lat="44.95925" lon="8.4301867"><ele>149.0</ele><time>2026-04-25T07:27:29.992Z</time></trkpt><trkpt lat="44.9591517" lon="8.43023"><ele>148.6</ele><time>2026-04-25T07:27:31.005Z</time></trkpt><trkpt lat="44.9590517" lon="8.430265"><ele>148.2</ele><time>2026-04-25T07:27:31.994Z</time></trkpt><trkpt lat="44.9589433" lon="8.4303017"><ele>147.79999999999998</ele><time>2026-04-25T07:27:32.997Z</time></trkpt><trkpt lat="44.9588283" lon="8.4303283"><ele>147.4</ele><time>2026-04-25T07:27:33.997Z</time></trkpt><trkpt lat="44.9587167" lon="8.4303667"><ele>147.0</ele><time>2026-04-25T07:27:34.999Z</time></trkpt><trkpt lat="44.9586017" lon="8.4304067"><ele>147.0</ele><time>2026-04-25T07:27:35.995Z</time></trkpt><trkpt lat="44.9584867" lon="8.4304483"><ele>147.0</ele><time>2026-04-25T07:27:36.992Z</time></trkpt><trkpt lat="44.9583683" lon="8.4304967"><ele>147.0</ele><time>2026-04-25T07:27:37.994Z</time></trkpt><trkpt lat="44.9582467" lon="8.4305433"><ele>147.0</ele><time>2026-04-25T07:27:39Z</time></trkpt><trkpt lat="44.95813" lon="8.4305883"><ele>147.0</ele><time>2026-04-25T07:27:39.994Z</time></trkpt><trkpt lat="44.958015" lon="8.4306317"><ele>147.0</ele><time>2026-04-25T07:27:40.995Z</time></trkpt><trkpt lat="44.9578917" lon="8.4306767"><ele>147.0</ele><time>2026-04-25T07:27:41.995Z</time></trkpt><trkpt lat="44.957765" lon="8.4307233"><ele>147.0</ele><time>2026-04-25T07:27:42.993Z</time></trkpt><trkpt lat="44.9576367" lon="8.43077"><ele>146.5</ele><time>2026-04-25T07:27:43.997Z</time></trkpt><trkpt lat="44.9575133" lon="8.4308167"><ele>146.0</ele><time>2026-04-25T07:27:44.994Z</time></trkpt><trkpt lat="44.9573967" lon="8.4308667"><ele>145.5</ele><time>2026-04-25T07:27:45.992Z</time></trkpt><trkpt lat="44.95728" lon="8.4309133"><ele>145.0</ele><time>2026-04-25T07:27:46.997Z</time></trkpt><trkpt lat="44.9571633" lon="8.43096"><ele>145.0</ele><time>2026-04-25T07:27:47.998Z</time></trkpt><trkpt lat="44.9570433" lon="8.4310083"><ele>145.0</ele><time>2026-04-25T07:27:48.996Z</time></trkpt><trkpt lat="44.95692" lon="8.4310567"><ele>145.0</ele><time>2026-04-25T07:27:50.003Z</time></trkpt><trkpt lat="44.9567933" lon="8.43111"><ele>145.0</ele><time>2026-04-25T07:27:50.995Z</time></trkpt><trkpt lat="44.9566667" lon="8.431165"><ele>144.75</ele><time>2026-04-25T07:27:51.993Z</time></trkpt><trkpt lat="44.9565417" lon="8.4312217"><ele>144.5</ele><time>2026-04-25T07:27:52.994Z</time></trkpt><trkpt lat="44.9564183" lon="8.43128"><ele>144.25</ele><time>2026-04-25T07:27:53.999Z</time></trkpt><trkpt lat="44.9562917" lon="8.4313417"><ele>144.0</ele><time>2026-04-25T07:27:54.993Z</time></trkpt><trkpt lat="44.9561633" lon="8.4314117"><ele>143.75</ele><time>2026-04-25T07:27:55.994Z</time></trkpt><trkpt lat="44.9560317" lon="8.4314867"><ele>143.5</ele><time>2026-04-25T07:27:56.995Z</time></trkpt><trkpt lat="44.9558967" lon="8.4315667"><ele>143.25</ele><time>2026-04-25T07:27:57.995Z</time></trkpt><trkpt lat="44.955765" lon="8.4316533"><ele>143.0</ele><time>2026-04-25T07:27:59Z</time></trkpt><trkpt lat="44.9556383" lon="8.431745"><ele>142.75</ele><time>2026-04-25T07:27:59.992Z</time></trkpt><trkpt lat="44.9555167" lon="8.43184"><ele>142.5</ele><time>2026-04-25T07:28:00.992Z</time></trkpt><trkpt lat="44.955395" lon="8.4319367"><ele>142.25</ele><time>2026-04-25T07:28:01.996Z</time></trkpt><trkpt lat="44.955275" lon="8.4320383"><ele>142.0</ele><time>2026-04-25T07:28:02.995Z</time></trkpt><trkpt lat="44.9551483" lon="8.4321467"><ele>141.33333333333334</ele><time>2026-04-25T07:28:03.998Z</time></trkpt><trkpt lat="44.95502" lon="8.4322617"><ele>140.66666666666666</ele><time>2026-04-25T07:28:04.995Z</time></trkpt><trkpt lat="44.954885" lon="8.4323933"><ele>140.0</ele><time>2026-04-25T07:28:05.993Z</time></trkpt><trkpt lat="44.9547417" lon="8.4325283"><ele>140.0</ele><time>2026-04-25T07:28:06.996Z</time></trkpt><trkpt lat="44.9546" lon="8.4326633"><ele>140.0</ele><time>2026-04-25T07:28:07.999Z</time></trkpt><trkpt lat="44.9544633" lon="8.4327917"><ele>140.0</ele><time>2026-04-25T07:28:09.001Z</time></trkpt><trkpt lat="44.95433" lon="8.432915"><ele>140.66666666666666</ele><time>2026-04-25T07:28:09.992Z</time></trkpt><trkpt lat="44.9542" lon="8.4330333"><ele>141.33333333333334</ele><time>2026-04-25T07:28:10.993Z</time></trkpt><trkpt lat="44.9540683" lon="8.4331467"><ele>142.0</ele><time>2026-04-25T07:28:11.993Z</time></trkpt><trkpt lat="44.953935" lon="8.43326"><ele>142.0</ele><time>2026-04-25T07:28:12.993Z</time></trkpt><trkpt lat="44.9538" lon="8.433375"><ele>142.0</ele><time>2026-04-25T07:28:13.992Z</time></trkpt><trkpt lat="44.9536617" lon="8.43349"><ele>142.0</ele><time>2026-04-25T07:28:14.995Z</time></trkpt><trkpt lat="44.9535233" lon="8.4336067"><ele>142.0</ele><time>2026-04-25T07:28:15.999Z</time></trkpt><trkpt lat="44.9533833" lon="8.43372"><ele>142.0</ele><time>2026-04-25T07:28:16.993Z</time></trkpt><trkpt lat="44.9532517" lon="8.43383"><ele>142.0</ele><time>2026-04-25T07:28:17.996Z</time></trkpt><trkpt lat="44.9531283" lon="8.43393"><ele>141.0</ele><time>2026-04-25T07:28:18.995Z</time></trkpt><trkpt lat="44.9530067" lon="8.4340283"><ele>140.0</ele><time>2026-04-25T07:28:20.001Z</time></trkpt><trkpt lat="44.952885" lon="8.434125"><ele>139.0</ele><time>2026-04-25T07:28:21.001Z</time></trkpt><trkpt lat="44.9527667" lon="8.4342283"><ele>138.0</ele><time>2026-04-25T07:28:21.995Z</time></trkpt><trkpt lat="44.952655" lon="8.43434"><ele>138.0</ele><time>2026-04-25T07:28:23Z</time></trkpt><trkpt lat="44.9525483" lon="8.434465"><ele>138.0</ele><time>2026-04-25T07:28:23.996Z</time></trkpt><trkpt lat="44.952445" lon="8.4346067"><ele>138.0</ele><time>2026-04-25T07:28:24.995Z</time></trkpt><trkpt lat="44.9523467" lon="8.434765"><ele>138.0</ele><time>2026-04-25T07:28:25.994Z</time></trkpt><trkpt lat="44.9522467" lon="8.4349433"><ele>138.33333333333334</ele><time>2026-04-25T07:28:26.994Z</time></trkpt><trkpt lat="44.9521483" lon="8.435135"><ele>138.66666666666669</ele><time>2026-04-25T07:28:27.995Z</time></trkpt><trkpt lat="44.952045" lon="8.43533"><ele>139.0</ele><time>2026-04-25T07:28:28.996Z</time></trkpt><trkpt lat="44.9519417" lon="8.435535"><ele>139.0</ele><time>2026-04-25T07:28:29.998Z</time></trkpt><trkpt lat="44.951835" lon="8.4357433"><ele>139.0</ele><time>2026-04-25T07:28:30.998Z</time></trkpt><trkpt lat="44.9517283" lon="8.43595"><ele>139.0</ele><time>2026-04-25T07:28:31.997Z</time></trkpt><trkpt lat="44.9516183" lon="8.436155"><ele>139.66666666666669</ele><time>2026-04-25T07:28:32.995Z</time></trkpt><trkpt lat="44.951515" lon="8.4363533"><ele>140.33333333333334</ele><time>2026-04-25T07:28:33.999Z</time></trkpt><trkpt lat="44.9514133" lon="8.4365533"><ele>141.0</ele><time>2026-04-25T07:28:34.993Z</time></trkpt><trkpt lat="44.95131" lon="8.4367617"><ele>141.0</ele><time>2026-04-25T07:28:35.996Z</time></trkpt><trkpt lat="44.9512067" lon="8.4369733"><ele>141.0</ele><time>2026-04-25T07:28:36.998Z</time></trkpt><trkpt lat="44.9511033" lon="8.4371767"><ele>141.0</ele><time>2026-04-25T07:28:37.997Z</time></trkpt><trkpt lat="44.9509983" lon="8.437375"><ele>140.0</ele><time>2026-04-25T07:28:38.996Z</time></trkpt><trkpt lat="44.950895" lon="8.4375733"><ele>139.0</ele><time>2026-04-25T07:28:39.998Z</time></trkpt><trkpt lat="44.9507917" lon="8.43777"><ele>138.0</ele><time>2026-04-25T07:28:40.996Z</time></trkpt><trkpt lat="44.9506917" lon="8.437965"><ele>137.33333333333334</ele><time>2026-04-25T07:28:41.995Z</time></trkpt><trkpt lat="44.9505917" lon="8.438165"><ele>136.66666666666669</ele><time>2026-04-25T07:28:43Z</time></trkpt><trkpt lat="44.95049" lon="8.4383683"><ele>136.0</ele><time>2026-04-25T07:28:43.997Z</time></trkpt><trkpt lat="44.9503867" lon="8.4385717"><ele>136.0</ele><time>2026-04-25T07:28:44.994Z</time></trkpt><trkpt lat="44.9502833" lon="8.4387767"><ele>136.0</ele><time>2026-04-25T07:28:45.997Z</time></trkpt><trkpt lat="44.9501767" lon="8.4389817"><ele>136.0</ele><time>2026-04-25T07:28:47.002Z</time></trkpt><trkpt lat="44.95007" lon="8.43919"><ele>135.66666666666669</ele><time>2026-04-25T07:28:47.996Z</time></trkpt><trkpt lat="44.9499617" lon="8.4394017"><ele>135.33333333333334</ele><time>2026-04-25T07:28:48.997Z</time></trkpt><trkpt lat="44.94985" lon="8.4396083"><ele>135.0</ele><time>2026-04-25T07:28:49.995Z</time></trkpt><trkpt lat="44.94974" lon="8.4398183"><ele>135.66666666666666</ele><time>2026-04-25T07:28:50.994Z</time></trkpt><trkpt lat="44.9496333" lon="8.4400267"><ele>136.33333333333331</ele><time>2026-04-25T07:28:51.998Z</time></trkpt><trkpt lat="44.9495317" lon="8.44023"><ele>137.0</ele><time>2026-04-25T07:28:52.996Z</time></trkpt><trkpt lat="44.9494317" lon="8.4404317"><ele>137.0</ele><time>2026-04-25T07:28:53.996Z</time></trkpt><trkpt lat="44.9493317" lon="8.4406283"><ele>137.0</ele><time>2026-04-25T07:28:54.993Z</time></trkpt><trkpt lat="44.9492283" lon="8.440825"><ele>137.0</ele><time>2026-04-25T07:28:55.996Z</time></trkpt><trkpt lat="44.949125" lon="8.441025"><ele>136.66666666666666</ele><time>2026-04-25T07:28:56.999Z</time></trkpt><trkpt lat="44.9490233" lon="8.4412333"><ele>136.33333333333334</ele><time>2026-04-25T07:28:57.995Z</time></trkpt><trkpt lat="44.9489367" lon="8.4414567"><ele>136.0</ele><time>2026-04-25T07:28:58.994Z</time></trkpt><trkpt lat="44.9488667" lon="8.4416967"><ele>136.0</ele><time>2026-04-25T07:29:00.005Z</time></trkpt><trkpt lat="44.9488233" lon="8.4419683"><ele>136.0</ele><time>2026-04-25T07:29:00.996Z</time></trkpt><trkpt lat="44.9487967" lon="8.4422533"><ele>136.0</ele><time>2026-04-25T07:29:02.004Z</time></trkpt><trkpt lat="44.94878" lon="8.44255"><ele>136.33333333333334</ele><time>2026-04-25T07:29:03.001Z</time></trkpt><trkpt lat="44.9487617" lon="8.44285"><ele>136.66666666666666</ele><time>2026-04-25T07:29:04.001Z</time></trkpt><trkpt lat="44.948745" lon="8.443155"><ele>137.0</ele><time>2026-04-25T07:29:05Z</time></trkpt><trkpt lat="44.9487267" lon="8.4434633"><ele>137.0</ele><time>2026-04-25T07:29:06.001Z</time></trkpt><trkpt lat="44.948705" lon="8.443765"><ele>137.0</ele><time>2026-04-25T07:29:06.997Z</time></trkpt><trkpt lat="44.9486817" lon="8.4440683"><ele>137.0</ele><time>2026-04-25T07:29:07.999Z</time></trkpt><trkpt lat="44.94866" lon="8.44437"><ele>135.0</ele><time>2026-04-25T07:29:08.992Z</time></trkpt><trkpt lat="44.9486367" lon="8.4446667"><ele>133.0</ele><time>2026-04-25T07:29:09.997Z</time></trkpt><trkpt lat="44.948615" lon="8.4449633"><ele>131.0</ele><time>2026-04-25T07:29:10.993Z</time></trkpt><trkpt lat="44.9485933" lon="8.445255"><ele>131.33333333333331</ele><time>2026-04-25T07:29:11.997Z</time></trkpt><trkpt lat="44.94857" lon="8.4455417"><ele>131.66666666666666</ele><time>2026-04-25T07:29:12.999Z</time></trkpt><trkpt lat="44.948545" lon="8.4458367"><ele>132.0</ele><time>2026-04-25T07:29:14.001Z</time></trkpt><trkpt lat="44.9485217" lon="8.4461467"><ele>131.33333333333334</ele><time>2026-04-25T07:29:14.996Z</time></trkpt><trkpt lat="44.9484967" lon="8.4464633"><ele>130.66666666666669</ele><time>2026-04-25T07:29:15.993Z</time></trkpt><trkpt lat="44.94847" lon="8.4467767"><ele>130.0</ele><time>2026-04-25T07:29:17.001Z</time></trkpt><trkpt lat="44.9484433" lon="8.4470883"><ele>130.0</ele><time>2026-04-25T07:29:17.996Z</time></trkpt><trkpt lat="44.9484183" lon="8.4473933"><ele>130.0</ele><time>2026-04-25T07:29:18.997Z</time></trkpt><trkpt lat="44.9483917" lon="8.4476933"><ele>130.0</ele><time>2026-04-25T07:29:19.996Z</time></trkpt><trkpt lat="44.948365" lon="8.4479967"><ele>130.66666666666669</ele><time>2026-04-25T07:29:21.001Z</time></trkpt><trkpt lat="44.9483417" lon="8.4482967"><ele>131.33333333333334</ele><time>2026-04-25T07:29:21.996Z</time></trkpt><trkpt lat="44.9483167" lon="8.4485933"><ele>132.0</ele><time>2026-04-25T07:29:23.001Z</time></trkpt><trkpt lat="44.94829" lon="8.4488917"><ele>132.0</ele><time>2026-04-25T07:29:23.999Z</time></trkpt><trkpt lat="44.94827" lon="8.4491867"><ele>132.0</ele><time>2026-04-25T07:29:24.998Z</time></trkpt><trkpt lat="44.94825" lon="8.44948"><ele>132.0</ele><time>2026-04-25T07:29:25.997Z</time></trkpt><trkpt lat="44.9482283" lon="8.4497733"><ele>131.66666666666666</ele><time>2026-04-25T07:29:26.997Z</time></trkpt><trkpt lat="44.9482067" lon="8.450065"><ele>131.33333333333331</ele><time>2026-04-25T07:29:27.996Z</time></trkpt><trkpt lat="44.948185" lon="8.4503567"><ele>131.0</ele><time>2026-04-25T07:29:28.994Z</time></trkpt><trkpt lat="44.9481617" lon="8.4506483"><ele>131.0</ele><time>2026-04-25T07:29:29.995Z</time></trkpt><trkpt lat="44.9481383" lon="8.4509483"><ele>131.0</ele><time>2026-04-25T07:29:30.999Z</time></trkpt><trkpt lat="44.9481133" lon="8.4512533"><ele>131.0</ele><time>2026-04-25T07:29:31.996Z</time></trkpt><trkpt lat="44.9480867" lon="8.4515583"><ele>131.33333333333331</ele><time>2026-04-25T07:29:32.995Z</time></trkpt><trkpt lat="44.9480617" lon="8.4518683"><ele>131.66666666666666</ele><time>2026-04-25T07:29:33.997Z</time></trkpt><trkpt lat="44.9480367" lon="8.452185"><ele>132.0</ele><time>2026-04-25T07:29:34.995Z</time></trkpt><trkpt lat="44.94801" lon="8.4525033"><ele>132.0</ele><time>2026-04-25T07:29:35.997Z</time></trkpt><trkpt lat="44.9479867" lon="8.4528167"><ele>132.0</ele><time>2026-04-25T07:29:36.992Z</time></trkpt><trkpt lat="44.9479633" lon="8.45313"><ele>132.0</ele><time>2026-04-25T07:29:37.994Z</time></trkpt><trkpt lat="44.9479367" lon="8.453445"><ele>132.0</ele><time>2026-04-25T07:29:38.995Z</time></trkpt><trkpt lat="44.94791" lon="8.4537617"><ele>132.0</ele><time>2026-04-25T07:29:39.996Z</time></trkpt><trkpt lat="44.9478883" lon="8.454075"><ele>132.0</ele><time>2026-04-25T07:29:40.995Z</time></trkpt><trkpt lat="44.947865" lon="8.4543867"><ele>132.33333333333334</ele><time>2026-04-25T07:29:41.993Z</time></trkpt><trkpt lat="44.9478433" lon="8.4546967"><ele>132.66666666666669</ele><time>2026-04-25T07:29:42.996Z</time></trkpt><trkpt lat="44.9478217" lon="8.4550017"><ele>133.0</ele><time>2026-04-25T07:29:43.999Z</time></trkpt><trkpt lat="44.9477983" lon="8.455305"><ele>132.33333333333334</ele><time>2026-04-25T07:29:44.998Z</time></trkpt><trkpt lat="44.947775" lon="8.4556067"><ele>131.66666666666666</ele><time>2026-04-25T07:29:45.995Z</time></trkpt><trkpt lat="44.9477583" lon="8.4559"><ele>131.0</ele><time>2026-04-25T07:29:46.996Z</time></trkpt><trkpt lat="44.9477333" lon="8.4561983"><ele>129.33333333333331</ele><time>2026-04-25T07:29:47.996Z</time></trkpt><trkpt lat="44.94772" lon="8.45649"><ele>127.66666666666666</ele><time>2026-04-25T07:29:48.998Z</time></trkpt><trkpt lat="44.9476983" lon="8.4567867"><ele>126.0</ele><time>2026-04-25T07:29:49.999Z</time></trkpt><trkpt lat="44.9476733" lon="8.4570833"><ele>126.0</ele><time>2026-04-25T07:29:50.994Z</time></trkpt><trkpt lat="44.9476467" lon="8.4573817"><ele>126.0</ele><time>2026-04-25T07:29:51.998Z</time></trkpt><trkpt lat="44.9476217" lon="8.4576767"><ele>126.0</ele><time>2026-04-25T07:29:52.997Z</time></trkpt><trkpt lat="44.9476" lon="8.45797"><ele>126.0</ele><time>2026-04-25T07:29:53.998Z</time></trkpt><trkpt lat="44.9475767" lon="8.4582633"><ele>126.0</ele><time>2026-04-25T07:29:54.997Z</time></trkpt><trkpt lat="44.9475517" lon="8.4585583"><ele>126.0</ele><time>2026-04-25T07:29:55.996Z</time></trkpt><trkpt lat="44.94753" lon="8.4588517"><ele>126.0</ele><time>2026-04-25T07:29:56.994Z</time></trkpt><trkpt lat="44.9475083" lon="8.4591467"><ele>126.0</ele><time>2026-04-25T07:29:57.994Z</time></trkpt><trkpt lat="44.947485" lon="8.45944"><ele>126.0</ele><time>2026-04-25T07:29:58.995Z</time></trkpt><trkpt lat="44.947465" lon="8.4597283"><ele>126.66666666666666</ele><time>2026-04-25T07:29:59.995Z</time></trkpt><trkpt lat="44.947445" lon="8.4600117"><ele>127.33333333333333</ele><time>2026-04-25T07:30:00.995Z</time></trkpt><trkpt lat="44.9474283" lon="8.4602833"><ele>128.0</ele><time>2026-04-25T07:30:01.999Z</time></trkpt><trkpt lat="44.9474067" lon="8.4605533"><ele>128.0</ele><time>2026-04-25T07:30:03Z</time></trkpt><trkpt lat="44.9473817" lon="8.4608283"><ele>128.0</ele><time>2026-04-25T07:30:04.004Z</time></trkpt><trkpt lat="44.94736" lon="8.461105"><ele>128.0</ele><time>2026-04-25T07:30:04.999Z</time></trkpt><trkpt lat="44.9473383" lon="8.4613817"><ele>128.0</ele><time>2026-04-25T07:30:05.994Z</time></trkpt><trkpt lat="44.947315" lon="8.4616583"><ele>128.0</ele><time>2026-04-25T07:30:06.999Z</time></trkpt><trkpt lat="44.9472933" lon="8.4619317"><ele>128.0</ele><time>2026-04-25T07:30:08.001Z</time></trkpt><trkpt lat="44.94727" lon="8.4622067"><ele>128.33333333333331</ele><time>2026-04-25T07:30:08.997Z</time></trkpt><trkpt lat="44.9472483" lon="8.4624767"><ele>128.66666666666666</ele><time>2026-04-25T07:30:10Z</time></trkpt><trkpt lat="44.9472283" lon="8.462745"><ele>129.0</ele><time>2026-04-25T07:30:10.995Z</time></trkpt><trkpt lat="44.9472083" lon="8.4630133"><ele>129.0</ele><time>2026-04-25T07:30:11.997Z</time></trkpt><trkpt lat="44.9471883" lon="8.4632833"><ele>129.0</ele><time>2026-04-25T07:30:12.996Z</time></trkpt><trkpt lat="44.9471667" lon="8.4635617"><ele>129.0</ele><time>2026-04-25T07:30:13.993Z</time></trkpt><trkpt lat="44.947145" lon="8.4638483"><ele>129.0</ele><time>2026-04-25T07:30:14.994Z</time></trkpt><trkpt lat="44.9471233" lon="8.4641417"><ele>129.0</ele><time>2026-04-25T07:30:16.001Z</time></trkpt><trkpt lat="44.9470983" lon="8.464445"><ele>129.0</ele><time>2026-04-25T07:30:16.993Z</time></trkpt><trkpt lat="44.9470733" lon="8.4647533"><ele>128.66666666666666</ele><time>2026-04-25T07:30:17.995Z</time></trkpt><trkpt lat="44.94705" lon="8.4650667"><ele>128.33333333333331</ele><time>2026-04-25T07:30:19.002Z</time></trkpt><trkpt lat="44.947025" lon="8.4653817"><ele>128.0</ele><time>2026-04-25T07:30:19.994Z</time></trkpt><trkpt lat="44.9469983" lon="8.465695"><ele>127.5</ele><time>2026-04-25T07:30:20.996Z</time></trkpt><trkpt lat="44.9469717" lon="8.4660167"><ele>127.0</ele><time>2026-04-25T07:30:21.998Z</time></trkpt><trkpt lat="44.9469467" lon="8.4663367"><ele>126.0</ele><time>2026-04-25T07:30:22.992Z</time></trkpt><trkpt lat="44.9469233" lon="8.4666567"><ele>125.0</ele><time>2026-04-25T07:30:23.996Z</time></trkpt><trkpt lat="44.9469" lon="8.466975"><ele>125.0</ele><time>2026-04-25T07:30:24.998Z</time></trkpt><trkpt lat="44.9468767" lon="8.4672917"><ele>125.0</ele><time>2026-04-25T07:30:25.996Z</time></trkpt><trkpt lat="44.946855" lon="8.467605"><ele>125.0</ele><time>2026-04-25T07:30:26.997Z</time></trkpt><trkpt lat="44.9468333" lon="8.4679167"><ele>125.0</ele><time>2026-04-25T07:30:27.997Z</time></trkpt><trkpt lat="44.9468117" lon="8.4682233"><ele>125.0</ele><time>2026-04-25T07:30:28.994Z</time></trkpt><trkpt lat="44.9467917" lon="8.468525"><ele>125.0</ele><time>2026-04-25T07:30:29.999Z</time></trkpt><trkpt lat="44.9467667" lon="8.4688317"><ele>125.0</ele><time>2026-04-25T07:30:30.995Z</time></trkpt><trkpt lat="44.9467433" lon="8.4691317"><ele>125.0</ele><time>2026-04-25T07:30:31.992Z</time></trkpt><trkpt lat="44.9467183" lon="8.4694283"><ele>125.0</ele><time>2026-04-25T07:30:32.995Z</time></trkpt><trkpt lat="44.9466967" lon="8.4697167"><ele>125.33333333333333</ele><time>2026-04-25T07:30:33.996Z</time></trkpt><trkpt lat="44.946675" lon="8.4700017"><ele>125.66666666666666</ele><time>2026-04-25T07:30:34.996Z</time></trkpt><trkpt lat="44.946655" lon="8.4702783"><ele>126.0</ele><time>2026-04-25T07:30:36Z</time></trkpt><trkpt lat="44.946635" lon="8.47055"><ele>126.0</ele><time>2026-04-25T07:30:36.999Z</time></trkpt><trkpt lat="44.9466133" lon="8.470825"><ele>126.0</ele><time>2026-04-25T07:30:37.996Z</time></trkpt><trkpt lat="44.9465917" lon="8.4711017"><ele>126.0</ele><time>2026-04-25T07:30:38.994Z</time></trkpt><trkpt lat="44.9465683" lon="8.4713817"><ele>126.0</ele><time>2026-04-25T07:30:39.994Z</time></trkpt><trkpt lat="44.9465467" lon="8.4716583"><ele>126.0</ele><time>2026-04-25T07:30:41Z</time></trkpt><trkpt lat="44.946525" lon="8.4719317"><ele>126.0</ele><time>2026-04-25T07:30:41.998Z</time></trkpt><trkpt lat="44.9465067" lon="8.4722033"><ele>125.33333333333334</ele><time>2026-04-25T07:30:42.999Z</time></trkpt><trkpt lat="44.9464867" lon="8.4724733"><ele>124.66666666666667</ele><time>2026-04-25T07:30:44Z</time></trkpt><trkpt lat="44.94647" lon="8.4727433"><ele>124.0</ele><time>2026-04-25T07:30:44.998Z</time></trkpt><trkpt lat="44.9464517" lon="8.4730117"><ele>124.0</ele><time>2026-04-25T07:30:45.997Z</time></trkpt><trkpt lat="44.9464333" lon="8.47328"><ele>124.0</ele><time>2026-04-25T07:30:46.998Z</time></trkpt><trkpt lat="44.946415" lon="8.4735433"><ele>124.0</ele><time>2026-04-25T07:30:48.001Z</time></trkpt><trkpt lat="44.9463933" lon="8.47381"><ele>124.33333333333334</ele><time>2026-04-25T07:30:48.997Z</time></trkpt><trkpt lat="44.9463683" lon="8.47408"><ele>124.66666666666666</ele><time>2026-04-25T07:30:50Z</time></trkpt><trkpt lat="44.9463467" lon="8.4743467"><ele>125.0</ele><time>2026-04-25T07:30:50.996Z</time></trkpt><trkpt lat="44.946325" lon="8.4746133"><ele>125.0</ele><time>2026-04-25T07:30:51.999Z</time></trkpt><trkpt lat="44.946305" lon="8.4748867"><ele>125.0</ele><time>2026-04-25T07:30:52.999Z</time></trkpt><trkpt lat="44.9462933" lon="8.475165"><ele>125.0</ele><time>2026-04-25T07:30:54.004Z</time></trkpt><trkpt lat="44.9463" lon="8.4754433"><ele>124.33333333333333</ele><time>2026-04-25T07:30:55.005Z</time></trkpt><trkpt lat="44.9463183" lon="8.4757267"><ele>123.66666666666666</ele><time>2026-04-25T07:30:55.999Z</time></trkpt><trkpt lat="44.9463517" lon="8.4760083"><ele>123.0</ele><time>2026-04-25T07:30:57.005Z</time></trkpt><trkpt lat="44.9463867" lon="8.4762933"><ele>123.0</ele><time>2026-04-25T07:30:58.005Z</time></trkpt><trkpt lat="44.9464183" lon="8.4765783"><ele>123.0</ele><time>2026-04-25T07:30:58.998Z</time></trkpt><trkpt lat="44.9464567" lon="8.47686"><ele>123.0</ele><time>2026-04-25T07:31:00.007Z</time></trkpt><trkpt lat="44.946495" lon="8.4771383"><ele>123.66666666666666</ele><time>2026-04-25T07:31:01.005Z</time></trkpt><trkpt lat="44.9465333" lon="8.4774167"><ele>124.33333333333333</ele><time>2026-04-25T07:31:01.999Z</time></trkpt><trkpt lat="44.94657" lon="8.4776933"><ele>125.0</ele><time>2026-04-25T07:31:02.997Z</time></trkpt><trkpt lat="44.9466067" lon="8.4779717"><ele>125.33333333333333</ele><time>2026-04-25T07:31:03.996Z</time></trkpt><trkpt lat="44.9466417" lon="8.4782483"><ele>125.66666666666666</ele><time>2026-04-25T07:31:04.996Z</time></trkpt><trkpt lat="44.946675" lon="8.478525"><ele>126.0</ele><time>2026-04-25T07:31:06Z</time></trkpt><trkpt lat="44.94671" lon="8.4787967"><ele>125.0</ele><time>2026-04-25T07:31:06.999Z</time></trkpt><trkpt lat="44.9467433" lon="8.4790617"><ele>124.0</ele><time>2026-04-25T07:31:07.997Z</time></trkpt><trkpt lat="44.9467767" lon="8.4793267"><ele>123.0</ele><time>2026-04-25T07:31:09Z</time></trkpt><trkpt lat="44.9468083" lon="8.47959"><ele>123.33333333333334</ele><time>2026-04-25T07:31:09.999Z</time></trkpt><trkpt lat="44.94684" lon="8.4798517"><ele>123.66666666666667</ele><time>2026-04-25T07:31:10.996Z</time></trkpt><trkpt lat="44.94687" lon="8.48011"><ele>124.0</ele><time>2026-04-25T07:31:11.994Z</time></trkpt><trkpt lat="44.9469017" lon="8.4803617"><ele>123.66666666666667</ele><time>2026-04-25T07:31:13.009Z</time></trkpt><trkpt lat="44.9469333" lon="8.48061"><ele>123.33333333333334</ele><time>2026-04-25T07:31:13.995Z</time></trkpt><trkpt lat="44.946965" lon="8.4808517"><ele>123.0</ele><time>2026-04-25T07:31:14.997Z</time></trkpt><trkpt lat="44.9469967" lon="8.4810883"><ele>123.66666666666666</ele><time>2026-04-25T07:31:15.997Z</time></trkpt><trkpt lat="44.9470267" lon="8.48132"><ele>124.33333333333333</ele><time>2026-04-25T07:31:16.994Z</time></trkpt><trkpt lat="44.9470533" lon="8.481545"><ele>125.0</ele><time>2026-04-25T07:31:17.999Z</time></trkpt><trkpt lat="44.9470783" lon="8.481765"><ele>125.0</ele><time>2026-04-25T07:31:18.995Z</time></trkpt><trkpt lat="44.9471017" lon="8.4819783"><ele>125.0</ele><time>2026-04-25T07:31:19.997Z</time></trkpt><trkpt lat="44.947125" lon="8.4821783"><ele>125.0</ele><time>2026-04-25T07:31:21Z</time></trkpt><trkpt lat="44.94715" lon="8.48236"><ele>125.0</ele><time>2026-04-25T07:31:21.997Z</time></trkpt><trkpt lat="44.9471717" lon="8.482535"><ele>125.0</ele><time>2026-04-25T07:31:22.996Z</time></trkpt><trkpt lat="44.9471883" lon="8.4827"><ele>125.0</ele><time>2026-04-25T07:31:23.996Z</time></trkpt><trkpt lat="44.9471967" lon="8.4828617"><ele>125.0</ele><time>2026-04-25T07:31:24.998Z</time></trkpt><trkpt lat="44.947195" lon="8.48301"><ele>125.0</ele><time>2026-04-25T07:31:26Z</time></trkpt><trkpt lat="44.9471733" lon="8.48314"><ele>125.0</ele><time>2026-04-25T07:31:26.999Z</time></trkpt><trkpt lat="44.94714" lon="8.4832467"><ele>124.99999999999999</ele><time>2026-04-25T07:31:28.004Z</time></trkpt><trkpt lat="44.9471217" lon="8.4833417"><ele>125.0</ele><time>2026-04-25T07:31:29Z</time></trkpt><trkpt lat="44.9471033" lon="8.4834533"><ele>125.0</ele><time>2026-04-25T07:31:30.004Z</time></trkpt><trkpt lat="44.9471817" lon="8.4835567"><ele>125.0</ele><time>2026-04-25T07:31:31.998Z</time></trkpt><trkpt lat="44.94729" lon="8.4836017"><ele>124.99999999999999</ele><time>2026-04-25T07:31:34.002Z</time></trkpt><trkpt lat="44.9473517" lon="8.4836417"><ele>125.0</ele><time>2026-04-25T07:31:34.999Z</time></trkpt><trkpt lat="44.9474083" lon="8.4837"><ele>124.83333333333333</ele><time>2026-04-25T07:31:36Z</time></trkpt><trkpt lat="44.94743" lon="8.4838017"><ele>124.66666666666666</ele><time>2026-04-25T07:31:37.002Z</time></trkpt><trkpt lat="44.9474583" lon="8.48391"><ele>124.5</ele><time>2026-04-25T07:31:38.002Z</time></trkpt><trkpt lat="44.94747" lon="8.48404"><ele>124.33333333333334</ele><time>2026-04-25T07:31:39.005Z</time></trkpt><trkpt lat="44.947485" lon="8.4841717"><ele>124.16666666666667</ele><time>2026-04-25T07:31:39.994Z</time></trkpt><trkpt lat="44.9474983" lon="8.484305"><ele>124.0</ele><time>2026-04-25T07:31:40.992Z</time></trkpt><trkpt lat="44.9475083" lon="8.484435"><ele>124.0</ele><time>2026-04-25T07:31:41.999Z</time></trkpt><trkpt lat="44.9475083" lon="8.48457"><ele>124.0</ele><time>2026-04-25T07:31:42.999Z</time></trkpt><trkpt lat="44.9474983" lon="8.4847083"><ele>124.0</ele><time>2026-04-25T07:31:44Z</time></trkpt><trkpt lat="44.9474917" lon="8.4848433"><ele>124.0</ele><time>2026-04-25T07:31:44.998Z</time></trkpt><trkpt lat="44.9474817" lon="8.4849783"><ele>124.0</ele><time>2026-04-25T07:31:46.001Z</time></trkpt><trkpt lat="44.9474717" lon="8.4851133"><ele>123.33333333333334</ele><time>2026-04-25T07:31:47.008Z</time></trkpt><trkpt lat="44.9474583" lon="8.4852533"><ele>122.66666666666667</ele><time>2026-04-25T07:31:48.001Z</time></trkpt><trkpt lat="44.9474483" lon="8.4853933"><ele>122.0</ele><time>2026-04-25T07:31:48.996Z</time></trkpt><trkpt lat="44.9474333" lon="8.4855267"><ele>121.33333333333334</ele><time>2026-04-25T07:31:49.996Z</time></trkpt><trkpt lat="44.9474267" lon="8.4856417"><ele>120.66666666666667</ele><time>2026-04-25T07:31:51.009Z</time></trkpt><trkpt lat="44.94742" lon="8.4857333"><ele>120.0</ele><time>2026-04-25T07:31:52.001Z</time></trkpt><trkpt lat="44.9474033" lon="8.4858217"><ele>119.83333333333333</ele><time>2026-04-25T07:31:53.998Z</time></trkpt><trkpt lat="44.9473917" lon="8.4859167"><ele>119.66666666666666</ele><time>2026-04-25T07:31:56.999Z</time></trkpt><trkpt lat="44.9474583" lon="8.4858567"><ele>119.5</ele><time>2026-04-25T07:31:59.996Z</time></trkpt><trkpt lat="44.94752" lon="8.485795"><ele>119.33333333333333</ele><time>2026-04-25T07:32:02.993Z</time></trkpt><trkpt lat="44.9474983" lon="8.4856917"><ele>119.16666666666666</ele><time>2026-04-25T07:32:13.001Z</time></trkpt><trkpt lat="44.9474483" lon="8.4856117"><ele>119.0</ele><time>2026-04-25T07:32:15.999Z</time></trkpt><trkpt lat="44.9473733" lon="8.4855533"><ele>119.0</ele><time>2026-04-25T07:32:17.991Z</time></trkpt><trkpt lat="44.9472567" lon="8.485515"><ele>119.0</ele><time>2026-04-25T07:32:19.999Z</time></trkpt><trkpt lat="44.9471883" lon="8.4854983"><ele>119.0</ele><time>2026-04-25T07:32:21.001Z</time></trkpt><trkpt lat="44.9471217" lon="8.4854867"><ele>119.0</ele><time>2026-04-25T07:32:22.001Z</time></trkpt><trkpt lat="44.9470067" lon="8.4854617"><ele>119.0</ele><time>2026-04-25T07:32:23.995Z</time></trkpt><trkpt lat="44.9468867" lon="8.4854217"><ele>119.14285714285714</ele><time>2026-04-25T07:32:25.996Z</time></trkpt><trkpt lat="44.9468233" lon="8.4854017"><ele>119.28571428571428</ele><time>2026-04-25T07:32:26.998Z</time></trkpt><trkpt lat="44.946755" lon="8.4853833"><ele>119.42857142857143</ele><time>2026-04-25T07:32:28.001Z</time></trkpt><trkpt lat="44.9466867" lon="8.4853583"><ele>119.57142857142857</ele><time>2026-04-25T07:32:29Z</time></trkpt><trkpt lat="44.946615" lon="8.4853167"><ele>119.71428571428571</ele><time>2026-04-25T07:32:29.998Z</time></trkpt><trkpt lat="44.9465417" lon="8.48528"><ele>119.85714285714286</ele><time>2026-04-25T07:32:30.998Z</time></trkpt><trkpt lat="44.94647" lon="8.4852433"><ele>120.0</ele><time>2026-04-25T07:32:31.998Z</time></trkpt><trkpt lat="44.9463883" lon="8.485215"><ele>120.5</ele><time>2026-04-25T07:32:33Z</time></trkpt><trkpt lat="44.9463117" lon="8.48519"><ele>121.0</ele><time>2026-04-25T07:32:34.002Z</time></trkpt><trkpt lat="44.9462383" lon="8.4851633"><ele>121.5</ele><time>2026-04-25T07:32:34.995Z</time></trkpt><trkpt lat="44.9461683" lon="8.48514"><ele>122.0</ele><time>2026-04-25T07:32:35.998Z</time></trkpt><trkpt lat="44.946065" lon="8.48507"><ele>122.5</ele><time>2026-04-25T07:32:37.998Z</time></trkpt><trkpt lat="44.9460033" lon="8.4850417"><ele>123.0</ele><time>2026-04-25T07:32:39.994Z</time></trkpt><trkpt lat="44.9459167" lon="8.4850233"><ele>122.83333333333333</ele><time>2026-04-25T07:32:42Z</time></trkpt><trkpt lat="44.9457933" lon="8.4850283"><ele>122.66666666666666</ele><time>2026-04-25T07:32:43.994Z</time></trkpt><trkpt lat="44.9457217" lon="8.4850283"><ele>122.5</ele><time>2026-04-25T07:32:44.994Z</time></trkpt><trkpt lat="44.9456517" lon="8.485035"><ele>122.33333333333333</ele><time>2026-04-25T07:32:45.992Z</time></trkpt><trkpt lat="44.9455767" lon="8.4850367"><ele>122.16666666666666</ele><time>2026-04-25T07:32:46.995Z</time></trkpt><trkpt lat="44.945495" lon="8.4850417"><ele>122.0</ele><time>2026-04-25T07:32:47.995Z</time></trkpt><trkpt lat="44.945415" lon="8.4850367"><ele>121.99999999999999</ele><time>2026-04-25T07:32:48.992Z</time></trkpt><trkpt lat="44.9453367" lon="8.4850183"><ele>122.0</ele><time>2026-04-25T07:32:49.997Z</time></trkpt><trkpt lat="44.9452717" lon="8.485005"><ele>122.0</ele><time>2026-04-25T07:32:50.996Z</time></trkpt><trkpt lat="44.9451483" lon="8.4849983"><ele>122.0</ele><time>2026-04-25T07:32:52.995Z</time></trkpt><trkpt lat="44.9450767" lon="8.485"><ele>121.99999999999999</ele><time>2026-04-25T07:32:53.995Z</time></trkpt><trkpt lat="44.9450433" lon="8.4850767"><ele>122.0</ele><time>2026-04-25T07:32:54.999Z</time></trkpt><trkpt lat="44.9450133" lon="8.4852417"><ele>121.85714285714283</ele><time>2026-04-25T07:32:56.998Z</time></trkpt><trkpt lat="44.9450283" lon="8.4853467"><ele>121.71428571428571</ele><time>2026-04-25T07:32:58.002Z</time></trkpt><trkpt lat="44.9450367" lon="8.485445"><ele>121.57142857142856</ele><time>2026-04-25T07:32:58.995Z</time></trkpt><trkpt lat="44.9450367" lon="8.4855433"><ele>121.42857142857142</ele><time>2026-04-25T07:32:59.997Z</time></trkpt><trkpt lat="44.9450367" lon="8.485645"><ele>121.28571428571428</ele><time>2026-04-25T07:33:00.997Z</time></trkpt><trkpt lat="44.9450333" lon="8.4857417"><ele>121.14285714285714</ele><time>2026-04-25T07:33:01.993Z</time></trkpt><trkpt lat="44.945035" lon="8.4858417"><ele>121.0</ele><time>2026-04-25T07:33:02.996Z</time></trkpt><trkpt lat="44.945035" lon="8.4859467"><ele>121.28571428571428</ele><time>2026-04-25T07:33:03.991Z</time></trkpt><trkpt lat="44.9450367" lon="8.4860467"><ele>121.57142857142856</ele><time>2026-04-25T07:33:04.991Z</time></trkpt><trkpt lat="44.9450467" lon="8.4861517"><ele>121.85714285714286</ele><time>2026-04-25T07:33:05.995Z</time></trkpt><trkpt lat="44.9450617" lon="8.48626"><ele>122.14285714285714</ele><time>2026-04-25T07:33:07.003Z</time></trkpt><trkpt lat="44.945065" lon="8.4863617"><ele>122.42857142857143</ele><time>2026-04-25T07:33:07.995Z</time></trkpt><trkpt lat="44.945065" lon="8.48646"><ele>122.71428571428572</ele><time>2026-04-25T07:33:08.996Z</time></trkpt><trkpt lat="44.945065" lon="8.4865583"><ele>123.00000000000001</ele><time>2026-04-25T07:33:09.996Z</time></trkpt><trkpt lat="44.94507" lon="8.48666"><ele>123.16666666666667</ele><time>2026-04-25T07:33:10.996Z</time></trkpt><trkpt lat="44.9450667" lon="8.4867583"><ele>123.33333333333334</ele><time>2026-04-25T07:33:12.002Z</time></trkpt><trkpt lat="44.9450733" lon="8.48685"><ele>123.5</ele><time>2026-04-25T07:33:12.997Z</time></trkpt><trkpt lat="44.9450733" lon="8.486985"><ele>123.66666666666667</ele><time>2026-04-25T07:33:14.998Z</time></trkpt><trkpt lat="44.94506" lon="8.4870767"><ele>123.83333333333334</ele><time>2026-04-25T07:33:17Z</time></trkpt><trkpt lat="44.9449967" lon="8.4871633"><ele>124.0</ele><time>2026-04-25T07:33:19Z</time></trkpt><trkpt lat="44.9448917" lon="8.4872617"><ele>124.00000000000001</ele><time>2026-04-25T07:33:20.996Z</time></trkpt><trkpt lat="44.944815" lon="8.4873167"><ele>124.0</ele><time>2026-04-25T07:33:21.998Z</time></trkpt><trkpt lat="44.944745" lon="8.4873833"><ele>124.0</ele><time>2026-04-25T07:33:22.993Z</time></trkpt><trkpt lat="44.944675" lon="8.48746"><ele>124.0</ele><time>2026-04-25T07:33:23.995Z</time></trkpt><trkpt lat="44.9446117" lon="8.4875467"><ele>124.00000000000001</ele><time>2026-04-25T07:33:24.997Z</time></trkpt><trkpt lat="44.9445667" lon="8.4876483"><ele>124.0</ele><time>2026-04-25T07:33:25.998Z</time></trkpt><trkpt lat="44.94453" lon="8.48776"><ele>124.0</ele><time>2026-04-25T07:33:27.006Z</time></trkpt><trkpt lat="44.9445233" lon="8.4879017"><ele>124.0</ele><time>2026-04-25T07:33:27.999Z</time></trkpt><trkpt lat="44.9445183" lon="8.48803"><ele>124.0</ele><time>2026-04-25T07:33:28.998Z</time></trkpt><trkpt lat="44.9445317" lon="8.488165"><ele>124.0</ele><time>2026-04-25T07:33:29.999Z</time></trkpt><trkpt lat="44.944545" lon="8.4883033"><ele>124.0</ele><time>2026-04-25T07:33:31Z</time></trkpt><trkpt lat="44.9445633" lon="8.4884483"><ele>123.80000000000001</ele><time>2026-04-25T07:33:31.994Z</time></trkpt><trkpt lat="44.944585" lon="8.4885917"><ele>123.60000000000001</ele><time>2026-04-25T07:33:32.994Z</time></trkpt><trkpt lat="44.944615" lon="8.488735"><ele>123.4</ele><time>2026-04-25T07:33:33.995Z</time></trkpt><trkpt lat="44.9446617" lon="8.48887"><ele>123.2</ele><time>2026-04-25T07:33:35.001Z</time></trkpt><trkpt lat="44.9447167" lon="8.4889983"><ele>123.0</ele><time>2026-04-25T07:33:35.994Z</time></trkpt><trkpt lat="44.9447783" lon="8.4891233"><ele>122.4</ele><time>2026-04-25T07:33:37.005Z</time></trkpt><trkpt lat="44.9448417" lon="8.4892417"><ele>121.80000000000001</ele><time>2026-04-25T07:33:37.995Z</time></trkpt><trkpt lat="44.9449167" lon="8.48936"><ele>121.2</ele><time>2026-04-25T07:33:38.997Z</time></trkpt><trkpt lat="44.9449867" lon="8.4894767"><ele>120.6</ele><time>2026-04-25T07:33:39.992Z</time></trkpt><trkpt lat="44.9450483" lon="8.489585"><ele>120.0</ele><time>2026-04-25T07:33:40.997Z</time></trkpt><trkpt lat="44.9451017" lon="8.4896867"><ele>119.8</ele><time>2026-04-25T07:33:41.993Z</time></trkpt><trkpt lat="44.9451433" lon="8.4897967"><ele>119.6</ele><time>2026-04-25T07:33:42.997Z</time></trkpt><trkpt lat="44.9451317" lon="8.4899467"><ele>119.4</ele><time>2026-04-25T07:33:43.993Z</time></trkpt><trkpt lat="44.9450867" lon="8.4900967"><ele>119.2</ele><time>2026-04-25T07:33:44.997Z</time></trkpt><trkpt lat="44.94504" lon="8.4902383"><ele>119.0</ele><time>2026-04-25T07:33:45.996Z</time></trkpt><trkpt lat="44.9449883" lon="8.4903833"><ele>118.5</ele><time>2026-04-25T07:33:46.994Z</time></trkpt><trkpt lat="44.9449267" lon="8.4905417"><ele>118.0</ele><time>2026-04-25T07:33:47.995Z</time></trkpt><trkpt lat="44.9448633" lon="8.49072"><ele>117.5</ele><time>2026-04-25T07:33:48.998Z</time></trkpt><trkpt lat="44.944795" lon="8.49092"><ele>117.0</ele><time>2026-04-25T07:33:49.995Z</time></trkpt><trkpt lat="44.9447317" lon="8.49113"><ele>116.66666666666666</ele><time>2026-04-25T07:33:50.995Z</time></trkpt><trkpt lat="44.9446617" lon="8.4913367"><ele>116.33333333333333</ele><time>2026-04-25T07:33:52.001Z</time></trkpt><trkpt lat="44.9446033" lon="8.49154"><ele>116.0</ele><time>2026-04-25T07:33:52.994Z</time></trkpt><trkpt lat="44.94454" lon="8.4917433"><ele>116.0</ele><time>2026-04-25T07:33:53.995Z</time></trkpt><trkpt lat="44.9444733" lon="8.491945"><ele>116.0</ele><time>2026-04-25T07:33:54.996Z</time></trkpt><trkpt lat="44.9444083" lon="8.4921533"><ele>116.0</ele><time>2026-04-25T07:33:55.996Z</time></trkpt><trkpt lat="44.9443383" lon="8.49236"><ele>116.0</ele><time>2026-04-25T07:33:56.995Z</time></trkpt><trkpt lat="44.94427" lon="8.4925767"><ele>116.0</ele><time>2026-04-25T07:33:57.991Z</time></trkpt><trkpt lat="44.9442017" lon="8.492795"><ele>116.0</ele><time>2026-04-25T07:33:58.995Z</time></trkpt><trkpt lat="44.9441367" lon="8.4930083"><ele>116.33333333333333</ele><time>2026-04-25T07:33:59.991Z</time></trkpt><trkpt lat="44.94407" lon="8.4932283"><ele>116.66666666666666</ele><time>2026-04-25T07:34:00.999Z</time></trkpt><trkpt lat="44.9440033" lon="8.4934517"><ele>117.0</ele><time>2026-04-25T07:34:01.996Z</time></trkpt><trkpt lat="44.943935" lon="8.49368"><ele>117.0</ele><time>2026-04-25T07:34:02.994Z</time></trkpt><trkpt lat="44.9438633" lon="8.4939117"><ele>117.0</ele><time>2026-04-25T07:34:03.995Z</time></trkpt><trkpt lat="44.94379" lon="8.4941467"><ele>117.0</ele><time>2026-04-25T07:34:04.999Z</time></trkpt><trkpt lat="44.94372" lon="8.4943783"><ele>117.0</ele><time>2026-04-25T07:34:05.996Z</time></trkpt><trkpt lat="44.9436483" lon="8.4946083"><ele>117.0</ele><time>2026-04-25T07:34:06.995Z</time></trkpt><trkpt lat="44.9435783" lon="8.4948317"><ele>117.0</ele><time>2026-04-25T07:34:07.994Z</time></trkpt><trkpt lat="44.9435083" lon="8.49505"><ele>117.0</ele><time>2026-04-25T07:34:08.994Z</time></trkpt><trkpt lat="44.94344" lon="8.4952617"><ele>117.0</ele><time>2026-04-25T07:34:09.996Z</time></trkpt><trkpt lat="44.943375" lon="8.4954633"><ele>117.0</ele><time>2026-04-25T07:34:10.998Z</time></trkpt><trkpt lat="44.9433083" lon="8.4956633"><ele>116.66666666666666</ele><time>2026-04-25T07:34:11.999Z</time></trkpt><trkpt lat="44.9432483" lon="8.4958667"><ele>116.33333333333333</ele><time>2026-04-25T07:34:12.997Z</time></trkpt><trkpt lat="44.9431883" lon="8.49607"><ele>116.0</ele><time>2026-04-25T07:34:13.997Z</time></trkpt><trkpt lat="44.9431267" lon="8.49627"><ele>116.66666666666666</ele><time>2026-04-25T07:34:14.995Z</time></trkpt><trkpt lat="44.9430633" lon="8.496475"><ele>117.33333333333334</ele><time>2026-04-25T07:34:15.994Z</time></trkpt><trkpt lat="44.943" lon="8.4966833"><ele>118.0</ele><time>2026-04-25T07:34:16.996Z</time></trkpt><trkpt lat="44.9429317" lon="8.4968967"><ele>117.33333333333334</ele><time>2026-04-25T07:34:17.995Z</time></trkpt><trkpt lat="44.9428583" lon="8.4971183"><ele>116.66666666666666</ele><time>2026-04-25T07:34:18.993Z</time></trkpt><trkpt lat="44.942785" lon="8.4973483"><ele>116.0</ele><time>2026-04-25T07:34:19.997Z</time></trkpt><trkpt lat="44.94271" lon="8.4975867"><ele>116.0</ele><time>2026-04-25T07:34:21Z</time></trkpt><trkpt lat="44.942635" lon="8.4978283"><ele>116.0</ele><time>2026-04-25T07:34:21.996Z</time></trkpt><trkpt lat="44.9425567" lon="8.4980717"><ele>116.0</ele><time>2026-04-25T07:34:22.996Z</time></trkpt><trkpt lat="44.94248" lon="8.4983183"><ele>115.66666666666666</ele><time>2026-04-25T07:34:23.997Z</time></trkpt><trkpt lat="44.9424033" lon="8.4985683"><ele>115.33333333333334</ele><time>2026-04-25T07:34:24.995Z</time></trkpt><trkpt lat="44.942325" lon="8.4988167"><ele>115.0</ele><time>2026-04-25T07:34:25.994Z</time></trkpt><trkpt lat="44.9422467" lon="8.499065"><ele>115.0</ele><time>2026-04-25T07:34:26.998Z</time></trkpt><trkpt lat="44.9421717" lon="8.4993083"><ele>115.0</ele><time>2026-04-25T07:34:27.994Z</time></trkpt><trkpt lat="44.942095" lon="8.4995533"><ele>115.0</ele><time>2026-04-25T07:34:28.994Z</time></trkpt><trkpt lat="44.94202" lon="8.4997967"><ele>114.66666666666667</ele><time>2026-04-25T07:34:29.994Z</time></trkpt><trkpt lat="44.9419467" lon="8.5000383"><ele>114.33333333333334</ele><time>2026-04-25T07:34:30.997Z</time></trkpt><trkpt lat="44.941875" lon="8.5002767"><ele>114.0</ele><time>2026-04-25T07:34:31.996Z</time></trkpt><trkpt lat="44.9418033" lon="8.500515"><ele>114.0</ele><time>2026-04-25T07:34:32.998Z</time></trkpt><trkpt lat="44.9417317" lon="8.5007483"><ele>114.0</ele><time>2026-04-25T07:34:33.993Z</time></trkpt><trkpt lat="44.9416633" lon="8.5009867"><ele>114.0</ele><time>2026-04-25T07:34:34.994Z</time></trkpt><trkpt lat="44.9415917" lon="8.501225"><ele>114.33333333333334</ele><time>2026-04-25T07:34:36Z</time></trkpt><trkpt lat="44.94152" lon="8.5014633"><ele>114.66666666666667</ele><time>2026-04-25T07:34:36.993Z</time></trkpt><trkpt lat="44.9414467" lon="8.5017"><ele>115.0</ele><time>2026-04-25T07:34:37.997Z</time></trkpt><trkpt lat="44.941375" lon="8.5019367"><ele>114.33333333333334</ele><time>2026-04-25T07:34:39.001Z</time></trkpt><trkpt lat="44.9413033" lon="8.5021717"><ele>113.66666666666666</ele><time>2026-04-25T07:34:39.993Z</time></trkpt><trkpt lat="44.9412317" lon="8.5024117"><ele>113.0</ele><time>2026-04-25T07:34:40.996Z</time></trkpt><trkpt lat="44.94116" lon="8.5026517"><ele>113.0</ele><time>2026-04-25T07:34:42.001Z</time></trkpt><trkpt lat="44.9410867" lon="8.5028933"><ele>113.0</ele><time>2026-04-25T07:34:42.998Z</time></trkpt><trkpt lat="44.9410133" lon="8.5031333"><ele>113.0</ele><time>2026-04-25T07:34:43.997Z</time></trkpt><trkpt lat="44.9409383" lon="8.5033783"><ele>113.0</ele><time>2026-04-25T07:34:45.001Z</time></trkpt><trkpt lat="44.9408617" lon="8.50363"><ele>113.0</ele><time>2026-04-25T07:34:46.001Z</time></trkpt><trkpt lat="44.9407833" lon="8.5038833"><ele>113.0</ele><time>2026-04-25T07:34:46.997Z</time></trkpt><trkpt lat="44.940705" lon="8.5041367"><ele>112.33333333333333</ele><time>2026-04-25T07:34:47.996Z</time></trkpt><trkpt lat="44.9406267" lon="8.5043967"><ele>111.66666666666666</ele><time>2026-04-25T07:34:48.994Z</time></trkpt><trkpt lat="44.94055" lon="8.5046567"><ele>111.0</ele><time>2026-04-25T07:34:49.999Z</time></trkpt><trkpt lat="44.9404767" lon="8.5049133"><ele>110.66666666666666</ele><time>2026-04-25T07:34:50.999Z</time></trkpt><trkpt lat="44.9404033" lon="8.5051667"><ele>110.33333333333333</ele><time>2026-04-25T07:34:51.996Z</time></trkpt><trkpt lat="44.9403317" lon="8.5054167"><ele>110.0</ele><time>2026-04-25T07:34:52.994Z</time></trkpt><trkpt lat="44.9402583" lon="8.5056583"><ele>109.66666666666666</ele><time>2026-04-25T07:34:53.996Z</time></trkpt><trkpt lat="44.9401867" lon="8.5059017"><ele>109.33333333333334</ele><time>2026-04-25T07:34:54.997Z</time></trkpt><trkpt lat="44.9401183" lon="8.5061367"><ele>109.0</ele><time>2026-04-25T07:34:55.998Z</time></trkpt><trkpt lat="44.9400483" lon="8.5063783"><ele>109.0</ele><time>2026-04-25T07:34:57Z</time></trkpt><trkpt lat="44.9399783" lon="8.5066183"><ele>109.0</ele><time>2026-04-25T07:34:57.998Z</time></trkpt><trkpt lat="44.9399083" lon="8.50686"><ele>109.0</ele><time>2026-04-25T07:34:58.997Z</time></trkpt><trkpt lat="44.9398367" lon="8.5071017"><ele>109.0</ele><time>2026-04-25T07:35:00Z</time></trkpt><trkpt lat="44.939765" lon="8.50734"><ele>109.0</ele><time>2026-04-25T07:35:00.998Z</time></trkpt><trkpt lat="44.9396933" lon="8.5075783"><ele>109.0</ele><time>2026-04-25T07:35:02.002Z</time></trkpt><trkpt lat="44.9396183" lon="8.5078183"><ele>109.33333333333334</ele><time>2026-04-25T07:35:03Z</time></trkpt><trkpt lat="44.9395433" lon="8.5080583"><ele>109.66666666666666</ele><time>2026-04-25T07:35:03.999Z</time></trkpt><trkpt lat="44.9394683" lon="8.508295"><ele>110.0</ele><time>2026-04-25T07:35:05.001Z</time></trkpt><trkpt lat="44.9393967" lon="8.5085367"><ele>109.66666666666666</ele><time>2026-04-25T07:35:05.999Z</time></trkpt><trkpt lat="44.9393233" lon="8.5087767"><ele>109.33333333333334</ele><time>2026-04-25T07:35:07.001Z</time></trkpt><trkpt lat="44.93925" lon="8.5090217"><ele>109.0</ele><time>2026-04-25T07:35:07.998Z</time></trkpt><trkpt lat="44.9391733" lon="8.5092683"><ele>109.0</ele><time>2026-04-25T07:35:09Z</time></trkpt><trkpt lat="44.9390967" lon="8.5095183"><ele>109.0</ele><time>2026-04-25T07:35:10Z</time></trkpt><trkpt lat="44.9390217" lon="8.50977"><ele>109.0</ele><time>2026-04-25T07:35:10.994Z</time></trkpt><trkpt lat="44.938945" lon="8.51002"><ele>109.0</ele><time>2026-04-25T07:35:11.997Z</time></trkpt><trkpt lat="44.93887" lon="8.5102783"><ele>109.0</ele><time>2026-04-25T07:35:12.995Z</time></trkpt><trkpt lat="44.9387967" lon="8.5105367"><ele>109.0</ele><time>2026-04-25T07:35:13.996Z</time></trkpt><trkpt lat="44.9387267" lon="8.5108"><ele>109.33333333333334</ele><time>2026-04-25T07:35:15Z</time></trkpt><trkpt lat="44.938655" lon="8.5110683"><ele>109.66666666666666</ele><time>2026-04-25T07:35:15.997Z</time></trkpt><trkpt lat="44.9385833" lon="8.511335"><ele>110.0</ele><time>2026-04-25T07:35:16.998Z</time></trkpt><trkpt lat="44.9385083" lon="8.5115967"><ele>110.0</ele><time>2026-04-25T07:35:17.997Z</time></trkpt><trkpt lat="44.9384333" lon="8.5118617"><ele>110.0</ele><time>2026-04-25T07:35:18.998Z</time></trkpt><trkpt lat="44.9383583" lon="8.5121383"><ele>110.0</ele><time>2026-04-25T07:35:19.998Z</time></trkpt><trkpt lat="44.9382833" lon="8.5124117"><ele>109.66666666666666</ele><time>2026-04-25T07:35:21.002Z</time></trkpt><trkpt lat="44.9382067" lon="8.512685"><ele>109.33333333333334</ele><time>2026-04-25T07:35:21.996Z</time></trkpt><trkpt lat="44.93813" lon="8.512955"><ele>109.0</ele><time>2026-04-25T07:35:22.999Z</time></trkpt><trkpt lat="44.938055" lon="8.5132233"><ele>108.66666666666667</ele><time>2026-04-25T07:35:24.002Z</time></trkpt><trkpt lat="44.9379783" lon="8.5134917"><ele>108.33333333333334</ele><time>2026-04-25T07:35:24.996Z</time></trkpt><trkpt lat="44.9379" lon="8.5137567"><ele>108.0</ele><time>2026-04-25T07:35:25.996Z</time></trkpt><trkpt lat="44.9378233" lon="8.5140217"><ele>107.66666666666666</ele><time>2026-04-25T07:35:26.997Z</time></trkpt><trkpt lat="44.9377467" lon="8.5142883"><ele>107.33333333333333</ele><time>2026-04-25T07:35:27.995Z</time></trkpt><trkpt lat="44.9376717" lon="8.5145567"><ele>107.0</ele><time>2026-04-25T07:35:28.992Z</time></trkpt><trkpt lat="44.9375967" lon="8.51482"><ele>106.66666666666666</ele><time>2026-04-25T07:35:29.995Z</time></trkpt><trkpt lat="44.9375233" lon="8.515075"><ele>106.33333333333334</ele><time>2026-04-25T07:35:31.003Z</time></trkpt><trkpt lat="44.9374517" lon="8.51533"><ele>106.0</ele><time>2026-04-25T07:35:31.995Z</time></trkpt><trkpt lat="44.9373817" lon="8.5155833"><ele>105.66666666666667</ele><time>2026-04-25T07:35:32.997Z</time></trkpt><trkpt lat="44.9373133" lon="8.51583"><ele>105.33333333333334</ele><time>2026-04-25T07:35:33.998Z</time></trkpt><trkpt lat="44.937245" lon="8.5160733"><ele>105.0</ele><time>2026-04-25T07:35:34.993Z</time></trkpt><trkpt lat="44.9371767" lon="8.5163117"><ele>105.0</ele><time>2026-04-25T07:35:35.997Z</time></trkpt><trkpt lat="44.93711" lon="8.5165417"><ele>105.0</ele><time>2026-04-25T07:35:36.997Z</time></trkpt><trkpt lat="44.937045" lon="8.5167733"><ele>105.0</ele><time>2026-04-25T07:35:37.998Z</time></trkpt><trkpt lat="44.9369783" lon="8.5169967"><ele>104.66666666666666</ele><time>2026-04-25T07:35:38.998Z</time></trkpt><trkpt lat="44.9369167" lon="8.5172133"><ele>104.33333333333333</ele><time>2026-04-25T07:35:39.994Z</time></trkpt><trkpt lat="44.936855" lon="8.5174217"><ele>104.0</ele><time>2026-04-25T07:35:40.994Z</time></trkpt><trkpt lat="44.9367983" lon="8.517625"><ele>104.0</ele><time>2026-04-25T07:35:41.998Z</time></trkpt><trkpt lat="44.9367483" lon="8.5178167"><ele>104.0</ele><time>2026-04-25T07:35:42.996Z</time></trkpt><trkpt lat="44.9367" lon="8.5179867"><ele>104.0</ele><time>2026-04-25T07:35:43.994Z</time></trkpt><trkpt lat="44.9366567" lon="8.5181383"><ele>104.0</ele><time>2026-04-25T07:35:44.993Z</time></trkpt><trkpt lat="44.9366083" lon="8.5182767"><ele>104.0</ele><time>2026-04-25T07:35:45.994Z</time></trkpt><trkpt lat="44.936545" lon="8.5183883"><ele>104.0</ele><time>2026-04-25T07:35:46.996Z</time></trkpt><trkpt lat="44.9364733" lon="8.5184833"><ele>104.0</ele><time>2026-04-25T07:35:48Z</time></trkpt><trkpt lat="44.9364083" lon="8.5185817"><ele>104.0</ele><time>2026-04-25T07:35:48.993Z</time></trkpt><trkpt lat="44.9363667" lon="8.5186967"><ele>104.0</ele><time>2026-04-25T07:35:49.992Z</time></trkpt><trkpt lat="44.9363417" lon="8.5188367"><ele>104.0</ele><time>2026-04-25T07:35:50.997Z</time></trkpt><trkpt lat="44.936335" lon="8.5189867"><ele>104.0</ele><time>2026-04-25T07:35:51.997Z</time></trkpt><trkpt lat="44.936325" lon="8.5191467"><ele>104.0</ele><time>2026-04-25T07:35:52.999Z</time></trkpt><trkpt lat="44.9363033" lon="8.51932"><ele>104.0</ele><time>2026-04-25T07:35:53.994Z</time></trkpt><trkpt lat="44.9362617" lon="8.5195117"><ele>104.0</ele><time>2026-04-25T07:35:54.995Z</time></trkpt><trkpt lat="44.9362083" lon="8.51973"><ele>104.0</ele><time>2026-04-25T07:35:55.995Z</time></trkpt><trkpt lat="44.9361483" lon="8.5199517"><ele>104.0</ele><time>2026-04-25T07:35:56.995Z</time></trkpt><trkpt lat="44.936085" lon="8.5201783"><ele>104.0</ele><time>2026-04-25T07:35:57.994Z</time></trkpt><trkpt lat="44.93602" lon="8.5204167"><ele>104.0</ele><time>2026-04-25T07:35:58.996Z</time></trkpt><trkpt lat="44.9359467" lon="8.520665"><ele>104.0</ele><time>2026-04-25T07:35:59.995Z</time></trkpt><trkpt lat="44.93587" lon="8.520935"><ele>104.0</ele><time>2026-04-25T07:36:00.998Z</time></trkpt><trkpt lat="44.9357917" lon="8.521215"><ele>104.0</ele><time>2026-04-25T07:36:01.996Z</time></trkpt><trkpt lat="44.935715" lon="8.521495"><ele>104.0</ele><time>2026-04-25T07:36:02.991Z</time></trkpt><trkpt lat="44.93564" lon="8.5217667"><ele>103.66666666666666</ele><time>2026-04-25T07:36:03.999Z</time></trkpt><trkpt lat="44.9355683" lon="8.5220333"><ele>103.33333333333334</ele><time>2026-04-25T07:36:04.996Z</time></trkpt><trkpt lat="44.9354933" lon="8.5222967"><ele>103.0</ele><time>2026-04-25T07:36:05.998Z</time></trkpt><trkpt lat="44.9354217" lon="8.522555"><ele>102.66666666666667</ele><time>2026-04-25T07:36:07.001Z</time></trkpt><trkpt lat="44.93535" lon="8.5228133"><ele>102.33333333333334</ele><time>2026-04-25T07:36:08Z</time></trkpt><trkpt lat="44.9352783" lon="8.5230667"><ele>102.0</ele><time>2026-04-25T07:36:09.002Z</time></trkpt><trkpt lat="44.9352067" lon="8.5233133"><ele>102.0</ele><time>2026-04-25T07:36:10.002Z</time></trkpt><trkpt lat="44.9351367" lon="8.5235517"><ele>102.0</ele><time>2026-04-25T07:36:10.992Z</time></trkpt><trkpt lat="44.9350667" lon="8.5237867"><ele>102.0</ele><time>2026-04-25T07:36:11.997Z</time></trkpt><trkpt lat="44.9349983" lon="8.5240233"><ele>102.0</ele><time>2026-04-25T07:36:12.994Z</time></trkpt><trkpt lat="44.9349317" lon="8.5242683"><ele>102.0</ele><time>2026-04-25T07:36:13.996Z</time></trkpt><trkpt lat="44.934865" lon="8.5245133"><ele>102.0</ele><time>2026-04-25T07:36:14.995Z</time></trkpt><trkpt lat="44.934795" lon="8.5247517"><ele>102.0</ele><time>2026-04-25T07:36:15.992Z</time></trkpt><trkpt lat="44.934725" lon="8.5249917"><ele>102.0</ele><time>2026-04-25T07:36:16.993Z</time></trkpt><trkpt lat="44.934655" lon="8.5252383"><ele>102.0</ele><time>2026-04-25T07:36:17.998Z</time></trkpt><trkpt lat="44.9345867" lon="8.5254817"><ele>102.0</ele><time>2026-04-25T07:36:19.001Z</time></trkpt><trkpt lat="44.9345183" lon="8.5257217"><ele>102.0</ele><time>2026-04-25T07:36:19.994Z</time></trkpt><trkpt lat="44.93445" lon="8.5259717"><ele>102.0</ele><time>2026-04-25T07:36:20.993Z</time></trkpt><trkpt lat="44.9343817" lon="8.5262217"><ele>102.0</ele><time>2026-04-25T07:36:21.998Z</time></trkpt><trkpt lat="44.9343117" lon="8.5264733"><ele>102.0</ele><time>2026-04-25T07:36:22.994Z</time></trkpt><trkpt lat="44.9342417" lon="8.5267233"><ele>102.0</ele><time>2026-04-25T07:36:23.995Z</time></trkpt><trkpt lat="44.9341733" lon="8.526975"><ele>101.66666666666666</ele><time>2026-04-25T07:36:24.999Z</time></trkpt><trkpt lat="44.9341033" lon="8.5272283"><ele>101.33333333333333</ele><time>2026-04-25T07:36:25.996Z</time></trkpt><trkpt lat="44.934035" lon="8.52748"><ele>101.0</ele><time>2026-04-25T07:36:26.992Z</time></trkpt><trkpt lat="44.933965" lon="8.52773"><ele>101.0</ele><time>2026-04-25T07:36:27.993Z</time></trkpt><trkpt lat="44.933895" lon="8.5279817"><ele>101.0</ele><time>2026-04-25T07:36:28.996Z</time></trkpt><trkpt lat="44.9338267" lon="8.5282367"><ele>101.0</ele><time>2026-04-25T07:36:29.995Z</time></trkpt><trkpt lat="44.9337583" lon="8.5284883"><ele>101.0</ele><time>2026-04-25T07:36:30.996Z</time></trkpt><trkpt lat="44.9336867" lon="8.52874"><ele>101.0</ele><time>2026-04-25T07:36:31.995Z</time></trkpt><trkpt lat="44.9336117" lon="8.5289917"><ele>101.0</ele><time>2026-04-25T07:36:33Z</time></trkpt><trkpt lat="44.9335383" lon="8.5292483"><ele>101.0</ele><time>2026-04-25T07:36:34.003Z</time></trkpt><trkpt lat="44.933465" lon="8.5295067"><ele>101.0</ele><time>2026-04-25T07:36:34.996Z</time></trkpt><trkpt lat="44.9333917" lon="8.5297683"><ele>101.0</ele><time>2026-04-25T07:36:35.999Z</time></trkpt><trkpt lat="44.9333167" lon="8.5300317"><ele>101.0</ele><time>2026-04-25T07:36:37.001Z</time></trkpt><trkpt lat="44.9332417" lon="8.5302967"><ele>101.0</ele><time>2026-04-25T07:36:37.998Z</time></trkpt><trkpt lat="44.9331667" lon="8.5305583"><ele>101.0</ele><time>2026-04-25T07:36:38.997Z</time></trkpt><trkpt lat="44.9330917" lon="8.530825"><ele>101.0</ele><time>2026-04-25T07:36:39.998Z</time></trkpt><trkpt lat="44.9330167" lon="8.5310933"><ele>101.0</ele><time>2026-04-25T07:36:40.993Z</time></trkpt><trkpt lat="44.9329417" lon="8.5313583"><ele>101.0</ele><time>2026-04-25T07:36:41.995Z</time></trkpt><trkpt lat="44.9328683" lon="8.53163"><ele>101.33333333333333</ele><time>2026-04-25T07:36:42.994Z</time></trkpt><trkpt lat="44.9327933" lon="8.5318983"><ele>101.66666666666666</ele><time>2026-04-25T07:36:43.994Z</time></trkpt><trkpt lat="44.9327183" lon="8.53217"><ele>102.0</ele><time>2026-04-25T07:36:44.997Z</time></trkpt><trkpt lat="44.9326433" lon="8.5324367"><ele>101.33333333333334</ele><time>2026-04-25T07:36:45.996Z</time></trkpt><trkpt lat="44.9325683" lon="8.5327033"><ele>100.66666666666667</ele><time>2026-04-25T07:36:46.994Z</time></trkpt><trkpt lat="44.9324967" lon="8.532975"><ele>100.0</ele><time>2026-04-25T07:36:47.994Z</time></trkpt><trkpt lat="44.932425" lon="8.5332383"><ele>100.0</ele><time>2026-04-25T07:36:48.996Z</time></trkpt><trkpt lat="44.9323517" lon="8.5334967"><ele>100.0</ele><time>2026-04-25T07:36:49.997Z</time></trkpt><trkpt lat="44.93228" lon="8.53375"><ele>100.0</ele><time>2026-04-25T07:36:50.998Z</time></trkpt><trkpt lat="44.93221" lon="8.5339983"><ele>99.66666666666667</ele><time>2026-04-25T07:36:51.999Z</time></trkpt><trkpt lat="44.9321417" lon="8.5342433"><ele>99.33333333333334</ele><time>2026-04-25T07:36:52.998Z</time></trkpt><trkpt lat="44.9320733" lon="8.5344867"><ele>99.0</ele><time>2026-04-25T07:36:54Z</time></trkpt><trkpt lat="44.9320083" lon="8.5347217"><ele>99.0</ele><time>2026-04-25T07:36:54.997Z</time></trkpt><trkpt lat="44.9319467" lon="8.534945"><ele>99.0</ele><time>2026-04-25T07:36:55.997Z</time></trkpt><trkpt lat="44.9318883" lon="8.5351633"><ele>99.0</ele><time>2026-04-25T07:36:56.995Z</time></trkpt><trkpt lat="44.9318383" lon="8.5353733"><ele>99.0</ele><time>2026-04-25T07:36:57.994Z</time></trkpt><trkpt lat="44.9318" lon="8.5355867"><ele>99.0</ele><time>2026-04-25T07:36:58.997Z</time></trkpt><trkpt lat="44.931785" lon="8.535805"><ele>99.0</ele><time>2026-04-25T07:36:59.996Z</time></trkpt><trkpt lat="44.931795" lon="8.5360267"><ele>99.0</ele><time>2026-04-25T07:37:00.999Z</time></trkpt><trkpt lat="44.9318367" lon="8.5362533"><ele>99.0</ele><time>2026-04-25T07:37:01.994Z</time></trkpt><trkpt lat="44.9319033" lon="8.5364683"><ele>99.0</ele><time>2026-04-25T07:37:02.995Z</time></trkpt><trkpt lat="44.931985" lon="8.536665"><ele>99.0</ele><time>2026-04-25T07:37:03.997Z</time></trkpt><trkpt lat="44.9320683" lon="8.5368467"><ele>99.0</ele><time>2026-04-25T07:37:04.994Z</time></trkpt><trkpt lat="44.9321517" lon="8.5370133"><ele>99.0</ele><time>2026-04-25T07:37:06Z</time></trkpt><trkpt lat="44.9322167" lon="8.537185"><ele>99.0</ele><time>2026-04-25T07:37:06.997Z</time></trkpt><trkpt lat="44.9322617" lon="8.537355"><ele>99.0</ele><time>2026-04-25T07:37:08.001Z</time></trkpt><trkpt lat="44.9322783" lon="8.5375233"><ele>99.0</ele><time>2026-04-25T07:37:09.001Z</time></trkpt><trkpt lat="44.93226" lon="8.5376933"><ele>99.0</ele><time>2026-04-25T07:37:09.995Z</time></trkpt><trkpt lat="44.9322133" lon="8.5378533"><ele>99.0</ele><time>2026-04-25T07:37:10.992Z</time></trkpt><trkpt lat="44.9321383" lon="8.5379933"><ele>99.0</ele><time>2026-04-25T07:37:11.993Z</time></trkpt><trkpt lat="44.93205" lon="8.538115"><ele>99.0</ele><time>2026-04-25T07:37:12.999Z</time></trkpt><trkpt lat="44.9319533" lon="8.53821"><ele>99.0</ele><time>2026-04-25T07:37:13.997Z</time></trkpt><trkpt lat="44.9318383" lon="8.5382867"><ele>99.0</ele><time>2026-04-25T07:37:14.998Z</time></trkpt><trkpt lat="44.93172" lon="8.5383583"><ele>99.0</ele><time>2026-04-25T07:37:15.995Z</time></trkpt><trkpt lat="44.9316017" lon="8.5384367"><ele>99.0</ele><time>2026-04-25T07:37:16.994Z</time></trkpt><trkpt lat="44.931485" lon="8.53852"><ele>99.0</ele><time>2026-04-25T07:37:17.996Z</time></trkpt><trkpt lat="44.9313733" lon="8.538615"><ele>99.0</ele><time>2026-04-25T07:37:18.999Z</time></trkpt><trkpt lat="44.9312667" lon="8.5387483"><ele>99.0</ele><time>2026-04-25T07:37:19.994Z</time></trkpt><trkpt lat="44.9311667" lon="8.5389067"><ele>99.0</ele><time>2026-04-25T07:37:20.997Z</time></trkpt><trkpt lat="44.93107" lon="8.5390783"><ele>99.0</ele><time>2026-04-25T07:37:21.997Z</time></trkpt><trkpt lat="44.9309717" lon="8.53926"><ele>99.0</ele><time>2026-04-25T07:37:22.993Z</time></trkpt><trkpt lat="44.930875" lon="8.5394483"><ele>99.0</ele><time>2026-04-25T07:37:23.994Z</time></trkpt><trkpt lat="44.93078" lon="8.53963"><ele>99.0</ele><time>2026-04-25T07:37:24.996Z</time></trkpt><trkpt lat="44.930685" lon="8.53981"><ele>99.0</ele><time>2026-04-25T07:37:25.996Z</time></trkpt><trkpt lat="44.9305933" lon="8.5399883"><ele>99.0</ele><time>2026-04-25T07:37:26.999Z</time></trkpt><trkpt lat="44.9305083" lon="8.5401767"><ele>99.0</ele><time>2026-04-25T07:37:27.996Z</time></trkpt><trkpt lat="44.9304317" lon="8.54037"><ele>99.0</ele><time>2026-04-25T07:37:28.994Z</time></trkpt><trkpt lat="44.9303617" lon="8.540575"><ele>99.0</ele><time>2026-04-25T07:37:29.995Z</time></trkpt><trkpt lat="44.9303" lon="8.540785"><ele>99.0</ele><time>2026-04-25T07:37:30.995Z</time></trkpt><trkpt lat="44.93024" lon="8.540995"><ele>99.0</ele><time>2026-04-25T07:37:31.999Z</time></trkpt><trkpt lat="44.9301817" lon="8.5412083"><ele>99.0</ele><time>2026-04-25T07:37:33.001Z</time></trkpt><trkpt lat="44.9301233" lon="8.5414217"><ele>99.0</ele><time>2026-04-25T07:37:33.998Z</time></trkpt><trkpt lat="44.9300667" lon="8.5416383"><ele>98.66666666666666</ele><time>2026-04-25T07:37:34.996Z</time></trkpt><trkpt lat="44.93001" lon="8.5418583"><ele>98.33333333333333</ele><time>2026-04-25T07:37:35.994Z</time></trkpt><trkpt lat="44.9299517" lon="8.5420783"><ele>98.0</ele><time>2026-04-25T07:37:36.997Z</time></trkpt><trkpt lat="44.92989" lon="8.5422983"><ele>98.0</ele><time>2026-04-25T07:37:37.997Z</time></trkpt><trkpt lat="44.9298267" lon="8.5425217"><ele>98.0</ele><time>2026-04-25T07:37:39.001Z</time></trkpt><trkpt lat="44.9297633" lon="8.5427483"><ele>98.0</ele><time>2026-04-25T07:37:39.997Z</time></trkpt><trkpt lat="44.9297" lon="8.5429767"><ele>97.66666666666666</ele><time>2026-04-25T07:37:40.996Z</time></trkpt><trkpt lat="44.9296367" lon="8.543205"><ele>97.33333333333334</ele><time>2026-04-25T07:37:41.997Z</time></trkpt><trkpt lat="44.9295733" lon="8.5434333"><ele>97.0</ele><time>2026-04-25T07:37:42.998Z</time></trkpt><trkpt lat="44.9295083" lon="8.5436583"><ele>97.0</ele><time>2026-04-25T07:37:43.994Z</time></trkpt><trkpt lat="44.9294433" lon="8.5438883"><ele>97.0</ele><time>2026-04-25T07:37:44.996Z</time></trkpt><trkpt lat="44.9293783" lon="8.5441167"><ele>97.0</ele><time>2026-04-25T07:37:45.997Z</time></trkpt><trkpt lat="44.92931" lon="8.544345"><ele>97.0</ele><time>2026-04-25T07:37:46.991Z</time></trkpt><trkpt lat="44.9292367" lon="8.5445767"><ele>97.0</ele><time>2026-04-25T07:37:47.997Z</time></trkpt><trkpt lat="44.9291617" lon="8.544805"><ele>97.0</ele><time>2026-04-25T07:37:48.997Z</time></trkpt><trkpt lat="44.9290883" lon="8.5450367"><ele>97.0</ele><time>2026-04-25T07:37:49.999Z</time></trkpt><trkpt lat="44.9290167" lon="8.54527"><ele>97.0</ele><time>2026-04-25T07:37:50.994Z</time></trkpt><trkpt lat="44.9289433" lon="8.5455067"><ele>97.0</ele><time>2026-04-25T07:37:51.994Z</time></trkpt><trkpt lat="44.928865" lon="8.54575"><ele>97.0</ele><time>2026-04-25T07:37:52.995Z</time></trkpt><trkpt lat="44.9287867" lon="8.5459967"><ele>97.0</ele><time>2026-04-25T07:37:54.001Z</time></trkpt><trkpt lat="44.928705" lon="8.5462417"><ele>97.0</ele><time>2026-04-25T07:37:54.994Z</time></trkpt><trkpt lat="44.9286233" lon="8.5464867"><ele>97.0</ele><time>2026-04-25T07:37:55.997Z</time></trkpt><trkpt lat="44.9285433" lon="8.54674"><ele>97.0</ele><time>2026-04-25T07:37:56.995Z</time></trkpt><trkpt lat="44.92846" lon="8.5469917"><ele>97.0</ele><time>2026-04-25T07:37:58Z</time></trkpt><trkpt lat="44.92838" lon="8.547245"><ele>97.0</ele><time>2026-04-25T07:37:58.992Z</time></trkpt><trkpt lat="44.9282983" lon="8.547495"><ele>97.0</ele><time>2026-04-25T07:37:59.992Z</time></trkpt><trkpt lat="44.9282183" lon="8.5477433"><ele>97.0</ele><time>2026-04-25T07:38:01.002Z</time></trkpt><trkpt lat="44.928135" lon="8.547995"><ele>97.0</ele><time>2026-04-25T07:38:01.995Z</time></trkpt><trkpt lat="44.9280483" lon="8.5482517"><ele>97.0</ele><time>2026-04-25T07:38:02.998Z</time></trkpt><trkpt lat="44.9279617" lon="8.5485067"><ele>97.0</ele><time>2026-04-25T07:38:03.996Z</time></trkpt><trkpt lat="44.9278767" lon="8.5487633"><ele>96.66666666666667</ele><time>2026-04-25T07:38:04.996Z</time></trkpt><trkpt lat="44.9277933" lon="8.5490183"><ele>96.33333333333334</ele><time>2026-04-25T07:38:05.999Z</time></trkpt><trkpt lat="44.9277117" lon="8.5492783"><ele>96.0</ele><time>2026-04-25T07:38:06.998Z</time></trkpt><trkpt lat="44.92763" lon="8.5495417"><ele>96.0</ele><time>2026-04-25T07:38:07.999Z</time></trkpt><trkpt lat="44.9275467" lon="8.5498033"><ele>96.0</ele><time>2026-04-25T07:38:09.003Z</time></trkpt><trkpt lat="44.9274633" lon="8.5500617"><ele>96.0</ele><time>2026-04-25T07:38:09.999Z</time></trkpt><trkpt lat="44.9273783" lon="8.55032"><ele>96.33333333333334</ele><time>2026-04-25T07:38:10.995Z</time></trkpt><trkpt lat="44.9272983" lon="8.550575"><ele>96.66666666666667</ele><time>2026-04-25T07:38:11.994Z</time></trkpt><trkpt lat="44.9272167" lon="8.5508267"><ele>97.0</ele><time>2026-04-25T07:38:12.995Z</time></trkpt><trkpt lat="44.927135" lon="8.5510767"><ele>97.0</ele><time>2026-04-25T07:38:13.996Z</time></trkpt><trkpt lat="44.9270567" lon="8.55133"><ele>97.0</ele><time>2026-04-25T07:38:14.999Z</time></trkpt><trkpt lat="44.9269733" lon="8.5515933"><ele>97.0</ele><time>2026-04-25T07:38:15.995Z</time></trkpt><trkpt lat="44.9268917" lon="8.551855"><ele>97.0</ele><time>2026-04-25T07:38:16.995Z</time></trkpt><trkpt lat="44.926805" lon="8.5521283"><ele>97.0</ele><time>2026-04-25T07:38:17.995Z</time></trkpt><trkpt lat="44.9267183" lon="8.5523967"><ele>97.0</ele><time>2026-04-25T07:38:18.997Z</time></trkpt><trkpt lat="44.9266333" lon="8.55266"><ele>96.66666666666667</ele><time>2026-04-25T07:38:19.995Z</time></trkpt><trkpt lat="44.9265467" lon="8.552925"><ele>96.33333333333334</ele><time>2026-04-25T07:38:20.996Z</time></trkpt><trkpt lat="44.92646" lon="8.5531883"><ele>96.0</ele><time>2026-04-25T07:38:21.999Z</time></trkpt><trkpt lat="44.926375" lon="8.5534533"><ele>97.0</ele><time>2026-04-25T07:38:22.994Z</time></trkpt><trkpt lat="44.9262917" lon="8.55372"><ele>98.0</ele><time>2026-04-25T07:38:23.998Z</time></trkpt><trkpt lat="44.9262117" lon="8.5539867"><ele>99.0</ele><time>2026-04-25T07:38:24.998Z</time></trkpt><trkpt lat="44.9261317" lon="8.5542517"><ele>99.0</ele><time>2026-04-25T07:38:25.995Z</time></trkpt><trkpt lat="44.9260617" lon="8.5545217"><ele>99.0</ele><time>2026-04-25T07:38:26.998Z</time></trkpt><trkpt lat="44.9259983" lon="8.5547867"><ele>99.0</ele><time>2026-04-25T07:38:27.995Z</time></trkpt><trkpt lat="44.9259417" lon="8.55505"><ele>97.33333333333333</ele><time>2026-04-25T07:38:28.999Z</time></trkpt><trkpt lat="44.925885" lon="8.555305"><ele>95.66666666666666</ele><time>2026-04-25T07:38:30.002Z</time></trkpt><trkpt lat="44.9258317" lon="8.5555567"><ele>94.0</ele><time>2026-04-25T07:38:30.999Z</time></trkpt><trkpt lat="44.9257783" lon="8.5558033"><ele>94.0</ele><time>2026-04-25T07:38:31.992Z</time></trkpt><trkpt lat="44.92572" lon="8.5560483"><ele>94.0</ele><time>2026-04-25T07:38:33Z</time></trkpt><trkpt lat="44.92565" lon="8.556285"><ele>94.0</ele><time>2026-04-25T07:38:33.993Z</time></trkpt><trkpt lat="44.92556" lon="8.5565033"><ele>93.66666666666666</ele><time>2026-04-25T07:38:34.996Z</time></trkpt><trkpt lat="44.925455" lon="8.5567033"><ele>93.33333333333333</ele><time>2026-04-25T07:38:35.998Z</time></trkpt><trkpt lat="44.9253433" lon="8.5569"><ele>93.0</ele><time>2026-04-25T07:38:36.994Z</time></trkpt><trkpt lat="44.9252267" lon="8.5570967"><ele>93.0</ele><time>2026-04-25T07:38:38.001Z</time></trkpt><trkpt lat="44.92511" lon="8.557295"><ele>93.0</ele><time>2026-04-25T07:38:38.996Z</time></trkpt><trkpt lat="44.9249883" lon="8.5574833"><ele>93.0</ele><time>2026-04-25T07:38:39.998Z</time></trkpt><trkpt lat="44.9248567" lon="8.55766"><ele>93.33333333333333</ele><time>2026-04-25T07:38:40.996Z</time></trkpt><trkpt lat="44.92471" lon="8.5578167"><ele>93.66666666666666</ele><time>2026-04-25T07:38:41.995Z</time></trkpt><trkpt lat="44.9245567" lon="8.5579617"><ele>94.0</ele><time>2026-04-25T07:38:43Z</time></trkpt><trkpt lat="44.9244" lon="8.558095"><ele>94.0</ele><time>2026-04-25T07:38:43.996Z</time></trkpt><trkpt lat="44.92424" lon="8.55823"><ele>94.0</ele><time>2026-04-25T07:38:44.996Z</time></trkpt><trkpt lat="44.9240817" lon="8.5583633"><ele>94.0</ele><time>2026-04-25T07:38:45.999Z</time></trkpt><trkpt lat="44.923925" lon="8.5584967"><ele>93.66666666666666</ele><time>2026-04-25T07:38:46.996Z</time></trkpt><trkpt lat="44.9237683" lon="8.5586317"><ele>93.33333333333333</ele><time>2026-04-25T07:38:48Z</time></trkpt><trkpt lat="44.923615" lon="8.5587683"><ele>93.0</ele><time>2026-04-25T07:38:48.996Z</time></trkpt><trkpt lat="44.9234617" lon="8.558905"><ele>93.0</ele><time>2026-04-25T07:38:49.994Z</time></trkpt><trkpt lat="44.92331" lon="8.5590417"><ele>93.0</ele><time>2026-04-25T07:38:50.996Z</time></trkpt><trkpt lat="44.9231583" lon="8.5591733"><ele>93.0</ele><time>2026-04-25T07:38:51.996Z</time></trkpt><trkpt lat="44.9230083" lon="8.5593067"><ele>93.0</ele><time>2026-04-25T07:38:52.994Z</time></trkpt><trkpt lat="44.92286" lon="8.55944"><ele>93.0</ele><time>2026-04-25T07:38:53.992Z</time></trkpt><trkpt lat="44.9227133" lon="8.55957"><ele>93.0</ele><time>2026-04-25T07:38:54.996Z</time></trkpt><trkpt lat="44.9225683" lon="8.5596967"><ele>92.66666666666667</ele><time>2026-04-25T07:38:55.998Z</time></trkpt><trkpt lat="44.9224317" lon="8.5598283"><ele>92.33333333333334</ele><time>2026-04-25T07:38:56.997Z</time></trkpt><trkpt lat="44.9223" lon="8.5599467"><ele>92.0</ele><time>2026-04-25T07:38:58.001Z</time></trkpt><trkpt lat="44.92217" lon="8.560055"><ele>92.0</ele><time>2026-04-25T07:38:59Z</time></trkpt><trkpt lat="44.9220533" lon="8.5601583"><ele>92.0</ele><time>2026-04-25T07:38:59.999Z</time></trkpt><trkpt lat="44.9219517" lon="8.5602517"><ele>92.0</ele><time>2026-04-25T07:39:00.998Z</time></trkpt><trkpt lat="44.9218667" lon="8.5603283"><ele>92.0</ele><time>2026-04-25T07:39:02.001Z</time></trkpt><trkpt lat="44.9217967" lon="8.56039"><ele>92.0</ele><time>2026-04-25T07:39:02.998Z</time></trkpt><trkpt lat="44.9217317" lon="8.5604367"><ele>92.0</ele><time>2026-04-25T07:39:03.998Z</time></trkpt><trkpt lat="44.921635" lon="8.5604583"><ele>92.0</ele><time>2026-04-25T07:39:05.996Z</time></trkpt><trkpt lat="44.9215383" lon="8.560385"><ele>92.0</ele><time>2026-04-25T07:39:07.998Z</time></trkpt><trkpt lat="44.9214783" lon="8.560345"><ele>92.0</ele><time>2026-04-25T07:39:08.995Z</time></trkpt><trkpt lat="44.9213583" lon="8.560355"><ele>92.0</ele><time>2026-04-25T07:39:10.995Z</time></trkpt><trkpt lat="44.9212917" lon="8.5604833"><ele>91.83333333333334</ele><time>2026-04-25T07:39:12.998Z</time></trkpt><trkpt lat="44.921285" lon="8.5605783"><ele>91.66666666666667</ele><time>2026-04-25T07:39:13.998Z</time></trkpt><trkpt lat="44.9213233" lon="8.5606933"><ele>91.5</ele><time>2026-04-25T07:39:14.995Z</time></trkpt><trkpt lat="44.921375" lon="8.5607917"><ele>91.33333333333333</ele><time>2026-04-25T07:39:15.997Z</time></trkpt><trkpt lat="44.9214233" lon="8.5609"><ele>91.16666666666666</ele><time>2026-04-25T07:39:16.996Z</time></trkpt><trkpt lat="44.9214633" lon="8.56103"><ele>91.0</ele><time>2026-04-25T07:39:17.997Z</time></trkpt><trkpt lat="44.92149" lon="8.5611783"><ele>91.25</ele><time>2026-04-25T07:39:18.999Z</time></trkpt><trkpt lat="44.9215133" lon="8.561335"><ele>91.5</ele><time>2026-04-25T07:39:19.997Z</time></trkpt><trkpt lat="44.9215233" lon="8.5614983"><ele>91.75</ele><time>2026-04-25T07:39:20.995Z</time></trkpt><trkpt lat="44.92153" lon="8.5616717"><ele>92.0</ele><time>2026-04-25T07:39:21.998Z</time></trkpt><trkpt lat="44.9215383" lon="8.5618567"><ele>92.25</ele><time>2026-04-25T07:39:22.997Z</time></trkpt><trkpt lat="44.9215433" lon="8.5620417"><ele>92.5</ele><time>2026-04-25T07:39:23.994Z</time></trkpt><trkpt lat="44.9215467" lon="8.5622283"><ele>92.75</ele><time>2026-04-25T07:39:24.998Z</time></trkpt><trkpt lat="44.9215467" lon="8.5624117"><ele>93.0</ele><time>2026-04-25T07:39:25.997Z</time></trkpt><trkpt lat="44.92155" lon="8.5625933"><ele>93.0</ele><time>2026-04-25T07:39:26.998Z</time></trkpt><trkpt lat="44.921555" lon="8.5627733"><ele>93.0</ele><time>2026-04-25T07:39:27.993Z</time></trkpt><trkpt lat="44.9215567" lon="8.56295"><ele>93.0</ele><time>2026-04-25T07:39:28.993Z</time></trkpt><trkpt lat="44.921555" lon="8.563135"><ele>93.0</ele><time>2026-04-25T07:39:29.999Z</time></trkpt><trkpt lat="44.9215583" lon="8.563315"><ele>92.75</ele><time>2026-04-25T07:39:30.997Z</time></trkpt><trkpt lat="44.9215617" lon="8.5635"><ele>92.5</ele><time>2026-04-25T07:39:31.998Z</time></trkpt><trkpt lat="44.921565" lon="8.56369"><ele>92.25</ele><time>2026-04-25T07:39:32.997Z</time></trkpt><trkpt lat="44.9215717" lon="8.56388"><ele>92.0</ele><time>2026-04-25T07:39:33.996Z</time></trkpt><trkpt lat="44.9215783" lon="8.5640733"><ele>92.0</ele><time>2026-04-25T07:39:35.002Z</time></trkpt><trkpt lat="44.92158" lon="8.5642717"><ele>92.0</ele><time>2026-04-25T07:39:36.001Z</time></trkpt><trkpt lat="44.92158" lon="8.56447"><ele>92.0</ele><time>2026-04-25T07:39:37.002Z</time></trkpt><trkpt lat="44.9215833" lon="8.56467"><ele>92.0</ele><time>2026-04-25T07:39:37.991Z</time></trkpt><trkpt lat="44.9215883" lon="8.5648667"><ele>92.0</ele><time>2026-04-25T07:39:38.996Z</time></trkpt><trkpt lat="44.9215933" lon="8.5650533"><ele>92.0</ele><time>2026-04-25T07:39:39.997Z</time></trkpt><trkpt lat="44.9215967" lon="8.56523"><ele>92.0</ele><time>2026-04-25T07:39:40.992Z</time></trkpt><trkpt lat="44.9215983" lon="8.565405"><ele>92.0</ele><time>2026-04-25T07:39:41.993Z</time></trkpt><trkpt lat="44.9216" lon="8.5655767"><ele>92.25</ele><time>2026-04-25T07:39:42.994Z</time></trkpt><trkpt lat="44.9216067" lon="8.5657467"><ele>92.5</ele><time>2026-04-25T07:39:43.999Z</time></trkpt><trkpt lat="44.9216117" lon="8.5659267"><ele>92.75</ele><time>2026-04-25T07:39:44.994Z</time></trkpt><trkpt lat="44.9216167" lon="8.5661133"><ele>93.0</ele><time>2026-04-25T07:39:45.995Z</time></trkpt><trkpt lat="44.9216217" lon="8.566305"><ele>93.0</ele><time>2026-04-25T07:39:46.998Z</time></trkpt><trkpt lat="44.9216267" lon="8.5665017"><ele>93.0</ele><time>2026-04-25T07:39:47.994Z</time></trkpt><trkpt lat="44.9216333" lon="8.5667017"><ele>93.0</ele><time>2026-04-25T07:39:48.994Z</time></trkpt><trkpt lat="44.9216383" lon="8.566905"><ele>93.0</ele><time>2026-04-25T07:39:49.996Z</time></trkpt><trkpt lat="44.9216383" lon="8.567115"><ele>92.5</ele><time>2026-04-25T07:39:50.996Z</time></trkpt><trkpt lat="44.9216417" lon="8.5673233"><ele>92.0</ele><time>2026-04-25T07:39:51.998Z</time></trkpt><trkpt lat="44.9216433" lon="8.5675333"><ele>91.5</ele><time>2026-04-25T07:39:52.995Z</time></trkpt><trkpt lat="44.9216467" lon="8.56774"><ele>91.0</ele><time>2026-04-25T07:39:53.998Z</time></trkpt><trkpt lat="44.9216483" lon="8.5679433"><ele>91.0</ele><time>2026-04-25T07:39:55Z</time></trkpt><trkpt lat="44.92165" lon="8.5681433"><ele>91.0</ele><time>2026-04-25T07:39:55.998Z</time></trkpt><trkpt lat="44.9216517" lon="8.5683367"><ele>91.0</ele><time>2026-04-25T07:39:56.994Z</time></trkpt><trkpt lat="44.9216533" lon="8.5685283"><ele>91.0</ele><time>2026-04-25T07:39:58.002Z</time></trkpt><trkpt lat="44.921655" lon="8.5687183"><ele>91.0</ele><time>2026-04-25T07:39:58.999Z</time></trkpt><trkpt lat="44.9216583" lon="8.5689133"><ele>91.0</ele><time>2026-04-25T07:39:59.998Z</time></trkpt><trkpt lat="44.92166" lon="8.5691083"><ele>91.0</ele><time>2026-04-25T07:40:01Z</time></trkpt><trkpt lat="44.921665" lon="8.5693067"><ele>91.0</ele><time>2026-04-25T07:40:01.996Z</time></trkpt><trkpt lat="44.9216683" lon="8.5695117"><ele>91.25</ele><time>2026-04-25T07:40:02.994Z</time></trkpt><trkpt lat="44.9216717" lon="8.5697167"><ele>91.5</ele><time>2026-04-25T07:40:03.995Z</time></trkpt><trkpt lat="44.9216767" lon="8.5699217"><ele>91.75</ele><time>2026-04-25T07:40:04.993Z</time></trkpt><trkpt lat="44.9216817" lon="8.57013"><ele>92.0</ele><time>2026-04-25T07:40:05.995Z</time></trkpt><trkpt lat="44.9216883" lon="8.570335"><ele>91.75</ele><time>2026-04-25T07:40:06.995Z</time></trkpt><trkpt lat="44.9216917" lon="8.57054"><ele>91.5</ele><time>2026-04-25T07:40:07.994Z</time></trkpt><trkpt lat="44.921695" lon="8.570745"><ele>91.25</ele><time>2026-04-25T07:40:08.994Z</time></trkpt><trkpt lat="44.9216983" lon="8.57095"><ele>91.0</ele><time>2026-04-25T07:40:09.995Z</time></trkpt><trkpt lat="44.9217017" lon="8.5711533"><ele>91.0</ele><time>2026-04-25T07:40:10.997Z</time></trkpt><trkpt lat="44.921705" lon="8.5713633"><ele>91.0</ele><time>2026-04-25T07:40:12.002Z</time></trkpt><trkpt lat="44.92171" lon="8.5715733"><ele>91.0</ele><time>2026-04-25T07:40:12.996Z</time></trkpt><trkpt lat="44.921715" lon="8.5717833"><ele>91.0</ele><time>2026-04-25T07:40:14.001Z</time></trkpt><trkpt lat="44.9217217" lon="8.5719983"><ele>91.0</ele><time>2026-04-25T07:40:14.999Z</time></trkpt><trkpt lat="44.9217283" lon="8.5722117"><ele>91.0</ele><time>2026-04-25T07:40:15.995Z</time></trkpt><trkpt lat="44.9217383" lon="8.5724283"><ele>91.0</ele><time>2026-04-25T07:40:17Z</time></trkpt><trkpt lat="44.92175" lon="8.57264"><ele>90.66666666666666</ele><time>2026-04-25T07:40:17.996Z</time></trkpt><trkpt lat="44.9217583" lon="8.5728517"><ele>90.33333333333333</ele><time>2026-04-25T07:40:18.999Z</time></trkpt><trkpt lat="44.92177" lon="8.573065"><ele>90.0</ele><time>2026-04-25T07:40:20.002Z</time></trkpt><trkpt lat="44.9217817" lon="8.5732767"><ele>90.33333333333333</ele><time>2026-04-25T07:40:21.001Z</time></trkpt><trkpt lat="44.9217933" lon="8.57349"><ele>90.66666666666666</ele><time>2026-04-25T07:40:21.997Z</time></trkpt><trkpt lat="44.9218033" lon="8.5737017"><ele>91.0</ele><time>2026-04-25T07:40:23.001Z</time></trkpt><trkpt lat="44.9218133" lon="8.5739117"><ele>91.0</ele><time>2026-04-25T07:40:24Z</time></trkpt><trkpt lat="44.9218233" lon="8.5741233"><ele>91.0</ele><time>2026-04-25T07:40:24.999Z</time></trkpt><trkpt lat="44.9218367" lon="8.5743333"><ele>91.0</ele><time>2026-04-25T07:40:26Z</time></trkpt><trkpt lat="44.9218533" lon="8.5745383"><ele>91.0</ele><time>2026-04-25T07:40:26.999Z</time></trkpt><trkpt lat="44.9218667" lon="8.5747433"><ele>90.5</ele><time>2026-04-25T07:40:27.998Z</time></trkpt><trkpt lat="44.92188" lon="8.5749433"><ele>90.0</ele><time>2026-04-25T07:40:28.995Z</time></trkpt><trkpt lat="44.9218967" lon="8.57513"><ele>89.5</ele><time>2026-04-25T07:40:29.999Z</time></trkpt><trkpt lat="44.92192" lon="8.5753017"><ele>89.0</ele><time>2026-04-25T07:40:30.994Z</time></trkpt><trkpt lat="44.9219333" lon="8.5754433"><ele>89.0</ele><time>2026-04-25T07:40:31.998Z</time></trkpt><trkpt lat="44.9219433" lon="8.5755617"><ele>89.0</ele><time>2026-04-25T07:40:32.998Z</time></trkpt><trkpt lat="44.92194" lon="8.5756617"><ele>89.0</ele><time>2026-04-25T07:40:33.997Z</time></trkpt><trkpt lat="44.92192" lon="8.5757467"><ele>89.0</ele><time>2026-04-25T07:40:34.996Z</time></trkpt><trkpt lat="44.9218783" lon="8.575835"><ele>89.0</ele><time>2026-04-25T07:40:35.992Z</time></trkpt><trkpt lat="44.9218367" lon="8.575925"><ele>89.0</ele><time>2026-04-25T07:40:36.998Z</time></trkpt><trkpt lat="44.9218033" lon="8.5760317"><ele>89.0</ele><time>2026-04-25T07:40:37.993Z</time></trkpt><trkpt lat="44.9217833" lon="8.5761467"><ele>89.0</ele><time>2026-04-25T07:40:39.003Z</time></trkpt><trkpt lat="44.9217817" lon="8.5762817"><ele>89.0</ele><time>2026-04-25T07:40:39.994Z</time></trkpt><trkpt lat="44.9218167" lon="8.5764217"><ele>89.0</ele><time>2026-04-25T07:40:40.994Z</time></trkpt><trkpt lat="44.9218433" lon="8.5765633"><ele>89.0</ele><time>2026-04-25T07:40:41.997Z</time></trkpt><trkpt lat="44.921855" lon="8.57671"><ele>89.0</ele><time>2026-04-25T07:40:42.998Z</time></trkpt><trkpt lat="44.9218567" lon="8.5768717"><ele>89.0</ele><time>2026-04-25T07:40:43.995Z</time></trkpt><trkpt lat="44.9218467" lon="8.5770433"><ele>89.0</ele><time>2026-04-25T07:40:45.003Z</time></trkpt><trkpt lat="44.9218367" lon="8.577225"><ele>89.0</ele><time>2026-04-25T07:40:45.997Z</time></trkpt><trkpt lat="44.9218267" lon="8.5774133"><ele>89.5</ele><time>2026-04-25T07:40:46.999Z</time></trkpt><trkpt lat="44.921825" lon="8.5776083"><ele>90.0</ele><time>2026-04-25T07:40:47.998Z</time></trkpt><trkpt lat="44.9218267" lon="8.5777983"><ele>90.5</ele><time>2026-04-25T07:40:48.997Z</time></trkpt><trkpt lat="44.9218333" lon="8.5779967"><ele>91.0</ele><time>2026-04-25T07:40:49.998Z</time></trkpt><trkpt lat="44.9218333" lon="8.5781983"><ele>91.0</ele><time>2026-04-25T07:40:50.999Z</time></trkpt><trkpt lat="44.921835" lon="8.5783967"><ele>91.0</ele><time>2026-04-25T07:40:52.003Z</time></trkpt><trkpt lat="44.9218417" lon="8.578595"><ele>91.0</ele><time>2026-04-25T07:40:52.997Z</time></trkpt><trkpt lat="44.9218467" lon="8.5787933"><ele>91.0</ele><time>2026-04-25T07:40:53.995Z</time></trkpt><trkpt lat="44.921855" lon="8.5789933"><ele>91.0</ele><time>2026-04-25T07:40:54.997Z</time></trkpt><trkpt lat="44.9218583" lon="8.5792017"><ele>91.0</ele><time>2026-04-25T07:40:55.994Z</time></trkpt><trkpt lat="44.9218617" lon="8.5794067"><ele>91.0</ele><time>2026-04-25T07:40:56.997Z</time></trkpt><trkpt lat="44.921865" lon="8.5796117"><ele>91.0</ele><time>2026-04-25T07:40:58Z</time></trkpt><trkpt lat="44.921865" lon="8.57982"><ele>90.33333333333333</ele><time>2026-04-25T07:40:59Z</time></trkpt><trkpt lat="44.921865" lon="8.5800317"><ele>89.66666666666667</ele><time>2026-04-25T07:40:59.995Z</time></trkpt><trkpt lat="44.9218667" lon="8.580245"><ele>89.0</ele><time>2026-04-25T07:41:00.995Z</time></trkpt><trkpt lat="44.9218717" lon="8.580455"><ele>89.0</ele><time>2026-04-25T07:41:01.992Z</time></trkpt><trkpt lat="44.921875" lon="8.58066"><ele>89.0</ele><time>2026-04-25T07:41:03Z</time></trkpt><trkpt lat="44.9218783" lon="8.5808633"><ele>89.0</ele><time>2026-04-25T07:41:03.993Z</time></trkpt><trkpt lat="44.9218833" lon="8.5810683"><ele>89.0</ele><time>2026-04-25T07:41:04.999Z</time></trkpt><trkpt lat="44.9218883" lon="8.5812617"><ele>89.4</ele><time>2026-04-25T07:41:05.992Z</time></trkpt><trkpt lat="44.92189" lon="8.58144"><ele>89.80000000000001</ele><time>2026-04-25T07:41:06.997Z</time></trkpt><trkpt lat="44.92189" lon="8.581595"><ele>90.19999999999999</ele><time>2026-04-25T07:41:07.997Z</time></trkpt><trkpt lat="44.9218867" lon="8.5817383"><ele>90.6</ele><time>2026-04-25T07:41:09.004Z</time></trkpt><trkpt lat="44.921875" lon="8.581875"><ele>91.0</ele><time>2026-04-25T07:41:09.994Z</time></trkpt><trkpt lat="44.9218517" lon="8.5820033"><ele>91.16666666666666</ele><time>2026-04-25T07:41:10.997Z</time></trkpt><trkpt lat="44.9218183" lon="8.58212"><ele>91.33333333333333</ele><time>2026-04-25T07:41:11.999Z</time></trkpt><trkpt lat="44.9217733" lon="8.5822233"><ele>91.5</ele><time>2026-04-25T07:41:12.995Z</time></trkpt><trkpt lat="44.921725" lon="8.5823267"><ele>91.66666666666667</ele><time>2026-04-25T07:41:13.999Z</time></trkpt><trkpt lat="44.9216917" lon="8.5824383"><ele>91.83333333333334</ele><time>2026-04-25T07:41:15Z</time></trkpt><trkpt lat="44.9216767" lon="8.5825617"><ele>92.0</ele><time>2026-04-25T07:41:15.997Z</time></trkpt><trkpt lat="44.921675" lon="8.5826833"><ele>92.0</ele><time>2026-04-25T07:41:16.998Z</time></trkpt><trkpt lat="44.9217467" lon="8.5828067"><ele>92.0</ele><time>2026-04-25T07:41:17.993Z</time></trkpt><trkpt lat="44.9218" lon="8.5829267"><ele>92.0</ele><time>2026-04-25T07:41:18.997Z</time></trkpt><trkpt lat="44.9218567" lon="8.583055"><ele>92.0</ele><time>2026-04-25T07:41:19.998Z</time></trkpt><trkpt lat="44.921895" lon="8.5831967"><ele>92.0</ele><time>2026-04-25T07:41:20.998Z</time></trkpt><trkpt lat="44.9219167" lon="8.5833517"><ele>92.0</ele><time>2026-04-25T07:41:22.003Z</time></trkpt><trkpt lat="44.9219233" lon="8.5835233"><ele>92.0</ele><time>2026-04-25T07:41:23.001Z</time></trkpt><trkpt lat="44.9219283" lon="8.5837067"><ele>92.0</ele><time>2026-04-25T07:41:23.994Z</time></trkpt><trkpt lat="44.9219317" lon="8.583895"><ele>92.0</ele><time>2026-04-25T07:41:25Z</time></trkpt><trkpt lat="44.9219367" lon="8.5840817"><ele>92.0</ele><time>2026-04-25T07:41:26.002Z</time></trkpt><trkpt lat="44.92194" lon="8.5842733"><ele>92.0</ele><time>2026-04-25T07:41:26.992Z</time></trkpt><trkpt lat="44.921945" lon="8.5844667"><ele>92.0</ele><time>2026-04-25T07:41:27.993Z</time></trkpt><trkpt lat="44.9219517" lon="8.5846617"><ele>92.0</ele><time>2026-04-25T07:41:28.996Z</time></trkpt><trkpt lat="44.9219567" lon="8.5848567"><ele>92.0</ele><time>2026-04-25T07:41:29.996Z</time></trkpt><trkpt lat="44.9219633" lon="8.5850517"><ele>92.0</ele><time>2026-04-25T07:41:30.993Z</time></trkpt><trkpt lat="44.92197" lon="8.5852483"><ele>92.0</ele><time>2026-04-25T07:41:31.996Z</time></trkpt><trkpt lat="44.9219833" lon="8.5854417"><ele>92.0</ele><time>2026-04-25T07:41:32.996Z</time></trkpt><trkpt lat="44.922" lon="8.585635"><ele>92.25</ele><time>2026-04-25T07:41:34.001Z</time></trkpt><trkpt lat="44.92202" lon="8.5858267"><ele>92.5</ele><time>2026-04-25T07:41:34.998Z</time></trkpt><trkpt lat="44.9220417" lon="8.5860167"><ele>92.75</ele><time>2026-04-25T07:41:35.993Z</time></trkpt><trkpt lat="44.9220617" lon="8.5862067"><ele>93.0</ele><time>2026-04-25T07:41:36.996Z</time></trkpt><trkpt lat="44.92208" lon="8.5863967"><ele>93.0</ele><time>2026-04-25T07:41:37.995Z</time></trkpt><trkpt lat="44.9220967" lon="8.5865917"><ele>93.0</ele><time>2026-04-25T07:41:38.994Z</time></trkpt><trkpt lat="44.9221167" lon="8.5867867"><ele>93.0</ele><time>2026-04-25T07:41:39.993Z</time></trkpt><trkpt lat="44.9221317" lon="8.5869833"><ele>93.0</ele><time>2026-04-25T07:41:40.994Z</time></trkpt><trkpt lat="44.9221483" lon="8.587185"><ele>92.75</ele><time>2026-04-25T07:41:42Z</time></trkpt><trkpt lat="44.9221667" lon="8.587385"><ele>92.5</ele><time>2026-04-25T07:41:42.996Z</time></trkpt><trkpt lat="44.92218" lon="8.5875867"><ele>92.25</ele><time>2026-04-25T07:41:43.998Z</time></trkpt><trkpt lat="44.9221883" lon="8.5877883"><ele>92.0</ele><time>2026-04-25T07:41:45.002Z</time></trkpt><trkpt lat="44.9221883" lon="8.5879917"><ele>92.0</ele><time>2026-04-25T07:41:46.001Z</time></trkpt><trkpt lat="44.9221883" lon="8.5881933"><ele>92.0</ele><time>2026-04-25T07:41:47Z</time></trkpt><trkpt lat="44.9221867" lon="8.588395"><ele>92.0</ele><time>2026-04-25T07:41:48Z</time></trkpt><trkpt lat="44.92218" lon="8.5885983"><ele>92.0</ele><time>2026-04-25T07:41:49Z</time></trkpt><trkpt lat="44.9221717" lon="8.5888017"><ele>91.75</ele><time>2026-04-25T07:41:50Z</time></trkpt><trkpt lat="44.9221517" lon="8.5890083"><ele>91.5</ele><time>2026-04-25T07:41:51.002Z</time></trkpt><trkpt lat="44.9221167" lon="8.5892117"><ele>91.25</ele><time>2026-04-25T07:41:51.996Z</time></trkpt><trkpt lat="44.92207" lon="8.5894033"><ele>91.0</ele><time>2026-04-25T07:41:53.001Z</time></trkpt><trkpt lat="44.9220083" lon="8.5895833"><ele>91.0</ele><time>2026-04-25T07:41:53.996Z</time></trkpt><trkpt lat="44.9219383" lon="8.5897617"><ele>91.0</ele><time>2026-04-25T07:41:55.002Z</time></trkpt><trkpt lat="44.92186" lon="8.5899417"><ele>91.0</ele><time>2026-04-25T07:41:56.004Z</time></trkpt><trkpt lat="44.92178" lon="8.5901217"><ele>91.0</ele><time>2026-04-25T07:41:57.003Z</time></trkpt><trkpt lat="44.9217017" lon="8.5903017"><ele>91.25</ele><time>2026-04-25T07:41:57.998Z</time></trkpt><trkpt lat="44.9216233" lon="8.5904817"><ele>91.5</ele><time>2026-04-25T07:41:58.997Z</time></trkpt><trkpt lat="44.9215483" lon="8.590665"><ele>91.75</ele><time>2026-04-25T07:41:59.996Z</time></trkpt><trkpt lat="44.9214717" lon="8.5908433"><ele>92.0</ele><time>2026-04-25T07:42:00.997Z</time></trkpt><trkpt lat="44.9213967" lon="8.5910167"><ele>92.0</ele><time>2026-04-25T07:42:01.996Z</time></trkpt><trkpt lat="44.9213233" lon="8.591185"><ele>92.0</ele><time>2026-04-25T07:42:02.998Z</time></trkpt><trkpt lat="44.92125" lon="8.5913533"><ele>92.0</ele><time>2026-04-25T07:42:03.999Z</time></trkpt><trkpt lat="44.9211783" lon="8.591525"><ele>92.0</ele><time>2026-04-25T07:42:04.993Z</time></trkpt><trkpt lat="44.921105" lon="8.59169"><ele>92.0</ele><time>2026-04-25T07:42:05.999Z</time></trkpt><trkpt lat="44.92103" lon="8.5918567"><ele>92.0</ele><time>2026-04-25T07:42:06.997Z</time></trkpt><trkpt lat="44.9209583" lon="8.5920267"><ele>92.0</ele><time>2026-04-25T07:42:07.998Z</time></trkpt><trkpt lat="44.920885" lon="8.59219"><ele>92.0</ele><time>2026-04-25T07:42:08.994Z</time></trkpt><trkpt lat="44.9208117" lon="8.5923517"><ele>91.5</ele><time>2026-04-25T07:42:09.995Z</time></trkpt><trkpt lat="44.9207417" lon="8.5925083"><ele>91.0</ele><time>2026-04-25T07:42:10.999Z</time></trkpt><trkpt lat="44.9206733" lon="8.592665"><ele>90.5</ele><time>2026-04-25T07:42:12Z</time></trkpt><trkpt lat="44.9206067" lon="8.59282"><ele>90.0</ele><time>2026-04-25T07:42:12.995Z</time></trkpt><trkpt lat="44.9205467" lon="8.592965"><ele>90.0</ele><time>2026-04-25T07:42:13.995Z</time></trkpt><trkpt lat="44.9204917" lon="8.5931067"><ele>90.0</ele><time>2026-04-25T07:42:14.996Z</time></trkpt><trkpt lat="44.9204517" lon="8.5932483"><ele>90.0</ele><time>2026-04-25T07:42:15.996Z</time></trkpt><trkpt lat="44.9204283" lon="8.5933767"><ele>90.0</ele><time>2026-04-25T07:42:16.999Z</time></trkpt><trkpt lat="44.9204067" lon="8.5934883"><ele>90.0</ele><time>2026-04-25T07:42:18.004Z</time></trkpt><trkpt lat="44.9203783" lon="8.5935967"><ele>90.0</ele><time>2026-04-25T07:42:18.994Z</time></trkpt><trkpt lat="44.920335" lon="8.5937"><ele>90.0</ele><time>2026-04-25T07:42:19.998Z</time></trkpt><trkpt lat="44.9202833" lon="8.5938033"><ele>90.0</ele><time>2026-04-25T07:42:20.995Z</time></trkpt><trkpt lat="44.920235" lon="8.593915"><ele>90.0</ele><time>2026-04-25T07:42:21.996Z</time></trkpt><trkpt lat="44.920185" lon="8.59403"><ele>90.0</ele><time>2026-04-25T07:42:22.997Z</time></trkpt><trkpt lat="44.9201217" lon="8.59413"><ele>90.0</ele><time>2026-04-25T07:42:23.997Z</time></trkpt><trkpt lat="44.92005" lon="8.5942267"><ele>90.0</ele><time>2026-04-25T07:42:24.996Z</time></trkpt><trkpt lat="44.91998" lon="8.5943317"><ele>90.0</ele><time>2026-04-25T07:42:25.999Z</time></trkpt><trkpt lat="44.9199167" lon="8.5944533"><ele>90.0</ele><time>2026-04-25T07:42:26.998Z</time></trkpt><trkpt lat="44.9198583" lon="8.5945833"><ele>90.0</ele><time>2026-04-25T07:42:27.995Z</time></trkpt><trkpt lat="44.919795" lon="8.5947167"><ele>89.75</ele><time>2026-04-25T07:42:28.996Z</time></trkpt><trkpt lat="44.91973" lon="8.5948633"><ele>89.5</ele><time>2026-04-25T07:42:29.996Z</time></trkpt><trkpt lat="44.9196667" lon="8.5950117"><ele>89.25</ele><time>2026-04-25T07:42:30.995Z</time></trkpt><trkpt lat="44.9196033" lon="8.59516"><ele>89.0</ele><time>2026-04-25T07:42:31.995Z</time></trkpt><trkpt lat="44.9195367" lon="8.595315"><ele>89.0</ele><time>2026-04-25T07:42:32.996Z</time></trkpt><trkpt lat="44.9194667" lon="8.5954767"><ele>89.0</ele><time>2026-04-25T07:42:34Z</time></trkpt><trkpt lat="44.9194017" lon="8.59563"><ele>89.0</ele><time>2026-04-25T07:42:35Z</time></trkpt><trkpt lat="44.9193383" lon="8.595775"><ele>89.0</ele><time>2026-04-25T07:42:35.998Z</time></trkpt><trkpt lat="44.919275" lon="8.5959217"><ele>89.25</ele><time>2026-04-25T07:42:36.997Z</time></trkpt><trkpt lat="44.91921" lon="8.5960617"><ele>89.5</ele><time>2026-04-25T07:42:37.997Z</time></trkpt><trkpt lat="44.9191467" lon="8.5962067"><ele>89.75</ele><time>2026-04-25T07:42:38.995Z</time></trkpt><trkpt lat="44.9190817" lon="8.596355"><ele>90.0</ele><time>2026-04-25T07:42:39.995Z</time></trkpt><trkpt lat="44.9190183" lon="8.5965067"><ele>90.0</ele><time>2026-04-25T07:42:40.997Z</time></trkpt><trkpt lat="44.9189517" lon="8.59666"><ele>90.0</ele><time>2026-04-25T07:42:41.994Z</time></trkpt><trkpt lat="44.9188783" lon="8.5968033"><ele>90.0</ele><time>2026-04-25T07:42:42.997Z</time></trkpt><trkpt lat="44.9188083" lon="8.59696"><ele>90.0</ele><time>2026-04-25T07:42:43.997Z</time></trkpt><trkpt lat="44.9187333" lon="8.5971217"><ele>90.0</ele><time>2026-04-25T07:42:45.006Z</time></trkpt><trkpt lat="44.9186633" lon="8.5972867"><ele>90.0</ele><time>2026-04-25T07:42:45.993Z</time></trkpt><trkpt lat="44.918595" lon="8.5974417"><ele>90.0</ele><time>2026-04-25T07:42:46.994Z</time></trkpt><trkpt lat="44.918525" lon="8.5976033"><ele>90.0</ele><time>2026-04-25T07:42:47.994Z</time></trkpt><trkpt lat="44.9184517" lon="8.5977683"><ele>90.75</ele><time>2026-04-25T07:42:48.994Z</time></trkpt><trkpt lat="44.9183817" lon="8.5979417"><ele>91.5</ele><time>2026-04-25T07:42:49.997Z</time></trkpt><trkpt lat="44.91831" lon="8.59811"><ele>92.25</ele><time>2026-04-25T07:42:50.996Z</time></trkpt><trkpt lat="44.9182417" lon="8.5982767"><ele>93.0</ele><time>2026-04-25T07:42:51.996Z</time></trkpt><trkpt lat="44.9181733" lon="8.5984417"><ele>93.0</ele><time>2026-04-25T07:42:52.995Z</time></trkpt><trkpt lat="44.9181033" lon="8.5986033"><ele>93.0</ele><time>2026-04-25T07:42:54.001Z</time></trkpt><trkpt lat="44.9180333" lon="8.59876"><ele>93.0</ele><time>2026-04-25T07:42:54.998Z</time></trkpt><trkpt lat="44.9179667" lon="8.5989183"><ele>93.0</ele><time>2026-04-25T07:42:56.004Z</time></trkpt><trkpt lat="44.9179067" lon="8.5990667"><ele>93.0</ele><time>2026-04-25T07:42:56.993Z</time></trkpt><trkpt lat="44.9178517" lon="8.599215"><ele>93.0</ele><time>2026-04-25T07:42:57.993Z</time></trkpt><trkpt lat="44.9178017" lon="8.59936"><ele>93.0</ele><time>2026-04-25T07:42:58.993Z</time></trkpt><trkpt lat="44.9177533" lon="8.5995"><ele>93.0</ele><time>2026-04-25T07:42:59.997Z</time></trkpt><trkpt lat="44.9177067" lon="8.5996367"><ele>93.0</ele><time>2026-04-25T07:43:00.995Z</time></trkpt><trkpt lat="44.9176583" lon="8.599765"><ele>93.0</ele><time>2026-04-25T07:43:01.997Z</time></trkpt><trkpt lat="44.917605" lon="8.5998817"><ele>93.0</ele><time>2026-04-25T07:43:02.998Z</time></trkpt><trkpt lat="44.9175467" lon="8.5999833"><ele>93.0</ele><time>2026-04-25T07:43:03.996Z</time></trkpt><trkpt lat="44.91748" lon="8.600065"><ele>93.0</ele><time>2026-04-25T07:43:04.997Z</time></trkpt><trkpt lat="44.9174167" lon="8.600125"><ele>93.0</ele><time>2026-04-25T07:43:05.994Z</time></trkpt><trkpt lat="44.9173567" lon="8.6001567"><ele>93.0</ele><time>2026-04-25T07:43:06.999Z</time></trkpt><trkpt lat="44.91729" lon="8.600185"><ele>93.0</ele><time>2026-04-25T07:43:08.001Z</time></trkpt><trkpt lat="44.9172133" lon="8.600195"><ele>93.0</ele><time>2026-04-25T07:43:09.003Z</time></trkpt><trkpt lat="44.917125" lon="8.6002017"><ele>93.0</ele><time>2026-04-25T07:43:09.995Z</time></trkpt><trkpt lat="44.9170333" lon="8.6002517"><ele>93.0</ele><time>2026-04-25T07:43:10.993Z</time></trkpt><trkpt lat="44.916945" lon="8.6003333"><ele>93.0</ele><time>2026-04-25T07:43:11.993Z</time></trkpt><trkpt lat="44.9168733" lon="8.6004333"><ele>93.0</ele><time>2026-04-25T07:43:12.998Z</time></trkpt><trkpt lat="44.9168083" lon="8.6005367"><ele>93.0</ele><time>2026-04-25T07:43:13.991Z</time></trkpt><trkpt lat="44.916735" lon="8.6006183"><ele>93.0</ele><time>2026-04-25T07:43:14.992Z</time></trkpt><trkpt lat="44.916645" lon="8.600655"><ele>93.0</ele><time>2026-04-25T07:43:15.991Z</time></trkpt><trkpt lat="44.916555" lon="8.600665"><ele>92.4</ele><time>2026-04-25T07:43:16.999Z</time></trkpt><trkpt lat="44.9164517" lon="8.6006517"><ele>91.80000000000001</ele><time>2026-04-25T07:43:17.999Z</time></trkpt><trkpt lat="44.9163417" lon="8.6006283"><ele>91.2</ele><time>2026-04-25T07:43:18.993Z</time></trkpt><trkpt lat="44.91623" lon="8.60061"><ele>90.6</ele><time>2026-04-25T07:43:19.994Z</time></trkpt><trkpt lat="44.9161167" lon="8.600605"><ele>90.0</ele><time>2026-04-25T07:43:20.993Z</time></trkpt><trkpt lat="44.9160017" lon="8.600615"><ele>90.0</ele><time>2026-04-25T07:43:21.995Z</time></trkpt><trkpt lat="44.9158883" lon="8.6006467"><ele>90.0</ele><time>2026-04-25T07:43:22.996Z</time></trkpt><trkpt lat="44.9157817" lon="8.6006983"><ele>90.0</ele><time>2026-04-25T07:43:23.997Z</time></trkpt><trkpt lat="44.91568" lon="8.6007683"><ele>90.0</ele><time>2026-04-25T07:43:24.995Z</time></trkpt><trkpt lat="44.9155833" lon="8.6008567"><ele>90.0</ele><time>2026-04-25T07:43:25.997Z</time></trkpt><trkpt lat="44.9154933" lon="8.6009583"><ele>90.0</ele><time>2026-04-25T07:43:26.994Z</time></trkpt><trkpt lat="44.915405" lon="8.6010667"><ele>90.0</ele><time>2026-04-25T07:43:27.995Z</time></trkpt><trkpt lat="44.9153167" lon="8.6011733"><ele>90.0</ele><time>2026-04-25T07:43:28.999Z</time></trkpt><trkpt lat="44.9152283" lon="8.6012767"><ele>90.2</ele><time>2026-04-25T07:43:30.003Z</time></trkpt><trkpt lat="44.9151417" lon="8.601375"><ele>90.4</ele><time>2026-04-25T07:43:30.997Z</time></trkpt><trkpt lat="44.9150533" lon="8.6014733"><ele>90.6</ele><time>2026-04-25T07:43:31.999Z</time></trkpt><trkpt lat="44.9149683" lon="8.6015717"><ele>90.8</ele><time>2026-04-25T07:43:32.996Z</time></trkpt><trkpt lat="44.9148817" lon="8.6016683"><ele>91.0</ele><time>2026-04-25T07:43:33.998Z</time></trkpt><trkpt lat="44.9147933" lon="8.6017683"><ele>89.25</ele><time>2026-04-25T07:43:34.993Z</time></trkpt><trkpt lat="44.9147067" lon="8.6018683"><ele>87.5</ele><time>2026-04-25T07:43:35.999Z</time></trkpt><trkpt lat="44.9146167" lon="8.60197"><ele>85.75</ele><time>2026-04-25T07:43:36.995Z</time></trkpt><trkpt lat="44.914525" lon="8.6020783"><ele>84.0</ele><time>2026-04-25T07:43:37.993Z</time></trkpt><trkpt lat="44.91443" lon="8.6021833"><ele>83.5</ele><time>2026-04-25T07:43:38.997Z</time></trkpt><trkpt lat="44.9143333" lon="8.6022883"><ele>83.0</ele><time>2026-04-25T07:43:39.998Z</time></trkpt><trkpt lat="44.91424" lon="8.60239"><ele>82.5</ele><time>2026-04-25T07:43:41Z</time></trkpt><trkpt lat="44.9141483" lon="8.6024867"><ele>82.0</ele><time>2026-04-25T07:43:41.995Z</time></trkpt><trkpt lat="44.9140567" lon="8.602585"><ele>83.5</ele><time>2026-04-25T07:43:42.995Z</time></trkpt><trkpt lat="44.913965" lon="8.6026867"><ele>85.0</ele><time>2026-04-25T07:43:43.998Z</time></trkpt><trkpt lat="44.9138683" lon="8.6027917"><ele>86.5</ele><time>2026-04-25T07:43:44.997Z</time></trkpt><trkpt lat="44.9137733" lon="8.6028933"><ele>88.0</ele><time>2026-04-25T07:43:45.999Z</time></trkpt><trkpt lat="44.913675" lon="8.6029983"><ele>89.5</ele><time>2026-04-25T07:43:46.996Z</time></trkpt><trkpt lat="44.913575" lon="8.6031083"><ele>91.0</ele><time>2026-04-25T07:43:47.996Z</time></trkpt><trkpt lat="44.9134733" lon="8.6032217"><ele>92.5</ele><time>2026-04-25T07:43:49Z</time></trkpt><trkpt lat="44.913375" lon="8.6033283"><ele>94.0</ele><time>2026-04-25T07:43:49.997Z</time></trkpt><trkpt lat="44.91328" lon="8.6034383"><ele>94.5</ele><time>2026-04-25T07:43:50.998Z</time></trkpt><trkpt lat="44.9131867" lon="8.603555"><ele>95.0</ele><time>2026-04-25T07:43:51.998Z</time></trkpt><trkpt lat="44.913095" lon="8.6036717"><ele>95.5</ele><time>2026-04-25T07:43:52.997Z</time></trkpt><trkpt lat="44.9129933" lon="8.6037867"><ele>96.0</ele><time>2026-04-25T07:43:54.003Z</time></trkpt><trkpt lat="44.9128983" lon="8.6038983"><ele>96.25</ele><time>2026-04-25T07:43:54.997Z</time></trkpt><trkpt lat="44.9128017" lon="8.604005"><ele>96.5</ele><time>2026-04-25T07:43:55.998Z</time></trkpt><trkpt lat="44.91271" lon="8.6041117"><ele>96.75</ele><time>2026-04-25T07:43:56.998Z</time></trkpt><trkpt lat="44.9126183" lon="8.6042133"><ele>97.0</ele><time>2026-04-25T07:43:57.997Z</time></trkpt><trkpt lat="44.9125317" lon="8.6043117"><ele>96.6</ele><time>2026-04-25T07:43:58.995Z</time></trkpt><trkpt lat="44.9124517" lon="8.6044083"><ele>96.19999999999999</ele><time>2026-04-25T07:43:59.997Z</time></trkpt><trkpt lat="44.91238" lon="8.6045"><ele>95.8</ele><time>2026-04-25T07:44:00.996Z</time></trkpt><trkpt lat="44.912305" lon="8.604575"><ele>95.4</ele><time>2026-04-25T07:44:01.993Z</time></trkpt><trkpt lat="44.9122333" lon="8.6046433"><ele>95.0</ele><time>2026-04-25T07:44:03Z</time></trkpt><trkpt lat="44.91216" lon="8.6046983"><ele>95.0</ele><time>2026-04-25T07:44:03.993Z</time></trkpt><trkpt lat="44.9121017" lon="8.604755"><ele>95.0</ele><time>2026-04-25T07:44:04.997Z</time></trkpt><trkpt lat="44.912055" lon="8.604815"><ele>95.0</ele><time>2026-04-25T07:44:05.996Z</time></trkpt><trkpt lat="44.91199" lon="8.6048967"><ele>95.0</ele><time>2026-04-25T07:44:06.994Z</time></trkpt><trkpt lat="44.9119183" lon="8.6049717"><ele>95.0</ele><time>2026-04-25T07:44:07.991Z</time></trkpt><trkpt lat="44.9118483" lon="8.6050483"><ele>95.0</ele><time>2026-04-25T07:44:09.003Z</time></trkpt><trkpt lat="44.91177" lon="8.6051317"><ele>94.8</ele><time>2026-04-25T07:44:09.999Z</time></trkpt><trkpt lat="44.9116933" lon="8.6052133"><ele>94.6</ele><time>2026-04-25T07:44:10.995Z</time></trkpt><trkpt lat="44.9116183" lon="8.6052983"><ele>94.4</ele><time>2026-04-25T07:44:11.998Z</time></trkpt><trkpt lat="44.9115433" lon="8.6053817"><ele>94.2</ele><time>2026-04-25T07:44:12.998Z</time></trkpt><trkpt lat="44.911465" lon="8.6054717"><ele>94.0</ele><time>2026-04-25T07:44:13.993Z</time></trkpt><trkpt lat="44.9113867" lon="8.6055717"><ele>94.6</ele><time>2026-04-25T07:44:15Z</time></trkpt><trkpt lat="44.911305" lon="8.6056717"><ele>95.2</ele><time>2026-04-25T07:44:15.997Z</time></trkpt><trkpt lat="44.9112183" lon="8.60577"><ele>95.8</ele><time>2026-04-25T07:44:16.996Z</time></trkpt><trkpt lat="44.9111333" lon="8.605875"><ele>96.39999999999999</ele><time>2026-04-25T07:44:17.995Z</time></trkpt><trkpt lat="44.9110433" lon="8.605975"><ele>97.0</ele><time>2026-04-25T07:44:18.993Z</time></trkpt><trkpt lat="44.91095" lon="8.6060783"><ele>97.8</ele><time>2026-04-25T07:44:19.992Z</time></trkpt><trkpt lat="44.910855" lon="8.6061717"><ele>98.6</ele><time>2026-04-25T07:44:21Z</time></trkpt><trkpt lat="44.9107667" lon="8.60626"><ele>99.39999999999999</ele><time>2026-04-25T07:44:21.996Z</time></trkpt><trkpt lat="44.9106833" lon="8.6063517"><ele>100.19999999999999</ele><time>2026-04-25T07:44:22.993Z</time></trkpt><trkpt lat="44.9106083" lon="8.606435"><ele>101.0</ele><time>2026-04-25T07:44:23.997Z</time></trkpt><trkpt lat="44.9105433" lon="8.6065083"><ele>101.0</ele><time>2026-04-25T07:44:24.993Z</time></trkpt><trkpt lat="44.9104883" lon="8.6065767"><ele>101.0</ele><time>2026-04-25T07:44:25.992Z</time></trkpt><trkpt lat="44.9104417" lon="8.6066467"><ele>101.0</ele><time>2026-04-25T07:44:26.996Z</time></trkpt><trkpt lat="44.91036" lon="8.60677"><ele>101.0</ele><time>2026-04-25T07:44:29Z</time></trkpt><trkpt lat="44.91026" lon="8.6068717"><ele>101.0</ele><time>2026-04-25T07:44:30.996Z</time></trkpt><trkpt lat="44.910185" lon="8.606905"><ele>101.0</ele><time>2026-04-25T07:44:31.995Z</time></trkpt><trkpt lat="44.9100867" lon="8.60691"><ele>101.0</ele><time>2026-04-25T07:44:32.992Z</time></trkpt><trkpt lat="44.9099917" lon="8.6069283"><ele>101.0</ele><time>2026-04-25T07:44:33.997Z</time></trkpt><trkpt lat="44.909895" lon="8.60696"><ele>101.0</ele><time>2026-04-25T07:44:34.995Z</time></trkpt><trkpt lat="44.9098067" lon="8.6070217"><ele>101.0</ele><time>2026-04-25T07:44:35.993Z</time></trkpt><trkpt lat="44.9097183" lon="8.60709"><ele>100.4</ele><time>2026-04-25T07:44:36.996Z</time></trkpt><trkpt lat="44.9096367" lon="8.6071683"><ele>99.8</ele><time>2026-04-25T07:44:37.994Z</time></trkpt><trkpt lat="44.9095517" lon="8.6072467"><ele>99.2</ele><time>2026-04-25T07:44:39.001Z</time></trkpt><trkpt lat="44.9094683" lon="8.60733"><ele>98.60000000000001</ele><time>2026-04-25T07:44:39.994Z</time></trkpt><trkpt lat="44.9094" lon="8.6074367"><ele>98.0</ele><time>2026-04-25T07:44:40.998Z</time></trkpt><trkpt lat="44.90932" lon="8.6075433"><ele>97.60000000000001</ele><time>2026-04-25T07:44:41.996Z</time></trkpt><trkpt lat="44.90924" lon="8.6076483"><ele>97.2</ele><time>2026-04-25T07:44:42.995Z</time></trkpt><trkpt lat="44.9091567" lon="8.6077517"><ele>96.8</ele><time>2026-04-25T07:44:43.995Z</time></trkpt><trkpt lat="44.9090717" lon="8.6078483"><ele>96.4</ele><time>2026-04-25T07:44:44.997Z</time></trkpt><trkpt lat="44.908985" lon="8.6079467"><ele>96.0</ele><time>2026-04-25T07:44:45.999Z</time></trkpt><trkpt lat="44.9088983" lon="8.6080467"><ele>96.0</ele><time>2026-04-25T07:44:46.99Z</time></trkpt><trkpt lat="44.908815" lon="8.608145"><ele>96.0</ele><time>2026-04-25T07:44:47.992Z</time></trkpt><trkpt lat="44.9087283" lon="8.6082433"><ele>96.0</ele><time>2026-04-25T07:44:48.992Z</time></trkpt><trkpt lat="44.9086433" lon="8.60834"><ele>96.0</ele><time>2026-04-25T07:44:49.996Z</time></trkpt><trkpt lat="44.9085583" lon="8.608435"><ele>96.0</ele><time>2026-04-25T07:44:50.995Z</time></trkpt><trkpt lat="44.9084767" lon="8.60853"><ele>96.0</ele><time>2026-04-25T07:44:51.996Z</time></trkpt><trkpt lat="44.9083967" lon="8.6086217"><ele>96.0</ele><time>2026-04-25T07:44:52.993Z</time></trkpt><trkpt lat="44.9083167" lon="8.6087117"><ele>96.0</ele><time>2026-04-25T07:44:53.995Z</time></trkpt><trkpt lat="44.90824" lon="8.6088017"><ele>96.0</ele><time>2026-04-25T07:44:54.994Z</time></trkpt><trkpt lat="44.9081583" lon="8.6088833"><ele>96.0</ele><time>2026-04-25T07:44:55.998Z</time></trkpt><trkpt lat="44.908075" lon="8.6089667"><ele>96.19999999999999</ele><time>2026-04-25T07:44:56.998Z</time></trkpt><trkpt lat="44.9079917" lon="8.6090483"><ele>96.39999999999999</ele><time>2026-04-25T07:44:57.994Z</time></trkpt><trkpt lat="44.907905" lon="8.6091267"><ele>96.6</ele><time>2026-04-25T07:44:58.996Z</time></trkpt><trkpt lat="44.9078183" lon="8.6092083"><ele>96.8</ele><time>2026-04-25T07:44:59.996Z</time></trkpt><trkpt lat="44.9077367" lon="8.6092883"><ele>97.0</ele><time>2026-04-25T07:45:00.996Z</time></trkpt><trkpt lat="44.9076567" lon="8.6093667"><ele>97.0</ele><time>2026-04-25T07:45:01.997Z</time></trkpt><trkpt lat="44.90758" lon="8.6094517"><ele>97.0</ele><time>2026-04-25T07:45:02.997Z</time></trkpt><trkpt lat="44.9075133" lon="8.6095433"><ele>97.0</ele><time>2026-04-25T07:45:03.993Z</time></trkpt><trkpt lat="44.9074483" lon="8.609635"><ele>97.0</ele><time>2026-04-25T07:45:04.996Z</time></trkpt><trkpt lat="44.9073783" lon="8.609725"><ele>97.0</ele><time>2026-04-25T07:45:05.991Z</time></trkpt><trkpt lat="44.9073083" lon="8.6098167"><ele>97.00000000000001</ele><time>2026-04-25T07:45:06.999Z</time></trkpt><trkpt lat="44.907245" lon="8.6099067"><ele>97.0</ele><time>2026-04-25T07:45:07.997Z</time></trkpt><trkpt lat="44.9071967" lon="8.61"><ele>97.0</ele><time>2026-04-25T07:45:08.994Z</time></trkpt><trkpt lat="44.9071567" lon="8.610095"><ele>97.0</ele><time>2026-04-25T07:45:09.991Z</time></trkpt><trkpt lat="44.9071367" lon="8.6101983"><ele>97.00000000000001</ele><time>2026-04-25T07:45:10.991Z</time></trkpt><trkpt lat="44.90713" lon="8.6103183"><ele>97.0</ele><time>2026-04-25T07:45:11.992Z</time></trkpt><trkpt lat="44.9071367" lon="8.6104533"><ele>97.0</ele><time>2026-04-25T07:45:12.992Z</time></trkpt><trkpt lat="44.9071633" lon="8.6106"><ele>97.0</ele><time>2026-04-25T07:45:13.993Z</time></trkpt><trkpt lat="44.907175" lon="8.6107367"><ele>97.0</ele><time>2026-04-25T07:45:14.995Z</time></trkpt><trkpt lat="44.907185" lon="8.6108717"><ele>97.0</ele><time>2026-04-25T07:45:15.994Z</time></trkpt><trkpt lat="44.90719" lon="8.6109983"><ele>97.0</ele><time>2026-04-25T07:45:16.994Z</time></trkpt><trkpt lat="44.90719" lon="8.611115"><ele>97.6</ele><time>2026-04-25T07:45:17.993Z</time></trkpt><trkpt lat="44.9071883" lon="8.61123"><ele>98.19999999999999</ele><time>2026-04-25T07:45:18.995Z</time></trkpt><trkpt lat="44.907185" lon="8.6113333"><ele>98.8</ele><time>2026-04-25T07:45:19.995Z</time></trkpt><trkpt lat="44.9071667" lon="8.6115017"><ele>99.4</ele><time>2026-04-25T07:45:21.998Z</time></trkpt><trkpt lat="44.9071117" lon="8.6116517"><ele>100.0</ele><time>2026-04-25T07:45:23.998Z</time></trkpt><trkpt lat="44.9070567" lon="8.61178"><ele>100.00000000000001</ele><time>2026-04-25T07:45:25.997Z</time></trkpt><trkpt lat="44.90706" lon="8.61195"><ele>100.0</ele><time>2026-04-25T07:45:27.994Z</time></trkpt><trkpt lat="44.90708" lon="8.6120433"><ele>100.0</ele><time>2026-04-25T07:45:28.992Z</time></trkpt><trkpt lat="44.9071067" lon="8.61215"><ele>100.0</ele><time>2026-04-25T07:45:29.996Z</time></trkpt><trkpt lat="44.9071283" lon="8.6122617"><ele>100.00000000000001</ele><time>2026-04-25T07:45:30.995Z</time></trkpt><trkpt lat="44.907145" lon="8.6123917"><ele>100.0</ele><time>2026-04-25T07:45:31.993Z</time></trkpt><trkpt lat="44.9071583" lon="8.6125317"><ele>100.0</ele><time>2026-04-25T07:45:32.999Z</time></trkpt><trkpt lat="44.9071667" lon="8.612675"><ele>100.0</ele><time>2026-04-25T07:45:33.995Z</time></trkpt><trkpt lat="44.9071733" lon="8.6128283"><ele>100.0</ele><time>2026-04-25T07:45:34.995Z</time></trkpt><trkpt lat="44.9071917" lon="8.6129767"><ele>100.0</ele><time>2026-04-25T07:45:35.992Z</time></trkpt><trkpt lat="44.9071817" lon="8.613125"><ele>100.0</ele><time>2026-04-25T07:45:37.001Z</time></trkpt><trkpt lat="44.9071983" lon="8.6132683"><ele>100.0</ele><time>2026-04-25T07:45:37.992Z</time></trkpt><trkpt lat="44.907205" lon="8.6134183"><ele>100.0</ele><time>2026-04-25T07:45:38.998Z</time></trkpt><trkpt lat="44.907215" lon="8.6135617"><ele>100.0</ele><time>2026-04-25T07:45:39.994Z</time></trkpt><trkpt lat="44.907225" lon="8.613705"><ele>100.0</ele><time>2026-04-25T07:45:40.996Z</time></trkpt><trkpt lat="44.90724" lon="8.6138433"><ele>100.0</ele><time>2026-04-25T07:45:41.993Z</time></trkpt><trkpt lat="44.907245" lon="8.61399"><ele>100.0</ele><time>2026-04-25T07:45:42.997Z</time></trkpt><trkpt lat="44.907255" lon="8.61413"><ele>100.0</ele><time>2026-04-25T07:45:43.993Z</time></trkpt><trkpt lat="44.9072633" lon="8.6142717"><ele>100.0</ele><time>2026-04-25T07:45:44.996Z</time></trkpt><trkpt lat="44.907275" lon="8.6144083"><ele>100.0</ele><time>2026-04-25T07:45:45.994Z</time></trkpt><trkpt lat="44.9072833" lon="8.614545"><ele>100.0</ele><time>2026-04-25T07:45:46.998Z</time></trkpt><trkpt lat="44.907295" lon="8.61468"><ele>100.00000000000001</ele><time>2026-04-25T07:45:47.996Z</time></trkpt><trkpt lat="44.907305" lon="8.61481"><ele>100.0</ele><time>2026-04-25T07:45:48.995Z</time></trkpt><trkpt lat="44.9073117" lon="8.6149283"><ele>100.0</ele><time>2026-04-25T07:45:49.998Z</time></trkpt><trkpt lat="44.9073183" lon="8.6150383"><ele>100.0</ele><time>2026-04-25T07:45:50.993Z</time></trkpt><trkpt lat="44.90733" lon="8.6151367"><ele>100.00000000000001</ele><time>2026-04-25T07:45:51.997Z</time></trkpt><trkpt lat="44.9073483" lon="8.61529"><ele>100.0</ele><time>2026-04-25T07:45:53.993Z</time></trkpt><trkpt lat="44.9072567" lon="8.615405"><ele>99.4</ele><time>2026-04-25T07:46:07.999Z</time></trkpt><trkpt lat="44.9072433" lon="8.615545"><ele>98.8</ele><time>2026-04-25T07:46:11Z</time></trkpt><trkpt lat="44.90724" lon="8.6156667"><ele>98.19999999999999</ele><time>2026-04-25T07:46:12.993Z</time></trkpt><trkpt lat="44.90724" lon="8.61583"><ele>97.6</ele><time>2026-04-25T07:46:14.994Z</time></trkpt><trkpt lat="44.9072733" lon="8.6159267"><ele>97.0</ele><time>2026-04-25T07:46:15.996Z</time></trkpt><trkpt lat="44.9073017" lon="8.616025"><ele>97.00000000000001</ele><time>2026-04-25T07:46:17.002Z</time></trkpt><trkpt lat="44.907325" lon="8.616125"><ele>97.0</ele><time>2026-04-25T07:46:17.993Z</time></trkpt><trkpt lat="44.9073433" lon="8.6162283"><ele>97.0</ele><time>2026-04-25T07:46:18.994Z</time></trkpt><trkpt lat="44.9073583" lon="8.6163467"><ele>97.0</ele><time>2026-04-25T07:46:19.997Z</time></trkpt><trkpt lat="44.9073717" lon="8.6164733"><ele>97.00000000000001</ele><time>2026-04-25T07:46:20.995Z</time></trkpt><trkpt lat="44.907385" lon="8.61661"><ele>97.0</ele><time>2026-04-25T07:46:21.995Z</time></trkpt><trkpt lat="44.9074083" lon="8.6167533"><ele>97.0</ele><time>2026-04-25T07:46:22.995Z</time></trkpt><trkpt lat="44.9074367" lon="8.6169017"><ele>97.0</ele><time>2026-04-25T07:46:23.996Z</time></trkpt><trkpt lat="44.907465" lon="8.6170467"><ele>97.0</ele><time>2026-04-25T07:46:24.995Z</time></trkpt><trkpt lat="44.90748" lon="8.61719"><ele>97.0</ele><time>2026-04-25T07:46:25.998Z</time></trkpt><trkpt lat="44.9074967" lon="8.6173317"><ele>97.0</ele><time>2026-04-25T07:46:26.995Z</time></trkpt><trkpt lat="44.9075083" lon="8.6174717"><ele>97.0</ele><time>2026-04-25T07:46:27.996Z</time></trkpt><trkpt lat="44.9075167" lon="8.61761"><ele>97.0</ele><time>2026-04-25T07:46:28.995Z</time></trkpt><trkpt lat="44.9075083" lon="8.6177533"><ele>97.0</ele><time>2026-04-25T07:46:29.996Z</time></trkpt><trkpt lat="44.90751" lon="8.6179133"><ele>97.0</ele><time>2026-04-25T07:46:31Z</time></trkpt><trkpt lat="44.90751" lon="8.618085"><ele>97.0</ele><time>2026-04-25T07:46:31.999Z</time></trkpt><trkpt lat="44.9075167" lon="8.618265"><ele>96.5</ele><time>2026-04-25T07:46:32.997Z</time></trkpt><trkpt lat="44.907525" lon="8.6184483"><ele>96.0</ele><time>2026-04-25T07:46:33.995Z</time></trkpt><trkpt lat="44.9075367" lon="8.6186283"><ele>95.5</ele><time>2026-04-25T07:46:34.995Z</time></trkpt><trkpt lat="44.9075433" lon="8.6188083"><ele>95.0</ele><time>2026-04-25T07:46:35.993Z</time></trkpt><trkpt lat="44.9075517" lon="8.618985"><ele>95.0</ele><time>2026-04-25T07:46:36.997Z</time></trkpt><trkpt lat="44.9075633" lon="8.6191533"><ele>95.0</ele><time>2026-04-25T07:46:37.995Z</time></trkpt><trkpt lat="44.9075717" lon="8.6193267"><ele>95.0</ele><time>2026-04-25T07:46:38.993Z</time></trkpt><trkpt lat="44.907585" lon="8.6194933"><ele>95.0</ele><time>2026-04-25T07:46:39.994Z</time></trkpt><trkpt lat="44.9075983" lon="8.6196567"><ele>95.0</ele><time>2026-04-25T07:46:40.997Z</time></trkpt><trkpt lat="44.90761" lon="8.619815"><ele>95.0</ele><time>2026-04-25T07:46:41.993Z</time></trkpt><trkpt lat="44.90762" lon="8.619975"><ele>95.0</ele><time>2026-04-25T07:46:42.995Z</time></trkpt><trkpt lat="44.90763" lon="8.6201367"><ele>95.0</ele><time>2026-04-25T07:46:43.995Z</time></trkpt><trkpt lat="44.907635" lon="8.6203"><ele>95.0</ele><time>2026-04-25T07:46:44.995Z</time></trkpt><trkpt lat="44.9076467" lon="8.620465"><ele>95.0</ele><time>2026-04-25T07:46:45.997Z</time></trkpt><trkpt lat="44.9076583" lon="8.6206333"><ele>95.0</ele><time>2026-04-25T07:46:46.998Z</time></trkpt><trkpt lat="44.9076667" lon="8.6208017"><ele>95.0</ele><time>2026-04-25T07:46:47.995Z</time></trkpt><trkpt lat="44.907675" lon="8.6209717"><ele>95.0</ele><time>2026-04-25T07:46:48.995Z</time></trkpt><trkpt lat="44.907685" lon="8.621135"><ele>95.0</ele><time>2026-04-25T07:46:49.997Z</time></trkpt><trkpt lat="44.9076933" lon="8.6212967"><ele>95.0</ele><time>2026-04-25T07:46:50.995Z</time></trkpt><trkpt lat="44.9077017" lon="8.62146"><ele>95.0</ele><time>2026-04-25T07:46:51.998Z</time></trkpt><trkpt lat="44.90771" lon="8.6216217"><ele>94.8</ele><time>2026-04-25T07:46:52.995Z</time></trkpt><trkpt lat="44.9077167" lon="8.6217833"><ele>94.6</ele><time>2026-04-25T07:46:53.998Z</time></trkpt><trkpt lat="44.9077267" lon="8.6219383"><ele>94.4</ele><time>2026-04-25T07:46:54.998Z</time></trkpt><trkpt lat="44.9077367" lon="8.6221"><ele>94.2</ele><time>2026-04-25T07:46:55.997Z</time></trkpt><trkpt lat="44.9077483" lon="8.6222533"><ele>94.0</ele><time>2026-04-25T07:46:56.997Z</time></trkpt><trkpt lat="44.90777" lon="8.62241"><ele>94.75</ele><time>2026-04-25T07:46:57.995Z</time></trkpt><trkpt lat="44.9077783" lon="8.6225683"><ele>95.5</ele><time>2026-04-25T07:46:58.994Z</time></trkpt><trkpt lat="44.907785" lon="8.6227283"><ele>96.25</ele><time>2026-04-25T07:46:59.994Z</time></trkpt><trkpt lat="44.9077983" lon="8.6228883"><ele>97.0</ele><time>2026-04-25T07:47:00.994Z</time></trkpt><trkpt lat="44.9078083" lon="8.6230517"><ele>97.0</ele><time>2026-04-25T07:47:01.996Z</time></trkpt><trkpt lat="44.9078183" lon="8.6232117"><ele>97.0</ele><time>2026-04-25T07:47:03Z</time></trkpt><trkpt lat="44.9078283" lon="8.623365"><ele>97.0</ele><time>2026-04-25T07:47:03.995Z</time></trkpt><trkpt lat="44.9078417" lon="8.6235183"><ele>97.0</ele><time>2026-04-25T07:47:04.994Z</time></trkpt><trkpt lat="44.9078517" lon="8.6236683"><ele>97.0</ele><time>2026-04-25T07:47:05.998Z</time></trkpt><trkpt lat="44.90786" lon="8.623815"><ele>96.6</ele><time>2026-04-25T07:47:07.002Z</time></trkpt><trkpt lat="44.9078667" lon="8.6239683"><ele>96.19999999999999</ele><time>2026-04-25T07:47:08.001Z</time></trkpt><trkpt lat="44.90788" lon="8.6241217"><ele>95.8</ele><time>2026-04-25T07:47:08.996Z</time></trkpt><trkpt lat="44.907895" lon="8.6242767"><ele>95.4</ele><time>2026-04-25T07:47:09.997Z</time></trkpt><trkpt lat="44.907905" lon="8.6244333"><ele>95.0</ele><time>2026-04-25T07:47:10.995Z</time></trkpt><trkpt lat="44.9079133" lon="8.62459"><ele>95.0</ele><time>2026-04-25T07:47:11.999Z</time></trkpt><trkpt lat="44.9079183" lon="8.62475"><ele>95.0</ele><time>2026-04-25T07:47:13.001Z</time></trkpt><trkpt lat="44.9079283" lon="8.6249133"><ele>95.0</ele><time>2026-04-25T07:47:13.997Z</time></trkpt><trkpt lat="44.9079383" lon="8.62508"><ele>95.0</ele><time>2026-04-25T07:47:14.998Z</time></trkpt><trkpt lat="44.9079467" lon="8.6252483"><ele>95.25</ele><time>2026-04-25T07:47:16.003Z</time></trkpt><trkpt lat="44.9079567" lon="8.6254133"><ele>95.5</ele><time>2026-04-25T07:47:16.992Z</time></trkpt><trkpt lat="44.907965" lon="8.6255767"><ele>95.75</ele><time>2026-04-25T07:47:17.995Z</time></trkpt><trkpt lat="44.907975" lon="8.6257333"><ele>96.0</ele><time>2026-04-25T07:47:18.997Z</time></trkpt><trkpt lat="44.9079867" lon="8.6258867"><ele>96.0</ele><time>2026-04-25T07:47:19.997Z</time></trkpt><trkpt lat="44.9079983" lon="8.6260417"><ele>96.0</ele><time>2026-04-25T07:47:20.997Z</time></trkpt><trkpt lat="44.908015" lon="8.6262017"><ele>96.0</ele><time>2026-04-25T07:47:21.996Z</time></trkpt><trkpt lat="44.9080317" lon="8.6263567"><ele>96.0</ele><time>2026-04-25T07:47:22.995Z</time></trkpt><trkpt lat="44.9080467" lon="8.6265117"><ele>96.0</ele><time>2026-04-25T07:47:23.996Z</time></trkpt><trkpt lat="44.9080567" lon="8.6266683"><ele>95.8</ele><time>2026-04-25T07:47:24.993Z</time></trkpt><trkpt lat="44.908065" lon="8.6268233"><ele>95.6</ele><time>2026-04-25T07:47:25.994Z</time></trkpt><trkpt lat="44.908075" lon="8.6269733"><ele>95.4</ele><time>2026-04-25T07:47:26.996Z</time></trkpt><trkpt lat="44.9080817" lon="8.6271217"><ele>95.2</ele><time>2026-04-25T07:47:27.996Z</time></trkpt><trkpt lat="44.9080883" lon="8.6272667"><ele>95.0</ele><time>2026-04-25T07:47:28.996Z</time></trkpt><trkpt lat="44.9080983" lon="8.6274117"><ele>95.0</ele><time>2026-04-25T07:47:29.996Z</time></trkpt><trkpt lat="44.908105" lon="8.6275533"><ele>95.0</ele><time>2026-04-25T07:47:30.997Z</time></trkpt><trkpt lat="44.9081183" lon="8.6276817"><ele>95.0</ele><time>2026-04-25T07:47:31.995Z</time></trkpt><trkpt lat="44.9081517" lon="8.6277933"><ele>95.0</ele><time>2026-04-25T07:47:32.998Z</time></trkpt><trkpt lat="44.9081867" lon="8.6278783"><ele>95.0</ele><time>2026-04-25T07:47:33.996Z</time></trkpt><trkpt lat="44.9082233" lon="8.6280033"><ele>95.0</ele><time>2026-04-25T07:47:36.993Z</time></trkpt><trkpt lat="44.9081567" lon="8.6280283"><ele>94.83333333333334</ele><time>2026-04-25T07:47:48.999Z</time></trkpt><trkpt lat="44.9080767" lon="8.62814"><ele>94.66666666666667</ele><time>2026-04-25T07:47:51.994Z</time></trkpt><trkpt lat="44.9080433" lon="8.6282167"><ele>94.5</ele><time>2026-04-25T07:47:52.995Z</time></trkpt><trkpt lat="44.9080233" lon="8.62832"><ele>94.33333333333333</ele><time>2026-04-25T07:47:53.995Z</time></trkpt><trkpt lat="44.9080233" lon="8.628455"><ele>94.16666666666666</ele><time>2026-04-25T07:47:54.998Z</time></trkpt><trkpt lat="44.9080617" lon="8.6285783"><ele>94.0</ele><time>2026-04-25T07:47:55.995Z</time></trkpt><trkpt lat="44.9081267" lon="8.6286767"><ele>93.80000000000001</ele><time>2026-04-25T07:47:56.998Z</time></trkpt><trkpt lat="44.9082" lon="8.6287633"><ele>93.60000000000001</ele><time>2026-04-25T07:47:57.993Z</time></trkpt><trkpt lat="44.9082667" lon="8.6288567"><ele>93.4</ele><time>2026-04-25T07:47:58.998Z</time></trkpt><trkpt lat="44.9083333" lon="8.62895"><ele>93.2</ele><time>2026-04-25T07:47:59.995Z</time></trkpt><trkpt lat="44.908395" lon="8.6290617"><ele>93.0</ele><time>2026-04-25T07:48:00.998Z</time></trkpt><trkpt lat="44.9084583" lon="8.62918"><ele>93.4</ele><time>2026-04-25T07:48:01.997Z</time></trkpt><trkpt lat="44.9085233" lon="8.629285"><ele>93.80000000000001</ele><time>2026-04-25T07:48:02.999Z</time></trkpt><trkpt lat="44.9085917" lon="8.6293817"><ele>94.2</ele><time>2026-04-25T07:48:03.998Z</time></trkpt><trkpt lat="44.9086567" lon="8.6294767"><ele>94.6</ele><time>2026-04-25T07:48:04.996Z</time></trkpt><trkpt lat="44.9087217" lon="8.62957"><ele>95.0</ele><time>2026-04-25T07:48:05.996Z</time></trkpt><trkpt lat="44.9087867" lon="8.629665"><ele>95.0</ele><time>2026-04-25T07:48:06.997Z</time></trkpt><trkpt lat="44.908845" lon="8.6297583"><ele>95.0</ele><time>2026-04-25T07:48:07.993Z</time></trkpt><trkpt lat="44.9089" lon="8.6298417"><ele>95.0</ele><time>2026-04-25T07:48:08.996Z</time></trkpt><trkpt lat="44.9089567" lon="8.629915"><ele>95.0</ele><time>2026-04-25T07:48:09.994Z</time></trkpt><trkpt lat="44.90901" lon="8.62999"><ele>95.0</ele><time>2026-04-25T07:48:10.994Z</time></trkpt><trkpt lat="44.9090567" lon="8.6300883"><ele>95.0</ele><time>2026-04-25T07:48:11.993Z</time></trkpt><trkpt lat="44.90911" lon="8.6301917"><ele>95.0</ele><time>2026-04-25T07:48:12.993Z</time></trkpt><trkpt lat="44.90917" lon="8.630295"><ele>95.0</ele><time>2026-04-25T07:48:13.999Z</time></trkpt><trkpt lat="44.909235" lon="8.6303917"><ele>95.0</ele><time>2026-04-25T07:48:14.998Z</time></trkpt><trkpt lat="44.9093033" lon="8.6304917"><ele>95.0</ele><time>2026-04-25T07:48:15.998Z</time></trkpt><trkpt lat="44.909375" lon="8.6305967"><ele>95.0</ele><time>2026-04-25T07:48:16.993Z</time></trkpt><trkpt lat="44.9094433" lon="8.6307033"><ele>95.0</ele><time>2026-04-25T07:48:17.996Z</time></trkpt><trkpt lat="44.9095117" lon="8.630805"><ele>95.0</ele><time>2026-04-25T07:48:18.993Z</time></trkpt><trkpt lat="44.9095783" lon="8.6308967"><ele>95.0</ele><time>2026-04-25T07:48:19.994Z</time></trkpt><trkpt lat="44.9096383" lon="8.630975"><ele>95.0</ele><time>2026-04-25T07:48:20.997Z</time></trkpt><trkpt lat="44.909685" lon="8.63108"><ele>95.0</ele><time>2026-04-25T07:48:22.998Z</time></trkpt><trkpt lat="44.9096467" lon="8.6312033"><ele>95.0</ele><time>2026-04-25T07:48:23.996Z</time></trkpt><trkpt lat="44.909615" lon="8.631325"><ele>95.0</ele><time>2026-04-25T07:48:24.998Z</time></trkpt><trkpt lat="44.9095883" lon="8.6314583"><ele>95.0</ele><time>2026-04-25T07:48:26.001Z</time></trkpt><trkpt lat="44.9095583" lon="8.631625"><ele>95.0</ele><time>2026-04-25T07:48:26.993Z</time></trkpt><trkpt lat="44.9095133" lon="8.6318067"><ele>95.0</ele><time>2026-04-25T07:48:27.995Z</time></trkpt><trkpt lat="44.90945" lon="8.6320117"><ele>94.33333333333334</ele><time>2026-04-25T07:48:28.994Z</time></trkpt><trkpt lat="44.9093967" lon="8.6322217"><ele>93.66666666666667</ele><time>2026-04-25T07:48:29.993Z</time></trkpt><trkpt lat="44.909345" lon="8.632445"><ele>93.0</ele><time>2026-04-25T07:48:30.995Z</time></trkpt><trkpt lat="44.9092967" lon="8.6326617"><ele>93.0</ele><time>2026-04-25T07:48:31.996Z</time></trkpt><trkpt lat="44.9092467" lon="8.6328767"><ele>93.0</ele><time>2026-04-25T07:48:32.996Z</time></trkpt><trkpt lat="44.9091983" lon="8.63308"><ele>93.0</ele><time>2026-04-25T07:48:33.997Z</time></trkpt><trkpt lat="44.9091517" lon="8.6332833"><ele>93.0</ele><time>2026-04-25T07:48:34.993Z</time></trkpt><trkpt lat="44.9091067" lon="8.6334967"><ele>93.0</ele><time>2026-04-25T07:48:35.997Z</time></trkpt><trkpt lat="44.9090717" lon="8.6337117"><ele>93.0</ele><time>2026-04-25T07:48:37.004Z</time></trkpt><trkpt lat="44.9090383" lon="8.6339183"><ele>93.66666666666667</ele><time>2026-04-25T07:48:38.001Z</time></trkpt><trkpt lat="44.90901" lon="8.6341417"><ele>94.33333333333334</ele><time>2026-04-25T07:48:38.997Z</time></trkpt><trkpt lat="44.9089883" lon="8.634375"><ele>95.0</ele><time>2026-04-25T07:48:39.995Z</time></trkpt><trkpt lat="44.9089667" lon="8.6346083"><ele>95.0</ele><time>2026-04-25T07:48:40.998Z</time></trkpt><trkpt lat="44.908945" lon="8.6348567"><ele>95.0</ele><time>2026-04-25T07:48:41.996Z</time></trkpt><trkpt lat="44.9089217" lon="8.63511"><ele>95.0</ele><time>2026-04-25T07:48:42.999Z</time></trkpt><trkpt lat="44.9089033" lon="8.6353567"><ele>94.66666666666667</ele><time>2026-04-25T07:48:43.997Z</time></trkpt><trkpt lat="44.9088867" lon="8.63559"><ele>94.33333333333333</ele><time>2026-04-25T07:48:44.997Z</time></trkpt><trkpt lat="44.9088683" lon="8.6358117"><ele>94.0</ele><time>2026-04-25T07:48:45.998Z</time></trkpt><trkpt lat="44.9088517" lon="8.636025"><ele>93.75</ele><time>2026-04-25T07:48:47Z</time></trkpt><trkpt lat="44.9088367" lon="8.6362283"><ele>93.5</ele><time>2026-04-25T07:48:47.993Z</time></trkpt><trkpt lat="44.9088233" lon="8.636425"><ele>93.25</ele><time>2026-04-25T07:48:48.997Z</time></trkpt><trkpt lat="44.9088167" lon="8.6366133"><ele>93.0</ele><time>2026-04-25T07:48:49.995Z</time></trkpt><trkpt lat="44.9088117" lon="8.6367917"><ele>93.0</ele><time>2026-04-25T07:48:50.995Z</time></trkpt><trkpt lat="44.90881" lon="8.6369467"><ele>93.0</ele><time>2026-04-25T07:48:51.997Z</time></trkpt><trkpt lat="44.9088017" lon="8.6370767"><ele>93.0</ele><time>2026-04-25T07:48:52.995Z</time></trkpt><trkpt lat="44.9087917" lon="8.6371783"><ele>93.0</ele><time>2026-04-25T07:48:53.996Z</time></trkpt><trkpt lat="44.9087717" lon="8.6372833"><ele>93.0</ele><time>2026-04-25T07:48:55.997Z</time></trkpt><trkpt lat="44.9086967" lon="8.6373217"><ele>93.0</ele><time>2026-04-25T07:49:00.999Z</time></trkpt><trkpt lat="44.908565" lon="8.6373583"><ele>93.0</ele><time>2026-04-25T07:49:02.997Z</time></trkpt><trkpt lat="44.9084933" lon="8.6374083"><ele>93.0</ele><time>2026-04-25T07:49:04Z</time></trkpt><trkpt lat="44.9084267" lon="8.6374983"><ele>93.0</ele><time>2026-04-25T07:49:04.997Z</time></trkpt><trkpt lat="44.9083867" lon="8.6376167"><ele>93.0</ele><time>2026-04-25T07:49:05.997Z</time></trkpt><trkpt lat="44.9083817" lon="8.6377517"><ele>93.0</ele><time>2026-04-25T07:49:06.997Z</time></trkpt><trkpt lat="44.9084" lon="8.6378917"><ele>93.0</ele><time>2026-04-25T07:49:07.996Z</time></trkpt><trkpt lat="44.9084433" lon="8.638025"><ele>93.0</ele><time>2026-04-25T07:49:08.994Z</time></trkpt><trkpt lat="44.9084817" lon="8.6381383"><ele>93.0</ele><time>2026-04-25T07:49:09.996Z</time></trkpt><trkpt lat="44.9085017" lon="8.6382283"><ele>93.0</ele><time>2026-04-25T07:49:10.993Z</time></trkpt><trkpt lat="44.9085067" lon="8.63834"><ele>93.0</ele><time>2026-04-25T07:49:11.994Z</time></trkpt><trkpt lat="44.9084917" lon="8.638475"><ele>93.0</ele><time>2026-04-25T07:49:12.996Z</time></trkpt><trkpt lat="44.908465" lon="8.6386267"><ele>93.0</ele><time>2026-04-25T07:49:13.998Z</time></trkpt><trkpt lat="44.9084183" lon="8.6388017"><ele>93.0</ele><time>2026-04-25T07:49:14.997Z</time></trkpt><trkpt lat="44.9083367" lon="8.6390167"><ele>93.0</ele><time>2026-04-25T07:49:15.995Z</time></trkpt><trkpt lat="44.90824" lon="8.6392317"><ele>93.0</ele><time>2026-04-25T07:49:16.993Z</time></trkpt><trkpt lat="44.9081517" lon="8.6394467"><ele>93.0</ele><time>2026-04-25T07:49:17.996Z</time></trkpt><trkpt lat="44.9080583" lon="8.6396617"><ele>93.0</ele><time>2026-04-25T07:49:18.995Z</time></trkpt><trkpt lat="44.90796" lon="8.6398667"><ele>93.33333333333333</ele><time>2026-04-25T07:49:19.994Z</time></trkpt><trkpt lat="44.9078617" lon="8.64009"><ele>93.66666666666666</ele><time>2026-04-25T07:49:20.996Z</time></trkpt><trkpt lat="44.90777" lon="8.6403083"><ele>94.0</ele><time>2026-04-25T07:49:21.998Z</time></trkpt><trkpt lat="44.90768" lon="8.6405167"><ele>93.66666666666666</ele><time>2026-04-25T07:49:22.995Z</time></trkpt><trkpt lat="44.9075883" lon="8.6407133"><ele>93.33333333333333</ele><time>2026-04-25T07:49:23.99Z</time></trkpt><trkpt lat="44.90749" lon="8.6409133"><ele>93.0</ele><time>2026-04-25T07:49:24.998Z</time></trkpt><trkpt lat="44.9073883" lon="8.6411333"><ele>92.0</ele><time>2026-04-25T07:49:25.995Z</time></trkpt><trkpt lat="44.90729" lon="8.6413467"><ele>91.0</ele><time>2026-04-25T07:49:26.994Z</time></trkpt><trkpt lat="44.9071833" lon="8.6415717"><ele>90.0</ele><time>2026-04-25T07:49:27.993Z</time></trkpt><trkpt lat="44.9070867" lon="8.6417917"><ele>90.0</ele><time>2026-04-25T07:49:28.992Z</time></trkpt><trkpt lat="44.906995" lon="8.642"><ele>90.0</ele><time>2026-04-25T07:49:29.995Z</time></trkpt><trkpt lat="44.9069017" lon="8.642205"><ele>90.0</ele><time>2026-04-25T07:49:30.995Z</time></trkpt><trkpt lat="44.9068083" lon="8.6424117"><ele>90.33333333333333</ele><time>2026-04-25T07:49:31.993Z</time></trkpt><trkpt lat="44.9067167" lon="8.6426167"><ele>90.66666666666666</ele><time>2026-04-25T07:49:32.994Z</time></trkpt><trkpt lat="44.9066267" lon="8.6428167"><ele>91.0</ele><time>2026-04-25T07:49:33.993Z</time></trkpt><trkpt lat="44.9065383" lon="8.64301"><ele>91.0</ele><time>2026-04-25T07:49:34.995Z</time></trkpt><trkpt lat="44.9064517" lon="8.6431983"><ele>91.0</ele><time>2026-04-25T07:49:35.996Z</time></trkpt><trkpt lat="44.9063617" lon="8.6433867"><ele>91.0</ele><time>2026-04-25T07:49:36.998Z</time></trkpt><trkpt lat="44.9062733" lon="8.64358"><ele>90.66666666666666</ele><time>2026-04-25T07:49:37.998Z</time></trkpt><trkpt lat="44.906185" lon="8.6437733"><ele>90.33333333333333</ele><time>2026-04-25T07:49:38.997Z</time></trkpt><trkpt lat="44.9060983" lon="8.6439633"><ele>90.0</ele><time>2026-04-25T07:49:39.994Z</time></trkpt><trkpt lat="44.9060117" lon="8.644155"><ele>90.0</ele><time>2026-04-25T07:49:41Z</time></trkpt><trkpt lat="44.9059233" lon="8.6443533"><ele>90.0</ele><time>2026-04-25T07:49:41.994Z</time></trkpt><trkpt lat="44.9058317" lon="8.6445483"><ele>90.0</ele><time>2026-04-25T07:49:43.005Z</time></trkpt><trkpt lat="44.9057433" lon="8.64474"><ele>89.33333333333333</ele><time>2026-04-25T07:49:43.998Z</time></trkpt><trkpt lat="44.905655" lon="8.6449317"><ele>88.66666666666666</ele><time>2026-04-25T07:49:44.998Z</time></trkpt><trkpt lat="44.90556" lon="8.645135"><ele>88.0</ele><time>2026-04-25T07:49:45.999Z</time></trkpt><trkpt lat="44.9054633" lon="8.6453383"><ele>86.0</ele><time>2026-04-25T07:49:47.001Z</time></trkpt><trkpt lat="44.9053683" lon="8.6455433"><ele>84.0</ele><time>2026-04-25T07:49:47.999Z</time></trkpt><trkpt lat="44.9052733" lon="8.64575"><ele>82.0</ele><time>2026-04-25T07:49:49.001Z</time></trkpt><trkpt lat="44.9051833" lon="8.645945"><ele>83.33333333333333</ele><time>2026-04-25T07:49:49.998Z</time></trkpt><trkpt lat="44.9050983" lon="8.646135"><ele>84.66666666666667</ele><time>2026-04-25T07:49:50.995Z</time></trkpt><trkpt lat="44.905015" lon="8.6463217"><ele>86.0</ele><time>2026-04-25T07:49:51.996Z</time></trkpt><trkpt lat="44.9049317" lon="8.6465017"><ele>87.66666666666667</ele><time>2026-04-25T07:49:52.994Z</time></trkpt><trkpt lat="44.9048483" lon="8.6466817"><ele>89.33333333333333</ele><time>2026-04-25T07:49:53.997Z</time></trkpt><trkpt lat="44.9047633" lon="8.6468633"><ele>91.0</ele><time>2026-04-25T07:49:54.996Z</time></trkpt><trkpt lat="44.90468" lon="8.6470417"><ele>91.66666666666666</ele><time>2026-04-25T07:49:55.995Z</time></trkpt><trkpt lat="44.904595" lon="8.647225"><ele>92.33333333333333</ele><time>2026-04-25T07:49:56.996Z</time></trkpt><trkpt lat="44.9045083" lon="8.6474067"><ele>93.0</ele><time>2026-04-25T07:49:57.995Z</time></trkpt><trkpt lat="44.9044167" lon="8.6475967"><ele>93.0</ele><time>2026-04-25T07:49:58.994Z</time></trkpt><trkpt lat="44.904325" lon="8.64779"><ele>93.0</ele><time>2026-04-25T07:49:59.998Z</time></trkpt><trkpt lat="44.904235" lon="8.6479833"><ele>93.0</ele><time>2026-04-25T07:50:00.997Z</time></trkpt><trkpt lat="44.904145" lon="8.64818"><ele>93.0</ele><time>2026-04-25T07:50:02.008Z</time></trkpt><trkpt lat="44.904055" lon="8.6483817"><ele>93.0</ele><time>2026-04-25T07:50:03.003Z</time></trkpt><trkpt lat="44.9039633" lon="8.648585"><ele>93.0</ele><time>2026-04-25T07:50:03.997Z</time></trkpt><trkpt lat="44.90387" lon="8.6487867"><ele>93.0</ele><time>2026-04-25T07:50:04.995Z</time></trkpt><trkpt lat="44.9037767" lon="8.648995"><ele>93.0</ele><time>2026-04-25T07:50:05.997Z</time></trkpt><trkpt lat="44.9036817" lon="8.6492067"><ele>93.0</ele><time>2026-04-25T07:50:06.995Z</time></trkpt><trkpt lat="44.9035833" lon="8.6494183"><ele>92.66666666666667</ele><time>2026-04-25T07:50:07.994Z</time></trkpt><trkpt lat="44.9034883" lon="8.6496333"><ele>92.33333333333334</ele><time>2026-04-25T07:50:09Z</time></trkpt><trkpt lat="44.9033933" lon="8.649855"><ele>92.0</ele><time>2026-04-25T07:50:09.997Z</time></trkpt><trkpt lat="44.9032967" lon="8.6500717"><ele>91.33333333333334</ele><time>2026-04-25T07:50:10.995Z</time></trkpt><trkpt lat="44.9032" lon="8.65029"><ele>90.66666666666667</ele><time>2026-04-25T07:50:11.993Z</time></trkpt><trkpt lat="44.9031017" lon="8.6505067"><ele>90.0</ele><time>2026-04-25T07:50:12.996Z</time></trkpt><trkpt lat="44.903005" lon="8.650725"><ele>90.0</ele><time>2026-04-25T07:50:13.995Z</time></trkpt><trkpt lat="44.9029067" lon="8.650945"><ele>90.0</ele><time>2026-04-25T07:50:14.992Z</time></trkpt><trkpt lat="44.9028083" lon="8.6511667"><ele>90.0</ele><time>2026-04-25T07:50:15.997Z</time></trkpt><trkpt lat="44.9027133" lon="8.6513867"><ele>90.0</ele><time>2026-04-25T07:50:16.992Z</time></trkpt><trkpt lat="44.9026183" lon="8.6516017"><ele>90.0</ele><time>2026-04-25T07:50:17.993Z</time></trkpt><trkpt lat="44.9025233" lon="8.65181"><ele>90.0</ele><time>2026-04-25T07:50:18.997Z</time></trkpt><trkpt lat="44.902435" lon="8.6520167"><ele>89.66666666666667</ele><time>2026-04-25T07:50:19.995Z</time></trkpt><trkpt lat="44.90235" lon="8.6522067"><ele>89.33333333333334</ele><time>2026-04-25T07:50:20.996Z</time></trkpt><trkpt lat="44.9022683" lon="8.65239"><ele>89.0</ele><time>2026-04-25T07:50:21.994Z</time></trkpt><trkpt lat="44.9021883" lon="8.6525683"><ele>89.0</ele><time>2026-04-25T07:50:22.998Z</time></trkpt><trkpt lat="44.9021117" lon="8.6527333"><ele>89.0</ele><time>2026-04-25T07:50:23.996Z</time></trkpt><trkpt lat="44.90204" lon="8.6528883"><ele>89.0</ele><time>2026-04-25T07:50:24.993Z</time></trkpt><trkpt lat="44.90198" lon="8.65303"><ele>89.0</ele><time>2026-04-25T07:50:25.999Z</time></trkpt><trkpt lat="44.9019267" lon="8.6531517"><ele>88.83333333333334</ele><time>2026-04-25T07:50:26.998Z</time></trkpt><trkpt lat="44.9018883" lon="8.6532567"><ele>88.66666666666667</ele><time>2026-04-25T07:50:27.993Z</time></trkpt><trkpt lat="44.9018383" lon="8.65335"><ele>88.5</ele><time>2026-04-25T07:50:28.995Z</time></trkpt><trkpt lat="44.9017733" lon="8.6534233"><ele>88.33333333333333</ele><time>2026-04-25T07:50:29.996Z</time></trkpt><trkpt lat="44.9017067" lon="8.6534683"><ele>88.16666666666666</ele><time>2026-04-25T07:50:30.995Z</time></trkpt><trkpt lat="44.9016367" lon="8.6535"><ele>88.0</ele><time>2026-04-25T07:50:31.995Z</time></trkpt><trkpt lat="44.90157" lon="8.6535367"><ele>87.83333333333333</ele><time>2026-04-25T07:50:32.999Z</time></trkpt><trkpt lat="44.9014983" lon="8.6536033"><ele>87.66666666666666</ele><time>2026-04-25T07:50:33.996Z</time></trkpt><trkpt lat="44.9014317" lon="8.6536817"><ele>87.5</ele><time>2026-04-25T07:50:34.993Z</time></trkpt><trkpt lat="44.90139" lon="8.65377"><ele>87.33333333333333</ele><time>2026-04-25T07:50:35.994Z</time></trkpt><trkpt lat="44.901385" lon="8.6539067"><ele>87.16666666666667</ele><time>2026-04-25T07:50:36.993Z</time></trkpt><trkpt lat="44.901385" lon="8.654045"><ele>87.0</ele><time>2026-04-25T07:50:37.994Z</time></trkpt><trkpt lat="44.9013783" lon="8.654185"><ele>87.39999999999999</ele><time>2026-04-25T07:50:38.993Z</time></trkpt><trkpt lat="44.9013617" lon="8.65432"><ele>87.8</ele><time>2026-04-25T07:50:39.994Z</time></trkpt><trkpt lat="44.9013283" lon="8.654455"><ele>88.2</ele><time>2026-04-25T07:50:40.994Z</time></trkpt><trkpt lat="44.9012683" lon="8.6545933"><ele>88.6</ele><time>2026-04-25T07:50:41.994Z</time></trkpt><trkpt lat="44.9012017" lon="8.6547317"><ele>89.0</ele><time>2026-04-25T07:50:42.994Z</time></trkpt><trkpt lat="44.9011333" lon="8.6548767"><ele>89.25</ele><time>2026-04-25T07:50:43.994Z</time></trkpt><trkpt lat="44.9010583" lon="8.6550317"><ele>89.5</ele><time>2026-04-25T07:50:44.992Z</time></trkpt><trkpt lat="44.900985" lon="8.65519"><ele>89.75</ele><time>2026-04-25T07:50:45.997Z</time></trkpt><trkpt lat="44.9009183" lon="8.6553483"><ele>90.0</ele><time>2026-04-25T07:50:46.994Z</time></trkpt><trkpt lat="44.90085" lon="8.6555067"><ele>90.5</ele><time>2026-04-25T07:50:47.997Z</time></trkpt><trkpt lat="44.9007767" lon="8.6556617"><ele>91.0</ele><time>2026-04-25T07:50:49.002Z</time></trkpt><trkpt lat="44.9007017" lon="8.6558233"><ele>91.5</ele><time>2026-04-25T07:50:49.998Z</time></trkpt><trkpt lat="44.9006267" lon="8.6560033"><ele>92.0</ele><time>2026-04-25T07:50:50.995Z</time></trkpt><trkpt lat="44.900545" lon="8.65622"><ele>92.33333333333334</ele><time>2026-04-25T07:50:51.998Z</time></trkpt><trkpt lat="44.9004467" lon="8.65646"><ele>92.66666666666667</ele><time>2026-04-25T07:50:52.997Z</time></trkpt><trkpt lat="44.9003317" lon="8.6567233"><ele>93.0</ele><time>2026-04-25T07:50:54.001Z</time></trkpt><trkpt lat="44.9002033" lon="8.656995"><ele>93.0</ele><time>2026-04-25T07:50:54.995Z</time></trkpt><trkpt lat="44.900075" lon="8.6572717"><ele>93.0</ele><time>2026-04-25T07:50:55.995Z</time></trkpt><trkpt lat="44.899945" lon="8.6575417"><ele>91.5</ele><time>2026-04-25T07:50:56.995Z</time></trkpt><trkpt lat="44.8998183" lon="8.6578083"><ele>90.0</ele><time>2026-04-25T07:50:57.998Z</time></trkpt><trkpt lat="44.8996917" lon="8.6580683"><ele>90.0</ele><time>2026-04-25T07:50:58.991Z</time></trkpt><trkpt lat="44.8995617" lon="8.6583283"><ele>90.0</ele><time>2026-04-25T07:50:59.995Z</time></trkpt><trkpt lat="44.8994333" lon="8.6585833"><ele>90.0</ele><time>2026-04-25T07:51:00.997Z</time></trkpt><trkpt lat="44.8993083" lon="8.6588317"><ele>90.0</ele><time>2026-04-25T07:51:01.995Z</time></trkpt><trkpt lat="44.8991867" lon="8.6590683"><ele>90.0</ele><time>2026-04-25T07:51:02.994Z</time></trkpt><trkpt lat="44.8990717" lon="8.659295"><ele>90.0</ele><time>2026-04-25T07:51:03.997Z</time></trkpt><trkpt lat="44.89896" lon="8.6595133"><ele>89.66666666666667</ele><time>2026-04-25T07:51:04.994Z</time></trkpt><trkpt lat="44.89885" lon="8.6597217"><ele>89.33333333333334</ele><time>2026-04-25T07:51:05.998Z</time></trkpt><trkpt lat="44.8987417" lon="8.659925"><ele>89.0</ele><time>2026-04-25T07:51:06.995Z</time></trkpt><trkpt lat="44.8986383" lon="8.6601233"><ele>89.0</ele><time>2026-04-25T07:51:07.996Z</time></trkpt><trkpt lat="44.8985417" lon="8.6603233"><ele>89.0</ele><time>2026-04-25T07:51:08.996Z</time></trkpt><trkpt lat="44.8984467" lon="8.6605233"><ele>89.0</ele><time>2026-04-25T07:51:09.994Z</time></trkpt><trkpt lat="44.89835" lon="8.660725"><ele>89.66666666666667</ele><time>2026-04-25T07:51:10.999Z</time></trkpt><trkpt lat="44.8982533" lon="8.6609283"><ele>90.33333333333333</ele><time>2026-04-25T07:51:11.997Z</time></trkpt><trkpt lat="44.8981583" lon="8.6611383"><ele>91.0</ele><time>2026-04-25T07:51:12.994Z</time></trkpt><trkpt lat="44.8980617" lon="8.6613583"><ele>91.0</ele><time>2026-04-25T07:51:13.996Z</time></trkpt><trkpt lat="44.89796" lon="8.6615733"><ele>91.0</ele><time>2026-04-25T07:51:14.998Z</time></trkpt><trkpt lat="44.8978567" lon="8.6617867"><ele>91.0</ele><time>2026-04-25T07:51:16Z</time></trkpt><trkpt lat="44.897755" lon="8.6620017"><ele>90.66666666666666</ele><time>2026-04-25T07:51:16.995Z</time></trkpt><trkpt lat="44.8976567" lon="8.6622233"><ele>90.33333333333333</ele><time>2026-04-25T07:51:18.001Z</time></trkpt><trkpt lat="44.897555" lon="8.6624433"><ele>90.0</ele><time>2026-04-25T07:51:18.994Z</time></trkpt><trkpt lat="44.8974533" lon="8.6626667"><ele>90.33333333333333</ele><time>2026-04-25T07:51:19.997Z</time></trkpt><trkpt lat="44.8973533" lon="8.6628833"><ele>90.66666666666666</ele><time>2026-04-25T07:51:20.993Z</time></trkpt><trkpt lat="44.8972533" lon="8.6631017"><ele>91.0</ele><time>2026-04-25T07:51:21.993Z</time></trkpt><trkpt lat="44.8971567" lon="8.6633233"><ele>91.0</ele><time>2026-04-25T07:51:22.997Z</time></trkpt><trkpt lat="44.8970617" lon="8.6635383"><ele>91.0</ele><time>2026-04-25T07:51:23.993Z</time></trkpt><trkpt lat="44.8969617" lon="8.6637583"><ele>91.0</ele><time>2026-04-25T07:51:25.002Z</time></trkpt><trkpt lat="44.8968617" lon="8.6639767"><ele>91.0</ele><time>2026-04-25T07:51:25.999Z</time></trkpt><trkpt lat="44.8967633" lon="8.664195"><ele>91.0</ele><time>2026-04-25T07:51:26.995Z</time></trkpt><trkpt lat="44.8966667" lon="8.6644083"><ele>91.0</ele><time>2026-04-25T07:51:27.993Z</time></trkpt><trkpt lat="44.8965667" lon="8.6646217"><ele>92.33333333333333</ele><time>2026-04-25T07:51:28.994Z</time></trkpt><trkpt lat="44.8964717" lon="8.6648317"><ele>93.66666666666667</ele><time>2026-04-25T07:51:29.997Z</time></trkpt><trkpt lat="44.896375" lon="8.6650417"><ele>95.0</ele><time>2026-04-25T07:51:30.995Z</time></trkpt><trkpt lat="44.89628" lon="8.66525"><ele>95.33333333333334</ele><time>2026-04-25T07:51:31.995Z</time></trkpt><trkpt lat="44.896185" lon="8.665455"><ele>95.66666666666667</ele><time>2026-04-25T07:51:32.994Z</time></trkpt><trkpt lat="44.89609" lon="8.6656567"><ele>96.0</ele><time>2026-04-25T07:51:33.993Z</time></trkpt><trkpt lat="44.8959983" lon="8.665855"><ele>95.0</ele><time>2026-04-25T07:51:34.992Z</time></trkpt><trkpt lat="44.8959117" lon="8.6660483"><ele>94.0</ele><time>2026-04-25T07:51:35.994Z</time></trkpt><trkpt lat="44.8958333" lon="8.66624"><ele>93.0</ele><time>2026-04-25T07:51:36.998Z</time></trkpt><trkpt lat="44.89576" lon="8.6664367"><ele>92.66666666666667</ele><time>2026-04-25T07:51:37.993Z</time></trkpt><trkpt lat="44.8956917" lon="8.666635"><ele>92.33333333333334</ele><time>2026-04-25T07:51:38.993Z</time></trkpt><trkpt lat="44.89562" lon="8.6668383"><ele>92.0</ele><time>2026-04-25T07:51:39.994Z</time></trkpt><trkpt lat="44.8955533" lon="8.6670333"><ele>91.75</ele><time>2026-04-25T07:51:40.995Z</time></trkpt><trkpt lat="44.8954883" lon="8.6672233"><ele>91.5</ele><time>2026-04-25T07:51:41.995Z</time></trkpt><trkpt lat="44.89542" lon="8.6674033"><ele>91.25</ele><time>2026-04-25T07:51:42.994Z</time></trkpt><trkpt lat="44.8953467" lon="8.6675783"><ele>91.0</ele><time>2026-04-25T07:51:43.997Z</time></trkpt><trkpt lat="44.89527" lon="8.6677467"><ele>91.0</ele><time>2026-04-25T07:51:44.994Z</time></trkpt><trkpt lat="44.89519" lon="8.667905"><ele>91.0</ele><time>2026-04-25T07:51:45.994Z</time></trkpt><trkpt lat="44.8951067" lon="8.6680617"><ele>91.0</ele><time>2026-04-25T07:51:46.994Z</time></trkpt><trkpt lat="44.89502" lon="8.668225"><ele>91.0</ele><time>2026-04-25T07:51:47.998Z</time></trkpt><trkpt lat="44.89493" lon="8.668405"><ele>91.0</ele><time>2026-04-25T07:51:48.995Z</time></trkpt><trkpt lat="44.8948267" lon="8.6685883"><ele>91.0</ele><time>2026-04-25T07:51:49.998Z</time></trkpt><trkpt lat="44.8947217" lon="8.668765"><ele>91.0</ele><time>2026-04-25T07:51:50.997Z</time></trkpt><trkpt lat="44.8946183" lon="8.6689417"><ele>91.33333333333333</ele><time>2026-04-25T07:51:51.996Z</time></trkpt><trkpt lat="44.8945317" lon="8.6691233"><ele>91.66666666666667</ele><time>2026-04-25T07:51:52.993Z</time></trkpt><trkpt lat="44.8944517" lon="8.6693133"><ele>92.0</ele><time>2026-04-25T07:51:54Z</time></trkpt><trkpt lat="44.8943817" lon="8.669515"><ele>92.33333333333334</ele><time>2026-04-25T07:51:54.995Z</time></trkpt><trkpt lat="44.8943217" lon="8.6697233"><ele>92.66666666666667</ele><time>2026-04-25T07:51:55.999Z</time></trkpt><trkpt lat="44.8942717" lon="8.66995"><ele>93.0</ele><time>2026-04-25T07:51:56.998Z</time></trkpt><trkpt lat="44.89423" lon="8.67018"><ele>93.66666666666667</ele><time>2026-04-25T07:51:57.996Z</time></trkpt><trkpt lat="44.8941917" lon="8.6704183"><ele>94.33333333333334</ele><time>2026-04-25T07:51:58.998Z</time></trkpt><trkpt lat="44.8941517" lon="8.6706617"><ele>95.0</ele><time>2026-04-25T07:52:00.001Z</time></trkpt><trkpt lat="44.8941067" lon="8.670915"><ele>95.0</ele><time>2026-04-25T07:52:00.996Z</time></trkpt><trkpt lat="44.8940583" lon="8.6711767"><ele>95.0</ele><time>2026-04-25T07:52:02.001Z</time></trkpt><trkpt lat="44.8940167" lon="8.6714417"><ele>95.0</ele><time>2026-04-25T07:52:03.001Z</time></trkpt><trkpt lat="44.8939767" lon="8.6717033"><ele>95.33333333333334</ele><time>2026-04-25T07:52:04.001Z</time></trkpt><trkpt lat="44.893935" lon="8.67196"><ele>95.66666666666667</ele><time>2026-04-25T07:52:04.996Z</time></trkpt><trkpt lat="44.8938967" lon="8.6722133"><ele>96.0</ele><time>2026-04-25T07:52:05.995Z</time></trkpt><trkpt lat="44.8938567" lon="8.6724633"><ele>96.0</ele><time>2026-04-25T07:52:06.998Z</time></trkpt><trkpt lat="44.8938183" lon="8.67271"><ele>96.0</ele><time>2026-04-25T07:52:07.997Z</time></trkpt><trkpt lat="44.89378" lon="8.6729517"><ele>96.0</ele><time>2026-04-25T07:52:09.002Z</time></trkpt><trkpt lat="44.8937383" lon="8.67319"><ele>96.66666666666666</ele><time>2026-04-25T07:52:09.999Z</time></trkpt><trkpt lat="44.8936983" lon="8.67343"><ele>97.33333333333333</ele><time>2026-04-25T07:52:10.999Z</time></trkpt><trkpt lat="44.8936567" lon="8.67367"><ele>98.0</ele><time>2026-04-25T07:52:11.997Z</time></trkpt><trkpt lat="44.8936167" lon="8.673895"><ele>96.75</ele><time>2026-04-25T07:52:12.998Z</time></trkpt><trkpt lat="44.8935817" lon="8.6741083"><ele>95.5</ele><time>2026-04-25T07:52:13.996Z</time></trkpt><trkpt lat="44.8935483" lon="8.6743117"><ele>94.25</ele><time>2026-04-25T07:52:14.998Z</time></trkpt><trkpt lat="44.89352" lon="8.6744933"><ele>93.0</ele><time>2026-04-25T07:52:15.999Z</time></trkpt><trkpt lat="44.8934933" lon="8.67465"><ele>93.0</ele><time>2026-04-25T07:52:16.998Z</time></trkpt><trkpt lat="44.8934667" lon="8.67479"><ele>93.0</ele><time>2026-04-25T07:52:17.993Z</time></trkpt><trkpt lat="44.8934267" lon="8.6749317"><ele>93.0</ele><time>2026-04-25T07:52:18.998Z</time></trkpt><trkpt lat="44.8933617" lon="8.6750417"><ele>93.0</ele><time>2026-04-25T07:52:19.998Z</time></trkpt><trkpt lat="44.8932833" lon="8.6751333"><ele>93.0</ele><time>2026-04-25T07:52:20.994Z</time></trkpt><trkpt lat="44.893215" lon="8.675225"><ele>92.60000000000001</ele><time>2026-04-25T07:52:21.995Z</time></trkpt><trkpt lat="44.8931617" lon="8.6753383"><ele>92.2</ele><time>2026-04-25T07:52:22.996Z</time></trkpt><trkpt lat="44.8931367" lon="8.67547"><ele>91.8</ele><time>2026-04-25T07:52:24.004Z</time></trkpt><trkpt lat="44.8931367" lon="8.6756217"><ele>91.4</ele><time>2026-04-25T07:52:24.998Z</time></trkpt><trkpt lat="44.8931667" lon="8.6757783"><ele>91.0</ele><time>2026-04-25T07:52:25.997Z</time></trkpt><trkpt lat="44.8932017" lon="8.6759383"><ele>91.25</ele><time>2026-04-25T07:52:26.996Z</time></trkpt><trkpt lat="44.8932183" lon="8.6761067"><ele>91.5</ele><time>2026-04-25T07:52:27.995Z</time></trkpt><trkpt lat="44.8932117" lon="8.676285"><ele>91.75</ele><time>2026-04-25T07:52:28.995Z</time></trkpt><trkpt lat="44.893185" lon="8.676475"><ele>92.0</ele><time>2026-04-25T07:52:29.996Z</time></trkpt><trkpt lat="44.8931533" lon="8.676675"><ele>92.0</ele><time>2026-04-25T07:52:30.997Z</time></trkpt><trkpt lat="44.8931167" lon="8.6768817"><ele>92.0</ele><time>2026-04-25T07:52:31.996Z</time></trkpt><trkpt lat="44.89308" lon="8.6770883"><ele>92.0</ele><time>2026-04-25T07:52:32.997Z</time></trkpt><trkpt lat="44.893045" lon="8.6772983"><ele>92.33333333333334</ele><time>2026-04-25T07:52:33.995Z</time></trkpt><trkpt lat="44.8930083" lon="8.67751"><ele>92.66666666666667</ele><time>2026-04-25T07:52:34.998Z</time></trkpt><trkpt lat="44.8929717" lon="8.677725"><ele>93.0</ele><time>2026-04-25T07:52:35.998Z</time></trkpt><trkpt lat="44.8929333" lon="8.6779483"><ele>93.0</ele><time>2026-04-25T07:52:36.997Z</time></trkpt><trkpt lat="44.8928933" lon="8.6781733"><ele>93.0</ele><time>2026-04-25T07:52:37.996Z</time></trkpt><trkpt lat="44.8928517" lon="8.6784"><ele>93.0</ele><time>2026-04-25T07:52:38.992Z</time></trkpt><trkpt lat="44.8928117" lon="8.6786317"><ele>93.0</ele><time>2026-04-25T07:52:39.998Z</time></trkpt><trkpt lat="44.89277" lon="8.6788617"><ele>93.0</ele><time>2026-04-25T07:52:40.997Z</time></trkpt><trkpt lat="44.8927317" lon="8.67909"><ele>93.0</ele><time>2026-04-25T07:52:41.993Z</time></trkpt><trkpt lat="44.8926917" lon="8.67932"><ele>93.0</ele><time>2026-04-25T07:52:42.997Z</time></trkpt><trkpt lat="44.8926533" lon="8.6795417"><ele>93.0</ele><time>2026-04-25T07:52:43.996Z</time></trkpt><trkpt lat="44.8926133" lon="8.6797617"><ele>93.0</ele><time>2026-04-25T07:52:44.997Z</time></trkpt><trkpt lat="44.8925717" lon="8.67998"><ele>93.33333333333333</ele><time>2026-04-25T07:52:46.001Z</time></trkpt><trkpt lat="44.892535" lon="8.6801967"><ele>93.66666666666666</ele><time>2026-04-25T07:52:46.994Z</time></trkpt><trkpt lat="44.8924983" lon="8.6804117"><ele>94.0</ele><time>2026-04-25T07:52:47.997Z</time></trkpt><trkpt lat="44.89246" lon="8.6806267"><ele>94.0</ele><time>2026-04-25T07:52:48.999Z</time></trkpt><trkpt lat="44.8924183" lon="8.6808417"><ele>94.0</ele><time>2026-04-25T07:52:49.998Z</time></trkpt><trkpt lat="44.8923717" lon="8.68106"><ele>94.0</ele><time>2026-04-25T07:52:50.998Z</time></trkpt><trkpt lat="44.89232" lon="8.68128"><ele>94.0</ele><time>2026-04-25T07:52:51.993Z</time></trkpt><trkpt lat="44.8922667" lon="8.6815033"><ele>94.0</ele><time>2026-04-25T07:52:52.993Z</time></trkpt><trkpt lat="44.8922083" lon="8.6817317"><ele>94.0</ele><time>2026-04-25T07:52:53.994Z</time></trkpt><trkpt lat="44.8921483" lon="8.681955"><ele>94.0</ele><time>2026-04-25T07:52:54.994Z</time></trkpt><trkpt lat="44.892085" lon="8.6821767"><ele>94.0</ele><time>2026-04-25T07:52:55.993Z</time></trkpt><trkpt lat="44.8920183" lon="8.6823967"><ele>94.0</ele><time>2026-04-25T07:52:56.994Z</time></trkpt><trkpt lat="44.89195" lon="8.6826133"><ele>94.33333333333333</ele><time>2026-04-25T07:52:57.995Z</time></trkpt><trkpt lat="44.8918783" lon="8.6828367"><ele>94.66666666666667</ele><time>2026-04-25T07:52:58.998Z</time></trkpt><trkpt lat="44.891805" lon="8.683055"><ele>95.0</ele><time>2026-04-25T07:52:59.996Z</time></trkpt><trkpt lat="44.8917317" lon="8.683275"><ele>95.33333333333334</ele><time>2026-04-25T07:53:00.997Z</time></trkpt><trkpt lat="44.89165" lon="8.683485"><ele>95.66666666666667</ele><time>2026-04-25T07:53:01.998Z</time></trkpt><trkpt lat="44.8915633" lon="8.6836967"><ele>96.0</ele><time>2026-04-25T07:53:02.992Z</time></trkpt><trkpt lat="44.8914733" lon="8.6839117"><ele>96.33333333333334</ele><time>2026-04-25T07:53:03.995Z</time></trkpt><trkpt lat="44.89138" lon="8.684125"><ele>96.66666666666667</ele><time>2026-04-25T07:53:04.995Z</time></trkpt><trkpt lat="44.8912817" lon="8.684335"><ele>97.0</ele><time>2026-04-25T07:53:05.993Z</time></trkpt><trkpt lat="44.8911867" lon="8.68455"><ele>96.66666666666667</ele><time>2026-04-25T07:53:06.999Z</time></trkpt><trkpt lat="44.8910883" lon="8.6847617"><ele>96.33333333333334</ele><time>2026-04-25T07:53:07.995Z</time></trkpt><trkpt lat="44.8909883" lon="8.68497"><ele>96.0</ele><time>2026-04-25T07:53:09.003Z</time></trkpt><trkpt lat="44.8908917" lon="8.6851767"><ele>96.33333333333334</ele><time>2026-04-25T07:53:09.996Z</time></trkpt><trkpt lat="44.890795" lon="8.6853817"><ele>96.66666666666667</ele><time>2026-04-25T07:53:11.008Z</time></trkpt><trkpt lat="44.8907" lon="8.685585"><ele>97.0</ele><time>2026-04-25T07:53:11.998Z</time></trkpt><trkpt lat="44.890605" lon="8.6857867"><ele>97.0</ele><time>2026-04-25T07:53:13.003Z</time></trkpt><trkpt lat="44.89051" lon="8.685985"><ele>97.0</ele><time>2026-04-25T07:53:14Z</time></trkpt><trkpt lat="44.8904167" lon="8.6861783"><ele>97.0</ele><time>2026-04-25T07:53:14.993Z</time></trkpt><trkpt lat="44.8903233" lon="8.686375"><ele>97.0</ele><time>2026-04-25T07:53:15.995Z</time></trkpt><trkpt lat="44.8902283" lon="8.68657"><ele>97.0</ele><time>2026-04-25T07:53:16.993Z</time></trkpt><trkpt lat="44.8901317" lon="8.686765"><ele>97.0</ele><time>2026-04-25T07:53:17.995Z</time></trkpt><trkpt lat="44.8900383" lon="8.6869617"><ele>96.66666666666667</ele><time>2026-04-25T07:53:18.996Z</time></trkpt><trkpt lat="44.889945" lon="8.6871617"><ele>96.33333333333334</ele><time>2026-04-25T07:53:19.998Z</time></trkpt><trkpt lat="44.8898517" lon="8.6873633"><ele>96.0</ele><time>2026-04-25T07:53:20.999Z</time></trkpt><trkpt lat="44.8897567" lon="8.6875633"><ele>96.0</ele><time>2026-04-25T07:53:21.995Z</time></trkpt><trkpt lat="44.8896617" lon="8.6877717"><ele>96.0</ele><time>2026-04-25T07:53:22.996Z</time></trkpt><trkpt lat="44.8895633" lon="8.687985"><ele>96.0</ele><time>2026-04-25T07:53:24Z</time></trkpt><trkpt lat="44.88946" lon="8.6881983"><ele>96.0</ele><time>2026-04-25T07:53:24.998Z</time></trkpt><trkpt lat="44.8893533" lon="8.6884133"><ele>96.0</ele><time>2026-04-25T07:53:25.996Z</time></trkpt><trkpt lat="44.8892517" lon="8.688635"><ele>96.0</ele><time>2026-04-25T07:53:26.998Z</time></trkpt><trkpt lat="44.889145" lon="8.68886"><ele>96.0</ele><time>2026-04-25T07:53:28.009Z</time></trkpt><trkpt lat="44.88904" lon="8.6890833"><ele>96.0</ele><time>2026-04-25T07:53:29.004Z</time></trkpt><trkpt lat="44.8889333" lon="8.6893067"><ele>96.0</ele><time>2026-04-25T07:53:29.997Z</time></trkpt><trkpt lat="44.8888267" lon="8.6895317"><ele>96.0</ele><time>2026-04-25T07:53:30.997Z</time></trkpt><trkpt lat="44.8887167" lon="8.6897567"><ele>96.0</ele><time>2026-04-25T07:53:31.997Z</time></trkpt><trkpt lat="44.88861" lon="8.6899867"><ele>96.0</ele><time>2026-04-25T07:53:32.999Z</time></trkpt><trkpt lat="44.8885033" lon="8.6902117"><ele>96.33333333333334</ele><time>2026-04-25T07:53:33.999Z</time></trkpt><trkpt lat="44.8884" lon="8.6904317"><ele>96.66666666666667</ele><time>2026-04-25T07:53:34.995Z</time></trkpt><trkpt lat="44.8882967" lon="8.6906567"><ele>97.0</ele><time>2026-04-25T07:53:35.994Z</time></trkpt><trkpt lat="44.8881933" lon="8.6908767"><ele>97.0</ele><time>2026-04-25T07:53:36.995Z</time></trkpt><trkpt lat="44.88809" lon="8.691095"><ele>97.0</ele><time>2026-04-25T07:53:37.999Z</time></trkpt><trkpt lat="44.8879883" lon="8.6913083"><ele>97.0</ele><time>2026-04-25T07:53:38.997Z</time></trkpt><trkpt lat="44.8878883" lon="8.6915217"><ele>97.0</ele><time>2026-04-25T07:53:39.993Z</time></trkpt><trkpt lat="44.8877867" lon="8.6917367"><ele>97.0</ele><time>2026-04-25T07:53:40.999Z</time></trkpt><trkpt lat="44.8876883" lon="8.69195"><ele>97.0</ele><time>2026-04-25T07:53:41.994Z</time></trkpt><trkpt lat="44.8875867" lon="8.6921633"><ele>96.66666666666667</ele><time>2026-04-25T07:53:42.994Z</time></trkpt><trkpt lat="44.8874867" lon="8.6923717"><ele>96.33333333333334</ele><time>2026-04-25T07:53:43.995Z</time></trkpt><trkpt lat="44.8873883" lon="8.692575"><ele>96.0</ele><time>2026-04-25T07:53:44.996Z</time></trkpt><trkpt lat="44.8872933" lon="8.69278"><ele>96.66666666666666</ele><time>2026-04-25T07:53:45.994Z</time></trkpt><trkpt lat="44.8872017" lon="8.69298"><ele>97.33333333333333</ele><time>2026-04-25T07:53:46.997Z</time></trkpt><trkpt lat="44.88711" lon="8.693175"><ele>98.0</ele><time>2026-04-25T07:53:47.996Z</time></trkpt><trkpt lat="44.8870183" lon="8.69337"><ele>98.0</ele><time>2026-04-25T07:53:48.998Z</time></trkpt><trkpt lat="44.8869283" lon="8.6935617"><ele>98.0</ele><time>2026-04-25T07:53:49.998Z</time></trkpt><trkpt lat="44.88684" lon="8.6937467"><ele>98.0</ele><time>2026-04-25T07:53:50.996Z</time></trkpt><trkpt lat="44.88675" lon="8.6939317"><ele>98.33333333333333</ele><time>2026-04-25T07:53:51.993Z</time></trkpt><trkpt lat="44.8866633" lon="8.6941117"><ele>98.66666666666666</ele><time>2026-04-25T07:53:53.001Z</time></trkpt><trkpt lat="44.8865767" lon="8.6942917"><ele>99.0</ele><time>2026-04-25T07:53:54Z</time></trkpt><trkpt lat="44.8864867" lon="8.6944683"><ele>99.25</ele><time>2026-04-25T07:53:54.996Z</time></trkpt><trkpt lat="44.8864017" lon="8.6946383"><ele>99.5</ele><time>2026-04-25T07:53:55.997Z</time></trkpt><trkpt lat="44.8863117" lon="8.694805"><ele>99.75</ele><time>2026-04-25T07:53:56.999Z</time></trkpt><trkpt lat="44.8862133" lon="8.6949683"><ele>100.0</ele><time>2026-04-25T07:53:57.998Z</time></trkpt><trkpt lat="44.8861117" lon="8.6951267"><ele>100.0</ele><time>2026-04-25T07:53:58.996Z</time></trkpt><trkpt lat="44.886005" lon="8.6952833"><ele>100.0</ele><time>2026-04-25T07:53:59.996Z</time></trkpt><trkpt lat="44.885895" lon="8.6954367"><ele>100.0</ele><time>2026-04-25T07:54:00.999Z</time></trkpt><trkpt lat="44.88578" lon="8.6955867"><ele>100.0</ele><time>2026-04-25T07:54:01.996Z</time></trkpt><trkpt lat="44.8856617" lon="8.69573"><ele>100.0</ele><time>2026-04-25T07:54:02.993Z</time></trkpt><trkpt lat="44.8855433" lon="8.6958583"><ele>100.0</ele><time>2026-04-25T07:54:03.996Z</time></trkpt><trkpt lat="44.88542" lon="8.6959767"><ele>100.0</ele><time>2026-04-25T07:54:04.999Z</time></trkpt><trkpt lat="44.8852933" lon="8.69609"><ele>100.0</ele><time>2026-04-25T07:54:05.996Z</time></trkpt><trkpt lat="44.885165" lon="8.6962"><ele>100.0</ele><time>2026-04-25T07:54:06.994Z</time></trkpt><trkpt lat="44.88504" lon="8.6963033"><ele>100.0</ele><time>2026-04-25T07:54:07.995Z</time></trkpt><trkpt lat="44.8849167" lon="8.6964033"><ele>100.5</ele><time>2026-04-25T07:54:08.994Z</time></trkpt><trkpt lat="44.884795" lon="8.6964933"><ele>101.0</ele><time>2026-04-25T07:54:09.996Z</time></trkpt><trkpt lat="44.8846717" lon="8.69658"><ele>101.5</ele><time>2026-04-25T07:54:10.996Z</time></trkpt><trkpt lat="44.8845483" lon="8.69666"><ele>102.0</ele><time>2026-04-25T07:54:11.998Z</time></trkpt><trkpt lat="44.884425" lon="8.6967233"><ele>102.0</ele><time>2026-04-25T07:54:12.992Z</time></trkpt><trkpt lat="44.8843033" lon="8.69678"><ele>102.0</ele><time>2026-04-25T07:54:14.002Z</time></trkpt><trkpt lat="44.8841767" lon="8.6968417"><ele>102.0</ele><time>2026-04-25T07:54:14.996Z</time></trkpt><trkpt lat="44.88405" lon="8.6968983"><ele>102.0</ele><time>2026-04-25T07:54:15.997Z</time></trkpt><trkpt lat="44.8839233" lon="8.696955"><ele>101.75</ele><time>2026-04-25T07:54:16.994Z</time></trkpt><trkpt lat="44.8837933" lon="8.6970133"><ele>101.5</ele><time>2026-04-25T07:54:17.999Z</time></trkpt><trkpt lat="44.8836633" lon="8.6970733"><ele>101.25</ele><time>2026-04-25T07:54:18.997Z</time></trkpt><trkpt lat="44.8835333" lon="8.697135"><ele>101.0</ele><time>2026-04-25T07:54:19.997Z</time></trkpt><trkpt lat="44.8833983" lon="8.6971967"><ele>101.0</ele><time>2026-04-25T07:54:21.002Z</time></trkpt><trkpt lat="44.8832617" lon="8.6972583"><ele>101.0</ele><time>2026-04-25T07:54:21.999Z</time></trkpt><trkpt lat="44.88313" lon="8.6973183"><ele>101.0</ele><time>2026-04-25T07:54:22.994Z</time></trkpt><trkpt lat="44.883" lon="8.697385"><ele>101.0</ele><time>2026-04-25T07:54:24Z</time></trkpt><trkpt lat="44.8828733" lon="8.697445"><ele>101.0</ele><time>2026-04-25T07:54:24.996Z</time></trkpt><trkpt lat="44.882755" lon="8.6975033"><ele>101.0</ele><time>2026-04-25T07:54:25.999Z</time></trkpt><trkpt lat="44.88264" lon="8.6975633"><ele>101.0</ele><time>2026-04-25T07:54:27Z</time></trkpt><trkpt lat="44.88253" lon="8.6976183"><ele>101.0</ele><time>2026-04-25T07:54:27.998Z</time></trkpt><trkpt lat="44.8824217" lon="8.6976633"><ele>101.0</ele><time>2026-04-25T07:54:28.995Z</time></trkpt><trkpt lat="44.8823117" lon="8.6977"><ele>101.0</ele><time>2026-04-25T07:54:30.001Z</time></trkpt><trkpt lat="44.8822017" lon="8.6977383"><ele>101.0</ele><time>2026-04-25T07:54:30.998Z</time></trkpt><trkpt lat="44.88209" lon="8.6977683"><ele>101.0</ele><time>2026-04-25T07:54:31.991Z</time></trkpt><trkpt lat="44.8819767" lon="8.6977867"><ele>101.0</ele><time>2026-04-25T07:54:33.001Z</time></trkpt><trkpt lat="44.8818583" lon="8.697805"><ele>101.0</ele><time>2026-04-25T07:54:33.998Z</time></trkpt><trkpt lat="44.881735" lon="8.6978133"><ele>101.0</ele><time>2026-04-25T07:54:34.997Z</time></trkpt><trkpt lat="44.8816117" lon="8.6978167"><ele>101.0</ele><time>2026-04-25T07:54:35.995Z</time></trkpt><trkpt lat="44.8814867" lon="8.6978133"><ele>101.5</ele><time>2026-04-25T07:54:37Z</time></trkpt><trkpt lat="44.881355" lon="8.6978117"><ele>102.0</ele><time>2026-04-25T07:54:37.998Z</time></trkpt><trkpt lat="44.8812217" lon="8.69781"><ele>102.5</ele><time>2026-04-25T07:54:39.002Z</time></trkpt><trkpt lat="44.8810867" lon="8.6978083"><ele>103.0</ele><time>2026-04-25T07:54:40Z</time></trkpt><trkpt lat="44.880955" lon="8.6978083"><ele>102.25</ele><time>2026-04-25T07:54:40.993Z</time></trkpt><trkpt lat="44.8808267" lon="8.69781"><ele>101.5</ele><time>2026-04-25T07:54:41.995Z</time></trkpt><trkpt lat="44.8807033" lon="8.6978117"><ele>100.75</ele><time>2026-04-25T07:54:42.996Z</time></trkpt><trkpt lat="44.8805817" lon="8.697815"><ele>100.0</ele><time>2026-04-25T07:54:43.998Z</time></trkpt><trkpt lat="44.8804633" lon="8.697815"><ele>100.0</ele><time>2026-04-25T07:54:44.994Z</time></trkpt><trkpt lat="44.88035" lon="8.6978117"><ele>100.0</ele><time>2026-04-25T07:54:45.996Z</time></trkpt><trkpt lat="44.88024" lon="8.69781"><ele>100.0</ele><time>2026-04-25T07:54:46.993Z</time></trkpt><trkpt lat="44.8801333" lon="8.6978117"><ele>100.0</ele><time>2026-04-25T07:54:47.995Z</time></trkpt><trkpt lat="44.8800333" lon="8.6978183"><ele>100.0</ele><time>2026-04-25T07:54:48.997Z</time></trkpt><trkpt lat="44.8799367" lon="8.6978417"><ele>100.00000000000001</ele><time>2026-04-25T07:54:49.995Z</time></trkpt><trkpt lat="44.8798467" lon="8.697875"><ele>100.0</ele><time>2026-04-25T07:54:51.001Z</time></trkpt><trkpt lat="44.8797683" lon="8.6979283"><ele>100.0</ele><time>2026-04-25T07:54:51.995Z</time></trkpt><trkpt lat="44.8797083" lon="8.6979933"><ele>100.0</ele><time>2026-04-25T07:54:52.999Z</time></trkpt><trkpt lat="44.8796633" lon="8.698065"><ele>100.00000000000001</ele><time>2026-04-25T07:54:53.994Z</time></trkpt><trkpt lat="44.879625" lon="8.6981417"><ele>100.0</ele><time>2026-04-25T07:54:54.993Z</time></trkpt><trkpt lat="44.8795867" lon="8.6983083"><ele>100.00000000000001</ele><time>2026-04-25T07:54:56.997Z</time></trkpt><trkpt lat="44.879585" lon="8.6983983"><ele>100.0</ele><time>2026-04-25T07:54:57.999Z</time></trkpt><trkpt lat="44.8795983" lon="8.698495"><ele>100.0</ele><time>2026-04-25T07:54:58.998Z</time></trkpt><trkpt lat="44.8796317" lon="8.6985917"><ele>100.0</ele><time>2026-04-25T07:54:59.992Z</time></trkpt><trkpt lat="44.8796783" lon="8.6986767"><ele>100.00000000000001</ele><time>2026-04-25T07:55:00.993Z</time></trkpt><trkpt lat="44.8797333" lon="8.69876"><ele>100.0</ele><time>2026-04-25T07:55:01.996Z</time></trkpt><trkpt lat="44.879795" lon="8.6988433"><ele>100.0</ele><time>2026-04-25T07:55:02.997Z</time></trkpt><trkpt lat="44.87986" lon="8.6989267"><ele>100.0</ele><time>2026-04-25T07:55:03.994Z</time></trkpt><trkpt lat="44.8799267" lon="8.6990067"><ele>100.0</ele><time>2026-04-25T07:55:04.995Z</time></trkpt><trkpt lat="44.8799967" lon="8.699085"><ele>100.0</ele><time>2026-04-25T07:55:05.997Z</time></trkpt><trkpt lat="44.8800617" lon="8.699175"><ele>100.0</ele><time>2026-04-25T07:55:07.002Z</time></trkpt><trkpt lat="44.8801283" lon="8.6992767"><ele>100.2</ele><time>2026-04-25T07:55:08Z</time></trkpt><trkpt lat="44.8801983" lon="8.69939"><ele>100.4</ele><time>2026-04-25T07:55:08.998Z</time></trkpt><trkpt lat="44.880265" lon="8.69951"><ele>100.6</ele><time>2026-04-25T07:55:09.997Z</time></trkpt><trkpt lat="44.880335" lon="8.69963"><ele>100.8</ele><time>2026-04-25T07:55:10.997Z</time></trkpt><trkpt lat="44.8804067" lon="8.699745"><ele>101.0</ele><time>2026-04-25T07:55:11.997Z</time></trkpt><trkpt lat="44.8804783" lon="8.6998533"><ele>101.0</ele><time>2026-04-25T07:55:13.001Z</time></trkpt><trkpt lat="44.8805483" lon="8.6999617"><ele>101.0</ele><time>2026-04-25T07:55:13.995Z</time></trkpt><trkpt lat="44.8806183" lon="8.7000717"><ele>101.0</ele><time>2026-04-25T07:55:15Z</time></trkpt><trkpt lat="44.8806883" lon="8.7001817"><ele>101.0</ele><time>2026-04-25T07:55:15.994Z</time></trkpt><trkpt lat="44.8807633" lon="8.7003083"><ele>101.0</ele><time>2026-04-25T07:55:16.995Z</time></trkpt><trkpt lat="44.880855" lon="8.70045"><ele>101.0</ele><time>2026-04-25T07:55:17.993Z</time></trkpt><trkpt lat="44.8809483" lon="8.7006067"><ele>101.0</ele><time>2026-04-25T07:55:18.997Z</time></trkpt><trkpt lat="44.881045" lon="8.7007583"><ele>101.0</ele><time>2026-04-25T07:55:19.993Z</time></trkpt><trkpt lat="44.88114" lon="8.7009"><ele>101.0</ele><time>2026-04-25T07:55:20.998Z</time></trkpt><trkpt lat="44.8812283" lon="8.7010383"><ele>101.0</ele><time>2026-04-25T07:55:21.998Z</time></trkpt><trkpt lat="44.8813167" lon="8.7011733"><ele>101.0</ele><time>2026-04-25T07:55:22.998Z</time></trkpt><trkpt lat="44.8814" lon="8.7013117"><ele>101.0</ele><time>2026-04-25T07:55:23.992Z</time></trkpt><trkpt lat="44.8814833" lon="8.7014517"><ele>101.0</ele><time>2026-04-25T07:55:25.001Z</time></trkpt><trkpt lat="44.8815633" lon="8.7015933"><ele>101.0</ele><time>2026-04-25T07:55:25.998Z</time></trkpt><trkpt lat="44.8816417" lon="8.70173"><ele>101.0</ele><time>2026-04-25T07:55:26.998Z</time></trkpt><trkpt lat="44.881725" lon="8.7018617"><ele>101.0</ele><time>2026-04-25T07:55:27.999Z</time></trkpt><trkpt lat="44.8818067" lon="8.7019967"><ele>101.0</ele><time>2026-04-25T07:55:28.992Z</time></trkpt><trkpt lat="44.88189" lon="8.7021267"><ele>100.75</ele><time>2026-04-25T07:55:29.999Z</time></trkpt><trkpt lat="44.8819717" lon="8.70226"><ele>100.5</ele><time>2026-04-25T07:55:30.996Z</time></trkpt><trkpt lat="44.8820567" lon="8.7023867"><ele>100.25</ele><time>2026-04-25T07:55:31.999Z</time></trkpt><trkpt lat="44.8821383" lon="8.7025167"><ele>100.0</ele><time>2026-04-25T07:55:32.995Z</time></trkpt><trkpt lat="44.88222" lon="8.7026483"><ele>100.0</ele><time>2026-04-25T07:55:33.993Z</time></trkpt><trkpt lat="44.8823033" lon="8.70278"><ele>100.0</ele><time>2026-04-25T07:55:35.001Z</time></trkpt><trkpt lat="44.8823867" lon="8.7029167"><ele>100.0</ele><time>2026-04-25T07:55:35.994Z</time></trkpt><trkpt lat="44.88247" lon="8.7030517"><ele>100.0</ele><time>2026-04-25T07:55:36.999Z</time></trkpt><trkpt lat="44.882555" lon="8.7031833"><ele>100.25</ele><time>2026-04-25T07:55:37.995Z</time></trkpt><trkpt lat="44.8826383" lon="8.70331"><ele>100.5</ele><time>2026-04-25T07:55:38.993Z</time></trkpt><trkpt lat="44.8827183" lon="8.703435"><ele>100.75</ele><time>2026-04-25T07:55:39.996Z</time></trkpt><trkpt lat="44.8827983" lon="8.7035617"><ele>101.0</ele><time>2026-04-25T07:55:40.996Z</time></trkpt><trkpt lat="44.8828783" lon="8.7036917"><ele>101.0</ele><time>2026-04-25T07:55:41.998Z</time></trkpt><trkpt lat="44.8829567" lon="8.7038117"><ele>101.0</ele><time>2026-04-25T07:55:42.998Z</time></trkpt><trkpt lat="44.8830283" lon="8.7039333"><ele>101.0</ele><time>2026-04-25T07:55:43.998Z</time></trkpt><trkpt lat="44.8830983" lon="8.704055"><ele>101.0</ele><time>2026-04-25T07:55:44.997Z</time></trkpt><trkpt lat="44.8831683" lon="8.7041783"><ele>101.0</ele><time>2026-04-25T07:55:45.998Z</time></trkpt><trkpt lat="44.8832367" lon="8.7043017"><ele>101.0</ele><time>2026-04-25T07:55:46.998Z</time></trkpt><trkpt lat="44.8833067" lon="8.7044367"><ele>101.0</ele><time>2026-04-25T07:55:47.996Z</time></trkpt><trkpt lat="44.8833733" lon="8.704575"><ele>101.0</ele><time>2026-04-25T07:55:48.996Z</time></trkpt><trkpt lat="44.8834367" lon="8.7047233"><ele>101.5</ele><time>2026-04-25T07:55:49.997Z</time></trkpt><trkpt lat="44.883495" lon="8.7048717"><ele>102.0</ele><time>2026-04-25T07:55:50.996Z</time></trkpt><trkpt lat="44.88355" lon="8.7050217"><ele>102.5</ele><time>2026-04-25T07:55:51.996Z</time></trkpt><trkpt lat="44.8836017" lon="8.7051767"><ele>103.0</ele><time>2026-04-25T07:55:52.996Z</time></trkpt><trkpt lat="44.88365" lon="8.7053333"><ele>103.25</ele><time>2026-04-25T07:55:53.996Z</time></trkpt><trkpt lat="44.8836967" lon="8.7054867"><ele>103.5</ele><time>2026-04-25T07:55:54.995Z</time></trkpt><trkpt lat="44.8837367" lon="8.70564"><ele>103.75</ele><time>2026-04-25T07:55:55.995Z</time></trkpt><trkpt lat="44.883775" lon="8.7057917"><ele>104.0</ele><time>2026-04-25T07:55:56.996Z</time></trkpt><trkpt lat="44.88381" lon="8.7059417"><ele>104.5</ele><time>2026-04-25T07:55:57.996Z</time></trkpt><trkpt lat="44.8838417" lon="8.706095"><ele>105.0</ele><time>2026-04-25T07:55:58.998Z</time></trkpt><trkpt lat="44.8838633" lon="8.7062567"><ele>105.5</ele><time>2026-04-25T07:55:59.999Z</time></trkpt><trkpt lat="44.8838833" lon="8.7064233"><ele>106.0</ele><time>2026-04-25T07:56:00.995Z</time></trkpt><trkpt lat="44.8839033" lon="8.7065983"><ele>106.0</ele><time>2026-04-25T07:56:01.998Z</time></trkpt><trkpt lat="44.8839217" lon="8.70678"><ele>106.0</ele><time>2026-04-25T07:56:02.997Z</time></trkpt><trkpt lat="44.88394" lon="8.706965"><ele>106.0</ele><time>2026-04-25T07:56:03.995Z</time></trkpt><trkpt lat="44.8839617" lon="8.7071383"><ele>106.0</ele><time>2026-04-25T07:56:04.998Z</time></trkpt><trkpt lat="44.8839817" lon="8.7073033"><ele>106.25</ele><time>2026-04-25T07:56:06.001Z</time></trkpt><trkpt lat="44.884" lon="8.70747"><ele>106.5</ele><time>2026-04-25T07:56:07Z</time></trkpt><trkpt lat="44.8840167" lon="8.7076383"><ele>106.75</ele><time>2026-04-25T07:56:07.998Z</time></trkpt><trkpt lat="44.8840383" lon="8.7078067"><ele>107.0</ele><time>2026-04-25T07:56:08.995Z</time></trkpt><trkpt lat="44.8840517" lon="8.7079783"><ele>106.5</ele><time>2026-04-25T07:56:10.002Z</time></trkpt><trkpt lat="44.8840667" lon="8.708155"><ele>106.0</ele><time>2026-04-25T07:56:10.997Z</time></trkpt><trkpt lat="44.8840783" lon="8.70833"><ele>105.5</ele><time>2026-04-25T07:56:11.993Z</time></trkpt><trkpt lat="44.8840917" lon="8.708505"><ele>105.0</ele><time>2026-04-25T07:56:12.994Z</time></trkpt><trkpt lat="44.8841067" lon="8.7086733"><ele>104.75</ele><time>2026-04-25T07:56:13.996Z</time></trkpt><trkpt lat="44.8841233" lon="8.7088467"><ele>104.5</ele><time>2026-04-25T07:56:14.999Z</time></trkpt><trkpt lat="44.884145" lon="8.7090183"><ele>104.25</ele><time>2026-04-25T07:56:15.995Z</time></trkpt><trkpt lat="44.8841667" lon="8.7091883"><ele>104.0</ele><time>2026-04-25T07:56:16.996Z</time></trkpt><trkpt lat="44.8841867" lon="8.7093583"><ele>104.0</ele><time>2026-04-25T07:56:17.998Z</time></trkpt><trkpt lat="44.8842033" lon="8.70953"><ele>104.0</ele><time>2026-04-25T07:56:18.994Z</time></trkpt><trkpt lat="44.88422" lon="8.709705"><ele>104.0</ele><time>2026-04-25T07:56:19.999Z</time></trkpt><trkpt lat="44.88424" lon="8.7098733"><ele>104.0</ele><time>2026-04-25T07:56:20.997Z</time></trkpt><trkpt lat="44.88426" lon="8.7100467"><ele>104.25</ele><time>2026-04-25T07:56:21.993Z</time></trkpt><trkpt lat="44.88428" lon="8.71022"><ele>104.5</ele><time>2026-04-25T07:56:22.998Z</time></trkpt><trkpt lat="44.8843" lon="8.7103883"><ele>104.75</ele><time>2026-04-25T07:56:23.999Z</time></trkpt><trkpt lat="44.8843217" lon="8.7105533"><ele>105.0</ele><time>2026-04-25T07:56:25.001Z</time></trkpt><trkpt lat="44.8843417" lon="8.7107233"><ele>105.0</ele><time>2026-04-25T07:56:26.001Z</time></trkpt><trkpt lat="44.8843617" lon="8.7108983"><ele>105.0</ele><time>2026-04-25T07:56:26.995Z</time></trkpt><trkpt lat="44.88438" lon="8.7110717"><ele>105.0</ele><time>2026-04-25T07:56:28.004Z</time></trkpt><trkpt lat="44.8844" lon="8.7112417"><ele>105.0</ele><time>2026-04-25T07:56:28.993Z</time></trkpt><trkpt lat="44.88442" lon="8.7114117"><ele>104.75</ele><time>2026-04-25T07:56:29.996Z</time></trkpt><trkpt lat="44.8844383" lon="8.71158"><ele>104.5</ele><time>2026-04-25T07:56:30.999Z</time></trkpt><trkpt lat="44.88446" lon="8.7117483"><ele>104.25</ele><time>2026-04-25T07:56:31.998Z</time></trkpt><trkpt lat="44.8844833" lon="8.71192"><ele>104.0</ele><time>2026-04-25T07:56:32.998Z</time></trkpt><trkpt lat="44.884505" lon="8.7121"><ele>104.0</ele><time>2026-04-25T07:56:33.995Z</time></trkpt><trkpt lat="44.8845317" lon="8.7122833"><ele>104.0</ele><time>2026-04-25T07:56:35Z</time></trkpt><trkpt lat="44.884545" lon="8.71251"><ele>104.0</ele><time>2026-04-25T07:56:35.997Z</time></trkpt><trkpt lat="44.8845633" lon="8.7127783"><ele>105.5</ele><time>2026-04-25T07:56:37.005Z</time></trkpt><trkpt lat="44.8845783" lon="8.713095"><ele>107.0</ele><time>2026-04-25T07:56:37.997Z</time></trkpt><trkpt lat="44.8846033" lon="8.7134633"><ele>106.5</ele><time>2026-04-25T07:56:38.998Z</time></trkpt><trkpt lat="44.88463" lon="8.7138483"><ele>106.0</ele><time>2026-04-25T07:56:39.998Z</time></trkpt><trkpt lat="44.8846633" lon="8.7142133"><ele>105.5</ele><time>2026-04-25T07:56:40.994Z</time></trkpt><trkpt lat="44.8847033" lon="8.7145583"><ele>105.0</ele><time>2026-04-25T07:56:41.996Z</time></trkpt><trkpt lat="44.8847417" lon="8.7148967"><ele>105.0</ele><time>2026-04-25T07:56:43.004Z</time></trkpt><trkpt lat="44.8847767" lon="8.715215"><ele>105.0</ele><time>2026-04-25T07:56:43.995Z</time></trkpt><trkpt lat="44.8848117" lon="8.715525"><ele>105.33333333333334</ele><time>2026-04-25T07:56:44.992Z</time></trkpt><trkpt lat="44.884845" lon="8.7158183"><ele>105.66666666666667</ele><time>2026-04-25T07:56:45.994Z</time></trkpt><trkpt lat="44.8848717" lon="8.7160983"><ele>106.0</ele><time>2026-04-25T07:56:46.994Z</time></trkpt><trkpt lat="44.8848983" lon="8.7163683"><ele>106.0</ele><time>2026-04-25T07:56:47.999Z</time></trkpt><trkpt lat="44.8849233" lon="8.7166267"><ele>106.0</ele><time>2026-04-25T07:56:48.997Z</time></trkpt><trkpt lat="44.88495" lon="8.7168733"><ele>106.0</ele><time>2026-04-25T07:56:50.002Z</time></trkpt><trkpt lat="44.8849717" lon="8.7171117"><ele>106.0</ele><time>2026-04-25T07:56:50.998Z</time></trkpt><trkpt lat="44.8849933" lon="8.71734"><ele>106.0</ele><time>2026-04-25T07:56:52Z</time></trkpt><trkpt lat="44.8850133" lon="8.71756"><ele>106.0</ele><time>2026-04-25T07:56:52.994Z</time></trkpt><trkpt lat="44.885035" lon="8.7177733"><ele>106.0</ele><time>2026-04-25T07:56:53.999Z</time></trkpt><trkpt lat="44.8850533" lon="8.7179783"><ele>106.0</ele><time>2026-04-25T07:56:54.997Z</time></trkpt><trkpt lat="44.8850717" lon="8.718175"><ele>106.0</ele><time>2026-04-25T07:56:56.002Z</time></trkpt><trkpt lat="44.88509" lon="8.7183617"><ele>106.0</ele><time>2026-04-25T07:56:57.001Z</time></trkpt><trkpt lat="44.8851033" lon="8.7185567"><ele>106.0</ele><time>2026-04-25T07:56:58.001Z</time></trkpt><trkpt lat="44.8851183" lon="8.718755"><ele>106.0</ele><time>2026-04-25T07:56:58.997Z</time></trkpt><trkpt lat="44.885135" lon="8.7189667"><ele>106.0</ele><time>2026-04-25T07:56:59.994Z</time></trkpt><trkpt lat="44.8851483" lon="8.7191817"><ele>106.0</ele><time>2026-04-25T07:57:01.002Z</time></trkpt><trkpt lat="44.8851683" lon="8.71941"><ele>106.0</ele><time>2026-04-25T07:57:01.998Z</time></trkpt><trkpt lat="44.8851867" lon="8.71963"><ele>106.0</ele><time>2026-04-25T07:57:02.995Z</time></trkpt><trkpt lat="44.8852067" lon="8.719845"><ele>106.0</ele><time>2026-04-25T07:57:03.997Z</time></trkpt><trkpt lat="44.8852233" lon="8.7200617"><ele>105.66666666666667</ele><time>2026-04-25T07:57:05.003Z</time></trkpt><trkpt lat="44.885235" lon="8.7202833"><ele>105.33333333333334</ele><time>2026-04-25T07:57:05.996Z</time></trkpt><trkpt lat="44.88525" lon="8.72051"><ele>105.0</ele><time>2026-04-25T07:57:06.998Z</time></trkpt><trkpt lat="44.8852683" lon="8.7207383"><ele>105.0</ele><time>2026-04-25T07:57:07.996Z</time></trkpt><trkpt lat="44.8852883" lon="8.7209667"><ele>105.0</ele><time>2026-04-25T07:57:08.994Z</time></trkpt><trkpt lat="44.8853083" lon="8.7211967"><ele>105.0</ele><time>2026-04-25T07:57:09.999Z</time></trkpt><trkpt lat="44.88533" lon="8.7214267"><ele>105.0</ele><time>2026-04-25T07:57:10.999Z</time></trkpt><trkpt lat="44.885355" lon="8.7216567"><ele>105.0</ele><time>2026-04-25T07:57:11.995Z</time></trkpt><trkpt lat="44.8853767" lon="8.7218867"><ele>105.0</ele><time>2026-04-25T07:57:13.007Z</time></trkpt><trkpt lat="44.8853983" lon="8.7221217"><ele>105.0</ele><time>2026-04-25T07:57:13.997Z</time></trkpt><trkpt lat="44.885415" lon="8.7223583"><ele>105.0</ele><time>2026-04-25T07:57:15.002Z</time></trkpt><trkpt lat="44.88544" lon="8.722595"><ele>105.0</ele><time>2026-04-25T07:57:16Z</time></trkpt><trkpt lat="44.8854617" lon="8.7228333"><ele>105.0</ele><time>2026-04-25T07:57:16.996Z</time></trkpt><trkpt lat="44.8854833" lon="8.7230717"><ele>105.0</ele><time>2026-04-25T07:57:17.997Z</time></trkpt><trkpt lat="44.8855033" lon="8.7233133"><ele>105.0</ele><time>2026-04-25T07:57:19.001Z</time></trkpt><trkpt lat="44.8855283" lon="8.7235567"><ele>104.66666666666666</ele><time>2026-04-25T07:57:19.996Z</time></trkpt><trkpt lat="44.8855533" lon="8.7238"><ele>104.33333333333333</ele><time>2026-04-25T07:57:21.002Z</time></trkpt><trkpt lat="44.88558" lon="8.7240433"><ele>104.0</ele><time>2026-04-25T07:57:22Z</time></trkpt><trkpt lat="44.8856017" lon="8.72429"><ele>104.33333333333333</ele><time>2026-04-25T07:57:22.997Z</time></trkpt><trkpt lat="44.8856233" lon="8.7245417"><ele>104.66666666666666</ele><time>2026-04-25T07:57:23.996Z</time></trkpt><trkpt lat="44.885645" lon="8.7247933"><ele>105.0</ele><time>2026-04-25T07:57:24.995Z</time></trkpt><trkpt lat="44.8856683" lon="8.7250433"><ele>105.66666666666666</ele><time>2026-04-25T07:57:25.999Z</time></trkpt><trkpt lat="44.88569" lon="8.7252917"><ele>106.33333333333333</ele><time>2026-04-25T07:57:26.997Z</time></trkpt><trkpt lat="44.885715" lon="8.72554"><ele>107.0</ele><time>2026-04-25T07:57:27.995Z</time></trkpt><trkpt lat="44.8857367" lon="8.7257933"><ele>107.0</ele><time>2026-04-25T07:57:28.997Z</time></trkpt><trkpt lat="44.8857567" lon="8.7260467"><ele>107.0</ele><time>2026-04-25T07:57:29.995Z</time></trkpt><trkpt lat="44.8857767" lon="8.7263083"><ele>107.0</ele><time>2026-04-25T07:57:30.995Z</time></trkpt><trkpt lat="44.885795" lon="8.7265667"><ele>106.66666666666666</ele><time>2026-04-25T07:57:31.995Z</time></trkpt><trkpt lat="44.885815" lon="8.7268233"><ele>106.33333333333334</ele><time>2026-04-25T07:57:32.996Z</time></trkpt><trkpt lat="44.885835" lon="8.7270783"><ele>106.0</ele><time>2026-04-25T07:57:33.998Z</time></trkpt><trkpt lat="44.8858567" lon="8.72733"><ele>106.0</ele><time>2026-04-25T07:57:34.996Z</time></trkpt><trkpt lat="44.8858767" lon="8.7275833"><ele>106.0</ele><time>2026-04-25T07:57:35.994Z</time></trkpt><trkpt lat="44.885895" lon="8.727835"><ele>106.0</ele><time>2026-04-25T07:57:36.999Z</time></trkpt><trkpt lat="44.8859183" lon="8.7280883"><ele>106.33333333333334</ele><time>2026-04-25T07:57:38.001Z</time></trkpt><trkpt lat="44.8859417" lon="8.7283383"><ele>106.66666666666666</ele><time>2026-04-25T07:57:38.998Z</time></trkpt><trkpt lat="44.88596" lon="8.7285867"><ele>107.0</ele><time>2026-04-25T07:57:40Z</time></trkpt><trkpt lat="44.8859817" lon="8.7288333"><ele>107.0</ele><time>2026-04-25T07:57:40.997Z</time></trkpt><trkpt lat="44.8860017" lon="8.7290783"><ele>107.0</ele><time>2026-04-25T07:57:41.997Z</time></trkpt><trkpt lat="44.8860233" lon="8.7293283"><ele>107.0</ele><time>2026-04-25T07:57:42.999Z</time></trkpt><trkpt lat="44.886045" lon="8.7295733"><ele>106.33333333333333</ele><time>2026-04-25T07:57:43.998Z</time></trkpt><trkpt lat="44.8860683" lon="8.7298183"><ele>105.66666666666666</ele><time>2026-04-25T07:57:44.999Z</time></trkpt><trkpt lat="44.8860933" lon="8.7300717"><ele>105.0</ele><time>2026-04-25T07:57:45.998Z</time></trkpt><trkpt lat="44.8861167" lon="8.730325"><ele>105.0</ele><time>2026-04-25T07:57:46.994Z</time></trkpt><trkpt lat="44.88614" lon="8.7305783"><ele>105.0</ele><time>2026-04-25T07:57:47.999Z</time></trkpt><trkpt lat="44.8861633" lon="8.7308317"><ele>105.0</ele><time>2026-04-25T07:57:48.999Z</time></trkpt><trkpt lat="44.886185" lon="8.7310833"><ele>105.66666666666666</ele><time>2026-04-25T07:57:49.995Z</time></trkpt><trkpt lat="44.8862067" lon="8.73134"><ele>106.33333333333333</ele><time>2026-04-25T07:57:50.996Z</time></trkpt><trkpt lat="44.8862283" lon="8.7316"><ele>107.0</ele><time>2026-04-25T07:57:51.993Z</time></trkpt><trkpt lat="44.8862517" lon="8.73186"><ele>107.0</ele><time>2026-04-25T07:57:52.994Z</time></trkpt><trkpt lat="44.8862733" lon="8.7321217"><ele>107.0</ele><time>2026-04-25T07:57:53.998Z</time></trkpt><trkpt lat="44.88629" lon="8.7323817"><ele>107.0</ele><time>2026-04-25T07:57:55.003Z</time></trkpt><trkpt lat="44.8863083" lon="8.7326433"><ele>107.33333333333333</ele><time>2026-04-25T07:57:56.001Z</time></trkpt><trkpt lat="44.8863283" lon="8.7329067"><ele>107.66666666666666</ele><time>2026-04-25T07:57:56.998Z</time></trkpt><trkpt lat="44.88635" lon="8.7331683"><ele>108.0</ele><time>2026-04-25T07:57:57.995Z</time></trkpt><trkpt lat="44.88637" lon="8.7334283"><ele>107.66666666666666</ele><time>2026-04-25T07:57:58.993Z</time></trkpt><trkpt lat="44.8863917" lon="8.733685"><ele>107.33333333333333</ele><time>2026-04-25T07:57:59.999Z</time></trkpt><trkpt lat="44.8864117" lon="8.7339417"><ele>107.0</ele><time>2026-04-25T07:58:01.003Z</time></trkpt><trkpt lat="44.88644" lon="8.7342033"><ele>107.0</ele><time>2026-04-25T07:58:01.998Z</time></trkpt><trkpt lat="44.8864667" lon="8.7344633"><ele>107.0</ele><time>2026-04-25T07:58:02.998Z</time></trkpt><trkpt lat="44.8864917" lon="8.734725"><ele>107.0</ele><time>2026-04-25T07:58:03.998Z</time></trkpt><trkpt lat="44.8865133" lon="8.7349867"><ele>107.33333333333333</ele><time>2026-04-25T07:58:04.995Z</time></trkpt><trkpt lat="44.886535" lon="8.7352483"><ele>107.66666666666666</ele><time>2026-04-25T07:58:05.999Z</time></trkpt><trkpt lat="44.8865567" lon="8.73551"><ele>108.0</ele><time>2026-04-25T07:58:06.998Z</time></trkpt><trkpt lat="44.8865767" lon="8.7357717"><ele>108.0</ele><time>2026-04-25T07:58:07.996Z</time></trkpt><trkpt lat="44.8865983" lon="8.7360317"><ele>108.0</ele><time>2026-04-25T07:58:08.997Z</time></trkpt><trkpt lat="44.8866217" lon="8.73629"><ele>108.0</ele><time>2026-04-25T07:58:09.995Z</time></trkpt><trkpt lat="44.8866483" lon="8.73655"><ele>108.0</ele><time>2026-04-25T07:58:10.994Z</time></trkpt><trkpt lat="44.88667" lon="8.7368117"><ele>108.0</ele><time>2026-04-25T07:58:11.995Z</time></trkpt><trkpt lat="44.886695" lon="8.7370767"><ele>108.0</ele><time>2026-04-25T07:58:13.001Z</time></trkpt><trkpt lat="44.8867133" lon="8.7373433"><ele>108.0</ele><time>2026-04-25T07:58:14.003Z</time></trkpt><trkpt lat="44.88673" lon="8.737615"><ele>108.0</ele><time>2026-04-25T07:58:14.996Z</time></trkpt><trkpt lat="44.8867533" lon="8.7378833"><ele>108.0</ele><time>2026-04-25T07:58:15.994Z</time></trkpt><trkpt lat="44.8867783" lon="8.7381517"><ele>107.66666666666666</ele><time>2026-04-25T07:58:16.995Z</time></trkpt><trkpt lat="44.8867983" lon="8.7384183"><ele>107.33333333333333</ele><time>2026-04-25T07:58:17.995Z</time></trkpt><trkpt lat="44.8868217" lon="8.738685"><ele>107.0</ele><time>2026-04-25T07:58:18.997Z</time></trkpt><trkpt lat="44.8868483" lon="8.7389533"><ele>107.0</ele><time>2026-04-25T07:58:20Z</time></trkpt><trkpt lat="44.8868733" lon="8.7392217"><ele>107.0</ele><time>2026-04-25T07:58:20.998Z</time></trkpt><trkpt lat="44.8868967" lon="8.7394917"><ele>107.0</ele><time>2026-04-25T07:58:21.999Z</time></trkpt><trkpt lat="44.88692" lon="8.7397633"><ele>107.0</ele><time>2026-04-25T07:58:22.999Z</time></trkpt><trkpt lat="44.886945" lon="8.7400367"><ele>107.0</ele><time>2026-04-25T07:58:23.997Z</time></trkpt><trkpt lat="44.88697" lon="8.74031"><ele>107.0</ele><time>2026-04-25T07:58:24.998Z</time></trkpt><trkpt lat="44.8869967" lon="8.74058"><ele>107.0</ele><time>2026-04-25T07:58:26.001Z</time></trkpt><trkpt lat="44.88702" lon="8.74085"><ele>107.0</ele><time>2026-04-25T07:58:26.997Z</time></trkpt><trkpt lat="44.8870417" lon="8.74112"><ele>107.0</ele><time>2026-04-25T07:58:27.998Z</time></trkpt><trkpt lat="44.887065" lon="8.7413883"><ele>107.0</ele><time>2026-04-25T07:58:28.996Z</time></trkpt><trkpt lat="44.88709" lon="8.7416517"><ele>107.0</ele><time>2026-04-25T07:58:29.996Z</time></trkpt><trkpt lat="44.887115" lon="8.7419133"><ele>107.0</ele><time>2026-04-25T07:58:30.994Z</time></trkpt><trkpt lat="44.88714" lon="8.742175"><ele>107.0</ele><time>2026-04-25T07:58:31.999Z</time></trkpt><trkpt lat="44.887165" lon="8.742435"><ele>107.0</ele><time>2026-04-25T07:58:32.996Z</time></trkpt><trkpt lat="44.8871883" lon="8.7426917"><ele>107.0</ele><time>2026-04-25T07:58:33.996Z</time></trkpt><trkpt lat="44.8872117" lon="8.74295"><ele>107.33333333333333</ele><time>2026-04-25T07:58:35.001Z</time></trkpt><trkpt lat="44.887235" lon="8.7432033"><ele>107.66666666666666</ele><time>2026-04-25T07:58:35.997Z</time></trkpt><trkpt lat="44.8872583" lon="8.743455"><ele>108.0</ele><time>2026-04-25T07:58:36.999Z</time></trkpt><trkpt lat="44.8872817" lon="8.74371"><ele>108.33333333333334</ele><time>2026-04-25T07:58:37.995Z</time></trkpt><trkpt lat="44.8873067" lon="8.7439567"><ele>108.66666666666667</ele><time>2026-04-25T07:58:38.996Z</time></trkpt><trkpt lat="44.88733" lon="8.7442067"><ele>109.0</ele><time>2026-04-25T07:58:39.996Z</time></trkpt><trkpt lat="44.887355" lon="8.7444617"><ele>109.0</ele><time>2026-04-25T07:58:40.994Z</time></trkpt><trkpt lat="44.8873767" lon="8.7447167"><ele>109.0</ele><time>2026-04-25T07:58:41.997Z</time></trkpt><trkpt lat="44.8874" lon="8.744975"><ele>109.0</ele><time>2026-04-25T07:58:42.997Z</time></trkpt><trkpt lat="44.8874183" lon="8.74524"><ele>109.0</ele><time>2026-04-25T07:58:43.998Z</time></trkpt><trkpt lat="44.88744" lon="8.7455133"><ele>109.0</ele><time>2026-04-25T07:58:45.002Z</time></trkpt><trkpt lat="44.88746" lon="8.74579"><ele>109.0</ele><time>2026-04-25T07:58:45.996Z</time></trkpt><trkpt lat="44.8874833" lon="8.7460633"><ele>108.66666666666667</ele><time>2026-04-25T07:58:47Z</time></trkpt><trkpt lat="44.88751" lon="8.7463367"><ele>108.33333333333334</ele><time>2026-04-25T07:58:47.998Z</time></trkpt><trkpt lat="44.887535" lon="8.7466117"><ele>108.0</ele><time>2026-04-25T07:58:48.999Z</time></trkpt><trkpt lat="44.8875633" lon="8.7468833"><ele>108.0</ele><time>2026-04-25T07:58:49.999Z</time></trkpt><trkpt lat="44.88759" lon="8.7471583"><ele>108.0</ele><time>2026-04-25T07:58:50.998Z</time></trkpt><trkpt lat="44.8876167" lon="8.7474283"><ele>108.0</ele><time>2026-04-25T07:58:51.997Z</time></trkpt><trkpt lat="44.887645" lon="8.747695"><ele>108.0</ele><time>2026-04-25T07:58:52.995Z</time></trkpt><trkpt lat="44.8876733" lon="8.74796"><ele>108.0</ele><time>2026-04-25T07:58:53.998Z</time></trkpt><trkpt lat="44.8877" lon="8.7482217"><ele>108.0</ele><time>2026-04-25T07:58:54.997Z</time></trkpt><trkpt lat="44.8877267" lon="8.7484783"><ele>108.33333333333334</ele><time>2026-04-25T07:58:55.998Z</time></trkpt><trkpt lat="44.8877533" lon="8.7487317"><ele>108.66666666666667</ele><time>2026-04-25T07:58:57.003Z</time></trkpt><trkpt lat="44.88778" lon="8.7489833"><ele>109.0</ele><time>2026-04-25T07:58:57.995Z</time></trkpt><trkpt lat="44.8878033" lon="8.74923"><ele>109.0</ele><time>2026-04-25T07:58:58.995Z</time></trkpt><trkpt lat="44.887825" lon="8.7494733"><ele>109.0</ele><time>2026-04-25T07:58:59.998Z</time></trkpt><trkpt lat="44.8878467" lon="8.7497167"><ele>109.0</ele><time>2026-04-25T07:59:00.997Z</time></trkpt><trkpt lat="44.88787" lon="8.7499633"><ele>108.66666666666667</ele><time>2026-04-25T07:59:01.997Z</time></trkpt><trkpt lat="44.8878917" lon="8.7502133"><ele>108.33333333333334</ele><time>2026-04-25T07:59:02.995Z</time></trkpt><trkpt lat="44.8879117" lon="8.750465"><ele>108.0</ele><time>2026-04-25T07:59:03.997Z</time></trkpt><trkpt lat="44.8879367" lon="8.7507167"><ele>108.0</ele><time>2026-04-25T07:59:04.997Z</time></trkpt><trkpt lat="44.887965" lon="8.75097"><ele>108.0</ele><time>2026-04-25T07:59:06Z</time></trkpt><trkpt lat="44.88799" lon="8.7512267"><ele>108.0</ele><time>2026-04-25T07:59:06.997Z</time></trkpt><trkpt lat="44.888015" lon="8.7514883"><ele>108.33333333333334</ele><time>2026-04-25T07:59:07.998Z</time></trkpt><trkpt lat="44.8880433" lon="8.751745"><ele>108.66666666666667</ele><time>2026-04-25T07:59:09Z</time></trkpt><trkpt lat="44.8880667" lon="8.7520017"><ele>109.0</ele><time>2026-04-25T07:59:09.996Z</time></trkpt><trkpt lat="44.8880917" lon="8.7522533"><ele>109.66666666666667</ele><time>2026-04-25T07:59:10.996Z</time></trkpt><trkpt lat="44.888115" lon="8.7525"><ele>110.33333333333334</ele><time>2026-04-25T07:59:11.998Z</time></trkpt><trkpt lat="44.8881383" lon="8.7527417"><ele>111.0</ele><time>2026-04-25T07:59:13.001Z</time></trkpt><trkpt lat="44.8881617" lon="8.7529767"><ele>111.33333333333334</ele><time>2026-04-25T07:59:13.998Z</time></trkpt><trkpt lat="44.888185" lon="8.7532083"><ele>111.66666666666667</ele><time>2026-04-25T07:59:15Z</time></trkpt><trkpt lat="44.8882067" lon="8.75344"><ele>112.0</ele><time>2026-04-25T07:59:15.996Z</time></trkpt><trkpt lat="44.8882283" lon="8.7536667"><ele>112.0</ele><time>2026-04-25T07:59:16.996Z</time></trkpt><trkpt lat="44.8882483" lon="8.7538967"><ele>112.0</ele><time>2026-04-25T07:59:17.994Z</time></trkpt><trkpt lat="44.88827" lon="8.7541283"><ele>112.0</ele><time>2026-04-25T07:59:19.002Z</time></trkpt><trkpt lat="44.8882883" lon="8.7543567"><ele>112.0</ele><time>2026-04-25T07:59:19.996Z</time></trkpt><trkpt lat="44.8883083" lon="8.754585"><ele>112.0</ele><time>2026-04-25T07:59:20.996Z</time></trkpt><trkpt lat="44.8883267" lon="8.7548133"><ele>112.0</ele><time>2026-04-25T07:59:21.996Z</time></trkpt><trkpt lat="44.88835" lon="8.75504"><ele>112.33333333333334</ele><time>2026-04-25T07:59:22.994Z</time></trkpt><trkpt lat="44.8883717" lon="8.7552633"><ele>112.66666666666666</ele><time>2026-04-25T07:59:23.995Z</time></trkpt><trkpt lat="44.888395" lon="8.755475"><ele>113.0</ele><time>2026-04-25T07:59:24.996Z</time></trkpt><trkpt lat="44.888415" lon="8.75568"><ele>112.5</ele><time>2026-04-25T07:59:25.995Z</time></trkpt><trkpt lat="44.88844" lon="8.7558833"><ele>112.0</ele><time>2026-04-25T07:59:26.999Z</time></trkpt><trkpt lat="44.888465" lon="8.7560883"><ele>111.5</ele><time>2026-04-25T07:59:27.994Z</time></trkpt><trkpt lat="44.8884833" lon="8.75629"><ele>111.0</ele><time>2026-04-25T07:59:29.003Z</time></trkpt><trkpt lat="44.8885033" lon="8.75649"><ele>111.0</ele><time>2026-04-25T07:59:29.998Z</time></trkpt><trkpt lat="44.8885217" lon="8.7566833"><ele>111.0</ele><time>2026-04-25T07:59:30.996Z</time></trkpt><trkpt lat="44.8885417" lon="8.756875"><ele>111.0</ele><time>2026-04-25T07:59:31.998Z</time></trkpt><trkpt lat="44.888555" lon="8.7570667"><ele>111.0</ele><time>2026-04-25T07:59:32.994Z</time></trkpt><trkpt lat="44.8885683" lon="8.7572583"><ele>111.0</ele><time>2026-04-25T07:59:33.999Z</time></trkpt><trkpt lat="44.88858" lon="8.75745"><ele>111.0</ele><time>2026-04-25T07:59:34.997Z</time></trkpt><trkpt lat="44.8885933" lon="8.7576317"><ele>111.0</ele><time>2026-04-25T07:59:35.992Z</time></trkpt><trkpt lat="44.8886083" lon="8.75781"><ele>111.0</ele><time>2026-04-25T07:59:36.994Z</time></trkpt><trkpt lat="44.8886233" lon="8.7579833"><ele>111.0</ele><time>2026-04-25T07:59:37.998Z</time></trkpt><trkpt lat="44.888635" lon="8.7581583"><ele>111.0</ele><time>2026-04-25T07:59:38.999Z</time></trkpt><trkpt lat="44.88865" lon="8.7583317"><ele>111.0</ele><time>2026-04-25T07:59:39.995Z</time></trkpt><trkpt lat="44.888665" lon="8.7585017"><ele>111.0</ele><time>2026-04-25T07:59:40.993Z</time></trkpt><trkpt lat="44.8886767" lon="8.7586683"><ele>111.33333333333333</ele><time>2026-04-25T07:59:41.998Z</time></trkpt><trkpt lat="44.8886883" lon="8.7588217"><ele>111.66666666666666</ele><time>2026-04-25T07:59:42.995Z</time></trkpt><trkpt lat="44.8887" lon="8.7589633"><ele>112.0</ele><time>2026-04-25T07:59:43.994Z</time></trkpt><trkpt lat="44.888715" lon="8.7590833"><ele>112.33333333333333</ele><time>2026-04-25T07:59:44.997Z</time></trkpt><trkpt lat="44.88873" lon="8.7591833"><ele>112.66666666666666</ele><time>2026-04-25T07:59:45.994Z</time></trkpt><trkpt lat="44.8887383" lon="8.7592733"><ele>113.0</ele><time>2026-04-25T07:59:46.996Z</time></trkpt><trkpt lat="44.8887517" lon="8.7594"><ele>113.33333333333333</ele><time>2026-04-25T07:59:49.001Z</time></trkpt><trkpt lat="44.8886967" lon="8.75951"><ele>113.66666666666666</ele><time>2026-04-25T08:00:20.996Z</time></trkpt><trkpt lat="44.888695" lon="8.75963"><ele>114.0</ele><time>2026-04-25T08:00:22.995Z</time></trkpt><trkpt lat="44.8887083" lon="8.7597817"><ele>114.33333333333334</ele><time>2026-04-25T08:00:24.997Z</time></trkpt><trkpt lat="44.8887183" lon="8.75988"><ele>114.66666666666667</ele><time>2026-04-25T08:00:25.994Z</time></trkpt><trkpt lat="44.8887333" lon="8.7599783"><ele>115.0</ele><time>2026-04-25T08:00:26.996Z</time></trkpt><trkpt lat="44.8887483" lon="8.7600767"><ele>115.00000000000001</ele><time>2026-04-25T08:00:27.995Z</time></trkpt><trkpt lat="44.8887617" lon="8.76018"><ele>115.0</ele><time>2026-04-25T08:00:28.994Z</time></trkpt><trkpt lat="44.8887767" lon="8.7602883"><ele>115.0</ele><time>2026-04-25T08:00:29.997Z</time></trkpt><trkpt lat="44.88879" lon="8.7604017"><ele>115.0</ele><time>2026-04-25T08:00:30.995Z</time></trkpt><trkpt lat="44.8888017" lon="8.7605133"><ele>115.00000000000001</ele><time>2026-04-25T08:00:31.997Z</time></trkpt><trkpt lat="44.8888133" lon="8.7606317"><ele>115.0</ele><time>2026-04-25T08:00:32.996Z</time></trkpt><trkpt lat="44.888825" lon="8.7607533"><ele>115.2</ele><time>2026-04-25T08:00:33.996Z</time></trkpt><trkpt lat="44.8888333" lon="8.7608817"><ele>115.4</ele><time>2026-04-25T08:00:34.995Z</time></trkpt><trkpt lat="44.888845" lon="8.761015"><ele>115.6</ele><time>2026-04-25T08:00:35.999Z</time></trkpt><trkpt lat="44.8888517" lon="8.7611483"><ele>115.8</ele><time>2026-04-25T08:00:36.998Z</time></trkpt><trkpt lat="44.8888583" lon="8.761285"><ele>116.0</ele><time>2026-04-25T08:00:37.997Z</time></trkpt><trkpt lat="44.888865" lon="8.7614217"><ele>115.6</ele><time>2026-04-25T08:00:39Z</time></trkpt><trkpt lat="44.8888767" lon="8.7615583"><ele>115.19999999999999</ele><time>2026-04-25T08:00:39.998Z</time></trkpt><trkpt lat="44.8888883" lon="8.7616983"><ele>114.80000000000001</ele><time>2026-04-25T08:00:40.998Z</time></trkpt><trkpt lat="44.8888917" lon="8.7618367"><ele>114.4</ele><time>2026-04-25T08:00:42Z</time></trkpt><trkpt lat="44.8889" lon="8.7619683"><ele>114.0</ele><time>2026-04-25T08:00:43Z</time></trkpt><trkpt lat="44.8889083" lon="8.762095"><ele>114.0</ele><time>2026-04-25T08:00:43.993Z</time></trkpt><trkpt lat="44.888915" lon="8.762225"><ele>114.0</ele><time>2026-04-25T08:00:45Z</time></trkpt><trkpt lat="44.8889233" lon="8.7623567"><ele>114.0</ele><time>2026-04-25T08:00:45.997Z</time></trkpt><trkpt lat="44.88893" lon="8.76247"><ele>114.0</ele><time>2026-04-25T08:00:46.995Z</time></trkpt><trkpt lat="44.8889383" lon="8.7625767"><ele>114.0</ele><time>2026-04-25T08:00:47.994Z</time></trkpt><trkpt lat="44.8889433" lon="8.7626767"><ele>114.0</ele><time>2026-04-25T08:00:48.997Z</time></trkpt><trkpt lat="44.8889483" lon="8.762775"><ele>114.16666666666667</ele><time>2026-04-25T08:00:49.996Z</time></trkpt><trkpt lat="44.8889567" lon="8.7628717"><ele>114.33333333333334</ele><time>2026-04-25T08:00:50.999Z</time></trkpt><trkpt lat="44.8889717" lon="8.7629767"><ele>114.5</ele><time>2026-04-25T08:00:51.996Z</time></trkpt><trkpt lat="44.8889833" lon="8.76309"><ele>114.66666666666667</ele><time>2026-04-25T08:00:52.994Z</time></trkpt><trkpt lat="44.8889967" lon="8.7632117"><ele>114.83333333333334</ele><time>2026-04-25T08:00:53.993Z</time></trkpt><trkpt lat="44.8890067" lon="8.763345"><ele>115.0</ele><time>2026-04-25T08:00:54.997Z</time></trkpt><trkpt lat="44.8890183" lon="8.7634833"><ele>115.0</ele><time>2026-04-25T08:00:55.995Z</time></trkpt><trkpt lat="44.8890283" lon="8.763625"><ele>115.0</ele><time>2026-04-25T08:00:56.992Z</time></trkpt><trkpt lat="44.88904" lon="8.763765"><ele>115.0</ele><time>2026-04-25T08:00:57.993Z</time></trkpt><trkpt lat="44.8890417" lon="8.76391"><ele>115.0</ele><time>2026-04-25T08:00:58.996Z</time></trkpt><trkpt lat="44.88905" lon="8.7640617"><ele>115.0</ele><time>2026-04-25T08:00:59.998Z</time></trkpt><trkpt lat="44.8890583" lon="8.7642183"><ele>114.75</ele><time>2026-04-25T08:01:00.998Z</time></trkpt><trkpt lat="44.8890717" lon="8.7643883"><ele>114.5</ele><time>2026-04-25T08:01:01.999Z</time></trkpt><trkpt lat="44.8890867" lon="8.76456"><ele>114.25</ele><time>2026-04-25T08:01:02.998Z</time></trkpt><trkpt lat="44.8891" lon="8.764735"><ele>114.0</ele><time>2026-04-25T08:01:03.994Z</time></trkpt><trkpt lat="44.88911" lon="8.7649117"><ele>114.0</ele><time>2026-04-25T08:01:04.996Z</time></trkpt><trkpt lat="44.88912" lon="8.7650883"><ele>114.0</ele><time>2026-04-25T08:01:05.993Z</time></trkpt><trkpt lat="44.8891317" lon="8.765255"><ele>114.0</ele><time>2026-04-25T08:01:06.997Z</time></trkpt><trkpt lat="44.88914" lon="8.7654267"><ele>114.0</ele><time>2026-04-25T08:01:07.994Z</time></trkpt><trkpt lat="44.8891567" lon="8.7655983"><ele>114.0</ele><time>2026-04-25T08:01:08.997Z</time></trkpt><trkpt lat="44.88918" lon="8.765775"><ele>114.0</ele><time>2026-04-25T08:01:09.993Z</time></trkpt><trkpt lat="44.8892017" lon="8.765965"><ele>114.0</ele><time>2026-04-25T08:01:10.995Z</time></trkpt><trkpt lat="44.889215" lon="8.7661667"><ele>114.0</ele><time>2026-04-25T08:01:11.997Z</time></trkpt><trkpt lat="44.8892333" lon="8.766375"><ele>114.0</ele><time>2026-04-25T08:01:13Z</time></trkpt><trkpt lat="44.8892533" lon="8.7665733"><ele>114.0</ele><time>2026-04-25T08:01:14.001Z</time></trkpt><trkpt lat="44.889275" lon="8.7667767"><ele>114.0</ele><time>2026-04-25T08:01:14.994Z</time></trkpt><trkpt lat="44.8892933" lon="8.76698"><ele>114.0</ele><time>2026-04-25T08:01:15.993Z</time></trkpt><trkpt lat="44.8893083" lon="8.7671833"><ele>113.33333333333334</ele><time>2026-04-25T08:01:16.997Z</time></trkpt><trkpt lat="44.8893317" lon="8.7673883"><ele>112.66666666666667</ele><time>2026-04-25T08:01:17.998Z</time></trkpt><trkpt lat="44.88935" lon="8.7676017"><ele>112.0</ele><time>2026-04-25T08:01:18.995Z</time></trkpt><trkpt lat="44.889365" lon="8.7678233"><ele>111.66666666666667</ele><time>2026-04-25T08:01:19.99Z</time></trkpt><trkpt lat="44.8893783" lon="8.76805"><ele>111.33333333333334</ele><time>2026-04-25T08:01:20.996Z</time></trkpt><trkpt lat="44.8894" lon="8.768275"><ele>111.0</ele><time>2026-04-25T08:01:21.997Z</time></trkpt><trkpt lat="44.8894333" lon="8.7684933"><ele>111.33333333333334</ele><time>2026-04-25T08:01:22.998Z</time></trkpt><trkpt lat="44.8894633" lon="8.7687083"><ele>111.66666666666667</ele><time>2026-04-25T08:01:23.997Z</time></trkpt><trkpt lat="44.88948" lon="8.7689217"><ele>112.0</ele><time>2026-04-25T08:01:24.995Z</time></trkpt><trkpt lat="44.8894867" lon="8.7691483"><ele>112.33333333333334</ele><time>2026-04-25T08:01:25.998Z</time></trkpt><trkpt lat="44.8895067" lon="8.7693767"><ele>112.66666666666666</ele><time>2026-04-25T08:01:26.994Z</time></trkpt><trkpt lat="44.8895233" lon="8.7696"><ele>113.0</ele><time>2026-04-25T08:01:28.001Z</time></trkpt><trkpt lat="44.8895317" lon="8.7698333"><ele>113.0</ele><time>2026-04-25T08:01:28.994Z</time></trkpt><trkpt lat="44.8895567" lon="8.7700633"><ele>113.0</ele><time>2026-04-25T08:01:29.999Z</time></trkpt><trkpt lat="44.8895833" lon="8.7702817"><ele>113.0</ele><time>2026-04-25T08:01:30.998Z</time></trkpt><trkpt lat="44.8895967" lon="8.7705133"><ele>113.0</ele><time>2026-04-25T08:01:31.999Z</time></trkpt><trkpt lat="44.88961" lon="8.7707467"><ele>113.0</ele><time>2026-04-25T08:01:32.996Z</time></trkpt><trkpt lat="44.889625" lon="8.770985"><ele>113.0</ele><time>2026-04-25T08:01:33.993Z</time></trkpt><trkpt lat="44.889645" lon="8.771225"><ele>113.33333333333333</ele><time>2026-04-25T08:01:34.992Z</time></trkpt><trkpt lat="44.8896617" lon="8.7714633"><ele>113.66666666666666</ele><time>2026-04-25T08:01:35.994Z</time></trkpt><trkpt lat="44.8896717" lon="8.7717"><ele>114.0</ele><time>2026-04-25T08:01:36.996Z</time></trkpt><trkpt lat="44.8896833" lon="8.7719317"><ele>114.33333333333334</ele><time>2026-04-25T08:01:37.994Z</time></trkpt><trkpt lat="44.8896967" lon="8.772165"><ele>114.66666666666667</ele><time>2026-04-25T08:01:38.993Z</time></trkpt><trkpt lat="44.889715" lon="8.7724017"><ele>115.0</ele><time>2026-04-25T08:01:39.994Z</time></trkpt><trkpt lat="44.8897333" lon="8.7726417"><ele>114.66666666666667</ele><time>2026-04-25T08:01:40.993Z</time></trkpt><trkpt lat="44.8897533" lon="8.7728833"><ele>114.33333333333334</ele><time>2026-04-25T08:01:41.993Z</time></trkpt><trkpt lat="44.8897733" lon="8.773125"><ele>114.0</ele><time>2026-04-25T08:01:42.993Z</time></trkpt><trkpt lat="44.8897933" lon="8.77337"><ele>114.0</ele><time>2026-04-25T08:01:43.995Z</time></trkpt><trkpt lat="44.8898133" lon="8.773615"><ele>114.0</ele><time>2026-04-25T08:01:44.997Z</time></trkpt><trkpt lat="44.8898367" lon="8.7738567"><ele>114.0</ele><time>2026-04-25T08:01:45.997Z</time></trkpt><trkpt lat="44.88986" lon="8.7740983"><ele>114.0</ele><time>2026-04-25T08:01:46.994Z</time></trkpt><trkpt lat="44.8898833" lon="8.7743383"><ele>114.0</ele><time>2026-04-25T08:01:47.996Z</time></trkpt><trkpt lat="44.8899083" lon="8.77458"><ele>114.0</ele><time>2026-04-25T08:01:48.994Z</time></trkpt><trkpt lat="44.8899333" lon="8.7748217"><ele>113.33333333333334</ele><time>2026-04-25T08:01:49.993Z</time></trkpt><trkpt lat="44.8899583" lon="8.7750683"><ele>112.66666666666667</ele><time>2026-04-25T08:01:50.998Z</time></trkpt><trkpt lat="44.8899817" lon="8.7753133"><ele>112.0</ele><time>2026-04-25T08:01:51.997Z</time></trkpt><trkpt lat="44.8900083" lon="8.7755567"><ele>112.0</ele><time>2026-04-25T08:01:52.995Z</time></trkpt><trkpt lat="44.890035" lon="8.7758"><ele>112.0</ele><time>2026-04-25T08:01:53.995Z</time></trkpt><trkpt lat="44.8900583" lon="8.7760367"><ele>112.0</ele><time>2026-04-25T08:01:54.997Z</time></trkpt><trkpt lat="44.890085" lon="8.77628"><ele>112.0</ele><time>2026-04-25T08:01:56.001Z</time></trkpt><trkpt lat="44.8901133" lon="8.7765217"><ele>112.0</ele><time>2026-04-25T08:01:57.002Z</time></trkpt><trkpt lat="44.8901417" lon="8.7767667"><ele>112.0</ele><time>2026-04-25T08:01:57.993Z</time></trkpt><trkpt lat="44.89017" lon="8.77702"><ele>112.33333333333334</ele><time>2026-04-25T08:01:58.996Z</time></trkpt><trkpt lat="44.8901967" lon="8.7772767"><ele>112.66666666666666</ele><time>2026-04-25T08:01:59.994Z</time></trkpt><trkpt lat="44.8902167" lon="8.7775283"><ele>113.0</ele><time>2026-04-25T08:02:00.994Z</time></trkpt><trkpt lat="44.8902367" lon="8.777785"><ele>113.0</ele><time>2026-04-25T08:02:01.994Z</time></trkpt><trkpt lat="44.8902617" lon="8.778045"><ele>113.0</ele><time>2026-04-25T08:02:02.999Z</time></trkpt><trkpt lat="44.8902867" lon="8.7783033"><ele>113.0</ele><time>2026-04-25T08:02:03.995Z</time></trkpt><trkpt lat="44.89031" lon="8.7785583"><ele>113.0</ele><time>2026-04-25T08:02:04.994Z</time></trkpt><trkpt lat="44.8903383" lon="8.7788083"><ele>113.0</ele><time>2026-04-25T08:02:05.998Z</time></trkpt><trkpt lat="44.8903633" lon="8.7790617"><ele>113.0</ele><time>2026-04-25T08:02:06.998Z</time></trkpt><trkpt lat="44.8903883" lon="8.779315"><ele>112.66666666666666</ele><time>2026-04-25T08:02:07.993Z</time></trkpt><trkpt lat="44.8904117" lon="8.7795667"><ele>112.33333333333334</ele><time>2026-04-25T08:02:08.997Z</time></trkpt><trkpt lat="44.890435" lon="8.7798133"><ele>112.0</ele><time>2026-04-25T08:02:09.992Z</time></trkpt><trkpt lat="44.8904583" lon="8.78005"><ele>112.66666666666667</ele><time>2026-04-25T08:02:11Z</time></trkpt><trkpt lat="44.890485" lon="8.7802867"><ele>113.33333333333334</ele><time>2026-04-25T08:02:11.995Z</time></trkpt><trkpt lat="44.890505" lon="8.7805283"><ele>114.0</ele><time>2026-04-25T08:02:12.997Z</time></trkpt><trkpt lat="44.8905283" lon="8.7807667"><ele>114.0</ele><time>2026-04-25T08:02:13.995Z</time></trkpt><trkpt lat="44.8905533" lon="8.7810033"><ele>114.0</ele><time>2026-04-25T08:02:14.997Z</time></trkpt><trkpt lat="44.8905817" lon="8.7812417"><ele>114.0</ele><time>2026-04-25T08:02:15.996Z</time></trkpt><trkpt lat="44.8906117" lon="8.78148"><ele>113.66666666666666</ele><time>2026-04-25T08:02:16.994Z</time></trkpt><trkpt lat="44.8906367" lon="8.7817233"><ele>113.33333333333333</ele><time>2026-04-25T08:02:17.997Z</time></trkpt><trkpt lat="44.8906567" lon="8.78196"><ele>113.0</ele><time>2026-04-25T08:02:18.995Z</time></trkpt><trkpt lat="44.8906767" lon="8.7821917"><ele>113.0</ele><time>2026-04-25T08:02:20Z</time></trkpt><trkpt lat="44.8906983" lon="8.7824233"><ele>113.0</ele><time>2026-04-25T08:02:20.996Z</time></trkpt><trkpt lat="44.8907167" lon="8.78265"><ele>113.0</ele><time>2026-04-25T08:02:22.002Z</time></trkpt><trkpt lat="44.8907367" lon="8.78287"><ele>113.0</ele><time>2026-04-25T08:02:22.994Z</time></trkpt><trkpt lat="44.8907583" lon="8.78309"><ele>113.0</ele><time>2026-04-25T08:02:24.003Z</time></trkpt><trkpt lat="44.8907817" lon="8.7833083"><ele>113.0</ele><time>2026-04-25T08:02:24.993Z</time></trkpt><trkpt lat="44.890805" lon="8.7835283"><ele>113.0</ele><time>2026-04-25T08:02:25.993Z</time></trkpt><trkpt lat="44.8908283" lon="8.7837517"><ele>113.0</ele><time>2026-04-25T08:02:26.996Z</time></trkpt><trkpt lat="44.89085" lon="8.78398"><ele>113.0</ele><time>2026-04-25T08:02:27.996Z</time></trkpt><trkpt lat="44.8908717" lon="8.78421"><ele>113.33333333333333</ele><time>2026-04-25T08:02:28.997Z</time></trkpt><trkpt lat="44.8908967" lon="8.7844417"><ele>113.66666666666666</ele><time>2026-04-25T08:02:29.994Z</time></trkpt><trkpt lat="44.8909183" lon="8.78467"><ele>114.0</ele><time>2026-04-25T08:02:30.997Z</time></trkpt><trkpt lat="44.8909417" lon="8.7848867"><ele>114.0</ele><time>2026-04-25T08:02:31.994Z</time></trkpt><trkpt lat="44.8909633" lon="8.7850983"><ele>114.0</ele><time>2026-04-25T08:02:32.997Z</time></trkpt><trkpt lat="44.8909833" lon="8.7853033"><ele>114.0</ele><time>2026-04-25T08:02:33.995Z</time></trkpt><trkpt lat="44.8910033" lon="8.785505"><ele>114.0</ele><time>2026-04-25T08:02:34.995Z</time></trkpt><trkpt lat="44.891025" lon="8.7857083"><ele>114.0</ele><time>2026-04-25T08:02:35.994Z</time></trkpt><trkpt lat="44.8910467" lon="8.7859167"><ele>114.0</ele><time>2026-04-25T08:02:36.994Z</time></trkpt><trkpt lat="44.8910783" lon="8.786125"><ele>114.0</ele><time>2026-04-25T08:02:37.994Z</time></trkpt><trkpt lat="44.891105" lon="8.7863383"><ele>113.66666666666666</ele><time>2026-04-25T08:02:38.997Z</time></trkpt><trkpt lat="44.89113" lon="8.7865533"><ele>113.33333333333333</ele><time>2026-04-25T08:02:40.005Z</time></trkpt><trkpt lat="44.8911533" lon="8.7867717"><ele>113.0</ele><time>2026-04-25T08:02:40.996Z</time></trkpt><trkpt lat="44.891175" lon="8.7869917"><ele>113.0</ele><time>2026-04-25T08:02:41.997Z</time></trkpt><trkpt lat="44.8911967" lon="8.787215"><ele>113.0</ele><time>2026-04-25T08:02:42.995Z</time></trkpt><trkpt lat="44.8912183" lon="8.787435"><ele>113.0</ele><time>2026-04-25T08:02:43.995Z</time></trkpt><trkpt lat="44.89124" lon="8.7876583"><ele>113.0</ele><time>2026-04-25T08:02:44.996Z</time></trkpt><trkpt lat="44.8912583" lon="8.7878883"><ele>113.0</ele><time>2026-04-25T08:02:45.997Z</time></trkpt><trkpt lat="44.8912733" lon="8.788115"><ele>113.0</ele><time>2026-04-25T08:02:46.997Z</time></trkpt><trkpt lat="44.8912933" lon="8.7883283"><ele>113.0</ele><time>2026-04-25T08:02:47.996Z</time></trkpt><trkpt lat="44.8913117" lon="8.7885367"><ele>113.0</ele><time>2026-04-25T08:02:48.995Z</time></trkpt><trkpt lat="44.8913333" lon="8.78874"><ele>113.0</ele><time>2026-04-25T08:02:49.996Z</time></trkpt><trkpt lat="44.89135" lon="8.7889367"><ele>113.0</ele><time>2026-04-25T08:02:50.993Z</time></trkpt><trkpt lat="44.8913667" lon="8.789125"><ele>113.0</ele><time>2026-04-25T08:02:51.996Z</time></trkpt><trkpt lat="44.8913833" lon="8.7893183"><ele>113.0</ele><time>2026-04-25T08:02:52.991Z</time></trkpt><trkpt lat="44.8914017" lon="8.7895083"><ele>113.0</ele><time>2026-04-25T08:02:54.001Z</time></trkpt><trkpt lat="44.8914167" lon="8.7897017"><ele>113.0</ele><time>2026-04-25T08:02:54.994Z</time></trkpt><trkpt lat="44.891435" lon="8.789895"><ele>113.0</ele><time>2026-04-25T08:02:55.994Z</time></trkpt><trkpt lat="44.8914483" lon="8.7900917"><ele>113.0</ele><time>2026-04-25T08:02:57.002Z</time></trkpt><trkpt lat="44.8914667" lon="8.7902933"><ele>113.0</ele><time>2026-04-25T08:02:58.002Z</time></trkpt><trkpt lat="44.8914867" lon="8.7905017"><ele>113.0</ele><time>2026-04-25T08:02:58.997Z</time></trkpt><trkpt lat="44.891505" lon="8.7907167"><ele>113.0</ele><time>2026-04-25T08:02:59.993Z</time></trkpt><trkpt lat="44.891525" lon="8.7909383"><ele>113.0</ele><time>2026-04-25T08:03:00.997Z</time></trkpt><trkpt lat="44.8915433" lon="8.7911633"><ele>113.0</ele><time>2026-04-25T08:03:01.995Z</time></trkpt><trkpt lat="44.8915633" lon="8.791395"><ele>112.66666666666666</ele><time>2026-04-25T08:03:02.993Z</time></trkpt><trkpt lat="44.891585" lon="8.7916267"><ele>112.33333333333334</ele><time>2026-04-25T08:03:03.998Z</time></trkpt><trkpt lat="44.891605" lon="8.7918517"><ele>112.0</ele><time>2026-04-25T08:03:04.995Z</time></trkpt><trkpt lat="44.8916233" lon="8.7920683"><ele>112.5</ele><time>2026-04-25T08:03:05.996Z</time></trkpt><trkpt lat="44.8916433" lon="8.7922783"><ele>113.0</ele><time>2026-04-25T08:03:07Z</time></trkpt><trkpt lat="44.8916617" lon="8.7924867"><ele>113.5</ele><time>2026-04-25T08:03:07.998Z</time></trkpt><trkpt lat="44.8916817" lon="8.79269"><ele>114.0</ele><time>2026-04-25T08:03:08.995Z</time></trkpt><trkpt lat="44.8917" lon="8.79289"><ele>114.0</ele><time>2026-04-25T08:03:09.997Z</time></trkpt><trkpt lat="44.89172" lon="8.7930917"><ele>114.0</ele><time>2026-04-25T08:03:10.995Z</time></trkpt><trkpt lat="44.8917383" lon="8.7933"><ele>114.0</ele><time>2026-04-25T08:03:11.998Z</time></trkpt><trkpt lat="44.89176" lon="8.7935117"><ele>114.0</ele><time>2026-04-25T08:03:13.005Z</time></trkpt><trkpt lat="44.8917917" lon="8.7937317"><ele>114.0</ele><time>2026-04-25T08:03:13.993Z</time></trkpt><trkpt lat="44.891805" lon="8.7939533"><ele>114.0</ele><time>2026-04-25T08:03:14.994Z</time></trkpt><trkpt lat="44.89182" lon="8.7941817"><ele>114.0</ele><time>2026-04-25T08:03:15.997Z</time></trkpt><trkpt lat="44.8918383" lon="8.794405"><ele>114.0</ele><time>2026-04-25T08:03:16.996Z</time></trkpt><trkpt lat="44.891855" lon="8.7946333"><ele>114.0</ele><time>2026-04-25T08:03:17.996Z</time></trkpt><trkpt lat="44.8918717" lon="8.7948617"><ele>114.0</ele><time>2026-04-25T08:03:18.999Z</time></trkpt><trkpt lat="44.89189" lon="8.7950867"><ele>113.66666666666666</ele><time>2026-04-25T08:03:19.996Z</time></trkpt><trkpt lat="44.8919067" lon="8.7953067"><ele>113.33333333333333</ele><time>2026-04-25T08:03:20.994Z</time></trkpt><trkpt lat="44.891925" lon="8.7955217"><ele>113.0</ele><time>2026-04-25T08:03:21.993Z</time></trkpt><trkpt lat="44.8919433" lon="8.7957367"><ele>113.0</ele><time>2026-04-25T08:03:22.993Z</time></trkpt><trkpt lat="44.8919583" lon="8.7959467"><ele>113.0</ele><time>2026-04-25T08:03:23.999Z</time></trkpt><trkpt lat="44.8919733" lon="8.7961483"><ele>113.0</ele><time>2026-04-25T08:03:24.996Z</time></trkpt><trkpt lat="44.89199" lon="8.7963483"><ele>113.0</ele><time>2026-04-25T08:03:25.998Z</time></trkpt><trkpt lat="44.8920083" lon="8.7965483"><ele>112.75</ele><time>2026-04-25T08:03:26.994Z</time></trkpt><trkpt lat="44.892025" lon="8.7967483"><ele>112.5</ele><time>2026-04-25T08:03:27.995Z</time></trkpt><trkpt lat="44.892045" lon="8.7969517"><ele>112.25</ele><time>2026-04-25T08:03:28.995Z</time></trkpt><trkpt lat="44.8920633" lon="8.797155"><ele>112.0</ele><time>2026-04-25T08:03:29.998Z</time></trkpt><trkpt lat="44.89208" lon="8.79736"><ele>112.75</ele><time>2026-04-25T08:03:30.996Z</time></trkpt><trkpt lat="44.8920983" lon="8.7975633"><ele>113.5</ele><time>2026-04-25T08:03:31.997Z</time></trkpt><trkpt lat="44.89212" lon="8.7977667"><ele>114.25</ele><time>2026-04-25T08:03:32.997Z</time></trkpt><trkpt lat="44.89214" lon="8.797965"><ele>115.0</ele><time>2026-04-25T08:03:33.997Z</time></trkpt><trkpt lat="44.892155" lon="8.7981667"><ele>115.0</ele><time>2026-04-25T08:03:34.993Z</time></trkpt><trkpt lat="44.892165" lon="8.7983617"><ele>115.0</ele><time>2026-04-25T08:03:35.995Z</time></trkpt><trkpt lat="44.892175" lon="8.7985517"><ele>115.0</ele><time>2026-04-25T08:03:36.993Z</time></trkpt><trkpt lat="44.89219" lon="8.7987367"><ele>115.0</ele><time>2026-04-25T08:03:37.995Z</time></trkpt><trkpt lat="44.8922067" lon="8.7989217"><ele>115.25</ele><time>2026-04-25T08:03:39.002Z</time></trkpt><trkpt lat="44.8922167" lon="8.7991083"><ele>115.5</ele><time>2026-04-25T08:03:39.997Z</time></trkpt><trkpt lat="44.892225" lon="8.799295"><ele>115.75</ele><time>2026-04-25T08:03:40.995Z</time></trkpt><trkpt lat="44.8922267" lon="8.7994883"><ele>116.0</ele><time>2026-04-25T08:03:41.999Z</time></trkpt><trkpt lat="44.8922317" lon="8.7996667"><ele>116.0</ele><time>2026-04-25T08:03:42.996Z</time></trkpt><trkpt lat="44.89224" lon="8.7998383"><ele>116.0</ele><time>2026-04-25T08:03:43.999Z</time></trkpt><trkpt lat="44.89225" lon="8.80001"><ele>116.0</ele><time>2026-04-25T08:03:44.999Z</time></trkpt><trkpt lat="44.892265" lon="8.80018"><ele>116.0</ele><time>2026-04-25T08:03:45.998Z</time></trkpt><trkpt lat="44.8922783" lon="8.80035"><ele>116.0</ele><time>2026-04-25T08:03:46.992Z</time></trkpt><trkpt lat="44.8922883" lon="8.8005167"><ele>116.0</ele><time>2026-04-25T08:03:47.991Z</time></trkpt><trkpt lat="44.8923017" lon="8.8006783"><ele>116.0</ele><time>2026-04-25T08:03:48.997Z</time></trkpt><trkpt lat="44.892315" lon="8.8008417"><ele>116.0</ele><time>2026-04-25T08:03:50.001Z</time></trkpt><trkpt lat="44.892335" lon="8.801005"><ele>116.5</ele><time>2026-04-25T08:03:50.999Z</time></trkpt><trkpt lat="44.8923467" lon="8.8011667"><ele>117.0</ele><time>2026-04-25T08:03:51.998Z</time></trkpt><trkpt lat="44.89236" lon="8.8013267"><ele>117.5</ele><time>2026-04-25T08:03:52.993Z</time></trkpt><trkpt lat="44.89237" lon="8.8014867"><ele>118.0</ele><time>2026-04-25T08:03:53.995Z</time></trkpt><trkpt lat="44.89238" lon="8.8016417"><ele>118.0</ele><time>2026-04-25T08:03:55.005Z</time></trkpt><trkpt lat="44.8923917" lon="8.8017933"><ele>118.00000000000001</ele><time>2026-04-25T08:03:55.991Z</time></trkpt><trkpt lat="44.8924067" lon="8.80194"><ele>118.00000000000001</ele><time>2026-04-25T08:03:56.998Z</time></trkpt><trkpt lat="44.8924167" lon="8.8020767"><ele>118.0</ele><time>2026-04-25T08:03:57.993Z</time></trkpt><trkpt lat="44.8924267" lon="8.8022067"><ele>118.0</ele><time>2026-04-25T08:03:58.994Z</time></trkpt><trkpt lat="44.892435" lon="8.8023267"><ele>118.16666666666667</ele><time>2026-04-25T08:03:59.992Z</time></trkpt><trkpt lat="44.89244" lon="8.8024367"><ele>118.33333333333334</ele><time>2026-04-25T08:04:00.998Z</time></trkpt><trkpt lat="44.8924417" lon="8.80253"><ele>118.5</ele><time>2026-04-25T08:04:02.001Z</time></trkpt><trkpt lat="44.8924433" lon="8.802655"><ele>118.66666666666666</ele><time>2026-04-25T08:04:04Z</time></trkpt><trkpt lat="44.892445" lon="8.8027467"><ele>118.83333333333333</ele><time>2026-04-25T08:04:06.998Z</time></trkpt><trkpt lat="44.8924667" lon="8.8028883"><ele>119.0</ele><time>2026-04-25T08:04:11.994Z</time></trkpt><trkpt lat="44.8924917" lon="8.8030317"><ele>119.14285714285714</ele><time>2026-04-25T08:04:13.996Z</time></trkpt><trkpt lat="44.8925067" lon="8.8031217"><ele>119.28571428571428</ele><time>2026-04-25T08:04:14.993Z</time></trkpt><trkpt lat="44.8925317" lon="8.803215"><ele>119.42857142857143</ele><time>2026-04-25T08:04:15.996Z</time></trkpt><trkpt lat="44.8925533" lon="8.803305"><ele>119.57142857142857</ele><time>2026-04-25T08:04:16.992Z</time></trkpt><trkpt lat="44.8925833" lon="8.8034017"><ele>119.71428571428571</ele><time>2026-04-25T08:04:18.001Z</time></trkpt><trkpt lat="44.8926117" lon="8.8035"><ele>119.85714285714286</ele><time>2026-04-25T08:04:18.999Z</time></trkpt><trkpt lat="44.8926383" lon="8.8036117"><ele>120.0</ele><time>2026-04-25T08:04:19.997Z</time></trkpt><trkpt lat="44.8926617" lon="8.8037333"><ele>119.4</ele><time>2026-04-25T08:04:20.999Z</time></trkpt><trkpt lat="44.8926783" lon="8.803855"><ele>118.8</ele><time>2026-04-25T08:04:21.999Z</time></trkpt><trkpt lat="44.8926967" lon="8.8039833"><ele>118.19999999999999</ele><time>2026-04-25T08:04:22.996Z</time></trkpt><trkpt lat="44.8927083" lon="8.8041083"><ele>117.6</ele><time>2026-04-25T08:04:23.997Z</time></trkpt><trkpt lat="44.8927133" lon="8.8042317"><ele>117.0</ele><time>2026-04-25T08:04:24.998Z</time></trkpt><trkpt lat="44.8927267" lon="8.804365"><ele>116.8</ele><time>2026-04-25T08:04:25.995Z</time></trkpt><trkpt lat="44.8927383" lon="8.8045083"><ele>116.6</ele><time>2026-04-25T08:04:26.999Z</time></trkpt><trkpt lat="44.8927517" lon="8.8046583"><ele>116.39999999999999</ele><time>2026-04-25T08:04:27.997Z</time></trkpt><trkpt lat="44.89276" lon="8.8048133"><ele>116.19999999999999</ele><time>2026-04-25T08:04:28.995Z</time></trkpt><trkpt lat="44.8927733" lon="8.804975"><ele>116.0</ele><time>2026-04-25T08:04:29.995Z</time></trkpt><trkpt lat="44.8927867" lon="8.8051417"><ele>116.0</ele><time>2026-04-25T08:04:30.996Z</time></trkpt><trkpt lat="44.8928" lon="8.8053033"><ele>116.0</ele><time>2026-04-25T08:04:31.997Z</time></trkpt><trkpt lat="44.8928133" lon="8.8054667"><ele>116.0</ele><time>2026-04-25T08:04:32.996Z</time></trkpt><trkpt lat="44.89283" lon="8.80563"><ele>116.0</ele><time>2026-04-25T08:04:33.996Z</time></trkpt><trkpt lat="44.8928483" lon="8.8057933"><ele>116.0</ele><time>2026-04-25T08:04:34.993Z</time></trkpt><trkpt lat="44.8928667" lon="8.8059633"><ele>116.0</ele><time>2026-04-25T08:04:35.994Z</time></trkpt><trkpt lat="44.8928833" lon="8.8061367"><ele>116.0</ele><time>2026-04-25T08:04:36.994Z</time></trkpt><trkpt lat="44.8928983" lon="8.80632"><ele>116.0</ele><time>2026-04-25T08:04:37.995Z</time></trkpt><trkpt lat="44.8929183" lon="8.8064983"><ele>115.75</ele><time>2026-04-25T08:04:39Z</time></trkpt><trkpt lat="44.8929367" lon="8.8066767"><ele>115.5</ele><time>2026-04-25T08:04:39.993Z</time></trkpt><trkpt lat="44.8929567" lon="8.8068517"><ele>115.25</ele><time>2026-04-25T08:04:40.993Z</time></trkpt><trkpt lat="44.8929717" lon="8.8070283"><ele>115.0</ele><time>2026-04-25T08:04:41.997Z</time></trkpt><trkpt lat="44.89299" lon="8.8072117"><ele>115.0</ele><time>2026-04-25T08:04:42.995Z</time></trkpt><trkpt lat="44.893005" lon="8.8073983"><ele>115.0</ele><time>2026-04-25T08:04:43.995Z</time></trkpt><trkpt lat="44.8930183" lon="8.80759"><ele>115.0</ele><time>2026-04-25T08:04:44.994Z</time></trkpt><trkpt lat="44.8930317" lon="8.80778"><ele>115.0</ele><time>2026-04-25T08:04:45.997Z</time></trkpt><trkpt lat="44.8930483" lon="8.8079733"><ele>115.5</ele><time>2026-04-25T08:04:46.996Z</time></trkpt><trkpt lat="44.893065" lon="8.808165"><ele>116.0</ele><time>2026-04-25T08:04:47.998Z</time></trkpt><trkpt lat="44.89308" lon="8.8083567"><ele>116.5</ele><time>2026-04-25T08:04:48.993Z</time></trkpt><trkpt lat="44.8930967" lon="8.8085467"><ele>117.0</ele><time>2026-04-25T08:04:49.997Z</time></trkpt><trkpt lat="44.8931133" lon="8.8087417"><ele>117.0</ele><time>2026-04-25T08:04:50.994Z</time></trkpt><trkpt lat="44.8931317" lon="8.80894"><ele>117.0</ele><time>2026-04-25T08:04:51.995Z</time></trkpt><trkpt lat="44.89315" lon="8.8091417"><ele>117.0</ele><time>2026-04-25T08:04:52.993Z</time></trkpt><trkpt lat="44.89317" lon="8.8093467"><ele>117.0</ele><time>2026-04-25T08:04:53.998Z</time></trkpt><trkpt lat="44.8931867" lon="8.8095533"><ele>116.66666666666666</ele><time>2026-04-25T08:04:54.994Z</time></trkpt><trkpt lat="44.8932017" lon="8.8097633"><ele>116.33333333333333</ele><time>2026-04-25T08:04:55.993Z</time></trkpt><trkpt lat="44.8932183" lon="8.80998"><ele>116.0</ele><time>2026-04-25T08:04:56.994Z</time></trkpt><trkpt lat="44.89324" lon="8.8101933"><ele>116.25</ele><time>2026-04-25T08:04:57.996Z</time></trkpt><trkpt lat="44.8932617" lon="8.8104"><ele>116.5</ele><time>2026-04-25T08:04:58.993Z</time></trkpt><trkpt lat="44.89328" lon="8.810605"><ele>116.75</ele><time>2026-04-25T08:04:59.994Z</time></trkpt><trkpt lat="44.8933017" lon="8.8108067"><ele>117.0</ele><time>2026-04-25T08:05:00.993Z</time></trkpt><trkpt lat="44.893325" lon="8.8110033"><ele>117.0</ele><time>2026-04-25T08:05:01.994Z</time></trkpt><trkpt lat="44.893345" lon="8.8112033"><ele>117.0</ele><time>2026-04-25T08:05:02.995Z</time></trkpt><trkpt lat="44.8933667" lon="8.8114"><ele>117.0</ele><time>2026-04-25T08:05:03.994Z</time></trkpt><trkpt lat="44.8933883" lon="8.8115933"><ele>117.0</ele><time>2026-04-25T08:05:04.999Z</time></trkpt><trkpt lat="44.8934083" lon="8.811785"><ele>116.5</ele><time>2026-04-25T08:05:05.994Z</time></trkpt><trkpt lat="44.8934283" lon="8.8119783"><ele>116.0</ele><time>2026-04-25T08:05:06.996Z</time></trkpt><trkpt lat="44.893445" lon="8.812175"><ele>115.5</ele><time>2026-04-25T08:05:07.996Z</time></trkpt><trkpt lat="44.8934633" lon="8.8123733"><ele>115.0</ele><time>2026-04-25T08:05:08.998Z</time></trkpt><trkpt lat="44.8934817" lon="8.812575"><ele>114.75</ele><time>2026-04-25T08:05:09.993Z</time></trkpt><trkpt lat="44.8935033" lon="8.8127733"><ele>114.5</ele><time>2026-04-25T08:05:10.998Z</time></trkpt><trkpt lat="44.8935233" lon="8.812975"><ele>114.25</ele><time>2026-04-25T08:05:11.999Z</time></trkpt><trkpt lat="44.8935467" lon="8.813175"><ele>114.0</ele><time>2026-04-25T08:05:12.999Z</time></trkpt><trkpt lat="44.893565" lon="8.8133733"><ele>114.25</ele><time>2026-04-25T08:05:13.996Z</time></trkpt><trkpt lat="44.8935833" lon="8.8135683"><ele>114.5</ele><time>2026-04-25T08:05:14.999Z</time></trkpt><trkpt lat="44.8935983" lon="8.81376"><ele>114.75</ele><time>2026-04-25T08:05:15.998Z</time></trkpt><trkpt lat="44.893615" lon="8.8139533"><ele>115.0</ele><time>2026-04-25T08:05:16.996Z</time></trkpt><trkpt lat="44.8936333" lon="8.8141467"><ele>116.25</ele><time>2026-04-25T08:05:18.001Z</time></trkpt><trkpt lat="44.8936483" lon="8.8143417"><ele>117.5</ele><time>2026-04-25T08:05:18.996Z</time></trkpt><trkpt lat="44.8936733" lon="8.81454"><ele>118.75</ele><time>2026-04-25T08:05:19.998Z</time></trkpt><trkpt lat="44.8936933" lon="8.8147433"><ele>120.0</ele><time>2026-04-25T08:05:20.998Z</time></trkpt><trkpt lat="44.89371" lon="8.8149483"><ele>119.25</ele><time>2026-04-25T08:05:21.999Z</time></trkpt><trkpt lat="44.8937283" lon="8.815155"><ele>118.5</ele><time>2026-04-25T08:05:22.999Z</time></trkpt><trkpt lat="44.8937467" lon="8.8153617"><ele>117.75</ele><time>2026-04-25T08:05:23.997Z</time></trkpt><trkpt lat="44.89376" lon="8.8155717"><ele>117.0</ele><time>2026-04-25T08:05:24.998Z</time></trkpt><trkpt lat="44.8937767" lon="8.8157733"><ele>117.0</ele><time>2026-04-25T08:05:26.003Z</time></trkpt><trkpt lat="44.8937967" lon="8.8159567"><ele>117.0</ele><time>2026-04-25T08:05:26.998Z</time></trkpt><trkpt lat="44.893815" lon="8.81613"><ele>117.0</ele><time>2026-04-25T08:05:27.995Z</time></trkpt><trkpt lat="44.893835" lon="8.8162883"><ele>117.0</ele><time>2026-04-25T08:05:28.995Z</time></trkpt><trkpt lat="44.8938483" lon="8.81643"><ele>116.8</ele><time>2026-04-25T08:05:29.99Z</time></trkpt><trkpt lat="44.8938533" lon="8.816565"><ele>116.6</ele><time>2026-04-25T08:05:30.997Z</time></trkpt><trkpt lat="44.8938483" lon="8.8166917"><ele>116.39999999999999</ele><time>2026-04-25T08:05:31.999Z</time></trkpt><trkpt lat="44.8938217" lon="8.8168117"><ele>116.19999999999999</ele><time>2026-04-25T08:05:32.992Z</time></trkpt><trkpt lat="44.8937817" lon="8.8169317"><ele>116.0</ele><time>2026-04-25T08:05:33.995Z</time></trkpt><trkpt lat="44.89376" lon="8.81706"><ele>115.8</ele><time>2026-04-25T08:05:34.994Z</time></trkpt><trkpt lat="44.8937567" lon="8.8171967"><ele>115.6</ele><time>2026-04-25T08:05:36.001Z</time></trkpt><trkpt lat="44.8937783" lon="8.8173283"><ele>115.4</ele><time>2026-04-25T08:05:36.994Z</time></trkpt><trkpt lat="44.8938217" lon="8.817445"><ele>115.2</ele><time>2026-04-25T08:05:37.996Z</time></trkpt><trkpt lat="44.8938683" lon="8.817565"><ele>115.0</ele><time>2026-04-25T08:05:38.999Z</time></trkpt><trkpt lat="44.8939117" lon="8.8176933"><ele>116.0</ele><time>2026-04-25T08:05:39.997Z</time></trkpt><trkpt lat="44.8939483" lon="8.81784"><ele>117.0</ele><time>2026-04-25T08:05:40.993Z</time></trkpt><trkpt lat="44.8939767" lon="8.818005"><ele>118.0</ele><time>2026-04-25T08:05:41.996Z</time></trkpt><trkpt lat="44.8939983" lon="8.8181767"><ele>119.0</ele><time>2026-04-25T08:05:42.991Z</time></trkpt><trkpt lat="44.8940167" lon="8.8183517"><ele>118.25</ele><time>2026-04-25T08:05:43.995Z</time></trkpt><trkpt lat="44.8940383" lon="8.8185267"><ele>117.5</ele><time>2026-04-25T08:05:44.997Z</time></trkpt><trkpt lat="44.894055" lon="8.8187033"><ele>116.75</ele><time>2026-04-25T08:05:45.995Z</time></trkpt><trkpt lat="44.89407" lon="8.81888"><ele>116.0</ele><time>2026-04-25T08:05:46.993Z</time></trkpt><trkpt lat="44.894085" lon="8.8190583"><ele>116.0</ele><time>2026-04-25T08:05:47.997Z</time></trkpt><trkpt lat="44.894105" lon="8.8192367"><ele>116.0</ele><time>2026-04-25T08:05:48.994Z</time></trkpt><trkpt lat="44.894125" lon="8.81942"><ele>116.0</ele><time>2026-04-25T08:05:49.994Z</time></trkpt><trkpt lat="44.89414" lon="8.8196083"><ele>116.0</ele><time>2026-04-25T08:05:50.995Z</time></trkpt><trkpt lat="44.894155" lon="8.819805"><ele>116.0</ele><time>2026-04-25T08:05:51.995Z</time></trkpt><trkpt lat="44.8941717" lon="8.820005"><ele>116.0</ele><time>2026-04-25T08:05:52.998Z</time></trkpt><trkpt lat="44.8941917" lon="8.820205"><ele>116.0</ele><time>2026-04-25T08:05:53.998Z</time></trkpt><trkpt lat="44.8942067" lon="8.8204083"><ele>116.0</ele><time>2026-04-25T08:05:54.996Z</time></trkpt><trkpt lat="44.89422" lon="8.8206083"><ele>116.0</ele><time>2026-04-25T08:05:55.998Z</time></trkpt><trkpt lat="44.8942333" lon="8.8208067"><ele>116.0</ele><time>2026-04-25T08:05:56.995Z</time></trkpt><trkpt lat="44.89424" lon="8.8210067"><ele>116.0</ele><time>2026-04-25T08:05:57.996Z</time></trkpt><trkpt lat="44.8942467" lon="8.821205"><ele>116.0</ele><time>2026-04-25T08:05:59.001Z</time></trkpt><trkpt lat="44.8942533" lon="8.8214033"><ele>115.66666666666666</ele><time>2026-04-25T08:05:59.992Z</time></trkpt><trkpt lat="44.8942583" lon="8.82161"><ele>115.33333333333334</ele><time>2026-04-25T08:06:00.997Z</time></trkpt><trkpt lat="44.8942583" lon="8.82183"><ele>115.0</ele><time>2026-04-25T08:06:01.997Z</time></trkpt><trkpt lat="44.8942633" lon="8.8220617"><ele>115.0</ele><time>2026-04-25T08:06:03.001Z</time></trkpt><trkpt lat="44.8942683" lon="8.8222967"><ele>115.0</ele><time>2026-04-25T08:06:03.997Z</time></trkpt><trkpt lat="44.8942733" lon="8.8225417"><ele>115.0</ele><time>2026-04-25T08:06:05Z</time></trkpt><trkpt lat="44.8942733" lon="8.8227933"><ele>115.33333333333334</ele><time>2026-04-25T08:06:05.994Z</time></trkpt><trkpt lat="44.894275" lon="8.823045"><ele>115.66666666666666</ele><time>2026-04-25T08:06:06.998Z</time></trkpt><trkpt lat="44.8942817" lon="8.823295"><ele>116.0</ele><time>2026-04-25T08:06:07.995Z</time></trkpt><trkpt lat="44.8942883" lon="8.82355"><ele>116.0</ele><time>2026-04-25T08:06:08.993Z</time></trkpt><trkpt lat="44.8942917" lon="8.8237933"><ele>116.0</ele><time>2026-04-25T08:06:09.993Z</time></trkpt><trkpt lat="44.8942933" lon="8.8240333"><ele>116.0</ele><time>2026-04-25T08:06:10.996Z</time></trkpt><trkpt lat="44.8943017" lon="8.824275"><ele>115.66666666666666</ele><time>2026-04-25T08:06:12.005Z</time></trkpt><trkpt lat="44.894305" lon="8.8245167"><ele>115.33333333333334</ele><time>2026-04-25T08:06:12.998Z</time></trkpt><trkpt lat="44.8943067" lon="8.824755"><ele>115.0</ele><time>2026-04-25T08:06:13.995Z</time></trkpt><trkpt lat="44.8943167" lon="8.8249917"><ele>114.66666666666667</ele><time>2026-04-25T08:06:14.996Z</time></trkpt><trkpt lat="44.8943267" lon="8.8252317"><ele>114.33333333333334</ele><time>2026-04-25T08:06:15.997Z</time></trkpt><trkpt lat="44.894335" lon="8.825475"><ele>114.0</ele><time>2026-04-25T08:06:16.995Z</time></trkpt><trkpt lat="44.8943417" lon="8.82572"><ele>114.0</ele><time>2026-04-25T08:06:17.996Z</time></trkpt><trkpt lat="44.8943467" lon="8.8259683"><ele>114.0</ele><time>2026-04-25T08:06:18.993Z</time></trkpt><trkpt lat="44.8943517" lon="8.8262167"><ele>114.0</ele><time>2026-04-25T08:06:19.998Z</time></trkpt><trkpt lat="44.8943567" lon="8.8264617"><ele>113.66666666666666</ele><time>2026-04-25T08:06:20.995Z</time></trkpt><trkpt lat="44.8943633" lon="8.82671"><ele>113.33333333333333</ele><time>2026-04-25T08:06:21.995Z</time></trkpt><trkpt lat="44.8943667" lon="8.82696"><ele>113.0</ele><time>2026-04-25T08:06:22.996Z</time></trkpt><trkpt lat="44.89437" lon="8.8272133"><ele>114.0</ele><time>2026-04-25T08:06:23.996Z</time></trkpt><trkpt lat="44.894375" lon="8.8274667"><ele>115.0</ele><time>2026-04-25T08:06:25.001Z</time></trkpt><trkpt lat="44.8943817" lon="8.8277133"><ele>116.0</ele><time>2026-04-25T08:06:25.993Z</time></trkpt><trkpt lat="44.89439" lon="8.8279517"><ele>116.33333333333333</ele><time>2026-04-25T08:06:26.995Z</time></trkpt><trkpt lat="44.8944" lon="8.82819"><ele>116.66666666666666</ele><time>2026-04-25T08:06:27.999Z</time></trkpt><trkpt lat="44.89441" lon="8.8284267"><ele>117.0</ele><time>2026-04-25T08:06:28.995Z</time></trkpt><trkpt lat="44.89442" lon="8.8286567"><ele>116.66666666666666</ele><time>2026-04-25T08:06:29.994Z</time></trkpt><trkpt lat="44.8944283" lon="8.828885"><ele>116.33333333333333</ele><time>2026-04-25T08:06:30.994Z</time></trkpt><trkpt lat="44.894435" lon="8.8291183"><ele>116.0</ele><time>2026-04-25T08:06:31.996Z</time></trkpt><trkpt lat="44.89444" lon="8.82935"><ele>116.0</ele><time>2026-04-25T08:06:32.994Z</time></trkpt><trkpt lat="44.8944467" lon="8.82958"><ele>116.0</ele><time>2026-04-25T08:06:33.994Z</time></trkpt><trkpt lat="44.89445" lon="8.8298133"><ele>116.0</ele><time>2026-04-25T08:06:34.994Z</time></trkpt><trkpt lat="44.89445" lon="8.8300517"><ele>116.33333333333333</ele><time>2026-04-25T08:06:35.996Z</time></trkpt><trkpt lat="44.8944517" lon="8.8302917"><ele>116.66666666666666</ele><time>2026-04-25T08:06:36.999Z</time></trkpt><trkpt lat="44.8944517" lon="8.83052"><ele>117.0</ele><time>2026-04-25T08:06:37.998Z</time></trkpt><trkpt lat="44.8944483" lon="8.8307467"><ele>117.0</ele><time>2026-04-25T08:06:39.001Z</time></trkpt><trkpt lat="44.8944467" lon="8.8309667"><ele>117.0</ele><time>2026-04-25T08:06:40.001Z</time></trkpt><trkpt lat="44.8944483" lon="8.8311883"><ele>117.0</ele><time>2026-04-25T08:06:40.997Z</time></trkpt><trkpt lat="44.8944467" lon="8.831415"><ele>117.0</ele><time>2026-04-25T08:06:41.999Z</time></trkpt><trkpt lat="44.8944433" lon="8.8316467"><ele>117.0</ele><time>2026-04-25T08:06:42.998Z</time></trkpt><trkpt lat="44.8944433" lon="8.8318833"><ele>117.0</ele><time>2026-04-25T08:06:44.002Z</time></trkpt><trkpt lat="44.89445" lon="8.8321267"><ele>117.33333333333334</ele><time>2026-04-25T08:06:45.002Z</time></trkpt><trkpt lat="44.8944583" lon="8.8323717"><ele>117.66666666666667</ele><time>2026-04-25T08:06:46.002Z</time></trkpt><trkpt lat="44.8944667" lon="8.83261"><ele>118.0</ele><time>2026-04-25T08:06:46.997Z</time></trkpt><trkpt lat="44.89448" lon="8.83284"><ele>117.33333333333334</ele><time>2026-04-25T08:06:47.997Z</time></trkpt><trkpt lat="44.89449" lon="8.833065"><ele>116.66666666666666</ele><time>2026-04-25T08:06:49.001Z</time></trkpt><trkpt lat="44.8944967" lon="8.8332967"><ele>116.0</ele><time>2026-04-25T08:06:49.998Z</time></trkpt><trkpt lat="44.8945033" lon="8.8335333"><ele>116.0</ele><time>2026-04-25T08:06:50.998Z</time></trkpt><trkpt lat="44.8945117" lon="8.8337733"><ele>116.0</ele><time>2026-04-25T08:06:51.997Z</time></trkpt><trkpt lat="44.8945183" lon="8.834015"><ele>116.0</ele><time>2026-04-25T08:06:52.998Z</time></trkpt><trkpt lat="44.8945217" lon="8.83426"><ele>116.66666666666666</ele><time>2026-04-25T08:06:54.001Z</time></trkpt><trkpt lat="44.894525" lon="8.8344967"><ele>117.33333333333334</ele><time>2026-04-25T08:06:55.002Z</time></trkpt><trkpt lat="44.8945267" lon="8.8347333"><ele>118.0</ele><time>2026-04-25T08:06:56Z</time></trkpt><trkpt lat="44.89453" lon="8.8349683"><ele>118.33333333333334</ele><time>2026-04-25T08:06:56.998Z</time></trkpt><trkpt lat="44.8945333" lon="8.8351983"><ele>118.66666666666666</ele><time>2026-04-25T08:06:57.997Z</time></trkpt><trkpt lat="44.8945367" lon="8.83542"><ele>119.0</ele><time>2026-04-25T08:06:58.999Z</time></trkpt><trkpt lat="44.89454" lon="8.8356433"><ele>119.0</ele><time>2026-04-25T08:06:59.998Z</time></trkpt><trkpt lat="44.8945483" lon="8.8358633"><ele>119.0</ele><time>2026-04-25T08:07:00.997Z</time></trkpt><trkpt lat="44.8945517" lon="8.8360817"><ele>119.0</ele><time>2026-04-25T08:07:01.999Z</time></trkpt><trkpt lat="44.8945517" lon="8.8363"><ele>118.33333333333333</ele><time>2026-04-25T08:07:03.001Z</time></trkpt><trkpt lat="44.8945533" lon="8.8365217"><ele>117.66666666666666</ele><time>2026-04-25T08:07:04.011Z</time></trkpt><trkpt lat="44.89456" lon="8.8367433"><ele>117.0</ele><time>2026-04-25T08:07:05.001Z</time></trkpt><trkpt lat="44.894565" lon="8.8369683"><ele>116.66666666666666</ele><time>2026-04-25T08:07:06.003Z</time></trkpt><trkpt lat="44.8945717" lon="8.8371917"><ele>116.33333333333333</ele><time>2026-04-25T08:07:07.003Z</time></trkpt><trkpt lat="44.89458" lon="8.8374217"><ele>116.0</ele><time>2026-04-25T08:07:07.999Z</time></trkpt><trkpt lat="44.8945867" lon="8.83765"><ele>116.0</ele><time>2026-04-25T08:07:09.005Z</time></trkpt><trkpt lat="44.8945917" lon="8.8378767"><ele>116.0</ele><time>2026-04-25T08:07:10.001Z</time></trkpt><trkpt lat="44.8945933" lon="8.8380983"><ele>116.0</ele><time>2026-04-25T08:07:10.998Z</time></trkpt><trkpt lat="44.89459" lon="8.8383117"><ele>116.0</ele><time>2026-04-25T08:07:12.006Z</time></trkpt><trkpt lat="44.89459" lon="8.8385133"><ele>116.0</ele><time>2026-04-25T08:07:13Z</time></trkpt><trkpt lat="44.8945933" lon="8.838705"><ele>116.0</ele><time>2026-04-25T08:07:14Z</time></trkpt><trkpt lat="44.8945933" lon="8.8388983"><ele>116.0</ele><time>2026-04-25T08:07:15.007Z</time></trkpt><trkpt lat="44.8945933" lon="8.839095"><ele>116.0</ele><time>2026-04-25T08:07:15.996Z</time></trkpt><trkpt lat="44.894595" lon="8.8392917"><ele>116.0</ele><time>2026-04-25T08:07:17.002Z</time></trkpt><trkpt lat="44.8946017" lon="8.8394883"><ele>116.0</ele><time>2026-04-25T08:07:17.999Z</time></trkpt><trkpt lat="44.8946067" lon="8.8396867"><ele>116.0</ele><time>2026-04-25T08:07:19.001Z</time></trkpt><trkpt lat="44.8946083" lon="8.8398867"><ele>116.25</ele><time>2026-04-25T08:07:19.998Z</time></trkpt><trkpt lat="44.8946117" lon="8.8400767"><ele>116.5</ele><time>2026-04-25T08:07:20.995Z</time></trkpt><trkpt lat="44.8946167" lon="8.84026"><ele>116.75</ele><time>2026-04-25T08:07:21.997Z</time></trkpt><trkpt lat="44.8946217" lon="8.84044"><ele>117.0</ele><time>2026-04-25T08:07:22.996Z</time></trkpt><trkpt lat="44.894625" lon="8.8406167"><ele>117.0</ele><time>2026-04-25T08:07:23.996Z</time></trkpt><trkpt lat="44.8946267" lon="8.84079"><ele>117.0</ele><time>2026-04-25T08:07:24.996Z</time></trkpt><trkpt lat="44.8946333" lon="8.84096"><ele>117.0</ele><time>2026-04-25T08:07:26.001Z</time></trkpt><trkpt lat="44.894635" lon="8.8411283"><ele>117.0</ele><time>2026-04-25T08:07:26.997Z</time></trkpt><trkpt lat="44.8946333" lon="8.841295"><ele>117.19999999999999</ele><time>2026-04-25T08:07:28.002Z</time></trkpt><trkpt lat="44.8946367" lon="8.8414483"><ele>117.39999999999999</ele><time>2026-04-25T08:07:28.996Z</time></trkpt><trkpt lat="44.8946383" lon="8.8416033"><ele>117.60000000000001</ele><time>2026-04-25T08:07:30Z</time></trkpt><trkpt lat="44.89464" lon="8.8417517"><ele>117.80000000000001</ele><time>2026-04-25T08:07:31Z</time></trkpt><trkpt lat="44.894645" lon="8.8419033"><ele>118.0</ele><time>2026-04-25T08:07:31.997Z</time></trkpt><trkpt lat="44.8946533" lon="8.8420567"><ele>117.60000000000001</ele><time>2026-04-25T08:07:32.999Z</time></trkpt><trkpt lat="44.8946567" lon="8.8421933"><ele>117.20000000000002</ele><time>2026-04-25T08:07:33.998Z</time></trkpt><trkpt lat="44.89466" lon="8.8423333"><ele>116.8</ele><time>2026-04-25T08:07:34.997Z</time></trkpt><trkpt lat="44.894655" lon="8.8424733"><ele>116.4</ele><time>2026-04-25T08:07:36Z</time></trkpt><trkpt lat="44.894635" lon="8.8426433"><ele>116.0</ele><time>2026-04-25T08:07:36.997Z</time></trkpt><trkpt lat="44.894635" lon="8.8427983"><ele>115.6</ele><time>2026-04-25T08:07:37.998Z</time></trkpt><trkpt lat="44.8946383" lon="8.8429483"><ele>115.19999999999999</ele><time>2026-04-25T08:07:39.001Z</time></trkpt><trkpt lat="44.894645" lon="8.8430983"><ele>114.80000000000001</ele><time>2026-04-25T08:07:40.001Z</time></trkpt><trkpt lat="44.89465" lon="8.8432517"><ele>114.4</ele><time>2026-04-25T08:07:40.999Z</time></trkpt><trkpt lat="44.894655" lon="8.8433967"><ele>114.0</ele><time>2026-04-25T08:07:41.998Z</time></trkpt><trkpt lat="44.8946633" lon="8.8435383"><ele>113.2</ele><time>2026-04-25T08:07:43.002Z</time></trkpt><trkpt lat="44.8946717" lon="8.843685"><ele>112.4</ele><time>2026-04-25T08:07:43.999Z</time></trkpt><trkpt lat="44.89468" lon="8.84383"><ele>111.6</ele><time>2026-04-25T08:07:44.996Z</time></trkpt><trkpt lat="44.89468" lon="8.8439783"><ele>110.8</ele><time>2026-04-25T08:07:45.999Z</time></trkpt><trkpt lat="44.8946833" lon="8.8441283"><ele>110.0</ele><time>2026-04-25T08:07:46.999Z</time></trkpt><trkpt lat="44.894685" lon="8.8442817"><ele>110.0</ele><time>2026-04-25T08:07:48.003Z</time></trkpt><trkpt lat="44.89469" lon="8.8444333"><ele>110.0</ele><time>2026-04-25T08:07:48.999Z</time></trkpt><trkpt lat="44.8946883" lon="8.84459"><ele>110.0</ele><time>2026-04-25T08:07:49.999Z</time></trkpt><trkpt lat="44.894695" lon="8.844745"><ele>110.0</ele><time>2026-04-25T08:07:51Z</time></trkpt><trkpt lat="44.8946967" lon="8.8449"><ele>110.0</ele><time>2026-04-25T08:07:51.994Z</time></trkpt><trkpt lat="44.894705" lon="8.8450533"><ele>110.2</ele><time>2026-04-25T08:07:52.998Z</time></trkpt><trkpt lat="44.894715" lon="8.8452083"><ele>110.4</ele><time>2026-04-25T08:07:53.996Z</time></trkpt><trkpt lat="44.894715" lon="8.8453667"><ele>110.6</ele><time>2026-04-25T08:07:55.004Z</time></trkpt><trkpt lat="44.8947217" lon="8.845525"><ele>110.8</ele><time>2026-04-25T08:07:55.997Z</time></trkpt><trkpt lat="44.894725" lon="8.8456867"><ele>111.0</ele><time>2026-04-25T08:07:56.997Z</time></trkpt><trkpt lat="44.89473" lon="8.84584"><ele>112.0</ele><time>2026-04-25T08:07:57.999Z</time></trkpt><trkpt lat="44.894735" lon="8.8459933"><ele>113.0</ele><time>2026-04-25T08:07:58.999Z</time></trkpt><trkpt lat="44.8947383" lon="8.8461517"><ele>114.0</ele><time>2026-04-25T08:07:59.998Z</time></trkpt><trkpt lat="44.8947433" lon="8.846315"><ele>115.0</ele><time>2026-04-25T08:08:01.002Z</time></trkpt><trkpt lat="44.894745" lon="8.8464867"><ele>115.0</ele><time>2026-04-25T08:08:02.002Z</time></trkpt><trkpt lat="44.8947517" lon="8.8466533"><ele>115.0</ele><time>2026-04-25T08:08:03.011Z</time></trkpt><trkpt lat="44.8947517" lon="8.84682"><ele>115.0</ele><time>2026-04-25T08:08:04.002Z</time></trkpt><trkpt lat="44.8947567" lon="8.8469817"><ele>115.0</ele><time>2026-04-25T08:08:04.994Z</time></trkpt><trkpt lat="44.8947633" lon="8.8471333"><ele>115.4</ele><time>2026-04-25T08:08:05.995Z</time></trkpt><trkpt lat="44.8947683" lon="8.8472883"><ele>115.8</ele><time>2026-04-25T08:08:06.995Z</time></trkpt><trkpt lat="44.89477" lon="8.8474417"><ele>116.19999999999999</ele><time>2026-04-25T08:08:07.998Z</time></trkpt><trkpt lat="44.89477" lon="8.8475917"><ele>116.6</ele><time>2026-04-25T08:08:08.997Z</time></trkpt><trkpt lat="44.8947717" lon="8.8477467"><ele>117.0</ele><time>2026-04-25T08:08:09.992Z</time></trkpt><trkpt lat="44.89477" lon="8.8479017"><ele>117.0</ele><time>2026-04-25T08:08:10.995Z</time></trkpt><trkpt lat="44.89477" lon="8.8480583"><ele>116.99999999999999</ele><time>2026-04-25T08:08:12.002Z</time></trkpt><trkpt lat="44.8947733" lon="8.8482167"><ele>116.99999999999999</ele><time>2026-04-25T08:08:12.999Z</time></trkpt><trkpt lat="44.894775" lon="8.8483717"><ele>117.0</ele><time>2026-04-25T08:08:14Z</time></trkpt><trkpt lat="44.8947767" lon="8.8485333"><ele>117.0</ele><time>2026-04-25T08:08:14.994Z</time></trkpt><trkpt lat="44.89478" lon="8.8486917"><ele>117.0</ele><time>2026-04-25T08:08:15.999Z</time></trkpt><trkpt lat="44.894785" lon="8.848855"><ele>117.0</ele><time>2026-04-25T08:08:16.995Z</time></trkpt><trkpt lat="44.89479" lon="8.849015"><ele>117.0</ele><time>2026-04-25T08:08:18.002Z</time></trkpt><trkpt lat="44.894795" lon="8.8491733"><ele>117.0</ele><time>2026-04-25T08:08:18.997Z</time></trkpt><trkpt lat="44.8948" lon="8.8493317"><ele>117.6</ele><time>2026-04-25T08:08:19.997Z</time></trkpt><trkpt lat="44.8948033" lon="8.8494933"><ele>118.19999999999999</ele><time>2026-04-25T08:08:20.996Z</time></trkpt><trkpt lat="44.894805" lon="8.849655"><ele>118.8</ele><time>2026-04-25T08:08:22.002Z</time></trkpt><trkpt lat="44.8948067" lon="8.849815"><ele>119.4</ele><time>2026-04-25T08:08:23Z</time></trkpt><trkpt lat="44.8948083" lon="8.8499633"><ele>120.0</ele><time>2026-04-25T08:08:24.001Z</time></trkpt><trkpt lat="44.89481" lon="8.8500983"><ele>119.83333333333333</ele><time>2026-04-25T08:08:24.997Z</time></trkpt><trkpt lat="44.8948117" lon="8.8502267"><ele>119.66666666666666</ele><time>2026-04-25T08:08:25.996Z</time></trkpt><trkpt lat="44.894815" lon="8.8503433"><ele>119.5</ele><time>2026-04-25T08:08:26.998Z</time></trkpt><trkpt lat="44.8948167" lon="8.85045"><ele>119.33333333333333</ele><time>2026-04-25T08:08:27.999Z</time></trkpt><trkpt lat="44.8948183" lon="8.850605"><ele>119.16666666666666</ele><time>2026-04-25T08:08:29.998Z</time></trkpt><trkpt lat="44.8948167" lon="8.8507133"><ele>119.0</ele><time>2026-04-25T08:08:32Z</time></trkpt><trkpt lat="44.894805" lon="8.8508117"><ele>118.99999999999999</ele><time>2026-04-25T08:08:34Z</time></trkpt><trkpt lat="44.8947917" lon="8.8509467"><ele>119.0</ele><time>2026-04-25T08:08:36Z</time></trkpt><trkpt lat="44.894795" lon="8.851115"><ele>119.0</ele><time>2026-04-25T08:08:38.001Z</time></trkpt><trkpt lat="44.894805" lon="8.85121"><ele>119.0</ele><time>2026-04-25T08:08:38.998Z</time></trkpt><trkpt lat="44.89481" lon="8.851315"><ele>118.99999999999999</ele><time>2026-04-25T08:08:39.999Z</time></trkpt><trkpt lat="44.8948167" lon="8.8514233"><ele>119.0</ele><time>2026-04-25T08:08:40.998Z</time></trkpt><trkpt lat="44.89482" lon="8.851545"><ele>118.99999999999999</ele><time>2026-04-25T08:08:41.995Z</time></trkpt><trkpt lat="44.89482" lon="8.85167"><ele>119.0</ele><time>2026-04-25T08:08:43.002Z</time></trkpt><trkpt lat="44.894825" lon="8.8517917"><ele>119.0</ele><time>2026-04-25T08:08:44.004Z</time></trkpt><trkpt lat="44.89483" lon="8.8519117"><ele>119.0</ele><time>2026-04-25T08:08:45.001Z</time></trkpt><trkpt lat="44.8948367" lon="8.8520317"><ele>118.99999999999999</ele><time>2026-04-25T08:08:46Z</time></trkpt><trkpt lat="44.8948467" lon="8.8521517"><ele>119.0</ele><time>2026-04-25T08:08:46.996Z</time></trkpt><trkpt lat="44.894855" lon="8.8522733"><ele>118.99999999999999</ele><time>2026-04-25T08:08:48Z</time></trkpt><trkpt lat="44.894865" lon="8.852395"><ele>119.0</ele><time>2026-04-25T08:08:48.998Z</time></trkpt><trkpt lat="44.8948833" lon="8.8525167"><ele>119.0</ele><time>2026-04-25T08:08:50.003Z</time></trkpt><trkpt lat="44.89491" lon="8.8526333"><ele>119.0</ele><time>2026-04-25T08:08:50.998Z</time></trkpt><trkpt lat="44.89494" lon="8.8527517"><ele>118.99999999999999</ele><time>2026-04-25T08:08:51.997Z</time></trkpt><trkpt lat="44.8949767" lon="8.8528683"><ele>119.0</ele><time>2026-04-25T08:08:52.997Z</time></trkpt><trkpt lat="44.8950267" lon="8.852985"><ele>119.2</ele><time>2026-04-25T08:08:54Z</time></trkpt><trkpt lat="44.8950833" lon="8.8531017"><ele>119.4</ele><time>2026-04-25T08:08:55.003Z</time></trkpt><trkpt lat="44.8951383" lon="8.8532183"><ele>119.6</ele><time>2026-04-25T08:08:55.999Z</time></trkpt><trkpt lat="44.8952083" lon="8.85333"><ele>119.8</ele><time>2026-04-25T08:08:56.995Z</time></trkpt><trkpt lat="44.8952833" lon="8.8534433"><ele>120.0</ele><time>2026-04-25T08:08:57.995Z</time></trkpt><trkpt lat="44.8953617" lon="8.8535567"><ele>120.0</ele><time>2026-04-25T08:08:58.997Z</time></trkpt><trkpt lat="44.8954383" lon="8.85367"><ele>120.0</ele><time>2026-04-25T08:09:00.002Z</time></trkpt><trkpt lat="44.8955167" lon="8.85378"><ele>120.0</ele><time>2026-04-25T08:09:01.002Z</time></trkpt><trkpt lat="44.895595" lon="8.853885"><ele>120.0</ele><time>2026-04-25T08:09:01.999Z</time></trkpt><trkpt lat="44.8956767" lon="8.85399"><ele>120.0</ele><time>2026-04-25T08:09:02.997Z</time></trkpt><trkpt lat="44.8957533" lon="8.8541"><ele>120.0</ele><time>2026-04-25T08:09:03.995Z</time></trkpt><trkpt lat="44.8958283" lon="8.854205"><ele>120.0</ele><time>2026-04-25T08:09:04.999Z</time></trkpt><trkpt lat="44.895895" lon="8.85431"><ele>120.0</ele><time>2026-04-25T08:09:05.999Z</time></trkpt><trkpt lat="44.8959533" lon="8.8544167"><ele>120.0</ele><time>2026-04-25T08:09:06.995Z</time></trkpt><trkpt lat="44.8960017" lon="8.8545217"><ele>120.0</ele><time>2026-04-25T08:09:07.999Z</time></trkpt><trkpt lat="44.8960417" lon="8.8546233"><ele>119.83333333333333</ele><time>2026-04-25T08:09:08.995Z</time></trkpt><trkpt lat="44.896075" lon="8.8547117"><ele>119.66666666666666</ele><time>2026-04-25T08:09:10.002Z</time></trkpt><trkpt lat="44.896105" lon="8.8547917"><ele>119.5</ele><time>2026-04-25T08:09:10.998Z</time></trkpt><trkpt lat="44.896135" lon="8.8549"><ele>119.33333333333333</ele><time>2026-04-25T08:09:12.999Z</time></trkpt><trkpt lat="44.8961517" lon="8.8550017"><ele>119.16666666666666</ele><time>2026-04-25T08:09:15.999Z</time></trkpt><trkpt lat="44.8961667" lon="8.8551167"><ele>119.0</ele><time>2026-04-25T08:09:17.999Z</time></trkpt><trkpt lat="44.896185" lon="8.8552583"><ele>118.99999999999999</ele><time>2026-04-25T08:09:19.995Z</time></trkpt><trkpt lat="44.8962817" lon="8.8553267"><ele>119.0</ele><time>2026-04-25T08:09:21.999Z</time></trkpt><trkpt lat="44.8963933" lon="8.8552833"><ele>119.0</ele><time>2026-04-25T08:09:23.995Z</time></trkpt><trkpt lat="44.8964533" lon="8.8552483"><ele>119.0</ele><time>2026-04-25T08:09:24.998Z</time></trkpt><trkpt lat="44.8965117" lon="8.8552067"><ele>118.99999999999999</ele><time>2026-04-25T08:09:25.997Z</time></trkpt><trkpt lat="44.89658" lon="8.85516"><ele>119.0</ele><time>2026-04-25T08:09:26.996Z</time></trkpt><trkpt lat="44.8966667" lon="8.85509"><ele>118.4</ele><time>2026-04-25T08:09:28.001Z</time></trkpt><trkpt lat="44.8967567" lon="8.8550217"><ele>117.80000000000001</ele><time>2026-04-25T08:09:29.002Z</time></trkpt><trkpt lat="44.896855" lon="8.8549567"><ele>117.19999999999999</ele><time>2026-04-25T08:09:30Z</time></trkpt><trkpt lat="44.8969567" lon="8.8548967"><ele>116.6</ele><time>2026-04-25T08:09:30.998Z</time></trkpt><trkpt lat="44.8970617" lon="8.8548367"><ele>116.0</ele><time>2026-04-25T08:09:32Z</time></trkpt><trkpt lat="44.8971683" lon="8.8547783"><ele>116.0</ele><time>2026-04-25T08:09:32.997Z</time></trkpt><trkpt lat="44.8972717" lon="8.8547217"><ele>116.0</ele><time>2026-04-25T08:09:34Z</time></trkpt><trkpt lat="44.89738" lon="8.8546667"><ele>116.0</ele><time>2026-04-25T08:09:34.996Z</time></trkpt><trkpt lat="44.8974933" lon="8.8546183"><ele>116.0</ele><time>2026-04-25T08:09:35.997Z</time></trkpt><trkpt lat="44.8976083" lon="8.8545733"><ele>115.75</ele><time>2026-04-25T08:09:36.997Z</time></trkpt><trkpt lat="44.8977283" lon="8.8545383"><ele>115.5</ele><time>2026-04-25T08:09:37.997Z</time></trkpt><trkpt lat="44.8978533" lon="8.8545117"><ele>115.25</ele><time>2026-04-25T08:09:38.999Z</time></trkpt><trkpt lat="44.897975" lon="8.854495"><ele>115.0</ele><time>2026-04-25T08:09:40.001Z</time></trkpt><trkpt lat="44.898095" lon="8.8544917"><ele>115.0</ele><time>2026-04-25T08:09:40.998Z</time></trkpt><trkpt lat="44.898225" lon="8.8545017"><ele>115.0</ele><time>2026-04-25T08:09:42.001Z</time></trkpt><trkpt lat="44.8983633" lon="8.85452"><ele>115.0</ele><time>2026-04-25T08:09:42.999Z</time></trkpt><trkpt lat="44.898495" lon="8.85456"><ele>115.0</ele><time>2026-04-25T08:09:43.996Z</time></trkpt><trkpt lat="44.8986267" lon="8.8546167"><ele>115.25</ele><time>2026-04-25T08:09:44.999Z</time></trkpt><trkpt lat="44.8987617" lon="8.8546783"><ele>115.5</ele><time>2026-04-25T08:09:46Z</time></trkpt><trkpt lat="44.898885" lon="8.8547533"><ele>115.75</ele><time>2026-04-25T08:09:46.996Z</time></trkpt><trkpt lat="44.899" lon="8.8548183"><ele>116.0</ele><time>2026-04-25T08:09:47.999Z</time></trkpt><trkpt lat="44.8991133" lon="8.8548883"><ele>116.0</ele><time>2026-04-25T08:09:48.997Z</time></trkpt><trkpt lat="44.89923" lon="8.854955"><ele>116.0</ele><time>2026-04-25T08:09:50.001Z</time></trkpt><trkpt lat="44.8993517" lon="8.8550217"><ele>116.0</ele><time>2026-04-25T08:09:50.993Z</time></trkpt><trkpt lat="44.899475" lon="8.8550833"><ele>116.0</ele><time>2026-04-25T08:09:51.995Z</time></trkpt><trkpt lat="44.899595" lon="8.855155"><ele>115.75</ele><time>2026-04-25T08:09:52.995Z</time></trkpt><trkpt lat="44.8997233" lon="8.8552167"><ele>115.5</ele><time>2026-04-25T08:09:53.995Z</time></trkpt><trkpt lat="44.89985" lon="8.85529"><ele>115.25</ele><time>2026-04-25T08:09:54.995Z</time></trkpt><trkpt lat="44.8999833" lon="8.85536"><ele>115.0</ele><time>2026-04-25T08:09:56.002Z</time></trkpt><trkpt lat="44.9001133" lon="8.855435"><ele>114.5</ele><time>2026-04-25T08:09:56.999Z</time></trkpt><trkpt lat="44.9002467" lon="8.8555117"><ele>114.0</ele><time>2026-04-25T08:09:57.996Z</time></trkpt><trkpt lat="44.900375" lon="8.8555967"><ele>113.5</ele><time>2026-04-25T08:09:58.994Z</time></trkpt><trkpt lat="44.9005017" lon="8.855675"><ele>113.0</ele><time>2026-04-25T08:09:59.996Z</time></trkpt><trkpt lat="44.90063" lon="8.8557533"><ele>113.0</ele><time>2026-04-25T08:10:00.995Z</time></trkpt><trkpt lat="44.9007567" lon="8.8558267"><ele>113.0</ele><time>2026-04-25T08:10:01.998Z</time></trkpt><trkpt lat="44.9008817" lon="8.8558967"><ele>113.0</ele><time>2026-04-25T08:10:02.996Z</time></trkpt><trkpt lat="44.9010033" lon="8.855965"><ele>113.0</ele><time>2026-04-25T08:10:03.998Z</time></trkpt><trkpt lat="44.9011233" lon="8.85603"><ele>112.75</ele><time>2026-04-25T08:10:04.996Z</time></trkpt><trkpt lat="44.901245" lon="8.8560967"><ele>112.5</ele><time>2026-04-25T08:10:06Z</time></trkpt><trkpt lat="44.9013683" lon="8.8561667"><ele>112.25</ele><time>2026-04-25T08:10:06.999Z</time></trkpt><trkpt lat="44.9014883" lon="8.8562433"><ele>112.0</ele><time>2026-04-25T08:10:07.995Z</time></trkpt><trkpt lat="44.90161" lon="8.8563217"><ele>112.0</ele><time>2026-04-25T08:10:08.996Z</time></trkpt><trkpt lat="44.9017333" lon="8.856395"><ele>112.0</ele><time>2026-04-25T08:10:09.998Z</time></trkpt><trkpt lat="44.9018583" lon="8.8564717"><ele>112.0</ele><time>2026-04-25T08:10:10.996Z</time></trkpt><trkpt lat="44.9019817" lon="8.856545"><ele>112.0</ele><time>2026-04-25T08:10:12.001Z</time></trkpt><trkpt lat="44.902105" lon="8.8566183"><ele>111.75</ele><time>2026-04-25T08:10:13Z</time></trkpt><trkpt lat="44.90223" lon="8.8566883"><ele>111.5</ele><time>2026-04-25T08:10:13.996Z</time></trkpt><trkpt lat="44.9023533" lon="8.8567583"><ele>111.25</ele><time>2026-04-25T08:10:14.999Z</time></trkpt><trkpt lat="44.9024767" lon="8.8568283"><ele>111.0</ele><time>2026-04-25T08:10:15.996Z</time></trkpt><trkpt lat="44.9025967" lon="8.8569"><ele>110.5</ele><time>2026-04-25T08:10:16.999Z</time></trkpt><trkpt lat="44.9027167" lon="8.85697"><ele>110.0</ele><time>2026-04-25T08:10:18.001Z</time></trkpt><trkpt lat="44.9028383" lon="8.85704"><ele>109.5</ele><time>2026-04-25T08:10:18.999Z</time></trkpt><trkpt lat="44.9029567" lon="8.8571083"><ele>109.0</ele><time>2026-04-25T08:10:19.996Z</time></trkpt><trkpt lat="44.903075" lon="8.8571783"><ele>109.0</ele><time>2026-04-25T08:10:20.996Z</time></trkpt><trkpt lat="44.9031883" lon="8.8572433"><ele>109.0</ele><time>2026-04-25T08:10:21.997Z</time></trkpt><trkpt lat="44.903295" lon="8.8573033"><ele>109.0</ele><time>2026-04-25T08:10:22.998Z</time></trkpt><trkpt lat="44.9033983" lon="8.8573617"><ele>109.0</ele><time>2026-04-25T08:10:24Z</time></trkpt><trkpt lat="44.903495" lon="8.857415"><ele>109.2</ele><time>2026-04-25T08:10:24.999Z</time></trkpt><trkpt lat="44.9035883" lon="8.8574683"><ele>109.4</ele><time>2026-04-25T08:10:26Z</time></trkpt><trkpt lat="44.9036783" lon="8.8575167"><ele>109.6</ele><time>2026-04-25T08:10:27Z</time></trkpt><trkpt lat="44.903765" lon="8.8575683"><ele>109.8</ele><time>2026-04-25T08:10:27.995Z</time></trkpt><trkpt lat="44.9038483" lon="8.85762"><ele>110.0</ele><time>2026-04-25T08:10:28.996Z</time></trkpt><trkpt lat="44.903925" lon="8.857675"><ele>110.16666666666666</ele><time>2026-04-25T08:10:29.995Z</time></trkpt><trkpt lat="44.9039933" lon="8.8577317"><ele>110.33333333333333</ele><time>2026-04-25T08:10:30.994Z</time></trkpt><trkpt lat="44.904055" lon="8.8578017"><ele>110.5</ele><time>2026-04-25T08:10:31.996Z</time></trkpt><trkpt lat="44.9041233" lon="8.8578633"><ele>110.66666666666666</ele><time>2026-04-25T08:10:32.997Z</time></trkpt><trkpt lat="44.9041967" lon="8.8579083"><ele>110.83333333333333</ele><time>2026-04-25T08:10:33.996Z</time></trkpt><trkpt lat="44.9042733" lon="8.85794"><ele>111.0</ele><time>2026-04-25T08:10:34.995Z</time></trkpt><trkpt lat="44.904355" lon="8.8579683"><ele>111.0</ele><time>2026-04-25T08:10:36.001Z</time></trkpt><trkpt lat="44.9044417" lon="8.8580033"><ele>111.0</ele><time>2026-04-25T08:10:37.005Z</time></trkpt><trkpt lat="44.9045283" lon="8.8580517"><ele>111.0</ele><time>2026-04-25T08:10:38.002Z</time></trkpt><trkpt lat="44.904625" lon="8.8581017"><ele>111.0</ele><time>2026-04-25T08:10:38.999Z</time></trkpt><trkpt lat="44.9047333" lon="8.858155"><ele>111.0</ele><time>2026-04-25T08:10:39.997Z</time></trkpt><trkpt lat="44.9048517" lon="8.8582133"><ele>111.0</ele><time>2026-04-25T08:10:40.997Z</time></trkpt><trkpt lat="44.9049633" lon="8.8582733"><ele>111.0</ele><time>2026-04-25T08:10:41.997Z</time></trkpt><trkpt lat="44.9050717" lon="8.8583333"><ele>111.0</ele><time>2026-04-25T08:10:42.994Z</time></trkpt><trkpt lat="44.90518" lon="8.8583967"><ele>111.0</ele><time>2026-04-25T08:10:43.995Z</time></trkpt><trkpt lat="44.9052867" lon="8.8584567"><ele>111.0</ele><time>2026-04-25T08:10:44.995Z</time></trkpt><trkpt lat="44.9054" lon="8.8585183"><ele>111.0</ele><time>2026-04-25T08:10:45.995Z</time></trkpt><trkpt lat="44.90551" lon="8.85858"><ele>111.0</ele><time>2026-04-25T08:10:46.997Z</time></trkpt><trkpt lat="44.9056167" lon="8.8586467"><ele>111.0</ele><time>2026-04-25T08:10:47.997Z</time></trkpt><trkpt lat="44.90572" lon="8.858715"><ele>111.0</ele><time>2026-04-25T08:10:49.003Z</time></trkpt><trkpt lat="44.9058217" lon="8.858775"><ele>111.0</ele><time>2026-04-25T08:10:49.998Z</time></trkpt><trkpt lat="44.9059267" lon="8.858835"><ele>111.0</ele><time>2026-04-25T08:10:50.999Z</time></trkpt><trkpt lat="44.9060283" lon="8.8588933"><ele>111.0</ele><time>2026-04-25T08:10:51.997Z</time></trkpt><trkpt lat="44.9061317" lon="8.85896"><ele>111.0</ele><time>2026-04-25T08:10:52.997Z</time></trkpt><trkpt lat="44.9062383" lon="8.85904"><ele>111.25</ele><time>2026-04-25T08:10:53.994Z</time></trkpt><trkpt lat="44.9063433" lon="8.8591283"><ele>111.5</ele><time>2026-04-25T08:10:54.999Z</time></trkpt><trkpt lat="44.9064517" lon="8.8592183"><ele>111.75</ele><time>2026-04-25T08:10:55.998Z</time></trkpt><trkpt lat="44.9065567" lon="8.859315"><ele>112.0</ele><time>2026-04-25T08:10:56.998Z</time></trkpt><trkpt lat="44.90666" lon="8.859425"><ele>112.5</ele><time>2026-04-25T08:10:57.994Z</time></trkpt><trkpt lat="44.9067617" lon="8.8595433"><ele>113.0</ele><time>2026-04-25T08:10:58.995Z</time></trkpt><trkpt lat="44.9068583" lon="8.8596783"><ele>113.5</ele><time>2026-04-25T08:10:59.996Z</time></trkpt><trkpt lat="44.9069483" lon="8.85982"><ele>114.0</ele><time>2026-04-25T08:11:00.997Z</time></trkpt><trkpt lat="44.907035" lon="8.85997"><ele>114.0</ele><time>2026-04-25T08:11:01.996Z</time></trkpt><trkpt lat="44.907115" lon="8.860125"><ele>114.0</ele><time>2026-04-25T08:11:03Z</time></trkpt><trkpt lat="44.907185" lon="8.8602833"><ele>114.0</ele><time>2026-04-25T08:11:03.994Z</time></trkpt><trkpt lat="44.90725" lon="8.8604467"><ele>114.0</ele><time>2026-04-25T08:11:04.996Z</time></trkpt><trkpt lat="44.9073067" lon="8.8606133"><ele>114.0</ele><time>2026-04-25T08:11:05.994Z</time></trkpt><trkpt lat="44.9073567" lon="8.8607817"><ele>114.0</ele><time>2026-04-25T08:11:06.997Z</time></trkpt><trkpt lat="44.9074083" lon="8.8609483"><ele>114.0</ele><time>2026-04-25T08:11:07.999Z</time></trkpt><trkpt lat="44.90745" lon="8.86112"><ele>114.0</ele><time>2026-04-25T08:11:09.007Z</time></trkpt><trkpt lat="44.9074867" lon="8.8612967"><ele>113.5</ele><time>2026-04-25T08:11:09.996Z</time></trkpt><trkpt lat="44.907515" lon="8.861475"><ele>113.0</ele><time>2026-04-25T08:11:10.998Z</time></trkpt><trkpt lat="44.9075367" lon="8.8616567"><ele>112.5</ele><time>2026-04-25T08:11:11.996Z</time></trkpt><trkpt lat="44.907555" lon="8.861845"><ele>112.0</ele><time>2026-04-25T08:11:12.994Z</time></trkpt><trkpt lat="44.9075667" lon="8.8620367"><ele>112.0</ele><time>2026-04-25T08:11:13.995Z</time></trkpt><trkpt lat="44.9075767" lon="8.8622233"><ele>112.0</ele><time>2026-04-25T08:11:14.995Z</time></trkpt><trkpt lat="44.90758" lon="8.8624117"><ele>112.0</ele><time>2026-04-25T08:11:15.995Z</time></trkpt><trkpt lat="44.9075817" lon="8.8625983"><ele>112.0</ele><time>2026-04-25T08:11:16.999Z</time></trkpt><trkpt lat="44.9075817" lon="8.8627883"><ele>111.5</ele><time>2026-04-25T08:11:17.998Z</time></trkpt><trkpt lat="44.9075833" lon="8.8629783"><ele>111.0</ele><time>2026-04-25T08:11:18.996Z</time></trkpt><trkpt lat="44.907585" lon="8.86317"><ele>110.5</ele><time>2026-04-25T08:11:19.997Z</time></trkpt><trkpt lat="44.9075883" lon="8.8633567"><ele>110.0</ele><time>2026-04-25T08:11:20.999Z</time></trkpt><trkpt lat="44.90759" lon="8.863545"><ele>110.0</ele><time>2026-04-25T08:11:21.996Z</time></trkpt><trkpt lat="44.9075933" lon="8.8637333"><ele>110.0</ele><time>2026-04-25T08:11:22.997Z</time></trkpt><trkpt lat="44.907595" lon="8.8639217"><ele>110.0</ele><time>2026-04-25T08:11:23.997Z</time></trkpt><trkpt lat="44.9076" lon="8.864105"><ele>110.0</ele><time>2026-04-25T08:11:24.997Z</time></trkpt><trkpt lat="44.9076017" lon="8.8642767"><ele>110.0</ele><time>2026-04-25T08:11:25.999Z</time></trkpt><trkpt lat="44.9076017" lon="8.864445"><ele>110.0</ele><time>2026-04-25T08:11:26.997Z</time></trkpt><trkpt lat="44.9076033" lon="8.8646117"><ele>110.0</ele><time>2026-04-25T08:11:27.994Z</time></trkpt><trkpt lat="44.9076067" lon="8.8647783"><ele>110.0</ele><time>2026-04-25T08:11:28.995Z</time></trkpt><trkpt lat="44.9076083" lon="8.864935"><ele>109.99999999999999</ele><time>2026-04-25T08:11:29.995Z</time></trkpt><trkpt lat="44.9076067" lon="8.8650667"><ele>110.0</ele><time>2026-04-25T08:11:30.996Z</time></trkpt><trkpt lat="44.907605" lon="8.8651683"><ele>110.0</ele><time>2026-04-25T08:11:31.995Z</time></trkpt><trkpt lat="44.9076" lon="8.865305"><ele>110.0</ele><time>2026-04-25T08:11:33.995Z</time></trkpt><trkpt lat="44.9076067" lon="8.86543"><ele>109.99999999999999</ele><time>2026-04-25T08:11:35.995Z</time></trkpt><trkpt lat="44.907605" lon="8.8655217"><ele>110.0</ele><time>2026-04-25T08:11:38.999Z</time></trkpt><trkpt lat="44.9076067" lon="8.8656367"><ele>110.0</ele><time>2026-04-25T08:11:43.999Z</time></trkpt><trkpt lat="44.9076133" lon="8.86574"><ele>110.0</ele><time>2026-04-25T08:11:46Z</time></trkpt><trkpt lat="44.9076183" lon="8.8658483"><ele>110.0</ele><time>2026-04-25T08:11:47.996Z</time></trkpt><trkpt lat="44.9076117" lon="8.8659767"><ele>110.0</ele><time>2026-04-25T08:11:49.995Z</time></trkpt><trkpt lat="44.9076067" lon="8.8661217"><ele>110.0</ele><time>2026-04-25T08:11:51.994Z</time></trkpt><trkpt lat="44.9076067" lon="8.8663133"><ele>110.0</ele><time>2026-04-25T08:11:53.997Z</time></trkpt><trkpt lat="44.9076067" lon="8.8664367"><ele>110.0</ele><time>2026-04-25T08:11:55.001Z</time></trkpt><trkpt lat="44.9076083" lon="8.8665617"><ele>110.0</ele><time>2026-04-25T08:11:55.996Z</time></trkpt><trkpt lat="44.9076133" lon="8.866705"><ele>110.0</ele><time>2026-04-25T08:11:56.997Z</time></trkpt><trkpt lat="44.9076083" lon="8.8668533"><ele>110.0</ele><time>2026-04-25T08:11:57.998Z</time></trkpt><trkpt lat="44.9076117" lon="8.866995"><ele>110.2</ele><time>2026-04-25T08:11:58.999Z</time></trkpt><trkpt lat="44.907615" lon="8.8671383"><ele>110.4</ele><time>2026-04-25T08:11:59.998Z</time></trkpt><trkpt lat="44.9076183" lon="8.86728"><ele>110.6</ele><time>2026-04-25T08:12:01.001Z</time></trkpt><trkpt lat="44.9076183" lon="8.8674267"><ele>110.8</ele><time>2026-04-25T08:12:01.995Z</time></trkpt><trkpt lat="44.9076217" lon="8.8675833"><ele>111.0</ele><time>2026-04-25T08:12:02.997Z</time></trkpt><trkpt lat="44.9076217" lon="8.8677417"><ele>111.0</ele><time>2026-04-25T08:12:03.998Z</time></trkpt><trkpt lat="44.9076217" lon="8.8678917"><ele>111.0</ele><time>2026-04-25T08:12:05Z</time></trkpt><trkpt lat="44.9076233" lon="8.8680367"><ele>111.0</ele><time>2026-04-25T08:12:05.998Z</time></trkpt><trkpt lat="44.9076267" lon="8.86818"><ele>111.0</ele><time>2026-04-25T08:12:06.997Z</time></trkpt><trkpt lat="44.9076267" lon="8.8683233"><ele>111.0</ele><time>2026-04-25T08:12:07.999Z</time></trkpt><trkpt lat="44.90763" lon="8.86846"><ele>111.0</ele><time>2026-04-25T08:12:09.004Z</time></trkpt><trkpt lat="44.9076333" lon="8.8686"><ele>111.0</ele><time>2026-04-25T08:12:10Z</time></trkpt><trkpt lat="44.907635" lon="8.8687367"><ele>111.0</ele><time>2026-04-25T08:12:11.002Z</time></trkpt><trkpt lat="44.9076383" lon="8.86887"><ele>111.0</ele><time>2026-04-25T08:12:11.996Z</time></trkpt><trkpt lat="44.90764" lon="8.8690117"><ele>111.0</ele><time>2026-04-25T08:12:13.002Z</time></trkpt><trkpt lat="44.9076383" lon="8.8691467"><ele>111.0</ele><time>2026-04-25T08:12:13.998Z</time></trkpt><trkpt lat="44.90764" lon="8.869275"><ele>111.0</ele><time>2026-04-25T08:12:15.001Z</time></trkpt><trkpt lat="44.9076383" lon="8.8693917"><ele>111.0</ele><time>2026-04-25T08:12:16.001Z</time></trkpt><trkpt lat="44.9076383" lon="8.8694983"><ele>111.0</ele><time>2026-04-25T08:12:16.997Z</time></trkpt><trkpt lat="44.9076267" lon="8.8696617"><ele>111.0</ele><time>2026-04-25T08:12:18.998Z</time></trkpt><trkpt lat="44.9076183" lon="8.8697583"><ele>111.0</ele><time>2026-04-25T08:12:20.994Z</time></trkpt><trkpt lat="44.90759" lon="8.869895"><ele>111.0</ele><time>2026-04-25T08:12:25.997Z</time></trkpt><trkpt lat="44.9076083" lon="8.8700967"><ele>111.0</ele><time>2026-04-25T08:12:27.997Z</time></trkpt><trkpt lat="44.9076283" lon="8.8702267"><ele>111.0</ele><time>2026-04-25T08:12:28.997Z</time></trkpt><trkpt lat="44.90765" lon="8.87039"><ele>111.0</ele><time>2026-04-25T08:12:29.999Z</time></trkpt><trkpt lat="44.9076717" lon="8.870595"><ele>110.66666666666666</ele><time>2026-04-25T08:12:31.003Z</time></trkpt><trkpt lat="44.9076767" lon="8.87081"><ele>110.33333333333333</ele><time>2026-04-25T08:12:31.993Z</time></trkpt><trkpt lat="44.9076767" lon="8.8710317"><ele>110.0</ele><time>2026-04-25T08:12:32.994Z</time></trkpt><trkpt lat="44.9076783" lon="8.871255"><ele>109.66666666666666</ele><time>2026-04-25T08:12:33.994Z</time></trkpt><trkpt lat="44.9076817" lon="8.8714767"><ele>109.33333333333334</ele><time>2026-04-25T08:12:34.992Z</time></trkpt><trkpt lat="44.9076833" lon="8.871695"><ele>109.0</ele><time>2026-04-25T08:12:35.994Z</time></trkpt><trkpt lat="44.9076867" lon="8.871905"><ele>109.0</ele><time>2026-04-25T08:12:37.001Z</time></trkpt><trkpt lat="44.9076883" lon="8.8721133"><ele>109.0</ele><time>2026-04-25T08:12:37.998Z</time></trkpt><trkpt lat="44.9076883" lon="8.8723217"><ele>109.0</ele><time>2026-04-25T08:12:38.996Z</time></trkpt><trkpt lat="44.90769" lon="8.87253"><ele>109.0</ele><time>2026-04-25T08:12:40.007Z</time></trkpt><trkpt lat="44.9076883" lon="8.8727367"><ele>109.0</ele><time>2026-04-25T08:12:40.997Z</time></trkpt><trkpt lat="44.9076867" lon="8.8729467"><ele>109.0</ele><time>2026-04-25T08:12:42.001Z</time></trkpt><trkpt lat="44.9076783" lon="8.8731533"><ele>109.0</ele><time>2026-04-25T08:12:42.999Z</time></trkpt><trkpt lat="44.9076783" lon="8.8733533"><ele>109.0</ele><time>2026-04-25T08:12:43.994Z</time></trkpt><trkpt lat="44.9076817" lon="8.87355"><ele>109.25</ele><time>2026-04-25T08:12:44.997Z</time></trkpt><trkpt lat="44.9076833" lon="8.8737417"><ele>109.5</ele><time>2026-04-25T08:12:45.998Z</time></trkpt><trkpt lat="44.907675" lon="8.8739383"><ele>109.75</ele><time>2026-04-25T08:12:46.998Z</time></trkpt><trkpt lat="44.9076717" lon="8.8741267"><ele>110.0</ele><time>2026-04-25T08:12:47.998Z</time></trkpt><trkpt lat="44.90767" lon="8.874315"><ele>110.5</ele><time>2026-04-25T08:12:48.996Z</time></trkpt><trkpt lat="44.9076733" lon="8.8744983"><ele>111.0</ele><time>2026-04-25T08:12:50Z</time></trkpt><trkpt lat="44.907675" lon="8.8746767"><ele>111.5</ele><time>2026-04-25T08:12:50.998Z</time></trkpt><trkpt lat="44.907675" lon="8.874855"><ele>112.0</ele><time>2026-04-25T08:12:51.995Z</time></trkpt><trkpt lat="44.9076767" lon="8.8750317"><ele>112.0</ele><time>2026-04-25T08:12:52.995Z</time></trkpt><trkpt lat="44.9076817" lon="8.8752117"><ele>112.0</ele><time>2026-04-25T08:12:53.998Z</time></trkpt><trkpt lat="44.907685" lon="8.8753817"><ele>112.0</ele><time>2026-04-25T08:12:54.994Z</time></trkpt><trkpt lat="44.9076867" lon="8.8755567"><ele>112.0</ele><time>2026-04-25T08:12:56.001Z</time></trkpt><trkpt lat="44.9076883" lon="8.8757383"><ele>112.0</ele><time>2026-04-25T08:12:56.997Z</time></trkpt><trkpt lat="44.9076883" lon="8.8759183"><ele>112.0</ele><time>2026-04-25T08:12:58.006Z</time></trkpt><trkpt lat="44.907695" lon="8.8760933"><ele>112.0</ele><time>2026-04-25T08:12:58.994Z</time></trkpt><trkpt lat="44.9077017" lon="8.8762683"><ele>112.0</ele><time>2026-04-25T08:12:59.998Z</time></trkpt><trkpt lat="44.9077017" lon="8.87645"><ele>112.25</ele><time>2026-04-25T08:13:00.997Z</time></trkpt><trkpt lat="44.9077017" lon="8.8766233"><ele>112.5</ele><time>2026-04-25T08:13:01.998Z</time></trkpt><trkpt lat="44.9077" lon="8.8768017"><ele>112.75</ele><time>2026-04-25T08:13:02.994Z</time></trkpt><trkpt lat="44.9076967" lon="8.876985"><ele>113.0</ele><time>2026-04-25T08:13:03.998Z</time></trkpt><trkpt lat="44.907695" lon="8.877165"><ele>113.2</ele><time>2026-04-25T08:13:04.993Z</time></trkpt><trkpt lat="44.9076967" lon="8.87734"><ele>113.4</ele><time>2026-04-25T08:13:05.995Z</time></trkpt><trkpt lat="44.9076983" lon="8.8775017"><ele>113.60000000000001</ele><time>2026-04-25T08:13:06.997Z</time></trkpt><trkpt lat="44.9077" lon="8.877655"><ele>113.80000000000001</ele><time>2026-04-25T08:13:07.995Z</time></trkpt><trkpt lat="44.9077017" lon="8.87779"><ele>114.0</ele><time>2026-04-25T08:13:08.997Z</time></trkpt><trkpt lat="44.9077033" lon="8.87791"><ele>114.16666666666667</ele><time>2026-04-25T08:13:09.997Z</time></trkpt><trkpt lat="44.907705" lon="8.87802"><ele>114.33333333333334</ele><time>2026-04-25T08:13:10.995Z</time></trkpt><trkpt lat="44.9077067" lon="8.8781233"><ele>114.5</ele><time>2026-04-25T08:13:11.996Z</time></trkpt><trkpt lat="44.9077083" lon="8.878265"><ele>114.66666666666667</ele><time>2026-04-25T08:13:13.995Z</time></trkpt><trkpt lat="44.9077067" lon="8.878375"><ele>114.83333333333334</ele><time>2026-04-25T08:13:16.994Z</time></trkpt><trkpt lat="44.9076783" lon="8.8785333"><ele>115.0</ele><time>2026-04-25T08:13:22.996Z</time></trkpt><trkpt lat="44.9076467" lon="8.8786983"><ele>114.6</ele><time>2026-04-25T08:13:24.997Z</time></trkpt><trkpt lat="44.9076617" lon="8.8788817"><ele>114.2</ele><time>2026-04-25T08:13:26.993Z</time></trkpt><trkpt lat="44.90767" lon="8.8789917"><ele>113.80000000000001</ele><time>2026-04-25T08:13:27.999Z</time></trkpt><trkpt lat="44.9076717" lon="8.87911"><ele>113.4</ele><time>2026-04-25T08:13:29.001Z</time></trkpt><trkpt lat="44.90767" lon="8.879245"><ele>113.0</ele><time>2026-04-25T08:13:29.996Z</time></trkpt><trkpt lat="44.907665" lon="8.8793983"><ele>113.0</ele><time>2026-04-25T08:13:30.996Z</time></trkpt><trkpt lat="44.9076667" lon="8.879545"><ele>113.00000000000001</ele><time>2026-04-25T08:13:31.996Z</time></trkpt><trkpt lat="44.9076733" lon="8.8796867"><ele>113.00000000000001</ele><time>2026-04-25T08:13:32.996Z</time></trkpt><trkpt lat="44.9076783" lon="8.8798233"><ele>113.0</ele><time>2026-04-25T08:13:33.995Z</time></trkpt><trkpt lat="44.907685" lon="8.8799733"><ele>113.0</ele><time>2026-04-25T08:13:34.998Z</time></trkpt><trkpt lat="44.907695" lon="8.880135"><ele>113.75</ele><time>2026-04-25T08:13:35.996Z</time></trkpt><trkpt lat="44.90771" lon="8.8803033"><ele>114.5</ele><time>2026-04-25T08:13:36.995Z</time></trkpt><trkpt lat="44.90773" lon="8.8804733"><ele>115.25</ele><time>2026-04-25T08:13:37.996Z</time></trkpt><trkpt lat="44.9077517" lon="8.8806333"><ele>116.0</ele><time>2026-04-25T08:13:38.992Z</time></trkpt><trkpt lat="44.907775" lon="8.880805"><ele>115.25</ele><time>2026-04-25T08:13:39.995Z</time></trkpt><trkpt lat="44.9078067" lon="8.8809767"><ele>114.5</ele><time>2026-04-25T08:13:40.995Z</time></trkpt><trkpt lat="44.9078433" lon="8.881155"><ele>113.75</ele><time>2026-04-25T08:13:41.995Z</time></trkpt><trkpt lat="44.9078867" lon="8.88134"><ele>113.0</ele><time>2026-04-25T08:13:42.996Z</time></trkpt><trkpt lat="44.9079367" lon="8.8815167"><ele>113.0</ele><time>2026-04-25T08:13:43.997Z</time></trkpt><trkpt lat="44.9079917" lon="8.8816867"><ele>113.0</ele><time>2026-04-25T08:13:44.997Z</time></trkpt><trkpt lat="44.9080483" lon="8.8818483"><ele>113.0</ele><time>2026-04-25T08:13:46.001Z</time></trkpt><trkpt lat="44.9081017" lon="8.8820117"><ele>113.0</ele><time>2026-04-25T08:13:46.996Z</time></trkpt><trkpt lat="44.9081583" lon="8.8821767"><ele>113.0</ele><time>2026-04-25T08:13:47.998Z</time></trkpt><trkpt lat="44.9082167" lon="8.882345"><ele>113.0</ele><time>2026-04-25T08:13:48.999Z</time></trkpt><trkpt lat="44.908265" lon="8.8825283"><ele>113.0</ele><time>2026-04-25T08:13:49.993Z</time></trkpt><trkpt lat="44.9083033" lon="8.8827117"><ele>113.0</ele><time>2026-04-25T08:13:50.998Z</time></trkpt><trkpt lat="44.9083267" lon="8.8829017"><ele>113.0</ele><time>2026-04-25T08:13:52.006Z</time></trkpt><trkpt lat="44.9083467" lon="8.8830867"><ele>113.0</ele><time>2026-04-25T08:13:52.995Z</time></trkpt><trkpt lat="44.9083483" lon="8.8832683"><ele>113.0</ele><time>2026-04-25T08:13:53.996Z</time></trkpt><trkpt lat="44.9083383" lon="8.883445"><ele>113.0</ele><time>2026-04-25T08:13:54.997Z</time></trkpt><trkpt lat="44.9083233" lon="8.8836083"><ele>113.0</ele><time>2026-04-25T08:13:55.997Z</time></trkpt><trkpt lat="44.908305" lon="8.883775"><ele>113.0</ele><time>2026-04-25T08:13:56.996Z</time></trkpt><trkpt lat="44.9082783" lon="8.8839417"><ele>113.0</ele><time>2026-04-25T08:13:57.999Z</time></trkpt><trkpt lat="44.908255" lon="8.8841083"><ele>113.0</ele><time>2026-04-25T08:13:58.997Z</time></trkpt><trkpt lat="44.9082267" lon="8.8842733"><ele>112.60000000000001</ele><time>2026-04-25T08:13:59.996Z</time></trkpt><trkpt lat="44.9082" lon="8.884435"><ele>112.20000000000002</ele><time>2026-04-25T08:14:00.999Z</time></trkpt><trkpt lat="44.90817" lon="8.88459"><ele>111.8</ele><time>2026-04-25T08:14:01.998Z</time></trkpt><trkpt lat="44.9081383" lon="8.8847367"><ele>111.4</ele><time>2026-04-25T08:14:03Z</time></trkpt><trkpt lat="44.90811" lon="8.8848567"><ele>111.0</ele><time>2026-04-25T08:14:03.998Z</time></trkpt><trkpt lat="44.90808" lon="8.884965"><ele>111.0</ele><time>2026-04-25T08:14:05.001Z</time></trkpt><trkpt lat="44.9080367" lon="8.8850567"><ele>111.0</ele><time>2026-04-25T08:14:05.999Z</time></trkpt><trkpt lat="44.9079767" lon="8.885135"><ele>111.0</ele><time>2026-04-25T08:14:06.997Z</time></trkpt><trkpt lat="44.9079233" lon="8.885215"><ele>111.0</ele><time>2026-04-25T08:14:07.997Z</time></trkpt><trkpt lat="44.9078883" lon="8.8853117"><ele>111.0</ele><time>2026-04-25T08:14:08.997Z</time></trkpt><trkpt lat="44.90788" lon="8.8854217"><ele>111.0</ele><time>2026-04-25T08:14:09.999Z</time></trkpt><trkpt lat="44.9078917" lon="8.8855417"><ele>111.0</ele><time>2026-04-25T08:14:10.997Z</time></trkpt><trkpt lat="44.9079117" lon="8.8856633"><ele>111.0</ele><time>2026-04-25T08:14:12Z</time></trkpt><trkpt lat="44.9079283" lon="8.885795"><ele>111.0</ele><time>2026-04-25T08:14:12.996Z</time></trkpt><trkpt lat="44.907935" lon="8.8859383"><ele>111.0</ele><time>2026-04-25T08:14:13.997Z</time></trkpt><trkpt lat="44.9079333" lon="8.8860917"><ele>111.0</ele><time>2026-04-25T08:14:14.999Z</time></trkpt><trkpt lat="44.907925" lon="8.8862483"><ele>111.0</ele><time>2026-04-25T08:14:16.007Z</time></trkpt><trkpt lat="44.9079167" lon="8.886415"><ele>111.0</ele><time>2026-04-25T08:14:17.003Z</time></trkpt><trkpt lat="44.907905" lon="8.8865917"><ele>111.0</ele><time>2026-04-25T08:14:18.001Z</time></trkpt><trkpt lat="44.90789" lon="8.8867767"><ele>111.0</ele><time>2026-04-25T08:14:19.002Z</time></trkpt><trkpt lat="44.9078733" lon="8.886965"><ele>110.75</ele><time>2026-04-25T08:14:19.997Z</time></trkpt><trkpt lat="44.907855" lon="8.88715"><ele>110.5</ele><time>2026-04-25T08:14:20.999Z</time></trkpt><trkpt lat="44.9078333" lon="8.8873317"><ele>110.25</ele><time>2026-04-25T08:14:22Z</time></trkpt><trkpt lat="44.90781" lon="8.8875183"><ele>110.0</ele><time>2026-04-25T08:14:23Z</time></trkpt><trkpt lat="44.9077817" lon="8.8877017"><ele>110.0</ele><time>2026-04-25T08:14:23.997Z</time></trkpt><trkpt lat="44.9077567" lon="8.8878917"><ele>110.0</ele><time>2026-04-25T08:14:24.998Z</time></trkpt><trkpt lat="44.9077317" lon="8.8880883"><ele>110.0</ele><time>2026-04-25T08:14:26Z</time></trkpt><trkpt lat="44.9077033" lon="8.88829"><ele>110.0</ele><time>2026-04-25T08:14:26.998Z</time></trkpt><trkpt lat="44.907675" lon="8.888495"><ele>110.5</ele><time>2026-04-25T08:14:28.001Z</time></trkpt><trkpt lat="44.9076467" lon="8.8887017"><ele>111.0</ele><time>2026-04-25T08:14:29.001Z</time></trkpt><trkpt lat="44.9076183" lon="8.88891"><ele>111.5</ele><time>2026-04-25T08:14:29.997Z</time></trkpt><trkpt lat="44.9075917" lon="8.889115"><ele>112.0</ele><time>2026-04-25T08:14:31.001Z</time></trkpt><trkpt lat="44.9075633" lon="8.88932"><ele>112.0</ele><time>2026-04-25T08:14:31.996Z</time></trkpt><trkpt lat="44.9075367" lon="8.889525"><ele>112.0</ele><time>2026-04-25T08:14:32.999Z</time></trkpt><trkpt lat="44.9075067" lon="8.8897267"><ele>112.0</ele><time>2026-04-25T08:14:33.997Z</time></trkpt><trkpt lat="44.9074783" lon="8.8899283"><ele>112.0</ele><time>2026-04-25T08:14:34.997Z</time></trkpt><trkpt lat="44.9074483" lon="8.8901267"><ele>112.0</ele><time>2026-04-25T08:14:36Z</time></trkpt><trkpt lat="44.9074217" lon="8.8903267"><ele>112.0</ele><time>2026-04-25T08:14:37.001Z</time></trkpt><trkpt lat="44.9073967" lon="8.8905283"><ele>112.0</ele><time>2026-04-25T08:14:38Z</time></trkpt><trkpt lat="44.9073717" lon="8.8907283"><ele>112.0</ele><time>2026-04-25T08:14:38.999Z</time></trkpt><trkpt lat="44.9073467" lon="8.8909283"><ele>112.0</ele><time>2026-04-25T08:14:39.998Z</time></trkpt><trkpt lat="44.9073233" lon="8.8911317"><ele>112.0</ele><time>2026-04-25T08:14:41.001Z</time></trkpt><trkpt lat="44.9073" lon="8.89134"><ele>112.0</ele><time>2026-04-25T08:14:41.999Z</time></trkpt><trkpt lat="44.90728" lon="8.89155"><ele>112.0</ele><time>2026-04-25T08:14:43.005Z</time></trkpt><trkpt lat="44.9072617" lon="8.89176"><ele>112.33333333333334</ele><time>2026-04-25T08:14:43.998Z</time></trkpt><trkpt lat="44.9072433" lon="8.8919767"><ele>112.66666666666666</ele><time>2026-04-25T08:14:45.001Z</time></trkpt><trkpt lat="44.9072267" lon="8.8921917"><ele>113.0</ele><time>2026-04-25T08:14:45.996Z</time></trkpt><trkpt lat="44.90721" lon="8.8924117"><ele>113.0</ele><time>2026-04-25T08:14:47.001Z</time></trkpt><trkpt lat="44.9071933" lon="8.89263"><ele>113.0</ele><time>2026-04-25T08:14:47.994Z</time></trkpt><trkpt lat="44.9071783" lon="8.89285"><ele>113.0</ele><time>2026-04-25T08:14:48.997Z</time></trkpt><trkpt lat="44.9071633" lon="8.89307"><ele>113.0</ele><time>2026-04-25T08:14:49.996Z</time></trkpt><trkpt lat="44.90715" lon="8.89329"><ele>113.0</ele><time>2026-04-25T08:14:50.998Z</time></trkpt><trkpt lat="44.907135" lon="8.8935083"><ele>113.0</ele><time>2026-04-25T08:14:51.998Z</time></trkpt><trkpt lat="44.90712" lon="8.893725"><ele>113.25</ele><time>2026-04-25T08:14:52.996Z</time></trkpt><trkpt lat="44.9071067" lon="8.8939383"><ele>113.5</ele><time>2026-04-25T08:14:53.997Z</time></trkpt><trkpt lat="44.9070917" lon="8.8941467"><ele>113.75</ele><time>2026-04-25T08:14:55Z</time></trkpt><trkpt lat="44.9070767" lon="8.8943533"><ele>114.0</ele><time>2026-04-25T08:14:55.997Z</time></trkpt><trkpt lat="44.9070617" lon="8.8945633"><ele>114.0</ele><time>2026-04-25T08:14:57.003Z</time></trkpt><trkpt lat="44.907045" lon="8.894775"><ele>114.0</ele><time>2026-04-25T08:14:57.998Z</time></trkpt><trkpt lat="44.9070283" lon="8.8949867"><ele>114.0</ele><time>2026-04-25T08:14:58.997Z</time></trkpt><trkpt lat="44.9070133" lon="8.895205"><ele>114.0</ele><time>2026-04-25T08:15:00.007Z</time></trkpt><trkpt lat="44.9069967" lon="8.8954233"><ele>114.0</ele><time>2026-04-25T08:15:01.001Z</time></trkpt><trkpt lat="44.90698" lon="8.8956417"><ele>114.0</ele><time>2026-04-25T08:15:01.997Z</time></trkpt><trkpt lat="44.906965" lon="8.8958533"><ele>113.75</ele><time>2026-04-25T08:15:03.005Z</time></trkpt><trkpt lat="44.90695" lon="8.89606"><ele>113.5</ele><time>2026-04-25T08:15:04.001Z</time></trkpt><trkpt lat="44.9069367" lon="8.8962617"><ele>113.25</ele><time>2026-04-25T08:15:04.993Z</time></trkpt><trkpt lat="44.9069267" lon="8.8964617"><ele>113.0</ele><time>2026-04-25T08:15:06Z</time></trkpt><trkpt lat="44.9069133" lon="8.8966617"><ele>113.0</ele><time>2026-04-25T08:15:06.995Z</time></trkpt><trkpt lat="44.9069" lon="8.8968633"><ele>113.0</ele><time>2026-04-25T08:15:07.998Z</time></trkpt><trkpt lat="44.9068883" lon="8.8970617"><ele>113.0</ele><time>2026-04-25T08:15:08.999Z</time></trkpt><trkpt lat="44.9068767" lon="8.8972533"><ele>113.0</ele><time>2026-04-25T08:15:09.997Z</time></trkpt><trkpt lat="44.9068683" lon="8.8974467"><ele>113.25</ele><time>2026-04-25T08:15:10.998Z</time></trkpt><trkpt lat="44.9068583" lon="8.89764"><ele>113.5</ele><time>2026-04-25T08:15:11.999Z</time></trkpt><trkpt lat="44.9068517" lon="8.89784"><ele>113.75</ele><time>2026-04-25T08:15:12.995Z</time></trkpt><trkpt lat="44.906845" lon="8.8980333"><ele>114.0</ele><time>2026-04-25T08:15:13.998Z</time></trkpt><trkpt lat="44.9068367" lon="8.8982267"><ele>114.25</ele><time>2026-04-25T08:15:14.995Z</time></trkpt><trkpt lat="44.9068267" lon="8.89842"><ele>114.5</ele><time>2026-04-25T08:15:15.999Z</time></trkpt><trkpt lat="44.9068183" lon="8.8986167"><ele>114.75</ele><time>2026-04-25T08:15:16.997Z</time></trkpt><trkpt lat="44.90681" lon="8.8988117"><ele>115.0</ele><time>2026-04-25T08:15:17.997Z</time></trkpt><trkpt lat="44.9068017" lon="8.8990067"><ele>115.0</ele><time>2026-04-25T08:15:19.001Z</time></trkpt><trkpt lat="44.906795" lon="8.8991883"><ele>115.0</ele><time>2026-04-25T08:15:20.001Z</time></trkpt><trkpt lat="44.9067917" lon="8.8993667"><ele>115.0</ele><time>2026-04-25T08:15:21Z</time></trkpt><trkpt lat="44.9067917" lon="8.8995483"><ele>115.0</ele><time>2026-04-25T08:15:21.992Z</time></trkpt><trkpt lat="44.9067967" lon="8.8997317"><ele>115.0</ele><time>2026-04-25T08:15:22.998Z</time></trkpt><trkpt lat="44.9068067" lon="8.899905"><ele>115.0</ele><time>2026-04-25T08:15:24.001Z</time></trkpt><trkpt lat="44.906825" lon="8.9000833"><ele>115.0</ele><time>2026-04-25T08:15:25.001Z</time></trkpt><trkpt lat="44.9068483" lon="8.9002583"><ele>115.0</ele><time>2026-04-25T08:15:26.003Z</time></trkpt><trkpt lat="44.906885" lon="8.90044"><ele>115.0</ele><time>2026-04-25T08:15:26.998Z</time></trkpt><trkpt lat="44.9069233" lon="8.9006233"><ele>115.0</ele><time>2026-04-25T08:15:27.998Z</time></trkpt><trkpt lat="44.906965" lon="8.900805"><ele>115.0</ele><time>2026-04-25T08:15:28.995Z</time></trkpt><trkpt lat="44.90701" lon="8.900985"><ele>115.0</ele><time>2026-04-25T08:15:29.998Z</time></trkpt><trkpt lat="44.907055" lon="8.9011617"><ele>115.0</ele><time>2026-04-25T08:15:30.994Z</time></trkpt><trkpt lat="44.9070983" lon="8.9013333"><ele>115.0</ele><time>2026-04-25T08:15:31.998Z</time></trkpt><trkpt lat="44.90714" lon="8.901505"><ele>115.0</ele><time>2026-04-25T08:15:32.997Z</time></trkpt><trkpt lat="44.90718" lon="8.9016717"><ele>115.0</ele><time>2026-04-25T08:15:33.994Z</time></trkpt><trkpt lat="44.9072267" lon="8.9018433"><ele>115.0</ele><time>2026-04-25T08:15:34.996Z</time></trkpt><trkpt lat="44.9072717" lon="8.90202"><ele>115.0</ele><time>2026-04-25T08:15:35.995Z</time></trkpt><trkpt lat="44.9073167" lon="8.9022"><ele>115.0</ele><time>2026-04-25T08:15:36.994Z</time></trkpt><trkpt lat="44.90736" lon="8.9023783"><ele>115.0</ele><time>2026-04-25T08:15:37.995Z</time></trkpt><trkpt lat="44.9074083" lon="8.90256"><ele>115.0</ele><time>2026-04-25T08:15:38.995Z</time></trkpt><trkpt lat="44.907455" lon="8.9027417"><ele>115.0</ele><time>2026-04-25T08:15:39.996Z</time></trkpt><trkpt lat="44.9074983" lon="8.902915"><ele>115.0</ele><time>2026-04-25T08:15:40.997Z</time></trkpt><trkpt lat="44.90754" lon="8.9030783"><ele>115.0</ele><time>2026-04-25T08:15:41.997Z</time></trkpt><trkpt lat="44.9075817" lon="8.90324"><ele>115.25</ele><time>2026-04-25T08:15:42.998Z</time></trkpt><trkpt lat="44.90762" lon="8.9034017"><ele>115.5</ele><time>2026-04-25T08:15:43.998Z</time></trkpt><trkpt lat="44.9076567" lon="8.903565"><ele>115.75</ele><time>2026-04-25T08:15:45.001Z</time></trkpt><trkpt lat="44.9076917" lon="8.903735"><ele>116.0</ele><time>2026-04-25T08:15:45.999Z</time></trkpt><trkpt lat="44.9077183" lon="8.9039067"><ele>116.0</ele><time>2026-04-25T08:15:46.997Z</time></trkpt><trkpt lat="44.9077367" lon="8.904085"><ele>116.0</ele><time>2026-04-25T08:15:47.996Z</time></trkpt><trkpt lat="44.9077483" lon="8.9042617"><ele>116.0</ele><time>2026-04-25T08:15:48.994Z</time></trkpt><trkpt lat="44.9077517" lon="8.9044417"><ele>116.0</ele><time>2026-04-25T08:15:49.996Z</time></trkpt><trkpt lat="44.9077467" lon="8.9046267"><ele>116.0</ele><time>2026-04-25T08:15:50.997Z</time></trkpt><trkpt lat="44.9077367" lon="8.904815"><ele>116.0</ele><time>2026-04-25T08:15:51.995Z</time></trkpt><trkpt lat="44.9077233" lon="8.905005"><ele>116.0</ele><time>2026-04-25T08:15:53.001Z</time></trkpt><trkpt lat="44.907705" lon="8.90519"><ele>116.0</ele><time>2026-04-25T08:15:53.997Z</time></trkpt><trkpt lat="44.9076917" lon="8.9053733"><ele>116.0</ele><time>2026-04-25T08:15:54.999Z</time></trkpt><trkpt lat="44.9076767" lon="8.9055567"><ele>116.0</ele><time>2026-04-25T08:15:56.003Z</time></trkpt><trkpt lat="44.907665" lon="8.9057333"><ele>116.0</ele><time>2026-04-25T08:15:56.998Z</time></trkpt><trkpt lat="44.90765" lon="8.9059167"><ele>116.0</ele><time>2026-04-25T08:15:58.001Z</time></trkpt><trkpt lat="44.907635" lon="8.9061"><ele>116.25</ele><time>2026-04-25T08:15:58.994Z</time></trkpt><trkpt lat="44.9076217" lon="8.9062817"><ele>116.5</ele><time>2026-04-25T08:15:59.998Z</time></trkpt><trkpt lat="44.9076083" lon="8.9064583"><ele>116.75</ele><time>2026-04-25T08:16:00.997Z</time></trkpt><trkpt lat="44.9075933" lon="8.906635"><ele>117.0</ele><time>2026-04-25T08:16:01.999Z</time></trkpt><trkpt lat="44.9075783" lon="8.9068183"><ele>117.5</ele><time>2026-04-25T08:16:03Z</time></trkpt><trkpt lat="44.907565" lon="8.9069983"><ele>118.0</ele><time>2026-04-25T08:16:03.995Z</time></trkpt><trkpt lat="44.90755" lon="8.9071767"><ele>118.5</ele><time>2026-04-25T08:16:04.997Z</time></trkpt><trkpt lat="44.9075333" lon="8.9073517"><ele>119.0</ele><time>2026-04-25T08:16:05.998Z</time></trkpt><trkpt lat="44.90752" lon="8.9075317"><ele>119.5</ele><time>2026-04-25T08:16:06.995Z</time></trkpt><trkpt lat="44.9075083" lon="8.907705"><ele>120.0</ele><time>2026-04-25T08:16:07.997Z</time></trkpt><trkpt lat="44.907495" lon="8.9078833"><ele>120.5</ele><time>2026-04-25T08:16:08.995Z</time></trkpt><trkpt lat="44.9074833" lon="8.9080617"><ele>121.0</ele><time>2026-04-25T08:16:09.996Z</time></trkpt><trkpt lat="44.9074683" lon="8.9082383"><ele>121.0</ele><time>2026-04-25T08:16:10.996Z</time></trkpt><trkpt lat="44.907455" lon="8.9084133"><ele>121.0</ele><time>2026-04-25T08:16:11.998Z</time></trkpt><trkpt lat="44.90744" lon="8.9085833"><ele>121.0</ele><time>2026-04-25T08:16:12.994Z</time></trkpt><trkpt lat="44.9074283" lon="8.908755"><ele>121.0</ele><time>2026-04-25T08:16:13.996Z</time></trkpt><trkpt lat="44.9074167" lon="8.908925"><ele>121.0</ele><time>2026-04-25T08:16:14.997Z</time></trkpt><trkpt lat="44.907405" lon="8.9090917"><ele>121.0</ele><time>2026-04-25T08:16:15.998Z</time></trkpt><trkpt lat="44.9073967" lon="8.909255"><ele>121.0</ele><time>2026-04-25T08:16:16.997Z</time></trkpt><trkpt lat="44.90739" lon="8.9094083"><ele>121.0</ele><time>2026-04-25T08:16:17.998Z</time></trkpt><trkpt lat="44.9073817" lon="8.9095617"><ele>120.6</ele><time>2026-04-25T08:16:18.996Z</time></trkpt><trkpt lat="44.9073733" lon="8.9097133"><ele>120.19999999999999</ele><time>2026-04-25T08:16:19.994Z</time></trkpt><trkpt lat="44.9073683" lon="8.90986"><ele>119.80000000000001</ele><time>2026-04-25T08:16:20.994Z</time></trkpt><trkpt lat="44.9073633" lon="8.9099867"><ele>119.4</ele><time>2026-04-25T08:16:22.001Z</time></trkpt><trkpt lat="44.9073567" lon="8.9100983"><ele>119.0</ele><time>2026-04-25T08:16:22.994Z</time></trkpt><trkpt lat="44.9073483" lon="8.91023"><ele>118.80000000000001</ele><time>2026-04-25T08:16:24.996Z</time></trkpt><trkpt lat="44.9073817" lon="8.9103733"><ele>118.60000000000001</ele><time>2026-04-25T08:16:44.997Z</time></trkpt><trkpt lat="44.90738" lon="8.91048"><ele>118.4</ele><time>2026-04-25T08:16:45.996Z</time></trkpt><trkpt lat="44.9073733" lon="8.9106083"><ele>118.2</ele><time>2026-04-25T08:16:46.994Z</time></trkpt><trkpt lat="44.9073717" lon="8.9107467"><ele>118.0</ele><time>2026-04-25T08:16:47.996Z</time></trkpt><trkpt lat="44.9073667" lon="8.91089"><ele>118.25</ele><time>2026-04-25T08:16:48.997Z</time></trkpt><trkpt lat="44.9073633" lon="8.9110467"><ele>118.5</ele><time>2026-04-25T08:16:49.998Z</time></trkpt><trkpt lat="44.9073617" lon="8.9112067"><ele>118.75</ele><time>2026-04-25T08:16:50.997Z</time></trkpt><trkpt lat="44.9073583" lon="8.9113717"><ele>119.0</ele><time>2026-04-25T08:16:51.999Z</time></trkpt><trkpt lat="44.90736" lon="8.9115417"><ele>119.0</ele><time>2026-04-25T08:16:52.994Z</time></trkpt><trkpt lat="44.9073567" lon="8.9117183"><ele>119.0</ele><time>2026-04-25T08:16:53.996Z</time></trkpt><trkpt lat="44.9073533" lon="8.9119017"><ele>119.0</ele><time>2026-04-25T08:16:54.999Z</time></trkpt><trkpt lat="44.9073483" lon="8.9120917"><ele>119.0</ele><time>2026-04-25T08:16:56.003Z</time></trkpt><trkpt lat="44.9073433" lon="8.91228"><ele>119.5</ele><time>2026-04-25T08:16:57Z</time></trkpt><trkpt lat="44.907345" lon="8.91246"><ele>120.0</ele><time>2026-04-25T08:16:57.996Z</time></trkpt><trkpt lat="44.9073433" lon="8.9126417"><ele>120.5</ele><time>2026-04-25T08:16:59.003Z</time></trkpt><trkpt lat="44.9073383" lon="8.9128183"><ele>121.0</ele><time>2026-04-25T08:16:59.998Z</time></trkpt><trkpt lat="44.9073383" lon="8.9129883"><ele>121.0</ele><time>2026-04-25T08:17:01Z</time></trkpt><trkpt lat="44.9073367" lon="8.9131633"><ele>121.0</ele><time>2026-04-25T08:17:02.002Z</time></trkpt><trkpt lat="44.907335" lon="8.9133383"><ele>121.0</ele><time>2026-04-25T08:17:03.002Z</time></trkpt><trkpt lat="44.9073333" lon="8.91352"><ele>121.0</ele><time>2026-04-25T08:17:03.996Z</time></trkpt><trkpt lat="44.9073317" lon="8.9137"><ele>121.25</ele><time>2026-04-25T08:17:04.997Z</time></trkpt><trkpt lat="44.9073267" lon="8.9138833"><ele>121.5</ele><time>2026-04-25T08:17:05.996Z</time></trkpt><trkpt lat="44.9073233" lon="8.914065"><ele>121.75</ele><time>2026-04-25T08:17:07.002Z</time></trkpt><trkpt lat="44.90732" lon="8.9142467"><ele>122.0</ele><time>2026-04-25T08:17:07.997Z</time></trkpt><trkpt lat="44.907315" lon="8.9144283"><ele>122.25</ele><time>2026-04-25T08:17:08.999Z</time></trkpt><trkpt lat="44.90731" lon="8.9146067"><ele>122.5</ele><time>2026-04-25T08:17:09.998Z</time></trkpt><trkpt lat="44.9073067" lon="8.9147867"><ele>122.75</ele><time>2026-04-25T08:17:10.996Z</time></trkpt><trkpt lat="44.9073017" lon="8.9149667"><ele>123.0</ele><time>2026-04-25T08:17:12.001Z</time></trkpt><trkpt lat="44.9072983" lon="8.9151417"><ele>123.5</ele><time>2026-04-25T08:17:12.996Z</time></trkpt><trkpt lat="44.9072983" lon="8.91532"><ele>124.0</ele><time>2026-04-25T08:17:13.998Z</time></trkpt><trkpt lat="44.9072917" lon="8.9155017"><ele>124.5</ele><time>2026-04-25T08:17:15.001Z</time></trkpt><trkpt lat="44.90729" lon="8.9156783"><ele>125.0</ele><time>2026-04-25T08:17:15.995Z</time></trkpt><trkpt lat="44.9072867" lon="8.91585"><ele>125.4</ele><time>2026-04-25T08:17:16.998Z</time></trkpt><trkpt lat="44.907285" lon="8.916"><ele>125.8</ele><time>2026-04-25T08:17:17.996Z</time></trkpt><trkpt lat="44.9072817" lon="8.9161417"><ele>126.19999999999999</ele><time>2026-04-25T08:17:18.997Z</time></trkpt><trkpt lat="44.9072783" lon="8.9162733"><ele>126.6</ele><time>2026-04-25T08:17:19.996Z</time></trkpt><trkpt lat="44.9072733" lon="8.916395"><ele>127.0</ele><time>2026-04-25T08:17:21Z</time></trkpt><trkpt lat="44.90727" lon="8.9165067"><ele>127.0</ele><time>2026-04-25T08:17:22Z</time></trkpt><trkpt lat="44.9072667" lon="8.9166167"><ele>126.99999999999999</ele><time>2026-04-25T08:17:22.996Z</time></trkpt><trkpt lat="44.907265" lon="8.9167067"><ele>126.99999999999999</ele><time>2026-04-25T08:17:23.995Z</time></trkpt><trkpt lat="44.9072617" lon="8.9168567"><ele>127.0</ele><time>2026-04-25T08:17:25.997Z</time></trkpt><trkpt lat="44.9072633" lon="8.9170267"><ele>127.0</ele><time>2026-04-25T08:17:51.994Z</time></trkpt><trkpt lat="44.9072533" lon="8.91723"><ele>127.19999999999999</ele><time>2026-04-25T08:17:53.996Z</time></trkpt><trkpt lat="44.9072383" lon="8.9173717"><ele>127.39999999999999</ele><time>2026-04-25T08:17:54.994Z</time></trkpt><trkpt lat="44.90722" lon="8.9175"><ele>127.60000000000001</ele><time>2026-04-25T08:17:55.996Z</time></trkpt><trkpt lat="44.9072033" lon="8.91763"><ele>127.80000000000001</ele><time>2026-04-25T08:17:56.997Z</time></trkpt><trkpt lat="44.9071817" lon="8.9177683"><ele>128.0</ele><time>2026-04-25T08:17:57.996Z</time></trkpt><trkpt lat="44.90716" lon="8.9179167"><ele>128.0</ele><time>2026-04-25T08:17:58.999Z</time></trkpt><trkpt lat="44.9071383" lon="8.918055"><ele>128.0</ele><time>2026-04-25T08:17:59.994Z</time></trkpt><trkpt lat="44.907115" lon="8.9181933"><ele>128.0</ele><time>2026-04-25T08:18:00.999Z</time></trkpt><trkpt lat="44.907095" lon="8.918325"><ele>128.0</ele><time>2026-04-25T08:18:01.995Z</time></trkpt><trkpt lat="44.907075" lon="8.918455"><ele>128.0</ele><time>2026-04-25T08:18:02.996Z</time></trkpt><trkpt lat="44.9070567" lon="8.9185867"><ele>128.0</ele><time>2026-04-25T08:18:03.994Z</time></trkpt><trkpt lat="44.9070367" lon="8.9187183"><ele>128.0</ele><time>2026-04-25T08:18:04.995Z</time></trkpt><trkpt lat="44.9070167" lon="8.9188517"><ele>128.0</ele><time>2026-04-25T08:18:05.997Z</time></trkpt><trkpt lat="44.9069917" lon="8.9189767"><ele>128.0</ele><time>2026-04-25T08:18:06.995Z</time></trkpt><trkpt lat="44.906965" lon="8.9191033"><ele>128.0</ele><time>2026-04-25T08:18:07.997Z</time></trkpt><trkpt lat="44.9069383" lon="8.919235"><ele>128.0</ele><time>2026-04-25T08:18:08.997Z</time></trkpt><trkpt lat="44.90691" lon="8.9193717"><ele>128.0</ele><time>2026-04-25T08:18:09.997Z</time></trkpt><trkpt lat="44.9068817" lon="8.9195117"><ele>128.0</ele><time>2026-04-25T08:18:10.995Z</time></trkpt><trkpt lat="44.90685" lon="8.9196567"><ele>128.0</ele><time>2026-04-25T08:18:11.997Z</time></trkpt><trkpt lat="44.90682" lon="8.9197983"><ele>128.0</ele><time>2026-04-25T08:18:12.997Z</time></trkpt><trkpt lat="44.90679" lon="8.9199267"><ele>127.99999999999999</ele><time>2026-04-25T08:18:13.999Z</time></trkpt><trkpt lat="44.90676" lon="8.9200467"><ele>128.0</ele><time>2026-04-25T08:18:14.995Z</time></trkpt><trkpt lat="44.9067317" lon="8.9201633"><ele>128.0</ele><time>2026-04-25T08:18:15.997Z</time></trkpt><trkpt lat="44.9067033" lon="8.9202767"><ele>128.0</ele><time>2026-04-25T08:18:16.994Z</time></trkpt><trkpt lat="44.9066783" lon="8.9204"><ele>127.99999999999999</ele><time>2026-04-25T08:18:17.997Z</time></trkpt><trkpt lat="44.9066517" lon="8.9205233"><ele>128.0</ele><time>2026-04-25T08:18:18.997Z</time></trkpt><trkpt lat="44.9066217" lon="8.9206367"><ele>128.4</ele><time>2026-04-25T08:18:19.999Z</time></trkpt><trkpt lat="44.9065917" lon="8.9207517"><ele>128.8</ele><time>2026-04-25T08:18:20.999Z</time></trkpt><trkpt lat="44.9065667" lon="8.9208683"><ele>129.2</ele><time>2026-04-25T08:18:21.995Z</time></trkpt><trkpt lat="44.906545" lon="8.9209767"><ele>129.6</ele><time>2026-04-25T08:18:22.998Z</time></trkpt><trkpt lat="44.9065133" lon="8.92113"><ele>130.0</ele><time>2026-04-25T08:18:24.993Z</time></trkpt><trkpt lat="44.9064717" lon="8.9212883"><ele>130.4</ele><time>2026-04-25T08:18:26.998Z</time></trkpt><trkpt lat="44.9064367" lon="8.92139"><ele>130.8</ele><time>2026-04-25T08:18:27.996Z</time></trkpt><trkpt lat="44.9063983" lon="8.9215167"><ele>131.2</ele><time>2026-04-25T08:18:28.996Z</time></trkpt><trkpt lat="44.906355" lon="8.92166"><ele>131.6</ele><time>2026-04-25T08:18:30.002Z</time></trkpt><trkpt lat="44.9063133" lon="8.9218"><ele>132.0</ele><time>2026-04-25T08:18:30.999Z</time></trkpt><trkpt lat="44.9062633" lon="8.9219367"><ele>132.0</ele><time>2026-04-25T08:18:31.995Z</time></trkpt><trkpt lat="44.906225" lon="8.9220967"><ele>132.0</ele><time>2026-04-25T08:18:32.998Z</time></trkpt><trkpt lat="44.90619" lon="8.9222633"><ele>132.0</ele><time>2026-04-25T08:18:33.998Z</time></trkpt><trkpt lat="44.90615" lon="8.9224283"><ele>132.0</ele><time>2026-04-25T08:18:34.997Z</time></trkpt><trkpt lat="44.90611" lon="8.9226067"><ele>132.0</ele><time>2026-04-25T08:18:35.996Z</time></trkpt><trkpt lat="44.90606" lon="8.9227783"><ele>132.0</ele><time>2026-04-25T08:18:36.993Z</time></trkpt><trkpt lat="44.9060017" lon="8.9229583"><ele>132.0</ele><time>2026-04-25T08:18:37.995Z</time></trkpt><trkpt lat="44.9059533" lon="8.9231317"><ele>132.0</ele><time>2026-04-25T08:18:38.996Z</time></trkpt><trkpt lat="44.9059083" lon="8.9233117"><ele>132.25</ele><time>2026-04-25T08:18:39.997Z</time></trkpt><trkpt lat="44.90586" lon="8.92349"><ele>132.5</ele><time>2026-04-25T08:18:40.994Z</time></trkpt><trkpt lat="44.9058217" lon="8.9236733"><ele>132.75</ele><time>2026-04-25T08:18:42Z</time></trkpt><trkpt lat="44.9057867" lon="8.9238583"><ele>133.0</ele><time>2026-04-25T08:18:42.994Z</time></trkpt><trkpt lat="44.905755" lon="8.92404"><ele>133.0</ele><time>2026-04-25T08:18:44.004Z</time></trkpt><trkpt lat="44.9057267" lon="8.9242217"><ele>133.0</ele><time>2026-04-25T08:18:44.997Z</time></trkpt><trkpt lat="44.905705" lon="8.92441"><ele>133.0</ele><time>2026-04-25T08:18:45.998Z</time></trkpt><trkpt lat="44.9056867" lon="8.9245933"><ele>133.0</ele><time>2026-04-25T08:18:47.003Z</time></trkpt><trkpt lat="44.9056733" lon="8.9247783"><ele>133.0</ele><time>2026-04-25T08:18:47.995Z</time></trkpt><trkpt lat="44.9056633" lon="8.92496"><ele>133.0</ele><time>2026-04-25T08:18:49.004Z</time></trkpt><trkpt lat="44.9056583" lon="8.92515"><ele>133.0</ele><time>2026-04-25T08:18:50.002Z</time></trkpt><trkpt lat="44.905655" lon="8.9253383"><ele>133.0</ele><time>2026-04-25T08:18:50.994Z</time></trkpt><trkpt lat="44.905655" lon="8.925525"><ele>133.0</ele><time>2026-04-25T08:18:51.995Z</time></trkpt><trkpt lat="44.905655" lon="8.92571"><ele>133.0</ele><time>2026-04-25T08:18:52.997Z</time></trkpt><trkpt lat="44.9056533" lon="8.9259"><ele>133.0</ele><time>2026-04-25T08:18:53.999Z</time></trkpt><trkpt lat="44.905655" lon="8.9260917"><ele>133.0</ele><time>2026-04-25T08:18:54.997Z</time></trkpt><trkpt lat="44.90566" lon="8.9262817"><ele>133.5</ele><time>2026-04-25T08:18:55.999Z</time></trkpt><trkpt lat="44.9056667" lon="8.9264767"><ele>134.0</ele><time>2026-04-25T08:18:56.995Z</time></trkpt><trkpt lat="44.9056717" lon="8.92666"><ele>134.5</ele><time>2026-04-25T08:18:57.998Z</time></trkpt><trkpt lat="44.9056733" lon="8.926835"><ele>135.0</ele><time>2026-04-25T08:18:58.993Z</time></trkpt><trkpt lat="44.9056783" lon="8.927005"><ele>135.25</ele><time>2026-04-25T08:18:59.996Z</time></trkpt><trkpt lat="44.905685" lon="8.9271717"><ele>135.5</ele><time>2026-04-25T08:19:00.996Z</time></trkpt><trkpt lat="44.9056917" lon="8.9273367"><ele>135.75</ele><time>2026-04-25T08:19:01.995Z</time></trkpt><trkpt lat="44.9056983" lon="8.9275067"><ele>136.0</ele><time>2026-04-25T08:19:02.997Z</time></trkpt><trkpt lat="44.9057" lon="8.9276833"><ele>136.25</ele><time>2026-04-25T08:19:03.996Z</time></trkpt><trkpt lat="44.9057033" lon="8.92786"><ele>136.5</ele><time>2026-04-25T08:19:04.997Z</time></trkpt><trkpt lat="44.905705" lon="8.92804"><ele>136.75</ele><time>2026-04-25T08:19:05.995Z</time></trkpt><trkpt lat="44.90571" lon="8.928215"><ele>137.0</ele><time>2026-04-25T08:19:07Z</time></trkpt><trkpt lat="44.9057167" lon="8.928395"><ele>136.5</ele><time>2026-04-25T08:19:07.994Z</time></trkpt><trkpt lat="44.9057167" lon="8.92858"><ele>136.0</ele><time>2026-04-25T08:19:09Z</time></trkpt><trkpt lat="44.9057183" lon="8.9287567"><ele>135.5</ele><time>2026-04-25T08:19:09.995Z</time></trkpt><trkpt lat="44.90572" lon="8.9289233"><ele>135.0</ele><time>2026-04-25T08:19:10.997Z</time></trkpt><trkpt lat="44.90572" lon="8.92908"><ele>135.0</ele><time>2026-04-25T08:19:12.002Z</time></trkpt><trkpt lat="44.905725" lon="8.9292283"><ele>135.0</ele><time>2026-04-25T08:19:12.997Z</time></trkpt><trkpt lat="44.9057283" lon="8.9293617"><ele>135.0</ele><time>2026-04-25T08:19:13.997Z</time></trkpt><trkpt lat="44.905735" lon="8.929485"><ele>135.0</ele><time>2026-04-25T08:19:14.996Z</time></trkpt><trkpt lat="44.90574" lon="8.9296"><ele>135.0</ele><time>2026-04-25T08:19:15.999Z</time></trkpt><trkpt lat="44.9057467" lon="8.9297167"><ele>135.0</ele><time>2026-04-25T08:19:16.995Z</time></trkpt><trkpt lat="44.9057583" lon="8.929845"><ele>135.0</ele><time>2026-04-25T08:19:18Z</time></trkpt><trkpt lat="44.9057683" lon="8.93"><ele>135.0</ele><time>2026-04-25T08:19:18.997Z</time></trkpt><trkpt lat="44.9057833" lon="8.9301867"><ele>135.0</ele><time>2026-04-25T08:19:19.995Z</time></trkpt><trkpt lat="44.9057917" lon="8.9303833"><ele>135.5</ele><time>2026-04-25T08:19:21.008Z</time></trkpt><trkpt lat="44.9058033" lon="8.930575"><ele>136.0</ele><time>2026-04-25T08:19:21.996Z</time></trkpt><trkpt lat="44.9058167" lon="8.9307583"><ele>136.5</ele><time>2026-04-25T08:19:22.998Z</time></trkpt><trkpt lat="44.90583" lon="8.9309467"><ele>137.0</ele><time>2026-04-25T08:19:23.997Z</time></trkpt><trkpt lat="44.905845" lon="8.9311417"><ele>137.25</ele><time>2026-04-25T08:19:24.999Z</time></trkpt><trkpt lat="44.90586" lon="8.9313383"><ele>137.5</ele><time>2026-04-25T08:19:26.002Z</time></trkpt><trkpt lat="44.9058733" lon="8.9315383"><ele>137.75</ele><time>2026-04-25T08:19:26.998Z</time></trkpt><trkpt lat="44.9058883" lon="8.9317367"><ele>138.0</ele><time>2026-04-25T08:19:27.998Z</time></trkpt><trkpt lat="44.9059033" lon="8.9319283"><ele>137.75</ele><time>2026-04-25T08:19:28.996Z</time></trkpt><trkpt lat="44.90592" lon="8.9321167"><ele>137.5</ele><time>2026-04-25T08:19:29.994Z</time></trkpt><trkpt lat="44.905935" lon="8.932305"><ele>137.25</ele><time>2026-04-25T08:19:30.995Z</time></trkpt><trkpt lat="44.9059483" lon="8.9324883"><ele>137.0</ele><time>2026-04-25T08:19:31.998Z</time></trkpt><trkpt lat="44.9059617" lon="8.9326767"><ele>136.75</ele><time>2026-04-25T08:19:33Z</time></trkpt><trkpt lat="44.90597" lon="8.9328717"><ele>136.5</ele><time>2026-04-25T08:19:33.999Z</time></trkpt><trkpt lat="44.9059817" lon="8.93306"><ele>136.25</ele><time>2026-04-25T08:19:34.995Z</time></trkpt><trkpt lat="44.9059967" lon="8.93325"><ele>136.0</ele><time>2026-04-25T08:19:35.998Z</time></trkpt><trkpt lat="44.9060117" lon="8.93344"><ele>136.0</ele><time>2026-04-25T08:19:36.999Z</time></trkpt><trkpt lat="44.906025" lon="8.9336367"><ele>136.0</ele><time>2026-04-25T08:19:37.998Z</time></trkpt><trkpt lat="44.9060383" lon="8.93383"><ele>136.0</ele><time>2026-04-25T08:19:38.998Z</time></trkpt><trkpt lat="44.906045" lon="8.9340317"><ele>136.0</ele><time>2026-04-25T08:19:39.994Z</time></trkpt><trkpt lat="44.9060583" lon="8.9342283"><ele>136.5</ele><time>2026-04-25T08:19:40.994Z</time></trkpt><trkpt lat="44.9060733" lon="8.93442"><ele>137.0</ele><time>2026-04-25T08:19:41.997Z</time></trkpt><trkpt lat="44.90608" lon="8.9346133"><ele>137.5</ele><time>2026-04-25T08:19:42.997Z</time></trkpt><trkpt lat="44.9060833" lon="8.9348033"><ele>138.0</ele><time>2026-04-25T08:19:44.001Z</time></trkpt><trkpt lat="44.906085" lon="8.9349933"><ele>138.25</ele><time>2026-04-25T08:19:44.994Z</time></trkpt><trkpt lat="44.9060867" lon="8.9351733"><ele>138.5</ele><time>2026-04-25T08:19:45.995Z</time></trkpt><trkpt lat="44.9060883" lon="8.9353483"><ele>138.75</ele><time>2026-04-25T08:19:46.995Z</time></trkpt><trkpt lat="44.9060883" lon="8.935515"><ele>139.0</ele><time>2026-04-25T08:19:47.997Z</time></trkpt><trkpt lat="44.90609" lon="8.93567"><ele>139.0</ele><time>2026-04-25T08:19:48.996Z</time></trkpt><trkpt lat="44.9060917" lon="8.9358167"><ele>139.0</ele><time>2026-04-25T08:19:49.995Z</time></trkpt><trkpt lat="44.9060917" lon="8.9359617"><ele>139.0</ele><time>2026-04-25T08:19:50.997Z</time></trkpt><trkpt lat="44.9060917" lon="8.9361033"><ele>139.0</ele><time>2026-04-25T08:19:51.999Z</time></trkpt><trkpt lat="44.9060933" lon="8.93624"><ele>139.0</ele><time>2026-04-25T08:19:52.994Z</time></trkpt><trkpt lat="44.9060917" lon="8.9363767"><ele>139.0</ele><time>2026-04-25T08:19:53.995Z</time></trkpt><trkpt lat="44.906095" lon="8.9365017"><ele>139.0</ele><time>2026-04-25T08:19:55.004Z</time></trkpt><trkpt lat="44.9060983" lon="8.9366183"><ele>139.0</ele><time>2026-04-25T08:19:55.994Z</time></trkpt><trkpt lat="44.9060983" lon="8.9367317"><ele>139.0</ele><time>2026-04-25T08:19:56.998Z</time></trkpt><trkpt lat="44.9060983" lon="8.9368467"><ele>139.0</ele><time>2026-04-25T08:19:57.999Z</time></trkpt><trkpt lat="44.9060983" lon="8.93696"><ele>139.0</ele><time>2026-04-25T08:19:58.999Z</time></trkpt><trkpt lat="44.906095" lon="8.9370733"><ele>139.0</ele><time>2026-04-25T08:19:59.998Z</time></trkpt><trkpt lat="44.9060933" lon="8.9371917"><ele>139.0</ele><time>2026-04-25T08:20:00.997Z</time></trkpt><trkpt lat="44.906095" lon="8.9373117"><ele>139.0</ele><time>2026-04-25T08:20:01.997Z</time></trkpt><trkpt lat="44.9060933" lon="8.93743"><ele>139.0</ele><time>2026-04-25T08:20:02.997Z</time></trkpt><trkpt lat="44.9060917" lon="8.9375483"><ele>139.0</ele><time>2026-04-25T08:20:03.996Z</time></trkpt><trkpt lat="44.9060917" lon="8.9376617"><ele>139.0</ele><time>2026-04-25T08:20:04.995Z</time></trkpt><trkpt lat="44.9060917" lon="8.9377717"><ele>139.2</ele><time>2026-04-25T08:20:05.996Z</time></trkpt><trkpt lat="44.9060933" lon="8.9378867"><ele>139.4</ele><time>2026-04-25T08:20:06.993Z</time></trkpt><trkpt lat="44.9060917" lon="8.9380133"><ele>139.6</ele><time>2026-04-25T08:20:07.995Z</time></trkpt><trkpt lat="44.9060917" lon="8.9381467"><ele>139.8</ele><time>2026-04-25T08:20:08.999Z</time></trkpt><trkpt lat="44.9060933" lon="8.9382933"><ele>140.0</ele><time>2026-04-25T08:20:09.994Z</time></trkpt><trkpt lat="44.9060933" lon="8.93845"><ele>140.0</ele><time>2026-04-25T08:20:10.996Z</time></trkpt><trkpt lat="44.9060883" lon="8.938615"><ele>140.0</ele><time>2026-04-25T08:20:11.995Z</time></trkpt><trkpt lat="44.9060767" lon="8.9387833"><ele>140.0</ele><time>2026-04-25T08:20:12.995Z</time></trkpt><trkpt lat="44.906065" lon="8.9389617"><ele>140.0</ele><time>2026-04-25T08:20:13.995Z</time></trkpt><trkpt lat="44.90605" lon="8.939135"><ele>140.25</ele><time>2026-04-25T08:20:14.996Z</time></trkpt><trkpt lat="44.906035" lon="8.939315"><ele>140.5</ele><time>2026-04-25T08:20:15.998Z</time></trkpt><trkpt lat="44.9060183" lon="8.9394867"><ele>140.75</ele><time>2026-04-25T08:20:16.995Z</time></trkpt><trkpt lat="44.9059983" lon="8.9396533"><ele>141.0</ele><time>2026-04-25T08:20:17.996Z</time></trkpt><trkpt lat="44.9059767" lon="8.9398133"><ele>141.0</ele><time>2026-04-25T08:20:19.001Z</time></trkpt><trkpt lat="44.9059483" lon="8.9399733"><ele>141.0</ele><time>2026-04-25T08:20:20Z</time></trkpt><trkpt lat="44.9059217" lon="8.9401333"><ele>141.0</ele><time>2026-04-25T08:20:21.001Z</time></trkpt><trkpt lat="44.9058933" lon="8.9403017"><ele>141.0</ele><time>2026-04-25T08:20:22.005Z</time></trkpt><trkpt lat="44.90586" lon="8.9404733"><ele>141.5</ele><time>2026-04-25T08:20:22.999Z</time></trkpt><trkpt lat="44.905825" lon="8.9406483"><ele>142.0</ele><time>2026-04-25T08:20:23.995Z</time></trkpt><trkpt lat="44.9057917" lon="8.940825"><ele>142.5</ele><time>2026-04-25T08:20:24.996Z</time></trkpt><trkpt lat="44.9057583" lon="8.9410017"><ele>143.0</ele><time>2026-04-25T08:20:25.995Z</time></trkpt><trkpt lat="44.905725" lon="8.9411833"><ele>143.25</ele><time>2026-04-25T08:20:26.997Z</time></trkpt><trkpt lat="44.9056933" lon="8.9413683"><ele>143.5</ele><time>2026-04-25T08:20:27.998Z</time></trkpt><trkpt lat="44.9056633" lon="8.9415517"><ele>143.75</ele><time>2026-04-25T08:20:28.992Z</time></trkpt><trkpt lat="44.9056317" lon="8.941725"><ele>144.0</ele><time>2026-04-25T08:20:29.999Z</time></trkpt><trkpt lat="44.9056" lon="8.94189"><ele>144.25</ele><time>2026-04-25T08:20:30.995Z</time></trkpt><trkpt lat="44.9055683" lon="8.9420517"><ele>144.5</ele><time>2026-04-25T08:20:31.998Z</time></trkpt><trkpt lat="44.9055317" lon="8.9422283"><ele>144.75</ele><time>2026-04-25T08:20:32.997Z</time></trkpt><trkpt lat="44.9054983" lon="8.9423933"><ele>145.0</ele><time>2026-04-25T08:20:33.997Z</time></trkpt><trkpt lat="44.9054667" lon="8.942555"><ele>145.75</ele><time>2026-04-25T08:20:34.998Z</time></trkpt><trkpt lat="44.9054333" lon="8.942715"><ele>146.5</ele><time>2026-04-25T08:20:35.999Z</time></trkpt><trkpt lat="44.9054033" lon="8.9428733"><ele>147.25</ele><time>2026-04-25T08:20:37.001Z</time></trkpt><trkpt lat="44.9053717" lon="8.943035"><ele>148.0</ele><time>2026-04-25T08:20:37.999Z</time></trkpt><trkpt lat="44.905345" lon="8.9431967"><ele>148.0</ele><time>2026-04-25T08:20:39Z</time></trkpt><trkpt lat="44.905315" lon="8.9433583"><ele>148.0</ele><time>2026-04-25T08:20:39.996Z</time></trkpt><trkpt lat="44.9052883" lon="8.943505"><ele>148.0</ele><time>2026-04-25T08:20:40.995Z</time></trkpt><trkpt lat="44.9052617" lon="8.9436567"><ele>148.0</ele><time>2026-04-25T08:20:41.993Z</time></trkpt><trkpt lat="44.9052367" lon="8.9438117"><ele>148.0</ele><time>2026-04-25T08:20:42.997Z</time></trkpt><trkpt lat="44.9052067" lon="8.9439583"><ele>148.20000000000002</ele><time>2026-04-25T08:20:43.996Z</time></trkpt><trkpt lat="44.9051733" lon="8.9441083"><ele>148.4</ele><time>2026-04-25T08:20:44.997Z</time></trkpt><trkpt lat="44.9051433" lon="8.9442567"><ele>148.60000000000002</ele><time>2026-04-25T08:20:45.999Z</time></trkpt><trkpt lat="44.905115" lon="8.9444083"><ele>148.8</ele><time>2026-04-25T08:20:46.997Z</time></trkpt><trkpt lat="44.9050867" lon="8.9445567"><ele>149.0</ele><time>2026-04-25T08:20:47.996Z</time></trkpt><trkpt lat="44.9050583" lon="8.944715"><ele>149.0</ele><time>2026-04-25T08:20:48.999Z</time></trkpt><trkpt lat="44.9050417" lon="8.9448717"><ele>149.0</ele><time>2026-04-25T08:20:49.999Z</time></trkpt><trkpt lat="44.90503" lon="8.9450283"><ele>149.0</ele><time>2026-04-25T08:20:51.002Z</time></trkpt><trkpt lat="44.9050217" lon="8.945185"><ele>149.0</ele><time>2026-04-25T08:20:51.995Z</time></trkpt><trkpt lat="44.9050167" lon="8.9453317"><ele>149.0</ele><time>2026-04-25T08:20:52.995Z</time></trkpt><trkpt lat="44.905015" lon="8.9454783"><ele>149.0</ele><time>2026-04-25T08:20:53.996Z</time></trkpt><trkpt lat="44.9050117" lon="8.94562"><ele>149.0</ele><time>2026-04-25T08:20:54.998Z</time></trkpt><trkpt lat="44.90501" lon="8.9457617"><ele>149.0</ele><time>2026-04-25T08:20:55.997Z</time></trkpt><trkpt lat="44.9050033" lon="8.9459017"><ele>149.0</ele><time>2026-04-25T08:20:56.994Z</time></trkpt><trkpt lat="44.9049983" lon="8.9460333"><ele>149.0</ele><time>2026-04-25T08:20:58.001Z</time></trkpt><trkpt lat="44.9049933" lon="8.946135"><ele>149.0</ele><time>2026-04-25T08:20:58.996Z</time></trkpt><trkpt lat="44.904985" lon="8.9462283"><ele>149.0</ele><time>2026-04-25T08:20:59.997Z</time></trkpt><trkpt lat="44.9049833" lon="8.94638"><ele>149.0</ele><time>2026-04-25T08:21:01.995Z</time></trkpt><trkpt lat="44.90499" lon="8.9465017"><ele>149.0</ele><time>2026-04-25T08:21:03.995Z</time></trkpt><trkpt lat="44.90498" lon="8.946615"><ele>149.0</ele><time>2026-04-25T08:21:07.996Z</time></trkpt><trkpt lat="44.9049817" lon="8.9467667"><ele>149.0</ele><time>2026-04-25T08:21:09.998Z</time></trkpt><trkpt lat="44.9049967" lon="8.9469217"><ele>149.14285714285714</ele><time>2026-04-25T08:21:11.995Z</time></trkpt><trkpt lat="44.90502" lon="8.9470067"><ele>149.28571428571428</ele><time>2026-04-25T08:21:12.995Z</time></trkpt><trkpt lat="44.9050417" lon="8.9471"><ele>149.42857142857142</ele><time>2026-04-25T08:21:14Z</time></trkpt><trkpt lat="44.9050717" lon="8.94719"><ele>149.57142857142856</ele><time>2026-04-25T08:21:14.998Z</time></trkpt><trkpt lat="44.9050967" lon="8.9472933"><ele>149.71428571428572</ele><time>2026-04-25T08:21:15.995Z</time></trkpt><trkpt lat="44.9051283" lon="8.9473967"><ele>149.85714285714283</ele><time>2026-04-25T08:21:16.997Z</time></trkpt><trkpt lat="44.9051617" lon="8.947505"><ele>150.0</ele><time>2026-04-25T08:21:17.996Z</time></trkpt><trkpt lat="44.9052" lon="8.94762"><ele>150.2</ele><time>2026-04-25T08:21:18.994Z</time></trkpt><trkpt lat="44.9052417" lon="8.947745"><ele>150.4</ele><time>2026-04-25T08:21:19.998Z</time></trkpt><trkpt lat="44.9052983" lon="8.9478767"><ele>150.6</ele><time>2026-04-25T08:21:20.999Z</time></trkpt><trkpt lat="44.905345" lon="8.948"><ele>150.8</ele><time>2026-04-25T08:21:21.995Z</time></trkpt><trkpt lat="44.90539" lon="8.9481267"><ele>151.0</ele><time>2026-04-25T08:21:22.996Z</time></trkpt><trkpt lat="44.9054333" lon="8.94826"><ele>151.2</ele><time>2026-04-25T08:21:23.998Z</time></trkpt><trkpt lat="44.905475" lon="8.948395"><ele>151.39999999999998</ele><time>2026-04-25T08:21:25.001Z</time></trkpt><trkpt lat="44.9055133" lon="8.9485467"><ele>151.6</ele><time>2026-04-25T08:21:25.996Z</time></trkpt><trkpt lat="44.9055417" lon="8.9487033"><ele>151.79999999999998</ele><time>2026-04-25T08:21:26.996Z</time></trkpt><trkpt lat="44.9055733" lon="8.948855"><ele>152.0</ele><time>2026-04-25T08:21:27.997Z</time></trkpt><trkpt lat="44.9056033" lon="8.94901"><ele>152.0</ele><time>2026-04-25T08:21:28.996Z</time></trkpt><trkpt lat="44.9056283" lon="8.9491733"><ele>152.0</ele><time>2026-04-25T08:21:29.998Z</time></trkpt><trkpt lat="44.90566" lon="8.949325"><ele>152.0</ele><time>2026-04-25T08:21:30.996Z</time></trkpt><trkpt lat="44.9056917" lon="8.9494783"><ele>152.0</ele><time>2026-04-25T08:21:31.998Z</time></trkpt><trkpt lat="44.9057217" lon="8.9496317"><ele>152.0</ele><time>2026-04-25T08:21:33Z</time></trkpt><trkpt lat="44.9057483" lon="8.9497783"><ele>152.0</ele><time>2026-04-25T08:21:33.998Z</time></trkpt><trkpt lat="44.9057717" lon="8.9498917"><ele>152.0</ele><time>2026-04-25T08:21:35.005Z</time></trkpt><trkpt lat="44.9057917" lon="8.9500333"><ele>152.0</ele><time>2026-04-25T08:21:37.002Z</time></trkpt><trkpt lat="44.9058017" lon="8.9502283"><ele>152.0</ele><time>2026-04-25T08:26:07.997Z</time></trkpt><trkpt lat="44.9058833" lon="8.9503533"><ele>151.2</ele><time>2026-04-25T08:26:29.994Z</time></trkpt><trkpt lat="44.9059283" lon="8.9505283"><ele>150.39999999999998</ele><time>2026-04-25T08:26:31.995Z</time></trkpt><trkpt lat="44.9059533" lon="8.9506233"><ele>149.60000000000002</ele><time>2026-04-25T08:26:33.004Z</time></trkpt><trkpt lat="44.9059817" lon="8.9507217"><ele>148.8</ele><time>2026-04-25T08:26:33.994Z</time></trkpt><trkpt lat="44.9060167" lon="8.95083"><ele>148.0</ele><time>2026-04-25T08:26:34.995Z</time></trkpt><trkpt lat="44.9060583" lon="8.950945"><ele>148.0</ele><time>2026-04-25T08:26:35.995Z</time></trkpt><trkpt lat="44.9061083" lon="8.9510783"><ele>148.0</ele><time>2026-04-25T08:26:36.994Z</time></trkpt><trkpt lat="44.906155" lon="8.9512217"><ele>148.0</ele><time>2026-04-25T08:26:37.992Z</time></trkpt><trkpt lat="44.9061967" lon="8.951365"><ele>148.0</ele><time>2026-04-25T08:26:38.996Z</time></trkpt><trkpt lat="44.9062417" lon="8.9515083"><ele>148.0</ele><time>2026-04-25T08:26:39.998Z</time></trkpt><trkpt lat="44.9062883" lon="8.9516633"><ele>148.5</ele><time>2026-04-25T08:26:40.999Z</time></trkpt><trkpt lat="44.9063333" lon="8.9518133"><ele>149.0</ele><time>2026-04-25T08:26:41.999Z</time></trkpt><trkpt lat="44.90638" lon="8.9519717"><ele>149.5</ele><time>2026-04-25T08:26:43Z</time></trkpt><trkpt lat="44.90643" lon="8.9521417"><ele>150.0</ele><time>2026-04-25T08:26:44.003Z</time></trkpt><trkpt lat="44.9064933" lon="8.9523183"><ele>150.0</ele><time>2026-04-25T08:26:44.997Z</time></trkpt><trkpt lat="44.906555" lon="8.9524933"><ele>150.0</ele><time>2026-04-25T08:26:45.994Z</time></trkpt><trkpt lat="44.9066183" lon="8.9526717"><ele>150.0</ele><time>2026-04-25T08:26:46.994Z</time></trkpt><trkpt lat="44.9066767" lon="8.95285"><ele>150.0</ele><time>2026-04-25T08:26:47.996Z</time></trkpt><trkpt lat="44.9067383" lon="8.9530367"><ele>149.66666666666666</ele><time>2026-04-25T08:26:48.996Z</time></trkpt><trkpt lat="44.90681" lon="8.9532317"><ele>149.33333333333331</ele><time>2026-04-25T08:26:49.995Z</time></trkpt><trkpt lat="44.90688" lon="8.95343"><ele>149.0</ele><time>2026-04-25T08:26:50.999Z</time></trkpt><trkpt lat="44.9069617" lon="8.953645"><ele>149.33333333333331</ele><time>2026-04-25T08:26:51.994Z</time></trkpt><trkpt lat="44.90703" lon="8.953855"><ele>149.66666666666666</ele><time>2026-04-25T08:26:52.994Z</time></trkpt><trkpt lat="44.9070967" lon="8.9540683"><ele>150.0</ele><time>2026-04-25T08:26:53.993Z</time></trkpt><trkpt lat="44.9071517" lon="8.9542883"><ele>150.0</ele><time>2026-04-25T08:26:54.997Z</time></trkpt><trkpt lat="44.907195" lon="8.954515"><ele>150.0</ele><time>2026-04-25T08:26:55.996Z</time></trkpt><trkpt lat="44.90723" lon="8.9547433"><ele>150.0</ele><time>2026-04-25T08:26:56.996Z</time></trkpt><trkpt lat="44.90726" lon="8.954975"><ele>149.33333333333334</ele><time>2026-04-25T08:26:57.998Z</time></trkpt><trkpt lat="44.90728" lon="8.955215"><ele>148.66666666666669</ele><time>2026-04-25T08:26:58.995Z</time></trkpt><trkpt lat="44.9073017" lon="8.9554567"><ele>148.0</ele><time>2026-04-25T08:26:59.996Z</time></trkpt><trkpt lat="44.9073267" lon="8.9557033"><ele>148.0</ele><time>2026-04-25T08:27:00.994Z</time></trkpt><trkpt lat="44.9073483" lon="8.9559533"><ele>148.0</ele><time>2026-04-25T08:27:02.002Z</time></trkpt><trkpt lat="44.9073633" lon="8.9562"><ele>148.0</ele><time>2026-04-25T08:27:02.997Z</time></trkpt><trkpt lat="44.907385" lon="8.9564467"><ele>148.0</ele><time>2026-04-25T08:27:04Z</time></trkpt><trkpt lat="44.9074133" lon="8.9566983"><ele>148.0</ele><time>2026-04-25T08:27:04.996Z</time></trkpt><trkpt lat="44.9074367" lon="8.9569483"><ele>148.0</ele><time>2026-04-25T08:27:05.999Z</time></trkpt><trkpt lat="44.9074567" lon="8.957185"><ele>148.33333333333334</ele><time>2026-04-25T08:27:07.002Z</time></trkpt><trkpt lat="44.9074767" lon="8.9574167"><ele>148.66666666666666</ele><time>2026-04-25T08:27:07.996Z</time></trkpt><trkpt lat="44.9074967" lon="8.957635"><ele>149.0</ele><time>2026-04-25T08:27:08.997Z</time></trkpt><trkpt lat="44.9075133" lon="8.957845"><ele>149.33333333333331</ele><time>2026-04-25T08:27:09.998Z</time></trkpt><trkpt lat="44.907535" lon="8.95806"><ele>149.66666666666666</ele><time>2026-04-25T08:27:11Z</time></trkpt><trkpt lat="44.90755" lon="8.9582733"><ele>150.0</ele><time>2026-04-25T08:27:11.996Z</time></trkpt><trkpt lat="44.907555" lon="8.9584933"><ele>150.0</ele><time>2026-04-25T08:27:12.996Z</time></trkpt><trkpt lat="44.9075533" lon="8.958715"><ele>150.0</ele><time>2026-04-25T08:27:14.001Z</time></trkpt><trkpt lat="44.907545" lon="8.95894"><ele>150.0</ele><time>2026-04-25T08:27:14.993Z</time></trkpt><trkpt lat="44.9075383" lon="8.9591633"><ele>150.0</ele><time>2026-04-25T08:27:15.998Z</time></trkpt><trkpt lat="44.9075333" lon="8.9593883"><ele>150.0</ele><time>2026-04-25T08:27:16.996Z</time></trkpt><trkpt lat="44.9075267" lon="8.9596183"><ele>150.0</ele><time>2026-04-25T08:27:17.996Z</time></trkpt><trkpt lat="44.9075183" lon="8.9598517"><ele>150.33333333333334</ele><time>2026-04-25T08:27:18.994Z</time></trkpt><trkpt lat="44.9075133" lon="8.9600833"><ele>150.66666666666669</ele><time>2026-04-25T08:27:19.996Z</time></trkpt><trkpt lat="44.9075067" lon="8.9603117"><ele>151.0</ele><time>2026-04-25T08:27:20.995Z</time></trkpt><trkpt lat="44.9075083" lon="8.96054"><ele>151.0</ele><time>2026-04-25T08:27:21.996Z</time></trkpt><trkpt lat="44.9075267" lon="8.9607683"><ele>151.0</ele><time>2026-04-25T08:27:23.002Z</time></trkpt><trkpt lat="44.90756" lon="8.9609933"><ele>151.0</ele><time>2026-04-25T08:27:23.999Z</time></trkpt><trkpt lat="44.90761" lon="8.9612083"><ele>150.33333333333334</ele><time>2026-04-25T08:27:24.996Z</time></trkpt><trkpt lat="44.9076667" lon="8.96143"><ele>149.66666666666666</ele><time>2026-04-25T08:27:26Z</time></trkpt><trkpt lat="44.907735" lon="8.96164"><ele>149.0</ele><time>2026-04-25T08:27:26.998Z</time></trkpt><trkpt lat="44.9077967" lon="8.9618267"><ele>149.0</ele><time>2026-04-25T08:27:27.998Z</time></trkpt><trkpt lat="44.9078483" lon="8.9619983"><ele>149.0</ele><time>2026-04-25T08:27:28.995Z</time></trkpt><trkpt lat="44.907905" lon="8.9621767"><ele>149.0</ele><time>2026-04-25T08:27:29.997Z</time></trkpt><trkpt lat="44.9079633" lon="8.9623617"><ele>149.0</ele><time>2026-04-25T08:27:31.001Z</time></trkpt><trkpt lat="44.9080283" lon="8.9625517"><ele>149.0</ele><time>2026-04-25T08:27:31.997Z</time></trkpt><trkpt lat="44.9081017" lon="8.9627533"><ele>149.0</ele><time>2026-04-25T08:27:32.995Z</time></trkpt><trkpt lat="44.9081783" lon="8.962955"><ele>149.0</ele><time>2026-04-25T08:27:33.995Z</time></trkpt><trkpt lat="44.9082483" lon="8.9631633"><ele>149.0</ele><time>2026-04-25T08:27:34.996Z</time></trkpt><trkpt lat="44.9083167" lon="8.9633783"><ele>149.0</ele><time>2026-04-25T08:27:35.994Z</time></trkpt><trkpt lat="44.9083817" lon="8.9635933"><ele>149.0</ele><time>2026-04-25T08:27:36.998Z</time></trkpt><trkpt lat="44.90845" lon="8.96381"><ele>149.0</ele><time>2026-04-25T08:27:37.995Z</time></trkpt><trkpt lat="44.9085183" lon="8.964025"><ele>149.0</ele><time>2026-04-25T08:27:38.994Z</time></trkpt><trkpt lat="44.9085883" lon="8.964245"><ele>149.0</ele><time>2026-04-25T08:27:39.995Z</time></trkpt><trkpt lat="44.9086583" lon="8.9644633"><ele>149.0</ele><time>2026-04-25T08:27:40.994Z</time></trkpt><trkpt lat="44.9087283" lon="8.9646867"><ele>149.0</ele><time>2026-04-25T08:27:42.001Z</time></trkpt><trkpt lat="44.9088033" lon="8.96491"><ele>149.0</ele><time>2026-04-25T08:27:42.996Z</time></trkpt><trkpt lat="44.9088767" lon="8.9651383"><ele>149.33333333333331</ele><time>2026-04-25T08:27:43.997Z</time></trkpt><trkpt lat="44.9089467" lon="8.9653683"><ele>149.66666666666666</ele><time>2026-04-25T08:27:45Z</time></trkpt><trkpt lat="44.9090183" lon="8.96559"><ele>150.0</ele><time>2026-04-25T08:27:46Z</time></trkpt><trkpt lat="44.909095" lon="8.9658083"><ele>150.0</ele><time>2026-04-25T08:27:46.996Z</time></trkpt><trkpt lat="44.9091667" lon="8.9660267"><ele>150.0</ele><time>2026-04-25T08:27:47.996Z</time></trkpt><trkpt lat="44.909235" lon="8.9662417"><ele>150.0</ele><time>2026-04-25T08:27:49.001Z</time></trkpt><trkpt lat="44.9093017" lon="8.9664533"><ele>150.66666666666666</ele><time>2026-04-25T08:27:49.999Z</time></trkpt><trkpt lat="44.909365" lon="8.966665"><ele>151.33333333333331</ele><time>2026-04-25T08:27:50.997Z</time></trkpt><trkpt lat="44.9094317" lon="8.966875"><ele>152.0</ele><time>2026-04-25T08:27:51.994Z</time></trkpt><trkpt lat="44.9095" lon="8.967085"><ele>152.0</ele><time>2026-04-25T08:27:52.993Z</time></trkpt><trkpt lat="44.909565" lon="8.9672983"><ele>152.0</ele><time>2026-04-25T08:27:53.996Z</time></trkpt><trkpt lat="44.909625" lon="8.9675267"><ele>152.0</ele><time>2026-04-25T08:27:54.997Z</time></trkpt><trkpt lat="44.9096817" lon="8.967775"><ele>152.0</ele><time>2026-04-25T08:27:56.004Z</time></trkpt><trkpt lat="44.9097367" lon="8.9680483"><ele>152.0</ele><time>2026-04-25T08:27:56.996Z</time></trkpt><trkpt lat="44.909805" lon="8.9683433"><ele>152.0</ele><time>2026-04-25T08:27:57.994Z</time></trkpt><trkpt lat="44.9098733" lon="8.96864"><ele>152.0</ele><time>2026-04-25T08:27:58.994Z</time></trkpt><trkpt lat="44.90994" lon="8.9689333"><ele>152.0</ele><time>2026-04-25T08:27:59.996Z</time></trkpt><trkpt lat="44.9100067" lon="8.9692167"><ele>152.0</ele><time>2026-04-25T08:28:01.002Z</time></trkpt><trkpt lat="44.910075" lon="8.9694933"><ele>151.33333333333331</ele><time>2026-04-25T08:28:01.997Z</time></trkpt><trkpt lat="44.9101417" lon="8.9697633"><ele>150.66666666666666</ele><time>2026-04-25T08:28:02.997Z</time></trkpt><trkpt lat="44.9102167" lon="8.97004"><ele>150.0</ele><time>2026-04-25T08:28:03.997Z</time></trkpt><trkpt lat="44.9102867" lon="8.970315"><ele>150.0</ele><time>2026-04-25T08:28:04.994Z</time></trkpt><trkpt lat="44.9103733" lon="8.97059"><ele>150.0</ele><time>2026-04-25T08:28:05.995Z</time></trkpt><trkpt lat="44.9104433" lon="8.97086"><ele>150.0</ele><time>2026-04-25T08:28:06.998Z</time></trkpt><trkpt lat="44.9105133" lon="8.971125"><ele>150.66666666666666</ele><time>2026-04-25T08:28:07.999Z</time></trkpt><trkpt lat="44.9105817" lon="8.9713867"><ele>151.33333333333331</ele><time>2026-04-25T08:28:09Z</time></trkpt><trkpt lat="44.91065" lon="8.9716467"><ele>152.0</ele><time>2026-04-25T08:28:09.999Z</time></trkpt><trkpt lat="44.9107217" lon="8.9719067"><ele>152.0</ele><time>2026-04-25T08:28:10.997Z</time></trkpt><trkpt lat="44.9107883" lon="8.972175"><ele>152.0</ele><time>2026-04-25T08:28:11.993Z</time></trkpt><trkpt lat="44.9108717" lon="8.972435"><ele>152.0</ele><time>2026-04-25T08:28:13Z</time></trkpt><trkpt lat="44.910965" lon="8.97269"><ele>152.0</ele><time>2026-04-25T08:28:13.996Z</time></trkpt><trkpt lat="44.9110667" lon="8.9729433"><ele>152.0</ele><time>2026-04-25T08:28:14.999Z</time></trkpt><trkpt lat="44.9111717" lon="8.9731917"><ele>152.0</ele><time>2026-04-25T08:28:15.998Z</time></trkpt><trkpt lat="44.9112767" lon="8.9734317"><ele>153.0</ele><time>2026-04-25T08:28:16.999Z</time></trkpt><trkpt lat="44.91138" lon="8.973655"><ele>154.0</ele><time>2026-04-25T08:28:18.001Z</time></trkpt><trkpt lat="44.9114783" lon="8.9738667"><ele>155.0</ele><time>2026-04-25T08:28:19.001Z</time></trkpt><trkpt lat="44.911575" lon="8.9740583"><ele>155.33333333333331</ele><time>2026-04-25T08:28:19.999Z</time></trkpt><trkpt lat="44.9116617" lon="8.9742433"><ele>155.66666666666666</ele><time>2026-04-25T08:28:21.004Z</time></trkpt><trkpt lat="44.911745" lon="8.9744183"><ele>156.0</ele><time>2026-04-25T08:28:21.999Z</time></trkpt><trkpt lat="44.91183" lon="8.97459"><ele>156.0</ele><time>2026-04-25T08:28:22.996Z</time></trkpt><trkpt lat="44.9119133" lon="8.97476"><ele>156.0</ele><time>2026-04-25T08:28:23.995Z</time></trkpt><trkpt lat="44.911995" lon="8.97493"><ele>156.0</ele><time>2026-04-25T08:28:24.994Z</time></trkpt><trkpt lat="44.912075" lon="8.9751017"><ele>156.0</ele><time>2026-04-25T08:28:25.996Z</time></trkpt><trkpt lat="44.91216" lon="8.9752683"><ele>156.25</ele><time>2026-04-25T08:28:26.994Z</time></trkpt><trkpt lat="44.912245" lon="8.9754333"><ele>156.5</ele><time>2026-04-25T08:28:27.997Z</time></trkpt><trkpt lat="44.9123283" lon="8.9756033"><ele>156.75</ele><time>2026-04-25T08:28:28.999Z</time></trkpt><trkpt lat="44.912425" lon="8.9757617"><ele>157.0</ele><time>2026-04-25T08:28:29.996Z</time></trkpt><trkpt lat="44.91251" lon="8.9759333"><ele>156.75</ele><time>2026-04-25T08:28:31.001Z</time></trkpt><trkpt lat="44.9126033" lon="8.9760983"><ele>156.5</ele><time>2026-04-25T08:28:32.001Z</time></trkpt><trkpt lat="44.91269" lon="8.9762633"><ele>156.25</ele><time>2026-04-25T08:28:33.002Z</time></trkpt><trkpt lat="44.9127817" lon="8.9764283"><ele>156.0</ele><time>2026-04-25T08:28:33.999Z</time></trkpt><trkpt lat="44.9128783" lon="8.9766017"><ele>156.33333333333334</ele><time>2026-04-25T08:28:35Z</time></trkpt><trkpt lat="44.9129783" lon="8.9767833"><ele>156.66666666666669</ele><time>2026-04-25T08:28:35.997Z</time></trkpt><trkpt lat="44.9130817" lon="8.976975"><ele>157.0</ele><time>2026-04-25T08:28:36.998Z</time></trkpt><trkpt lat="44.9131867" lon="8.9771717"><ele>157.0</ele><time>2026-04-25T08:28:38Z</time></trkpt><trkpt lat="44.9132917" lon="8.97737"><ele>157.0</ele><time>2026-04-25T08:28:39Z</time></trkpt><trkpt lat="44.9133967" lon="8.9775767"><ele>157.0</ele><time>2026-04-25T08:28:39.995Z</time></trkpt><trkpt lat="44.9135033" lon="8.9777833"><ele>156.33333333333334</ele><time>2026-04-25T08:28:40.996Z</time></trkpt><trkpt lat="44.9136083" lon="8.9779883"><ele>155.66666666666666</ele><time>2026-04-25T08:28:41.995Z</time></trkpt><trkpt lat="44.9137133" lon="8.97819"><ele>155.0</ele><time>2026-04-25T08:28:42.994Z</time></trkpt><trkpt lat="44.91382" lon="8.9783867"><ele>155.0</ele><time>2026-04-25T08:28:44.002Z</time></trkpt><trkpt lat="44.9139283" lon="8.9785867"><ele>155.0</ele><time>2026-04-25T08:28:44.997Z</time></trkpt><trkpt lat="44.91404" lon="8.9787833"><ele>155.0</ele><time>2026-04-25T08:28:46Z</time></trkpt><trkpt lat="44.91415" lon="8.9789817"><ele>154.33333333333331</ele><time>2026-04-25T08:28:46.995Z</time></trkpt><trkpt lat="44.9142633" lon="8.9791767"><ele>153.66666666666666</ele><time>2026-04-25T08:28:47.996Z</time></trkpt><trkpt lat="44.91437" lon="8.9793733"><ele>153.0</ele><time>2026-04-25T08:28:48.995Z</time></trkpt><trkpt lat="44.9144733" lon="8.9795683"><ele>153.0</ele><time>2026-04-25T08:28:49.993Z</time></trkpt><trkpt lat="44.9145767" lon="8.9797633"><ele>153.0</ele><time>2026-04-25T08:28:51Z</time></trkpt><trkpt lat="44.914675" lon="8.9799567"><ele>153.0</ele><time>2026-04-25T08:28:52Z</time></trkpt><trkpt lat="44.9147683" lon="8.9801417"><ele>153.25</ele><time>2026-04-25T08:28:52.994Z</time></trkpt><trkpt lat="44.9148567" lon="8.980315"><ele>153.5</ele><time>2026-04-25T08:28:54.002Z</time></trkpt><trkpt lat="44.914945" lon="8.9804817"><ele>153.75</ele><time>2026-04-25T08:28:54.995Z</time></trkpt><trkpt lat="44.915035" lon="8.9806467"><ele>154.0</ele><time>2026-04-25T08:28:55.996Z</time></trkpt><trkpt lat="44.915125" lon="8.98081"><ele>153.5</ele><time>2026-04-25T08:28:56.999Z</time></trkpt><trkpt lat="44.915215" lon="8.9809717"><ele>153.0</ele><time>2026-04-25T08:28:58.002Z</time></trkpt><trkpt lat="44.9153" lon="8.9811333"><ele>152.5</ele><time>2026-04-25T08:28:59.002Z</time></trkpt><trkpt lat="44.9153883" lon="8.9812967"><ele>152.0</ele><time>2026-04-25T08:29:00.003Z</time></trkpt><trkpt lat="44.915465" lon="8.9814683"><ele>152.0</ele><time>2026-04-25T08:29:00.998Z</time></trkpt><trkpt lat="44.9155517" lon="8.98163"><ele>152.0</ele><time>2026-04-25T08:29:02.001Z</time></trkpt><trkpt lat="44.915635" lon="8.9817867"><ele>152.0</ele><time>2026-04-25T08:29:02.996Z</time></trkpt><trkpt lat="44.9157167" lon="8.9819433"><ele>152.0</ele><time>2026-04-25T08:29:03.994Z</time></trkpt><trkpt lat="44.9158" lon="8.9821017"><ele>152.0</ele><time>2026-04-25T08:29:04.997Z</time></trkpt><trkpt lat="44.9158833" lon="8.9822633"><ele>152.0</ele><time>2026-04-25T08:29:06Z</time></trkpt><trkpt lat="44.91597" lon="8.9824283"><ele>152.0</ele><time>2026-04-25T08:29:06.997Z</time></trkpt><trkpt lat="44.91606" lon="8.982595"><ele>152.0</ele><time>2026-04-25T08:29:07.995Z</time></trkpt><trkpt lat="44.9161467" lon="8.9827617"><ele>152.33333333333331</ele><time>2026-04-25T08:29:08.993Z</time></trkpt><trkpt lat="44.9162367" lon="8.9829333"><ele>152.66666666666666</ele><time>2026-04-25T08:29:09.997Z</time></trkpt><trkpt lat="44.91633" lon="8.9830983"><ele>153.0</ele><time>2026-04-25T08:29:10.993Z</time></trkpt><trkpt lat="44.9164267" lon="8.9832717"><ele>153.66666666666666</ele><time>2026-04-25T08:29:11.996Z</time></trkpt><trkpt lat="44.91653" lon="8.9834567"><ele>154.33333333333331</ele><time>2026-04-25T08:29:12.993Z</time></trkpt><trkpt lat="44.9166367" lon="8.983655"><ele>155.0</ele><time>2026-04-25T08:29:13.995Z</time></trkpt><trkpt lat="44.9167483" lon="8.983855"><ele>155.33333333333331</ele><time>2026-04-25T08:29:14.997Z</time></trkpt><trkpt lat="44.9168533" lon="8.9840617"><ele>155.66666666666666</ele><time>2026-04-25T08:29:16Z</time></trkpt><trkpt lat="44.916955" lon="8.9842617"><ele>156.0</ele><time>2026-04-25T08:29:16.994Z</time></trkpt><trkpt lat="44.9170567" lon="8.9844583"><ele>157.33333333333334</ele><time>2026-04-25T08:29:18.002Z</time></trkpt><trkpt lat="44.9171517" lon="8.984655"><ele>158.66666666666669</ele><time>2026-04-25T08:29:19Z</time></trkpt><trkpt lat="44.9172517" lon="8.9848433"><ele>160.0</ele><time>2026-04-25T08:29:20.001Z</time></trkpt><trkpt lat="44.917345" lon="8.9850283"><ele>160.33333333333334</ele><time>2026-04-25T08:29:20.994Z</time></trkpt><trkpt lat="44.9174333" lon="8.9852133"><ele>160.66666666666666</ele><time>2026-04-25T08:29:21.993Z</time></trkpt><trkpt lat="44.9175333" lon="8.98539"><ele>161.0</ele><time>2026-04-25T08:29:22.992Z</time></trkpt><trkpt lat="44.9176333" lon="8.98556"><ele>161.0</ele><time>2026-04-25T08:29:23.998Z</time></trkpt><trkpt lat="44.9177367" lon="8.9857217"><ele>161.0</ele><time>2026-04-25T08:29:24.999Z</time></trkpt><trkpt lat="44.9178433" lon="8.9858733"><ele>161.0</ele><time>2026-04-25T08:29:26.003Z</time></trkpt><trkpt lat="44.9179483" lon="8.9860283"><ele>161.33333333333331</ele><time>2026-04-25T08:29:26.998Z</time></trkpt><trkpt lat="44.9180633" lon="8.986165"><ele>161.66666666666666</ele><time>2026-04-25T08:29:27.996Z</time></trkpt><trkpt lat="44.9181833" lon="8.9862967"><ele>162.0</ele><time>2026-04-25T08:29:28.998Z</time></trkpt><trkpt lat="44.9183083" lon="8.9864117"><ele>161.75</ele><time>2026-04-25T08:29:29.997Z</time></trkpt><trkpt lat="44.9184367" lon="8.986515"><ele>161.5</ele><time>2026-04-25T08:29:30.997Z</time></trkpt><trkpt lat="44.918575" lon="8.986595"><ele>161.25</ele><time>2026-04-25T08:29:31.994Z</time></trkpt><trkpt lat="44.918715" lon="8.986665"><ele>161.0</ele><time>2026-04-25T08:29:32.998Z</time></trkpt><trkpt lat="44.9188533" lon="8.9867267"><ele>161.0</ele><time>2026-04-25T08:29:33.998Z</time></trkpt><trkpt lat="44.9189967" lon="8.986775"><ele>161.0</ele><time>2026-04-25T08:29:34.999Z</time></trkpt><trkpt lat="44.919135" lon="8.986815"><ele>161.0</ele><time>2026-04-25T08:29:35.997Z</time></trkpt><trkpt lat="44.9192617" lon="8.9868533"><ele>161.0</ele><time>2026-04-25T08:29:37Z</time></trkpt><trkpt lat="44.919395" lon="8.9868717"><ele>160.75</ele><time>2026-04-25T08:29:37.996Z</time></trkpt><trkpt lat="44.919535" lon="8.9868883"><ele>160.5</ele><time>2026-04-25T08:29:38.995Z</time></trkpt><trkpt lat="44.9196717" lon="8.9869"><ele>160.25</ele><time>2026-04-25T08:29:39.996Z</time></trkpt><trkpt lat="44.91981" lon="8.9869133"><ele>160.0</ele><time>2026-04-25T08:29:40.999Z</time></trkpt><trkpt lat="44.91995" lon="8.9869233"><ele>159.25</ele><time>2026-04-25T08:29:41.997Z</time></trkpt><trkpt lat="44.9200933" lon="8.9869333"><ele>158.5</ele><time>2026-04-25T08:29:42.997Z</time></trkpt><trkpt lat="44.9202417" lon="8.986945"><ele>157.75</ele><time>2026-04-25T08:29:43.996Z</time></trkpt><trkpt lat="44.92039" lon="8.9869567"><ele>157.0</ele><time>2026-04-25T08:29:45.001Z</time></trkpt><trkpt lat="44.9205417" lon="8.98697"><ele>157.0</ele><time>2026-04-25T08:29:45.997Z</time></trkpt><trkpt lat="44.9206933" lon="8.98698"><ele>157.0</ele><time>2026-04-25T08:29:46.997Z</time></trkpt><trkpt lat="44.9208433" lon="8.9869933"><ele>157.0</ele><time>2026-04-25T08:29:47.997Z</time></trkpt><trkpt lat="44.9209917" lon="8.9870017"><ele>157.25</ele><time>2026-04-25T08:29:48.996Z</time></trkpt><trkpt lat="44.9211367" lon="8.9870183"><ele>157.5</ele><time>2026-04-25T08:29:50.001Z</time></trkpt><trkpt lat="44.9212817" lon="8.9870333"><ele>157.75</ele><time>2026-04-25T08:29:50.998Z</time></trkpt><trkpt lat="44.921425" lon="8.9870483"><ele>158.0</ele><time>2026-04-25T08:29:51.998Z</time></trkpt><trkpt lat="44.92157" lon="8.9870633"><ele>158.0</ele><time>2026-04-25T08:29:52.997Z</time></trkpt><trkpt lat="44.9217167" lon="8.98708"><ele>158.0</ele><time>2026-04-25T08:29:54.004Z</time></trkpt><trkpt lat="44.9218683" lon="8.9870967"><ele>158.0</ele><time>2026-04-25T08:29:54.996Z</time></trkpt><trkpt lat="44.9220217" lon="8.987115"><ele>157.33333333333331</ele><time>2026-04-25T08:29:55.997Z</time></trkpt><trkpt lat="44.9221817" lon="8.9871367"><ele>156.66666666666666</ele><time>2026-04-25T08:29:56.999Z</time></trkpt><trkpt lat="44.9223433" lon="8.9871583"><ele>156.0</ele><time>2026-04-25T08:29:57.998Z</time></trkpt><trkpt lat="44.9225083" lon="8.98718"><ele>155.66666666666666</ele><time>2026-04-25T08:29:58.997Z</time></trkpt><trkpt lat="44.9226767" lon="8.9872033"><ele>155.33333333333331</ele><time>2026-04-25T08:29:59.998Z</time></trkpt><trkpt lat="44.9228467" lon="8.9872283"><ele>155.0</ele><time>2026-04-25T08:30:00.995Z</time></trkpt><trkpt lat="44.9230133" lon="8.9872517"><ele>155.0</ele><time>2026-04-25T08:30:01.999Z</time></trkpt><trkpt lat="44.92318" lon="8.98728"><ele>155.0</ele><time>2026-04-25T08:30:03Z</time></trkpt><trkpt lat="44.923345" lon="8.9873183"><ele>155.0</ele><time>2026-04-25T08:30:03.996Z</time></trkpt><trkpt lat="44.9235067" lon="8.9873683"><ele>153.66666666666666</ele><time>2026-04-25T08:30:04.998Z</time></trkpt><trkpt lat="44.9236667" lon="8.987435"><ele>152.33333333333334</ele><time>2026-04-25T08:30:06.001Z</time></trkpt><trkpt lat="44.9238233" lon="8.9875217"><ele>151.0</ele><time>2026-04-25T08:30:06.997Z</time></trkpt><trkpt lat="44.92397" lon="8.9876283"><ele>150.66666666666669</ele><time>2026-04-25T08:30:07.998Z</time></trkpt><trkpt lat="44.9241167" lon="8.9877583"><ele>150.33333333333334</ele><time>2026-04-25T08:30:08.997Z</time></trkpt><trkpt lat="44.9242483" lon="8.9879017"><ele>150.0</ele><time>2026-04-25T08:30:09.999Z</time></trkpt><trkpt lat="44.92437" lon="8.98806"><ele>149.33333333333334</ele><time>2026-04-25T08:30:10.998Z</time></trkpt><trkpt lat="44.9244883" lon="8.9882233"><ele>148.66666666666669</ele><time>2026-04-25T08:30:11.998Z</time></trkpt><trkpt lat="44.9245983" lon="8.9883917"><ele>148.0</ele><time>2026-04-25T08:30:12.998Z</time></trkpt><trkpt lat="44.9247067" lon="8.98857"><ele>148.0</ele><time>2026-04-25T08:30:13.992Z</time></trkpt><trkpt lat="44.9248117" lon="8.9887517"><ele>148.0</ele><time>2026-04-25T08:30:14.997Z</time></trkpt><trkpt lat="44.92491" lon="8.9889433"><ele>148.0</ele><time>2026-04-25T08:30:15.994Z</time></trkpt><trkpt lat="44.9249983" lon="8.989145"><ele>147.33333333333334</ele><time>2026-04-25T08:30:16.995Z</time></trkpt><trkpt lat="44.9250667" lon="8.98936"><ele>146.66666666666666</ele><time>2026-04-25T08:30:17.993Z</time></trkpt><trkpt lat="44.9251167" lon="8.989585"><ele>146.0</ele><time>2026-04-25T08:30:18.998Z</time></trkpt><trkpt lat="44.9251533" lon="8.9898117"><ele>146.0</ele><time>2026-04-25T08:30:19.995Z</time></trkpt><trkpt lat="44.92517" lon="8.99004"><ele>146.0</ele><time>2026-04-25T08:30:20.998Z</time></trkpt><trkpt lat="44.9251717" lon="8.9902683"><ele>146.0</ele><time>2026-04-25T08:30:21.996Z</time></trkpt><trkpt lat="44.925165" lon="8.9904917"><ele>146.0</ele><time>2026-04-25T08:30:22.994Z</time></trkpt><trkpt lat="44.9251483" lon="8.9907217"><ele>146.0</ele><time>2026-04-25T08:30:23.997Z</time></trkpt><trkpt lat="44.9251333" lon="8.99095"><ele>146.0</ele><time>2026-04-25T08:30:24.994Z</time></trkpt><trkpt lat="44.9251133" lon="8.9911817"><ele>146.66666666666666</ele><time>2026-04-25T08:30:25.993Z</time></trkpt><trkpt lat="44.9250867" lon="8.9914117"><ele>147.33333333333334</ele><time>2026-04-25T08:30:26.996Z</time></trkpt><trkpt lat="44.9250617" lon="8.9916383"><ele>148.0</ele><time>2026-04-25T08:30:28Z</time></trkpt><trkpt lat="44.9250383" lon="8.9918683"><ele>149.33333333333334</ele><time>2026-04-25T08:30:28.994Z</time></trkpt><trkpt lat="44.925015" lon="8.99209"><ele>150.66666666666666</ele><time>2026-04-25T08:30:30.002Z</time></trkpt><trkpt lat="44.924995" lon="8.99231"><ele>152.0</ele><time>2026-04-25T08:30:30.999Z</time></trkpt><trkpt lat="44.9249783" lon="8.9925367"><ele>152.66666666666666</ele><time>2026-04-25T08:30:31.997Z</time></trkpt><trkpt lat="44.9249717" lon="8.99277"><ele>153.33333333333334</ele><time>2026-04-25T08:30:33.002Z</time></trkpt><trkpt lat="44.9249833" lon="8.9930017"><ele>154.0</ele><time>2026-04-25T08:30:33.993Z</time></trkpt><trkpt lat="44.9250067" lon="8.99323"><ele>154.33333333333334</ele><time>2026-04-25T08:30:34.994Z</time></trkpt><trkpt lat="44.9250417" lon="8.9934533"><ele>154.66666666666666</ele><time>2026-04-25T08:30:35.998Z</time></trkpt><trkpt lat="44.92508" lon="8.9936767"><ele>155.0</ele><time>2026-04-25T08:30:36.995Z</time></trkpt><trkpt lat="44.925115" lon="8.993905"><ele>154.0</ele><time>2026-04-25T08:30:37.998Z</time></trkpt><trkpt lat="44.92515" lon="8.9941333"><ele>153.0</ele><time>2026-04-25T08:30:39.003Z</time></trkpt><trkpt lat="44.9251883" lon="8.9943633"><ele>152.0</ele><time>2026-04-25T08:30:39.994Z</time></trkpt><trkpt lat="44.92522" lon="8.9945983"><ele>152.0</ele><time>2026-04-25T08:30:40.998Z</time></trkpt><trkpt lat="44.92526" lon="8.994825"><ele>152.0</ele><time>2026-04-25T08:30:41.994Z</time></trkpt><trkpt lat="44.925295" lon="8.9950567"><ele>152.0</ele><time>2026-04-25T08:30:42.996Z</time></trkpt><trkpt lat="44.9253283" lon="8.9952833"><ele>152.0</ele><time>2026-04-25T08:30:43.995Z</time></trkpt><trkpt lat="44.9253617" lon="8.9955"><ele>152.0</ele><time>2026-04-25T08:30:44.993Z</time></trkpt><trkpt lat="44.925395" lon="8.99571"><ele>152.0</ele><time>2026-04-25T08:30:45.992Z</time></trkpt><trkpt lat="44.9254283" lon="8.9959117"><ele>152.0</ele><time>2026-04-25T08:30:46.995Z</time></trkpt><trkpt lat="44.925455" lon="8.9961067"><ele>152.0</ele><time>2026-04-25T08:30:47.998Z</time></trkpt><trkpt lat="44.9254783" lon="8.9962983"><ele>152.0</ele><time>2026-04-25T08:30:48.996Z</time></trkpt><trkpt lat="44.9254967" lon="8.99649"><ele>152.0</ele><time>2026-04-25T08:30:49.993Z</time></trkpt><trkpt lat="44.925515" lon="8.99668"><ele>152.0</ele><time>2026-04-25T08:30:50.996Z</time></trkpt><trkpt lat="44.9255283" lon="8.9968633"><ele>152.0</ele><time>2026-04-25T08:30:51.995Z</time></trkpt><trkpt lat="44.9255383" lon="8.997045"><ele>152.0</ele><time>2026-04-25T08:30:52.995Z</time></trkpt><trkpt lat="44.9255483" lon="8.9972233"><ele>152.0</ele><time>2026-04-25T08:30:53.996Z</time></trkpt><trkpt lat="44.92556" lon="8.997395"><ele>151.79999999999998</ele><time>2026-04-25T08:30:54.995Z</time></trkpt><trkpt lat="44.92557" lon="8.9975567"><ele>151.6</ele><time>2026-04-25T08:30:55.999Z</time></trkpt><trkpt lat="44.9255767" lon="8.99771"><ele>151.39999999999998</ele><time>2026-04-25T08:30:56.998Z</time></trkpt><trkpt lat="44.9255817" lon="8.997855"><ele>151.2</ele><time>2026-04-25T08:30:57.996Z</time></trkpt><trkpt lat="44.9255783" lon="8.99798"><ele>151.0</ele><time>2026-04-25T08:30:58.996Z</time></trkpt><trkpt lat="44.9255583" lon="8.9981033"><ele>151.0</ele><time>2026-04-25T08:30:59.998Z</time></trkpt><trkpt lat="44.925545" lon="8.9982233"><ele>151.0</ele><time>2026-04-25T08:31:00.996Z</time></trkpt><trkpt lat="44.9255417" lon="8.9983533"><ele>151.0</ele><time>2026-04-25T08:31:01.999Z</time></trkpt><trkpt lat="44.925555" lon="8.9984783"><ele>151.0</ele><time>2026-04-25T08:31:02.998Z</time></trkpt><trkpt lat="44.9256133" lon="8.9985817"><ele>151.0</ele><time>2026-04-25T08:31:03.998Z</time></trkpt><trkpt lat="44.9256667" lon="8.9987117"><ele>151.25</ele><time>2026-04-25T08:31:04.996Z</time></trkpt><trkpt lat="44.9257183" lon="8.9988567"><ele>151.5</ele><time>2026-04-25T08:31:05.995Z</time></trkpt><trkpt lat="44.9257583" lon="8.9990317"><ele>151.75</ele><time>2026-04-25T08:31:06.996Z</time></trkpt><trkpt lat="44.9257933" lon="8.999215"><ele>152.0</ele><time>2026-04-25T08:31:07.994Z</time></trkpt><trkpt lat="44.925825" lon="8.9994083"><ele>153.0</ele><time>2026-04-25T08:31:08.996Z</time></trkpt><trkpt lat="44.92586" lon="8.999605"><ele>154.0</ele><time>2026-04-25T08:31:09.995Z</time></trkpt><trkpt lat="44.9258933" lon="8.9998067"><ele>155.0</ele><time>2026-04-25T08:31:10.996Z</time></trkpt><trkpt lat="44.9259233" lon="9.000015"><ele>156.0</ele><time>2026-04-25T08:31:11.998Z</time></trkpt><trkpt lat="44.9259533" lon="9.0002217"><ele>156.0</ele><time>2026-04-25T08:31:13.001Z</time></trkpt><trkpt lat="44.9259767" lon="9.0004433"><ele>156.0</ele><time>2026-04-25T08:31:13.995Z</time></trkpt><trkpt lat="44.9260017" lon="9.0006617"><ele>156.0</ele><time>2026-04-25T08:31:14.996Z</time></trkpt><trkpt lat="44.9260283" lon="9.0008783"><ele>156.0</ele><time>2026-04-25T08:31:15.996Z</time></trkpt><trkpt lat="44.92605" lon="9.0010933"><ele>156.0</ele><time>2026-04-25T08:31:16.991Z</time></trkpt><trkpt lat="44.9260683" lon="9.00131"><ele>156.0</ele><time>2026-04-25T08:31:17.994Z</time></trkpt><trkpt lat="44.926085" lon="9.0015267"><ele>155.75</ele><time>2026-04-25T08:31:18.997Z</time></trkpt><trkpt lat="44.9261017" lon="9.0017433"><ele>155.5</ele><time>2026-04-25T08:31:19.997Z</time></trkpt><trkpt lat="44.9261167" lon="9.0019533"><ele>155.25</ele><time>2026-04-25T08:31:21.001Z</time></trkpt><trkpt lat="44.9261317" lon="9.0021567"><ele>155.0</ele><time>2026-04-25T08:31:22.002Z</time></trkpt><trkpt lat="44.926145" lon="9.0023533"><ele>155.25</ele><time>2026-04-25T08:31:22.995Z</time></trkpt><trkpt lat="44.9261583" lon="9.00254"><ele>155.5</ele><time>2026-04-25T08:31:24.001Z</time></trkpt><trkpt lat="44.92617" lon="9.0027183"><ele>155.75</ele><time>2026-04-25T08:31:24.997Z</time></trkpt><trkpt lat="44.926185" lon="9.0029"><ele>156.0</ele><time>2026-04-25T08:31:25.996Z</time></trkpt><trkpt lat="44.9261983" lon="9.003085"><ele>156.0</ele><time>2026-04-25T08:31:26.996Z</time></trkpt><trkpt lat="44.926205" lon="9.00327"><ele>156.0</ele><time>2026-04-25T08:31:27.993Z</time></trkpt><trkpt lat="44.9262033" lon="9.0034633"><ele>156.0</ele><time>2026-04-25T08:31:28.993Z</time></trkpt><trkpt lat="44.926205" lon="9.00366"><ele>156.0</ele><time>2026-04-25T08:31:29.99Z</time></trkpt><trkpt lat="44.9262" lon="9.00386"><ele>156.0</ele><time>2026-04-25T08:31:30.996Z</time></trkpt><trkpt lat="44.9261967" lon="9.0040617"><ele>156.0</ele><time>2026-04-25T08:31:31.997Z</time></trkpt><trkpt lat="44.9261933" lon="9.0042683"><ele>156.0</ele><time>2026-04-25T08:31:32.997Z</time></trkpt><trkpt lat="44.9261917" lon="9.0044783"><ele>156.0</ele><time>2026-04-25T08:31:33.995Z</time></trkpt><trkpt lat="44.9261917" lon="9.0046933"><ele>156.33333333333334</ele><time>2026-04-25T08:31:34.995Z</time></trkpt><trkpt lat="44.9261917" lon="9.0049133"><ele>156.66666666666669</ele><time>2026-04-25T08:31:35.995Z</time></trkpt><trkpt lat="44.926185" lon="9.00514"><ele>157.0</ele><time>2026-04-25T08:31:36.995Z</time></trkpt><trkpt lat="44.9261767" lon="9.005365"><ele>157.66666666666669</ele><time>2026-04-25T08:31:37.997Z</time></trkpt><trkpt lat="44.9261683" lon="9.00559"><ele>158.33333333333334</ele><time>2026-04-25T08:31:38.995Z</time></trkpt><trkpt lat="44.92616" lon="9.00581"><ele>159.0</ele><time>2026-04-25T08:31:40Z</time></trkpt><trkpt lat="44.9261517" lon="9.0060267"><ele>159.0</ele><time>2026-04-25T08:31:41Z</time></trkpt><trkpt lat="44.9261433" lon="9.006235"><ele>159.0</ele><time>2026-04-25T08:31:41.997Z</time></trkpt><trkpt lat="44.9261333" lon="9.0064467"><ele>159.0</ele><time>2026-04-25T08:31:42.998Z</time></trkpt><trkpt lat="44.926125" lon="9.00666"><ele>159.0</ele><time>2026-04-25T08:31:43.995Z</time></trkpt><trkpt lat="44.926115" lon="9.00687"><ele>159.0</ele><time>2026-04-25T08:31:44.995Z</time></trkpt><trkpt lat="44.9261033" lon="9.007085"><ele>159.0</ele><time>2026-04-25T08:31:45.994Z</time></trkpt><trkpt lat="44.9260917" lon="9.0073017"><ele>159.0</ele><time>2026-04-25T08:31:46.995Z</time></trkpt><trkpt lat="44.9260767" lon="9.00752"><ele>159.0</ele><time>2026-04-25T08:31:47.997Z</time></trkpt><trkpt lat="44.926065" lon="9.0077367"><ele>159.0</ele><time>2026-04-25T08:31:48.999Z</time></trkpt><trkpt lat="44.92605" lon="9.0079517"><ele>159.0</ele><time>2026-04-25T08:31:49.995Z</time></trkpt><trkpt lat="44.9260383" lon="9.0081667"><ele>158.5</ele><time>2026-04-25T08:31:50.995Z</time></trkpt><trkpt lat="44.9260233" lon="9.0083783"><ele>158.0</ele><time>2026-04-25T08:31:52Z</time></trkpt><trkpt lat="44.9260117" lon="9.0085867"><ele>157.5</ele><time>2026-04-25T08:31:52.996Z</time></trkpt><trkpt lat="44.9259983" lon="9.00879"><ele>157.0</ele><time>2026-04-25T08:31:53.999Z</time></trkpt><trkpt lat="44.92599" lon="9.0089867"><ele>156.75</ele><time>2026-04-25T08:31:54.999Z</time></trkpt><trkpt lat="44.9259917" lon="9.0091817"><ele>156.5</ele><time>2026-04-25T08:31:56.002Z</time></trkpt><trkpt lat="44.926" lon="9.0093833"><ele>156.25</ele><time>2026-04-25T08:31:56.999Z</time></trkpt><trkpt lat="44.9260117" lon="9.00958"><ele>156.0</ele><time>2026-04-25T08:31:57.998Z</time></trkpt><trkpt lat="44.9260267" lon="9.0097817"><ele>156.0</ele><time>2026-04-25T08:31:58.998Z</time></trkpt><trkpt lat="44.9260417" lon="9.0099817"><ele>156.0</ele><time>2026-04-25T08:32:00.006Z</time></trkpt><trkpt lat="44.9260617" lon="9.0101833"><ele>156.0</ele><time>2026-04-25T08:32:00.997Z</time></trkpt><trkpt lat="44.926085" lon="9.0103833"><ele>156.0</ele><time>2026-04-25T08:32:02Z</time></trkpt><trkpt lat="44.9261083" lon="9.0105783"><ele>156.0</ele><time>2026-04-25T08:32:03Z</time></trkpt><trkpt lat="44.92613" lon="9.0107717"><ele>156.0</ele><time>2026-04-25T08:32:03.999Z</time></trkpt><trkpt lat="44.9261533" lon="9.0109633"><ele>156.0</ele><time>2026-04-25T08:32:04.997Z</time></trkpt><trkpt lat="44.92618" lon="9.0111533"><ele>156.0</ele><time>2026-04-25T08:32:05.997Z</time></trkpt><trkpt lat="44.92621" lon="9.0113317"><ele>156.0</ele><time>2026-04-25T08:32:06.996Z</time></trkpt><trkpt lat="44.926245" lon="9.0115"><ele>156.0</ele><time>2026-04-25T08:32:07.996Z</time></trkpt><trkpt lat="44.9262833" lon="9.011665"><ele>156.0</ele><time>2026-04-25T08:32:08.997Z</time></trkpt><trkpt lat="44.926325" lon="9.0118267"><ele>156.0</ele><time>2026-04-25T08:32:10.002Z</time></trkpt><trkpt lat="44.92638" lon="9.0119733"><ele>156.2</ele><time>2026-04-25T08:32:10.996Z</time></trkpt><trkpt lat="44.9264317" lon="9.0121083"><ele>156.39999999999998</ele><time>2026-04-25T08:32:11.993Z</time></trkpt><trkpt lat="44.9264867" lon="9.01224"><ele>156.6</ele><time>2026-04-25T08:32:12.994Z</time></trkpt><trkpt lat="44.92654" lon="9.0123733"><ele>156.79999999999998</ele><time>2026-04-25T08:32:13.992Z</time></trkpt><trkpt lat="44.9265867" lon="9.012505"><ele>157.0</ele><time>2026-04-25T08:32:14.992Z</time></trkpt><trkpt lat="44.9266367" lon="9.012635"><ele>157.0</ele><time>2026-04-25T08:32:15.993Z</time></trkpt><trkpt lat="44.9266833" lon="9.012755"><ele>157.0</ele><time>2026-04-25T08:32:16.995Z</time></trkpt><trkpt lat="44.9267283" lon="9.012865"><ele>157.0</ele><time>2026-04-25T08:32:17.994Z</time></trkpt><trkpt lat="44.9267767" lon="9.0129583"><ele>157.0</ele><time>2026-04-25T08:32:18.994Z</time></trkpt><trkpt lat="44.926815" lon="9.0130583"><ele>157.0</ele><time>2026-04-25T08:32:19.993Z</time></trkpt><trkpt lat="44.9268517" lon="9.0131517"><ele>157.0</ele><time>2026-04-25T08:32:20.996Z</time></trkpt><trkpt lat="44.92688" lon="9.0132383"><ele>156.83333333333334</ele><time>2026-04-25T08:32:21.996Z</time></trkpt><trkpt lat="44.9269133" lon="9.0133183"><ele>156.66666666666669</ele><time>2026-04-25T08:32:22.993Z</time></trkpt><trkpt lat="44.926935" lon="9.0134033"><ele>156.5</ele><time>2026-04-25T08:32:24.001Z</time></trkpt><trkpt lat="44.9269683" lon="9.01348"><ele>156.33333333333334</ele><time>2026-04-25T08:32:24.998Z</time></trkpt><trkpt lat="44.9270283" lon="9.0136083"><ele>156.16666666666666</ele><time>2026-04-25T08:32:26.996Z</time></trkpt><trkpt lat="44.9270733" lon="9.0137233"><ele>156.0</ele><time>2026-04-25T08:32:28.993Z</time></trkpt><trkpt lat="44.9271417" lon="9.01381"><ele>156.0</ele><time>2026-04-25T08:32:31Z</time></trkpt><trkpt lat="44.9271883" lon="9.0139333"><ele>156.0</ele><time>2026-04-25T08:32:32.992Z</time></trkpt><trkpt lat="44.9272583" lon="9.0140783"><ele>156.0</ele><time>2026-04-25T08:32:34.994Z</time></trkpt><trkpt lat="44.92729" lon="9.0141683"><ele>156.0</ele><time>2026-04-25T08:32:35.998Z</time></trkpt><trkpt lat="44.9273283" lon="9.014255"><ele>156.0</ele><time>2026-04-25T08:32:36.994Z</time></trkpt><trkpt lat="44.9273533" lon="9.0143733"><ele>155.85714285714286</ele><time>2026-04-25T08:32:37.995Z</time></trkpt><trkpt lat="44.9274017" lon="9.0144633"><ele>155.7142857142857</ele><time>2026-04-25T08:32:39.004Z</time></trkpt><trkpt lat="44.927455" lon="9.0145467"><ele>155.57142857142856</ele><time>2026-04-25T08:32:39.999Z</time></trkpt><trkpt lat="44.927515" lon="9.0146133"><ele>155.42857142857144</ele><time>2026-04-25T08:32:40.993Z</time></trkpt><trkpt lat="44.9275733" lon="9.0146683"><ele>155.28571428571428</ele><time>2026-04-25T08:32:41.998Z</time></trkpt><trkpt lat="44.92763" lon="9.0147167"><ele>155.14285714285714</ele><time>2026-04-25T08:32:42.992Z</time></trkpt><trkpt lat="44.92769" lon="9.014755"><ele>155.0</ele><time>2026-04-25T08:32:43.994Z</time></trkpt><trkpt lat="44.9277583" lon="9.0148017"><ele>155.0</ele><time>2026-04-25T08:32:44.993Z</time></trkpt><trkpt lat="44.92783" lon="9.0148417"><ele>155.0</ele><time>2026-04-25T08:32:45.994Z</time></trkpt><trkpt lat="44.9278817" lon="9.01491"><ele>155.0</ele><time>2026-04-25T08:32:46.994Z</time></trkpt><trkpt lat="44.927945" lon="9.0149517"><ele>155.0</ele><time>2026-04-25T08:32:47.997Z</time></trkpt><trkpt lat="44.9280417" lon="9.0150283"><ele>155.0</ele><time>2026-04-25T08:32:50.001Z</time></trkpt><trkpt lat="44.9281383" lon="9.0150783"><ele>155.0</ele><time>2026-04-25T08:32:51.998Z</time></trkpt><trkpt lat="44.9282517" lon="9.0151267"><ele>155.0</ele><time>2026-04-25T08:32:53.997Z</time></trkpt><trkpt lat="44.9283617" lon="9.0151867"><ele>155.0</ele><time>2026-04-25T08:32:56.002Z</time></trkpt><trkpt lat="44.9284533" lon="9.015285"><ele>155.0</ele><time>2026-04-25T08:32:57.995Z</time></trkpt><trkpt lat="44.92852" lon="9.0154017"><ele>155.0</ele><time>2026-04-25T08:32:59.997Z</time></trkpt><trkpt lat="44.92858" lon="9.0155183"><ele>155.0</ele><time>2026-04-25T08:33:01.992Z</time></trkpt><trkpt lat="44.9286483" lon="9.015665"><ele>155.0</ele><time>2026-04-25T08:33:04Z</time></trkpt><trkpt lat="44.9287033" lon="9.01581"><ele>155.0</ele><time>2026-04-25T08:33:05.993Z</time></trkpt><trkpt lat="44.9287433" lon="9.0159467"><ele>155.0</ele><time>2026-04-25T08:33:08.002Z</time></trkpt><trkpt lat="44.92879" lon="9.0160883"><ele>155.0</ele><time>2026-04-25T08:33:09.997Z</time></trkpt><trkpt lat="44.9288383" lon="9.01623"><ele>155.0</ele><time>2026-04-25T08:33:11.995Z</time></trkpt><trkpt lat="44.9288983" lon="9.0163833"><ele>155.0</ele><time>2026-04-25T08:33:13.999Z</time></trkpt><trkpt lat="44.9289283" lon="9.0164617"><ele>155.0</ele><time>2026-04-25T08:33:14.998Z</time></trkpt><trkpt lat="44.9289583" lon="9.01654"><ele>155.0</ele><time>2026-04-25T08:33:15.999Z</time></trkpt><trkpt lat="44.929" lon="9.0166133"><ele>155.0</ele><time>2026-04-25T08:33:16.998Z</time></trkpt><trkpt lat="44.92907" lon="9.0167467"><ele>155.0</ele><time>2026-04-25T08:33:18.997Z</time></trkpt><trkpt lat="44.9291767" lon="9.0168083"><ele>155.0</ele><time>2026-04-25T08:33:21.001Z</time></trkpt><trkpt lat="44.9292767" lon="9.0168383"><ele>155.0</ele><time>2026-04-25T08:33:22.997Z</time></trkpt><trkpt lat="44.9293517" lon="9.0168567"><ele>155.0</ele><time>2026-04-25T08:33:24.998Z</time></trkpt><trkpt lat="44.9294317" lon="9.0168617"><ele>155.0</ele><time>2026-04-25T08:33:28Z</time></trkpt><trkpt lat="44.9295233" lon="9.0168467"><ele>155.0</ele><time>2026-04-25T08:33:32Z</time></trkpt><trkpt lat="44.929595" lon="9.016855"><ele>155.0</ele><time>2026-04-25T08:33:34.996Z</time></trkpt><trkpt lat="44.9296783" lon="9.016885"><ele>155.0</ele><time>2026-04-25T08:33:49Z</time></trkpt><trkpt lat="44.9297633" lon="9.0170667"><ele>155.0</ele><time>2026-04-25T08:34:07.995Z</time></trkpt><trkpt lat="44.9297783" lon="9.0171583"><ele>155.0</ele><time>2026-04-25T08:34:08.995Z</time></trkpt><trkpt lat="44.9297917" lon="9.0172483"><ele>155.0</ele><time>2026-04-25T08:34:09.994Z</time></trkpt><trkpt lat="44.9298017" lon="9.01735"><ele>155.0</ele><time>2026-04-25T08:34:10.993Z</time></trkpt><trkpt lat="44.92981" lon="9.0174567"><ele>155.0</ele><time>2026-04-25T08:34:11.992Z</time></trkpt><trkpt lat="44.92982" lon="9.0175567"><ele>155.0</ele><time>2026-04-25T08:34:12.993Z</time></trkpt><trkpt lat="44.9298283" lon="9.0176533"><ele>155.0</ele><time>2026-04-25T08:34:13.994Z</time></trkpt><trkpt lat="44.9298383" lon="9.0177467"><ele>154.83333333333331</ele><time>2026-04-25T08:34:15.001Z</time></trkpt><trkpt lat="44.9298417" lon="9.0178367"><ele>154.66666666666666</ele><time>2026-04-25T08:34:15.995Z</time></trkpt><trkpt lat="44.9298533" lon="9.0180033"><ele>154.5</ele><time>2026-04-25T08:34:17.997Z</time></trkpt><trkpt lat="44.929865" lon="9.0181017"><ele>154.33333333333334</ele><time>2026-04-25T08:34:19.997Z</time></trkpt><trkpt lat="44.929875" lon="9.0182067"><ele>154.16666666666669</ele><time>2026-04-25T08:34:23.998Z</time></trkpt><trkpt lat="44.9298967" lon="9.01832"><ele>154.0</ele><time>2026-04-25T08:34:27Z</time></trkpt><trkpt lat="44.9299033" lon="9.0184367"><ele>153.5</ele><time>2026-04-25T08:34:28.999Z</time></trkpt><trkpt lat="44.929915" lon="9.0185667"><ele>153.0</ele><time>2026-04-25T08:34:30.999Z</time></trkpt><trkpt lat="44.9299267" lon="9.0187317"><ele>152.5</ele><time>2026-04-25T08:34:32.994Z</time></trkpt><trkpt lat="44.929935" lon="9.0188217"><ele>152.0</ele><time>2026-04-25T08:34:33.993Z</time></trkpt><trkpt lat="44.9299417" lon="9.0189183"><ele>151.5</ele><time>2026-04-25T08:34:34.991Z</time></trkpt><trkpt lat="44.9299467" lon="9.01901"><ele>151.0</ele><time>2026-04-25T08:34:35.992Z</time></trkpt><trkpt lat="44.929965" lon="9.0191733"><ele>150.33333333333334</ele><time>2026-04-25T08:34:37.996Z</time></trkpt><trkpt lat="44.9299817" lon="9.019315"><ele>149.66666666666669</ele><time>2026-04-25T08:34:39.998Z</time></trkpt><trkpt lat="44.9299917" lon="9.0194467"><ele>149.0</ele><time>2026-04-25T08:34:41.995Z</time></trkpt><trkpt lat="44.9300017" lon="9.0195633"><ele>148.33333333333334</ele><time>2026-04-25T08:34:43.995Z</time></trkpt><trkpt lat="44.9300033" lon="9.01966"><ele>147.66666666666666</ele><time>2026-04-25T08:34:45.995Z</time></trkpt><trkpt lat="44.9299933" lon="9.01977"><ele>147.0</ele><time>2026-04-25T08:34:48.996Z</time></trkpt><trkpt lat="44.9299617" lon="9.0198883"><ele>147.0</ele><time>2026-04-25T08:34:51.997Z</time></trkpt><trkpt lat="44.92992" lon="9.01996"><ele>147.0</ele><time>2026-04-25T08:34:52.995Z</time></trkpt><trkpt lat="44.9298867" lon="9.02004"><ele>147.0</ele><time>2026-04-25T08:34:54Z</time></trkpt><trkpt lat="44.9298167" lon="9.02018"><ele>147.0</ele><time>2026-04-25T08:34:55.992Z</time></trkpt><trkpt lat="44.9297667" lon="9.0202417"><ele>147.0</ele><time>2026-04-25T08:34:57.003Z</time></trkpt><trkpt lat="44.9297083" lon="9.0203033"><ele>147.0</ele><time>2026-04-25T08:34:57.995Z</time></trkpt><trkpt lat="44.9296433" lon="9.02037"><ele>147.83333333333334</ele><time>2026-04-25T08:34:58.997Z</time></trkpt><trkpt lat="44.9295833" lon="9.0204517"><ele>148.66666666666666</ele><time>2026-04-25T08:34:59.995Z</time></trkpt><trkpt lat="44.9295217" lon="9.0205317"><ele>149.5</ele><time>2026-04-25T08:35:00.996Z</time></trkpt><trkpt lat="44.9294583" lon="9.0206117"><ele>150.33333333333331</ele><time>2026-04-25T08:35:01.994Z</time></trkpt><trkpt lat="44.9293883" lon="9.0206983"><ele>151.16666666666666</ele><time>2026-04-25T08:35:02.993Z</time></trkpt><trkpt lat="44.929315" lon="9.02079"><ele>152.0</ele><time>2026-04-25T08:35:03.998Z</time></trkpt><trkpt lat="44.9292317" lon="9.02088"><ele>152.4</ele><time>2026-04-25T08:35:04.998Z</time></trkpt><trkpt lat="44.92915" lon="9.02097"><ele>152.79999999999998</ele><time>2026-04-25T08:35:05.995Z</time></trkpt><trkpt lat="44.9290733" lon="9.021065"><ele>153.2</ele><time>2026-04-25T08:35:06.993Z</time></trkpt><trkpt lat="44.929005" lon="9.0211633"><ele>153.6</ele><time>2026-04-25T08:35:07.998Z</time></trkpt><trkpt lat="44.928935" lon="9.0212583"><ele>154.0</ele><time>2026-04-25T08:35:08.994Z</time></trkpt><trkpt lat="44.9288617" lon="9.0213533"><ele>154.0</ele><time>2026-04-25T08:35:09.992Z</time></trkpt><trkpt lat="44.92879" lon="9.0214517"><ele>154.0</ele><time>2026-04-25T08:35:10.998Z</time></trkpt><trkpt lat="44.92871" lon="9.0215467"><ele>154.0</ele><time>2026-04-25T08:35:12Z</time></trkpt><trkpt lat="44.9286283" lon="9.02165"><ele>154.0</ele><time>2026-04-25T08:35:12.994Z</time></trkpt><trkpt lat="44.9285433" lon="9.0217583"><ele>154.0</ele><time>2026-04-25T08:35:13.996Z</time></trkpt><trkpt lat="44.9284583" lon="9.0218633"><ele>154.25</ele><time>2026-04-25T08:35:14.993Z</time></trkpt><trkpt lat="44.9283733" lon="9.0219733"><ele>154.5</ele><time>2026-04-25T08:35:15.995Z</time></trkpt><trkpt lat="44.92829" lon="9.022085"><ele>154.75</ele><time>2026-04-25T08:35:16.997Z</time></trkpt><trkpt lat="44.9282083" lon="9.0221967"><ele>155.0</ele><time>2026-04-25T08:35:17.992Z</time></trkpt><trkpt lat="44.92812" lon="9.0223"><ele>155.0</ele><time>2026-04-25T08:35:18.999Z</time></trkpt><trkpt lat="44.9280383" lon="9.0224017"><ele>155.0</ele><time>2026-04-25T08:35:19.995Z</time></trkpt><trkpt lat="44.9279567" lon="9.0225083"><ele>155.0</ele><time>2026-04-25T08:35:20.999Z</time></trkpt><trkpt lat="44.9278783" lon="9.022615"><ele>155.0</ele><time>2026-04-25T08:35:21.994Z</time></trkpt><trkpt lat="44.9278017" lon="9.0227233"><ele>155.0</ele><time>2026-04-25T08:35:22.999Z</time></trkpt><trkpt lat="44.9277217" lon="9.0228267"><ele>155.0</ele><time>2026-04-25T08:35:23.995Z</time></trkpt><trkpt lat="44.9276467" lon="9.0229333"><ele>155.0</ele><time>2026-04-25T08:35:24.998Z</time></trkpt><trkpt lat="44.9275683" lon="9.0230333"><ele>155.0</ele><time>2026-04-25T08:35:25.996Z</time></trkpt><trkpt lat="44.9274883" lon="9.023135"><ele>155.0</ele><time>2026-04-25T08:35:26.996Z</time></trkpt><trkpt lat="44.9274083" lon="9.02324"><ele>155.0</ele><time>2026-04-25T08:35:28.004Z</time></trkpt><trkpt lat="44.92732" lon="9.0233483"><ele>155.25</ele><time>2026-04-25T08:35:28.995Z</time></trkpt><trkpt lat="44.92723" lon="9.0234617"><ele>155.5</ele><time>2026-04-25T08:35:29.995Z</time></trkpt><trkpt lat="44.9271383" lon="9.0235783"><ele>155.75</ele><time>2026-04-25T08:35:30.996Z</time></trkpt><trkpt lat="44.9270467" lon="9.0236933"><ele>156.0</ele><time>2026-04-25T08:35:31.996Z</time></trkpt><trkpt lat="44.9269533" lon="9.02381"><ele>156.0</ele><time>2026-04-25T08:35:32.996Z</time></trkpt><trkpt lat="44.92686" lon="9.02392"><ele>156.0</ele><time>2026-04-25T08:35:33.995Z</time></trkpt><trkpt lat="44.9267583" lon="9.0240217"><ele>156.0</ele><time>2026-04-25T08:35:34.995Z</time></trkpt><trkpt lat="44.9266567" lon="9.024125"><ele>156.0</ele><time>2026-04-25T08:35:35.996Z</time></trkpt><trkpt lat="44.926565" lon="9.0242367"><ele>156.25</ele><time>2026-04-25T08:35:36.999Z</time></trkpt><trkpt lat="44.92647" lon="9.02435"><ele>156.5</ele><time>2026-04-25T08:35:37.993Z</time></trkpt><trkpt lat="44.9263733" lon="9.0244633"><ele>156.75</ele><time>2026-04-25T08:35:38.993Z</time></trkpt><trkpt lat="44.9262783" lon="9.0245817"><ele>157.0</ele><time>2026-04-25T08:35:39.991Z</time></trkpt><trkpt lat="44.9261833" lon="9.0246983"><ele>157.0</ele><time>2026-04-25T08:35:40.995Z</time></trkpt><trkpt lat="44.9260933" lon="9.02483"><ele>157.0</ele><time>2026-04-25T08:35:41.996Z</time></trkpt><trkpt lat="44.92599" lon="9.0249533"><ele>157.0</ele><time>2026-04-25T08:35:42.997Z</time></trkpt><trkpt lat="44.9258817" lon="9.02508"><ele>157.0</ele><time>2026-04-25T08:35:43.993Z</time></trkpt><trkpt lat="44.92578" lon="9.0252067"><ele>157.0</ele><time>2026-04-25T08:35:45.001Z</time></trkpt><trkpt lat="44.9256717" lon="9.0253383"><ele>157.0</ele><time>2026-04-25T08:35:46Z</time></trkpt><trkpt lat="44.925565" lon="9.0254633"><ele>157.0</ele><time>2026-04-25T08:35:46.998Z</time></trkpt><trkpt lat="44.92546" lon="9.025595"><ele>157.0</ele><time>2026-04-25T08:35:47.995Z</time></trkpt><trkpt lat="44.92536" lon="9.0257267"><ele>157.0</ele><time>2026-04-25T08:35:49.001Z</time></trkpt><trkpt lat="44.9252567" lon="9.0258567"><ele>157.0</ele><time>2026-04-25T08:35:49.997Z</time></trkpt><trkpt lat="44.9251533" lon="9.0259867"><ele>157.0</ele><time>2026-04-25T08:35:50.999Z</time></trkpt><trkpt lat="44.9250467" lon="9.0261133"><ele>157.0</ele><time>2026-04-25T08:35:51.996Z</time></trkpt><trkpt lat="44.92494" lon="9.026245"><ele>157.0</ele><time>2026-04-25T08:35:52.992Z</time></trkpt><trkpt lat="44.924835" lon="9.02638"><ele>157.0</ele><time>2026-04-25T08:35:53.997Z</time></trkpt><trkpt lat="44.92473" lon="9.0265133"><ele>157.0</ele><time>2026-04-25T08:35:54.993Z</time></trkpt><trkpt lat="44.9246267" lon="9.026645"><ele>157.0</ele><time>2026-04-25T08:35:55.996Z</time></trkpt><trkpt lat="44.92452" lon="9.026775"><ele>157.25</ele><time>2026-04-25T08:35:56.994Z</time></trkpt><trkpt lat="44.9244183" lon="9.0269083"><ele>157.5</ele><time>2026-04-25T08:35:57.994Z</time></trkpt><trkpt lat="44.9243117" lon="9.0270383"><ele>157.75</ele><time>2026-04-25T08:35:58.995Z</time></trkpt><trkpt lat="44.9242" lon="9.027175"><ele>158.0</ele><time>2026-04-25T08:35:59.995Z</time></trkpt><trkpt lat="44.9240933" lon="9.0273167"><ele>158.0</ele><time>2026-04-25T08:36:00.996Z</time></trkpt><trkpt lat="44.9239817" lon="9.0274467"><ele>158.0</ele><time>2026-04-25T08:36:01.998Z</time></trkpt><trkpt lat="44.9238667" lon="9.02758"><ele>158.0</ele><time>2026-04-25T08:36:02.997Z</time></trkpt><trkpt lat="44.92375" lon="9.0277217"><ele>158.0</ele><time>2026-04-25T08:36:03.999Z</time></trkpt><trkpt lat="44.9236333" lon="9.0278617"><ele>158.33333333333331</ele><time>2026-04-25T08:36:04.999Z</time></trkpt><trkpt lat="44.923515" lon="9.02801"><ele>158.66666666666666</ele><time>2026-04-25T08:36:05.999Z</time></trkpt><trkpt lat="44.9233967" lon="9.028155"><ele>159.0</ele><time>2026-04-25T08:36:06.998Z</time></trkpt><trkpt lat="44.92328" lon="9.0283"><ele>160.0</ele><time>2026-04-25T08:36:08.002Z</time></trkpt><trkpt lat="44.923165" lon="9.0284467"><ele>161.0</ele><time>2026-04-25T08:36:09.001Z</time></trkpt><trkpt lat="44.9230483" lon="9.028595"><ele>162.0</ele><time>2026-04-25T08:36:09.994Z</time></trkpt><trkpt lat="44.9229317" lon="9.0287417"><ele>162.0</ele><time>2026-04-25T08:36:10.996Z</time></trkpt><trkpt lat="44.922815" lon="9.0288883"><ele>162.0</ele><time>2026-04-25T08:36:12Z</time></trkpt><trkpt lat="44.9227033" lon="9.0290283"><ele>162.0</ele><time>2026-04-25T08:36:12.997Z</time></trkpt><trkpt lat="44.9225933" lon="9.02916"><ele>162.25</ele><time>2026-04-25T08:36:13.995Z</time></trkpt><trkpt lat="44.9224867" lon="9.029295"><ele>162.5</ele><time>2026-04-25T08:36:14.996Z</time></trkpt><trkpt lat="44.92238" lon="9.0294333"><ele>162.75</ele><time>2026-04-25T08:36:15.992Z</time></trkpt><trkpt lat="44.9222733" lon="9.02957"><ele>163.0</ele><time>2026-04-25T08:36:16.995Z</time></trkpt><trkpt lat="44.92217" lon="9.0297017"><ele>163.0</ele><time>2026-04-25T08:36:17.993Z</time></trkpt><trkpt lat="44.922055" lon="9.0298317"><ele>163.0</ele><time>2026-04-25T08:36:18.994Z</time></trkpt><trkpt lat="44.9219417" lon="9.029965"><ele>163.0</ele><time>2026-04-25T08:36:19.995Z</time></trkpt><trkpt lat="44.9218317" lon="9.0300917"><ele>163.0</ele><time>2026-04-25T08:36:20.996Z</time></trkpt><trkpt lat="44.9217283" lon="9.0302083"><ele>163.0</ele><time>2026-04-25T08:36:21.998Z</time></trkpt><trkpt lat="44.92163" lon="9.03032"><ele>163.0</ele><time>2026-04-25T08:36:22.998Z</time></trkpt><trkpt lat="44.92153" lon="9.0304283"><ele>163.0</ele><time>2026-04-25T08:36:23.996Z</time></trkpt><trkpt lat="44.9214317" lon="9.0305317"><ele>163.0</ele><time>2026-04-25T08:36:24.999Z</time></trkpt><trkpt lat="44.9213383" lon="9.030635"><ele>163.0</ele><time>2026-04-25T08:36:25.996Z</time></trkpt><trkpt lat="44.9212467" lon="9.0307333"><ele>163.0</ele><time>2026-04-25T08:36:27.001Z</time></trkpt><trkpt lat="44.921155" lon="9.03083"><ele>163.0</ele><time>2026-04-25T08:36:27.995Z</time></trkpt><trkpt lat="44.9210683" lon="9.0309217"><ele>163.0</ele><time>2026-04-25T08:36:28.994Z</time></trkpt><trkpt lat="44.92099" lon="9.031"><ele>163.0</ele><time>2026-04-25T08:36:29.997Z</time></trkpt><trkpt lat="44.92092" lon="9.0310567"><ele>163.66666666666669</ele><time>2026-04-25T08:36:30.996Z</time></trkpt><trkpt lat="44.9208583" lon="9.0310933"><ele>164.33333333333334</ele><time>2026-04-25T08:36:31.996Z</time></trkpt><trkpt lat="44.9207333" lon="9.0311283"><ele>165.0</ele><time>2026-04-25T08:36:33.995Z</time></trkpt><trkpt lat="44.9206567" lon="9.03114"><ele>165.66666666666666</ele><time>2026-04-25T08:36:34.993Z</time></trkpt><trkpt lat="44.92058" lon="9.0311583"><ele>166.33333333333331</ele><time>2026-04-25T08:36:35.993Z</time></trkpt><trkpt lat="44.9205117" lon="9.031195"><ele>167.0</ele><time>2026-04-25T08:36:36.994Z</time></trkpt><trkpt lat="44.920445" lon="9.0313333"><ele>167.0</ele><time>2026-04-25T08:36:38.997Z</time></trkpt><trkpt lat="44.920435" lon="9.0314483"><ele>167.0</ele><time>2026-04-25T08:36:39.999Z</time></trkpt><trkpt lat="44.9204133" lon="9.0315733"><ele>167.0</ele><time>2026-04-25T08:36:40.996Z</time></trkpt><trkpt lat="44.9203767" lon="9.0316933"><ele>167.0</ele><time>2026-04-25T08:36:41.997Z</time></trkpt><trkpt lat="44.9203117" lon="9.0318433"><ele>167.0</ele><time>2026-04-25T08:36:42.996Z</time></trkpt><trkpt lat="44.9202217" lon="9.031985"><ele>167.25</ele><time>2026-04-25T08:36:43.993Z</time></trkpt><trkpt lat="44.9201433" lon="9.0321433"><ele>167.5</ele><time>2026-04-25T08:36:44.996Z</time></trkpt><trkpt lat="44.92007" lon="9.0323033"><ele>167.75</ele><time>2026-04-25T08:36:45.997Z</time></trkpt><trkpt lat="44.9199967" lon="9.0324683"><ele>168.0</ele><time>2026-04-25T08:36:46.995Z</time></trkpt><trkpt lat="44.9199183" lon="9.0326483"><ele>168.66666666666666</ele><time>2026-04-25T08:36:47.995Z</time></trkpt><trkpt lat="44.919835" lon="9.03284"><ele>169.33333333333331</ele><time>2026-04-25T08:36:48.999Z</time></trkpt><trkpt lat="44.9197483" lon="9.0330333"><ele>170.0</ele><time>2026-04-25T08:36:49.993Z</time></trkpt><trkpt lat="44.91966" lon="9.0332217"><ele>171.0</ele><time>2026-04-25T08:36:50.999Z</time></trkpt><trkpt lat="44.919575" lon="9.03341"><ele>172.0</ele><time>2026-04-25T08:36:52Z</time></trkpt><trkpt lat="44.9194933" lon="9.03359"><ele>173.0</ele><time>2026-04-25T08:36:52.993Z</time></trkpt><trkpt lat="44.9194133" lon="9.0337667"><ele>173.0</ele><time>2026-04-25T08:36:53.996Z</time></trkpt><trkpt lat="44.9193367" lon="9.0339417"><ele>173.0</ele><time>2026-04-25T08:36:54.991Z</time></trkpt><trkpt lat="44.9192567" lon="9.03412"><ele>173.0</ele><time>2026-04-25T08:36:55.995Z</time></trkpt><trkpt lat="44.91918" lon="9.0343017"><ele>173.0</ele><time>2026-04-25T08:36:56.994Z</time></trkpt><trkpt lat="44.9191" lon="9.0344833"><ele>173.0</ele><time>2026-04-25T08:36:57.998Z</time></trkpt><trkpt lat="44.91902" lon="9.0346767"><ele>173.0</ele><time>2026-04-25T08:36:58.993Z</time></trkpt><trkpt lat="44.9189383" lon="9.03487"><ele>173.0</ele><time>2026-04-25T08:36:59.995Z</time></trkpt><trkpt lat="44.918855" lon="9.0350667"><ele>175.0</ele><time>2026-04-25T08:37:00.994Z</time></trkpt><trkpt lat="44.9187667" lon="9.0352617"><ele>177.0</ele><time>2026-04-25T08:37:01.995Z</time></trkpt><trkpt lat="44.9186783" lon="9.0354533"><ele>179.0</ele><time>2026-04-25T08:37:02.994Z</time></trkpt><trkpt lat="44.918595" lon="9.0356483"><ele>179.0</ele><time>2026-04-25T08:37:03.996Z</time></trkpt><trkpt lat="44.9185083" lon="9.0358433"><ele>179.0</ele><time>2026-04-25T08:37:04.996Z</time></trkpt><trkpt lat="44.9184217" lon="9.0360367"><ele>179.0</ele><time>2026-04-25T08:37:05.993Z</time></trkpt><trkpt lat="44.9183367" lon="9.03623"><ele>179.0</ele><time>2026-04-25T08:37:06.998Z</time></trkpt><trkpt lat="44.9182517" lon="9.0364133"><ele>179.0</ele><time>2026-04-25T08:37:07.997Z</time></trkpt><trkpt lat="44.9181717" lon="9.0365883"><ele>179.0</ele><time>2026-04-25T08:37:08.993Z</time></trkpt><trkpt lat="44.9180933" lon="9.0367683"><ele>180.0</ele><time>2026-04-25T08:37:09.996Z</time></trkpt><trkpt lat="44.91801" lon="9.0369417"><ele>181.0</ele><time>2026-04-25T08:37:10.992Z</time></trkpt><trkpt lat="44.9179317" lon="9.0371133"><ele>182.0</ele><time>2026-04-25T08:37:11.995Z</time></trkpt><trkpt lat="44.917855" lon="9.03728"><ele>183.0</ele><time>2026-04-25T08:37:12.994Z</time></trkpt><trkpt lat="44.9177767" lon="9.0374483"><ele>183.0</ele><time>2026-04-25T08:37:13.999Z</time></trkpt><trkpt lat="44.9176967" lon="9.0376183"><ele>183.0</ele><time>2026-04-25T08:37:14.995Z</time></trkpt><trkpt lat="44.9176133" lon="9.037785"><ele>183.0</ele><time>2026-04-25T08:37:15.997Z</time></trkpt><trkpt lat="44.9175233" lon="9.03795"><ele>183.0</ele><time>2026-04-25T08:37:16.992Z</time></trkpt><trkpt lat="44.9174283" lon="9.0381067"><ele>183.0</ele><time>2026-04-25T08:37:17.997Z</time></trkpt><trkpt lat="44.9173217" lon="9.0382483"><ele>183.0</ele><time>2026-04-25T08:37:19.001Z</time></trkpt><trkpt lat="44.91719" lon="9.0383683"><ele>183.0</ele><time>2026-04-25T08:37:19.999Z</time></trkpt><trkpt lat="44.91706" lon="9.0384867"><ele>183.5</ele><time>2026-04-25T08:37:20.998Z</time></trkpt><trkpt lat="44.9169367" lon="9.038605"><ele>184.0</ele><time>2026-04-25T08:37:21.997Z</time></trkpt><trkpt lat="44.9168217" lon="9.03872"><ele>184.5</ele><time>2026-04-25T08:37:22.993Z</time></trkpt><trkpt lat="44.9167167" lon="9.0388317"><ele>185.0</ele><time>2026-04-25T08:37:23.997Z</time></trkpt><trkpt lat="44.9166083" lon="9.03893"><ele>184.75</ele><time>2026-04-25T08:37:24.992Z</time></trkpt><trkpt lat="44.9165083" lon="9.0390317"><ele>184.5</ele><time>2026-04-25T08:37:25.994Z</time></trkpt><trkpt lat="44.916405" lon="9.0391283"><ele>184.25</ele><time>2026-04-25T08:37:26.994Z</time></trkpt><trkpt lat="44.9163033" lon="9.0392233"><ele>184.0</ele><time>2026-04-25T08:37:27.995Z</time></trkpt><trkpt lat="44.9162" lon="9.0393167"><ele>184.0</ele><time>2026-04-25T08:37:28.994Z</time></trkpt><trkpt lat="44.916095" lon="9.039415"><ele>184.0</ele><time>2026-04-25T08:37:29.995Z</time></trkpt><trkpt lat="44.9159883" lon="9.03952"><ele>184.0</ele><time>2026-04-25T08:37:30.996Z</time></trkpt><trkpt lat="44.9158767" lon="9.03963"><ele>184.0</ele><time>2026-04-25T08:37:31.993Z</time></trkpt><trkpt lat="44.9157683" lon="9.0397383"><ele>183.5</ele><time>2026-04-25T08:37:33.005Z</time></trkpt><trkpt lat="44.9156517" lon="9.0398517"><ele>183.0</ele><time>2026-04-25T08:37:33.992Z</time></trkpt><trkpt lat="44.9155367" lon="9.0399717"><ele>182.5</ele><time>2026-04-25T08:37:34.992Z</time></trkpt><trkpt lat="44.9154167" lon="9.04009"><ele>182.0</ele><time>2026-04-25T08:37:35.996Z</time></trkpt><trkpt lat="44.9152917" lon="9.04021"><ele>182.0</ele><time>2026-04-25T08:37:36.995Z</time></trkpt><trkpt lat="44.915165" lon="9.0403267"><ele>182.0</ele><time>2026-04-25T08:37:37.995Z</time></trkpt><trkpt lat="44.9150383" lon="9.0404467"><ele>182.0</ele><time>2026-04-25T08:37:38.995Z</time></trkpt><trkpt lat="44.91491" lon="9.0405533"><ele>182.0</ele><time>2026-04-25T08:37:39.998Z</time></trkpt><trkpt lat="44.9147833" lon="9.04067"><ele>182.0</ele><time>2026-04-25T08:37:41.002Z</time></trkpt><trkpt lat="44.91466" lon="9.04079"><ele>182.0</ele><time>2026-04-25T08:37:42.002Z</time></trkpt><trkpt lat="44.914535" lon="9.0409083"><ele>182.0</ele><time>2026-04-25T08:37:42.994Z</time></trkpt><trkpt lat="44.91441" lon="9.0410283"><ele>182.0</ele><time>2026-04-25T08:37:43.992Z</time></trkpt><trkpt lat="44.914285" lon="9.0411433"><ele>182.0</ele><time>2026-04-25T08:37:44.999Z</time></trkpt><trkpt lat="44.9141567" lon="9.0412567"><ele>183.0</ele><time>2026-04-25T08:37:45.994Z</time></trkpt><trkpt lat="44.9140317" lon="9.0413833"><ele>184.0</ele><time>2026-04-25T08:37:46.993Z</time></trkpt><trkpt lat="44.9139017" lon="9.04152"><ele>185.0</ele><time>2026-04-25T08:37:47.992Z</time></trkpt><trkpt lat="44.9137583" lon="9.0416633"><ele>185.66666666666666</ele><time>2026-04-25T08:37:48.995Z</time></trkpt><trkpt lat="44.91361" lon="9.0418067"><ele>186.33333333333334</ele><time>2026-04-25T08:37:49.997Z</time></trkpt><trkpt lat="44.9134617" lon="9.0419517"><ele>187.0</ele><time>2026-04-25T08:37:50.995Z</time></trkpt><trkpt lat="44.91332" lon="9.0421033"><ele>186.66666666666669</ele><time>2026-04-25T08:37:51.994Z</time></trkpt><trkpt lat="44.9131833" lon="9.0422533"><ele>186.33333333333334</ele><time>2026-04-25T08:37:52.996Z</time></trkpt><trkpt lat="44.9130467" lon="9.042395"><ele>186.0</ele><time>2026-04-25T08:37:53.998Z</time></trkpt><trkpt lat="44.912915" lon="9.04253"><ele>186.0</ele><time>2026-04-25T08:37:55Z</time></trkpt><trkpt lat="44.9127883" lon="9.0426617"><ele>186.0</ele><time>2026-04-25T08:37:55.996Z</time></trkpt><trkpt lat="44.91266" lon="9.0427783"><ele>186.0</ele><time>2026-04-25T08:37:57.001Z</time></trkpt><trkpt lat="44.9125417" lon="9.0428967"><ele>186.0</ele><time>2026-04-25T08:37:57.999Z</time></trkpt><trkpt lat="44.9124267" lon="9.04301"><ele>186.0</ele><time>2026-04-25T08:37:58.996Z</time></trkpt><trkpt lat="44.9123133" lon="9.043125"><ele>186.0</ele><time>2026-04-25T08:37:59.998Z</time></trkpt><trkpt lat="44.9121983" lon="9.04324"><ele>186.0</ele><time>2026-04-25T08:38:01.001Z</time></trkpt><trkpt lat="44.9120883" lon="9.0433583"><ele>186.5</ele><time>2026-04-25T08:38:02Z</time></trkpt><trkpt lat="44.911975" lon="9.0434767"><ele>187.0</ele><time>2026-04-25T08:38:02.999Z</time></trkpt><trkpt lat="44.911865" lon="9.04359"><ele>187.5</ele><time>2026-04-25T08:38:03.997Z</time></trkpt><trkpt lat="44.9117567" lon="9.043705"><ele>188.0</ele><time>2026-04-25T08:38:04.996Z</time></trkpt><trkpt lat="44.9116483" lon="9.0438183"><ele>188.0</ele><time>2026-04-25T08:38:05.994Z</time></trkpt><trkpt lat="44.911535" lon="9.0439333"><ele>188.0</ele><time>2026-04-25T08:38:06.993Z</time></trkpt><trkpt lat="44.9114183" lon="9.0440467"><ele>188.0</ele><time>2026-04-25T08:38:07.996Z</time></trkpt><trkpt lat="44.9113017" lon="9.0441583"><ele>188.0</ele><time>2026-04-25T08:38:08.997Z</time></trkpt><trkpt lat="44.9111783" lon="9.0442633"><ele>189.0</ele><time>2026-04-25T08:38:09.992Z</time></trkpt><trkpt lat="44.9110567" lon="9.0443717"><ele>190.0</ele><time>2026-04-25T08:38:10.996Z</time></trkpt><trkpt lat="44.9109383" lon="9.0444883"><ele>191.0</ele><time>2026-04-25T08:38:11.996Z</time></trkpt><trkpt lat="44.9108217" lon="9.044605"><ele>192.0</ele><time>2026-04-25T08:38:13.003Z</time></trkpt><trkpt lat="44.9107067" lon="9.04472"><ele>192.0</ele><time>2026-04-25T08:38:13.994Z</time></trkpt><trkpt lat="44.9105933" lon="9.0448333"><ele>192.0</ele><time>2026-04-25T08:38:14.995Z</time></trkpt><trkpt lat="44.9104767" lon="9.044945"><ele>192.0</ele><time>2026-04-25T08:38:15.997Z</time></trkpt><trkpt lat="44.9103533" lon="9.045055"><ele>192.0</ele><time>2026-04-25T08:38:16.997Z</time></trkpt><trkpt lat="44.910235" lon="9.045175"><ele>193.0</ele><time>2026-04-25T08:38:17.997Z</time></trkpt><trkpt lat="44.9101133" lon="9.045295"><ele>194.0</ele><time>2026-04-25T08:38:18.998Z</time></trkpt><trkpt lat="44.9099883" lon="9.04542"><ele>195.0</ele><time>2026-04-25T08:38:20.001Z</time></trkpt><trkpt lat="44.9098667" lon="9.0455433"><ele>193.33333333333334</ele><time>2026-04-25T08:38:20.993Z</time></trkpt><trkpt lat="44.90974" lon="9.0456633"><ele>191.66666666666669</ele><time>2026-04-25T08:38:21.996Z</time></trkpt><trkpt lat="44.909615" lon="9.045785"><ele>190.0</ele><time>2026-04-25T08:38:22.999Z</time></trkpt><trkpt lat="44.9094883" lon="9.0459017"><ele>190.0</ele><time>2026-04-25T08:38:24.002Z</time></trkpt><trkpt lat="44.9093617" lon="9.0460167"><ele>190.0</ele><time>2026-04-25T08:38:25.001Z</time></trkpt><trkpt lat="44.9092433" lon="9.0461283"><ele>190.0</ele><time>2026-04-25T08:38:25.998Z</time></trkpt><trkpt lat="44.90913" lon="9.046245"><ele>190.0</ele><time>2026-04-25T08:38:27.001Z</time></trkpt><trkpt lat="44.9090183" lon="9.0463567"><ele>190.0</ele><time>2026-04-25T08:38:27.992Z</time></trkpt><trkpt lat="44.9089083" lon="9.0464667"><ele>190.0</ele><time>2026-04-25T08:38:28.999Z</time></trkpt><trkpt lat="44.9087967" lon="9.04657"><ele>190.0</ele><time>2026-04-25T08:38:29.993Z</time></trkpt><trkpt lat="44.908685" lon="9.046675"><ele>190.0</ele><time>2026-04-25T08:38:30.999Z</time></trkpt><trkpt lat="44.90858" lon="9.0467833"><ele>190.0</ele><time>2026-04-25T08:38:31.993Z</time></trkpt><trkpt lat="44.9084767" lon="9.046895"><ele>190.0</ele><time>2026-04-25T08:38:33.002Z</time></trkpt><trkpt lat="44.9083733" lon="9.04701"><ele>190.0</ele><time>2026-04-25T08:38:33.998Z</time></trkpt><trkpt lat="44.9082633" lon="9.0471217"><ele>190.0</ele><time>2026-04-25T08:38:34.993Z</time></trkpt><trkpt lat="44.90815" lon="9.04723"><ele>190.0</ele><time>2026-04-25T08:38:35.993Z</time></trkpt><trkpt lat="44.90804" lon="9.0473433"><ele>190.0</ele><time>2026-04-25T08:38:36.995Z</time></trkpt><trkpt lat="44.90793" lon="9.047455"><ele>190.0</ele><time>2026-04-25T08:38:37.994Z</time></trkpt><trkpt lat="44.9078183" lon="9.0475683"><ele>190.0</ele><time>2026-04-25T08:38:38.994Z</time></trkpt><trkpt lat="44.9077033" lon="9.047685"><ele>189.75</ele><time>2026-04-25T08:38:39.993Z</time></trkpt><trkpt lat="44.9075883" lon="9.0478017"><ele>189.5</ele><time>2026-04-25T08:38:40.995Z</time></trkpt><trkpt lat="44.9074783" lon="9.0479217"><ele>189.25</ele><time>2026-04-25T08:38:41.996Z</time></trkpt><trkpt lat="44.9073717" lon="9.0480383"><ele>189.0</ele><time>2026-04-25T08:38:42.998Z</time></trkpt><trkpt lat="44.9072667" lon="9.048145"><ele>189.0</ele><time>2026-04-25T08:38:43.995Z</time></trkpt><trkpt lat="44.9071583" lon="9.048245"><ele>189.0</ele><time>2026-04-25T08:38:44.995Z</time></trkpt><trkpt lat="44.90705" lon="9.0483467"><ele>189.0</ele><time>2026-04-25T08:38:45.994Z</time></trkpt><trkpt lat="44.906945" lon="9.0484517"><ele>189.0</ele><time>2026-04-25T08:38:46.994Z</time></trkpt><trkpt lat="44.9068367" lon="9.0485517"><ele>188.25</ele><time>2026-04-25T08:38:47.994Z</time></trkpt><trkpt lat="44.90673" lon="9.0486533"><ele>187.5</ele><time>2026-04-25T08:38:48.998Z</time></trkpt><trkpt lat="44.9066267" lon="9.0487533"><ele>186.75</ele><time>2026-04-25T08:38:49.995Z</time></trkpt><trkpt lat="44.9065267" lon="9.04886"><ele>186.0</ele><time>2026-04-25T08:38:50.998Z</time></trkpt><trkpt lat="44.906425" lon="9.0489533"><ele>186.0</ele><time>2026-04-25T08:38:52.005Z</time></trkpt><trkpt lat="44.9063233" lon="9.0490417"><ele>186.0</ele><time>2026-04-25T08:38:53Z</time></trkpt><trkpt lat="44.9062267" lon="9.04913"><ele>186.0</ele><time>2026-04-25T08:38:53.997Z</time></trkpt><trkpt lat="44.9061317" lon="9.04922"><ele>186.0</ele><time>2026-04-25T08:38:54.996Z</time></trkpt><trkpt lat="44.9060333" lon="9.04931"><ele>186.0</ele><time>2026-04-25T08:38:55.997Z</time></trkpt><trkpt lat="44.9059333" lon="9.0493967"><ele>186.0</ele><time>2026-04-25T08:38:56.995Z</time></trkpt><trkpt lat="44.9058283" lon="9.0494833"><ele>186.0</ele><time>2026-04-25T08:38:57.995Z</time></trkpt><trkpt lat="44.905725" lon="9.049565"><ele>186.0</ele><time>2026-04-25T08:38:58.996Z</time></trkpt><trkpt lat="44.9056183" lon="9.0496433"><ele>186.0</ele><time>2026-04-25T08:38:59.994Z</time></trkpt><trkpt lat="44.9055" lon="9.0496983"><ele>186.0</ele><time>2026-04-25T08:39:00.995Z</time></trkpt><trkpt lat="44.9053833" lon="9.0497617"><ele>186.0</ele><time>2026-04-25T08:39:01.994Z</time></trkpt><trkpt lat="44.9052717" lon="9.0498233"><ele>186.0</ele><time>2026-04-25T08:39:02.996Z</time></trkpt><trkpt lat="44.9051617" lon="9.0498833"><ele>185.5</ele><time>2026-04-25T08:39:03.999Z</time></trkpt><trkpt lat="44.9050567" lon="9.0499417"><ele>185.0</ele><time>2026-04-25T08:39:04.995Z</time></trkpt><trkpt lat="44.90495" lon="9.0499967"><ele>184.5</ele><time>2026-04-25T08:39:05.994Z</time></trkpt><trkpt lat="44.9048433" lon="9.0500667"><ele>184.0</ele><time>2026-04-25T08:39:07Z</time></trkpt><trkpt lat="44.9047333" lon="9.0501267"><ele>184.6</ele><time>2026-04-25T08:39:07.995Z</time></trkpt><trkpt lat="44.90463" lon="9.0501817"><ele>185.2</ele><time>2026-04-25T08:39:08.997Z</time></trkpt><trkpt lat="44.90453" lon="9.0502483"><ele>185.79999999999998</ele><time>2026-04-25T08:39:09.998Z</time></trkpt><trkpt lat="44.9044283" lon="9.0503083"><ele>186.39999999999998</ele><time>2026-04-25T08:39:10.994Z</time></trkpt><trkpt lat="44.90433" lon="9.050365"><ele>187.0</ele><time>2026-04-25T08:39:11.996Z</time></trkpt><trkpt lat="44.9042333" lon="9.05042"><ele>187.0</ele><time>2026-04-25T08:39:12.993Z</time></trkpt><trkpt lat="44.9041383" lon="9.0504767"><ele>187.0</ele><time>2026-04-25T08:39:13.997Z</time></trkpt><trkpt lat="44.9040433" lon="9.0505317"><ele>187.0</ele><time>2026-04-25T08:39:14.992Z</time></trkpt><trkpt lat="44.90395" lon="9.05059"><ele>187.0</ele><time>2026-04-25T08:39:15.993Z</time></trkpt><trkpt lat="44.903855" lon="9.0506517"><ele>187.0</ele><time>2026-04-25T08:39:16.998Z</time></trkpt><trkpt lat="44.9037583" lon="9.0507133"><ele>187.0</ele><time>2026-04-25T08:39:17.996Z</time></trkpt><trkpt lat="44.9036617" lon="9.0507733"><ele>187.0</ele><time>2026-04-25T08:39:18.997Z</time></trkpt><trkpt lat="44.9035667" lon="9.05083"><ele>187.0</ele><time>2026-04-25T08:39:19.995Z</time></trkpt><trkpt lat="44.9034683" lon="9.05089"><ele>187.0</ele><time>2026-04-25T08:39:20.994Z</time></trkpt><trkpt lat="44.9033683" lon="9.0509467"><ele>187.0</ele><time>2026-04-25T08:39:21.991Z</time></trkpt><trkpt lat="44.9032633" lon="9.0510083"><ele>187.5</ele><time>2026-04-25T08:39:22.994Z</time></trkpt><trkpt lat="44.9031567" lon="9.0510817"><ele>188.0</ele><time>2026-04-25T08:39:23.995Z</time></trkpt><trkpt lat="44.9030417" lon="9.0511483"><ele>188.5</ele><time>2026-04-25T08:39:25Z</time></trkpt><trkpt lat="44.9029217" lon="9.0512117"><ele>189.0</ele><time>2026-04-25T08:39:25.996Z</time></trkpt><trkpt lat="44.9028" lon="9.0512833"><ele>189.0</ele><time>2026-04-25T08:39:26.996Z</time></trkpt><trkpt lat="44.9026817" lon="9.0513567"><ele>189.0</ele><time>2026-04-25T08:39:27.994Z</time></trkpt><trkpt lat="44.9025617" lon="9.0514267"><ele>189.0</ele><time>2026-04-25T08:39:28.995Z</time></trkpt><trkpt lat="44.9024383" lon="9.0514983"><ele>189.0</ele><time>2026-04-25T08:39:29.995Z</time></trkpt><trkpt lat="44.9023117" lon="9.0515717"><ele>189.5</ele><time>2026-04-25T08:39:30.996Z</time></trkpt><trkpt lat="44.9021883" lon="9.0516467"><ele>190.0</ele><time>2026-04-25T08:39:31.993Z</time></trkpt><trkpt lat="44.902065" lon="9.0517183"><ele>190.5</ele><time>2026-04-25T08:39:32.998Z</time></trkpt><trkpt lat="44.9019383" lon="9.0517933"><ele>191.0</ele><time>2026-04-25T08:39:33.993Z</time></trkpt><trkpt lat="44.90181" lon="9.0518667"><ele>190.25</ele><time>2026-04-25T08:39:34.999Z</time></trkpt><trkpt lat="44.901685" lon="9.05194"><ele>189.5</ele><time>2026-04-25T08:39:35.999Z</time></trkpt><trkpt lat="44.9015617" lon="9.05201"><ele>188.75</ele><time>2026-04-25T08:39:36.998Z</time></trkpt><trkpt lat="44.9014417" lon="9.0520817"><ele>188.0</ele><time>2026-04-25T08:39:37.997Z</time></trkpt><trkpt lat="44.9013233" lon="9.0521533"><ele>188.0</ele><time>2026-04-25T08:39:38.996Z</time></trkpt><trkpt lat="44.9012033" lon="9.05223"><ele>188.0</ele><time>2026-04-25T08:39:39.997Z</time></trkpt><trkpt lat="44.90109" lon="9.0522983"><ele>188.0</ele><time>2026-04-25T08:39:40.993Z</time></trkpt><trkpt lat="44.900985" lon="9.0523633"><ele>188.0</ele><time>2026-04-25T08:39:41.992Z</time></trkpt><trkpt lat="44.9008833" lon="9.0524267"><ele>187.8</ele><time>2026-04-25T08:39:42.995Z</time></trkpt><trkpt lat="44.900785" lon="9.0524867"><ele>187.60000000000002</ele><time>2026-04-25T08:39:43.997Z</time></trkpt><trkpt lat="44.90069" lon="9.05254"><ele>187.39999999999998</ele><time>2026-04-25T08:39:44.997Z</time></trkpt><trkpt lat="44.9006033" lon="9.05259"><ele>187.2</ele><time>2026-04-25T08:39:45.998Z</time></trkpt><trkpt lat="44.900515" lon="9.05264"><ele>187.0</ele><time>2026-04-25T08:39:46.991Z</time></trkpt><trkpt lat="44.90043" lon="9.0526917"><ele>187.0</ele><time>2026-04-25T08:39:47.996Z</time></trkpt><trkpt lat="44.900345" lon="9.05274"><ele>187.0</ele><time>2026-04-25T08:39:48.993Z</time></trkpt><trkpt lat="44.9002617" lon="9.05279"><ele>187.0</ele><time>2026-04-25T08:39:49.998Z</time></trkpt><trkpt lat="44.9001783" lon="9.0528433"><ele>187.0</ele><time>2026-04-25T08:39:50.999Z</time></trkpt><trkpt lat="44.9001017" lon="9.05289"><ele>187.0</ele><time>2026-04-25T08:39:51.997Z</time></trkpt><trkpt lat="44.9000267" lon="9.0529317"><ele>187.0</ele><time>2026-04-25T08:39:52.995Z</time></trkpt><trkpt lat="44.8999567" lon="9.0529583"><ele>187.0</ele><time>2026-04-25T08:39:53.999Z</time></trkpt><trkpt lat="44.8998867" lon="9.052975"><ele>187.0</ele><time>2026-04-25T08:39:54.994Z</time></trkpt><trkpt lat="44.8997683" lon="9.0529967"><ele>187.0</ele><time>2026-04-25T08:39:56.999Z</time></trkpt><trkpt lat="44.8996683" lon="9.05301"><ele>187.0</ele><time>2026-04-25T08:39:58.998Z</time></trkpt><trkpt lat="44.8995883" lon="9.0530083"><ele>187.0</ele><time>2026-04-25T08:40:00.999Z</time></trkpt><trkpt lat="44.8995167" lon="9.052995"><ele>187.0</ele><time>2026-04-25T08:40:02.996Z</time></trkpt><trkpt lat="44.8994533" lon="9.0529633"><ele>187.0</ele><time>2026-04-25T08:40:04.995Z</time></trkpt><trkpt lat="44.8993933" lon="9.0530033"><ele>187.0</ele><time>2026-04-25T08:40:05.998Z</time></trkpt><trkpt lat="44.8993367" lon="9.053115"><ele>187.0</ele><time>2026-04-25T08:40:07.998Z</time></trkpt><trkpt lat="44.8992917" lon="9.0532117"><ele>187.0</ele><time>2026-04-25T08:40:08.992Z</time></trkpt><trkpt lat="44.8992383" lon="9.053305"><ele>187.0</ele><time>2026-04-25T08:40:10Z</time></trkpt><trkpt lat="44.89918" lon="9.05339"><ele>187.0</ele><time>2026-04-25T08:40:11.003Z</time></trkpt><trkpt lat="44.8991083" lon="9.0534683"><ele>187.39999999999998</ele><time>2026-04-25T08:40:11.993Z</time></trkpt><trkpt lat="44.8990333" lon="9.0535383"><ele>187.79999999999998</ele><time>2026-04-25T08:40:12.994Z</time></trkpt><trkpt lat="44.89895" lon="9.053605"><ele>188.2</ele><time>2026-04-25T08:40:14Z</time></trkpt><trkpt lat="44.8988617" lon="9.0536633"><ele>188.6</ele><time>2026-04-25T08:40:15.003Z</time></trkpt><trkpt lat="44.8987733" lon="9.053715"><ele>189.0</ele><time>2026-04-25T08:40:15.995Z</time></trkpt><trkpt lat="44.898685" lon="9.0537733"><ele>189.0</ele><time>2026-04-25T08:40:16.991Z</time></trkpt><trkpt lat="44.8986" lon="9.05383"><ele>189.0</ele><time>2026-04-25T08:40:17.993Z</time></trkpt><trkpt lat="44.898515" lon="9.0538867"><ele>189.0</ele><time>2026-04-25T08:40:18.995Z</time></trkpt><trkpt lat="44.8984333" lon="9.05394"><ele>189.0</ele><time>2026-04-25T08:40:20.001Z</time></trkpt><trkpt lat="44.8983483" lon="9.0539883"><ele>189.0</ele><time>2026-04-25T08:40:21.001Z</time></trkpt><trkpt lat="44.8982617" lon="9.054035"><ele>188.79999999999998</ele><time>2026-04-25T08:40:21.999Z</time></trkpt><trkpt lat="44.8981717" lon="9.0540817"><ele>188.6</ele><time>2026-04-25T08:40:22.997Z</time></trkpt><trkpt lat="44.8980833" lon="9.054125"><ele>188.4</ele><time>2026-04-25T08:40:23.995Z</time></trkpt><trkpt lat="44.8979983" lon="9.0541667"><ele>188.2</ele><time>2026-04-25T08:40:24.993Z</time></trkpt><trkpt lat="44.8979133" lon="9.05421"><ele>188.0</ele><time>2026-04-25T08:40:25.998Z</time></trkpt><trkpt lat="44.8978367" lon="9.0542533"><ele>188.28571428571428</ele><time>2026-04-25T08:40:26.997Z</time></trkpt><trkpt lat="44.8977583" lon="9.0542983"><ele>188.57142857142856</ele><time>2026-04-25T08:40:27.994Z</time></trkpt><trkpt lat="44.8976867" lon="9.05434"><ele>188.85714285714286</ele><time>2026-04-25T08:40:28.994Z</time></trkpt><trkpt lat="44.8976217" lon="9.05438"><ele>189.14285714285714</ele><time>2026-04-25T08:40:29.993Z</time></trkpt><trkpt lat="44.8975533" lon="9.05442"><ele>189.42857142857144</ele><time>2026-04-25T08:40:30.995Z</time></trkpt><trkpt lat="44.89749" lon="9.05446"><ele>189.71428571428572</ele><time>2026-04-25T08:40:31.995Z</time></trkpt><trkpt lat="44.8974233" lon="9.054495"><ele>190.0</ele><time>2026-04-25T08:40:32.999Z</time></trkpt><trkpt lat="44.8973583" lon="9.0545217"><ele>190.0</ele><time>2026-04-25T08:40:33.995Z</time></trkpt><trkpt lat="44.8972617" lon="9.054575"><ele>190.0</ele><time>2026-04-25T08:40:35.998Z</time></trkpt><trkpt lat="44.8971883" lon="9.05463"><ele>190.0</ele><time>2026-04-25T08:40:37.999Z</time></trkpt><trkpt lat="44.897115" lon="9.05471"><ele>190.0</ele><time>2026-04-25T08:40:39.994Z</time></trkpt><trkpt lat="44.897045" lon="9.0548033"><ele>190.0</ele><time>2026-04-25T08:40:41.997Z</time></trkpt><trkpt lat="44.8969833" lon="9.0549"><ele>190.8</ele><time>2026-04-25T08:40:43.998Z</time></trkpt><trkpt lat="44.8969133" lon="9.054995"><ele>191.6</ele><time>2026-04-25T08:40:45.994Z</time></trkpt><trkpt lat="44.8968367" lon="9.0550817"><ele>192.39999999999998</ele><time>2026-04-25T08:40:47.997Z</time></trkpt><trkpt lat="44.8967567" lon="9.05516"><ele>193.2</ele><time>2026-04-25T08:40:49.994Z</time></trkpt><trkpt lat="44.8966833" lon="9.0552517"><ele>194.0</ele><time>2026-04-25T08:40:51.995Z</time></trkpt><trkpt lat="44.89661" lon="9.0553433"><ele>194.33333333333334</ele><time>2026-04-25T08:40:54.004Z</time></trkpt><trkpt lat="44.8965333" lon="9.0554533"><ele>194.66666666666669</ele><time>2026-04-25T08:40:55.997Z</time></trkpt><trkpt lat="44.8964883" lon="9.0555333"><ele>195.0</ele><time>2026-04-25T08:40:56.997Z</time></trkpt><trkpt lat="44.8964317" lon="9.05561"><ele>195.33333333333331</ele><time>2026-04-25T08:40:57.998Z</time></trkpt><trkpt lat="44.8963783" lon="9.0556867"><ele>195.66666666666666</ele><time>2026-04-25T08:40:58.996Z</time></trkpt><trkpt lat="44.89633" lon="9.05576"><ele>196.0</ele><time>2026-04-25T08:40:59.994Z</time></trkpt><trkpt lat="44.8962867" lon="9.05583"><ele>196.28571428571428</ele><time>2026-04-25T08:41:00.995Z</time></trkpt><trkpt lat="44.8962433" lon="9.0558967"><ele>196.57142857142856</ele><time>2026-04-25T08:41:01.995Z</time></trkpt><trkpt lat="44.896195" lon="9.05596"><ele>196.85714285714286</ele><time>2026-04-25T08:41:02.998Z</time></trkpt><trkpt lat="44.89615" lon="9.0560317"><ele>197.14285714285714</ele><time>2026-04-25T08:41:03.996Z</time></trkpt><trkpt lat="44.8960767" lon="9.0560817"><ele>197.42857142857142</ele><time>2026-04-25T08:41:04.996Z</time></trkpt><trkpt lat="44.8960067" lon="9.0561333"><ele>197.71428571428572</ele><time>2026-04-25T08:41:05.995Z</time></trkpt><trkpt lat="44.8959617" lon="9.0562017"><ele>198.0</ele><time>2026-04-25T08:41:06.995Z</time></trkpt><trkpt lat="44.8958783" lon="9.0563333"><ele>198.0</ele><time>2026-04-25T08:41:08.997Z</time></trkpt><trkpt lat="44.89584" lon="9.056405"><ele>198.0</ele><time>2026-04-25T08:41:09.996Z</time></trkpt><trkpt lat="44.8958" lon="9.0564783"><ele>198.0</ele><time>2026-04-25T08:41:10.995Z</time></trkpt><trkpt lat="44.89576" lon="9.0565583"><ele>198.0</ele><time>2026-04-25T08:41:11.995Z</time></trkpt><trkpt lat="44.895725" lon="9.0566483"><ele>198.0</ele><time>2026-04-25T08:41:12.993Z</time></trkpt><trkpt lat="44.895695" lon="9.0567467"><ele>198.0</ele><time>2026-04-25T08:41:13.995Z</time></trkpt><trkpt lat="44.8956617" lon="9.0568517"><ele>198.0</ele><time>2026-04-25T08:41:14.991Z</time></trkpt><trkpt lat="44.8956267" lon="9.0569617"><ele>198.2</ele><time>2026-04-25T08:41:15.993Z</time></trkpt><trkpt lat="44.8955933" lon="9.0570817"><ele>198.4</ele><time>2026-04-25T08:41:16.995Z</time></trkpt><trkpt lat="44.8955583" lon="9.0572083"><ele>198.6</ele><time>2026-04-25T08:41:17.998Z</time></trkpt><trkpt lat="44.8955283" lon="9.057335"><ele>198.79999999999998</ele><time>2026-04-25T08:41:18.998Z</time></trkpt><trkpt lat="44.895505" lon="9.0574667"><ele>199.0</ele><time>2026-04-25T08:41:19.999Z</time></trkpt><trkpt lat="44.895475" lon="9.0575917"><ele>199.2</ele><time>2026-04-25T08:41:20.995Z</time></trkpt><trkpt lat="44.8954367" lon="9.057715"><ele>199.39999999999998</ele><time>2026-04-25T08:41:21.992Z</time></trkpt><trkpt lat="44.8954" lon="9.057835"><ele>199.6</ele><time>2026-04-25T08:41:22.994Z</time></trkpt><trkpt lat="44.8953683" lon="9.05796"><ele>199.8</ele><time>2026-04-25T08:41:23.995Z</time></trkpt><trkpt lat="44.895335" lon="9.05809"><ele>200.0</ele><time>2026-04-25T08:41:24.993Z</time></trkpt><trkpt lat="44.8953033" lon="9.05823"><ele>200.4</ele><time>2026-04-25T08:41:25.995Z</time></trkpt><trkpt lat="44.8952633" lon="9.0583667"><ele>200.8</ele><time>2026-04-25T08:41:27.003Z</time></trkpt><trkpt lat="44.895215" lon="9.0584967"><ele>201.2</ele><time>2026-04-25T08:41:27.995Z</time></trkpt><trkpt lat="44.89517" lon="9.05863"><ele>201.6</ele><time>2026-04-25T08:41:28.996Z</time></trkpt><trkpt lat="44.8951283" lon="9.058765"><ele>202.0</ele><time>2026-04-25T08:41:29.997Z</time></trkpt><trkpt lat="44.8950833" lon="9.0588967"><ele>201.6</ele><time>2026-04-25T08:41:30.996Z</time></trkpt><trkpt lat="44.89504" lon="9.0590267"><ele>201.2</ele><time>2026-04-25T08:41:31.996Z</time></trkpt><trkpt lat="44.894995" lon="9.059155"><ele>200.8</ele><time>2026-04-25T08:41:33.001Z</time></trkpt><trkpt lat="44.8949567" lon="9.0592817"><ele>200.4</ele><time>2026-04-25T08:41:33.994Z</time></trkpt><trkpt lat="44.894915" lon="9.0594133"><ele>200.0</ele><time>2026-04-25T08:41:34.993Z</time></trkpt><trkpt lat="44.8948717" lon="9.0595517"><ele>200.0</ele><time>2026-04-25T08:41:35.997Z</time></trkpt><trkpt lat="44.8948167" lon="9.0596817"><ele>200.0</ele><time>2026-04-25T08:41:36.999Z</time></trkpt><trkpt lat="44.894745" lon="9.059815"><ele>200.0</ele><time>2026-04-25T08:41:37.996Z</time></trkpt><trkpt lat="44.8946483" lon="9.059915"><ele>200.0</ele><time>2026-04-25T08:41:38.997Z</time></trkpt><trkpt lat="44.89453" lon="9.059975"><ele>199.5</ele><time>2026-04-25T08:41:39.998Z</time></trkpt><trkpt lat="44.8943983" lon="9.06"><ele>199.0</ele><time>2026-04-25T08:41:40.995Z</time></trkpt><trkpt lat="44.89425" lon="9.06002"><ele>198.5</ele><time>2026-04-25T08:41:41.997Z</time></trkpt><trkpt lat="44.8940867" lon="9.0600367"><ele>198.0</ele><time>2026-04-25T08:41:42.998Z</time></trkpt><trkpt lat="44.89394" lon="9.0600717"><ele>198.0</ele><time>2026-04-25T08:41:43.999Z</time></trkpt><trkpt lat="44.8938" lon="9.0601067"><ele>198.0</ele><time>2026-04-25T08:41:44.996Z</time></trkpt><trkpt lat="44.8936417" lon="9.0601367"><ele>198.0</ele><time>2026-04-25T08:41:45.998Z</time></trkpt><trkpt lat="44.8934783" lon="9.0601683"><ele>197.33333333333331</ele><time>2026-04-25T08:41:46.999Z</time></trkpt><trkpt lat="44.893315" lon="9.0602"><ele>196.66666666666666</ele><time>2026-04-25T08:41:47.996Z</time></trkpt><trkpt lat="44.89315" lon="9.0602317"><ele>196.0</ele><time>2026-04-25T08:41:48.999Z</time></trkpt><trkpt lat="44.8929917" lon="9.06027"><ele>196.0</ele><time>2026-04-25T08:41:49.997Z</time></trkpt><trkpt lat="44.8928283" lon="9.06031"><ele>196.0</ele><time>2026-04-25T08:41:50.991Z</time></trkpt><trkpt lat="44.8926633" lon="9.060345"><ele>196.0</ele><time>2026-04-25T08:41:51.999Z</time></trkpt><trkpt lat="44.8924933" lon="9.0603767"><ele>194.66666666666666</ele><time>2026-04-25T08:41:52.997Z</time></trkpt><trkpt lat="44.8923333" lon="9.06042"><ele>193.33333333333331</ele><time>2026-04-25T08:41:53.993Z</time></trkpt><trkpt lat="44.8921667" lon="9.0604583"><ele>192.0</ele><time>2026-04-25T08:41:54.999Z</time></trkpt><trkpt lat="44.8919933" lon="9.060495"><ele>192.0</ele><time>2026-04-25T08:41:55.992Z</time></trkpt><trkpt lat="44.8918067" lon="9.0605217"><ele>192.0</ele><time>2026-04-25T08:41:56.996Z</time></trkpt><trkpt lat="44.8916217" lon="9.060555"><ele>192.0</ele><time>2026-04-25T08:41:57.994Z</time></trkpt><trkpt lat="44.8914517" lon="9.06058"><ele>192.66666666666669</ele><time>2026-04-25T08:41:58.995Z</time></trkpt><trkpt lat="44.891265" lon="9.0605933"><ele>193.33333333333334</ele><time>2026-04-25T08:41:59.999Z</time></trkpt><trkpt lat="44.8910667" lon="9.0605783"><ele>194.0</ele><time>2026-04-25T08:42:00.997Z</time></trkpt><trkpt lat="44.8908667" lon="9.0605533"><ele>195.33333333333334</ele><time>2026-04-25T08:42:01.999Z</time></trkpt><trkpt lat="44.8906633" lon="9.0605267"><ele>196.66666666666669</ele><time>2026-04-25T08:42:02.993Z</time></trkpt><trkpt lat="44.8904567" lon="9.060495"><ele>198.0</ele><time>2026-04-25T08:42:03.994Z</time></trkpt><trkpt lat="44.89025" lon="9.0604583"><ele>198.0</ele><time>2026-04-25T08:42:04.996Z</time></trkpt><trkpt lat="44.8900483" lon="9.060425"><ele>198.0</ele><time>2026-04-25T08:42:05.998Z</time></trkpt><trkpt lat="44.8898433" lon="9.0603967"><ele>198.0</ele><time>2026-04-25T08:42:06.996Z</time></trkpt><trkpt lat="44.889635" lon="9.0603683"><ele>198.0</ele><time>2026-04-25T08:42:08Z</time></trkpt><trkpt lat="44.8894317" lon="9.0603483"><ele>198.0</ele><time>2026-04-25T08:42:08.992Z</time></trkpt><trkpt lat="44.88923" lon="9.0603517"><ele>198.0</ele><time>2026-04-25T08:42:09.997Z</time></trkpt><trkpt lat="44.8890367" lon="9.0603583"><ele>199.33333333333331</ele><time>2026-04-25T08:42:10.997Z</time></trkpt><trkpt lat="44.88885" lon="9.0603633"><ele>200.66666666666666</ele><time>2026-04-25T08:42:12Z</time></trkpt><trkpt lat="44.888675" lon="9.06036"><ele>202.0</ele><time>2026-04-25T08:42:12.998Z</time></trkpt><trkpt lat="44.8885033" lon="9.0603433"><ele>201.66666666666666</ele><time>2026-04-25T08:42:13.995Z</time></trkpt><trkpt lat="44.8883317" lon="9.0602933"><ele>201.33333333333331</ele><time>2026-04-25T08:42:14.995Z</time></trkpt><trkpt lat="44.8881683" lon="9.0602467"><ele>201.0</ele><time>2026-04-25T08:42:15.992Z</time></trkpt><trkpt lat="44.888005" lon="9.0601917"><ele>201.0</ele><time>2026-04-25T08:42:16.998Z</time></trkpt><trkpt lat="44.887845" lon="9.0601333"><ele>201.0</ele><time>2026-04-25T08:42:17.993Z</time></trkpt><trkpt lat="44.8876867" lon="9.0600733"><ele>201.0</ele><time>2026-04-25T08:42:18.992Z</time></trkpt><trkpt lat="44.887525" lon="9.06001"><ele>200.33333333333331</ele><time>2026-04-25T08:42:19.993Z</time></trkpt><trkpt lat="44.8873617" lon="9.0599467"><ele>199.66666666666666</ele><time>2026-04-25T08:42:20.993Z</time></trkpt><trkpt lat="44.8872017" lon="9.0598783"><ele>199.0</ele><time>2026-04-25T08:42:21.994Z</time></trkpt><trkpt lat="44.88704" lon="9.059815"><ele>199.0</ele><time>2026-04-25T08:42:22.999Z</time></trkpt><trkpt lat="44.8868833" lon="9.0597533"><ele>199.0</ele><time>2026-04-25T08:42:23.997Z</time></trkpt><trkpt lat="44.88673" lon="9.0596933"><ele>199.0</ele><time>2026-04-25T08:42:24.992Z</time></trkpt><trkpt lat="44.8865783" lon="9.0596383"><ele>200.66666666666666</ele><time>2026-04-25T08:42:25.997Z</time></trkpt><trkpt lat="44.8864283" lon="9.0595833"><ele>202.33333333333331</ele><time>2026-04-25T08:42:26.998Z</time></trkpt><trkpt lat="44.886275" lon="9.059525"><ele>204.0</ele><time>2026-04-25T08:42:27.999Z</time></trkpt><trkpt lat="44.8861217" lon="9.0594633"><ele>204.0</ele><time>2026-04-25T08:42:28.996Z</time></trkpt><trkpt lat="44.8859733" lon="9.0594033"><ele>204.0</ele><time>2026-04-25T08:42:30.002Z</time></trkpt><trkpt lat="44.8858233" lon="9.05934"><ele>204.0</ele><time>2026-04-25T08:42:30.998Z</time></trkpt><trkpt lat="44.885675" lon="9.0592733"><ele>204.66666666666669</ele><time>2026-04-25T08:42:31.999Z</time></trkpt><trkpt lat="44.8855133" lon="9.0591983"><ele>205.33333333333334</ele><time>2026-04-25T08:42:32.999Z</time></trkpt><trkpt lat="44.8853617" lon="9.0591333"><ele>206.0</ele><time>2026-04-25T08:42:34.005Z</time></trkpt><trkpt lat="44.8852167" lon="9.0590767"><ele>206.75</ele><time>2026-04-25T08:42:34.999Z</time></trkpt><trkpt lat="44.885075" lon="9.0590183"><ele>207.5</ele><time>2026-04-25T08:42:35.996Z</time></trkpt><trkpt lat="44.8849383" lon="9.05896"><ele>208.25</ele><time>2026-04-25T08:42:37.002Z</time></trkpt><trkpt lat="44.884805" lon="9.0589"><ele>209.0</ele><time>2026-04-25T08:42:37.991Z</time></trkpt><trkpt lat="44.8846683" lon="9.0588483"><ele>209.0</ele><time>2026-04-25T08:42:38.996Z</time></trkpt><trkpt lat="44.8845367" lon="9.058815"><ele>209.0</ele><time>2026-04-25T08:42:39.995Z</time></trkpt><trkpt lat="44.8844033" lon="9.0588083"><ele>209.0</ele><time>2026-04-25T08:42:40.992Z</time></trkpt><trkpt lat="44.8842733" lon="9.0588317"><ele>209.0</ele><time>2026-04-25T08:42:41.994Z</time></trkpt><trkpt lat="44.8841433" lon="9.05888"><ele>209.5</ele><time>2026-04-25T08:42:42.998Z</time></trkpt><trkpt lat="44.8840183" lon="9.0589467"><ele>210.0</ele><time>2026-04-25T08:42:43.996Z</time></trkpt><trkpt lat="44.8838883" lon="9.0590217"><ele>210.5</ele><time>2026-04-25T08:42:44.994Z</time></trkpt><trkpt lat="44.8837667" lon="9.0590933"><ele>211.0</ele><time>2026-04-25T08:42:45.992Z</time></trkpt><trkpt lat="44.8836417" lon="9.0591717"><ele>210.5</ele><time>2026-04-25T08:42:46.999Z</time></trkpt><trkpt lat="44.8835217" lon="9.0592533"><ele>210.0</ele><time>2026-04-25T08:42:47.993Z</time></trkpt><trkpt lat="44.8834" lon="9.059335"><ele>209.5</ele><time>2026-04-25T08:42:48.995Z</time></trkpt><trkpt lat="44.883275" lon="9.0594133"><ele>209.0</ele><time>2026-04-25T08:42:49.998Z</time></trkpt><trkpt lat="44.883145" lon="9.0594933"><ele>209.0</ele><time>2026-04-25T08:42:51.003Z</time></trkpt><trkpt lat="44.8830183" lon="9.05958"><ele>209.0</ele><time>2026-04-25T08:42:51.993Z</time></trkpt><trkpt lat="44.8828933" lon="9.0596667"><ele>209.0</ele><time>2026-04-25T08:42:52.994Z</time></trkpt><trkpt lat="44.8827683" lon="9.0597517"><ele>209.0</ele><time>2026-04-25T08:42:53.993Z</time></trkpt><trkpt lat="44.8826383" lon="9.059835"><ele>208.0</ele><time>2026-04-25T08:42:54.995Z</time></trkpt><trkpt lat="44.882505" lon="9.0599133"><ele>207.0</ele><time>2026-04-25T08:42:55.994Z</time></trkpt><trkpt lat="44.882375" lon="9.0599933"><ele>206.0</ele><time>2026-04-25T08:42:56.998Z</time></trkpt><trkpt lat="44.8822467" lon="9.0600683"><ele>205.0</ele><time>2026-04-25T08:42:57.994Z</time></trkpt><trkpt lat="44.8821167" lon="9.060145"><ele>206.25</ele><time>2026-04-25T08:42:58.994Z</time></trkpt><trkpt lat="44.8819883" lon="9.0602267"><ele>207.5</ele><time>2026-04-25T08:42:59.995Z</time></trkpt><trkpt lat="44.8818617" lon="9.0603117"><ele>208.75</ele><time>2026-04-25T08:43:00.996Z</time></trkpt><trkpt lat="44.8817333" lon="9.0603933"><ele>210.0</ele><time>2026-04-25T08:43:01.995Z</time></trkpt><trkpt lat="44.8816083" lon="9.060485"><ele>210.0</ele><time>2026-04-25T08:43:02.993Z</time></trkpt><trkpt lat="44.8814867" lon="9.06059"><ele>210.0</ele><time>2026-04-25T08:43:03.996Z</time></trkpt><trkpt lat="44.881375" lon="9.0607217"><ele>210.0</ele><time>2026-04-25T08:43:04.993Z</time></trkpt><trkpt lat="44.881265" lon="9.060865"><ele>210.0</ele><time>2026-04-25T08:43:05.998Z</time></trkpt><trkpt lat="44.88116" lon="9.06102"><ele>210.66666666666669</ele><time>2026-04-25T08:43:06.993Z</time></trkpt><trkpt lat="44.881055" lon="9.061185"><ele>211.33333333333334</ele><time>2026-04-25T08:43:07.994Z</time></trkpt><trkpt lat="44.8809517" lon="9.0613567"><ele>212.0</ele><time>2026-04-25T08:43:08.997Z</time></trkpt><trkpt lat="44.880845" lon="9.0615267"><ele>213.33333333333334</ele><time>2026-04-25T08:43:09.993Z</time></trkpt><trkpt lat="44.8807367" lon="9.0616917"><ele>214.66666666666669</ele><time>2026-04-25T08:43:10.993Z</time></trkpt><trkpt lat="44.8806317" lon="9.0618583"><ele>216.0</ele><time>2026-04-25T08:43:11.998Z</time></trkpt><trkpt lat="44.8805267" lon="9.0620167"><ele>216.0</ele><time>2026-04-25T08:43:12.997Z</time></trkpt><trkpt lat="44.880425" lon="9.062175"><ele>216.0</ele><time>2026-04-25T08:43:13.997Z</time></trkpt><trkpt lat="44.8803283" lon="9.0623267"><ele>216.0</ele><time>2026-04-25T08:43:15Z</time></trkpt><trkpt lat="44.8802333" lon="9.06248"><ele>216.0</ele><time>2026-04-25T08:43:15.996Z</time></trkpt><trkpt lat="44.8801367" lon="9.06263"><ele>215.75</ele><time>2026-04-25T08:43:16.997Z</time></trkpt><trkpt lat="44.88004" lon="9.0627817"><ele>215.5</ele><time>2026-04-25T08:43:18.001Z</time></trkpt><trkpt lat="44.8799417" lon="9.0629283"><ele>215.25</ele><time>2026-04-25T08:43:18.999Z</time></trkpt><trkpt lat="44.8798383" lon="9.063075"><ele>215.0</ele><time>2026-04-25T08:43:19.994Z</time></trkpt><trkpt lat="44.8797333" lon="9.0632033"><ele>215.75</ele><time>2026-04-25T08:43:21.003Z</time></trkpt><trkpt lat="44.879615" lon="9.0633067"><ele>216.5</ele><time>2026-04-25T08:43:21.997Z</time></trkpt><trkpt lat="44.8794867" lon="9.0633867"><ele>217.25</ele><time>2026-04-25T08:43:22.998Z</time></trkpt><trkpt lat="44.8793433" lon="9.06345"><ele>218.0</ele><time>2026-04-25T08:43:23.994Z</time></trkpt><trkpt lat="44.8791933" lon="9.06351"><ele>218.0</ele><time>2026-04-25T08:43:24.994Z</time></trkpt><trkpt lat="44.8790417" lon="9.0635683"><ele>218.0</ele><time>2026-04-25T08:43:25.993Z</time></trkpt><trkpt lat="44.87888" lon="9.0636217"><ele>218.0</ele><time>2026-04-25T08:43:27.002Z</time></trkpt><trkpt lat="44.878715" lon="9.0636783"><ele>218.0</ele><time>2026-04-25T08:43:27.993Z</time></trkpt><trkpt lat="44.878545" lon="9.063735"><ele>218.0</ele><time>2026-04-25T08:43:28.997Z</time></trkpt><trkpt lat="44.878375" lon="9.06379"><ele>218.0</ele><time>2026-04-25T08:43:29.999Z</time></trkpt><trkpt lat="44.8782017" lon="9.0638483"><ele>216.66666666666669</ele><time>2026-04-25T08:43:30.995Z</time></trkpt><trkpt lat="44.8780283" lon="9.0639117"><ele>215.33333333333331</ele><time>2026-04-25T08:43:31.994Z</time></trkpt><trkpt lat="44.8778567" lon="9.0639817"><ele>214.0</ele><time>2026-04-25T08:43:32.996Z</time></trkpt><trkpt lat="44.8776817" lon="9.0640467"><ele>217.0</ele><time>2026-04-25T08:43:33.996Z</time></trkpt><trkpt lat="44.87751" lon="9.0641133"><ele>220.0</ele><time>2026-04-25T08:43:34.995Z</time></trkpt><trkpt lat="44.8773333" lon="9.0641717"><ele>223.0</ele><time>2026-04-25T08:43:35.997Z</time></trkpt><trkpt lat="44.8771567" lon="9.0642267"><ele>223.0</ele><time>2026-04-25T08:43:36.996Z</time></trkpt><trkpt lat="44.8769867" lon="9.0642833"><ele>223.0</ele><time>2026-04-25T08:43:37.994Z</time></trkpt><trkpt lat="44.876815" lon="9.0643433"><ele>223.0</ele><time>2026-04-25T08:43:38.997Z</time></trkpt><trkpt lat="44.8766467" lon="9.0644"><ele>221.33333333333331</ele><time>2026-04-25T08:43:39.998Z</time></trkpt><trkpt lat="44.87648" lon="9.06446"><ele>219.66666666666669</ele><time>2026-04-25T08:43:40.997Z</time></trkpt><trkpt lat="44.8763083" lon="9.0645167"><ele>218.0</ele><time>2026-04-25T08:43:41.996Z</time></trkpt><trkpt lat="44.8761467" lon="9.06457"><ele>218.0</ele><time>2026-04-25T08:43:43.001Z</time></trkpt><trkpt lat="44.8759883" lon="9.0646283"><ele>218.0</ele><time>2026-04-25T08:43:43.998Z</time></trkpt><trkpt lat="44.8758283" lon="9.0646867"><ele>218.0</ele><time>2026-04-25T08:43:44.998Z</time></trkpt><trkpt lat="44.8756717" lon="9.0647433"><ele>217.0</ele><time>2026-04-25T08:43:45.994Z</time></trkpt><trkpt lat="44.8755117" lon="9.0647983"><ele>216.0</ele><time>2026-04-25T08:43:46.996Z</time></trkpt><trkpt lat="44.875355" lon="9.0648467"><ele>215.0</ele><time>2026-04-25T08:43:48.001Z</time></trkpt><trkpt lat="44.8752" lon="9.0649"><ele>217.66666666666669</ele><time>2026-04-25T08:43:48.994Z</time></trkpt><trkpt lat="44.87505" lon="9.0649517"><ele>220.33333333333331</ele><time>2026-04-25T08:43:49.997Z</time></trkpt><trkpt lat="44.8749017" lon="9.065015"><ele>223.0</ele><time>2026-04-25T08:43:50.995Z</time></trkpt><trkpt lat="44.8747567" lon="9.0650983"><ele>223.0</ele><time>2026-04-25T08:43:51.994Z</time></trkpt><trkpt lat="44.8746167" lon="9.0651933"><ele>223.0</ele><time>2026-04-25T08:43:52.994Z</time></trkpt><trkpt lat="44.8744867" lon="9.0653083"><ele>223.0</ele><time>2026-04-25T08:43:53.994Z</time></trkpt><trkpt lat="44.874365" lon="9.0654383"><ele>221.66666666666666</ele><time>2026-04-25T08:43:54.997Z</time></trkpt><trkpt lat="44.87425" lon="9.0655783"><ele>220.33333333333331</ele><time>2026-04-25T08:43:55.993Z</time></trkpt><trkpt lat="44.8741417" lon="9.0657283"><ele>219.0</ele><time>2026-04-25T08:43:56.996Z</time></trkpt><trkpt lat="44.8740333" lon="9.0658783"><ele>222.0</ele><time>2026-04-25T08:43:58.008Z</time></trkpt><trkpt lat="44.8739217" lon="9.0660317"><ele>225.0</ele><time>2026-04-25T08:43:58.996Z</time></trkpt><trkpt lat="44.8738067" lon="9.06618"><ele>228.0</ele><time>2026-04-25T08:44:00.001Z</time></trkpt><trkpt lat="44.87369" lon="9.0663317"><ele>228.0</ele><time>2026-04-25T08:44:01Z</time></trkpt><trkpt lat="44.8735767" lon="9.0664883"><ele>228.0</ele><time>2026-04-25T08:44:01.996Z</time></trkpt><trkpt lat="44.87346" lon="9.0666433"><ele>228.0</ele><time>2026-04-25T08:44:02.997Z</time></trkpt><trkpt lat="44.8733417" lon="9.0668"><ele>228.0</ele><time>2026-04-25T08:44:04.002Z</time></trkpt><trkpt lat="44.8732167" lon="9.066945"><ele>228.0</ele><time>2026-04-25T08:44:04.997Z</time></trkpt><trkpt lat="44.8730933" lon="9.0670783"><ele>228.0</ele><time>2026-04-25T08:44:05.996Z</time></trkpt><trkpt lat="44.872965" lon="9.0672033"><ele>228.0</ele><time>2026-04-25T08:44:06.996Z</time></trkpt><trkpt lat="44.8728333" lon="9.06732"><ele>228.0</ele><time>2026-04-25T08:44:07.994Z</time></trkpt><trkpt lat="44.87269" lon="9.0674217"><ele>228.0</ele><time>2026-04-25T08:44:08.999Z</time></trkpt><trkpt lat="44.8725483" lon="9.0675083"><ele>228.33333333333331</ele><time>2026-04-25T08:44:09.999Z</time></trkpt><trkpt lat="44.8723983" lon="9.067575"><ele>228.66666666666666</ele><time>2026-04-25T08:44:10.992Z</time></trkpt><trkpt lat="44.8722383" lon="9.0676183"><ele>229.0</ele><time>2026-04-25T08:44:11.994Z</time></trkpt><trkpt lat="44.8720783" lon="9.0676417"><ele>229.0</ele><time>2026-04-25T08:44:12.994Z</time></trkpt><trkpt lat="44.8719133" lon="9.0676583"><ele>229.0</ele><time>2026-04-25T08:44:13.996Z</time></trkpt><trkpt lat="44.8717517" lon="9.0676833"><ele>229.0</ele><time>2026-04-25T08:44:14.994Z</time></trkpt><trkpt lat="44.8715933" lon="9.0677167"><ele>228.66666666666666</ele><time>2026-04-25T08:44:15.994Z</time></trkpt><trkpt lat="44.871435" lon="9.0677517"><ele>228.33333333333331</ele><time>2026-04-25T08:44:16.995Z</time></trkpt><trkpt lat="44.871275" lon="9.067795"><ele>228.0</ele><time>2026-04-25T08:44:17.997Z</time></trkpt><trkpt lat="44.871115" lon="9.0678533"><ele>228.0</ele><time>2026-04-25T08:44:18.999Z</time></trkpt><trkpt lat="44.8709617" lon="9.0679417"><ele>228.0</ele><time>2026-04-25T08:44:19.995Z</time></trkpt><trkpt lat="44.870825" lon="9.0680567"><ele>228.0</ele><time>2026-04-25T08:44:20.996Z</time></trkpt><trkpt lat="44.8707" lon="9.068205"><ele>231.0</ele><time>2026-04-25T08:44:21.999Z</time></trkpt><trkpt lat="44.87059" lon="9.0683617"><ele>234.0</ele><time>2026-04-25T08:44:22.999Z</time></trkpt><trkpt lat="44.87049" lon="9.06853"><ele>237.0</ele><time>2026-04-25T08:44:23.997Z</time></trkpt><trkpt lat="44.8703917" lon="9.0686983"><ele>237.0</ele><time>2026-04-25T08:44:24.997Z</time></trkpt><trkpt lat="44.8703083" lon="9.0688733"><ele>237.0</ele><time>2026-04-25T08:44:25.995Z</time></trkpt><trkpt lat="44.870225" lon="9.0690567"><ele>237.0</ele><time>2026-04-25T08:44:26.992Z</time></trkpt><trkpt lat="44.87016" lon="9.069245"><ele>237.0</ele><time>2026-04-25T08:44:27.998Z</time></trkpt><trkpt lat="44.8701217" lon="9.0694383"><ele>237.0</ele><time>2026-04-25T08:44:28.996Z</time></trkpt><trkpt lat="44.8700917" lon="9.0696467"><ele>237.0</ele><time>2026-04-25T08:44:29.993Z</time></trkpt><trkpt lat="44.870055" lon="9.0698517"><ele>237.0</ele><time>2026-04-25T08:44:30.993Z</time></trkpt><trkpt lat="44.8700117" lon="9.0700467"><ele>237.0</ele><time>2026-04-25T08:44:31.992Z</time></trkpt><trkpt lat="44.86995" lon="9.0702417"><ele>237.0</ele><time>2026-04-25T08:44:32.997Z</time></trkpt><trkpt lat="44.869865" lon="9.0704117"><ele>237.0</ele><time>2026-04-25T08:44:33.991Z</time></trkpt><trkpt lat="44.869755" lon="9.070555"><ele>237.0</ele><time>2026-04-25T08:44:34.992Z</time></trkpt><trkpt lat="44.86964" lon="9.0706883"><ele>236.33333333333331</ele><time>2026-04-25T08:44:35.993Z</time></trkpt><trkpt lat="44.8695067" lon="9.0707883"><ele>235.66666666666666</ele><time>2026-04-25T08:44:36.999Z</time></trkpt><trkpt lat="44.869355" lon="9.0708533"><ele>235.0</ele><time>2026-04-25T08:44:38.001Z</time></trkpt><trkpt lat="44.869205" lon="9.0708983"><ele>235.0</ele><time>2026-04-25T08:44:38.992Z</time></trkpt><trkpt lat="44.8690467" lon="9.07092"><ele>235.0</ele><time>2026-04-25T08:44:39.998Z</time></trkpt><trkpt lat="44.8688867" lon="9.0709467"><ele>235.0</ele><time>2026-04-25T08:44:40.995Z</time></trkpt><trkpt lat="44.8687233" lon="9.0709733"><ele>235.0</ele><time>2026-04-25T08:44:41.998Z</time></trkpt><trkpt lat="44.8685583" lon="9.071"><ele>235.0</ele><time>2026-04-25T08:44:43Z</time></trkpt><trkpt lat="44.8683917" lon="9.0710183"><ele>235.0</ele><time>2026-04-25T08:44:43.995Z</time></trkpt><trkpt lat="44.868225" lon="9.07104"><ele>233.66666666666666</ele><time>2026-04-25T08:44:44.996Z</time></trkpt><trkpt lat="44.8680567" lon="9.0710717"><ele>232.33333333333331</ele><time>2026-04-25T08:44:45.997Z</time></trkpt><trkpt lat="44.8678783" lon="9.0710867"><ele>231.0</ele><time>2026-04-25T08:44:47.001Z</time></trkpt><trkpt lat="44.8677117" lon="9.0711167"><ele>230.33333333333331</ele><time>2026-04-25T08:44:47.996Z</time></trkpt><trkpt lat="44.8675483" lon="9.07114"><ele>229.66666666666666</ele><time>2026-04-25T08:44:48.999Z</time></trkpt><trkpt lat="44.86738" lon="9.0711617"><ele>229.0</ele><time>2026-04-25T08:44:50.003Z</time></trkpt><trkpt lat="44.86722" lon="9.0711833"><ele>229.0</ele><time>2026-04-25T08:44:50.996Z</time></trkpt><trkpt lat="44.8670617" lon="9.0712083"><ele>229.0</ele><time>2026-04-25T08:44:51.997Z</time></trkpt><trkpt lat="44.8669133" lon="9.071235"><ele>229.0</ele><time>2026-04-25T08:44:52.994Z</time></trkpt><trkpt lat="44.86677" lon="9.07126"><ele>229.75</ele><time>2026-04-25T08:44:54.003Z</time></trkpt><trkpt lat="44.86663" lon="9.0712867"><ele>230.5</ele><time>2026-04-25T08:44:54.994Z</time></trkpt><trkpt lat="44.8664933" lon="9.07131"><ele>231.25</ele><time>2026-04-25T08:44:55.994Z</time></trkpt><trkpt lat="44.86635" lon="9.0713367"><ele>232.0</ele><time>2026-04-25T08:44:56.995Z</time></trkpt><trkpt lat="44.8662133" lon="9.0713633"><ele>232.0</ele><time>2026-04-25T08:44:57.995Z</time></trkpt><trkpt lat="44.86607" lon="9.0713917"><ele>232.0</ele><time>2026-04-25T08:44:58.994Z</time></trkpt><trkpt lat="44.8659283" lon="9.0714217"><ele>232.0</ele><time>2026-04-25T08:45:00.003Z</time></trkpt><trkpt lat="44.8657883" lon="9.0714467"><ele>232.0</ele><time>2026-04-25T08:45:00.997Z</time></trkpt><trkpt lat="44.8656483" lon="9.071475"><ele>232.0</ele><time>2026-04-25T08:45:01.995Z</time></trkpt><trkpt lat="44.865505" lon="9.0715"><ele>232.0</ele><time>2026-04-25T08:45:02.996Z</time></trkpt><trkpt lat="44.8653617" lon="9.071525"><ele>232.0</ele><time>2026-04-25T08:45:03.997Z</time></trkpt><trkpt lat="44.86522" lon="9.0715483"><ele>232.0</ele><time>2026-04-25T08:45:04.999Z</time></trkpt><trkpt lat="44.8650783" lon="9.0715733"><ele>232.0</ele><time>2026-04-25T08:45:05.997Z</time></trkpt><trkpt lat="44.86493" lon="9.0715983"><ele>232.0</ele><time>2026-04-25T08:45:06.997Z</time></trkpt><trkpt lat="44.86478" lon="9.0716267"><ele>232.0</ele><time>2026-04-25T08:45:07.999Z</time></trkpt><trkpt lat="44.8646283" lon="9.07165"><ele>232.0</ele><time>2026-04-25T08:45:08.996Z</time></trkpt><trkpt lat="44.86447" lon="9.0716733"><ele>232.0</ele><time>2026-04-25T08:45:09.997Z</time></trkpt><trkpt lat="44.86431" lon="9.0716983"><ele>232.0</ele><time>2026-04-25T08:45:10.996Z</time></trkpt><trkpt lat="44.86415" lon="9.0717233"><ele>231.66666666666666</ele><time>2026-04-25T08:45:12Z</time></trkpt><trkpt lat="44.863985" lon="9.0717467"><ele>231.33333333333331</ele><time>2026-04-25T08:45:12.998Z</time></trkpt><trkpt lat="44.86382" lon="9.071775"><ele>231.0</ele><time>2026-04-25T08:45:13.998Z</time></trkpt><trkpt lat="44.8636567" lon="9.0718117"><ele>231.0</ele><time>2026-04-25T08:45:14.994Z</time></trkpt><trkpt lat="44.8635" lon="9.0718567"><ele>231.0</ele><time>2026-04-25T08:45:15.996Z</time></trkpt><trkpt lat="44.86335" lon="9.0719317"><ele>231.0</ele><time>2026-04-25T08:45:17Z</time></trkpt><trkpt lat="44.8632" lon="9.0720317"><ele>231.0</ele><time>2026-04-25T08:45:17.994Z</time></trkpt><trkpt lat="44.8630567" lon="9.07215"><ele>231.0</ele><time>2026-04-25T08:45:19Z</time></trkpt><trkpt lat="44.8629283" lon="9.0722817"><ele>231.0</ele><time>2026-04-25T08:45:19.997Z</time></trkpt><trkpt lat="44.8628067" lon="9.0724283"><ele>232.66666666666669</ele><time>2026-04-25T08:45:20.997Z</time></trkpt><trkpt lat="44.862695" lon="9.07259"><ele>234.33333333333334</ele><time>2026-04-25T08:45:21.995Z</time></trkpt><trkpt lat="44.8626" lon="9.072775"><ele>236.0</ele><time>2026-04-25T08:45:22.995Z</time></trkpt><trkpt lat="44.8625133" lon="9.07297"><ele>236.33333333333334</ele><time>2026-04-25T08:45:23.993Z</time></trkpt><trkpt lat="44.8624333" lon="9.073175"><ele>236.66666666666669</ele><time>2026-04-25T08:45:24.997Z</time></trkpt><trkpt lat="44.8623667" lon="9.0733833"><ele>237.0</ele><time>2026-04-25T08:45:25.996Z</time></trkpt><trkpt lat="44.8623117" lon="9.0735967"><ele>238.66666666666669</ele><time>2026-04-25T08:45:26.996Z</time></trkpt><trkpt lat="44.862255" lon="9.0738167"><ele>240.33333333333334</ele><time>2026-04-25T08:45:27.994Z</time></trkpt><trkpt lat="44.8622067" lon="9.0740383"><ele>242.0</ele><time>2026-04-25T08:45:29.002Z</time></trkpt><trkpt lat="44.862165" lon="9.07426"><ele>245.0</ele><time>2026-04-25T08:45:29.999Z</time></trkpt><trkpt lat="44.8621267" lon="9.0744817"><ele>248.0</ele><time>2026-04-25T08:45:30.999Z</time></trkpt><trkpt lat="44.86209" lon="9.0747017"><ele>251.0</ele><time>2026-04-25T08:45:31.995Z</time></trkpt><trkpt lat="44.8620583" lon="9.0749217"><ele>253.0</ele><time>2026-04-25T08:45:33.001Z</time></trkpt><trkpt lat="44.8620333" lon="9.07514"><ele>255.0</ele><time>2026-04-25T08:45:34Z</time></trkpt><trkpt lat="44.8620083" lon="9.0753467"><ele>257.0</ele><time>2026-04-25T08:45:34.996Z</time></trkpt><trkpt lat="44.8619833" lon="9.0755583"><ele>258.6666666666667</ele><time>2026-04-25T08:45:35.997Z</time></trkpt><trkpt lat="44.8619583" lon="9.0757717"><ele>260.3333333333333</ele><time>2026-04-25T08:45:36.998Z</time></trkpt><trkpt lat="44.8619333" lon="9.0759867"><ele>262.0</ele><time>2026-04-25T08:45:37.997Z</time></trkpt><trkpt lat="44.8619033" lon="9.076195"><ele>262.0</ele><time>2026-04-25T08:45:38.991Z</time></trkpt><trkpt lat="44.8618667" lon="9.0763983"><ele>262.0</ele><time>2026-04-25T08:45:39.993Z</time></trkpt><trkpt lat="44.86182" lon="9.0765883"><ele>262.0</ele><time>2026-04-25T08:45:40.992Z</time></trkpt><trkpt lat="44.861775" lon="9.0767917"><ele>262.0</ele><time>2026-04-25T08:45:41.994Z</time></trkpt><trkpt lat="44.861715" lon="9.0769933"><ele>256.66666666666663</ele><time>2026-04-25T08:45:42.994Z</time></trkpt><trkpt lat="44.8616483" lon="9.0771917"><ele>251.33333333333331</ele><time>2026-04-25T08:45:43.995Z</time></trkpt><trkpt lat="44.8615683" lon="9.0773933"><ele>246.0</ele><time>2026-04-25T08:45:45.002Z</time></trkpt><trkpt lat="44.86148" lon="9.0775867"><ele>246.0</ele><time>2026-04-25T08:45:46.004Z</time></trkpt><trkpt lat="44.8613833" lon="9.07777"><ele>246.0</ele><time>2026-04-25T08:45:46.994Z</time></trkpt><trkpt lat="44.8612783" lon="9.0779433"><ele>246.0</ele><time>2026-04-25T08:45:47.993Z</time></trkpt><trkpt lat="44.8611667" lon="9.0781133"><ele>245.0</ele><time>2026-04-25T08:45:48.998Z</time></trkpt><trkpt lat="44.8610533" lon="9.0782733"><ele>244.0</ele><time>2026-04-25T08:45:49.997Z</time></trkpt><trkpt lat="44.8609433" lon="9.0784283"><ele>243.0</ele><time>2026-04-25T08:45:50.998Z</time></trkpt><trkpt lat="44.8608317" lon="9.0785767"><ele>243.0</ele><time>2026-04-25T08:45:52.003Z</time></trkpt><trkpt lat="44.8607217" lon="9.0787283"><ele>243.0</ele><time>2026-04-25T08:45:52.997Z</time></trkpt><trkpt lat="44.8606217" lon="9.078875"><ele>243.0</ele><time>2026-04-25T08:45:53.994Z</time></trkpt><trkpt lat="44.8605167" lon="9.0790183"><ele>243.0</ele><time>2026-04-25T08:45:54.999Z</time></trkpt><trkpt lat="44.86042" lon="9.079165"><ele>243.75</ele><time>2026-04-25T08:45:55.996Z</time></trkpt><trkpt lat="44.8603317" lon="9.07932"><ele>244.5</ele><time>2026-04-25T08:45:57Z</time></trkpt><trkpt lat="44.8602467" lon="9.07948"><ele>245.25</ele><time>2026-04-25T08:45:57.996Z</time></trkpt><trkpt lat="44.86016" lon="9.079645"><ele>246.0</ele><time>2026-04-25T08:45:58.996Z</time></trkpt><trkpt lat="44.8600783" lon="9.0798183"><ele>246.75</ele><time>2026-04-25T08:45:59.992Z</time></trkpt><trkpt lat="44.8600133" lon="9.0800117"><ele>247.5</ele><time>2026-04-25T08:46:00.999Z</time></trkpt><trkpt lat="44.8599583" lon="9.0802033"><ele>248.25</ele><time>2026-04-25T08:46:01.994Z</time></trkpt><trkpt lat="44.8599083" lon="9.0804033"><ele>249.0</ele><time>2026-04-25T08:46:02.993Z</time></trkpt><trkpt lat="44.8598633" lon="9.080605"><ele>250.25</ele><time>2026-04-25T08:46:03.993Z</time></trkpt><trkpt lat="44.8598167" lon="9.0808033"><ele>251.5</ele><time>2026-04-25T08:46:04.993Z</time></trkpt><trkpt lat="44.8597533" lon="9.0809867"><ele>252.75</ele><time>2026-04-25T08:46:05.995Z</time></trkpt><trkpt lat="44.8596767" lon="9.0811583"><ele>254.0</ele><time>2026-04-25T08:46:06.995Z</time></trkpt><trkpt lat="44.8595833" lon="9.0813167"><ele>254.0</ele><time>2026-04-25T08:46:07.994Z</time></trkpt><trkpt lat="44.8594733" lon="9.0814733"><ele>254.0</ele><time>2026-04-25T08:46:08.999Z</time></trkpt><trkpt lat="44.859355" lon="9.0816117"><ele>254.0</ele><time>2026-04-25T08:46:09.995Z</time></trkpt><trkpt lat="44.8592317" lon="9.0817433"><ele>253.0</ele><time>2026-04-25T08:46:10.993Z</time></trkpt><trkpt lat="44.8591117" lon="9.08187"><ele>252.0</ele><time>2026-04-25T08:46:11.994Z</time></trkpt><trkpt lat="44.8589933" lon="9.08199"><ele>251.0</ele><time>2026-04-25T08:46:12.996Z</time></trkpt><trkpt lat="44.8588783" lon="9.0820983"><ele>250.0</ele><time>2026-04-25T08:46:13.998Z</time></trkpt><trkpt lat="44.8587717" lon="9.0822"><ele>250.0</ele><time>2026-04-25T08:46:14.997Z</time></trkpt><trkpt lat="44.8586717" lon="9.0823"><ele>250.0</ele><time>2026-04-25T08:46:15.997Z</time></trkpt><trkpt lat="44.8585717" lon="9.0824033"><ele>250.0</ele><time>2026-04-25T08:46:16.995Z</time></trkpt><trkpt lat="44.8584683" lon="9.08251"><ele>250.0</ele><time>2026-04-25T08:46:17.996Z</time></trkpt><trkpt lat="44.8583567" lon="9.0826167"><ele>251.0</ele><time>2026-04-25T08:46:18.996Z</time></trkpt><trkpt lat="44.8582433" lon="9.0827317"><ele>252.0</ele><time>2026-04-25T08:46:19.993Z</time></trkpt><trkpt lat="44.85813" lon="9.0828533"><ele>253.0</ele><time>2026-04-25T08:46:20.996Z</time></trkpt><trkpt lat="44.8580117" lon="9.0829667"><ele>254.0</ele><time>2026-04-25T08:46:21.995Z</time></trkpt><trkpt lat="44.857885" lon="9.083075"><ele>254.0</ele><time>2026-04-25T08:46:22.995Z</time></trkpt><trkpt lat="44.8577567" lon="9.0831783"><ele>254.0</ele><time>2026-04-25T08:46:24.003Z</time></trkpt><trkpt lat="44.85763" lon="9.0832867"><ele>254.0</ele><time>2026-04-25T08:46:24.993Z</time></trkpt><trkpt lat="44.8575017" lon="9.0834017"><ele>254.0</ele><time>2026-04-25T08:46:25.996Z</time></trkpt><trkpt lat="44.857375" lon="9.0835167"><ele>255.25</ele><time>2026-04-25T08:46:26.994Z</time></trkpt><trkpt lat="44.857255" lon="9.0836283"><ele>256.5</ele><time>2026-04-25T08:46:27.994Z</time></trkpt><trkpt lat="44.85715" lon="9.0837383"><ele>257.75</ele><time>2026-04-25T08:46:28.996Z</time></trkpt><trkpt lat="44.8570467" lon="9.0838417"><ele>259.0</ele><time>2026-04-25T08:46:29.993Z</time></trkpt><trkpt lat="44.8569433" lon="9.083945"><ele>259.0</ele><time>2026-04-25T08:46:30.994Z</time></trkpt><trkpt lat="44.8568417" lon="9.08405"><ele>259.0</ele><time>2026-04-25T08:46:31.999Z</time></trkpt><trkpt lat="44.856745" lon="9.08416"><ele>259.0</ele><time>2026-04-25T08:46:32.996Z</time></trkpt><trkpt lat="44.8566583" lon="9.0842833"><ele>259.0</ele><time>2026-04-25T08:46:33.993Z</time></trkpt><trkpt lat="44.8565817" lon="9.0844233"><ele>258.75</ele><time>2026-04-25T08:46:34.994Z</time></trkpt><trkpt lat="44.8565167" lon="9.0845733"><ele>258.5</ele><time>2026-04-25T08:46:35.993Z</time></trkpt><trkpt lat="44.8564683" lon="9.0847283"><ele>258.25</ele><time>2026-04-25T08:46:37Z</time></trkpt><trkpt lat="44.85643" lon="9.0848833"><ele>258.0</ele><time>2026-04-25T08:46:37.996Z</time></trkpt><trkpt lat="44.8564017" lon="9.0850383"><ele>258.0</ele><time>2026-04-25T08:46:38.998Z</time></trkpt><trkpt lat="44.8563817" lon="9.0851933"><ele>258.0</ele><time>2026-04-25T08:46:39.992Z</time></trkpt><trkpt lat="44.8563683" lon="9.08535"><ele>258.0</ele><time>2026-04-25T08:46:40.994Z</time></trkpt><trkpt lat="44.85636" lon="9.085515"><ele>258.0</ele><time>2026-04-25T08:46:41.996Z</time></trkpt><trkpt lat="44.85635" lon="9.0856783"><ele>258.75</ele><time>2026-04-25T08:46:42.999Z</time></trkpt><trkpt lat="44.8563383" lon="9.0858433"><ele>259.5</ele><time>2026-04-25T08:46:43.992Z</time></trkpt><trkpt lat="44.8563283" lon="9.0860083"><ele>260.25</ele><time>2026-04-25T08:46:44.996Z</time></trkpt><trkpt lat="44.8563167" lon="9.0861733"><ele>261.0</ele><time>2026-04-25T08:46:46Z</time></trkpt><trkpt lat="44.8563067" lon="9.086325"><ele>261.0</ele><time>2026-04-25T08:46:46.996Z</time></trkpt><trkpt lat="44.8562983" lon="9.0864683"><ele>261.0</ele><time>2026-04-25T08:46:47.992Z</time></trkpt><trkpt lat="44.8562883" lon="9.0866083"><ele>261.0</ele><time>2026-04-25T08:46:48.993Z</time></trkpt><trkpt lat="44.8562783" lon="9.0867483"><ele>261.0</ele><time>2026-04-25T08:46:49.993Z</time></trkpt><trkpt lat="44.856265" lon="9.08689"><ele>261.0</ele><time>2026-04-25T08:46:50.997Z</time></trkpt><trkpt lat="44.8562517" lon="9.0870367"><ele>261.6</ele><time>2026-04-25T08:46:51.999Z</time></trkpt><trkpt lat="44.8562383" lon="9.0871883"><ele>262.20000000000005</ele><time>2026-04-25T08:46:52.994Z</time></trkpt><trkpt lat="44.856225" lon="9.0873367"><ele>262.79999999999995</ele><time>2026-04-25T08:46:53.994Z</time></trkpt><trkpt lat="44.856215" lon="9.0874833"><ele>263.4</ele><time>2026-04-25T08:46:54.995Z</time></trkpt><trkpt lat="44.8562017" lon="9.08763"><ele>264.0</ele><time>2026-04-25T08:46:55.993Z</time></trkpt><trkpt lat="44.8561933" lon="9.0877717"><ele>264.4</ele><time>2026-04-25T08:46:56.997Z</time></trkpt><trkpt lat="44.8561833" lon="9.0879117"><ele>264.79999999999995</ele><time>2026-04-25T08:46:57.994Z</time></trkpt><trkpt lat="44.85617" lon="9.0880533"><ele>265.20000000000005</ele><time>2026-04-25T08:46:58.998Z</time></trkpt><trkpt lat="44.8561567" lon="9.0882033"><ele>265.6</ele><time>2026-04-25T08:46:59.995Z</time></trkpt><trkpt lat="44.856145" lon="9.0883517"><ele>266.0</ele><time>2026-04-25T08:47:01Z</time></trkpt><trkpt lat="44.856135" lon="9.088495"><ele>266.0</ele><time>2026-04-25T08:47:02Z</time></trkpt><trkpt lat="44.8561233" lon="9.08864"><ele>266.0</ele><time>2026-04-25T08:47:02.997Z</time></trkpt><trkpt lat="44.85611" lon="9.088785"><ele>266.0</ele><time>2026-04-25T08:47:03.997Z</time></trkpt><trkpt lat="44.8560917" lon="9.0889317"><ele>266.0</ele><time>2026-04-25T08:47:04.992Z</time></trkpt><trkpt lat="44.8560717" lon="9.0890783"><ele>266.0</ele><time>2026-04-25T08:47:05.995Z</time></trkpt><trkpt lat="44.85605" lon="9.0892283"><ele>265.6</ele><time>2026-04-25T08:47:06.993Z</time></trkpt><trkpt lat="44.8560233" lon="9.0893783"><ele>265.20000000000005</ele><time>2026-04-25T08:47:07.997Z</time></trkpt><trkpt lat="44.8559867" lon="9.0895233"><ele>264.79999999999995</ele><time>2026-04-25T08:47:08.995Z</time></trkpt><trkpt lat="44.8559417" lon="9.089665"><ele>264.4</ele><time>2026-04-25T08:47:09.998Z</time></trkpt><trkpt lat="44.855885" lon="9.0898033"><ele>264.0</ele><time>2026-04-25T08:47:10.992Z</time></trkpt><trkpt lat="44.8558133" lon="9.0899367"><ele>264.0</ele><time>2026-04-25T08:47:11.999Z</time></trkpt><trkpt lat="44.85574" lon="9.09006"><ele>264.0</ele><time>2026-04-25T08:47:12.995Z</time></trkpt><trkpt lat="44.8556633" lon="9.0901833"><ele>264.0</ele><time>2026-04-25T08:47:13.994Z</time></trkpt><trkpt lat="44.8555833" lon="9.0903"><ele>264.0</ele><time>2026-04-25T08:47:14.997Z</time></trkpt><trkpt lat="44.8554967" lon="9.0904167"><ele>264.0</ele><time>2026-04-25T08:47:15.994Z</time></trkpt><trkpt lat="44.855415" lon="9.09054"><ele>264.0</ele><time>2026-04-25T08:47:16.996Z</time></trkpt><trkpt lat="44.8553317" lon="9.090655"><ele>264.0</ele><time>2026-04-25T08:47:17.992Z</time></trkpt><trkpt lat="44.85525" lon="9.0907667"><ele>264.0</ele><time>2026-04-25T08:47:18.996Z</time></trkpt><trkpt lat="44.8551733" lon="9.0908817"><ele>262.75</ele><time>2026-04-25T08:47:19.995Z</time></trkpt><trkpt lat="44.8551" lon="9.0910017"><ele>261.5</ele><time>2026-04-25T08:47:20.998Z</time></trkpt><trkpt lat="44.85504" lon="9.0911383"><ele>260.25</ele><time>2026-04-25T08:47:21.997Z</time></trkpt><trkpt lat="44.8549917" lon="9.0912817"><ele>259.0</ele><time>2026-04-25T08:47:22.997Z</time></trkpt><trkpt lat="44.8549617" lon="9.0914383"><ele>259.75</ele><time>2026-04-25T08:47:23.993Z</time></trkpt><trkpt lat="44.8549417" lon="9.0916017"><ele>260.5</ele><time>2026-04-25T08:47:24.994Z</time></trkpt><trkpt lat="44.8549317" lon="9.0917667"><ele>261.25</ele><time>2026-04-25T08:47:25.996Z</time></trkpt><trkpt lat="44.85492" lon="9.0919383"><ele>262.0</ele><time>2026-04-25T08:47:26.997Z</time></trkpt><trkpt lat="44.85491" lon="9.0921083"><ele>262.0</ele><time>2026-04-25T08:47:27.997Z</time></trkpt><trkpt lat="44.8548983" lon="9.09228"><ele>262.0</ele><time>2026-04-25T08:47:28.998Z</time></trkpt><trkpt lat="44.854895" lon="9.0924467"><ele>262.0</ele><time>2026-04-25T08:47:29.998Z</time></trkpt><trkpt lat="44.8548933" lon="9.09261"><ele>262.0</ele><time>2026-04-25T08:47:30.998Z</time></trkpt><trkpt lat="44.8548983" lon="9.092785"><ele>262.5</ele><time>2026-04-25T08:47:31.997Z</time></trkpt><trkpt lat="44.8549" lon="9.0929533"><ele>263.0</ele><time>2026-04-25T08:47:32.992Z</time></trkpt><trkpt lat="44.8548967" lon="9.0931217"><ele>263.5</ele><time>2026-04-25T08:47:33.993Z</time></trkpt><trkpt lat="44.8548933" lon="9.0932933"><ele>264.0</ele><time>2026-04-25T08:47:34.992Z</time></trkpt><trkpt lat="44.8548883" lon="9.09346"><ele>264.25</ele><time>2026-04-25T08:47:35.993Z</time></trkpt><trkpt lat="44.8548833" lon="9.093625"><ele>264.5</ele><time>2026-04-25T08:47:36.996Z</time></trkpt><trkpt lat="44.854875" lon="9.093785"><ele>264.75</ele><time>2026-04-25T08:47:37.993Z</time></trkpt><trkpt lat="44.854865" lon="9.0939483"><ele>265.0</ele><time>2026-04-25T08:47:38.995Z</time></trkpt><trkpt lat="44.85485" lon="9.09411"><ele>265.0</ele><time>2026-04-25T08:47:39.995Z</time></trkpt><trkpt lat="44.8548267" lon="9.0942717"><ele>265.0</ele><time>2026-04-25T08:47:40.997Z</time></trkpt><trkpt lat="44.8547917" lon="9.0944383"><ele>265.0</ele><time>2026-04-25T08:47:41.994Z</time></trkpt><trkpt lat="44.8547417" lon="9.0945933"><ele>265.0</ele><time>2026-04-25T08:47:42.995Z</time></trkpt><trkpt lat="44.8546767" lon="9.094735"><ele>265.0</ele><time>2026-04-25T08:47:43.996Z</time></trkpt><trkpt lat="44.8545983" lon="9.09486"><ele>265.0</ele><time>2026-04-25T08:47:44.994Z</time></trkpt><trkpt lat="44.854505" lon="9.0949633"><ele>265.0</ele><time>2026-04-25T08:47:45.994Z</time></trkpt><trkpt lat="44.8544017" lon="9.0950567"><ele>265.0</ele><time>2026-04-25T08:47:46.995Z</time></trkpt><trkpt lat="44.8542933" lon="9.0951467"><ele>264.5</ele><time>2026-04-25T08:47:47.994Z</time></trkpt><trkpt lat="44.85418" lon="9.0952433"><ele>264.0</ele><time>2026-04-25T08:47:48.996Z</time></trkpt><trkpt lat="44.8540683" lon="9.09533"><ele>263.5</ele><time>2026-04-25T08:47:49.993Z</time></trkpt><trkpt lat="44.8539633" lon="9.0954067"><ele>263.0</ele><time>2026-04-25T08:47:50.998Z</time></trkpt><trkpt lat="44.853865" lon="9.0954783"><ele>263.0</ele><time>2026-04-25T08:47:51.997Z</time></trkpt><trkpt lat="44.8537733" lon="9.0955417"><ele>263.0</ele><time>2026-04-25T08:47:52.994Z</time></trkpt><trkpt lat="44.8536817" lon="9.0956067"><ele>263.0</ele><time>2026-04-25T08:47:53.995Z</time></trkpt><trkpt lat="44.8535933" lon="9.0956683"><ele>263.0</ele><time>2026-04-25T08:47:54.998Z</time></trkpt><trkpt lat="44.8535" lon="9.0957367"><ele>263.0</ele><time>2026-04-25T08:47:55.993Z</time></trkpt><trkpt lat="44.8534067" lon="9.095805"><ele>263.6</ele><time>2026-04-25T08:47:56.995Z</time></trkpt><trkpt lat="44.8533117" lon="9.0958733"><ele>264.20000000000005</ele><time>2026-04-25T08:47:57.992Z</time></trkpt><trkpt lat="44.8532183" lon="9.0959417"><ele>264.8</ele><time>2026-04-25T08:47:59Z</time></trkpt><trkpt lat="44.8531267" lon="9.0960083"><ele>265.40000000000003</ele><time>2026-04-25T08:47:59.993Z</time></trkpt><trkpt lat="44.8530333" lon="9.0960717"><ele>266.0</ele><time>2026-04-25T08:48:00.993Z</time></trkpt><trkpt lat="44.85294" lon="9.0961383"><ele>266.0</ele><time>2026-04-25T08:48:01.993Z</time></trkpt><trkpt lat="44.8528467" lon="9.0962017"><ele>266.0</ele><time>2026-04-25T08:48:02.998Z</time></trkpt><trkpt lat="44.852755" lon="9.09627"><ele>266.0</ele><time>2026-04-25T08:48:03.994Z</time></trkpt><trkpt lat="44.85266" lon="9.0963367"><ele>266.0</ele><time>2026-04-25T08:48:04.993Z</time></trkpt><trkpt lat="44.8525617" lon="9.0964"><ele>266.0</ele><time>2026-04-25T08:48:05.991Z</time></trkpt><trkpt lat="44.8524667" lon="9.0964633"><ele>265.8</ele><time>2026-04-25T08:48:06.993Z</time></trkpt><trkpt lat="44.852375" lon="9.0965317"><ele>265.6</ele><time>2026-04-25T08:48:07.996Z</time></trkpt><trkpt lat="44.8522883" lon="9.0966017"><ele>265.4</ele><time>2026-04-25T08:48:08.997Z</time></trkpt><trkpt lat="44.8522" lon="9.0966733"><ele>265.2</ele><time>2026-04-25T08:48:09.995Z</time></trkpt><trkpt lat="44.852115" lon="9.096735"><ele>265.0</ele><time>2026-04-25T08:48:10.994Z</time></trkpt><trkpt lat="44.8520467" lon="9.0967833"><ele>264.99999999999994</ele><time>2026-04-25T08:48:11.997Z</time></trkpt><trkpt lat="44.8519867" lon="9.0968267"><ele>265.0</ele><time>2026-04-25T08:48:12.995Z</time></trkpt><trkpt lat="44.85193" lon="9.09687"><ele>265.0</ele><time>2026-04-25T08:48:13.994Z</time></trkpt><trkpt lat="44.8518733" lon="9.096915"><ele>265.0</ele><time>2026-04-25T08:48:15.001Z</time></trkpt><trkpt lat="44.851815" lon="9.0969567"><ele>265.0</ele><time>2026-04-25T08:48:15.996Z</time></trkpt><trkpt lat="44.8517517" lon="9.097005"><ele>264.99999999999994</ele><time>2026-04-25T08:48:16.996Z</time></trkpt><trkpt lat="44.8516917" lon="9.0970483"><ele>265.0</ele><time>2026-04-25T08:48:18.001Z</time></trkpt><trkpt lat="44.8515883" lon="9.0971233"><ele>265.0</ele><time>2026-04-25T08:48:19.991Z</time></trkpt><trkpt lat="44.8515217" lon="9.0971683"><ele>265.0</ele><time>2026-04-25T08:48:21.996Z</time></trkpt><trkpt lat="44.851445" lon="9.0972183"><ele>265.0</ele><time>2026-04-25T08:48:25.002Z</time></trkpt><trkpt lat="44.8513883" lon="9.0972583"><ele>265.0</ele><time>2026-04-25T08:48:26.993Z</time></trkpt><trkpt lat="44.8512783" lon="9.09733"><ele>265.0</ele><time>2026-04-25T08:48:28.995Z</time></trkpt><trkpt lat="44.851215" lon="9.0973817"><ele>265.0</ele><time>2026-04-25T08:48:29.995Z</time></trkpt><trkpt lat="44.8511517" lon="9.097425"><ele>265.16666666666663</ele><time>2026-04-25T08:48:30.994Z</time></trkpt><trkpt lat="44.8510883" lon="9.0974733"><ele>265.3333333333333</ele><time>2026-04-25T08:48:31.994Z</time></trkpt><trkpt lat="44.8510217" lon="9.0975233"><ele>265.5</ele><time>2026-04-25T08:48:33Z</time></trkpt><trkpt lat="44.850945" lon="9.0975767"><ele>265.6666666666667</ele><time>2026-04-25T08:48:33.999Z</time></trkpt><trkpt lat="44.85086" lon="9.0976433"><ele>265.83333333333337</ele><time>2026-04-25T08:48:34.996Z</time></trkpt><trkpt lat="44.8507633" lon="9.0977033"><ele>266.0</ele><time>2026-04-25T08:48:35.995Z</time></trkpt><trkpt lat="44.8506733" lon="9.0977667"><ele>266.0</ele><time>2026-04-25T08:48:36.997Z</time></trkpt><trkpt lat="44.850585" lon="9.0978267"><ele>266.0</ele><time>2026-04-25T08:48:37.993Z</time></trkpt><trkpt lat="44.8504967" lon="9.0978933"><ele>266.0</ele><time>2026-04-25T08:48:38.997Z</time></trkpt><trkpt lat="44.850415" lon="9.0979683"><ele>266.0</ele><time>2026-04-25T08:48:39.998Z</time></trkpt><trkpt lat="44.85033" lon="9.0980433"><ele>266.0</ele><time>2026-04-25T08:48:40.996Z</time></trkpt><trkpt lat="44.8502383" lon="9.0981183"><ele>266.0</ele><time>2026-04-25T08:48:41.999Z</time></trkpt><trkpt lat="44.8501417" lon="9.098195"><ele>266.0</ele><time>2026-04-25T08:48:42.994Z</time></trkpt><trkpt lat="44.8500417" lon="9.0982667"><ele>266.0</ele><time>2026-04-25T08:48:43.995Z</time></trkpt><trkpt lat="44.8499417" lon="9.0983367"><ele>266.0</ele><time>2026-04-25T08:48:45Z</time></trkpt><trkpt lat="44.84984" lon="9.09841"><ele>266.0</ele><time>2026-04-25T08:48:45.996Z</time></trkpt><trkpt lat="44.8497267" lon="9.0984967"><ele>266.25</ele><time>2026-04-25T08:48:46.995Z</time></trkpt><trkpt lat="44.8495967" lon="9.09858"><ele>266.5</ele><time>2026-04-25T08:48:47.994Z</time></trkpt><trkpt lat="44.84947" lon="9.0986767"><ele>266.75</ele><time>2026-04-25T08:48:48.996Z</time></trkpt><trkpt lat="44.849345" lon="9.0987917"><ele>267.0</ele><time>2026-04-25T08:48:49.993Z</time></trkpt><trkpt lat="44.8492233" lon="9.0989317"><ele>268.6666666666667</ele><time>2026-04-25T08:48:50.994Z</time></trkpt><trkpt lat="44.8490933" lon="9.0990867"><ele>270.33333333333337</ele><time>2026-04-25T08:48:51.995Z</time></trkpt><trkpt lat="44.848965" lon="9.0992467"><ele>272.0</ele><time>2026-04-25T08:48:52.997Z</time></trkpt><trkpt lat="44.8488383" lon="9.099405"><ele>272.0</ele><time>2026-04-25T08:48:53.998Z</time></trkpt><trkpt lat="44.8487067" lon="9.0995633"><ele>272.0</ele><time>2026-04-25T08:48:55Z</time></trkpt><trkpt lat="44.8485733" lon="9.0997317"><ele>272.0</ele><time>2026-04-25T08:48:55.992Z</time></trkpt><trkpt lat="44.84844" lon="9.099905"><ele>271.33333333333337</ele><time>2026-04-25T08:48:56.991Z</time></trkpt><trkpt lat="44.8483133" lon="9.100075"><ele>270.6666666666667</ele><time>2026-04-25T08:48:57.999Z</time></trkpt><trkpt lat="44.848185" lon="9.1002417"><ele>270.0</ele><time>2026-04-25T08:48:59.001Z</time></trkpt><trkpt lat="44.8480583" lon="9.100405"><ele>270.0</ele><time>2026-04-25T08:48:59.997Z</time></trkpt><trkpt lat="44.847935" lon="9.1005633"><ele>270.0</ele><time>2026-04-25T08:49:00.992Z</time></trkpt><trkpt lat="44.847815" lon="9.100715"><ele>270.0</ele><time>2026-04-25T08:49:01.998Z</time></trkpt><trkpt lat="44.8477133" lon="9.1008767"><ele>270.25</ele><time>2026-04-25T08:49:03.002Z</time></trkpt><trkpt lat="44.8476067" lon="9.1010233"><ele>270.5</ele><time>2026-04-25T08:49:03.993Z</time></trkpt><trkpt lat="44.8475033" lon="9.1011633"><ele>270.75</ele><time>2026-04-25T08:49:04.994Z</time></trkpt><trkpt lat="44.8474067" lon="9.101295"><ele>271.0</ele><time>2026-04-25T08:49:05.992Z</time></trkpt><trkpt lat="44.8473433" lon="9.1013867"><ele>271.0</ele><time>2026-04-25T08:49:06.997Z</time></trkpt><trkpt lat="44.8472667" lon="9.1014967"><ele>271.0</ele><time>2026-04-25T08:49:09.003Z</time></trkpt><trkpt lat="44.8472017" lon="9.1015817"><ele>271.0</ele><time>2026-04-25T08:49:10.995Z</time></trkpt><trkpt lat="44.84712" lon="9.101685"><ele>271.0</ele><time>2026-04-25T08:49:12.997Z</time></trkpt><trkpt lat="44.8470717" lon="9.101755"><ele>271.0</ele><time>2026-04-25T08:49:13.994Z</time></trkpt><trkpt lat="44.8470217" lon="9.1018233"><ele>271.0</ele><time>2026-04-25T08:49:14.996Z</time></trkpt><trkpt lat="44.8469667" lon="9.1018967"><ele>271.6</ele><time>2026-04-25T08:49:15.998Z</time></trkpt><trkpt lat="44.846905" lon="9.1019767"><ele>272.20000000000005</ele><time>2026-04-25T08:49:17Z</time></trkpt><trkpt lat="44.8468333" lon="9.102075"><ele>272.79999999999995</ele><time>2026-04-25T08:49:17.995Z</time></trkpt><trkpt lat="44.8467617" lon="9.1021767"><ele>273.4</ele><time>2026-04-25T08:49:18.992Z</time></trkpt><trkpt lat="44.846685" lon="9.1022783"><ele>274.0</ele><time>2026-04-25T08:49:19.996Z</time></trkpt><trkpt lat="44.8466017" lon="9.102385"><ele>275.0</ele><time>2026-04-25T08:49:21.002Z</time></trkpt><trkpt lat="44.8465217" lon="9.1024917"><ele>276.0</ele><time>2026-04-25T08:49:21.993Z</time></trkpt><trkpt lat="44.84644" lon="9.1026033"><ele>277.0</ele><time>2026-04-25T08:49:22.996Z</time></trkpt><trkpt lat="44.8463567" lon="9.1027133"><ele>278.0</ele><time>2026-04-25T08:49:23.993Z</time></trkpt><trkpt lat="44.8462683" lon="9.1028267"><ele>278.0</ele><time>2026-04-25T08:49:24.999Z</time></trkpt><trkpt lat="44.8461733" lon="9.1029483"><ele>278.0</ele><time>2026-04-25T08:49:25.996Z</time></trkpt><trkpt lat="44.84608" lon="9.1030717"><ele>278.0</ele><time>2026-04-25T08:49:26.997Z</time></trkpt><trkpt lat="44.8459883" lon="9.1032033"><ele>278.0</ele><time>2026-04-25T08:49:27.993Z</time></trkpt><trkpt lat="44.845885" lon="9.10334"><ele>277.5</ele><time>2026-04-25T08:49:28.997Z</time></trkpt><trkpt lat="44.845785" lon="9.1034783"><ele>277.0</ele><time>2026-04-25T08:49:29.998Z</time></trkpt><trkpt lat="44.845685" lon="9.103615"><ele>276.5</ele><time>2026-04-25T08:49:30.994Z</time></trkpt><trkpt lat="44.8455883" lon="9.1037417"><ele>276.0</ele><time>2026-04-25T08:49:31.992Z</time></trkpt><trkpt lat="44.8454933" lon="9.1038683"><ele>276.0</ele><time>2026-04-25T08:49:32.999Z</time></trkpt><trkpt lat="44.8453933" lon="9.1039983"><ele>276.0</ele><time>2026-04-25T08:49:33.992Z</time></trkpt><trkpt lat="44.8452917" lon="9.1041333"><ele>276.0</ele><time>2026-04-25T08:49:34.995Z</time></trkpt><trkpt lat="44.8451867" lon="9.1042667"><ele>276.0</ele><time>2026-04-25T08:49:35.999Z</time></trkpt><trkpt lat="44.84508" lon="9.1044017"><ele>276.75</ele><time>2026-04-25T08:49:36.995Z</time></trkpt><trkpt lat="44.8449767" lon="9.1045433"><ele>277.5</ele><time>2026-04-25T08:49:37.995Z</time></trkpt><trkpt lat="44.844875" lon="9.1046867"><ele>278.25</ele><time>2026-04-25T08:49:38.993Z</time></trkpt><trkpt lat="44.8447683" lon="9.1048283"><ele>279.0</ele><time>2026-04-25T08:49:39.998Z</time></trkpt><trkpt lat="44.84465" lon="9.1049667"><ele>279.5</ele><time>2026-04-25T08:49:40.993Z</time></trkpt><trkpt lat="44.8445367" lon="9.1050983"><ele>280.0</ele><time>2026-04-25T08:49:41.993Z</time></trkpt><trkpt lat="44.8444267" lon="9.105245"><ele>280.5</ele><time>2026-04-25T08:49:42.996Z</time></trkpt><trkpt lat="44.8443217" lon="9.1053883"><ele>281.0</ele><time>2026-04-25T08:49:43.997Z</time></trkpt><trkpt lat="44.8442167" lon="9.1055383"><ele>281.0</ele><time>2026-04-25T08:49:44.996Z</time></trkpt><trkpt lat="44.8441133" lon="9.1056883"><ele>281.0</ele><time>2026-04-25T08:49:45.997Z</time></trkpt><trkpt lat="44.8440083" lon="9.1058333"><ele>281.0</ele><time>2026-04-25T08:49:46.993Z</time></trkpt><trkpt lat="44.843905" lon="9.10597"><ele>281.0</ele><time>2026-04-25T08:49:47.993Z</time></trkpt><trkpt lat="44.8438083" lon="9.1061033"><ele>281.5</ele><time>2026-04-25T08:49:48.994Z</time></trkpt><trkpt lat="44.843715" lon="9.10623"><ele>282.0</ele><time>2026-04-25T08:49:49.994Z</time></trkpt><trkpt lat="44.8436233" lon="9.1063583"><ele>282.5</ele><time>2026-04-25T08:49:50.994Z</time></trkpt><trkpt lat="44.8435283" lon="9.1064867"><ele>283.0</ele><time>2026-04-25T08:49:51.996Z</time></trkpt><trkpt lat="44.8434317" lon="9.1066117"><ele>283.25</ele><time>2026-04-25T08:49:52.998Z</time></trkpt><trkpt lat="44.84333" lon="9.1067383"><ele>283.5</ele><time>2026-04-25T08:49:53.994Z</time></trkpt><trkpt lat="44.8432317" lon="9.1068733"><ele>283.75</ele><time>2026-04-25T08:49:54.995Z</time></trkpt><trkpt lat="44.8431367" lon="9.1070033"><ele>284.0</ele><time>2026-04-25T08:49:55.995Z</time></trkpt><trkpt lat="44.843035" lon="9.107125"><ele>284.0</ele><time>2026-04-25T08:49:56.997Z</time></trkpt><trkpt lat="44.8429383" lon="9.1072517"><ele>284.0</ele><time>2026-04-25T08:49:57.993Z</time></trkpt><trkpt lat="44.8428433" lon="9.1073767"><ele>284.0</ele><time>2026-04-25T08:49:58.993Z</time></trkpt><trkpt lat="44.8427417" lon="9.1074917"><ele>284.0</ele><time>2026-04-25T08:49:59.994Z</time></trkpt><trkpt lat="44.8426433" lon="9.1076167"><ele>283.75</ele><time>2026-04-25T08:50:00.994Z</time></trkpt><trkpt lat="44.8425433" lon="9.10775"><ele>283.5</ele><time>2026-04-25T08:50:01.998Z</time></trkpt><trkpt lat="44.8424467" lon="9.1078833"><ele>283.25</ele><time>2026-04-25T08:50:02.996Z</time></trkpt><trkpt lat="44.8423533" lon="9.1080133"><ele>283.0</ele><time>2026-04-25T08:50:03.995Z</time></trkpt><trkpt lat="44.8422583" lon="9.1081417"><ele>284.5</ele><time>2026-04-25T08:50:04.995Z</time></trkpt><trkpt lat="44.8421633" lon="9.10827"><ele>286.0</ele><time>2026-04-25T08:50:05.997Z</time></trkpt><trkpt lat="44.8420717" lon="9.1083983"><ele>287.5</ele><time>2026-04-25T08:50:06.999Z</time></trkpt><trkpt lat="44.8419733" lon="9.1085217"><ele>289.0</ele><time>2026-04-25T08:50:07.994Z</time></trkpt><trkpt lat="44.8418733" lon="9.1086467"><ele>289.0</ele><time>2026-04-25T08:50:08.995Z</time></trkpt><trkpt lat="44.8417717" lon="9.1087733"><ele>289.0</ele><time>2026-04-25T08:50:09.993Z</time></trkpt><trkpt lat="44.841665" lon="9.1088967"><ele>289.0</ele><time>2026-04-25T08:50:10.996Z</time></trkpt><trkpt lat="44.841555" lon="9.1090183"><ele>289.0</ele><time>2026-04-25T08:50:11.995Z</time></trkpt><trkpt lat="44.84144" lon="9.1091333"><ele>289.0</ele><time>2026-04-25T08:50:12.993Z</time></trkpt><trkpt lat="44.8413133" lon="9.1092367"><ele>289.0</ele><time>2026-04-25T08:50:13.993Z</time></trkpt><trkpt lat="44.8411767" lon="9.1093317"><ele>289.0</ele><time>2026-04-25T08:50:14.995Z</time></trkpt><trkpt lat="44.841035" lon="9.1094317"><ele>288.3333333333333</ele><time>2026-04-25T08:50:15.996Z</time></trkpt><trkpt lat="44.8409017" lon="9.1095317"><ele>287.6666666666667</ele><time>2026-04-25T08:50:16.989Z</time></trkpt><trkpt lat="44.84076" lon="9.1096267"><ele>287.0</ele><time>2026-04-25T08:50:17.996Z</time></trkpt><trkpt lat="44.8406133" lon="9.10972"><ele>287.0</ele><time>2026-04-25T08:50:18.998Z</time></trkpt><trkpt lat="44.8404633" lon="9.1098117"><ele>287.0</ele><time>2026-04-25T08:50:19.996Z</time></trkpt><trkpt lat="44.8403117" lon="9.1099017"><ele>287.0</ele><time>2026-04-25T08:50:20.999Z</time></trkpt><trkpt lat="44.840165" lon="9.1099983"><ele>287.0</ele><time>2026-04-25T08:50:21.993Z</time></trkpt><trkpt lat="44.84002" lon="9.1100883"><ele>287.0</ele><time>2026-04-25T08:50:23Z</time></trkpt><trkpt lat="44.8398717" lon="9.1101767"><ele>287.0</ele><time>2026-04-25T08:50:23.998Z</time></trkpt><trkpt lat="44.839715" lon="9.1102617"><ele>287.0</ele><time>2026-04-25T08:50:24.997Z</time></trkpt><trkpt lat="44.8395583" lon="9.11035"><ele>287.0</ele><time>2026-04-25T08:50:26.001Z</time></trkpt><trkpt lat="44.8394017" lon="9.110445"><ele>287.0</ele><time>2026-04-25T08:50:26.998Z</time></trkpt><trkpt lat="44.8392433" lon="9.1105417"><ele>287.0</ele><time>2026-04-25T08:50:28Z</time></trkpt><trkpt lat="44.8390817" lon="9.1106383"><ele>287.0</ele><time>2026-04-25T08:50:28.999Z</time></trkpt><trkpt lat="44.8389183" lon="9.110735"><ele>287.0</ele><time>2026-04-25T08:50:29.997Z</time></trkpt><trkpt lat="44.8387533" lon="9.1108333"><ele>287.0</ele><time>2026-04-25T08:50:30.994Z</time></trkpt><trkpt lat="44.8385933" lon="9.11093"><ele>287.0</ele><time>2026-04-25T08:50:31.999Z</time></trkpt><trkpt lat="44.8384333" lon="9.1110283"><ele>287.0</ele><time>2026-04-25T08:50:32.994Z</time></trkpt><trkpt lat="44.8382767" lon="9.111125"><ele>287.0</ele><time>2026-04-25T08:50:34Z</time></trkpt><trkpt lat="44.8381183" lon="9.11122"><ele>287.0</ele><time>2026-04-25T08:50:34.995Z</time></trkpt><trkpt lat="44.8379633" lon="9.1113133"><ele>287.0</ele><time>2026-04-25T08:50:35.997Z</time></trkpt><trkpt lat="44.83781" lon="9.1114"><ele>287.0</ele><time>2026-04-25T08:50:36.996Z</time></trkpt><trkpt lat="44.8376583" lon="9.11149"><ele>287.0</ele><time>2026-04-25T08:50:37.994Z</time></trkpt><trkpt lat="44.83751" lon="9.111585"><ele>287.0</ele><time>2026-04-25T08:50:38.996Z</time></trkpt><trkpt lat="44.8373617" lon="9.1116767"><ele>288.33333333333337</ele><time>2026-04-25T08:50:39.996Z</time></trkpt><trkpt lat="44.837215" lon="9.111765"><ele>289.6666666666667</ele><time>2026-04-25T08:50:40.998Z</time></trkpt><trkpt lat="44.8370733" lon="9.1118433"><ele>291.0</ele><time>2026-04-25T08:50:41.996Z</time></trkpt><trkpt lat="44.836935" lon="9.111925"><ele>290.75</ele><time>2026-04-25T08:50:42.997Z</time></trkpt><trkpt lat="44.8368" lon="9.1120267"><ele>290.5</ele><time>2026-04-25T08:50:43.998Z</time></trkpt><trkpt lat="44.836675" lon="9.1121367"><ele>290.25</ele><time>2026-04-25T08:50:44.999Z</time></trkpt><trkpt lat="44.8365583" lon="9.112265"><ele>290.0</ele><time>2026-04-25T08:50:45.996Z</time></trkpt><trkpt lat="44.836455" lon="9.1124217"><ele>291.0</ele><time>2026-04-25T08:50:46.999Z</time></trkpt><trkpt lat="44.836365" lon="9.1126017"><ele>292.0</ele><time>2026-04-25T08:50:47.999Z</time></trkpt><trkpt lat="44.8362817" lon="9.1127867"><ele>293.0</ele><time>2026-04-25T08:50:48.995Z</time></trkpt><trkpt lat="44.8362067" lon="9.1129833"><ele>293.0</ele><time>2026-04-25T08:50:49.995Z</time></trkpt><trkpt lat="44.8361317" lon="9.11317"><ele>293.0</ele><time>2026-04-25T08:50:50.999Z</time></trkpt><trkpt lat="44.8360567" lon="9.1133583"><ele>293.0</ele><time>2026-04-25T08:50:52Z</time></trkpt><trkpt lat="44.8359867" lon="9.1135517"><ele>292.5</ele><time>2026-04-25T08:50:52.999Z</time></trkpt><trkpt lat="44.83592" lon="9.113735"><ele>292.0</ele><time>2026-04-25T08:50:53.995Z</time></trkpt><trkpt lat="44.8358533" lon="9.1139183"><ele>291.5</ele><time>2026-04-25T08:50:54.996Z</time></trkpt><trkpt lat="44.83579" lon="9.1140967"><ele>291.0</ele><time>2026-04-25T08:50:56.002Z</time></trkpt><trkpt lat="44.8357267" lon="9.1142767"><ele>291.0</ele><time>2026-04-25T08:50:56.994Z</time></trkpt><trkpt lat="44.83566" lon="9.11446"><ele>291.0</ele><time>2026-04-25T08:50:57.996Z</time></trkpt><trkpt lat="44.83558" lon="9.114645"><ele>291.0</ele><time>2026-04-25T08:50:58.997Z</time></trkpt><trkpt lat="44.8354933" lon="9.1148367"><ele>291.3333333333333</ele><time>2026-04-25T08:50:59.995Z</time></trkpt><trkpt lat="44.8354067" lon="9.1150267"><ele>291.66666666666663</ele><time>2026-04-25T08:51:00.998Z</time></trkpt><trkpt lat="44.8353083" lon="9.115215"><ele>292.0</ele><time>2026-04-25T08:51:01.995Z</time></trkpt><trkpt lat="44.8352017" lon="9.1154"><ele>292.0</ele><time>2026-04-25T08:51:02.997Z</time></trkpt><trkpt lat="44.8350867" lon="9.1155817"><ele>292.0</ele><time>2026-04-25T08:51:03.994Z</time></trkpt><trkpt lat="44.834975" lon="9.1157633"><ele>292.0</ele><time>2026-04-25T08:51:05.002Z</time></trkpt><trkpt lat="44.83486" lon="9.1159467"><ele>294.3333333333333</ele><time>2026-04-25T08:51:06.011Z</time></trkpt><trkpt lat="44.8347483" lon="9.1161217"><ele>296.6666666666667</ele><time>2026-04-25T08:51:07.002Z</time></trkpt><trkpt lat="44.83464" lon="9.1162983"><ele>299.0</ele><time>2026-04-25T08:51:07.998Z</time></trkpt><trkpt lat="44.8345233" lon="9.1164767"><ele>298.33333333333337</ele><time>2026-04-25T08:51:08.991Z</time></trkpt><trkpt lat="44.834405" lon="9.116645"><ele>297.6666666666667</ele><time>2026-04-25T08:51:09.996Z</time></trkpt><trkpt lat="44.8342733" lon="9.1167967"><ele>297.0</ele><time>2026-04-25T08:51:10.997Z</time></trkpt><trkpt lat="44.8341267" lon="9.1169233"><ele>297.0</ele><time>2026-04-25T08:51:11.997Z</time></trkpt><trkpt lat="44.83397" lon="9.1170283"><ele>297.0</ele><time>2026-04-25T08:51:12.997Z</time></trkpt><trkpt lat="44.8338133" lon="9.1171283"><ele>297.0</ele><time>2026-04-25T08:51:13.998Z</time></trkpt><trkpt lat="44.8336617" lon="9.1172317"><ele>297.0</ele><time>2026-04-25T08:51:14.995Z</time></trkpt><trkpt lat="44.8335133" lon="9.1173317"><ele>297.0</ele><time>2026-04-25T08:51:15.998Z</time></trkpt><trkpt lat="44.8333633" lon="9.11743"><ele>297.0</ele><time>2026-04-25T08:51:16.995Z</time></trkpt><trkpt lat="44.83321" lon="9.11753"><ele>298.6666666666667</ele><time>2026-04-25T08:51:17.997Z</time></trkpt><trkpt lat="44.8330583" lon="9.11763"><ele>300.33333333333337</ele><time>2026-04-25T08:51:19.001Z</time></trkpt><trkpt lat="44.832905" lon="9.1177267"><ele>302.0</ele><time>2026-04-25T08:51:19.995Z</time></trkpt><trkpt lat="44.8327517" lon="9.1178283"><ele>300.6666666666667</ele><time>2026-04-25T08:51:20.995Z</time></trkpt><trkpt lat="44.8326033" lon="9.1179283"><ele>299.3333333333333</ele><time>2026-04-25T08:51:21.995Z</time></trkpt><trkpt lat="44.8324617" lon="9.1180183"><ele>298.0</ele><time>2026-04-25T08:51:22.996Z</time></trkpt><trkpt lat="44.832325" lon="9.118105"><ele>298.0</ele><time>2026-04-25T08:51:23.994Z</time></trkpt><trkpt lat="44.8321833" lon="9.1181733"><ele>298.0</ele><time>2026-04-25T08:51:24.998Z</time></trkpt><trkpt lat="44.83204" lon="9.1182217"><ele>298.0</ele><time>2026-04-25T08:51:25.992Z</time></trkpt><trkpt lat="44.8318917" lon="9.1182367"><ele>298.0</ele><time>2026-04-25T08:51:26.997Z</time></trkpt><trkpt lat="44.8317433" lon="9.1182383"><ele>298.0</ele><time>2026-04-25T08:51:27.994Z</time></trkpt><trkpt lat="44.8315933" lon="9.1182333"><ele>298.0</ele><time>2026-04-25T08:51:28.999Z</time></trkpt><trkpt lat="44.8314417" lon="9.1182367"><ele>298.0</ele><time>2026-04-25T08:51:30.001Z</time></trkpt><trkpt lat="44.831295" lon="9.1182583"><ele>298.0</ele><time>2026-04-25T08:51:31.003Z</time></trkpt><trkpt lat="44.8311583" lon="9.1183033"><ele>298.0</ele><time>2026-04-25T08:51:32Z</time></trkpt><trkpt lat="44.831015" lon="9.1183583"><ele>298.0</ele><time>2026-04-25T08:51:32.997Z</time></trkpt><trkpt lat="44.8308817" lon="9.1184417"><ele>298.0</ele><time>2026-04-25T08:51:33.995Z</time></trkpt><trkpt lat="44.8307583" lon="9.1185633"><ele>298.0</ele><time>2026-04-25T08:51:34.995Z</time></trkpt><trkpt lat="44.83065" lon="9.1187133"><ele>299.66666666666663</ele><time>2026-04-25T08:51:36.001Z</time></trkpt><trkpt lat="44.8305617" lon="9.11889"><ele>301.3333333333333</ele><time>2026-04-25T08:51:37.002Z</time></trkpt><trkpt lat="44.8304817" lon="9.1190717"><ele>303.0</ele><time>2026-04-25T08:51:37.999Z</time></trkpt><trkpt lat="44.8303933" lon="9.1192517"><ele>302.6666666666667</ele><time>2026-04-25T08:51:38.999Z</time></trkpt><trkpt lat="44.8303117" lon="9.1194367"><ele>302.33333333333337</ele><time>2026-04-25T08:51:39.994Z</time></trkpt><trkpt lat="44.8302267" lon="9.1196217"><ele>302.0</ele><time>2026-04-25T08:51:40.996Z</time></trkpt><trkpt lat="44.83014" lon="9.1198033"><ele>303.33333333333337</ele><time>2026-04-25T08:51:41.999Z</time></trkpt><trkpt lat="44.8300433" lon="9.1199733"><ele>304.6666666666667</ele><time>2026-04-25T08:51:42.996Z</time></trkpt><trkpt lat="44.8299317" lon="9.12012"><ele>306.0</ele><time>2026-04-25T08:51:43.994Z</time></trkpt><trkpt lat="44.8298083" lon="9.12025"><ele>306.0</ele><time>2026-04-25T08:51:44.996Z</time></trkpt><trkpt lat="44.8296783" lon="9.1203517"><ele>306.0</ele><time>2026-04-25T08:51:45.994Z</time></trkpt><trkpt lat="44.8295417" lon="9.1204367"><ele>306.0</ele><time>2026-04-25T08:51:46.999Z</time></trkpt><trkpt lat="44.8294" lon="9.1205067"><ele>306.0</ele><time>2026-04-25T08:51:47.996Z</time></trkpt><trkpt lat="44.829255" lon="9.12056"><ele>305.25</ele><time>2026-04-25T08:51:48.994Z</time></trkpt><trkpt lat="44.8291133" lon="9.1206117"><ele>304.5</ele><time>2026-04-25T08:51:49.994Z</time></trkpt><trkpt lat="44.8289717" lon="9.1206633"><ele>303.75</ele><time>2026-04-25T08:51:50.996Z</time></trkpt><trkpt lat="44.828835" lon="9.1207133"><ele>303.0</ele><time>2026-04-25T08:51:51.997Z</time></trkpt><trkpt lat="44.828705" lon="9.12076"><ele>304.25</ele><time>2026-04-25T08:51:52.995Z</time></trkpt><trkpt lat="44.82858" lon="9.1208067"><ele>305.5</ele><time>2026-04-25T08:51:53.997Z</time></trkpt><trkpt lat="44.828455" lon="9.1208567"><ele>306.75</ele><time>2026-04-25T08:51:54.999Z</time></trkpt><trkpt lat="44.8283317" lon="9.1209017"><ele>308.0</ele><time>2026-04-25T08:51:55.997Z</time></trkpt><trkpt lat="44.8282067" lon="9.12095"><ele>308.0</ele><time>2026-04-25T08:51:56.999Z</time></trkpt><trkpt lat="44.8280817" lon="9.1209983"><ele>308.0</ele><time>2026-04-25T08:51:57.996Z</time></trkpt><trkpt lat="44.8279583" lon="9.1210517"><ele>308.0</ele><time>2026-04-25T08:51:58.994Z</time></trkpt><trkpt lat="44.8278383" lon="9.1211117"><ele>308.0</ele><time>2026-04-25T08:51:59.996Z</time></trkpt><trkpt lat="44.82772" lon="9.121165"><ele>306.5</ele><time>2026-04-25T08:52:00.999Z</time></trkpt><trkpt lat="44.8276083" lon="9.1212267"><ele>305.0</ele><time>2026-04-25T08:52:01.999Z</time></trkpt><trkpt lat="44.827505" lon="9.121295"><ele>303.5</ele><time>2026-04-25T08:52:02.994Z</time></trkpt><trkpt lat="44.82741" lon="9.1213717"><ele>302.0</ele><time>2026-04-25T08:52:03.999Z</time></trkpt><trkpt lat="44.827315" lon="9.1214483"><ele>302.0</ele><time>2026-04-25T08:52:04.999Z</time></trkpt><trkpt lat="44.82722" lon="9.12153"><ele>302.0</ele><time>2026-04-25T08:52:05.99Z</time></trkpt><trkpt lat="44.8271267" lon="9.1216183"><ele>302.0</ele><time>2026-04-25T08:52:06.998Z</time></trkpt><trkpt lat="44.827035" lon="9.1217083"><ele>302.0</ele><time>2026-04-25T08:52:07.994Z</time></trkpt><trkpt lat="44.8269417" lon="9.121805"><ele>303.25</ele><time>2026-04-25T08:52:08.993Z</time></trkpt><trkpt lat="44.8268417" lon="9.1218967"><ele>304.5</ele><time>2026-04-25T08:52:09.992Z</time></trkpt><trkpt lat="44.826745" lon="9.1219883"><ele>305.75</ele><time>2026-04-25T08:52:10.996Z</time></trkpt><trkpt lat="44.8266467" lon="9.122075"><ele>307.0</ele><time>2026-04-25T08:52:11.994Z</time></trkpt><trkpt lat="44.8265517" lon="9.1221683"><ele>307.0</ele><time>2026-04-25T08:52:12.995Z</time></trkpt><trkpt lat="44.8264633" lon="9.122265"><ele>307.0</ele><time>2026-04-25T08:52:13.994Z</time></trkpt><trkpt lat="44.8263833" lon="9.1223683"><ele>307.0</ele><time>2026-04-25T08:52:14.992Z</time></trkpt><trkpt lat="44.8262983" lon="9.122485"><ele>307.0</ele><time>2026-04-25T08:52:15.995Z</time></trkpt><trkpt lat="44.826215" lon="9.1226067"><ele>306.5</ele><time>2026-04-25T08:52:16.993Z</time></trkpt><trkpt lat="44.8261267" lon="9.1227333"><ele>306.0</ele><time>2026-04-25T08:52:17.992Z</time></trkpt><trkpt lat="44.8260483" lon="9.1228633"><ele>305.5</ele><time>2026-04-25T08:52:18.995Z</time></trkpt><trkpt lat="44.8259683" lon="9.122995"><ele>305.0</ele><time>2026-04-25T08:52:19.994Z</time></trkpt><trkpt lat="44.8258967" lon="9.1231283"><ele>305.75</ele><time>2026-04-25T08:52:20.994Z</time></trkpt><trkpt lat="44.8258233" lon="9.12327"><ele>306.5</ele><time>2026-04-25T08:52:21.998Z</time></trkpt><trkpt lat="44.8257467" lon="9.123415"><ele>307.25</ele><time>2026-04-25T08:52:22.994Z</time></trkpt><trkpt lat="44.82567" lon="9.1235533"><ele>308.0</ele><time>2026-04-25T08:52:23.992Z</time></trkpt><trkpt lat="44.8255917" lon="9.1236867"><ele>308.0</ele><time>2026-04-25T08:52:24.996Z</time></trkpt><trkpt lat="44.8255133" lon="9.12382"><ele>308.0</ele><time>2026-04-25T08:52:25.991Z</time></trkpt><trkpt lat="44.8254317" lon="9.1239517"><ele>308.0</ele><time>2026-04-25T08:52:26.998Z</time></trkpt><trkpt lat="44.8253567" lon="9.1240867"><ele>308.0</ele><time>2026-04-25T08:52:27.996Z</time></trkpt><trkpt lat="44.8252817" lon="9.1242183"><ele>308.25</ele><time>2026-04-25T08:52:28.996Z</time></trkpt><trkpt lat="44.825205" lon="9.1243567"><ele>308.5</ele><time>2026-04-25T08:52:29.995Z</time></trkpt><trkpt lat="44.8251267" lon="9.1244983"><ele>308.75</ele><time>2026-04-25T08:52:30.995Z</time></trkpt><trkpt lat="44.825045" lon="9.1246433"><ele>309.0</ele><time>2026-04-25T08:52:31.993Z</time></trkpt><trkpt lat="44.824965" lon="9.12479"><ele>309.25</ele><time>2026-04-25T08:52:32.993Z</time></trkpt><trkpt lat="44.82488" lon="9.1249417"><ele>309.5</ele><time>2026-04-25T08:52:33.995Z</time></trkpt><trkpt lat="44.8248017" lon="9.1250983"><ele>309.75</ele><time>2026-04-25T08:52:35Z</time></trkpt><trkpt lat="44.8247217" lon="9.1252467"><ele>310.0</ele><time>2026-04-25T08:52:35.995Z</time></trkpt><trkpt lat="44.8246383" lon="9.125395"><ele>310.0</ele><time>2026-04-25T08:52:36.992Z</time></trkpt><trkpt lat="44.8245517" lon="9.1255417"><ele>310.0</ele><time>2026-04-25T08:52:37.996Z</time></trkpt><trkpt lat="44.824465" lon="9.1256917"><ele>310.0</ele><time>2026-04-25T08:52:38.996Z</time></trkpt><trkpt lat="44.8243817" lon="9.12584"><ele>310.0</ele><time>2026-04-25T08:52:39.994Z</time></trkpt><trkpt lat="44.8242983" lon="9.12599"><ele>310.0</ele><time>2026-04-25T08:52:40.994Z</time></trkpt><trkpt lat="44.824215" lon="9.1261417"><ele>310.0</ele><time>2026-04-25T08:52:41.994Z</time></trkpt><trkpt lat="44.8241317" lon="9.1262933"><ele>310.0</ele><time>2026-04-25T08:52:42.996Z</time></trkpt><trkpt lat="44.8240467" lon="9.1264433"><ele>310.0</ele><time>2026-04-25T08:52:43.994Z</time></trkpt><trkpt lat="44.82396" lon="9.12659"><ele>310.25</ele><time>2026-04-25T08:52:44.994Z</time></trkpt><trkpt lat="44.8238733" lon="9.1267383"><ele>310.5</ele><time>2026-04-25T08:52:45.994Z</time></trkpt><trkpt lat="44.8237883" lon="9.1268867"><ele>310.75</ele><time>2026-04-25T08:52:46.994Z</time></trkpt><trkpt lat="44.8237033" lon="9.1270333"><ele>311.0</ele><time>2026-04-25T08:52:47.992Z</time></trkpt><trkpt lat="44.823615" lon="9.1271817"><ele>311.0</ele><time>2026-04-25T08:52:48.996Z</time></trkpt><trkpt lat="44.8235317" lon="9.127335"><ele>311.0</ele><time>2026-04-25T08:52:49.999Z</time></trkpt><trkpt lat="44.8234467" lon="9.1274983"><ele>311.0</ele><time>2026-04-25T08:52:50.996Z</time></trkpt><trkpt lat="44.82336" lon="9.12766"><ele>311.0</ele><time>2026-04-25T08:52:51.997Z</time></trkpt><trkpt lat="44.8232717" lon="9.127825"><ele>311.33333333333337</ele><time>2026-04-25T08:52:52.995Z</time></trkpt><trkpt lat="44.823185" lon="9.1279967"><ele>311.6666666666667</ele><time>2026-04-25T08:52:53.992Z</time></trkpt><trkpt lat="44.823095" lon="9.12817"><ele>312.0</ele><time>2026-04-25T08:52:54.995Z</time></trkpt><trkpt lat="44.8230067" lon="9.1283583"><ele>312.3333333333333</ele><time>2026-04-25T08:52:55.996Z</time></trkpt><trkpt lat="44.822935" lon="9.12856"><ele>312.66666666666663</ele><time>2026-04-25T08:52:56.999Z</time></trkpt><trkpt lat="44.8228667" lon="9.12876"><ele>313.0</ele><time>2026-04-25T08:52:57.998Z</time></trkpt><trkpt lat="44.822805" lon="9.1289717"><ele>315.0</ele><time>2026-04-25T08:52:59.001Z</time></trkpt><trkpt lat="44.822755" lon="9.1291867"><ele>317.0</ele><time>2026-04-25T08:52:59.997Z</time></trkpt><trkpt lat="44.82271" lon="9.1294067"><ele>319.0</ele><time>2026-04-25T08:53:00.996Z</time></trkpt><trkpt lat="44.8226733" lon="9.129625"><ele>319.0</ele><time>2026-04-25T08:53:01.999Z</time></trkpt><trkpt lat="44.82265" lon="9.1298517"><ele>319.0</ele><time>2026-04-25T08:53:02.995Z</time></trkpt><trkpt lat="44.822635" lon="9.1300817"><ele>319.0</ele><time>2026-04-25T08:53:03.998Z</time></trkpt><trkpt lat="44.8226217" lon="9.1303067"><ele>319.0</ele><time>2026-04-25T08:53:04.993Z</time></trkpt><trkpt lat="44.822615" lon="9.1305367"><ele>319.0</ele><time>2026-04-25T08:53:06.001Z</time></trkpt><trkpt lat="44.8226117" lon="9.130765"><ele>319.0</ele><time>2026-04-25T08:53:06.997Z</time></trkpt><trkpt lat="44.8226167" lon="9.1309917"><ele>318.66666666666663</ele><time>2026-04-25T08:53:07.996Z</time></trkpt><trkpt lat="44.822625" lon="9.131225"><ele>318.3333333333333</ele><time>2026-04-25T08:53:08.995Z</time></trkpt><trkpt lat="44.8226283" lon="9.1314517"><ele>318.0</ele><time>2026-04-25T08:53:09.994Z</time></trkpt><trkpt lat="44.8226433" lon="9.13168"><ele>321.3333333333333</ele><time>2026-04-25T08:53:10.997Z</time></trkpt><trkpt lat="44.822655" lon="9.1319017"><ele>324.66666666666663</ele><time>2026-04-25T08:53:11.997Z</time></trkpt><trkpt lat="44.8226667" lon="9.1321217"><ele>328.0</ele><time>2026-04-25T08:53:12.995Z</time></trkpt><trkpt lat="44.8226783" lon="9.1323417"><ele>328.25</ele><time>2026-04-25T08:53:13.993Z</time></trkpt><trkpt lat="44.8226883" lon="9.13255"><ele>328.5</ele><time>2026-04-25T08:53:14.995Z</time></trkpt><trkpt lat="44.8226967" lon="9.1327583"><ele>328.75</ele><time>2026-04-25T08:53:15.997Z</time></trkpt><trkpt lat="44.8227067" lon="9.1329633"><ele>329.0</ele><time>2026-04-25T08:53:16.994Z</time></trkpt><trkpt lat="44.8227183" lon="9.1331667"><ele>328.75</ele><time>2026-04-25T08:53:17.994Z</time></trkpt><trkpt lat="44.8227383" lon="9.13337"><ele>328.5</ele><time>2026-04-25T08:53:18.997Z</time></trkpt><trkpt lat="44.8227683" lon="9.133575"><ele>328.25</ele><time>2026-04-25T08:53:19.994Z</time></trkpt><trkpt lat="44.8228017" lon="9.133785"><ele>328.0</ele><time>2026-04-25T08:53:21Z</time></trkpt><trkpt lat="44.82284" lon="9.13399"><ele>328.0</ele><time>2026-04-25T08:53:21.996Z</time></trkpt><trkpt lat="44.822885" lon="9.134195"><ele>328.0</ele><time>2026-04-25T08:53:22.994Z</time></trkpt><trkpt lat="44.8229383" lon="9.1343967"><ele>328.0</ele><time>2026-04-25T08:53:23.998Z</time></trkpt><trkpt lat="44.82299" lon="9.1345917"><ele>328.0</ele><time>2026-04-25T08:53:24.997Z</time></trkpt><trkpt lat="44.8230533" lon="9.13478"><ele>328.0</ele><time>2026-04-25T08:53:26Z</time></trkpt><trkpt lat="44.8231217" lon="9.134965"><ele>328.0</ele><time>2026-04-25T08:53:27Z</time></trkpt><trkpt lat="44.8231883" lon="9.1351467"><ele>328.0</ele><time>2026-04-25T08:53:28Z</time></trkpt><trkpt lat="44.8232633" lon="9.1353333"><ele>328.0</ele><time>2026-04-25T08:53:28.998Z</time></trkpt><trkpt lat="44.823345" lon="9.1355383"><ele>328.0</ele><time>2026-04-25T08:53:29.998Z</time></trkpt><trkpt lat="44.8234183" lon="9.1357467"><ele>328.0</ele><time>2026-04-25T08:53:30.997Z</time></trkpt><trkpt lat="44.823485" lon="9.1359633"><ele>331.0</ele><time>2026-04-25T08:53:31.997Z</time></trkpt><trkpt lat="44.8235367" lon="9.1361833"><ele>334.0</ele><time>2026-04-25T08:53:33Z</time></trkpt><trkpt lat="44.8235767" lon="9.1364067"><ele>337.0</ele><time>2026-04-25T08:53:34Z</time></trkpt><trkpt lat="44.82361" lon="9.1366317"><ele>337.0</ele><time>2026-04-25T08:53:34.993Z</time></trkpt><trkpt lat="44.8236367" lon="9.1368633"><ele>337.0</ele><time>2026-04-25T08:53:35.996Z</time></trkpt><trkpt lat="44.8236517" lon="9.1371033"><ele>337.0</ele><time>2026-04-25T08:53:37.002Z</time></trkpt><trkpt lat="44.8236583" lon="9.1373567"><ele>335.66666666666663</ele><time>2026-04-25T08:53:37.993Z</time></trkpt><trkpt lat="44.8236533" lon="9.1376083"><ele>334.3333333333333</ele><time>2026-04-25T08:53:38.994Z</time></trkpt><trkpt lat="44.8236417" lon="9.1378633"><ele>333.0</ele><time>2026-04-25T08:53:39.993Z</time></trkpt><trkpt lat="44.8236267" lon="9.1381233"><ele>334.0</ele><time>2026-04-25T08:53:40.994Z</time></trkpt><trkpt lat="44.8236133" lon="9.1383833"><ele>335.0</ele><time>2026-04-25T08:53:41.993Z</time></trkpt><trkpt lat="44.8235933" lon="9.1386517"><ele>336.0</ele><time>2026-04-25T08:53:42.994Z</time></trkpt><trkpt lat="44.8235733" lon="9.1389167"><ele>337.6666666666667</ele><time>2026-04-25T08:53:43.994Z</time></trkpt><trkpt lat="44.82356" lon="9.1391783"><ele>339.33333333333337</ele><time>2026-04-25T08:53:44.996Z</time></trkpt><trkpt lat="44.8235467" lon="9.139435"><ele>341.0</ele><time>2026-04-25T08:53:46Z</time></trkpt><trkpt lat="44.8235367" lon="9.139695"><ele>341.0</ele><time>2026-04-25T08:53:47.003Z</time></trkpt><trkpt lat="44.8235367" lon="9.139955"><ele>341.0</ele><time>2026-04-25T08:53:47.997Z</time></trkpt><trkpt lat="44.8235433" lon="9.1402083"><ele>341.0</ele><time>2026-04-25T08:53:48.995Z</time></trkpt><trkpt lat="44.8235533" lon="9.1404633"><ele>341.33333333333337</ele><time>2026-04-25T08:53:49.999Z</time></trkpt><trkpt lat="44.8235717" lon="9.1407183"><ele>341.6666666666667</ele><time>2026-04-25T08:53:50.997Z</time></trkpt><trkpt lat="44.8235933" lon="9.140975"><ele>342.0</ele><time>2026-04-25T08:53:51.996Z</time></trkpt><trkpt lat="44.8236183" lon="9.1412233"><ele>342.0</ele><time>2026-04-25T08:53:53.002Z</time></trkpt><trkpt lat="44.8236467" lon="9.1414667"><ele>342.0</ele><time>2026-04-25T08:53:53.995Z</time></trkpt><trkpt lat="44.8236683" lon="9.1417133"><ele>342.0</ele><time>2026-04-25T08:53:54.996Z</time></trkpt><trkpt lat="44.8236917" lon="9.1419583"><ele>341.6666666666667</ele><time>2026-04-25T08:53:56.001Z</time></trkpt><trkpt lat="44.8237217" lon="9.1421983"><ele>341.33333333333337</ele><time>2026-04-25T08:53:57.001Z</time></trkpt><trkpt lat="44.8237517" lon="9.142435"><ele>341.0</ele><time>2026-04-25T08:53:58Z</time></trkpt><trkpt lat="44.82378" lon="9.1426767"><ele>340.0</ele><time>2026-04-25T08:53:58.992Z</time></trkpt><trkpt lat="44.8238083" lon="9.1429317"><ele>339.0</ele><time>2026-04-25T08:53:59.993Z</time></trkpt><trkpt lat="44.8238317" lon="9.1431933"><ele>338.0</ele><time>2026-04-25T08:54:00.995Z</time></trkpt><trkpt lat="44.8238517" lon="9.1434533"><ele>337.33333333333337</ele><time>2026-04-25T08:54:01.993Z</time></trkpt><trkpt lat="44.82387" lon="9.1437"><ele>336.6666666666667</ele><time>2026-04-25T08:54:02.996Z</time></trkpt><trkpt lat="44.8238883" lon="9.1439367"><ele>336.0</ele><time>2026-04-25T08:54:03.994Z</time></trkpt><trkpt lat="44.8239033" lon="9.1441683"><ele>335.6666666666667</ele><time>2026-04-25T08:54:04.995Z</time></trkpt><trkpt lat="44.82391" lon="9.144405"><ele>335.33333333333337</ele><time>2026-04-25T08:54:05.997Z</time></trkpt><trkpt lat="44.8239133" lon="9.1446383"><ele>335.0</ele><time>2026-04-25T08:54:07Z</time></trkpt><trkpt lat="44.823915" lon="9.1448583"><ele>335.5</ele><time>2026-04-25T08:54:08.001Z</time></trkpt><trkpt lat="44.8239133" lon="9.145065"><ele>336.0</ele><time>2026-04-25T08:54:08.996Z</time></trkpt><trkpt lat="44.8239067" lon="9.14527"><ele>336.5</ele><time>2026-04-25T08:54:09.996Z</time></trkpt><trkpt lat="44.823895" lon="9.145475"><ele>337.0</ele><time>2026-04-25T08:54:10.999Z</time></trkpt><trkpt lat="44.823885" lon="9.1456933"><ele>339.0</ele><time>2026-04-25T08:54:12.002Z</time></trkpt><trkpt lat="44.8238717" lon="9.1459217"><ele>341.0</ele><time>2026-04-25T08:54:12.995Z</time></trkpt><trkpt lat="44.8238567" lon="9.1461567"><ele>343.0</ele><time>2026-04-25T08:54:14.001Z</time></trkpt><trkpt lat="44.8238383" lon="9.1464083"><ele>343.66666666666663</ele><time>2026-04-25T08:54:14.999Z</time></trkpt><trkpt lat="44.8238183" lon="9.1466633"><ele>344.3333333333333</ele><time>2026-04-25T08:54:15.994Z</time></trkpt><trkpt lat="44.8237967" lon="9.1469033"><ele>345.0</ele><time>2026-04-25T08:54:16.995Z</time></trkpt><trkpt lat="44.8237733" lon="9.147135"><ele>345.0</ele><time>2026-04-25T08:54:17.998Z</time></trkpt><trkpt lat="44.8237483" lon="9.1473633"><ele>345.0</ele><time>2026-04-25T08:54:18.998Z</time></trkpt><trkpt lat="44.823725" lon="9.1475867"><ele>345.0</ele><time>2026-04-25T08:54:19.994Z</time></trkpt><trkpt lat="44.8237033" lon="9.1478167"><ele>344.3333333333333</ele><time>2026-04-25T08:54:20.996Z</time></trkpt><trkpt lat="44.8236767" lon="9.1480533"><ele>343.66666666666663</ele><time>2026-04-25T08:54:21.994Z</time></trkpt><trkpt lat="44.8236517" lon="9.14829"><ele>343.0</ele><time>2026-04-25T08:54:22.994Z</time></trkpt><trkpt lat="44.82363" lon="9.1485317"><ele>342.66666666666663</ele><time>2026-04-25T08:54:23.997Z</time></trkpt><trkpt lat="44.8236083" lon="9.1487733"><ele>342.3333333333333</ele><time>2026-04-25T08:54:25.005Z</time></trkpt><trkpt lat="44.82359" lon="9.14902"><ele>342.0</ele><time>2026-04-25T08:54:25.998Z</time></trkpt><trkpt lat="44.82357" lon="9.1492667"><ele>342.6666666666667</ele><time>2026-04-25T08:54:26.994Z</time></trkpt><trkpt lat="44.82355" lon="9.1495133"><ele>343.33333333333337</ele><time>2026-04-25T08:54:27.998Z</time></trkpt><trkpt lat="44.82353" lon="9.1497617"><ele>344.0</ele><time>2026-04-25T08:54:28.997Z</time></trkpt><trkpt lat="44.823515" lon="9.1500067"><ele>345.0</ele><time>2026-04-25T08:54:29.996Z</time></trkpt><trkpt lat="44.8234983" lon="9.150255"><ele>346.0</ele><time>2026-04-25T08:54:30.998Z</time></trkpt><trkpt lat="44.8234833" lon="9.1504933"><ele>347.0</ele><time>2026-04-25T08:54:32.001Z</time></trkpt><trkpt lat="44.82347" lon="9.1507283"><ele>344.6666666666667</ele><time>2026-04-25T08:54:33Z</time></trkpt><trkpt lat="44.8234617" lon="9.1509617"><ele>342.3333333333333</ele><time>2026-04-25T08:54:33.996Z</time></trkpt><trkpt lat="44.8234533" lon="9.15119"><ele>340.0</ele><time>2026-04-25T08:54:35Z</time></trkpt><trkpt lat="44.8234467" lon="9.151415"><ele>340.3333333333333</ele><time>2026-04-25T08:54:35.997Z</time></trkpt><trkpt lat="44.82344" lon="9.1516333"><ele>340.6666666666667</ele><time>2026-04-25T08:54:37.001Z</time></trkpt><trkpt lat="44.82343" lon="9.1518467"><ele>341.0</ele><time>2026-04-25T08:54:38Z</time></trkpt><trkpt lat="44.8234267" lon="9.1520617"><ele>341.0</ele><time>2026-04-25T08:54:38.998Z</time></trkpt><trkpt lat="44.823425" lon="9.1522733"><ele>341.0</ele><time>2026-04-25T08:54:40Z</time></trkpt><trkpt lat="44.8234183" lon="9.1524833"><ele>341.0</ele><time>2026-04-25T08:54:40.999Z</time></trkpt><trkpt lat="44.8234117" lon="9.152695"><ele>341.0</ele><time>2026-04-25T08:54:42.002Z</time></trkpt><trkpt lat="44.823405" lon="9.1529083"><ele>342.0</ele><time>2026-04-25T08:54:43Z</time></trkpt><trkpt lat="44.8234017" lon="9.1531167"><ele>343.0</ele><time>2026-04-25T08:54:44Z</time></trkpt><trkpt lat="44.823395" lon="9.1533167"><ele>344.0</ele><time>2026-04-25T08:54:44.995Z</time></trkpt><trkpt lat="44.82339" lon="9.153515"><ele>345.0</ele><time>2026-04-25T08:54:45.996Z</time></trkpt><trkpt lat="44.8233883" lon="9.1537167"><ele>345.0</ele><time>2026-04-25T08:54:47.002Z</time></trkpt><trkpt lat="44.8233867" lon="9.1539167"><ele>345.0</ele><time>2026-04-25T08:54:47.996Z</time></trkpt><trkpt lat="44.8233833" lon="9.1541183"><ele>345.0</ele><time>2026-04-25T08:54:48.998Z</time></trkpt><trkpt lat="44.8233733" lon="9.1543183"><ele>345.0</ele><time>2026-04-25T08:54:49.993Z</time></trkpt><trkpt lat="44.823365" lon="9.154515"><ele>346.25</ele><time>2026-04-25T08:54:50.997Z</time></trkpt><trkpt lat="44.8233533" lon="9.1547"><ele>347.5</ele><time>2026-04-25T08:54:51.997Z</time></trkpt><trkpt lat="44.8233467" lon="9.15488"><ele>348.75</ele><time>2026-04-25T08:54:52.997Z</time></trkpt><trkpt lat="44.8233433" lon="9.1550533"><ele>350.0</ele><time>2026-04-25T08:54:53.995Z</time></trkpt><trkpt lat="44.8233433" lon="9.155225"><ele>350.75</ele><time>2026-04-25T08:54:54.994Z</time></trkpt><trkpt lat="44.8233417" lon="9.155395"><ele>351.5</ele><time>2026-04-25T08:54:55.998Z</time></trkpt><trkpt lat="44.8233367" lon="9.1555633"><ele>352.25</ele><time>2026-04-25T08:54:56.995Z</time></trkpt><trkpt lat="44.8233333" lon="9.1557233"><ele>353.0</ele><time>2026-04-25T08:54:57.996Z</time></trkpt><trkpt lat="44.823335" lon="9.155875"><ele>353.4</ele><time>2026-04-25T08:54:58.996Z</time></trkpt><trkpt lat="44.82333" lon="9.15603"><ele>353.79999999999995</ele><time>2026-04-25T08:54:59.996Z</time></trkpt><trkpt lat="44.823325" lon="9.1561833"><ele>354.2</ele><time>2026-04-25T08:55:00.998Z</time></trkpt><trkpt lat="44.8233333" lon="9.1563383"><ele>354.6</ele><time>2026-04-25T08:55:01.996Z</time></trkpt><trkpt lat="44.8233567" lon="9.15649"><ele>355.0</ele><time>2026-04-25T08:55:02.993Z</time></trkpt><trkpt lat="44.8234117" lon="9.1566283"><ele>355.0</ele><time>2026-04-25T08:55:03.995Z</time></trkpt><trkpt lat="44.82349" lon="9.156765"><ele>355.0</ele><time>2026-04-25T08:55:05Z</time></trkpt><trkpt lat="44.8235917" lon="9.1568933"><ele>355.0</ele><time>2026-04-25T08:55:05.996Z</time></trkpt><trkpt lat="44.8237067" lon="9.15701"><ele>355.0</ele><time>2026-04-25T08:55:06.995Z</time></trkpt><trkpt lat="44.82382" lon="9.157125"><ele>355.0</ele><time>2026-04-25T08:55:08Z</time></trkpt><trkpt lat="44.823925" lon="9.15723"><ele>355.0</ele><time>2026-04-25T08:55:09Z</time></trkpt><trkpt lat="44.8240317" lon="9.1573333"><ele>355.0</ele><time>2026-04-25T08:55:09.997Z</time></trkpt><trkpt lat="44.8241367" lon="9.1574417"><ele>355.0</ele><time>2026-04-25T08:55:10.995Z</time></trkpt><trkpt lat="44.8242467" lon="9.1575583"><ele>355.5</ele><time>2026-04-25T08:55:11.995Z</time></trkpt><trkpt lat="44.824355" lon="9.1576783"><ele>356.0</ele><time>2026-04-25T08:55:13Z</time></trkpt><trkpt lat="44.8244533" lon="9.1578217"><ele>356.5</ele><time>2026-04-25T08:55:13.999Z</time></trkpt><trkpt lat="44.8245283" lon="9.1579883"><ele>357.0</ele><time>2026-04-25T08:55:15.001Z</time></trkpt><trkpt lat="44.8245883" lon="9.1581783"><ele>356.3333333333333</ele><time>2026-04-25T08:55:15.993Z</time></trkpt><trkpt lat="44.8246383" lon="9.15838"><ele>355.66666666666663</ele><time>2026-04-25T08:55:16.998Z</time></trkpt><trkpt lat="44.82468" lon="9.158595"><ele>355.0</ele><time>2026-04-25T08:55:17.997Z</time></trkpt><trkpt lat="44.8247217" lon="9.158815"><ele>355.0</ele><time>2026-04-25T08:55:18.996Z</time></trkpt><trkpt lat="44.8247617" lon="9.15903"><ele>355.0</ele><time>2026-04-25T08:55:19.997Z</time></trkpt><trkpt lat="44.8248" lon="9.1592383"><ele>355.0</ele><time>2026-04-25T08:55:20.996Z</time></trkpt><trkpt lat="44.8248333" lon="9.159445"><ele>354.66666666666663</ele><time>2026-04-25T08:55:21.997Z</time></trkpt><trkpt lat="44.8248667" lon="9.1596483"><ele>354.3333333333333</ele><time>2026-04-25T08:55:22.998Z</time></trkpt><trkpt lat="44.8249017" lon="9.1598633"><ele>354.0</ele><time>2026-04-25T08:55:23.999Z</time></trkpt><trkpt lat="44.8249367" lon="9.160085"><ele>354.0</ele><time>2026-04-25T08:55:25.001Z</time></trkpt><trkpt lat="44.82497" lon="9.1603183"><ele>354.0</ele><time>2026-04-25T08:55:25.997Z</time></trkpt><trkpt lat="44.8249933" lon="9.1605617"><ele>354.0</ele><time>2026-04-25T08:55:26.997Z</time></trkpt><trkpt lat="44.82501" lon="9.160815"><ele>354.3333333333333</ele><time>2026-04-25T08:55:28Z</time></trkpt><trkpt lat="44.8250233" lon="9.16107"><ele>354.66666666666663</ele><time>2026-04-25T08:55:28.994Z</time></trkpt><trkpt lat="44.825035" lon="9.1613283"><ele>355.0</ele><time>2026-04-25T08:55:29.998Z</time></trkpt><trkpt lat="44.825045" lon="9.1615783"><ele>356.0</ele><time>2026-04-25T08:55:30.995Z</time></trkpt><trkpt lat="44.8250517" lon="9.1618317"><ele>357.0</ele><time>2026-04-25T08:55:31.995Z</time></trkpt><trkpt lat="44.82506" lon="9.16209"><ele>358.0</ele><time>2026-04-25T08:55:32.996Z</time></trkpt><trkpt lat="44.82507" lon="9.1623467"><ele>358.3333333333333</ele><time>2026-04-25T08:55:33.995Z</time></trkpt><trkpt lat="44.8250767" lon="9.1626"><ele>358.6666666666667</ele><time>2026-04-25T08:55:34.998Z</time></trkpt><trkpt lat="44.82508" lon="9.162855"><ele>359.0</ele><time>2026-04-25T08:55:35.995Z</time></trkpt><trkpt lat="44.825085" lon="9.1631067"><ele>358.6666666666667</ele><time>2026-04-25T08:55:36.999Z</time></trkpt><trkpt lat="44.8250817" lon="9.16336"><ele>358.3333333333333</ele><time>2026-04-25T08:55:37.997Z</time></trkpt><trkpt lat="44.8250633" lon="9.163605"><ele>358.0</ele><time>2026-04-25T08:55:38.998Z</time></trkpt><trkpt lat="44.8250233" lon="9.16385"><ele>358.0</ele><time>2026-04-25T08:55:39.997Z</time></trkpt><trkpt lat="44.8249717" lon="9.1640917"><ele>358.0</ele><time>2026-04-25T08:55:40.998Z</time></trkpt><trkpt lat="44.8249117" lon="9.16433"><ele>358.0</ele><time>2026-04-25T08:55:41.994Z</time></trkpt><trkpt lat="44.8248517" lon="9.1645683"><ele>358.0</ele><time>2026-04-25T08:55:42.999Z</time></trkpt><trkpt lat="44.8247967" lon="9.1648133"><ele>358.0</ele><time>2026-04-25T08:55:43.995Z</time></trkpt><trkpt lat="44.8247467" lon="9.1650583"><ele>358.0</ele><time>2026-04-25T08:55:45Z</time></trkpt><trkpt lat="44.8247033" lon="9.165305"><ele>359.0</ele><time>2026-04-25T08:55:45.998Z</time></trkpt><trkpt lat="44.8246733" lon="9.1655567"><ele>360.0</ele><time>2026-04-25T08:55:46.995Z</time></trkpt><trkpt lat="44.8246483" lon="9.1658067"><ele>361.0</ele><time>2026-04-25T08:55:47.996Z</time></trkpt><trkpt lat="44.8246267" lon="9.1660517"><ele>362.3333333333333</ele><time>2026-04-25T08:55:48.998Z</time></trkpt><trkpt lat="44.8246067" lon="9.1662883"><ele>363.6666666666667</ele><time>2026-04-25T08:55:49.997Z</time></trkpt><trkpt lat="44.8245933" lon="9.16653"><ele>365.0</ele><time>2026-04-25T08:55:50.995Z</time></trkpt><trkpt lat="44.8245883" lon="9.1667733"><ele>365.33333333333337</ele><time>2026-04-25T08:55:52.001Z</time></trkpt><trkpt lat="44.8245917" lon="9.1670183"><ele>365.6666666666667</ele><time>2026-04-25T08:55:53Z</time></trkpt><trkpt lat="44.8246067" lon="9.167265"><ele>366.0</ele><time>2026-04-25T08:55:53.995Z</time></trkpt><trkpt lat="44.824625" lon="9.167515"><ele>366.0</ele><time>2026-04-25T08:55:54.996Z</time></trkpt><trkpt lat="44.8246467" lon="9.167765"><ele>366.0</ele><time>2026-04-25T08:55:55.995Z</time></trkpt><trkpt lat="44.8246733" lon="9.1680183"><ele>366.0</ele><time>2026-04-25T08:55:56.995Z</time></trkpt><trkpt lat="44.8247" lon="9.168275"><ele>366.0</ele><time>2026-04-25T08:55:57.994Z</time></trkpt><trkpt lat="44.82471" lon="9.16853"><ele>366.0</ele><time>2026-04-25T08:55:58.997Z</time></trkpt><trkpt lat="44.82472" lon="9.1687833"><ele>366.0</ele><time>2026-04-25T08:55:59.995Z</time></trkpt><trkpt lat="44.8247233" lon="9.16904"><ele>367.6666666666667</ele><time>2026-04-25T08:56:00.997Z</time></trkpt><trkpt lat="44.8247183" lon="9.1693017"><ele>369.33333333333337</ele><time>2026-04-25T08:56:01.996Z</time></trkpt><trkpt lat="44.824715" lon="9.16956"><ele>371.0</ele><time>2026-04-25T08:56:03Z</time></trkpt><trkpt lat="44.82471" lon="9.169815"><ele>371.0</ele><time>2026-04-25T08:56:03.996Z</time></trkpt><trkpt lat="44.8247067" lon="9.170065"><ele>371.0</ele><time>2026-04-25T08:56:04.996Z</time></trkpt><trkpt lat="44.8247033" lon="9.1703133"><ele>371.0</ele><time>2026-04-25T08:56:06.001Z</time></trkpt><trkpt lat="44.8247" lon="9.17056"><ele>371.0</ele><time>2026-04-25T08:56:06.995Z</time></trkpt><trkpt lat="44.824705" lon="9.17081"><ele>371.0</ele><time>2026-04-25T08:56:07.997Z</time></trkpt><trkpt lat="44.8247067" lon="9.1710617"><ele>371.0</ele><time>2026-04-25T08:56:08.997Z</time></trkpt><trkpt lat="44.82471" lon="9.171315"><ele>371.6666666666667</ele><time>2026-04-25T08:56:09.996Z</time></trkpt><trkpt lat="44.82471" lon="9.1715683"><ele>372.3333333333333</ele><time>2026-04-25T08:56:10.998Z</time></trkpt><trkpt lat="44.824715" lon="9.1718283"><ele>373.0</ele><time>2026-04-25T08:56:11.997Z</time></trkpt><trkpt lat="44.8247167" lon="9.172085"><ele>373.0</ele><time>2026-04-25T08:56:12.996Z</time></trkpt><trkpt lat="44.8247183" lon="9.17234"><ele>373.0</ele><time>2026-04-25T08:56:13.994Z</time></trkpt><trkpt lat="44.824715" lon="9.1725917"><ele>373.0</ele><time>2026-04-25T08:56:14.996Z</time></trkpt><trkpt lat="44.824715" lon="9.17284"><ele>373.66666666666663</ele><time>2026-04-25T08:56:15.994Z</time></trkpt><trkpt lat="44.8247167" lon="9.17308"><ele>374.3333333333333</ele><time>2026-04-25T08:56:16.995Z</time></trkpt><trkpt lat="44.8247167" lon="9.1733083"><ele>375.0</ele><time>2026-04-25T08:56:17.995Z</time></trkpt><trkpt lat="44.8247183" lon="9.17353"><ele>375.6666666666667</ele><time>2026-04-25T08:56:18.995Z</time></trkpt><trkpt lat="44.82472" lon="9.1737533"><ele>376.33333333333337</ele><time>2026-04-25T08:56:19.999Z</time></trkpt><trkpt lat="44.8247233" lon="9.173975"><ele>377.0</ele><time>2026-04-25T08:56:20.994Z</time></trkpt><trkpt lat="44.8247283" lon="9.1741983"><ele>377.6666666666667</ele><time>2026-04-25T08:56:21.998Z</time></trkpt><trkpt lat="44.82473" lon="9.17442"><ele>378.3333333333333</ele><time>2026-04-25T08:56:22.998Z</time></trkpt><trkpt lat="44.8247317" lon="9.1746433"><ele>379.0</ele><time>2026-04-25T08:56:23.994Z</time></trkpt><trkpt lat="44.8247333" lon="9.1748633"><ele>379.3333333333333</ele><time>2026-04-25T08:56:25Z</time></trkpt><trkpt lat="44.824735" lon="9.1750867"><ele>379.6666666666667</ele><time>2026-04-25T08:56:25.998Z</time></trkpt><trkpt lat="44.8247367" lon="9.1753033"><ele>380.0</ele><time>2026-04-25T08:56:26.997Z</time></trkpt><trkpt lat="44.8247367" lon="9.1755183"><ele>380.6666666666667</ele><time>2026-04-25T08:56:27.999Z</time></trkpt><trkpt lat="44.8247383" lon="9.1757317"><ele>381.3333333333333</ele><time>2026-04-25T08:56:29.002Z</time></trkpt><trkpt lat="44.8247417" lon="9.1759433"><ele>382.0</ele><time>2026-04-25T08:56:29.999Z</time></trkpt><trkpt lat="44.82475" lon="9.1761567"><ele>382.0</ele><time>2026-04-25T08:56:30.999Z</time></trkpt><trkpt lat="44.824745" lon="9.17637"><ele>382.0</ele><time>2026-04-25T08:56:31.999Z</time></trkpt><trkpt lat="44.8247467" lon="9.1765833"><ele>382.0</ele><time>2026-04-25T08:56:33Z</time></trkpt><trkpt lat="44.8247483" lon="9.1768017"><ele>382.0</ele><time>2026-04-25T08:56:33.996Z</time></trkpt><trkpt lat="44.8247517" lon="9.177015"><ele>382.0</ele><time>2026-04-25T08:56:34.993Z</time></trkpt><trkpt lat="44.82475" lon="9.17723"><ele>382.0</ele><time>2026-04-25T08:56:35.998Z</time></trkpt><trkpt lat="44.8247483" lon="9.1774467"><ele>381.3333333333333</ele><time>2026-04-25T08:56:36.996Z</time></trkpt><trkpt lat="44.8247483" lon="9.1776633"><ele>380.6666666666667</ele><time>2026-04-25T08:56:37.995Z</time></trkpt><trkpt lat="44.82475" lon="9.17789"><ele>380.0</ele><time>2026-04-25T08:56:38.998Z</time></trkpt><trkpt lat="44.824755" lon="9.1781183"><ele>380.0</ele><time>2026-04-25T08:56:39.995Z</time></trkpt><trkpt lat="44.82476" lon="9.1783417"><ele>380.0</ele><time>2026-04-25T08:56:40.994Z</time></trkpt><trkpt lat="44.824765" lon="9.1785617"><ele>380.0</ele><time>2026-04-25T08:56:41.995Z</time></trkpt><trkpt lat="44.8247683" lon="9.17878"><ele>380.0</ele><time>2026-04-25T08:56:42.999Z</time></trkpt><trkpt lat="44.824765" lon="9.17899"><ele>380.0</ele><time>2026-04-25T08:56:44.001Z</time></trkpt><trkpt lat="44.8247617" lon="9.1791983"><ele>380.0</ele><time>2026-04-25T08:56:45.007Z</time></trkpt><trkpt lat="44.8247583" lon="9.1794067"><ele>380.0</ele><time>2026-04-25T08:56:45.996Z</time></trkpt><trkpt lat="44.8247583" lon="9.1796167"><ele>380.33333333333337</ele><time>2026-04-25T08:56:46.999Z</time></trkpt><trkpt lat="44.82476" lon="9.1798283"><ele>380.6666666666667</ele><time>2026-04-25T08:56:47.999Z</time></trkpt><trkpt lat="44.8247633" lon="9.180045"><ele>381.0</ele><time>2026-04-25T08:56:49Z</time></trkpt><trkpt lat="44.8247683" lon="9.1802667"><ele>381.6666666666667</ele><time>2026-04-25T08:56:49.999Z</time></trkpt><trkpt lat="44.8247717" lon="9.180485"><ele>382.33333333333337</ele><time>2026-04-25T08:56:50.997Z</time></trkpt><trkpt lat="44.824775" lon="9.1806967"><ele>383.0</ele><time>2026-04-25T08:56:52.001Z</time></trkpt><trkpt lat="44.8247883" lon="9.1809"><ele>383.5</ele><time>2026-04-25T08:56:53.001Z</time></trkpt><trkpt lat="44.8248017" lon="9.1811017"><ele>384.0</ele><time>2026-04-25T08:56:53.999Z</time></trkpt><trkpt lat="44.8248183" lon="9.1813017"><ele>384.5</ele><time>2026-04-25T08:56:55Z</time></trkpt><trkpt lat="44.8248317" lon="9.1815"><ele>385.0</ele><time>2026-04-25T08:56:55.996Z</time></trkpt><trkpt lat="44.8248433" lon="9.1817"><ele>385.75</ele><time>2026-04-25T08:56:57Z</time></trkpt><trkpt lat="44.8248583" lon="9.181885"><ele>386.5</ele><time>2026-04-25T08:56:58Z</time></trkpt><trkpt lat="44.8248683" lon="9.1820667"><ele>387.25</ele><time>2026-04-25T08:56:58.999Z</time></trkpt><trkpt lat="44.8248783" lon="9.1822517"><ele>388.0</ele><time>2026-04-25T08:56:59.996Z</time></trkpt><trkpt lat="44.8248883" lon="9.1824433"><ele>388.0</ele><time>2026-04-25T08:57:00.996Z</time></trkpt><trkpt lat="44.824895" lon="9.18264"><ele>388.0</ele><time>2026-04-25T08:57:01.995Z</time></trkpt><trkpt lat="44.8248933" lon="9.1828333"><ele>388.0</ele><time>2026-04-25T08:57:02.994Z</time></trkpt><trkpt lat="44.82489" lon="9.18303"><ele>388.0</ele><time>2026-04-25T08:57:03.997Z</time></trkpt><trkpt lat="44.82488" lon="9.1832183"><ele>387.75</ele><time>2026-04-25T08:57:04.994Z</time></trkpt><trkpt lat="44.82486" lon="9.1833983"><ele>387.5</ele><time>2026-04-25T08:57:05.993Z</time></trkpt><trkpt lat="44.8248483" lon="9.1835667"><ele>387.25</ele><time>2026-04-25T08:57:06.997Z</time></trkpt><trkpt lat="44.8248367" lon="9.1837267"><ele>387.0</ele><time>2026-04-25T08:57:07.997Z</time></trkpt><trkpt lat="44.824825" lon="9.1838717"><ele>387.0</ele><time>2026-04-25T08:57:08.997Z</time></trkpt><trkpt lat="44.82482" lon="9.1839967"><ele>387.0</ele><time>2026-04-25T08:57:09.996Z</time></trkpt><trkpt lat="44.824815" lon="9.1841083"><ele>387.0</ele><time>2026-04-25T08:57:10.996Z</time></trkpt><trkpt lat="44.82481" lon="9.184205"><ele>387.0</ele><time>2026-04-25T08:57:11.995Z</time></trkpt><trkpt lat="44.8248067" lon="9.18437"><ele>387.0</ele><time>2026-04-25T08:57:13.997Z</time></trkpt><trkpt lat="44.8248067" lon="9.1845"><ele>387.0</ele><time>2026-04-25T08:57:15.997Z</time></trkpt><trkpt lat="44.8248017" lon="9.1846433"><ele>387.6</ele><time>2026-04-25T08:57:17.994Z</time></trkpt><trkpt lat="44.8247983" lon="9.184835"><ele>388.20000000000005</ele><time>2026-04-25T08:57:19.999Z</time></trkpt><trkpt lat="44.8247917" lon="9.1849483"><ele>388.8</ele><time>2026-04-25T08:57:20.995Z</time></trkpt><trkpt lat="44.8247867" lon="9.1850683"><ele>389.4</ele><time>2026-04-25T08:57:21.994Z</time></trkpt><trkpt lat="44.824775" lon="9.1851933"><ele>390.0</ele><time>2026-04-25T08:57:22.994Z</time></trkpt><trkpt lat="44.82476" lon="9.1853133"><ele>390.6</ele><time>2026-04-25T08:57:23.995Z</time></trkpt><trkpt lat="44.824745" lon="9.1854367"><ele>391.2</ele><time>2026-04-25T08:57:25.003Z</time></trkpt><trkpt lat="44.82474" lon="9.1855783"><ele>391.79999999999995</ele><time>2026-04-25T08:57:25.999Z</time></trkpt><trkpt lat="44.8247233" lon="9.1857383"><ele>392.4</ele><time>2026-04-25T08:57:26.996Z</time></trkpt><trkpt lat="44.82471" lon="9.1859083"><ele>393.0</ele><time>2026-04-25T08:57:27.995Z</time></trkpt><trkpt lat="44.8247" lon="9.1860767"><ele>393.0</ele><time>2026-04-25T08:57:28.997Z</time></trkpt><trkpt lat="44.824685" lon="9.1862533"><ele>393.0</ele><time>2026-04-25T08:57:29.991Z</time></trkpt><trkpt lat="44.8246633" lon="9.1864433"><ele>393.0</ele><time>2026-04-25T08:57:30.997Z</time></trkpt><trkpt lat="44.8246467" lon="9.1866417"><ele>393.0</ele><time>2026-04-25T08:57:31.999Z</time></trkpt><trkpt lat="44.8246267" lon="9.1868483"><ele>393.75</ele><time>2026-04-25T08:57:32.993Z</time></trkpt><trkpt lat="44.8246133" lon="9.1870517"><ele>394.5</ele><time>2026-04-25T08:57:34.001Z</time></trkpt><trkpt lat="44.8245983" lon="9.1872567"><ele>395.25</ele><time>2026-04-25T08:57:35.002Z</time></trkpt><trkpt lat="44.82458" lon="9.187465"><ele>396.0</ele><time>2026-04-25T08:57:35.994Z</time></trkpt><trkpt lat="44.82457" lon="9.18766"><ele>396.5</ele><time>2026-04-25T08:57:37.002Z</time></trkpt><trkpt lat="44.8245567" lon="9.1878533"><ele>397.0</ele><time>2026-04-25T08:57:37.994Z</time></trkpt><trkpt lat="44.8245467" lon="9.1880417"><ele>397.5</ele><time>2026-04-25T08:57:38.999Z</time></trkpt><trkpt lat="44.8245367" lon="9.1882367"><ele>398.0</ele><time>2026-04-25T08:57:39.992Z</time></trkpt><trkpt lat="44.8245317" lon="9.1884267"><ele>399.0</ele><time>2026-04-25T08:57:40.998Z</time></trkpt><trkpt lat="44.8245233" lon="9.1886133"><ele>400.0</ele><time>2026-04-25T08:57:41.998Z</time></trkpt><trkpt lat="44.8245083" lon="9.188805"><ele>401.0</ele><time>2026-04-25T08:57:42.998Z</time></trkpt><trkpt lat="44.8244733" lon="9.188995"><ele>402.0</ele><time>2026-04-25T08:57:43.998Z</time></trkpt><trkpt lat="44.8244267" lon="9.1891717"><ele>402.25</ele><time>2026-04-25T08:57:44.998Z</time></trkpt><trkpt lat="44.82437" lon="9.1893367"><ele>402.5</ele><time>2026-04-25T08:57:46Z</time></trkpt><trkpt lat="44.8243067" lon="9.1894833"><ele>402.75</ele><time>2026-04-25T08:57:47.004Z</time></trkpt><trkpt lat="44.824245" lon="9.1896033"><ele>403.0</ele><time>2026-04-25T08:57:47.996Z</time></trkpt><trkpt lat="44.8241883" lon="9.1897067"><ele>402.50000000000006</ele><time>2026-04-25T08:57:48.996Z</time></trkpt><trkpt lat="44.82413" lon="9.1897833"><ele>402.0</ele><time>2026-04-25T08:57:49.997Z</time></trkpt><trkpt lat="44.824065" lon="9.189855"><ele>401.5</ele><time>2026-04-25T08:57:50.997Z</time></trkpt><trkpt lat="44.8240083" lon="9.189935"><ele>401.0</ele><time>2026-04-25T08:57:52Z</time></trkpt><trkpt lat="44.8239533" lon="9.1900333"><ele>400.50000000000006</ele><time>2026-04-25T08:57:52.997Z</time></trkpt><trkpt lat="44.8239117" lon="9.1901567"><ele>400.0</ele><time>2026-04-25T08:57:53.993Z</time></trkpt><trkpt lat="44.8238783" lon="9.1903033"><ele>400.0</ele><time>2026-04-25T08:57:54.997Z</time></trkpt><trkpt lat="44.8238417" lon="9.1904533"><ele>400.0</ele><time>2026-04-25T08:57:56.001Z</time></trkpt><trkpt lat="44.8238067" lon="9.1906083"><ele>400.0</ele><time>2026-04-25T08:57:56.999Z</time></trkpt><trkpt lat="44.8237733" lon="9.1907683"><ele>400.0</ele><time>2026-04-25T08:57:57.996Z</time></trkpt><trkpt lat="44.8237417" lon="9.1909233"><ele>400.75</ele><time>2026-04-25T08:57:58.995Z</time></trkpt><trkpt lat="44.8237117" lon="9.1910867"><ele>401.5</ele><time>2026-04-25T08:57:59.993Z</time></trkpt><trkpt lat="44.82368" lon="9.1912467"><ele>402.25</ele><time>2026-04-25T08:58:00.998Z</time></trkpt><trkpt lat="44.82365" lon="9.191405"><ele>403.0</ele><time>2026-04-25T08:58:01.997Z</time></trkpt><trkpt lat="44.8236183" lon="9.1915667"><ele>403.5</ele><time>2026-04-25T08:58:02.994Z</time></trkpt><trkpt lat="44.8235867" lon="9.191725"><ele>404.0</ele><time>2026-04-25T08:58:03.993Z</time></trkpt><trkpt lat="44.8235583" lon="9.1918817"><ele>404.5</ele><time>2026-04-25T08:58:04.995Z</time></trkpt><trkpt lat="44.8235317" lon="9.1920333"><ele>405.0</ele><time>2026-04-25T08:58:05.993Z</time></trkpt><trkpt lat="44.8235017" lon="9.1921817"><ele>404.8</ele><time>2026-04-25T08:58:06.997Z</time></trkpt><trkpt lat="44.8234767" lon="9.19232"><ele>404.6</ele><time>2026-04-25T08:58:07.993Z</time></trkpt><trkpt lat="44.8234533" lon="9.1924517"><ele>404.4</ele><time>2026-04-25T08:58:08.999Z</time></trkpt><trkpt lat="44.8234333" lon="9.1925767"><ele>404.2</ele><time>2026-04-25T08:58:10.001Z</time></trkpt><trkpt lat="44.8234067" lon="9.192695"><ele>404.0</ele><time>2026-04-25T08:58:10.997Z</time></trkpt><trkpt lat="44.8233783" lon="9.1928067"><ele>404.0</ele><time>2026-04-25T08:58:12.001Z</time></trkpt><trkpt lat="44.82336" lon="9.1929"><ele>404.0</ele><time>2026-04-25T08:58:12.995Z</time></trkpt><trkpt lat="44.8233283" lon="9.1930383"><ele>404.0</ele><time>2026-04-25T08:58:14.992Z</time></trkpt><trkpt lat="44.8233017" lon="9.1931467"><ele>404.0</ele><time>2026-04-25T08:58:17.001Z</time></trkpt><trkpt lat="44.8232683" lon="9.1932583"><ele>404.0</ele><time>2026-04-25T08:58:18.993Z</time></trkpt><trkpt lat="44.82318" lon="9.1933783"><ele>404.4</ele><time>2026-04-25T08:58:20.994Z</time></trkpt><trkpt lat="44.8231433" lon="9.193525"><ele>404.79999999999995</ele><time>2026-04-25T08:58:22.994Z</time></trkpt><trkpt lat="44.823135" lon="9.1936817"><ele>405.20000000000005</ele><time>2026-04-25T08:58:24.995Z</time></trkpt><trkpt lat="44.8231133" lon="9.19385"><ele>405.6</ele><time>2026-04-25T08:58:26.997Z</time></trkpt><trkpt lat="44.8230233" lon="9.1939033"><ele>406.0</ele><time>2026-04-25T08:58:28.995Z</time></trkpt><trkpt lat="44.8229" lon="9.1938617"><ele>406.00000000000006</ele><time>2026-04-25T08:58:30.998Z</time></trkpt><trkpt lat="44.822825" lon="9.1938333"><ele>406.0</ele><time>2026-04-25T08:58:31.993Z</time></trkpt><trkpt lat="44.8227383" lon="9.1937983"><ele>406.0</ele><time>2026-04-25T08:58:32.997Z</time></trkpt><trkpt lat="44.822655" lon="9.1937583"><ele>406.0</ele><time>2026-04-25T08:58:33.996Z</time></trkpt><trkpt lat="44.8225683" lon="9.1937333"><ele>406.00000000000006</ele><time>2026-04-25T08:58:34.996Z</time></trkpt><trkpt lat="44.8224767" lon="9.193725"><ele>406.0</ele><time>2026-04-25T08:58:35.994Z</time></trkpt><trkpt lat="44.8223867" lon="9.1937433"><ele>405.0</ele><time>2026-04-25T08:58:36.995Z</time></trkpt><trkpt lat="44.8223117" lon="9.1938067"><ele>404.0</ele><time>2026-04-25T08:58:38Z</time></trkpt><trkpt lat="44.8222883" lon="9.193985"><ele>403.0</ele><time>2026-04-25T08:58:38.996Z</time></trkpt><trkpt lat="44.8222533" lon="9.19414"><ele>402.0</ele><time>2026-04-25T08:58:39.997Z</time></trkpt><trkpt lat="44.8222317" lon="9.1943033"><ele>401.0</ele><time>2026-04-25T08:58:40.995Z</time></trkpt><trkpt lat="44.8222133" lon="9.1944583"><ele>401.0</ele><time>2026-04-25T08:58:41.994Z</time></trkpt><trkpt lat="44.8221983" lon="9.1946283"><ele>401.0</ele><time>2026-04-25T08:58:42.996Z</time></trkpt><trkpt lat="44.82218" lon="9.1947883"><ele>401.0</ele><time>2026-04-25T08:58:43.996Z</time></trkpt><trkpt lat="44.822165" lon="9.19495"><ele>401.0</ele><time>2026-04-25T08:58:44.997Z</time></trkpt><trkpt lat="44.822155" lon="9.1950983"><ele>401.3333333333333</ele><time>2026-04-25T08:58:45.994Z</time></trkpt><trkpt lat="44.8221433" lon="9.19524"><ele>401.66666666666663</ele><time>2026-04-25T08:58:47.001Z</time></trkpt><trkpt lat="44.82213" lon="9.195365"><ele>402.0</ele><time>2026-04-25T08:58:48Z</time></trkpt><trkpt lat="44.822115" lon="9.1954767"><ele>402.33333333333337</ele><time>2026-04-25T08:58:48.996Z</time></trkpt><trkpt lat="44.8221017" lon="9.19558"><ele>402.6666666666667</ele><time>2026-04-25T08:58:49.996Z</time></trkpt><trkpt lat="44.8220883" lon="9.1956767"><ele>403.0</ele><time>2026-04-25T08:58:50.995Z</time></trkpt><trkpt lat="44.82208" lon="9.19577"><ele>403.42857142857144</ele><time>2026-04-25T08:58:51.997Z</time></trkpt><trkpt lat="44.8220667" lon="9.1958583"><ele>403.85714285714283</ele><time>2026-04-25T08:58:52.99Z</time></trkpt><trkpt lat="44.8220517" lon="9.19595"><ele>404.2857142857143</ele><time>2026-04-25T08:58:53.996Z</time></trkpt><trkpt lat="44.82204" lon="9.19605"><ele>404.7142857142857</ele><time>2026-04-25T08:58:54.994Z</time></trkpt><trkpt lat="44.8220283" lon="9.196155"><ele>405.1428571428571</ele><time>2026-04-25T08:58:55.996Z</time></trkpt><trkpt lat="44.822015" lon="9.19627"><ele>405.57142857142856</ele><time>2026-04-25T08:58:56.999Z</time></trkpt><trkpt lat="44.822" lon="9.19639"><ele>406.0</ele><time>2026-04-25T08:58:57.996Z</time></trkpt><trkpt lat="44.8219833" lon="9.1965133"><ele>406.1666666666667</ele><time>2026-04-25T08:58:58.994Z</time></trkpt><trkpt lat="44.821965" lon="9.1966367"><ele>406.33333333333337</ele><time>2026-04-25T08:58:59.992Z</time></trkpt><trkpt lat="44.8219483" lon="9.1967567"><ele>406.5</ele><time>2026-04-25T08:59:01Z</time></trkpt><trkpt lat="44.8219333" lon="9.1968583"><ele>406.66666666666663</ele><time>2026-04-25T08:59:01.996Z</time></trkpt><trkpt lat="44.82192" lon="9.1969533"><ele>406.8333333333333</ele><time>2026-04-25T08:59:02.999Z</time></trkpt><trkpt lat="44.8219117" lon="9.1970933"><ele>407.0</ele><time>2026-04-25T08:59:05Z</time></trkpt><trkpt lat="44.8219" lon="9.197205"><ele>406.99999999999994</ele><time>2026-04-25T08:59:07.002Z</time></trkpt><trkpt lat="44.821895" lon="9.197305"><ele>407.0</ele><time>2026-04-25T08:59:09.996Z</time></trkpt><trkpt lat="44.8218883" lon="9.1974033"><ele>407.0</ele><time>2026-04-25T08:59:13.992Z</time></trkpt><trkpt lat="44.8218667" lon="9.1975317"><ele>407.0</ele><time>2026-04-25T08:59:17.001Z</time></trkpt><trkpt lat="44.821845" lon="9.1976467"><ele>406.99999999999994</ele><time>2026-04-25T08:59:18.995Z</time></trkpt><trkpt lat="44.8218233" lon="9.1977467"><ele>407.0</ele><time>2026-04-25T08:59:21.999Z</time></trkpt><trkpt lat="44.8218117" lon="9.19786"><ele>406.49999999999994</ele><time>2026-04-25T08:59:23.996Z</time></trkpt><trkpt lat="44.8218" lon="9.1979517"><ele>406.0</ele><time>2026-04-25T08:59:24.994Z</time></trkpt><trkpt lat="44.82179" lon="9.1980583"><ele>405.5</ele><time>2026-04-25T08:59:25.995Z</time></trkpt><trkpt lat="44.8217767" lon="9.1981633"><ele>405.0</ele><time>2026-04-25T08:59:26.996Z</time></trkpt><trkpt lat="44.82176" lon="9.1982783"><ele>404.49999999999994</ele><time>2026-04-25T08:59:27.998Z</time></trkpt><trkpt lat="44.8217433" lon="9.1984033"><ele>404.0</ele><time>2026-04-25T08:59:28.999Z</time></trkpt><trkpt lat="44.8217217" lon="9.1985467"><ele>404.0</ele><time>2026-04-25T08:59:30Z</time></trkpt><trkpt lat="44.82171" lon="9.198685"><ele>404.0</ele><time>2026-04-25T08:59:30.995Z</time></trkpt><trkpt lat="44.8216933" lon="9.198815"><ele>404.0</ele><time>2026-04-25T08:59:31.995Z</time></trkpt><trkpt lat="44.8216767" lon="9.19894"><ele>404.0</ele><time>2026-04-25T08:59:32.996Z</time></trkpt><trkpt lat="44.82166" lon="9.19906"><ele>404.0</ele><time>2026-04-25T08:59:33.994Z</time></trkpt><trkpt lat="44.8216483" lon="9.1991717"><ele>404.3333333333333</ele><time>2026-04-25T08:59:35Z</time></trkpt><trkpt lat="44.8216383" lon="9.19926"><ele>404.66666666666663</ele><time>2026-04-25T08:59:35.994Z</time></trkpt><trkpt lat="44.8216133" lon="9.1994233"><ele>405.0</ele><time>2026-04-25T08:59:37.999Z</time></trkpt><trkpt lat="44.8216067" lon="9.1995117"><ele>405.33333333333337</ele><time>2026-04-25T08:59:38.997Z</time></trkpt><trkpt lat="44.8216" lon="9.199605"><ele>405.6666666666667</ele><time>2026-04-25T08:59:39.998Z</time></trkpt><trkpt lat="44.821625" lon="9.1997117"><ele>406.0</ele><time>2026-04-25T08:59:40.995Z</time></trkpt><trkpt lat="44.8216717" lon="9.1998083"><ele>406.50000000000006</ele><time>2026-04-25T08:59:41.994Z</time></trkpt><trkpt lat="44.8217167" lon="9.1998833"><ele>407.0</ele><time>2026-04-25T08:59:42.995Z</time></trkpt><trkpt lat="44.8218033" lon="9.1999817"><ele>407.5</ele><time>2026-04-25T08:59:45Z</time></trkpt><trkpt lat="44.8218783" lon="9.2000217"><ele>408.0</ele><time>2026-04-25T08:59:46.992Z</time></trkpt><trkpt lat="44.8219417" lon="9.20007"><ele>408.50000000000006</ele><time>2026-04-25T08:59:48.999Z</time></trkpt><trkpt lat="44.82203" lon="9.2001383"><ele>409.0</ele><time>2026-04-25T08:59:50.996Z</time></trkpt><trkpt lat="44.8221467" lon="9.2002117"><ele>409.83333333333337</ele><time>2026-04-25T08:59:52.994Z</time></trkpt><trkpt lat="44.8222433" lon="9.20028"><ele>410.6666666666667</ele><time>2026-04-25T08:59:54.994Z</time></trkpt><trkpt lat="44.8222983" lon="9.200325"><ele>411.5</ele><time>2026-04-25T08:59:56.996Z</time></trkpt><trkpt lat="44.8223733" lon="9.2003867"><ele>412.33333333333337</ele><time>2026-04-25T08:59:59.996Z</time></trkpt><trkpt lat="44.8224383" lon="9.200445"><ele>413.1666666666667</ele><time>2026-04-25T09:00:01.996Z</time></trkpt><trkpt lat="44.822515" lon="9.2005283"><ele>414.0</ele><time>2026-04-25T09:00:03.997Z</time></trkpt><trkpt lat="44.8226033" lon="9.2006017"><ele>414.8333333333333</ele><time>2026-04-25T09:00:05.998Z</time></trkpt><trkpt lat="44.8226983" lon="9.20068"><ele>415.66666666666663</ele><time>2026-04-25T09:00:07.993Z</time></trkpt><trkpt lat="44.8227633" lon="9.2007367"><ele>416.5</ele><time>2026-04-25T09:00:09.999Z</time></trkpt><trkpt lat="44.8227917" lon="9.2008283"><ele>417.3333333333333</ele><time>2026-04-25T09:00:11.995Z</time></trkpt><trkpt lat="44.82278" lon="9.2009867"><ele>418.16666666666663</ele><time>2026-04-25T09:00:13.999Z</time></trkpt><trkpt lat="44.822745" lon="9.2010683"><ele>419.0</ele><time>2026-04-25T09:00:14.996Z</time></trkpt><trkpt lat="44.8227067" lon="9.2011667"><ele>419.0</ele><time>2026-04-25T09:00:15.994Z</time></trkpt><trkpt lat="44.8226733" lon="9.2012717"><ele>419.0</ele><time>2026-04-25T09:00:16.995Z</time></trkpt><trkpt lat="44.8226433" lon="9.20139"><ele>419.0</ele><time>2026-04-25T09:00:17.993Z</time></trkpt><trkpt lat="44.8225983" lon="9.2015283"><ele>419.0</ele><time>2026-04-25T09:00:18.997Z</time></trkpt><trkpt lat="44.8225617" lon="9.20168"><ele>419.0</ele><time>2026-04-25T09:00:19.996Z</time></trkpt><trkpt lat="44.8225217" lon="9.201835"><ele>419.25</ele><time>2026-04-25T09:00:20.998Z</time></trkpt><trkpt lat="44.8224817" lon="9.2019917"><ele>419.5</ele><time>2026-04-25T09:00:21.992Z</time></trkpt><trkpt lat="44.8224433" lon="9.2021433"><ele>419.75</ele><time>2026-04-25T09:00:22.995Z</time></trkpt><trkpt lat="44.8224067" lon="9.202305"><ele>420.0</ele><time>2026-04-25T09:00:24.006Z</time></trkpt><trkpt lat="44.8223667" lon="9.20247"><ele>420.6</ele><time>2026-04-25T09:00:24.999Z</time></trkpt><trkpt lat="44.82233" lon="9.20262"><ele>421.2</ele><time>2026-04-25T09:00:25.996Z</time></trkpt><trkpt lat="44.82229" lon="9.2027633"><ele>421.79999999999995</ele><time>2026-04-25T09:00:26.998Z</time></trkpt><trkpt lat="44.8222533" lon="9.2029033"><ele>422.4</ele><time>2026-04-25T09:00:27.995Z</time></trkpt><trkpt lat="44.8222233" lon="9.2030367"><ele>423.0</ele><time>2026-04-25T09:00:28.998Z</time></trkpt><trkpt lat="44.8222" lon="9.203195"><ele>423.0</ele><time>2026-04-25T09:00:29.998Z</time></trkpt><trkpt lat="44.82216" lon="9.2033367"><ele>423.0</ele><time>2026-04-25T09:00:30.994Z</time></trkpt><trkpt lat="44.8221267" lon="9.2034917"><ele>423.0</ele><time>2026-04-25T09:00:31.995Z</time></trkpt><trkpt lat="44.8220883" lon="9.203645"><ele>423.0</ele><time>2026-04-25T09:00:32.993Z</time></trkpt><trkpt lat="44.822045" lon="9.2038"><ele>423.0</ele><time>2026-04-25T09:00:33.993Z</time></trkpt><trkpt lat="44.8220067" lon="9.2039617"><ele>423.0</ele><time>2026-04-25T09:00:34.993Z</time></trkpt><trkpt lat="44.8219667" lon="9.2041317"><ele>423.0</ele><time>2026-04-25T09:00:35.995Z</time></trkpt><trkpt lat="44.8219217" lon="9.2042933"><ele>423.0</ele><time>2026-04-25T09:00:36.994Z</time></trkpt><trkpt lat="44.82188" lon="9.204445"><ele>423.0</ele><time>2026-04-25T09:00:37.994Z</time></trkpt><trkpt lat="44.8218433" lon="9.2045933"><ele>423.0</ele><time>2026-04-25T09:00:38.996Z</time></trkpt><trkpt lat="44.8218017" lon="9.2047433"><ele>423.0</ele><time>2026-04-25T09:00:39.997Z</time></trkpt><trkpt lat="44.8217783" lon="9.20489"><ele>423.0</ele><time>2026-04-25T09:00:40.996Z</time></trkpt><trkpt lat="44.821735" lon="9.2050333"><ele>423.0</ele><time>2026-04-25T09:00:41.995Z</time></trkpt><trkpt lat="44.8216867" lon="9.2051767"><ele>424.25</ele><time>2026-04-25T09:00:42.995Z</time></trkpt><trkpt lat="44.8216183" lon="9.20531"><ele>425.5</ele><time>2026-04-25T09:00:43.993Z</time></trkpt><trkpt lat="44.8215483" lon="9.205445"><ele>426.75</ele><time>2026-04-25T09:00:44.997Z</time></trkpt><trkpt lat="44.8214633" lon="9.2055783"><ele>428.0</ele><time>2026-04-25T09:00:45.994Z</time></trkpt><trkpt lat="44.8213733" lon="9.2057117"><ele>429.0</ele><time>2026-04-25T09:00:46.994Z</time></trkpt><trkpt lat="44.821285" lon="9.20585"><ele>430.0</ele><time>2026-04-25T09:00:48Z</time></trkpt><trkpt lat="44.8212" lon="9.2059917"><ele>431.0</ele><time>2026-04-25T09:00:48.995Z</time></trkpt><trkpt lat="44.8211" lon="9.206125"><ele>432.0</ele><time>2026-04-25T09:00:49.994Z</time></trkpt><trkpt lat="44.8209983" lon="9.2062617"><ele>432.0</ele><time>2026-04-25T09:00:50.995Z</time></trkpt><trkpt lat="44.8209033" lon="9.2064083"><ele>432.0</ele><time>2026-04-25T09:00:51.995Z</time></trkpt><trkpt lat="44.8207933" lon="9.2065517"><ele>432.0</ele><time>2026-04-25T09:00:52.994Z</time></trkpt><trkpt lat="44.820685" lon="9.206695"><ele>432.0</ele><time>2026-04-25T09:00:53.997Z</time></trkpt><trkpt lat="44.8205783" lon="9.2068417"><ele>432.0</ele><time>2026-04-25T09:00:54.996Z</time></trkpt><trkpt lat="44.8204633" lon="9.206985"><ele>432.0</ele><time>2026-04-25T09:00:55.99Z</time></trkpt><trkpt lat="44.82036" lon="9.2071283"><ele>432.0</ele><time>2026-04-25T09:00:56.996Z</time></trkpt><trkpt lat="44.82026" lon="9.2072783"><ele>432.0</ele><time>2026-04-25T09:00:57.997Z</time></trkpt><trkpt lat="44.8201567" lon="9.207425"><ele>432.75</ele><time>2026-04-25T09:00:58.994Z</time></trkpt><trkpt lat="44.8200617" lon="9.2075683"><ele>433.5</ele><time>2026-04-25T09:00:59.991Z</time></trkpt><trkpt lat="44.819965" lon="9.20771"><ele>434.25</ele><time>2026-04-25T09:01:00.998Z</time></trkpt><trkpt lat="44.819885" lon="9.2078367"><ele>435.0</ele><time>2026-04-25T09:01:02Z</time></trkpt><trkpt lat="44.8197967" lon="9.20796"><ele>435.0</ele><time>2026-04-25T09:01:02.995Z</time></trkpt><trkpt lat="44.8197233" lon="9.2080717"><ele>435.0</ele><time>2026-04-25T09:01:03.999Z</time></trkpt><trkpt lat="44.81964" lon="9.20818"><ele>435.0</ele><time>2026-04-25T09:01:04.993Z</time></trkpt><trkpt lat="44.8195617" lon="9.208295"><ele>435.0</ele><time>2026-04-25T09:01:05.991Z</time></trkpt><trkpt lat="44.81948" lon="9.2084133"><ele>434.5</ele><time>2026-04-25T09:01:06.996Z</time></trkpt><trkpt lat="44.8193967" lon="9.2085367"><ele>434.0</ele><time>2026-04-25T09:01:07.993Z</time></trkpt><trkpt lat="44.8193117" lon="9.2086667"><ele>433.5</ele><time>2026-04-25T09:01:08.996Z</time></trkpt><trkpt lat="44.8192267" lon="9.208785"><ele>433.0</ele><time>2026-04-25T09:01:09.993Z</time></trkpt><trkpt lat="44.8191483" lon="9.2089033"><ele>434.5</ele><time>2026-04-25T09:01:10.996Z</time></trkpt><trkpt lat="44.8190833" lon="9.209035"><ele>436.0</ele><time>2026-04-25T09:01:11.993Z</time></trkpt><trkpt lat="44.81903" lon="9.20918"><ele>437.5</ele><time>2026-04-25T09:01:13.003Z</time></trkpt><trkpt lat="44.8190017" lon="9.2093417"><ele>439.0</ele><time>2026-04-25T09:01:13.992Z</time></trkpt><trkpt lat="44.8189917" lon="9.20951"><ele>439.0</ele><time>2026-04-25T09:01:15.003Z</time></trkpt><trkpt lat="44.8189983" lon="9.20968"><ele>439.0</ele><time>2026-04-25T09:01:15.992Z</time></trkpt><trkpt lat="44.81902" lon="9.2098483"><ele>439.0</ele><time>2026-04-25T09:01:16.993Z</time></trkpt><trkpt lat="44.8190567" lon="9.2100133"><ele>439.0</ele><time>2026-04-25T09:01:17.995Z</time></trkpt><trkpt lat="44.8190967" lon="9.2101833"><ele>439.25</ele><time>2026-04-25T09:01:18.996Z</time></trkpt><trkpt lat="44.81914" lon="9.210355"><ele>439.5</ele><time>2026-04-25T09:01:20Z</time></trkpt><trkpt lat="44.819185" lon="9.2105317"><ele>439.75</ele><time>2026-04-25T09:01:20.996Z</time></trkpt><trkpt lat="44.8192283" lon="9.2107133"><ele>440.0</ele><time>2026-04-25T09:01:21.995Z</time></trkpt><trkpt lat="44.8192717" lon="9.2109033"><ele>440.0</ele><time>2026-04-25T09:01:22.995Z</time></trkpt><trkpt lat="44.8193167" lon="9.2110983"><ele>440.0</ele><time>2026-04-25T09:01:23.994Z</time></trkpt><trkpt lat="44.8193667" lon="9.2113"><ele>440.0</ele><time>2026-04-25T09:01:24.996Z</time></trkpt><trkpt lat="44.81941" lon="9.2115033"><ele>440.0</ele><time>2026-04-25T09:01:25.995Z</time></trkpt><trkpt lat="44.8194617" lon="9.211705"><ele>444.5</ele><time>2026-04-25T09:01:27Z</time></trkpt><trkpt lat="44.8195083" lon="9.2119033"><ele>449.0</ele><time>2026-04-25T09:01:27.993Z</time></trkpt><trkpt lat="44.8195583" lon="9.2120967"><ele>453.5</ele><time>2026-04-25T09:01:28.997Z</time></trkpt><trkpt lat="44.8196033" lon="9.2122833"><ele>458.0</ele><time>2026-04-25T09:01:29.996Z</time></trkpt><trkpt lat="44.81964" lon="9.2124617"><ele>458.0</ele><time>2026-04-25T09:01:30.998Z</time></trkpt><trkpt lat="44.81966" lon="9.2126267"><ele>457.99999999999994</ele><time>2026-04-25T09:01:31.995Z</time></trkpt><trkpt lat="44.8196633" lon="9.2127817"><ele>457.99999999999994</ele><time>2026-04-25T09:01:32.998Z</time></trkpt><trkpt lat="44.81963" lon="9.212925"><ele>458.0</ele><time>2026-04-25T09:01:33.992Z</time></trkpt><trkpt lat="44.8195767" lon="9.2130517"><ele>458.0</ele><time>2026-04-25T09:01:34.996Z</time></trkpt><trkpt lat="44.819505" lon="9.213155"><ele>456.2</ele><time>2026-04-25T09:01:35.996Z</time></trkpt><trkpt lat="44.8194333" lon="9.2132367"><ele>454.4</ele><time>2026-04-25T09:01:36.999Z</time></trkpt><trkpt lat="44.8193583" lon="9.2133167"><ele>452.59999999999997</ele><time>2026-04-25T09:01:37.992Z</time></trkpt><trkpt lat="44.819275" lon="9.2133967"><ele>450.79999999999995</ele><time>2026-04-25T09:01:38.995Z</time></trkpt><trkpt lat="44.8191667" lon="9.21348"><ele>449.0</ele><time>2026-04-25T09:01:39.993Z</time></trkpt><trkpt lat="44.8190667" lon="9.213565"><ele>448.49999999999994</ele><time>2026-04-25T09:01:40.995Z</time></trkpt><trkpt lat="44.8189717" lon="9.213645"><ele>448.0</ele><time>2026-04-25T09:01:41.994Z</time></trkpt><trkpt lat="44.8188883" lon="9.213705"><ele>447.5</ele><time>2026-04-25T09:01:42.995Z</time></trkpt><trkpt lat="44.81882" lon="9.213745"><ele>447.0</ele><time>2026-04-25T09:01:44.001Z</time></trkpt><trkpt lat="44.8187517" lon="9.2137667"><ele>446.49999999999994</ele><time>2026-04-25T09:01:44.994Z</time></trkpt><trkpt lat="44.8186883" lon="9.21377"><ele>446.0</ele><time>2026-04-25T09:01:45.994Z</time></trkpt><trkpt lat="44.818615" lon="9.2137483"><ele>446.0</ele><time>2026-04-25T09:01:46.994Z</time></trkpt><trkpt lat="44.8185267" lon="9.21371"><ele>446.0</ele><time>2026-04-25T09:01:47.997Z</time></trkpt><trkpt lat="44.8184233" lon="9.2136567"><ele>446.0</ele><time>2026-04-25T09:01:48.995Z</time></trkpt><trkpt lat="44.8183033" lon="9.213585"><ele>446.0</ele><time>2026-04-25T09:01:49.998Z</time></trkpt><trkpt lat="44.818175" lon="9.2134867"><ele>447.0</ele><time>2026-04-25T09:01:50.996Z</time></trkpt><trkpt lat="44.81804" lon="9.2133967"><ele>448.0</ele><time>2026-04-25T09:01:51.993Z</time></trkpt><trkpt lat="44.8179033" lon="9.2133133"><ele>449.0</ele><time>2026-04-25T09:01:52.995Z</time></trkpt><trkpt lat="44.8177733" lon="9.213235"><ele>450.0</ele><time>2026-04-25T09:01:53.996Z</time></trkpt><trkpt lat="44.81764" lon="9.213175"><ele>451.33333333333337</ele><time>2026-04-25T09:01:54.996Z</time></trkpt><trkpt lat="44.8174933" lon="9.2131467"><ele>452.6666666666667</ele><time>2026-04-25T09:01:55.995Z</time></trkpt><trkpt lat="44.8173367" lon="9.2131483"><ele>454.0</ele><time>2026-04-25T09:01:56.998Z</time></trkpt><trkpt lat="44.8171767" lon="9.213175"><ele>454.0</ele><time>2026-04-25T09:01:57.992Z</time></trkpt><trkpt lat="44.817015" lon="9.2132217"><ele>454.0</ele><time>2026-04-25T09:01:58.996Z</time></trkpt><trkpt lat="44.8168533" lon="9.2132783"><ele>454.0</ele><time>2026-04-25T09:01:59.999Z</time></trkpt><trkpt lat="44.816695" lon="9.2133367"><ele>453.33333333333337</ele><time>2026-04-25T09:02:00.996Z</time></trkpt><trkpt lat="44.8165433" lon="9.2133983"><ele>452.66666666666663</ele><time>2026-04-25T09:02:01.999Z</time></trkpt><trkpt lat="44.816395" lon="9.21346"><ele>452.0</ele><time>2026-04-25T09:02:02.996Z</time></trkpt><trkpt lat="44.8162467" lon="9.21353"><ele>452.0</ele><time>2026-04-25T09:02:03.998Z</time></trkpt><trkpt lat="44.816105" lon="9.21362"><ele>452.0</ele><time>2026-04-25T09:02:04.997Z</time></trkpt><trkpt lat="44.8159633" lon="9.2137233"><ele>452.0</ele><time>2026-04-25T09:02:05.999Z</time></trkpt><trkpt lat="44.8158217" lon="9.2138367"><ele>451.3333333333333</ele><time>2026-04-25T09:02:06.995Z</time></trkpt><trkpt lat="44.8156817" lon="9.2139283"><ele>450.66666666666663</ele><time>2026-04-25T09:02:07.996Z</time></trkpt><trkpt lat="44.815535" lon="9.2140033"><ele>450.0</ele><time>2026-04-25T09:02:08.996Z</time></trkpt><trkpt lat="44.8153817" lon="9.2140567"><ele>451.33333333333337</ele><time>2026-04-25T09:02:10Z</time></trkpt><trkpt lat="44.8152233" lon="9.214085"><ele>452.6666666666667</ele><time>2026-04-25T09:02:10.996Z</time></trkpt><trkpt lat="44.8150617" lon="9.214095"><ele>454.0</ele><time>2026-04-25T09:02:12.003Z</time></trkpt><trkpt lat="44.8149017" lon="9.2141017"><ele>454.0</ele><time>2026-04-25T09:02:12.995Z</time></trkpt><trkpt lat="44.81475" lon="9.2141233"><ele>454.0</ele><time>2026-04-25T09:02:13.994Z</time></trkpt><trkpt lat="44.81461" lon="9.2141717"><ele>454.0</ele><time>2026-04-25T09:02:14.997Z</time></trkpt><trkpt lat="44.8144767" lon="9.214255"><ele>454.0</ele><time>2026-04-25T09:02:15.995Z</time></trkpt><trkpt lat="44.81436" lon="9.21437"><ele>455.0</ele><time>2026-04-25T09:02:16.996Z</time></trkpt><trkpt lat="44.81426" lon="9.214505"><ele>456.0</ele><time>2026-04-25T09:02:17.994Z</time></trkpt><trkpt lat="44.8141817" lon="9.214665"><ele>457.0</ele><time>2026-04-25T09:02:18.996Z</time></trkpt><trkpt lat="44.8141133" lon="9.214835"><ele>458.0</ele><time>2026-04-25T09:02:19.994Z</time></trkpt><trkpt lat="44.8140467" lon="9.2150117"><ele>458.0</ele><time>2026-04-25T09:02:20.995Z</time></trkpt><trkpt lat="44.813985" lon="9.2151933"><ele>458.0</ele><time>2026-04-25T09:02:21.997Z</time></trkpt><trkpt lat="44.81392" lon="9.21537"><ele>458.0</ele><time>2026-04-25T09:02:22.996Z</time></trkpt><trkpt lat="44.8138483" lon="9.2155467"><ele>458.0</ele><time>2026-04-25T09:02:23.996Z</time></trkpt><trkpt lat="44.81377" lon="9.215715"><ele>457.3333333333333</ele><time>2026-04-25T09:02:24.996Z</time></trkpt><trkpt lat="44.813675" lon="9.215875"><ele>456.66666666666663</ele><time>2026-04-25T09:02:25.994Z</time></trkpt><trkpt lat="44.813555" lon="9.2160233"><ele>456.0</ele><time>2026-04-25T09:02:26.992Z</time></trkpt><trkpt lat="44.81342" lon="9.2161633"><ele>456.0</ele><time>2026-04-25T09:02:28Z</time></trkpt><trkpt lat="44.81328" lon="9.216295"><ele>456.0</ele><time>2026-04-25T09:02:28.994Z</time></trkpt><trkpt lat="44.8131333" lon="9.2164267"><ele>456.0</ele><time>2026-04-25T09:02:29.998Z</time></trkpt><trkpt lat="44.8129833" lon="9.2165533"><ele>456.66666666666663</ele><time>2026-04-25T09:02:31.001Z</time></trkpt><trkpt lat="44.8128383" lon="9.2166867"><ele>457.3333333333333</ele><time>2026-04-25T09:02:31.998Z</time></trkpt><trkpt lat="44.8126883" lon="9.216815"><ele>458.0</ele><time>2026-04-25T09:02:32.996Z</time></trkpt><trkpt lat="44.812545" lon="9.2169467"><ele>458.0</ele><time>2026-04-25T09:02:33.999Z</time></trkpt><trkpt lat="44.8124067" lon="9.2170733"><ele>458.0</ele><time>2026-04-25T09:02:34.996Z</time></trkpt><trkpt lat="44.8122683" lon="9.217195"><ele>458.0</ele><time>2026-04-25T09:02:35.993Z</time></trkpt><trkpt lat="44.812125" lon="9.2173167"><ele>458.0</ele><time>2026-04-25T09:02:36.997Z</time></trkpt><trkpt lat="44.8119833" lon="9.2174283"><ele>458.0</ele><time>2026-04-25T09:02:37.995Z</time></trkpt><trkpt lat="44.8118433" lon="9.217535"><ele>458.0</ele><time>2026-04-25T09:02:38.995Z</time></trkpt><trkpt lat="44.8116983" lon="9.21763"><ele>458.0</ele><time>2026-04-25T09:02:39.995Z</time></trkpt><trkpt lat="44.8115467" lon="9.2177217"><ele>458.0</ele><time>2026-04-25T09:02:40.994Z</time></trkpt><trkpt lat="44.8113933" lon="9.2178083"><ele>458.0</ele><time>2026-04-25T09:02:41.994Z</time></trkpt><trkpt lat="44.8112433" lon="9.2179083"><ele>458.0</ele><time>2026-04-25T09:02:42.999Z</time></trkpt><trkpt lat="44.8111033" lon="9.2180267"><ele>458.0</ele><time>2026-04-25T09:02:43.996Z</time></trkpt><trkpt lat="44.810965" lon="9.2181717"><ele>458.0</ele><time>2026-04-25T09:02:44.995Z</time></trkpt><trkpt lat="44.8108417" lon="9.21833"><ele>458.0</ele><time>2026-04-25T09:02:45.997Z</time></trkpt><trkpt lat="44.8107333" lon="9.2185083"><ele>458.0</ele><time>2026-04-25T09:02:46.995Z</time></trkpt><trkpt lat="44.8106367" lon="9.2187033"><ele>458.0</ele><time>2026-04-25T09:02:47.995Z</time></trkpt><trkpt lat="44.8105517" lon="9.2189017"><ele>460.0</ele><time>2026-04-25T09:02:48.995Z</time></trkpt><trkpt lat="44.8104667" lon="9.2191083"><ele>462.0</ele><time>2026-04-25T09:02:50Z</time></trkpt><trkpt lat="44.810385" lon="9.21932"><ele>464.0</ele><time>2026-04-25T09:02:50.998Z</time></trkpt><trkpt lat="44.8103033" lon="9.2195267"><ele>464.0</ele><time>2026-04-25T09:02:51.996Z</time></trkpt><trkpt lat="44.8102167" lon="9.21972"><ele>464.0</ele><time>2026-04-25T09:02:52.995Z</time></trkpt><trkpt lat="44.8101283" lon="9.219895"><ele>464.0</ele><time>2026-04-25T09:02:54Z</time></trkpt><trkpt lat="44.8100283" lon="9.2200517"><ele>463.25</ele><time>2026-04-25T09:02:55.002Z</time></trkpt><trkpt lat="44.8099183" lon="9.2201767"><ele>462.5</ele><time>2026-04-25T09:02:55.999Z</time></trkpt><trkpt lat="44.8097983" lon="9.2202733"><ele>461.75</ele><time>2026-04-25T09:02:57.002Z</time></trkpt><trkpt lat="44.8096733" lon="9.2203483"><ele>461.0</ele><time>2026-04-25T09:02:57.997Z</time></trkpt><trkpt lat="44.809535" lon="9.2204083"><ele>461.0</ele><time>2026-04-25T09:02:58.994Z</time></trkpt><trkpt lat="44.809395" lon="9.2204667"><ele>461.0</ele><time>2026-04-25T09:03:00.015Z</time></trkpt><trkpt lat="44.8092583" lon="9.22052"><ele>461.0</ele><time>2026-04-25T09:03:00.999Z</time></trkpt><trkpt lat="44.8091217" lon="9.2205733"><ele>461.0</ele><time>2026-04-25T09:03:01.994Z</time></trkpt><trkpt lat="44.80899" lon="9.2206333"><ele>461.75</ele><time>2026-04-25T09:03:02.995Z</time></trkpt><trkpt lat="44.8088717" lon="9.22072"><ele>462.5</ele><time>2026-04-25T09:03:03.995Z</time></trkpt><trkpt lat="44.8087667" lon="9.2208317"><ele>463.25</ele><time>2026-04-25T09:03:04.994Z</time></trkpt><trkpt lat="44.8086817" lon="9.2209783"><ele>464.0</ele><time>2026-04-25T09:03:05.995Z</time></trkpt><trkpt lat="44.80861" lon="9.2211417"><ele>464.0</ele><time>2026-04-25T09:03:06.996Z</time></trkpt><trkpt lat="44.8085517" lon="9.2213167"><ele>464.0</ele><time>2026-04-25T09:03:07.996Z</time></trkpt><trkpt lat="44.808495" lon="9.221495"><ele>464.0</ele><time>2026-04-25T09:03:09.001Z</time></trkpt><trkpt lat="44.80844" lon="9.22167"><ele>464.0</ele><time>2026-04-25T09:03:09.995Z</time></trkpt><trkpt lat="44.8083833" lon="9.221825"><ele>464.0</ele><time>2026-04-25T09:03:10.993Z</time></trkpt><trkpt lat="44.80831" lon="9.221945"><ele>464.0</ele><time>2026-04-25T09:03:11.994Z</time></trkpt><trkpt lat="44.8082183" lon="9.2220133"><ele>464.0</ele><time>2026-04-25T09:03:12.996Z</time></trkpt><trkpt lat="44.808115" lon="9.2220617"><ele>464.0</ele><time>2026-04-25T09:03:13.994Z</time></trkpt><trkpt lat="44.807995" lon="9.222075"><ele>464.0</ele><time>2026-04-25T09:03:14.993Z</time></trkpt><trkpt lat="44.8078583" lon="9.2220767"><ele>464.0</ele><time>2026-04-25T09:03:16Z</time></trkpt><trkpt lat="44.8077083" lon="9.22208"><ele>464.0</ele><time>2026-04-25T09:03:16.997Z</time></trkpt><trkpt lat="44.8075667" lon="9.2220767"><ele>464.0</ele><time>2026-04-25T09:03:17.996Z</time></trkpt><trkpt lat="44.8074283" lon="9.22207"><ele>464.0</ele><time>2026-04-25T09:03:18.996Z</time></trkpt><trkpt lat="44.8072883" lon="9.22207"><ele>464.0</ele><time>2026-04-25T09:03:19.996Z</time></trkpt><trkpt lat="44.8071533" lon="9.222105"><ele>464.0</ele><time>2026-04-25T09:03:20.995Z</time></trkpt><trkpt lat="44.8070283" lon="9.2221833"><ele>464.0</ele><time>2026-04-25T09:03:21.995Z</time></trkpt><trkpt lat="44.80691" lon="9.22228"><ele>464.0</ele><time>2026-04-25T09:03:22.994Z</time></trkpt><trkpt lat="44.8067933" lon="9.2224017"><ele>465.25</ele><time>2026-04-25T09:03:23.996Z</time></trkpt><trkpt lat="44.806685" lon="9.222545"><ele>466.5</ele><time>2026-04-25T09:03:24.996Z</time></trkpt><trkpt lat="44.806575" lon="9.2226917"><ele>467.75</ele><time>2026-04-25T09:03:25.999Z</time></trkpt><trkpt lat="44.806475" lon="9.2228417"><ele>469.0</ele><time>2026-04-25T09:03:26.995Z</time></trkpt><trkpt lat="44.8063883" lon="9.2229833"><ele>469.0</ele><time>2026-04-25T09:03:27.994Z</time></trkpt><trkpt lat="44.8063133" lon="9.2231183"><ele>469.0</ele><time>2026-04-25T09:03:28.995Z</time></trkpt><trkpt lat="44.80627" lon="9.2232767"><ele>469.0</ele><time>2026-04-25T09:03:29.994Z</time></trkpt><trkpt lat="44.806255" lon="9.22343"><ele>469.0</ele><time>2026-04-25T09:03:30.996Z</time></trkpt><trkpt lat="44.8062733" lon="9.2235883"><ele>470.25</ele><time>2026-04-25T09:03:31.993Z</time></trkpt><trkpt lat="44.80632" lon="9.2237317"><ele>471.5</ele><time>2026-04-25T09:03:33Z</time></trkpt><trkpt lat="44.8063883" lon="9.2238733"><ele>472.75</ele><time>2026-04-25T09:03:33.995Z</time></trkpt><trkpt lat="44.8064667" lon="9.2240067"><ele>474.0</ele><time>2026-04-25T09:03:34.995Z</time></trkpt><trkpt lat="44.8065367" lon="9.2241417"><ele>475.25</ele><time>2026-04-25T09:03:35.994Z</time></trkpt><trkpt lat="44.8065883" lon="9.224295"><ele>476.5</ele><time>2026-04-25T09:03:36.993Z</time></trkpt><trkpt lat="44.8066217" lon="9.224455"><ele>477.75</ele><time>2026-04-25T09:03:37.999Z</time></trkpt><trkpt lat="44.8066283" lon="9.2246167"><ele>479.0</ele><time>2026-04-25T09:03:38.994Z</time></trkpt><trkpt lat="44.806625" lon="9.224785"><ele>480.0</ele><time>2026-04-25T09:03:40.002Z</time></trkpt><trkpt lat="44.8065983" lon="9.2249517"><ele>481.0</ele><time>2026-04-25T09:03:40.995Z</time></trkpt><trkpt lat="44.8065417" lon="9.2250917"><ele>482.0</ele><time>2026-04-25T09:03:41.999Z</time></trkpt><trkpt lat="44.8064633" lon="9.2252117"><ele>483.0</ele><time>2026-04-25T09:03:43Z</time></trkpt><trkpt lat="44.8063667" lon="9.2252883"><ele>483.0</ele><time>2026-04-25T09:03:43.994Z</time></trkpt><trkpt lat="44.806255" lon="9.2253367"><ele>483.0</ele><time>2026-04-25T09:03:44.998Z</time></trkpt><trkpt lat="44.8061383" lon="9.2253867"><ele>483.0</ele><time>2026-04-25T09:03:45.997Z</time></trkpt><trkpt lat="44.806025" lon="9.2254367"><ele>483.0</ele><time>2026-04-25T09:03:46.996Z</time></trkpt><trkpt lat="44.80591" lon="9.22549"><ele>482.25</ele><time>2026-04-25T09:03:47.995Z</time></trkpt><trkpt lat="44.8057883" lon="9.2255433"><ele>481.5</ele><time>2026-04-25T09:03:48.997Z</time></trkpt><trkpt lat="44.805685" lon="9.2256267"><ele>480.75</ele><time>2026-04-25T09:03:49.993Z</time></trkpt><trkpt lat="44.8055967" lon="9.2257417"><ele>480.0</ele><time>2026-04-25T09:03:50.996Z</time></trkpt><trkpt lat="44.8055233" lon="9.22587"><ele>481.4</ele><time>2026-04-25T09:03:51.994Z</time></trkpt><trkpt lat="44.8054617" lon="9.2259983"><ele>482.8</ele><time>2026-04-25T09:03:52.995Z</time></trkpt><trkpt lat="44.805415" lon="9.2261367"><ele>484.20000000000005</ele><time>2026-04-25T09:03:53.994Z</time></trkpt><trkpt lat="44.8054033" lon="9.226275"><ele>485.6</ele><time>2026-04-25T09:03:55.002Z</time></trkpt><trkpt lat="44.8054217" lon="9.22643"><ele>487.0</ele><time>2026-04-25T09:03:55.995Z</time></trkpt><trkpt lat="44.8054633" lon="9.2265867"><ele>488.25</ele><time>2026-04-25T09:03:56.996Z</time></trkpt><trkpt lat="44.8055183" lon="9.2267417"><ele>489.5</ele><time>2026-04-25T09:03:57.997Z</time></trkpt><trkpt lat="44.8055733" lon="9.2268917"><ele>490.75</ele><time>2026-04-25T09:03:58.999Z</time></trkpt><trkpt lat="44.80562" lon="9.2270467"><ele>492.0</ele><time>2026-04-25T09:03:59.997Z</time></trkpt><trkpt lat="44.8056717" lon="9.227195"><ele>492.0</ele><time>2026-04-25T09:04:01Z</time></trkpt><trkpt lat="44.8057033" lon="9.2273067"><ele>492.0</ele><time>2026-04-25T09:04:01.996Z</time></trkpt><trkpt lat="44.8057317" lon="9.2274167"><ele>492.0</ele><time>2026-04-25T09:04:03.995Z</time></trkpt><trkpt lat="44.8057583" lon="9.2275333"><ele>492.0</ele><time>2026-04-25T09:04:05.996Z</time></trkpt><trkpt lat="44.8057583" lon="9.2276333"><ele>492.0</ele><time>2026-04-25T09:04:06.996Z</time></trkpt><trkpt lat="44.8057633" lon="9.2277467"><ele>492.0</ele><time>2026-04-25T09:04:07.995Z</time></trkpt><trkpt lat="44.8057567" lon="9.227865"><ele>492.5</ele><time>2026-04-25T09:04:08.994Z</time></trkpt><trkpt lat="44.80574" lon="9.2279883"><ele>493.0</ele><time>2026-04-25T09:04:09.993Z</time></trkpt><trkpt lat="44.8057" lon="9.22814"><ele>493.5</ele><time>2026-04-25T09:04:10.997Z</time></trkpt><trkpt lat="44.8056583" lon="9.2283183"><ele>494.0</ele><time>2026-04-25T09:04:11.993Z</time></trkpt><trkpt lat="44.8056217" lon="9.2284883"><ele>494.75</ele><time>2026-04-25T09:04:12.995Z</time></trkpt><trkpt lat="44.8055817" lon="9.2286533"><ele>495.5</ele><time>2026-04-25T09:04:13.995Z</time></trkpt><trkpt lat="44.8055333" lon="9.2288433"><ele>496.25</ele><time>2026-04-25T09:04:14.994Z</time></trkpt><trkpt lat="44.80548" lon="9.2290483"><ele>497.0</ele><time>2026-04-25T09:04:15.995Z</time></trkpt><trkpt lat="44.8054417" lon="9.229275"><ele>499.3333333333333</ele><time>2026-04-25T09:04:16.993Z</time></trkpt><trkpt lat="44.8054167" lon="9.2294933"><ele>501.66666666666663</ele><time>2026-04-25T09:04:17.994Z</time></trkpt><trkpt lat="44.8054017" lon="9.22972"><ele>504.0</ele><time>2026-04-25T09:04:19Z</time></trkpt><trkpt lat="44.8053867" lon="9.2299383"><ele>505.25</ele><time>2026-04-25T09:04:19.993Z</time></trkpt><trkpt lat="44.8053767" lon="9.23016"><ele>506.5</ele><time>2026-04-25T09:04:20.998Z</time></trkpt><trkpt lat="44.8053783" lon="9.2303633"><ele>507.75</ele><time>2026-04-25T09:04:22Z</time></trkpt><trkpt lat="44.8053767" lon="9.23055"><ele>509.0</ele><time>2026-04-25T09:04:22.996Z</time></trkpt><trkpt lat="44.80536" lon="9.2307333"><ele>509.5</ele><time>2026-04-25T09:04:23.996Z</time></trkpt><trkpt lat="44.8053233" lon="9.2309067"><ele>510.0</ele><time>2026-04-25T09:04:24.994Z</time></trkpt><trkpt lat="44.8052617" lon="9.23107"><ele>510.5</ele><time>2026-04-25T09:04:25.994Z</time></trkpt><trkpt lat="44.8051817" lon="9.2312183"><ele>511.0</ele><time>2026-04-25T09:04:26.998Z</time></trkpt><trkpt lat="44.80509" lon="9.23137"><ele>509.0</ele><time>2026-04-25T09:04:27.996Z</time></trkpt><trkpt lat="44.8050117" lon="9.2315517"><ele>507.0</ele><time>2026-04-25T09:04:29Z</time></trkpt><trkpt lat="44.8049433" lon="9.2317533"><ele>505.0</ele><time>2026-04-25T09:04:29.995Z</time></trkpt><trkpt lat="44.8048883" lon="9.2319567"><ele>505.0</ele><time>2026-04-25T09:04:30.995Z</time></trkpt><trkpt lat="44.8048433" lon="9.2321633"><ele>505.0</ele><time>2026-04-25T09:04:31.994Z</time></trkpt><trkpt lat="44.804805" lon="9.23237"><ele>505.0</ele><time>2026-04-25T09:04:32.996Z</time></trkpt><trkpt lat="44.8047783" lon="9.23259"><ele>506.0</ele><time>2026-04-25T09:04:33.996Z</time></trkpt><trkpt lat="44.804755" lon="9.23281"><ele>507.0</ele><time>2026-04-25T09:04:34.994Z</time></trkpt><trkpt lat="44.804755" lon="9.2330433"><ele>508.0</ele><time>2026-04-25T09:04:35.995Z</time></trkpt><trkpt lat="44.804765" lon="9.2332817"><ele>508.0</ele><time>2026-04-25T09:04:37.004Z</time></trkpt><trkpt lat="44.80478" lon="9.2335167"><ele>508.0</ele><time>2026-04-25T09:04:37.997Z</time></trkpt><trkpt lat="44.804795" lon="9.2337533"><ele>508.0</ele><time>2026-04-25T09:04:38.999Z</time></trkpt><trkpt lat="44.8047983" lon="9.2339883"><ele>508.6666666666667</ele><time>2026-04-25T09:04:39.997Z</time></trkpt><trkpt lat="44.80478" lon="9.2342167"><ele>509.33333333333337</ele><time>2026-04-25T09:04:40.997Z</time></trkpt><trkpt lat="44.804745" lon="9.23444"><ele>510.0</ele><time>2026-04-25T09:04:41.995Z</time></trkpt><trkpt lat="44.804675" lon="9.2346617"><ele>511.66666666666663</ele><time>2026-04-25T09:04:42.998Z</time></trkpt><trkpt lat="44.8046067" lon="9.23488"><ele>513.3333333333333</ele><time>2026-04-25T09:04:44Z</time></trkpt><trkpt lat="44.8045333" lon="9.23511"><ele>515.0</ele><time>2026-04-25T09:04:44.995Z</time></trkpt><trkpt lat="44.804475" lon="9.2353417"><ele>515.0</ele><time>2026-04-25T09:04:45.999Z</time></trkpt><trkpt lat="44.8044267" lon="9.2355867"><ele>515.0</ele><time>2026-04-25T09:04:46.996Z</time></trkpt><trkpt lat="44.804395" lon="9.2358333"><ele>515.0</ele><time>2026-04-25T09:04:47.995Z</time></trkpt><trkpt lat="44.8043717" lon="9.23608"><ele>516.6666666666666</ele><time>2026-04-25T09:04:49.001Z</time></trkpt><trkpt lat="44.8043633" lon="9.2363267"><ele>518.3333333333334</ele><time>2026-04-25T09:04:50.001Z</time></trkpt><trkpt lat="44.804355" lon="9.236565"><ele>520.0</ele><time>2026-04-25T09:04:50.999Z</time></trkpt><trkpt lat="44.8043417" lon="9.2368"><ele>521.3333333333334</ele><time>2026-04-25T09:04:52.003Z</time></trkpt><trkpt lat="44.8043333" lon="9.2370367"><ele>522.6666666666666</ele><time>2026-04-25T09:04:52.995Z</time></trkpt><trkpt lat="44.804325" lon="9.2372683"><ele>524.0</ele><time>2026-04-25T09:04:53.996Z</time></trkpt><trkpt lat="44.8043183" lon="9.2374983"><ele>518.6666666666666</ele><time>2026-04-25T09:04:55.007Z</time></trkpt><trkpt lat="44.8043083" lon="9.2377283"><ele>513.3333333333334</ele><time>2026-04-25T09:04:55.995Z</time></trkpt><trkpt lat="44.8042917" lon="9.237955"><ele>508.0</ele><time>2026-04-25T09:04:56.999Z</time></trkpt><trkpt lat="44.8042717" lon="9.2381833"><ele>508.0</ele><time>2026-04-25T09:04:57.995Z</time></trkpt><trkpt lat="44.80423" lon="9.2384017"><ele>508.0</ele><time>2026-04-25T09:04:58.996Z</time></trkpt><trkpt lat="44.80416" lon="9.238595"><ele>508.0</ele><time>2026-04-25T09:04:59.997Z</time></trkpt><trkpt lat="44.8040667" lon="9.2387667"><ele>508.0</ele><time>2026-04-25T09:05:00.999Z</time></trkpt><trkpt lat="44.8039517" lon="9.2389067"><ele>508.0</ele><time>2026-04-25T09:05:01.997Z</time></trkpt><trkpt lat="44.803825" lon="9.2390117"><ele>508.0</ele><time>2026-04-25T09:05:02.995Z</time></trkpt><trkpt lat="44.803685" lon="9.2391"><ele>507.6666666666667</ele><time>2026-04-25T09:05:03.993Z</time></trkpt><trkpt lat="44.80353" lon="9.2391883"><ele>507.33333333333337</ele><time>2026-04-25T09:05:05.003Z</time></trkpt><trkpt lat="44.8033733" lon="9.2392833"><ele>507.0</ele><time>2026-04-25T09:05:05.996Z</time></trkpt><trkpt lat="44.8032117" lon="9.239385"><ele>503.33333333333337</ele><time>2026-04-25T09:05:06.997Z</time></trkpt><trkpt lat="44.8030467" lon="9.2394833"><ele>499.6666666666667</ele><time>2026-04-25T09:05:08.001Z</time></trkpt><trkpt lat="44.80288" lon="9.2395833"><ele>496.0</ele><time>2026-04-25T09:05:08.994Z</time></trkpt><trkpt lat="44.8027117" lon="9.2396867"><ele>496.33333333333337</ele><time>2026-04-25T09:05:09.995Z</time></trkpt><trkpt lat="44.802545" lon="9.2397967"><ele>496.66666666666663</ele><time>2026-04-25T09:05:11.001Z</time></trkpt><trkpt lat="44.8023783" lon="9.239905"><ele>497.0</ele><time>2026-04-25T09:05:11.997Z</time></trkpt><trkpt lat="44.8022183" lon="9.2400117"><ele>500.0</ele><time>2026-04-25T09:05:12.998Z</time></trkpt><trkpt lat="44.8020533" lon="9.2401167"><ele>503.0</ele><time>2026-04-25T09:05:14.002Z</time></trkpt><trkpt lat="44.8018917" lon="9.2402217"><ele>506.0</ele><time>2026-04-25T09:05:14.999Z</time></trkpt><trkpt lat="44.8017283" lon="9.2403217"><ele>507.66666666666663</ele><time>2026-04-25T09:05:15.998Z</time></trkpt><trkpt lat="44.801565" lon="9.240425"><ele>509.33333333333337</ele><time>2026-04-25T09:05:16.994Z</time></trkpt><trkpt lat="44.8014033" lon="9.2405267"><ele>511.0</ele><time>2026-04-25T09:05:17.996Z</time></trkpt><trkpt lat="44.8012433" lon="9.2406233"><ele>513.0</ele><time>2026-04-25T09:05:19.004Z</time></trkpt><trkpt lat="44.8010833" lon="9.2407267"><ele>515.0</ele><time>2026-04-25T09:05:19.994Z</time></trkpt><trkpt lat="44.800925" lon="9.24082"><ele>517.0</ele><time>2026-04-25T09:05:20.995Z</time></trkpt><trkpt lat="44.8007733" lon="9.24092"><ele>517.0</ele><time>2026-04-25T09:05:21.995Z</time></trkpt><trkpt lat="44.8006367" lon="9.24102"><ele>517.0</ele><time>2026-04-25T09:05:22.994Z</time></trkpt><trkpt lat="44.8005133" lon="9.2411317"><ele>517.0</ele><time>2026-04-25T09:05:23.994Z</time></trkpt><trkpt lat="44.8004033" lon="9.2412583"><ele>517.0</ele><time>2026-04-25T09:05:24.995Z</time></trkpt><trkpt lat="44.8003033" lon="9.2413817"><ele>519.0</ele><time>2026-04-25T09:05:25.998Z</time></trkpt><trkpt lat="44.800205" lon="9.2415017"><ele>521.0</ele><time>2026-04-25T09:05:26.997Z</time></trkpt><trkpt lat="44.8001117" lon="9.2415983"><ele>523.0</ele><time>2026-04-25T09:05:27.998Z</time></trkpt><trkpt lat="44.8000217" lon="9.2416633"><ele>525.0</ele><time>2026-04-25T09:05:28.999Z</time></trkpt><trkpt lat="44.79993" lon="9.241685"><ele>527.0</ele><time>2026-04-25T09:05:29.996Z</time></trkpt><trkpt lat="44.799835" lon="9.2416683"><ele>527.0</ele><time>2026-04-25T09:05:30.995Z</time></trkpt><trkpt lat="44.7997417" lon="9.24162"><ele>527.0</ele><time>2026-04-25T09:05:31.994Z</time></trkpt><trkpt lat="44.7996567" lon="9.241535"><ele>527.0</ele><time>2026-04-25T09:05:33Z</time></trkpt><trkpt lat="44.799585" lon="9.2414333"><ele>527.0</ele><time>2026-04-25T09:05:33.995Z</time></trkpt><trkpt lat="44.7995383" lon="9.24131"><ele>527.0</ele><time>2026-04-25T09:05:34.995Z</time></trkpt><trkpt lat="44.79951" lon="9.2411667"><ele>526.5</ele><time>2026-04-25T09:05:36.002Z</time></trkpt><trkpt lat="44.799495" lon="9.2409967"><ele>526.0</ele><time>2026-04-25T09:05:36.997Z</time></trkpt><trkpt lat="44.7994833" lon="9.24081"><ele>525.5</ele><time>2026-04-25T09:05:37.994Z</time></trkpt><trkpt lat="44.7994583" lon="9.2406"><ele>525.0</ele><time>2026-04-25T09:05:38.998Z</time></trkpt><trkpt lat="44.7994383" lon="9.2403883"><ele>525.0</ele><time>2026-04-25T09:05:39.994Z</time></trkpt><trkpt lat="44.7994233" lon="9.2401867"><ele>525.0</ele><time>2026-04-25T09:05:40.995Z</time></trkpt><trkpt lat="44.799395" lon="9.2399917"><ele>525.0</ele><time>2026-04-25T09:05:41.993Z</time></trkpt><trkpt lat="44.7993433" lon="9.2398133"><ele>525.0</ele><time>2026-04-25T09:05:42.998Z</time></trkpt><trkpt lat="44.79931" lon="9.2396267"><ele>523.0</ele><time>2026-04-25T09:05:43.995Z</time></trkpt><trkpt lat="44.7992967" lon="9.239435"><ele>521.0</ele><time>2026-04-25T09:05:44.997Z</time></trkpt><trkpt lat="44.7993" lon="9.23924"><ele>519.0</ele><time>2026-04-25T09:05:45.994Z</time></trkpt><trkpt lat="44.7993167" lon="9.2390417"><ele>517.0</ele><time>2026-04-25T09:05:46.995Z</time></trkpt><trkpt lat="44.7993367" lon="9.2388483"><ele>517.0</ele><time>2026-04-25T09:05:47.995Z</time></trkpt><trkpt lat="44.7993583" lon="9.2386667"><ele>517.0</ele><time>2026-04-25T09:05:48.996Z</time></trkpt><trkpt lat="44.7993717" lon="9.2385067"><ele>517.0</ele><time>2026-04-25T09:05:49.995Z</time></trkpt><trkpt lat="44.7993583" lon="9.2383717"><ele>517.0</ele><time>2026-04-25T09:05:50.999Z</time></trkpt><trkpt lat="44.7993267" lon="9.2382367"><ele>517.0</ele><time>2026-04-25T09:05:51.998Z</time></trkpt><trkpt lat="44.7992733" lon="9.2381067"><ele>520.8000000000001</ele><time>2026-04-25T09:05:52.995Z</time></trkpt><trkpt lat="44.7992117" lon="9.2379867"><ele>524.6</ele><time>2026-04-25T09:05:53.998Z</time></trkpt><trkpt lat="44.7991467" lon="9.23788"><ele>528.4000000000001</ele><time>2026-04-25T09:05:54.994Z</time></trkpt><trkpt lat="44.7990683" lon="9.2377967"><ele>532.2</ele><time>2026-04-25T09:05:55.997Z</time></trkpt><trkpt lat="44.7989767" lon="9.237755"><ele>536.0</ele><time>2026-04-25T09:05:56.994Z</time></trkpt><trkpt lat="44.798875" lon="9.2377533"><ele>536.0</ele><time>2026-04-25T09:05:57.996Z</time></trkpt><trkpt lat="44.7987517" lon="9.2377567"><ele>536.0</ele><time>2026-04-25T09:05:58.998Z</time></trkpt><trkpt lat="44.7986317" lon="9.2377517"><ele>536.0</ele><time>2026-04-25T09:05:59.997Z</time></trkpt><trkpt lat="44.798515" lon="9.2377183"><ele>536.0</ele><time>2026-04-25T09:06:00.997Z</time></trkpt><trkpt lat="44.7983967" lon="9.237665"><ele>538.5</ele><time>2026-04-25T09:06:02.001Z</time></trkpt><trkpt lat="44.79828" lon="9.2375983"><ele>541.0</ele><time>2026-04-25T09:06:02.997Z</time></trkpt><trkpt lat="44.79817" lon="9.237525"><ele>543.5</ele><time>2026-04-25T09:06:03.994Z</time></trkpt><trkpt lat="44.7980683" lon="9.2374283"><ele>546.0</ele><time>2026-04-25T09:06:04.997Z</time></trkpt><trkpt lat="44.797975" lon="9.2373267"><ele>546.4</ele><time>2026-04-25T09:06:05.995Z</time></trkpt><trkpt lat="44.797885" lon="9.23722"><ele>546.8</ele><time>2026-04-25T09:06:06.997Z</time></trkpt><trkpt lat="44.7978017" lon="9.2371183"><ele>547.1999999999999</ele><time>2026-04-25T09:06:07.994Z</time></trkpt><trkpt lat="44.79772" lon="9.2370333"><ele>547.6</ele><time>2026-04-25T09:06:08.995Z</time></trkpt><trkpt lat="44.7976367" lon="9.236955"><ele>548.0</ele><time>2026-04-25T09:06:09.995Z</time></trkpt><trkpt lat="44.7975383" lon="9.236905"><ele>548.0</ele><time>2026-04-25T09:06:10.996Z</time></trkpt><trkpt lat="44.7974267" lon="9.2368833"><ele>548.0</ele><time>2026-04-25T09:06:11.995Z</time></trkpt><trkpt lat="44.7973117" lon="9.2368817"><ele>548.0</ele><time>2026-04-25T09:06:12.993Z</time></trkpt><trkpt lat="44.7972033" lon="9.2368817"><ele>548.0</ele><time>2026-04-25T09:06:13.998Z</time></trkpt><trkpt lat="44.7970917" lon="9.2368567"><ele>548.0</ele><time>2026-04-25T09:06:14.994Z</time></trkpt><trkpt lat="44.7969867" lon="9.2368117"><ele>548.0</ele><time>2026-04-25T09:06:15.997Z</time></trkpt><trkpt lat="44.7968933" lon="9.23675"><ele>548.0</ele><time>2026-04-25T09:06:16.996Z</time></trkpt><trkpt lat="44.7968183" lon="9.2366733"><ele>548.0</ele><time>2026-04-25T09:06:17.994Z</time></trkpt><trkpt lat="44.7967617" lon="9.2365683"><ele>548.0</ele><time>2026-04-25T09:06:18.997Z</time></trkpt><trkpt lat="44.7967233" lon="9.2364483"><ele>548.0</ele><time>2026-04-25T09:06:19.995Z</time></trkpt><trkpt lat="44.7967267" lon="9.2363067"><ele>547.0</ele><time>2026-04-25T09:06:21.001Z</time></trkpt><trkpt lat="44.7967633" lon="9.23615"><ele>546.0</ele><time>2026-04-25T09:06:22.001Z</time></trkpt><trkpt lat="44.7967983" lon="9.235995"><ele>545.0</ele><time>2026-04-25T09:06:22.999Z</time></trkpt><trkpt lat="44.7968283" lon="9.2358367"><ele>544.0</ele><time>2026-04-25T09:06:23.998Z</time></trkpt><trkpt lat="44.7968517" lon="9.2356767"><ele>544.75</ele><time>2026-04-25T09:06:24.995Z</time></trkpt><trkpt lat="44.796875" lon="9.2355117"><ele>545.5</ele><time>2026-04-25T09:06:25.997Z</time></trkpt><trkpt lat="44.796895" lon="9.2353483"><ele>546.25</ele><time>2026-04-25T09:06:26.997Z</time></trkpt><trkpt lat="44.7969317" lon="9.2351883"><ele>547.0</ele><time>2026-04-25T09:06:27.994Z</time></trkpt><trkpt lat="44.7969817" lon="9.235045"><ele>547.0</ele><time>2026-04-25T09:06:28.995Z</time></trkpt><trkpt lat="44.797055" lon="9.2349267"><ele>547.0</ele><time>2026-04-25T09:06:29.996Z</time></trkpt><trkpt lat="44.797105" lon="9.234815"><ele>547.0</ele><time>2026-04-25T09:06:30.995Z</time></trkpt><trkpt lat="44.7971217" lon="9.234695"><ele>547.0</ele><time>2026-04-25T09:06:31.996Z</time></trkpt><trkpt lat="44.797125" lon="9.2345683"><ele>547.0</ele><time>2026-04-25T09:06:33.005Z</time></trkpt><trkpt lat="44.797105" lon="9.2344483"><ele>546.6</ele><time>2026-04-25T09:06:33.995Z</time></trkpt><trkpt lat="44.79706" lon="9.2343383"><ele>546.2</ele><time>2026-04-25T09:06:34.996Z</time></trkpt><trkpt lat="44.7969917" lon="9.2342467"><ele>545.8</ele><time>2026-04-25T09:06:35.998Z</time></trkpt><trkpt lat="44.796905" lon="9.23417"><ele>545.4</ele><time>2026-04-25T09:06:36.999Z</time></trkpt><trkpt lat="44.7968133" lon="9.2341"><ele>545.0</ele><time>2026-04-25T09:06:37.996Z</time></trkpt><trkpt lat="44.7967233" lon="9.234035"><ele>549.2</ele><time>2026-04-25T09:06:39.002Z</time></trkpt><trkpt lat="44.7966317" lon="9.2340017"><ele>553.4</ele><time>2026-04-25T09:06:39.997Z</time></trkpt><trkpt lat="44.7965267" lon="9.2340033"><ele>557.6</ele><time>2026-04-25T09:06:40.996Z</time></trkpt><trkpt lat="44.7964133" lon="9.234045"><ele>561.8</ele><time>2026-04-25T09:06:41.995Z</time></trkpt><trkpt lat="44.796295" lon="9.234115"><ele>566.0</ele><time>2026-04-25T09:06:42.997Z</time></trkpt><trkpt lat="44.7961783" lon="9.2341783"><ele>566.0</ele><time>2026-04-25T09:06:43.993Z</time></trkpt><trkpt lat="44.7960667" lon="9.2342367"><ele>566.0</ele><time>2026-04-25T09:06:44.996Z</time></trkpt><trkpt lat="44.7959633" lon="9.234275"><ele>566.0</ele><time>2026-04-25T09:06:46Z</time></trkpt><trkpt lat="44.7958583" lon="9.2342867"><ele>566.0</ele><time>2026-04-25T09:06:46.996Z</time></trkpt><trkpt lat="44.7957733" lon="9.23425"><ele>566.0</ele><time>2026-04-25T09:06:47.997Z</time></trkpt><trkpt lat="44.7956933" lon="9.23419"><ele>567.3333333333333</ele><time>2026-04-25T09:06:48.995Z</time></trkpt><trkpt lat="44.7956017" lon="9.2341533"><ele>568.6666666666666</ele><time>2026-04-25T09:06:49.998Z</time></trkpt><trkpt lat="44.7955167" lon="9.2341567"><ele>570.0</ele><time>2026-04-25T09:06:50.999Z</time></trkpt><trkpt lat="44.79543" lon="9.2341717"><ele>571.3333333333334</ele><time>2026-04-25T09:06:51.995Z</time></trkpt><trkpt lat="44.7953483" lon="9.23419"><ele>572.6666666666667</ele><time>2026-04-25T09:06:52.997Z</time></trkpt><trkpt lat="44.795265" lon="9.234185"><ele>574.0</ele><time>2026-04-25T09:06:53.995Z</time></trkpt><trkpt lat="44.7951767" lon="9.2341783"><ele>574.1666666666667</ele><time>2026-04-25T09:06:54.996Z</time></trkpt><trkpt lat="44.79511" lon="9.2341633"><ele>574.3333333333334</ele><time>2026-04-25T09:06:55.994Z</time></trkpt><trkpt lat="44.7950467" lon="9.2341267"><ele>574.5</ele><time>2026-04-25T09:06:56.998Z</time></trkpt><trkpt lat="44.7950283" lon="9.23399"><ele>574.6666666666666</ele><time>2026-04-25T09:06:57.994Z</time></trkpt><trkpt lat="44.7950167" lon="9.23386"><ele>574.8333333333333</ele><time>2026-04-25T09:06:58.997Z</time></trkpt><trkpt lat="44.7949967" lon="9.2337133"><ele>575.0</ele><time>2026-04-25T09:06:59.994Z</time></trkpt><trkpt lat="44.79496" lon="9.233615"><ele>575.0</ele><time>2026-04-25T09:07:00.998Z</time></trkpt><trkpt lat="44.79491" lon="9.2335033"><ele>575.0</ele><time>2026-04-25T09:07:01.997Z</time></trkpt><trkpt lat="44.79481" lon="9.23344"><ele>575.0</ele><time>2026-04-25T09:07:02.997Z</time></trkpt><trkpt lat="44.7946933" lon="9.2333983"><ele>575.0</ele><time>2026-04-25T09:07:03.996Z</time></trkpt><trkpt lat="44.7945783" lon="9.233385"><ele>575.0</ele><time>2026-04-25T09:07:05Z</time></trkpt><trkpt lat="44.794455" lon="9.2333867"><ele>576.0</ele><time>2026-04-25T09:07:05.996Z</time></trkpt><trkpt lat="44.7943183" lon="9.2334183"><ele>577.0</ele><time>2026-04-25T09:07:06.995Z</time></trkpt><trkpt lat="44.7941817" lon="9.2334667"><ele>578.0</ele><time>2026-04-25T09:07:07.994Z</time></trkpt><trkpt lat="44.7940467" lon="9.2335217"><ele>579.0</ele><time>2026-04-25T09:07:09Z</time></trkpt><trkpt lat="44.7939167" lon="9.23358"><ele>579.0</ele><time>2026-04-25T09:07:09.997Z</time></trkpt><trkpt lat="44.79378" lon="9.2336267"><ele>579.0</ele><time>2026-04-25T09:07:10.993Z</time></trkpt><trkpt lat="44.7936433" lon="9.23366"><ele>579.0</ele><time>2026-04-25T09:07:11.999Z</time></trkpt><trkpt lat="44.793505" lon="9.2336633"><ele>579.0</ele><time>2026-04-25T09:07:12.997Z</time></trkpt><trkpt lat="44.7933717" lon="9.2336467"><ele>579.75</ele><time>2026-04-25T09:07:13.995Z</time></trkpt><trkpt lat="44.793235" lon="9.233615"><ele>580.5</ele><time>2026-04-25T09:07:14.996Z</time></trkpt><trkpt lat="44.793105" lon="9.2335917"><ele>581.25</ele><time>2026-04-25T09:07:15.996Z</time></trkpt><trkpt lat="44.7929817" lon="9.2335683"><ele>582.0</ele><time>2026-04-25T09:07:16.995Z</time></trkpt><trkpt lat="44.792875" lon="9.233555"><ele>582.0</ele><time>2026-04-25T09:07:17.996Z</time></trkpt><trkpt lat="44.7927783" lon="9.2335633"><ele>582.0</ele><time>2026-04-25T09:07:18.996Z</time></trkpt><trkpt lat="44.7926917" lon="9.2335983"><ele>582.0</ele><time>2026-04-25T09:07:19.995Z</time></trkpt><trkpt lat="44.7926083" lon="9.2336517"><ele>582.0</ele><time>2026-04-25T09:07:20.997Z</time></trkpt><trkpt lat="44.7925433" lon="9.2337417"><ele>582.0</ele><time>2026-04-25T09:07:21.997Z</time></trkpt><trkpt lat="44.7925" lon="9.2338667"><ele>583.8000000000001</ele><time>2026-04-25T09:07:22.995Z</time></trkpt><trkpt lat="44.7924783" lon="9.234005"><ele>585.6</ele><time>2026-04-25T09:07:23.994Z</time></trkpt><trkpt lat="44.79247" lon="9.2341517"><ele>587.4000000000001</ele><time>2026-04-25T09:07:24.993Z</time></trkpt><trkpt lat="44.7924683" lon="9.2343083"><ele>589.2</ele><time>2026-04-25T09:07:25.995Z</time></trkpt><trkpt lat="44.792475" lon="9.234475"><ele>591.0</ele><time>2026-04-25T09:07:27.002Z</time></trkpt><trkpt lat="44.7924667" lon="9.23463"><ele>591.0</ele><time>2026-04-25T09:07:27.995Z</time></trkpt><trkpt lat="44.7924467" lon="9.2347667"><ele>591.0</ele><time>2026-04-25T09:07:28.995Z</time></trkpt><trkpt lat="44.7924083" lon="9.2348783"><ele>591.0</ele><time>2026-04-25T09:07:29.995Z</time></trkpt><trkpt lat="44.7923567" lon="9.2349817"><ele>591.0</ele><time>2026-04-25T09:07:30.999Z</time></trkpt><trkpt lat="44.7922817" lon="9.2350467"><ele>591.0</ele><time>2026-04-25T09:07:31.996Z</time></trkpt><trkpt lat="44.7921717" lon="9.235015"><ele>589.8</ele><time>2026-04-25T09:07:33Z</time></trkpt><trkpt lat="44.7920717" lon="9.2349883"><ele>588.6</ele><time>2026-04-25T09:07:33.997Z</time></trkpt><trkpt lat="44.7919767" lon="9.2349233"><ele>587.4</ele><time>2026-04-25T09:07:34.995Z</time></trkpt><trkpt lat="44.791875" lon="9.23483"><ele>586.2</ele><time>2026-04-25T09:07:35.995Z</time></trkpt><trkpt lat="44.7917733" lon="9.2347417"><ele>585.0</ele><time>2026-04-25T09:07:37.002Z</time></trkpt><trkpt lat="44.7916767" lon="9.23467"><ele>585.0</ele><time>2026-04-25T09:07:37.995Z</time></trkpt><trkpt lat="44.7915867" lon="9.2346267"><ele>585.0</ele><time>2026-04-25T09:07:38.994Z</time></trkpt><trkpt lat="44.7914817" lon="9.2346217"><ele>585.0</ele><time>2026-04-25T09:07:39.994Z</time></trkpt><trkpt lat="44.7913733" lon="9.2346517"><ele>585.0</ele><time>2026-04-25T09:07:40.994Z</time></trkpt><trkpt lat="44.791255" lon="9.23471"><ele>585.0</ele><time>2026-04-25T09:07:41.995Z</time></trkpt><trkpt lat="44.7911267" lon="9.2347983"><ele>589.0</ele><time>2026-04-25T09:07:42.996Z</time></trkpt><trkpt lat="44.7909917" lon="9.2348933"><ele>593.0</ele><time>2026-04-25T09:07:43.996Z</time></trkpt><trkpt lat="44.7908517" lon="9.2349883"><ele>597.0</ele><time>2026-04-25T09:07:44.995Z</time></trkpt><trkpt lat="44.7907167" lon="9.2350883"><ele>597.0</ele><time>2026-04-25T09:07:45.994Z</time></trkpt><trkpt lat="44.7905833" lon="9.2351917"><ele>597.0</ele><time>2026-04-25T09:07:46.993Z</time></trkpt><trkpt lat="44.7904567" lon="9.2353017"><ele>597.0</ele><time>2026-04-25T09:07:47.993Z</time></trkpt><trkpt lat="44.7903417" lon="9.2354217"><ele>597.0</ele><time>2026-04-25T09:07:48.996Z</time></trkpt><trkpt lat="44.790235" lon="9.2355417"><ele>597.75</ele><time>2026-04-25T09:07:49.998Z</time></trkpt><trkpt lat="44.7901517" lon="9.2356917"><ele>598.5</ele><time>2026-04-25T09:07:50.995Z</time></trkpt><trkpt lat="44.790085" lon="9.23586"><ele>599.25</ele><time>2026-04-25T09:07:51.994Z</time></trkpt><trkpt lat="44.7900233" lon="9.236025"><ele>600.0</ele><time>2026-04-25T09:07:52.998Z</time></trkpt><trkpt lat="44.7899517" lon="9.236185"><ele>600.0</ele><time>2026-04-25T09:07:53.997Z</time></trkpt><trkpt lat="44.789865" lon="9.2363183"><ele>600.0</ele><time>2026-04-25T09:07:55.003Z</time></trkpt><trkpt lat="44.7897583" lon="9.2364183"><ele>600.0</ele><time>2026-04-25T09:07:55.995Z</time></trkpt><trkpt lat="44.789645" lon="9.2365167"><ele>600.0</ele><time>2026-04-25T09:07:56.996Z</time></trkpt><trkpt lat="44.7895383" lon="9.2366167"><ele>600.0</ele><time>2026-04-25T09:07:57.993Z</time></trkpt><trkpt lat="44.789445" lon="9.2367317"><ele>600.0</ele><time>2026-04-25T09:07:58.997Z</time></trkpt><trkpt lat="44.789355" lon="9.2368483"><ele>600.0</ele><time>2026-04-25T09:07:59.995Z</time></trkpt><trkpt lat="44.7892783" lon="9.23698"><ele>600.0</ele><time>2026-04-25T09:08:00.996Z</time></trkpt><trkpt lat="44.7892217" lon="9.2371267"><ele>600.0</ele><time>2026-04-25T09:08:01.996Z</time></trkpt><trkpt lat="44.789185" lon="9.2372817"><ele>600.0</ele><time>2026-04-25T09:08:02.997Z</time></trkpt><trkpt lat="44.7891667" lon="9.2374417"><ele>600.0</ele><time>2026-04-25T09:08:03.998Z</time></trkpt><trkpt lat="44.7891517" lon="9.2375983"><ele>600.0</ele><time>2026-04-25T09:08:04.995Z</time></trkpt><trkpt lat="44.78912" lon="9.2377467"><ele>602.25</ele><time>2026-04-25T09:08:05.994Z</time></trkpt><trkpt lat="44.7890633" lon="9.23789"><ele>604.5</ele><time>2026-04-25T09:08:06.996Z</time></trkpt><trkpt lat="44.7889983" lon="9.2380383"><ele>606.75</ele><time>2026-04-25T09:08:07.994Z</time></trkpt><trkpt lat="44.7889217" lon="9.238185"><ele>609.0</ele><time>2026-04-25T09:08:08.996Z</time></trkpt><trkpt lat="44.7888383" lon="9.2383283"><ele>609.75</ele><time>2026-04-25T09:08:09.996Z</time></trkpt><trkpt lat="44.7887467" lon="9.2384633"><ele>610.5</ele><time>2026-04-25T09:08:10.996Z</time></trkpt><trkpt lat="44.7886383" lon="9.2385717"><ele>611.25</ele><time>2026-04-25T09:08:11.995Z</time></trkpt><trkpt lat="44.788525" lon="9.2386683"><ele>612.0</ele><time>2026-04-25T09:08:12.997Z</time></trkpt><trkpt lat="44.788405" lon="9.238755"><ele>612.0</ele><time>2026-04-25T09:08:13.996Z</time></trkpt><trkpt lat="44.788285" lon="9.2388233"><ele>612.0</ele><time>2026-04-25T09:08:14.997Z</time></trkpt><trkpt lat="44.7881783" lon="9.238875"><ele>612.0</ele><time>2026-04-25T09:08:15.994Z</time></trkpt><trkpt lat="44.7880683" lon="9.2388883"><ele>612.0</ele><time>2026-04-25T09:08:16.994Z</time></trkpt><trkpt lat="44.7879717" lon="9.2388583"><ele>612.0</ele><time>2026-04-25T09:08:17.994Z</time></trkpt><trkpt lat="44.787885" lon="9.2388033"><ele>612.0</ele><time>2026-04-25T09:08:18.997Z</time></trkpt><trkpt lat="44.78781" lon="9.2387633"><ele>612.0</ele><time>2026-04-25T09:08:19.995Z</time></trkpt><trkpt lat="44.787735" lon="9.2387417"><ele>612.0</ele><time>2026-04-25T09:08:21Z</time></trkpt><trkpt lat="44.787655" lon="9.2387467"><ele>612.0</ele><time>2026-04-25T09:08:21.993Z</time></trkpt><trkpt lat="44.787595" lon="9.238835"><ele>612.0</ele><time>2026-04-25T09:08:22.994Z</time></trkpt><trkpt lat="44.7875333" lon="9.2389267"><ele>613.6</ele><time>2026-04-25T09:08:23.996Z</time></trkpt><trkpt lat="44.787475" lon="9.23903"><ele>615.2</ele><time>2026-04-25T09:08:24.999Z</time></trkpt><trkpt lat="44.787425" lon="9.2391683"><ele>616.8</ele><time>2026-04-25T09:08:25.997Z</time></trkpt><trkpt lat="44.787375" lon="9.2393"><ele>618.4</ele><time>2026-04-25T09:08:27.001Z</time></trkpt><trkpt lat="44.7873317" lon="9.2394383"><ele>620.0</ele><time>2026-04-25T09:08:27.995Z</time></trkpt><trkpt lat="44.7872833" lon="9.2395667"><ele>620.0</ele><time>2026-04-25T09:08:28.993Z</time></trkpt><trkpt lat="44.7872367" lon="9.2397117"><ele>620.0</ele><time>2026-04-25T09:08:29.994Z</time></trkpt><trkpt lat="44.7871783" lon="9.239845"><ele>620.0</ele><time>2026-04-25T09:08:30.999Z</time></trkpt><trkpt lat="44.7870967" lon="9.23996"><ele>620.0</ele><time>2026-04-25T09:08:31.994Z</time></trkpt><trkpt lat="44.787" lon="9.2400583"><ele>621.25</ele><time>2026-04-25T09:08:33Z</time></trkpt><trkpt lat="44.7868833" lon="9.24014"><ele>622.5</ele><time>2026-04-25T09:08:33.993Z</time></trkpt><trkpt lat="44.7867483" lon="9.2402067"><ele>623.75</ele><time>2026-04-25T09:08:34.995Z</time></trkpt><trkpt lat="44.78661" lon="9.240265"><ele>625.0</ele><time>2026-04-25T09:08:35.999Z</time></trkpt><trkpt lat="44.7864717" lon="9.2403183"><ele>625.0</ele><time>2026-04-25T09:08:36.993Z</time></trkpt><trkpt lat="44.7863383" lon="9.2403633"><ele>625.0</ele><time>2026-04-25T09:08:37.995Z</time></trkpt><trkpt lat="44.7862083" lon="9.2404033"><ele>625.0</ele><time>2026-04-25T09:08:39Z</time></trkpt><trkpt lat="44.7860867" lon="9.2404517"><ele>625.0</ele><time>2026-04-25T09:08:39.995Z</time></trkpt><trkpt lat="44.78597" lon="9.2405167"><ele>624.5</ele><time>2026-04-25T09:08:40.997Z</time></trkpt><trkpt lat="44.785855" lon="9.2405983"><ele>624.0</ele><time>2026-04-25T09:08:41.992Z</time></trkpt><trkpt lat="44.7857433" lon="9.2406983"><ele>623.5</ele><time>2026-04-25T09:08:42.994Z</time></trkpt><trkpt lat="44.78564" lon="9.2408117"><ele>623.0</ele><time>2026-04-25T09:08:43.995Z</time></trkpt><trkpt lat="44.78553" lon="9.2409367"><ele>625.75</ele><time>2026-04-25T09:08:44.996Z</time></trkpt><trkpt lat="44.7854133" lon="9.24105"><ele>628.5</ele><time>2026-04-25T09:08:45.994Z</time></trkpt><trkpt lat="44.78528" lon="9.2411467"><ele>631.25</ele><time>2026-04-25T09:08:46.995Z</time></trkpt><trkpt lat="44.785145" lon="9.2412517"><ele>634.0</ele><time>2026-04-25T09:08:47.996Z</time></trkpt><trkpt lat="44.7850067" lon="9.2413433"><ele>634.0</ele><time>2026-04-25T09:08:48.995Z</time></trkpt><trkpt lat="44.784865" lon="9.2414317"><ele>634.0</ele><time>2026-04-25T09:08:49.995Z</time></trkpt><trkpt lat="44.7847233" lon="9.2415233"><ele>634.0</ele><time>2026-04-25T09:08:51Z</time></trkpt><trkpt lat="44.7845883" lon="9.24161"><ele>635.75</ele><time>2026-04-25T09:08:51.994Z</time></trkpt><trkpt lat="44.7844617" lon="9.241685"><ele>637.5</ele><time>2026-04-25T09:08:52.999Z</time></trkpt><trkpt lat="44.7843483" lon="9.24175"><ele>639.25</ele><time>2026-04-25T09:08:53.992Z</time></trkpt><trkpt lat="44.784245" lon="9.2418167"><ele>641.0</ele><time>2026-04-25T09:08:54.995Z</time></trkpt><trkpt lat="44.78416" lon="9.2418883"><ele>641.0</ele><time>2026-04-25T09:08:55.998Z</time></trkpt><trkpt lat="44.7841017" lon="9.241985"><ele>641.0</ele><time>2026-04-25T09:08:56.997Z</time></trkpt><trkpt lat="44.7840667" lon="9.2421083"><ele>641.0</ele><time>2026-04-25T09:08:57.994Z</time></trkpt><trkpt lat="44.7840583" lon="9.24225"><ele>641.0</ele><time>2026-04-25T09:08:58.995Z</time></trkpt><trkpt lat="44.78406" lon="9.242395"><ele>641.0</ele><time>2026-04-25T09:08:59.995Z</time></trkpt><trkpt lat="44.78406" lon="9.2425433"><ele>642.8</ele><time>2026-04-25T09:09:00.999Z</time></trkpt><trkpt lat="44.78404" lon="9.242685"><ele>644.5999999999999</ele><time>2026-04-25T09:09:01.994Z</time></trkpt><trkpt lat="44.7839933" lon="9.242815"><ele>646.4</ele><time>2026-04-25T09:09:02.997Z</time></trkpt><trkpt lat="44.7839233" lon="9.2429333"><ele>648.2</ele><time>2026-04-25T09:09:03.996Z</time></trkpt><trkpt lat="44.7838367" lon="9.2430317"><ele>650.0</ele><time>2026-04-25T09:09:04.993Z</time></trkpt><trkpt lat="44.783735" lon="9.243105"><ele>651.5</ele><time>2026-04-25T09:09:05.996Z</time></trkpt><trkpt lat="44.7836267" lon="9.2431567"><ele>653.0</ele><time>2026-04-25T09:09:06.993Z</time></trkpt><trkpt lat="44.7835067" lon="9.2431967"><ele>654.5</ele><time>2026-04-25T09:09:07.993Z</time></trkpt><trkpt lat="44.783385" lon="9.2432233"><ele>656.0</ele><time>2026-04-25T09:09:08.992Z</time></trkpt><trkpt lat="44.78327" lon="9.2432567"><ele>656.0</ele><time>2026-04-25T09:09:09.992Z</time></trkpt><trkpt lat="44.7831583" lon="9.2432983"><ele>656.0</ele><time>2026-04-25T09:09:10.996Z</time></trkpt><trkpt lat="44.7830533" lon="9.2433617"><ele>656.0</ele><time>2026-04-25T09:09:11.992Z</time></trkpt><trkpt lat="44.7829617" lon="9.2434467"><ele>656.0</ele><time>2026-04-25T09:09:12.999Z</time></trkpt><trkpt lat="44.7828783" lon="9.24355"><ele>656.0</ele><time>2026-04-25T09:09:13.995Z</time></trkpt><trkpt lat="44.78281" lon="9.2436733"><ele>656.0</ele><time>2026-04-25T09:09:14.996Z</time></trkpt><trkpt lat="44.7827517" lon="9.2438117"><ele>656.0</ele><time>2026-04-25T09:09:15.996Z</time></trkpt><trkpt lat="44.782695" lon="9.24397"><ele>656.0</ele><time>2026-04-25T09:09:16.995Z</time></trkpt><trkpt lat="44.7826367" lon="9.2441517"><ele>656.75</ele><time>2026-04-25T09:09:17.993Z</time></trkpt><trkpt lat="44.78257" lon="9.2443417"><ele>657.5</ele><time>2026-04-25T09:09:18.994Z</time></trkpt><trkpt lat="44.782505" lon="9.2445267"><ele>658.25</ele><time>2026-04-25T09:09:19.997Z</time></trkpt><trkpt lat="44.7824433" lon="9.2447083"><ele>659.0</ele><time>2026-04-25T09:09:20.995Z</time></trkpt><trkpt lat="44.7823867" lon="9.2448717"><ele>661.25</ele><time>2026-04-25T09:09:21.994Z</time></trkpt><trkpt lat="44.7823233" lon="9.2450233"><ele>663.5</ele><time>2026-04-25T09:09:22.995Z</time></trkpt><trkpt lat="44.782245" lon="9.24515"><ele>665.75</ele><time>2026-04-25T09:09:23.996Z</time></trkpt><trkpt lat="44.7821533" lon="9.2452617"><ele>668.0</ele><time>2026-04-25T09:09:24.999Z</time></trkpt><trkpt lat="44.78205" lon="9.24536"><ele>668.0</ele><time>2026-04-25T09:09:25.996Z</time></trkpt><trkpt lat="44.7819383" lon="9.2454433"><ele>668.0</ele><time>2026-04-25T09:09:26.993Z</time></trkpt><trkpt lat="44.781825" lon="9.2455333"><ele>668.0</ele><time>2026-04-25T09:09:27.993Z</time></trkpt><trkpt lat="44.781705" lon="9.2456283"><ele>668.0</ele><time>2026-04-25T09:09:28.992Z</time></trkpt><trkpt lat="44.781585" lon="9.245705"><ele>670.25</ele><time>2026-04-25T09:09:30Z</time></trkpt><trkpt lat="44.7814733" lon="9.24577"><ele>672.5</ele><time>2026-04-25T09:09:30.993Z</time></trkpt><trkpt lat="44.7813583" lon="9.2458083"><ele>674.75</ele><time>2026-04-25T09:09:31.996Z</time></trkpt><trkpt lat="44.78124" lon="9.2458033"><ele>677.0</ele><time>2026-04-25T09:09:32.993Z</time></trkpt><trkpt lat="44.7811367" lon="9.2457633"><ele>677.0</ele><time>2026-04-25T09:09:33.996Z</time></trkpt><trkpt lat="44.7810517" lon="9.2456867"><ele>677.0</ele><time>2026-04-25T09:09:34.994Z</time></trkpt><trkpt lat="44.7809617" lon="9.245625"><ele>677.0</ele><time>2026-04-25T09:09:35.992Z</time></trkpt><trkpt lat="44.7808633" lon="9.24559"><ele>677.0</ele><time>2026-04-25T09:09:37Z</time></trkpt><trkpt lat="44.7807667" lon="9.2455883"><ele>677.0</ele><time>2026-04-25T09:09:37.994Z</time></trkpt><trkpt lat="44.7806667" lon="9.2456317"><ele>677.75</ele><time>2026-04-25T09:09:38.995Z</time></trkpt><trkpt lat="44.7805617" lon="9.2456933"><ele>678.5</ele><time>2026-04-25T09:09:39.999Z</time></trkpt><trkpt lat="44.780455" lon="9.245755"><ele>679.25</ele><time>2026-04-25T09:09:40.994Z</time></trkpt><trkpt lat="44.7803383" lon="9.2458233"><ele>680.0</ele><time>2026-04-25T09:09:41.993Z</time></trkpt><trkpt lat="44.780225" lon="9.2458817"><ele>679.75</ele><time>2026-04-25T09:09:42.997Z</time></trkpt><trkpt lat="44.7801083" lon="9.24593"><ele>679.5</ele><time>2026-04-25T09:09:43.993Z</time></trkpt><trkpt lat="44.7799833" lon="9.24597"><ele>679.25</ele><time>2026-04-25T09:09:44.994Z</time></trkpt><trkpt lat="44.77986" lon="9.246025"><ele>679.0</ele><time>2026-04-25T09:09:45.993Z</time></trkpt><trkpt lat="44.7797367" lon="9.2460833"><ele>679.0</ele><time>2026-04-25T09:09:46.997Z</time></trkpt><trkpt lat="44.779615" lon="9.2461383"><ele>679.0</ele><time>2026-04-25T09:09:47.994Z</time></trkpt><trkpt lat="44.779495" lon="9.2462033"><ele>679.0</ele><time>2026-04-25T09:09:48.996Z</time></trkpt><trkpt lat="44.77938" lon="9.2462683"><ele>679.0</ele><time>2026-04-25T09:09:49.996Z</time></trkpt><trkpt lat="44.7792683" lon="9.24634"><ele>679.25</ele><time>2026-04-25T09:09:50.993Z</time></trkpt><trkpt lat="44.7791583" lon="9.246415"><ele>679.5</ele><time>2026-04-25T09:09:51.994Z</time></trkpt><trkpt lat="44.7790533" lon="9.246485"><ele>679.75</ele><time>2026-04-25T09:09:52.993Z</time></trkpt><trkpt lat="44.7789517" lon="9.2465483"><ele>680.0</ele><time>2026-04-25T09:09:53.994Z</time></trkpt><trkpt lat="44.778845" lon="9.246595"><ele>682.2</ele><time>2026-04-25T09:09:54.993Z</time></trkpt><trkpt lat="44.7787367" lon="9.2466283"><ele>684.4</ele><time>2026-04-25T09:09:55.995Z</time></trkpt><trkpt lat="44.7786367" lon="9.246675"><ele>686.5999999999999</ele><time>2026-04-25T09:09:56.996Z</time></trkpt><trkpt lat="44.7785417" lon="9.2467333"><ele>688.8</ele><time>2026-04-25T09:09:57.993Z</time></trkpt><trkpt lat="44.7784567" lon="9.2468267"><ele>691.0</ele><time>2026-04-25T09:09:58.995Z</time></trkpt><trkpt lat="44.7783833" lon="9.2469483"><ele>691.0</ele><time>2026-04-25T09:09:59.996Z</time></trkpt><trkpt lat="44.778315" lon="9.2470833"><ele>691.0</ele><time>2026-04-25T09:10:00.995Z</time></trkpt><trkpt lat="44.7782383" lon="9.2472217"><ele>691.0</ele><time>2026-04-25T09:10:01.995Z</time></trkpt><trkpt lat="44.77816" lon="9.247375"><ele>691.0</ele><time>2026-04-25T09:10:02.993Z</time></trkpt><trkpt lat="44.778085" lon="9.2475333"><ele>694.0</ele><time>2026-04-25T09:10:03.997Z</time></trkpt><trkpt lat="44.7780117" lon="9.2476917"><ele>697.0</ele><time>2026-04-25T09:10:04.994Z</time></trkpt><trkpt lat="44.777935" lon="9.24783"><ele>700.0</ele><time>2026-04-25T09:10:05.995Z</time></trkpt><trkpt lat="44.7778683" lon="9.247975"><ele>703.0</ele><time>2026-04-25T09:10:06.992Z</time></trkpt><trkpt lat="44.7777933" lon="9.2481133"><ele>703.25</ele><time>2026-04-25T09:10:07.995Z</time></trkpt><trkpt lat="44.7777067" lon="9.24822"><ele>703.5</ele><time>2026-04-25T09:10:09Z</time></trkpt><trkpt lat="44.77761" lon="9.2483267"><ele>703.75</ele><time>2026-04-25T09:10:09.992Z</time></trkpt><trkpt lat="44.7775" lon="9.248415"><ele>704.0</ele><time>2026-04-25T09:10:10.991Z</time></trkpt><trkpt lat="44.77738" lon="9.2484783"><ele>704.0</ele><time>2026-04-25T09:10:11.995Z</time></trkpt><trkpt lat="44.777275" lon="9.2485417"><ele>704.0</ele><time>2026-04-25T09:10:13.003Z</time></trkpt><trkpt lat="44.77718" lon="9.248615"><ele>704.0</ele><time>2026-04-25T09:10:14Z</time></trkpt><trkpt lat="44.7771267" lon="9.2487017"><ele>704.0</ele><time>2026-04-25T09:10:14.995Z</time></trkpt><trkpt lat="44.77709" lon="9.2487983"><ele>704.0</ele><time>2026-04-25T09:10:15.995Z</time></trkpt><trkpt lat="44.777095" lon="9.24891"><ele>704.0</ele><time>2026-04-25T09:10:16.995Z</time></trkpt><trkpt lat="44.7771317" lon="9.249005"><ele>704.0</ele><time>2026-04-25T09:10:17.997Z</time></trkpt><trkpt lat="44.7771867" lon="9.2490817"><ele>704.0</ele><time>2026-04-25T09:10:18.995Z</time></trkpt><trkpt lat="44.777255" lon="9.2491283"><ele>704.0</ele><time>2026-04-25T09:10:19.995Z</time></trkpt><trkpt lat="44.77736" lon="9.2490617"><ele>704.0</ele><time>2026-04-25T09:10:20.997Z</time></trkpt><trkpt lat="44.7774567" lon="9.2490217"><ele>704.0</ele><time>2026-04-25T09:10:21.998Z</time></trkpt><trkpt lat="44.7775717" lon="9.2489567"><ele>707.0</ele><time>2026-04-25T09:10:22.993Z</time></trkpt><trkpt lat="44.7776867" lon="9.2488783"><ele>710.0</ele><time>2026-04-25T09:10:23.993Z</time></trkpt><trkpt lat="44.7778017" lon="9.2487983"><ele>713.0</ele><time>2026-04-25T09:10:24.995Z</time></trkpt><trkpt lat="44.777915" lon="9.2487083"><ele>716.0</ele><time>2026-04-25T09:10:25.995Z</time></trkpt><trkpt lat="44.77802" lon="9.248595"><ele>716.0</ele><time>2026-04-25T09:10:26.999Z</time></trkpt><trkpt lat="44.77812" lon="9.2484683"><ele>716.0</ele><time>2026-04-25T09:10:27.997Z</time></trkpt><trkpt lat="44.778215" lon="9.2483533"><ele>716.0</ele><time>2026-04-25T09:10:28.994Z</time></trkpt><trkpt lat="44.778305" lon="9.248255"><ele>716.0</ele><time>2026-04-25T09:10:30.002Z</time></trkpt><trkpt lat="44.7783933" lon="9.24818"><ele>716.0</ele><time>2026-04-25T09:10:30.994Z</time></trkpt><trkpt lat="44.778475" lon="9.24813"><ele>716.0</ele><time>2026-04-25T09:10:31.996Z</time></trkpt><trkpt lat="44.7785567" lon="9.2481"><ele>716.0</ele><time>2026-04-25T09:10:32.996Z</time></trkpt><trkpt lat="44.77863" lon="9.2481"><ele>716.0</ele><time>2026-04-25T09:10:33.996Z</time></trkpt><trkpt lat="44.778645" lon="9.2482017"><ele>716.0</ele><time>2026-04-25T09:10:34.994Z</time></trkpt><trkpt lat="44.7786283" lon="9.2483567"><ele>716.0</ele><time>2026-04-25T09:10:36.997Z</time></trkpt><trkpt lat="44.7785817" lon="9.2484267"><ele>716.0</ele><time>2026-04-25T09:10:37.998Z</time></trkpt><trkpt lat="44.7784817" lon="9.2484667"><ele>716.0</ele><time>2026-04-25T09:10:39Z</time></trkpt><trkpt lat="44.77839" lon="9.2485183"><ele>716.0</ele><time>2026-04-25T09:10:39.998Z</time></trkpt><trkpt lat="44.7783" lon="9.248595"><ele>716.0</ele><time>2026-04-25T09:10:40.996Z</time></trkpt><trkpt lat="44.778235" lon="9.2487"><ele>716.0</ele><time>2026-04-25T09:10:41.995Z</time></trkpt><trkpt lat="44.7781917" lon="9.2488333"><ele>719.0</ele><time>2026-04-25T09:10:42.997Z</time></trkpt><trkpt lat="44.77817" lon="9.2489833"><ele>722.0</ele><time>2026-04-25T09:10:43.996Z</time></trkpt><trkpt lat="44.778145" lon="9.2491383"><ele>725.0</ele><time>2026-04-25T09:10:45Z</time></trkpt><trkpt lat="44.7780983" lon="9.249275"><ele>728.0</ele><time>2026-04-25T09:10:45.997Z</time></trkpt><trkpt lat="44.7780367" lon="9.2494183"><ele>731.0</ele><time>2026-04-25T09:10:46.996Z</time></trkpt><trkpt lat="44.777965" lon="9.2495617"><ele>731.0</ele><time>2026-04-25T09:10:47.995Z</time></trkpt><trkpt lat="44.7778917" lon="9.2497067"><ele>731.0</ele><time>2026-04-25T09:10:48.998Z</time></trkpt><trkpt lat="44.7778167" lon="9.24986"><ele>731.0</ele><time>2026-04-25T09:10:49.997Z</time></trkpt><trkpt lat="44.7777383" lon="9.2500083"><ele>731.0</ele><time>2026-04-25T09:10:50.997Z</time></trkpt><trkpt lat="44.7776467" lon="9.2501433"><ele>729.5</ele><time>2026-04-25T09:10:51.997Z</time></trkpt><trkpt lat="44.7775483" lon="9.2502617"><ele>728.0</ele><time>2026-04-25T09:10:52.993Z</time></trkpt><trkpt lat="44.7774383" lon="9.2503567"><ele>726.5</ele><time>2026-04-25T09:10:53.994Z</time></trkpt><trkpt lat="44.7773283" lon="9.250445"><ele>725.0</ele><time>2026-04-25T09:10:54.997Z</time></trkpt><trkpt lat="44.7772083" lon="9.2505167"><ele>725.0</ele><time>2026-04-25T09:10:55.995Z</time></trkpt><trkpt lat="44.7770833" lon="9.2505517"><ele>725.0</ele><time>2026-04-25T09:10:56.997Z</time></trkpt><trkpt lat="44.7769483" lon="9.25055"><ele>725.0</ele><time>2026-04-25T09:10:57.997Z</time></trkpt><trkpt lat="44.776825" lon="9.2505233"><ele>725.0</ele><time>2026-04-25T09:10:58.993Z</time></trkpt><trkpt lat="44.7767017" lon="9.2505067"><ele>726.75</ele><time>2026-04-25T09:11:00.007Z</time></trkpt><trkpt lat="44.7765733" lon="9.25055"><ele>728.5</ele><time>2026-04-25T09:11:01.001Z</time></trkpt><trkpt lat="44.77646" lon="9.2506"><ele>730.25</ele><time>2026-04-25T09:11:01.995Z</time></trkpt><trkpt lat="44.776365" lon="9.25071"><ele>732.0</ele><time>2026-04-25T09:11:02.994Z</time></trkpt><trkpt lat="44.77629" lon="9.2508467"><ele>732.0</ele><time>2026-04-25T09:11:03.993Z</time></trkpt><trkpt lat="44.77622" lon="9.2510017"><ele>732.0</ele><time>2026-04-25T09:11:04.995Z</time></trkpt><trkpt lat="44.77614" lon="9.25116"><ele>732.0</ele><time>2026-04-25T09:11:05.993Z</time></trkpt><trkpt lat="44.7760433" lon="9.25131"><ele>732.0</ele><time>2026-04-25T09:11:07Z</time></trkpt><trkpt lat="44.77594" lon="9.2514533"><ele>733.0</ele><time>2026-04-25T09:11:07.994Z</time></trkpt><trkpt lat="44.7758233" lon="9.2515783"><ele>734.0</ele><time>2026-04-25T09:11:08.995Z</time></trkpt><trkpt lat="44.7756983" lon="9.251695"><ele>735.0</ele><time>2026-04-25T09:11:09.993Z</time></trkpt><trkpt lat="44.7755667" lon="9.2518067"><ele>735.0</ele><time>2026-04-25T09:11:10.998Z</time></trkpt><trkpt lat="44.77543" lon="9.251905"><ele>735.0</ele><time>2026-04-25T09:11:11.998Z</time></trkpt><trkpt lat="44.775285" lon="9.2519867"><ele>735.0</ele><time>2026-04-25T09:11:12.995Z</time></trkpt><trkpt lat="44.7751367" lon="9.2520367"><ele>736.0</ele><time>2026-04-25T09:11:13.997Z</time></trkpt><trkpt lat="44.7750033" lon="9.2520933"><ele>737.0</ele><time>2026-04-25T09:11:14.997Z</time></trkpt><trkpt lat="44.77488" lon="9.25215"><ele>738.0</ele><time>2026-04-25T09:11:15.994Z</time></trkpt><trkpt lat="44.774765" lon="9.252225"><ele>739.0</ele><time>2026-04-25T09:11:16.994Z</time></trkpt><trkpt lat="44.7746567" lon="9.2523167"><ele>739.0</ele><time>2026-04-25T09:11:17.995Z</time></trkpt><trkpt lat="44.7745583" lon="9.2524133"><ele>739.0</ele><time>2026-04-25T09:11:18.996Z</time></trkpt><trkpt lat="44.7744733" lon="9.2525233"><ele>739.0</ele><time>2026-04-25T09:11:19.996Z</time></trkpt><trkpt lat="44.774405" lon="9.2526417"><ele>739.0</ele><time>2026-04-25T09:11:20.998Z</time></trkpt><trkpt lat="44.7743567" lon="9.2527667"><ele>739.0</ele><time>2026-04-25T09:11:21.998Z</time></trkpt><trkpt lat="44.7743317" lon="9.2528933"><ele>736.8333333333334</ele><time>2026-04-25T09:11:22.993Z</time></trkpt><trkpt lat="44.7743133" lon="9.252995"><ele>734.6666666666667</ele><time>2026-04-25T09:11:23.994Z</time></trkpt><trkpt lat="44.7743" lon="9.253095"><ele>732.5</ele><time>2026-04-25T09:11:25Z</time></trkpt><trkpt lat="44.77429" lon="9.25319"><ele>730.3333333333334</ele><time>2026-04-25T09:11:25.993Z</time></trkpt><trkpt lat="44.7742817" lon="9.2532983"><ele>728.1666666666666</ele><time>2026-04-25T09:11:26.995Z</time></trkpt><trkpt lat="44.7742817" lon="9.2534333"><ele>726.0</ele><time>2026-04-25T09:11:27.992Z</time></trkpt><trkpt lat="44.7742767" lon="9.25356"><ele>726.0</ele><time>2026-04-25T09:11:28.992Z</time></trkpt><trkpt lat="44.7742867" lon="9.2537133"><ele>726.0</ele><time>2026-04-25T09:11:29.995Z</time></trkpt><trkpt lat="44.7743" lon="9.2538583"><ele>726.0</ele><time>2026-04-25T09:11:30.998Z</time></trkpt><trkpt lat="44.7743167" lon="9.2540117"><ele>726.0</ele><time>2026-04-25T09:11:31.997Z</time></trkpt><trkpt lat="44.7743283" lon="9.254155"><ele>726.0</ele><time>2026-04-25T09:11:32.995Z</time></trkpt><trkpt lat="44.7743233" lon="9.2543033"><ele>726.4</ele><time>2026-04-25T09:11:33.995Z</time></trkpt><trkpt lat="44.7742983" lon="9.2544483"><ele>726.8</ele><time>2026-04-25T09:11:34.994Z</time></trkpt><trkpt lat="44.7742533" lon="9.2545817"><ele>727.1999999999999</ele><time>2026-04-25T09:11:35.995Z</time></trkpt><trkpt lat="44.7742017" lon="9.2547117"><ele>727.5999999999999</ele><time>2026-04-25T09:11:36.997Z</time></trkpt><trkpt lat="44.774165" lon="9.2548533"><ele>728.0</ele><time>2026-04-25T09:11:37.994Z</time></trkpt><trkpt lat="44.7741433" lon="9.2550067"><ele>728.5</ele><time>2026-04-25T09:11:38.997Z</time></trkpt><trkpt lat="44.7741417" lon="9.25516"><ele>729.0</ele><time>2026-04-25T09:11:39.999Z</time></trkpt><trkpt lat="44.7741583" lon="9.2553233"><ele>729.5</ele><time>2026-04-25T09:11:40.995Z</time></trkpt><trkpt lat="44.7741917" lon="9.2554833"><ele>730.0</ele><time>2026-04-25T09:11:41.995Z</time></trkpt><trkpt lat="44.77422" lon="9.2556433"><ele>730.0</ele><time>2026-04-25T09:11:42.997Z</time></trkpt><trkpt lat="44.7742467" lon="9.2558233"><ele>730.0</ele><time>2026-04-25T09:11:44Z</time></trkpt><trkpt lat="44.774265" lon="9.256015"><ele>730.0</ele><time>2026-04-25T09:11:45.002Z</time></trkpt><trkpt lat="44.77428" lon="9.2561983"><ele>730.0</ele><time>2026-04-25T09:11:45.996Z</time></trkpt><trkpt lat="44.7742867" lon="9.256385"><ele>731.0</ele><time>2026-04-25T09:11:46.996Z</time></trkpt><trkpt lat="44.7742867" lon="9.2565617"><ele>732.0</ele><time>2026-04-25T09:11:47.997Z</time></trkpt><trkpt lat="44.7742667" lon="9.2567233"><ele>733.0</ele><time>2026-04-25T09:11:48.998Z</time></trkpt><trkpt lat="44.7742467" lon="9.256875"><ele>734.0</ele><time>2026-04-25T09:11:49.992Z</time></trkpt><trkpt lat="44.7741933" lon="9.2570033"><ele>734.0</ele><time>2026-04-25T09:11:50.994Z</time></trkpt><trkpt lat="44.7741233" lon="9.2571083"><ele>734.0</ele><time>2026-04-25T09:11:51.995Z</time></trkpt><trkpt lat="44.7740367" lon="9.2571933"><ele>734.0</ele><time>2026-04-25T09:11:52.991Z</time></trkpt><trkpt lat="44.77394" lon="9.2572633"><ele>734.0</ele><time>2026-04-25T09:11:53.994Z</time></trkpt><trkpt lat="44.77382" lon="9.2573033"><ele>734.0</ele><time>2026-04-25T09:11:54.996Z</time></trkpt><trkpt lat="44.7736867" lon="9.2573217"><ele>735.0</ele><time>2026-04-25T09:11:55.994Z</time></trkpt><trkpt lat="44.773545" lon="9.257315"><ele>736.0</ele><time>2026-04-25T09:11:56.993Z</time></trkpt><trkpt lat="44.7734117" lon="9.257295"><ele>737.0</ele><time>2026-04-25T09:11:57.995Z</time></trkpt><trkpt lat="44.77328" lon="9.257255"><ele>738.0</ele><time>2026-04-25T09:11:58.995Z</time></trkpt><trkpt lat="44.773155" lon="9.2572083"><ele>736.0</ele><time>2026-04-25T09:11:59.995Z</time></trkpt><trkpt lat="44.773035" lon="9.257145"><ele>734.0</ele><time>2026-04-25T09:12:01.001Z</time></trkpt><trkpt lat="44.7729167" lon="9.257075"><ele>732.0</ele><time>2026-04-25T09:12:01.996Z</time></trkpt><trkpt lat="44.772805" lon="9.2570083"><ele>730.0</ele><time>2026-04-25T09:12:02.997Z</time></trkpt><trkpt lat="44.7726867" lon="9.256965"><ele>730.0</ele><time>2026-04-25T09:12:03.998Z</time></trkpt><trkpt lat="44.7725633" lon="9.25695"><ele>730.0</ele><time>2026-04-25T09:12:04.995Z</time></trkpt><trkpt lat="44.7724317" lon="9.2569633"><ele>730.0</ele><time>2026-04-25T09:12:05.996Z</time></trkpt><trkpt lat="44.77229" lon="9.256985"><ele>730.0</ele><time>2026-04-25T09:12:06.996Z</time></trkpt><trkpt lat="44.7721333" lon="9.2570133"><ele>730.0</ele><time>2026-04-25T09:12:07.994Z</time></trkpt><trkpt lat="44.771985" lon="9.2570333"><ele>730.0</ele><time>2026-04-25T09:12:09.008Z</time></trkpt><trkpt lat="44.7718317" lon="9.25705"><ele>730.0</ele><time>2026-04-25T09:12:09.995Z</time></trkpt><trkpt lat="44.7716767" lon="9.25706"><ele>730.0</ele><time>2026-04-25T09:12:10.996Z</time></trkpt><trkpt lat="44.7715317" lon="9.2570367"><ele>730.0</ele><time>2026-04-25T09:12:11.995Z</time></trkpt><trkpt lat="44.7714033" lon="9.2569783"><ele>730.0</ele><time>2026-04-25T09:12:12.997Z</time></trkpt><trkpt lat="44.771285" lon="9.2568983"><ele>730.0</ele><time>2026-04-25T09:12:13.995Z</time></trkpt><trkpt lat="44.7711783" lon="9.2568133"><ele>730.0</ele><time>2026-04-25T09:12:14.995Z</time></trkpt><trkpt lat="44.7710733" lon="9.2567467"><ele>730.0</ele><time>2026-04-25T09:12:15.994Z</time></trkpt><trkpt lat="44.77097" lon="9.2567033"><ele>730.0</ele><time>2026-04-25T09:12:16.994Z</time></trkpt><trkpt lat="44.7708667" lon="9.2567"><ele>730.0</ele><time>2026-04-25T09:12:17.994Z</time></trkpt><trkpt lat="44.7707667" lon="9.2567433"><ele>730.0</ele><time>2026-04-25T09:12:18.994Z</time></trkpt><trkpt lat="44.7706617" lon="9.2568183"><ele>730.0</ele><time>2026-04-25T09:12:19.996Z</time></trkpt><trkpt lat="44.770555" lon="9.2569183"><ele>730.0</ele><time>2026-04-25T09:12:20.995Z</time></trkpt><trkpt lat="44.770445" lon="9.2570283"><ele>730.0</ele><time>2026-04-25T09:12:21.996Z</time></trkpt><trkpt lat="44.7703317" lon="9.2571367"><ele>730.0</ele><time>2026-04-25T09:12:22.999Z</time></trkpt><trkpt lat="44.7702167" lon="9.2572483"><ele>730.0</ele><time>2026-04-25T09:12:23.994Z</time></trkpt><trkpt lat="44.7701083" lon="9.2573617"><ele>730.0</ele><time>2026-04-25T09:12:24.998Z</time></trkpt><trkpt lat="44.7700217" lon="9.2574983"><ele>730.0</ele><time>2026-04-25T09:12:25.999Z</time></trkpt><trkpt lat="44.7699517" lon="9.25764"><ele>730.0</ele><time>2026-04-25T09:12:26.996Z</time></trkpt><trkpt lat="44.7699017" lon="9.2577833"><ele>730.0</ele><time>2026-04-25T09:12:27.995Z</time></trkpt><trkpt lat="44.76988" lon="9.2579333"><ele>730.0</ele><time>2026-04-25T09:12:28.996Z</time></trkpt><trkpt lat="44.7698883" lon="9.2580967"><ele>730.0</ele><time>2026-04-25T09:12:29.998Z</time></trkpt><trkpt lat="44.7699167" lon="9.2582783"><ele>730.0</ele><time>2026-04-25T09:12:30.998Z</time></trkpt><trkpt lat="44.7699417" lon="9.2584483"><ele>731.4</ele><time>2026-04-25T09:12:31.997Z</time></trkpt><trkpt lat="44.7699467" lon="9.258605"><ele>732.8</ele><time>2026-04-25T09:12:32.998Z</time></trkpt><trkpt lat="44.769925" lon="9.2587417"><ele>734.2</ele><time>2026-04-25T09:12:33.993Z</time></trkpt><trkpt lat="44.7698817" lon="9.258855"><ele>735.6</ele><time>2026-04-25T09:12:34.996Z</time></trkpt><trkpt lat="44.7698117" lon="9.2589517"><ele>737.0</ele><time>2026-04-25T09:12:35.996Z</time></trkpt><trkpt lat="44.76973" lon="9.259045"><ele>737.2</ele><time>2026-04-25T09:12:36.992Z</time></trkpt><trkpt lat="44.7696433" lon="9.2591283"><ele>737.4000000000001</ele><time>2026-04-25T09:12:37.996Z</time></trkpt><trkpt lat="44.769545" lon="9.2591967"><ele>737.5999999999999</ele><time>2026-04-25T09:12:38.994Z</time></trkpt><trkpt lat="44.76944" lon="9.2592583"><ele>737.8</ele><time>2026-04-25T09:12:40.001Z</time></trkpt><trkpt lat="44.7693267" lon="9.25929"><ele>738.0</ele><time>2026-04-25T09:12:41Z</time></trkpt><trkpt lat="44.7692" lon="9.259295"><ele>736.25</ele><time>2026-04-25T09:12:41.995Z</time></trkpt><trkpt lat="44.769075" lon="9.259275"><ele>734.5</ele><time>2026-04-25T09:12:42.998Z</time></trkpt><trkpt lat="44.76895" lon="9.2592417"><ele>732.75</ele><time>2026-04-25T09:12:43.996Z</time></trkpt><trkpt lat="44.7688217" lon="9.2592033"><ele>731.0</ele><time>2026-04-25T09:12:45.003Z</time></trkpt><trkpt lat="44.7686867" lon="9.259195"><ele>731.0</ele><time>2026-04-25T09:12:45.996Z</time></trkpt><trkpt lat="44.7685567" lon="9.259225"><ele>731.0</ele><time>2026-04-25T09:12:46.996Z</time></trkpt><trkpt lat="44.7684417" lon="9.259265"><ele>731.0</ele><time>2026-04-25T09:12:47.994Z</time></trkpt><trkpt lat="44.76834" lon="9.2593083"><ele>731.0</ele><time>2026-04-25T09:12:48.999Z</time></trkpt><trkpt lat="44.7682517" lon="9.25933"><ele>731.0</ele><time>2026-04-25T09:12:49.994Z</time></trkpt><trkpt lat="44.76816" lon="9.2593383"><ele>730.0</ele><time>2026-04-25T09:12:50.995Z</time></trkpt><trkpt lat="44.76808" lon="9.2593033"><ele>729.0</ele><time>2026-04-25T09:12:51.996Z</time></trkpt><trkpt lat="44.768015" lon="9.2592217"><ele>728.0</ele><time>2026-04-25T09:12:52.996Z</time></trkpt><trkpt lat="44.7679683" lon="9.2590983"><ele>727.0</ele><time>2026-04-25T09:12:53.996Z</time></trkpt><trkpt lat="44.76791" lon="9.25897"><ele>726.0</ele><time>2026-04-25T09:12:54.998Z</time></trkpt><trkpt lat="44.76786" lon="9.2588517"><ele>724.1999999999999</ele><time>2026-04-25T09:12:55.995Z</time></trkpt><trkpt lat="44.7678267" lon="9.2587233"><ele>722.4</ele><time>2026-04-25T09:12:56.997Z</time></trkpt><trkpt lat="44.7678" lon="9.2585867"><ele>720.6</ele><time>2026-04-25T09:12:57.995Z</time></trkpt><trkpt lat="44.7678" lon="9.2584283"><ele>718.8</ele><time>2026-04-25T09:12:58.996Z</time></trkpt><trkpt lat="44.7678217" lon="9.2582517"><ele>717.0</ele><time>2026-04-25T09:12:59.996Z</time></trkpt><trkpt lat="44.7678533" lon="9.2580767"><ele>717.0</ele><time>2026-04-25T09:13:00.997Z</time></trkpt><trkpt lat="44.7678417" lon="9.2579083"><ele>717.0</ele><time>2026-04-25T09:13:01.995Z</time></trkpt><trkpt lat="44.7678283" lon="9.2577517"><ele>717.0</ele><time>2026-04-25T09:13:02.999Z</time></trkpt><trkpt lat="44.7678" lon="9.257605"><ele>717.0</ele><time>2026-04-25T09:13:03.996Z</time></trkpt><trkpt lat="44.767745" lon="9.25747"><ele>722.0</ele><time>2026-04-25T09:13:04.995Z</time></trkpt><trkpt lat="44.767655" lon="9.25735"><ele>727.0</ele><time>2026-04-25T09:13:05.994Z</time></trkpt><trkpt lat="44.7675683" lon="9.2572367"><ele>732.0</ele><time>2026-04-25T09:13:06.999Z</time></trkpt><trkpt lat="44.7674633" lon="9.2571233"><ele>737.0</ele><time>2026-04-25T09:13:07.996Z</time></trkpt><trkpt lat="44.7673667" lon="9.2570067"><ele>737.0</ele><time>2026-04-25T09:13:08.999Z</time></trkpt><trkpt lat="44.7672883" lon="9.25687"><ele>737.0</ele><time>2026-04-25T09:13:09.999Z</time></trkpt><trkpt lat="44.7672133" lon="9.256715"><ele>737.0</ele><time>2026-04-25T09:13:10.999Z</time></trkpt><trkpt lat="44.7671517" lon="9.25655"><ele>737.0</ele><time>2026-04-25T09:13:11.995Z</time></trkpt><trkpt lat="44.7671117" lon="9.25637"><ele>735.6666666666666</ele><time>2026-04-25T09:13:12.994Z</time></trkpt><trkpt lat="44.76708" lon="9.256165"><ele>734.3333333333334</ele><time>2026-04-25T09:13:13.994Z</time></trkpt><trkpt lat="44.7670667" lon="9.2559317"><ele>733.0</ele><time>2026-04-25T09:13:14.998Z</time></trkpt><trkpt lat="44.7670617" lon="9.25569"><ele>732.3333333333334</ele><time>2026-04-25T09:13:15.995Z</time></trkpt><trkpt lat="44.7670333" lon="9.25546"><ele>731.6666666666666</ele><time>2026-04-25T09:13:16.994Z</time></trkpt><trkpt lat="44.7669983" lon="9.2552367"><ele>731.0</ele><time>2026-04-25T09:13:17.995Z</time></trkpt><trkpt lat="44.766975" lon="9.255015"><ele>731.0</ele><time>2026-04-25T09:13:18.995Z</time></trkpt><trkpt lat="44.7669367" lon="9.2548017"><ele>731.0</ele><time>2026-04-25T09:13:19.995Z</time></trkpt><trkpt lat="44.7668917" lon="9.2545917"><ele>731.0</ele><time>2026-04-25T09:13:20.996Z</time></trkpt><trkpt lat="44.76684" lon="9.2543833"><ele>737.0</ele><time>2026-04-25T09:13:21.991Z</time></trkpt><trkpt lat="44.7667783" lon="9.2541783"><ele>743.0</ele><time>2026-04-25T09:13:22.998Z</time></trkpt><trkpt lat="44.76671" lon="9.2539783"><ele>749.0</ele><time>2026-04-25T09:13:23.996Z</time></trkpt><trkpt lat="44.7666433" lon="9.253785"><ele>749.0</ele><time>2026-04-25T09:13:25.001Z</time></trkpt><trkpt lat="44.7665817" lon="9.253595"><ele>749.0</ele><time>2026-04-25T09:13:25.998Z</time></trkpt><trkpt lat="44.7665067" lon="9.2534333"><ele>749.0</ele><time>2026-04-25T09:13:27.002Z</time></trkpt><trkpt lat="44.7664367" lon="9.2532767"><ele>749.0</ele><time>2026-04-25T09:13:27.994Z</time></trkpt><trkpt lat="44.7663517" lon="9.2531383"><ele>747.5</ele><time>2026-04-25T09:13:29.001Z</time></trkpt><trkpt lat="44.766255" lon="9.2530167"><ele>746.0</ele><time>2026-04-25T09:13:29.994Z</time></trkpt><trkpt lat="44.766135" lon="9.252915"><ele>744.5</ele><time>2026-04-25T09:13:30.997Z</time></trkpt><trkpt lat="44.7660117" lon="9.2528267"><ele>743.0</ele><time>2026-04-25T09:13:31.993Z</time></trkpt><trkpt lat="44.76588" lon="9.252745"><ele>747.0</ele><time>2026-04-25T09:13:33.002Z</time></trkpt><trkpt lat="44.76574" lon="9.2526667"><ele>751.0</ele><time>2026-04-25T09:13:33.995Z</time></trkpt><trkpt lat="44.765605" lon="9.2525867"><ele>755.0</ele><time>2026-04-25T09:13:34.994Z</time></trkpt><trkpt lat="44.7654683" lon="9.2525083"><ele>759.0</ele><time>2026-04-25T09:13:35.999Z</time></trkpt><trkpt lat="44.7653333" lon="9.2524267"><ele>759.0</ele><time>2026-04-25T09:13:36.993Z</time></trkpt><trkpt lat="44.7652" lon="9.252345"><ele>759.0</ele><time>2026-04-25T09:13:38.003Z</time></trkpt><trkpt lat="44.7650683" lon="9.2522683"><ele>759.0</ele><time>2026-04-25T09:13:38.996Z</time></trkpt><trkpt lat="44.76494" lon="9.25219"><ele>759.0</ele><time>2026-04-25T09:13:39.994Z</time></trkpt><trkpt lat="44.76479" lon="9.252135"><ele>758.5</ele><time>2026-04-25T09:13:40.997Z</time></trkpt><trkpt lat="44.764655" lon="9.25209"><ele>758.0</ele><time>2026-04-25T09:13:41.997Z</time></trkpt><trkpt lat="44.7645183" lon="9.252065"><ele>757.5</ele><time>2026-04-25T09:13:42.998Z</time></trkpt><trkpt lat="44.7643733" lon="9.2520583"><ele>757.0</ele><time>2026-04-25T09:13:43.999Z</time></trkpt><trkpt lat="44.764225" lon="9.2520683"><ele>757.0</ele><time>2026-04-25T09:13:44.995Z</time></trkpt><trkpt lat="44.7640717" lon="9.2520917"><ele>757.0</ele><time>2026-04-25T09:13:45.998Z</time></trkpt><trkpt lat="44.76392" lon="9.2521067"><ele>757.0</ele><time>2026-04-25T09:13:47Z</time></trkpt><trkpt lat="44.7637633" lon="9.2520883"><ele>757.0</ele><time>2026-04-25T09:13:47.996Z</time></trkpt><trkpt lat="44.7636067" lon="9.25205"><ele>757.0</ele><time>2026-04-25T09:13:49.001Z</time></trkpt><trkpt lat="44.76345" lon="9.251985"><ele>757.0</ele><time>2026-04-25T09:13:50.001Z</time></trkpt><trkpt lat="44.7633" lon="9.251905"><ele>757.0</ele><time>2026-04-25T09:13:50.995Z</time></trkpt><trkpt lat="44.7631683" lon="9.251825"><ele>757.0</ele><time>2026-04-25T09:13:52.003Z</time></trkpt><trkpt lat="44.7630467" lon="9.2517667"><ele>757.0</ele><time>2026-04-25T09:13:53.001Z</time></trkpt><trkpt lat="44.7629267" lon="9.2517517"><ele>757.0</ele><time>2026-04-25T09:13:53.998Z</time></trkpt><trkpt lat="44.762805" lon="9.251785"><ele>755.25</ele><time>2026-04-25T09:13:54.997Z</time></trkpt><trkpt lat="44.7626883" lon="9.2518717"><ele>753.5</ele><time>2026-04-25T09:13:55.995Z</time></trkpt><trkpt lat="44.7625817" lon="9.2519967"><ele>751.75</ele><time>2026-04-25T09:13:56.995Z</time></trkpt><trkpt lat="44.762475" lon="9.2521367"><ele>750.0</ele><time>2026-04-25T09:13:57.997Z</time></trkpt><trkpt lat="44.7623683" lon="9.2522867"><ele>753.5</ele><time>2026-04-25T09:13:58.994Z</time></trkpt><trkpt lat="44.762255" lon="9.2524283"><ele>757.0</ele><time>2026-04-25T09:13:59.993Z</time></trkpt><trkpt lat="44.762145" lon="9.252565"><ele>760.5</ele><time>2026-04-25T09:14:00.997Z</time></trkpt><trkpt lat="44.7620283" lon="9.252675"><ele>764.0</ele><time>2026-04-25T09:14:01.995Z</time></trkpt><trkpt lat="44.7619133" lon="9.25277"><ele>762.5</ele><time>2026-04-25T09:14:02.996Z</time></trkpt><trkpt lat="44.7617917" lon="9.2528467"><ele>761.0</ele><time>2026-04-25T09:14:03.995Z</time></trkpt><trkpt lat="44.7616667" lon="9.252895"><ele>759.5</ele><time>2026-04-25T09:14:04.993Z</time></trkpt><trkpt lat="44.76155" lon="9.25291"><ele>758.0</ele><time>2026-04-25T09:14:05.995Z</time></trkpt><trkpt lat="44.76143" lon="9.2528883"><ele>758.0</ele><time>2026-04-25T09:14:06.998Z</time></trkpt><trkpt lat="44.7613133" lon="9.2528217"><ele>758.0</ele><time>2026-04-25T09:14:07.992Z</time></trkpt><trkpt lat="44.7612067" lon="9.2527483"><ele>758.0</ele><time>2026-04-25T09:14:08.996Z</time></trkpt><trkpt lat="44.761115" lon="9.2526383"><ele>758.0</ele><time>2026-04-25T09:14:10.01Z</time></trkpt><trkpt lat="44.7610317" lon="9.252525"><ele>759.2</ele><time>2026-04-25T09:14:10.994Z</time></trkpt><trkpt lat="44.760965" lon="9.2524033"><ele>760.4</ele><time>2026-04-25T09:14:11.994Z</time></trkpt><trkpt lat="44.76093" lon="9.2522567"><ele>761.6</ele><time>2026-04-25T09:14:12.997Z</time></trkpt><trkpt lat="44.7609217" lon="9.2521167"><ele>762.8000000000001</ele><time>2026-04-25T09:14:13.995Z</time></trkpt><trkpt lat="44.7609083" lon="9.25199"><ele>764.0</ele><time>2026-04-25T09:14:14.997Z</time></trkpt><trkpt lat="44.7608833" lon="9.2518733"><ele>764.0</ele><time>2026-04-25T09:14:15.998Z</time></trkpt><trkpt lat="44.7608467" lon="9.2517717"><ele>764.0</ele><time>2026-04-25T09:14:16.994Z</time></trkpt><trkpt lat="44.7607583" lon="9.2517217"><ele>764.0</ele><time>2026-04-25T09:14:17.993Z</time></trkpt><trkpt lat="44.7606633" lon="9.2516583"><ele>764.0</ele><time>2026-04-25T09:14:18.994Z</time></trkpt><trkpt lat="44.760555" lon="9.251605"><ele>764.0</ele><time>2026-04-25T09:14:19.994Z</time></trkpt><trkpt lat="44.7604483" lon="9.25155"><ele>764.0</ele><time>2026-04-25T09:14:20.996Z</time></trkpt><trkpt lat="44.760355" lon="9.25149"><ele>764.0</ele><time>2026-04-25T09:14:21.997Z</time></trkpt><trkpt lat="44.7602517" lon="9.25145"><ele>764.0</ele><time>2026-04-25T09:14:22.998Z</time></trkpt><trkpt lat="44.7601583" lon="9.25145"><ele>764.0</ele><time>2026-04-25T09:14:23.996Z</time></trkpt><trkpt lat="44.7600567" lon="9.2514867"><ele>764.0</ele><time>2026-04-25T09:14:24.996Z</time></trkpt><trkpt lat="44.7599667" lon="9.2515717"><ele>765.5</ele><time>2026-04-25T09:14:25.995Z</time></trkpt><trkpt lat="44.7598983" lon="9.2516983"><ele>767.0</ele><time>2026-04-25T09:14:26.993Z</time></trkpt><trkpt lat="44.7598483" lon="9.2518717"><ele>768.5</ele><time>2026-04-25T09:14:27.996Z</time></trkpt><trkpt lat="44.759785" lon="9.2520667"><ele>770.0</ele><time>2026-04-25T09:14:28.992Z</time></trkpt><trkpt lat="44.75972" lon="9.2522767"><ele>772.3333333333334</ele><time>2026-04-25T09:14:29.997Z</time></trkpt><trkpt lat="44.759655" lon="9.252495"><ele>774.6666666666667</ele><time>2026-04-25T09:14:30.995Z</time></trkpt><trkpt lat="44.759585" lon="9.252715"><ele>777.0</ele><time>2026-04-25T09:14:31.997Z</time></trkpt><trkpt lat="44.75951" lon="9.2529467"><ele>775.0</ele><time>2026-04-25T09:14:32.992Z</time></trkpt><trkpt lat="44.7594333" lon="9.2531817"><ele>773.0</ele><time>2026-04-25T09:14:33.994Z</time></trkpt><trkpt lat="44.7593617" lon="9.253395"><ele>771.0</ele><time>2026-04-25T09:14:35Z</time></trkpt><trkpt lat="44.75929" lon="9.2535883"><ele>771.0</ele><time>2026-04-25T09:14:35.994Z</time></trkpt><trkpt lat="44.7592133" lon="9.2537683"><ele>771.0</ele><time>2026-04-25T09:14:36.998Z</time></trkpt><trkpt lat="44.759125" lon="9.2539183"><ele>771.0</ele><time>2026-04-25T09:14:37.995Z</time></trkpt><trkpt lat="44.7590333" lon="9.2540433"><ele>771.0</ele><time>2026-04-25T09:14:38.997Z</time></trkpt><trkpt lat="44.75894" lon="9.2541367"><ele>772.8</ele><time>2026-04-25T09:14:39.999Z</time></trkpt><trkpt lat="44.7588367" lon="9.2541967"><ele>774.5999999999999</ele><time>2026-04-25T09:14:40.998Z</time></trkpt><trkpt lat="44.7587333" lon="9.2542367"><ele>776.4</ele><time>2026-04-25T09:14:41.994Z</time></trkpt><trkpt lat="44.7586283" lon="9.2542633"><ele>778.2</ele><time>2026-04-25T09:14:43Z</time></trkpt><trkpt lat="44.758525" lon="9.2542783"><ele>780.0</ele><time>2026-04-25T09:14:43.999Z</time></trkpt><trkpt lat="44.7584083" lon="9.2542983"><ele>780.0</ele><time>2026-04-25T09:14:44.996Z</time></trkpt><trkpt lat="44.7582933" lon="9.25432"><ele>780.0</ele><time>2026-04-25T09:14:45.997Z</time></trkpt><trkpt lat="44.7581867" lon="9.25435"><ele>780.0</ele><time>2026-04-25T09:14:47.002Z</time></trkpt><trkpt lat="44.7580817" lon="9.2543683"><ele>780.0</ele><time>2026-04-25T09:14:47.994Z</time></trkpt><trkpt lat="44.7579817" lon="9.25439"><ele>780.0</ele><time>2026-04-25T09:14:48.996Z</time></trkpt><trkpt lat="44.7579" lon="9.254455"><ele>780.0</ele><time>2026-04-25T09:14:49.993Z</time></trkpt><trkpt lat="44.7578367" lon="9.2545583"><ele>780.0</ele><time>2026-04-25T09:14:51.002Z</time></trkpt><trkpt lat="44.7577917" lon="9.25468"><ele>780.0</ele><time>2026-04-25T09:14:51.992Z</time></trkpt><trkpt lat="44.7577683" lon="9.2548217"><ele>780.0</ele><time>2026-04-25T09:14:52.996Z</time></trkpt><trkpt lat="44.7577583" lon="9.2549717"><ele>780.0</ele><time>2026-04-25T09:14:53.994Z</time></trkpt><trkpt lat="44.7577333" lon="9.2551233"><ele>780.25</ele><time>2026-04-25T09:14:54.994Z</time></trkpt><trkpt lat="44.7576983" lon="9.2552767"><ele>780.5</ele><time>2026-04-25T09:14:55.994Z</time></trkpt><trkpt lat="44.7576433" lon="9.25542"><ele>780.75</ele><time>2026-04-25T09:14:56.996Z</time></trkpt><trkpt lat="44.75756" lon="9.2555467"><ele>781.0</ele><time>2026-04-25T09:14:57.994Z</time></trkpt><trkpt lat="44.7574567" lon="9.255675"><ele>784.6666666666666</ele><time>2026-04-25T09:14:58.997Z</time></trkpt><trkpt lat="44.757335" lon="9.255815"><ele>788.3333333333333</ele><time>2026-04-25T09:14:59.995Z</time></trkpt><trkpt lat="44.7572083" lon="9.255955"><ele>792.0</ele><time>2026-04-25T09:15:00.997Z</time></trkpt><trkpt lat="44.7570817" lon="9.2560833"><ele>792.0</ele><time>2026-04-25T09:15:01.997Z</time></trkpt><trkpt lat="44.7569633" lon="9.2562183"><ele>792.0</ele><time>2026-04-25T09:15:02.996Z</time></trkpt><trkpt lat="44.75685" lon="9.2563417"><ele>792.0</ele><time>2026-04-25T09:15:03.997Z</time></trkpt><trkpt lat="44.7567217" lon="9.2564467"><ele>792.0</ele><time>2026-04-25T09:15:04.994Z</time></trkpt><trkpt lat="44.7566083" lon="9.2565617"><ele>793.75</ele><time>2026-04-25T09:15:05.992Z</time></trkpt><trkpt lat="44.7565033" lon="9.2566783"><ele>795.5</ele><time>2026-04-25T09:15:06.995Z</time></trkpt><trkpt lat="44.7564167" lon="9.25679"><ele>797.25</ele><time>2026-04-25T09:15:07.994Z</time></trkpt><trkpt lat="44.75634" lon="9.2569"><ele>799.0</ele><time>2026-04-25T09:15:08.996Z</time></trkpt><trkpt lat="44.75627" lon="9.25701"><ele>799.0</ele><time>2026-04-25T09:15:09.995Z</time></trkpt><trkpt lat="44.756215" lon="9.257145"><ele>799.0</ele><time>2026-04-25T09:15:10.995Z</time></trkpt><trkpt lat="44.7561833" lon="9.2572983"><ele>799.0</ele><time>2026-04-25T09:15:11.996Z</time></trkpt><trkpt lat="44.7561717" lon="9.257485"><ele>799.0</ele><time>2026-04-25T09:15:12.997Z</time></trkpt><trkpt lat="44.7561667" lon="9.25769"><ele>804.25</ele><time>2026-04-25T09:15:13.997Z</time></trkpt><trkpt lat="44.7561567" lon="9.2578883"><ele>809.5</ele><time>2026-04-25T09:15:14.994Z</time></trkpt><trkpt lat="44.756135" lon="9.25809"><ele>814.75</ele><time>2026-04-25T09:15:15.997Z</time></trkpt><trkpt lat="44.7561" lon="9.258285"><ele>820.0</ele><time>2026-04-25T09:15:16.996Z</time></trkpt><trkpt lat="44.7560567" lon="9.2584733"><ele>819.0</ele><time>2026-04-25T09:15:17.995Z</time></trkpt><trkpt lat="44.7559933" lon="9.2586533"><ele>818.0</ele><time>2026-04-25T09:15:18.995Z</time></trkpt><trkpt lat="44.755925" lon="9.2588217"><ele>817.0</ele><time>2026-04-25T09:15:19.999Z</time></trkpt><trkpt lat="44.7558467" lon="9.2589833"><ele>816.0</ele><time>2026-04-25T09:15:20.995Z</time></trkpt><trkpt lat="44.7557683" lon="9.25914"><ele>816.0</ele><time>2026-04-25T09:15:21.996Z</time></trkpt><trkpt lat="44.7556783" lon="9.2592967"><ele>816.0</ele><time>2026-04-25T09:15:22.999Z</time></trkpt><trkpt lat="44.7555817" lon="9.2594467"><ele>816.0</ele><time>2026-04-25T09:15:23.999Z</time></trkpt><trkpt lat="44.7554867" lon="9.25959"><ele>816.0</ele><time>2026-04-25T09:15:24.998Z</time></trkpt><trkpt lat="44.7553883" lon="9.2597083"><ele>814.8</ele><time>2026-04-25T09:15:25.994Z</time></trkpt><trkpt lat="44.7552833" lon="9.2597883"><ele>813.5999999999999</ele><time>2026-04-25T09:15:26.999Z</time></trkpt><trkpt lat="44.75518" lon="9.2598733"><ele>812.4</ele><time>2026-04-25T09:15:27.997Z</time></trkpt><trkpt lat="44.7551033" lon="9.2599667"><ele>811.2</ele><time>2026-04-25T09:15:28.998Z</time></trkpt><trkpt lat="44.75505" lon="9.2600767"><ele>810.0</ele><time>2026-04-25T09:15:29.995Z</time></trkpt><trkpt lat="44.75502" lon="9.2602083"><ele>810.0</ele><time>2026-04-25T09:15:30.992Z</time></trkpt><trkpt lat="44.7550017" lon="9.2603583"><ele>810.0</ele><time>2026-04-25T09:15:31.994Z</time></trkpt><trkpt lat="44.754995" lon="9.260515"><ele>810.0</ele><time>2026-04-25T09:15:32.997Z</time></trkpt><trkpt lat="44.7549933" lon="9.26068"><ele>810.0</ele><time>2026-04-25T09:15:33.996Z</time></trkpt><trkpt lat="44.7549967" lon="9.260845"><ele>811.6</ele><time>2026-04-25T09:15:34.997Z</time></trkpt><trkpt lat="44.7549867" lon="9.2610033"><ele>813.2</ele><time>2026-04-25T09:15:35.999Z</time></trkpt><trkpt lat="44.7549583" lon="9.2611483"><ele>814.8</ele><time>2026-04-25T09:15:36.992Z</time></trkpt><trkpt lat="44.7549083" lon="9.2612717"><ele>816.4</ele><time>2026-04-25T09:15:37.994Z</time></trkpt><trkpt lat="44.7548533" lon="9.26139"><ele>818.0</ele><time>2026-04-25T09:15:38.996Z</time></trkpt><trkpt lat="44.754815" lon="9.261505"><ele>819.0</ele><time>2026-04-25T09:15:39.997Z</time></trkpt><trkpt lat="44.7547983" lon="9.26164"><ele>820.0</ele><time>2026-04-25T09:15:40.996Z</time></trkpt><trkpt lat="44.7548083" lon="9.26177"><ele>821.0</ele><time>2026-04-25T09:15:41.996Z</time></trkpt><trkpt lat="44.7548333" lon="9.2619067"><ele>822.0</ele><time>2026-04-25T09:15:42.994Z</time></trkpt><trkpt lat="44.75485" lon="9.2620533"><ele>823.0</ele><time>2026-04-25T09:15:43.997Z</time></trkpt><trkpt lat="44.754855" lon="9.2622"><ele>824.5</ele><time>2026-04-25T09:15:44.995Z</time></trkpt><trkpt lat="44.7548467" lon="9.2623517"><ele>826.0</ele><time>2026-04-25T09:15:45.996Z</time></trkpt><trkpt lat="44.754835" lon="9.26251"><ele>827.5</ele><time>2026-04-25T09:15:46.997Z</time></trkpt><trkpt lat="44.7548133" lon="9.2626783"><ele>829.0</ele><time>2026-04-25T09:15:47.995Z</time></trkpt><trkpt lat="44.75478" lon="9.2628483"><ele>829.0</ele><time>2026-04-25T09:15:48.996Z</time></trkpt><trkpt lat="44.7547467" lon="9.263015"><ele>829.0</ele><time>2026-04-25T09:15:49.997Z</time></trkpt><trkpt lat="44.7547233" lon="9.2631733"><ele>829.0</ele><time>2026-04-25T09:15:50.995Z</time></trkpt><trkpt lat="44.7547167" lon="9.263325"><ele>829.0</ele><time>2026-04-25T09:15:51.994Z</time></trkpt><trkpt lat="44.7547317" lon="9.2634667"><ele>829.0</ele><time>2026-04-25T09:15:52.996Z</time></trkpt><trkpt lat="44.7547683" lon="9.2636133"><ele>829.0</ele><time>2026-04-25T09:15:53.996Z</time></trkpt><trkpt lat="44.7548017" lon="9.263765"><ele>829.0</ele><time>2026-04-25T09:15:54.997Z</time></trkpt><trkpt lat="44.7548117" lon="9.2639333"><ele>829.0</ele><time>2026-04-25T09:15:55.994Z</time></trkpt><trkpt lat="44.7548067" lon="9.264105"><ele>829.0</ele><time>2026-04-25T09:15:56.993Z</time></trkpt><trkpt lat="44.7547883" lon="9.264285"><ele>829.0</ele><time>2026-04-25T09:15:57.992Z</time></trkpt><trkpt lat="44.7547633" lon="9.26448"><ele>829.0</ele><time>2026-04-25T09:15:58.995Z</time></trkpt><trkpt lat="44.7547383" lon="9.264675"><ele>829.0</ele><time>2026-04-25T09:15:59.997Z</time></trkpt><trkpt lat="44.7547133" lon="9.264855"><ele>829.0</ele><time>2026-04-25T09:16:00.996Z</time></trkpt><trkpt lat="44.7546817" lon="9.26501"><ele>828.4000000000001</ele><time>2026-04-25T09:16:01.993Z</time></trkpt><trkpt lat="44.7546417" lon="9.265145"><ele>827.8</ele><time>2026-04-25T09:16:02.996Z</time></trkpt><trkpt lat="44.7545783" lon="9.26526"><ele>827.2</ele><time>2026-04-25T09:16:03.996Z</time></trkpt><trkpt lat="44.7544867" lon="9.2653433"><ele>826.5999999999999</ele><time>2026-04-25T09:16:05Z</time></trkpt><trkpt lat="44.7543717" lon="9.2654"><ele>826.0</ele><time>2026-04-25T09:16:05.997Z</time></trkpt><trkpt lat="44.7542333" lon="9.2654367"><ele>826.0</ele><time>2026-04-25T09:16:06.995Z</time></trkpt><trkpt lat="44.7540917" lon="9.26549"><ele>826.0</ele><time>2026-04-25T09:16:07.994Z</time></trkpt><trkpt lat="44.7539367" lon="9.2655467"><ele>826.0</ele><time>2026-04-25T09:16:08.998Z</time></trkpt><trkpt lat="44.753775" lon="9.265595"><ele>829.3333333333333</ele><time>2026-04-25T09:16:09.996Z</time></trkpt><trkpt lat="44.75361" lon="9.2656317"><ele>832.6666666666667</ele><time>2026-04-25T09:16:10.994Z</time></trkpt><trkpt lat="44.7534383" lon="9.265655"><ele>836.0</ele><time>2026-04-25T09:16:11.997Z</time></trkpt><trkpt lat="44.75327" lon="9.2656733"><ele>836.0</ele><time>2026-04-25T09:16:12.993Z</time></trkpt><trkpt lat="44.7531083" lon="9.26567"><ele>836.0</ele><time>2026-04-25T09:16:13.996Z</time></trkpt><trkpt lat="44.75295" lon="9.2656467"><ele>836.0</ele><time>2026-04-25T09:16:14.996Z</time></trkpt><trkpt lat="44.7528067" lon="9.2656117"><ele>833.5</ele><time>2026-04-25T09:16:15.992Z</time></trkpt><trkpt lat="44.75267" lon="9.26557"><ele>831.0</ele><time>2026-04-25T09:16:16.997Z</time></trkpt><trkpt lat="44.7525433" lon="9.26553"><ele>828.5</ele><time>2026-04-25T09:16:17.993Z</time></trkpt><trkpt lat="44.7524233" lon="9.265495"><ele>826.0</ele><time>2026-04-25T09:16:18.995Z</time></trkpt><trkpt lat="44.7523167" lon="9.2654717"><ele>826.0</ele><time>2026-04-25T09:16:19.992Z</time></trkpt><trkpt lat="44.7522117" lon="9.2654683"><ele>826.0</ele><time>2026-04-25T09:16:20.996Z</time></trkpt><trkpt lat="44.7521167" lon="9.265505"><ele>826.0</ele><time>2026-04-25T09:16:22Z</time></trkpt><trkpt lat="44.75204" lon="9.265575"><ele>826.0</ele><time>2026-04-25T09:16:22.997Z</time></trkpt><trkpt lat="44.7519833" lon="9.2656667"><ele>826.0</ele><time>2026-04-25T09:16:23.993Z</time></trkpt><trkpt lat="44.7519333" lon="9.265775"><ele>826.0</ele><time>2026-04-25T09:16:24.997Z</time></trkpt><trkpt lat="44.7518983" lon="9.2659433"><ele>826.0</ele><time>2026-04-25T09:16:25.998Z</time></trkpt><trkpt lat="44.7518633" lon="9.2661183"><ele>826.0</ele><time>2026-04-25T09:16:26.994Z</time></trkpt><trkpt lat="44.7518283" lon="9.2662867"><ele>826.0</ele><time>2026-04-25T09:16:27.994Z</time></trkpt><trkpt lat="44.7518033" lon="9.2664517"><ele>827.5</ele><time>2026-04-25T09:16:28.996Z</time></trkpt><trkpt lat="44.7517933" lon="9.2666117"><ele>829.0</ele><time>2026-04-25T09:16:29.996Z</time></trkpt><trkpt lat="44.7518033" lon="9.2667817"><ele>830.5</ele><time>2026-04-25T09:16:30.994Z</time></trkpt><trkpt lat="44.751815" lon="9.266945"><ele>832.0</ele><time>2026-04-25T09:16:31.996Z</time></trkpt><trkpt lat="44.7518233" lon="9.2671"><ele>832.0</ele><time>2026-04-25T09:16:32.998Z</time></trkpt><trkpt lat="44.7518033" lon="9.2672567"><ele>832.0</ele><time>2026-04-25T09:16:33.997Z</time></trkpt><trkpt lat="44.7517667" lon="9.26742"><ele>832.0</ele><time>2026-04-25T09:16:35Z</time></trkpt><trkpt lat="44.7517283" lon="9.2675667"><ele>832.0</ele><time>2026-04-25T09:16:35.993Z</time></trkpt><trkpt lat="44.7517033" lon="9.26771"><ele>833.2</ele><time>2026-04-25T09:16:36.997Z</time></trkpt><trkpt lat="44.7517033" lon="9.2678417"><ele>834.4000000000001</ele><time>2026-04-25T09:16:37.993Z</time></trkpt><trkpt lat="44.75172" lon="9.2679767"><ele>835.5999999999999</ele><time>2026-04-25T09:16:38.994Z</time></trkpt><trkpt lat="44.75173" lon="9.2681117"><ele>836.8</ele><time>2026-04-25T09:16:39.996Z</time></trkpt><trkpt lat="44.75172" lon="9.26825"><ele>838.0</ele><time>2026-04-25T09:16:40.995Z</time></trkpt><trkpt lat="44.75169" lon="9.2683733"><ele>840.0</ele><time>2026-04-25T09:16:41.994Z</time></trkpt><trkpt lat="44.751635" lon="9.268485"><ele>842.0</ele><time>2026-04-25T09:16:42.994Z</time></trkpt><trkpt lat="44.75155" lon="9.26856"><ele>844.0</ele><time>2026-04-25T09:16:43.997Z</time></trkpt><trkpt lat="44.7514467" lon="9.2686217"><ele>846.0</ele><time>2026-04-25T09:16:44.997Z</time></trkpt><trkpt lat="44.751325" lon="9.26866"><ele>848.0</ele><time>2026-04-25T09:16:46.002Z</time></trkpt><trkpt lat="44.75118" lon="9.268665"><ele>848.0</ele><time>2026-04-25T09:16:46.995Z</time></trkpt><trkpt lat="44.7510417" lon="9.2686767"><ele>848.0</ele><time>2026-04-25T09:16:48Z</time></trkpt><trkpt lat="44.750895" lon="9.2686783"><ele>848.0</ele><time>2026-04-25T09:16:48.999Z</time></trkpt><trkpt lat="44.7507433" lon="9.268655"><ele>848.0</ele><time>2026-04-25T09:16:49.997Z</time></trkpt><trkpt lat="44.7505967" lon="9.2686283"><ele>845.3333333333334</ele><time>2026-04-25T09:16:50.999Z</time></trkpt><trkpt lat="44.7504483" lon="9.26862"><ele>842.6666666666667</ele><time>2026-04-25T09:16:52.001Z</time></trkpt><trkpt lat="44.7502983" lon="9.268615"><ele>840.0</ele><time>2026-04-25T09:16:52.995Z</time></trkpt><trkpt lat="44.750145" lon="9.268605"><ele>840.0</ele><time>2026-04-25T09:16:53.997Z</time></trkpt><trkpt lat="44.7500033" lon="9.2685883"><ele>840.0</ele><time>2026-04-25T09:16:54.997Z</time></trkpt><trkpt lat="44.7498567" lon="9.2685733"><ele>840.0</ele><time>2026-04-25T09:16:55.995Z</time></trkpt><trkpt lat="44.74971" lon="9.2685617"><ele>840.0</ele><time>2026-04-25T09:16:56.995Z</time></trkpt><trkpt lat="44.7495667" lon="9.2685383"><ele>840.0</ele><time>2026-04-25T09:16:57.994Z</time></trkpt><trkpt lat="44.7494283" lon="9.268535"><ele>840.0</ele><time>2026-04-25T09:16:58.994Z</time></trkpt><trkpt lat="44.7493067" lon="9.268555"><ele>840.0</ele><time>2026-04-25T09:16:59.995Z</time></trkpt><trkpt lat="44.7491933" lon="9.26859"><ele>840.0</ele><time>2026-04-25T09:17:01.003Z</time></trkpt><trkpt lat="44.7490767" lon="9.2686283"><ele>841.25</ele><time>2026-04-25T09:17:01.996Z</time></trkpt><trkpt lat="44.74896" lon="9.2686567"><ele>842.5</ele><time>2026-04-25T09:17:02.995Z</time></trkpt><trkpt lat="44.7488433" lon="9.2686667"><ele>843.75</ele><time>2026-04-25T09:17:03.993Z</time></trkpt><trkpt lat="44.7487183" lon="9.2686583"><ele>845.0</ele><time>2026-04-25T09:17:04.994Z</time></trkpt><trkpt lat="44.7485783" lon="9.2686317"><ele>845.5</ele><time>2026-04-25T09:17:05.995Z</time></trkpt><trkpt lat="44.7484367" lon="9.2686183"><ele>846.0</ele><time>2026-04-25T09:17:06.997Z</time></trkpt><trkpt lat="44.748295" lon="9.2685933"><ele>846.5</ele><time>2026-04-25T09:17:07.996Z</time></trkpt><trkpt lat="44.74816" lon="9.26857"><ele>847.0</ele><time>2026-04-25T09:17:08.995Z</time></trkpt><trkpt lat="44.7480383" lon="9.2685483"><ele>847.0</ele><time>2026-04-25T09:17:09.993Z</time></trkpt><trkpt lat="44.7479317" lon="9.26854"><ele>847.0</ele><time>2026-04-25T09:17:10.993Z</time></trkpt><trkpt lat="44.7478317" lon="9.2685533"><ele>847.0</ele><time>2026-04-25T09:17:11.996Z</time></trkpt><trkpt lat="44.7477333" lon="9.2686133"><ele>847.0</ele><time>2026-04-25T09:17:12.997Z</time></trkpt><trkpt lat="44.7476267" lon="9.2686933"><ele>847.0</ele><time>2026-04-25T09:17:14.003Z</time></trkpt><trkpt lat="44.74752" lon="9.2687883"><ele>847.0</ele><time>2026-04-25T09:17:14.997Z</time></trkpt><trkpt lat="44.7474233" lon="9.2688983"><ele>847.0</ele><time>2026-04-25T09:17:15.996Z</time></trkpt><trkpt lat="44.747335" lon="9.2690517"><ele>847.0</ele><time>2026-04-25T09:17:16.997Z</time></trkpt><trkpt lat="44.7472567" lon="9.2692017"><ele>847.0</ele><time>2026-04-25T09:17:17.999Z</time></trkpt><trkpt lat="44.7471867" lon="9.26938"><ele>851.0</ele><time>2026-04-25T09:17:18.999Z</time></trkpt><trkpt lat="44.7471333" lon="9.2695833"><ele>855.0</ele><time>2026-04-25T09:17:19.995Z</time></trkpt><trkpt lat="44.7470833" lon="9.2697917"><ele>859.0</ele><time>2026-04-25T09:17:20.998Z</time></trkpt><trkpt lat="44.7470433" lon="9.270025"><ele>862.3333333333333</ele><time>2026-04-25T09:17:21.995Z</time></trkpt><trkpt lat="44.7470083" lon="9.2702817"><ele>865.6666666666667</ele><time>2026-04-25T09:17:22.992Z</time></trkpt><trkpt lat="44.7469717" lon="9.27054"><ele>869.0</ele><time>2026-04-25T09:17:23.995Z</time></trkpt><trkpt lat="44.7469333" lon="9.270805"><ele>865.6666666666667</ele><time>2026-04-25T09:17:25Z</time></trkpt><trkpt lat="44.7469" lon="9.2710633"><ele>862.3333333333333</ele><time>2026-04-25T09:17:25.995Z</time></trkpt><trkpt lat="44.74687" lon="9.27131"><ele>859.0</ele><time>2026-04-25T09:17:26.995Z</time></trkpt><trkpt lat="44.7468467" lon="9.2715483"><ele>859.0</ele><time>2026-04-25T09:17:27.994Z</time></trkpt><trkpt lat="44.7468317" lon="9.2717783"><ele>859.0</ele><time>2026-04-25T09:17:28.998Z</time></trkpt><trkpt lat="44.7468217" lon="9.2720083"><ele>859.0</ele><time>2026-04-25T09:17:29.998Z</time></trkpt><trkpt lat="44.7468183" lon="9.2722317"><ele>859.75</ele><time>2026-04-25T09:17:30.998Z</time></trkpt><trkpt lat="44.7468217" lon="9.272445"><ele>860.5</ele><time>2026-04-25T09:17:31.993Z</time></trkpt><trkpt lat="44.7468333" lon="9.2726367"><ele>861.25</ele><time>2026-04-25T09:17:33.002Z</time></trkpt><trkpt lat="44.74685" lon="9.2727883"><ele>862.0</ele><time>2026-04-25T09:17:33.996Z</time></trkpt><trkpt lat="44.74688" lon="9.27293"><ele>866.0</ele><time>2026-04-25T09:17:35.003Z</time></trkpt><trkpt lat="44.74694" lon="9.273055"><ele>870.0</ele><time>2026-04-25T09:17:35.997Z</time></trkpt><trkpt lat="44.747025" lon="9.273165"><ele>874.0</ele><time>2026-04-25T09:17:36.995Z</time></trkpt><trkpt lat="44.747125" lon="9.2732617"><ele>878.0</ele><time>2026-04-25T09:17:37.998Z</time></trkpt><trkpt lat="44.74722" lon="9.2733717"><ele>878.0</ele><time>2026-04-25T09:17:38.998Z</time></trkpt><trkpt lat="44.7473117" lon="9.273485"><ele>878.0</ele><time>2026-04-25T09:17:39.997Z</time></trkpt><trkpt lat="44.7473983" lon="9.2736133"><ele>878.0</ele><time>2026-04-25T09:17:40.994Z</time></trkpt><trkpt lat="44.74747" lon="9.2737467"><ele>878.0</ele><time>2026-04-25T09:17:41.995Z</time></trkpt><trkpt lat="44.74753" lon="9.273885"><ele>877.25</ele><time>2026-04-25T09:17:42.997Z</time></trkpt><trkpt lat="44.7475617" lon="9.2740433"><ele>876.5</ele><time>2026-04-25T09:17:43.995Z</time></trkpt><trkpt lat="44.747575" lon="9.274205"><ele>875.75</ele><time>2026-04-25T09:17:44.997Z</time></trkpt><trkpt lat="44.7475717" lon="9.274375"><ele>875.0</ele><time>2026-04-25T09:17:45.996Z</time></trkpt><trkpt lat="44.7475533" lon="9.27454"><ele>875.0</ele><time>2026-04-25T09:17:46.996Z</time></trkpt><trkpt lat="44.747505" lon="9.2746917"><ele>875.0</ele><time>2026-04-25T09:17:47.993Z</time></trkpt><trkpt lat="44.7474667" lon="9.274835"><ele>875.0</ele><time>2026-04-25T09:17:48.993Z</time></trkpt><trkpt lat="44.7473517" lon="9.27496"><ele>875.0</ele><time>2026-04-25T09:17:49.996Z</time></trkpt><trkpt lat="44.7472317" lon="9.2750683"><ele>875.75</ele><time>2026-04-25T09:17:50.993Z</time></trkpt><trkpt lat="44.7471067" lon="9.2751833"><ele>876.5</ele><time>2026-04-25T09:17:51.995Z</time></trkpt><trkpt lat="44.74699" lon="9.2752983"><ele>877.25</ele><time>2026-04-25T09:17:52.993Z</time></trkpt><trkpt lat="44.746885" lon="9.2754083"><ele>878.0</ele><time>2026-04-25T09:17:53.995Z</time></trkpt><trkpt lat="44.7467983" lon="9.2755233"><ele>878.0</ele><time>2026-04-25T09:17:54.995Z</time></trkpt><trkpt lat="44.746715" lon="9.275645"><ele>878.0</ele><time>2026-04-25T09:17:56.003Z</time></trkpt><trkpt lat="44.74665" lon="9.2757817"><ele>878.0</ele><time>2026-04-25T09:17:56.994Z</time></trkpt><trkpt lat="44.7465917" lon="9.2759267"><ele>878.0</ele><time>2026-04-25T09:17:57.996Z</time></trkpt><trkpt lat="44.7465483" lon="9.276085"><ele>878.0</ele><time>2026-04-25T09:17:58.995Z</time></trkpt><trkpt lat="44.7465167" lon="9.2762533"><ele>878.0</ele><time>2026-04-25T09:17:59.999Z</time></trkpt><trkpt lat="44.7464833" lon="9.2764133"><ele>878.0</ele><time>2026-04-25T09:18:00.996Z</time></trkpt><trkpt lat="44.7464433" lon="9.2765617"><ele>878.0</ele><time>2026-04-25T09:18:01.993Z</time></trkpt><trkpt lat="44.7463817" lon="9.2766733"><ele>878.5999999999999</ele><time>2026-04-25T09:18:03.004Z</time></trkpt><trkpt lat="44.746305" lon="9.2767467"><ele>879.1999999999999</ele><time>2026-04-25T09:18:03.995Z</time></trkpt><trkpt lat="44.7462233" lon="9.2767933"><ele>879.8</ele><time>2026-04-25T09:18:04.996Z</time></trkpt><trkpt lat="44.7461417" lon="9.2768267"><ele>880.4</ele><time>2026-04-25T09:18:05.995Z</time></trkpt><trkpt lat="44.7460467" lon="9.276845"><ele>881.0</ele><time>2026-04-25T09:18:07.001Z</time></trkpt><trkpt lat="44.7459533" lon="9.2768717"><ele>881.0</ele><time>2026-04-25T09:18:07.996Z</time></trkpt><trkpt lat="44.74586" lon="9.2769217"><ele>880.9999999999999</ele><time>2026-04-25T09:18:08.999Z</time></trkpt><trkpt lat="44.7457883" lon="9.2770217"><ele>880.9999999999999</ele><time>2026-04-25T09:18:09.997Z</time></trkpt><trkpt lat="44.7457417" lon="9.277155"><ele>881.0</ele><time>2026-04-25T09:18:10.993Z</time></trkpt><trkpt lat="44.745695" lon="9.277305"><ele>881.0</ele><time>2026-04-25T09:18:11.995Z</time></trkpt><trkpt lat="44.7456667" lon="9.2774783"><ele>882.4</ele><time>2026-04-25T09:18:12.995Z</time></trkpt><trkpt lat="44.7456433" lon="9.2776433"><ele>883.8</ele><time>2026-04-25T09:18:13.998Z</time></trkpt><trkpt lat="44.7456267" lon="9.2778017"><ele>885.1999999999999</ele><time>2026-04-25T09:18:14.997Z</time></trkpt><trkpt lat="44.74561" lon="9.2779317"><ele>886.5999999999999</ele><time>2026-04-25T09:18:15.995Z</time></trkpt><trkpt lat="44.7455817" lon="9.2780567"><ele>888.0</ele><time>2026-04-25T09:18:16.992Z</time></trkpt><trkpt lat="44.7455483" lon="9.278165"><ele>888.8</ele><time>2026-04-25T09:18:18Z</time></trkpt><trkpt lat="44.7455017" lon="9.2782583"><ele>889.5999999999999</ele><time>2026-04-25T09:18:18.993Z</time></trkpt><trkpt lat="44.7454417" lon="9.2783233"><ele>890.4000000000001</ele><time>2026-04-25T09:18:19.995Z</time></trkpt><trkpt lat="44.745335" lon="9.2783083"><ele>891.2</ele><time>2026-04-25T09:18:20.999Z</time></trkpt><trkpt lat="44.745215" lon="9.2782983"><ele>892.0</ele><time>2026-04-25T09:18:21.996Z</time></trkpt><trkpt lat="44.7450833" lon="9.2782833"><ele>892.0</ele><time>2026-04-25T09:18:22.998Z</time></trkpt><trkpt lat="44.744945" lon="9.27827"><ele>892.0</ele><time>2026-04-25T09:18:23.996Z</time></trkpt><trkpt lat="44.744805" lon="9.278265"><ele>892.0</ele><time>2026-04-25T09:18:24.996Z</time></trkpt><trkpt lat="44.7446717" lon="9.2782567"><ele>892.0</ele><time>2026-04-25T09:18:25.998Z</time></trkpt><trkpt lat="44.7445483" lon="9.2782583"><ele>892.0</ele><time>2026-04-25T09:18:27.005Z</time></trkpt><trkpt lat="44.7444367" lon="9.2782683"><ele>892.0</ele><time>2026-04-25T09:18:27.994Z</time></trkpt><trkpt lat="44.744335" lon="9.278305"><ele>892.0</ele><time>2026-04-25T09:18:28.993Z</time></trkpt><trkpt lat="44.744235" lon="9.2783567"><ele>892.0</ele><time>2026-04-25T09:18:29.995Z</time></trkpt><trkpt lat="44.7441467" lon="9.2784317"><ele>892.0</ele><time>2026-04-25T09:18:30.995Z</time></trkpt><trkpt lat="44.7440717" lon="9.278505"><ele>892.1666666666666</ele><time>2026-04-25T09:18:32.005Z</time></trkpt><trkpt lat="44.7440083" lon="9.2785783"><ele>892.3333333333333</ele><time>2026-04-25T09:18:32.994Z</time></trkpt><trkpt lat="44.7439583" lon="9.278655"><ele>892.5</ele><time>2026-04-25T09:18:33.996Z</time></trkpt><trkpt lat="44.74392" lon="9.2787467"><ele>892.6666666666667</ele><time>2026-04-25T09:18:34.993Z</time></trkpt><trkpt lat="44.7438967" lon="9.2788567"><ele>892.8333333333334</ele><time>2026-04-25T09:18:35.994Z</time></trkpt><trkpt lat="44.7438933" lon="9.2789667"><ele>893.0</ele><time>2026-04-25T09:18:36.993Z</time></trkpt><trkpt lat="44.7438983" lon="9.2790817"><ele>893.5999999999999</ele><time>2026-04-25T09:18:37.998Z</time></trkpt><trkpt lat="44.74392" lon="9.2792067"><ele>894.1999999999999</ele><time>2026-04-25T09:18:38.995Z</time></trkpt><trkpt lat="44.743965" lon="9.279325"><ele>894.8</ele><time>2026-04-25T09:18:40.001Z</time></trkpt><trkpt lat="44.7440167" lon="9.2794433"><ele>895.4</ele><time>2026-04-25T09:18:40.994Z</time></trkpt><trkpt lat="44.7440633" lon="9.279555"><ele>896.0</ele><time>2026-04-25T09:18:42.002Z</time></trkpt><trkpt lat="44.744095" lon="9.2796667"><ele>896.8333333333334</ele><time>2026-04-25T09:18:42.996Z</time></trkpt><trkpt lat="44.74408" lon="9.279785"><ele>897.6666666666667</ele><time>2026-04-25T09:18:43.995Z</time></trkpt><trkpt lat="44.7440683" lon="9.2798933"><ele>898.5</ele><time>2026-04-25T09:18:44.998Z</time></trkpt><trkpt lat="44.744035" lon="9.2800033"><ele>899.3333333333333</ele><time>2026-04-25T09:18:45.995Z</time></trkpt><trkpt lat="44.7439833" lon="9.280105"><ele>900.1666666666666</ele><time>2026-04-25T09:18:46.993Z</time></trkpt><trkpt lat="44.7438917" lon="9.2801717"><ele>901.0</ele><time>2026-04-25T09:18:47.997Z</time></trkpt><trkpt lat="44.7437733" lon="9.2802033"><ele>901.0</ele><time>2026-04-25T09:18:49.002Z</time></trkpt><trkpt lat="44.7436817" lon="9.2802683"><ele>900.9999999999999</ele><time>2026-04-25T09:18:49.996Z</time></trkpt><trkpt lat="44.74361" lon="9.280355"><ele>900.9999999999999</ele><time>2026-04-25T09:18:50.997Z</time></trkpt><trkpt lat="44.743565" lon="9.2804567"><ele>901.0</ele><time>2026-04-25T09:18:51.995Z</time></trkpt><trkpt lat="44.7435383" lon="9.280595"><ele>901.0</ele><time>2026-04-25T09:18:52.995Z</time></trkpt><trkpt lat="44.74356" lon="9.2807517"><ele>902.0</ele><time>2026-04-25T09:18:53.997Z</time></trkpt><trkpt lat="44.7436083" lon="9.280925"><ele>903.0</ele><time>2026-04-25T09:18:54.999Z</time></trkpt><trkpt lat="44.7436667" lon="9.28112"><ele>904.0</ele><time>2026-04-25T09:18:55.997Z</time></trkpt><trkpt lat="44.7437233" lon="9.2813"><ele>905.0</ele><time>2026-04-25T09:18:56.996Z</time></trkpt><trkpt lat="44.743785" lon="9.2814717"><ele>905.0</ele><time>2026-04-25T09:18:57.994Z</time></trkpt><trkpt lat="44.7438383" lon="9.2816267"><ele>905.0</ele><time>2026-04-25T09:18:58.992Z</time></trkpt><trkpt lat="44.7438733" lon="9.281785"><ele>905.0</ele><time>2026-04-25T09:18:59.993Z</time></trkpt><trkpt lat="44.7438867" lon="9.28196"><ele>905.0</ele><time>2026-04-25T09:19:00.996Z</time></trkpt><trkpt lat="44.7439033" lon="9.2821267"><ele>904.0</ele><time>2026-04-25T09:19:02Z</time></trkpt><trkpt lat="44.7439333" lon="9.282295"><ele>903.0</ele><time>2026-04-25T09:19:02.997Z</time></trkpt><trkpt lat="44.743965" lon="9.2824517"><ele>902.0</ele><time>2026-04-25T09:19:03.997Z</time></trkpt><trkpt lat="44.743995" lon="9.2825983"><ele>901.0</ele><time>2026-04-25T09:19:04.994Z</time></trkpt><trkpt lat="44.7439967" lon="9.2827317"><ele>900.0</ele><time>2026-04-25T09:19:05.995Z</time></trkpt><trkpt lat="44.7439717" lon="9.282865"><ele>900.0</ele><time>2026-04-25T09:19:06.996Z</time></trkpt><trkpt lat="44.7439467" lon="9.2829683"><ele>900.0</ele><time>2026-04-25T09:19:07.995Z</time></trkpt><trkpt lat="44.7439017" lon="9.28307"><ele>900.0</ele><time>2026-04-25T09:19:09Z</time></trkpt><trkpt lat="44.74385" lon="9.28316"><ele>900.0</ele><time>2026-04-25T09:19:09.996Z</time></trkpt><trkpt lat="44.7437817" lon="9.2832483"><ele>900.0</ele><time>2026-04-25T09:19:10.995Z</time></trkpt><trkpt lat="44.74366" lon="9.2833083"><ele>902.6666666666667</ele><time>2026-04-25T09:19:13Z</time></trkpt><trkpt lat="44.7435083" lon="9.2832183"><ele>905.3333333333334</ele><time>2026-04-25T09:19:13.999Z</time></trkpt><trkpt lat="44.743355" lon="9.28315"><ele>908.0</ele><time>2026-04-25T09:19:14.996Z</time></trkpt><trkpt lat="44.743195" lon="9.283065"><ele>904.0</ele><time>2026-04-25T09:19:15.998Z</time></trkpt><trkpt lat="44.743065" lon="9.283015"><ele>900.0</ele><time>2026-04-25T09:19:16.994Z</time></trkpt><trkpt lat="44.7429383" lon="9.2829717"><ele>896.0</ele><time>2026-04-25T09:19:18Z</time></trkpt><trkpt lat="44.7428283" lon="9.282915"><ele>892.0</ele><time>2026-04-25T09:19:18.997Z</time></trkpt><trkpt lat="44.742725" lon="9.2828417"><ele>897.25</ele><time>2026-04-25T09:19:19.994Z</time></trkpt><trkpt lat="44.7426383" lon="9.28275"><ele>902.5</ele><time>2026-04-25T09:19:20.997Z</time></trkpt><trkpt lat="44.7425667" lon="9.2826333"><ele>907.75</ele><time>2026-04-25T09:19:21.996Z</time></trkpt><trkpt lat="44.7425417" lon="9.282475"><ele>913.0</ele><time>2026-04-25T09:19:22.996Z</time></trkpt><trkpt lat="44.7425117" lon="9.2823167"><ele>910.4999999999999</ele><time>2026-04-25T09:19:23.999Z</time></trkpt><trkpt lat="44.742465" lon="9.2821867"><ele>908.0</ele><time>2026-04-25T09:19:25.001Z</time></trkpt><trkpt lat="44.74242" lon="9.2820683"><ele>905.5</ele><time>2026-04-25T09:19:25.992Z</time></trkpt><trkpt lat="44.7423717" lon="9.2819767"><ele>903.0</ele><time>2026-04-25T09:19:27.003Z</time></trkpt><trkpt lat="44.7422917" lon="9.2819583"><ele>900.4999999999999</ele><time>2026-04-25T09:19:27.997Z</time></trkpt><trkpt lat="44.7422217" lon="9.2819433"><ele>898.0</ele><time>2026-04-25T09:19:28.993Z</time></trkpt><trkpt lat="44.7421467" lon="9.28196"><ele>898.0</ele><time>2026-04-25T09:19:29.999Z</time></trkpt><trkpt lat="44.742055" lon="9.2820417"><ele>898.0</ele><time>2026-04-25T09:19:31Z</time></trkpt><trkpt lat="44.741965" lon="9.2821233"><ele>898.0</ele><time>2026-04-25T09:19:31.996Z</time></trkpt><trkpt lat="44.74188" lon="9.2822067"><ele>898.0</ele><time>2026-04-25T09:19:32.999Z</time></trkpt><trkpt lat="44.7417867" lon="9.2822567"><ele>898.0</ele><time>2026-04-25T09:19:34.005Z</time></trkpt><trkpt lat="44.741685" lon="9.2822767"><ele>900.0</ele><time>2026-04-25T09:19:34.995Z</time></trkpt><trkpt lat="44.7415817" lon="9.282255"><ele>902.0</ele><time>2026-04-25T09:19:35.999Z</time></trkpt><trkpt lat="44.7414867" lon="9.28224"><ele>904.0</ele><time>2026-04-25T09:19:36.997Z</time></trkpt><trkpt lat="44.7413867" lon="9.28226"><ele>906.0</ele><time>2026-04-25T09:19:37.995Z</time></trkpt><trkpt lat="44.7413" lon="9.2823067"><ele>908.0</ele><time>2026-04-25T09:19:38.993Z</time></trkpt><trkpt lat="44.741215" lon="9.282355"><ele>910.2</ele><time>2026-04-25T09:19:39.999Z</time></trkpt><trkpt lat="44.7411283" lon="9.282385"><ele>912.4</ele><time>2026-04-25T09:19:40.995Z</time></trkpt><trkpt lat="44.7410383" lon="9.282395"><ele>914.6000000000001</ele><time>2026-04-25T09:19:41.994Z</time></trkpt><trkpt lat="44.7409483" lon="9.2824083"><ele>916.8000000000001</ele><time>2026-04-25T09:19:43.004Z</time></trkpt><trkpt lat="44.74087" lon="9.2823433"><ele>919.0</ele><time>2026-04-25T09:19:43.995Z</time></trkpt><trkpt lat="44.7408183" lon="9.2822217"><ele>918.9999999999999</ele><time>2026-04-25T09:19:44.998Z</time></trkpt><trkpt lat="44.7407733" lon="9.2821017"><ele>919.0</ele><time>2026-04-25T09:19:45.997Z</time></trkpt><trkpt lat="44.7407383" lon="9.2819833"><ele>919.0</ele><time>2026-04-25T09:19:46.998Z</time></trkpt><trkpt lat="44.74071" lon="9.28187"><ele>919.0</ele><time>2026-04-25T09:19:47.996Z</time></trkpt><trkpt lat="44.74068" lon="9.2817683"><ele>918.9999999999999</ele><time>2026-04-25T09:19:48.994Z</time></trkpt><trkpt lat="44.7406483" lon="9.28168"><ele>919.0</ele><time>2026-04-25T09:19:49.994Z</time></trkpt><trkpt lat="44.74055" lon="9.2817183"><ele>919.0</ele><time>2026-04-25T09:19:51.994Z</time></trkpt><trkpt lat="44.7404983" lon="9.2818217"><ele>919.0000000000001</ele><time>2026-04-25T09:19:53.999Z</time></trkpt><trkpt lat="44.7404767" lon="9.2819133"><ele>919.0000000000001</ele><time>2026-04-25T09:19:54.997Z</time></trkpt><trkpt lat="44.7405217" lon="9.2820117"><ele>919.0</ele><time>2026-04-25T09:19:55.997Z</time></trkpt><trkpt lat="44.7405717" lon="9.282125"><ele>919.0</ele><time>2026-04-25T09:19:56.999Z</time></trkpt><trkpt lat="44.7406567" lon="9.2822833"><ele>919.6</ele><time>2026-04-25T09:19:57.995Z</time></trkpt><trkpt lat="44.7407283" lon="9.28243"><ele>920.2</ele><time>2026-04-25T09:19:58.995Z</time></trkpt><trkpt lat="44.7407883" lon="9.2825583"><ele>920.8000000000001</ele><time>2026-04-25T09:19:59.996Z</time></trkpt><trkpt lat="44.7408633" lon="9.2826483"><ele>921.4000000000001</ele><time>2026-04-25T09:20:01.001Z</time></trkpt><trkpt lat="44.74096" lon="9.2827183"><ele>922.0</ele><time>2026-04-25T09:20:01.996Z</time></trkpt><trkpt lat="44.7410533" lon="9.2827917"><ele>922.0</ele><time>2026-04-25T09:20:02.997Z</time></trkpt><trkpt lat="44.741145" lon="9.282855"><ele>922.0</ele><time>2026-04-25T09:20:03.996Z</time></trkpt><trkpt lat="44.7412417" lon="9.2829133"><ele>922.0</ele><time>2026-04-25T09:20:04.997Z</time></trkpt><trkpt lat="44.7413367" lon="9.28297"><ele>922.0</ele><time>2026-04-25T09:20:05.997Z</time></trkpt><trkpt lat="44.7414333" lon="9.28301"><ele>922.0</ele><time>2026-04-25T09:20:06.995Z</time></trkpt><trkpt lat="44.74154" lon="9.2830067"><ele>921.9999999999999</ele><time>2026-04-25T09:20:07.995Z</time></trkpt><trkpt lat="44.74164" lon="9.2829533"><ele>922.0</ele><time>2026-04-25T09:20:08.996Z</time></trkpt><trkpt lat="44.7417183" lon="9.282875"><ele>922.0</ele><time>2026-04-25T09:20:09.994Z</time></trkpt><trkpt lat="44.7417917" lon="9.2828067"><ele>922.0</ele><time>2026-04-25T09:20:10.994Z</time></trkpt><trkpt lat="44.7418633" lon="9.282745"><ele>921.9999999999999</ele><time>2026-04-25T09:20:11.995Z</time></trkpt><trkpt lat="44.74193" lon="9.28276"><ele>922.0</ele><time>2026-04-25T09:20:12.992Z</time></trkpt><trkpt lat="44.7420033" lon="9.28284"><ele>922.0</ele><time>2026-04-25T09:20:14.995Z</time></trkpt><trkpt lat="44.7420067" lon="9.2829783"><ele>922.0</ele><time>2026-04-25T09:20:16.996Z</time></trkpt><trkpt lat="44.741885" lon="9.2830717"><ele>922.0</ele><time>2026-04-25T09:20:18.997Z</time></trkpt><trkpt lat="44.741685" lon="9.2830767"><ele>922.0</ele><time>2026-04-25T09:20:20.001Z</time></trkpt><trkpt lat="44.7415117" lon="9.28308"><ele>922.0</ele><time>2026-04-25T09:20:20.995Z</time></trkpt><trkpt lat="44.7413467" lon="9.28307"><ele>922.0</ele><time>2026-04-25T09:20:21.997Z</time></trkpt><trkpt lat="44.7411917" lon="9.2830483"><ele>922.0</ele><time>2026-04-25T09:20:22.999Z</time></trkpt><trkpt lat="44.7410333" lon="9.2830133"><ele>924.5</ele><time>2026-04-25T09:20:23.993Z</time></trkpt><trkpt lat="44.74089" lon="9.2829633"><ele>927.0</ele><time>2026-04-25T09:20:24.995Z</time></trkpt><trkpt lat="44.74075" lon="9.2828933"><ele>929.5</ele><time>2026-04-25T09:20:25.999Z</time></trkpt><trkpt lat="44.740625" lon="9.2828133"><ele>932.0</ele><time>2026-04-25T09:20:26.998Z</time></trkpt><trkpt lat="44.7405167" lon="9.2827417"><ele>932.0</ele><time>2026-04-25T09:20:27.994Z</time></trkpt><trkpt lat="44.7404133" lon="9.2826483"><ele>932.0</ele><time>2026-04-25T09:20:28.997Z</time></trkpt><trkpt lat="44.7403267" lon="9.2825467"><ele>932.0</ele><time>2026-04-25T09:20:29.996Z</time></trkpt><trkpt lat="44.7402483" lon="9.28246"><ele>932.0</ele><time>2026-04-25T09:20:31.002Z</time></trkpt><trkpt lat="44.7401817" lon="9.2823967"><ele>932.0</ele><time>2026-04-25T09:20:31.993Z</time></trkpt><trkpt lat="44.7401233" lon="9.2823367"><ele>933.0</ele><time>2026-04-25T09:20:32.995Z</time></trkpt><trkpt lat="44.74004" lon="9.2822317"><ele>934.0</ele><time>2026-04-25T09:20:35.005Z</time></trkpt><trkpt lat="44.7399683" lon="9.282185"><ele>935.0</ele><time>2026-04-25T09:20:36.995Z</time></trkpt><trkpt lat="44.7399033" lon="9.2822017"><ele>936.0</ele><time>2026-04-25T09:21:00.004Z</time></trkpt><trkpt lat="44.7398" lon="9.28219"><ele>937.0</ele><time>2026-04-25T09:21:01.996Z</time></trkpt><trkpt lat="44.7396967" lon="9.2820833"><ele>937.0</ele><time>2026-04-25T09:21:03.997Z</time></trkpt><trkpt lat="44.739645" lon="9.282"><ele>937.0</ele><time>2026-04-25T09:21:04.995Z</time></trkpt><trkpt lat="44.7396" lon="9.2818867"><ele>937.0</ele><time>2026-04-25T09:21:05.997Z</time></trkpt><trkpt lat="44.7395517" lon="9.2817683"><ele>937.0</ele><time>2026-04-25T09:21:06.999Z</time></trkpt><trkpt lat="44.7395017" lon="9.2816417"><ele>937.0</ele><time>2026-04-25T09:21:07.997Z</time></trkpt><trkpt lat="44.7394583" lon="9.2815417"><ele>936.9999999999999</ele><time>2026-04-25T09:21:09.001Z</time></trkpt><trkpt lat="44.7394167" lon="9.28145"><ele>937.0</ele><time>2026-04-25T09:21:09.997Z</time></trkpt><trkpt lat="44.73938" lon="9.2813633"><ele>937.0</ele><time>2026-04-25T09:21:10.997Z</time></trkpt><trkpt lat="44.7393317" lon="9.2812933"><ele>937.0</ele><time>2026-04-25T09:21:12.003Z</time></trkpt><trkpt lat="44.73929" lon="9.2812067"><ele>936.9999999999999</ele><time>2026-04-25T09:21:12.999Z</time></trkpt><trkpt lat="44.7392483" lon="9.281115"><ele>937.0</ele><time>2026-04-25T09:21:13.999Z</time></trkpt><trkpt lat="44.7391883" lon="9.28104"><ele>938.1666666666666</ele><time>2026-04-25T09:21:14.995Z</time></trkpt><trkpt lat="44.7391083" lon="9.28099"><ele>939.3333333333333</ele><time>2026-04-25T09:21:15.996Z</time></trkpt><trkpt lat="44.7390267" lon="9.2809467"><ele>940.5</ele><time>2026-04-25T09:21:16.993Z</time></trkpt><trkpt lat="44.7389383" lon="9.2809233"><ele>941.6666666666667</ele><time>2026-04-25T09:21:17.992Z</time></trkpt><trkpt lat="44.73886" lon="9.2809217"><ele>942.8333333333334</ele><time>2026-04-25T09:21:18.993Z</time></trkpt><trkpt lat="44.738785" lon="9.280925"><ele>944.0</ele><time>2026-04-25T09:21:19.993Z</time></trkpt><trkpt lat="44.7387167" lon="9.2809283"><ele>944.0000000000001</ele><time>2026-04-25T09:21:20.995Z</time></trkpt><trkpt lat="44.7386333" lon="9.2809033"><ele>944.0</ele><time>2026-04-25T09:21:22.997Z</time></trkpt><trkpt lat="44.7385433" lon="9.2808933"><ele>944.0</ele><time>2026-04-25T09:21:24.996Z</time></trkpt><trkpt lat="44.738455" lon="9.28092"><ele>944.0</ele><time>2026-04-25T09:21:26.994Z</time></trkpt><trkpt lat="44.7383683" lon="9.2809467"><ele>944.0000000000001</ele><time>2026-04-25T09:21:28.994Z</time></trkpt><trkpt lat="44.7382967" lon="9.2809617"><ele>944.0</ele><time>2026-04-25T09:21:30.996Z</time></trkpt><trkpt lat="44.738215" lon="9.2810317"><ele>945.3333333333334</ele><time>2026-04-25T09:21:32.997Z</time></trkpt><trkpt lat="44.7381817" lon="9.2811267"><ele>946.6666666666667</ele><time>2026-04-25T09:21:34.997Z</time></trkpt><trkpt lat="44.73812" lon="9.2811867"><ele>948.0</ele><time>2026-04-25T09:21:40.999Z</time></trkpt><trkpt lat="44.7380267" lon="9.2811517"><ele>949.3333333333333</ele><time>2026-04-25T09:21:52.997Z</time></trkpt><trkpt lat="44.7379833" lon="9.2812283"><ele>950.6666666666666</ele><time>2026-04-25T09:21:55.993Z</time></trkpt><trkpt lat="44.7380017" lon="9.2813183"><ele>952.0</ele><time>2026-04-25T09:21:58.998Z</time></trkpt><trkpt lat="44.73809" lon="9.2814433"><ele>951.9999999999999</ele><time>2026-04-25T09:22:34.996Z</time></trkpt><trkpt lat="44.7380917" lon="9.2815333"><ele>952.0</ele><time>2026-04-25T09:22:44.997Z</time></trkpt><trkpt lat="44.738025" lon="9.2815733"><ele>952.0</ele><time>2026-04-25T09:38:53.995Z</time></trkpt><trkpt lat="44.7379433" lon="9.2815167"><ele>952.0</ele><time>2026-04-25T09:38:55.001Z</time></trkpt><trkpt lat="44.7378733" lon="9.2814533"><ele>951.9999999999999</ele><time>2026-04-25T09:41:08.994Z</time></trkpt><trkpt lat="44.7379133" lon="9.28137"><ele>952.0</ele><time>2026-04-25T09:41:12.997Z</time></trkpt><trkpt lat="44.737995" lon="9.2813767"><ele>952.8</ele><time>2026-04-25T09:41:15.998Z</time></trkpt><trkpt lat="44.7380817" lon="9.28151"><ele>953.6</ele><time>2026-04-25T09:42:20.996Z</time></trkpt><trkpt lat="44.7380933" lon="9.2816083"><ele>954.3999999999999</ele><time>2026-04-25T09:42:22.997Z</time></trkpt><trkpt lat="44.7381083" lon="9.2817383"><ele>955.1999999999999</ele><time>2026-04-25T09:42:24.994Z</time></trkpt><trkpt lat="44.7381267" lon="9.2818867"><ele>956.0</ele><time>2026-04-25T09:42:26.997Z</time></trkpt><trkpt lat="44.7381367" lon="9.2820567"><ele>956.0</ele><time>2026-04-25T09:42:28.993Z</time></trkpt><trkpt lat="44.73816" lon="9.2822417"><ele>955.9999999999999</ele><time>2026-04-25T09:42:30.995Z</time></trkpt><trkpt lat="44.738165" lon="9.2823467"><ele>955.9999999999999</ele><time>2026-04-25T09:42:31.992Z</time></trkpt><trkpt lat="44.73815" lon="9.2824517"><ele>956.0</ele><time>2026-04-25T09:42:32.994Z</time></trkpt><trkpt lat="44.7381183" lon="9.282555"><ele>956.0</ele><time>2026-04-25T09:42:33.995Z</time></trkpt><trkpt lat="44.73808" lon="9.2826667"><ele>956.0000000000001</ele><time>2026-04-25T09:42:34.997Z</time></trkpt><trkpt lat="44.738035" lon="9.2827867"><ele>956.0</ele><time>2026-04-25T09:42:35.993Z</time></trkpt><trkpt lat="44.7379867" lon="9.2829083"><ele>956.0</ele><time>2026-04-25T09:42:36.998Z</time></trkpt><trkpt lat="44.7379583" lon="9.2830233"><ele>956.0</ele><time>2026-04-25T09:42:37.996Z</time></trkpt><trkpt lat="44.737935" lon="9.2831333"><ele>956.0000000000001</ele><time>2026-04-25T09:42:38.995Z</time></trkpt><trkpt lat="44.7379183" lon="9.2832467"><ele>956.0</ele><time>2026-04-25T09:42:39.994Z</time></trkpt><trkpt lat="44.7379367" lon="9.2833467"><ele>955.5999999999999</ele><time>2026-04-25T09:42:40.997Z</time></trkpt><trkpt lat="44.7379667" lon="9.2834483"><ele>955.1999999999999</ele><time>2026-04-25T09:42:42.001Z</time></trkpt><trkpt lat="44.7380083" lon="9.28355"><ele>954.8000000000001</ele><time>2026-04-25T09:42:42.999Z</time></trkpt><trkpt lat="44.738085" lon="9.28362"><ele>954.4000000000001</ele><time>2026-04-25T09:42:44Z</time></trkpt><trkpt lat="44.7381683" lon="9.2836967"><ele>954.0</ele><time>2026-04-25T09:42:44.997Z</time></trkpt><trkpt lat="44.7382667" lon="9.2837633"><ele>954.0</ele><time>2026-04-25T09:42:45.997Z</time></trkpt><trkpt lat="44.7383667" lon="9.2838333"><ele>954.0000000000001</ele><time>2026-04-25T09:42:46.997Z</time></trkpt><trkpt lat="44.738455" lon="9.28392"><ele>954.0000000000001</ele><time>2026-04-25T09:42:47.998Z</time></trkpt><trkpt lat="44.7385333" lon="9.2840233"><ele>954.0</ele><time>2026-04-25T09:42:49Z</time></trkpt><trkpt lat="44.738595" lon="9.2841567"><ele>954.0</ele><time>2026-04-25T09:42:49.998Z</time></trkpt><trkpt lat="44.7386483" lon="9.2843017"><ele>955.0</ele><time>2026-04-25T09:42:50.999Z</time></trkpt><trkpt lat="44.73869" lon="9.28446"><ele>956.0</ele><time>2026-04-25T09:42:51.999Z</time></trkpt><trkpt lat="44.7387317" lon="9.284635"><ele>957.0</ele><time>2026-04-25T09:42:52.998Z</time></trkpt><trkpt lat="44.738775" lon="9.2848"><ele>958.0</ele><time>2026-04-25T09:42:53.998Z</time></trkpt><trkpt lat="44.7388133" lon="9.2849667"><ele>958.0</ele><time>2026-04-25T09:42:55Z</time></trkpt><trkpt lat="44.73885" lon="9.2851317"><ele>958.0</ele><time>2026-04-25T09:42:55.996Z</time></trkpt><trkpt lat="44.738885" lon="9.2852917"><ele>958.0</ele><time>2026-04-25T09:42:56.995Z</time></trkpt><trkpt lat="44.7389033" lon="9.2854583"><ele>958.0</ele><time>2026-04-25T09:42:58.002Z</time></trkpt><trkpt lat="44.7389067" lon="9.2856033"><ele>956.25</ele><time>2026-04-25T09:42:58.997Z</time></trkpt><trkpt lat="44.73888" lon="9.28574"><ele>954.5</ele><time>2026-04-25T09:42:59.996Z</time></trkpt><trkpt lat="44.738845" lon="9.28589"><ele>952.75</ele><time>2026-04-25T09:43:01.002Z</time></trkpt><trkpt lat="44.7388133" lon="9.286055"><ele>951.0</ele><time>2026-04-25T09:43:01.998Z</time></trkpt><trkpt lat="44.7387967" lon="9.2862183"><ele>951.0</ele><time>2026-04-25T09:43:02.997Z</time></trkpt><trkpt lat="44.7388033" lon="9.2863833"><ele>950.9999999999999</ele><time>2026-04-25T09:43:03.995Z</time></trkpt><trkpt lat="44.738845" lon="9.2865183"><ele>950.9999999999999</ele><time>2026-04-25T09:43:04.995Z</time></trkpt><trkpt lat="44.7389067" lon="9.2866117"><ele>951.0</ele><time>2026-04-25T09:43:05.995Z</time></trkpt><trkpt lat="44.7389817" lon="9.286695"><ele>951.0</ele><time>2026-04-25T09:43:06.999Z</time></trkpt><trkpt lat="44.7390567" lon="9.28679"><ele>950.1999999999999</ele><time>2026-04-25T09:43:07.996Z</time></trkpt><trkpt lat="44.7391283" lon="9.2869033"><ele>949.3999999999999</ele><time>2026-04-25T09:43:09.002Z</time></trkpt><trkpt lat="44.73919" lon="9.2870133"><ele>948.6</ele><time>2026-04-25T09:43:10.001Z</time></trkpt><trkpt lat="44.7392317" lon="9.2871317"><ele>947.8</ele><time>2026-04-25T09:43:10.997Z</time></trkpt><trkpt lat="44.7392467" lon="9.2872483"><ele>947.0</ele><time>2026-04-25T09:43:11.995Z</time></trkpt><trkpt lat="44.7392467" lon="9.28738"><ele>945.5</ele><time>2026-04-25T09:43:12.997Z</time></trkpt><trkpt lat="44.7392233" lon="9.287535"><ele>944.0</ele><time>2026-04-25T09:43:13.997Z</time></trkpt><trkpt lat="44.739195" lon="9.287705"><ele>942.5</ele><time>2026-04-25T09:43:15Z</time></trkpt><trkpt lat="44.7391633" lon="9.2878883"><ele>941.0</ele><time>2026-04-25T09:43:15.997Z</time></trkpt><trkpt lat="44.7391367" lon="9.28807"><ele>939.5</ele><time>2026-04-25T09:43:16.995Z</time></trkpt><trkpt lat="44.7391233" lon="9.2882833"><ele>938.0</ele><time>2026-04-25T09:43:17.997Z</time></trkpt><trkpt lat="44.7391317" lon="9.28846"><ele>936.5</ele><time>2026-04-25T09:43:18.998Z</time></trkpt><trkpt lat="44.739175" lon="9.2885833"><ele>935.0</ele><time>2026-04-25T09:43:19.996Z</time></trkpt><trkpt lat="44.739235" lon="9.28868"><ele>935.0000000000001</ele><time>2026-04-25T09:43:20.995Z</time></trkpt><trkpt lat="44.7392983" lon="9.28877"><ele>935.0</ele><time>2026-04-25T09:43:21.996Z</time></trkpt><trkpt lat="44.739355" lon="9.2888717"><ele>935.0</ele><time>2026-04-25T09:43:22.994Z</time></trkpt><trkpt lat="44.739395" lon="9.2889817"><ele>935.0</ele><time>2026-04-25T09:43:23.999Z</time></trkpt><trkpt lat="44.7394183" lon="9.2890883"><ele>935.0000000000001</ele><time>2026-04-25T09:43:24.997Z</time></trkpt><trkpt lat="44.7394317" lon="9.2891967"><ele>935.0</ele><time>2026-04-25T09:43:25.996Z</time></trkpt><trkpt lat="44.7394383" lon="9.2893067"><ele>934.8333333333334</ele><time>2026-04-25T09:43:26.996Z</time></trkpt><trkpt lat="44.7394417" lon="9.28943"><ele>934.6666666666667</ele><time>2026-04-25T09:43:27.996Z</time></trkpt><trkpt lat="44.7394167" lon="9.2895483"><ele>934.5</ele><time>2026-04-25T09:43:28.998Z</time></trkpt><trkpt lat="44.7393883" lon="9.2896717"><ele>934.3333333333333</ele><time>2026-04-25T09:43:29.996Z</time></trkpt><trkpt lat="44.7393517" lon="9.2897833"><ele>934.1666666666666</ele><time>2026-04-25T09:43:30.997Z</time></trkpt><trkpt lat="44.7393367" lon="9.2899033"><ele>934.0</ele><time>2026-04-25T09:43:31.995Z</time></trkpt><trkpt lat="44.73933" lon="9.29001"><ele>933.9999999999999</ele><time>2026-04-25T09:43:32.999Z</time></trkpt><trkpt lat="44.7393433" lon="9.29011"><ele>934.0</ele><time>2026-04-25T09:43:34.004Z</time></trkpt><trkpt lat="44.7393767" lon="9.2902133"><ele>934.0</ele><time>2026-04-25T09:43:34.999Z</time></trkpt><trkpt lat="44.7394217" lon="9.290325"><ele>934.0</ele><time>2026-04-25T09:43:36.004Z</time></trkpt><trkpt lat="44.739465" lon="9.2904417"><ele>933.9999999999999</ele><time>2026-04-25T09:43:37.003Z</time></trkpt><trkpt lat="44.7394967" lon="9.2905567"><ele>934.0</ele><time>2026-04-25T09:43:37.994Z</time></trkpt><trkpt lat="44.73952" lon="9.2906817"><ele>939.1666666666666</ele><time>2026-04-25T09:43:38.993Z</time></trkpt><trkpt lat="44.73952" lon="9.2908067"><ele>944.3333333333333</ele><time>2026-04-25T09:43:39.996Z</time></trkpt><trkpt lat="44.7395083" lon="9.2909183"><ele>949.5</ele><time>2026-04-25T09:43:40.995Z</time></trkpt><trkpt lat="44.7394767" lon="9.291035"><ele>954.6666666666667</ele><time>2026-04-25T09:43:41.994Z</time></trkpt><trkpt lat="44.7394467" lon="9.2911467"><ele>959.8333333333334</ele><time>2026-04-25T09:43:43.001Z</time></trkpt><trkpt lat="44.739435" lon="9.2912733"><ele>965.0</ele><time>2026-04-25T09:43:43.998Z</time></trkpt><trkpt lat="44.7394583" lon="9.2914033"><ele>964.0</ele><time>2026-04-25T09:43:45.002Z</time></trkpt><trkpt lat="44.7395" lon="9.2915367"><ele>963.0</ele><time>2026-04-25T09:43:46Z</time></trkpt><trkpt lat="44.7395433" lon="9.2916717"><ele>962.0</ele><time>2026-04-25T09:43:46.997Z</time></trkpt><trkpt lat="44.7395983" lon="9.2918033"><ele>961.0</ele><time>2026-04-25T09:43:47.998Z</time></trkpt><trkpt lat="44.7396483" lon="9.2919317"><ele>960.0</ele><time>2026-04-25T09:43:49.001Z</time></trkpt><trkpt lat="44.7397" lon="9.292065"><ele>960.0</ele><time>2026-04-25T09:43:49.995Z</time></trkpt><trkpt lat="44.739735" lon="9.29221"><ele>960.0</ele><time>2026-04-25T09:43:50.998Z</time></trkpt><trkpt lat="44.73978" lon="9.292345"><ele>960.0</ele><time>2026-04-25T09:43:52Z</time></trkpt><trkpt lat="44.739825" lon="9.2924733"><ele>960.0</ele><time>2026-04-25T09:43:52.999Z</time></trkpt><trkpt lat="44.7398667" lon="9.2925917"><ele>960.0</ele><time>2026-04-25T09:43:53.998Z</time></trkpt><trkpt lat="44.73991" lon="9.2926967"><ele>958.5</ele><time>2026-04-25T09:43:54.998Z</time></trkpt><trkpt lat="44.73996" lon="9.2927983"><ele>957.0</ele><time>2026-04-25T09:43:55.994Z</time></trkpt><trkpt lat="44.74002" lon="9.2928867"><ele>955.5</ele><time>2026-04-25T09:43:57.001Z</time></trkpt><trkpt lat="44.7400767" lon="9.2929733"><ele>954.0</ele><time>2026-04-25T09:43:57.997Z</time></trkpt><trkpt lat="44.7401217" lon="9.29306"><ele>952.5</ele><time>2026-04-25T09:43:58.997Z</time></trkpt><trkpt lat="44.7401533" lon="9.2931517"><ele>951.0</ele><time>2026-04-25T09:43:59.999Z</time></trkpt><trkpt lat="44.7401833" lon="9.2933083"><ele>949.5</ele><time>2026-04-25T09:44:01.997Z</time></trkpt><trkpt lat="44.7401633" lon="9.29345"><ele>948.0</ele><time>2026-04-25T09:44:03.993Z</time></trkpt><trkpt lat="44.7401517" lon="9.293575"><ele>946.5</ele><time>2026-04-25T09:44:06.997Z</time></trkpt><trkpt lat="44.7400783" lon="9.2936683"><ele>945.0</ele><time>2026-04-25T09:44:48.997Z</time></trkpt><trkpt lat="44.7400933" lon="9.2937633"><ele>943.5</ele><time>2026-04-25T09:44:53.997Z</time></trkpt><trkpt lat="44.7401" lon="9.2938617"><ele>942.0</ele><time>2026-04-25T09:44:55.999Z</time></trkpt><trkpt lat="44.740135" lon="9.29403"><ele>940.1666666666666</ele><time>2026-04-25T09:44:57.994Z</time></trkpt><trkpt lat="44.740165" lon="9.294135"><ele>938.3333333333333</ele><time>2026-04-25T09:44:58.996Z</time></trkpt><trkpt lat="44.7401867" lon="9.29424"><ele>936.5</ele><time>2026-04-25T09:44:59.998Z</time></trkpt><trkpt lat="44.7402183" lon="9.2943567"><ele>934.6666666666666</ele><time>2026-04-25T09:45:01Z</time></trkpt><trkpt lat="44.74026" lon="9.294475"><ele>932.8333333333333</ele><time>2026-04-25T09:45:02.002Z</time></trkpt><trkpt lat="44.7403117" lon="9.29458"><ele>931.0</ele><time>2026-04-25T09:45:02.998Z</time></trkpt><trkpt lat="44.7403767" lon="9.294655"><ele>931.8571428571429</ele><time>2026-04-25T09:45:03.995Z</time></trkpt><trkpt lat="44.7404383" lon="9.29472"><ele>932.7142857142858</ele><time>2026-04-25T09:45:04.997Z</time></trkpt><trkpt lat="44.7405033" lon="9.2947617"><ele>933.5714285714286</ele><time>2026-04-25T09:45:06.003Z</time></trkpt><trkpt lat="44.7405667" lon="9.294755"><ele>934.4285714285714</ele><time>2026-04-25T09:45:06.993Z</time></trkpt><trkpt lat="44.740635" lon="9.2947617"><ele>935.2857142857143</ele><time>2026-04-25T09:45:07.996Z</time></trkpt><trkpt lat="44.7407017" lon="9.294755"><ele>936.1428571428571</ele><time>2026-04-25T09:45:08.996Z</time></trkpt><trkpt lat="44.7407767" lon="9.294725"><ele>937.0</ele><time>2026-04-25T09:45:09.995Z</time></trkpt><trkpt lat="44.7408517" lon="9.2946817"><ele>940.8571428571429</ele><time>2026-04-25T09:45:10.995Z</time></trkpt><trkpt lat="44.740925" lon="9.2946583"><ele>944.7142857142858</ele><time>2026-04-25T09:45:11.995Z</time></trkpt><trkpt lat="44.74101" lon="9.294655"><ele>948.5714285714287</ele><time>2026-04-25T09:45:12.996Z</time></trkpt><trkpt lat="44.741085" lon="9.2946667"><ele>952.4285714285714</ele><time>2026-04-25T09:45:13.996Z</time></trkpt><trkpt lat="44.74115" lon="9.2946733"><ele>956.2857142857144</ele><time>2026-04-25T09:45:14.996Z</time></trkpt><trkpt lat="44.741205" lon="9.2947217"><ele>960.1428571428572</ele><time>2026-04-25T09:45:15.998Z</time></trkpt><trkpt lat="44.7412433" lon="9.29481"><ele>964.0</ele><time>2026-04-25T09:45:16.997Z</time></trkpt><trkpt lat="44.7412567" lon="9.29491"><ele>964.0</ele><time>2026-04-25T09:45:17.996Z</time></trkpt><trkpt lat="44.741255" lon="9.2950133"><ele>964.0</ele><time>2026-04-25T09:45:19.002Z</time></trkpt><trkpt lat="44.7412033" lon="9.2952767"><ele>964.0</ele><time>2026-04-25T09:45:19.999Z</time></trkpt><trkpt lat="44.74119" lon="9.2954433"><ele>964.0</ele><time>2026-04-25T09:45:20.996Z</time></trkpt><trkpt lat="44.7411833" lon="9.2955617"><ele>963.4999999999999</ele><time>2026-04-25T09:45:21.992Z</time></trkpt><trkpt lat="44.7411767" lon="9.2956717"><ele>963.0</ele><time>2026-04-25T09:45:22.995Z</time></trkpt><trkpt lat="44.7411583" lon="9.2957767"><ele>962.5</ele><time>2026-04-25T09:45:23.998Z</time></trkpt><trkpt lat="44.7411317" lon="9.29588"><ele>962.0</ele><time>2026-04-25T09:45:24.998Z</time></trkpt><trkpt lat="44.74111" lon="9.295985"><ele>961.4999999999999</ele><time>2026-04-25T09:45:25.997Z</time></trkpt><trkpt lat="44.7410683" lon="9.296095"><ele>961.0</ele><time>2026-04-25T09:45:27.003Z</time></trkpt><trkpt lat="44.7410167" lon="9.29617"><ele>954.0</ele><time>2026-04-25T09:45:28.002Z</time></trkpt><trkpt lat="44.7409283" lon="9.2962367"><ele>947.0</ele><time>2026-04-25T09:45:28.999Z</time></trkpt><trkpt lat="44.74079" lon="9.2962583"><ele>940.0</ele><time>2026-04-25T09:45:29.997Z</time></trkpt><trkpt lat="44.7406833" lon="9.2963083"><ele>933.0</ele><time>2026-04-25T09:45:30.995Z</time></trkpt><trkpt lat="44.7405133" lon="9.29627"><ele>933.0</ele><time>2026-04-25T09:45:31.996Z</time></trkpt><trkpt lat="44.7404" lon="9.2962833"><ele>933.0</ele><time>2026-04-25T09:45:32.993Z</time></trkpt><trkpt lat="44.7402917" lon="9.2963383"><ele>933.0</ele><time>2026-04-25T09:45:33.998Z</time></trkpt><trkpt lat="44.740235" lon="9.29647"><ele>933.0</ele><time>2026-04-25T09:45:34.992Z</time></trkpt><trkpt lat="44.7401917" lon="9.2966217"><ele>929.5</ele><time>2026-04-25T09:45:35.997Z</time></trkpt><trkpt lat="44.7401433" lon="9.2967667"><ele>926.0</ele><time>2026-04-25T09:45:36.994Z</time></trkpt><trkpt lat="44.740095" lon="9.2969183"><ele>922.5</ele><time>2026-04-25T09:45:37.997Z</time></trkpt><trkpt lat="44.740045" lon="9.2970733"><ele>919.0</ele><time>2026-04-25T09:45:38.996Z</time></trkpt><trkpt lat="44.7399967" lon="9.297235"><ele>921.25</ele><time>2026-04-25T09:45:39.995Z</time></trkpt><trkpt lat="44.7399433" lon="9.2974033"><ele>923.5</ele><time>2026-04-25T09:45:40.995Z</time></trkpt><trkpt lat="44.739895" lon="9.2975767"><ele>925.75</ele><time>2026-04-25T09:45:41.994Z</time></trkpt><trkpt lat="44.739845" lon="9.2977383"><ele>928.0</ele><time>2026-04-25T09:45:42.997Z</time></trkpt><trkpt lat="44.7397717" lon="9.2979"><ele>928.0</ele><time>2026-04-25T09:45:43.992Z</time></trkpt><trkpt lat="44.7397133" lon="9.2980717"><ele>928.0</ele><time>2026-04-25T09:45:44.995Z</time></trkpt><trkpt lat="44.739665" lon="9.2982517"><ele>928.0</ele><time>2026-04-25T09:45:45.994Z</time></trkpt><trkpt lat="44.7396067" lon="9.298435"><ele>928.0</ele><time>2026-04-25T09:45:46.997Z</time></trkpt><trkpt lat="44.7395483" lon="9.29861"><ele>927.0</ele><time>2026-04-25T09:45:47.997Z</time></trkpt><trkpt lat="44.73949" lon="9.2987817"><ele>926.0</ele><time>2026-04-25T09:45:48.995Z</time></trkpt><trkpt lat="44.7394267" lon="9.2989433"><ele>925.0</ele><time>2026-04-25T09:45:49.995Z</time></trkpt><trkpt lat="44.7393617" lon="9.2990967"><ele>924.0</ele><time>2026-04-25T09:45:50.993Z</time></trkpt><trkpt lat="44.73929" lon="9.299245"><ele>924.0</ele><time>2026-04-25T09:45:51.994Z</time></trkpt><trkpt lat="44.73921" lon="9.2993933"><ele>924.0</ele><time>2026-04-25T09:45:52.996Z</time></trkpt><trkpt lat="44.7391267" lon="9.29954"><ele>924.0</ele><time>2026-04-25T09:45:53.994Z</time></trkpt><trkpt lat="44.7390417" lon="9.2996917"><ele>924.0</ele><time>2026-04-25T09:45:54.991Z</time></trkpt><trkpt lat="44.7389583" lon="9.29984"><ele>926.25</ele><time>2026-04-25T09:45:55.995Z</time></trkpt><trkpt lat="44.738875" lon="9.2999917"><ele>928.5</ele><time>2026-04-25T09:45:56.996Z</time></trkpt><trkpt lat="44.73879" lon="9.3001467"><ele>930.75</ele><time>2026-04-25T09:45:57.997Z</time></trkpt><trkpt lat="44.7387033" lon="9.3002967"><ele>933.0</ele><time>2026-04-25T09:45:59.003Z</time></trkpt><trkpt lat="44.7386217" lon="9.3004417"><ele>931.0</ele><time>2026-04-25T09:45:59.995Z</time></trkpt><trkpt lat="44.7385333" lon="9.30057"><ele>929.0</ele><time>2026-04-25T09:46:01Z</time></trkpt><trkpt lat="44.738435" lon="9.3006833"><ele>927.0</ele><time>2026-04-25T09:46:01.993Z</time></trkpt><trkpt lat="44.7383283" lon="9.3007867"><ele>925.0</ele><time>2026-04-25T09:46:02.995Z</time></trkpt><trkpt lat="44.7382217" lon="9.3008833"><ele>925.0</ele><time>2026-04-25T09:46:03.996Z</time></trkpt><trkpt lat="44.7381283" lon="9.3009833"><ele>925.0</ele><time>2026-04-25T09:46:04.994Z</time></trkpt><trkpt lat="44.738055" lon="9.3010967"><ele>925.0</ele><time>2026-04-25T09:46:05.997Z</time></trkpt><trkpt lat="44.7380167" lon="9.3012617"><ele>925.0</ele><time>2026-04-25T09:46:06.999Z</time></trkpt><trkpt lat="44.7379917" lon="9.30143"><ele>926.25</ele><time>2026-04-25T09:46:07.993Z</time></trkpt><trkpt lat="44.7379783" lon="9.301605"><ele>927.5</ele><time>2026-04-25T09:46:08.999Z</time></trkpt><trkpt lat="44.7379683" lon="9.3017733"><ele>928.75</ele><time>2026-04-25T09:46:10Z</time></trkpt><trkpt lat="44.737965" lon="9.30194"><ele>930.0</ele><time>2026-04-25T09:46:10.997Z</time></trkpt><trkpt lat="44.73796" lon="9.3021"><ele>930.2</ele><time>2026-04-25T09:46:11.995Z</time></trkpt><trkpt lat="44.7379717" lon="9.3022567"><ele>930.4</ele><time>2026-04-25T09:46:12.995Z</time></trkpt><trkpt lat="44.7380033" lon="9.3024033"><ele>930.5999999999999</ele><time>2026-04-25T09:46:13.993Z</time></trkpt><trkpt lat="44.7380567" lon="9.302545"><ele>930.8</ele><time>2026-04-25T09:46:14.995Z</time></trkpt><trkpt lat="44.73811" lon="9.30268"><ele>931.0</ele><time>2026-04-25T09:46:15.996Z</time></trkpt><trkpt lat="44.738165" lon="9.3028117"><ele>931.0</ele><time>2026-04-25T09:46:16.996Z</time></trkpt><trkpt lat="44.7382133" lon="9.3029433"><ele>930.9999999999999</ele><time>2026-04-25T09:46:17.999Z</time></trkpt><trkpt lat="44.7382467" lon="9.3030833"><ele>930.9999999999999</ele><time>2026-04-25T09:46:18.999Z</time></trkpt><trkpt lat="44.7382667" lon="9.3032383"><ele>931.0</ele><time>2026-04-25T09:46:19.998Z</time></trkpt><trkpt lat="44.738275" lon="9.3034067"><ele>931.0</ele><time>2026-04-25T09:46:20.993Z</time></trkpt><trkpt lat="44.73828" lon="9.30358"><ele>929.25</ele><time>2026-04-25T09:46:22.004Z</time></trkpt><trkpt lat="44.738275" lon="9.30377"><ele>927.5</ele><time>2026-04-25T09:46:22.997Z</time></trkpt><trkpt lat="44.7382567" lon="9.3039667"><ele>925.75</ele><time>2026-04-25T09:46:23.996Z</time></trkpt><trkpt lat="44.738225" lon="9.304165"><ele>924.0</ele><time>2026-04-25T09:46:24.996Z</time></trkpt><trkpt lat="44.73818" lon="9.3043733"><ele>924.0</ele><time>2026-04-25T09:46:25.998Z</time></trkpt><trkpt lat="44.7381333" lon="9.30458"><ele>924.0</ele><time>2026-04-25T09:46:26.999Z</time></trkpt><trkpt lat="44.7380883" lon="9.30479"><ele>924.0</ele><time>2026-04-25T09:46:27.998Z</time></trkpt><trkpt lat="44.7380367" lon="9.3049967"><ele>925.0</ele><time>2026-04-25T09:46:28.998Z</time></trkpt><trkpt lat="44.7379917" lon="9.305195"><ele>926.0</ele><time>2026-04-25T09:46:29.999Z</time></trkpt><trkpt lat="44.73796" lon="9.3053933"><ele>927.0</ele><time>2026-04-25T09:46:30.996Z</time></trkpt><trkpt lat="44.7379417" lon="9.3055867"><ele>928.0</ele><time>2026-04-25T09:46:32Z</time></trkpt><trkpt lat="44.7379383" lon="9.3057683"><ele>928.5999999999999</ele><time>2026-04-25T09:46:33.002Z</time></trkpt><trkpt lat="44.737945" lon="9.30594"><ele>929.1999999999999</ele><time>2026-04-25T09:46:33.994Z</time></trkpt><trkpt lat="44.73796" lon="9.3061"><ele>929.8</ele><time>2026-04-25T09:46:34.994Z</time></trkpt><trkpt lat="44.73797" lon="9.306245"><ele>930.4</ele><time>2026-04-25T09:46:35.999Z</time></trkpt><trkpt lat="44.7379617" lon="9.3063783"><ele>931.0</ele><time>2026-04-25T09:46:36.998Z</time></trkpt><trkpt lat="44.7379433" lon="9.30649"><ele>931.4</ele><time>2026-04-25T09:46:37.994Z</time></trkpt><trkpt lat="44.7379133" lon="9.3066067"><ele>931.8</ele><time>2026-04-25T09:46:38.996Z</time></trkpt><trkpt lat="44.7378733" lon="9.30671"><ele>932.1999999999999</ele><time>2026-04-25T09:46:39.998Z</time></trkpt><trkpt lat="44.7377967" lon="9.3068183"><ele>932.5999999999999</ele><time>2026-04-25T09:46:40.992Z</time></trkpt><trkpt lat="44.7377033" lon="9.306885"><ele>933.0</ele><time>2026-04-25T09:46:42Z</time></trkpt><trkpt lat="44.7375883" lon="9.306925"><ele>930.25</ele><time>2026-04-25T09:46:42.995Z</time></trkpt><trkpt lat="44.73747" lon="9.3069267"><ele>927.5</ele><time>2026-04-25T09:46:43.995Z</time></trkpt><trkpt lat="44.7373317" lon="9.3069117"><ele>924.75</ele><time>2026-04-25T09:46:44.994Z</time></trkpt><trkpt lat="44.7372083" lon="9.3069483"><ele>922.0</ele><time>2026-04-25T09:46:45.999Z</time></trkpt><trkpt lat="44.73708" lon="9.3069817"><ele>922.0</ele><time>2026-04-25T09:46:46.998Z</time></trkpt><trkpt lat="44.7369583" lon="9.307025"><ele>922.0</ele><time>2026-04-25T09:46:47.998Z</time></trkpt><trkpt lat="44.73684" lon="9.30708"><ele>922.0</ele><time>2026-04-25T09:46:48.997Z</time></trkpt><trkpt lat="44.7367167" lon="9.3071217"><ele>922.0</ele><time>2026-04-25T09:46:49.998Z</time></trkpt><trkpt lat="44.73657" lon="9.307125"><ele>923.0</ele><time>2026-04-25T09:46:51.006Z</time></trkpt><trkpt lat="44.73642" lon="9.307145"><ele>924.0</ele><time>2026-04-25T09:46:51.997Z</time></trkpt><trkpt lat="44.736295" lon="9.3071883"><ele>925.0</ele><time>2026-04-25T09:46:52.996Z</time></trkpt><trkpt lat="44.7361717" lon="9.30724"><ele>926.0</ele><time>2026-04-25T09:46:53.997Z</time></trkpt><trkpt lat="44.7360617" lon="9.307295"><ele>924.0</ele><time>2026-04-25T09:46:54.999Z</time></trkpt><trkpt lat="44.7359517" lon="9.3073617"><ele>922.0</ele><time>2026-04-25T09:46:55.994Z</time></trkpt><trkpt lat="44.7358483" lon="9.3074567"><ele>920.0</ele><time>2026-04-25T09:46:56.995Z</time></trkpt><trkpt lat="44.7357667" lon="9.307565"><ele>918.0</ele><time>2026-04-25T09:46:57.993Z</time></trkpt><trkpt lat="44.7357017" lon="9.307695"><ele>918.0</ele><time>2026-04-25T09:46:58.993Z</time></trkpt><trkpt lat="44.735655" lon="9.3078483"><ele>918.0</ele><time>2026-04-25T09:46:59.996Z</time></trkpt><trkpt lat="44.7356283" lon="9.308025"><ele>918.0</ele><time>2026-04-25T09:47:00.993Z</time></trkpt><trkpt lat="44.7356117" lon="9.3081833"><ele>918.0</ele><time>2026-04-25T09:47:01.994Z</time></trkpt><trkpt lat="44.7355817" lon="9.3083533"><ele>918.5</ele><time>2026-04-25T09:47:02.995Z</time></trkpt><trkpt lat="44.7355317" lon="9.308505"><ele>919.0</ele><time>2026-04-25T09:47:03.992Z</time></trkpt><trkpt lat="44.7354617" lon="9.30863"><ele>919.5</ele><time>2026-04-25T09:47:04.995Z</time></trkpt><trkpt lat="44.73536" lon="9.308735"><ele>920.0</ele><time>2026-04-25T09:47:05.996Z</time></trkpt><trkpt lat="44.7352533" lon="9.3088433"><ele>920.25</ele><time>2026-04-25T09:47:06.996Z</time></trkpt><trkpt lat="44.7351317" lon="9.3089367"><ele>920.5</ele><time>2026-04-25T09:47:07.998Z</time></trkpt><trkpt lat="44.7350183" lon="9.309035"><ele>920.75</ele><time>2026-04-25T09:47:08.996Z</time></trkpt><trkpt lat="44.73492" lon="9.3091383"><ele>921.0</ele><time>2026-04-25T09:47:09.996Z</time></trkpt><trkpt lat="44.7348417" lon="9.3092567"><ele>921.0</ele><time>2026-04-25T09:47:10.995Z</time></trkpt><trkpt lat="44.7347867" lon="9.3093933"><ele>921.0</ele><time>2026-04-25T09:47:11.995Z</time></trkpt><trkpt lat="44.73475" lon="9.3095483"><ele>921.0</ele><time>2026-04-25T09:47:12.997Z</time></trkpt><trkpt lat="44.7347417" lon="9.3097283"><ele>921.0</ele><time>2026-04-25T09:47:13.996Z</time></trkpt><trkpt lat="44.7347433" lon="9.3099017"><ele>920.8</ele><time>2026-04-25T09:47:14.995Z</time></trkpt><trkpt lat="44.7347367" lon="9.3100683"><ele>920.5999999999999</ele><time>2026-04-25T09:47:15.997Z</time></trkpt><trkpt lat="44.7347117" lon="9.3102183"><ele>920.4</ele><time>2026-04-25T09:47:16.995Z</time></trkpt><trkpt lat="44.7346567" lon="9.3103317"><ele>920.2</ele><time>2026-04-25T09:47:17.999Z</time></trkpt><trkpt lat="44.734595" lon="9.3104517"><ele>920.0</ele><time>2026-04-25T09:47:18.995Z</time></trkpt><trkpt lat="44.7344817" lon="9.31053"><ele>919.6</ele><time>2026-04-25T09:47:19.994Z</time></trkpt><trkpt lat="44.7343833" lon="9.310615"><ele>919.2</ele><time>2026-04-25T09:47:20.995Z</time></trkpt><trkpt lat="44.7342917" lon="9.31068"><ele>918.8</ele><time>2026-04-25T09:47:21.997Z</time></trkpt><trkpt lat="44.7341933" lon="9.31071"><ele>918.4</ele><time>2026-04-25T09:47:22.995Z</time></trkpt><trkpt lat="44.7340833" lon="9.3107"><ele>918.0</ele><time>2026-04-25T09:47:23.995Z</time></trkpt><trkpt lat="44.7339833" lon="9.31055"><ele>916.75</ele><time>2026-04-25T09:47:24.994Z</time></trkpt><trkpt lat="44.7339017" lon="9.310415"><ele>915.5</ele><time>2026-04-25T09:47:25.995Z</time></trkpt><trkpt lat="44.733825" lon="9.3102867"><ele>914.25</ele><time>2026-04-25T09:47:26.997Z</time></trkpt><trkpt lat="44.73374" lon="9.3101967"><ele>913.0</ele><time>2026-04-25T09:47:27.995Z</time></trkpt><trkpt lat="44.73364" lon="9.3101433"><ele>913.0</ele><time>2026-04-25T09:47:28.997Z</time></trkpt><trkpt lat="44.73354" lon="9.3101183"><ele>913.0</ele><time>2026-04-25T09:47:29.999Z</time></trkpt><trkpt lat="44.7334217" lon="9.3101217"><ele>913.0</ele><time>2026-04-25T09:47:30.996Z</time></trkpt><trkpt lat="44.73329" lon="9.3101633"><ele>913.0</ele><time>2026-04-25T09:47:31.995Z</time></trkpt><trkpt lat="44.7331567" lon="9.3102317"><ele>913.0</ele><time>2026-04-25T09:47:32.997Z</time></trkpt><trkpt lat="44.73302" lon="9.3103133"><ele>913.0</ele><time>2026-04-25T09:47:33.996Z</time></trkpt><trkpt lat="44.732875" lon="9.310385"><ele>913.0</ele><time>2026-04-25T09:47:34.994Z</time></trkpt><trkpt lat="44.7327283" lon="9.3104483"><ele>913.0</ele><time>2026-04-25T09:47:35.995Z</time></trkpt><trkpt lat="44.73259" lon="9.3105017"><ele>913.0</ele><time>2026-04-25T09:47:36.994Z</time></trkpt><trkpt lat="44.7324517" lon="9.3105217"><ele>913.0</ele><time>2026-04-25T09:47:37.995Z</time></trkpt><trkpt lat="44.732315" lon="9.31051"><ele>913.0</ele><time>2026-04-25T09:47:38.995Z</time></trkpt><trkpt lat="44.7321783" lon="9.3104867"><ele>913.0</ele><time>2026-04-25T09:47:39.995Z</time></trkpt><trkpt lat="44.7320383" lon="9.3104617"><ele>913.0</ele><time>2026-04-25T09:47:40.992Z</time></trkpt><trkpt lat="44.7318983" lon="9.3104333"><ele>913.0</ele><time>2026-04-25T09:47:41.994Z</time></trkpt><trkpt lat="44.731755" lon="9.310405"><ele>913.0</ele><time>2026-04-25T09:47:42.994Z</time></trkpt><trkpt lat="44.7316033" lon="9.31038"><ele>912.3333333333333</ele><time>2026-04-25T09:47:43.992Z</time></trkpt><trkpt lat="44.7314517" lon="9.31035"><ele>911.6666666666667</ele><time>2026-04-25T09:47:44.994Z</time></trkpt><trkpt lat="44.7312967" lon="9.310315"><ele>911.0</ele><time>2026-04-25T09:47:46Z</time></trkpt><trkpt lat="44.7311367" lon="9.3102833"><ele>912.0</ele><time>2026-04-25T09:47:46.998Z</time></trkpt><trkpt lat="44.730975" lon="9.310245"><ele>913.0</ele><time>2026-04-25T09:47:47.992Z</time></trkpt><trkpt lat="44.7308167" lon="9.3102167"><ele>914.0</ele><time>2026-04-25T09:47:48.998Z</time></trkpt><trkpt lat="44.7306567" lon="9.3101933"><ele>914.0</ele><time>2026-04-25T09:47:49.993Z</time></trkpt><trkpt lat="44.730495" lon="9.310165"><ele>914.0</ele><time>2026-04-25T09:47:50.997Z</time></trkpt><trkpt lat="44.7303333" lon="9.3101317"><ele>914.0</ele><time>2026-04-25T09:47:51.997Z</time></trkpt><trkpt lat="44.7301733" lon="9.3100933"><ele>912.3333333333334</ele><time>2026-04-25T09:47:53.003Z</time></trkpt><trkpt lat="44.7300167" lon="9.310055"><ele>910.6666666666667</ele><time>2026-04-25T09:47:53.996Z</time></trkpt><trkpt lat="44.7298683" lon="9.3100067"><ele>909.0</ele><time>2026-04-25T09:47:55.001Z</time></trkpt><trkpt lat="44.7297317" lon="9.3099533"><ele>909.0</ele><time>2026-04-25T09:47:55.994Z</time></trkpt><trkpt lat="44.7296017" lon="9.309885"><ele>909.0</ele><time>2026-04-25T09:47:56.997Z</time></trkpt><trkpt lat="44.7294733" lon="9.3097933"><ele>909.0</ele><time>2026-04-25T09:47:57.992Z</time></trkpt><trkpt lat="44.7293533" lon="9.3096933"><ele>909.0</ele><time>2026-04-25T09:47:58.994Z</time></trkpt><trkpt lat="44.729235" lon="9.3095933"><ele>907.5</ele><time>2026-04-25T09:47:59.997Z</time></trkpt><trkpt lat="44.72911" lon="9.309515"><ele>906.0</ele><time>2026-04-25T09:48:00.997Z</time></trkpt><trkpt lat="44.7289783" lon="9.30945"><ele>904.5</ele><time>2026-04-25T09:48:01.992Z</time></trkpt><trkpt lat="44.728845" lon="9.309395"><ele>903.0</ele><time>2026-04-25T09:48:02.998Z</time></trkpt><trkpt lat="44.7287183" lon="9.3093333"><ele>903.0</ele><time>2026-04-25T09:48:03.995Z</time></trkpt><trkpt lat="44.72859" lon="9.3092667"><ele>903.0</ele><time>2026-04-25T09:48:04.999Z</time></trkpt><trkpt lat="44.7284633" lon="9.3091983"><ele>903.0</ele><time>2026-04-25T09:48:05.994Z</time></trkpt><trkpt lat="44.7283383" lon="9.3091283"><ele>903.0</ele><time>2026-04-25T09:48:06.994Z</time></trkpt><trkpt lat="44.728215" lon="9.3090567"><ele>902.75</ele><time>2026-04-25T09:48:07.994Z</time></trkpt><trkpt lat="44.7280983" lon="9.3089817"><ele>902.5</ele><time>2026-04-25T09:48:08.996Z</time></trkpt><trkpt lat="44.72798" lon="9.3089133"><ele>902.25</ele><time>2026-04-25T09:48:09.996Z</time></trkpt><trkpt lat="44.72786" lon="9.3088417"><ele>902.0</ele><time>2026-04-25T09:48:10.995Z</time></trkpt><trkpt lat="44.7277483" lon="9.3087717"><ele>899.75</ele><time>2026-04-25T09:48:11.999Z</time></trkpt><trkpt lat="44.7276367" lon="9.3087133"><ele>897.5</ele><time>2026-04-25T09:48:12.994Z</time></trkpt><trkpt lat="44.7275267" lon="9.3086733"><ele>895.25</ele><time>2026-04-25T09:48:13.995Z</time></trkpt><trkpt lat="44.7274133" lon="9.3086633"><ele>893.0</ele><time>2026-04-25T09:48:14.994Z</time></trkpt><trkpt lat="44.7273083" lon="9.308665"><ele>893.0</ele><time>2026-04-25T09:48:16.005Z</time></trkpt><trkpt lat="44.7271983" lon="9.3086733"><ele>893.0</ele><time>2026-04-25T09:48:16.991Z</time></trkpt><trkpt lat="44.7270867" lon="9.3086867"><ele>893.0</ele><time>2026-04-25T09:48:17.994Z</time></trkpt><trkpt lat="44.7269733" lon="9.308705"><ele>893.0</ele><time>2026-04-25T09:48:18.992Z</time></trkpt><trkpt lat="44.7268617" lon="9.30872"><ele>893.0</ele><time>2026-04-25T09:48:19.999Z</time></trkpt><trkpt lat="44.7267533" lon="9.3087567"><ele>892.2</ele><time>2026-04-25T09:48:20.994Z</time></trkpt><trkpt lat="44.7266517" lon="9.30882"><ele>891.4</ele><time>2026-04-25T09:48:21.997Z</time></trkpt><trkpt lat="44.726565" lon="9.3089167"><ele>890.6000000000001</ele><time>2026-04-25T09:48:22.999Z</time></trkpt><trkpt lat="44.72649" lon="9.3090267"><ele>889.8000000000001</ele><time>2026-04-25T09:48:23.997Z</time></trkpt><trkpt lat="44.7264117" lon="9.3091217"><ele>889.0</ele><time>2026-04-25T09:48:24.998Z</time></trkpt><trkpt lat="44.7263317" lon="9.30921"><ele>889.75</ele><time>2026-04-25T09:48:25.997Z</time></trkpt><trkpt lat="44.72621" lon="9.3092717"><ele>890.5</ele><time>2026-04-25T09:48:26.994Z</time></trkpt><trkpt lat="44.7261067" lon="9.30932"><ele>891.25</ele><time>2026-04-25T09:48:27.995Z</time></trkpt><trkpt lat="44.7259967" lon="9.30935"><ele>892.0</ele><time>2026-04-25T09:48:28.995Z</time></trkpt><trkpt lat="44.72588" lon="9.3093567"><ele>892.0</ele><time>2026-04-25T09:48:29.996Z</time></trkpt><trkpt lat="44.72576" lon="9.309355"><ele>892.0</ele><time>2026-04-25T09:48:30.999Z</time></trkpt><trkpt lat="44.7256367" lon="9.309365"><ele>892.0</ele><time>2026-04-25T09:48:31.997Z</time></trkpt><trkpt lat="44.7255183" lon="9.3093933"><ele>892.0</ele><time>2026-04-25T09:48:32.997Z</time></trkpt><trkpt lat="44.7254033" lon="9.3094467"><ele>892.0</ele><time>2026-04-25T09:48:33.997Z</time></trkpt><trkpt lat="44.7252917" lon="9.3095267"><ele>892.0</ele><time>2026-04-25T09:48:34.994Z</time></trkpt><trkpt lat="44.7251817" lon="9.3096167"><ele>892.0</ele><time>2026-04-25T09:48:35.993Z</time></trkpt><trkpt lat="44.7250717" lon="9.30971"><ele>892.0</ele><time>2026-04-25T09:48:37Z</time></trkpt><trkpt lat="44.724965" lon="9.3098033"><ele>892.75</ele><time>2026-04-25T09:48:37.994Z</time></trkpt><trkpt lat="44.7248617" lon="9.3098933"><ele>893.5</ele><time>2026-04-25T09:48:38.996Z</time></trkpt><trkpt lat="44.7247567" lon="9.3099783"><ele>894.25</ele><time>2026-04-25T09:48:39.997Z</time></trkpt><trkpt lat="44.7246517" lon="9.31003"><ele>895.0</ele><time>2026-04-25T09:48:40.996Z</time></trkpt><trkpt lat="44.7245417" lon="9.310035"><ele>895.0</ele><time>2026-04-25T09:48:41.994Z</time></trkpt><trkpt lat="44.7244367" lon="9.3099917"><ele>895.0</ele><time>2026-04-25T09:48:42.995Z</time></trkpt><trkpt lat="44.7243467" lon="9.3099167"><ele>895.0</ele><time>2026-04-25T09:48:43.996Z</time></trkpt><trkpt lat="44.724255" lon="9.3098233"><ele>895.0</ele><time>2026-04-25T09:48:44.999Z</time></trkpt><trkpt lat="44.7241617" lon="9.3097333"><ele>895.0</ele><time>2026-04-25T09:48:45.993Z</time></trkpt><trkpt lat="44.7240667" lon="9.309655"><ele>891.25</ele><time>2026-04-25T09:48:46.995Z</time></trkpt><trkpt lat="44.7239583" lon="9.3096033"><ele>887.5</ele><time>2026-04-25T09:48:47.997Z</time></trkpt><trkpt lat="44.72384" lon="9.3095833"><ele>883.75</ele><time>2026-04-25T09:48:48.994Z</time></trkpt><trkpt lat="44.72372" lon="9.3095967"><ele>880.0</ele><time>2026-04-25T09:48:49.991Z</time></trkpt><trkpt lat="44.7236" lon="9.30962"><ele>878.8</ele><time>2026-04-25T09:48:50.992Z</time></trkpt><trkpt lat="44.7234833" lon="9.309655"><ele>877.6</ele><time>2026-04-25T09:48:52.003Z</time></trkpt><trkpt lat="44.7233767" lon="9.3096767"><ele>876.4000000000001</ele><time>2026-04-25T09:48:52.996Z</time></trkpt><trkpt lat="44.7232883" lon="9.3096833"><ele>875.2</ele><time>2026-04-25T09:48:53.994Z</time></trkpt><trkpt lat="44.7232017" lon="9.3096633"><ele>874.0</ele><time>2026-04-25T09:48:54.998Z</time></trkpt><trkpt lat="44.7231283" lon="9.3095983"><ele>874.0</ele><time>2026-04-25T09:48:55.997Z</time></trkpt><trkpt lat="44.72309" lon="9.3094717"><ele>874.0000000000001</ele><time>2026-04-25T09:48:56.996Z</time></trkpt><trkpt lat="44.7230633" lon="9.3093283"><ele>874.0000000000001</ele><time>2026-04-25T09:48:57.993Z</time></trkpt><trkpt lat="44.723045" lon="9.3091817"><ele>874.0</ele><time>2026-04-25T09:48:58.996Z</time></trkpt><trkpt lat="44.72302" lon="9.3090433"><ele>874.0</ele><time>2026-04-25T09:48:59.997Z</time></trkpt><trkpt lat="44.72297" lon="9.3089233"><ele>874.8333333333333</ele><time>2026-04-25T09:49:00.997Z</time></trkpt><trkpt lat="44.7229017" lon="9.3088333"><ele>875.6666666666666</ele><time>2026-04-25T09:49:01.997Z</time></trkpt><trkpt lat="44.7228167" lon="9.3087717"><ele>876.5</ele><time>2026-04-25T09:49:02.996Z</time></trkpt><trkpt lat="44.7227317" lon="9.30873"><ele>877.3333333333333</ele><time>2026-04-25T09:49:03.995Z</time></trkpt><trkpt lat="44.7226533" lon="9.3086833"><ele>878.1666666666666</ele><time>2026-04-25T09:49:04.995Z</time></trkpt><trkpt lat="44.72259" lon="9.3086117"><ele>879.0</ele><time>2026-04-25T09:49:05.995Z</time></trkpt><trkpt lat="44.722565" lon="9.30847"><ele>879.0</ele><time>2026-04-25T09:49:06.997Z</time></trkpt><trkpt lat="44.7225617" lon="9.3083117"><ele>879.0</ele><time>2026-04-25T09:49:07.996Z</time></trkpt><trkpt lat="44.7225717" lon="9.3081267"><ele>879.0</ele><time>2026-04-25T09:49:08.995Z</time></trkpt><trkpt lat="44.7225833" lon="9.3079433"><ele>879.0</ele><time>2026-04-25T09:49:09.997Z</time></trkpt><trkpt lat="44.7225917" lon="9.30776"><ele>878.0</ele><time>2026-04-25T09:49:10.992Z</time></trkpt><trkpt lat="44.722595" lon="9.307575"><ele>877.0</ele><time>2026-04-25T09:49:11.996Z</time></trkpt><trkpt lat="44.7226" lon="9.3073933"><ele>876.0</ele><time>2026-04-25T09:49:12.992Z</time></trkpt><trkpt lat="44.7226033" lon="9.3072167"><ele>875.0</ele><time>2026-04-25T09:49:13.995Z</time></trkpt><trkpt lat="44.7226067" lon="9.307045"><ele>872.25</ele><time>2026-04-25T09:49:14.994Z</time></trkpt><trkpt lat="44.72261" lon="9.3068667"><ele>869.5</ele><time>2026-04-25T09:49:15.998Z</time></trkpt><trkpt lat="44.7225883" lon="9.3066967"><ele>866.75</ele><time>2026-04-25T09:49:16.992Z</time></trkpt><trkpt lat="44.7225467" lon="9.3065367"><ele>864.0</ele><time>2026-04-25T09:49:17.995Z</time></trkpt><trkpt lat="44.7224933" lon="9.306385"><ele>861.2</ele><time>2026-04-25T09:49:18.995Z</time></trkpt><trkpt lat="44.7224417" lon="9.3062467"><ele>858.4000000000001</ele><time>2026-04-25T09:49:19.998Z</time></trkpt><trkpt lat="44.7223817" lon="9.3061283"><ele>855.6</ele><time>2026-04-25T09:49:20.996Z</time></trkpt><trkpt lat="44.7223033" lon="9.306035"><ele>852.8</ele><time>2026-04-25T09:49:21.997Z</time></trkpt><trkpt lat="44.7222017" lon="9.30597"><ele>850.0</ele><time>2026-04-25T09:49:22.995Z</time></trkpt><trkpt lat="44.72209" lon="9.305925"><ele>850.0</ele><time>2026-04-25T09:49:23.997Z</time></trkpt><trkpt lat="44.7219683" lon="9.305885"><ele>850.0</ele><time>2026-04-25T09:49:24.993Z</time></trkpt><trkpt lat="44.7218583" lon="9.30585"><ele>850.0</ele><time>2026-04-25T09:49:25.995Z</time></trkpt><trkpt lat="44.721755" lon="9.3058417"><ele>850.0</ele><time>2026-04-25T09:49:26.993Z</time></trkpt><trkpt lat="44.7216583" lon="9.3058533"><ele>850.0</ele><time>2026-04-25T09:49:27.998Z</time></trkpt><trkpt lat="44.7215733" lon="9.3058967"><ele>850.2</ele><time>2026-04-25T09:49:28.994Z</time></trkpt><trkpt lat="44.72149" lon="9.3059567"><ele>850.4</ele><time>2026-04-25T09:49:29.993Z</time></trkpt><trkpt lat="44.72142" lon="9.3060317"><ele>850.5999999999999</ele><time>2026-04-25T09:49:30.996Z</time></trkpt><trkpt lat="44.7213583" lon="9.30613"><ele>850.8</ele><time>2026-04-25T09:49:31.997Z</time></trkpt><trkpt lat="44.7212917" lon="9.3062417"><ele>851.0</ele><time>2026-04-25T09:49:33.002Z</time></trkpt><trkpt lat="44.7212117" lon="9.3063433"><ele>850.0</ele><time>2026-04-25T09:49:33.993Z</time></trkpt><trkpt lat="44.7211267" lon="9.3064333"><ele>849.0</ele><time>2026-04-25T09:49:34.996Z</time></trkpt><trkpt lat="44.7210317" lon="9.3065183"><ele>848.0</ele><time>2026-04-25T09:49:35.995Z</time></trkpt><trkpt lat="44.720935" lon="9.3066067"><ele>847.0</ele><time>2026-04-25T09:49:36.997Z</time></trkpt><trkpt lat="44.7208367" lon="9.30668"><ele>846.0</ele><time>2026-04-25T09:49:37.995Z</time></trkpt><trkpt lat="44.72075" lon="9.3067633"><ele>846.0</ele><time>2026-04-25T09:49:38.996Z</time></trkpt><trkpt lat="44.7206633" lon="9.3068383"><ele>846.0</ele><time>2026-04-25T09:49:39.995Z</time></trkpt><trkpt lat="44.7205733" lon="9.3069083"><ele>846.0</ele><time>2026-04-25T09:49:40.996Z</time></trkpt><trkpt lat="44.72049" lon="9.3069767"><ele>846.0</ele><time>2026-04-25T09:49:41.992Z</time></trkpt><trkpt lat="44.7204117" lon="9.307015"><ele>846.0</ele><time>2026-04-25T09:49:42.996Z</time></trkpt><trkpt lat="44.72033" lon="9.3070467"><ele>846.0</ele><time>2026-04-25T09:49:43.994Z</time></trkpt><trkpt lat="44.72025" lon="9.307065"><ele>846.0</ele><time>2026-04-25T09:49:44.997Z</time></trkpt><trkpt lat="44.7201817" lon="9.307055"><ele>846.0</ele><time>2026-04-25T09:49:45.992Z</time></trkpt><trkpt lat="44.7201117" lon="9.3070133"><ele>846.0</ele><time>2026-04-25T09:49:46.995Z</time></trkpt><trkpt lat="44.7200583" lon="9.3069067"><ele>846.0</ele><time>2026-04-25T09:49:47.996Z</time></trkpt><trkpt lat="44.720025" lon="9.3067433"><ele>846.0</ele><time>2026-04-25T09:49:48.997Z</time></trkpt><trkpt lat="44.7199683" lon="9.3065233"><ele>842.5</ele><time>2026-04-25T09:49:50.004Z</time></trkpt><trkpt lat="44.7198617" lon="9.3063833"><ele>839.0</ele><time>2026-04-25T09:49:50.992Z</time></trkpt><trkpt lat="44.7197867" lon="9.3062583"><ele>835.5</ele><time>2026-04-25T09:49:51.996Z</time></trkpt><trkpt lat="44.7197083" lon="9.3061467"><ele>832.0</ele><time>2026-04-25T09:49:52.992Z</time></trkpt><trkpt lat="44.7196383" lon="9.3060283"><ele>832.0</ele><time>2026-04-25T09:49:53.992Z</time></trkpt><trkpt lat="44.7195667" lon="9.30593"><ele>832.0</ele><time>2026-04-25T09:49:54.996Z</time></trkpt><trkpt lat="44.7195033" lon="9.3058"><ele>832.0</ele><time>2026-04-25T09:49:55.999Z</time></trkpt><trkpt lat="44.7194483" lon="9.3056733"><ele>832.0</ele><time>2026-04-25T09:49:56.995Z</time></trkpt><trkpt lat="44.7194283" lon="9.30553"><ele>832.0</ele><time>2026-04-25T09:49:57.997Z</time></trkpt><trkpt lat="44.719455" lon="9.3053583"><ele>828.0</ele><time>2026-04-25T09:49:58.996Z</time></trkpt><trkpt lat="44.7194917" lon="9.3051633"><ele>824.0</ele><time>2026-04-25T09:49:59.992Z</time></trkpt><trkpt lat="44.7195117" lon="9.304965"><ele>820.0</ele><time>2026-04-25T09:50:00.993Z</time></trkpt><trkpt lat="44.7195283" lon="9.3047783"><ele>816.0</ele><time>2026-04-25T09:50:01.993Z</time></trkpt><trkpt lat="44.7195317" lon="9.3046117"><ele>813.8</ele><time>2026-04-25T09:50:02.992Z</time></trkpt><trkpt lat="44.7195567" lon="9.30445"><ele>811.5999999999999</ele><time>2026-04-25T09:50:03.996Z</time></trkpt><trkpt lat="44.7195167" lon="9.3043117"><ele>809.4</ele><time>2026-04-25T09:50:04.993Z</time></trkpt><trkpt lat="44.7194583" lon="9.3041867"><ele>807.2</ele><time>2026-04-25T09:50:05.997Z</time></trkpt><trkpt lat="44.7193917" lon="9.3040733"><ele>805.0</ele><time>2026-04-25T09:50:06.997Z</time></trkpt><trkpt lat="44.71931" lon="9.3039733"><ele>807.25</ele><time>2026-04-25T09:50:07.996Z</time></trkpt><trkpt lat="44.7192133" lon="9.3038817"><ele>809.5</ele><time>2026-04-25T09:50:08.997Z</time></trkpt><trkpt lat="44.719095" lon="9.3038"><ele>811.75</ele><time>2026-04-25T09:50:09.995Z</time></trkpt><trkpt lat="44.718985" lon="9.3037267"><ele>814.0</ele><time>2026-04-25T09:50:10.993Z</time></trkpt><trkpt lat="44.7188633" lon="9.3036883"><ele>814.0</ele><time>2026-04-25T09:50:11.997Z</time></trkpt><trkpt lat="44.718745" lon="9.303665"><ele>814.0</ele><time>2026-04-25T09:50:12.998Z</time></trkpt><trkpt lat="44.7186067" lon="9.3036767"><ele>814.0</ele><time>2026-04-25T09:50:13.999Z</time></trkpt><trkpt lat="44.7184667" lon="9.303695"><ele>814.0</ele><time>2026-04-25T09:50:14.998Z</time></trkpt><trkpt lat="44.7183217" lon="9.3037167"><ele>813.25</ele><time>2026-04-25T09:50:15.996Z</time></trkpt><trkpt lat="44.718185" lon="9.303745"><ele>812.5</ele><time>2026-04-25T09:50:16.994Z</time></trkpt><trkpt lat="44.71806" lon="9.3037667"><ele>811.75</ele><time>2026-04-25T09:50:17.992Z</time></trkpt><trkpt lat="44.7179467" lon="9.3037817"><ele>811.0</ele><time>2026-04-25T09:50:18.997Z</time></trkpt><trkpt lat="44.71783" lon="9.3037683"><ele>810.5999999999999</ele><time>2026-04-25T09:50:19.995Z</time></trkpt><trkpt lat="44.7177233" lon="9.3037317"><ele>810.2</ele><time>2026-04-25T09:50:20.995Z</time></trkpt><trkpt lat="44.7176367" lon="9.3036633"><ele>809.8</ele><time>2026-04-25T09:50:21.995Z</time></trkpt><trkpt lat="44.7175567" lon="9.3035567"><ele>809.4000000000001</ele><time>2026-04-25T09:50:23.004Z</time></trkpt><trkpt lat="44.7174733" lon="9.30346"><ele>809.0</ele><time>2026-04-25T09:50:23.995Z</time></trkpt><trkpt lat="44.71738" lon="9.3033667"><ele>809.0</ele><time>2026-04-25T09:50:24.996Z</time></trkpt><trkpt lat="44.7172683" lon="9.3032983"><ele>809.0</ele><time>2026-04-25T09:50:25.996Z</time></trkpt><trkpt lat="44.7171517" lon="9.3032667"><ele>809.0</ele><time>2026-04-25T09:50:26.993Z</time></trkpt><trkpt lat="44.7170433" lon="9.3032617"><ele>809.0</ele><time>2026-04-25T09:50:28Z</time></trkpt><trkpt lat="44.71694" lon="9.3032917"><ele>806.2</ele><time>2026-04-25T09:50:28.992Z</time></trkpt><trkpt lat="44.7168517" lon="9.3033633"><ele>803.4000000000001</ele><time>2026-04-25T09:50:29.998Z</time></trkpt><trkpt lat="44.7167783" lon="9.3034517"><ele>800.6</ele><time>2026-04-25T09:50:30.998Z</time></trkpt><trkpt lat="44.716725" lon="9.3035717"><ele>797.8</ele><time>2026-04-25T09:50:31.995Z</time></trkpt><trkpt lat="44.7166933" lon="9.3037167"><ele>795.0</ele><time>2026-04-25T09:50:32.996Z</time></trkpt><trkpt lat="44.7166533" lon="9.303865"><ele>799.5</ele><time>2026-04-25T09:50:33.995Z</time></trkpt><trkpt lat="44.7166017" lon="9.3040117"><ele>804.0</ele><time>2026-04-25T09:50:34.996Z</time></trkpt><trkpt lat="44.7165333" lon="9.3041467"><ele>808.5</ele><time>2026-04-25T09:50:36.002Z</time></trkpt><trkpt lat="44.716455" lon="9.3042683"><ele>813.0</ele><time>2026-04-25T09:50:36.996Z</time></trkpt><trkpt lat="44.7163767" lon="9.304375"><ele>813.0</ele><time>2026-04-25T09:50:37.992Z</time></trkpt><trkpt lat="44.716305" lon="9.30448"><ele>813.0</ele><time>2026-04-25T09:50:38.995Z</time></trkpt><trkpt lat="44.7162433" lon="9.3045967"><ele>813.0</ele><time>2026-04-25T09:50:39.997Z</time></trkpt><trkpt lat="44.7161967" lon="9.3047133"><ele>813.0</ele><time>2026-04-25T09:50:40.997Z</time></trkpt><trkpt lat="44.71617" lon="9.3048333"><ele>813.0</ele><time>2026-04-25T09:50:41.996Z</time></trkpt><trkpt lat="44.7161333" lon="9.3049433"><ele>811.4</ele><time>2026-04-25T09:50:42.996Z</time></trkpt><trkpt lat="44.7160883" lon="9.3050567"><ele>809.8</ele><time>2026-04-25T09:50:43.993Z</time></trkpt><trkpt lat="44.716025" lon="9.3051517"><ele>808.2</ele><time>2026-04-25T09:50:44.995Z</time></trkpt><trkpt lat="44.715915" lon="9.3051817"><ele>806.6</ele><time>2026-04-25T09:50:45.996Z</time></trkpt><trkpt lat="44.7158017" lon="9.305185"><ele>805.0</ele><time>2026-04-25T09:50:46.996Z</time></trkpt><trkpt lat="44.71568" lon="9.3051867"><ele>805.0</ele><time>2026-04-25T09:50:48.003Z</time></trkpt><trkpt lat="44.715565" lon="9.3051883"><ele>805.0</ele><time>2026-04-25T09:50:48.999Z</time></trkpt><trkpt lat="44.7154583" lon="9.3051833"><ele>805.0</ele><time>2026-04-25T09:50:49.992Z</time></trkpt><trkpt lat="44.7153517" lon="9.3051783"><ele>805.0</ele><time>2026-04-25T09:50:50.992Z</time></trkpt><trkpt lat="44.7152467" lon="9.3051583"><ele>805.0</ele><time>2026-04-25T09:50:51.995Z</time></trkpt><trkpt lat="44.7151433" lon="9.3051067"><ele>803.25</ele><time>2026-04-25T09:50:52.996Z</time></trkpt><trkpt lat="44.71505" lon="9.3050167"><ele>801.5</ele><time>2026-04-25T09:50:53.995Z</time></trkpt><trkpt lat="44.714965" lon="9.304915"><ele>799.75</ele><time>2026-04-25T09:50:54.996Z</time></trkpt><trkpt lat="44.7148917" lon="9.3048033"><ele>798.0</ele><time>2026-04-25T09:50:55.999Z</time></trkpt><trkpt lat="44.7148217" lon="9.3046667"><ele>798.0</ele><time>2026-04-25T09:50:56.996Z</time></trkpt><trkpt lat="44.7147667" lon="9.304515"><ele>798.0</ele><time>2026-04-25T09:50:57.995Z</time></trkpt><trkpt lat="44.7147283" lon="9.3043517"><ele>798.0</ele><time>2026-04-25T09:50:58.998Z</time></trkpt><trkpt lat="44.7146933" lon="9.30419"><ele>798.0</ele><time>2026-04-25T09:50:59.998Z</time></trkpt><trkpt lat="44.7146667" lon="9.30403"><ele>798.2</ele><time>2026-04-25T09:51:00.999Z</time></trkpt><trkpt lat="44.714645" lon="9.30387"><ele>798.4</ele><time>2026-04-25T09:51:01.996Z</time></trkpt><trkpt lat="44.7145983" lon="9.3037333"><ele>798.6</ele><time>2026-04-25T09:51:02.998Z</time></trkpt><trkpt lat="44.7145433" lon="9.30361"><ele>798.8000000000001</ele><time>2026-04-25T09:51:03.997Z</time></trkpt><trkpt lat="44.7144533" lon="9.303505"><ele>799.0</ele><time>2026-04-25T09:51:04.993Z</time></trkpt><trkpt lat="44.7143533" lon="9.3034267"><ele>799.0</ele><time>2026-04-25T09:51:05.994Z</time></trkpt><trkpt lat="44.7142517" lon="9.3033783"><ele>799.0</ele><time>2026-04-25T09:51:06.998Z</time></trkpt><trkpt lat="44.714145" lon="9.3033533"><ele>799.0</ele><time>2026-04-25T09:51:07.991Z</time></trkpt><trkpt lat="44.71404" lon="9.3033767"><ele>799.0</ele><time>2026-04-25T09:51:08.999Z</time></trkpt><trkpt lat="44.7139483" lon="9.3034467"><ele>799.0</ele><time>2026-04-25T09:51:09.995Z</time></trkpt><trkpt lat="44.7138633" lon="9.30355"><ele>799.0</ele><time>2026-04-25T09:51:10.993Z</time></trkpt><trkpt lat="44.7137917" lon="9.30368"><ele>799.0</ele><time>2026-04-25T09:51:11.992Z</time></trkpt><trkpt lat="44.7137217" lon="9.30382"><ele>799.0</ele><time>2026-04-25T09:51:12.995Z</time></trkpt><trkpt lat="44.7136467" lon="9.3039533"><ele>799.0</ele><time>2026-04-25T09:51:13.996Z</time></trkpt><trkpt lat="44.7135633" lon="9.3040717"><ele>798.5</ele><time>2026-04-25T09:51:14.994Z</time></trkpt><trkpt lat="44.7134733" lon="9.3041717"><ele>798.0</ele><time>2026-04-25T09:51:16Z</time></trkpt><trkpt lat="44.7133717" lon="9.3042533"><ele>797.5</ele><time>2026-04-25T09:51:16.997Z</time></trkpt><trkpt lat="44.71326" lon="9.3043267"><ele>797.0</ele><time>2026-04-25T09:51:17.997Z</time></trkpt><trkpt lat="44.7131433" lon="9.3044033"><ele>797.0</ele><time>2026-04-25T09:51:19Z</time></trkpt><trkpt lat="44.71303" lon="9.30448"><ele>797.0</ele><time>2026-04-25T09:51:20Z</time></trkpt><trkpt lat="44.7129333" lon="9.3045517"><ele>797.0</ele><time>2026-04-25T09:51:20.999Z</time></trkpt><trkpt lat="44.7128367" lon="9.30462"><ele>797.0</ele><time>2026-04-25T09:51:21.992Z</time></trkpt><trkpt lat="44.7127417" lon="9.3045967"><ele>797.0</ele><time>2026-04-25T09:51:22.998Z</time></trkpt><trkpt lat="44.71266" lon="9.3045217"><ele>796.0</ele><time>2026-04-25T09:51:23.996Z</time></trkpt><trkpt lat="44.7125983" lon="9.30443"><ele>795.0</ele><time>2026-04-25T09:51:24.998Z</time></trkpt><trkpt lat="44.7125383" lon="9.3043283"><ele>794.0</ele><time>2026-04-25T09:51:25.995Z</time></trkpt><trkpt lat="44.712505" lon="9.3042133"><ele>793.0</ele><time>2026-04-25T09:51:26.993Z</time></trkpt><trkpt lat="44.7124567" lon="9.3041033"><ele>792.0</ele><time>2026-04-25T09:51:27.997Z</time></trkpt><trkpt lat="44.7123867" lon="9.3040033"><ele>792.0</ele><time>2026-04-25T09:51:28.997Z</time></trkpt><trkpt lat="44.7123" lon="9.30394"><ele>792.0</ele><time>2026-04-25T09:51:29.995Z</time></trkpt><trkpt lat="44.7122" lon="9.3039033"><ele>792.0</ele><time>2026-04-25T09:51:30.991Z</time></trkpt><trkpt lat="44.71209" lon="9.3039067"><ele>792.0</ele><time>2026-04-25T09:51:31.992Z</time></trkpt><trkpt lat="44.71197" lon="9.3039133"><ele>792.0</ele><time>2026-04-25T09:51:32.994Z</time></trkpt><trkpt lat="44.7118317" lon="9.3039267"><ele>791.25</ele><time>2026-04-25T09:51:33.997Z</time></trkpt><trkpt lat="44.7116917" lon="9.303945"><ele>790.5</ele><time>2026-04-25T09:51:34.994Z</time></trkpt><trkpt lat="44.711555" lon="9.3039667"><ele>789.75</ele><time>2026-04-25T09:51:35.993Z</time></trkpt><trkpt lat="44.71142" lon="9.30399"><ele>789.0</ele><time>2026-04-25T09:51:36.997Z</time></trkpt><trkpt lat="44.7112883" lon="9.3040117"><ele>789.0</ele><time>2026-04-25T09:51:37.998Z</time></trkpt><trkpt lat="44.7111667" lon="9.3040517"><ele>789.0</ele><time>2026-04-25T09:51:38.999Z</time></trkpt><trkpt lat="44.7110483" lon="9.304115"><ele>789.0</ele><time>2026-04-25T09:51:40.006Z</time></trkpt><trkpt lat="44.710935" lon="9.3041833"><ele>789.0</ele><time>2026-04-25T09:51:40.998Z</time></trkpt><trkpt lat="44.7108233" lon="9.3042533"><ele>785.5</ele><time>2026-04-25T09:51:41.993Z</time></trkpt><trkpt lat="44.7107133" lon="9.3043317"><ele>782.0</ele><time>2026-04-25T09:51:42.995Z</time></trkpt><trkpt lat="44.7105967" lon="9.3043983"><ele>778.5</ele><time>2026-04-25T09:51:43.994Z</time></trkpt><trkpt lat="44.710475" lon="9.304455"><ele>775.0</ele><time>2026-04-25T09:51:44.997Z</time></trkpt><trkpt lat="44.7103467" lon="9.3044833"><ele>772.5</ele><time>2026-04-25T09:51:45.992Z</time></trkpt><trkpt lat="44.71023" lon="9.304515"><ele>770.0</ele><time>2026-04-25T09:51:46.993Z</time></trkpt><trkpt lat="44.7101067" lon="9.30454"><ele>767.5</ele><time>2026-04-25T09:51:48Z</time></trkpt><trkpt lat="44.7099767" lon="9.304545"><ele>765.0</ele><time>2026-04-25T09:51:48.995Z</time></trkpt><trkpt lat="44.7098417" lon="9.3045517"><ele>765.0</ele><time>2026-04-25T09:51:49.999Z</time></trkpt><trkpt lat="44.70971" lon="9.3045717"><ele>765.0</ele><time>2026-04-25T09:51:50.994Z</time></trkpt><trkpt lat="44.70958" lon="9.3045983"><ele>765.0</ele><time>2026-04-25T09:51:51.994Z</time></trkpt><trkpt lat="44.7094517" lon="9.3046233"><ele>765.0</ele><time>2026-04-25T09:51:53Z</time></trkpt><trkpt lat="44.7093233" lon="9.304655"><ele>763.75</ele><time>2026-04-25T09:51:53.994Z</time></trkpt><trkpt lat="44.7092" lon="9.3046883"><ele>762.5</ele><time>2026-04-25T09:51:54.996Z</time></trkpt><trkpt lat="44.7090833" lon="9.3047233"><ele>761.25</ele><time>2026-04-25T09:51:55.994Z</time></trkpt><trkpt lat="44.7089783" lon="9.30477"><ele>760.0</ele><time>2026-04-25T09:51:56.994Z</time></trkpt><trkpt lat="44.708885" lon="9.3048317"><ele>760.0</ele><time>2026-04-25T09:51:57.995Z</time></trkpt><trkpt lat="44.7088067" lon="9.3049267"><ele>760.0</ele><time>2026-04-25T09:51:58.991Z</time></trkpt><trkpt lat="44.70873" lon="9.3050383"><ele>760.0</ele><time>2026-04-25T09:51:59.998Z</time></trkpt><trkpt lat="44.70865" lon="9.3051483"><ele>760.0</ele><time>2026-04-25T09:52:00.991Z</time></trkpt><trkpt lat="44.708585" lon="9.30526"><ele>760.0</ele><time>2026-04-25T09:52:01.997Z</time></trkpt><trkpt lat="44.70855" lon="9.3053783"><ele>760.0</ele><time>2026-04-25T09:52:02.993Z</time></trkpt><trkpt lat="44.70854" lon="9.3055033"><ele>760.0</ele><time>2026-04-25T09:52:03.998Z</time></trkpt><trkpt lat="44.7085567" lon="9.3056467"><ele>760.0</ele><time>2026-04-25T09:52:04.996Z</time></trkpt><trkpt lat="44.7086" lon="9.30581"><ele>760.0</ele><time>2026-04-25T09:52:05.998Z</time></trkpt><trkpt lat="44.7086583" lon="9.30596"><ele>760.0</ele><time>2026-04-25T09:52:06.995Z</time></trkpt><trkpt lat="44.7087317" lon="9.30611"><ele>761.5</ele><time>2026-04-25T09:52:07.996Z</time></trkpt><trkpt lat="44.708805" lon="9.306255"><ele>763.0</ele><time>2026-04-25T09:52:08.995Z</time></trkpt><trkpt lat="44.7088683" lon="9.3064017"><ele>764.5</ele><time>2026-04-25T09:52:09.996Z</time></trkpt><trkpt lat="44.7089283" lon="9.306545"><ele>766.0</ele><time>2026-04-25T09:52:10.995Z</time></trkpt><trkpt lat="44.7089867" lon="9.3066917"><ele>766.0</ele><time>2026-04-25T09:52:11.993Z</time></trkpt><trkpt lat="44.7090283" lon="9.3068383"><ele>766.0</ele><time>2026-04-25T09:52:12.996Z</time></trkpt><trkpt lat="44.70905" lon="9.30699"><ele>766.0</ele><time>2026-04-25T09:52:13.996Z</time></trkpt><trkpt lat="44.70904" lon="9.3071383"><ele>766.0</ele><time>2026-04-25T09:52:14.995Z</time></trkpt><trkpt lat="44.7089983" lon="9.3072733"><ele>766.0</ele><time>2026-04-25T09:52:15.991Z</time></trkpt><trkpt lat="44.7089433" lon="9.3073933"><ele>765.4</ele><time>2026-04-25T09:52:16.992Z</time></trkpt><trkpt lat="44.7088717" lon="9.3074667"><ele>764.8</ele><time>2026-04-25T09:52:17.997Z</time></trkpt><trkpt lat="44.70878" lon="9.3074867"><ele>764.1999999999999</ele><time>2026-04-25T09:52:18.993Z</time></trkpt><trkpt lat="44.708665" lon="9.3074667"><ele>763.5999999999999</ele><time>2026-04-25T09:52:19.995Z</time></trkpt><trkpt lat="44.7085517" lon="9.3074583"><ele>763.0</ele><time>2026-04-25T09:52:20.998Z</time></trkpt><trkpt lat="44.708435" lon="9.30744"><ele>760.0</ele><time>2026-04-25T09:52:21.996Z</time></trkpt><trkpt lat="44.7083183" lon="9.3074333"><ele>757.0</ele><time>2026-04-25T09:52:22.996Z</time></trkpt><trkpt lat="44.7082" lon="9.307445"><ele>754.0</ele><time>2026-04-25T09:52:24.001Z</time></trkpt><trkpt lat="44.7080783" lon="9.3074783"><ele>751.0</ele><time>2026-04-25T09:52:25Z</time></trkpt><trkpt lat="44.707955" lon="9.3075133"><ele>751.0</ele><time>2026-04-25T09:52:25.993Z</time></trkpt><trkpt lat="44.70783" lon="9.30755"><ele>751.0</ele><time>2026-04-25T09:52:27Z</time></trkpt><trkpt lat="44.7077017" lon="9.30759"><ele>751.0</ele><time>2026-04-25T09:52:27.994Z</time></trkpt><trkpt lat="44.70758" lon="9.30764"><ele>751.0</ele><time>2026-04-25T09:52:28.997Z</time></trkpt><trkpt lat="44.7074767" lon="9.3077033"><ele>749.5999999999999</ele><time>2026-04-25T09:52:29.993Z</time></trkpt><trkpt lat="44.7073917" lon="9.3077767"><ele>748.2</ele><time>2026-04-25T09:52:30.996Z</time></trkpt><trkpt lat="44.7073217" lon="9.3078717"><ele>746.8</ele><time>2026-04-25T09:52:31.994Z</time></trkpt><trkpt lat="44.7072667" lon="9.3079783"><ele>745.4000000000001</ele><time>2026-04-25T09:52:32.994Z</time></trkpt><trkpt lat="44.7072367" lon="9.3081"><ele>744.0</ele><time>2026-04-25T09:52:33.996Z</time></trkpt><trkpt lat="44.7072183" lon="9.308245"><ele>744.0</ele><time>2026-04-25T09:52:34.992Z</time></trkpt><trkpt lat="44.70721" lon="9.3084033"><ele>744.0</ele><time>2026-04-25T09:52:35.996Z</time></trkpt><trkpt lat="44.707195" lon="9.308565"><ele>744.0</ele><time>2026-04-25T09:52:36.994Z</time></trkpt><trkpt lat="44.7071667" lon="9.3087017"><ele>744.0</ele><time>2026-04-25T09:52:37.996Z</time></trkpt><trkpt lat="44.7071133" lon="9.30881"><ele>744.0</ele><time>2026-04-25T09:52:38.998Z</time></trkpt><trkpt lat="44.7070483" lon="9.3089183"><ele>745.75</ele><time>2026-04-25T09:52:39.994Z</time></trkpt><trkpt lat="44.7069683" lon="9.30903"><ele>747.5</ele><time>2026-04-25T09:52:40.995Z</time></trkpt><trkpt lat="44.7068817" lon="9.30915"><ele>749.25</ele><time>2026-04-25T09:52:41.997Z</time></trkpt><trkpt lat="44.7067933" lon="9.3092783"><ele>751.0</ele><time>2026-04-25T09:52:42.999Z</time></trkpt><trkpt lat="44.7067067" lon="9.3094"><ele>747.5999999999999</ele><time>2026-04-25T09:52:43.998Z</time></trkpt><trkpt lat="44.70661" lon="9.30951"><ele>744.2</ele><time>2026-04-25T09:52:44.994Z</time></trkpt><trkpt lat="44.706505" lon="9.3095917"><ele>740.8</ele><time>2026-04-25T09:52:45.995Z</time></trkpt><trkpt lat="44.706405" lon="9.3096483"><ele>737.4000000000001</ele><time>2026-04-25T09:52:46.995Z</time></trkpt><trkpt lat="44.7063083" lon="9.3096617"><ele>734.0</ele><time>2026-04-25T09:52:47.994Z</time></trkpt><trkpt lat="44.70621" lon="9.30965"><ele>734.0</ele><time>2026-04-25T09:52:48.995Z</time></trkpt><trkpt lat="44.706105" lon="9.30962"><ele>734.0</ele><time>2026-04-25T09:52:49.995Z</time></trkpt><trkpt lat="44.7059883" lon="9.309595"><ele>734.0</ele><time>2026-04-25T09:52:50.994Z</time></trkpt><trkpt lat="44.70586" lon="9.3095683"><ele>734.0</ele><time>2026-04-25T09:52:51.995Z</time></trkpt><trkpt lat="44.705725" lon="9.309545"><ele>730.75</ele><time>2026-04-25T09:52:52.993Z</time></trkpt><trkpt lat="44.7055917" lon="9.3095333"><ele>727.5</ele><time>2026-04-25T09:52:53.993Z</time></trkpt><trkpt lat="44.7054517" lon="9.3095367"><ele>724.25</ele><time>2026-04-25T09:52:54.998Z</time></trkpt><trkpt lat="44.7053117" lon="9.309565"><ele>721.0</ele><time>2026-04-25T09:52:55.999Z</time></trkpt><trkpt lat="44.7051683" lon="9.30961"><ele>721.25</ele><time>2026-04-25T09:52:56.998Z</time></trkpt><trkpt lat="44.7050317" lon="9.309665"><ele>721.5</ele><time>2026-04-25T09:52:57.993Z</time></trkpt><trkpt lat="44.7049017" lon="9.3097283"><ele>721.75</ele><time>2026-04-25T09:52:58.999Z</time></trkpt><trkpt lat="44.7047783" lon="9.30978"><ele>722.0</ele><time>2026-04-25T09:52:59.992Z</time></trkpt><trkpt lat="44.70467" lon="9.3098283"><ele>722.0</ele><time>2026-04-25T09:53:00.997Z</time></trkpt><trkpt lat="44.7045733" lon="9.3098433"><ele>722.0</ele><time>2026-04-25T09:53:01.994Z</time></trkpt><trkpt lat="44.704475" lon="9.3098133"><ele>722.0</ele><time>2026-04-25T09:53:02.992Z</time></trkpt><trkpt lat="44.7043783" lon="9.3097533"><ele>722.0</ele><time>2026-04-25T09:53:03.999Z</time></trkpt><trkpt lat="44.7042833" lon="9.3096817"><ele>722.0</ele><time>2026-04-25T09:53:04.998Z</time></trkpt><trkpt lat="44.704185" lon="9.3096033"><ele>718.25</ele><time>2026-04-25T09:53:06Z</time></trkpt><trkpt lat="44.7040767" lon="9.3095367"><ele>714.5</ele><time>2026-04-25T09:53:06.997Z</time></trkpt><trkpt lat="44.7039683" lon="9.3094817"><ele>710.75</ele><time>2026-04-25T09:53:07.995Z</time></trkpt><trkpt lat="44.7038583" lon="9.3094583"><ele>707.0</ele><time>2026-04-25T09:53:08.998Z</time></trkpt><trkpt lat="44.7037483" lon="9.3094533"><ele>707.0</ele><time>2026-04-25T09:53:10Z</time></trkpt><trkpt lat="44.703635" lon="9.3094817"><ele>707.0</ele><time>2026-04-25T09:53:10.995Z</time></trkpt><trkpt lat="44.70353" lon="9.3095383"><ele>707.0</ele><time>2026-04-25T09:53:11.996Z</time></trkpt><trkpt lat="44.7034333" lon="9.3096133"><ele>707.0</ele><time>2026-04-25T09:53:12.998Z</time></trkpt><trkpt lat="44.7033367" lon="9.309685"><ele>707.0</ele><time>2026-04-25T09:53:13.999Z</time></trkpt><trkpt lat="44.7032367" lon="9.309745"><ele>708.4000000000001</ele><time>2026-04-25T09:53:14.998Z</time></trkpt><trkpt lat="44.7031333" lon="9.3097783"><ele>709.8000000000001</ele><time>2026-04-25T09:53:15.997Z</time></trkpt><trkpt lat="44.7030317" lon="9.309815"><ele>711.2</ele><time>2026-04-25T09:53:16.997Z</time></trkpt><trkpt lat="44.702915" lon="9.309785"><ele>712.6</ele><time>2026-04-25T09:53:17.993Z</time></trkpt><trkpt lat="44.7028033" lon="9.309725"><ele>714.0</ele><time>2026-04-25T09:53:18.996Z</time></trkpt><trkpt lat="44.7026917" lon="9.3096583"><ele>708.5</ele><time>2026-04-25T09:53:19.993Z</time></trkpt><trkpt lat="44.7025667" lon="9.3096217"><ele>703.0</ele><time>2026-04-25T09:53:20.993Z</time></trkpt><trkpt lat="44.702435" lon="9.3096017"><ele>697.5</ele><time>2026-04-25T09:53:21.993Z</time></trkpt><trkpt lat="44.70229" lon="9.309595"><ele>692.0</ele><time>2026-04-25T09:53:22.994Z</time></trkpt><trkpt lat="44.7021417" lon="9.3096"><ele>692.0</ele><time>2026-04-25T09:53:24.001Z</time></trkpt><trkpt lat="44.702" lon="9.3096133"><ele>692.0</ele><time>2026-04-25T09:53:24.998Z</time></trkpt><trkpt lat="44.7018583" lon="9.3096483"><ele>692.0</ele><time>2026-04-25T09:53:25.993Z</time></trkpt><trkpt lat="44.7017283" lon="9.3096783"><ele>692.0</ele><time>2026-04-25T09:53:26.993Z</time></trkpt><trkpt lat="44.701615" lon="9.3096933"><ele>691.8</ele><time>2026-04-25T09:53:27.993Z</time></trkpt><trkpt lat="44.7015133" lon="9.3096983"><ele>691.6</ele><time>2026-04-25T09:53:28.995Z</time></trkpt><trkpt lat="44.7014267" lon="9.3096783"><ele>691.4</ele><time>2026-04-25T09:53:29.998Z</time></trkpt><trkpt lat="44.7013467" lon="9.309625"><ele>691.1999999999999</ele><time>2026-04-25T09:53:30.995Z</time></trkpt><trkpt lat="44.70129" lon="9.3095483"><ele>691.0</ele><time>2026-04-25T09:53:31.995Z</time></trkpt><trkpt lat="44.701335" lon="9.30939"><ele>691.0</ele><time>2026-04-25T09:53:33.003Z</time></trkpt><trkpt lat="44.701365" lon="9.3092617"><ele>691.0</ele><time>2026-04-25T09:53:33.996Z</time></trkpt><trkpt lat="44.70142" lon="9.3091517"><ele>691.0</ele><time>2026-04-25T09:53:34.998Z</time></trkpt><trkpt lat="44.7015033" lon="9.3090517"><ele>691.0</ele><time>2026-04-25T09:53:35.992Z</time></trkpt><trkpt lat="44.7016033" lon="9.30899"><ele>691.0</ele><time>2026-04-25T09:53:36.996Z</time></trkpt><trkpt lat="44.7017183" lon="9.30896"><ele>691.0</ele><time>2026-04-25T09:53:37.998Z</time></trkpt><trkpt lat="44.7018217" lon="9.3089233"><ele>691.0</ele><time>2026-04-25T09:53:38.998Z</time></trkpt><trkpt lat="44.7019733" lon="9.3090033"><ele>691.0</ele><time>2026-04-25T09:53:39.997Z</time></trkpt><trkpt lat="44.7021067" lon="9.3090333"><ele>691.0</ele><time>2026-04-25T09:53:40.994Z</time></trkpt><trkpt lat="44.7022283" lon="9.3090317"><ele>691.25</ele><time>2026-04-25T09:53:41.996Z</time></trkpt><trkpt lat="44.7023367" lon="9.3089817"><ele>691.5</ele><time>2026-04-25T09:53:42.993Z</time></trkpt><trkpt lat="44.7024383" lon="9.3089033"><ele>691.75</ele><time>2026-04-25T09:53:43.992Z</time></trkpt><trkpt lat="44.7025283" lon="9.3087867"><ele>692.0</ele><time>2026-04-25T09:53:45.001Z</time></trkpt><trkpt lat="44.7026083" lon="9.3086583"><ele>691.5</ele><time>2026-04-25T09:53:45.995Z</time></trkpt><trkpt lat="44.7026767" lon="9.3085233"><ele>691.0</ele><time>2026-04-25T09:53:46.994Z</time></trkpt><trkpt lat="44.7027383" lon="9.3083717"><ele>690.5</ele><time>2026-04-25T09:53:48.001Z</time></trkpt><trkpt lat="44.7027933" lon="9.3082183"><ele>690.0</ele><time>2026-04-25T09:53:49Z</time></trkpt><trkpt lat="44.702845" lon="9.3080667"><ele>687.75</ele><time>2026-04-25T09:53:49.992Z</time></trkpt><trkpt lat="44.7029067" lon="9.3079017"><ele>685.5</ele><time>2026-04-25T09:53:50.998Z</time></trkpt><trkpt lat="44.7029717" lon="9.3077367"><ele>683.25</ele><time>2026-04-25T09:53:51.994Z</time></trkpt><trkpt lat="44.7030383" lon="9.307565"><ele>681.0</ele><time>2026-04-25T09:53:52.996Z</time></trkpt><trkpt lat="44.703105" lon="9.307395"><ele>679.0</ele><time>2026-04-25T09:53:53.995Z</time></trkpt><trkpt lat="44.7031633" lon="9.3072317"><ele>677.0</ele><time>2026-04-25T09:53:55Z</time></trkpt><trkpt lat="44.7032417" lon="9.3070867"><ele>675.0</ele><time>2026-04-25T09:53:55.995Z</time></trkpt><trkpt lat="44.7033083" lon="9.30692"><ele>673.0</ele><time>2026-04-25T09:53:56.992Z</time></trkpt><trkpt lat="44.7033833" lon="9.3067467"><ele>673.0</ele><time>2026-04-25T09:53:57.993Z</time></trkpt><trkpt lat="44.70345" lon="9.3065783"><ele>673.0</ele><time>2026-04-25T09:53:58.995Z</time></trkpt><trkpt lat="44.7035167" lon="9.3064117"><ele>673.0</ele><time>2026-04-25T09:53:59.999Z</time></trkpt><trkpt lat="44.7035817" lon="9.3062583"><ele>673.0</ele><time>2026-04-25T09:54:00.999Z</time></trkpt><trkpt lat="44.703625" lon="9.3061183"><ele>672.8</ele><time>2026-04-25T09:54:01.995Z</time></trkpt><trkpt lat="44.70364" lon="9.3059867"><ele>672.5999999999999</ele><time>2026-04-25T09:54:02.996Z</time></trkpt><trkpt lat="44.7036317" lon="9.3058567"><ele>672.4000000000001</ele><time>2026-04-25T09:54:03.997Z</time></trkpt><trkpt lat="44.7035933" lon="9.3057317"><ele>672.2</ele><time>2026-04-25T09:54:04.993Z</time></trkpt><trkpt lat="44.7035183" lon="9.3056217"><ele>672.0</ele><time>2026-04-25T09:54:06Z</time></trkpt><trkpt lat="44.7034283" lon="9.3055033"><ele>668.75</ele><time>2026-04-25T09:54:06.997Z</time></trkpt><trkpt lat="44.7033167" lon="9.3053867"><ele>665.5</ele><time>2026-04-25T09:54:07.993Z</time></trkpt><trkpt lat="44.703195" lon="9.30527"><ele>662.25</ele><time>2026-04-25T09:54:08.996Z</time></trkpt><trkpt lat="44.7030683" lon="9.3051567"><ele>659.0</ele><time>2026-04-25T09:54:09.992Z</time></trkpt><trkpt lat="44.7029467" lon="9.3050333"><ele>659.0</ele><time>2026-04-25T09:54:10.992Z</time></trkpt><trkpt lat="44.7028233" lon="9.304915"><ele>659.0</ele><time>2026-04-25T09:54:11.994Z</time></trkpt><trkpt lat="44.702715" lon="9.3047967"><ele>659.0</ele><time>2026-04-25T09:54:13Z</time></trkpt><trkpt lat="44.7026167" lon="9.3046833"><ele>659.0</ele><time>2026-04-25T09:54:13.992Z</time></trkpt><trkpt lat="44.70253" lon="9.30458"><ele>657.4000000000001</ele><time>2026-04-25T09:54:15.001Z</time></trkpt><trkpt lat="44.7024583" lon="9.3044733"><ele>655.8</ele><time>2026-04-25T09:54:15.994Z</time></trkpt><trkpt lat="44.7024033" lon="9.3043533"><ele>654.2</ele><time>2026-04-25T09:54:16.994Z</time></trkpt><trkpt lat="44.7023733" lon="9.3042117"><ele>652.5999999999999</ele><time>2026-04-25T09:54:17.996Z</time></trkpt><trkpt lat="44.7023667" lon="9.3040517"><ele>651.0</ele><time>2026-04-25T09:54:19.001Z</time></trkpt><trkpt lat="44.7023583" lon="9.3038783"><ele>649.75</ele><time>2026-04-25T09:54:19.997Z</time></trkpt><trkpt lat="44.7023667" lon="9.3036933"><ele>648.5</ele><time>2026-04-25T09:54:20.996Z</time></trkpt><trkpt lat="44.7023583" lon="9.3035183"><ele>647.25</ele><time>2026-04-25T09:54:21.994Z</time></trkpt><trkpt lat="44.7023517" lon="9.3033317"><ele>646.0</ele><time>2026-04-25T09:54:22.995Z</time></trkpt><trkpt lat="44.702345" lon="9.3031533"><ele>645.25</ele><time>2026-04-25T09:54:23.994Z</time></trkpt><trkpt lat="44.7023417" lon="9.3029717"><ele>644.5</ele><time>2026-04-25T09:54:24.995Z</time></trkpt><trkpt lat="44.702375" lon="9.30278"><ele>643.75</ele><time>2026-04-25T09:54:26.003Z</time></trkpt><trkpt lat="44.70243" lon="9.3025967"><ele>643.0</ele><time>2026-04-25T09:54:26.993Z</time></trkpt><trkpt lat="44.70249" lon="9.3024217"><ele>643.0</ele><time>2026-04-25T09:54:27.999Z</time></trkpt><trkpt lat="44.70257" lon="9.3022483"><ele>643.0</ele><time>2026-04-25T09:54:28.992Z</time></trkpt><trkpt lat="44.702635" lon="9.302085"><ele>643.0</ele><time>2026-04-25T09:54:29.993Z</time></trkpt><trkpt lat="44.7027017" lon="9.30193"><ele>643.0</ele><time>2026-04-25T09:54:31.002Z</time></trkpt><trkpt lat="44.70277" lon="9.3017767"><ele>643.25</ele><time>2026-04-25T09:54:31.99Z</time></trkpt><trkpt lat="44.7028217" lon="9.3016217"><ele>643.5</ele><time>2026-04-25T09:54:32.996Z</time></trkpt><trkpt lat="44.7028517" lon="9.3014483"><ele>643.75</ele><time>2026-04-25T09:54:33.992Z</time></trkpt><trkpt lat="44.702855" lon="9.301265"><ele>644.0</ele><time>2026-04-25T09:54:34.993Z</time></trkpt><trkpt lat="44.70284" lon="9.3010767"><ele>641.5</ele><time>2026-04-25T09:54:35.995Z</time></trkpt><trkpt lat="44.70282" lon="9.3008933"><ele>639.0</ele><time>2026-04-25T09:54:36.992Z</time></trkpt><trkpt lat="44.702805" lon="9.3007067"><ele>636.5</ele><time>2026-04-25T09:54:37.996Z</time></trkpt><trkpt lat="44.7027917" lon="9.30052"><ele>634.0</ele><time>2026-04-25T09:54:38.996Z</time></trkpt><trkpt lat="44.7027883" lon="9.3003317"><ele>632.25</ele><time>2026-04-25T09:54:39.997Z</time></trkpt><trkpt lat="44.702795" lon="9.3001417"><ele>630.5</ele><time>2026-04-25T09:54:40.996Z</time></trkpt><trkpt lat="44.7028083" lon="9.2999417"><ele>628.75</ele><time>2026-04-25T09:54:41.994Z</time></trkpt><trkpt lat="44.7028217" lon="9.2997417"><ele>627.0</ele><time>2026-04-25T09:54:42.998Z</time></trkpt><trkpt lat="44.7028383" lon="9.2995483"><ele>625.8000000000001</ele><time>2026-04-25T09:54:43.993Z</time></trkpt><trkpt lat="44.7028567" lon="9.2993717"><ele>624.6</ele><time>2026-04-25T09:54:45Z</time></trkpt><trkpt lat="44.7028767" lon="9.299215"><ele>623.4000000000001</ele><time>2026-04-25T09:54:45.994Z</time></trkpt><trkpt lat="44.7029067" lon="9.299075"><ele>622.2</ele><time>2026-04-25T09:54:46.991Z</time></trkpt><trkpt lat="44.7029533" lon="9.2989433"><ele>621.0</ele><time>2026-04-25T09:54:47.996Z</time></trkpt><trkpt lat="44.7030183" lon="9.2988383"><ele>621.0</ele><time>2026-04-25T09:54:48.993Z</time></trkpt><trkpt lat="44.703105" lon="9.2987667"><ele>621.0</ele><time>2026-04-25T09:54:49.994Z</time></trkpt><trkpt lat="44.7031933" lon="9.29875"><ele>621.0</ele><time>2026-04-25T09:54:50.996Z</time></trkpt><trkpt lat="44.7032767" lon="9.2987717"><ele>621.0</ele><time>2026-04-25T09:54:51.999Z</time></trkpt><trkpt lat="44.7033567" lon="9.2988433"><ele>621.0</ele><time>2026-04-25T09:54:52.996Z</time></trkpt><trkpt lat="44.70343" lon="9.29895"><ele>621.0</ele><time>2026-04-25T09:54:53.994Z</time></trkpt><trkpt lat="44.7034917" lon="9.29906"><ele>621.0</ele><time>2026-04-25T09:54:54.997Z</time></trkpt><trkpt lat="44.7035417" lon="9.29917"><ele>621.0</ele><time>2026-04-25T09:54:55.993Z</time></trkpt><trkpt lat="44.7035783" lon="9.2992933"><ele>621.0</ele><time>2026-04-25T09:54:56.999Z</time></trkpt><trkpt lat="44.70363" lon="9.2994233"><ele>621.0</ele><time>2026-04-25T09:54:57.993Z</time></trkpt><trkpt lat="44.70369" lon="9.29953"><ele>618.5</ele><time>2026-04-25T09:54:58.995Z</time></trkpt><trkpt lat="44.70375" lon="9.2996317"><ele>616.0</ele><time>2026-04-25T09:54:59.994Z</time></trkpt><trkpt lat="44.703805" lon="9.2997017"><ele>613.5</ele><time>2026-04-25T09:55:00.996Z</time></trkpt><trkpt lat="44.7038817" lon="9.2996467"><ele>611.0</ele><time>2026-04-25T09:55:01.994Z</time></trkpt><trkpt lat="44.7039333" lon="9.2995617"><ele>608.5</ele><time>2026-04-25T09:55:02.991Z</time></trkpt><trkpt lat="44.703945" lon="9.2994533"><ele>606.0</ele><time>2026-04-25T09:55:03.99Z</time></trkpt><trkpt lat="44.7039467" lon="9.2993383"><ele>606.0</ele><time>2026-04-25T09:55:04.997Z</time></trkpt><trkpt lat="44.7039333" lon="9.2992017"><ele>606.0</ele><time>2026-04-25T09:55:05.997Z</time></trkpt><trkpt lat="44.7039117" lon="9.29903"><ele>606.0</ele><time>2026-04-25T09:55:06.999Z</time></trkpt><trkpt lat="44.7038917" lon="9.2988667"><ele>606.0</ele><time>2026-04-25T09:55:07.999Z</time></trkpt><trkpt lat="44.7038717" lon="9.29871"><ele>603.8</ele><time>2026-04-25T09:55:09Z</time></trkpt><trkpt lat="44.7038583" lon="9.29855"><ele>601.6</ele><time>2026-04-25T09:55:09.993Z</time></trkpt><trkpt lat="44.703845" lon="9.2984"><ele>599.4</ele><time>2026-04-25T09:55:10.993Z</time></trkpt><trkpt lat="44.7038267" lon="9.2982517"><ele>597.2</ele><time>2026-04-25T09:55:11.994Z</time></trkpt><trkpt lat="44.7037967" lon="9.29811"><ele>595.0</ele><time>2026-04-25T09:55:13.001Z</time></trkpt><trkpt lat="44.703755" lon="9.2979833"><ele>595.5</ele><time>2026-04-25T09:55:13.995Z</time></trkpt><trkpt lat="44.703695" lon="9.2978583"><ele>596.0</ele><time>2026-04-25T09:55:14.994Z</time></trkpt><trkpt lat="44.70362" lon="9.297745"><ele>596.5</ele><time>2026-04-25T09:55:15.992Z</time></trkpt><trkpt lat="44.703535" lon="9.2976383"><ele>597.0</ele><time>2026-04-25T09:55:16.993Z</time></trkpt><trkpt lat="44.7034333" lon="9.2975433"><ele>597.0</ele><time>2026-04-25T09:55:17.995Z</time></trkpt><trkpt lat="44.7033267" lon="9.297455"><ele>597.0</ele><time>2026-04-25T09:55:18.994Z</time></trkpt><trkpt lat="44.7032117" lon="9.2973767"><ele>597.0</ele><time>2026-04-25T09:55:19.993Z</time></trkpt><trkpt lat="44.703095" lon="9.297305"><ele>597.0</ele><time>2026-04-25T09:55:20.995Z</time></trkpt><trkpt lat="44.7029733" lon="9.2972583"><ele>596.25</ele><time>2026-04-25T09:55:21.992Z</time></trkpt><trkpt lat="44.7028467" lon="9.297225"><ele>595.5</ele><time>2026-04-25T09:55:22.994Z</time></trkpt><trkpt lat="44.7027167" lon="9.297215"><ele>594.75</ele><time>2026-04-25T09:55:24.001Z</time></trkpt><trkpt lat="44.7025883" lon="9.29723"><ele>594.0</ele><time>2026-04-25T09:55:24.997Z</time></trkpt><trkpt lat="44.7024717" lon="9.29728"><ele>594.0</ele><time>2026-04-25T09:55:25.994Z</time></trkpt><trkpt lat="44.7023617" lon="9.2973383"><ele>594.0</ele><time>2026-04-25T09:55:26.998Z</time></trkpt><trkpt lat="44.702265" lon="9.29739"><ele>594.0</ele><time>2026-04-25T09:55:27.994Z</time></trkpt><trkpt lat="44.7021783" lon="9.29743"><ele>594.0</ele><time>2026-04-25T09:55:28.996Z</time></trkpt><trkpt lat="44.7020967" lon="9.2974517"><ele>594.0</ele><time>2026-04-25T09:55:29.992Z</time></trkpt><trkpt lat="44.7020383" lon="9.2973183"><ele>591.5</ele><time>2026-04-25T09:55:30.995Z</time></trkpt><trkpt lat="44.70202" lon="9.2972167"><ele>589.0</ele><time>2026-04-25T09:55:31.998Z</time></trkpt><trkpt lat="44.7020433" lon="9.2971267"><ele>586.5</ele><time>2026-04-25T09:55:32.997Z</time></trkpt><trkpt lat="44.70209" lon="9.2970467"><ele>584.0</ele><time>2026-04-25T09:55:33.995Z</time></trkpt><trkpt lat="44.702145" lon="9.2969883"><ele>581.5</ele><time>2026-04-25T09:55:34.998Z</time></trkpt><trkpt lat="44.70222" lon="9.2969417"><ele>579.0</ele><time>2026-04-25T09:55:35.994Z</time></trkpt><trkpt lat="44.70232" lon="9.296895"><ele>579.0</ele><time>2026-04-25T09:55:36.998Z</time></trkpt><trkpt lat="44.7024317" lon="9.2968567"><ele>579.0</ele><time>2026-04-25T09:55:37.997Z</time></trkpt><trkpt lat="44.70256" lon="9.2968233"><ele>579.0</ele><time>2026-04-25T09:55:38.993Z</time></trkpt><trkpt lat="44.7026833" lon="9.2967817"><ele>579.0</ele><time>2026-04-25T09:55:39.992Z</time></trkpt><trkpt lat="44.7028033" lon="9.29673"><ele>580.0</ele><time>2026-04-25T09:55:40.992Z</time></trkpt><trkpt lat="44.7029233" lon="9.2966683"><ele>581.0</ele><time>2026-04-25T09:55:41.997Z</time></trkpt><trkpt lat="44.7030417" lon="9.2965933"><ele>582.0</ele><time>2026-04-25T09:55:42.993Z</time></trkpt><trkpt lat="44.7031567" lon="9.2965083"><ele>583.0</ele><time>2026-04-25T09:55:43.993Z</time></trkpt><trkpt lat="44.70327" lon="9.296415"><ele>580.0</ele><time>2026-04-25T09:55:44.997Z</time></trkpt><trkpt lat="44.7033833" lon="9.2963233"><ele>577.0</ele><time>2026-04-25T09:55:45.999Z</time></trkpt><trkpt lat="44.7035" lon="9.2962383"><ele>574.0</ele><time>2026-04-25T09:55:46.996Z</time></trkpt><trkpt lat="44.7036233" lon="9.2961917"><ele>571.0</ele><time>2026-04-25T09:55:47.997Z</time></trkpt><trkpt lat="44.703755" lon="9.2961733"><ele>570.0</ele><time>2026-04-25T09:55:48.995Z</time></trkpt><trkpt lat="44.7038867" lon="9.29617"><ele>569.0</ele><time>2026-04-25T09:55:49.996Z</time></trkpt><trkpt lat="44.704015" lon="9.2961817"><ele>568.0</ele><time>2026-04-25T09:55:50.993Z</time></trkpt><trkpt lat="44.70413" lon="9.2961817"><ele>567.0</ele><time>2026-04-25T09:55:51.994Z</time></trkpt><trkpt lat="44.7042317" lon="9.2961783"><ele>567.0</ele><time>2026-04-25T09:55:52.996Z</time></trkpt><trkpt lat="44.7043117" lon="9.2961317"><ele>567.0</ele><time>2026-04-25T09:55:53.996Z</time></trkpt><trkpt lat="44.7043883" lon="9.296075"><ele>567.0</ele><time>2026-04-25T09:55:54.997Z</time></trkpt><trkpt lat="44.7044333" lon="9.2959717"><ele>567.0</ele><time>2026-04-25T09:55:56.001Z</time></trkpt><trkpt lat="44.70444" lon="9.2958667"><ele>567.0</ele><time>2026-04-25T09:55:56.996Z</time></trkpt><trkpt lat="44.7044283" lon="9.29576"><ele>567.0</ele><time>2026-04-25T09:55:57.994Z</time></trkpt><trkpt lat="44.7043467" lon="9.2956717"><ele>567.0</ele><time>2026-04-25T09:55:58.994Z</time></trkpt><trkpt lat="44.7042717" lon="9.2956033"><ele>567.0</ele><time>2026-04-25T09:56:00.005Z</time></trkpt><trkpt lat="44.704165" lon="9.2955967"><ele>567.0</ele><time>2026-04-25T09:56:00.993Z</time></trkpt><trkpt lat="44.7040583" lon="9.2955817"><ele>567.0</ele><time>2026-04-25T09:56:02.004Z</time></trkpt><trkpt lat="44.7039583" lon="9.2955533"><ele>567.0</ele><time>2026-04-25T09:56:02.994Z</time></trkpt><trkpt lat="44.7038533" lon="9.2955083"><ele>564.8000000000001</ele><time>2026-04-25T09:56:03.998Z</time></trkpt><trkpt lat="44.70376" lon="9.2954433"><ele>562.6</ele><time>2026-04-25T09:56:04.993Z</time></trkpt><trkpt lat="44.7036717" lon="9.2953617"><ele>560.4000000000001</ele><time>2026-04-25T09:56:05.995Z</time></trkpt><trkpt lat="44.70359" lon="9.29527"><ele>558.2</ele><time>2026-04-25T09:56:06.992Z</time></trkpt><trkpt lat="44.703505" lon="9.2951717"><ele>556.0</ele><time>2026-04-25T09:56:07.995Z</time></trkpt><trkpt lat="44.70341" lon="9.2950733"><ele>556.0</ele><time>2026-04-25T09:56:08.996Z</time></trkpt><trkpt lat="44.7033033" lon="9.294985"><ele>556.0</ele><time>2026-04-25T09:56:09.994Z</time></trkpt><trkpt lat="44.703185" lon="9.2949083"><ele>556.0</ele><time>2026-04-25T09:56:10.996Z</time></trkpt><trkpt lat="44.70306" lon="9.2948383"><ele>556.0</ele><time>2026-04-25T09:56:11.997Z</time></trkpt><trkpt lat="44.7029333" lon="9.2947883"><ele>556.0</ele><time>2026-04-25T09:56:12.995Z</time></trkpt><trkpt lat="44.7028" lon="9.2947583"><ele>556.0</ele><time>2026-04-25T09:56:13.997Z</time></trkpt><trkpt lat="44.7026683" lon="9.2947517"><ele>556.0</ele><time>2026-04-25T09:56:15.002Z</time></trkpt><trkpt lat="44.7025367" lon="9.29476"><ele>556.0</ele><time>2026-04-25T09:56:15.997Z</time></trkpt><trkpt lat="44.7024017" lon="9.2947883"><ele>555.25</ele><time>2026-04-25T09:56:16.994Z</time></trkpt><trkpt lat="44.7022683" lon="9.2948433"><ele>554.5</ele><time>2026-04-25T09:56:17.999Z</time></trkpt><trkpt lat="44.7021283" lon="9.2949033"><ele>553.75</ele><time>2026-04-25T09:56:18.993Z</time></trkpt><trkpt lat="44.70199" lon="9.294985"><ele>553.0</ele><time>2026-04-25T09:56:19.998Z</time></trkpt><trkpt lat="44.7018533" lon="9.29508"><ele>550.75</ele><time>2026-04-25T09:56:20.995Z</time></trkpt><trkpt lat="44.701725" lon="9.2951917"><ele>548.5</ele><time>2026-04-25T09:56:21.991Z</time></trkpt><trkpt lat="44.7016033" lon="9.2953033"><ele>546.25</ele><time>2026-04-25T09:56:22.997Z</time></trkpt><trkpt lat="44.701485" lon="9.2954133"><ele>544.0</ele><time>2026-04-25T09:56:23.994Z</time></trkpt><trkpt lat="44.7013833" lon="9.295505"><ele>544.0</ele><time>2026-04-25T09:56:24.99Z</time></trkpt><trkpt lat="44.7012883" lon="9.2955717"><ele>544.0</ele><time>2026-04-25T09:56:25.995Z</time></trkpt><trkpt lat="44.701205" lon="9.2955933"><ele>544.0</ele><time>2026-04-25T09:56:26.993Z</time></trkpt><trkpt lat="44.70113" lon="9.29561"><ele>544.0</ele><time>2026-04-25T09:56:27.996Z</time></trkpt><trkpt lat="44.7010617" lon="9.2955883"><ele>544.0</ele><time>2026-04-25T09:56:28.993Z</time></trkpt><trkpt lat="44.7010017" lon="9.2954317"><ele>544.0</ele><time>2026-04-25T09:56:30.994Z</time></trkpt><trkpt lat="44.701025" lon="9.29532"><ele>544.0</ele><time>2026-04-25T09:56:31.995Z</time></trkpt><trkpt lat="44.7011367" lon="9.2952283"><ele>544.0</ele><time>2026-04-25T09:56:32.993Z</time></trkpt><trkpt lat="44.7012217" lon="9.2951483"><ele>544.0</ele><time>2026-04-25T09:56:33.996Z</time></trkpt><trkpt lat="44.701305" lon="9.2950817"><ele>544.0</ele><time>2026-04-25T09:56:34.999Z</time></trkpt><trkpt lat="44.7013783" lon="9.2950033"><ele>544.0</ele><time>2026-04-25T09:56:35.992Z</time></trkpt><trkpt lat="44.701435" lon="9.2949217"><ele>544.0</ele><time>2026-04-25T09:56:36.999Z</time></trkpt><trkpt lat="44.70145" lon="9.2948233"><ele>544.0</ele><time>2026-04-25T09:56:37.993Z</time></trkpt><trkpt lat="44.701425" lon="9.294725"><ele>544.0</ele><time>2026-04-25T09:56:38.998Z</time></trkpt><trkpt lat="44.7013833" lon="9.2946317"><ele>544.0</ele><time>2026-04-25T09:56:39.994Z</time></trkpt><trkpt lat="44.701305" lon="9.2946117"><ele>544.0</ele><time>2026-04-25T09:56:40.999Z</time></trkpt><trkpt lat="44.7012233" lon="9.2946367"><ele>542.6</ele><time>2026-04-25T09:56:41.996Z</time></trkpt><trkpt lat="44.7011383" lon="9.2946817"><ele>541.2</ele><time>2026-04-25T09:56:42.996Z</time></trkpt><trkpt lat="44.7010583" lon="9.2947667"><ele>539.8000000000001</ele><time>2026-04-25T09:56:43.995Z</time></trkpt><trkpt lat="44.7009783" lon="9.294865"><ele>538.4</ele><time>2026-04-25T09:56:44.993Z</time></trkpt><trkpt lat="44.7008983" lon="9.2949633"><ele>537.0</ele><time>2026-04-25T09:56:45.996Z</time></trkpt><trkpt lat="44.7008183" lon="9.2950667"><ele>536.5</ele><time>2026-04-25T09:56:46.995Z</time></trkpt><trkpt lat="44.7007383" lon="9.2951817"><ele>536.0</ele><time>2026-04-25T09:56:47.996Z</time></trkpt><trkpt lat="44.70065" lon="9.2952817"><ele>535.5</ele><time>2026-04-25T09:56:48.994Z</time></trkpt><trkpt lat="44.7005517" lon="9.2953633"><ele>535.0</ele><time>2026-04-25T09:56:49.997Z</time></trkpt><trkpt lat="44.7004417" lon="9.2954317"><ele>535.0</ele><time>2026-04-25T09:56:50.995Z</time></trkpt><trkpt lat="44.7003233" lon="9.2954967"><ele>535.0</ele><time>2026-04-25T09:56:51.998Z</time></trkpt><trkpt lat="44.7002017" lon="9.2955667"><ele>535.0</ele><time>2026-04-25T09:56:52.999Z</time></trkpt><trkpt lat="44.7000783" lon="9.29565"><ele>535.0</ele><time>2026-04-25T09:56:53.991Z</time></trkpt><trkpt lat="44.6999467" lon="9.29573"><ele>533.75</ele><time>2026-04-25T09:56:54.993Z</time></trkpt><trkpt lat="44.6998167" lon="9.295815"><ele>532.5</ele><time>2026-04-25T09:56:55.996Z</time></trkpt><trkpt lat="44.69969" lon="9.2958967"><ele>531.25</ele><time>2026-04-25T09:56:56.997Z</time></trkpt><trkpt lat="44.699565" lon="9.29599"><ele>530.0</ele><time>2026-04-25T09:56:57.996Z</time></trkpt><trkpt lat="44.6994417" lon="9.2960867"><ele>527.75</ele><time>2026-04-25T09:56:58.994Z</time></trkpt><trkpt lat="44.6993267" lon="9.2962"><ele>525.5</ele><time>2026-04-25T09:56:59.998Z</time></trkpt><trkpt lat="44.699215" lon="9.2963283"><ele>523.25</ele><time>2026-04-25T09:57:00.996Z</time></trkpt><trkpt lat="44.6991167" lon="9.2964683"><ele>521.0</ele><time>2026-04-25T09:57:01.996Z</time></trkpt><trkpt lat="44.6990217" lon="9.2966083"><ele>521.0</ele><time>2026-04-25T09:57:02.998Z</time></trkpt><trkpt lat="44.6989283" lon="9.2967517"><ele>521.0</ele><time>2026-04-25T09:57:03.993Z</time></trkpt><trkpt lat="44.6988467" lon="9.2969133"><ele>521.0</ele><time>2026-04-25T09:57:04.995Z</time></trkpt><trkpt lat="44.698775" lon="9.2970883"><ele>521.0</ele><time>2026-04-25T09:57:05.994Z</time></trkpt><trkpt lat="44.69871" lon="9.2972533"><ele>523.4</ele><time>2026-04-25T09:57:06.994Z</time></trkpt><trkpt lat="44.6986483" lon="9.2973867"><ele>525.8</ele><time>2026-04-25T09:57:07.994Z</time></trkpt><trkpt lat="44.6985933" lon="9.297485"><ele>528.1999999999999</ele><time>2026-04-25T09:57:08.997Z</time></trkpt><trkpt lat="44.6985233" lon="9.2975433"><ele>530.6</ele><time>2026-04-25T09:57:10.003Z</time></trkpt><trkpt lat="44.6984383" lon="9.297555"><ele>533.0</ele><time>2026-04-25T09:57:10.994Z</time></trkpt><trkpt lat="44.6983417" lon="9.2975417"><ele>527.6</ele><time>2026-04-25T09:57:11.995Z</time></trkpt><trkpt lat="44.698235" lon="9.29748"><ele>522.1999999999999</ele><time>2026-04-25T09:57:12.993Z</time></trkpt><trkpt lat="44.6981333" lon="9.2974267"><ele>516.8</ele><time>2026-04-25T09:57:13.994Z</time></trkpt><trkpt lat="44.69803" lon="9.297375"><ele>511.4</ele><time>2026-04-25T09:57:14.997Z</time></trkpt><trkpt lat="44.6979317" lon="9.2973783"><ele>506.0</ele><time>2026-04-25T09:57:15.998Z</time></trkpt><trkpt lat="44.6978283" lon="9.2973517"><ele>504.0</ele><time>2026-04-25T09:57:16.994Z</time></trkpt><trkpt lat="44.697725" lon="9.297335"><ele>502.0</ele><time>2026-04-25T09:57:17.996Z</time></trkpt><trkpt lat="44.697635" lon="9.297375"><ele>500.0</ele><time>2026-04-25T09:57:19Z</time></trkpt><trkpt lat="44.6975483" lon="9.2974367"><ele>498.0</ele><time>2026-04-25T09:57:19.994Z</time></trkpt><trkpt lat="44.6974633" lon="9.2975167"><ele>496.0</ele><time>2026-04-25T09:57:20.995Z</time></trkpt><trkpt lat="44.69738" lon="9.2976117"><ele>496.0</ele><time>2026-04-25T09:57:22Z</time></trkpt><trkpt lat="44.6972917" lon="9.2977167"><ele>496.0</ele><time>2026-04-25T09:57:22.996Z</time></trkpt><trkpt lat="44.697205" lon="9.2978333"><ele>496.0</ele><time>2026-04-25T09:57:23.995Z</time></trkpt><trkpt lat="44.69712" lon="9.297955"><ele>496.0</ele><time>2026-04-25T09:57:24.992Z</time></trkpt><trkpt lat="44.697045" lon="9.2980883"><ele>496.8</ele><time>2026-04-25T09:57:25.999Z</time></trkpt><trkpt lat="44.6969833" lon="9.2982283"><ele>497.6</ele><time>2026-04-25T09:57:27.002Z</time></trkpt><trkpt lat="44.6969383" lon="9.2983583"><ele>498.4</ele><time>2026-04-25T09:57:27.994Z</time></trkpt><trkpt lat="44.6969183" lon="9.298495"><ele>499.2</ele><time>2026-04-25T09:57:28.994Z</time></trkpt><trkpt lat="44.6969217" lon="9.2986333"><ele>500.0</ele><time>2026-04-25T09:57:29.993Z</time></trkpt><trkpt lat="44.6969283" lon="9.2987683"><ele>500.0</ele><time>2026-04-25T09:57:30.993Z</time></trkpt><trkpt lat="44.6969267" lon="9.298895"><ele>500.0</ele><time>2026-04-25T09:57:31.991Z</time></trkpt><trkpt lat="44.6968917" lon="9.29901"><ele>500.0</ele><time>2026-04-25T09:57:32.996Z</time></trkpt><trkpt lat="44.696835" lon="9.2991383"><ele>500.0</ele><time>2026-04-25T09:57:33.996Z</time></trkpt><trkpt lat="44.6967733" lon="9.29927"><ele>500.0</ele><time>2026-04-25T09:57:34.995Z</time></trkpt><trkpt lat="44.6967183" lon="9.2994033"><ele>496.8</ele><time>2026-04-25T09:57:35.992Z</time></trkpt><trkpt lat="44.696675" lon="9.2995467"><ele>493.6</ele><time>2026-04-25T09:57:36.995Z</time></trkpt><trkpt lat="44.6966417" lon="9.2997"><ele>490.4</ele><time>2026-04-25T09:57:37.994Z</time></trkpt><trkpt lat="44.6966167" lon="9.2998517"><ele>487.2</ele><time>2026-04-25T09:57:38.997Z</time></trkpt><trkpt lat="44.6965917" lon="9.2999967"><ele>484.0</ele><time>2026-04-25T09:57:39.995Z</time></trkpt><trkpt lat="44.6965617" lon="9.30012"><ele>484.0</ele><time>2026-04-25T09:57:40.992Z</time></trkpt><trkpt lat="44.69652" lon="9.3002267"><ele>484.0</ele><time>2026-04-25T09:57:41.993Z</time></trkpt><trkpt lat="44.6964483" lon="9.30028"><ele>484.0</ele><time>2026-04-25T09:57:42.995Z</time></trkpt><trkpt lat="44.69637" lon="9.3003133"><ele>484.0</ele><time>2026-04-25T09:57:43.994Z</time></trkpt><trkpt lat="44.696275" lon="9.300325"><ele>484.0</ele><time>2026-04-25T09:57:44.996Z</time></trkpt><trkpt lat="44.6961733" lon="9.3003633"><ele>483.5</ele><time>2026-04-25T09:57:45.993Z</time></trkpt><trkpt lat="44.6960617" lon="9.3004167"><ele>483.0</ele><time>2026-04-25T09:57:47Z</time></trkpt><trkpt lat="44.69595" lon="9.300485"><ele>482.5</ele><time>2026-04-25T09:57:47.995Z</time></trkpt><trkpt lat="44.6958367" lon="9.3005467"><ele>482.0</ele><time>2026-04-25T09:57:48.996Z</time></trkpt><trkpt lat="44.6957217" lon="9.3006217"><ele>482.0</ele><time>2026-04-25T09:57:50.002Z</time></trkpt><trkpt lat="44.695605" lon="9.300695"><ele>482.0</ele><time>2026-04-25T09:57:50.995Z</time></trkpt><trkpt lat="44.6954833" lon="9.300765"><ele>482.0</ele><time>2026-04-25T09:57:51.996Z</time></trkpt><trkpt lat="44.6953583" lon="9.3008317"><ele>482.0</ele><time>2026-04-25T09:57:52.999Z</time></trkpt><trkpt lat="44.6952317" lon="9.300885"><ele>478.0</ele><time>2026-04-25T09:57:53.997Z</time></trkpt><trkpt lat="44.69511" lon="9.3009067"><ele>474.0</ele><time>2026-04-25T09:57:54.995Z</time></trkpt><trkpt lat="44.694985" lon="9.3008933"><ele>470.0</ele><time>2026-04-25T09:57:56Z</time></trkpt><trkpt lat="44.6948717" lon="9.3008483"><ele>466.0</ele><time>2026-04-25T09:57:56.998Z</time></trkpt><trkpt lat="44.6947733" lon="9.3008067"><ele>466.0</ele><time>2026-04-25T09:57:57.995Z</time></trkpt><trkpt lat="44.694675" lon="9.300795"><ele>466.0</ele><time>2026-04-25T09:57:58.993Z</time></trkpt><trkpt lat="44.694575" lon="9.3008283"><ele>466.0</ele><time>2026-04-25T09:58:00.001Z</time></trkpt><trkpt lat="44.69448" lon="9.3009033"><ele>466.0</ele><time>2026-04-25T09:58:00.995Z</time></trkpt><trkpt lat="44.69439" lon="9.3009967"><ele>466.0</ele><time>2026-04-25T09:58:01.996Z</time></trkpt><trkpt lat="44.6943083" lon="9.3011133"><ele>464.75</ele><time>2026-04-25T09:58:03Z</time></trkpt><trkpt lat="44.6942233" lon="9.3012233"><ele>463.5</ele><time>2026-04-25T09:58:03.994Z</time></trkpt><trkpt lat="44.6941317" lon="9.301325"><ele>462.25</ele><time>2026-04-25T09:58:04.997Z</time></trkpt><trkpt lat="44.6940317" lon="9.301415"><ele>461.0</ele><time>2026-04-25T09:58:05.997Z</time></trkpt><trkpt lat="44.6939283" lon="9.3014933"><ele>461.0</ele><time>2026-04-25T09:58:06.996Z</time></trkpt><trkpt lat="44.6938267" lon="9.3015833"><ele>461.0</ele><time>2026-04-25T09:58:07.999Z</time></trkpt><trkpt lat="44.69373" lon="9.3016533"><ele>461.0</ele><time>2026-04-25T09:58:09Z</time></trkpt><trkpt lat="44.693635" lon="9.30169"><ele>461.0</ele><time>2026-04-25T09:58:09.993Z</time></trkpt><trkpt lat="44.6935483" lon="9.301685"><ele>461.0</ele><time>2026-04-25T09:58:10.995Z</time></trkpt><trkpt lat="44.6934683" lon="9.30163"><ele>460.0</ele><time>2026-04-25T09:58:11.995Z</time></trkpt><trkpt lat="44.6933883" lon="9.3015733"><ele>459.0</ele><time>2026-04-25T09:58:12.998Z</time></trkpt><trkpt lat="44.6933167" lon="9.3014717"><ele>458.0</ele><time>2026-04-25T09:58:13.994Z</time></trkpt><trkpt lat="44.693255" lon="9.301315"><ele>457.0</ele><time>2026-04-25T09:58:14.994Z</time></trkpt><trkpt lat="44.6931817" lon="9.3011983"><ele>456.0</ele><time>2026-04-25T09:58:15.996Z</time></trkpt><trkpt lat="44.693105" lon="9.3011083"><ele>451.4</ele><time>2026-04-25T09:58:16.995Z</time></trkpt><trkpt lat="44.6930267" lon="9.3010567"><ele>446.8</ele><time>2026-04-25T09:58:17.999Z</time></trkpt><trkpt lat="44.6929433" lon="9.3010633"><ele>442.19999999999993</ele><time>2026-04-25T09:58:18.992Z</time></trkpt><trkpt lat="44.692865" lon="9.3011183"><ele>437.59999999999997</ele><time>2026-04-25T09:58:19.999Z</time></trkpt><trkpt lat="44.6927933" lon="9.3012117"><ele>433.0</ele><time>2026-04-25T09:58:20.991Z</time></trkpt><trkpt lat="44.6927183" lon="9.3013217"><ele>434.25</ele><time>2026-04-25T09:58:21.993Z</time></trkpt><trkpt lat="44.6926417" lon="9.3014367"><ele>435.5</ele><time>2026-04-25T09:58:22.993Z</time></trkpt><trkpt lat="44.6925617" lon="9.30155"><ele>436.75</ele><time>2026-04-25T09:58:24Z</time></trkpt><trkpt lat="44.6924733" lon="9.3016617"><ele>438.0</ele><time>2026-04-25T09:58:24.997Z</time></trkpt><trkpt lat="44.6923833" lon="9.3017733"><ele>438.0</ele><time>2026-04-25T09:58:25.996Z</time></trkpt><trkpt lat="44.6922833" lon="9.3018767"><ele>438.0</ele><time>2026-04-25T09:58:27Z</time></trkpt><trkpt lat="44.6921783" lon="9.301975"><ele>438.0</ele><time>2026-04-25T09:58:27.998Z</time></trkpt><trkpt lat="44.6920667" lon="9.3020667"><ele>438.0</ele><time>2026-04-25T09:58:28.995Z</time></trkpt><trkpt lat="44.6919467" lon="9.3021317"><ele>436.0</ele><time>2026-04-25T09:58:29.994Z</time></trkpt><trkpt lat="44.6918333" lon="9.302205"><ele>434.0</ele><time>2026-04-25T09:58:30.995Z</time></trkpt><trkpt lat="44.6917217" lon="9.3023017"><ele>432.0</ele><time>2026-04-25T09:58:31.994Z</time></trkpt><trkpt lat="44.6916217" lon="9.3024117"><ele>430.0</ele><time>2026-04-25T09:58:33.003Z</time></trkpt><trkpt lat="44.6915417" lon="9.3025383"><ele>430.0</ele><time>2026-04-25T09:58:33.994Z</time></trkpt><trkpt lat="44.6914667" lon="9.30267"><ele>430.0</ele><time>2026-04-25T09:58:34.993Z</time></trkpt><trkpt lat="44.6913983" lon="9.30281"><ele>430.0</ele><time>2026-04-25T09:58:35.998Z</time></trkpt><trkpt lat="44.6913383" lon="9.3029533"><ele>430.0</ele><time>2026-04-25T09:58:36.994Z</time></trkpt><trkpt lat="44.691275" lon="9.3030917"><ele>428.0</ele><time>2026-04-25T09:58:37.997Z</time></trkpt><trkpt lat="44.69121" lon="9.3032133"><ele>426.0</ele><time>2026-04-25T09:58:39Z</time></trkpt><trkpt lat="44.6911283" lon="9.303305"><ele>424.0</ele><time>2026-04-25T09:58:39.995Z</time></trkpt><trkpt lat="44.691025" lon="9.30334"><ele>422.0</ele><time>2026-04-25T09:58:40.992Z</time></trkpt><trkpt lat="44.6909183" lon="9.3033667"><ele>420.0</ele><time>2026-04-25T09:58:41.992Z</time></trkpt><trkpt lat="44.6908033" lon="9.30337"><ele>420.0</ele><time>2026-04-25T09:58:42.996Z</time></trkpt><trkpt lat="44.690695" lon="9.30337"><ele>420.0</ele><time>2026-04-25T09:58:43.993Z</time></trkpt><trkpt lat="44.6906" lon="9.3033767"><ele>420.0</ele><time>2026-04-25T09:58:44.997Z</time></trkpt><trkpt lat="44.6905017" lon="9.30338"><ele>420.0</ele><time>2026-04-25T09:58:45.992Z</time></trkpt><trkpt lat="44.6904117" lon="9.3034"><ele>420.0</ele><time>2026-04-25T09:58:46.996Z</time></trkpt><trkpt lat="44.69033" lon="9.3034483"><ele>420.0</ele><time>2026-04-25T09:58:47.994Z</time></trkpt><trkpt lat="44.6902583" lon="9.3035167"><ele>420.0</ele><time>2026-04-25T09:58:48.993Z</time></trkpt><trkpt lat="44.6902" lon="9.303605"><ele>420.0</ele><time>2026-04-25T09:58:49.995Z</time></trkpt><trkpt lat="44.6901517" lon="9.3036883"><ele>420.0</ele><time>2026-04-25T09:58:50.997Z</time></trkpt><trkpt lat="44.6901033" lon="9.3037533"><ele>420.0</ele><time>2026-04-25T09:58:51.997Z</time></trkpt><trkpt lat="44.6900083" lon="9.3037933"><ele>420.0</ele><time>2026-04-25T09:58:53.993Z</time></trkpt><trkpt lat="44.6899217" lon="9.303725"><ele>418.3333333333333</ele><time>2026-04-25T09:58:55.993Z</time></trkpt><trkpt lat="44.689935" lon="9.3035933"><ele>416.66666666666663</ele><time>2026-04-25T09:58:57.994Z</time></trkpt><trkpt lat="44.689965" lon="9.3034983"><ele>415.0</ele><time>2026-04-25T09:58:58.993Z</time></trkpt><trkpt lat="44.6900233" lon="9.303425"><ele>413.3333333333333</ele><time>2026-04-25T09:58:59.995Z</time></trkpt><trkpt lat="44.690105" lon="9.303365"><ele>411.66666666666663</ele><time>2026-04-25T09:59:00.995Z</time></trkpt><trkpt lat="44.6901617" lon="9.3033017"><ele>410.0</ele><time>2026-04-25T09:59:01.993Z</time></trkpt><trkpt lat="44.690205" lon="9.3032217"><ele>409.99999999999994</ele><time>2026-04-25T09:59:03.002Z</time></trkpt><trkpt lat="44.6902183" lon="9.3031333"><ele>410.0</ele><time>2026-04-25T09:59:03.995Z</time></trkpt><trkpt lat="44.690175" lon="9.3029717"><ele>410.0</ele><time>2026-04-25T09:59:05.991Z</time></trkpt><trkpt lat="44.6901083" lon="9.3029583"><ele>410.0</ele><time>2026-04-25T09:59:06.994Z</time></trkpt><trkpt lat="44.690045" lon="9.302985"><ele>409.99999999999994</ele><time>2026-04-25T09:59:07.997Z</time></trkpt><trkpt lat="44.6899817" lon="9.30304"><ele>410.0</ele><time>2026-04-25T09:59:08.993Z</time></trkpt><trkpt lat="44.68992" lon="9.3031167"><ele>409.99999999999994</ele><time>2026-04-25T09:59:09.998Z</time></trkpt><trkpt lat="44.6898567" lon="9.3031967"><ele>410.0</ele><time>2026-04-25T09:59:10.998Z</time></trkpt><trkpt lat="44.6897983" lon="9.3032817"><ele>410.0</ele><time>2026-04-25T09:59:12Z</time></trkpt><trkpt lat="44.68974" lon="9.3033717"><ele>410.0</ele><time>2026-04-25T09:59:12.993Z</time></trkpt><trkpt lat="44.6896767" lon="9.3034633"><ele>409.99999999999994</ele><time>2026-04-25T09:59:13.998Z</time></trkpt><trkpt lat="44.68961" lon="9.30356"><ele>410.0</ele><time>2026-04-25T09:59:14.996Z</time></trkpt><trkpt lat="44.6895417" lon="9.3036567"><ele>410.0</ele><time>2026-04-25T09:59:15.998Z</time></trkpt><trkpt lat="44.689475" lon="9.3037517"><ele>410.0</ele><time>2026-04-25T09:59:16.995Z</time></trkpt><trkpt lat="44.6894083" lon="9.3038533"><ele>410.0</ele><time>2026-04-25T09:59:17.995Z</time></trkpt><trkpt lat="44.689355" lon="9.30396"><ele>410.0</ele><time>2026-04-25T09:59:18.994Z</time></trkpt><trkpt lat="44.6893183" lon="9.304075"><ele>410.0</ele><time>2026-04-25T09:59:19.993Z</time></trkpt><trkpt lat="44.6892883" lon="9.3041867"><ele>407.99999999999994</ele><time>2026-04-25T09:59:20.997Z</time></trkpt><trkpt lat="44.689265" lon="9.3042917"><ele>406.0</ele><time>2026-04-25T09:59:21.996Z</time></trkpt><trkpt lat="44.6892433" lon="9.3044017"><ele>404.0</ele><time>2026-04-25T09:59:22.996Z</time></trkpt><trkpt lat="44.689215" lon="9.304515"><ele>402.0</ele><time>2026-04-25T09:59:23.995Z</time></trkpt><trkpt lat="44.6891783" lon="9.30463"><ele>399.99999999999994</ele><time>2026-04-25T09:59:24.995Z</time></trkpt><trkpt lat="44.6891367" lon="9.3047517"><ele>398.0</ele><time>2026-04-25T09:59:26.002Z</time></trkpt><trkpt lat="44.689095" lon="9.3048567"><ele>397.99999999999994</ele><time>2026-04-25T09:59:26.991Z</time></trkpt><trkpt lat="44.6890467" lon="9.30495"><ele>398.0</ele><time>2026-04-25T09:59:27.993Z</time></trkpt><trkpt lat="44.6890017" lon="9.305045"><ele>398.0</ele><time>2026-04-25T09:59:28.998Z</time></trkpt><trkpt lat="44.6889733" lon="9.3051517"><ele>398.0</ele><time>2026-04-25T09:59:29.992Z</time></trkpt><trkpt lat="44.68895" lon="9.305265"><ele>397.99999999999994</ele><time>2026-04-25T09:59:30.996Z</time></trkpt><trkpt lat="44.688935" lon="9.30538"><ele>398.0</ele><time>2026-04-25T09:59:31.996Z</time></trkpt><trkpt lat="44.68892" lon="9.3055067"><ele>398.99999999999994</ele><time>2026-04-25T09:59:32.999Z</time></trkpt><trkpt lat="44.6889" lon="9.30563"><ele>400.0</ele><time>2026-04-25T09:59:34Z</time></trkpt><trkpt lat="44.6888783" lon="9.3057567"><ele>401.0</ele><time>2026-04-25T09:59:34.998Z</time></trkpt><trkpt lat="44.68885" lon="9.3058817"><ele>402.0</ele><time>2026-04-25T09:59:35.994Z</time></trkpt><trkpt lat="44.6888133" lon="9.30599"><ele>402.99999999999994</ele><time>2026-04-25T09:59:36.997Z</time></trkpt><trkpt lat="44.6887817" lon="9.3060917"><ele>404.0</ele><time>2026-04-25T09:59:37.993Z</time></trkpt><trkpt lat="44.688745" lon="9.3061967"><ele>403.99999999999994</ele><time>2026-04-25T09:59:39Z</time></trkpt><trkpt lat="44.6887" lon="9.3062933"><ele>404.0</ele><time>2026-04-25T09:59:39.99Z</time></trkpt><trkpt lat="44.6886433" lon="9.306375"><ele>404.0</ele><time>2026-04-25T09:59:40.994Z</time></trkpt><trkpt lat="44.6885817" lon="9.3064467"><ele>404.0</ele><time>2026-04-25T09:59:41.994Z</time></trkpt><trkpt lat="44.6885133" lon="9.3064967"><ele>403.99999999999994</ele><time>2026-04-25T09:59:42.994Z</time></trkpt><trkpt lat="44.6884433" lon="9.30653"><ele>404.0</ele><time>2026-04-25T09:59:43.995Z</time></trkpt><trkpt lat="44.6883617" lon="9.30652"><ele>401.3333333333333</ele><time>2026-04-25T09:59:44.992Z</time></trkpt><trkpt lat="44.6882767" lon="9.3065033"><ele>398.66666666666663</ele><time>2026-04-25T09:59:45.993Z</time></trkpt><trkpt lat="44.6881967" lon="9.3064883"><ele>396.0</ele><time>2026-04-25T09:59:46.998Z</time></trkpt><trkpt lat="44.688125" lon="9.306465"><ele>393.33333333333337</ele><time>2026-04-25T09:59:47.993Z</time></trkpt><trkpt lat="44.68806" lon="9.30645"><ele>390.6666666666667</ele><time>2026-04-25T09:59:48.997Z</time></trkpt><trkpt lat="44.6879367" lon="9.30642"><ele>388.0</ele><time>2026-04-25T09:59:50.996Z</time></trkpt><trkpt lat="44.687815" lon="9.3064133"><ele>390.2</ele><time>2026-04-25T09:59:52.996Z</time></trkpt><trkpt lat="44.6877117" lon="9.3064817"><ele>392.4</ele><time>2026-04-25T09:59:54.993Z</time></trkpt><trkpt lat="44.6876533" lon="9.3066083"><ele>394.59999999999997</ele><time>2026-04-25T09:59:56.996Z</time></trkpt><trkpt lat="44.68763" lon="9.30675"><ele>396.79999999999995</ele><time>2026-04-25T09:59:58.996Z</time></trkpt><trkpt lat="44.6875867" lon="9.3068767"><ele>399.0</ele><time>2026-04-25T10:00:00.994Z</time></trkpt><trkpt lat="44.687515" lon="9.3069767"><ele>399.0</ele><time>2026-04-25T10:00:03.002Z</time></trkpt><trkpt lat="44.6874483" lon="9.3070183"><ele>399.0</ele><time>2026-04-25T10:00:03.995Z</time></trkpt><trkpt lat="44.687375" lon="9.3070483"><ele>399.0</ele><time>2026-04-25T10:00:04.993Z</time></trkpt><trkpt lat="44.687305" lon="9.30709"><ele>399.0</ele><time>2026-04-25T10:00:05.995Z</time></trkpt><trkpt lat="44.687235" lon="9.3071367"><ele>399.0</ele><time>2026-04-25T10:00:06.996Z</time></trkpt><trkpt lat="44.68717" lon="9.307195"><ele>399.0</ele><time>2026-04-25T10:00:07.994Z</time></trkpt><trkpt lat="44.68712" lon="9.307265"><ele>397.79999999999995</ele><time>2026-04-25T10:00:08.997Z</time></trkpt><trkpt lat="44.6870717" lon="9.3073533"><ele>396.59999999999997</ele><time>2026-04-25T10:00:09.994Z</time></trkpt><trkpt lat="44.687025" lon="9.3074233"><ele>395.4</ele><time>2026-04-25T10:00:10.993Z</time></trkpt><trkpt lat="44.6869383" lon="9.3075283"><ele>394.2</ele><time>2026-04-25T10:00:12.996Z</time></trkpt><trkpt lat="44.6868533" lon="9.3074633"><ele>393.0</ele><time>2026-04-25T10:00:14.999Z</time></trkpt><trkpt lat="44.6868217" lon="9.30732"><ele>394.2</ele><time>2026-04-25T10:00:16.995Z</time></trkpt><trkpt lat="44.68689" lon="9.3072017"><ele>395.4</ele><time>2026-04-25T10:00:17.996Z</time></trkpt><trkpt lat="44.6869467" lon="9.3071083"><ele>396.59999999999997</ele><time>2026-04-25T10:00:18.996Z</time></trkpt><trkpt lat="44.687025" lon="9.3070283"><ele>397.79999999999995</ele><time>2026-04-25T10:00:19.994Z</time></trkpt><trkpt lat="44.68711" lon="9.3069533"><ele>399.0</ele><time>2026-04-25T10:00:20.994Z</time></trkpt><trkpt lat="44.6871733" lon="9.306875"><ele>399.0</ele><time>2026-04-25T10:00:21.997Z</time></trkpt><trkpt lat="44.687225" lon="9.306795"><ele>399.0</ele><time>2026-04-25T10:00:22.995Z</time></trkpt><trkpt lat="44.6872767" lon="9.3067033"><ele>399.0</ele><time>2026-04-25T10:00:23.994Z</time></trkpt><trkpt lat="44.6873" lon="9.3066017"><ele>399.0</ele><time>2026-04-25T10:00:24.997Z</time></trkpt><trkpt lat="44.6873117" lon="9.3064833"><ele>399.0</ele><time>2026-04-25T10:00:25.993Z</time></trkpt><trkpt lat="44.6873167" lon="9.306355"><ele>399.0</ele><time>2026-04-25T10:00:26.994Z</time></trkpt><trkpt lat="44.6873283" lon="9.306125"><ele>401.66666666666663</ele><time>2026-04-25T10:00:27.996Z</time></trkpt><trkpt lat="44.6873667" lon="9.3058817"><ele>404.3333333333333</ele><time>2026-04-25T10:00:28.994Z</time></trkpt><trkpt lat="44.6874" lon="9.3056517"><ele>407.0</ele><time>2026-04-25T10:00:29.992Z</time></trkpt><trkpt lat="44.6874283" lon="9.3054233"><ele>407.25</ele><time>2026-04-25T10:00:30.995Z</time></trkpt><trkpt lat="44.6874467" lon="9.305205"><ele>407.5</ele><time>2026-04-25T10:00:31.995Z</time></trkpt><trkpt lat="44.6874517" lon="9.3050017"><ele>407.75</ele><time>2026-04-25T10:00:32.994Z</time></trkpt><trkpt lat="44.6874567" lon="9.304815"><ele>408.0</ele><time>2026-04-25T10:00:33.994Z</time></trkpt><trkpt lat="44.6874517" lon="9.3046567"><ele>408.0</ele><time>2026-04-25T10:00:34.995Z</time></trkpt><trkpt lat="44.6874367" lon="9.3045167"><ele>408.0</ele><time>2026-04-25T10:00:35.995Z</time></trkpt><trkpt lat="44.6873917" lon="9.3043867"><ele>408.0</ele><time>2026-04-25T10:00:36.997Z</time></trkpt><trkpt lat="44.68733" lon="9.3042683"><ele>408.0</ele><time>2026-04-25T10:00:37.995Z</time></trkpt><trkpt lat="44.6872417" lon="9.304155"><ele>408.0</ele><time>2026-04-25T10:00:38.995Z</time></trkpt><trkpt lat="44.687145" lon="9.30404"><ele>408.0</ele><time>2026-04-25T10:00:40.002Z</time></trkpt><trkpt lat="44.6870483" lon="9.3039283"><ele>408.0</ele><time>2026-04-25T10:00:40.996Z</time></trkpt><trkpt lat="44.6869433" lon="9.3038317"><ele>408.0</ele><time>2026-04-25T10:00:41.994Z</time></trkpt><trkpt lat="44.6868333" lon="9.3037583"><ele>408.0</ele><time>2026-04-25T10:00:43.002Z</time></trkpt><trkpt lat="44.6867117" lon="9.3037133"><ele>408.75</ele><time>2026-04-25T10:00:43.995Z</time></trkpt><trkpt lat="44.6865817" lon="9.3037"><ele>409.5</ele><time>2026-04-25T10:00:44.997Z</time></trkpt><trkpt lat="44.6864483" lon="9.3037233"><ele>410.25</ele><time>2026-04-25T10:00:45.993Z</time></trkpt><trkpt lat="44.6863167" lon="9.303775"><ele>411.0</ele><time>2026-04-25T10:00:46.992Z</time></trkpt><trkpt lat="44.6861917" lon="9.303865"><ele>416.25</ele><time>2026-04-25T10:00:47.993Z</time></trkpt><trkpt lat="44.6860567" lon="9.30394"><ele>421.5</ele><time>2026-04-25T10:00:48.996Z</time></trkpt><trkpt lat="44.685925" lon="9.3040183"><ele>426.75</ele><time>2026-04-25T10:00:49.996Z</time></trkpt><trkpt lat="44.6857917" lon="9.3040867"><ele>432.0</ele><time>2026-04-25T10:00:50.997Z</time></trkpt><trkpt lat="44.6856583" lon="9.30414"><ele>432.0</ele><time>2026-04-25T10:00:51.996Z</time></trkpt><trkpt lat="44.68553" lon="9.3041617"><ele>432.0</ele><time>2026-04-25T10:00:52.993Z</time></trkpt><trkpt lat="44.6854083" lon="9.304145"><ele>432.0</ele><time>2026-04-25T10:00:53.995Z</time></trkpt><trkpt lat="44.6852933" lon="9.3040933"><ele>432.0</ele><time>2026-04-25T10:00:55Z</time></trkpt><trkpt lat="44.6851817" lon="9.3040317"><ele>431.0</ele><time>2026-04-25T10:00:55.993Z</time></trkpt><trkpt lat="44.6850733" lon="9.3039567"><ele>430.00000000000006</ele><time>2026-04-25T10:00:57.003Z</time></trkpt><trkpt lat="44.6849817" lon="9.3038883"><ele>429.00000000000006</ele><time>2026-04-25T10:00:57.996Z</time></trkpt><trkpt lat="44.6848983" lon="9.3038583"><ele>428.0</ele><time>2026-04-25T10:00:58.996Z</time></trkpt><trkpt lat="44.684825" lon="9.303875"><ele>427.0</ele><time>2026-04-25T10:00:59.993Z</time></trkpt><trkpt lat="44.684765" lon="9.303915"><ele>429.1666666666667</ele><time>2026-04-25T10:01:00.994Z</time></trkpt><trkpt lat="44.6847517" lon="9.3040167"><ele>431.33333333333337</ele><time>2026-04-25T10:01:02.004Z</time></trkpt><trkpt lat="44.68477" lon="9.304115"><ele>433.5</ele><time>2026-04-25T10:01:02.993Z</time></trkpt><trkpt lat="44.684805" lon="9.3042067"><ele>435.66666666666663</ele><time>2026-04-25T10:01:03.999Z</time></trkpt><trkpt lat="44.68486" lon="9.3042733"><ele>437.8333333333333</ele><time>2026-04-25T10:01:04.996Z</time></trkpt><trkpt lat="44.6849767" lon="9.3042967"><ele>440.0</ele><time>2026-04-25T10:01:05.993Z</time></trkpt><trkpt lat="44.6850933" lon="9.3043333"><ele>440.0</ele><time>2026-04-25T10:01:06.998Z</time></trkpt><trkpt lat="44.6852083" lon="9.3043967"><ele>440.0</ele><time>2026-04-25T10:01:08.003Z</time></trkpt><trkpt lat="44.68532" lon="9.304475"><ele>440.0</ele><time>2026-04-25T10:01:08.998Z</time></trkpt><trkpt lat="44.685425" lon="9.3045767"><ele>440.0</ele><time>2026-04-25T10:01:09.998Z</time></trkpt><trkpt lat="44.68552" lon="9.304695"><ele>440.8</ele><time>2026-04-25T10:01:10.995Z</time></trkpt><trkpt lat="44.6856083" lon="9.3048017"><ele>441.6</ele><time>2026-04-25T10:01:11.994Z</time></trkpt><trkpt lat="44.6856783" lon="9.304905"><ele>442.4</ele><time>2026-04-25T10:01:12.999Z</time></trkpt><trkpt lat="44.685715" lon="9.3050267"><ele>443.2</ele><time>2026-04-25T10:01:13.992Z</time></trkpt><trkpt lat="44.6857283" lon="9.3051667"><ele>444.0</ele><time>2026-04-25T10:01:14.995Z</time></trkpt><trkpt lat="44.6857267" lon="9.305325"><ele>444.0</ele><time>2026-04-25T10:01:15.996Z</time></trkpt><trkpt lat="44.6857233" lon="9.3055083"><ele>444.0</ele><time>2026-04-25T10:01:16.993Z</time></trkpt><trkpt lat="44.6857267" lon="9.3057083"><ele>444.0</ele><time>2026-04-25T10:01:17.997Z</time></trkpt><trkpt lat="44.685745" lon="9.3059117"><ele>444.0</ele><time>2026-04-25T10:01:18.996Z</time></trkpt><trkpt lat="44.6857683" lon="9.3061083"><ele>446.5</ele><time>2026-04-25T10:01:19.996Z</time></trkpt><trkpt lat="44.685785" lon="9.3062983"><ele>449.0</ele><time>2026-04-25T10:01:20.994Z</time></trkpt><trkpt lat="44.6857867" lon="9.3064767"><ele>451.5</ele><time>2026-04-25T10:01:22.003Z</time></trkpt><trkpt lat="44.6857783" lon="9.3066333"><ele>454.0</ele><time>2026-04-25T10:01:22.994Z</time></trkpt><trkpt lat="44.6857583" lon="9.3067717"><ele>454.00000000000006</ele><time>2026-04-25T10:01:23.994Z</time></trkpt><trkpt lat="44.685725" lon="9.306875"><ele>454.0</ele><time>2026-04-25T10:01:24.993Z</time></trkpt><trkpt lat="44.6856833" lon="9.3069583"><ele>454.0</ele><time>2026-04-25T10:01:25.996Z</time></trkpt><trkpt lat="44.6856" lon="9.3069717"><ele>454.0</ele><time>2026-04-25T10:01:26.997Z</time></trkpt><trkpt lat="44.68551" lon="9.3069833"><ele>454.00000000000006</ele><time>2026-04-25T10:01:27.998Z</time></trkpt><trkpt lat="44.6854183" lon="9.307025"><ele>454.0</ele><time>2026-04-25T10:01:28.996Z</time></trkpt><trkpt lat="44.6853083" lon="9.307085"><ele>458.25</ele><time>2026-04-25T10:01:29.996Z</time></trkpt><trkpt lat="44.6852" lon="9.3071817"><ele>462.5</ele><time>2026-04-25T10:01:30.994Z</time></trkpt><trkpt lat="44.6851133" lon="9.307295"><ele>466.75</ele><time>2026-04-25T10:01:31.996Z</time></trkpt><trkpt lat="44.6850383" lon="9.3074267"><ele>471.0</ele><time>2026-04-25T10:01:32.998Z</time></trkpt><trkpt lat="44.684985" lon="9.30758"><ele>471.0</ele><time>2026-04-25T10:01:33.995Z</time></trkpt><trkpt lat="44.6849417" lon="9.3077367"><ele>471.0</ele><time>2026-04-25T10:01:34.995Z</time></trkpt><trkpt lat="44.6848933" lon="9.30789"><ele>471.0</ele><time>2026-04-25T10:01:35.995Z</time></trkpt><trkpt lat="44.6848417" lon="9.30802"><ele>471.0</ele><time>2026-04-25T10:01:36.999Z</time></trkpt><trkpt lat="44.6847783" lon="9.3081217"><ele>471.0</ele><time>2026-04-25T10:01:37.997Z</time></trkpt><trkpt lat="44.6847117" lon="9.3081917"><ele>470.4</ele><time>2026-04-25T10:01:38.994Z</time></trkpt><trkpt lat="44.684635" lon="9.3081983"><ele>469.8</ele><time>2026-04-25T10:01:39.995Z</time></trkpt><trkpt lat="44.6845517" lon="9.3081683"><ele>469.19999999999993</ele><time>2026-04-25T10:01:41Z</time></trkpt><trkpt lat="44.68446" lon="9.3081233"><ele>468.59999999999997</ele><time>2026-04-25T10:01:42Z</time></trkpt><trkpt lat="44.6843517" lon="9.308045"><ele>468.0</ele><time>2026-04-25T10:01:42.999Z</time></trkpt><trkpt lat="44.6842467" lon="9.3079733"><ele>470.79999999999995</ele><time>2026-04-25T10:01:43.992Z</time></trkpt><trkpt lat="44.6841517" lon="9.3079167"><ele>473.59999999999997</ele><time>2026-04-25T10:01:45Z</time></trkpt><trkpt lat="44.6840583" lon="9.3078917"><ele>476.40000000000003</ele><time>2026-04-25T10:01:46Z</time></trkpt><trkpt lat="44.6839683" lon="9.3079"><ele>479.20000000000005</ele><time>2026-04-25T10:01:46.995Z</time></trkpt><trkpt lat="44.6839033" lon="9.30797"><ele>482.0</ele><time>2026-04-25T10:01:47.996Z</time></trkpt><trkpt lat="44.6838433" lon="9.30805"><ele>481.16666666666663</ele><time>2026-04-25T10:01:48.997Z</time></trkpt><trkpt lat="44.683795" lon="9.3081433"><ele>480.3333333333333</ele><time>2026-04-25T10:01:49.996Z</time></trkpt><trkpt lat="44.683745" lon="9.308245"><ele>479.5</ele><time>2026-04-25T10:01:51.002Z</time></trkpt><trkpt lat="44.6837033" lon="9.3083383"><ele>478.66666666666663</ele><time>2026-04-25T10:01:51.996Z</time></trkpt><trkpt lat="44.68368" lon="9.3084233"><ele>477.8333333333333</ele><time>2026-04-25T10:01:53Z</time></trkpt><trkpt lat="44.68362" lon="9.30851"><ele>477.0</ele><time>2026-04-25T10:01:54.999Z</time></trkpt><trkpt lat="44.6835533" lon="9.30848"><ele>479.40000000000003</ele><time>2026-04-25T10:01:56.993Z</time></trkpt><trkpt lat="44.68343" lon="9.30838"><ele>481.80000000000007</ele><time>2026-04-25T10:01:58.998Z</time></trkpt><trkpt lat="44.68337" lon="9.3083217"><ele>484.2</ele><time>2026-04-25T10:01:59.994Z</time></trkpt><trkpt lat="44.6833217" lon="9.3082533"><ele>486.6</ele><time>2026-04-25T10:02:01.005Z</time></trkpt><trkpt lat="44.6833133" lon="9.308155"><ele>489.0</ele><time>2026-04-25T10:02:01.995Z</time></trkpt><trkpt lat="44.6833467" lon="9.307975"><ele>487.25</ele><time>2026-04-25T10:02:03.991Z</time></trkpt><trkpt lat="44.6834417" lon="9.3078583"><ele>485.5</ele><time>2026-04-25T10:02:04.995Z</time></trkpt><trkpt lat="44.6835183" lon="9.3077417"><ele>483.75</ele><time>2026-04-25T10:02:05.99Z</time></trkpt><trkpt lat="44.6835883" lon="9.307605"><ele>482.0</ele><time>2026-04-25T10:02:06.992Z</time></trkpt><trkpt lat="44.683645" lon="9.3074633"><ele>482.0</ele><time>2026-04-25T10:02:07.994Z</time></trkpt><trkpt lat="44.683695" lon="9.307305"><ele>482.0</ele><time>2026-04-25T10:02:08.996Z</time></trkpt><trkpt lat="44.6837317" lon="9.3071467"><ele>482.0</ele><time>2026-04-25T10:02:09.994Z</time></trkpt><trkpt lat="44.6837717" lon="9.3069883"><ele>482.0</ele><time>2026-04-25T10:02:10.994Z</time></trkpt><trkpt lat="44.6838" lon="9.3068283"><ele>481.8</ele><time>2026-04-25T10:02:11.995Z</time></trkpt><trkpt lat="44.683815" lon="9.3066733"><ele>481.6</ele><time>2026-04-25T10:02:12.997Z</time></trkpt><trkpt lat="44.6838133" lon="9.3065183"><ele>481.40000000000003</ele><time>2026-04-25T10:02:13.996Z</time></trkpt><trkpt lat="44.6837933" lon="9.3063683"><ele>481.20000000000005</ele><time>2026-04-25T10:02:14.995Z</time></trkpt><trkpt lat="44.683755" lon="9.3062283"><ele>481.0</ele><time>2026-04-25T10:02:15.997Z</time></trkpt><trkpt lat="44.683715" lon="9.3060983"><ele>478.20000000000005</ele><time>2026-04-25T10:02:16.994Z</time></trkpt><trkpt lat="44.68364" lon="9.3059883"><ele>475.40000000000003</ele><time>2026-04-25T10:02:17.997Z</time></trkpt><trkpt lat="44.6835533" lon="9.3059083"><ele>472.6</ele><time>2026-04-25T10:02:18.999Z</time></trkpt><trkpt lat="44.6834633" lon="9.3058533"><ele>469.8</ele><time>2026-04-25T10:02:19.994Z</time></trkpt><trkpt lat="44.68337" lon="9.305795"><ele>467.0</ele><time>2026-04-25T10:02:20.999Z</time></trkpt><trkpt lat="44.6832717" lon="9.3057233"><ele>471.40000000000003</ele><time>2026-04-25T10:02:22Z</time></trkpt><trkpt lat="44.6831883" lon="9.3056383"><ele>475.80000000000007</ele><time>2026-04-25T10:02:22.996Z</time></trkpt><trkpt lat="44.683125" lon="9.3055383"><ele>480.2</ele><time>2026-04-25T10:02:23.995Z</time></trkpt><trkpt lat="44.6830983" lon="9.3054183"><ele>484.6</ele><time>2026-04-25T10:02:24.996Z</time></trkpt><trkpt lat="44.6830883" lon="9.3052983"><ele>489.0</ele><time>2026-04-25T10:02:25.992Z</time></trkpt><trkpt lat="44.68309" lon="9.3051583"><ele>489.0</ele><time>2026-04-25T10:02:26.998Z</time></trkpt><trkpt lat="44.6830667" lon="9.3050217"><ele>489.0</ele><time>2026-04-25T10:02:27.99Z</time></trkpt><trkpt lat="44.6830167" lon="9.3048883"><ele>489.0</ele><time>2026-04-25T10:02:28.995Z</time></trkpt><trkpt lat="44.6829567" lon="9.304745"><ele>489.0</ele><time>2026-04-25T10:02:29.993Z</time></trkpt><trkpt lat="44.6828983" lon="9.30459"><ele>489.5</ele><time>2026-04-25T10:02:30.996Z</time></trkpt><trkpt lat="44.68284" lon="9.3044283"><ele>490.0</ele><time>2026-04-25T10:02:32.001Z</time></trkpt><trkpt lat="44.6827817" lon="9.30427"><ele>490.5</ele><time>2026-04-25T10:02:32.998Z</time></trkpt><trkpt lat="44.6827133" lon="9.3041233"><ele>491.0</ele><time>2026-04-25T10:02:33.996Z</time></trkpt><trkpt lat="44.6826417" lon="9.3040083"><ele>493.5</ele><time>2026-04-25T10:02:34.996Z</time></trkpt><trkpt lat="44.6825483" lon="9.303935"><ele>496.0</ele><time>2026-04-25T10:02:35.997Z</time></trkpt><trkpt lat="44.6824433" lon="9.30391"><ele>498.5</ele><time>2026-04-25T10:02:36.993Z</time></trkpt><trkpt lat="44.6823233" lon="9.3039217"><ele>501.0</ele><time>2026-04-25T10:02:37.996Z</time></trkpt><trkpt lat="44.6821833" lon="9.303955"><ele>501.0</ele><time>2026-04-25T10:02:38.996Z</time></trkpt><trkpt lat="44.682035" lon="9.30399"><ele>501.0</ele><time>2026-04-25T10:02:39.999Z</time></trkpt><trkpt lat="44.681885" lon="9.304025"><ele>501.0</ele><time>2026-04-25T10:02:40.995Z</time></trkpt><trkpt lat="44.6817417" lon="9.3040583"><ele>501.0</ele><time>2026-04-25T10:02:41.995Z</time></trkpt><trkpt lat="44.6816033" lon="9.3040817"><ele>502.25</ele><time>2026-04-25T10:02:43.002Z</time></trkpt><trkpt lat="44.68147" lon="9.3041233"><ele>503.5</ele><time>2026-04-25T10:02:43.995Z</time></trkpt><trkpt lat="44.6813383" lon="9.3041533"><ele>504.75</ele><time>2026-04-25T10:02:44.996Z</time></trkpt><trkpt lat="44.68121" lon="9.3041683"><ele>506.0</ele><time>2026-04-25T10:02:45.996Z</time></trkpt><trkpt lat="44.6810867" lon="9.30415"><ele>504.75</ele><time>2026-04-25T10:02:46.995Z</time></trkpt><trkpt lat="44.6809733" lon="9.3041167"><ele>503.5</ele><time>2026-04-25T10:02:47.995Z</time></trkpt><trkpt lat="44.6808633" lon="9.3040533"><ele>502.25</ele><time>2026-04-25T10:02:48.995Z</time></trkpt><trkpt lat="44.68075" lon="9.3039533"><ele>501.0</ele><time>2026-04-25T10:02:49.992Z</time></trkpt><trkpt lat="44.68064" lon="9.3038383"><ele>501.0</ele><time>2026-04-25T10:02:51Z</time></trkpt><trkpt lat="44.68053" lon="9.303715"><ele>501.0</ele><time>2026-04-25T10:02:51.994Z</time></trkpt><trkpt lat="44.68042" lon="9.3035833"><ele>501.0</ele><time>2026-04-25T10:02:52.996Z</time></trkpt><trkpt lat="44.6803167" lon="9.3034567"><ele>501.0</ele><time>2026-04-25T10:02:53.995Z</time></trkpt><trkpt lat="44.6802183" lon="9.3033517"><ele>505.25</ele><time>2026-04-25T10:02:54.996Z</time></trkpt><trkpt lat="44.6801183" lon="9.3032917"><ele>509.5</ele><time>2026-04-25T10:02:55.993Z</time></trkpt><trkpt lat="44.68001" lon="9.3032917"><ele>513.75</ele><time>2026-04-25T10:02:56.994Z</time></trkpt><trkpt lat="44.6798967" lon="9.3033383"><ele>518.0</ele><time>2026-04-25T10:02:57.997Z</time></trkpt><trkpt lat="44.679785" lon="9.3034233"><ele>518.0</ele><time>2026-04-25T10:02:58.997Z</time></trkpt><trkpt lat="44.679665" lon="9.3035217"><ele>518.0</ele><time>2026-04-25T10:02:59.996Z</time></trkpt><trkpt lat="44.6795467" lon="9.3036167"><ele>518.0</ele><time>2026-04-25T10:03:00.995Z</time></trkpt><trkpt lat="44.6794283" lon="9.3037033"><ele>518.0</ele><time>2026-04-25T10:03:01.996Z</time></trkpt><trkpt lat="44.6793" lon="9.303755"><ele>515.5</ele><time>2026-04-25T10:03:02.998Z</time></trkpt><trkpt lat="44.6791617" lon="9.3037817"><ele>513.0</ele><time>2026-04-25T10:03:03.995Z</time></trkpt><trkpt lat="44.679015" lon="9.3038"><ele>510.5</ele><time>2026-04-25T10:03:04.997Z</time></trkpt><trkpt lat="44.6788717" lon="9.3038383"><ele>508.0</ele><time>2026-04-25T10:03:05.997Z</time></trkpt><trkpt lat="44.6787367" lon="9.303895"><ele>511.0</ele><time>2026-04-25T10:03:07Z</time></trkpt><trkpt lat="44.6786067" lon="9.30397"><ele>514.0</ele><time>2026-04-25T10:03:07.997Z</time></trkpt><trkpt lat="44.6784933" lon="9.304075"><ele>517.0</ele><time>2026-04-25T10:03:08.995Z</time></trkpt><trkpt lat="44.6784033" lon="9.30421"><ele>520.0</ele><time>2026-04-25T10:03:09.995Z</time></trkpt><trkpt lat="44.6783383" lon="9.3043467"><ele>520.0</ele><time>2026-04-25T10:03:10.994Z</time></trkpt><trkpt lat="44.6782817" lon="9.30448"><ele>520.0</ele><time>2026-04-25T10:03:11.992Z</time></trkpt><trkpt lat="44.6782183" lon="9.3045983"><ele>520.0</ele><time>2026-04-25T10:03:12.996Z</time></trkpt><trkpt lat="44.678155" lon="9.304715"><ele>520.0</ele><time>2026-04-25T10:03:13.994Z</time></trkpt><trkpt lat="44.678055" lon="9.3047483"><ele>520.0</ele><time>2026-04-25T10:03:14.993Z</time></trkpt><trkpt lat="44.6779517" lon="9.30479"><ele>522.2</ele><time>2026-04-25T10:03:15.997Z</time></trkpt><trkpt lat="44.67786" lon="9.3048783"><ele>524.4</ele><time>2026-04-25T10:03:17Z</time></trkpt><trkpt lat="44.6777733" lon="9.3049767"><ele>526.6</ele><time>2026-04-25T10:03:17.994Z</time></trkpt><trkpt lat="44.6776867" lon="9.3050667"><ele>528.8</ele><time>2026-04-25T10:03:18.999Z</time></trkpt><trkpt lat="44.6775883" lon="9.3051333"><ele>531.0</ele><time>2026-04-25T10:03:19.995Z</time></trkpt><trkpt lat="44.67747" lon="9.3051683"><ele>531.0</ele><time>2026-04-25T10:03:20.995Z</time></trkpt><trkpt lat="44.67734" lon="9.3052067"><ele>531.0</ele><time>2026-04-25T10:03:21.996Z</time></trkpt><trkpt lat="44.67719" lon="9.30524"><ele>531.0</ele><time>2026-04-25T10:03:22.995Z</time></trkpt><trkpt lat="44.677025" lon="9.3052617"><ele>530.6666666666666</ele><time>2026-04-25T10:03:23.995Z</time></trkpt><trkpt lat="44.6768583" lon="9.3052917"><ele>530.3333333333333</ele><time>2026-04-25T10:03:24.996Z</time></trkpt><trkpt lat="44.6767" lon="9.30531"><ele>530.0</ele><time>2026-04-25T10:03:25.993Z</time></trkpt><trkpt lat="44.6765417" lon="9.3053267"><ele>530.0</ele><time>2026-04-25T10:03:26.996Z</time></trkpt><trkpt lat="44.6763933" lon="9.3053433"><ele>530.0</ele><time>2026-04-25T10:03:27.995Z</time></trkpt><trkpt lat="44.6762533" lon="9.305385"><ele>530.0</ele><time>2026-04-25T10:03:28.996Z</time></trkpt><trkpt lat="44.6761167" lon="9.30544"><ele>530.0</ele><time>2026-04-25T10:03:29.997Z</time></trkpt><trkpt lat="44.67599" lon="9.3055433"><ele>532.0</ele><time>2026-04-25T10:03:30.998Z</time></trkpt><trkpt lat="44.6758783" lon="9.30568"><ele>534.0</ele><time>2026-04-25T10:03:31.994Z</time></trkpt><trkpt lat="44.6757817" lon="9.30584"><ele>536.0</ele><time>2026-04-25T10:03:32.995Z</time></trkpt><trkpt lat="44.6757033" lon="9.3060117"><ele>538.0</ele><time>2026-04-25T10:03:33.996Z</time></trkpt><trkpt lat="44.675645" lon="9.3061883"><ele>538.0</ele><time>2026-04-25T10:03:34.995Z</time></trkpt><trkpt lat="44.6756133" lon="9.3063633"><ele>538.0</ele><time>2026-04-25T10:03:35.993Z</time></trkpt><trkpt lat="44.6756083" lon="9.3065383"><ele>538.0</ele><time>2026-04-25T10:03:36.993Z</time></trkpt><trkpt lat="44.675615" lon="9.3067"><ele>538.0</ele><time>2026-04-25T10:03:37.995Z</time></trkpt><trkpt lat="44.67561" lon="9.30683"><ele>540.3333333333334</ele><time>2026-04-25T10:03:39Z</time></trkpt><trkpt lat="44.6755817" lon="9.3069317"><ele>542.6666666666667</ele><time>2026-04-25T10:03:39.998Z</time></trkpt><trkpt lat="44.6755467" lon="9.3070317"><ele>545.0</ele><time>2026-04-25T10:03:40.991Z</time></trkpt><trkpt lat="44.6754883" lon="9.30711"><ele>547.3333333333334</ele><time>2026-04-25T10:03:41.995Z</time></trkpt><trkpt lat="44.6754133" lon="9.3071833"><ele>549.6666666666666</ele><time>2026-04-25T10:03:42.997Z</time></trkpt><trkpt lat="44.675345" lon="9.3072817"><ele>552.0</ele><time>2026-04-25T10:03:43.995Z</time></trkpt><trkpt lat="44.6752917" lon="9.3074133"><ele>554.0</ele><time>2026-04-25T10:03:44.999Z</time></trkpt><trkpt lat="44.6752583" lon="9.3075467"><ele>556.0</ele><time>2026-04-25T10:03:45.997Z</time></trkpt><trkpt lat="44.6752567" lon="9.3077067"><ele>558.0</ele><time>2026-04-25T10:03:46.992Z</time></trkpt><trkpt lat="44.67528" lon="9.3078767"><ele>560.0</ele><time>2026-04-25T10:03:47.997Z</time></trkpt><trkpt lat="44.6753183" lon="9.3080583"><ele>560.4</ele><time>2026-04-25T10:03:48.996Z</time></trkpt><trkpt lat="44.6753617" lon="9.3082367"><ele>560.8</ele><time>2026-04-25T10:03:49.996Z</time></trkpt><trkpt lat="44.675405" lon="9.3083983"><ele>561.2</ele><time>2026-04-25T10:03:50.996Z</time></trkpt><trkpt lat="44.6754433" lon="9.3085383"><ele>561.6</ele><time>2026-04-25T10:03:52.003Z</time></trkpt><trkpt lat="44.67547" lon="9.3086417"><ele>562.0</ele><time>2026-04-25T10:03:53Z</time></trkpt><trkpt lat="44.6754833" lon="9.30874"><ele>562.0</ele><time>2026-04-25T10:03:53.998Z</time></trkpt><trkpt lat="44.6754533" lon="9.3088233"><ele>562.0</ele><time>2026-04-25T10:03:54.993Z</time></trkpt><trkpt lat="44.6754067" lon="9.3089083"><ele>562.0</ele><time>2026-04-25T10:03:55.997Z</time></trkpt><trkpt lat="44.6753083" lon="9.3089867"><ele>562.0</ele><time>2026-04-25T10:03:56.998Z</time></trkpt><trkpt lat="44.6752067" lon="9.309075"><ele>562.0</ele><time>2026-04-25T10:03:57.999Z</time></trkpt><trkpt lat="44.6750967" lon="9.3091617"><ele>559.4</ele><time>2026-04-25T10:03:58.991Z</time></trkpt><trkpt lat="44.674995" lon="9.3092383"><ele>556.8000000000001</ele><time>2026-04-25T10:03:59.994Z</time></trkpt><trkpt lat="44.6748983" lon="9.30928"><ele>554.2</ele><time>2026-04-25T10:04:00.997Z</time></trkpt><trkpt lat="44.6748017" lon="9.3092833"><ele>551.6</ele><time>2026-04-25T10:04:01.999Z</time></trkpt><trkpt lat="44.6747133" lon="9.3092417"><ele>549.0</ele><time>2026-04-25T10:04:02.998Z</time></trkpt><trkpt lat="44.6746483" lon="9.309155"><ele>549.0</ele><time>2026-04-25T10:04:03.997Z</time></trkpt><trkpt lat="44.6745767" lon="9.309065"><ele>549.0</ele><time>2026-04-25T10:04:04.995Z</time></trkpt><trkpt lat="44.6744967" lon="9.309"><ele>549.0</ele><time>2026-04-25T10:04:05.996Z</time></trkpt><trkpt lat="44.6743983" lon="9.3089783"><ele>549.0</ele><time>2026-04-25T10:04:06.995Z</time></trkpt><trkpt lat="44.6742967" lon="9.3089917"><ele>549.0</ele><time>2026-04-25T10:04:07.999Z</time></trkpt><trkpt lat="44.67419" lon="9.30901"><ele>551.0</ele><time>2026-04-25T10:04:08.999Z</time></trkpt><trkpt lat="44.6740783" lon="9.309005"><ele>553.0</ele><time>2026-04-25T10:04:09.996Z</time></trkpt><trkpt lat="44.6739617" lon="9.3089567"><ele>555.0</ele><time>2026-04-25T10:04:10.996Z</time></trkpt><trkpt lat="44.6738517" lon="9.30887"><ele>557.0</ele><time>2026-04-25T10:04:11.994Z</time></trkpt><trkpt lat="44.6737533" lon="9.3087633"><ele>550.5</ele><time>2026-04-25T10:04:12.994Z</time></trkpt><trkpt lat="44.6736533" lon="9.308655"><ele>544.0</ele><time>2026-04-25T10:04:13.996Z</time></trkpt><trkpt lat="44.673545" lon="9.3085617"><ele>537.5</ele><time>2026-04-25T10:04:14.999Z</time></trkpt><trkpt lat="44.6734383" lon="9.3084883"><ele>531.0</ele><time>2026-04-25T10:04:15.997Z</time></trkpt><trkpt lat="44.67333" lon="9.3084533"><ele>531.0</ele><time>2026-04-25T10:04:16.995Z</time></trkpt><trkpt lat="44.6732217" lon="9.3084583"><ele>531.0</ele><time>2026-04-25T10:04:17.996Z</time></trkpt><trkpt lat="44.6731283" lon="9.3085133"><ele>531.0</ele><time>2026-04-25T10:04:18.996Z</time></trkpt><trkpt lat="44.6730433" lon="9.30861"><ele>531.0</ele><time>2026-04-25T10:04:19.997Z</time></trkpt><trkpt lat="44.6729617" lon="9.308745"><ele>531.0</ele><time>2026-04-25T10:04:20.995Z</time></trkpt><trkpt lat="44.67288" lon="9.308895"><ele>533.5</ele><time>2026-04-25T10:04:21.996Z</time></trkpt><trkpt lat="44.6727967" lon="9.3090433"><ele>536.0</ele><time>2026-04-25T10:04:23.006Z</time></trkpt><trkpt lat="44.6726983" lon="9.3091783"><ele>538.5</ele><time>2026-04-25T10:04:23.998Z</time></trkpt><trkpt lat="44.6725833" lon="9.3092917"><ele>541.0</ele><time>2026-04-25T10:04:25.002Z</time></trkpt><trkpt lat="44.672465" lon="9.3093933"><ele>541.0</ele><time>2026-04-25T10:04:26.001Z</time></trkpt><trkpt lat="44.672345" lon="9.3094867"><ele>541.0</ele><time>2026-04-25T10:04:26.997Z</time></trkpt><trkpt lat="44.6722267" lon="9.30957"><ele>541.0</ele><time>2026-04-25T10:04:28.001Z</time></trkpt><trkpt lat="44.6721083" lon="9.3096183"><ele>541.0</ele><time>2026-04-25T10:04:28.994Z</time></trkpt><trkpt lat="44.6719817" lon="9.3096417"><ele>538.0</ele><time>2026-04-25T10:04:30.001Z</time></trkpt><trkpt lat="44.6718433" lon="9.30963"><ele>535.0</ele><time>2026-04-25T10:04:30.997Z</time></trkpt><trkpt lat="44.67171" lon="9.309635"><ele>532.0</ele><time>2026-04-25T10:04:31.997Z</time></trkpt><trkpt lat="44.6715867" lon="9.3096417"><ele>529.0</ele><time>2026-04-25T10:04:32.997Z</time></trkpt><trkpt lat="44.6714817" lon="9.3096283"><ele>529.0</ele><time>2026-04-25T10:04:33.998Z</time></trkpt><trkpt lat="44.6713817" lon="9.3095717"><ele>529.0</ele><time>2026-04-25T10:04:34.996Z</time></trkpt><trkpt lat="44.67129" lon="9.309505"><ele>529.0</ele><time>2026-04-25T10:04:35.996Z</time></trkpt><trkpt lat="44.6711967" lon="9.3094317"><ele>529.0</ele><time>2026-04-25T10:04:36.994Z</time></trkpt><trkpt lat="44.6711083" lon="9.309385"><ele>529.0</ele><time>2026-04-25T10:04:37.998Z</time></trkpt><trkpt lat="44.6710133" lon="9.3093867"><ele>529.6</ele><time>2026-04-25T10:04:38.997Z</time></trkpt><trkpt lat="44.6709183" lon="9.3094383"><ele>530.2</ele><time>2026-04-25T10:04:39.994Z</time></trkpt><trkpt lat="44.6708183" lon="9.3094967"><ele>530.8000000000001</ele><time>2026-04-25T10:04:40.997Z</time></trkpt><trkpt lat="44.6707083" lon="9.3095367"><ele>531.4</ele><time>2026-04-25T10:04:41.997Z</time></trkpt><trkpt lat="44.6705917" lon="9.309555"><ele>532.0</ele><time>2026-04-25T10:04:42.998Z</time></trkpt><trkpt lat="44.670475" lon="9.3095633"><ele>532.0</ele><time>2026-04-25T10:04:43.995Z</time></trkpt><trkpt lat="44.6703633" lon="9.3095517"><ele>532.0</ele><time>2026-04-25T10:04:44.995Z</time></trkpt><trkpt lat="44.6702517" lon="9.3095"><ele>532.0</ele><time>2026-04-25T10:04:45.997Z</time></trkpt><trkpt lat="44.670155" lon="9.3094483"><ele>532.0</ele><time>2026-04-25T10:04:46.995Z</time></trkpt><trkpt lat="44.6700567" lon="9.309405"><ele>532.0</ele><time>2026-04-25T10:04:47.997Z</time></trkpt><trkpt lat="44.669955" lon="9.3093883"><ele>530.6</ele><time>2026-04-25T10:04:48.994Z</time></trkpt><trkpt lat="44.66986" lon="9.30943"><ele>529.2</ele><time>2026-04-25T10:04:49.995Z</time></trkpt><trkpt lat="44.669775" lon="9.309505"><ele>527.8</ele><time>2026-04-25T10:04:50.996Z</time></trkpt><trkpt lat="44.669705" lon="9.3096117"><ele>526.4</ele><time>2026-04-25T10:04:51.996Z</time></trkpt><trkpt lat="44.6696583" lon="9.30974"><ele>525.0</ele><time>2026-04-25T10:04:52.994Z</time></trkpt><trkpt lat="44.6696333" lon="9.3098783"><ele>530.8</ele><time>2026-04-25T10:04:53.997Z</time></trkpt><trkpt lat="44.6696367" lon="9.310035"><ele>536.6</ele><time>2026-04-25T10:04:54.999Z</time></trkpt><trkpt lat="44.6696517" lon="9.3101867"><ele>542.4</ele><time>2026-04-25T10:04:55.996Z</time></trkpt><trkpt lat="44.6696717" lon="9.3103383"><ele>548.2</ele><time>2026-04-25T10:04:57.002Z</time></trkpt><trkpt lat="44.669685" lon="9.31048"><ele>554.0</ele><time>2026-04-25T10:04:57.997Z</time></trkpt><trkpt lat="44.6696817" lon="9.3106117"><ele>551.0</ele><time>2026-04-25T10:04:58.996Z</time></trkpt><trkpt lat="44.6696417" lon="9.3107233"><ele>548.0</ele><time>2026-04-25T10:05:00Z</time></trkpt><trkpt lat="44.6695983" lon="9.3108183"><ele>545.0</ele><time>2026-04-25T10:05:00.996Z</time></trkpt><trkpt lat="44.6695017" lon="9.31086"><ele>542.0</ele><time>2026-04-25T10:05:01.996Z</time></trkpt><trkpt lat="44.6693933" lon="9.3108717"><ele>539.0</ele><time>2026-04-25T10:05:02.992Z</time></trkpt><trkpt lat="44.6692833" lon="9.310905"><ele>539.0</ele><time>2026-04-25T10:05:03.997Z</time></trkpt><trkpt lat="44.66918" lon="9.3109333"><ele>539.0</ele><time>2026-04-25T10:05:05Z</time></trkpt><trkpt lat="44.6691" lon="9.31101"><ele>539.0</ele><time>2026-04-25T10:05:05.997Z</time></trkpt><trkpt lat="44.6690383" lon="9.3111183"><ele>539.0</ele><time>2026-04-25T10:05:06.997Z</time></trkpt><trkpt lat="44.6689883" lon="9.3112317"><ele>539.0</ele><time>2026-04-25T10:05:07.995Z</time></trkpt><trkpt lat="44.66895" lon="9.311365"><ele>544.0</ele><time>2026-04-25T10:05:08.998Z</time></trkpt><trkpt lat="44.66892" lon="9.3115083"><ele>549.0</ele><time>2026-04-25T10:05:09.997Z</time></trkpt><trkpt lat="44.6688917" lon="9.3116517"><ele>554.0</ele><time>2026-04-25T10:05:10.994Z</time></trkpt><trkpt lat="44.6688567" lon="9.3117817"><ele>559.0</ele><time>2026-04-25T10:05:11.994Z</time></trkpt><trkpt lat="44.6688083" lon="9.3118917"><ele>564.0</ele><time>2026-04-25T10:05:12.996Z</time></trkpt><trkpt lat="44.6687383" lon="9.3119883"><ele>564.0</ele><time>2026-04-25T10:05:13.997Z</time></trkpt><trkpt lat="44.6686583" lon="9.3120667"><ele>564.0</ele><time>2026-04-25T10:05:14.996Z</time></trkpt><trkpt lat="44.6685517" lon="9.3121017"><ele>564.0</ele><time>2026-04-25T10:05:15.996Z</time></trkpt><trkpt lat="44.6684267" lon="9.3120967"><ele>564.0</ele><time>2026-04-25T10:05:17.001Z</time></trkpt><trkpt lat="44.6683017" lon="9.31207"><ele>559.0</ele><time>2026-04-25T10:05:18.005Z</time></trkpt><trkpt lat="44.6681783" lon="9.3120067"><ele>554.0</ele><time>2026-04-25T10:05:18.995Z</time></trkpt><trkpt lat="44.66807" lon="9.3119283"><ele>549.0</ele><time>2026-04-25T10:05:19.998Z</time></trkpt><trkpt lat="44.6679783" lon="9.31184"><ele>544.0</ele><time>2026-04-25T10:05:21Z</time></trkpt><trkpt lat="44.6678867" lon="9.3117717"><ele>544.0</ele><time>2026-04-25T10:05:21.996Z</time></trkpt><trkpt lat="44.6678017" lon="9.3117367"><ele>544.0</ele><time>2026-04-25T10:05:22.996Z</time></trkpt><trkpt lat="44.6677217" lon="9.3117233"><ele>544.0</ele><time>2026-04-25T10:05:24.004Z</time></trkpt><trkpt lat="44.6676567" lon="9.31178"><ele>544.0</ele><time>2026-04-25T10:05:24.997Z</time></trkpt><trkpt lat="44.6675933" lon="9.3118633"><ele>544.0</ele><time>2026-04-25T10:05:25.996Z</time></trkpt><trkpt lat="44.6675433" lon="9.3119867"><ele>544.0</ele><time>2026-04-25T10:05:26.999Z</time></trkpt><trkpt lat="44.6674933" lon="9.3121083"><ele>541.6666666666667</ele><time>2026-04-25T10:05:27.997Z</time></trkpt><trkpt lat="44.66744" lon="9.3122133"><ele>539.3333333333334</ele><time>2026-04-25T10:05:28.997Z</time></trkpt><trkpt lat="44.6674067" lon="9.312335"><ele>537.0</ele><time>2026-04-25T10:05:29.998Z</time></trkpt><trkpt lat="44.66736" lon="9.3124333"><ele>534.6666666666666</ele><time>2026-04-25T10:05:30.999Z</time></trkpt><trkpt lat="44.6673217" lon="9.3125417"><ele>532.3333333333333</ele><time>2026-04-25T10:05:31.997Z</time></trkpt><trkpt lat="44.6672733" lon="9.3126483"><ele>530.0</ele><time>2026-04-25T10:05:32.998Z</time></trkpt><trkpt lat="44.6671967" lon="9.3127467"><ele>532.25</ele><time>2026-04-25T10:05:33.996Z</time></trkpt><trkpt lat="44.6670933" lon="9.3128117"><ele>534.5</ele><time>2026-04-25T10:05:34.998Z</time></trkpt><trkpt lat="44.6669733" lon="9.3128583"><ele>536.75</ele><time>2026-04-25T10:05:36Z</time></trkpt><trkpt lat="44.666855" lon="9.3129083"><ele>539.0</ele><time>2026-04-25T10:05:36.994Z</time></trkpt><trkpt lat="44.6667383" lon="9.312945"><ele>539.0</ele><time>2026-04-25T10:05:37.997Z</time></trkpt><trkpt lat="44.6666233" lon="9.312975"><ele>539.0</ele><time>2026-04-25T10:05:38.994Z</time></trkpt><trkpt lat="44.6665167" lon="9.313005"><ele>539.0</ele><time>2026-04-25T10:05:40.001Z</time></trkpt><trkpt lat="44.6664233" lon="9.3130417"><ele>539.0</ele><time>2026-04-25T10:05:40.996Z</time></trkpt><trkpt lat="44.6663367" lon="9.3130717"><ele>539.0</ele><time>2026-04-25T10:05:41.997Z</time></trkpt><trkpt lat="44.66625" lon="9.3130917"><ele>542.8</ele><time>2026-04-25T10:05:42.997Z</time></trkpt><trkpt lat="44.6661617" lon="9.3130867"><ele>546.5999999999999</ele><time>2026-04-25T10:05:43.998Z</time></trkpt><trkpt lat="44.6660917" lon="9.3130017"><ele>550.4</ele><time>2026-04-25T10:05:44.997Z</time></trkpt><trkpt lat="44.6660233" lon="9.3128617"><ele>554.1999999999999</ele><time>2026-04-25T10:05:45.995Z</time></trkpt><trkpt lat="44.665945" lon="9.31277"><ele>558.0</ele><time>2026-04-25T10:05:46.994Z</time></trkpt><trkpt lat="44.6658533" lon="9.3126917"><ele>558.0</ele><time>2026-04-25T10:05:47.995Z</time></trkpt><trkpt lat="44.665755" lon="9.312615"><ele>558.0</ele><time>2026-04-25T10:05:48.998Z</time></trkpt><trkpt lat="44.6656567" lon="9.3125133"><ele>558.0</ele><time>2026-04-25T10:05:50Z</time></trkpt><trkpt lat="44.66557" lon="9.3123917"><ele>558.0</ele><time>2026-04-25T10:05:50.998Z</time></trkpt><trkpt lat="44.6654983" lon="9.31225"><ele>559.25</ele><time>2026-04-25T10:05:51.996Z</time></trkpt><trkpt lat="44.665435" lon="9.3120967"><ele>560.5</ele><time>2026-04-25T10:05:52.997Z</time></trkpt><trkpt lat="44.66537" lon="9.3119533"><ele>561.75</ele><time>2026-04-25T10:05:53.996Z</time></trkpt><trkpt lat="44.66531" lon="9.311815"><ele>563.0</ele><time>2026-04-25T10:05:54.998Z</time></trkpt><trkpt lat="44.665245" lon="9.3116867"><ele>563.0</ele><time>2026-04-25T10:05:55.999Z</time></trkpt><trkpt lat="44.6651683" lon="9.311575"><ele>563.0</ele><time>2026-04-25T10:05:57.001Z</time></trkpt><trkpt lat="44.6650917" lon="9.3114567"><ele>563.0</ele><time>2026-04-25T10:05:57.996Z</time></trkpt><trkpt lat="44.6650033" lon="9.31136"><ele>563.0</ele><time>2026-04-25T10:05:58.995Z</time></trkpt><trkpt lat="44.6649133" lon="9.3112783"><ele>563.0</ele><time>2026-04-25T10:06:00Z</time></trkpt><trkpt lat="44.6648117" lon="9.3112367"><ele>559.0</ele><time>2026-04-25T10:06:00.994Z</time></trkpt><trkpt lat="44.6647033" lon="9.3112117"><ele>555.0</ele><time>2026-04-25T10:06:01.999Z</time></trkpt><trkpt lat="44.6645867" lon="9.31122"><ele>551.0</ele><time>2026-04-25T10:06:02.995Z</time></trkpt><trkpt lat="44.6644633" lon="9.3112433"><ele>547.0</ele><time>2026-04-25T10:06:03.998Z</time></trkpt><trkpt lat="44.6643433" lon="9.3112633"><ele>545.5</ele><time>2026-04-25T10:06:04.997Z</time></trkpt><trkpt lat="44.6642217" lon="9.3112983"><ele>544.0</ele><time>2026-04-25T10:06:05.994Z</time></trkpt><trkpt lat="44.6641017" lon="9.3113317"><ele>542.5</ele><time>2026-04-25T10:06:06.995Z</time></trkpt><trkpt lat="44.663985" lon="9.3114017"><ele>541.0</ele><time>2026-04-25T10:06:07.997Z</time></trkpt><trkpt lat="44.6638867" lon="9.311495"><ele>541.0</ele><time>2026-04-25T10:06:09.002Z</time></trkpt><trkpt lat="44.6637967" lon="9.3115967"><ele>541.0</ele><time>2026-04-25T10:06:09.996Z</time></trkpt><trkpt lat="44.6637033" lon="9.3117033"><ele>541.0</ele><time>2026-04-25T10:06:10.995Z</time></trkpt><trkpt lat="44.6635917" lon="9.311795"><ele>541.0</ele><time>2026-04-25T10:06:11.999Z</time></trkpt><trkpt lat="44.6634733" lon="9.3118783"><ele>541.0</ele><time>2026-04-25T10:06:12.996Z</time></trkpt><trkpt lat="44.6633517" lon="9.3119483"><ele>541.0</ele><time>2026-04-25T10:06:13.997Z</time></trkpt><trkpt lat="44.6632233" lon="9.3120433"><ele>541.0</ele><time>2026-04-25T10:06:14.998Z</time></trkpt><trkpt lat="44.663075" lon="9.3121683"><ele>541.0</ele><time>2026-04-25T10:06:15.997Z</time></trkpt><trkpt lat="44.6629167" lon="9.3123183"><ele>540.75</ele><time>2026-04-25T10:06:16.996Z</time></trkpt><trkpt lat="44.6627717" lon="9.3124483"><ele>540.5</ele><time>2026-04-25T10:06:17.996Z</time></trkpt><trkpt lat="44.6626617" lon="9.3125767"><ele>540.25</ele><time>2026-04-25T10:06:18.999Z</time></trkpt><trkpt lat="44.6625817" lon="9.31271"><ele>540.0</ele><time>2026-04-25T10:06:19.999Z</time></trkpt><trkpt lat="44.6625283" lon="9.312835"><ele>540.0</ele><time>2026-04-25T10:06:20.998Z</time></trkpt><trkpt lat="44.66248" lon="9.3129667"><ele>540.0</ele><time>2026-04-25T10:06:21.994Z</time></trkpt><trkpt lat="44.6624183" lon="9.3130933"><ele>540.0</ele><time>2026-04-25T10:06:22.998Z</time></trkpt><trkpt lat="44.6623367" lon="9.3131967"><ele>540.0</ele><time>2026-04-25T10:06:23.997Z</time></trkpt><trkpt lat="44.662245" lon="9.3132833"><ele>540.0</ele><time>2026-04-25T10:06:24.996Z</time></trkpt><trkpt lat="44.6621517" lon="9.3133567"><ele>544.2</ele><time>2026-04-25T10:06:25.992Z</time></trkpt><trkpt lat="44.6620583" lon="9.3134117"><ele>548.4</ele><time>2026-04-25T10:06:26.996Z</time></trkpt><trkpt lat="44.6619633" lon="9.3134367"><ele>552.6</ele><time>2026-04-25T10:06:27.995Z</time></trkpt><trkpt lat="44.66187" lon="9.3134217"><ele>556.8</ele><time>2026-04-25T10:06:28.995Z</time></trkpt><trkpt lat="44.6617817" lon="9.3133583"><ele>561.0</ele><time>2026-04-25T10:06:29.998Z</time></trkpt><trkpt lat="44.6617067" lon="9.313235"><ele>561.0</ele><time>2026-04-25T10:06:30.997Z</time></trkpt><trkpt lat="44.6616567" lon="9.313075"><ele>561.0</ele><time>2026-04-25T10:06:31.998Z</time></trkpt><trkpt lat="44.6616133" lon="9.3128917"><ele>561.0</ele><time>2026-04-25T10:06:33.006Z</time></trkpt><trkpt lat="44.661555" lon="9.31271"><ele>561.0</ele><time>2026-04-25T10:06:33.997Z</time></trkpt><trkpt lat="44.661495" lon="9.3125383"><ele>557.25</ele><time>2026-04-25T10:06:34.997Z</time></trkpt><trkpt lat="44.6614317" lon="9.3123583"><ele>553.5</ele><time>2026-04-25T10:06:35.995Z</time></trkpt><trkpt lat="44.6613633" lon="9.3121767"><ele>549.75</ele><time>2026-04-25T10:06:36.999Z</time></trkpt><trkpt lat="44.661295" lon="9.311985"><ele>546.0</ele><time>2026-04-25T10:06:37.996Z</time></trkpt><trkpt lat="44.661235" lon="9.3117817"><ele>546.25</ele><time>2026-04-25T10:06:39Z</time></trkpt><trkpt lat="44.6611867" lon="9.31158"><ele>546.5</ele><time>2026-04-25T10:06:39.994Z</time></trkpt><trkpt lat="44.6611483" lon="9.3113767"><ele>546.75</ele><time>2026-04-25T10:06:40.996Z</time></trkpt><trkpt lat="44.661125" lon="9.3111767"><ele>547.0</ele><time>2026-04-25T10:06:41.995Z</time></trkpt><trkpt lat="44.6610967" lon="9.3109767"><ele>547.0</ele><time>2026-04-25T10:06:42.996Z</time></trkpt><trkpt lat="44.6610783" lon="9.31076"><ele>547.0</ele><time>2026-04-25T10:06:43.995Z</time></trkpt><trkpt lat="44.661045" lon="9.31055"><ele>547.0</ele><time>2026-04-25T10:06:44.996Z</time></trkpt><trkpt lat="44.661005" lon="9.3103517"><ele>544.4</ele><time>2026-04-25T10:06:45.999Z</time></trkpt><trkpt lat="44.660955" lon="9.310185"><ele>541.8000000000001</ele><time>2026-04-25T10:06:46.994Z</time></trkpt><trkpt lat="44.6609017" lon="9.3100533"><ele>539.2</ele><time>2026-04-25T10:06:47.996Z</time></trkpt><trkpt lat="44.6608333" lon="9.3099683"><ele>536.6</ele><time>2026-04-25T10:06:48.994Z</time></trkpt><trkpt lat="44.6607683" lon="9.3098967"><ele>534.0</ele><time>2026-04-25T10:06:49.995Z</time></trkpt><trkpt lat="44.6606867" lon="9.3098617"><ele>534.0</ele><time>2026-04-25T10:06:50.996Z</time></trkpt><trkpt lat="44.660605" lon="9.3099667"><ele>534.0</ele><time>2026-04-25T10:06:51.995Z</time></trkpt><trkpt lat="44.6605533" lon="9.3100967"><ele>534.0</ele><time>2026-04-25T10:06:53.001Z</time></trkpt><trkpt lat="44.6605067" lon="9.3102483"><ele>534.0</ele><time>2026-04-25T10:06:53.997Z</time></trkpt><trkpt lat="44.660455" lon="9.3103817"><ele>534.0</ele><time>2026-04-25T10:06:54.996Z</time></trkpt><trkpt lat="44.6603917" lon="9.3105033"><ele>534.0</ele><time>2026-04-25T10:06:56Z</time></trkpt><trkpt lat="44.6602983" lon="9.310585"><ele>534.0</ele><time>2026-04-25T10:06:56.996Z</time></trkpt><trkpt lat="44.660185" lon="9.31067"><ele>534.0</ele><time>2026-04-25T10:06:57.999Z</time></trkpt><trkpt lat="44.6600667" lon="9.310765"><ele>534.0</ele><time>2026-04-25T10:06:58.995Z</time></trkpt><trkpt lat="44.6599433" lon="9.3108917"><ele>534.0</ele><time>2026-04-25T10:06:59.999Z</time></trkpt><trkpt lat="44.65982" lon="9.3110433"><ele>534.0</ele><time>2026-04-25T10:07:00.994Z</time></trkpt><trkpt lat="44.659695" lon="9.311195"><ele>534.0</ele><time>2026-04-25T10:07:01.994Z</time></trkpt><trkpt lat="44.6595633" lon="9.31135"><ele>534.0</ele><time>2026-04-25T10:07:02.993Z</time></trkpt><trkpt lat="44.6594233" lon="9.3114833"><ele>534.0</ele><time>2026-04-25T10:07:03.999Z</time></trkpt><trkpt lat="44.6592767" lon="9.3116067"><ele>534.0</ele><time>2026-04-25T10:07:04.999Z</time></trkpt><trkpt lat="44.6591183" lon="9.3117"><ele>534.0</ele><time>2026-04-25T10:07:05.996Z</time></trkpt><trkpt lat="44.6589533" lon="9.3117983"><ele>534.0</ele><time>2026-04-25T10:07:06.996Z</time></trkpt><trkpt lat="44.6587883" lon="9.3119017"><ele>534.0</ele><time>2026-04-25T10:07:07.993Z</time></trkpt><trkpt lat="44.6586283" lon="9.3120167"><ele>535.0</ele><time>2026-04-25T10:07:09Z</time></trkpt><trkpt lat="44.65847" lon="9.312135"><ele>536.0</ele><time>2026-04-25T10:07:09.997Z</time></trkpt><trkpt lat="44.6583067" lon="9.3122517"><ele>537.0</ele><time>2026-04-25T10:07:10.998Z</time></trkpt><trkpt lat="44.658145" lon="9.312365"><ele>537.0</ele><time>2026-04-25T10:07:11.995Z</time></trkpt><trkpt lat="44.657985" lon="9.3124717"><ele>537.0</ele><time>2026-04-25T10:07:12.996Z</time></trkpt><trkpt lat="44.6578233" lon="9.3125683"><ele>537.0</ele><time>2026-04-25T10:07:13.994Z</time></trkpt><trkpt lat="44.6576567" lon="9.3126517"><ele>533.0</ele><time>2026-04-25T10:07:15.001Z</time></trkpt><trkpt lat="44.657495" lon="9.3127217"><ele>529.0</ele><time>2026-04-25T10:07:15.997Z</time></trkpt><trkpt lat="44.65734" lon="9.3127917"><ele>525.0</ele><time>2026-04-25T10:07:16.997Z</time></trkpt><trkpt lat="44.6572017" lon="9.3128683"><ele>525.0</ele><time>2026-04-25T10:07:17.996Z</time></trkpt><trkpt lat="44.6570817" lon="9.312925"><ele>525.0</ele><time>2026-04-25T10:07:18.992Z</time></trkpt><trkpt lat="44.656965" lon="9.3129433"><ele>525.0</ele><time>2026-04-25T10:07:19.996Z</time></trkpt><trkpt lat="44.656855" lon="9.3129067"><ele>525.0</ele><time>2026-04-25T10:07:21Z</time></trkpt><trkpt lat="44.656755" lon="9.31281"><ele>525.75</ele><time>2026-04-25T10:07:21.997Z</time></trkpt><trkpt lat="44.6566567" lon="9.312695"><ele>526.5</ele><time>2026-04-25T10:07:22.997Z</time></trkpt><trkpt lat="44.656555" lon="9.31256"><ele>527.25</ele><time>2026-04-25T10:07:23.993Z</time></trkpt><trkpt lat="44.6564567" lon="9.3124283"><ele>528.0</ele><time>2026-04-25T10:07:24.996Z</time></trkpt><trkpt lat="44.6563667" lon="9.3123217"><ele>528.0</ele><time>2026-04-25T10:07:25.998Z</time></trkpt><trkpt lat="44.6562733" lon="9.3122467"><ele>528.0</ele><time>2026-04-25T10:07:26.995Z</time></trkpt><trkpt lat="44.6561767" lon="9.3122217"><ele>528.0</ele><time>2026-04-25T10:07:27.997Z</time></trkpt><trkpt lat="44.6560817" lon="9.3122417"><ele>528.0</ele><time>2026-04-25T10:07:28.998Z</time></trkpt><trkpt lat="44.6559817" lon="9.3122983"><ele>528.0</ele><time>2026-04-25T10:07:30Z</time></trkpt><trkpt lat="44.65588" lon="9.3123767"><ele>528.0</ele><time>2026-04-25T10:07:30.997Z</time></trkpt><trkpt lat="44.6557817" lon="9.3124533"><ele>528.0</ele><time>2026-04-25T10:07:31.997Z</time></trkpt><trkpt lat="44.6556783" lon="9.3125067"><ele>528.0</ele><time>2026-04-25T10:07:33.001Z</time></trkpt><trkpt lat="44.65556" lon="9.3125267"><ele>528.0</ele><time>2026-04-25T10:07:33.997Z</time></trkpt><trkpt lat="44.6554383" lon="9.3125383"><ele>528.0</ele><time>2026-04-25T10:07:34.996Z</time></trkpt><trkpt lat="44.6553083" lon="9.3125033"><ele>528.0</ele><time>2026-04-25T10:07:35.995Z</time></trkpt><trkpt lat="44.6551817" lon="9.3124533"><ele>528.0</ele><time>2026-04-25T10:07:37Z</time></trkpt><trkpt lat="44.65506" lon="9.3123767"><ele>528.0</ele><time>2026-04-25T10:07:38.004Z</time></trkpt><trkpt lat="44.654945" lon="9.3122917"><ele>527.5</ele><time>2026-04-25T10:07:38.997Z</time></trkpt><trkpt lat="44.6548333" lon="9.31224"><ele>527.0</ele><time>2026-04-25T10:07:39.994Z</time></trkpt><trkpt lat="44.6547233" lon="9.3122367"><ele>526.5</ele><time>2026-04-25T10:07:40.994Z</time></trkpt><trkpt lat="44.6546167" lon="9.3122783"><ele>526.0</ele><time>2026-04-25T10:07:41.994Z</time></trkpt><trkpt lat="44.6545183" lon="9.3123783"><ele>523.25</ele><time>2026-04-25T10:07:42.997Z</time></trkpt><trkpt lat="44.654425" lon="9.3125117"><ele>520.5</ele><time>2026-04-25T10:07:43.995Z</time></trkpt><trkpt lat="44.654345" lon="9.3126717"><ele>517.75</ele><time>2026-04-25T10:07:44.998Z</time></trkpt><trkpt lat="44.6542733" lon="9.3128333"><ele>515.0</ele><time>2026-04-25T10:07:45.998Z</time></trkpt><trkpt lat="44.6541917" lon="9.31298"><ele>516.0</ele><time>2026-04-25T10:07:46.995Z</time></trkpt><trkpt lat="44.6540917" lon="9.3130967"><ele>517.0</ele><time>2026-04-25T10:07:47.993Z</time></trkpt><trkpt lat="44.654005" lon="9.3132033"><ele>518.0</ele><time>2026-04-25T10:07:49Z</time></trkpt><trkpt lat="44.6539367" lon="9.3133167"><ele>519.0</ele><time>2026-04-25T10:07:49.996Z</time></trkpt><trkpt lat="44.6539117" lon="9.31343"><ele>520.0</ele><time>2026-04-25T10:07:50.997Z</time></trkpt><trkpt lat="44.6539033" lon="9.3135517"><ele>520.0</ele><time>2026-04-25T10:07:51.996Z</time></trkpt><trkpt lat="44.65396" lon="9.3136983"><ele>520.0</ele><time>2026-04-25T10:07:52.996Z</time></trkpt><trkpt lat="44.654045" lon="9.313835"><ele>520.0</ele><time>2026-04-25T10:07:53.994Z</time></trkpt><trkpt lat="44.6541367" lon="9.3139683"><ele>520.0</ele><time>2026-04-25T10:07:54.998Z</time></trkpt><trkpt lat="44.6542267" lon="9.3140983"><ele>518.5</ele><time>2026-04-25T10:07:55.999Z</time></trkpt><trkpt lat="44.6543117" lon="9.3142217"><ele>517.0</ele><time>2026-04-25T10:07:56.998Z</time></trkpt><trkpt lat="44.6543767" lon="9.3143633"><ele>515.5</ele><time>2026-04-25T10:07:57.996Z</time></trkpt><trkpt lat="44.65441" lon="9.3145183"><ele>514.0</ele><time>2026-04-25T10:07:58.996Z</time></trkpt><trkpt lat="44.6544167" lon="9.3146667"><ele>514.5</ele><time>2026-04-25T10:07:59.997Z</time></trkpt><trkpt lat="44.6543933" lon="9.3147983"><ele>515.0</ele><time>2026-04-25T10:08:00.997Z</time></trkpt><trkpt lat="44.65434" lon="9.3149083"><ele>515.5</ele><time>2026-04-25T10:08:01.998Z</time></trkpt><trkpt lat="44.6542467" lon="9.3150117"><ele>516.0</ele><time>2026-04-25T10:08:02.998Z</time></trkpt><trkpt lat="44.65411" lon="9.3150767"><ele>516.0</ele><time>2026-04-25T10:08:03.996Z</time></trkpt><trkpt lat="44.6539667" lon="9.315115"><ele>516.0</ele><time>2026-04-25T10:08:04.994Z</time></trkpt><trkpt lat="44.6538217" lon="9.3151383"><ele>516.0</ele><time>2026-04-25T10:08:05.996Z</time></trkpt><trkpt lat="44.6536933" lon="9.315165"><ele>516.0</ele><time>2026-04-25T10:08:06.995Z</time></trkpt><trkpt lat="44.6535933" lon="9.3152267"><ele>515.0</ele><time>2026-04-25T10:08:07.997Z</time></trkpt><trkpt lat="44.6535" lon="9.3153133"><ele>514.0</ele><time>2026-04-25T10:08:09.002Z</time></trkpt><trkpt lat="44.653435" lon="9.31545"><ele>513.0</ele><time>2026-04-25T10:08:09.999Z</time></trkpt><trkpt lat="44.6533817" lon="9.31559"><ele>512.0</ele><time>2026-04-25T10:08:10.994Z</time></trkpt><trkpt lat="44.6533167" lon="9.3157167"><ele>512.0</ele><time>2026-04-25T10:08:12.003Z</time></trkpt><trkpt lat="44.6532267" lon="9.315815"><ele>512.0</ele><time>2026-04-25T10:08:13Z</time></trkpt><trkpt lat="44.65311" lon="9.3158633"><ele>512.0</ele><time>2026-04-25T10:08:13.996Z</time></trkpt><trkpt lat="44.65298" lon="9.3158633"><ele>512.0</ele><time>2026-04-25T10:08:14.994Z</time></trkpt><trkpt lat="44.6528483" lon="9.3158517"><ele>508.0</ele><time>2026-04-25T10:08:15.996Z</time></trkpt><trkpt lat="44.6527283" lon="9.3158733"><ele>504.0</ele><time>2026-04-25T10:08:16.998Z</time></trkpt><trkpt lat="44.6526267" lon="9.3159283"><ele>500.0</ele><time>2026-04-25T10:08:17.997Z</time></trkpt><trkpt lat="44.6525417" lon="9.3160217"><ele>496.0</ele><time>2026-04-25T10:08:18.997Z</time></trkpt><trkpt lat="44.652475" lon="9.3161567"><ele>496.0</ele><time>2026-04-25T10:08:19.996Z</time></trkpt><trkpt lat="44.6524133" lon="9.316295"><ele>496.0</ele><time>2026-04-25T10:08:20.994Z</time></trkpt><trkpt lat="44.6523467" lon="9.3164183"><ele>496.0</ele><time>2026-04-25T10:08:21.995Z</time></trkpt><trkpt lat="44.6522483" lon="9.3165183"><ele>496.0</ele><time>2026-04-25T10:08:22.998Z</time></trkpt><trkpt lat="44.6521383" lon="9.316575"><ele>494.4</ele><time>2026-04-25T10:08:23.999Z</time></trkpt><trkpt lat="44.6520333" lon="9.316605"><ele>492.8</ele><time>2026-04-25T10:08:25.001Z</time></trkpt><trkpt lat="44.6519367" lon="9.3166667"><ele>491.19999999999993</ele><time>2026-04-25T10:08:25.995Z</time></trkpt><trkpt lat="44.6518533" lon="9.316765"><ele>489.59999999999997</ele><time>2026-04-25T10:08:26.997Z</time></trkpt><trkpt lat="44.6517817" lon="9.3168817"><ele>488.0</ele><time>2026-04-25T10:08:28.004Z</time></trkpt><trkpt lat="44.6517217" lon="9.317005"><ele>488.0</ele><time>2026-04-25T10:08:28.996Z</time></trkpt><trkpt lat="44.65165" lon="9.3170883"><ele>487.99999999999994</ele><time>2026-04-25T10:08:29.996Z</time></trkpt><trkpt lat="44.6515667" lon="9.3171483"><ele>487.99999999999994</ele><time>2026-04-25T10:08:31.002Z</time></trkpt><trkpt lat="44.6514817" lon="9.3172167"><ele>488.0</ele><time>2026-04-25T10:08:31.997Z</time></trkpt><trkpt lat="44.6514117" lon="9.3173117"><ele>488.0</ele><time>2026-04-25T10:08:33.002Z</time></trkpt><trkpt lat="44.6513717" lon="9.317435"><ele>490.25</ele><time>2026-04-25T10:08:33.998Z</time></trkpt><trkpt lat="44.6513567" lon="9.3175717"><ele>492.5</ele><time>2026-04-25T10:08:34.992Z</time></trkpt><trkpt lat="44.6513483" lon="9.3177317"><ele>494.75</ele><time>2026-04-25T10:08:35.997Z</time></trkpt><trkpt lat="44.6513267" lon="9.3178933"><ele>497.0</ele><time>2026-04-25T10:08:36.998Z</time></trkpt><trkpt lat="44.6512833" lon="9.3180567"><ele>500.75</ele><time>2026-04-25T10:08:38.003Z</time></trkpt><trkpt lat="44.65124" lon="9.3182217"><ele>504.5</ele><time>2026-04-25T10:08:38.999Z</time></trkpt><trkpt lat="44.65121" lon="9.3183867"><ele>508.25</ele><time>2026-04-25T10:08:39.995Z</time></trkpt><trkpt lat="44.6512" lon="9.3185717"><ele>512.0</ele><time>2026-04-25T10:08:40.996Z</time></trkpt><trkpt lat="44.6512067" lon="9.3187683"><ele>512.0</ele><time>2026-04-25T10:08:41.999Z</time></trkpt><trkpt lat="44.651215" lon="9.31897"><ele>512.0</ele><time>2026-04-25T10:08:42.996Z</time></trkpt><trkpt lat="44.6512233" lon="9.319175"><ele>512.0</ele><time>2026-04-25T10:08:43.994Z</time></trkpt><trkpt lat="44.6512383" lon="9.319375"><ele>512.0</ele><time>2026-04-25T10:08:44.997Z</time></trkpt><trkpt lat="44.6512667" lon="9.3195667"><ele>508.6</ele><time>2026-04-25T10:08:45.995Z</time></trkpt><trkpt lat="44.6513083" lon="9.319735"><ele>505.20000000000005</ele><time>2026-04-25T10:08:46.995Z</time></trkpt><trkpt lat="44.6513483" lon="9.31988"><ele>501.8</ele><time>2026-04-25T10:08:47.996Z</time></trkpt><trkpt lat="44.65137" lon="9.3200017"><ele>498.4</ele><time>2026-04-25T10:08:48.998Z</time></trkpt><trkpt lat="44.65137" lon="9.3201217"><ele>495.0</ele><time>2026-04-25T10:08:49.998Z</time></trkpt><trkpt lat="44.6513517" lon="9.3202317"><ele>495.0</ele><time>2026-04-25T10:08:50.995Z</time></trkpt><trkpt lat="44.6512933" lon="9.3203267"><ele>495.0</ele><time>2026-04-25T10:08:52.002Z</time></trkpt><trkpt lat="44.6512733" lon="9.320445"><ele>495.0</ele><time>2026-04-25T10:08:52.995Z</time></trkpt><trkpt lat="44.6512733" lon="9.3205617"><ele>495.0</ele><time>2026-04-25T10:08:53.998Z</time></trkpt><trkpt lat="44.6513033" lon="9.3206683"><ele>495.0</ele><time>2026-04-25T10:08:54.994Z</time></trkpt><trkpt lat="44.6513567" lon="9.3207517"><ele>495.0</ele><time>2026-04-25T10:08:55.994Z</time></trkpt><trkpt lat="44.65142" lon="9.3208317"><ele>491.6</ele><time>2026-04-25T10:08:56.998Z</time></trkpt><trkpt lat="44.651495" lon="9.3209067"><ele>488.2</ele><time>2026-04-25T10:08:57.999Z</time></trkpt><trkpt lat="44.6515633" lon="9.32099"><ele>484.79999999999995</ele><time>2026-04-25T10:08:58.997Z</time></trkpt><trkpt lat="44.6516033" lon="9.3210867"><ele>481.4</ele><time>2026-04-25T10:08:59.995Z</time></trkpt><trkpt lat="44.651615" lon="9.3211783"><ele>478.0</ele><time>2026-04-25T10:09:00.995Z</time></trkpt><trkpt lat="44.6515683" lon="9.3213933"><ele>478.00000000000006</ele><time>2026-04-25T10:09:02.998Z</time></trkpt><trkpt lat="44.651515" lon="9.3215233"><ele>478.0</ele><time>2026-04-25T10:09:03.995Z</time></trkpt><trkpt lat="44.65146" lon="9.3216317"><ele>478.0</ele><time>2026-04-25T10:09:04.998Z</time></trkpt><trkpt lat="44.6513883" lon="9.3217017"><ele>478.0</ele><time>2026-04-25T10:09:05.997Z</time></trkpt><trkpt lat="44.6513183" lon="9.3217533"><ele>478.00000000000006</ele><time>2026-04-25T10:09:06.995Z</time></trkpt><trkpt lat="44.65124" lon="9.32177"><ele>478.0</ele><time>2026-04-25T10:09:07.996Z</time></trkpt><trkpt lat="44.651165" lon="9.3217317"><ele>477.4</ele><time>2026-04-25T10:09:08.996Z</time></trkpt><trkpt lat="44.6510933" lon="9.3216433"><ele>476.79999999999995</ele><time>2026-04-25T10:09:09.995Z</time></trkpt><trkpt lat="44.6510283" lon="9.3215117"><ele>476.2</ele><time>2026-04-25T10:09:10.999Z</time></trkpt><trkpt lat="44.6509517" lon="9.3214233"><ele>475.6</ele><time>2026-04-25T10:09:11.996Z</time></trkpt><trkpt lat="44.6508533" lon="9.321355"><ele>475.0</ele><time>2026-04-25T10:09:12.997Z</time></trkpt><trkpt lat="44.6507433" lon="9.3212867"><ele>473.5</ele><time>2026-04-25T10:09:13.996Z</time></trkpt><trkpt lat="44.6506233" lon="9.3212133"><ele>472.0</ele><time>2026-04-25T10:09:15.001Z</time></trkpt><trkpt lat="44.6505133" lon="9.3211317"><ele>470.5</ele><time>2026-04-25T10:09:15.991Z</time></trkpt><trkpt lat="44.65042" lon="9.3210583"><ele>469.0</ele><time>2026-04-25T10:09:17Z</time></trkpt><trkpt lat="44.650355" lon="9.3209533"><ele>469.0</ele><time>2026-04-25T10:09:17.996Z</time></trkpt><trkpt lat="44.6503167" lon="9.320825"><ele>469.0</ele><time>2026-04-25T10:09:18.995Z</time></trkpt><trkpt lat="44.650275" lon="9.3207033"><ele>469.0</ele><time>2026-04-25T10:09:19.999Z</time></trkpt><trkpt lat="44.65024" lon="9.3205783"><ele>469.0</ele><time>2026-04-25T10:09:21Z</time></trkpt><trkpt lat="44.65017" lon="9.3205117"><ele>469.0</ele><time>2026-04-25T10:09:22Z</time></trkpt><trkpt lat="44.650105" lon="9.3204533"><ele>467.0</ele><time>2026-04-25T10:09:22.998Z</time></trkpt><trkpt lat="44.65002" lon="9.32043"><ele>465.0</ele><time>2026-04-25T10:09:23.996Z</time></trkpt><trkpt lat="44.6498983" lon="9.3204883"><ele>463.0</ele><time>2026-04-25T10:09:24.999Z</time></trkpt><trkpt lat="44.6497617" lon="9.320575"><ele>461.0</ele><time>2026-04-25T10:09:26.004Z</time></trkpt><trkpt lat="44.649625" lon="9.320665"><ele>461.0</ele><time>2026-04-25T10:09:26.997Z</time></trkpt><trkpt lat="44.6494917" lon="9.320755"><ele>461.0</ele><time>2026-04-25T10:09:27.996Z</time></trkpt><trkpt lat="44.6493683" lon="9.320865"><ele>461.0</ele><time>2026-04-25T10:09:28.992Z</time></trkpt><trkpt lat="44.64926" lon="9.32102"><ele>461.0</ele><time>2026-04-25T10:09:29.997Z</time></trkpt><trkpt lat="44.64916" lon="9.321195"><ele>461.5</ele><time>2026-04-25T10:09:30.993Z</time></trkpt><trkpt lat="44.6490683" lon="9.32137"><ele>462.0</ele><time>2026-04-25T10:09:32.001Z</time></trkpt><trkpt lat="44.6489817" lon="9.3215333"><ele>462.5</ele><time>2026-04-25T10:09:32.996Z</time></trkpt><trkpt lat="44.6489067" lon="9.321685"><ele>463.0</ele><time>2026-04-25T10:09:33.994Z</time></trkpt><trkpt lat="44.6488367" lon="9.3218317"><ele>463.0</ele><time>2026-04-25T10:09:34.997Z</time></trkpt><trkpt lat="44.6487733" lon="9.3219717"><ele>463.0</ele><time>2026-04-25T10:09:35.996Z</time></trkpt><trkpt lat="44.648715" lon="9.3221133"><ele>463.0</ele><time>2026-04-25T10:09:37Z</time></trkpt><trkpt lat="44.64867" lon="9.32226"><ele>463.0</ele><time>2026-04-25T10:09:37.993Z</time></trkpt><trkpt lat="44.648625" lon="9.32241"><ele>458.5</ele><time>2026-04-25T10:09:38.996Z</time></trkpt><trkpt lat="44.6485767" lon="9.3225767"><ele>454.0</ele><time>2026-04-25T10:09:39.993Z</time></trkpt><trkpt lat="44.6485233" lon="9.3227583"><ele>449.5</ele><time>2026-04-25T10:09:40.995Z</time></trkpt><trkpt lat="44.6484633" lon="9.3229467"><ele>445.0</ele><time>2026-04-25T10:09:41.999Z</time></trkpt><trkpt lat="44.6484" lon="9.3231433"><ele>445.0</ele><time>2026-04-25T10:09:42.996Z</time></trkpt><trkpt lat="44.6483383" lon="9.3233433"><ele>445.0</ele><time>2026-04-25T10:09:43.994Z</time></trkpt><trkpt lat="44.6482817" lon="9.3235483"><ele>445.0</ele><time>2026-04-25T10:09:44.997Z</time></trkpt><trkpt lat="44.6482233" lon="9.32375"><ele>448.0</ele><time>2026-04-25T10:09:45.996Z</time></trkpt><trkpt lat="44.6481633" lon="9.323955"><ele>451.0</ele><time>2026-04-25T10:09:46.997Z</time></trkpt><trkpt lat="44.6481017" lon="9.3241583"><ele>454.0</ele><time>2026-04-25T10:09:47.996Z</time></trkpt><trkpt lat="44.64804" lon="9.3243583"><ele>454.0</ele><time>2026-04-25T10:09:49Z</time></trkpt><trkpt lat="44.64798" lon="9.3245617"><ele>454.0</ele><time>2026-04-25T10:09:49.996Z</time></trkpt><trkpt lat="44.6479183" lon="9.3247667"><ele>454.0</ele><time>2026-04-25T10:09:50.997Z</time></trkpt><trkpt lat="44.6478583" lon="9.3249683"><ele>454.33333333333337</ele><time>2026-04-25T10:09:51.999Z</time></trkpt><trkpt lat="44.6477967" lon="9.325175"><ele>454.66666666666663</ele><time>2026-04-25T10:09:52.995Z</time></trkpt><trkpt lat="44.6477367" lon="9.3253767"><ele>455.0</ele><time>2026-04-25T10:09:54.003Z</time></trkpt><trkpt lat="44.6476733" lon="9.3255783"><ele>453.0</ele><time>2026-04-25T10:09:54.996Z</time></trkpt><trkpt lat="44.6476067" lon="9.325775"><ele>451.0</ele><time>2026-04-25T10:09:55.998Z</time></trkpt><trkpt lat="44.6475317" lon="9.3259717"><ele>449.0</ele><time>2026-04-25T10:09:56.996Z</time></trkpt><trkpt lat="44.6474483" lon="9.3261617"><ele>449.0</ele><time>2026-04-25T10:09:57.993Z</time></trkpt><trkpt lat="44.64736" lon="9.32635"><ele>449.0</ele><time>2026-04-25T10:09:58.995Z</time></trkpt><trkpt lat="44.6472667" lon="9.3265317"><ele>449.0</ele><time>2026-04-25T10:09:59.992Z</time></trkpt><trkpt lat="44.64716" lon="9.326705"><ele>449.0</ele><time>2026-04-25T10:10:00.999Z</time></trkpt><trkpt lat="44.647045" lon="9.3268633"><ele>449.0</ele><time>2026-04-25T10:10:01.997Z</time></trkpt><trkpt lat="44.646925" lon="9.3270133"><ele>449.0</ele><time>2026-04-25T10:10:02.998Z</time></trkpt><trkpt lat="44.6468017" lon="9.3271617"><ele>450.0</ele><time>2026-04-25T10:10:03.998Z</time></trkpt><trkpt lat="44.646675" lon="9.3272983"><ele>451.0</ele><time>2026-04-25T10:10:04.995Z</time></trkpt><trkpt lat="44.6465333" lon="9.327425"><ele>452.0</ele><time>2026-04-25T10:10:05.999Z</time></trkpt><trkpt lat="44.6463817" lon="9.3275383"><ele>452.0</ele><time>2026-04-25T10:10:06.998Z</time></trkpt><trkpt lat="44.6462317" lon="9.3276483"><ele>452.0</ele><time>2026-04-25T10:10:07.996Z</time></trkpt><trkpt lat="44.6460817" lon="9.3277583"><ele>452.0</ele><time>2026-04-25T10:10:08.996Z</time></trkpt><trkpt lat="44.645935" lon="9.327865"><ele>452.3333333333333</ele><time>2026-04-25T10:10:09.999Z</time></trkpt><trkpt lat="44.64579" lon="9.327965"><ele>452.66666666666663</ele><time>2026-04-25T10:10:10.995Z</time></trkpt><trkpt lat="44.6456467" lon="9.328075"><ele>453.0</ele><time>2026-04-25T10:10:11.995Z</time></trkpt><trkpt lat="44.6455017" lon="9.3281683"><ele>453.0</ele><time>2026-04-25T10:10:12.996Z</time></trkpt><trkpt lat="44.64535" lon="9.3282467"><ele>453.0</ele><time>2026-04-25T10:10:13.999Z</time></trkpt><trkpt lat="44.645215" lon="9.32834"><ele>453.0</ele><time>2026-04-25T10:10:14.999Z</time></trkpt><trkpt lat="44.6450667" lon="9.3284233"><ele>457.66666666666663</ele><time>2026-04-25T10:10:15.998Z</time></trkpt><trkpt lat="44.64492" lon="9.3285"><ele>462.3333333333333</ele><time>2026-04-25T10:10:16.995Z</time></trkpt><trkpt lat="44.6447683" lon="9.3285683"><ele>467.0</ele><time>2026-04-25T10:10:17.996Z</time></trkpt><trkpt lat="44.6446117" lon="9.3286217"><ele>467.66666666666663</ele><time>2026-04-25T10:10:18.999Z</time></trkpt><trkpt lat="44.6444383" lon="9.32871"><ele>468.33333333333337</ele><time>2026-04-25T10:10:19.999Z</time></trkpt><trkpt lat="44.6442917" lon="9.32869"><ele>469.0</ele><time>2026-04-25T10:10:20.994Z</time></trkpt><trkpt lat="44.6441333" lon="9.328725"><ele>469.0</ele><time>2026-04-25T10:10:21.999Z</time></trkpt><trkpt lat="44.6439717" lon="9.3287467"><ele>469.0</ele><time>2026-04-25T10:10:22.998Z</time></trkpt><trkpt lat="44.6438033" lon="9.3287533"><ele>469.0</ele><time>2026-04-25T10:10:23.997Z</time></trkpt><trkpt lat="44.6436283" lon="9.328775"><ele>467.33333333333337</ele><time>2026-04-25T10:10:24.997Z</time></trkpt><trkpt lat="44.6434533" lon="9.328815"><ele>465.66666666666663</ele><time>2026-04-25T10:10:25.998Z</time></trkpt><trkpt lat="44.6432867" lon="9.32886"><ele>464.0</ele><time>2026-04-25T10:10:26.996Z</time></trkpt><trkpt lat="44.6431133" lon="9.3289183"><ele>463.0</ele><time>2026-04-25T10:10:28Z</time></trkpt><trkpt lat="44.64294" lon="9.3289683"><ele>462.0</ele><time>2026-04-25T10:10:28.995Z</time></trkpt><trkpt lat="44.6427683" lon="9.3290183"><ele>461.0</ele><time>2026-04-25T10:10:29.995Z</time></trkpt><trkpt lat="44.6426" lon="9.3290717"><ele>461.0</ele><time>2026-04-25T10:10:30.997Z</time></trkpt><trkpt lat="44.6424317" lon="9.3291167"><ele>461.0</ele><time>2026-04-25T10:10:31.998Z</time></trkpt><trkpt lat="44.6422617" lon="9.329165"><ele>461.0</ele><time>2026-04-25T10:10:33Z</time></trkpt><trkpt lat="44.6420983" lon="9.3292117"><ele>462.0</ele><time>2026-04-25T10:10:33.993Z</time></trkpt><trkpt lat="44.6419317" lon="9.32925"><ele>463.0</ele><time>2026-04-25T10:10:34.997Z</time></trkpt><trkpt lat="44.6417633" lon="9.329295"><ele>464.0</ele><time>2026-04-25T10:10:35.992Z</time></trkpt><trkpt lat="44.641595" lon="9.3293433"><ele>464.0</ele><time>2026-04-25T10:10:36.993Z</time></trkpt><trkpt lat="44.6414267" lon="9.3293917"><ele>464.0</ele><time>2026-04-25T10:10:37.994Z</time></trkpt><trkpt lat="44.641255" lon="9.3294383"><ele>464.0</ele><time>2026-04-25T10:10:39.001Z</time></trkpt><trkpt lat="44.64108" lon="9.3294883"><ele>465.3333333333333</ele><time>2026-04-25T10:10:39.995Z</time></trkpt><trkpt lat="44.6408983" lon="9.3295367"><ele>466.66666666666663</ele><time>2026-04-25T10:10:40.997Z</time></trkpt><trkpt lat="44.6407217" lon="9.32959"><ele>468.0</ele><time>2026-04-25T10:10:41.991Z</time></trkpt><trkpt lat="44.640545" lon="9.32964"><ele>468.0</ele><time>2026-04-25T10:10:42.997Z</time></trkpt><trkpt lat="44.6403633" lon="9.3296833"><ele>468.0</ele><time>2026-04-25T10:10:43.996Z</time></trkpt><trkpt lat="44.6401817" lon="9.3297317"><ele>468.0</ele><time>2026-04-25T10:10:45.003Z</time></trkpt><trkpt lat="44.6400033" lon="9.3297833"><ele>465.0</ele><time>2026-04-25T10:10:45.995Z</time></trkpt><trkpt lat="44.6398283" lon="9.3298367"><ele>462.0</ele><time>2026-04-25T10:10:46.994Z</time></trkpt><trkpt lat="44.6396517" lon="9.32989"><ele>459.0</ele><time>2026-04-25T10:10:47.998Z</time></trkpt><trkpt lat="44.6394817" lon="9.32994"><ele>459.66666666666663</ele><time>2026-04-25T10:10:48.999Z</time></trkpt><trkpt lat="44.63931" lon="9.32998"><ele>460.3333333333333</ele><time>2026-04-25T10:10:49.996Z</time></trkpt><trkpt lat="44.6391467" lon="9.33"><ele>461.0</ele><time>2026-04-25T10:10:50.996Z</time></trkpt><trkpt lat="44.6389867" lon="9.330005"><ele>461.0</ele><time>2026-04-25T10:10:52.001Z</time></trkpt><trkpt lat="44.6388267" lon="9.3299967"><ele>461.0</ele><time>2026-04-25T10:10:53.001Z</time></trkpt><trkpt lat="44.63867" lon="9.329965"><ele>461.0</ele><time>2026-04-25T10:10:53.999Z</time></trkpt><trkpt lat="44.6385133" lon="9.3299133"><ele>460.66666666666663</ele><time>2026-04-25T10:10:55Z</time></trkpt><trkpt lat="44.6383583" lon="9.3298367"><ele>460.33333333333337</ele><time>2026-04-25T10:10:55.995Z</time></trkpt><trkpt lat="44.6382067" lon="9.3297417"><ele>460.0</ele><time>2026-04-25T10:10:56.996Z</time></trkpt><trkpt lat="44.6380533" lon="9.3296367"><ele>460.0</ele><time>2026-04-25T10:10:57.995Z</time></trkpt><trkpt lat="44.6378983" lon="9.32953"><ele>460.0</ele><time>2026-04-25T10:10:58.996Z</time></trkpt><trkpt lat="44.63774" lon="9.3294117"><ele>460.0</ele><time>2026-04-25T10:10:59.996Z</time></trkpt><trkpt lat="44.6375817" lon="9.3292967"><ele>462.6666666666667</ele><time>2026-04-25T10:11:00.996Z</time></trkpt><trkpt lat="44.6374233" lon="9.3291767"><ele>465.33333333333337</ele><time>2026-04-25T10:11:01.996Z</time></trkpt><trkpt lat="44.6372633" lon="9.3290517"><ele>468.0</ele><time>2026-04-25T10:11:02.999Z</time></trkpt><trkpt lat="44.6371" lon="9.3289283"><ele>466.33333333333337</ele><time>2026-04-25T10:11:04.002Z</time></trkpt><trkpt lat="44.6369333" lon="9.3288067"><ele>464.6666666666667</ele><time>2026-04-25T10:11:04.996Z</time></trkpt><trkpt lat="44.6367617" lon="9.3286967"><ele>463.0</ele><time>2026-04-25T10:11:05.997Z</time></trkpt><trkpt lat="44.6365833" lon="9.3286067"><ele>463.0</ele><time>2026-04-25T10:11:06.998Z</time></trkpt><trkpt lat="44.6364017" lon="9.32854"><ele>463.0</ele><time>2026-04-25T10:11:07.993Z</time></trkpt><trkpt lat="44.6362183" lon="9.3285"><ele>463.0</ele><time>2026-04-25T10:11:08.997Z</time></trkpt><trkpt lat="44.6360367" lon="9.32848"><ele>464.33333333333337</ele><time>2026-04-25T10:11:09.997Z</time></trkpt><trkpt lat="44.6358517" lon="9.3284933"><ele>465.66666666666663</ele><time>2026-04-25T10:11:11Z</time></trkpt><trkpt lat="44.6356717" lon="9.32853"><ele>467.0</ele><time>2026-04-25T10:11:11.995Z</time></trkpt><trkpt lat="44.6355" lon="9.3286017"><ele>467.0</ele><time>2026-04-25T10:11:12.994Z</time></trkpt><trkpt lat="44.6353383" lon="9.32869"><ele>467.0</ele><time>2026-04-25T10:11:13.998Z</time></trkpt><trkpt lat="44.6351783" lon="9.32879"><ele>467.0</ele><time>2026-04-25T10:11:14.996Z</time></trkpt><trkpt lat="44.6350233" lon="9.32888"><ele>470.3333333333333</ele><time>2026-04-25T10:11:15.998Z</time></trkpt><trkpt lat="44.6348717" lon="9.3289667"><ele>473.66666666666663</ele><time>2026-04-25T10:11:16.996Z</time></trkpt><trkpt lat="44.6347217" lon="9.3290583"><ele>477.0</ele><time>2026-04-25T10:11:17.994Z</time></trkpt><trkpt lat="44.634575" lon="9.3291467"><ele>474.33333333333337</ele><time>2026-04-25T10:11:18.995Z</time></trkpt><trkpt lat="44.6344283" lon="9.32924"><ele>471.6666666666667</ele><time>2026-04-25T10:11:19.997Z</time></trkpt><trkpt lat="44.634275" lon="9.3293367"><ele>469.0</ele><time>2026-04-25T10:11:20.996Z</time></trkpt><trkpt lat="44.634125" lon="9.3294333"><ele>469.0</ele><time>2026-04-25T10:11:21.995Z</time></trkpt><trkpt lat="44.6339733" lon="9.329545"><ele>469.0</ele><time>2026-04-25T10:11:22.995Z</time></trkpt><trkpt lat="44.633825" lon="9.329655"><ele>469.0</ele><time>2026-04-25T10:11:23.999Z</time></trkpt><trkpt lat="44.633675" lon="9.3297567"><ele>470.0</ele><time>2026-04-25T10:11:24.996Z</time></trkpt><trkpt lat="44.63352" lon="9.32987"><ele>471.0</ele><time>2026-04-25T10:11:25.996Z</time></trkpt><trkpt lat="44.6333667" lon="9.3299667"><ele>472.0</ele><time>2026-04-25T10:11:26.997Z</time></trkpt><trkpt lat="44.6332133" lon="9.3300667"><ele>472.0</ele><time>2026-04-25T10:11:27.997Z</time></trkpt><trkpt lat="44.6330583" lon="9.3301767"><ele>472.0</ele><time>2026-04-25T10:11:28.996Z</time></trkpt><trkpt lat="44.6329083" lon="9.330305"><ele>472.0</ele><time>2026-04-25T10:11:29.992Z</time></trkpt><trkpt lat="44.6327583" lon="9.33044"><ele>473.33333333333337</ele><time>2026-04-25T10:11:30.998Z</time></trkpt><trkpt lat="44.63261" lon="9.3305867"><ele>474.66666666666663</ele><time>2026-04-25T10:11:31.994Z</time></trkpt><trkpt lat="44.6324617" lon="9.3307333"><ele>476.0</ele><time>2026-04-25T10:11:32.998Z</time></trkpt><trkpt lat="44.6323133" lon="9.330875"><ele>476.0</ele><time>2026-04-25T10:11:33.995Z</time></trkpt><trkpt lat="44.6321683" lon="9.3310183"><ele>476.0</ele><time>2026-04-25T10:11:34.997Z</time></trkpt><trkpt lat="44.632025" lon="9.3311617"><ele>476.0</ele><time>2026-04-25T10:11:35.996Z</time></trkpt><trkpt lat="44.6318867" lon="9.331305"><ele>477.3333333333333</ele><time>2026-04-25T10:11:36.996Z</time></trkpt><trkpt lat="44.631745" lon="9.3314483"><ele>478.66666666666663</ele><time>2026-04-25T10:11:37.996Z</time></trkpt><trkpt lat="44.6316017" lon="9.331585"><ele>480.0</ele><time>2026-04-25T10:11:38.996Z</time></trkpt><trkpt lat="44.63146" lon="9.33172"><ele>480.0</ele><time>2026-04-25T10:11:39.998Z</time></trkpt><trkpt lat="44.63132" lon="9.3318533"><ele>480.0</ele><time>2026-04-25T10:11:40.999Z</time></trkpt><trkpt lat="44.6311817" lon="9.3319767"><ele>480.0</ele><time>2026-04-25T10:11:41.992Z</time></trkpt><trkpt lat="44.6310367" lon="9.332085"><ele>481.66666666666663</ele><time>2026-04-25T10:11:42.995Z</time></trkpt><trkpt lat="44.6308917" lon="9.3321983"><ele>483.3333333333333</ele><time>2026-04-25T10:11:44Z</time></trkpt><trkpt lat="44.6307433" lon="9.3323133"><ele>485.0</ele><time>2026-04-25T10:11:44.999Z</time></trkpt><trkpt lat="44.6306" lon="9.3324217"><ele>485.0</ele><time>2026-04-25T10:11:45.993Z</time></trkpt><trkpt lat="44.6304567" lon="9.3325217"><ele>485.0</ele><time>2026-04-25T10:11:46.996Z</time></trkpt><trkpt lat="44.6303133" lon="9.3326217"><ele>485.0</ele><time>2026-04-25T10:11:48Z</time></trkpt><trkpt lat="44.6301733" lon="9.332725"><ele>480.3333333333333</ele><time>2026-04-25T10:11:48.994Z</time></trkpt><trkpt lat="44.6300333" lon="9.3328133"><ele>475.66666666666663</ele><time>2026-04-25T10:11:49.998Z</time></trkpt><trkpt lat="44.62989" lon="9.3328983"><ele>471.0</ele><time>2026-04-25T10:11:50.994Z</time></trkpt><trkpt lat="44.62974" lon="9.3329683"><ele>471.0</ele><time>2026-04-25T10:11:51.994Z</time></trkpt><trkpt lat="44.6295867" lon="9.33302"><ele>471.0</ele><time>2026-04-25T10:11:52.995Z</time></trkpt><trkpt lat="44.629435" lon="9.3330533"><ele>471.0</ele><time>2026-04-25T10:11:53.993Z</time></trkpt><trkpt lat="44.62928" lon="9.3330733"><ele>471.33333333333337</ele><time>2026-04-25T10:11:55.001Z</time></trkpt><trkpt lat="44.6291267" lon="9.3330767"><ele>471.6666666666667</ele><time>2026-04-25T10:11:55.994Z</time></trkpt><trkpt lat="44.6289733" lon="9.3330683"><ele>472.0</ele><time>2026-04-25T10:11:56.997Z</time></trkpt><trkpt lat="44.62882" lon="9.3330533"><ele>472.0</ele><time>2026-04-25T10:11:57.997Z</time></trkpt><trkpt lat="44.6286583" lon="9.3330383"><ele>472.0</ele><time>2026-04-25T10:11:58.994Z</time></trkpt><trkpt lat="44.6285" lon="9.33303"><ele>472.0</ele><time>2026-04-25T10:11:59.997Z</time></trkpt><trkpt lat="44.62834" lon="9.333015"><ele>472.33333333333337</ele><time>2026-04-25T10:12:01.004Z</time></trkpt><trkpt lat="44.6281817" lon="9.3329983"><ele>472.66666666666663</ele><time>2026-04-25T10:12:01.996Z</time></trkpt><trkpt lat="44.6280233" lon="9.3329817"><ele>473.0</ele><time>2026-04-25T10:12:02.996Z</time></trkpt><trkpt lat="44.6278667" lon="9.3329683"><ele>473.0</ele><time>2026-04-25T10:12:03.995Z</time></trkpt><trkpt lat="44.6277083" lon="9.3329483"><ele>473.0</ele><time>2026-04-25T10:12:04.994Z</time></trkpt><trkpt lat="44.6275467" lon="9.332935"><ele>473.0</ele><time>2026-04-25T10:12:05.998Z</time></trkpt><trkpt lat="44.6273883" lon="9.3329083"><ele>473.0</ele><time>2026-04-25T10:12:06.995Z</time></trkpt><trkpt lat="44.6272267" lon="9.3328783"><ele>473.0</ele><time>2026-04-25T10:12:07.999Z</time></trkpt><trkpt lat="44.6270617" lon="9.33284"><ele>473.0</ele><time>2026-04-25T10:12:08.996Z</time></trkpt><trkpt lat="44.626895" lon="9.3328"><ele>475.0</ele><time>2026-04-25T10:12:09.996Z</time></trkpt><trkpt lat="44.626725" lon="9.3327517"><ele>477.0</ele><time>2026-04-25T10:12:10.996Z</time></trkpt><trkpt lat="44.626555" lon="9.3327"><ele>479.0</ele><time>2026-04-25T10:12:11.996Z</time></trkpt><trkpt lat="44.6263867" lon="9.332645"><ele>479.0</ele><time>2026-04-25T10:12:12.993Z</time></trkpt><trkpt lat="44.6262233" lon="9.3325833"><ele>479.0</ele><time>2026-04-25T10:12:13.993Z</time></trkpt><trkpt lat="44.6260683" lon="9.3325133"><ele>479.0</ele><time>2026-04-25T10:12:14.993Z</time></trkpt><trkpt lat="44.62592" lon="9.3324433"><ele>477.75</ele><time>2026-04-25T10:12:15.995Z</time></trkpt><trkpt lat="44.6257767" lon="9.332375"><ele>476.5</ele><time>2026-04-25T10:12:16.993Z</time></trkpt><trkpt lat="44.6256433" lon="9.332305"><ele>475.25</ele><time>2026-04-25T10:12:17.994Z</time></trkpt><trkpt lat="44.6255167" lon="9.33223"><ele>474.0</ele><time>2026-04-25T10:12:18.994Z</time></trkpt><trkpt lat="44.6253933" lon="9.332165"><ele>475.5</ele><time>2026-04-25T10:12:19.996Z</time></trkpt><trkpt lat="44.62527" lon="9.3321"><ele>477.0</ele><time>2026-04-25T10:12:20.994Z</time></trkpt><trkpt lat="44.625155" lon="9.33202"><ele>478.5</ele><time>2026-04-25T10:12:21.996Z</time></trkpt><trkpt lat="44.625035" lon="9.33196"><ele>480.0</ele><time>2026-04-25T10:12:22.992Z</time></trkpt><trkpt lat="44.6249217" lon="9.331885"><ele>480.0</ele><time>2026-04-25T10:12:23.998Z</time></trkpt><trkpt lat="44.6248017" lon="9.3318217"><ele>480.0</ele><time>2026-04-25T10:12:24.996Z</time></trkpt><trkpt lat="44.62468" lon="9.3317583"><ele>480.0</ele><time>2026-04-25T10:12:25.996Z</time></trkpt><trkpt lat="44.62456" lon="9.3316917"><ele>480.0</ele><time>2026-04-25T10:12:26.999Z</time></trkpt><trkpt lat="44.6244417" lon="9.3316267"><ele>479.75</ele><time>2026-04-25T10:12:27.998Z</time></trkpt><trkpt lat="44.62432" lon="9.3315617"><ele>479.5</ele><time>2026-04-25T10:12:28.998Z</time></trkpt><trkpt lat="44.624195" lon="9.3314867"><ele>479.25</ele><time>2026-04-25T10:12:29.996Z</time></trkpt><trkpt lat="44.624075" lon="9.331375"><ele>479.0</ele><time>2026-04-25T10:12:30.997Z</time></trkpt><trkpt lat="44.62394" lon="9.3312967"><ele>479.0</ele><time>2026-04-25T10:12:31.996Z</time></trkpt><trkpt lat="44.6238" lon="9.331215"><ele>479.0</ele><time>2026-04-25T10:12:32.997Z</time></trkpt><trkpt lat="44.6236533" lon="9.3311367"><ele>479.0</ele><time>2026-04-25T10:12:33.996Z</time></trkpt><trkpt lat="44.6235067" lon="9.33106"><ele>478.66666666666663</ele><time>2026-04-25T10:12:34.996Z</time></trkpt><trkpt lat="44.6233583" lon="9.33098"><ele>478.33333333333337</ele><time>2026-04-25T10:12:35.993Z</time></trkpt><trkpt lat="44.62321" lon="9.330895"><ele>478.0</ele><time>2026-04-25T10:12:36.996Z</time></trkpt><trkpt lat="44.6230583" lon="9.3308083"><ele>478.0</ele><time>2026-04-25T10:12:37.996Z</time></trkpt><trkpt lat="44.6229117" lon="9.3307083"><ele>478.0</ele><time>2026-04-25T10:12:38.991Z</time></trkpt><trkpt lat="44.6227683" lon="9.3306"><ele>478.0</ele><time>2026-04-25T10:12:40.001Z</time></trkpt><trkpt lat="44.6226267" lon="9.33048"><ele>479.6666666666667</ele><time>2026-04-25T10:12:40.999Z</time></trkpt><trkpt lat="44.6224917" lon="9.330355"><ele>481.33333333333337</ele><time>2026-04-25T10:12:41.994Z</time></trkpt><trkpt lat="44.62236" lon="9.3302267"><ele>483.0</ele><time>2026-04-25T10:12:43.002Z</time></trkpt><trkpt lat="44.6222333" lon="9.330085"><ele>483.0</ele><time>2026-04-25T10:12:43.996Z</time></trkpt><trkpt lat="44.6221117" lon="9.3299333"><ele>483.0</ele><time>2026-04-25T10:12:44.996Z</time></trkpt><trkpt lat="44.6219933" lon="9.329775"><ele>483.0</ele><time>2026-04-25T10:12:45.996Z</time></trkpt><trkpt lat="44.62188" lon="9.32961"><ele>484.0</ele><time>2026-04-25T10:12:46.997Z</time></trkpt><trkpt lat="44.6217733" lon="9.3294383"><ele>485.0</ele><time>2026-04-25T10:12:47.997Z</time></trkpt><trkpt lat="44.6216767" lon="9.3292567"><ele>486.0</ele><time>2026-04-25T10:12:48.996Z</time></trkpt><trkpt lat="44.6215783" lon="9.3290733"><ele>487.33333333333337</ele><time>2026-04-25T10:12:49.995Z</time></trkpt><trkpt lat="44.62149" lon="9.3288817"><ele>488.6666666666667</ele><time>2026-04-25T10:12:50.996Z</time></trkpt><trkpt lat="44.6214033" lon="9.3286817"><ele>490.0</ele><time>2026-04-25T10:12:51.996Z</time></trkpt><trkpt lat="44.6213183" lon="9.32848"><ele>490.0</ele><time>2026-04-25T10:12:53.001Z</time></trkpt><trkpt lat="44.6212317" lon="9.32827"><ele>490.0</ele><time>2026-04-25T10:12:53.993Z</time></trkpt><trkpt lat="44.621145" lon="9.3280633"><ele>490.0</ele><time>2026-04-25T10:12:54.998Z</time></trkpt><trkpt lat="44.621055" lon="9.3278483"><ele>488.0</ele><time>2026-04-25T10:12:55.997Z</time></trkpt><trkpt lat="44.6209633" lon="9.32763"><ele>486.0</ele><time>2026-04-25T10:12:56.994Z</time></trkpt><trkpt lat="44.6208717" lon="9.327415"><ele>484.0</ele><time>2026-04-25T10:12:57.994Z</time></trkpt><trkpt lat="44.6207767" lon="9.3271983"><ele>484.0</ele><time>2026-04-25T10:12:58.993Z</time></trkpt><trkpt lat="44.6206767" lon="9.32698"><ele>484.0</ele><time>2026-04-25T10:12:59.994Z</time></trkpt><trkpt lat="44.6205717" lon="9.3267633"><ele>484.0</ele><time>2026-04-25T10:13:01.001Z</time></trkpt><trkpt lat="44.6204583" lon="9.3265583"><ele>484.33333333333337</ele><time>2026-04-25T10:13:01.999Z</time></trkpt><trkpt lat="44.6203417" lon="9.326355"><ele>484.66666666666663</ele><time>2026-04-25T10:13:02.997Z</time></trkpt><trkpt lat="44.620215" lon="9.3261617"><ele>485.0</ele><time>2026-04-25T10:13:03.995Z</time></trkpt><trkpt lat="44.6200817" lon="9.3259817"><ele>486.0</ele><time>2026-04-25T10:13:04.992Z</time></trkpt><trkpt lat="44.6199533" lon="9.3257967"><ele>487.0</ele><time>2026-04-25T10:13:05.996Z</time></trkpt><trkpt lat="44.6198233" lon="9.3256167"><ele>488.0</ele><time>2026-04-25T10:13:06.996Z</time></trkpt><trkpt lat="44.619695" lon="9.3254383"><ele>488.0</ele><time>2026-04-25T10:13:07.998Z</time></trkpt><trkpt lat="44.61956" lon="9.3252617"><ele>488.0</ele><time>2026-04-25T10:13:08.996Z</time></trkpt><trkpt lat="44.6194283" lon="9.3250933"><ele>488.0</ele><time>2026-04-25T10:13:09.995Z</time></trkpt><trkpt lat="44.6192967" lon="9.32493"><ele>489.3333333333333</ele><time>2026-04-25T10:13:10.998Z</time></trkpt><trkpt lat="44.61917" lon="9.3247667"><ele>490.66666666666663</ele><time>2026-04-25T10:13:11.996Z</time></trkpt><trkpt lat="44.619045" lon="9.3246"><ele>492.0</ele><time>2026-04-25T10:13:13.001Z</time></trkpt><trkpt lat="44.6189233" lon="9.3244367"><ele>492.0</ele><time>2026-04-25T10:13:13.993Z</time></trkpt><trkpt lat="44.6187983" lon="9.3242833"><ele>492.0</ele><time>2026-04-25T10:13:14.995Z</time></trkpt><trkpt lat="44.618675" lon="9.3241283"><ele>492.0</ele><time>2026-04-25T10:13:15.997Z</time></trkpt><trkpt lat="44.61855" lon="9.323975"><ele>494.33333333333337</ele><time>2026-04-25T10:13:16.995Z</time></trkpt><trkpt lat="44.61843" lon="9.3238167"><ele>496.6666666666667</ele><time>2026-04-25T10:13:17.998Z</time></trkpt><trkpt lat="44.6183117" lon="9.3236567"><ele>499.0</ele><time>2026-04-25T10:13:19Z</time></trkpt><trkpt lat="44.6181967" lon="9.323495"><ele>499.0</ele><time>2026-04-25T10:13:19.994Z</time></trkpt><trkpt lat="44.6180833" lon="9.3233333"><ele>499.0</ele><time>2026-04-25T10:13:20.995Z</time></trkpt><trkpt lat="44.6179667" lon="9.32317"><ele>499.0</ele><time>2026-04-25T10:13:21.994Z</time></trkpt><trkpt lat="44.6178567" lon="9.323"><ele>496.0</ele><time>2026-04-25T10:13:22.995Z</time></trkpt><trkpt lat="44.6177417" lon="9.32284"><ele>493.0</ele><time>2026-04-25T10:13:23.996Z</time></trkpt><trkpt lat="44.6176283" lon="9.3226817"><ele>490.0</ele><time>2026-04-25T10:13:24.999Z</time></trkpt><trkpt lat="44.617515" lon="9.3225283"><ele>490.0</ele><time>2026-04-25T10:13:25.998Z</time></trkpt><trkpt lat="44.6174033" lon="9.3223783"><ele>490.0</ele><time>2026-04-25T10:13:26.998Z</time></trkpt><trkpt lat="44.6172883" lon="9.3222317"><ele>490.0</ele><time>2026-04-25T10:13:27.993Z</time></trkpt><trkpt lat="44.617165" lon="9.3220983"><ele>490.0</ele><time>2026-04-25T10:13:28.997Z</time></trkpt><trkpt lat="44.61703" lon="9.3219817"><ele>490.0</ele><time>2026-04-25T10:13:29.999Z</time></trkpt><trkpt lat="44.616885" lon="9.321885"><ele>490.0</ele><time>2026-04-25T10:13:30.997Z</time></trkpt><trkpt lat="44.6167317" lon="9.3218117"><ele>494.0</ele><time>2026-04-25T10:13:31.997Z</time></trkpt><trkpt lat="44.6165617" lon="9.3217817"><ele>498.0</ele><time>2026-04-25T10:13:32.995Z</time></trkpt><trkpt lat="44.616395" lon="9.3217617"><ele>502.0</ele><time>2026-04-25T10:13:33.997Z</time></trkpt><trkpt lat="44.6162317" lon="9.3217533"><ele>504.33333333333337</ele><time>2026-04-25T10:13:34.994Z</time></trkpt><trkpt lat="44.6160667" lon="9.32176"><ele>506.66666666666663</ele><time>2026-04-25T10:13:35.997Z</time></trkpt><trkpt lat="44.6158983" lon="9.3217817"><ele>509.0</ele><time>2026-04-25T10:13:37.001Z</time></trkpt><trkpt lat="44.6157283" lon="9.3218"><ele>509.0</ele><time>2026-04-25T10:13:37.999Z</time></trkpt><trkpt lat="44.6155567" lon="9.3217983"><ele>509.0</ele><time>2026-04-25T10:13:38.999Z</time></trkpt><trkpt lat="44.6153933" lon="9.32177"><ele>509.0</ele><time>2026-04-25T10:13:39.993Z</time></trkpt><trkpt lat="44.6152367" lon="9.3217217"><ele>509.5</ele><time>2026-04-25T10:13:40.995Z</time></trkpt><trkpt lat="44.6150883" lon="9.3216733"><ele>510.0</ele><time>2026-04-25T10:13:41.997Z</time></trkpt><trkpt lat="44.6149533" lon="9.3216017"><ele>510.5</ele><time>2026-04-25T10:13:42.996Z</time></trkpt><trkpt lat="44.6148467" lon="9.3215067"><ele>511.0</ele><time>2026-04-25T10:13:43.995Z</time></trkpt><trkpt lat="44.614745" lon="9.321415"><ele>508.75</ele><time>2026-04-25T10:13:44.998Z</time></trkpt><trkpt lat="44.6146367" lon="9.3213467"><ele>506.5</ele><time>2026-04-25T10:13:45.998Z</time></trkpt><trkpt lat="44.6145083" lon="9.3213267"><ele>504.25</ele><time>2026-04-25T10:13:46.997Z</time></trkpt><trkpt lat="44.6143733" lon="9.3213267"><ele>502.0</ele><time>2026-04-25T10:13:47.999Z</time></trkpt><trkpt lat="44.6142267" lon="9.3213567"><ele>502.0</ele><time>2026-04-25T10:13:48.999Z</time></trkpt><trkpt lat="44.61407" lon="9.3213967"><ele>502.0</ele><time>2026-04-25T10:13:50.001Z</time></trkpt><trkpt lat="44.6139083" lon="9.3214283"><ele>502.0</ele><time>2026-04-25T10:13:50.994Z</time></trkpt><trkpt lat="44.6137533" lon="9.3214667"><ele>505.75</ele><time>2026-04-25T10:13:51.996Z</time></trkpt><trkpt lat="44.61361" lon="9.3215133"><ele>509.5</ele><time>2026-04-25T10:13:52.997Z</time></trkpt><trkpt lat="44.61347" lon="9.3215533"><ele>513.25</ele><time>2026-04-25T10:13:53.996Z</time></trkpt><trkpt lat="44.613335" lon="9.321595"><ele>517.0</ele><time>2026-04-25T10:13:54.997Z</time></trkpt><trkpt lat="44.61322" lon="9.3216183"><ele>517.0</ele><time>2026-04-25T10:13:56.004Z</time></trkpt><trkpt lat="44.6131183" lon="9.32161"><ele>517.0</ele><time>2026-04-25T10:13:57Z</time></trkpt><trkpt lat="44.61303" lon="9.3215567"><ele>517.0</ele><time>2026-04-25T10:13:58.002Z</time></trkpt><trkpt lat="44.6129917" lon="9.3214517"><ele>517.0</ele><time>2026-04-25T10:13:58.994Z</time></trkpt><trkpt lat="44.6129583" lon="9.3213167"><ele>517.0</ele><time>2026-04-25T10:14:00.002Z</time></trkpt><trkpt lat="44.6129183" lon="9.3211567"><ele>518.5</ele><time>2026-04-25T10:14:00.997Z</time></trkpt><trkpt lat="44.6128817" lon="9.3209767"><ele>520.0</ele><time>2026-04-25T10:14:01.996Z</time></trkpt><trkpt lat="44.6128467" lon="9.3207917"><ele>521.5</ele><time>2026-04-25T10:14:02.996Z</time></trkpt><trkpt lat="44.6127683" lon="9.3206483"><ele>523.0</ele><time>2026-04-25T10:14:03.995Z</time></trkpt><trkpt lat="44.61268" lon="9.3205133"><ele>518.5</ele><time>2026-04-25T10:14:04.994Z</time></trkpt><trkpt lat="44.6125767" lon="9.320395"><ele>514.0</ele><time>2026-04-25T10:14:05.998Z</time></trkpt><trkpt lat="44.61247" lon="9.3202817"><ele>509.5</ele><time>2026-04-25T10:14:06.994Z</time></trkpt><trkpt lat="44.6123617" lon="9.3201867"><ele>505.0</ele><time>2026-04-25T10:14:08Z</time></trkpt><trkpt lat="44.6122433" lon="9.3200933"><ele>505.0</ele><time>2026-04-25T10:14:08.997Z</time></trkpt><trkpt lat="44.612125" lon="9.3199983"><ele>505.0</ele><time>2026-04-25T10:14:09.997Z</time></trkpt><trkpt lat="44.6120267" lon="9.3199117"><ele>505.0</ele><time>2026-04-25T10:14:10.991Z</time></trkpt><trkpt lat="44.6119417" lon="9.3198183"><ele>505.0</ele><time>2026-04-25T10:14:12.001Z</time></trkpt><trkpt lat="44.6118883" lon="9.319705"><ele>505.0</ele><time>2026-04-25T10:14:13.001Z</time></trkpt><trkpt lat="44.611855" lon="9.319575"><ele>505.0</ele><time>2026-04-25T10:14:13.995Z</time></trkpt><trkpt lat="44.611845" lon="9.31942"><ele>505.0</ele><time>2026-04-25T10:14:15Z</time></trkpt><trkpt lat="44.6118367" lon="9.31926"><ele>505.0</ele><time>2026-04-25T10:14:15.995Z</time></trkpt><trkpt lat="44.6118267" lon="9.319105"><ele>505.0</ele><time>2026-04-25T10:14:16.999Z</time></trkpt><trkpt lat="44.6118017" lon="9.3189583"><ele>512.0</ele><time>2026-04-25T10:14:17.996Z</time></trkpt><trkpt lat="44.6117467" lon="9.31884"><ele>519.0</ele><time>2026-04-25T10:14:19Z</time></trkpt><trkpt lat="44.6116683" lon="9.3187217"><ele>526.0</ele><time>2026-04-25T10:14:19.996Z</time></trkpt><trkpt lat="44.61157" lon="9.3186033"><ele>533.0</ele><time>2026-04-25T10:14:20.996Z</time></trkpt><trkpt lat="44.6114683" lon="9.31847"><ele>533.0</ele><time>2026-04-25T10:14:21.997Z</time></trkpt><trkpt lat="44.611355" lon="9.3183467"><ele>533.0</ele><time>2026-04-25T10:14:22.993Z</time></trkpt><trkpt lat="44.61124" lon="9.318235"><ele>533.0</ele><time>2026-04-25T10:14:23.998Z</time></trkpt><trkpt lat="44.6111233" lon="9.31814"><ele>533.0</ele><time>2026-04-25T10:14:25Z</time></trkpt><trkpt lat="44.611005" lon="9.3180733"><ele>528.8</ele><time>2026-04-25T10:14:25.994Z</time></trkpt><trkpt lat="44.6109117" lon="9.3179983"><ele>524.5999999999999</ele><time>2026-04-25T10:14:26.996Z</time></trkpt><trkpt lat="44.6108483" lon="9.317915"><ele>520.4000000000001</ele><time>2026-04-25T10:14:27.994Z</time></trkpt><trkpt lat="44.61079" lon="9.317835"><ele>516.2</ele><time>2026-04-25T10:14:28.997Z</time></trkpt><trkpt lat="44.6107867" lon="9.3177"><ele>512.0</ele><time>2026-04-25T10:14:29.997Z</time></trkpt><trkpt lat="44.6107867" lon="9.3175433"><ele>512.0</ele><time>2026-04-25T10:14:30.996Z</time></trkpt><trkpt lat="44.610785" lon="9.3173633"><ele>512.0</ele><time>2026-04-25T10:14:31.998Z</time></trkpt><trkpt lat="44.6107733" lon="9.317175"><ele>512.0</ele><time>2026-04-25T10:14:32.997Z</time></trkpt><trkpt lat="44.6107633" lon="9.316985"><ele>512.0</ele><time>2026-04-25T10:14:33.998Z</time></trkpt><trkpt lat="44.610755" lon="9.3168067"><ele>513.25</ele><time>2026-04-25T10:14:34.996Z</time></trkpt><trkpt lat="44.6107667" lon="9.3166367"><ele>514.5</ele><time>2026-04-25T10:14:35.991Z</time></trkpt><trkpt lat="44.6108" lon="9.3164783"><ele>515.75</ele><time>2026-04-25T10:14:36.994Z</time></trkpt><trkpt lat="44.6108267" lon="9.3163117"><ele>517.0</ele><time>2026-04-25T10:14:37.995Z</time></trkpt><trkpt lat="44.6108333" lon="9.3161317"><ele>517.25</ele><time>2026-04-25T10:14:38.998Z</time></trkpt><trkpt lat="44.6108233" lon="9.315945"><ele>517.5</ele><time>2026-04-25T10:14:39.998Z</time></trkpt><trkpt lat="44.61081" lon="9.3157467"><ele>517.75</ele><time>2026-04-25T10:14:40.996Z</time></trkpt><trkpt lat="44.6107783" lon="9.3155517"><ele>518.0</ele><time>2026-04-25T10:14:41.995Z</time></trkpt><trkpt lat="44.61074" lon="9.3153467"><ele>518.3333333333333</ele><time>2026-04-25T10:14:42.996Z</time></trkpt><trkpt lat="44.610685" lon="9.3151483"><ele>518.6666666666666</ele><time>2026-04-25T10:14:43.998Z</time></trkpt><trkpt lat="44.6106283" lon="9.3149517"><ele>519.0</ele><time>2026-04-25T10:14:44.997Z</time></trkpt><trkpt lat="44.61059" lon="9.3147483"><ele>521.0</ele><time>2026-04-25T10:14:45.998Z</time></trkpt><trkpt lat="44.6105583" lon="9.31454"><ele>523.0</ele><time>2026-04-25T10:14:46.997Z</time></trkpt><trkpt lat="44.6105467" lon="9.31433"><ele>525.0</ele><time>2026-04-25T10:14:47.999Z</time></trkpt><trkpt lat="44.6105283" lon="9.3141283"><ele>527.0</ele><time>2026-04-25T10:14:48.997Z</time></trkpt><trkpt lat="44.6105233" lon="9.31392"><ele>527.0</ele><time>2026-04-25T10:14:49.995Z</time></trkpt><trkpt lat="44.6105183" lon="9.3137117"><ele>527.0</ele><time>2026-04-25T10:14:50.995Z</time></trkpt><trkpt lat="44.6105083" lon="9.3135033"><ele>527.0</ele><time>2026-04-25T10:14:51.996Z</time></trkpt><trkpt lat="44.6104783" lon="9.31329"><ele>527.0</ele><time>2026-04-25T10:14:52.994Z</time></trkpt><trkpt lat="44.6104433" lon="9.3130817"><ele>527.0</ele><time>2026-04-25T10:14:53.998Z</time></trkpt><trkpt lat="44.610405" lon="9.3128717"><ele>527.0</ele><time>2026-04-25T10:14:54.995Z</time></trkpt><trkpt lat="44.6103567" lon="9.3126667"><ele>523.0</ele><time>2026-04-25T10:14:55.995Z</time></trkpt><trkpt lat="44.6102983" lon="9.3124733"><ele>519.0</ele><time>2026-04-25T10:14:56.996Z</time></trkpt><trkpt lat="44.6102367" lon="9.312285"><ele>515.0</ele><time>2026-04-25T10:14:57.996Z</time></trkpt><trkpt lat="44.61018" lon="9.312105"><ele>511.0</ele><time>2026-04-25T10:14:59.002Z</time></trkpt><trkpt lat="44.610145" lon="9.3119233"><ele>511.0</ele><time>2026-04-25T10:14:59.996Z</time></trkpt><trkpt lat="44.6101233" lon="9.311755"><ele>511.0</ele><time>2026-04-25T10:15:00.998Z</time></trkpt><trkpt lat="44.6101333" lon="9.3115883"><ele>511.0</ele><time>2026-04-25T10:15:02.001Z</time></trkpt><trkpt lat="44.6101733" lon="9.3114267"><ele>511.0</ele><time>2026-04-25T10:15:02.997Z</time></trkpt><trkpt lat="44.6102617" lon="9.3112733"><ele>517.6666666666667</ele><time>2026-04-25T10:15:03.997Z</time></trkpt><trkpt lat="44.610365" lon="9.3111217"><ele>524.3333333333334</ele><time>2026-04-25T10:15:04.995Z</time></trkpt><trkpt lat="44.610485" lon="9.3109717"><ele>531.0</ele><time>2026-04-25T10:15:05.999Z</time></trkpt><trkpt lat="44.6106083" lon="9.3108083"><ele>531.0</ele><time>2026-04-25T10:15:06.995Z</time></trkpt><trkpt lat="44.610715" lon="9.3106433"><ele>531.0</ele><time>2026-04-25T10:15:07.997Z</time></trkpt><trkpt lat="44.610825" lon="9.310485"><ele>531.0</ele><time>2026-04-25T10:15:08.998Z</time></trkpt><trkpt lat="44.610925" lon="9.31033"><ele>534.5</ele><time>2026-04-25T10:15:09.997Z</time></trkpt><trkpt lat="44.6110183" lon="9.3102033"><ele>538.0</ele><time>2026-04-25T10:15:10.996Z</time></trkpt><trkpt lat="44.6110917" lon="9.3100383"><ele>541.5</ele><time>2026-04-25T10:15:11.993Z</time></trkpt><trkpt lat="44.6111483" lon="9.3098617"><ele>545.0</ele><time>2026-04-25T10:15:12.996Z</time></trkpt><trkpt lat="44.6111867" lon="9.3096767"><ele>545.0</ele><time>2026-04-25T10:15:14.001Z</time></trkpt><trkpt lat="44.611215" lon="9.30947"><ele>545.0</ele><time>2026-04-25T10:15:15Z</time></trkpt><trkpt lat="44.6112433" lon="9.3092783"><ele>545.0</ele><time>2026-04-25T10:15:15.993Z</time></trkpt><trkpt lat="44.6112783" lon="9.3091083"><ele>545.0</ele><time>2026-04-25T10:15:16.998Z</time></trkpt><trkpt lat="44.6113017" lon="9.3089417"><ele>541.5</ele><time>2026-04-25T10:15:18.001Z</time></trkpt><trkpt lat="44.611285" lon="9.3087783"><ele>538.0</ele><time>2026-04-25T10:15:18.993Z</time></trkpt><trkpt lat="44.6112233" lon="9.3086267"><ele>534.5</ele><time>2026-04-25T10:15:19.997Z</time></trkpt><trkpt lat="44.6111417" lon="9.3084717"><ele>531.0</ele><time>2026-04-25T10:15:20.995Z</time></trkpt><trkpt lat="44.611045" lon="9.3083167"><ele>529.0</ele><time>2026-04-25T10:15:22.001Z</time></trkpt><trkpt lat="44.61095" lon="9.3081517"><ele>527.0</ele><time>2026-04-25T10:15:22.999Z</time></trkpt><trkpt lat="44.6108583" lon="9.3079867"><ele>525.0</ele><time>2026-04-25T10:15:23.998Z</time></trkpt><trkpt lat="44.6107767" lon="9.3078333"><ele>523.0</ele><time>2026-04-25T10:15:24.996Z</time></trkpt><trkpt lat="44.6107033" lon="9.3076967"><ele>523.0</ele><time>2026-04-25T10:15:25.998Z</time></trkpt><trkpt lat="44.61066" lon="9.3075467"><ele>523.0</ele><time>2026-04-25T10:15:26.999Z</time></trkpt><trkpt lat="44.6106483" lon="9.3073817"><ele>523.0</ele><time>2026-04-25T10:15:27.996Z</time></trkpt><trkpt lat="44.610655" lon="9.3072267"><ele>523.0</ele><time>2026-04-25T10:15:28.993Z</time></trkpt><trkpt lat="44.610645" lon="9.30708"><ele>523.0</ele><time>2026-04-25T10:15:29.994Z</time></trkpt><trkpt lat="44.6105883" lon="9.3069583"><ele>526.0</ele><time>2026-04-25T10:15:30.999Z</time></trkpt><trkpt lat="44.610505" lon="9.3068467"><ele>529.0</ele><time>2026-04-25T10:15:31.996Z</time></trkpt><trkpt lat="44.61039" lon="9.3067583"><ele>532.0</ele><time>2026-04-25T10:15:32.998Z</time></trkpt><trkpt lat="44.610255" lon="9.3066883"><ele>535.0</ele><time>2026-04-25T10:15:34Z</time></trkpt><trkpt lat="44.6101117" lon="9.306655"><ele>535.0</ele><time>2026-04-25T10:15:34.997Z</time></trkpt><trkpt lat="44.6099533" lon="9.3066433"><ele>535.0</ele><time>2026-04-25T10:15:35.995Z</time></trkpt><trkpt lat="44.60979" lon="9.3066733"><ele>535.0</ele><time>2026-04-25T10:15:36.997Z</time></trkpt><trkpt lat="44.6096267" lon="9.3066867"><ele>533.3333333333334</ele><time>2026-04-25T10:15:38Z</time></trkpt><trkpt lat="44.6094633" lon="9.3067217"><ele>531.6666666666666</ele><time>2026-04-25T10:15:38.994Z</time></trkpt><trkpt lat="44.6093033" lon="9.3067667"><ele>530.0</ele><time>2026-04-25T10:15:39.998Z</time></trkpt><trkpt lat="44.6091433" lon="9.30682"><ele>530.0</ele><time>2026-04-25T10:15:40.993Z</time></trkpt><trkpt lat="44.6089883" lon="9.3068683"><ele>530.0</ele><time>2026-04-25T10:15:41.999Z</time></trkpt><trkpt lat="44.6088417" lon="9.3069417"><ele>530.0</ele><time>2026-04-25T10:15:43.002Z</time></trkpt><trkpt lat="44.6087117" lon="9.3069833"><ele>530.0</ele><time>2026-04-25T10:15:43.993Z</time></trkpt><trkpt lat="44.60859" lon="9.3070083"><ele>529.5</ele><time>2026-04-25T10:15:45.002Z</time></trkpt><trkpt lat="44.6084567" lon="9.3070167"><ele>529.0</ele><time>2026-04-25T10:15:46Z</time></trkpt><trkpt lat="44.608315" lon="9.307"><ele>528.5</ele><time>2026-04-25T10:15:46.996Z</time></trkpt><trkpt lat="44.6081633" lon="9.3069767"><ele>528.0</ele><time>2026-04-25T10:15:47.998Z</time></trkpt><trkpt lat="44.608" lon="9.3069817"><ele>528.0</ele><time>2026-04-25T10:15:48.999Z</time></trkpt><trkpt lat="44.6078367" lon="9.3069883"><ele>528.0</ele><time>2026-04-25T10:15:49.995Z</time></trkpt><trkpt lat="44.607685" lon="9.306985"><ele>528.0</ele><time>2026-04-25T10:15:51Z</time></trkpt><trkpt lat="44.6075417" lon="9.3069617"><ele>527.5</ele><time>2026-04-25T10:15:51.995Z</time></trkpt><trkpt lat="44.60741" lon="9.3069067"><ele>527.0</ele><time>2026-04-25T10:15:52.994Z</time></trkpt><trkpt lat="44.6072883" lon="9.3068133"><ele>526.5</ele><time>2026-04-25T10:15:53.992Z</time></trkpt><trkpt lat="44.60718" lon="9.30669"><ele>526.0</ele><time>2026-04-25T10:15:54.994Z</time></trkpt><trkpt lat="44.607075" lon="9.30658"><ele>526.25</ele><time>2026-04-25T10:15:55.997Z</time></trkpt><trkpt lat="44.606985" lon="9.3064417"><ele>526.5</ele><time>2026-04-25T10:15:56.996Z</time></trkpt><trkpt lat="44.606905" lon="9.3062917"><ele>526.75</ele><time>2026-04-25T10:15:57.997Z</time></trkpt><trkpt lat="44.6068517" lon="9.306115"><ele>527.0</ele><time>2026-04-25T10:15:58.996Z</time></trkpt><trkpt lat="44.606815" lon="9.3059367"><ele>527.0</ele><time>2026-04-25T10:16:00Z</time></trkpt><trkpt lat="44.6067767" lon="9.3057517"><ele>527.0</ele><time>2026-04-25T10:16:00.996Z</time></trkpt><trkpt lat="44.6067433" lon="9.3055583"><ele>527.0</ele><time>2026-04-25T10:16:01.995Z</time></trkpt><trkpt lat="44.6067183" lon="9.3053633"><ele>527.0</ele><time>2026-04-25T10:16:02.997Z</time></trkpt><trkpt lat="44.6067" lon="9.3051683"><ele>527.0</ele><time>2026-04-25T10:16:04Z</time></trkpt><trkpt lat="44.6066867" lon="9.3049783"><ele>527.0</ele><time>2026-04-25T10:16:05.001Z</time></trkpt><trkpt lat="44.6066883" lon="9.3047967"><ele>527.0</ele><time>2026-04-25T10:16:05.997Z</time></trkpt><trkpt lat="44.60671" lon="9.3046217"><ele>527.0</ele><time>2026-04-25T10:16:06.994Z</time></trkpt><trkpt lat="44.6067617" lon="9.30447"><ele>528.2</ele><time>2026-04-25T10:16:07.992Z</time></trkpt><trkpt lat="44.60683" lon="9.30435"><ele>529.4000000000001</ele><time>2026-04-25T10:16:08.997Z</time></trkpt><trkpt lat="44.60692" lon="9.30427"><ele>530.5999999999999</ele><time>2026-04-25T10:16:09.993Z</time></trkpt><trkpt lat="44.6070217" lon="9.304235"><ele>531.8</ele><time>2026-04-25T10:16:10.997Z</time></trkpt><trkpt lat="44.6071417" lon="9.304205"><ele>533.0</ele><time>2026-04-25T10:16:11.995Z</time></trkpt><trkpt lat="44.6072617" lon="9.3041617"><ele>533.0</ele><time>2026-04-25T10:16:12.996Z</time></trkpt><trkpt lat="44.6073817" lon="9.3041033"><ele>533.0</ele><time>2026-04-25T10:16:13.997Z</time></trkpt><trkpt lat="44.6074983" lon="9.3040317"><ele>533.0</ele><time>2026-04-25T10:16:14.995Z</time></trkpt><trkpt lat="44.6076" lon="9.3039467"><ele>533.0</ele><time>2026-04-25T10:16:15.997Z</time></trkpt><trkpt lat="44.6077" lon="9.3038617"><ele>533.25</ele><time>2026-04-25T10:16:17.001Z</time></trkpt><trkpt lat="44.6078033" lon="9.303775"><ele>533.5</ele><time>2026-04-25T10:16:17.993Z</time></trkpt><trkpt lat="44.607915" lon="9.303685"><ele>533.75</ele><time>2026-04-25T10:16:18.995Z</time></trkpt><trkpt lat="44.6080283" lon="9.303585"><ele>534.0</ele><time>2026-04-25T10:16:19.995Z</time></trkpt><trkpt lat="44.6081367" lon="9.30348"><ele>534.0</ele><time>2026-04-25T10:16:20.995Z</time></trkpt><trkpt lat="44.6082317" lon="9.3033533"><ele>534.0</ele><time>2026-04-25T10:16:21.993Z</time></trkpt><trkpt lat="44.6083133" lon="9.3031967"><ele>534.0</ele><time>2026-04-25T10:16:22.993Z</time></trkpt><trkpt lat="44.6083817" lon="9.3030317"><ele>534.0</ele><time>2026-04-25T10:16:24.003Z</time></trkpt><trkpt lat="44.6084483" lon="9.3028767"><ele>533.5</ele><time>2026-04-25T10:16:24.996Z</time></trkpt><trkpt lat="44.6085017" lon="9.3027267"><ele>533.0</ele><time>2026-04-25T10:16:25.998Z</time></trkpt><trkpt lat="44.6085317" lon="9.3025717"><ele>532.5</ele><time>2026-04-25T10:16:26.996Z</time></trkpt><trkpt lat="44.60853" lon="9.3024167"><ele>532.0</ele><time>2026-04-25T10:16:27.997Z</time></trkpt><trkpt lat="44.6085183" lon="9.3022483"><ele>531.5</ele><time>2026-04-25T10:16:29.002Z</time></trkpt><trkpt lat="44.608505" lon="9.30208"><ele>531.0</ele><time>2026-04-25T10:16:29.995Z</time></trkpt><trkpt lat="44.6084867" lon="9.3019083"><ele>530.5</ele><time>2026-04-25T10:16:30.997Z</time></trkpt><trkpt lat="44.6084667" lon="9.30173"><ele>530.0</ele><time>2026-04-25T10:16:31.994Z</time></trkpt><trkpt lat="44.60845" lon="9.3015533"><ele>530.75</ele><time>2026-04-25T10:16:32.997Z</time></trkpt><trkpt lat="44.6084267" lon="9.3013767"><ele>531.5</ele><time>2026-04-25T10:16:33.996Z</time></trkpt><trkpt lat="44.6084017" lon="9.3011967"><ele>532.25</ele><time>2026-04-25T10:16:34.997Z</time></trkpt><trkpt lat="44.6083917" lon="9.301015"><ele>533.0</ele><time>2026-04-25T10:16:35.996Z</time></trkpt><trkpt lat="44.60839" lon="9.3008283"><ele>533.0</ele><time>2026-04-25T10:16:36.996Z</time></trkpt><trkpt lat="44.6083933" lon="9.30064"><ele>533.0</ele><time>2026-04-25T10:16:37.999Z</time></trkpt><trkpt lat="44.6083933" lon="9.3004517"><ele>533.0</ele><time>2026-04-25T10:16:38.996Z</time></trkpt><trkpt lat="44.608385" lon="9.3002583"><ele>533.0</ele><time>2026-04-25T10:16:39.999Z</time></trkpt><trkpt lat="44.6083633" lon="9.3000583"><ele>535.0</ele><time>2026-04-25T10:16:40.994Z</time></trkpt><trkpt lat="44.6083317" lon="9.299865"><ele>537.0</ele><time>2026-04-25T10:16:41.997Z</time></trkpt><trkpt lat="44.6083033" lon="9.2996783"><ele>539.0</ele><time>2026-04-25T10:16:42.996Z</time></trkpt><trkpt lat="44.608275" lon="9.2994967"><ele>541.0</ele><time>2026-04-25T10:16:43.996Z</time></trkpt><trkpt lat="44.60825" lon="9.2993183"><ele>542.5</ele><time>2026-04-25T10:16:44.995Z</time></trkpt><trkpt lat="44.6082283" lon="9.29914"><ele>544.0</ele><time>2026-04-25T10:16:45.995Z</time></trkpt><trkpt lat="44.60819" lon="9.2989683"><ele>545.5</ele><time>2026-04-25T10:16:46.997Z</time></trkpt><trkpt lat="44.6081517" lon="9.2988067"><ele>547.0</ele><time>2026-04-25T10:16:47.993Z</time></trkpt><trkpt lat="44.6081217" lon="9.2986517"><ele>548.2</ele><time>2026-04-25T10:16:48.996Z</time></trkpt><trkpt lat="44.6081" lon="9.29849"><ele>549.4000000000001</ele><time>2026-04-25T10:16:49.994Z</time></trkpt><trkpt lat="44.6080633" lon="9.2983417"><ele>550.5999999999999</ele><time>2026-04-25T10:16:50.994Z</time></trkpt><trkpt lat="44.6079917" lon="9.2982267"><ele>551.8</ele><time>2026-04-25T10:16:51.996Z</time></trkpt><trkpt lat="44.607905" lon="9.2981367"><ele>553.0</ele><time>2026-04-25T10:16:52.995Z</time></trkpt><trkpt lat="44.6077883" lon="9.29808"><ele>549.1999999999999</ele><time>2026-04-25T10:16:53.996Z</time></trkpt><trkpt lat="44.6076733" lon="9.2980367"><ele>545.4</ele><time>2026-04-25T10:16:55.002Z</time></trkpt><trkpt lat="44.6075833" lon="9.297975"><ele>541.5999999999999</ele><time>2026-04-25T10:16:55.995Z</time></trkpt><trkpt lat="44.6074933" lon="9.2979033"><ele>537.8</ele><time>2026-04-25T10:16:56.997Z</time></trkpt><trkpt lat="44.6074017" lon="9.2978083"><ele>534.0</ele><time>2026-04-25T10:16:57.995Z</time></trkpt><trkpt lat="44.60733" lon="9.2976867"><ele>534.0</ele><time>2026-04-25T10:16:58.996Z</time></trkpt><trkpt lat="44.6072683" lon="9.2975417"><ele>534.0</ele><time>2026-04-25T10:16:59.992Z</time></trkpt><trkpt lat="44.6072033" lon="9.2974"><ele>534.0</ele><time>2026-04-25T10:17:00.999Z</time></trkpt><trkpt lat="44.6071383" lon="9.2972583"><ele>534.0</ele><time>2026-04-25T10:17:01.995Z</time></trkpt><trkpt lat="44.607065" lon="9.2971183"><ele>532.0</ele><time>2026-04-25T10:17:02.997Z</time></trkpt><trkpt lat="44.6069983" lon="9.2969733"><ele>530.0</ele><time>2026-04-25T10:17:03.997Z</time></trkpt><trkpt lat="44.60694" lon="9.2968217"><ele>528.0</ele><time>2026-04-25T10:17:04.994Z</time></trkpt><trkpt lat="44.6068983" lon="9.2966567"><ele>526.0</ele><time>2026-04-25T10:17:05.994Z</time></trkpt><trkpt lat="44.6068717" lon="9.2964833"><ele>527.0</ele><time>2026-04-25T10:17:06.995Z</time></trkpt><trkpt lat="44.606845" lon="9.296315"><ele>528.0</ele><time>2026-04-25T10:17:07.995Z</time></trkpt><trkpt lat="44.6067983" lon="9.2961517"><ele>529.0</ele><time>2026-04-25T10:17:08.995Z</time></trkpt><trkpt lat="44.606735" lon="9.295985"><ele>530.0</ele><time>2026-04-25T10:17:09.996Z</time></trkpt><trkpt lat="44.6066633" lon="9.2958133"><ele>530.0</ele><time>2026-04-25T10:17:10.997Z</time></trkpt><trkpt lat="44.6065917" lon="9.2956517"><ele>530.0</ele><time>2026-04-25T10:17:11.996Z</time></trkpt><trkpt lat="44.6065167" lon="9.295495"><ele>530.0</ele><time>2026-04-25T10:17:12.998Z</time></trkpt><trkpt lat="44.6064417" lon="9.2953367"><ele>530.0</ele><time>2026-04-25T10:17:13.993Z</time></trkpt><trkpt lat="44.6063583" lon="9.2951917"><ele>529.75</ele><time>2026-04-25T10:17:14.999Z</time></trkpt><trkpt lat="44.6062733" lon="9.2950367"><ele>529.5</ele><time>2026-04-25T10:17:15.995Z</time></trkpt><trkpt lat="44.606195" lon="9.294875"><ele>529.25</ele><time>2026-04-25T10:17:16.994Z</time></trkpt><trkpt lat="44.60612" lon="9.2947083"><ele>529.0</ele><time>2026-04-25T10:17:18.001Z</time></trkpt><trkpt lat="44.6060417" lon="9.2945533"><ele>527.75</ele><time>2026-04-25T10:17:18.996Z</time></trkpt><trkpt lat="44.6059717" lon="9.2943967"><ele>526.5</ele><time>2026-04-25T10:17:19.994Z</time></trkpt><trkpt lat="44.6059" lon="9.2942383"><ele>525.25</ele><time>2026-04-25T10:17:20.998Z</time></trkpt><trkpt lat="44.6058267" lon="9.2940817"><ele>524.0</ele><time>2026-04-25T10:17:21.993Z</time></trkpt><trkpt lat="44.6057533" lon="9.2939267"><ele>524.0</ele><time>2026-04-25T10:17:22.999Z</time></trkpt><trkpt lat="44.6056767" lon="9.29377"><ele>524.0</ele><time>2026-04-25T10:17:24.001Z</time></trkpt><trkpt lat="44.6055983" lon="9.293615"><ele>524.0</ele><time>2026-04-25T10:17:25Z</time></trkpt><trkpt lat="44.6055267" lon="9.293465"><ele>524.0</ele><time>2026-04-25T10:17:25.992Z</time></trkpt><trkpt lat="44.6054567" lon="9.29333"><ele>524.0</ele><time>2026-04-25T10:17:27Z</time></trkpt><trkpt lat="44.6053933" lon="9.293195"><ele>524.0</ele><time>2026-04-25T10:17:27.996Z</time></trkpt><trkpt lat="44.6053283" lon="9.2930617"><ele>524.0</ele><time>2026-04-25T10:17:28.996Z</time></trkpt><trkpt lat="44.6052633" lon="9.292925"><ele>524.0</ele><time>2026-04-25T10:17:29.996Z</time></trkpt><trkpt lat="44.605195" lon="9.292785"><ele>524.25</ele><time>2026-04-25T10:17:30.996Z</time></trkpt><trkpt lat="44.6051233" lon="9.29265"><ele>524.5</ele><time>2026-04-25T10:17:31.993Z</time></trkpt><trkpt lat="44.6050533" lon="9.292505"><ele>524.75</ele><time>2026-04-25T10:17:32.994Z</time></trkpt><trkpt lat="44.6049833" lon="9.2923567"><ele>525.0</ele><time>2026-04-25T10:17:33.996Z</time></trkpt><trkpt lat="44.6049133" lon="9.292205"><ele>525.75</ele><time>2026-04-25T10:17:34.995Z</time></trkpt><trkpt lat="44.6048367" lon="9.292065"><ele>526.5</ele><time>2026-04-25T10:17:35.996Z</time></trkpt><trkpt lat="44.6047417" lon="9.2919467"><ele>527.25</ele><time>2026-04-25T10:17:36.997Z</time></trkpt><trkpt lat="44.6046383" lon="9.2918433"><ele>528.0</ele><time>2026-04-25T10:17:37.994Z</time></trkpt><trkpt lat="44.604525" lon="9.2917617"><ele>527.25</ele><time>2026-04-25T10:17:38.996Z</time></trkpt><trkpt lat="44.604405" lon="9.29169"><ele>526.5</ele><time>2026-04-25T10:17:39.996Z</time></trkpt><trkpt lat="44.6042767" lon="9.291625"><ele>525.75</ele><time>2026-04-25T10:17:40.995Z</time></trkpt><trkpt lat="44.6041517" lon="9.2915633"><ele>525.0</ele><time>2026-04-25T10:17:41.997Z</time></trkpt><trkpt lat="44.6040267" lon="9.2915"><ele>525.0</ele><time>2026-04-25T10:17:42.996Z</time></trkpt><trkpt lat="44.603905" lon="9.29144"><ele>525.0</ele><time>2026-04-25T10:17:43.999Z</time></trkpt><trkpt lat="44.6037833" lon="9.2913833"><ele>525.0</ele><time>2026-04-25T10:17:44.994Z</time></trkpt><trkpt lat="44.603665" lon="9.2913267"><ele>525.0</ele><time>2026-04-25T10:17:45.996Z</time></trkpt><trkpt lat="44.6035467" lon="9.29127"><ele>524.25</ele><time>2026-04-25T10:17:46.996Z</time></trkpt><trkpt lat="44.6034267" lon="9.29121"><ele>523.5</ele><time>2026-04-25T10:17:47.998Z</time></trkpt><trkpt lat="44.603305" lon="9.2911517"><ele>522.75</ele><time>2026-04-25T10:17:49.003Z</time></trkpt><trkpt lat="44.6031817" lon="9.2910883"><ele>522.0</ele><time>2026-04-25T10:17:49.995Z</time></trkpt><trkpt lat="44.6030617" lon="9.2910267"><ele>522.0</ele><time>2026-04-25T10:17:51Z</time></trkpt><trkpt lat="44.6029367" lon="9.2909617"><ele>522.0</ele><time>2026-04-25T10:17:51.999Z</time></trkpt><trkpt lat="44.6028067" lon="9.290895"><ele>522.0</ele><time>2026-04-25T10:17:53Z</time></trkpt><trkpt lat="44.6026767" lon="9.2908283"><ele>522.0</ele><time>2026-04-25T10:17:53.997Z</time></trkpt><trkpt lat="44.602545" lon="9.2907567"><ele>521.5</ele><time>2026-04-25T10:17:54.998Z</time></trkpt><trkpt lat="44.6024117" lon="9.290685"><ele>521.0</ele><time>2026-04-25T10:17:55.997Z</time></trkpt><trkpt lat="44.602275" lon="9.2906183"><ele>520.5</ele><time>2026-04-25T10:17:56.994Z</time></trkpt><trkpt lat="44.6021383" lon="9.2905433"><ele>520.0</ele><time>2026-04-25T10:17:57.996Z</time></trkpt><trkpt lat="44.6019967" lon="9.29047"><ele>522.75</ele><time>2026-04-25T10:17:58.998Z</time></trkpt><trkpt lat="44.6018533" lon="9.2904033"><ele>525.5</ele><time>2026-04-25T10:17:59.999Z</time></trkpt><trkpt lat="44.6017083" lon="9.2903467"><ele>528.25</ele><time>2026-04-25T10:18:00.997Z</time></trkpt><trkpt lat="44.6015667" lon="9.290305"><ele>531.0</ele><time>2026-04-25T10:18:01.998Z</time></trkpt><trkpt lat="44.601425" lon="9.2902833"><ele>531.0</ele><time>2026-04-25T10:18:02.994Z</time></trkpt><trkpt lat="44.6012833" lon="9.2902883"><ele>531.0</ele><time>2026-04-25T10:18:03.995Z</time></trkpt><trkpt lat="44.60115" lon="9.29031"><ele>531.0</ele><time>2026-04-25T10:18:05Z</time></trkpt><trkpt lat="44.6010183" lon="9.2903533"><ele>531.0</ele><time>2026-04-25T10:18:05.995Z</time></trkpt><trkpt lat="44.6008833" lon="9.2904083"><ele>531.0</ele><time>2026-04-25T10:18:06.993Z</time></trkpt><trkpt lat="44.60075" lon="9.2904683"><ele>531.0</ele><time>2026-04-25T10:18:07.995Z</time></trkpt><trkpt lat="44.6006217" lon="9.2905317"><ele>531.0</ele><time>2026-04-25T10:18:09.001Z</time></trkpt><trkpt lat="44.6004983" lon="9.2906067"><ele>531.0</ele><time>2026-04-25T10:18:09.993Z</time></trkpt><trkpt lat="44.60039" lon="9.29071"><ele>531.25</ele><time>2026-04-25T10:18:11.002Z</time></trkpt><trkpt lat="44.6002967" lon="9.29083"><ele>531.5</ele><time>2026-04-25T10:18:12.001Z</time></trkpt><trkpt lat="44.600215" lon="9.290965"><ele>531.75</ele><time>2026-04-25T10:18:13.001Z</time></trkpt><trkpt lat="44.6001417" lon="9.291105"><ele>532.0</ele><time>2026-04-25T10:18:13.994Z</time></trkpt><trkpt lat="44.6000733" lon="9.2912483"><ele>532.0</ele><time>2026-04-25T10:18:14.993Z</time></trkpt><trkpt lat="44.600005" lon="9.2913933"><ele>532.0</ele><time>2026-04-25T10:18:15.995Z</time></trkpt><trkpt lat="44.599935" lon="9.2915383"><ele>532.0</ele><time>2026-04-25T10:18:16.993Z</time></trkpt><trkpt lat="44.5998683" lon="9.29169"><ele>532.0</ele><time>2026-04-25T10:18:17.994Z</time></trkpt><trkpt lat="44.5998067" lon="9.291845"><ele>535.0</ele><time>2026-04-25T10:18:18.999Z</time></trkpt><trkpt lat="44.5997417" lon="9.2920033"><ele>538.0</ele><time>2026-04-25T10:18:19.994Z</time></trkpt><trkpt lat="44.599675" lon="9.2921633"><ele>541.0</ele><time>2026-04-25T10:18:21Z</time></trkpt><trkpt lat="44.5996133" lon="9.2923217"><ele>544.0</ele><time>2026-04-25T10:18:21.993Z</time></trkpt><trkpt lat="44.5995583" lon="9.2924733"><ele>541.75</ele><time>2026-04-25T10:18:22.994Z</time></trkpt><trkpt lat="44.5994933" lon="9.29261"><ele>539.5</ele><time>2026-04-25T10:18:23.996Z</time></trkpt><trkpt lat="44.5994167" lon="9.29273"><ele>537.25</ele><time>2026-04-25T10:18:25.001Z</time></trkpt><trkpt lat="44.5993217" lon="9.2928217"><ele>535.0</ele><time>2026-04-25T10:18:25.998Z</time></trkpt><trkpt lat="44.5992217" lon="9.29291"><ele>535.0</ele><time>2026-04-25T10:18:26.997Z</time></trkpt><trkpt lat="44.599115" lon="9.29299"><ele>535.0</ele><time>2026-04-25T10:18:27.994Z</time></trkpt><trkpt lat="44.599005" lon="9.2930583"><ele>535.0</ele><time>2026-04-25T10:18:28.997Z</time></trkpt><trkpt lat="44.5988867" lon="9.2931183"><ele>535.0</ele><time>2026-04-25T10:18:29.998Z</time></trkpt><trkpt lat="44.598775" lon="9.293185"><ele>537.75</ele><time>2026-04-25T10:18:30.996Z</time></trkpt><trkpt lat="44.5986667" lon="9.293255"><ele>540.5</ele><time>2026-04-25T10:18:31.998Z</time></trkpt><trkpt lat="44.5985517" lon="9.2933217"><ele>543.25</ele><time>2026-04-25T10:18:32.995Z</time></trkpt><trkpt lat="44.5984383" lon="9.293385"><ele>546.0</ele><time>2026-04-25T10:18:33.993Z</time></trkpt><trkpt lat="44.598325" lon="9.293445"><ele>546.0</ele><time>2026-04-25T10:18:34.993Z</time></trkpt><trkpt lat="44.598205" lon="9.293505"><ele>546.0</ele><time>2026-04-25T10:18:35.994Z</time></trkpt><trkpt lat="44.598085" lon="9.29356"><ele>546.0</ele><time>2026-04-25T10:18:36.996Z</time></trkpt><trkpt lat="44.5979633" lon="9.293605"><ele>546.0</ele><time>2026-04-25T10:18:38.001Z</time></trkpt><trkpt lat="44.5978317" lon="9.2936183"><ele>545.5</ele><time>2026-04-25T10:18:39.005Z</time></trkpt><trkpt lat="44.597705" lon="9.2936217"><ele>545.0</ele><time>2026-04-25T10:18:39.993Z</time></trkpt><trkpt lat="44.59757" lon="9.2935817"><ele>544.5</ele><time>2026-04-25T10:18:41.002Z</time></trkpt><trkpt lat="44.5974417" lon="9.293515"><ele>544.0</ele><time>2026-04-25T10:18:41.994Z</time></trkpt><trkpt lat="44.5973017" lon="9.2934267"><ele>544.0</ele><time>2026-04-25T10:18:42.994Z</time></trkpt><trkpt lat="44.5971633" lon="9.2933383"><ele>544.0</ele><time>2026-04-25T10:18:43.993Z</time></trkpt><trkpt lat="44.597005" lon="9.2932533"><ele>544.0</ele><time>2026-04-25T10:18:44.995Z</time></trkpt><trkpt lat="44.596815" lon="9.29317"><ele>539.0</ele><time>2026-04-25T10:18:45.995Z</time></trkpt><trkpt lat="44.5965983" lon="9.293085"><ele>534.0</ele><time>2026-04-25T10:18:46.995Z</time></trkpt><trkpt lat="44.5963667" lon="9.2930033"><ele>534.6666666666666</ele><time>2026-04-25T10:18:47.996Z</time></trkpt><trkpt lat="44.5961433" lon="9.292925"><ele>535.3333333333333</ele><time>2026-04-25T10:18:48.995Z</time></trkpt><trkpt lat="44.59593" lon="9.292855"><ele>536.0</ele><time>2026-04-25T10:18:49.997Z</time></trkpt><trkpt lat="44.5957283" lon="9.292795"><ele>536.0</ele><time>2026-04-25T10:18:50.992Z</time></trkpt><trkpt lat="44.595535" lon="9.2927433"><ele>536.0</ele><time>2026-04-25T10:18:51.992Z</time></trkpt><trkpt lat="44.595365" lon="9.2926933"><ele>536.0</ele><time>2026-04-25T10:18:52.997Z</time></trkpt><trkpt lat="44.5952167" lon="9.2926467"><ele>540.75</ele><time>2026-04-25T10:18:53.999Z</time></trkpt><trkpt lat="44.595085" lon="9.2925717"><ele>545.5</ele><time>2026-04-25T10:18:54.995Z</time></trkpt><trkpt lat="44.594975" lon="9.2924667"><ele>550.25</ele><time>2026-04-25T10:18:55.994Z</time></trkpt><trkpt lat="44.5948583" lon="9.2923833"><ele>555.0</ele><time>2026-04-25T10:18:57.002Z</time></trkpt><trkpt lat="44.594735" lon="9.292335"><ele>555.0</ele><time>2026-04-25T10:18:57.995Z</time></trkpt><trkpt lat="44.5946033" lon="9.2923"><ele>555.0</ele><time>2026-04-25T10:18:59.001Z</time></trkpt><trkpt lat="44.594475" lon="9.29225"><ele>555.0</ele><time>2026-04-25T10:18:59.998Z</time></trkpt><trkpt lat="44.5943517" lon="9.2921767"><ele>555.0</ele><time>2026-04-25T10:19:00.993Z</time></trkpt><trkpt lat="44.5942417" lon="9.2920567"><ele>554.75</ele><time>2026-04-25T10:19:01.994Z</time></trkpt><trkpt lat="44.5941433" lon="9.2919167"><ele>554.5</ele><time>2026-04-25T10:19:02.996Z</time></trkpt><trkpt lat="44.5940817" lon="9.2917283"><ele>554.25</ele><time>2026-04-25T10:19:03.997Z</time></trkpt><trkpt lat="44.594035" lon="9.2915217"><ele>554.0</ele><time>2026-04-25T10:19:04.993Z</time></trkpt><trkpt lat="44.5939883" lon="9.291315"><ele>549.0</ele><time>2026-04-25T10:19:05.993Z</time></trkpt><trkpt lat="44.593935" lon="9.29111"><ele>544.0</ele><time>2026-04-25T10:19:06.999Z</time></trkpt><trkpt lat="44.59388" lon="9.290905"><ele>539.0</ele><time>2026-04-25T10:19:08.002Z</time></trkpt><trkpt lat="44.5938183" lon="9.2907067"><ele>538.3333333333333</ele><time>2026-04-25T10:19:08.997Z</time></trkpt><trkpt lat="44.5937433" lon="9.2905117"><ele>537.6666666666666</ele><time>2026-04-25T10:19:09.999Z</time></trkpt><trkpt lat="44.59364" lon="9.2903317"><ele>537.0</ele><time>2026-04-25T10:19:10.996Z</time></trkpt><trkpt lat="44.5935367" lon="9.2901567"><ele>540.3333333333334</ele><time>2026-04-25T10:19:11.994Z</time></trkpt><trkpt lat="44.5934033" lon="9.289985"><ele>543.6666666666667</ele><time>2026-04-25T10:19:13Z</time></trkpt><trkpt lat="44.593295" lon="9.2898017"><ele>547.0</ele><time>2026-04-25T10:19:13.998Z</time></trkpt><trkpt lat="44.5931917" lon="9.2896117"><ele>547.0</ele><time>2026-04-25T10:19:14.998Z</time></trkpt><trkpt lat="44.593115" lon="9.2894133"><ele>547.0</ele><time>2026-04-25T10:19:15.993Z</time></trkpt><trkpt lat="44.5930267" lon="9.2892267"><ele>547.0</ele><time>2026-04-25T10:19:16.995Z</time></trkpt><trkpt lat="44.59292" lon="9.2890617"><ele>546.0</ele><time>2026-04-25T10:19:17.997Z</time></trkpt><trkpt lat="44.5928317" lon="9.2889067"><ele>545.0</ele><time>2026-04-25T10:19:18.996Z</time></trkpt><trkpt lat="44.59275" lon="9.288775"><ele>544.0</ele><time>2026-04-25T10:19:19.995Z</time></trkpt><trkpt lat="44.5926417" lon="9.2886883"><ele>543.0</ele><time>2026-04-25T10:19:20.997Z</time></trkpt><trkpt lat="44.5925067" lon="9.2886533"><ele>543.0</ele><time>2026-04-25T10:19:21.998Z</time></trkpt><trkpt lat="44.5923533" lon="9.2886567"><ele>543.0</ele><time>2026-04-25T10:19:22.993Z</time></trkpt><trkpt lat="44.592215" lon="9.288695"><ele>543.0</ele><time>2026-04-25T10:19:23.991Z</time></trkpt><trkpt lat="44.592075" lon="9.28874"><ele>543.0</ele><time>2026-04-25T10:19:24.996Z</time></trkpt><trkpt lat="44.591925" lon="9.28878"><ele>544.75</ele><time>2026-04-25T10:19:25.998Z</time></trkpt><trkpt lat="44.591785" lon="9.28879"><ele>546.5</ele><time>2026-04-25T10:19:26.996Z</time></trkpt><trkpt lat="44.591635" lon="9.2887533"><ele>548.25</ele><time>2026-04-25T10:19:27.999Z</time></trkpt><trkpt lat="44.5914917" lon="9.2886967"><ele>550.0</ele><time>2026-04-25T10:19:28.993Z</time></trkpt><trkpt lat="44.5913567" lon="9.288625"><ele>550.0</ele><time>2026-04-25T10:19:29.994Z</time></trkpt><trkpt lat="44.5912267" lon="9.2885467"><ele>550.0</ele><time>2026-04-25T10:19:30.995Z</time></trkpt><trkpt lat="44.591105" lon="9.2884583"><ele>550.0</ele><time>2026-04-25T10:19:31.994Z</time></trkpt><trkpt lat="44.5909967" lon="9.2883367"><ele>550.0</ele><time>2026-04-25T10:19:33.002Z</time></trkpt><trkpt lat="44.590905" lon="9.2881933"><ele>551.0</ele><time>2026-04-25T10:19:34Z</time></trkpt><trkpt lat="44.5908383" lon="9.28802"><ele>552.0</ele><time>2026-04-25T10:19:34.995Z</time></trkpt><trkpt lat="44.5907783" lon="9.2878283"><ele>553.0</ele><time>2026-04-25T10:19:36.004Z</time></trkpt><trkpt lat="44.5907317" lon="9.287605"><ele>553.0</ele><time>2026-04-25T10:19:36.995Z</time></trkpt><trkpt lat="44.5906717" lon="9.2873867"><ele>553.0</ele><time>2026-04-25T10:19:37.998Z</time></trkpt><trkpt lat="44.59061" lon="9.287165"><ele>553.0</ele><time>2026-04-25T10:19:38.998Z</time></trkpt><trkpt lat="44.59055" lon="9.28695"><ele>551.0</ele><time>2026-04-25T10:19:39.993Z</time></trkpt><trkpt lat="44.590495" lon="9.28674"><ele>549.0</ele><time>2026-04-25T10:19:40.994Z</time></trkpt><trkpt lat="44.5904467" lon="9.2865233"><ele>547.0</ele><time>2026-04-25T10:19:41.995Z</time></trkpt><trkpt lat="44.5903867" lon="9.286325"><ele>551.0</ele><time>2026-04-25T10:19:42.997Z</time></trkpt><trkpt lat="44.5903183" lon="9.2861283"><ele>555.0</ele><time>2026-04-25T10:19:43.994Z</time></trkpt><trkpt lat="44.59022" lon="9.28595"><ele>559.0</ele><time>2026-04-25T10:19:44.993Z</time></trkpt><trkpt lat="44.590105" lon="9.2858017"><ele>559.0</ele><time>2026-04-25T10:19:45.992Z</time></trkpt><trkpt lat="44.59" lon="9.2856567"><ele>559.0</ele><time>2026-04-25T10:19:46.996Z</time></trkpt><trkpt lat="44.5898933" lon="9.28552"><ele>559.0</ele><time>2026-04-25T10:19:47.993Z</time></trkpt><trkpt lat="44.5897933" lon="9.2853683"><ele>559.0</ele><time>2026-04-25T10:19:48.998Z</time></trkpt><trkpt lat="44.5897067" lon="9.285195"><ele>562.0</ele><time>2026-04-25T10:19:49.993Z</time></trkpt><trkpt lat="44.5896383" lon="9.2850017"><ele>565.0</ele><time>2026-04-25T10:19:50.999Z</time></trkpt><trkpt lat="44.5895583" lon="9.2848083"><ele>568.0</ele><time>2026-04-25T10:19:51.998Z</time></trkpt><trkpt lat="44.5894917" lon="9.2846083"><ele>568.0</ele><time>2026-04-25T10:19:52.995Z</time></trkpt><trkpt lat="44.5894183" lon="9.2844183"><ele>568.0</ele><time>2026-04-25T10:19:53.995Z</time></trkpt><trkpt lat="44.5893433" lon="9.2842333"><ele>568.0</ele><time>2026-04-25T10:19:55Z</time></trkpt><trkpt lat="44.5892967" lon="9.2840483"><ele>568.0</ele><time>2026-04-25T10:19:55.996Z</time></trkpt><trkpt lat="44.5892833" lon="9.28386"><ele>568.0</ele><time>2026-04-25T10:19:56.996Z</time></trkpt><trkpt lat="44.5892867" lon="9.2836633"><ele>568.0</ele><time>2026-04-25T10:19:57.994Z</time></trkpt><trkpt lat="44.589285" lon="9.2834533"><ele>568.0</ele><time>2026-04-25T10:19:58.994Z</time></trkpt><trkpt lat="44.5892733" lon="9.283235"><ele>568.0</ele><time>2026-04-25T10:19:59.996Z</time></trkpt><trkpt lat="44.5892467" lon="9.2830317"><ele>566.0</ele><time>2026-04-25T10:20:00.996Z</time></trkpt><trkpt lat="44.58921" lon="9.2828533"><ele>564.0</ele><time>2026-04-25T10:20:01.999Z</time></trkpt><trkpt lat="44.58916" lon="9.2826967"><ele>562.0</ele><time>2026-04-25T10:20:02.998Z</time></trkpt><trkpt lat="44.589115" lon="9.282555"><ele>560.0</ele><time>2026-04-25T10:20:03.994Z</time></trkpt><trkpt lat="44.58907" lon="9.282425"><ele>560.0</ele><time>2026-04-25T10:20:04.995Z</time></trkpt><trkpt lat="44.5890267" lon="9.2823033"><ele>560.0</ele><time>2026-04-25T10:20:05.995Z</time></trkpt><trkpt lat="44.5889817" lon="9.2821917"><ele>560.0</ele><time>2026-04-25T10:20:06.993Z</time></trkpt><trkpt lat="44.588935" lon="9.2820883"><ele>560.0</ele><time>2026-04-25T10:20:07.997Z</time></trkpt><trkpt lat="44.58889" lon="9.2820033"><ele>560.0</ele><time>2026-04-25T10:20:08.996Z</time></trkpt><trkpt lat="44.5888367" lon="9.28193"><ele>560.0</ele><time>2026-04-25T10:20:09.996Z</time></trkpt><trkpt lat="44.5887867" lon="9.281875"><ele>560.0</ele><time>2026-04-25T10:20:10.996Z</time></trkpt><trkpt lat="44.58869" lon="9.281785"><ele>560.0</ele><time>2026-04-25T10:20:12.996Z</time></trkpt><trkpt lat="44.5885733" lon="9.2817333"><ele>560.0</ele><time>2026-04-25T10:20:15Z</time></trkpt><trkpt lat="44.5885" lon="9.28173"><ele>560.0</ele><time>2026-04-25T10:20:15.995Z</time></trkpt><trkpt lat="44.5884217" lon="9.2817483"><ele>560.0</ele><time>2026-04-25T10:20:16.994Z</time></trkpt><trkpt lat="44.588345" lon="9.28179"><ele>560.0</ele><time>2026-04-25T10:20:17.994Z</time></trkpt><trkpt lat="44.5882683" lon="9.2818417"><ele>560.0</ele><time>2026-04-25T10:20:18.995Z</time></trkpt><trkpt lat="44.58819" lon="9.2819"><ele>560.0</ele><time>2026-04-25T10:20:19.998Z</time></trkpt><trkpt lat="44.5881133" lon="9.28196"><ele>560.0</ele><time>2026-04-25T10:20:20.996Z</time></trkpt><trkpt lat="44.5880333" lon="9.2820083"><ele>560.0</ele><time>2026-04-25T10:20:22Z</time></trkpt><trkpt lat="44.5879583" lon="9.282055"><ele>560.0</ele><time>2026-04-25T10:20:22.992Z</time></trkpt><trkpt lat="44.5878833" lon="9.2820883"><ele>560.0</ele><time>2026-04-25T10:20:23.997Z</time></trkpt><trkpt lat="44.5878117" lon="9.2821083"><ele>560.0</ele><time>2026-04-25T10:20:25.002Z</time></trkpt><trkpt lat="44.587745" lon="9.282115"><ele>560.0</ele><time>2026-04-25T10:20:25.998Z</time></trkpt><trkpt lat="44.5876783" lon="9.28211"><ele>560.0</ele><time>2026-04-25T10:20:27.004Z</time></trkpt><trkpt lat="44.58761" lon="9.28208"><ele>560.0</ele><time>2026-04-25T10:20:27.998Z</time></trkpt><trkpt lat="44.5875333" lon="9.2820267"><ele>560.0</ele><time>2026-04-25T10:20:29Z</time></trkpt><trkpt lat="44.58745" lon="9.281945"><ele>560.0</ele><time>2026-04-25T10:20:29.995Z</time></trkpt><trkpt lat="44.5873633" lon="9.28187"><ele>560.0</ele><time>2026-04-25T10:20:30.993Z</time></trkpt><trkpt lat="44.587275" lon="9.28178"><ele>560.0</ele><time>2026-04-25T10:20:31.996Z</time></trkpt><trkpt lat="44.5871833" lon="9.281685"><ele>560.0</ele><time>2026-04-25T10:20:32.999Z</time></trkpt><trkpt lat="44.5870983" lon="9.28158"><ele>560.0</ele><time>2026-04-25T10:20:33.993Z</time></trkpt><trkpt lat="44.5870183" lon="9.281475"><ele>560.5</ele><time>2026-04-25T10:20:34.994Z</time></trkpt><trkpt lat="44.5869417" lon="9.2813633"><ele>561.0</ele><time>2026-04-25T10:20:35.996Z</time></trkpt><trkpt lat="44.586865" lon="9.2812467"><ele>561.5</ele><time>2026-04-25T10:20:36.993Z</time></trkpt><trkpt lat="44.5868" lon="9.28112"><ele>562.0</ele><time>2026-04-25T10:20:37.994Z</time></trkpt><trkpt lat="44.5867333" lon="9.2809817"><ele>562.0</ele><time>2026-04-25T10:20:38.998Z</time></trkpt><trkpt lat="44.58667" lon="9.2808367"><ele>562.0</ele><time>2026-04-25T10:20:40.002Z</time></trkpt><trkpt lat="44.5866067" lon="9.28069"><ele>562.0</ele><time>2026-04-25T10:20:41Z</time></trkpt><trkpt lat="44.586545" lon="9.2805383"><ele>562.0</ele><time>2026-04-25T10:20:41.995Z</time></trkpt><trkpt lat="44.5864933" lon="9.2803783"><ele>559.25</ele><time>2026-04-25T10:20:43Z</time></trkpt><trkpt lat="44.5864367" lon="9.2802167"><ele>556.5</ele><time>2026-04-25T10:20:43.993Z</time></trkpt><trkpt lat="44.58638" lon="9.280055"><ele>553.75</ele><time>2026-04-25T10:20:44.995Z</time></trkpt><trkpt lat="44.5863217" lon="9.27989"><ele>551.0</ele><time>2026-04-25T10:20:45.993Z</time></trkpt><trkpt lat="44.5862667" lon="9.2797233"><ele>550.25</ele><time>2026-04-25T10:20:46.995Z</time></trkpt><trkpt lat="44.5862233" lon="9.2795467"><ele>549.5</ele><time>2026-04-25T10:20:47.996Z</time></trkpt><trkpt lat="44.5861767" lon="9.2793667"><ele>548.75</ele><time>2026-04-25T10:20:48.994Z</time></trkpt><trkpt lat="44.5861333" lon="9.27919"><ele>548.0</ele><time>2026-04-25T10:20:49.996Z</time></trkpt><trkpt lat="44.5860917" lon="9.2790183"><ele>552.0</ele><time>2026-04-25T10:20:50.997Z</time></trkpt><trkpt lat="44.5860483" lon="9.278845"><ele>556.0</ele><time>2026-04-25T10:20:51.995Z</time></trkpt><trkpt lat="44.5859967" lon="9.2786817"><ele>560.0</ele><time>2026-04-25T10:20:52.998Z</time></trkpt><trkpt lat="44.585935" lon="9.2785267"><ele>564.0</ele><time>2026-04-25T10:20:53.994Z</time></trkpt><trkpt lat="44.585865" lon="9.2783833"><ele>564.0</ele><time>2026-04-25T10:20:54.999Z</time></trkpt><trkpt lat="44.5857933" lon="9.278245"><ele>564.0</ele><time>2026-04-25T10:20:55.997Z</time></trkpt><trkpt lat="44.5857217" lon="9.2781067"><ele>564.0</ele><time>2026-04-25T10:20:56.997Z</time></trkpt><trkpt lat="44.5856583" lon="9.277955"><ele>564.0</ele><time>2026-04-25T10:20:57.994Z</time></trkpt><trkpt lat="44.585585" lon="9.277815"><ele>562.5</ele><time>2026-04-25T10:20:59Z</time></trkpt><trkpt lat="44.5855183" lon="9.2776783"><ele>561.0</ele><time>2026-04-25T10:20:59.995Z</time></trkpt><trkpt lat="44.58545" lon="9.2775467"><ele>559.5</ele><time>2026-04-25T10:21:00.996Z</time></trkpt><trkpt lat="44.5853917" lon="9.2774167"><ele>558.0</ele><time>2026-04-25T10:21:01.999Z</time></trkpt><trkpt lat="44.5853617" lon="9.277265"><ele>561.0</ele><time>2026-04-25T10:21:02.996Z</time></trkpt><trkpt lat="44.585335" lon="9.277125"><ele>564.0</ele><time>2026-04-25T10:21:03.995Z</time></trkpt><trkpt lat="44.58532" lon="9.27698"><ele>567.0</ele><time>2026-04-25T10:21:04.997Z</time></trkpt><trkpt lat="44.5853217" lon="9.2768233"><ele>570.0</ele><time>2026-04-25T10:21:05.997Z</time></trkpt><trkpt lat="44.58532" lon="9.27667"><ele>573.0</ele><time>2026-04-25T10:21:06.995Z</time></trkpt><trkpt lat="44.5853167" lon="9.276505"><ele>573.75</ele><time>2026-04-25T10:21:07.996Z</time></trkpt><trkpt lat="44.5853" lon="9.2763517"><ele>574.5</ele><time>2026-04-25T10:21:08.994Z</time></trkpt><trkpt lat="44.58528" lon="9.27617"><ele>575.25</ele><time>2026-04-25T10:21:09.994Z</time></trkpt><trkpt lat="44.58528" lon="9.2759767"><ele>576.0</ele><time>2026-04-25T10:21:10.995Z</time></trkpt><trkpt lat="44.58527" lon="9.2757717"><ele>574.0</ele><time>2026-04-25T10:21:11.995Z</time></trkpt><trkpt lat="44.5852217" lon="9.27559"><ele>572.0</ele><time>2026-04-25T10:21:12.998Z</time></trkpt><trkpt lat="44.5851767" lon="9.27541"><ele>570.0</ele><time>2026-04-25T10:21:13.997Z</time></trkpt><trkpt lat="44.5851083" lon="9.2752333"><ele>568.0</ele><time>2026-04-25T10:21:14.993Z</time></trkpt><trkpt lat="44.5849917" lon="9.275085"><ele>568.0</ele><time>2026-04-25T10:21:15.998Z</time></trkpt><trkpt lat="44.5849333" lon="9.2749"><ele>568.0</ele><time>2026-04-25T10:21:16.995Z</time></trkpt><trkpt lat="44.5848717" lon="9.2747233"><ele>568.0</ele><time>2026-04-25T10:21:17.994Z</time></trkpt><trkpt lat="44.5848133" lon="9.2745417"><ele>568.0</ele><time>2026-04-25T10:21:19Z</time></trkpt><trkpt lat="44.5847517" lon="9.2743517"><ele>566.6666666666667</ele><time>2026-04-25T10:21:19.997Z</time></trkpt><trkpt lat="44.5846833" lon="9.2741633"><ele>565.3333333333334</ele><time>2026-04-25T10:21:21.003Z</time></trkpt><trkpt lat="44.5846067" lon="9.27398"><ele>564.0</ele><time>2026-04-25T10:21:21.996Z</time></trkpt><trkpt lat="44.5845217" lon="9.2737983"><ele>568.0</ele><time>2026-04-25T10:21:22.996Z</time></trkpt><trkpt lat="44.5844283" lon="9.2736233"><ele>572.0</ele><time>2026-04-25T10:21:23.991Z</time></trkpt><trkpt lat="44.5843317" lon="9.2734483"><ele>576.0</ele><time>2026-04-25T10:21:24.994Z</time></trkpt><trkpt lat="44.5842317" lon="9.2732717"><ele>573.6666666666666</ele><time>2026-04-25T10:21:26Z</time></trkpt><trkpt lat="44.5841433" lon="9.273085"><ele>571.3333333333333</ele><time>2026-04-25T10:21:26.997Z</time></trkpt><trkpt lat="44.5840583" lon="9.272895"><ele>569.0</ele><time>2026-04-25T10:21:27.996Z</time></trkpt><trkpt lat="44.5840217" lon="9.272655"><ele>569.0</ele><time>2026-04-25T10:21:29.001Z</time></trkpt><trkpt lat="44.5839383" lon="9.272465"><ele>569.0</ele><time>2026-04-25T10:21:29.998Z</time></trkpt><trkpt lat="44.5838267" lon="9.272305"><ele>569.0</ele><time>2026-04-25T10:21:30.994Z</time></trkpt><trkpt lat="44.5837167" lon="9.2721417"><ele>570.0</ele><time>2026-04-25T10:21:32Z</time></trkpt><trkpt lat="44.583605" lon="9.2719883"><ele>571.0</ele><time>2026-04-25T10:21:33Z</time></trkpt><trkpt lat="44.5834783" lon="9.271855"><ele>572.0</ele><time>2026-04-25T10:21:33.996Z</time></trkpt><trkpt lat="44.5833383" lon="9.2717283"><ele>572.0</ele><time>2026-04-25T10:21:34.993Z</time></trkpt><trkpt lat="44.5831883" lon="9.271605"><ele>572.0</ele><time>2026-04-25T10:21:35.995Z</time></trkpt><trkpt lat="44.58303" lon="9.271495"><ele>572.0</ele><time>2026-04-25T10:21:36.995Z</time></trkpt><trkpt lat="44.5828767" lon="9.2713867"><ele>570.6666666666666</ele><time>2026-04-25T10:21:37.995Z</time></trkpt><trkpt lat="44.58272" lon="9.2712833"><ele>569.3333333333334</ele><time>2026-04-25T10:21:38.995Z</time></trkpt><trkpt lat="44.58257" lon="9.2711783"><ele>568.0</ele><time>2026-04-25T10:21:39.999Z</time></trkpt><trkpt lat="44.5824233" lon="9.27107"><ele>568.0</ele><time>2026-04-25T10:21:40.992Z</time></trkpt><trkpt lat="44.5822717" lon="9.2709667"><ele>568.0</ele><time>2026-04-25T10:21:41.995Z</time></trkpt><trkpt lat="44.58212" lon="9.270865"><ele>568.0</ele><time>2026-04-25T10:21:43Z</time></trkpt><trkpt lat="44.5819783" lon="9.2707717"><ele>567.6666666666667</ele><time>2026-04-25T10:21:43.998Z</time></trkpt><trkpt lat="44.5818433" lon="9.2706867"><ele>567.3333333333334</ele><time>2026-04-25T10:21:45.001Z</time></trkpt><trkpt lat="44.5816983" lon="9.2705917"><ele>567.0</ele><time>2026-04-25T10:21:45.997Z</time></trkpt><trkpt lat="44.5815533" lon="9.27049"><ele>567.0</ele><time>2026-04-25T10:21:46.998Z</time></trkpt><trkpt lat="44.5814033" lon="9.2703883"><ele>567.0</ele><time>2026-04-25T10:21:48.002Z</time></trkpt><trkpt lat="44.581245" lon="9.2703067"><ele>567.0</ele><time>2026-04-25T10:21:48.995Z</time></trkpt><trkpt lat="44.5810817" lon="9.270245"><ele>569.0</ele><time>2026-04-25T10:21:49.996Z</time></trkpt><trkpt lat="44.5809217" lon="9.2701933"><ele>571.0</ele><time>2026-04-25T10:21:51Z</time></trkpt><trkpt lat="44.5807583" lon="9.2701517"><ele>573.0</ele><time>2026-04-25T10:21:51.994Z</time></trkpt><trkpt lat="44.5805983" lon="9.27012"><ele>573.0</ele><time>2026-04-25T10:21:52.995Z</time></trkpt><trkpt lat="44.5804267" lon="9.2701167"><ele>573.0</ele><time>2026-04-25T10:21:53.994Z</time></trkpt><trkpt lat="44.5802717" lon="9.2700967"><ele>573.0</ele><time>2026-04-25T10:21:54.999Z</time></trkpt><trkpt lat="44.5801167" lon="9.2700733"><ele>574.0</ele><time>2026-04-25T10:21:55.995Z</time></trkpt><trkpt lat="44.57996" lon="9.2700483"><ele>575.0</ele><time>2026-04-25T10:21:56.996Z</time></trkpt><trkpt lat="44.5798017" lon="9.2700317"><ele>576.0</ele><time>2026-04-25T10:21:57.992Z</time></trkpt><trkpt lat="44.5796433" lon="9.2700133"><ele>576.0</ele><time>2026-04-25T10:21:58.997Z</time></trkpt><trkpt lat="44.5794867" lon="9.270005"><ele>576.0</ele><time>2026-04-25T10:21:59.998Z</time></trkpt><trkpt lat="44.5793367" lon="9.2699967"><ele>576.0</ele><time>2026-04-25T10:22:00.997Z</time></trkpt><trkpt lat="44.57919" lon="9.2699917"><ele>576.0</ele><time>2026-04-25T10:22:02.001Z</time></trkpt><trkpt lat="44.579045" lon="9.2699833"><ele>576.0</ele><time>2026-04-25T10:22:02.998Z</time></trkpt><trkpt lat="44.5789133" lon="9.2699683"><ele>576.0</ele><time>2026-04-25T10:22:03.992Z</time></trkpt><trkpt lat="44.5787683" lon="9.269995"><ele>576.0</ele><time>2026-04-25T10:22:04.999Z</time></trkpt><trkpt lat="44.578625" lon="9.2700283"><ele>575.75</ele><time>2026-04-25T10:22:05.999Z</time></trkpt><trkpt lat="44.578485" lon="9.27007"><ele>575.5</ele><time>2026-04-25T10:22:06.999Z</time></trkpt><trkpt lat="44.5783483" lon="9.2701033"><ele>575.25</ele><time>2026-04-25T10:22:07.995Z</time></trkpt><trkpt lat="44.5782133" lon="9.2701383"><ele>575.0</ele><time>2026-04-25T10:22:09.001Z</time></trkpt><trkpt lat="44.57808" lon="9.2701817"><ele>575.0</ele><time>2026-04-25T10:22:10.003Z</time></trkpt><trkpt lat="44.5779483" lon="9.2702233"><ele>575.0</ele><time>2026-04-25T10:22:10.997Z</time></trkpt><trkpt lat="44.57782" lon="9.2702467"><ele>575.0</ele><time>2026-04-25T10:22:11.996Z</time></trkpt><trkpt lat="44.5776983" lon="9.270255"><ele>575.0</ele><time>2026-04-25T10:22:12.997Z</time></trkpt><trkpt lat="44.5775783" lon="9.27026"><ele>575.0</ele><time>2026-04-25T10:22:13.997Z</time></trkpt><trkpt lat="44.5774633" lon="9.2702567"><ele>575.0</ele><time>2026-04-25T10:22:14.995Z</time></trkpt><trkpt lat="44.5773517" lon="9.2702467"><ele>575.0</ele><time>2026-04-25T10:22:15.994Z</time></trkpt><trkpt lat="44.5772383" lon="9.2702333"><ele>575.0</ele><time>2026-04-25T10:22:17Z</time></trkpt><trkpt lat="44.5771317" lon="9.2702117"><ele>575.0</ele><time>2026-04-25T10:22:17.997Z</time></trkpt><trkpt lat="44.5770283" lon="9.2702"><ele>575.4</ele><time>2026-04-25T10:22:18.996Z</time></trkpt><trkpt lat="44.5769283" lon="9.2702"><ele>575.8</ele><time>2026-04-25T10:22:19.993Z</time></trkpt><trkpt lat="44.5768283" lon="9.2702067"><ele>576.2</ele><time>2026-04-25T10:22:20.997Z</time></trkpt><trkpt lat="44.5767317" lon="9.2702217"><ele>576.6</ele><time>2026-04-25T10:22:21.993Z</time></trkpt><trkpt lat="44.5766367" lon="9.2702383"><ele>577.0</ele><time>2026-04-25T10:22:22.997Z</time></trkpt><trkpt lat="44.5765517" lon="9.2702567"><ele>577.0</ele><time>2026-04-25T10:22:23.997Z</time></trkpt><trkpt lat="44.5764633" lon="9.2702833"><ele>577.0</ele><time>2026-04-25T10:22:24.996Z</time></trkpt><trkpt lat="44.5763733" lon="9.2703133"><ele>577.0</ele><time>2026-04-25T10:22:25.999Z</time></trkpt><trkpt lat="44.576285" lon="9.270345"><ele>577.0</ele><time>2026-04-25T10:22:26.999Z</time></trkpt><trkpt lat="44.5761933" lon="9.2703767"><ele>577.0</ele><time>2026-04-25T10:22:27.994Z</time></trkpt><trkpt lat="44.5761" lon="9.2704117"><ele>577.4</ele><time>2026-04-25T10:22:28.996Z</time></trkpt><trkpt lat="44.5760083" lon="9.270435"><ele>577.8000000000001</ele><time>2026-04-25T10:22:29.998Z</time></trkpt><trkpt lat="44.5759183" lon="9.2704617"><ele>578.2</ele><time>2026-04-25T10:22:30.995Z</time></trkpt><trkpt lat="44.5758283" lon="9.2704867"><ele>578.6</ele><time>2026-04-25T10:22:31.997Z</time></trkpt><trkpt lat="44.5757383" lon="9.2705133"><ele>579.0</ele><time>2026-04-25T10:22:32.995Z</time></trkpt><trkpt lat="44.5756383" lon="9.270555"><ele>579.4</ele><time>2026-04-25T10:22:33.995Z</time></trkpt><trkpt lat="44.5755533" lon="9.2706167"><ele>579.8</ele><time>2026-04-25T10:22:34.998Z</time></trkpt><trkpt lat="44.5754683" lon="9.2706917"><ele>580.2</ele><time>2026-04-25T10:22:35.994Z</time></trkpt><trkpt lat="44.5753817" lon="9.2707667"><ele>580.6</ele><time>2026-04-25T10:22:36.996Z</time></trkpt><trkpt lat="44.5753" lon="9.27085"><ele>581.0</ele><time>2026-04-25T10:22:37.995Z</time></trkpt><trkpt lat="44.5752267" lon="9.2709467"><ele>581.0</ele><time>2026-04-25T10:22:39.002Z</time></trkpt><trkpt lat="44.57515" lon="9.2710483"><ele>581.0</ele><time>2026-04-25T10:22:39.994Z</time></trkpt><trkpt lat="44.575085" lon="9.2711567"><ele>581.0</ele><time>2026-04-25T10:22:40.996Z</time></trkpt><trkpt lat="44.5750183" lon="9.2712683"><ele>581.0</ele><time>2026-04-25T10:22:41.998Z</time></trkpt><trkpt lat="44.5749583" lon="9.2713817"><ele>581.0</ele><time>2026-04-25T10:22:42.993Z</time></trkpt><trkpt lat="44.574895" lon="9.271495"><ele>582.2</ele><time>2026-04-25T10:22:44Z</time></trkpt><trkpt lat="44.5748383" lon="9.271605"><ele>583.4000000000001</ele><time>2026-04-25T10:22:44.997Z</time></trkpt><trkpt lat="44.5747883" lon="9.2717083"><ele>584.6</ele><time>2026-04-25T10:22:45.996Z</time></trkpt><trkpt lat="44.5747433" lon="9.27182"><ele>585.8000000000001</ele><time>2026-04-25T10:22:46.996Z</time></trkpt><trkpt lat="44.5747017" lon="9.2719383"><ele>587.0</ele><time>2026-04-25T10:22:47.994Z</time></trkpt><trkpt lat="44.5746617" lon="9.2720617"><ele>587.0</ele><time>2026-04-25T10:22:48.997Z</time></trkpt><trkpt lat="44.5746217" lon="9.2721983"><ele>587.0</ele><time>2026-04-25T10:22:49.994Z</time></trkpt><trkpt lat="44.5745767" lon="9.272345"><ele>587.0</ele><time>2026-04-25T10:22:51.002Z</time></trkpt><trkpt lat="44.5745317" lon="9.2724967"><ele>587.0</ele><time>2026-04-25T10:22:51.998Z</time></trkpt><trkpt lat="44.5744817" lon="9.2726517"><ele>587.0</ele><time>2026-04-25T10:22:52.998Z</time></trkpt><trkpt lat="44.5744317" lon="9.2728083"><ele>587.0</ele><time>2026-04-25T10:22:53.994Z</time></trkpt><trkpt lat="44.5743733" lon="9.272955"><ele>587.0</ele><time>2026-04-25T10:22:54.995Z</time></trkpt><trkpt lat="44.57429" lon="9.2731"><ele>587.0</ele><time>2026-04-25T10:22:55.997Z</time></trkpt><trkpt lat="44.5741917" lon="9.2732367"><ele>587.0</ele><time>2026-04-25T10:22:56.994Z</time></trkpt><trkpt lat="44.5740817" lon="9.2733717"><ele>587.0</ele><time>2026-04-25T10:22:57.998Z</time></trkpt><trkpt lat="44.5739667" lon="9.2735067"><ele>587.0</ele><time>2026-04-25T10:22:58.995Z</time></trkpt><trkpt lat="44.5738533" lon="9.273645"><ele>587.0</ele><time>2026-04-25T10:22:59.999Z</time></trkpt><trkpt lat="44.57374" lon="9.273775"><ele>586.5</ele><time>2026-04-25T10:23:00.995Z</time></trkpt><trkpt lat="44.573625" lon="9.2739067"><ele>586.0</ele><time>2026-04-25T10:23:01.995Z</time></trkpt><trkpt lat="44.57351" lon="9.27404"><ele>585.5</ele><time>2026-04-25T10:23:02.994Z</time></trkpt><trkpt lat="44.5733967" lon="9.2741767"><ele>585.0</ele><time>2026-04-25T10:23:03.995Z</time></trkpt><trkpt lat="44.573285" lon="9.274325"><ele>585.0</ele><time>2026-04-25T10:23:04.994Z</time></trkpt><trkpt lat="44.5731667" lon="9.2744717"><ele>585.0</ele><time>2026-04-25T10:23:05.997Z</time></trkpt><trkpt lat="44.57304" lon="9.2746183"><ele>585.0</ele><time>2026-04-25T10:23:06.997Z</time></trkpt><trkpt lat="44.5729033" lon="9.2747583"><ele>585.6666666666666</ele><time>2026-04-25T10:23:07.997Z</time></trkpt><trkpt lat="44.5727633" lon="9.2748883"><ele>586.3333333333333</ele><time>2026-04-25T10:23:08.995Z</time></trkpt><trkpt lat="44.5726167" lon="9.2750083"><ele>587.0</ele><time>2026-04-25T10:23:09.999Z</time></trkpt><trkpt lat="44.57247" lon="9.2751367"><ele>587.0</ele><time>2026-04-25T10:23:10.995Z</time></trkpt><trkpt lat="44.5723183" lon="9.2752617"><ele>587.0</ele><time>2026-04-25T10:23:11.998Z</time></trkpt><trkpt lat="44.57216" lon="9.27537"><ele>587.0</ele><time>2026-04-25T10:23:12.993Z</time></trkpt><trkpt lat="44.5720083" lon="9.2754683"><ele>587.6666666666666</ele><time>2026-04-25T10:23:13.996Z</time></trkpt><trkpt lat="44.571865" lon="9.275575"><ele>588.3333333333334</ele><time>2026-04-25T10:23:14.999Z</time></trkpt><trkpt lat="44.57173" lon="9.275685"><ele>589.0</ele><time>2026-04-25T10:23:15.993Z</time></trkpt><trkpt lat="44.5716117" lon="9.2758017"><ele>589.0</ele><time>2026-04-25T10:23:16.996Z</time></trkpt><trkpt lat="44.5715" lon="9.275925"><ele>589.0</ele><time>2026-04-25T10:23:18.002Z</time></trkpt><trkpt lat="44.5714017" lon="9.2760367"><ele>589.0</ele><time>2026-04-25T10:23:18.997Z</time></trkpt><trkpt lat="44.5713117" lon="9.27612"><ele>589.0</ele><time>2026-04-25T10:23:19.997Z</time></trkpt><trkpt lat="44.5712133" lon="9.2761733"><ele>589.0</ele><time>2026-04-25T10:23:20.997Z</time></trkpt><trkpt lat="44.571115" lon="9.2761867"><ele>589.0</ele><time>2026-04-25T10:23:22Z</time></trkpt><trkpt lat="44.5710083" lon="9.2761733"><ele>589.0</ele><time>2026-04-25T10:23:22.996Z</time></trkpt><trkpt lat="44.5709" lon="9.276115"><ele>589.0</ele><time>2026-04-25T10:23:23.998Z</time></trkpt><trkpt lat="44.5707717" lon="9.2759983"><ele>589.0</ele><time>2026-04-25T10:23:24.997Z</time></trkpt><trkpt lat="44.5706533" lon="9.2759217"><ele>589.0</ele><time>2026-04-25T10:23:25.996Z</time></trkpt><trkpt lat="44.5705133" lon="9.2758483"><ele>589.0</ele><time>2026-04-25T10:23:26.994Z</time></trkpt><trkpt lat="44.57037" lon="9.27581"><ele>589.0</ele><time>2026-04-25T10:23:27.998Z</time></trkpt><trkpt lat="44.57022" lon="9.2757883"><ele>587.75</ele><time>2026-04-25T10:23:28.997Z</time></trkpt><trkpt lat="44.5700767" lon="9.2757817"><ele>586.5</ele><time>2026-04-25T10:23:29.997Z</time></trkpt><trkpt lat="44.56993" lon="9.2758017"><ele>585.25</ele><time>2026-04-25T10:23:30.995Z</time></trkpt><trkpt lat="44.5697817" lon="9.2758367"><ele>584.0</ele><time>2026-04-25T10:23:32Z</time></trkpt><trkpt lat="44.569645" lon="9.2758983"><ele>583.25</ele><time>2026-04-25T10:23:33.002Z</time></trkpt><trkpt lat="44.5695233" lon="9.2759933"><ele>582.5</ele><time>2026-04-25T10:23:34.002Z</time></trkpt><trkpt lat="44.5694133" lon="9.276115"><ele>581.75</ele><time>2026-04-25T10:23:34.997Z</time></trkpt><trkpt lat="44.56931" lon="9.2762683"><ele>581.0</ele><time>2026-04-25T10:23:35.997Z</time></trkpt><trkpt lat="44.569225" lon="9.276435"><ele>581.25</ele><time>2026-04-25T10:23:36.991Z</time></trkpt><trkpt lat="44.5691617" lon="9.276605"><ele>581.5</ele><time>2026-04-25T10:23:38Z</time></trkpt><trkpt lat="44.5691133" lon="9.27678"><ele>581.75</ele><time>2026-04-25T10:23:38.997Z</time></trkpt><trkpt lat="44.569065" lon="9.2769483"><ele>582.0</ele><time>2026-04-25T10:23:39.994Z</time></trkpt><trkpt lat="44.569" lon="9.2770983"><ele>582.0</ele><time>2026-04-25T10:23:40.993Z</time></trkpt><trkpt lat="44.5689233" lon="9.2772383"><ele>582.0</ele><time>2026-04-25T10:23:41.996Z</time></trkpt><trkpt lat="44.56883" lon="9.2773683"><ele>582.0</ele><time>2026-04-25T10:23:42.996Z</time></trkpt><trkpt lat="44.5687267" lon="9.27749"><ele>582.0</ele><time>2026-04-25T10:23:43.994Z</time></trkpt><trkpt lat="44.5686217" lon="9.277615"><ele>582.0</ele><time>2026-04-25T10:23:44.994Z</time></trkpt><trkpt lat="44.5685117" lon="9.2777383"><ele>582.0</ele><time>2026-04-25T10:23:45.992Z</time></trkpt><trkpt lat="44.5683967" lon="9.2778617"><ele>582.0</ele><time>2026-04-25T10:23:46.999Z</time></trkpt><trkpt lat="44.568285" lon="9.2779867"><ele>582.0</ele><time>2026-04-25T10:23:47.994Z</time></trkpt><trkpt lat="44.5681667" lon="9.2781083"><ele>583.0</ele><time>2026-04-25T10:23:48.996Z</time></trkpt><trkpt lat="44.56805" lon="9.2782317"><ele>584.0</ele><time>2026-04-25T10:23:49.994Z</time></trkpt><trkpt lat="44.5679333" lon="9.278355"><ele>585.0</ele><time>2026-04-25T10:23:50.996Z</time></trkpt><trkpt lat="44.5678117" lon="9.2784817"><ele>586.0</ele><time>2026-04-25T10:23:51.995Z</time></trkpt><trkpt lat="44.5676933" lon="9.2786067"><ele>586.0</ele><time>2026-04-25T10:23:52.993Z</time></trkpt><trkpt lat="44.5675733" lon="9.278725"><ele>586.0</ele><time>2026-04-25T10:23:53.996Z</time></trkpt><trkpt lat="44.5674483" lon="9.2788367"><ele>586.0</ele><time>2026-04-25T10:23:54.995Z</time></trkpt><trkpt lat="44.5673233" lon="9.2789433"><ele>586.0</ele><time>2026-04-25T10:23:55.997Z</time></trkpt><trkpt lat="44.567195" lon="9.2790383"><ele>586.5</ele><time>2026-04-25T10:23:56.994Z</time></trkpt><trkpt lat="44.5670633" lon="9.2791317"><ele>587.0</ele><time>2026-04-25T10:23:57.997Z</time></trkpt><trkpt lat="44.5669317" lon="9.2792283"><ele>587.5</ele><time>2026-04-25T10:23:58.999Z</time></trkpt><trkpt lat="44.5668" lon="9.27933"><ele>588.0</ele><time>2026-04-25T10:24:00Z</time></trkpt><trkpt lat="44.56667" lon="9.2794317"><ele>588.0</ele><time>2026-04-25T10:24:01Z</time></trkpt><trkpt lat="44.5665433" lon="9.2795417"><ele>588.0</ele><time>2026-04-25T10:24:02.002Z</time></trkpt><trkpt lat="44.5664283" lon="9.27966"><ele>588.0</ele><time>2026-04-25T10:24:03.001Z</time></trkpt><trkpt lat="44.56633" lon="9.2797933"><ele>588.0</ele><time>2026-04-25T10:24:04Z</time></trkpt><trkpt lat="44.5662433" lon="9.2799633"><ele>588.25</ele><time>2026-04-25T10:24:04.998Z</time></trkpt><trkpt lat="44.566165" lon="9.280145"><ele>588.5</ele><time>2026-04-25T10:24:05.997Z</time></trkpt><trkpt lat="44.5660917" lon="9.2803217"><ele>588.75</ele><time>2026-04-25T10:24:06.999Z</time></trkpt><trkpt lat="44.56602" lon="9.2805017"><ele>589.0</ele><time>2026-04-25T10:24:07.998Z</time></trkpt><trkpt lat="44.5659483" lon="9.2806833"><ele>590.0</ele><time>2026-04-25T10:24:08.999Z</time></trkpt><trkpt lat="44.5658783" lon="9.2808333"><ele>591.0</ele><time>2026-04-25T10:24:09.993Z</time></trkpt><trkpt lat="44.5658067" lon="9.2809533"><ele>592.0</ele><time>2026-04-25T10:24:10.999Z</time></trkpt><trkpt lat="44.565725" lon="9.28105"><ele>593.0</ele><time>2026-04-25T10:24:12Z</time></trkpt><trkpt lat="44.565645" lon="9.281115"><ele>594.0</ele><time>2026-04-25T10:24:13.003Z</time></trkpt><trkpt lat="44.565565" lon="9.281155"><ele>594.0</ele><time>2026-04-25T10:24:13.997Z</time></trkpt><trkpt lat="44.5654817" lon="9.28118"><ele>594.0</ele><time>2026-04-25T10:24:14.996Z</time></trkpt><trkpt lat="44.5653917" lon="9.2811633"><ele>594.0</ele><time>2026-04-25T10:24:15.999Z</time></trkpt><trkpt lat="44.56531" lon="9.2810633"><ele>594.0</ele><time>2026-04-25T10:24:17.003Z</time></trkpt><trkpt lat="44.56522" lon="9.2809833"><ele>594.0</ele><time>2026-04-25T10:24:17.997Z</time></trkpt><trkpt lat="44.56512" lon="9.2808983"><ele>593.4</ele><time>2026-04-25T10:24:18.998Z</time></trkpt><trkpt lat="44.5650283" lon="9.28083"><ele>592.8</ele><time>2026-04-25T10:24:19.995Z</time></trkpt><trkpt lat="44.5649317" lon="9.2807883"><ele>592.2</ele><time>2026-04-25T10:24:21.005Z</time></trkpt><trkpt lat="44.564835" lon="9.2808067"><ele>591.6</ele><time>2026-04-25T10:24:22.001Z</time></trkpt><trkpt lat="44.5647367" lon="9.2808617"><ele>591.0</ele><time>2026-04-25T10:24:22.994Z</time></trkpt><trkpt lat="44.5646483" lon="9.2809533"><ele>591.0</ele><time>2026-04-25T10:24:23.995Z</time></trkpt><trkpt lat="44.5645617" lon="9.2810683"><ele>591.0</ele><time>2026-04-25T10:24:24.997Z</time></trkpt><trkpt lat="44.5644667" lon="9.2811767"><ele>591.0</ele><time>2026-04-25T10:24:26.003Z</time></trkpt><trkpt lat="44.5643733" lon="9.281295"><ele>591.0</ele><time>2026-04-25T10:24:27Z</time></trkpt><trkpt lat="44.564275" lon="9.2814133"><ele>590.75</ele><time>2026-04-25T10:24:27.995Z</time></trkpt><trkpt lat="44.5641633" lon="9.2815183"><ele>590.5</ele><time>2026-04-25T10:24:28.995Z</time></trkpt><trkpt lat="44.5640533" lon="9.2816267"><ele>590.25</ele><time>2026-04-25T10:24:29.996Z</time></trkpt><trkpt lat="44.5639483" lon="9.2817367"><ele>590.0</ele><time>2026-04-25T10:24:31.001Z</time></trkpt><trkpt lat="44.5638417" lon="9.2818467"><ele>590.0</ele><time>2026-04-25T10:24:32Z</time></trkpt><trkpt lat="44.56373" lon="9.281955"><ele>590.0</ele><time>2026-04-25T10:24:33.003Z</time></trkpt><trkpt lat="44.5636183" lon="9.282065"><ele>590.0</ele><time>2026-04-25T10:24:34.003Z</time></trkpt><trkpt lat="44.5635033" lon="9.2821817"><ele>590.0</ele><time>2026-04-25T10:24:34.997Z</time></trkpt><trkpt lat="44.5633917" lon="9.28231"><ele>589.75</ele><time>2026-04-25T10:24:35.999Z</time></trkpt><trkpt lat="44.5632717" lon="9.2824267"><ele>589.5</ele><time>2026-04-25T10:24:36.997Z</time></trkpt><trkpt lat="44.5631483" lon="9.28254"><ele>589.25</ele><time>2026-04-25T10:24:37.996Z</time></trkpt><trkpt lat="44.5630283" lon="9.282665"><ele>589.0</ele><time>2026-04-25T10:24:38.999Z</time></trkpt><trkpt lat="44.5629067" lon="9.2827817"><ele>589.5</ele><time>2026-04-25T10:24:39.995Z</time></trkpt><trkpt lat="44.562785" lon="9.2828833"><ele>590.0</ele><time>2026-04-25T10:24:40.998Z</time></trkpt><trkpt lat="44.5626633" lon="9.2829817"><ele>590.5</ele><time>2026-04-25T10:24:41.999Z</time></trkpt><trkpt lat="44.5625467" lon="9.2830683"><ele>591.0</ele><time>2026-04-25T10:24:42.997Z</time></trkpt><trkpt lat="44.5624317" lon="9.2831533"><ele>591.0</ele><time>2026-04-25T10:24:43.996Z</time></trkpt><trkpt lat="44.562325" lon="9.2832367"><ele>591.0</ele><time>2026-04-25T10:24:45.001Z</time></trkpt><trkpt lat="44.562215" lon="9.283315"><ele>591.0</ele><time>2026-04-25T10:24:45.996Z</time></trkpt><trkpt lat="44.5621033" lon="9.2833833"><ele>591.0</ele><time>2026-04-25T10:24:46.993Z</time></trkpt><trkpt lat="44.5619817" lon="9.2834717"><ele>597.0</ele><time>2026-04-25T10:24:48.001Z</time></trkpt><trkpt lat="44.5618667" lon="9.2835433"><ele>603.0</ele><time>2026-04-25T10:24:48.996Z</time></trkpt><trkpt lat="44.56173" lon="9.283615"><ele>609.0</ele><time>2026-04-25T10:24:49.995Z</time></trkpt><trkpt lat="44.5615917" lon="9.2836867"><ele>615.0</ele><time>2026-04-25T10:24:50.997Z</time></trkpt><trkpt lat="44.5614533" lon="9.2837567"><ele>615.0</ele><time>2026-04-25T10:24:52Z</time></trkpt><trkpt lat="44.5613133" lon="9.283815"><ele>615.0</ele><time>2026-04-25T10:24:52.998Z</time></trkpt><trkpt lat="44.5611783" lon="9.2838417"><ele>615.0</ele><time>2026-04-25T10:24:53.998Z</time></trkpt><trkpt lat="44.5610467" lon="9.2838467"><ele>615.0</ele><time>2026-04-25T10:24:54.998Z</time></trkpt><trkpt lat="44.560915" lon="9.2838317"><ele>618.25</ele><time>2026-04-25T10:24:55.995Z</time></trkpt><trkpt lat="44.5607867" lon="9.283835"><ele>621.5</ele><time>2026-04-25T10:24:56.999Z</time></trkpt><trkpt lat="44.560655" lon="9.2838567"><ele>624.75</ele><time>2026-04-25T10:24:57.996Z</time></trkpt><trkpt lat="44.5605267" lon="9.2838517"><ele>628.0</ele><time>2026-04-25T10:24:58.997Z</time></trkpt><trkpt lat="44.5603983" lon="9.2838417"><ele>628.0</ele><time>2026-04-25T10:24:59.999Z</time></trkpt><trkpt lat="44.5602767" lon="9.2838033"><ele>628.0</ele><time>2026-04-25T10:25:00.995Z</time></trkpt><trkpt lat="44.5601517" lon="9.2837967"><ele>628.0</ele><time>2026-04-25T10:25:01.999Z</time></trkpt><trkpt lat="44.5600317" lon="9.2837817"><ele>628.0</ele><time>2026-04-25T10:25:02.996Z</time></trkpt><trkpt lat="44.5599233" lon="9.283725"><ele>628.0</ele><time>2026-04-25T10:25:03.999Z</time></trkpt><trkpt lat="44.5598083" lon="9.2837017"><ele>628.0</ele><time>2026-04-25T10:25:04.995Z</time></trkpt><trkpt lat="44.5596967" lon="9.2836867"><ele>628.0</ele><time>2026-04-25T10:25:05.993Z</time></trkpt><trkpt lat="44.5595983" lon="9.28363"><ele>628.0</ele><time>2026-04-25T10:25:06.994Z</time></trkpt><trkpt lat="44.5595017" lon="9.2835733"><ele>628.0</ele><time>2026-04-25T10:25:08.001Z</time></trkpt><trkpt lat="44.5594133" lon="9.2834967"><ele>625.0</ele><time>2026-04-25T10:25:09Z</time></trkpt><trkpt lat="44.55935" lon="9.2833717"><ele>622.0</ele><time>2026-04-25T10:25:09.996Z</time></trkpt><trkpt lat="44.5593" lon="9.28324"><ele>619.0</ele><time>2026-04-25T10:25:10.997Z</time></trkpt><trkpt lat="44.5592733" lon="9.283095"><ele>616.0</ele><time>2026-04-25T10:25:12.002Z</time></trkpt><trkpt lat="44.5592567" lon="9.282965"><ele>613.0</ele><time>2026-04-25T10:25:12.996Z</time></trkpt><trkpt lat="44.5592483" lon="9.282815"><ele>613.0</ele><time>2026-04-25T10:25:13.995Z</time></trkpt><trkpt lat="44.559225" lon="9.2826733"><ele>613.0</ele><time>2026-04-25T10:25:15.001Z</time></trkpt><trkpt lat="44.5591833" lon="9.2825267"><ele>613.0</ele><time>2026-04-25T10:25:16Z</time></trkpt><trkpt lat="44.559125" lon="9.2823867"><ele>613.0</ele><time>2026-04-25T10:25:16.997Z</time></trkpt><trkpt lat="44.559065" lon="9.2822417"><ele>611.6</ele><time>2026-04-25T10:25:17.996Z</time></trkpt><trkpt lat="44.55898" lon="9.282135"><ele>610.1999999999999</ele><time>2026-04-25T10:25:19Z</time></trkpt><trkpt lat="44.5588933" lon="9.2820483"><ele>608.8</ele><time>2026-04-25T10:25:19.994Z</time></trkpt><trkpt lat="44.558795" lon="9.281985"><ele>607.4</ele><time>2026-04-25T10:25:21Z</time></trkpt><trkpt lat="44.5586917" lon="9.2819383"><ele>606.0</ele><time>2026-04-25T10:25:22Z</time></trkpt><trkpt lat="44.5585917" lon="9.281915"><ele>606.0</ele><time>2026-04-25T10:25:22.999Z</time></trkpt><trkpt lat="44.558495" lon="9.2819133"><ele>606.0</ele><time>2026-04-25T10:25:23.997Z</time></trkpt><trkpt lat="44.5583983" lon="9.28193"><ele>606.0</ele><time>2026-04-25T10:25:25.001Z</time></trkpt><trkpt lat="44.5582983" lon="9.2819683"><ele>606.0</ele><time>2026-04-25T10:25:25.997Z</time></trkpt><trkpt lat="44.5581967" lon="9.28202"><ele>606.0</ele><time>2026-04-25T10:25:26.996Z</time></trkpt><trkpt lat="44.5580883" lon="9.282085"><ele>606.0</ele><time>2026-04-25T10:25:27.999Z</time></trkpt><trkpt lat="44.5579733" lon="9.2821583"><ele>606.0</ele><time>2026-04-25T10:25:29.003Z</time></trkpt><trkpt lat="44.5578583" lon="9.2822267"><ele>606.0</ele><time>2026-04-25T10:25:29.996Z</time></trkpt><trkpt lat="44.557745" lon="9.2823017"><ele>606.0</ele><time>2026-04-25T10:25:30.998Z</time></trkpt><trkpt lat="44.5576333" lon="9.2823717"><ele>604.25</ele><time>2026-04-25T10:25:31.996Z</time></trkpt><trkpt lat="44.5575233" lon="9.2824433"><ele>602.5</ele><time>2026-04-25T10:25:32.997Z</time></trkpt><trkpt lat="44.5574133" lon="9.282515"><ele>600.75</ele><time>2026-04-25T10:25:34.001Z</time></trkpt><trkpt lat="44.5573033" lon="9.2825917"><ele>599.0</ele><time>2026-04-25T10:25:34.997Z</time></trkpt><trkpt lat="44.55719" lon="9.282665"><ele>599.0</ele><time>2026-04-25T10:25:35.997Z</time></trkpt><trkpt lat="44.5570717" lon="9.28274"><ele>599.0</ele><time>2026-04-25T10:25:36.996Z</time></trkpt><trkpt lat="44.5569533" lon="9.2828133"><ele>599.0</ele><time>2026-04-25T10:25:37.999Z</time></trkpt><trkpt lat="44.5568333" lon="9.2828867"><ele>599.0</ele><time>2026-04-25T10:25:38.998Z</time></trkpt><trkpt lat="44.5567217" lon="9.2829617"><ele>599.25</ele><time>2026-04-25T10:25:40Z</time></trkpt><trkpt lat="44.5566133" lon="9.28303"><ele>599.5</ele><time>2026-04-25T10:25:41.005Z</time></trkpt><trkpt lat="44.5565083" lon="9.2830933"><ele>599.75</ele><time>2026-04-25T10:25:41.998Z</time></trkpt><trkpt lat="44.5564067" lon="9.2831683"><ele>600.0</ele><time>2026-04-25T10:25:43Z</time></trkpt><trkpt lat="44.5563017" lon="9.2832367"><ele>601.4</ele><time>2026-04-25T10:25:43.998Z</time></trkpt><trkpt lat="44.5561967" lon="9.2832983"><ele>602.8</ele><time>2026-04-25T10:25:45.006Z</time></trkpt><trkpt lat="44.556095" lon="9.2833533"><ele>604.2</ele><time>2026-04-25T10:25:45.998Z</time></trkpt><trkpt lat="44.5560067" lon="9.28341"><ele>605.6</ele><time>2026-04-25T10:25:46.999Z</time></trkpt><trkpt lat="44.55593" lon="9.2834617"><ele>607.0</ele><time>2026-04-25T10:25:48.005Z</time></trkpt><trkpt lat="44.555865" lon="9.2834983"><ele>606.9999999999999</ele><time>2026-04-25T10:25:48.998Z</time></trkpt><trkpt lat="44.5558" lon="9.2835217"><ele>607.0</ele><time>2026-04-25T10:25:49.999Z</time></trkpt><trkpt lat="44.5557333" lon="9.2835383"><ele>607.0</ele><time>2026-04-25T10:25:51.002Z</time></trkpt><trkpt lat="44.55566" lon="9.28354"><ele>607.0</ele><time>2026-04-25T10:25:51.998Z</time></trkpt><trkpt lat="44.55558" lon="9.2835217"><ele>607.0</ele><time>2026-04-25T10:25:53.001Z</time></trkpt><trkpt lat="44.555505" lon="9.2834867"><ele>606.9999999999999</ele><time>2026-04-25T10:25:53.997Z</time></trkpt><trkpt lat="44.55544" lon="9.2834233"><ele>607.0</ele><time>2026-04-25T10:25:55.002Z</time></trkpt><trkpt lat="44.55538" lon="9.2833367"><ele>605.75</ele><time>2026-04-25T10:25:55.995Z</time></trkpt><trkpt lat="44.5553217" lon="9.2832417"><ele>604.5</ele><time>2026-04-25T10:25:56.999Z</time></trkpt><trkpt lat="44.5553" lon="9.2830667"><ele>603.25</ele><time>2026-04-25T10:25:57.998Z</time></trkpt><trkpt lat="44.5552767" lon="9.2828933"><ele>602.0</ele><time>2026-04-25T10:25:59Z</time></trkpt><trkpt lat="44.5552383" lon="9.28275"><ele>602.0</ele><time>2026-04-25T10:25:59.995Z</time></trkpt><trkpt lat="44.5551933" lon="9.282605"><ele>602.0</ele><time>2026-04-25T10:26:00.996Z</time></trkpt><trkpt lat="44.5551433" lon="9.2824567"><ele>602.0</ele><time>2026-04-25T10:26:01.997Z</time></trkpt><trkpt lat="44.5550867" lon="9.2823167"><ele>602.0</ele><time>2026-04-25T10:26:03.001Z</time></trkpt><trkpt lat="44.5550133" lon="9.28218"><ele>607.5</ele><time>2026-04-25T10:26:04.001Z</time></trkpt><trkpt lat="44.5549283" lon="9.28205"><ele>613.0</ele><time>2026-04-25T10:26:04.999Z</time></trkpt><trkpt lat="44.5548467" lon="9.2819233"><ele>618.5</ele><time>2026-04-25T10:26:05.999Z</time></trkpt><trkpt lat="44.5547617" lon="9.2818067"><ele>624.0</ele><time>2026-04-25T10:26:06.998Z</time></trkpt><trkpt lat="44.5546817" lon="9.28169"><ele>624.0</ele><time>2026-04-25T10:26:08Z</time></trkpt><trkpt lat="44.5546" lon="9.281565"><ele>624.0</ele><time>2026-04-25T10:26:08.995Z</time></trkpt><trkpt lat="44.55454" lon="9.2814133"><ele>624.0</ele><time>2026-04-25T10:26:10.004Z</time></trkpt><trkpt lat="44.5544883" lon="9.28127"><ele>624.0</ele><time>2026-04-25T10:26:10.998Z</time></trkpt><trkpt lat="44.5544317" lon="9.2811433"><ele>624.5</ele><time>2026-04-25T10:26:12Z</time></trkpt><trkpt lat="44.5543617" lon="9.2810233"><ele>625.0</ele><time>2026-04-25T10:26:12.999Z</time></trkpt><trkpt lat="44.55427" lon="9.280915"><ele>625.5</ele><time>2026-04-25T10:26:14Z</time></trkpt><trkpt lat="44.554165" lon="9.280825"><ele>626.0</ele><time>2026-04-25T10:26:14.997Z</time></trkpt><trkpt lat="44.5540417" lon="9.2807717"><ele>626.0</ele><time>2026-04-25T10:26:15.999Z</time></trkpt><trkpt lat="44.5539167" lon="9.2807133"><ele>626.0</ele><time>2026-04-25T10:26:16.996Z</time></trkpt><trkpt lat="44.5537933" lon="9.280655"><ele>626.0</ele><time>2026-04-25T10:26:18.002Z</time></trkpt><trkpt lat="44.5536767" lon="9.2806017"><ele>626.0</ele><time>2026-04-25T10:26:18.997Z</time></trkpt><trkpt lat="44.5535617" lon="9.2805433"><ele>624.25</ele><time>2026-04-25T10:26:19.998Z</time></trkpt><trkpt lat="44.55345" lon="9.2804867"><ele>622.5</ele><time>2026-04-25T10:26:20.999Z</time></trkpt><trkpt lat="44.5533383" lon="9.280425"><ele>620.75</ele><time>2026-04-25T10:26:21.996Z</time></trkpt><trkpt lat="44.5532267" lon="9.2803567"><ele>619.0</ele><time>2026-04-25T10:26:22.999Z</time></trkpt><trkpt lat="44.5531133" lon="9.2802883"><ele>619.0</ele><time>2026-04-25T10:26:23.996Z</time></trkpt><trkpt lat="44.553" lon="9.280215"><ele>619.0</ele><time>2026-04-25T10:26:24.996Z</time></trkpt><trkpt lat="44.5528867" lon="9.2801383"><ele>619.0</ele><time>2026-04-25T10:26:25.998Z</time></trkpt><trkpt lat="44.552775" lon="9.2800533"><ele>619.0</ele><time>2026-04-25T10:26:26.999Z</time></trkpt><trkpt lat="44.5526617" lon="9.2799667"><ele>619.0</ele><time>2026-04-25T10:26:27.997Z</time></trkpt><trkpt lat="44.5525433" lon="9.2798767"><ele>619.0</ele><time>2026-04-25T10:26:28.996Z</time></trkpt><trkpt lat="44.5524267" lon="9.2797833"><ele>619.0</ele><time>2026-04-25T10:26:29.997Z</time></trkpt><trkpt lat="44.5522967" lon="9.2797067"><ele>619.0</ele><time>2026-04-25T10:26:31Z</time></trkpt><trkpt lat="44.5521767" lon="9.279605"><ele>619.0</ele><time>2026-04-25T10:26:32.001Z</time></trkpt><trkpt lat="44.55206" lon="9.2795033"><ele>619.0</ele><time>2026-04-25T10:26:33.002Z</time></trkpt><trkpt lat="44.55194" lon="9.2794117"><ele>619.0</ele><time>2026-04-25T10:26:33.998Z</time></trkpt><trkpt lat="44.5518233" lon="9.2793217"><ele>619.0</ele><time>2026-04-25T10:26:34.998Z</time></trkpt><trkpt lat="44.55171" lon="9.27923"><ele>618.0</ele><time>2026-04-25T10:26:35.996Z</time></trkpt><trkpt lat="44.551605" lon="9.2791283"><ele>617.0</ele><time>2026-04-25T10:26:36.996Z</time></trkpt><trkpt lat="44.5515183" lon="9.2790083"><ele>616.0</ele><time>2026-04-25T10:26:37.997Z</time></trkpt><trkpt lat="44.5514467" lon="9.2788683"><ele>615.0</ele><time>2026-04-25T10:26:38.999Z</time></trkpt><trkpt lat="44.5514017" lon="9.2787083"><ele>615.0</ele><time>2026-04-25T10:26:39.995Z</time></trkpt><trkpt lat="44.5513833" lon="9.278535"><ele>615.0</ele><time>2026-04-25T10:26:40.995Z</time></trkpt><trkpt lat="44.5513783" lon="9.27835"><ele>615.0</ele><time>2026-04-25T10:26:41.998Z</time></trkpt><trkpt lat="44.551385" lon="9.278155"><ele>615.0</ele><time>2026-04-25T10:26:42.999Z</time></trkpt><trkpt lat="44.5514017" lon="9.2779517"><ele>616.5</ele><time>2026-04-25T10:26:43.999Z</time></trkpt><trkpt lat="44.55142" lon="9.2777417"><ele>618.0</ele><time>2026-04-25T10:26:45.004Z</time></trkpt><trkpt lat="44.5514333" lon="9.2775367"><ele>619.5</ele><time>2026-04-25T10:26:45.997Z</time></trkpt><trkpt lat="44.5514517" lon="9.2773367"><ele>621.0</ele><time>2026-04-25T10:26:46.997Z</time></trkpt><trkpt lat="44.5514767" lon="9.2771417"><ele>621.0</ele><time>2026-04-25T10:26:47.998Z</time></trkpt><trkpt lat="44.5515133" lon="9.276945"><ele>621.0</ele><time>2026-04-25T10:26:49.005Z</time></trkpt><trkpt lat="44.5515533" lon="9.2767367"><ele>621.0</ele><time>2026-04-25T10:26:49.998Z</time></trkpt><trkpt lat="44.551605" lon="9.276525"><ele>618.0</ele><time>2026-04-25T10:26:51.001Z</time></trkpt><trkpt lat="44.5516567" lon="9.2763133"><ele>615.0</ele><time>2026-04-25T10:26:51.999Z</time></trkpt><trkpt lat="44.5517083" lon="9.276105"><ele>612.0</ele><time>2026-04-25T10:26:52.996Z</time></trkpt><trkpt lat="44.5517567" lon="9.2758883"><ele>612.0</ele><time>2026-04-25T10:26:53.995Z</time></trkpt><trkpt lat="44.5518067" lon="9.2756817"><ele>612.0</ele><time>2026-04-25T10:26:54.996Z</time></trkpt><trkpt lat="44.55186" lon="9.2755067"><ele>612.0</ele><time>2026-04-25T10:26:55.997Z</time></trkpt><trkpt lat="44.5518967" lon="9.2753367"><ele>612.0</ele><time>2026-04-25T10:26:56.996Z</time></trkpt><trkpt lat="44.551905" lon="9.2751783"><ele>613.0</ele><time>2026-04-25T10:26:57.996Z</time></trkpt><trkpt lat="44.551865" lon="9.2750267"><ele>614.0</ele><time>2026-04-25T10:26:58.994Z</time></trkpt><trkpt lat="44.5518133" lon="9.27488"><ele>615.0</ele><time>2026-04-25T10:26:59.994Z</time></trkpt><trkpt lat="44.5517467" lon="9.2747533"><ele>616.0</ele><time>2026-04-25T10:27:00.996Z</time></trkpt><trkpt lat="44.5516767" lon="9.2746467"><ele>617.0</ele><time>2026-04-25T10:27:01.995Z</time></trkpt><trkpt lat="44.5516067" lon="9.2745333"><ele>620.5</ele><time>2026-04-25T10:27:03Z</time></trkpt><trkpt lat="44.5515583" lon="9.2743867"><ele>624.0</ele><time>2026-04-25T10:27:03.997Z</time></trkpt><trkpt lat="44.55153" lon="9.27422"><ele>627.5</ele><time>2026-04-25T10:27:05Z</time></trkpt><trkpt lat="44.5515117" lon="9.2740517"><ele>631.0</ele><time>2026-04-25T10:27:05.998Z</time></trkpt><trkpt lat="44.55148" lon="9.273875"><ele>637.75</ele><time>2026-04-25T10:27:06.995Z</time></trkpt><trkpt lat="44.5514483" lon="9.273685"><ele>644.5</ele><time>2026-04-25T10:27:07.994Z</time></trkpt><trkpt lat="44.551385" lon="9.273505"><ele>651.25</ele><time>2026-04-25T10:27:08.997Z</time></trkpt><trkpt lat="44.551305" lon="9.273325"><ele>658.0</ele><time>2026-04-25T10:27:09.997Z</time></trkpt><trkpt lat="44.5512167" lon="9.2731483"><ele>651.0</ele><time>2026-04-25T10:27:10.996Z</time></trkpt><trkpt lat="44.5511183" lon="9.2729867"><ele>644.0</ele><time>2026-04-25T10:27:11.997Z</time></trkpt><trkpt lat="44.5510183" lon="9.2728267"><ele>637.0</ele><time>2026-04-25T10:27:12.996Z</time></trkpt><trkpt lat="44.55089" lon="9.2726983"><ele>637.0</ele><time>2026-04-25T10:27:13.998Z</time></trkpt><trkpt lat="44.550785" lon="9.2725533"><ele>637.0</ele><time>2026-04-25T10:27:14.998Z</time></trkpt><trkpt lat="44.550685" lon="9.2724117"><ele>637.0</ele><time>2026-04-25T10:27:15.994Z</time></trkpt><trkpt lat="44.550585" lon="9.2722767"><ele>637.0</ele><time>2026-04-25T10:27:16.997Z</time></trkpt><trkpt lat="44.550485" lon="9.2721483"><ele>636.5</ele><time>2026-04-25T10:27:17.995Z</time></trkpt><trkpt lat="44.5503683" lon="9.2720383"><ele>636.0</ele><time>2026-04-25T10:27:18.996Z</time></trkpt><trkpt lat="44.5502467" lon="9.2719283"><ele>635.5</ele><time>2026-04-25T10:27:19.996Z</time></trkpt><trkpt lat="44.5501217" lon="9.271825"><ele>635.0</ele><time>2026-04-25T10:27:21.001Z</time></trkpt><trkpt lat="44.55" lon="9.2717183"><ele>635.0</ele><time>2026-04-25T10:27:21.995Z</time></trkpt><trkpt lat="44.54987" lon="9.2716267"><ele>635.0</ele><time>2026-04-25T10:27:23Z</time></trkpt><trkpt lat="44.5497283" lon="9.271555"><ele>635.0</ele><time>2026-04-25T10:27:23.999Z</time></trkpt><trkpt lat="44.5495967" lon="9.2714683"><ele>635.0</ele><time>2026-04-25T10:27:24.998Z</time></trkpt><trkpt lat="44.5494667" lon="9.2713717"><ele>634.6666666666666</ele><time>2026-04-25T10:27:25.998Z</time></trkpt><trkpt lat="44.5493317" lon="9.2712833"><ele>634.3333333333334</ele><time>2026-04-25T10:27:26.996Z</time></trkpt><trkpt lat="44.549195" lon="9.2711933"><ele>634.0</ele><time>2026-04-25T10:27:27.998Z</time></trkpt><trkpt lat="44.5490533" lon="9.2711167"><ele>634.0</ele><time>2026-04-25T10:27:28.995Z</time></trkpt><trkpt lat="44.5489117" lon="9.2710483"><ele>634.0</ele><time>2026-04-25T10:27:30Z</time></trkpt><trkpt lat="44.548765" lon="9.2709867"><ele>634.0</ele><time>2026-04-25T10:27:30.997Z</time></trkpt><trkpt lat="44.5486217" lon="9.270925"><ele>632.0</ele><time>2026-04-25T10:27:32.003Z</time></trkpt><trkpt lat="44.5484833" lon="9.2708533"><ele>630.0</ele><time>2026-04-25T10:27:32.996Z</time></trkpt><trkpt lat="44.5483533" lon="9.2707733"><ele>628.0</ele><time>2026-04-25T10:27:33.995Z</time></trkpt><trkpt lat="44.5482283" lon="9.27069"><ele>626.0</ele><time>2026-04-25T10:27:34.997Z</time></trkpt><trkpt lat="44.5481017" lon="9.2705933"><ele>626.0</ele><time>2026-04-25T10:27:35.998Z</time></trkpt><trkpt lat="44.5479733" lon="9.2705017"><ele>626.0</ele><time>2026-04-25T10:27:36.995Z</time></trkpt><trkpt lat="44.5478583" lon="9.2703867"><ele>626.0</ele><time>2026-04-25T10:27:37.995Z</time></trkpt><trkpt lat="44.5477533" lon="9.2702483"><ele>626.0</ele><time>2026-04-25T10:27:38.996Z</time></trkpt><trkpt lat="44.5476567" lon="9.2701"><ele>626.0</ele><time>2026-04-25T10:27:39.995Z</time></trkpt><trkpt lat="44.54757" lon="9.269935"><ele>626.0</ele><time>2026-04-25T10:27:40.994Z</time></trkpt><trkpt lat="44.5474883" lon="9.26976"><ele>626.0</ele><time>2026-04-25T10:27:41.996Z</time></trkpt><trkpt lat="44.547415" lon="9.269575"><ele>626.0</ele><time>2026-04-25T10:27:43Z</time></trkpt><trkpt lat="44.5473483" lon="9.2693867"><ele>626.0</ele><time>2026-04-25T10:27:43.997Z</time></trkpt><trkpt lat="44.5472717" lon="9.26922"><ele>626.0</ele><time>2026-04-25T10:27:44.993Z</time></trkpt><trkpt lat="44.5472017" lon="9.2690467"><ele>626.0</ele><time>2026-04-25T10:27:46Z</time></trkpt><trkpt lat="44.5471333" lon="9.2688817"><ele>626.0</ele><time>2026-04-25T10:27:46.993Z</time></trkpt><trkpt lat="44.5470567" lon="9.268715"><ele>624.5</ele><time>2026-04-25T10:27:48Z</time></trkpt><trkpt lat="44.5469633" lon="9.2685667"><ele>623.0</ele><time>2026-04-25T10:27:48.995Z</time></trkpt><trkpt lat="44.5468583" lon="9.2684283"><ele>621.5</ele><time>2026-04-25T10:27:49.998Z</time></trkpt><trkpt lat="44.5467517" lon="9.2682833"><ele>620.0</ele><time>2026-04-25T10:27:50.996Z</time></trkpt><trkpt lat="44.5466433" lon="9.2681383"><ele>621.6666666666666</ele><time>2026-04-25T10:27:51.995Z</time></trkpt><trkpt lat="44.54653" lon="9.2679917"><ele>623.3333333333334</ele><time>2026-04-25T10:27:52.994Z</time></trkpt><trkpt lat="44.5464133" lon="9.2678483"><ele>625.0</ele><time>2026-04-25T10:27:54Z</time></trkpt><trkpt lat="44.5462967" lon="9.2677117"><ele>623.75</ele><time>2026-04-25T10:27:54.994Z</time></trkpt><trkpt lat="44.546185" lon="9.26758"><ele>622.5</ele><time>2026-04-25T10:27:55.995Z</time></trkpt><trkpt lat="44.546085" lon="9.2674383"><ele>621.25</ele><time>2026-04-25T10:27:57.007Z</time></trkpt><trkpt lat="44.5459983" lon="9.26729"><ele>620.0</ele><time>2026-04-25T10:27:57.995Z</time></trkpt><trkpt lat="44.5459283" lon="9.2671217"><ele>620.0</ele><time>2026-04-25T10:27:58.996Z</time></trkpt><trkpt lat="44.545885" lon="9.2669333"><ele>620.0</ele><time>2026-04-25T10:27:59.994Z</time></trkpt><trkpt lat="44.5458633" lon="9.2667367"><ele>620.0</ele><time>2026-04-25T10:28:00.994Z</time></trkpt><trkpt lat="44.5458433" lon="9.26654"><ele>620.0</ele><time>2026-04-25T10:28:01.995Z</time></trkpt><trkpt lat="44.5458217" lon="9.2663367"><ele>621.5</ele><time>2026-04-25T10:28:02.992Z</time></trkpt><trkpt lat="44.5457917" lon="9.266135"><ele>623.0</ele><time>2026-04-25T10:28:03.996Z</time></trkpt><trkpt lat="44.54575" lon="9.2659333"><ele>624.5</ele><time>2026-04-25T10:28:04.995Z</time></trkpt><trkpt lat="44.5457117" lon="9.2657283"><ele>626.0</ele><time>2026-04-25T10:28:05.997Z</time></trkpt><trkpt lat="44.5456733" lon="9.2655233"><ele>628.0</ele><time>2026-04-25T10:28:06.997Z</time></trkpt><trkpt lat="44.5456317" lon="9.265335"><ele>630.0</ele><time>2026-04-25T10:28:07.998Z</time></trkpt><trkpt lat="44.545585" lon="9.26516"><ele>632.0</ele><time>2026-04-25T10:28:08.998Z</time></trkpt><trkpt lat="44.5455467" lon="9.26498"><ele>634.0</ele><time>2026-04-25T10:28:09.994Z</time></trkpt><trkpt lat="44.5455083" lon="9.2647967"><ele>630.75</ele><time>2026-04-25T10:28:10.995Z</time></trkpt><trkpt lat="44.5454583" lon="9.2646183"><ele>627.5</ele><time>2026-04-25T10:28:11.996Z</time></trkpt><trkpt lat="44.54541" lon="9.2644317"><ele>624.25</ele><time>2026-04-25T10:28:12.995Z</time></trkpt><trkpt lat="44.545355" lon="9.2642467"><ele>621.0</ele><time>2026-04-25T10:28:13.997Z</time></trkpt><trkpt lat="44.5452867" lon="9.26407"><ele>624.25</ele><time>2026-04-25T10:28:14.999Z</time></trkpt><trkpt lat="44.545215" lon="9.2639"><ele>627.5</ele><time>2026-04-25T10:28:15.999Z</time></trkpt><trkpt lat="44.5451533" lon="9.263735"><ele>630.75</ele><time>2026-04-25T10:28:16.997Z</time></trkpt><trkpt lat="44.5450933" lon="9.2635733"><ele>634.0</ele><time>2026-04-25T10:28:17.994Z</time></trkpt><trkpt lat="44.5450333" lon="9.2634183"><ele>634.0</ele><time>2026-04-25T10:28:18.997Z</time></trkpt><trkpt lat="44.5449717" lon="9.2632683"><ele>634.0</ele><time>2026-04-25T10:28:19.995Z</time></trkpt><trkpt lat="44.5449167" lon="9.26312"><ele>634.0</ele><time>2026-04-25T10:28:21Z</time></trkpt><trkpt lat="44.5448667" lon="9.2629733"><ele>634.0</ele><time>2026-04-25T10:28:21.995Z</time></trkpt><trkpt lat="44.5448133" lon="9.2628267"><ele>637.0</ele><time>2026-04-25T10:28:22.994Z</time></trkpt><trkpt lat="44.5447617" lon="9.2626867"><ele>640.0</ele><time>2026-04-25T10:28:23.997Z</time></trkpt><trkpt lat="44.544715" lon="9.2625517"><ele>643.0</ele><time>2026-04-25T10:28:25Z</time></trkpt><trkpt lat="44.5446733" lon="9.2624267"><ele>646.0</ele><time>2026-04-25T10:28:25.996Z</time></trkpt><trkpt lat="44.5446417" lon="9.2623183"><ele>649.0</ele><time>2026-04-25T10:28:26.992Z</time></trkpt><trkpt lat="44.5446117" lon="9.26222"><ele>649.0</ele><time>2026-04-25T10:28:27.997Z</time></trkpt><trkpt lat="44.544565" lon="9.26207"><ele>649.0</ele><time>2026-04-25T10:28:29.994Z</time></trkpt><trkpt lat="44.5445333" lon="9.2619633"><ele>649.0</ele><time>2026-04-25T10:28:31.995Z</time></trkpt><trkpt lat="44.5445" lon="9.261885"><ele>649.0</ele><time>2026-04-25T10:28:33.995Z</time></trkpt><trkpt lat="44.5444683" lon="9.2617717"><ele>649.0</ele><time>2026-04-25T10:28:47.994Z</time></trkpt><trkpt lat="44.544455" lon="9.261685"><ele>649.0</ele><time>2026-04-25T10:28:51Z</time></trkpt><trkpt lat="44.5444317" lon="9.2615667"><ele>644.8333333333334</ele><time>2026-04-25T10:29:35.999Z</time></trkpt><trkpt lat="44.5444167" lon="9.2614233"><ele>640.6666666666667</ele><time>2026-04-25T10:29:38Z</time></trkpt><trkpt lat="44.5444" lon="9.2613317"><ele>636.5</ele><time>2026-04-25T10:29:38.994Z</time></trkpt><trkpt lat="44.5443833" lon="9.261235"><ele>632.3333333333334</ele><time>2026-04-25T10:29:39.996Z</time></trkpt><trkpt lat="44.5443617" lon="9.2611383"><ele>628.1666666666666</ele><time>2026-04-25T10:29:41Z</time></trkpt><trkpt lat="44.5443383" lon="9.26104"><ele>624.0</ele><time>2026-04-25T10:29:42Z</time></trkpt><trkpt lat="44.544315" lon="9.2609467"><ele>624.0</ele><time>2026-04-25T10:29:42.998Z</time></trkpt><trkpt lat="44.5442883" lon="9.2608483"><ele>624.0</ele><time>2026-04-25T10:29:43.996Z</time></trkpt><trkpt lat="44.5442583" lon="9.2607433"><ele>624.0</ele><time>2026-04-25T10:29:44.995Z</time></trkpt><trkpt lat="44.544215" lon="9.260635"><ele>624.0</ele><time>2026-04-25T10:29:45.996Z</time></trkpt><trkpt lat="44.5441583" lon="9.260535"><ele>624.0</ele><time>2026-04-25T10:29:46.997Z</time></trkpt><trkpt lat="44.54409" lon="9.2604583"><ele>624.0</ele><time>2026-04-25T10:29:47.995Z</time></trkpt><trkpt lat="44.5440133" lon="9.2603967"><ele>623.6</ele><time>2026-04-25T10:29:48.996Z</time></trkpt><trkpt lat="44.5439233" lon="9.2603433"><ele>623.2</ele><time>2026-04-25T10:29:49.995Z</time></trkpt><trkpt lat="44.5438067" lon="9.26031"><ele>622.8000000000001</ele><time>2026-04-25T10:29:50.994Z</time></trkpt><trkpt lat="44.5436983" lon="9.2602633"><ele>622.4</ele><time>2026-04-25T10:29:52Z</time></trkpt><trkpt lat="44.5435867" lon="9.2602217"><ele>622.0</ele><time>2026-04-25T10:29:52.998Z</time></trkpt><trkpt lat="44.5434733" lon="9.2601767"><ele>622.0</ele><time>2026-04-25T10:29:53.995Z</time></trkpt><trkpt lat="44.5433583" lon="9.260135"><ele>622.0</ele><time>2026-04-25T10:29:54.996Z</time></trkpt><trkpt lat="44.543245" lon="9.2600933"><ele>622.0</ele><time>2026-04-25T10:29:55.992Z</time></trkpt><trkpt lat="44.5431317" lon="9.2600417"><ele>622.0</ele><time>2026-04-25T10:29:56.994Z</time></trkpt><trkpt lat="44.5430183" lon="9.25998"><ele>622.0</ele><time>2026-04-25T10:29:57.995Z</time></trkpt><trkpt lat="44.5429" lon="9.2599167"><ele>622.0</ele><time>2026-04-25T10:29:58.997Z</time></trkpt><trkpt lat="44.54278" lon="9.2598617"><ele>622.0</ele><time>2026-04-25T10:30:00Z</time></trkpt><trkpt lat="44.5426667" lon="9.259805"><ele>622.0</ele><time>2026-04-25T10:30:00.994Z</time></trkpt><trkpt lat="44.542555" lon="9.2597567"><ele>622.4</ele><time>2026-04-25T10:30:01.996Z</time></trkpt><trkpt lat="44.542445" lon="9.2597167"><ele>622.8000000000001</ele><time>2026-04-25T10:30:02.994Z</time></trkpt><trkpt lat="44.542335" lon="9.259685"><ele>623.2</ele><time>2026-04-25T10:30:04Z</time></trkpt><trkpt lat="44.5422267" lon="9.2596833"><ele>623.6</ele><time>2026-04-25T10:30:04.996Z</time></trkpt><trkpt lat="44.54212" lon="9.2597117"><ele>624.0</ele><time>2026-04-25T10:30:05.995Z</time></trkpt><trkpt lat="44.5420183" lon="9.259775"><ele>624.75</ele><time>2026-04-25T10:30:06.995Z</time></trkpt><trkpt lat="44.541925" lon="9.2598633"><ele>625.5</ele><time>2026-04-25T10:30:07.998Z</time></trkpt><trkpt lat="44.5418333" lon="9.2599667"><ele>626.25</ele><time>2026-04-25T10:30:08.995Z</time></trkpt><trkpt lat="44.5417467" lon="9.2600833"><ele>627.0</ele><time>2026-04-25T10:30:09.997Z</time></trkpt><trkpt lat="44.54166" lon="9.2602133"><ele>627.0</ele><time>2026-04-25T10:30:10.997Z</time></trkpt><trkpt lat="44.5415683" lon="9.260345"><ele>627.0</ele><time>2026-04-25T10:30:11.995Z</time></trkpt><trkpt lat="44.5414767" lon="9.2604733"><ele>627.0</ele><time>2026-04-25T10:30:12.994Z</time></trkpt><trkpt lat="44.5413733" lon="9.2605883"><ele>627.0</ele><time>2026-04-25T10:30:13.998Z</time></trkpt><trkpt lat="44.5412583" lon="9.26068"><ele>628.25</ele><time>2026-04-25T10:30:14.999Z</time></trkpt><trkpt lat="44.54113" lon="9.2607467"><ele>629.5</ele><time>2026-04-25T10:30:15.995Z</time></trkpt><trkpt lat="44.541" lon="9.2608017"><ele>630.75</ele><time>2026-04-25T10:30:16.999Z</time></trkpt><trkpt lat="44.5408517" lon="9.26084"><ele>632.0</ele><time>2026-04-25T10:30:17.997Z</time></trkpt><trkpt lat="44.5406833" lon="9.2608633"><ele>632.0</ele><time>2026-04-25T10:30:18.994Z</time></trkpt><trkpt lat="44.5404917" lon="9.260895"><ele>632.0</ele><time>2026-04-25T10:30:19.998Z</time></trkpt><trkpt lat="44.5402933" lon="9.2609117"><ele>632.0</ele><time>2026-04-25T10:30:21.001Z</time></trkpt><trkpt lat="44.54011" lon="9.2609333"><ele>635.3333333333333</ele><time>2026-04-25T10:30:21.997Z</time></trkpt><trkpt lat="44.5399267" lon="9.260995"><ele>638.6666666666666</ele><time>2026-04-25T10:30:23.001Z</time></trkpt><trkpt lat="44.539735" lon="9.2610333"><ele>642.0</ele><time>2026-04-25T10:30:23.992Z</time></trkpt><trkpt lat="44.5395117" lon="9.2610817"><ele>645.0</ele><time>2026-04-25T10:30:24.991Z</time></trkpt><trkpt lat="44.5392683" lon="9.2611083"><ele>648.0</ele><time>2026-04-25T10:30:26.003Z</time></trkpt><trkpt lat="44.5390117" lon="9.261105"><ele>648.0</ele><time>2026-04-25T10:30:26.994Z</time></trkpt><trkpt lat="44.5387317" lon="9.2611233"><ele>648.0</ele><time>2026-04-25T10:30:27.996Z</time></trkpt><trkpt lat="44.5384267" lon="9.2611883"><ele>643.5</ele><time>2026-04-25T10:30:28.995Z</time></trkpt><trkpt lat="44.5381333" lon="9.2611883"><ele>639.0</ele><time>2026-04-25T10:30:29.994Z</time></trkpt><trkpt lat="44.53784" lon="9.261175"><ele>637.5</ele><time>2026-04-25T10:30:30.995Z</time></trkpt><trkpt lat="44.5375583" lon="9.261165"><ele>636.0</ele><time>2026-04-25T10:30:32Z</time></trkpt><trkpt lat="44.5372933" lon="9.2611633"><ele>636.0</ele><time>2026-04-25T10:30:32.997Z</time></trkpt><trkpt lat="44.5370617" lon="9.2611217"><ele>636.0</ele><time>2026-04-25T10:30:33.996Z</time></trkpt><trkpt lat="44.5368367" lon="9.2611183"><ele>637.0</ele><time>2026-04-25T10:30:34.992Z</time></trkpt><trkpt lat="44.5366267" lon="9.2611183"><ele>638.0</ele><time>2026-04-25T10:30:35.999Z</time></trkpt><trkpt lat="44.53643" lon="9.2611383"><ele>639.0</ele><time>2026-04-25T10:30:36.993Z</time></trkpt><trkpt lat="44.5362433" lon="9.2611733"><ele>645.6666666666666</ele><time>2026-04-25T10:30:37.994Z</time></trkpt><trkpt lat="44.5360733" lon="9.261195"><ele>652.3333333333333</ele><time>2026-04-25T10:30:38.993Z</time></trkpt><trkpt lat="44.53591" lon="9.261205"><ele>659.0</ele><time>2026-04-25T10:30:39.994Z</time></trkpt><trkpt lat="44.5357583" lon="9.26119"><ele>659.0</ele><time>2026-04-25T10:30:40.992Z</time></trkpt><trkpt lat="44.53561" lon="9.2611817"><ele>659.0</ele><time>2026-04-25T10:30:41.992Z</time></trkpt><trkpt lat="44.535465" lon="9.2612167"><ele>659.0</ele><time>2026-04-25T10:30:42.995Z</time></trkpt><trkpt lat="44.5353267" lon="9.2612867"><ele>659.0</ele><time>2026-04-25T10:30:43.991Z</time></trkpt><trkpt lat="44.5351933" lon="9.2613917"><ele>652.0</ele><time>2026-04-25T10:30:44.998Z</time></trkpt><trkpt lat="44.53506" lon="9.2615183"><ele>645.0</ele><time>2026-04-25T10:30:45.998Z</time></trkpt><trkpt lat="44.534925" lon="9.261645"><ele>638.0</ele><time>2026-04-25T10:30:46.996Z</time></trkpt><trkpt lat="44.5347833" lon="9.2617667"><ele>638.0</ele><time>2026-04-25T10:30:48.003Z</time></trkpt><trkpt lat="44.5346417" lon="9.2618683"><ele>638.0</ele><time>2026-04-25T10:30:48.995Z</time></trkpt><trkpt lat="44.534495" lon="9.26194"><ele>638.0</ele><time>2026-04-25T10:30:49.996Z</time></trkpt><trkpt lat="44.5343483" lon="9.2620083"><ele>638.0</ele><time>2026-04-25T10:30:50.997Z</time></trkpt><trkpt lat="44.5342117" lon="9.262045"><ele>638.0</ele><time>2026-04-25T10:30:52.001Z</time></trkpt><trkpt lat="44.53408" lon="9.26207"><ele>638.0</ele><time>2026-04-25T10:30:52.992Z</time></trkpt><trkpt lat="44.5339733" lon="9.26202"><ele>638.0</ele><time>2026-04-25T10:30:53.991Z</time></trkpt><trkpt lat="44.5339033" lon="9.2619067"><ele>638.0</ele><time>2026-04-25T10:30:54.997Z</time></trkpt><trkpt lat="44.5338567" lon="9.261725"><ele>638.0</ele><time>2026-04-25T10:30:55.994Z</time></trkpt><trkpt lat="44.5338183" lon="9.2615267"><ele>638.0</ele><time>2026-04-25T10:30:56.995Z</time></trkpt><trkpt lat="44.5338033" lon="9.261325"><ele>638.0</ele><time>2026-04-25T10:30:57.997Z</time></trkpt><trkpt lat="44.533795" lon="9.261125"><ele>641.25</ele><time>2026-04-25T10:30:59Z</time></trkpt><trkpt lat="44.5338083" lon="9.2609283"><ele>644.5</ele><time>2026-04-25T10:30:59.995Z</time></trkpt><trkpt lat="44.5338083" lon="9.2607483"><ele>647.75</ele><time>2026-04-25T10:31:00.995Z</time></trkpt><trkpt lat="44.53384" lon="9.260535"><ele>651.0</ele><time>2026-04-25T10:31:01.992Z</time></trkpt><trkpt lat="44.5338333" lon="9.2603533"><ele>653.3333333333334</ele><time>2026-04-25T10:31:02.994Z</time></trkpt><trkpt lat="44.5338267" lon="9.2601567"><ele>655.6666666666667</ele><time>2026-04-25T10:31:03.992Z</time></trkpt><trkpt lat="44.5338317" lon="9.25992"><ele>658.0</ele><time>2026-04-25T10:31:04.992Z</time></trkpt><trkpt lat="44.5338417" lon="9.2597033"><ele>658.3333333333334</ele><time>2026-04-25T10:31:05.994Z</time></trkpt><trkpt lat="44.5338567" lon="9.2594833"><ele>658.6666666666666</ele><time>2026-04-25T10:31:06.997Z</time></trkpt><trkpt lat="44.53387" lon="9.259255"><ele>659.0</ele><time>2026-04-25T10:31:07.996Z</time></trkpt><trkpt lat="44.53388" lon="9.2590283"><ele>659.6666666666666</ele><time>2026-04-25T10:31:08.994Z</time></trkpt><trkpt lat="44.53388" lon="9.2588033"><ele>660.3333333333334</ele><time>2026-04-25T10:31:09.995Z</time></trkpt><trkpt lat="44.5338717" lon="9.25858"><ele>661.0</ele><time>2026-04-25T10:31:10.999Z</time></trkpt><trkpt lat="44.533875" lon="9.2583433"><ele>660.3333333333334</ele><time>2026-04-25T10:31:11.996Z</time></trkpt><trkpt lat="44.5338683" lon="9.2581083"><ele>659.6666666666666</ele><time>2026-04-25T10:31:12.992Z</time></trkpt><trkpt lat="44.5338783" lon="9.2578733"><ele>659.0</ele><time>2026-04-25T10:31:13.995Z</time></trkpt><trkpt lat="44.5339133" lon="9.2576183"><ele>659.0</ele><time>2026-04-25T10:31:14.993Z</time></trkpt><trkpt lat="44.53395" lon="9.2573683"><ele>659.0</ele><time>2026-04-25T10:31:15.994Z</time></trkpt><trkpt lat="44.5339817" lon="9.2571167"><ele>659.0</ele><time>2026-04-25T10:31:16.992Z</time></trkpt><trkpt lat="44.5340033" lon="9.2568683"><ele>659.0</ele><time>2026-04-25T10:31:17.997Z</time></trkpt><trkpt lat="44.534025" lon="9.2566217"><ele>659.0</ele><time>2026-04-25T10:31:18.993Z</time></trkpt><trkpt lat="44.5340367" lon="9.2563933"><ele>659.0</ele><time>2026-04-25T10:31:19.994Z</time></trkpt><trkpt lat="44.534065" lon="9.2561883"><ele>659.0</ele><time>2026-04-25T10:31:20.994Z</time></trkpt><trkpt lat="44.5340983" lon="9.2560133"><ele>659.0</ele><time>2026-04-25T10:31:21.993Z</time></trkpt><trkpt lat="44.53412" lon="9.2558367"><ele>659.0</ele><time>2026-04-25T10:31:22.993Z</time></trkpt><trkpt lat="44.53411" lon="9.2556667"><ele>659.0</ele><time>2026-04-25T10:31:23.994Z</time></trkpt><trkpt lat="44.5340533" lon="9.255505"><ele>662.3333333333333</ele><time>2026-04-25T10:31:24.993Z</time></trkpt><trkpt lat="44.533955" lon="9.25534"><ele>665.6666666666666</ele><time>2026-04-25T10:31:25.997Z</time></trkpt><trkpt lat="44.533845" lon="9.2551767"><ele>669.0</ele><time>2026-04-25T10:31:26.992Z</time></trkpt><trkpt lat="44.53374" lon="9.255005"><ele>667.6666666666666</ele><time>2026-04-25T10:31:27.993Z</time></trkpt><trkpt lat="44.5336133" lon="9.2548417"><ele>666.3333333333333</ele><time>2026-04-25T10:31:28.993Z</time></trkpt><trkpt lat="44.5334567" lon="9.2547217"><ele>665.0</ele><time>2026-04-25T10:31:29.999Z</time></trkpt><trkpt lat="44.5333217" lon="9.254585"><ele>665.0</ele><time>2026-04-25T10:31:30.997Z</time></trkpt><trkpt lat="44.5331833" lon="9.2544617"><ele>665.0</ele><time>2026-04-25T10:31:31.998Z</time></trkpt><trkpt lat="44.5330483" lon="9.2543367"><ele>665.0</ele><time>2026-04-25T10:31:32.992Z</time></trkpt><trkpt lat="44.532915" lon="9.2542183"><ele>659.6666666666666</ele><time>2026-04-25T10:31:33.996Z</time></trkpt><trkpt lat="44.532775" lon="9.254145"><ele>654.3333333333334</ele><time>2026-04-25T10:31:34.995Z</time></trkpt><trkpt lat="44.532625" lon="9.2541"><ele>649.0</ele><time>2026-04-25T10:31:35.995Z</time></trkpt><trkpt lat="44.5324733" lon="9.254075"><ele>649.0</ele><time>2026-04-25T10:31:36.997Z</time></trkpt><trkpt lat="44.5323117" lon="9.2540817"><ele>649.0</ele><time>2026-04-25T10:31:38.001Z</time></trkpt><trkpt lat="44.5321517" lon="9.2541167"><ele>649.0</ele><time>2026-04-25T10:31:39.001Z</time></trkpt><trkpt lat="44.5319967" lon="9.2541833"><ele>653.6666666666667</ele><time>2026-04-25T10:31:39.994Z</time></trkpt><trkpt lat="44.531825" lon="9.2542967"><ele>658.3333333333334</ele><time>2026-04-25T10:31:40.998Z</time></trkpt><trkpt lat="44.5316633" lon="9.2544233"><ele>663.0</ele><time>2026-04-25T10:31:41.994Z</time></trkpt><trkpt lat="44.5315017" lon="9.254575"><ele>663.0</ele><time>2026-04-25T10:31:42.993Z</time></trkpt><trkpt lat="44.5313467" lon="9.2547317"><ele>663.0</ele><time>2026-04-25T10:31:43.998Z</time></trkpt><trkpt lat="44.5311983" lon="9.2549167"><ele>663.0</ele><time>2026-04-25T10:31:44.995Z</time></trkpt><trkpt lat="44.53108" lon="9.2551017"><ele>664.3333333333334</ele><time>2026-04-25T10:31:45.994Z</time></trkpt><trkpt lat="44.5309733" lon="9.2552867"><ele>665.6666666666667</ele><time>2026-04-25T10:31:46.996Z</time></trkpt><trkpt lat="44.5308667" lon="9.25548"><ele>667.0</ele><time>2026-04-25T10:31:47.992Z</time></trkpt><trkpt lat="44.53076" lon="9.25567"><ele>661.0</ele><time>2026-04-25T10:31:48.994Z</time></trkpt><trkpt lat="44.5306567" lon="9.2558633"><ele>655.0</ele><time>2026-04-25T10:31:49.995Z</time></trkpt><trkpt lat="44.5305217" lon="9.2560583"><ele>649.0</ele><time>2026-04-25T10:31:50.998Z</time></trkpt><trkpt lat="44.53043" lon="9.2562633"><ele>661.3333333333334</ele><time>2026-04-25T10:31:51.993Z</time></trkpt><trkpt lat="44.530355" lon="9.2564733"><ele>673.6666666666666</ele><time>2026-04-25T10:31:52.994Z</time></trkpt><trkpt lat="44.53029" lon="9.25669"><ele>686.0</ele><time>2026-04-25T10:31:53.996Z</time></trkpt><trkpt lat="44.5302533" lon="9.2569083"><ele>686.0</ele><time>2026-04-25T10:31:55Z</time></trkpt><trkpt lat="44.53025" lon="9.25717"><ele>686.0</ele><time>2026-04-25T10:31:55.993Z</time></trkpt><trkpt lat="44.5302683" lon="9.2574317"><ele>686.0</ele><time>2026-04-25T10:31:57Z</time></trkpt><trkpt lat="44.5302833" lon="9.257695"><ele>684.0</ele><time>2026-04-25T10:31:57.995Z</time></trkpt><trkpt lat="44.5303" lon="9.25795"><ele>682.0</ele><time>2026-04-25T10:31:58.997Z</time></trkpt><trkpt lat="44.5303233" lon="9.258205"><ele>680.0</ele><time>2026-04-25T10:31:59.993Z</time></trkpt><trkpt lat="44.53035" lon="9.2584583"><ele>676.3333333333333</ele><time>2026-04-25T10:32:00.996Z</time></trkpt><trkpt lat="44.5303633" lon="9.2587083"><ele>672.6666666666666</ele><time>2026-04-25T10:32:01.998Z</time></trkpt><trkpt lat="44.530375" lon="9.25896"><ele>669.0</ele><time>2026-04-25T10:32:03Z</time></trkpt><trkpt lat="44.530385" lon="9.2592117"><ele>662.0</ele><time>2026-04-25T10:32:03.996Z</time></trkpt><trkpt lat="44.530395" lon="9.25945"><ele>655.0</ele><time>2026-04-25T10:32:04.992Z</time></trkpt><trkpt lat="44.5303933" lon="9.25966"><ele>648.0</ele><time>2026-04-25T10:32:05.995Z</time></trkpt><trkpt lat="44.5303633" lon="9.2598533"><ele>648.0</ele><time>2026-04-25T10:32:06.993Z</time></trkpt><trkpt lat="44.5303017" lon="9.2600267"><ele>648.0</ele><time>2026-04-25T10:32:07.994Z</time></trkpt><trkpt lat="44.5302183" lon="9.26019"><ele>648.0</ele><time>2026-04-25T10:32:08.994Z</time></trkpt><trkpt lat="44.530115" lon="9.260325"><ele>648.0</ele><time>2026-04-25T10:32:09.995Z</time></trkpt><trkpt lat="44.5299883" lon="9.2604133"><ele>648.0</ele><time>2026-04-25T10:32:10.996Z</time></trkpt><trkpt lat="44.5298533" lon="9.260465"><ele>648.0</ele><time>2026-04-25T10:32:11.996Z</time></trkpt><trkpt lat="44.5297133" lon="9.260475"><ele>648.0</ele><time>2026-04-25T10:32:12.992Z</time></trkpt><trkpt lat="44.529565" lon="9.2604533"><ele>648.0</ele><time>2026-04-25T10:32:13.993Z</time></trkpt><trkpt lat="44.5294317" lon="9.2604"><ele>653.3333333333334</ele><time>2026-04-25T10:32:14.997Z</time></trkpt><trkpt lat="44.529295" lon="9.2603217"><ele>658.6666666666667</ele><time>2026-04-25T10:32:15.996Z</time></trkpt><trkpt lat="44.5291533" lon="9.2602383"><ele>664.0</ele><time>2026-04-25T10:32:16.995Z</time></trkpt><trkpt lat="44.5290017" lon="9.2601817"><ele>664.0</ele><time>2026-04-25T10:32:17.993Z</time></trkpt><trkpt lat="44.5288533" lon="9.26012"><ele>664.0</ele><time>2026-04-25T10:32:18.996Z</time></trkpt><trkpt lat="44.5286983" lon="9.2600833"><ele>664.0</ele><time>2026-04-25T10:32:19.998Z</time></trkpt><trkpt lat="44.5285533" lon="9.2600217"><ele>660.0</ele><time>2026-04-25T10:32:20.996Z</time></trkpt><trkpt lat="44.5284083" lon="9.25993"><ele>656.0</ele><time>2026-04-25T10:32:21.998Z</time></trkpt><trkpt lat="44.5282667" lon="9.2598067"><ele>652.0</ele><time>2026-04-25T10:32:22.992Z</time></trkpt><trkpt lat="44.528135" lon="9.259645"><ele>654.0</ele><time>2026-04-25T10:32:23.994Z</time></trkpt><trkpt lat="44.5280067" lon="9.2594617"><ele>656.0</ele><time>2026-04-25T10:32:24.998Z</time></trkpt><trkpt lat="44.5278683" lon="9.25928"><ele>658.0</ele><time>2026-04-25T10:32:25.994Z</time></trkpt><trkpt lat="44.5277283" lon="9.259105"><ele>658.0</ele><time>2026-04-25T10:32:26.994Z</time></trkpt><trkpt lat="44.5275717" lon="9.2589733"><ele>658.0</ele><time>2026-04-25T10:32:27.994Z</time></trkpt><trkpt lat="44.5273967" lon="9.258875"><ele>658.0</ele><time>2026-04-25T10:32:28.995Z</time></trkpt><trkpt lat="44.5272367" lon="9.2587683"><ele>658.0</ele><time>2026-04-25T10:32:29.994Z</time></trkpt><trkpt lat="44.52709" lon="9.2586517"><ele>658.0</ele><time>2026-04-25T10:32:30.992Z</time></trkpt><trkpt lat="44.526945" lon="9.2585417"><ele>658.0</ele><time>2026-04-25T10:32:31.993Z</time></trkpt><trkpt lat="44.5268267" lon="9.2584"><ele>658.0</ele><time>2026-04-25T10:32:32.993Z</time></trkpt><trkpt lat="44.5267233" lon="9.2582417"><ele>658.0</ele><time>2026-04-25T10:32:33.997Z</time></trkpt><trkpt lat="44.5266167" lon="9.25808"><ele>658.0</ele><time>2026-04-25T10:32:34.995Z</time></trkpt><trkpt lat="44.52653" lon="9.2579"><ele>661.0</ele><time>2026-04-25T10:32:35.995Z</time></trkpt><trkpt lat="44.526465" lon="9.257695"><ele>664.0</ele><time>2026-04-25T10:32:36.993Z</time></trkpt><trkpt lat="44.5264217" lon="9.257485"><ele>667.0</ele><time>2026-04-25T10:32:37.994Z</time></trkpt><trkpt lat="44.5264067" lon="9.2572567"><ele>667.0</ele><time>2026-04-25T10:32:38.995Z</time></trkpt><trkpt lat="44.526415" lon="9.257025"><ele>667.0</ele><time>2026-04-25T10:32:39.995Z</time></trkpt><trkpt lat="44.5264533" lon="9.256795"><ele>667.0</ele><time>2026-04-25T10:32:40.993Z</time></trkpt><trkpt lat="44.526525" lon="9.256565"><ele>664.6666666666667</ele><time>2026-04-25T10:32:42.003Z</time></trkpt><trkpt lat="44.5265967" lon="9.256355"><ele>662.3333333333334</ele><time>2026-04-25T10:32:42.995Z</time></trkpt><trkpt lat="44.5266683" lon="9.256155"><ele>660.0</ele><time>2026-04-25T10:32:43.996Z</time></trkpt><trkpt lat="44.5267483" lon="9.2559583"><ele>660.0</ele><time>2026-04-25T10:32:44.992Z</time></trkpt><trkpt lat="44.5268367" lon="9.2557483"><ele>660.0</ele><time>2026-04-25T10:32:45.992Z</time></trkpt><trkpt lat="44.5269267" lon="9.2555333"><ele>660.0</ele><time>2026-04-25T10:32:46.993Z</time></trkpt><trkpt lat="44.5270217" lon="9.255315"><ele>659.0</ele><time>2026-04-25T10:32:47.994Z</time></trkpt><trkpt lat="44.5271217" lon="9.255115"><ele>658.0</ele><time>2026-04-25T10:32:48.995Z</time></trkpt><trkpt lat="44.5272217" lon="9.2549217"><ele>657.0</ele><time>2026-04-25T10:32:49.996Z</time></trkpt><trkpt lat="44.527335" lon="9.2547367"><ele>657.0</ele><time>2026-04-25T10:32:51.002Z</time></trkpt><trkpt lat="44.5274367" lon="9.254545"><ele>657.0</ele><time>2026-04-25T10:32:51.993Z</time></trkpt><trkpt lat="44.5275417" lon="9.2543617"><ele>657.0</ele><time>2026-04-25T10:32:52.993Z</time></trkpt><trkpt lat="44.527645" lon="9.2541867"><ele>657.0</ele><time>2026-04-25T10:32:53.993Z</time></trkpt><trkpt lat="44.5277433" lon="9.2540067"><ele>657.0</ele><time>2026-04-25T10:32:54.994Z</time></trkpt><trkpt lat="44.5278417" lon="9.25383"><ele>657.0</ele><time>2026-04-25T10:32:55.995Z</time></trkpt><trkpt lat="44.5279383" lon="9.2536583"><ele>660.75</ele><time>2026-04-25T10:32:56.996Z</time></trkpt><trkpt lat="44.5280367" lon="9.2535"><ele>664.5</ele><time>2026-04-25T10:32:57.994Z</time></trkpt><trkpt lat="44.52813" lon="9.2533383"><ele>668.25</ele><time>2026-04-25T10:32:58.992Z</time></trkpt><trkpt lat="44.528215" lon="9.25318"><ele>672.0</ele><time>2026-04-25T10:32:59.998Z</time></trkpt><trkpt lat="44.5282817" lon="9.2530167"><ele>672.0</ele><time>2026-04-25T10:33:00.996Z</time></trkpt><trkpt lat="44.5283283" lon="9.2528417"><ele>672.0</ele><time>2026-04-25T10:33:01.998Z</time></trkpt><trkpt lat="44.5283533" lon="9.2526567"><ele>672.0</ele><time>2026-04-25T10:33:03.002Z</time></trkpt><trkpt lat="44.5283667" lon="9.252465"><ele>672.0</ele><time>2026-04-25T10:33:03.999Z</time></trkpt><trkpt lat="44.5283533" lon="9.2522683"><ele>672.5</ele><time>2026-04-25T10:33:04.997Z</time></trkpt><trkpt lat="44.52834" lon="9.2520717"><ele>673.0</ele><time>2026-04-25T10:33:05.998Z</time></trkpt><trkpt lat="44.5282967" lon="9.25188"><ele>673.5</ele><time>2026-04-25T10:33:06.995Z</time></trkpt><trkpt lat="44.5282417" lon="9.2516967"><ele>674.0</ele><time>2026-04-25T10:33:07.996Z</time></trkpt><trkpt lat="44.5282017" lon="9.2514967"><ele>676.75</ele><time>2026-04-25T10:33:08.995Z</time></trkpt><trkpt lat="44.5281367" lon="9.2513217"><ele>679.5</ele><time>2026-04-25T10:33:09.991Z</time></trkpt><trkpt lat="44.52804" lon="9.251185"><ele>682.25</ele><time>2026-04-25T10:33:10.993Z</time></trkpt><trkpt lat="44.5279217" lon="9.2510583"><ele>685.0</ele><time>2026-04-25T10:33:11.997Z</time></trkpt><trkpt lat="44.5278017" lon="9.2509517"><ele>680.25</ele><time>2026-04-25T10:33:12.998Z</time></trkpt><trkpt lat="44.527675" lon="9.2508533"><ele>675.5</ele><time>2026-04-25T10:33:13.997Z</time></trkpt><trkpt lat="44.5275617" lon="9.2507433"><ele>670.75</ele><time>2026-04-25T10:33:14.994Z</time></trkpt><trkpt lat="44.527465" lon="9.2506217"><ele>666.0</ele><time>2026-04-25T10:33:15.996Z</time></trkpt><trkpt lat="44.5273833" lon="9.250505"><ele>666.0</ele><time>2026-04-25T10:33:16.993Z</time></trkpt><trkpt lat="44.5273017" lon="9.2504033"><ele>666.0</ele><time>2026-04-25T10:33:17.995Z</time></trkpt><trkpt lat="44.527225" lon="9.2503"><ele>666.0</ele><time>2026-04-25T10:33:18.997Z</time></trkpt><trkpt lat="44.5271483" lon="9.2501983"><ele>666.0</ele><time>2026-04-25T10:33:19.991Z</time></trkpt><trkpt lat="44.5270717" lon="9.2500983"><ele>666.0</ele><time>2026-04-25T10:33:20.996Z</time></trkpt><trkpt lat="44.5269933" lon="9.249995"><ele>665.75</ele><time>2026-04-25T10:33:21.995Z</time></trkpt><trkpt lat="44.5269133" lon="9.2498883"><ele>665.5</ele><time>2026-04-25T10:33:22.992Z</time></trkpt><trkpt lat="44.52683" lon="9.24978"><ele>665.25</ele><time>2026-04-25T10:33:23.994Z</time></trkpt><trkpt lat="44.5267467" lon="9.2496667"><ele>665.0</ele><time>2026-04-25T10:33:24.993Z</time></trkpt><trkpt lat="44.5266667" lon="9.2495517"><ele>665.0</ele><time>2026-04-25T10:33:25.995Z</time></trkpt><trkpt lat="44.526585" lon="9.2494433"><ele>665.0</ele><time>2026-04-25T10:33:26.995Z</time></trkpt><trkpt lat="44.5265083" lon="9.24933"><ele>665.0</ele><time>2026-04-25T10:33:27.995Z</time></trkpt><trkpt lat="44.5264383" lon="9.2492167"><ele>665.0</ele><time>2026-04-25T10:33:28.993Z</time></trkpt><trkpt lat="44.5263767" lon="9.2491083"><ele>665.0</ele><time>2026-04-25T10:33:29.999Z</time></trkpt><trkpt lat="44.5263167" lon="9.249005"><ele>664.6666666666666</ele><time>2026-04-25T10:33:30.996Z</time></trkpt><trkpt lat="44.5262633" lon="9.2489083"><ele>664.3333333333333</ele><time>2026-04-25T10:33:31.993Z</time></trkpt><trkpt lat="44.5262167" lon="9.2488083"><ele>664.0</ele><time>2026-04-25T10:33:32.999Z</time></trkpt><trkpt lat="44.5261667" lon="9.2487117"><ele>663.6666666666666</ele><time>2026-04-25T10:33:33.997Z</time></trkpt><trkpt lat="44.5261167" lon="9.248615"><ele>663.3333333333334</ele><time>2026-04-25T10:33:34.996Z</time></trkpt><trkpt lat="44.526075" lon="9.24852"><ele>663.0</ele><time>2026-04-25T10:33:35.997Z</time></trkpt><trkpt lat="44.5260383" lon="9.2484183"><ele>663.0</ele><time>2026-04-25T10:33:36.996Z</time></trkpt><trkpt lat="44.5259967" lon="9.2483217"><ele>663.0</ele><time>2026-04-25T10:33:38.001Z</time></trkpt><trkpt lat="44.5259583" lon="9.2482183"><ele>663.0</ele><time>2026-04-25T10:33:38.997Z</time></trkpt><trkpt lat="44.52592" lon="9.248115"><ele>663.0</ele><time>2026-04-25T10:33:39.993Z</time></trkpt><trkpt lat="44.5258833" lon="9.2480083"><ele>663.0</ele><time>2026-04-25T10:33:40.999Z</time></trkpt><trkpt lat="44.5258367" lon="9.247895"><ele>663.0</ele><time>2026-04-25T10:33:41.991Z</time></trkpt><trkpt lat="44.52578" lon="9.247795"><ele>663.8</ele><time>2026-04-25T10:33:42.994Z</time></trkpt><trkpt lat="44.5257183" lon="9.2476967"><ele>664.5999999999999</ele><time>2026-04-25T10:33:43.993Z</time></trkpt><trkpt lat="44.5256583" lon="9.247595"><ele>665.4000000000001</ele><time>2026-04-25T10:33:44.994Z</time></trkpt><trkpt lat="44.5255967" lon="9.2474933"><ele>666.2</ele><time>2026-04-25T10:33:45.995Z</time></trkpt><trkpt lat="44.5255367" lon="9.2473967"><ele>667.0</ele><time>2026-04-25T10:33:46.993Z</time></trkpt><trkpt lat="44.525485" lon="9.2472867"><ele>665.8</ele><time>2026-04-25T10:33:47.995Z</time></trkpt><trkpt lat="44.525425" lon="9.24718"><ele>664.6</ele><time>2026-04-25T10:33:48.992Z</time></trkpt><trkpt lat="44.5253617" lon="9.247075"><ele>663.4</ele><time>2026-04-25T10:33:49.998Z</time></trkpt><trkpt lat="44.52531" lon="9.246945"><ele>662.1999999999999</ele><time>2026-04-25T10:33:50.998Z</time></trkpt><trkpt lat="44.525265" lon="9.2468033"><ele>661.0</ele><time>2026-04-25T10:33:51.997Z</time></trkpt><trkpt lat="44.5252233" lon="9.2466683"><ele>661.0</ele><time>2026-04-25T10:33:52.994Z</time></trkpt><trkpt lat="44.5251933" lon="9.2465433"><ele>661.0</ele><time>2026-04-25T10:33:53.995Z</time></trkpt><trkpt lat="44.5252067" lon="9.2464033"><ele>661.0</ele><time>2026-04-25T10:33:54.995Z</time></trkpt><trkpt lat="44.52524" lon="9.2462367"><ele>661.0</ele><time>2026-04-25T10:33:55.995Z</time></trkpt><trkpt lat="44.5252767" lon="9.24605"><ele>660.5</ele><time>2026-04-25T10:33:56.996Z</time></trkpt><trkpt lat="44.5253033" lon="9.24585"><ele>660.0</ele><time>2026-04-25T10:33:57.994Z</time></trkpt><trkpt lat="44.52533" lon="9.2456383"><ele>659.5</ele><time>2026-04-25T10:33:58.993Z</time></trkpt><trkpt lat="44.5253667" lon="9.2454367"><ele>659.0</ele><time>2026-04-25T10:33:59.992Z</time></trkpt><trkpt lat="44.525405" lon="9.24524"><ele>664.6666666666666</ele><time>2026-04-25T10:34:00.993Z</time></trkpt><trkpt lat="44.5254617" lon="9.2450417"><ele>670.3333333333334</ele><time>2026-04-25T10:34:01.994Z</time></trkpt><trkpt lat="44.5255183" lon="9.2448433"><ele>676.0</ele><time>2026-04-25T10:34:02.996Z</time></trkpt><trkpt lat="44.5255817" lon="9.2446417"><ele>676.0</ele><time>2026-04-25T10:34:03.994Z</time></trkpt><trkpt lat="44.5256417" lon="9.2444367"><ele>676.0</ele><time>2026-04-25T10:34:04.992Z</time></trkpt><trkpt lat="44.5257017" lon="9.2442283"><ele>676.0</ele><time>2026-04-25T10:34:06Z</time></trkpt><trkpt lat="44.5257583" lon="9.2440217"><ele>674.25</ele><time>2026-04-25T10:34:06.992Z</time></trkpt><trkpt lat="44.5258117" lon="9.2438233"><ele>672.5</ele><time>2026-04-25T10:34:07.998Z</time></trkpt><trkpt lat="44.52587" lon="9.24363"><ele>670.75</ele><time>2026-04-25T10:34:08.998Z</time></trkpt><trkpt lat="44.525945" lon="9.2434617"><ele>669.0</ele><time>2026-04-25T10:34:09.997Z</time></trkpt><trkpt lat="44.5260233" lon="9.2433017"><ele>669.0</ele><time>2026-04-25T10:34:10.994Z</time></trkpt><trkpt lat="44.5260967" lon="9.2431467"><ele>669.0</ele><time>2026-04-25T10:34:11.995Z</time></trkpt><trkpt lat="44.5261467" lon="9.2429683"><ele>669.0</ele><time>2026-04-25T10:34:13.003Z</time></trkpt><trkpt lat="44.5261867" lon="9.2427733"><ele>669.0</ele><time>2026-04-25T10:34:13.993Z</time></trkpt><trkpt lat="44.52623" lon="9.2425717"><ele>672.0</ele><time>2026-04-25T10:34:14.996Z</time></trkpt><trkpt lat="44.526275" lon="9.2423733"><ele>675.0</ele><time>2026-04-25T10:34:15.993Z</time></trkpt><trkpt lat="44.526325" lon="9.24217"><ele>678.0</ele><time>2026-04-25T10:34:16.994Z</time></trkpt><trkpt lat="44.526365" lon="9.2419683"><ele>678.0</ele><time>2026-04-25T10:34:18Z</time></trkpt><trkpt lat="44.5263967" lon="9.24177"><ele>678.0</ele><time>2026-04-25T10:34:18.997Z</time></trkpt><trkpt lat="44.526425" lon="9.241595"><ele>678.0</ele><time>2026-04-25T10:34:19.997Z</time></trkpt><trkpt lat="44.5264033" lon="9.2413917"><ele>678.0</ele><time>2026-04-25T10:34:20.997Z</time></trkpt><trkpt lat="44.5263633" lon="9.2412017"><ele>674.6666666666666</ele><time>2026-04-25T10:34:21.996Z</time></trkpt><trkpt lat="44.52631" lon="9.2410033"><ele>671.3333333333333</ele><time>2026-04-25T10:34:22.995Z</time></trkpt><trkpt lat="44.52626" lon="9.2408083"><ele>668.0</ele><time>2026-04-25T10:34:23.994Z</time></trkpt><trkpt lat="44.5262083" lon="9.2406083"><ele>667.75</ele><time>2026-04-25T10:34:24.996Z</time></trkpt><trkpt lat="44.5261483" lon="9.240415"><ele>667.5</ele><time>2026-04-25T10:34:25.996Z</time></trkpt><trkpt lat="44.5261083" lon="9.2402233"><ele>667.25</ele><time>2026-04-25T10:34:26.996Z</time></trkpt><trkpt lat="44.5261" lon="9.24004"><ele>667.0</ele><time>2026-04-25T10:34:27.993Z</time></trkpt><trkpt lat="44.526125" lon="9.2398567"><ele>668.0</ele><time>2026-04-25T10:34:28.996Z</time></trkpt><trkpt lat="44.5261667" lon="9.2396667"><ele>669.0</ele><time>2026-04-25T10:34:29.995Z</time></trkpt><trkpt lat="44.5262517" lon="9.239495"><ele>670.0</ele><time>2026-04-25T10:34:30.998Z</time></trkpt><trkpt lat="44.52631" lon="9.239315"><ele>671.0</ele><time>2026-04-25T10:34:31.997Z</time></trkpt><trkpt lat="44.526375" lon="9.239145"><ele>674.75</ele><time>2026-04-25T10:34:32.993Z</time></trkpt><trkpt lat="44.5264433" lon="9.238975"><ele>678.5</ele><time>2026-04-25T10:34:33.994Z</time></trkpt><trkpt lat="44.5264933" lon="9.2388"><ele>682.25</ele><time>2026-04-25T10:34:34.996Z</time></trkpt><trkpt lat="44.526505" lon="9.2386033"><ele>686.0</ele><time>2026-04-25T10:34:35.997Z</time></trkpt><trkpt lat="44.5265033" lon="9.2384067"><ele>687.5</ele><time>2026-04-25T10:34:36.996Z</time></trkpt><trkpt lat="44.52648" lon="9.2382067"><ele>689.0</ele><time>2026-04-25T10:34:37.994Z</time></trkpt><trkpt lat="44.526415" lon="9.2380283"><ele>690.5</ele><time>2026-04-25T10:34:38.994Z</time></trkpt><trkpt lat="44.526335" lon="9.23786"><ele>692.0</ele><time>2026-04-25T10:34:39.996Z</time></trkpt><trkpt lat="44.526225" lon="9.2377233"><ele>692.5</ele><time>2026-04-25T10:34:40.995Z</time></trkpt><trkpt lat="44.5261133" lon="9.23759"><ele>693.0</ele><time>2026-04-25T10:34:41.994Z</time></trkpt><trkpt lat="44.5260167" lon="9.2374667"><ele>693.5</ele><time>2026-04-25T10:34:42.999Z</time></trkpt><trkpt lat="44.5259117" lon="9.237365"><ele>694.0</ele><time>2026-04-25T10:34:43.996Z</time></trkpt><trkpt lat="44.525805" lon="9.237275"><ele>694.0</ele><time>2026-04-25T10:34:44.999Z</time></trkpt><trkpt lat="44.5256983" lon="9.2371883"><ele>694.0</ele><time>2026-04-25T10:34:45.996Z</time></trkpt><trkpt lat="44.52559" lon="9.237095"><ele>694.0</ele><time>2026-04-25T10:34:46.992Z</time></trkpt><trkpt lat="44.5254833" lon="9.2369783"><ele>694.0</ele><time>2026-04-25T10:34:47.993Z</time></trkpt><trkpt lat="44.5253767" lon="9.2368517"><ele>695.75</ele><time>2026-04-25T10:34:48.991Z</time></trkpt><trkpt lat="44.5252717" lon="9.2367183"><ele>697.5</ele><time>2026-04-25T10:34:49.993Z</time></trkpt><trkpt lat="44.525185" lon="9.2365583"><ele>699.25</ele><time>2026-04-25T10:34:50.996Z</time></trkpt><trkpt lat="44.5250867" lon="9.2364167"><ele>701.0</ele><time>2026-04-25T10:34:51.991Z</time></trkpt><trkpt lat="44.5249983" lon="9.23625"><ele>701.0</ele><time>2026-04-25T10:34:52.997Z</time></trkpt><trkpt lat="44.5248717" lon="9.2361333"><ele>701.0</ele><time>2026-04-25T10:34:53.992Z</time></trkpt><trkpt lat="44.5247233" lon="9.23605"><ele>701.0</ele><time>2026-04-25T10:34:54.994Z</time></trkpt><trkpt lat="44.5245583" lon="9.236"><ele>697.6666666666666</ele><time>2026-04-25T10:34:55.994Z</time></trkpt><trkpt lat="44.5243933" lon="9.2359467"><ele>694.3333333333334</ele><time>2026-04-25T10:34:56.992Z</time></trkpt><trkpt lat="44.5242233" lon="9.235875"><ele>691.0</ele><time>2026-04-25T10:34:57.995Z</time></trkpt><trkpt lat="44.524045" lon="9.2358167"><ele>691.0</ele><time>2026-04-25T10:34:59Z</time></trkpt><trkpt lat="44.5238683" lon="9.2357517"><ele>691.0</ele><time>2026-04-25T10:34:59.996Z</time></trkpt><trkpt lat="44.523695" lon="9.2356817"><ele>691.0</ele><time>2026-04-25T10:35:00.997Z</time></trkpt><trkpt lat="44.5235217" lon="9.235625"><ele>693.6666666666667</ele><time>2026-04-25T10:35:01.99Z</time></trkpt><trkpt lat="44.5233583" lon="9.2355667"><ele>696.3333333333334</ele><time>2026-04-25T10:35:02.993Z</time></trkpt><trkpt lat="44.523205" lon="9.2355117"><ele>699.0</ele><time>2026-04-25T10:35:03.993Z</time></trkpt><trkpt lat="44.5230617" lon="9.2354367"><ele>699.0</ele><time>2026-04-25T10:35:04.998Z</time></trkpt><trkpt lat="44.522915" lon="9.23536"><ele>699.0</ele><time>2026-04-25T10:35:05.995Z</time></trkpt><trkpt lat="44.5227733" lon="9.235275"><ele>699.0</ele><time>2026-04-25T10:35:06.995Z</time></trkpt><trkpt lat="44.52264" lon="9.23516"><ele>702.0</ele><time>2026-04-25T10:35:07.994Z</time></trkpt><trkpt lat="44.5225117" lon="9.2350367"><ele>705.0</ele><time>2026-04-25T10:35:08.994Z</time></trkpt><trkpt lat="44.5223833" lon="9.2349033"><ele>708.0</ele><time>2026-04-25T10:35:09.994Z</time></trkpt><trkpt lat="44.5222617" lon="9.234755"><ele>708.0</ele><time>2026-04-25T10:35:10.995Z</time></trkpt><trkpt lat="44.522145" lon="9.234605"><ele>708.0</ele><time>2026-04-25T10:35:11.997Z</time></trkpt><trkpt lat="44.52203" lon="9.23446"><ele>708.0</ele><time>2026-04-25T10:35:12.996Z</time></trkpt><trkpt lat="44.5219367" lon="9.2342717"><ele>706.25</ele><time>2026-04-25T10:35:13.999Z</time></trkpt><trkpt lat="44.5218633" lon="9.2341"><ele>704.5</ele><time>2026-04-25T10:35:14.997Z</time></trkpt><trkpt lat="44.5218267" lon="9.2339083"><ele>702.75</ele><time>2026-04-25T10:35:15.992Z</time></trkpt><trkpt lat="44.521815" lon="9.2337083"><ele>701.0</ele><time>2026-04-25T10:35:16.993Z</time></trkpt><trkpt lat="44.52179" lon="9.2334917"><ele>701.0</ele><time>2026-04-25T10:35:17.997Z</time></trkpt><trkpt lat="44.5217667" lon="9.23327"><ele>701.0</ele><time>2026-04-25T10:35:18.998Z</time></trkpt><trkpt lat="44.521745" lon="9.233045"><ele>701.0</ele><time>2026-04-25T10:35:19.999Z</time></trkpt><trkpt lat="44.5217133" lon="9.2328217"><ele>703.0</ele><time>2026-04-25T10:35:20.999Z</time></trkpt><trkpt lat="44.5216767" lon="9.2326033"><ele>705.0</ele><time>2026-04-25T10:35:21.994Z</time></trkpt><trkpt lat="44.5216133" lon="9.2324"><ele>707.0</ele><time>2026-04-25T10:35:22.998Z</time></trkpt><trkpt lat="44.5215333" lon="9.23222"><ele>708.0</ele><time>2026-04-25T10:35:23.991Z</time></trkpt><trkpt lat="44.5214333" lon="9.2320617"><ele>709.0</ele><time>2026-04-25T10:35:24.996Z</time></trkpt><trkpt lat="44.5213267" lon="9.23191"><ele>710.0</ele><time>2026-04-25T10:35:25.993Z</time></trkpt><trkpt lat="44.5212017" lon="9.2317783"><ele>710.0</ele><time>2026-04-25T10:35:26.992Z</time></trkpt><trkpt lat="44.5210617" lon="9.2316667"><ele>710.0</ele><time>2026-04-25T10:35:27.993Z</time></trkpt><trkpt lat="44.5209133" lon="9.2315617"><ele>710.0</ele><time>2026-04-25T10:35:29.001Z</time></trkpt><trkpt lat="44.52077" lon="9.2314467"><ele>712.0</ele><time>2026-04-25T10:35:29.993Z</time></trkpt><trkpt lat="44.520635" lon="9.2313067"><ele>714.0</ele><time>2026-04-25T10:35:30.996Z</time></trkpt><trkpt lat="44.5205133" lon="9.23114"><ele>716.0</ele><time>2026-04-25T10:35:31.992Z</time></trkpt><trkpt lat="44.520385" lon="9.2309867"><ele>716.0</ele><time>2026-04-25T10:35:32.994Z</time></trkpt><trkpt lat="44.52026" lon="9.2308233"><ele>716.0</ele><time>2026-04-25T10:35:33.991Z</time></trkpt><trkpt lat="44.52014" lon="9.2306583"><ele>716.0</ele><time>2026-04-25T10:35:34.995Z</time></trkpt><trkpt lat="44.5200233" lon="9.2304983"><ele>726.3333333333333</ele><time>2026-04-25T10:35:35.992Z</time></trkpt><trkpt lat="44.5198967" lon="9.2303533"><ele>736.6666666666666</ele><time>2026-04-25T10:35:36.997Z</time></trkpt><trkpt lat="44.519755" lon="9.23023"><ele>747.0</ele><time>2026-04-25T10:35:37.997Z</time></trkpt><trkpt lat="44.5195983" lon="9.2301333"><ele>739.0</ele><time>2026-04-25T10:35:38.998Z</time></trkpt><trkpt lat="44.5194367" lon="9.230035"><ele>731.0</ele><time>2026-04-25T10:35:39.992Z</time></trkpt><trkpt lat="44.5192733" lon="9.2299367"><ele>723.0</ele><time>2026-04-25T10:35:40.996Z</time></trkpt><trkpt lat="44.5191083" lon="9.2298383"><ele>728.3333333333334</ele><time>2026-04-25T10:35:42.004Z</time></trkpt><trkpt lat="44.5189367" lon="9.229755"><ele>733.6666666666667</ele><time>2026-04-25T10:35:42.995Z</time></trkpt><trkpt lat="44.5187733" lon="9.2296733"><ele>739.0</ele><time>2026-04-25T10:35:43.998Z</time></trkpt><trkpt lat="44.5186133" lon="9.2296017"><ele>739.0</ele><time>2026-04-25T10:35:45.004Z</time></trkpt><trkpt lat="44.51845" lon="9.2295283"><ele>739.0</ele><time>2026-04-25T10:35:45.995Z</time></trkpt><trkpt lat="44.5182833" lon="9.2294717"><ele>739.0</ele><time>2026-04-25T10:35:46.996Z</time></trkpt><trkpt lat="44.518115" lon="9.2294467"><ele>739.0</ele><time>2026-04-25T10:35:47.994Z</time></trkpt><trkpt lat="44.5179467" lon="9.2294483"><ele>739.0</ele><time>2026-04-25T10:35:48.992Z</time></trkpt><trkpt lat="44.5177733" lon="9.2294617"><ele>739.0</ele><time>2026-04-25T10:35:49.997Z</time></trkpt><trkpt lat="44.5176017" lon="9.22948"><ele>744.3333333333334</ele><time>2026-04-25T10:35:50.999Z</time></trkpt><trkpt lat="44.5174283" lon="9.2294733"><ele>749.6666666666666</ele><time>2026-04-25T10:35:51.992Z</time></trkpt><trkpt lat="44.517255" lon="9.2294633"><ele>755.0</ele><time>2026-04-25T10:35:52.995Z</time></trkpt><trkpt lat="44.5170917" lon="9.2294517"><ele>756.5</ele><time>2026-04-25T10:35:53.995Z</time></trkpt><trkpt lat="44.5169433" lon="9.22945"><ele>758.0</ele><time>2026-04-25T10:35:54.993Z</time></trkpt><trkpt lat="44.516795" lon="9.2295033"><ele>759.5</ele><time>2026-04-25T10:35:55.995Z</time></trkpt><trkpt lat="44.5166583" lon="9.2295533"><ele>761.0</ele><time>2026-04-25T10:35:57.005Z</time></trkpt><trkpt lat="44.5165233" lon="9.2295983"><ele>761.0</ele><time>2026-04-25T10:35:57.998Z</time></trkpt><trkpt lat="44.5163867" lon="9.2295917"><ele>761.0</ele><time>2026-04-25T10:35:58.996Z</time></trkpt><trkpt lat="44.51626" lon="9.229545"><ele>761.0</ele><time>2026-04-25T10:35:59.993Z</time></trkpt><trkpt lat="44.5161433" lon="9.2294683"><ele>761.0</ele><time>2026-04-25T10:36:01.004Z</time></trkpt><trkpt lat="44.51605" lon="9.22935"><ele>754.25</ele><time>2026-04-25T10:36:01.996Z</time></trkpt><trkpt lat="44.515985" lon="9.229205"><ele>747.5</ele><time>2026-04-25T10:36:02.997Z</time></trkpt><trkpt lat="44.515925" lon="9.229065"><ele>740.75</ele><time>2026-04-25T10:36:03.994Z</time></trkpt><trkpt lat="44.5158867" lon="9.2288983"><ele>734.0</ele><time>2026-04-25T10:36:05Z</time></trkpt><trkpt lat="44.51588" lon="9.2287283"><ele>734.0</ele><time>2026-04-25T10:36:05.995Z</time></trkpt><trkpt lat="44.5158967" lon="9.2285567"><ele>734.0</ele><time>2026-04-25T10:36:06.998Z</time></trkpt><trkpt lat="44.515925" lon="9.2283767"><ele>734.0</ele><time>2026-04-25T10:36:07.997Z</time></trkpt><trkpt lat="44.5159567" lon="9.22819"><ele>734.0</ele><time>2026-04-25T10:36:08.996Z</time></trkpt><trkpt lat="44.5159983" lon="9.2279917"><ele>734.3333333333333</ele><time>2026-04-25T10:36:09.995Z</time></trkpt><trkpt lat="44.516045" lon="9.2277833"><ele>734.6666666666666</ele><time>2026-04-25T10:36:10.997Z</time></trkpt><trkpt lat="44.5161" lon="9.22757"><ele>735.0</ele><time>2026-04-25T10:36:11.994Z</time></trkpt><trkpt lat="44.5161633" lon="9.2273517"><ele>733.3333333333334</ele><time>2026-04-25T10:36:12.999Z</time></trkpt><trkpt lat="44.5162267" lon="9.2271317"><ele>731.6666666666667</ele><time>2026-04-25T10:36:13.992Z</time></trkpt><trkpt lat="44.51629" lon="9.22691"><ele>730.0</ele><time>2026-04-25T10:36:14.994Z</time></trkpt><trkpt lat="44.5163433" lon="9.226695"><ele>745.0</ele><time>2026-04-25T10:36:15.996Z</time></trkpt><trkpt lat="44.5163683" lon="9.2264817"><ele>760.0</ele><time>2026-04-25T10:36:16.994Z</time></trkpt><trkpt lat="44.51638" lon="9.2262633"><ele>775.0</ele><time>2026-04-25T10:36:18.001Z</time></trkpt><trkpt lat="44.5163933" lon="9.2260433"><ele>775.0</ele><time>2026-04-25T10:36:19Z</time></trkpt><trkpt lat="44.5164267" lon="9.2258367"><ele>775.0</ele><time>2026-04-25T10:36:19.993Z</time></trkpt><trkpt lat="44.5164867" lon="9.22565"><ele>775.0</ele><time>2026-04-25T10:36:20.996Z</time></trkpt><trkpt lat="44.5165633" lon="9.2254833"><ele>775.0</ele><time>2026-04-25T10:36:21.993Z</time></trkpt><trkpt lat="44.516635" lon="9.2253267"><ele>775.8</ele><time>2026-04-25T10:36:22.991Z</time></trkpt><trkpt lat="44.5166883" lon="9.22519"><ele>776.6</ele><time>2026-04-25T10:36:23.999Z</time></trkpt><trkpt lat="44.5167183" lon="9.2250617"><ele>777.4000000000001</ele><time>2026-04-25T10:36:24.994Z</time></trkpt><trkpt lat="44.5167167" lon="9.2249483"><ele>778.2</ele><time>2026-04-25T10:36:25.993Z</time></trkpt><trkpt lat="44.5166733" lon="9.2248283"><ele>779.0</ele><time>2026-04-25T10:36:27Z</time></trkpt><trkpt lat="44.516605" lon="9.2247417"><ele>774.6</ele><time>2026-04-25T10:36:27.995Z</time></trkpt><trkpt lat="44.5165367" lon="9.2246717"><ele>770.2</ele><time>2026-04-25T10:36:28.992Z</time></trkpt><trkpt lat="44.5164467" lon="9.2246467"><ele>765.8000000000001</ele><time>2026-04-25T10:36:29.994Z</time></trkpt><trkpt lat="44.5163317" lon="9.2246583"><ele>761.4000000000001</ele><time>2026-04-25T10:36:31Z</time></trkpt><trkpt lat="44.51623" lon="9.22462"><ele>757.0</ele><time>2026-04-25T10:36:31.995Z</time></trkpt><trkpt lat="44.516125" lon="9.2245733"><ele>757.0</ele><time>2026-04-25T10:36:32.998Z</time></trkpt><trkpt lat="44.5160233" lon="9.2245217"><ele>757.0</ele><time>2026-04-25T10:36:33.992Z</time></trkpt><trkpt lat="44.5159417" lon="9.2244417"><ele>757.0</ele><time>2026-04-25T10:36:34.999Z</time></trkpt><trkpt lat="44.5158717" lon="9.2243283"><ele>757.0</ele><time>2026-04-25T10:36:36Z</time></trkpt><trkpt lat="44.5158167" lon="9.224195"><ele>757.0</ele><time>2026-04-25T10:36:36.993Z</time></trkpt><trkpt lat="44.5158" lon="9.224045"><ele>760.4000000000001</ele><time>2026-04-25T10:36:37.995Z</time></trkpt><trkpt lat="44.5158083" lon="9.2239"><ele>763.8000000000001</ele><time>2026-04-25T10:36:39.002Z</time></trkpt><trkpt lat="44.5158167" lon="9.22376"><ele>767.2</ele><time>2026-04-25T10:36:39.994Z</time></trkpt><trkpt lat="44.5158017" lon="9.223645"><ele>770.6</ele><time>2026-04-25T10:36:40.994Z</time></trkpt><trkpt lat="44.5157717" lon="9.2235367"><ele>774.0</ele><time>2026-04-25T10:36:42Z</time></trkpt><trkpt lat="44.5156983" lon="9.2234583"><ele>774.0</ele><time>2026-04-25T10:36:42.991Z</time></trkpt><trkpt lat="44.5156167" lon="9.2233833"><ele>774.0</ele><time>2026-04-25T10:36:43.997Z</time></trkpt><trkpt lat="44.5155367" lon="9.2233017"><ele>774.0</ele><time>2026-04-25T10:36:44.998Z</time></trkpt><trkpt lat="44.5154733" lon="9.2232117"><ele>774.0</ele><time>2026-04-25T10:36:45.992Z</time></trkpt><trkpt lat="44.5154317" lon="9.223115"><ele>774.0</ele><time>2026-04-25T10:36:46.991Z</time></trkpt><trkpt lat="44.5154767" lon="9.2230317"><ele>774.0</ele><time>2026-04-25T10:36:47.998Z</time></trkpt><trkpt lat="44.515515" lon="9.2229533"><ele>773.8000000000001</ele><time>2026-04-25T10:36:48.996Z</time></trkpt><trkpt lat="44.5155983" lon="9.2228633"><ele>773.6</ele><time>2026-04-25T10:36:49.992Z</time></trkpt><trkpt lat="44.515685" lon="9.2227583"><ele>773.4</ele><time>2026-04-25T10:36:50.996Z</time></trkpt><trkpt lat="44.5157667" lon="9.22265"><ele>773.2</ele><time>2026-04-25T10:36:51.993Z</time></trkpt><trkpt lat="44.515825" lon="9.2225333"><ele>773.0</ele><time>2026-04-25T10:36:52.995Z</time></trkpt><trkpt lat="44.515845" lon="9.2224183"><ele>778.1666666666667</ele><time>2026-04-25T10:36:53.994Z</time></trkpt><trkpt lat="44.51586" lon="9.2222967"><ele>783.3333333333334</ele><time>2026-04-25T10:36:54.995Z</time></trkpt><trkpt lat="44.51584" lon="9.2221883"><ele>788.5</ele><time>2026-04-25T10:36:55.996Z</time></trkpt><trkpt lat="44.5158233" lon="9.222075"><ele>793.6666666666667</ele><time>2026-04-25T10:36:56.994Z</time></trkpt><trkpt lat="44.5157683" lon="9.2220117"><ele>798.8333333333334</ele><time>2026-04-25T10:36:57.995Z</time></trkpt><trkpt lat="44.5156783" lon="9.221995"><ele>804.0</ele><time>2026-04-25T10:36:58.996Z</time></trkpt><trkpt lat="44.5154833" lon="9.222035"><ele>800.6666666666667</ele><time>2026-04-25T10:36:59.992Z</time></trkpt><trkpt lat="44.5153183" lon="9.2220567"><ele>797.3333333333334</ele><time>2026-04-25T10:37:00.997Z</time></trkpt><trkpt lat="44.5151567" lon="9.2220483"><ele>794.0</ele><time>2026-04-25T10:37:01.994Z</time></trkpt><trkpt lat="44.5150083" lon="9.22204"><ele>794.0</ele><time>2026-04-25T10:37:02.998Z</time></trkpt><trkpt lat="44.5148383" lon="9.2221083"><ele>794.0</ele><time>2026-04-25T10:37:03.998Z</time></trkpt><trkpt lat="44.5146683" lon="9.2221817"><ele>794.0</ele><time>2026-04-25T10:37:04.994Z</time></trkpt><trkpt lat="44.5145133" lon="9.2222317"><ele>794.6666666666667</ele><time>2026-04-25T10:37:05.994Z</time></trkpt><trkpt lat="44.5143517" lon="9.222245"><ele>795.3333333333333</ele><time>2026-04-25T10:37:06.995Z</time></trkpt><trkpt lat="44.5141867" lon="9.222245"><ele>796.0</ele><time>2026-04-25T10:37:08Z</time></trkpt><trkpt lat="44.5140233" lon="9.2222433"><ele>796.0</ele><time>2026-04-25T10:37:08.996Z</time></trkpt><trkpt lat="44.5138583" lon="9.2222433"><ele>796.0</ele><time>2026-04-25T10:37:09.99Z</time></trkpt><trkpt lat="44.5136917" lon="9.2222333"><ele>796.0</ele><time>2026-04-25T10:37:11Z</time></trkpt><trkpt lat="44.5135317" lon="9.2222067"><ele>796.6666666666666</ele><time>2026-04-25T10:37:11.998Z</time></trkpt><trkpt lat="44.5133767" lon="9.22218"><ele>797.3333333333333</ele><time>2026-04-25T10:37:12.995Z</time></trkpt><trkpt lat="44.513225" lon="9.22215"><ele>798.0</ele><time>2026-04-25T10:37:13.995Z</time></trkpt><trkpt lat="44.513065" lon="9.2221633"><ele>798.0</ele><time>2026-04-25T10:37:14.995Z</time></trkpt><trkpt lat="44.5129067" lon="9.2221683"><ele>798.0</ele><time>2026-04-25T10:37:15.998Z</time></trkpt><trkpt lat="44.51276" lon="9.2221783"><ele>798.0</ele><time>2026-04-25T10:37:16.99Z</time></trkpt><trkpt lat="44.512625" lon="9.2221883"><ele>798.0</ele><time>2026-04-25T10:37:17.995Z</time></trkpt><trkpt lat="44.5125033" lon="9.2221783"><ele>794.5</ele><time>2026-04-25T10:37:18.994Z</time></trkpt><trkpt lat="44.5123933" lon="9.22212"><ele>791.0</ele><time>2026-04-25T10:37:19.995Z</time></trkpt><trkpt lat="44.51228" lon="9.2220333"><ele>787.5</ele><time>2026-04-25T10:37:20.997Z</time></trkpt><trkpt lat="44.5121933" lon="9.221855"><ele>784.0</ele><time>2026-04-25T10:37:21.994Z</time></trkpt><trkpt lat="44.5121033" lon="9.2216633"><ele>778.0</ele><time>2026-04-25T10:37:22.997Z</time></trkpt><trkpt lat="44.51199" lon="9.22151"><ele>772.0</ele><time>2026-04-25T10:37:24Z</time></trkpt><trkpt lat="44.5118967" lon="9.2213283"><ele>766.0</ele><time>2026-04-25T10:37:24.999Z</time></trkpt><trkpt lat="44.5118067" lon="9.2211533"><ele>766.0</ele><time>2026-04-25T10:37:25.997Z</time></trkpt><trkpt lat="44.5117183" lon="9.220975"><ele>766.0</ele><time>2026-04-25T10:37:26.996Z</time></trkpt><trkpt lat="44.511615" lon="9.220815"><ele>766.0</ele><time>2026-04-25T10:37:27.997Z</time></trkpt><trkpt lat="44.5115117" lon="9.2206617"><ele>768.0</ele><time>2026-04-25T10:37:28.997Z</time></trkpt><trkpt lat="44.5114117" lon="9.2205133"><ele>770.0</ele><time>2026-04-25T10:37:29.994Z</time></trkpt><trkpt lat="44.511325" lon="9.2203717"><ele>772.0</ele><time>2026-04-25T10:37:30.996Z</time></trkpt><trkpt lat="44.5112617" lon="9.2202483"><ele>774.0</ele><time>2026-04-25T10:37:31.995Z</time></trkpt><trkpt lat="44.5112267" lon="9.2201267"><ele>769.2</ele><time>2026-04-25T10:37:33Z</time></trkpt><trkpt lat="44.5111967" lon="9.2200133"><ele>764.4000000000001</ele><time>2026-04-25T10:37:33.995Z</time></trkpt><trkpt lat="44.5112017" lon="9.2199017"><ele>759.6</ele><time>2026-04-25T10:37:34.993Z</time></trkpt><trkpt lat="44.51136" lon="9.2198133"><ele>754.8</ele><time>2026-04-25T10:37:35.996Z</time></trkpt><trkpt lat="44.5114567" lon="9.2197317"><ele>750.0</ele><time>2026-04-25T10:37:37.001Z</time></trkpt><trkpt lat="44.5115917" lon="9.21963"><ele>750.0</ele><time>2026-04-25T10:37:37.995Z</time></trkpt><trkpt lat="44.511745" lon="9.2195233"><ele>750.0</ele><time>2026-04-25T10:37:38.999Z</time></trkpt><trkpt lat="44.51188" lon="9.219425"><ele>750.0</ele><time>2026-04-25T10:37:39.993Z</time></trkpt><trkpt lat="44.5120217" lon="9.219335"><ele>752.3333333333334</ele><time>2026-04-25T10:37:40.998Z</time></trkpt><trkpt lat="44.5121733" lon="9.2192717"><ele>754.6666666666667</ele><time>2026-04-25T10:37:41.992Z</time></trkpt><trkpt lat="44.51233" lon="9.2192217"><ele>757.0</ele><time>2026-04-25T10:37:42.995Z</time></trkpt><trkpt lat="44.5124783" lon="9.21919"><ele>757.0</ele><time>2026-04-25T10:37:43.995Z</time></trkpt><trkpt lat="44.5126283" lon="9.2191883"><ele>757.0</ele><time>2026-04-25T10:37:44.995Z</time></trkpt><trkpt lat="44.5127817" lon="9.2191983"><ele>757.0</ele><time>2026-04-25T10:37:45.993Z</time></trkpt><trkpt lat="44.5129333" lon="9.2192"><ele>759.0</ele><time>2026-04-25T10:37:46.992Z</time></trkpt><trkpt lat="44.5130867" lon="9.2191933"><ele>761.0</ele><time>2026-04-25T10:37:47.993Z</time></trkpt><trkpt lat="44.5132467" lon="9.2191883"><ele>763.0</ele><time>2026-04-25T10:37:48.996Z</time></trkpt><trkpt lat="44.513405" lon="9.2191617"><ele>763.0</ele><time>2026-04-25T10:37:49.995Z</time></trkpt><trkpt lat="44.5135517" lon="9.2190867"><ele>763.0</ele><time>2026-04-25T10:37:50.996Z</time></trkpt><trkpt lat="44.513695" lon="9.2189867"><ele>763.0</ele><time>2026-04-25T10:37:52.003Z</time></trkpt><trkpt lat="44.5138233" lon="9.2188667"><ele>759.25</ele><time>2026-04-25T10:37:52.994Z</time></trkpt><trkpt lat="44.513945" lon="9.2187433"><ele>755.5</ele><time>2026-04-25T10:37:54Z</time></trkpt><trkpt lat="44.514065" lon="9.2186483"><ele>751.75</ele><time>2026-04-25T10:37:54.992Z</time></trkpt><trkpt lat="44.5141767" lon="9.2185583"><ele>748.0</ele><time>2026-04-25T10:37:55.995Z</time></trkpt><trkpt lat="44.5142667" lon="9.2184517"><ele>748.0</ele><time>2026-04-25T10:37:56.993Z</time></trkpt><trkpt lat="44.51432" lon="9.218325"><ele>748.0</ele><time>2026-04-25T10:37:57.992Z</time></trkpt><trkpt lat="44.514365" lon="9.2181733"><ele>748.0</ele><time>2026-04-25T10:37:58.996Z</time></trkpt><trkpt lat="44.5144117" lon="9.2180283"><ele>748.0</ele><time>2026-04-25T10:37:59.992Z</time></trkpt><trkpt lat="44.5144533" lon="9.2178733"><ele>746.5</ele><time>2026-04-25T10:38:00.995Z</time></trkpt><trkpt lat="44.51447" lon="9.2176967"><ele>745.0</ele><time>2026-04-25T10:38:01.994Z</time></trkpt><trkpt lat="44.5144617" lon="9.2175083"><ele>743.5</ele><time>2026-04-25T10:38:02.994Z</time></trkpt><trkpt lat="44.51445" lon="9.2173217"><ele>742.0</ele><time>2026-04-25T10:38:03.993Z</time></trkpt><trkpt lat="44.5144417" lon="9.2171433"><ele>742.0</ele><time>2026-04-25T10:38:04.997Z</time></trkpt><trkpt lat="44.5144467" lon="9.2169767"><ele>742.0</ele><time>2026-04-25T10:38:05.994Z</time></trkpt><trkpt lat="44.514475" lon="9.216815"><ele>742.0</ele><time>2026-04-25T10:38:06.994Z</time></trkpt><trkpt lat="44.5145333" lon="9.216665"><ele>742.0</ele><time>2026-04-25T10:38:07.994Z</time></trkpt><trkpt lat="44.514595" lon="9.2165017"><ele>747.75</ele><time>2026-04-25T10:38:08.997Z</time></trkpt><trkpt lat="44.5146667" lon="9.2163367"><ele>753.5</ele><time>2026-04-25T10:38:09.994Z</time></trkpt><trkpt lat="44.51475" lon="9.2161867"><ele>759.25</ele><time>2026-04-25T10:38:10.991Z</time></trkpt><trkpt lat="44.5148333" lon="9.216065"><ele>765.0</ele><time>2026-04-25T10:38:11.995Z</time></trkpt><trkpt lat="44.514925" lon="9.2159733"><ele>765.0</ele><time>2026-04-25T10:38:12.999Z</time></trkpt><trkpt lat="44.5150067" lon="9.2158817"><ele>765.0</ele><time>2026-04-25T10:38:13.995Z</time></trkpt><trkpt lat="44.51504" lon="9.21577"><ele>765.0</ele><time>2026-04-25T10:38:14.997Z</time></trkpt><trkpt lat="44.5150617" lon="9.2156617"><ele>765.0</ele><time>2026-04-25T10:38:15.993Z</time></trkpt><trkpt lat="44.5150483" lon="9.2155633"><ele>765.0</ele><time>2026-04-25T10:38:16.999Z</time></trkpt><trkpt lat="44.5149917" lon="9.215445"><ele>765.0</ele><time>2026-04-25T10:38:18.991Z</time></trkpt><trkpt lat="44.5149167" lon="9.2153433"><ele>765.8</ele><time>2026-04-25T10:38:21Z</time></trkpt><trkpt lat="44.5148583" lon="9.21531"><ele>766.6</ele><time>2026-04-25T10:38:21.994Z</time></trkpt><trkpt lat="44.5147917" lon="9.2152833"><ele>767.4000000000001</ele><time>2026-04-25T10:38:22.997Z</time></trkpt><trkpt lat="44.514675" lon="9.21533"><ele>768.2</ele><time>2026-04-25T10:38:23.99Z</time></trkpt><trkpt lat="44.51454" lon="9.2153983"><ele>769.0</ele><time>2026-04-25T10:38:24.995Z</time></trkpt><trkpt lat="44.5144117" lon="9.2154633"><ele>769.0</ele><time>2026-04-25T10:38:25.993Z</time></trkpt><trkpt lat="44.5142883" lon="9.2155017"><ele>769.0</ele><time>2026-04-25T10:38:26.999Z</time></trkpt><trkpt lat="44.5141633" lon="9.2155283"><ele>769.0</ele><time>2026-04-25T10:38:27.994Z</time></trkpt><trkpt lat="44.5139517" lon="9.215545"><ele>769.0</ele><time>2026-04-25T10:38:28.997Z</time></trkpt><trkpt lat="44.5138267" lon="9.21553"><ele>769.0</ele><time>2026-04-25T10:38:29.995Z</time></trkpt><trkpt lat="44.5136967" lon="9.2154767"><ele>769.0</ele><time>2026-04-25T10:38:30.995Z</time></trkpt><trkpt lat="44.513565" lon="9.2153633"><ele>769.0</ele><time>2026-04-25T10:38:31.996Z</time></trkpt><trkpt lat="44.5134767" lon="9.215255"><ele>765.6</ele><time>2026-04-25T10:38:32.998Z</time></trkpt><trkpt lat="44.51344" lon="9.2151283"><ele>762.2</ele><time>2026-04-25T10:38:33.994Z</time></trkpt><trkpt lat="44.5134317" lon="9.2149917"><ele>758.8000000000001</ele><time>2026-04-25T10:38:34.992Z</time></trkpt><trkpt lat="44.5134367" lon="9.2148883"><ele>755.4000000000001</ele><time>2026-04-25T10:38:35.995Z</time></trkpt><trkpt lat="44.513455" lon="9.2147117"><ele>752.0</ele><time>2026-04-25T10:38:37.995Z</time></trkpt><trkpt lat="44.5135633" lon="9.2146"><ele>752.0</ele><time>2026-04-25T10:38:38.997Z</time></trkpt><trkpt lat="44.5136283" lon="9.2145183"><ele>752.0</ele><time>2026-04-25T10:38:39.998Z</time></trkpt><trkpt lat="44.5137667" lon="9.2144533"><ele>752.0</ele><time>2026-04-25T10:38:40.993Z</time></trkpt><trkpt lat="44.5138583" lon="9.21435"><ele>752.0</ele><time>2026-04-25T10:38:41.991Z</time></trkpt><trkpt lat="44.5139967" lon="9.21419"><ele>751.3333333333333</ele><time>2026-04-25T10:38:42.996Z</time></trkpt><trkpt lat="44.51418" lon="9.2140433"><ele>750.6666666666666</ele><time>2026-04-25T10:38:43.992Z</time></trkpt><trkpt lat="44.514315" lon="9.2139"><ele>750.0</ele><time>2026-04-25T10:38:44.997Z</time></trkpt><trkpt lat="44.5144133" lon="9.213775"><ele>751.0</ele><time>2026-04-25T10:38:45.997Z</time></trkpt><trkpt lat="44.5144983" lon="9.2136333"><ele>752.0</ele><time>2026-04-25T10:38:46.994Z</time></trkpt><trkpt lat="44.5145567" lon="9.213485"><ele>753.0</ele><time>2026-04-25T10:38:47.994Z</time></trkpt><trkpt lat="44.5145933" lon="9.2133833"><ele>754.0</ele><time>2026-04-25T10:38:48.994Z</time></trkpt><trkpt lat="44.5145617" lon="9.2132683"><ele>755.0</ele><time>2026-04-25T10:38:49.994Z</time></trkpt><trkpt lat="44.5145" lon="9.21318"><ele>755.0</ele><time>2026-04-25T10:38:50.992Z</time></trkpt><trkpt lat="44.5143917" lon="9.2131333"><ele>755.0</ele><time>2026-04-25T10:38:51.996Z</time></trkpt><trkpt lat="44.5143067" lon="9.2131183"><ele>755.0</ele><time>2026-04-25T10:38:52.992Z</time></trkpt><trkpt lat="44.5142" lon="9.2131367"><ele>755.0</ele><time>2026-04-25T10:38:53.997Z</time></trkpt><trkpt lat="44.5140733" lon="9.2132017"><ele>755.0</ele><time>2026-04-25T10:38:55Z</time></trkpt><trkpt lat="44.513945" lon="9.2133017"><ele>755.0</ele><time>2026-04-25T10:38:55.997Z</time></trkpt><trkpt lat="44.5138133" lon="9.2134133"><ele>755.0</ele><time>2026-04-25T10:38:56.995Z</time></trkpt><trkpt lat="44.5136733" lon="9.2135117"><ele>755.0</ele><time>2026-04-25T10:38:57.996Z</time></trkpt><trkpt lat="44.5135467" lon="9.2136033"><ele>762.6666666666666</ele><time>2026-04-25T10:38:58.991Z</time></trkpt><trkpt lat="44.5133933" lon="9.2137033"><ele>770.3333333333333</ele><time>2026-04-25T10:38:59.992Z</time></trkpt><trkpt lat="44.5132583" lon="9.2137867"><ele>778.0</ele><time>2026-04-25T10:39:00.995Z</time></trkpt><trkpt lat="44.5131233" lon="9.2138683"><ele>778.0</ele><time>2026-04-25T10:39:01.993Z</time></trkpt><trkpt lat="44.5129933" lon="9.213955"><ele>778.0</ele><time>2026-04-25T10:39:02.994Z</time></trkpt><trkpt lat="44.5128883" lon="9.21404"><ele>778.0</ele><time>2026-04-25T10:39:03.998Z</time></trkpt><trkpt lat="44.512795" lon="9.2141283"><ele>778.0</ele><time>2026-04-25T10:39:04.993Z</time></trkpt><trkpt lat="44.5127083" lon="9.21421"><ele>774.1666666666666</ele><time>2026-04-25T10:39:05.995Z</time></trkpt><trkpt lat="44.5126217" lon="9.2142883"><ele>770.3333333333333</ele><time>2026-04-25T10:39:06.995Z</time></trkpt><trkpt lat="44.5125417" lon="9.2143533"><ele>766.5</ele><time>2026-04-25T10:39:07.992Z</time></trkpt><trkpt lat="44.5124567" lon="9.2143783"><ele>762.6666666666666</ele><time>2026-04-25T10:39:08.993Z</time></trkpt><trkpt lat="44.512375" lon="9.2143883"><ele>758.8333333333333</ele><time>2026-04-25T10:39:09.993Z</time></trkpt><trkpt lat="44.512295" lon="9.21438"><ele>755.0</ele><time>2026-04-25T10:39:10.995Z</time></trkpt><trkpt lat="44.5122117" lon="9.21434"><ele>755.0</ele><time>2026-04-25T10:39:11.996Z</time></trkpt><trkpt lat="44.5122217" lon="9.2141517"><ele>755.0</ele><time>2026-04-25T10:39:12.996Z</time></trkpt><trkpt lat="44.512205" lon="9.2140167"><ele>755.0</ele><time>2026-04-25T10:39:13.996Z</time></trkpt><trkpt lat="44.5122133" lon="9.2138617"><ele>755.0</ele><time>2026-04-25T10:39:14.994Z</time></trkpt><trkpt lat="44.5122183" lon="9.2137267"><ele>755.0</ele><time>2026-04-25T10:39:15.994Z</time></trkpt><trkpt lat="44.5122383" lon="9.2135783"><ele>755.8</ele><time>2026-04-25T10:39:16.997Z</time></trkpt><trkpt lat="44.5122533" lon="9.2134433"><ele>756.6</ele><time>2026-04-25T10:39:17.993Z</time></trkpt><trkpt lat="44.5122733" lon="9.2133017"><ele>757.4000000000001</ele><time>2026-04-25T10:39:18.995Z</time></trkpt><trkpt lat="44.5123117" lon="9.2131567"><ele>758.2</ele><time>2026-04-25T10:39:19.998Z</time></trkpt><trkpt lat="44.51237" lon="9.2130317"><ele>759.0</ele><time>2026-04-25T10:39:20.993Z</time></trkpt><trkpt lat="44.5124467" lon="9.2129067"><ele>759.0</ele><time>2026-04-25T10:39:21.991Z</time></trkpt><trkpt lat="44.5125383" lon="9.2127717"><ele>759.0</ele><time>2026-04-25T10:39:22.999Z</time></trkpt><trkpt lat="44.5126333" lon="9.212625"><ele>759.0</ele><time>2026-04-25T10:39:23.999Z</time></trkpt><trkpt lat="44.512705" lon="9.21247"><ele>759.0</ele><time>2026-04-25T10:39:24.996Z</time></trkpt><trkpt lat="44.512755" lon="9.21228"><ele>757.0</ele><time>2026-04-25T10:39:25.998Z</time></trkpt><trkpt lat="44.5127967" lon="9.212085"><ele>755.0</ele><time>2026-04-25T10:39:26.993Z</time></trkpt><trkpt lat="44.5128433" lon="9.2118817"><ele>753.0</ele><time>2026-04-25T10:39:27.995Z</time></trkpt><trkpt lat="44.5129017" lon="9.2116333"><ele>766.0</ele><time>2026-04-25T10:39:28.997Z</time></trkpt><trkpt lat="44.5129617" lon="9.2113567"><ele>779.0</ele><time>2026-04-25T10:39:29.996Z</time></trkpt><trkpt lat="44.5130117" lon="9.2110533"><ele>792.0</ele><time>2026-04-25T10:39:30.993Z</time></trkpt><trkpt lat="44.5130767" lon="9.21077"><ele>792.3333333333333</ele><time>2026-04-25T10:39:31.995Z</time></trkpt><trkpt lat="44.5131083" lon="9.210475"><ele>792.6666666666666</ele><time>2026-04-25T10:39:32.992Z</time></trkpt><trkpt lat="44.5131417" lon="9.2101917"><ele>793.0</ele><time>2026-04-25T10:39:33.995Z</time></trkpt><trkpt lat="44.5131667" lon="9.209935"><ele>793.8</ele><time>2026-04-25T10:39:34.991Z</time></trkpt><trkpt lat="44.5131867" lon="9.2097517"><ele>794.5999999999999</ele><time>2026-04-25T10:39:35.993Z</time></trkpt><trkpt lat="44.5131833" lon="9.2095967"><ele>795.4000000000001</ele><time>2026-04-25T10:39:36.992Z</time></trkpt><trkpt lat="44.5131767" lon="9.2094883"><ele>796.2</ele><time>2026-04-25T10:39:37.994Z</time></trkpt><trkpt lat="44.5131367" lon="9.20941"><ele>797.0</ele><time>2026-04-25T10:39:38.998Z</time></trkpt><trkpt lat="44.5130883" lon="9.209345"><ele>797.0</ele><time>2026-04-25T10:39:39.995Z</time></trkpt><trkpt lat="44.512935" lon="9.2094367"><ele>797.0</ele><time>2026-04-25T10:39:41.995Z</time></trkpt><trkpt lat="44.5128683" lon="9.20952"><ele>797.0</ele><time>2026-04-25T10:39:42.994Z</time></trkpt><trkpt lat="44.5127933" lon="9.2096267"><ele>797.0</ele><time>2026-04-25T10:39:43.999Z</time></trkpt><trkpt lat="44.5127233" lon="9.2097067"><ele>794.4000000000001</ele><time>2026-04-25T10:39:44.996Z</time></trkpt><trkpt lat="44.5126433" lon="9.2097133"><ele>791.8000000000001</ele><time>2026-04-25T10:39:45.991Z</time></trkpt><trkpt lat="44.512565" lon="9.2097083"><ele>789.2</ele><time>2026-04-25T10:39:46.992Z</time></trkpt><trkpt lat="44.512495" lon="9.2096367"><ele>786.6</ele><time>2026-04-25T10:39:47.99Z</time></trkpt><trkpt lat="44.512425" lon="9.20955"><ele>784.0</ele><time>2026-04-25T10:39:48.998Z</time></trkpt><trkpt lat="44.5123517" lon="9.2094233"><ele>784.0</ele><time>2026-04-25T10:39:49.994Z</time></trkpt><trkpt lat="44.512275" lon="9.209255"><ele>784.0</ele><time>2026-04-25T10:39:50.991Z</time></trkpt><trkpt lat="44.5122033" lon="9.2090717"><ele>784.0</ele><time>2026-04-25T10:39:51.993Z</time></trkpt><trkpt lat="44.5121233" lon="9.2088867"><ele>784.0</ele><time>2026-04-25T10:39:52.994Z</time></trkpt><trkpt lat="44.5120367" lon="9.2087033"><ele>784.75</ele><time>2026-04-25T10:39:53.996Z</time></trkpt><trkpt lat="44.511945" lon="9.208535"><ele>785.5</ele><time>2026-04-25T10:39:54.992Z</time></trkpt><trkpt lat="44.5118533" lon="9.20838"><ele>786.25</ele><time>2026-04-25T10:39:55.995Z</time></trkpt><trkpt lat="44.51175" lon="9.2082617"><ele>787.0</ele><time>2026-04-25T10:39:57Z</time></trkpt><trkpt lat="44.5116367" lon="9.2081867"><ele>795.25</ele><time>2026-04-25T10:39:57.995Z</time></trkpt><trkpt lat="44.5115183" lon="9.2081233"><ele>803.5</ele><time>2026-04-25T10:39:58.992Z</time></trkpt><trkpt lat="44.5113817" lon="9.2081067"><ele>811.75</ele><time>2026-04-25T10:39:59.996Z</time></trkpt><trkpt lat="44.5112433" lon="9.2080917"><ele>820.0</ele><time>2026-04-25T10:40:00.993Z</time></trkpt><trkpt lat="44.5111033" lon="9.2080767"><ele>820.0</ele><time>2026-04-25T10:40:01.998Z</time></trkpt><trkpt lat="44.51096" lon="9.2080633"><ele>820.0</ele><time>2026-04-25T10:40:02.999Z</time></trkpt><trkpt lat="44.510815" lon="9.20807"><ele>820.0</ele><time>2026-04-25T10:40:03.999Z</time></trkpt><trkpt lat="44.5106817" lon="9.2081"><ele>820.0</ele><time>2026-04-25T10:40:04.999Z</time></trkpt><trkpt lat="44.51055" lon="9.2081567"><ele>814.5</ele><time>2026-04-25T10:40:05.995Z</time></trkpt><trkpt lat="44.510415" lon="9.20823"><ele>809.0</ele><time>2026-04-25T10:40:06.994Z</time></trkpt><trkpt lat="44.510285" lon="9.2083117"><ele>803.5</ele><time>2026-04-25T10:40:07.991Z</time></trkpt><trkpt lat="44.51016" lon="9.2084083"><ele>798.0</ele><time>2026-04-25T10:40:08.997Z</time></trkpt><trkpt lat="44.5100433" lon="9.2085233"><ele>798.0</ele><time>2026-04-25T10:40:09.991Z</time></trkpt><trkpt lat="44.509935" lon="9.2086533"><ele>798.0</ele><time>2026-04-25T10:40:10.992Z</time></trkpt><trkpt lat="44.50983" lon="9.2087833"><ele>798.0</ele><time>2026-04-25T10:40:11.998Z</time></trkpt><trkpt lat="44.50973" lon="9.2088883"><ele>798.0</ele><time>2026-04-25T10:40:12.999Z</time></trkpt><trkpt lat="44.50965" lon="9.20898"><ele>794.4</ele><time>2026-04-25T10:40:13.996Z</time></trkpt><trkpt lat="44.509565" lon="9.2090283"><ele>790.8</ele><time>2026-04-25T10:40:14.992Z</time></trkpt><trkpt lat="44.5094817" lon="9.2090733"><ele>787.2</ele><time>2026-04-25T10:40:15.995Z</time></trkpt><trkpt lat="44.5093883" lon="9.2090283"><ele>783.6</ele><time>2026-04-25T10:40:16.993Z</time></trkpt><trkpt lat="44.5093333" lon="9.2089"><ele>780.0</ele><time>2026-04-25T10:40:17.997Z</time></trkpt><trkpt lat="44.5093067" lon="9.20876"><ele>780.0</ele><time>2026-04-25T10:40:18.998Z</time></trkpt><trkpt lat="44.509275" lon="9.2086367"><ele>780.0</ele><time>2026-04-25T10:40:19.999Z</time></trkpt><trkpt lat="44.50926" lon="9.2085"><ele>780.0</ele><time>2026-04-25T10:40:20.997Z</time></trkpt><trkpt lat="44.509285" lon="9.2083517"><ele>780.0</ele><time>2026-04-25T10:40:21.996Z</time></trkpt><trkpt lat="44.509395" lon="9.2082167"><ele>780.0</ele><time>2026-04-25T10:40:22.996Z</time></trkpt><trkpt lat="44.5094733" lon="9.2081117"><ele>783.3333333333334</ele><time>2026-04-25T10:40:23.992Z</time></trkpt><trkpt lat="44.5095317" lon="9.2079967"><ele>786.6666666666667</ele><time>2026-04-25T10:40:24.995Z</time></trkpt><trkpt lat="44.5095683" lon="9.2078867"><ele>790.0</ele><time>2026-04-25T10:40:25.996Z</time></trkpt><trkpt lat="44.5095883" lon="9.2077867"><ele>793.3333333333334</ele><time>2026-04-25T10:40:26.994Z</time></trkpt><trkpt lat="44.5095967" lon="9.2076967"><ele>796.6666666666667</ele><time>2026-04-25T10:40:27.996Z</time></trkpt><trkpt lat="44.5095067" lon="9.20767"><ele>800.0</ele><time>2026-04-25T10:40:28.992Z</time></trkpt><trkpt lat="44.5094317" lon="9.2076367"><ele>800.0</ele><time>2026-04-25T10:40:29.996Z</time></trkpt><trkpt lat="44.50928" lon="9.2076483"><ele>800.0</ele><time>2026-04-25T10:40:30.997Z</time></trkpt><trkpt lat="44.5091317" lon="9.2076083"><ele>800.0</ele><time>2026-04-25T10:40:31.998Z</time></trkpt><trkpt lat="44.508995" lon="9.20756"><ele>800.0</ele><time>2026-04-25T10:40:32.999Z</time></trkpt><trkpt lat="44.508855" lon="9.20751"><ele>793.75</ele><time>2026-04-25T10:40:33.992Z</time></trkpt><trkpt lat="44.508715" lon="9.2074633"><ele>787.5</ele><time>2026-04-25T10:40:34.995Z</time></trkpt><trkpt lat="44.5086017" lon="9.207365"><ele>781.25</ele><time>2026-04-25T10:40:35.993Z</time></trkpt><trkpt lat="44.5085167" lon="9.2072367"><ele>775.0</ele><time>2026-04-25T10:40:36.996Z</time></trkpt><trkpt lat="44.5084633" lon="9.2070883"><ele>775.0</ele><time>2026-04-25T10:40:37.994Z</time></trkpt><trkpt lat="44.5084433" lon="9.206925"><ele>775.0</ele><time>2026-04-25T10:40:38.999Z</time></trkpt><trkpt lat="44.50846" lon="9.2067533"><ele>775.0</ele><time>2026-04-25T10:40:39.992Z</time></trkpt><trkpt lat="44.5085017" lon="9.206575"><ele>775.0</ele><time>2026-04-25T10:40:40.992Z</time></trkpt><trkpt lat="44.508565" lon="9.2063817"><ele>773.3333333333333</ele><time>2026-04-25T10:40:41.998Z</time></trkpt><trkpt lat="44.50864" lon="9.2061667"><ele>771.6666666666667</ele><time>2026-04-25T10:40:42.991Z</time></trkpt><trkpt lat="44.5087317" lon="9.205955"><ele>770.0</ele><time>2026-04-25T10:40:43.993Z</time></trkpt><trkpt lat="44.508835" lon="9.20575"><ele>775.0</ele><time>2026-04-25T10:40:44.999Z</time></trkpt><trkpt lat="44.5089417" lon="9.2055333"><ele>780.0</ele><time>2026-04-25T10:40:45.994Z</time></trkpt><trkpt lat="44.5090767" lon="9.20532"><ele>785.0</ele><time>2026-04-25T10:40:46.993Z</time></trkpt><trkpt lat="44.5091933" lon="9.2051267"><ele>785.0</ele><time>2026-04-25T10:40:47.993Z</time></trkpt><trkpt lat="44.5093033" lon="9.2049433"><ele>785.0</ele><time>2026-04-25T10:40:48.996Z</time></trkpt><trkpt lat="44.5094" lon="9.2047617"><ele>785.0</ele><time>2026-04-25T10:40:49.99Z</time></trkpt><trkpt lat="44.5094667" lon="9.204575"><ele>780.3333333333334</ele><time>2026-04-25T10:40:50.995Z</time></trkpt><trkpt lat="44.50951" lon="9.2043717"><ele>775.6666666666667</ele><time>2026-04-25T10:40:51.997Z</time></trkpt><trkpt lat="44.5095283" lon="9.2041583"><ele>771.0</ele><time>2026-04-25T10:40:52.993Z</time></trkpt><trkpt lat="44.5095517" lon="9.2039383"><ele>770.5</ele><time>2026-04-25T10:40:53.995Z</time></trkpt><trkpt lat="44.50957" lon="9.2037283"><ele>770.0</ele><time>2026-04-25T10:40:54.996Z</time></trkpt><trkpt lat="44.5095717" lon="9.2035233"><ele>769.5</ele><time>2026-04-25T10:40:55.996Z</time></trkpt><trkpt lat="44.50958" lon="9.2033117"><ele>769.0</ele><time>2026-04-25T10:40:56.999Z</time></trkpt><trkpt lat="44.50958" lon="9.2031183"><ele>775.75</ele><time>2026-04-25T10:40:57.998Z</time></trkpt><trkpt lat="44.5095933" lon="9.2029283"><ele>782.5</ele><time>2026-04-25T10:40:58.995Z</time></trkpt><trkpt lat="44.509645" lon="9.20276"><ele>789.25</ele><time>2026-04-25T10:40:59.995Z</time></trkpt><trkpt lat="44.5097183" lon="9.202605"><ele>796.0</ele><time>2026-04-25T10:41:00.995Z</time></trkpt><trkpt lat="44.5097917" lon="9.2024333"><ele>787.0</ele><time>2026-04-25T10:41:01.994Z</time></trkpt><trkpt lat="44.50987" lon="9.20226"><ele>778.0</ele><time>2026-04-25T10:41:02.993Z</time></trkpt><trkpt lat="44.509945" lon="9.2020583"><ele>769.0</ele><time>2026-04-25T10:41:03.994Z</time></trkpt><trkpt lat="44.5100267" lon="9.20187"><ele>769.0</ele><time>2026-04-25T10:41:04.995Z</time></trkpt><trkpt lat="44.5101033" lon="9.2016717"><ele>769.0</ele><time>2026-04-25T10:41:05.992Z</time></trkpt><trkpt lat="44.5101817" lon="9.2014733"><ele>769.0</ele><time>2026-04-25T10:41:06.994Z</time></trkpt><trkpt lat="44.5102583" lon="9.2012667"><ele>767.6666666666666</ele><time>2026-04-25T10:41:07.993Z</time></trkpt><trkpt lat="44.5103317" lon="9.201065"><ele>766.3333333333333</ele><time>2026-04-25T10:41:08.996Z</time></trkpt><trkpt lat="44.5103933" lon="9.20087"><ele>765.0</ele><time>2026-04-25T10:41:09.997Z</time></trkpt><trkpt lat="44.510445" lon="9.2006767"><ele>765.5</ele><time>2026-04-25T10:41:10.993Z</time></trkpt><trkpt lat="44.510475" lon="9.2004833"><ele>766.0</ele><time>2026-04-25T10:41:11.997Z</time></trkpt><trkpt lat="44.5104733" lon="9.2002817"><ele>766.5</ele><time>2026-04-25T10:41:12.991Z</time></trkpt><trkpt lat="44.51045" lon="9.2000767"><ele>767.0</ele><time>2026-04-25T10:41:13.99Z</time></trkpt><trkpt lat="44.5104033" lon="9.1998717"><ele>771.25</ele><time>2026-04-25T10:41:14.994Z</time></trkpt><trkpt lat="44.510345" lon="9.1996817"><ele>775.5</ele><time>2026-04-25T10:41:15.991Z</time></trkpt><trkpt lat="44.5102683" lon="9.1995133"><ele>779.75</ele><time>2026-04-25T10:41:16.994Z</time></trkpt><trkpt lat="44.5101867" lon="9.1993467"><ele>784.0</ele><time>2026-04-25T10:41:17.998Z</time></trkpt><trkpt lat="44.5101117" lon="9.1991717"><ele>784.0</ele><time>2026-04-25T10:41:18.995Z</time></trkpt><trkpt lat="44.5100383" lon="9.199015"><ele>784.0</ele><time>2026-04-25T10:41:19.996Z</time></trkpt><trkpt lat="44.5099717" lon="9.1988883"><ele>784.0</ele><time>2026-04-25T10:41:20.999Z</time></trkpt><trkpt lat="44.5099" lon="9.1988117"><ele>784.0</ele><time>2026-04-25T10:41:21.992Z</time></trkpt><trkpt lat="44.509825" lon="9.1987583"><ele>784.0</ele><time>2026-04-25T10:41:22.997Z</time></trkpt><trkpt lat="44.5097483" lon="9.19873"><ele>783.2</ele><time>2026-04-25T10:41:23.993Z</time></trkpt><trkpt lat="44.5096467" lon="9.1986883"><ele>782.4000000000001</ele><time>2026-04-25T10:41:25.994Z</time></trkpt><trkpt lat="44.5095117" lon="9.1987417"><ele>781.6</ele><time>2026-04-25T10:41:57Z</time></trkpt><trkpt lat="44.5094433" lon="9.198735"><ele>780.8</ele><time>2026-04-25T10:41:58.993Z</time></trkpt><trkpt lat="44.5093567" lon="9.19873"><ele>780.0</ele><time>2026-04-25T10:42:00.996Z</time></trkpt><trkpt lat="44.509245" lon="9.1987417"><ele>780.0</ele><time>2026-04-25T10:42:02.997Z</time></trkpt><trkpt lat="44.509135" lon="9.198745"><ele>780.0</ele><time>2026-04-25T10:42:04.994Z</time></trkpt><trkpt lat="44.5090417" lon="9.1987083"><ele>780.0</ele><time>2026-04-25T10:42:06.998Z</time></trkpt><trkpt lat="44.5089583" lon="9.1986217"><ele>780.0</ele><time>2026-04-25T10:42:08.999Z</time></trkpt><trkpt lat="44.5088917" lon="9.1985033"><ele>780.0</ele><time>2026-04-25T10:42:10.997Z</time></trkpt><trkpt lat="44.5088483" lon="9.1983483"><ele>780.0</ele><time>2026-04-25T10:42:12.998Z</time></trkpt><trkpt lat="44.5088317" lon="9.1981867"><ele>780.0</ele><time>2026-04-25T10:42:14.996Z</time></trkpt><trkpt lat="44.5088283" lon="9.1980233"><ele>780.0</ele><time>2026-04-25T10:42:16.993Z</time></trkpt><trkpt lat="44.50882" lon="9.197935"><ele>780.0</ele><time>2026-04-25T10:42:17.997Z</time></trkpt><trkpt lat="44.508815" lon="9.1978383"><ele>780.0</ele><time>2026-04-25T10:42:18.996Z</time></trkpt><trkpt lat="44.5088167" lon="9.1977417"><ele>780.0</ele><time>2026-04-25T10:42:19.995Z</time></trkpt><trkpt lat="44.50882" lon="9.19765"><ele>779.4285714285714</ele><time>2026-04-25T10:42:21.002Z</time></trkpt><trkpt lat="44.50884" lon="9.1975617"><ele>778.8571428571429</ele><time>2026-04-25T10:42:21.994Z</time></trkpt><trkpt lat="44.5088717" lon="9.197485"><ele>778.2857142857142</ele><time>2026-04-25T10:42:22.995Z</time></trkpt><trkpt lat="44.50892" lon="9.197425"><ele>777.7142857142858</ele><time>2026-04-25T10:42:23.996Z</time></trkpt><trkpt lat="44.5089883" lon="9.197395"><ele>777.1428571428572</ele><time>2026-04-25T10:42:24.992Z</time></trkpt><trkpt lat="44.5090667" lon="9.19738"><ele>776.5714285714286</ele><time>2026-04-25T10:42:25.993Z</time></trkpt><trkpt lat="44.50915" lon="9.1973733"><ele>776.0</ele><time>2026-04-25T10:42:26.996Z</time></trkpt><trkpt lat="44.5092133" lon="9.197355"><ele>776.0000000000001</ele><time>2026-04-25T10:42:27.993Z</time></trkpt><trkpt lat="44.50929" lon="9.1973483"><ele>776.0</ele><time>2026-04-25T10:42:28.994Z</time></trkpt><trkpt lat="44.50936" lon="9.1973317"><ele>776.0</ele><time>2026-04-25T10:42:29.996Z</time></trkpt><trkpt lat="44.5094333" lon="9.1972617"><ele>776.0</ele><time>2026-04-25T10:42:31.994Z</time></trkpt><trkpt lat="44.5093867" lon="9.19716"><ele>776.0000000000001</ele><time>2026-04-25T10:42:32.994Z</time></trkpt><trkpt lat="44.5093117" lon="9.1970233"><ele>776.0</ele><time>2026-04-25T10:42:34.993Z</time></trkpt><trkpt lat="44.5092567" lon="9.1969733"><ele>775.3333333333334</ele><time>2026-04-25T10:42:35.995Z</time></trkpt><trkpt lat="44.5092017" lon="9.1969283"><ele>774.6666666666667</ele><time>2026-04-25T10:42:37.001Z</time></trkpt><trkpt lat="44.5091033" lon="9.1968767"><ele>774.0</ele><time>2026-04-25T10:42:38.997Z</time></trkpt><trkpt lat="44.5090333" lon="9.1967383"><ele>773.3333333333333</ele><time>2026-04-25T10:42:40.991Z</time></trkpt><trkpt lat="44.5090117" lon="9.1966533"><ele>772.6666666666666</ele><time>2026-04-25T10:42:41.995Z</time></trkpt><trkpt lat="44.5089983" lon="9.196555"><ele>772.0</ele><time>2026-04-25T10:42:42.993Z</time></trkpt><trkpt lat="44.5090217" lon="9.19641"><ele>771.8</ele><time>2026-04-25T10:42:43.993Z</time></trkpt><trkpt lat="44.5090367" lon="9.1962717"><ele>771.6</ele><time>2026-04-25T10:42:44.996Z</time></trkpt><trkpt lat="44.5090417" lon="9.1961317"><ele>771.4</ele><time>2026-04-25T10:42:45.999Z</time></trkpt><trkpt lat="44.50903" lon="9.1959917"><ele>771.1999999999999</ele><time>2026-04-25T10:42:46.992Z</time></trkpt><trkpt lat="44.5090083" lon="9.195845"><ele>771.0</ele><time>2026-04-25T10:42:47.992Z</time></trkpt><trkpt lat="44.5089883" lon="9.195695"><ele>770.8</ele><time>2026-04-25T10:42:48.996Z</time></trkpt><trkpt lat="44.5089567" lon="9.195555"><ele>770.5999999999999</ele><time>2026-04-25T10:42:49.993Z</time></trkpt><trkpt lat="44.508925" lon="9.1954217"><ele>770.4</ele><time>2026-04-25T10:42:51Z</time></trkpt><trkpt lat="44.5088983" lon="9.195295"><ele>770.2</ele><time>2026-04-25T10:42:51.995Z</time></trkpt><trkpt lat="44.5088933" lon="9.1951717"><ele>770.0</ele><time>2026-04-25T10:42:52.992Z</time></trkpt><trkpt lat="44.5089033" lon="9.195055"><ele>770.0</ele><time>2026-04-25T10:42:53.996Z</time></trkpt><trkpt lat="44.5089283" lon="9.19495"><ele>770.0</ele><time>2026-04-25T10:42:54.995Z</time></trkpt><trkpt lat="44.508975" lon="9.1948517"><ele>770.0</ele><time>2026-04-25T10:42:55.996Z</time></trkpt><trkpt lat="44.5090433" lon="9.19477"><ele>770.0</ele><time>2026-04-25T10:42:56.995Z</time></trkpt><trkpt lat="44.5091483" lon="9.1947017"><ele>770.0</ele><time>2026-04-25T10:42:57.995Z</time></trkpt><trkpt lat="44.5092433" lon="9.1946117"><ele>774.25</ele><time>2026-04-25T10:42:58.991Z</time></trkpt><trkpt lat="44.5093333" lon="9.1945017"><ele>778.5</ele><time>2026-04-25T10:42:59.993Z</time></trkpt><trkpt lat="44.509415" lon="9.194365"><ele>782.75</ele><time>2026-04-25T10:43:00.994Z</time></trkpt><trkpt lat="44.5094917" lon="9.1942133"><ele>787.0</ele><time>2026-04-25T10:43:01.996Z</time></trkpt><trkpt lat="44.5095517" lon="9.1940517"><ele>783.5</ele><time>2026-04-25T10:43:02.998Z</time></trkpt><trkpt lat="44.5095967" lon="9.19388"><ele>780.0</ele><time>2026-04-25T10:43:03.996Z</time></trkpt><trkpt lat="44.5096333" lon="9.1937"><ele>776.5</ele><time>2026-04-25T10:43:04.996Z</time></trkpt><trkpt lat="44.5096567" lon="9.193515"><ele>773.0</ele><time>2026-04-25T10:43:05.994Z</time></trkpt><trkpt lat="44.509665" lon="9.1933267"><ele>775.5</ele><time>2026-04-25T10:43:06.997Z</time></trkpt><trkpt lat="44.509665" lon="9.1931383"><ele>778.0</ele><time>2026-04-25T10:43:07.995Z</time></trkpt><trkpt lat="44.5096667" lon="9.19295"><ele>780.5</ele><time>2026-04-25T10:43:08.994Z</time></trkpt><trkpt lat="44.50965" lon="9.1927617"><ele>783.0</ele><time>2026-04-25T10:43:09.992Z</time></trkpt><trkpt lat="44.50963" lon="9.1925633"><ele>783.0</ele><time>2026-04-25T10:43:10.995Z</time></trkpt><trkpt lat="44.5096117" lon="9.1923517"><ele>783.0</ele><time>2026-04-25T10:43:11.994Z</time></trkpt><trkpt lat="44.5096033" lon="9.1921483"><ele>783.0</ele><time>2026-04-25T10:43:12.994Z</time></trkpt><trkpt lat="44.5095933" lon="9.1919467"><ele>783.0</ele><time>2026-04-25T10:43:13.994Z</time></trkpt><trkpt lat="44.5095567" lon="9.19113"><ele>781.5</ele><time>2026-04-25T10:43:18.002Z</time></trkpt><trkpt lat="44.5096" lon="9.1909483"><ele>780.0</ele><time>2026-04-25T10:43:18.996Z</time></trkpt><trkpt lat="44.5096217" lon="9.190795"><ele>778.5</ele><time>2026-04-25T10:43:19.991Z</time></trkpt><trkpt lat="44.5096217" lon="9.19063"><ele>777.0</ele><time>2026-04-25T10:43:20.997Z</time></trkpt><trkpt lat="44.5096217" lon="9.190455"><ele>777.0</ele><time>2026-04-25T10:43:21.995Z</time></trkpt><trkpt lat="44.50963" lon="9.1902367"><ele>777.0</ele><time>2026-04-25T10:43:22.993Z</time></trkpt><trkpt lat="44.5096033" lon="9.1900567"><ele>777.0</ele><time>2026-04-25T10:43:23.997Z</time></trkpt><trkpt lat="44.509605" lon="9.1898733"><ele>777.0</ele><time>2026-04-25T10:43:24.999Z</time></trkpt><trkpt lat="44.50956" lon="9.18971"><ele>780.5</ele><time>2026-04-25T10:43:26.002Z</time></trkpt><trkpt lat="44.5094983" lon="9.1895633"><ele>784.0</ele><time>2026-04-25T10:43:26.99Z</time></trkpt><trkpt lat="44.5094183" lon="9.1894417"><ele>787.5</ele><time>2026-04-25T10:43:27.998Z</time></trkpt><trkpt lat="44.5093317" lon="9.1893333"><ele>791.0</ele><time>2026-04-25T10:43:28.992Z</time></trkpt><trkpt lat="44.5092467" lon="9.18923"><ele>791.0</ele><time>2026-04-25T10:43:29.995Z</time></trkpt><trkpt lat="44.5091617" lon="9.1891367"><ele>791.0</ele><time>2026-04-25T10:43:31.003Z</time></trkpt><trkpt lat="44.5090717" lon="9.1890483"><ele>791.0</ele><time>2026-04-25T10:43:31.996Z</time></trkpt><trkpt lat="44.5089917" lon="9.1889583"><ele>791.0</ele><time>2026-04-25T10:43:32.997Z</time></trkpt><trkpt lat="44.5089133" lon="9.1888633"><ele>791.0</ele><time>2026-04-25T10:43:33.994Z</time></trkpt><trkpt lat="44.5088433" lon="9.1887633"><ele>790.5999999999999</ele><time>2026-04-25T10:43:34.996Z</time></trkpt><trkpt lat="44.5087767" lon="9.1886533"><ele>790.2</ele><time>2026-04-25T10:43:35.998Z</time></trkpt><trkpt lat="44.5087133" lon="9.188545"><ele>789.8</ele><time>2026-04-25T10:43:36.997Z</time></trkpt><trkpt lat="44.5086533" lon="9.1884317"><ele>789.4000000000001</ele><time>2026-04-25T10:43:37.997Z</time></trkpt><trkpt lat="44.5086017" lon="9.1883133"><ele>789.0</ele><time>2026-04-25T10:43:38.996Z</time></trkpt><trkpt lat="44.5085567" lon="9.1881883"><ele>791.4000000000001</ele><time>2026-04-25T10:43:39.999Z</time></trkpt><trkpt lat="44.50852" lon="9.188055"><ele>793.8</ele><time>2026-04-25T10:43:40.996Z</time></trkpt><trkpt lat="44.5084833" lon="9.1879183"><ele>796.2</ele><time>2026-04-25T10:43:41.996Z</time></trkpt><trkpt lat="44.5084583" lon="9.1877717"><ele>798.5999999999999</ele><time>2026-04-25T10:43:42.996Z</time></trkpt><trkpt lat="44.5084367" lon="9.1876267"><ele>801.0</ele><time>2026-04-25T10:43:43.997Z</time></trkpt><trkpt lat="44.5084383" lon="9.187465"><ele>802.5</ele><time>2026-04-25T10:43:44.998Z</time></trkpt><trkpt lat="44.5084517" lon="9.187305"><ele>804.0</ele><time>2026-04-25T10:43:45.993Z</time></trkpt><trkpt lat="44.50847" lon="9.1871467"><ele>805.5</ele><time>2026-04-25T10:43:46.997Z</time></trkpt><trkpt lat="44.5085033" lon="9.1869817"><ele>807.0</ele><time>2026-04-25T10:43:47.995Z</time></trkpt><trkpt lat="44.5085383" lon="9.186815"><ele>807.0</ele><time>2026-04-25T10:43:48.997Z</time></trkpt><trkpt lat="44.5085733" lon="9.1866517"><ele>807.0</ele><time>2026-04-25T10:43:50.001Z</time></trkpt><trkpt lat="44.508595" lon="9.1864917"><ele>807.0</ele><time>2026-04-25T10:43:51Z</time></trkpt><trkpt lat="44.5086167" lon="9.1863333"><ele>807.0</ele><time>2026-04-25T10:43:51.991Z</time></trkpt><trkpt lat="44.5086333" lon="9.1861867"><ele>808.1666666666666</ele><time>2026-04-25T10:43:52.992Z</time></trkpt><trkpt lat="44.50864" lon="9.18605"><ele>809.3333333333333</ele><time>2026-04-25T10:43:53.994Z</time></trkpt><trkpt lat="44.508655" lon="9.18592"><ele>810.5</ele><time>2026-04-25T10:43:54.998Z</time></trkpt><trkpt lat="44.5086683" lon="9.185795"><ele>811.6666666666666</ele><time>2026-04-25T10:43:55.996Z</time></trkpt><trkpt lat="44.5086817" lon="9.1856883"><ele>812.8333333333333</ele><time>2026-04-25T10:43:57.007Z</time></trkpt><trkpt lat="44.508685" lon="9.185595"><ele>814.0</ele><time>2026-04-25T10:43:57.995Z</time></trkpt><trkpt lat="44.50868" lon="9.18549"><ele>814.0</ele><time>2026-04-25T10:43:58.995Z</time></trkpt><trkpt lat="44.50866" lon="9.185375"><ele>814.0</ele><time>2026-04-25T10:43:59.995Z</time></trkpt><trkpt lat="44.5086233" lon="9.18526"><ele>814.0</ele><time>2026-04-25T10:44:00.993Z</time></trkpt><trkpt lat="44.5085717" lon="9.1851433"><ele>814.0</ele><time>2026-04-25T10:44:01.996Z</time></trkpt><trkpt lat="44.5085317" lon="9.185025"><ele>814.0</ele><time>2026-04-25T10:44:02.994Z</time></trkpt><trkpt lat="44.508495" lon="9.1849117"><ele>814.4000000000001</ele><time>2026-04-25T10:44:03.995Z</time></trkpt><trkpt lat="44.5084633" lon="9.1848017"><ele>814.8</ele><time>2026-04-25T10:44:04.993Z</time></trkpt><trkpt lat="44.5084533" lon="9.1846833"><ele>815.2</ele><time>2026-04-25T10:44:05.998Z</time></trkpt><trkpt lat="44.5084583" lon="9.184565"><ele>815.5999999999999</ele><time>2026-04-25T10:44:06.997Z</time></trkpt><trkpt lat="44.5085017" lon="9.184435"><ele>816.0</ele><time>2026-04-25T10:44:07.992Z</time></trkpt><trkpt lat="44.5085167" lon="9.1843"><ele>816.0</ele><time>2026-04-25T10:44:08.997Z</time></trkpt><trkpt lat="44.508505" lon="9.1841717"><ele>816.0</ele><time>2026-04-25T10:44:09.991Z</time></trkpt><trkpt lat="44.5084633" lon="9.1840617"><ele>816.0</ele><time>2026-04-25T10:44:10.992Z</time></trkpt><trkpt lat="44.5084117" lon="9.18396"><ele>816.0</ele><time>2026-04-25T10:44:11.99Z</time></trkpt><trkpt lat="44.5083133" lon="9.1838917"><ele>816.0</ele><time>2026-04-25T10:44:12.996Z</time></trkpt><trkpt lat="44.5082267" lon="9.183825"><ele>816.8</ele><time>2026-04-25T10:44:13.996Z</time></trkpt><trkpt lat="44.5081633" lon="9.18376"><ele>817.5999999999999</ele><time>2026-04-25T10:44:14.998Z</time></trkpt><trkpt lat="44.5081067" lon="9.1836867"><ele>818.4</ele><time>2026-04-25T10:44:15.995Z</time></trkpt><trkpt lat="44.5081133" lon="9.183575"><ele>819.2</ele><time>2026-04-25T10:44:16.995Z</time></trkpt><trkpt lat="44.508155" lon="9.183405"><ele>820.0</ele><time>2026-04-25T10:44:18.998Z</time></trkpt><trkpt lat="44.5082317" lon="9.183325"><ele>820.0</ele><time>2026-04-25T10:44:19.995Z</time></trkpt><trkpt lat="44.5083667" lon="9.1833067"><ele>820.0</ele><time>2026-04-25T10:44:20.996Z</time></trkpt><trkpt lat="44.5084783" lon="9.1832583"><ele>820.0</ele><time>2026-04-25T10:44:21.993Z</time></trkpt><trkpt lat="44.5085767" lon="9.1831833"><ele>820.0</ele><time>2026-04-25T10:44:22.993Z</time></trkpt><trkpt lat="44.5086533" lon="9.18308"><ele>817.2</ele><time>2026-04-25T10:44:23.998Z</time></trkpt><trkpt lat="44.5087117" lon="9.18296"><ele>814.4</ele><time>2026-04-25T10:44:25.001Z</time></trkpt><trkpt lat="44.5087567" lon="9.1828283"><ele>811.5999999999999</ele><time>2026-04-25T10:44:25.993Z</time></trkpt><trkpt lat="44.5087933" lon="9.1826917"><ele>808.8</ele><time>2026-04-25T10:44:26.997Z</time></trkpt><trkpt lat="44.50883" lon="9.1825467"><ele>806.0</ele><time>2026-04-25T10:44:27.999Z</time></trkpt><trkpt lat="44.5088733" lon="9.182405"><ele>810.1999999999999</ele><time>2026-04-25T10:44:28.996Z</time></trkpt><trkpt lat="44.5089183" lon="9.1822783"><ele>814.4</ele><time>2026-04-25T10:44:29.997Z</time></trkpt><trkpt lat="44.508975" lon="9.1821817"><ele>818.6</ele><time>2026-04-25T10:44:30.997Z</time></trkpt><trkpt lat="44.5090483" lon="9.1821083"><ele>822.8</ele><time>2026-04-25T10:44:31.995Z</time></trkpt><trkpt lat="44.5091367" lon="9.18204"><ele>827.0</ele><time>2026-04-25T10:44:32.993Z</time></trkpt><trkpt lat="44.5092283" lon="9.1819483"><ele>827.0</ele><time>2026-04-25T10:44:33.999Z</time></trkpt><trkpt lat="44.509325" lon="9.181845"><ele>827.0</ele><time>2026-04-25T10:44:34.997Z</time></trkpt><trkpt lat="44.5094417" lon="9.181715"><ele>827.0</ele><time>2026-04-25T10:44:35.993Z</time></trkpt><trkpt lat="44.5095383" lon="9.1815817"><ele>827.0</ele><time>2026-04-25T10:44:36.995Z</time></trkpt><trkpt lat="44.50963" lon="9.1814233"><ele>826.0</ele><time>2026-04-25T10:44:38.001Z</time></trkpt><trkpt lat="44.5097083" lon="9.18127"><ele>825.0</ele><time>2026-04-25T10:44:38.997Z</time></trkpt><trkpt lat="44.50978" lon="9.181125"><ele>824.0</ele><time>2026-04-25T10:44:39.993Z</time></trkpt><trkpt lat="44.5098633" lon="9.1810017"><ele>823.0</ele><time>2026-04-25T10:44:40.995Z</time></trkpt><trkpt lat="44.50996" lon="9.18089"><ele>823.0</ele><time>2026-04-25T10:44:42Z</time></trkpt><trkpt lat="44.51005" lon="9.1807667"><ele>823.0</ele><time>2026-04-25T10:44:42.993Z</time></trkpt><trkpt lat="44.5101267" lon="9.1806267"><ele>823.0</ele><time>2026-04-25T10:44:43.998Z</time></trkpt><trkpt lat="44.5101817" lon="9.18047"><ele>823.0</ele><time>2026-04-25T10:44:44.998Z</time></trkpt><trkpt lat="44.510215" lon="9.1803017"><ele>823.5</ele><time>2026-04-25T10:44:45.995Z</time></trkpt><trkpt lat="44.51023" lon="9.1801333"><ele>824.0</ele><time>2026-04-25T10:44:46.996Z</time></trkpt><trkpt lat="44.510225" lon="9.17997"><ele>824.5</ele><time>2026-04-25T10:44:47.993Z</time></trkpt><trkpt lat="44.510185" lon="9.17982"><ele>825.0</ele><time>2026-04-25T10:44:48.999Z</time></trkpt><trkpt lat="44.510135" lon="9.1796867"><ele>825.0</ele><time>2026-04-25T10:44:49.994Z</time></trkpt><trkpt lat="44.5100517" lon="9.1795633"><ele>825.0</ele><time>2026-04-25T10:44:50.998Z</time></trkpt><trkpt lat="44.50996" lon="9.1794433"><ele>825.0</ele><time>2026-04-25T10:44:51.995Z</time></trkpt><trkpt lat="44.5098617" lon="9.17932"><ele>825.0</ele><time>2026-04-25T10:44:52.996Z</time></trkpt><trkpt lat="44.5097667" lon="9.1791917"><ele>825.0</ele><time>2026-04-25T10:44:53.997Z</time></trkpt><trkpt lat="44.5096817" lon="9.179045"><ele>825.0</ele><time>2026-04-25T10:44:54.992Z</time></trkpt><trkpt lat="44.509615" lon="9.1788933"><ele>825.0</ele><time>2026-04-25T10:44:55.997Z</time></trkpt><trkpt lat="44.5095483" lon="9.1787367"><ele>825.0</ele><time>2026-04-25T10:44:56.998Z</time></trkpt><trkpt lat="44.5094683" lon="9.1786033"><ele>823.5</ele><time>2026-04-25T10:44:57.992Z</time></trkpt><trkpt lat="44.509375" lon="9.1784933"><ele>822.0</ele><time>2026-04-25T10:44:58.993Z</time></trkpt><trkpt lat="44.50927" lon="9.1783917"><ele>820.5</ele><time>2026-04-25T10:44:59.997Z</time></trkpt><trkpt lat="44.5091583" lon="9.1782717"><ele>819.0</ele><time>2026-04-25T10:45:00.995Z</time></trkpt><trkpt lat="44.5090567" lon="9.178135"><ele>819.0</ele><time>2026-04-25T10:45:01.994Z</time></trkpt><trkpt lat="44.508955" lon="9.1779917"><ele>819.0</ele><time>2026-04-25T10:45:02.998Z</time></trkpt><trkpt lat="44.5088517" lon="9.177845"><ele>819.0</ele><time>2026-04-25T10:45:03.995Z</time></trkpt><trkpt lat="44.5087483" lon="9.1776767"><ele>820.6666666666667</ele><time>2026-04-25T10:45:04.995Z</time></trkpt><trkpt lat="44.5086433" lon="9.17751"><ele>822.3333333333334</ele><time>2026-04-25T10:45:05.994Z</time></trkpt><trkpt lat="44.5085333" lon="9.1773467"><ele>824.0</ele><time>2026-04-25T10:45:06.994Z</time></trkpt><trkpt lat="44.5084267" lon="9.1771883"><ele>824.0</ele><time>2026-04-25T10:45:08Z</time></trkpt><trkpt lat="44.508315" lon="9.1770533"><ele>824.0</ele><time>2026-04-25T10:45:08.99Z</time></trkpt><trkpt lat="44.5082083" lon="9.1769283"><ele>824.0</ele><time>2026-04-25T10:45:09.992Z</time></trkpt><trkpt lat="44.508085" lon="9.1768417"><ele>824.0</ele><time>2026-04-25T10:45:10.996Z</time></trkpt><trkpt lat="44.5079567" lon="9.1767817"><ele>826.25</ele><time>2026-04-25T10:45:11.995Z</time></trkpt><trkpt lat="44.5078217" lon="9.1767367"><ele>828.5</ele><time>2026-04-25T10:45:12.993Z</time></trkpt><trkpt lat="44.507685" lon="9.176695"><ele>830.75</ele><time>2026-04-25T10:45:13.996Z</time></trkpt><trkpt lat="44.5075533" lon="9.1766267"><ele>833.0</ele><time>2026-04-25T10:45:14.999Z</time></trkpt><trkpt lat="44.5074233" lon="9.1765483"><ele>832.75</ele><time>2026-04-25T10:45:15.995Z</time></trkpt><trkpt lat="44.5073033" lon="9.17646"><ele>832.5</ele><time>2026-04-25T10:45:16.995Z</time></trkpt><trkpt lat="44.5071917" lon="9.17637"><ele>832.25</ele><time>2026-04-25T10:45:17.993Z</time></trkpt><trkpt lat="44.5070917" lon="9.1762883"><ele>832.0</ele><time>2026-04-25T10:45:18.994Z</time></trkpt><trkpt lat="44.507" lon="9.1762167"><ele>832.0</ele><time>2026-04-25T10:45:19.999Z</time></trkpt><trkpt lat="44.5069233" lon="9.1761683"><ele>832.0</ele><time>2026-04-25T10:45:20.998Z</time></trkpt><trkpt lat="44.5068583" lon="9.17613"><ele>832.0</ele><time>2026-04-25T10:45:21.999Z</time></trkpt><trkpt lat="44.506795" lon="9.1760583"><ele>832.0</ele><time>2026-04-25T10:45:23.993Z</time></trkpt><trkpt lat="44.5068133" lon="9.1759017"><ele>832.0</ele><time>2026-04-25T10:45:25.994Z</time></trkpt><trkpt lat="44.5068483" lon="9.1757633"><ele>834.6666666666666</ele><time>2026-04-25T10:45:26.998Z</time></trkpt><trkpt lat="44.50687" lon="9.1756567"><ele>837.3333333333333</ele><time>2026-04-25T10:45:27.995Z</time></trkpt><trkpt lat="44.5069033" lon="9.1755533"><ele>840.0</ele><time>2026-04-25T10:45:28.993Z</time></trkpt><trkpt lat="44.5069467" lon="9.175465"><ele>842.6666666666667</ele><time>2026-04-25T10:45:29.994Z</time></trkpt><trkpt lat="44.5070433" lon="9.175445"><ele>845.3333333333334</ele><time>2026-04-25T10:45:30.999Z</time></trkpt><trkpt lat="44.5071267" lon="9.1754367"><ele>848.0</ele><time>2026-04-25T10:45:31.993Z</time></trkpt><trkpt lat="44.5072267" lon="9.17544"><ele>849.5</ele><time>2026-04-25T10:45:32.999Z</time></trkpt><trkpt lat="44.50736" lon="9.175485"><ele>851.0</ele><time>2026-04-25T10:45:33.996Z</time></trkpt><trkpt lat="44.5075017" lon="9.1755417"><ele>852.5</ele><time>2026-04-25T10:45:34.994Z</time></trkpt><trkpt lat="44.5076483" lon="9.1756183"><ele>854.0</ele><time>2026-04-25T10:45:35.996Z</time></trkpt><trkpt lat="44.507795" lon="9.1757017"><ele>852.0</ele><time>2026-04-25T10:45:36.993Z</time></trkpt><trkpt lat="44.5079417" lon="9.17579"><ele>850.0</ele><time>2026-04-25T10:45:37.996Z</time></trkpt><trkpt lat="44.5080983" lon="9.1758633"><ele>848.0</ele><time>2026-04-25T10:45:38.996Z</time></trkpt><trkpt lat="44.50826" lon="9.1759217"><ele>848.0</ele><time>2026-04-25T10:45:39.997Z</time></trkpt><trkpt lat="44.5084217" lon="9.1759717"><ele>848.0</ele><time>2026-04-25T10:45:40.993Z</time></trkpt><trkpt lat="44.5085867" lon="9.1760383"><ele>848.0</ele><time>2026-04-25T10:45:41.997Z</time></trkpt><trkpt lat="44.5087417" lon="9.1761333"><ele>854.0</ele><time>2026-04-25T10:45:42.992Z</time></trkpt><trkpt lat="44.50889" lon="9.1762383"><ele>860.0</ele><time>2026-04-25T10:45:44.001Z</time></trkpt><trkpt lat="44.509045" lon="9.1763267"><ele>866.0</ele><time>2026-04-25T10:45:44.997Z</time></trkpt><trkpt lat="44.5091967" lon="9.1764067"><ele>866.0</ele><time>2026-04-25T10:45:45.997Z</time></trkpt><trkpt lat="44.509345" lon="9.1765"><ele>866.0</ele><time>2026-04-25T10:45:47.003Z</time></trkpt><trkpt lat="44.509485" lon="9.1765933"><ele>866.0</ele><time>2026-04-25T10:45:47.999Z</time></trkpt><trkpt lat="44.5096317" lon="9.1766767"><ele>863.6666666666667</ele><time>2026-04-25T10:45:48.996Z</time></trkpt><trkpt lat="44.5097733" lon="9.1767683"><ele>861.3333333333333</ele><time>2026-04-25T10:45:49.999Z</time></trkpt><trkpt lat="44.50991" lon="9.17688"><ele>859.0</ele><time>2026-04-25T10:45:50.994Z</time></trkpt><trkpt lat="44.5100333" lon="9.177015"><ele>859.0</ele><time>2026-04-25T10:45:51.998Z</time></trkpt><trkpt lat="44.5101567" lon="9.177145"><ele>859.0</ele><time>2026-04-25T10:45:53Z</time></trkpt><trkpt lat="44.510275" lon="9.177265"><ele>859.0</ele><time>2026-04-25T10:45:53.994Z</time></trkpt><trkpt lat="44.5103783" lon="9.1773783"><ele>859.0</ele><time>2026-04-25T10:45:54.992Z</time></trkpt><trkpt lat="44.5104767" lon="9.17746"><ele>859.2</ele><time>2026-04-25T10:45:55.992Z</time></trkpt><trkpt lat="44.5105717" lon="9.17751"><ele>859.4000000000001</ele><time>2026-04-25T10:45:56.998Z</time></trkpt><trkpt lat="44.5106533" lon="9.1775183"><ele>859.6</ele><time>2026-04-25T10:45:57.997Z</time></trkpt><trkpt lat="44.51073" lon="9.1774583"><ele>859.8</ele><time>2026-04-25T10:45:58.995Z</time></trkpt><trkpt lat="44.5107967" lon="9.1773767"><ele>860.0</ele><time>2026-04-25T10:45:59.995Z</time></trkpt><trkpt lat="44.51085" lon="9.177255"><ele>860.0</ele><time>2026-04-25T10:46:00.995Z</time></trkpt><trkpt lat="44.510905" lon="9.1771"><ele>860.0</ele><time>2026-04-25T10:46:01.992Z</time></trkpt><trkpt lat="44.5109617" lon="9.1769517"><ele>860.0</ele><time>2026-04-25T10:46:02.997Z</time></trkpt><trkpt lat="44.5110233" lon="9.1768"><ele>860.0</ele><time>2026-04-25T10:46:03.996Z</time></trkpt><trkpt lat="44.511095" lon="9.176665"><ele>860.0</ele><time>2026-04-25T10:46:04.992Z</time></trkpt><trkpt lat="44.511185" lon="9.17656"><ele>860.0</ele><time>2026-04-25T10:46:05.995Z</time></trkpt><trkpt lat="44.5112767" lon="9.1764567"><ele>860.0</ele><time>2026-04-25T10:46:06.993Z</time></trkpt><trkpt lat="44.511375" lon="9.1763617"><ele>860.0</ele><time>2026-04-25T10:46:07.995Z</time></trkpt><trkpt lat="44.51146" lon="9.1762467"><ele>856.0</ele><time>2026-04-25T10:46:08.998Z</time></trkpt><trkpt lat="44.5115117" lon="9.1761167"><ele>852.0</ele><time>2026-04-25T10:46:09.999Z</time></trkpt><trkpt lat="44.5115383" lon="9.1759583"><ele>848.0</ele><time>2026-04-25T10:46:10.993Z</time></trkpt><trkpt lat="44.5115417" lon="9.1757717"><ele>844.0</ele><time>2026-04-25T10:46:11.996Z</time></trkpt><trkpt lat="44.51153" lon="9.175585"><ele>844.0</ele><time>2026-04-25T10:46:12.996Z</time></trkpt><trkpt lat="44.5115183" lon="9.1753967"><ele>844.0</ele><time>2026-04-25T10:46:13.994Z</time></trkpt><trkpt lat="44.511495" lon="9.17521"><ele>844.0</ele><time>2026-04-25T10:46:14.998Z</time></trkpt><trkpt lat="44.5114717" lon="9.1750167"><ele>844.0</ele><time>2026-04-25T10:46:15.995Z</time></trkpt><trkpt lat="44.5114367" lon="9.1748383"><ele>844.0</ele><time>2026-04-25T10:46:16.995Z</time></trkpt><trkpt lat="44.5113983" lon="9.1746683"><ele>844.0</ele><time>2026-04-25T10:46:17.994Z</time></trkpt><trkpt lat="44.51134" lon="9.174505"><ele>844.0</ele><time>2026-04-25T10:46:18.995Z</time></trkpt><trkpt lat="44.5112767" lon="9.1743583"><ele>844.0</ele><time>2026-04-25T10:46:19.995Z</time></trkpt><trkpt lat="44.5111917" lon="9.1742333"><ele>849.6</ele><time>2026-04-25T10:46:20.997Z</time></trkpt><trkpt lat="44.5111017" lon="9.1741233"><ele>855.2</ele><time>2026-04-25T10:46:21.998Z</time></trkpt><trkpt lat="44.5110217" lon="9.1740267"><ele>860.8000000000001</ele><time>2026-04-25T10:46:22.992Z</time></trkpt><trkpt lat="44.5109533" lon="9.1739367"><ele>866.4000000000001</ele><time>2026-04-25T10:46:23.996Z</time></trkpt><trkpt lat="44.510935" lon="9.1738333"><ele>872.0</ele><time>2026-04-25T10:46:24.998Z</time></trkpt><trkpt lat="44.5109783" lon="9.173635"><ele>872.0</ele><time>2026-04-25T10:46:27Z</time></trkpt><trkpt lat="44.5110383" lon="9.17356"><ele>872.0</ele><time>2026-04-25T10:46:27.997Z</time></trkpt><trkpt lat="44.5111233" lon="9.17353"><ele>872.0</ele><time>2026-04-25T10:46:28.994Z</time></trkpt><trkpt lat="44.5112983" lon="9.1735517"><ele>872.0</ele><time>2026-04-25T10:46:29.996Z</time></trkpt><trkpt lat="44.5114683" lon="9.1735717"><ele>869.5</ele><time>2026-04-25T10:46:30.998Z</time></trkpt><trkpt lat="44.5116217" lon="9.1735633"><ele>867.0</ele><time>2026-04-25T10:46:31.997Z</time></trkpt><trkpt lat="44.51177" lon="9.17356"><ele>864.5</ele><time>2026-04-25T10:46:32.995Z</time></trkpt><trkpt lat="44.5119117" lon="9.1735533"><ele>862.0</ele><time>2026-04-25T10:46:33.996Z</time></trkpt><trkpt lat="44.5120417" lon="9.17354"><ele>860.0</ele><time>2026-04-25T10:46:34.997Z</time></trkpt><trkpt lat="44.51217" lon="9.1735083"><ele>858.0</ele><time>2026-04-25T10:46:35.997Z</time></trkpt><trkpt lat="44.5122667" lon="9.17341"><ele>856.0</ele><time>2026-04-25T10:46:36.997Z</time></trkpt><trkpt lat="44.5123467" lon="9.1732917"><ele>854.0</ele><time>2026-04-25T10:46:37.995Z</time></trkpt><trkpt lat="44.5123833" lon="9.1731483"><ele>854.0</ele><time>2026-04-25T10:46:38.996Z</time></trkpt><trkpt lat="44.5124067" lon="9.1729717"><ele>854.0</ele><time>2026-04-25T10:46:39.993Z</time></trkpt><trkpt lat="44.5124083" lon="9.17279"><ele>854.0</ele><time>2026-04-25T10:46:40.99Z</time></trkpt><trkpt lat="44.5124017" lon="9.17262"><ele>854.0</ele><time>2026-04-25T10:46:41.994Z</time></trkpt><trkpt lat="44.5124067" lon="9.17247"><ele>857.4000000000001</ele><time>2026-04-25T10:46:42.995Z</time></trkpt><trkpt lat="44.512435" lon="9.1723467"><ele>860.8000000000001</ele><time>2026-04-25T10:46:43.994Z</time></trkpt><trkpt lat="44.5124633" lon="9.1722367"><ele>864.1999999999999</ele><time>2026-04-25T10:46:44.996Z</time></trkpt><trkpt lat="44.51253" lon="9.1721483"><ele>867.5999999999999</ele><time>2026-04-25T10:46:45.992Z</time></trkpt><trkpt lat="44.512635" lon="9.1721217"><ele>871.0</ele><time>2026-04-25T10:46:46.993Z</time></trkpt><trkpt lat="44.5127583" lon="9.1720967"><ele>871.0</ele><time>2026-04-25T10:46:47.995Z</time></trkpt><trkpt lat="44.5128667" lon="9.172045"><ele>870.9999999999999</ele><time>2026-04-25T10:46:48.994Z</time></trkpt><trkpt lat="44.5129583" lon="9.1719717"><ele>870.9999999999999</ele><time>2026-04-25T10:46:49.995Z</time></trkpt><trkpt lat="44.5130083" lon="9.1718417"><ele>871.0</ele><time>2026-04-25T10:46:50.997Z</time></trkpt><trkpt lat="44.51304" lon="9.1716767"><ele>871.0</ele><time>2026-04-25T10:46:51.991Z</time></trkpt><trkpt lat="44.5130683" lon="9.171475"><ele>864.3333333333333</ele><time>2026-04-25T10:46:52.994Z</time></trkpt><trkpt lat="44.513085" lon="9.1712583"><ele>857.6666666666667</ele><time>2026-04-25T10:46:53.997Z</time></trkpt><trkpt lat="44.5131017" lon="9.1710233"><ele>851.0</ele><time>2026-04-25T10:46:54.998Z</time></trkpt><trkpt lat="44.5131183" lon="9.17079"><ele>854.0</ele><time>2026-04-25T10:46:55.997Z</time></trkpt><trkpt lat="44.513135" lon="9.17055"><ele>857.0</ele><time>2026-04-25T10:46:56.992Z</time></trkpt><trkpt lat="44.5131483" lon="9.1703183"><ele>860.0</ele><time>2026-04-25T10:46:57.995Z</time></trkpt><trkpt lat="44.5131683" lon="9.1700967"><ele>860.0</ele><time>2026-04-25T10:46:58.993Z</time></trkpt><trkpt lat="44.5131933" lon="9.169885"><ele>860.0</ele><time>2026-04-25T10:46:59.998Z</time></trkpt><trkpt lat="44.5132133" lon="9.1696767"><ele>860.0</ele><time>2026-04-25T10:47:00.997Z</time></trkpt><trkpt lat="44.5132283" lon="9.169475"><ele>860.0</ele><time>2026-04-25T10:47:01.992Z</time></trkpt><trkpt lat="44.513245" lon="9.1692867"><ele>862.25</ele><time>2026-04-25T10:47:02.995Z</time></trkpt><trkpt lat="44.513265" lon="9.1691167"><ele>864.5</ele><time>2026-04-25T10:47:03.995Z</time></trkpt><trkpt lat="44.513285" lon="9.16895"><ele>866.75</ele><time>2026-04-25T10:47:04.994Z</time></trkpt><trkpt lat="44.5133083" lon="9.1687683"><ele>869.0</ele><time>2026-04-25T10:47:05.997Z</time></trkpt><trkpt lat="44.5133283" lon="9.1685867"><ele>875.0</ele><time>2026-04-25T10:47:06.996Z</time></trkpt><trkpt lat="44.5133483" lon="9.168405"><ele>881.0</ele><time>2026-04-25T10:47:07.995Z</time></trkpt><trkpt lat="44.5136783" lon="9.1673333"><ele>867.6666666666667</ele><time>2026-04-25T10:47:17Z</time></trkpt><trkpt lat="44.5138483" lon="9.1672317"><ele>854.3333333333333</ele><time>2026-04-25T10:47:17.996Z</time></trkpt><trkpt lat="44.513995" lon="9.167255"><ele>841.0</ele><time>2026-04-25T10:47:18.994Z</time></trkpt><trkpt lat="44.5143167" lon="9.1672567"><ele>841.0</ele><time>2026-04-25T10:47:20.997Z</time></trkpt><trkpt lat="44.5144183" lon="9.1673017"><ele>841.0</ele><time>2026-04-25T10:47:21.996Z</time></trkpt><trkpt lat="44.5145083" lon="9.1672883"><ele>841.0</ele><time>2026-04-25T10:47:22.99Z</time></trkpt><trkpt lat="44.5146083" lon="9.1672783"><ele>841.0</ele><time>2026-04-25T10:47:23.993Z</time></trkpt><trkpt lat="44.5146717" lon="9.1672133"><ele>841.0</ele><time>2026-04-25T10:47:24.991Z</time></trkpt><trkpt lat="44.514755" lon="9.167155"><ele>840.8</ele><time>2026-04-25T10:47:25.994Z</time></trkpt><trkpt lat="44.5148767" lon="9.1670967"><ele>840.5999999999999</ele><time>2026-04-25T10:47:26.999Z</time></trkpt><trkpt lat="44.5149617" lon="9.16704"><ele>840.4</ele><time>2026-04-25T10:47:27.994Z</time></trkpt><trkpt lat="44.515065" lon="9.1669883"><ele>840.2</ele><time>2026-04-25T10:47:28.998Z</time></trkpt><trkpt lat="44.51516" lon="9.166925"><ele>840.0</ele><time>2026-04-25T10:47:29.994Z</time></trkpt><trkpt lat="44.51525" lon="9.1668433"><ele>840.0</ele><time>2026-04-25T10:47:30.997Z</time></trkpt><trkpt lat="44.5153383" lon="9.1667633"><ele>840.0</ele><time>2026-04-25T10:47:31.993Z</time></trkpt><trkpt lat="44.5154367" lon="9.16672"><ele>840.0</ele><time>2026-04-25T10:47:33Z</time></trkpt><trkpt lat="44.51554" lon="9.166705"><ele>840.0</ele><time>2026-04-25T10:47:33.995Z</time></trkpt><trkpt lat="44.5156483" lon="9.16672"><ele>840.0</ele><time>2026-04-25T10:47:34.994Z</time></trkpt><trkpt lat="44.5157633" lon="9.16675"><ele>839.0</ele><time>2026-04-25T10:47:35.995Z</time></trkpt><trkpt lat="44.5158833" lon="9.1667867"><ele>838.0</ele><time>2026-04-25T10:47:36.996Z</time></trkpt><trkpt lat="44.516005" lon="9.1668367"><ele>837.0</ele><time>2026-04-25T10:47:37.997Z</time></trkpt><trkpt lat="44.51612" lon="9.1668583"><ele>836.0</ele><time>2026-04-25T10:47:38.993Z</time></trkpt><trkpt lat="44.51623" lon="9.1668633"><ele>836.0</ele><time>2026-04-25T10:47:39.995Z</time></trkpt><trkpt lat="44.5163267" lon="9.1668183"><ele>836.0</ele><time>2026-04-25T10:47:40.993Z</time></trkpt><trkpt lat="44.516405" lon="9.1667133"><ele>836.0</ele><time>2026-04-25T10:47:41.998Z</time></trkpt><trkpt lat="44.5164667" lon="9.16658"><ele>836.0</ele><time>2026-04-25T10:47:42.998Z</time></trkpt><trkpt lat="44.51651" lon="9.1664333"><ele>836.0</ele><time>2026-04-25T10:47:43.994Z</time></trkpt><trkpt lat="44.5165483" lon="9.1662667"><ele>836.0</ele><time>2026-04-25T10:47:45.003Z</time></trkpt><trkpt lat="44.5165933" lon="9.1661"><ele>836.0</ele><time>2026-04-25T10:47:45.995Z</time></trkpt><trkpt lat="44.51664" lon="9.165935"><ele>836.0</ele><time>2026-04-25T10:47:46.998Z</time></trkpt><trkpt lat="44.5166883" lon="9.165775"><ele>836.0</ele><time>2026-04-25T10:47:47.995Z</time></trkpt><trkpt lat="44.5167417" lon="9.16562"><ele>831.25</ele><time>2026-04-25T10:47:48.994Z</time></trkpt><trkpt lat="44.5168083" lon="9.1654733"><ele>826.5</ele><time>2026-04-25T10:47:49.996Z</time></trkpt><trkpt lat="44.5168817" lon="9.1653417"><ele>821.75</ele><time>2026-04-25T10:47:50.996Z</time></trkpt><trkpt lat="44.5169633" lon="9.1652167"><ele>817.0</ele><time>2026-04-25T10:47:51.996Z</time></trkpt><trkpt lat="44.5170417" lon="9.165085"><ele>816.2</ele><time>2026-04-25T10:47:52.998Z</time></trkpt><trkpt lat="44.5171183" lon="9.1649633"><ele>815.4000000000001</ele><time>2026-04-25T10:47:53.994Z</time></trkpt><trkpt lat="44.51718" lon="9.1648617"><ele>814.5999999999999</ele><time>2026-04-25T10:47:54.995Z</time></trkpt><trkpt lat="44.51725" lon="9.164775"><ele>813.8</ele><time>2026-04-25T10:47:55.998Z</time></trkpt><trkpt lat="44.517335" lon="9.1647067"><ele>813.0</ele><time>2026-04-25T10:47:56.997Z</time></trkpt><trkpt lat="44.5174283" lon="9.1646583"><ele>813.0</ele><time>2026-04-25T10:47:57.994Z</time></trkpt><trkpt lat="44.5175217" lon="9.1646233"><ele>813.0</ele><time>2026-04-25T10:47:58.993Z</time></trkpt><trkpt lat="44.5176267" lon="9.1646733"><ele>813.0</ele><time>2026-04-25T10:47:59.995Z</time></trkpt><trkpt lat="44.5177017" lon="9.1647667"><ele>813.0</ele><time>2026-04-25T10:48:01.002Z</time></trkpt><trkpt lat="44.517785" lon="9.1648217"><ele>813.0</ele><time>2026-04-25T10:48:01.996Z</time></trkpt><trkpt lat="44.5178667" lon="9.16485"><ele>816.4</ele><time>2026-04-25T10:48:02.998Z</time></trkpt><trkpt lat="44.51794" lon="9.1648167"><ele>819.8</ele><time>2026-04-25T10:48:03.996Z</time></trkpt><trkpt lat="44.5180133" lon="9.164805"><ele>823.2</ele><time>2026-04-25T10:48:04.995Z</time></trkpt><trkpt lat="44.5181117" lon="9.1646883"><ele>826.6</ele><time>2026-04-25T10:48:07.001Z</time></trkpt><trkpt lat="44.51805" lon="9.1644717"><ele>830.0</ele><time>2026-04-25T10:48:07.999Z</time></trkpt><trkpt lat="44.5180183" lon="9.16431"><ele>830.0</ele><time>2026-04-25T10:48:08.999Z</time></trkpt><trkpt lat="44.5179967" lon="9.1641517"><ele>830.0</ele><time>2026-04-25T10:48:09.995Z</time></trkpt><trkpt lat="44.5179767" lon="9.16401"><ele>830.0</ele><time>2026-04-25T10:48:10.995Z</time></trkpt><trkpt lat="44.5179717" lon="9.1638867"><ele>830.0</ele><time>2026-04-25T10:48:12Z</time></trkpt><trkpt lat="44.5179967" lon="9.16377"><ele>830.0</ele><time>2026-04-25T10:48:12.995Z</time></trkpt><trkpt lat="44.5180317" lon="9.1636683"><ele>829.1666666666667</ele><time>2026-04-25T10:48:13.999Z</time></trkpt><trkpt lat="44.5180717" lon="9.1635667"><ele>828.3333333333334</ele><time>2026-04-25T10:48:14.997Z</time></trkpt><trkpt lat="44.5181" lon="9.163455"><ele>827.5</ele><time>2026-04-25T10:48:15.998Z</time></trkpt><trkpt lat="44.5181133" lon="9.1633317"><ele>826.6666666666667</ele><time>2026-04-25T10:48:16.998Z</time></trkpt><trkpt lat="44.5180867" lon="9.1632117"><ele>825.8333333333334</ele><time>2026-04-25T10:48:17.997Z</time></trkpt><trkpt lat="44.5180667" lon="9.16309"><ele>825.0</ele><time>2026-04-25T10:48:18.994Z</time></trkpt><trkpt lat="44.5180233" lon="9.1629883"><ele>824.5</ele><time>2026-04-25T10:48:19.995Z</time></trkpt><trkpt lat="44.5179683" lon="9.1629083"><ele>824.0</ele><time>2026-04-25T10:48:20.993Z</time></trkpt><trkpt lat="44.5179233" lon="9.1628267"><ele>823.5</ele><time>2026-04-25T10:48:21.999Z</time></trkpt><trkpt lat="44.5178867" lon="9.1627483"><ele>823.0</ele><time>2026-04-25T10:48:22.993Z</time></trkpt><trkpt lat="44.5178367" lon="9.162615"><ele>822.5</ele><time>2026-04-25T10:48:24.997Z</time></trkpt><trkpt lat="44.5178417" lon="9.162455"><ele>822.0</ele><time>2026-04-25T10:48:26.993Z</time></trkpt><trkpt lat="44.51785" lon="9.16236"><ele>819.0</ele><time>2026-04-25T10:48:27.999Z</time></trkpt><trkpt lat="44.51788" lon="9.1622583"><ele>816.0</ele><time>2026-04-25T10:48:28.995Z</time></trkpt><trkpt lat="44.5179317" lon="9.1621533"><ele>813.0</ele><time>2026-04-25T10:48:29.996Z</time></trkpt><trkpt lat="44.5179817" lon="9.16206"><ele>810.0</ele><time>2026-04-25T10:48:30.997Z</time></trkpt><trkpt lat="44.5180367" lon="9.16197"><ele>807.0</ele><time>2026-04-25T10:48:31.995Z</time></trkpt><trkpt lat="44.51809" lon="9.1618933"><ele>804.0</ele><time>2026-04-25T10:48:32.996Z</time></trkpt><trkpt lat="44.51815" lon="9.1618333"><ele>804.0</ele><time>2026-04-25T10:48:33.998Z</time></trkpt><trkpt lat="44.5182283" lon="9.161805"><ele>804.0</ele><time>2026-04-25T10:48:34.993Z</time></trkpt><trkpt lat="44.5183117" lon="9.1617833"><ele>804.0</ele><time>2026-04-25T10:48:35.993Z</time></trkpt><trkpt lat="44.5184033" lon="9.1618"><ele>804.0</ele><time>2026-04-25T10:48:36.994Z</time></trkpt><trkpt lat="44.5184967" lon="9.161825"><ele>804.0</ele><time>2026-04-25T10:48:37.994Z</time></trkpt><trkpt lat="44.518595" lon="9.1618567"><ele>804.0</ele><time>2026-04-25T10:48:38.999Z</time></trkpt><trkpt lat="44.5186917" lon="9.16188"><ele>804.0</ele><time>2026-04-25T10:48:39.996Z</time></trkpt><trkpt lat="44.5188" lon="9.1619067"><ele>804.0</ele><time>2026-04-25T10:48:41Z</time></trkpt><trkpt lat="44.5189033" lon="9.1619367"><ele>804.0</ele><time>2026-04-25T10:48:41.997Z</time></trkpt><trkpt lat="44.5189983" lon="9.1619583"><ele>804.0</ele><time>2026-04-25T10:48:42.996Z</time></trkpt><trkpt lat="44.5190917" lon="9.1620017"><ele>801.8000000000001</ele><time>2026-04-25T10:48:43.998Z</time></trkpt><trkpt lat="44.5191817" lon="9.1620467"><ele>799.6</ele><time>2026-04-25T10:48:44.996Z</time></trkpt><trkpt lat="44.519275" lon="9.1620917"><ele>797.4</ele><time>2026-04-25T10:48:45.995Z</time></trkpt><trkpt lat="44.5193617" lon="9.162135"><ele>795.2</ele><time>2026-04-25T10:48:46.996Z</time></trkpt><trkpt lat="44.51945" lon="9.1621817"><ele>793.0</ele><time>2026-04-25T10:48:48.002Z</time></trkpt><trkpt lat="44.5195383" lon="9.162225"><ele>791.2</ele><time>2026-04-25T10:48:48.993Z</time></trkpt><trkpt lat="44.5196217" lon="9.162245"><ele>789.4</ele><time>2026-04-25T10:48:49.996Z</time></trkpt><trkpt lat="44.5197033" lon="9.162245"><ele>787.6</ele><time>2026-04-25T10:48:50.994Z</time></trkpt><trkpt lat="44.5197933" lon="9.162225"><ele>785.8000000000001</ele><time>2026-04-25T10:48:51.996Z</time></trkpt><trkpt lat="44.51989" lon="9.162175"><ele>784.0</ele><time>2026-04-25T10:48:52.995Z</time></trkpt><trkpt lat="44.5199817" lon="9.162145"><ele>783.9999999999999</ele><time>2026-04-25T10:48:53.993Z</time></trkpt><trkpt lat="44.52007" lon="9.1621933"><ele>784.0</ele><time>2026-04-25T10:48:54.994Z</time></trkpt><trkpt lat="44.5201467" lon="9.1622483"><ele>784.0</ele><time>2026-04-25T10:48:55.993Z</time></trkpt><trkpt lat="44.5202133" lon="9.16231"><ele>784.0</ele><time>2026-04-25T10:48:56.998Z</time></trkpt><trkpt lat="44.5202767" lon="9.1623583"><ele>783.9999999999999</ele><time>2026-04-25T10:48:57.993Z</time></trkpt><trkpt lat="44.5203417" lon="9.1624033"><ele>784.0</ele><time>2026-04-25T10:48:58.995Z</time></trkpt><trkpt lat="44.520405" lon="9.1624417"><ele>784.8333333333333</ele><time>2026-04-25T10:48:59.993Z</time></trkpt><trkpt lat="44.5204783" lon="9.162485"><ele>785.6666666666666</ele><time>2026-04-25T10:49:00.995Z</time></trkpt><trkpt lat="44.52055" lon="9.162525"><ele>786.5</ele><time>2026-04-25T10:49:01.997Z</time></trkpt><trkpt lat="44.520615" lon="9.16254"><ele>787.3333333333333</ele><time>2026-04-25T10:49:02.996Z</time></trkpt><trkpt lat="44.5206783" lon="9.1624733"><ele>788.1666666666666</ele><time>2026-04-25T10:49:03.995Z</time></trkpt><trkpt lat="44.520735" lon="9.1624067"><ele>789.0</ele><time>2026-04-25T10:49:04.995Z</time></trkpt><trkpt lat="44.5207883" lon="9.1623183"><ele>789.0</ele><time>2026-04-25T10:49:05.994Z</time></trkpt><trkpt lat="44.52084" lon="9.1622267"><ele>789.0</ele><time>2026-04-25T10:49:06.996Z</time></trkpt><trkpt lat="44.5208667" lon="9.1621117"><ele>789.0</ele><time>2026-04-25T10:49:07.994Z</time></trkpt><trkpt lat="44.5208867" lon="9.16202"><ele>789.0</ele><time>2026-04-25T10:49:08.995Z</time></trkpt><trkpt lat="44.520935" lon="9.1618717"><ele>789.0</ele><time>2026-04-25T10:49:10.997Z</time></trkpt><trkpt lat="44.5210217" lon="9.1617733"><ele>788.9999999999999</ele><time>2026-04-25T10:49:12.994Z</time></trkpt><trkpt lat="44.521085" lon="9.1617567"><ele>789.0</ele><time>2026-04-25T10:49:13.996Z</time></trkpt><trkpt lat="44.5211417" lon="9.16171"><ele>789.0</ele><time>2026-04-25T10:49:14.996Z</time></trkpt><trkpt lat="44.5211933" lon="9.1616583"><ele>789.0</ele><time>2026-04-25T10:49:15.995Z</time></trkpt><trkpt lat="44.5212467" lon="9.161605"><ele>789.0</ele><time>2026-04-25T10:49:16.995Z</time></trkpt><trkpt lat="44.521285" lon="9.1615333"><ele>788.9999999999999</ele><time>2026-04-25T10:49:17.999Z</time></trkpt><trkpt lat="44.5212933" lon="9.161445"><ele>789.0</ele><time>2026-04-25T10:49:18.997Z</time></trkpt><trkpt lat="44.5212583" lon="9.16136"><ele>789.8000000000001</ele><time>2026-04-25T10:49:19.996Z</time></trkpt><trkpt lat="44.521145" lon="9.1613067"><ele>790.6</ele><time>2026-04-25T10:49:20.997Z</time></trkpt><trkpt lat="44.5210683" lon="9.1612417"><ele>791.4</ele><time>2026-04-25T10:49:21.997Z</time></trkpt><trkpt lat="44.52099" lon="9.16118"><ele>792.2</ele><time>2026-04-25T10:49:22.995Z</time></trkpt><trkpt lat="44.5209167" lon="9.1611283"><ele>793.0</ele><time>2026-04-25T10:49:23.996Z</time></trkpt><trkpt lat="44.52084" lon="9.1610817"><ele>792.9999999999999</ele><time>2026-04-25T10:49:24.995Z</time></trkpt><trkpt lat="44.5207633" lon="9.1610383"><ele>793.0</ele><time>2026-04-25T10:49:26.001Z</time></trkpt><trkpt lat="44.5206983" lon="9.1609767"><ele>793.0</ele><time>2026-04-25T10:49:26.999Z</time></trkpt><trkpt lat="44.52064" lon="9.1609067"><ele>793.0</ele><time>2026-04-25T10:49:27.992Z</time></trkpt><trkpt lat="44.52059" lon="9.1608217"><ele>792.9999999999999</ele><time>2026-04-25T10:49:29.002Z</time></trkpt><trkpt lat="44.5205433" lon="9.1607333"><ele>793.0</ele><time>2026-04-25T10:49:29.996Z</time></trkpt><trkpt lat="44.5205017" lon="9.1606367"><ele>793.0</ele><time>2026-04-25T10:49:30.995Z</time></trkpt><trkpt lat="44.52046" lon="9.1605417"><ele>793.0</ele><time>2026-04-25T10:49:31.996Z</time></trkpt><trkpt lat="44.5204133" lon="9.1604733"><ele>793.0</ele><time>2026-04-25T10:49:32.999Z</time></trkpt><trkpt lat="44.5203783" lon="9.160325"><ele>793.0</ele><time>2026-04-25T10:49:34.996Z</time></trkpt><trkpt lat="44.5204267" lon="9.1602433"><ele>793.0</ele><time>2026-04-25T10:49:35.995Z</time></trkpt><trkpt lat="44.5204833" lon="9.1600983"><ele>793.0000000000001</ele><time>2026-04-25T10:49:37.995Z</time></trkpt><trkpt lat="44.5205233" lon="9.16003"><ele>793.0</ele><time>2026-04-25T10:49:38.998Z</time></trkpt><trkpt lat="44.52056" lon="9.1599483"><ele>793.0</ele><time>2026-04-25T10:49:40.003Z</time></trkpt><trkpt lat="44.52061" lon="9.1598583"><ele>793.0</ele><time>2026-04-25T10:49:40.996Z</time></trkpt><trkpt lat="44.5206617" lon="9.1597767"><ele>793.0</ele><time>2026-04-25T10:49:41.994Z</time></trkpt><trkpt lat="44.5207083" lon="9.159685"><ele>793.0000000000001</ele><time>2026-04-25T10:49:42.994Z</time></trkpt><trkpt lat="44.5207467" lon="9.1596017"><ele>793.0</ele><time>2026-04-25T10:49:43.997Z</time></trkpt><trkpt lat="44.52079" lon="9.1595233"><ele>793.0000000000001</ele><time>2026-04-25T10:49:44.994Z</time></trkpt><trkpt lat="44.5208167" lon="9.1594383"><ele>793.0</ele><time>2026-04-25T10:49:45.995Z</time></trkpt><trkpt lat="44.5208433" lon="9.159325"><ele>793.0</ele><time>2026-04-25T10:49:46.994Z</time></trkpt><trkpt lat="44.5208467" lon="9.1592217"><ele>793.0</ele><time>2026-04-25T10:49:47.993Z</time></trkpt><trkpt lat="44.520845" lon="9.1591283"><ele>793.0</ele><time>2026-04-25T10:49:48.994Z</time></trkpt><trkpt lat="44.5208317" lon="9.15903"><ele>793.0000000000001</ele><time>2026-04-25T10:49:49.995Z</time></trkpt><trkpt lat="44.5208133" lon="9.1589317"><ele>793.0</ele><time>2026-04-25T10:49:50.996Z</time></trkpt><trkpt lat="44.5207683" lon="9.1587717"><ele>792.9999999999999</ele><time>2026-04-25T10:49:52.995Z</time></trkpt><trkpt lat="44.5207083" lon="9.15868"><ele>793.0</ele><time>2026-04-25T10:49:54.998Z</time></trkpt><trkpt lat="44.5206383" lon="9.1586767"><ele>793.0</ele><time>2026-04-25T10:49:56.997Z</time></trkpt><trkpt lat="44.520575" lon="9.1587033"><ele>793.0</ele><time>2026-04-25T10:49:57.997Z</time></trkpt><trkpt lat="44.5205033" lon="9.1587417"><ele>792.9999999999999</ele><time>2026-04-25T10:49:59.992Z</time></trkpt><trkpt lat="44.520445" lon="9.1587783"><ele>793.0</ele><time>2026-04-25T10:50:02.995Z</time></trkpt><trkpt lat="44.520315" lon="9.1588167"><ele>791.0</ele><time>2026-04-25T10:50:40.991Z</time></trkpt><trkpt lat="44.5202383" lon="9.15883"><ele>789.0</ele><time>2026-04-25T10:50:43.998Z</time></trkpt><trkpt lat="44.5201417" lon="9.158805"><ele>787.0</ele><time>2026-04-25T10:50:50.997Z</time></trkpt><trkpt lat="44.5200767" lon="9.1588183"><ele>785.0</ele><time>2026-04-25T10:50:52.998Z</time></trkpt><trkpt lat="44.5199933" lon="9.1588"><ele>783.0</ele><time>2026-04-25T10:50:54.991Z</time></trkpt><trkpt lat="44.5198383" lon="9.1588183"><ele>783.0</ele><time>2026-04-25T10:50:57.001Z</time></trkpt><trkpt lat="44.5197533" lon="9.1588517"><ele>783.0</ele><time>2026-04-25T10:50:57.997Z</time></trkpt><trkpt lat="44.5196867" lon="9.15886"><ele>783.0</ele><time>2026-04-25T10:50:58.992Z</time></trkpt><trkpt lat="44.5195683" lon="9.1588733"><ele>783.0</ele><time>2026-04-25T10:51:00.995Z</time></trkpt><trkpt lat="44.5194733" lon="9.158785"><ele>783.0</ele><time>2026-04-25T10:51:02.996Z</time></trkpt><trkpt lat="44.51937" lon="9.1587883"><ele>781.4</ele><time>2026-04-25T10:51:04.995Z</time></trkpt><trkpt lat="44.5193" lon="9.1588017"><ele>779.8</ele><time>2026-04-25T10:51:06.997Z</time></trkpt><trkpt lat="44.5192317" lon="9.1588083"><ele>778.2</ele><time>2026-04-25T10:51:08.997Z</time></trkpt><trkpt lat="44.519115" lon="9.1588217"><ele>776.6</ele><time>2026-04-25T10:51:10.994Z</time></trkpt><trkpt lat="44.5190083" lon="9.1587833"><ele>775.0</ele><time>2026-04-25T10:51:12.997Z</time></trkpt><trkpt lat="44.5189267" lon="9.15872"><ele>774.9999999999999</ele><time>2026-04-25T10:51:15Z</time></trkpt><trkpt lat="44.5188517" lon="9.1586867"><ele>775.0</ele><time>2026-04-25T10:51:16.994Z</time></trkpt><trkpt lat="44.518785" lon="9.1586783"><ele>775.0</ele><time>2026-04-25T10:51:18.995Z</time></trkpt><trkpt lat="44.518715" lon="9.15871"><ele>775.0</ele><time>2026-04-25T10:51:21.994Z</time></trkpt><trkpt lat="44.518665" lon="9.1586067"><ele>774.9999999999999</ele><time>2026-04-25T10:51:59.994Z</time></trkpt><trkpt lat="44.5185633" lon="9.1585667"><ele>775.0</ele><time>2026-04-25T10:52:01.996Z</time></trkpt><trkpt lat="44.518485" lon="9.1584367"><ele>773.4999999999999</ele><time>2026-04-25T10:52:03.993Z</time></trkpt><trkpt lat="44.5184083" lon="9.1583017"><ele>772.0</ele><time>2026-04-25T10:52:05.995Z</time></trkpt><trkpt lat="44.5183717" lon="9.15822"><ele>770.5</ele><time>2026-04-25T10:52:06.992Z</time></trkpt><trkpt lat="44.5183717" lon="9.1580817"><ele>769.0</ele><time>2026-04-25T10:52:07.992Z</time></trkpt><trkpt lat="44.51837" lon="9.1579717"><ele>767.5</ele><time>2026-04-25T10:52:08.994Z</time></trkpt><trkpt lat="44.5183817" lon="9.15787"><ele>766.0</ele><time>2026-04-25T10:52:09.998Z</time></trkpt><trkpt lat="44.51841" lon="9.1577"><ele>764.5</ele><time>2026-04-25T10:52:11.998Z</time></trkpt><trkpt lat="44.518455" lon="9.1576167"><ele>763.0</ele><time>2026-04-25T10:52:12.992Z</time></trkpt><trkpt lat="44.5185067" lon="9.157525"><ele>761.5</ele><time>2026-04-25T10:52:13.998Z</time></trkpt><trkpt lat="44.51855" lon="9.157435"><ele>760.0</ele><time>2026-04-25T10:52:14.995Z</time></trkpt><trkpt lat="44.5185983" lon="9.157355"><ele>758.5</ele><time>2026-04-25T10:52:15.997Z</time></trkpt><trkpt lat="44.51865" lon="9.1572733"><ele>757.0</ele><time>2026-04-25T10:52:16.994Z</time></trkpt><trkpt lat="44.51871" lon="9.1572017"><ele>758.0</ele><time>2026-04-25T10:52:17.994Z</time></trkpt><trkpt lat="44.5187783" lon="9.1571417"><ele>759.0</ele><time>2026-04-25T10:52:18.996Z</time></trkpt><trkpt lat="44.5188367" lon="9.1570967"><ele>760.0</ele><time>2026-04-25T10:52:19.996Z</time></trkpt><trkpt lat="44.5189167" lon="9.1570283"><ele>761.0</ele><time>2026-04-25T10:52:21.994Z</time></trkpt><trkpt lat="44.5189733" lon="9.1569883"><ele>762.0</ele><time>2026-04-25T10:52:23.992Z</time></trkpt><trkpt lat="44.5190517" lon="9.1569867"><ele>763.0</ele><time>2026-04-25T10:52:26.995Z</time></trkpt><trkpt lat="44.5189933" lon="9.156895"><ele>763.0</ele><time>2026-04-25T10:52:39.993Z</time></trkpt><trkpt lat="44.5189417" lon="9.1569583"><ele>763.0</ele><time>2026-04-25T10:52:40.997Z</time></trkpt><trkpt lat="44.518885" lon="9.1570267"><ele>763.0</ele><time>2026-04-25T10:52:41.993Z</time></trkpt><trkpt lat="44.5188167" lon="9.157095"><ele>763.0</ele><time>2026-04-25T10:52:42.996Z</time></trkpt><trkpt lat="44.518715" lon="9.1572"><ele>763.0</ele><time>2026-04-25T10:52:43.994Z</time></trkpt><trkpt lat="44.5186433" lon="9.1573067"><ele>761.8</ele><time>2026-04-25T10:52:44.996Z</time></trkpt><trkpt lat="44.518575" lon="9.15742"><ele>760.5999999999999</ele><time>2026-04-25T10:52:45.992Z</time></trkpt><trkpt lat="44.51852" lon="9.1575367"><ele>759.4000000000001</ele><time>2026-04-25T10:52:46.996Z</time></trkpt><trkpt lat="44.518465" lon="9.1576667"><ele>758.2</ele><time>2026-04-25T10:52:47.993Z</time></trkpt><trkpt lat="44.5184283" lon="9.1577783"><ele>757.0</ele><time>2026-04-25T10:52:48.995Z</time></trkpt><trkpt lat="44.5183933" lon="9.1578833"><ele>757.0</ele><time>2026-04-25T10:52:49.994Z</time></trkpt><trkpt lat="44.5183617" lon="9.1579883"><ele>757.0</ele><time>2026-04-25T10:52:50.997Z</time></trkpt><trkpt lat="44.5183467" lon="9.15809"><ele>757.0</ele><time>2026-04-25T10:52:51.995Z</time></trkpt><trkpt lat="44.5183417" lon="9.158185"><ele>757.0</ele><time>2026-04-25T10:52:52.992Z</time></trkpt><trkpt lat="44.51837" lon="9.1582683"><ele>757.0</ele><time>2026-04-25T10:52:53.993Z</time></trkpt><trkpt lat="44.5183917" lon="9.158355"><ele>757.0</ele><time>2026-04-25T10:52:54.993Z</time></trkpt><trkpt lat="44.5184267" lon="9.1584417"><ele>757.0</ele><time>2026-04-25T10:52:55.996Z</time></trkpt><trkpt lat="44.5184867" lon="9.1585083"><ele>758.5</ele><time>2026-04-25T10:52:56.997Z</time></trkpt><trkpt lat="44.5185517" lon="9.1585667"><ele>760.0</ele><time>2026-04-25T10:52:57.994Z</time></trkpt><trkpt lat="44.5186217" lon="9.1586083"><ele>761.5</ele><time>2026-04-25T10:52:58.996Z</time></trkpt><trkpt lat="44.5186983" lon="9.1586467"><ele>763.0</ele><time>2026-04-25T10:52:59.992Z</time></trkpt><trkpt lat="44.5187667" lon="9.1586867"><ele>764.5</ele><time>2026-04-25T10:53:00.997Z</time></trkpt><trkpt lat="44.51888" lon="9.1587783"><ele>766.0</ele><time>2026-04-25T10:53:02.995Z</time></trkpt><trkpt lat="44.5189467" lon="9.158805"><ele>767.0</ele><time>2026-04-25T10:53:03.999Z</time></trkpt><trkpt lat="44.51901" lon="9.1588267"><ele>768.0</ele><time>2026-04-25T10:53:04.998Z</time></trkpt><trkpt lat="44.5190717" lon="9.1588483"><ele>769.0</ele><time>2026-04-25T10:53:05.998Z</time></trkpt><trkpt lat="44.51917" lon="9.1588717"><ele>770.0</ele><time>2026-04-25T10:53:07.995Z</time></trkpt><trkpt lat="44.51922" lon="9.1589383"><ele>770.9999999999999</ele><time>2026-04-25T10:53:10.001Z</time></trkpt><trkpt lat="44.51924" lon="9.159045"><ele>772.0</ele><time>2026-04-25T10:53:12.996Z</time></trkpt><trkpt lat="44.51921" lon="9.159145"><ele>772.0</ele><time>2026-04-25T10:53:15.996Z</time></trkpt><trkpt lat="44.51911" lon="9.159185"><ele>772.0</ele><time>2026-04-25T10:53:25.993Z</time></trkpt></trkseg><trkseg><trkpt lat="44.5191233" lon="9.1590417"><ele>772.4999999999999</ele><time>2026-04-25T11:39:40.996Z</time></trkpt><trkpt lat="44.51918" lon="9.15894"><ele>773.0</ele><time>2026-04-25T11:39:43.992Z</time></trkpt><trkpt lat="44.5192317" lon="9.1588383"><ele>773.5</ele><time>2026-04-25T11:39:48.999Z</time></trkpt><trkpt lat="44.519165" lon="9.1587767"><ele>774.0</ele><time>2026-04-25T11:39:54.994Z</time></trkpt><trkpt lat="44.5190967" lon="9.15877"><ele>774.4999999999999</ele><time>2026-04-25T11:39:56.996Z</time></trkpt><trkpt lat="44.5190133" lon="9.158755"><ele>775.0</ele><time>2026-04-25T11:39:57.992Z</time></trkpt><trkpt lat="44.5189433" lon="9.1587383"><ele>774.9999999999999</ele><time>2026-04-25T11:39:59Z</time></trkpt><trkpt lat="44.518845" lon="9.1587"><ele>775.0</ele><time>2026-04-25T11:39:59.993Z</time></trkpt><trkpt lat="44.5187683" lon="9.15866"><ele>775.0</ele><time>2026-04-25T11:40:00.995Z</time></trkpt><trkpt lat="44.5186967" lon="9.1586083"><ele>775.0</ele><time>2026-04-25T11:40:01.997Z</time></trkpt><trkpt lat="44.518625" lon="9.1585567"><ele>774.9999999999999</ele><time>2026-04-25T11:40:02.994Z</time></trkpt><trkpt lat="44.5185633" lon="9.1584933"><ele>775.0</ele><time>2026-04-25T11:40:03.994Z</time></trkpt><trkpt lat="44.518515" lon="9.1584133"><ele>773.4999999999999</ele><time>2026-04-25T11:40:04.994Z</time></trkpt><trkpt lat="44.5184783" lon="9.1583233"><ele>772.0</ele><time>2026-04-25T11:40:05.997Z</time></trkpt><trkpt lat="44.51841" lon="9.1582133"><ele>770.5</ele><time>2026-04-25T11:40:06.996Z</time></trkpt><trkpt lat="44.51837" lon="9.158095"><ele>769.0</ele><time>2026-04-25T11:40:07.997Z</time></trkpt><trkpt lat="44.5183417" lon="9.15798"><ele>767.5</ele><time>2026-04-25T11:40:08.994Z</time></trkpt><trkpt lat="44.5183383" lon="9.1578867"><ele>766.0</ele><time>2026-04-25T11:40:09.992Z</time></trkpt><trkpt lat="44.51839" lon="9.1577533"><ele>765.4</ele><time>2026-04-25T11:40:10.996Z</time></trkpt><trkpt lat="44.51844" lon="9.157625"><ele>764.8</ele><time>2026-04-25T11:40:11.993Z</time></trkpt><trkpt lat="44.5184883" lon="9.1574983"><ele>764.1999999999999</ele><time>2026-04-25T11:40:13.002Z</time></trkpt><trkpt lat="44.5185567" lon="9.1573833"><ele>763.5999999999999</ele><time>2026-04-25T11:40:13.995Z</time></trkpt><trkpt lat="44.51865" lon="9.1572533"><ele>763.0</ele><time>2026-04-25T11:40:14.996Z</time></trkpt><trkpt lat="44.5187367" lon="9.1571517"><ele>763.0</ele><time>2026-04-25T11:40:15.995Z</time></trkpt><trkpt lat="44.5188" lon="9.1570617"><ele>763.0</ele><time>2026-04-25T11:40:16.999Z</time></trkpt><trkpt lat="44.5188717" lon="9.156975"><ele>763.0</ele><time>2026-04-25T11:40:18.002Z</time></trkpt><trkpt lat="44.51893" lon="9.1568917"><ele>763.0</ele><time>2026-04-25T11:40:18.996Z</time></trkpt><trkpt lat="44.51901" lon="9.156835"><ele>763.0</ele><time>2026-04-25T11:40:19.992Z</time></trkpt><trkpt lat="44.5190383" lon="9.1567367"><ele>763.0</ele><time>2026-04-25T11:40:20.997Z</time></trkpt><trkpt lat="44.5190467" lon="9.1566317"><ele>765.0</ele><time>2026-04-25T11:40:21.997Z</time></trkpt><trkpt lat="44.5190283" lon="9.1565033"><ele>767.0</ele><time>2026-04-25T11:40:22.996Z</time></trkpt><trkpt lat="44.519" lon="9.15639"><ele>769.0</ele><time>2026-04-25T11:40:23.993Z</time></trkpt><trkpt lat="44.51895" lon="9.1562567"><ele>771.0</ele><time>2026-04-25T11:40:24.996Z</time></trkpt><trkpt lat="44.5188933" lon="9.1561467"><ele>773.0</ele><time>2026-04-25T11:40:25.998Z</time></trkpt><trkpt lat="44.5188267" lon="9.1560233"><ele>773.0</ele><time>2026-04-25T11:40:26.994Z</time></trkpt><trkpt lat="44.5187767" lon="9.15591"><ele>773.0</ele><time>2026-04-25T11:40:27.996Z</time></trkpt><trkpt lat="44.5187017" lon="9.15581"><ele>773.0</ele><time>2026-04-25T11:40:28.997Z</time></trkpt><trkpt lat="44.5185967" lon="9.1557417"><ele>773.0</ele><time>2026-04-25T11:40:29.995Z</time></trkpt><trkpt lat="44.5184333" lon="9.1557467"><ele>772.0</ele><time>2026-04-25T11:40:30.999Z</time></trkpt><trkpt lat="44.518325" lon="9.1557233"><ele>771.0</ele><time>2026-04-25T11:40:31.996Z</time></trkpt><trkpt lat="44.5182033" lon="9.155835"><ele>770.0</ele><time>2026-04-25T11:40:33.002Z</time></trkpt><trkpt lat="44.5180917" lon="9.1559533"><ele>769.0</ele><time>2026-04-25T11:40:33.994Z</time></trkpt><trkpt lat="44.5179833" lon="9.1561067"><ele>770.75</ele><time>2026-04-25T11:40:34.996Z</time></trkpt><trkpt lat="44.5178733" lon="9.1562317"><ele>772.5</ele><time>2026-04-25T11:40:35.996Z</time></trkpt><trkpt lat="44.5177567" lon="9.1563183"><ele>774.25</ele><time>2026-04-25T11:40:36.997Z</time></trkpt><trkpt lat="44.5176517" lon="9.1564167"><ele>776.0</ele><time>2026-04-25T11:40:37.998Z</time></trkpt><trkpt lat="44.5175483" lon="9.1564917"><ele>774.0</ele><time>2026-04-25T11:40:38.999Z</time></trkpt><trkpt lat="44.51744" lon="9.1565533"><ele>772.0</ele><time>2026-04-25T11:40:39.996Z</time></trkpt><trkpt lat="44.5173383" lon="9.1565817"><ele>770.0</ele><time>2026-04-25T11:40:41Z</time></trkpt><trkpt lat="44.5172383" lon="9.15659"><ele>768.0</ele><time>2026-04-25T11:40:42.001Z</time></trkpt><trkpt lat="44.5171517" lon="9.1565533"><ele>766.0</ele><time>2026-04-25T11:40:42.999Z</time></trkpt><trkpt lat="44.51704" lon="9.156505"><ele>766.0</ele><time>2026-04-25T11:40:43.995Z</time></trkpt><trkpt lat="44.5169467" lon="9.15644"><ele>766.0</ele><time>2026-04-25T11:40:45Z</time></trkpt><trkpt lat="44.5168533" lon="9.1563533"><ele>766.0</ele><time>2026-04-25T11:40:45.997Z</time></trkpt><trkpt lat="44.516775" lon="9.1562567"><ele>766.0</ele><time>2026-04-25T11:40:46.998Z</time></trkpt><trkpt lat="44.5167083" lon="9.1561433"><ele>766.0</ele><time>2026-04-25T11:40:47.996Z</time></trkpt><trkpt lat="44.5166383" lon="9.1560233"><ele>766.0</ele><time>2026-04-25T11:40:48.995Z</time></trkpt><trkpt lat="44.516575" lon="9.1559033"><ele>766.0</ele><time>2026-04-25T11:40:49.995Z</time></trkpt><trkpt lat="44.516485" lon="9.1558"><ele>766.0</ele><time>2026-04-25T11:40:51.003Z</time></trkpt><trkpt lat="44.516375" lon="9.15574"><ele>766.0</ele><time>2026-04-25T11:40:52Z</time></trkpt><trkpt lat="44.516265" lon="9.1556867"><ele>766.25</ele><time>2026-04-25T11:40:52.995Z</time></trkpt><trkpt lat="44.51617" lon="9.155625"><ele>766.5</ele><time>2026-04-25T11:40:54Z</time></trkpt><trkpt lat="44.5160733" lon="9.1555483"><ele>766.75</ele><time>2026-04-25T11:40:54.997Z</time></trkpt><trkpt lat="44.5159817" lon="9.1554517"><ele>767.0</ele><time>2026-04-25T11:40:55.993Z</time></trkpt><trkpt lat="44.51589" lon="9.1553433"><ele>767.0</ele><time>2026-04-25T11:40:57Z</time></trkpt><trkpt lat="44.5158033" lon="9.15523"><ele>767.0</ele><time>2026-04-25T11:40:57.998Z</time></trkpt><trkpt lat="44.5157133" lon="9.1551217"><ele>767.0</ele><time>2026-04-25T11:40:58.998Z</time></trkpt><trkpt lat="44.5156167" lon="9.1550233"><ele>767.0</ele><time>2026-04-25T11:41:00.002Z</time></trkpt><trkpt lat="44.515525" lon="9.1549317"><ele>768.0</ele><time>2026-04-25T11:41:00.999Z</time></trkpt><trkpt lat="44.5154333" lon="9.154845"><ele>769.0</ele><time>2026-04-25T11:41:02Z</time></trkpt><trkpt lat="44.5153383" lon="9.1547633"><ele>770.0</ele><time>2026-04-25T11:41:03.004Z</time></trkpt><trkpt lat="44.5152333" lon="9.154685"><ele>771.0</ele><time>2026-04-25T11:41:03.999Z</time></trkpt><trkpt lat="44.5151217" lon="9.1546067"><ele>771.0</ele><time>2026-04-25T11:41:04.995Z</time></trkpt><trkpt lat="44.5149983" lon="9.15453"><ele>771.0</ele><time>2026-04-25T11:41:05.997Z</time></trkpt><trkpt lat="44.5148767" lon="9.1544517"><ele>771.0</ele><time>2026-04-25T11:41:07Z</time></trkpt><trkpt lat="44.51475" lon="9.1543733"><ele>771.0</ele><time>2026-04-25T11:41:07.997Z</time></trkpt><trkpt lat="44.514625" lon="9.154295"><ele>770.5</ele><time>2026-04-25T11:41:08.997Z</time></trkpt><trkpt lat="44.5144983" lon="9.154215"><ele>770.0</ele><time>2026-04-25T11:41:10.001Z</time></trkpt><trkpt lat="44.51437" lon="9.1541317"><ele>769.5</ele><time>2026-04-25T11:41:10.996Z</time></trkpt><trkpt lat="44.51425" lon="9.1540533"><ele>769.0</ele><time>2026-04-25T11:41:11.995Z</time></trkpt><trkpt lat="44.5141383" lon="9.1539833"><ele>772.0</ele><time>2026-04-25T11:41:13Z</time></trkpt><trkpt lat="44.5140333" lon="9.1539283"><ele>775.0</ele><time>2026-04-25T11:41:13.997Z</time></trkpt><trkpt lat="44.5139367" lon="9.1538933"><ele>778.0</ele><time>2026-04-25T11:41:15.001Z</time></trkpt><trkpt lat="44.5138367" lon="9.153865"><ele>781.0</ele><time>2026-04-25T11:41:15.999Z</time></trkpt><trkpt lat="44.51373" lon="9.1539067"><ele>784.0</ele><time>2026-04-25T11:41:16.994Z</time></trkpt><trkpt lat="44.513645" lon="9.1539667"><ele>784.0</ele><time>2026-04-25T11:41:17.996Z</time></trkpt><trkpt lat="44.5135583" lon="9.154005"><ele>784.0</ele><time>2026-04-25T11:41:18.999Z</time></trkpt><trkpt lat="44.5134717" lon="9.1540267"><ele>784.0</ele><time>2026-04-25T11:41:19.996Z</time></trkpt><trkpt lat="44.5133717" lon="9.1540267"><ele>784.0</ele><time>2026-04-25T11:41:21.002Z</time></trkpt><trkpt lat="44.51327" lon="9.1540283"><ele>784.0</ele><time>2026-04-25T11:41:21.996Z</time></trkpt><trkpt lat="44.5131667" lon="9.1540367"><ele>782.1666666666666</ele><time>2026-04-25T11:41:22.995Z</time></trkpt><trkpt lat="44.5130683" lon="9.1540417"><ele>780.3333333333333</ele><time>2026-04-25T11:41:23.997Z</time></trkpt><trkpt lat="44.5129733" lon="9.1540467"><ele>778.5</ele><time>2026-04-25T11:41:24.998Z</time></trkpt><trkpt lat="44.5128833" lon="9.1540483"><ele>776.6666666666667</ele><time>2026-04-25T11:41:25.999Z</time></trkpt><trkpt lat="44.5128017" lon="9.1540417"><ele>774.8333333333334</ele><time>2026-04-25T11:41:26.995Z</time></trkpt><trkpt lat="44.5127217" lon="9.1540217"><ele>773.0</ele><time>2026-04-25T11:41:28Z</time></trkpt><trkpt lat="44.5126417" lon="9.153995"><ele>773.0</ele><time>2026-04-25T11:41:28.995Z</time></trkpt><trkpt lat="44.51256" lon="9.1539517"><ele>773.0</ele><time>2026-04-25T11:41:29.997Z</time></trkpt><trkpt lat="44.5124817" lon="9.1538883"><ele>773.0</ele><time>2026-04-25T11:41:30.998Z</time></trkpt><trkpt lat="44.5124033" lon="9.1538133"><ele>773.0</ele><time>2026-04-25T11:41:31.999Z</time></trkpt><trkpt lat="44.51233" lon="9.153705"><ele>773.0</ele><time>2026-04-25T11:41:32.995Z</time></trkpt><trkpt lat="44.5122683" lon="9.1535833"><ele>773.0</ele><time>2026-04-25T11:41:33.995Z</time></trkpt><trkpt lat="44.5122133" lon="9.1534467"><ele>773.0</ele><time>2026-04-25T11:41:34.995Z</time></trkpt><trkpt lat="44.51216" lon="9.1532933"><ele>773.0</ele><time>2026-04-25T11:41:35.994Z</time></trkpt><trkpt lat="44.5121183" lon="9.1531317"><ele>773.0</ele><time>2026-04-25T11:41:36.994Z</time></trkpt><trkpt lat="44.5120817" lon="9.1529733"><ele>772.0</ele><time>2026-04-25T11:41:37.998Z</time></trkpt><trkpt lat="44.51205" lon="9.1528233"><ele>771.0</ele><time>2026-04-25T11:41:38.998Z</time></trkpt><trkpt lat="44.51201" lon="9.152685"><ele>770.0</ele><time>2026-04-25T11:41:39.999Z</time></trkpt><trkpt lat="44.5119667" lon="9.1525467"><ele>769.0</ele><time>2026-04-25T11:41:40.996Z</time></trkpt><trkpt lat="44.51192" lon="9.1524"><ele>768.0</ele><time>2026-04-25T11:41:41.993Z</time></trkpt><trkpt lat="44.5118683" lon="9.1522483"><ele>768.0</ele><time>2026-04-25T11:41:42.994Z</time></trkpt><trkpt lat="44.5118117" lon="9.152095"><ele>768.0</ele><time>2026-04-25T11:41:43.993Z</time></trkpt><trkpt lat="44.5117433" lon="9.1519417"><ele>768.0</ele><time>2026-04-25T11:41:45Z</time></trkpt><trkpt lat="44.51167" lon="9.151785"><ele>768.0</ele><time>2026-04-25T11:41:45.997Z</time></trkpt><trkpt lat="44.511585" lon="9.1516433"><ele>773.0</ele><time>2026-04-25T11:41:47Z</time></trkpt><trkpt lat="44.51151" lon="9.1514917"><ele>778.0</ele><time>2026-04-25T11:41:47.995Z</time></trkpt><trkpt lat="44.511435" lon="9.1513533"><ele>783.0</ele><time>2026-04-25T11:41:48.995Z</time></trkpt><trkpt lat="44.5113717" lon="9.1512283"><ele>788.0</ele><time>2026-04-25T11:41:49.993Z</time></trkpt><trkpt lat="44.5112983" lon="9.1511283"><ele>785.5999999999999</ele><time>2026-04-25T11:41:50.997Z</time></trkpt><trkpt lat="44.5112167" lon="9.1510567"><ele>783.1999999999999</ele><time>2026-04-25T11:41:51.993Z</time></trkpt><trkpt lat="44.51112" lon="9.1510233"><ele>780.8</ele><time>2026-04-25T11:41:52.998Z</time></trkpt><trkpt lat="44.511005" lon="9.1509983"><ele>778.4</ele><time>2026-04-25T11:41:53.995Z</time></trkpt><trkpt lat="44.510885" lon="9.1509967"><ele>776.0</ele><time>2026-04-25T11:41:54.996Z</time></trkpt><trkpt lat="44.5107717" lon="9.1509867"><ele>776.0</ele><time>2026-04-25T11:41:55.994Z</time></trkpt><trkpt lat="44.51065" lon="9.15101"><ele>776.0</ele><time>2026-04-25T11:41:56.997Z</time></trkpt><trkpt lat="44.5105367" lon="9.1510317"><ele>776.0</ele><time>2026-04-25T11:41:57.994Z</time></trkpt><trkpt lat="44.5104283" lon="9.1510367"><ele>776.0</ele><time>2026-04-25T11:41:58.991Z</time></trkpt><trkpt lat="44.510325" lon="9.15104"><ele>776.0</ele><time>2026-04-25T11:41:59.996Z</time></trkpt><trkpt lat="44.510215" lon="9.1510233"><ele>775.0</ele><time>2026-04-25T11:42:00.997Z</time></trkpt><trkpt lat="44.5101067" lon="9.150985"><ele>774.0</ele><time>2026-04-25T11:42:01.994Z</time></trkpt><trkpt lat="44.5100183" lon="9.1509317"><ele>773.0</ele><time>2026-04-25T11:42:02.998Z</time></trkpt><trkpt lat="44.5099333" lon="9.1508683"><ele>772.0</ele><time>2026-04-25T11:42:03.995Z</time></trkpt><trkpt lat="44.5098533" lon="9.150785"><ele>771.0</ele><time>2026-04-25T11:42:04.995Z</time></trkpt><trkpt lat="44.509775" lon="9.1506867"><ele>770.0</ele><time>2026-04-25T11:42:05.996Z</time></trkpt><trkpt lat="44.509695" lon="9.15057"><ele>769.0</ele><time>2026-04-25T11:42:06.997Z</time></trkpt><trkpt lat="44.5096217" lon="9.150445"><ele>768.0</ele><time>2026-04-25T11:42:07.995Z</time></trkpt><trkpt lat="44.5095433" lon="9.1503217"><ele>767.0</ele><time>2026-04-25T11:42:08.997Z</time></trkpt><trkpt lat="44.509465" lon="9.1502017"><ele>767.0</ele><time>2026-04-25T11:42:09.996Z</time></trkpt><trkpt lat="44.5093867" lon="9.150075"><ele>767.0</ele><time>2026-04-25T11:42:10.996Z</time></trkpt><trkpt lat="44.50931" lon="9.1499517"><ele>767.0</ele><time>2026-04-25T11:42:11.996Z</time></trkpt><trkpt lat="44.5092333" lon="9.14982"><ele>767.0</ele><time>2026-04-25T11:42:12.994Z</time></trkpt><trkpt lat="44.509155" lon="9.149695"><ele>768.75</ele><time>2026-04-25T11:42:13.993Z</time></trkpt><trkpt lat="44.50907" lon="9.14957"><ele>770.5</ele><time>2026-04-25T11:42:14.995Z</time></trkpt><trkpt lat="44.508985" lon="9.1494433"><ele>772.25</ele><time>2026-04-25T11:42:15.994Z</time></trkpt><trkpt lat="44.5088983" lon="9.1493167"><ele>774.0</ele><time>2026-04-25T11:42:16.997Z</time></trkpt><trkpt lat="44.5087933" lon="9.149215"><ele>775.25</ele><time>2026-04-25T11:42:17.995Z</time></trkpt><trkpt lat="44.5086967" lon="9.149105"><ele>776.5</ele><time>2026-04-25T11:42:18.998Z</time></trkpt><trkpt lat="44.5085983" lon="9.1490033"><ele>777.75</ele><time>2026-04-25T11:42:19.996Z</time></trkpt><trkpt lat="44.5084983" lon="9.1489117"><ele>779.0</ele><time>2026-04-25T11:42:20.995Z</time></trkpt><trkpt lat="44.5084017" lon="9.148825"><ele>779.0</ele><time>2026-04-25T11:42:21.995Z</time></trkpt><trkpt lat="44.5082967" lon="9.14875"><ele>779.0</ele><time>2026-04-25T11:42:22.995Z</time></trkpt><trkpt lat="44.5081917" lon="9.14868"><ele>779.0</ele><time>2026-04-25T11:42:23.995Z</time></trkpt><trkpt lat="44.508085" lon="9.148625"><ele>779.0</ele><time>2026-04-25T11:42:24.996Z</time></trkpt><trkpt lat="44.5079733" lon="9.1485933"><ele>778.5</ele><time>2026-04-25T11:42:25.994Z</time></trkpt><trkpt lat="44.5078583" lon="9.1485767"><ele>778.0</ele><time>2026-04-25T11:42:26.997Z</time></trkpt><trkpt lat="44.507745" lon="9.1485933"><ele>777.5</ele><time>2026-04-25T11:42:27.996Z</time></trkpt><trkpt lat="44.5076283" lon="9.1486417"><ele>777.0</ele><time>2026-04-25T11:42:29.001Z</time></trkpt><trkpt lat="44.5075083" lon="9.1487033"><ele>777.0</ele><time>2026-04-25T11:42:29.994Z</time></trkpt><trkpt lat="44.5074" lon="9.1487867"><ele>777.0</ele><time>2026-04-25T11:42:30.997Z</time></trkpt><trkpt lat="44.5073" lon="9.14886"><ele>777.0</ele><time>2026-04-25T11:42:31.998Z</time></trkpt><trkpt lat="44.5072033" lon="9.1489267"><ele>777.0</ele><time>2026-04-25T11:42:32.999Z</time></trkpt><trkpt lat="44.50711" lon="9.1489717"><ele>777.0</ele><time>2026-04-25T11:42:34.003Z</time></trkpt><trkpt lat="44.50701" lon="9.1489867"><ele>776.4000000000001</ele><time>2026-04-25T11:42:34.993Z</time></trkpt><trkpt lat="44.5069117" lon="9.1489817"><ele>775.8000000000001</ele><time>2026-04-25T11:42:35.998Z</time></trkpt><trkpt lat="44.5068167" lon="9.148965"><ele>775.2</ele><time>2026-04-25T11:42:36.997Z</time></trkpt><trkpt lat="44.50673" lon="9.1489483"><ele>774.6</ele><time>2026-04-25T11:42:37.995Z</time></trkpt><trkpt lat="44.5066417" lon="9.148925"><ele>774.0</ele><time>2026-04-25T11:42:38.997Z</time></trkpt><trkpt lat="44.506545" lon="9.1489083"><ele>774.0</ele><time>2026-04-25T11:42:39.996Z</time></trkpt><trkpt lat="44.5064467" lon="9.1489033"><ele>774.0</ele><time>2026-04-25T11:42:40.992Z</time></trkpt><trkpt lat="44.5063433" lon="9.1488917"><ele>774.0</ele><time>2026-04-25T11:42:41.999Z</time></trkpt><trkpt lat="44.5062467" lon="9.1488767"><ele>774.0</ele><time>2026-04-25T11:42:42.994Z</time></trkpt><trkpt lat="44.5061533" lon="9.1488433"><ele>774.0</ele><time>2026-04-25T11:42:43.996Z</time></trkpt><trkpt lat="44.5060733" lon="9.14879"><ele>773.0</ele><time>2026-04-25T11:42:44.997Z</time></trkpt><trkpt lat="44.5060167" lon="9.1487033"><ele>772.0</ele><time>2026-04-25T11:42:45.997Z</time></trkpt><trkpt lat="44.5059683" lon="9.1485933"><ele>771.0</ele><time>2026-04-25T11:42:46.997Z</time></trkpt><trkpt lat="44.5059217" lon="9.1484717"><ele>770.0</ele><time>2026-04-25T11:42:47.997Z</time></trkpt><trkpt lat="44.5058717" lon="9.1483433"><ele>769.0</ele><time>2026-04-25T11:42:48.994Z</time></trkpt><trkpt lat="44.505825" lon="9.148205"><ele>769.0</ele><time>2026-04-25T11:42:49.997Z</time></trkpt><trkpt lat="44.5057767" lon="9.1480683"><ele>769.0</ele><time>2026-04-25T11:42:50.997Z</time></trkpt><trkpt lat="44.5057267" lon="9.147935"><ele>769.0</ele><time>2026-04-25T11:42:51.998Z</time></trkpt><trkpt lat="44.5056783" lon="9.147805"><ele>769.0</ele><time>2026-04-25T11:42:52.995Z</time></trkpt><trkpt lat="44.505625" lon="9.147675"><ele>769.0</ele><time>2026-04-25T11:42:54.002Z</time></trkpt><trkpt lat="44.5055733" lon="9.147555"><ele>769.0</ele><time>2026-04-25T11:42:54.996Z</time></trkpt><trkpt lat="44.50551" lon="9.1474483"><ele>769.0</ele><time>2026-04-25T11:42:55.995Z</time></trkpt><trkpt lat="44.50542" lon="9.1473733"><ele>769.0</ele><time>2026-04-25T11:42:56.996Z</time></trkpt><trkpt lat="44.505315" lon="9.1473317"><ele>769.0</ele><time>2026-04-25T11:42:57.999Z</time></trkpt><trkpt lat="44.5052133" lon="9.1473333"><ele>769.0</ele><time>2026-04-25T11:42:58.997Z</time></trkpt><trkpt lat="44.5051083" lon="9.14736"><ele>768.8000000000001</ele><time>2026-04-25T11:42:59.996Z</time></trkpt><trkpt lat="44.505005" lon="9.1473983"><ele>768.6</ele><time>2026-04-25T11:43:00.999Z</time></trkpt><trkpt lat="44.5048967" lon="9.1474233"><ele>768.4</ele><time>2026-04-25T11:43:01.996Z</time></trkpt><trkpt lat="44.504795" lon="9.1474283"><ele>768.2</ele><time>2026-04-25T11:43:02.997Z</time></trkpt><trkpt lat="44.50469" lon="9.1474083"><ele>768.0</ele><time>2026-04-25T11:43:03.997Z</time></trkpt><trkpt lat="44.504605" lon="9.147345"><ele>764.2</ele><time>2026-04-25T11:43:04.994Z</time></trkpt><trkpt lat="44.504575" lon="9.1472117"><ele>760.4</ele><time>2026-04-25T11:43:05.995Z</time></trkpt><trkpt lat="44.5045233" lon="9.147085"><ele>756.6</ele><time>2026-04-25T11:43:06.996Z</time></trkpt><trkpt lat="44.504475" lon="9.1469517"><ele>752.8000000000001</ele><time>2026-04-25T11:43:07.994Z</time></trkpt><trkpt lat="44.5044233" lon="9.1468117"><ele>749.0</ele><time>2026-04-25T11:43:08.996Z</time></trkpt><trkpt lat="44.5043817" lon="9.14665"><ele>750.75</ele><time>2026-04-25T11:43:09.998Z</time></trkpt><trkpt lat="44.5043367" lon="9.146485"><ele>752.5</ele><time>2026-04-25T11:43:10.994Z</time></trkpt><trkpt lat="44.5043017" lon="9.1463083"><ele>754.25</ele><time>2026-04-25T11:43:11.997Z</time></trkpt><trkpt lat="44.5042367" lon="9.1461617"><ele>756.0</ele><time>2026-04-25T11:43:13.001Z</time></trkpt><trkpt lat="44.5041783" lon="9.1460067"><ele>756.0</ele><time>2026-04-25T11:43:14.001Z</time></trkpt><trkpt lat="44.5041167" lon="9.1458583"><ele>756.0</ele><time>2026-04-25T11:43:14.997Z</time></trkpt><trkpt lat="44.504055" lon="9.1457183"><ele>756.0</ele><time>2026-04-25T11:43:15.996Z</time></trkpt><trkpt lat="44.504" lon="9.145585"><ele>756.0</ele><time>2026-04-25T11:43:16.995Z</time></trkpt><trkpt lat="44.50396" lon="9.1454467"><ele>754.75</ele><time>2026-04-25T11:43:17.996Z</time></trkpt><trkpt lat="44.5039317" lon="9.1453017"><ele>753.5</ele><time>2026-04-25T11:43:18.999Z</time></trkpt><trkpt lat="44.5039183" lon="9.14515"><ele>752.25</ele><time>2026-04-25T11:43:20Z</time></trkpt><trkpt lat="44.5039167" lon="9.1449883"><ele>751.0</ele><time>2026-04-25T11:43:20.997Z</time></trkpt><trkpt lat="44.503935" lon="9.1448233"><ele>749.75</ele><time>2026-04-25T11:43:21.998Z</time></trkpt><trkpt lat="44.5039667" lon="9.1446517"><ele>748.5</ele><time>2026-04-25T11:43:22.995Z</time></trkpt><trkpt lat="44.5040017" lon="9.1444833"><ele>747.25</ele><time>2026-04-25T11:43:23.994Z</time></trkpt><trkpt lat="44.5040433" lon="9.1443133"><ele>746.0</ele><time>2026-04-25T11:43:25Z</time></trkpt><trkpt lat="44.504085" lon="9.1441583"><ele>748.1999999999999</ele><time>2026-04-25T11:43:25.996Z</time></trkpt><trkpt lat="44.504105" lon="9.144015"><ele>750.4</ele><time>2026-04-25T11:43:26.994Z</time></trkpt><trkpt lat="44.5041" lon="9.14388"><ele>752.6</ele><time>2026-04-25T11:43:27.995Z</time></trkpt><trkpt lat="44.5040633" lon="9.1437533"><ele>754.8</ele><time>2026-04-25T11:43:28.994Z</time></trkpt><trkpt lat="44.5040083" lon="9.1436633"><ele>757.0</ele><time>2026-04-25T11:43:29.998Z</time></trkpt><trkpt lat="44.503945" lon="9.1435767"><ele>757.0</ele><time>2026-04-25T11:43:30.995Z</time></trkpt><trkpt lat="44.5038717" lon="9.143505"><ele>757.0</ele><time>2026-04-25T11:43:31.998Z</time></trkpt><trkpt lat="44.5037867" lon="9.1434533"><ele>757.0</ele><time>2026-04-25T11:43:32.996Z</time></trkpt><trkpt lat="44.5036833" lon="9.143425"><ele>757.0</ele><time>2026-04-25T11:43:33.998Z</time></trkpt><trkpt lat="44.5035567" lon="9.143405"><ele>757.0</ele><time>2026-04-25T11:43:34.992Z</time></trkpt><trkpt lat="44.503445" lon="9.1433717"><ele>755.5</ele><time>2026-04-25T11:43:36Z</time></trkpt><trkpt lat="44.5033383" lon="9.143345"><ele>754.0</ele><time>2026-04-25T11:43:36.994Z</time></trkpt><trkpt lat="44.503235" lon="9.143325"><ele>752.5</ele><time>2026-04-25T11:43:37.997Z</time></trkpt><trkpt lat="44.50312" lon="9.1433417"><ele>751.0</ele><time>2026-04-25T11:43:39.001Z</time></trkpt><trkpt lat="44.502985" lon="9.1433733"><ele>750.75</ele><time>2026-04-25T11:43:39.996Z</time></trkpt><trkpt lat="44.502865" lon="9.14342"><ele>750.5</ele><time>2026-04-25T11:43:40.994Z</time></trkpt><trkpt lat="44.5027417" lon="9.1434583"><ele>750.25</ele><time>2026-04-25T11:43:41.995Z</time></trkpt><trkpt lat="44.5026083" lon="9.1434967"><ele>750.0</ele><time>2026-04-25T11:43:42.998Z</time></trkpt><trkpt lat="44.50249" lon="9.1435367"><ele>750.0</ele><time>2026-04-25T11:43:43.994Z</time></trkpt><trkpt lat="44.5023667" lon="9.14361"><ele>750.0</ele><time>2026-04-25T11:43:45Z</time></trkpt><trkpt lat="44.5022533" lon="9.1436117"><ele>750.0</ele><time>2026-04-25T11:43:45.995Z</time></trkpt><trkpt lat="44.5021117" lon="9.1436783"><ele>750.0</ele><time>2026-04-25T11:43:46.992Z</time></trkpt><trkpt lat="44.50199" lon="9.1436717"><ele>746.75</ele><time>2026-04-25T11:43:47.996Z</time></trkpt><trkpt lat="44.5018817" lon="9.1436133"><ele>743.5</ele><time>2026-04-25T11:43:48.996Z</time></trkpt><trkpt lat="44.5017683" lon="9.1435467"><ele>740.25</ele><time>2026-04-25T11:43:49.993Z</time></trkpt><trkpt lat="44.501645" lon="9.1434617"><ele>737.0</ele><time>2026-04-25T11:43:50.993Z</time></trkpt><trkpt lat="44.5015217" lon="9.1433883"><ele>737.0</ele><time>2026-04-25T11:43:51.995Z</time></trkpt><trkpt lat="44.5013717" lon="9.1433183"><ele>737.0</ele><time>2026-04-25T11:43:53Z</time></trkpt><trkpt lat="44.5012217" lon="9.1432367"><ele>737.0</ele><time>2026-04-25T11:43:53.996Z</time></trkpt><trkpt lat="44.5010833" lon="9.1431433"><ele>733.3333333333333</ele><time>2026-04-25T11:43:54.998Z</time></trkpt><trkpt lat="44.500945" lon="9.1430417"><ele>729.6666666666666</ele><time>2026-04-25T11:43:55.995Z</time></trkpt><trkpt lat="44.5008017" lon="9.1429467"><ele>726.0</ele><time>2026-04-25T11:43:57.003Z</time></trkpt><trkpt lat="44.50067" lon="9.1428417"><ele>726.0</ele><time>2026-04-25T11:43:57.995Z</time></trkpt><trkpt lat="44.50054" lon="9.142745"><ele>726.0</ele><time>2026-04-25T11:43:58.996Z</time></trkpt><trkpt lat="44.5004017" lon="9.1426383"><ele>726.0</ele><time>2026-04-25T11:43:59.998Z</time></trkpt><trkpt lat="44.5002833" lon="9.1424983"><ele>723.6666666666666</ele><time>2026-04-25T11:44:00.996Z</time></trkpt><trkpt lat="44.50016" lon="9.1423683"><ele>721.3333333333333</ele><time>2026-04-25T11:44:02.003Z</time></trkpt><trkpt lat="44.500035" lon="9.142235"><ele>719.0</ele><time>2026-04-25T11:44:02.996Z</time></trkpt><trkpt lat="44.4999033" lon="9.1421067"><ele>719.0</ele><time>2026-04-25T11:44:03.998Z</time></trkpt><trkpt lat="44.4997917" lon="9.141975"><ele>719.0</ele><time>2026-04-25T11:44:04.996Z</time></trkpt><trkpt lat="44.49971" lon="9.1418267"><ele>719.0</ele><time>2026-04-25T11:44:05.994Z</time></trkpt><trkpt lat="44.49965" lon="9.1416617"><ele>719.0</ele><time>2026-04-25T11:44:06.999Z</time></trkpt><trkpt lat="44.4996267" lon="9.1414933"><ele>718.25</ele><time>2026-04-25T11:44:07.997Z</time></trkpt><trkpt lat="44.4995983" lon="9.1413333"><ele>717.5</ele><time>2026-04-25T11:44:08.995Z</time></trkpt><trkpt lat="44.49955" lon="9.141175"><ele>716.75</ele><time>2026-04-25T11:44:09.998Z</time></trkpt><trkpt lat="44.4994867" lon="9.1410167"><ele>716.0</ele><time>2026-04-25T11:44:10.993Z</time></trkpt><trkpt lat="44.4994233" lon="9.1408433"><ele>713.75</ele><time>2026-04-25T11:44:11.995Z</time></trkpt><trkpt lat="44.49935" lon="9.14067"><ele>711.5</ele><time>2026-04-25T11:44:12.996Z</time></trkpt><trkpt lat="44.4992733" lon="9.1404967"><ele>709.25</ele><time>2026-04-25T11:44:13.995Z</time></trkpt><trkpt lat="44.4991933" lon="9.1403283"><ele>707.0</ele><time>2026-04-25T11:44:15Z</time></trkpt><trkpt lat="44.4991133" lon="9.140165"><ele>707.0</ele><time>2026-04-25T11:44:15.995Z</time></trkpt><trkpt lat="44.4990217" lon="9.14001"><ele>707.0</ele><time>2026-04-25T11:44:16.996Z</time></trkpt><trkpt lat="44.4989217" lon="9.1398717"><ele>707.0</ele><time>2026-04-25T11:44:17.994Z</time></trkpt><trkpt lat="44.4988217" lon="9.1397367"><ele>707.0</ele><time>2026-04-25T11:44:18.997Z</time></trkpt><trkpt lat="44.4987233" lon="9.1395983"><ele>706.25</ele><time>2026-04-25T11:44:19.997Z</time></trkpt><trkpt lat="44.4986317" lon="9.139465"><ele>705.5</ele><time>2026-04-25T11:44:21.004Z</time></trkpt><trkpt lat="44.4985383" lon="9.1393433"><ele>704.75</ele><time>2026-04-25T11:44:22.004Z</time></trkpt><trkpt lat="44.49844" lon="9.1392317"><ele>704.0</ele><time>2026-04-25T11:44:22.996Z</time></trkpt><trkpt lat="44.4983317" lon="9.139135"><ele>704.0</ele><time>2026-04-25T11:44:23.998Z</time></trkpt><trkpt lat="44.4982133" lon="9.1390717"><ele>704.0</ele><time>2026-04-25T11:44:24.997Z</time></trkpt><trkpt lat="44.4980933" lon="9.139015"><ele>704.0</ele><time>2026-04-25T11:44:25.994Z</time></trkpt><trkpt lat="44.497965" lon="9.138955"><ele>704.0</ele><time>2026-04-25T11:44:26.997Z</time></trkpt><trkpt lat="44.4978483" lon="9.1388833"><ele>701.5</ele><time>2026-04-25T11:44:27.997Z</time></trkpt><trkpt lat="44.4977283" lon="9.1388133"><ele>699.0</ele><time>2026-04-25T11:44:28.999Z</time></trkpt><trkpt lat="44.4976217" lon="9.1387283"><ele>696.5</ele><time>2026-04-25T11:44:29.996Z</time></trkpt><trkpt lat="44.4975117" lon="9.13865"><ele>694.0</ele><time>2026-04-25T11:44:30.997Z</time></trkpt><trkpt lat="44.497405" lon="9.1385633"><ele>694.0</ele><time>2026-04-25T11:44:31.995Z</time></trkpt><trkpt lat="44.4973033" lon="9.1384717"><ele>694.0</ele><time>2026-04-25T11:44:33.002Z</time></trkpt><trkpt lat="44.4972117" lon="9.1383633"><ele>694.0</ele><time>2026-04-25T11:44:34.001Z</time></trkpt><trkpt lat="44.4971167" lon="9.1382517"><ele>694.0</ele><time>2026-04-25T11:44:34.995Z</time></trkpt><trkpt lat="44.497015" lon="9.138145"><ele>692.75</ele><time>2026-04-25T11:44:35.996Z</time></trkpt><trkpt lat="44.4968967" lon="9.13806"><ele>691.5</ele><time>2026-04-25T11:44:36.997Z</time></trkpt><trkpt lat="44.4967733" lon="9.1379917"><ele>690.25</ele><time>2026-04-25T11:44:38.002Z</time></trkpt><trkpt lat="44.4966567" lon="9.1379283"><ele>689.0</ele><time>2026-04-25T11:44:38.995Z</time></trkpt><trkpt lat="44.4965367" lon="9.1378667"><ele>689.0</ele><time>2026-04-25T11:44:39.995Z</time></trkpt><trkpt lat="44.4964283" lon="9.1377867"><ele>689.0</ele><time>2026-04-25T11:44:41.001Z</time></trkpt><trkpt lat="44.4963317" lon="9.1376867"><ele>689.0</ele><time>2026-04-25T11:44:41.999Z</time></trkpt><trkpt lat="44.4962467" lon="9.1375683"><ele>689.0</ele><time>2026-04-25T11:44:42.993Z</time></trkpt><trkpt lat="44.4961667" lon="9.13743"><ele>689.25</ele><time>2026-04-25T11:44:43.995Z</time></trkpt><trkpt lat="44.496095" lon="9.1372817"><ele>689.5</ele><time>2026-04-25T11:44:45.001Z</time></trkpt><trkpt lat="44.496045" lon="9.1371233"><ele>689.75</ele><time>2026-04-25T11:44:45.996Z</time></trkpt><trkpt lat="44.4959983" lon="9.13696"><ele>690.0</ele><time>2026-04-25T11:44:46.996Z</time></trkpt><trkpt lat="44.4959583" lon="9.1367883"><ele>690.0</ele><time>2026-04-25T11:44:47.998Z</time></trkpt><trkpt lat="44.4959167" lon="9.1366267"><ele>690.0</ele><time>2026-04-25T11:44:49.005Z</time></trkpt><trkpt lat="44.4958767" lon="9.1364717"><ele>690.0</ele><time>2026-04-25T11:44:49.995Z</time></trkpt><trkpt lat="44.495825" lon="9.1363217"><ele>690.0</ele><time>2026-04-25T11:44:50.998Z</time></trkpt><trkpt lat="44.4957617" lon="9.1361717"><ele>686.5</ele><time>2026-04-25T11:44:51.998Z</time></trkpt><trkpt lat="44.4956767" lon="9.1360283"><ele>683.0</ele><time>2026-04-25T11:44:52.996Z</time></trkpt><trkpt lat="44.4956017" lon="9.13588"><ele>679.5</ele><time>2026-04-25T11:44:53.998Z</time></trkpt><trkpt lat="44.4955483" lon="9.1357117"><ele>676.0</ele><time>2026-04-25T11:44:54.996Z</time></trkpt><trkpt lat="44.4955" lon="9.1355583"><ele>675.5</ele><time>2026-04-25T11:44:55.996Z</time></trkpt><trkpt lat="44.49547" lon="9.1353867"><ele>675.0</ele><time>2026-04-25T11:44:56.997Z</time></trkpt><trkpt lat="44.495445" lon="9.1352233"><ele>674.5</ele><time>2026-04-25T11:44:57.997Z</time></trkpt><trkpt lat="44.4954067" lon="9.1350783"><ele>674.0</ele><time>2026-04-25T11:44:58.998Z</time></trkpt><trkpt lat="44.4953517" lon="9.1349483"><ele>674.25</ele><time>2026-04-25T11:44:59.996Z</time></trkpt><trkpt lat="44.4952833" lon="9.1348233"><ele>674.5</ele><time>2026-04-25T11:45:00.999Z</time></trkpt><trkpt lat="44.4951883" lon="9.1347267"><ele>674.75</ele><time>2026-04-25T11:45:01.995Z</time></trkpt><trkpt lat="44.4950883" lon="9.134645"><ele>675.0</ele><time>2026-04-25T11:45:03Z</time></trkpt><trkpt lat="44.494975" lon="9.13457"><ele>675.0</ele><time>2026-04-25T11:45:04Z</time></trkpt><trkpt lat="44.4948583" lon="9.1344983"><ele>675.0</ele><time>2026-04-25T11:45:04.995Z</time></trkpt><trkpt lat="44.4947433" lon="9.1344267"><ele>675.0</ele><time>2026-04-25T11:45:05.998Z</time></trkpt><trkpt lat="44.4946333" lon="9.1343567"><ele>675.0</ele><time>2026-04-25T11:45:06.996Z</time></trkpt><trkpt lat="44.494545" lon="9.1342683"><ele>671.4</ele><time>2026-04-25T11:45:07.998Z</time></trkpt><trkpt lat="44.4944867" lon="9.1341467"><ele>667.8</ele><time>2026-04-25T11:45:08.997Z</time></trkpt><trkpt lat="44.4944433" lon="9.134005"><ele>664.2</ele><time>2026-04-25T11:45:09.999Z</time></trkpt><trkpt lat="44.4944183" lon="9.133855"><ele>660.6</ele><time>2026-04-25T11:45:10.998Z</time></trkpt><trkpt lat="44.494405" lon="9.1337167"><ele>657.0</ele><time>2026-04-25T11:45:11.996Z</time></trkpt><trkpt lat="44.4943983" lon="9.1335983"><ele>657.3333333333334</ele><time>2026-04-25T11:45:12.997Z</time></trkpt><trkpt lat="44.49439" lon="9.13349"><ele>657.6666666666666</ele><time>2026-04-25T11:45:13.996Z</time></trkpt><trkpt lat="44.494385" lon="9.1333867"><ele>658.0</ele><time>2026-04-25T11:45:14.997Z</time></trkpt><trkpt lat="44.494425" lon="9.13323"><ele>658.3333333333333</ele><time>2026-04-25T11:45:16.995Z</time></trkpt><trkpt lat="44.49448" lon="9.1331217"><ele>658.6666666666666</ele><time>2026-04-25T11:45:18.998Z</time></trkpt><trkpt lat="44.4945617" lon="9.1331433"><ele>659.0</ele><time>2026-04-25T11:45:19.996Z</time></trkpt><trkpt lat="44.494655" lon="9.1331583"><ele>659.0</ele><time>2026-04-25T11:45:20.995Z</time></trkpt><trkpt lat="44.4947533" lon="9.13315"><ele>659.0</ele><time>2026-04-25T11:45:21.996Z</time></trkpt><trkpt lat="44.4948683" lon="9.1331567"><ele>659.0</ele><time>2026-04-25T11:45:23.002Z</time></trkpt><trkpt lat="44.4950533" lon="9.1332267"><ele>659.0</ele><time>2026-04-25T11:45:23.998Z</time></trkpt><trkpt lat="44.4952033" lon="9.1331933"><ele>659.0</ele><time>2026-04-25T11:45:25Z</time></trkpt><trkpt lat="44.495325" lon="9.1331517"><ele>659.0</ele><time>2026-04-25T11:45:25.997Z</time></trkpt><trkpt lat="44.4954233" lon="9.1330733"><ele>659.0</ele><time>2026-04-25T11:45:26.994Z</time></trkpt><trkpt lat="44.4955183" lon="9.13297"><ele>659.0</ele><time>2026-04-25T11:45:28Z</time></trkpt><trkpt lat="44.495625" lon="9.1328683"><ele>659.0</ele><time>2026-04-25T11:45:28.992Z</time></trkpt><trkpt lat="44.4957283" lon="9.1327633"><ele>659.0</ele><time>2026-04-25T11:45:29.996Z</time></trkpt><trkpt lat="44.4958283" lon="9.13265"><ele>659.0</ele><time>2026-04-25T11:45:30.995Z</time></trkpt><trkpt lat="44.4959317" lon="9.1325417"><ele>659.0</ele><time>2026-04-25T11:45:32.003Z</time></trkpt><trkpt lat="44.4960383" lon="9.1324333"><ele>658.6</ele><time>2026-04-25T11:45:33.002Z</time></trkpt><trkpt lat="44.496135" lon="9.1323233"><ele>658.2</ele><time>2026-04-25T11:45:33.996Z</time></trkpt><trkpt lat="44.4962033" lon="9.132225"><ele>657.8000000000001</ele><time>2026-04-25T11:45:34.996Z</time></trkpt><trkpt lat="44.4962367" lon="9.1321133"><ele>657.4000000000001</ele><time>2026-04-25T11:45:35.995Z</time></trkpt><trkpt lat="44.4962583" lon="9.1320033"><ele>657.0</ele><time>2026-04-25T11:45:36.998Z</time></trkpt><trkpt lat="44.49627" lon="9.131885"><ele>657.0</ele><time>2026-04-25T11:45:37.998Z</time></trkpt><trkpt lat="44.4961733" lon="9.13186"><ele>657.0</ele><time>2026-04-25T11:45:38.997Z</time></trkpt><trkpt lat="44.496095" lon="9.1318067"><ele>657.0</ele><time>2026-04-25T11:45:39.996Z</time></trkpt><trkpt lat="44.4960083" lon="9.1317583"><ele>657.0</ele><time>2026-04-25T11:45:40.995Z</time></trkpt><trkpt lat="44.49593" lon="9.1316917"><ele>657.0</ele><time>2026-04-25T11:45:41.994Z</time></trkpt><trkpt lat="44.49586" lon="9.1316083"><ele>656.2</ele><time>2026-04-25T11:45:42.994Z</time></trkpt><trkpt lat="44.4958133" lon="9.1315183"><ele>655.4000000000001</ele><time>2026-04-25T11:45:43.994Z</time></trkpt><trkpt lat="44.49585" lon="9.1313717"><ele>654.5999999999999</ele><time>2026-04-25T11:45:45.007Z</time></trkpt><trkpt lat="44.4958533" lon="9.1312383"><ele>653.8</ele><time>2026-04-25T11:45:45.999Z</time></trkpt><trkpt lat="44.4958767" lon="9.1310833"><ele>653.0</ele><time>2026-04-25T11:45:46.996Z</time></trkpt><trkpt lat="44.4958817" lon="9.1309383"><ele>653.0</ele><time>2026-04-25T11:45:47.997Z</time></trkpt><trkpt lat="44.4958817" lon="9.1307917"><ele>653.0</ele><time>2026-04-25T11:45:48.997Z</time></trkpt><trkpt lat="44.4958867" lon="9.1306483"><ele>653.0</ele><time>2026-04-25T11:45:49.994Z</time></trkpt><trkpt lat="44.4959033" lon="9.13051"><ele>653.0</ele><time>2026-04-25T11:45:50.994Z</time></trkpt><trkpt lat="44.4959483" lon="9.1303983"><ele>653.0</ele><time>2026-04-25T11:45:51.995Z</time></trkpt><trkpt lat="44.4960133" lon="9.13032"><ele>652.3333333333333</ele><time>2026-04-25T11:45:53.001Z</time></trkpt><trkpt lat="44.496085" lon="9.1302533"><ele>651.6666666666666</ele><time>2026-04-25T11:45:53.998Z</time></trkpt><trkpt lat="44.4961367" lon="9.1301667"><ele>651.0</ele><time>2026-04-25T11:45:54.996Z</time></trkpt><trkpt lat="44.4961383" lon="9.1300483"><ele>650.3333333333334</ele><time>2026-04-25T11:45:55.997Z</time></trkpt><trkpt lat="44.4961483" lon="9.1299233"><ele>649.6666666666667</ele><time>2026-04-25T11:45:56.995Z</time></trkpt><trkpt lat="44.496115" lon="9.1298133"><ele>649.0</ele><time>2026-04-25T11:45:57.995Z</time></trkpt><trkpt lat="44.4960833" lon="9.1297133"><ele>646.4000000000001</ele><time>2026-04-25T11:45:58.996Z</time></trkpt><trkpt lat="44.49601" lon="9.12964"><ele>643.8000000000001</ele><time>2026-04-25T11:45:59.996Z</time></trkpt><trkpt lat="44.495945" lon="9.1295817"><ele>641.2</ele><time>2026-04-25T11:46:00.993Z</time></trkpt><trkpt lat="44.4958583" lon="9.129565"><ele>638.6</ele><time>2026-04-25T11:46:01.995Z</time></trkpt><trkpt lat="44.49577" lon="9.12955"><ele>636.0</ele><time>2026-04-25T11:46:03Z</time></trkpt><trkpt lat="44.49564" lon="9.129695"><ele>636.0</ele><time>2026-04-25T11:46:03.997Z</time></trkpt><trkpt lat="44.49555" lon="9.1298"><ele>636.0</ele><time>2026-04-25T11:46:04.993Z</time></trkpt><trkpt lat="44.4954767" lon="9.129905"><ele>636.0</ele><time>2026-04-25T11:46:05.996Z</time></trkpt><trkpt lat="44.4954017" lon="9.1300083"><ele>636.0</ele><time>2026-04-25T11:46:06.993Z</time></trkpt><trkpt lat="44.4953133" lon="9.13007"><ele>636.0</ele><time>2026-04-25T11:46:07.996Z</time></trkpt><trkpt lat="44.49523" lon="9.1301133"><ele>636.1666666666666</ele><time>2026-04-25T11:46:08.997Z</time></trkpt><trkpt lat="44.4951367" lon="9.1301217"><ele>636.3333333333334</ele><time>2026-04-25T11:46:09.997Z</time></trkpt><trkpt lat="44.4950633" lon="9.130055"><ele>636.5</ele><time>2026-04-25T11:46:11.001Z</time></trkpt><trkpt lat="44.4949883" lon="9.1300117"><ele>636.6666666666667</ele><time>2026-04-25T11:46:11.992Z</time></trkpt><trkpt lat="44.4949167" lon="9.1299683"><ele>636.8333333333334</ele><time>2026-04-25T11:46:13Z</time></trkpt><trkpt lat="44.4948433" lon="9.1299483"><ele>637.0</ele><time>2026-04-25T11:46:14.001Z</time></trkpt><trkpt lat="44.494765" lon="9.129945"><ele>637.0</ele><time>2026-04-25T11:46:14.999Z</time></trkpt><trkpt lat="44.49468" lon="9.1300133"><ele>637.0</ele><time>2026-04-25T11:46:15.996Z</time></trkpt><trkpt lat="44.49462" lon="9.1301033"><ele>637.0</ele><time>2026-04-25T11:46:16.994Z</time></trkpt><trkpt lat="44.49457" lon="9.1302133"><ele>637.0</ele><time>2026-04-25T11:46:17.994Z</time></trkpt><trkpt lat="44.49453" lon="9.130335"><ele>637.0</ele><time>2026-04-25T11:46:18.994Z</time></trkpt><trkpt lat="44.4944983" lon="9.1304633"><ele>634.6</ele><time>2026-04-25T11:46:19.999Z</time></trkpt><trkpt lat="44.4944683" lon="9.1305967"><ele>632.2</ele><time>2026-04-25T11:46:21.003Z</time></trkpt><trkpt lat="44.4944383" lon="9.1307317"><ele>629.8</ele><time>2026-04-25T11:46:21.994Z</time></trkpt><trkpt lat="44.4944067" lon="9.1308717"><ele>627.4</ele><time>2026-04-25T11:46:22.999Z</time></trkpt><trkpt lat="44.4943767" lon="9.1310133"><ele>625.0</ele><time>2026-04-25T11:46:23.998Z</time></trkpt><trkpt lat="44.4943467" lon="9.13116"><ele>625.0</ele><time>2026-04-25T11:46:24.995Z</time></trkpt><trkpt lat="44.494315" lon="9.1313033"><ele>625.0</ele><time>2026-04-25T11:46:25.999Z</time></trkpt><trkpt lat="44.4942767" lon="9.1314233"><ele>625.0</ele><time>2026-04-25T11:46:26.996Z</time></trkpt><trkpt lat="44.4942383" lon="9.1315267"><ele>625.0</ele><time>2026-04-25T11:46:28Z</time></trkpt><trkpt lat="44.49419" lon="9.1316033"><ele>625.0</ele><time>2026-04-25T11:46:28.995Z</time></trkpt><trkpt lat="44.4941267" lon="9.131585"><ele>625.0</ele><time>2026-04-25T11:46:29.997Z</time></trkpt><trkpt lat="44.494" lon="9.1315217"><ele>625.0</ele><time>2026-04-25T11:46:31.991Z</time></trkpt><trkpt lat="44.49393" lon="9.13147"><ele>625.0</ele><time>2026-04-25T11:46:33Z</time></trkpt><trkpt lat="44.4938533" lon="9.1313867"><ele>625.0</ele><time>2026-04-25T11:46:33.997Z</time></trkpt><trkpt lat="44.4937867" lon="9.1313167"><ele>625.0</ele><time>2026-04-25T11:46:34.994Z</time></trkpt><trkpt lat="44.4937217" lon="9.13125"><ele>625.0</ele><time>2026-04-25T11:46:35.995Z</time></trkpt><trkpt lat="44.49367" lon="9.13119"><ele>625.0</ele><time>2026-04-25T11:46:36.996Z</time></trkpt><trkpt lat="44.4936167" lon="9.13109"><ele>625.0</ele><time>2026-04-25T11:46:39.004Z</time></trkpt><trkpt lat="44.4936333" lon="9.1310017"><ele>625.0</ele><time>2026-04-25T11:46:41.999Z</time></trkpt><trkpt lat="44.49373" lon="9.1310767"><ele>625.0</ele><time>2026-04-25T11:46:44.001Z</time></trkpt><trkpt lat="44.493825" lon="9.13119"><ele>625.0</ele><time>2026-04-25T11:46:45.998Z</time></trkpt><trkpt lat="44.4939233" lon="9.1312833"><ele>625.0</ele><time>2026-04-25T11:46:47.997Z</time></trkpt><trkpt lat="44.4939917" lon="9.1312933"><ele>625.0</ele><time>2026-04-25T11:46:48.996Z</time></trkpt><trkpt lat="44.494065" lon="9.1312817"><ele>625.0</ele><time>2026-04-25T11:46:49.997Z</time></trkpt><trkpt lat="44.4941367" lon="9.1312417"><ele>625.0</ele><time>2026-04-25T11:46:50.997Z</time></trkpt><trkpt lat="44.4942083" lon="9.1311767"><ele>625.0</ele><time>2026-04-25T11:46:52.002Z</time></trkpt><trkpt lat="44.494275" lon="9.1311083"><ele>625.0</ele><time>2026-04-25T11:46:52.998Z</time></trkpt><trkpt lat="44.4943267" lon="9.1309883"><ele>625.0</ele><time>2026-04-25T11:46:53.996Z</time></trkpt><trkpt lat="44.4943683" lon="9.1308517"><ele>623.0</ele><time>2026-04-25T11:46:54.993Z</time></trkpt><trkpt lat="44.4943933" lon="9.1307133"><ele>621.0</ele><time>2026-04-25T11:46:55.999Z</time></trkpt><trkpt lat="44.4944083" lon="9.130565"><ele>619.0</ele><time>2026-04-25T11:46:56.998Z</time></trkpt><trkpt lat="44.494425" lon="9.13043"><ele>617.0</ele><time>2026-04-25T11:46:57.994Z</time></trkpt><trkpt lat="44.49443" lon="9.1303067"><ele>615.0</ele><time>2026-04-25T11:46:59Z</time></trkpt><trkpt lat="44.49442" lon="9.1302"><ele>615.0</ele><time>2026-04-25T11:46:59.996Z</time></trkpt><trkpt lat="44.49442" lon="9.1301067"><ele>615.0</ele><time>2026-04-25T11:47:00.999Z</time></trkpt><trkpt lat="44.4944133" lon="9.1299383"><ele>615.0</ele><time>2026-04-25T11:47:02.999Z</time></trkpt><trkpt lat="44.494385" lon="9.1298083"><ele>615.0</ele><time>2026-04-25T11:47:04.998Z</time></trkpt><trkpt lat="44.494435" lon="9.129675"><ele>615.0</ele><time>2026-04-25T11:47:06.994Z</time></trkpt><trkpt lat="44.4944667" lon="9.1295967"><ele>616.1666666666666</ele><time>2026-04-25T11:47:07.997Z</time></trkpt><trkpt lat="44.4945133" lon="9.129525"><ele>617.3333333333334</ele><time>2026-04-25T11:47:08.993Z</time></trkpt><trkpt lat="44.49457" lon="9.1294567"><ele>618.5</ele><time>2026-04-25T11:47:09.994Z</time></trkpt><trkpt lat="44.4946333" lon="9.1293883"><ele>619.6666666666667</ele><time>2026-04-25T11:47:10.993Z</time></trkpt><trkpt lat="44.4947033" lon="9.1293133"><ele>620.8333333333334</ele><time>2026-04-25T11:47:11.993Z</time></trkpt><trkpt lat="44.4947767" lon="9.1292367"><ele>622.0</ele><time>2026-04-25T11:47:12.994Z</time></trkpt><trkpt lat="44.4948467" lon="9.1291533"><ele>622.0</ele><time>2026-04-25T11:47:13.997Z</time></trkpt><trkpt lat="44.4949183" lon="9.1290617"><ele>622.0</ele><time>2026-04-25T11:47:14.996Z</time></trkpt><trkpt lat="44.4949967" lon="9.1289767"><ele>622.0</ele><time>2026-04-25T11:47:15.997Z</time></trkpt><trkpt lat="44.4950717" lon="9.128875"><ele>622.0</ele><time>2026-04-25T11:47:16.995Z</time></trkpt><trkpt lat="44.4951667" lon="9.12879"><ele>622.0</ele><time>2026-04-25T11:47:17.993Z</time></trkpt><trkpt lat="44.4952517" lon="9.1286933"><ele>622.4</ele><time>2026-04-25T11:47:18.997Z</time></trkpt><trkpt lat="44.495325" lon="9.1285867"><ele>622.8000000000001</ele><time>2026-04-25T11:47:19.993Z</time></trkpt><trkpt lat="44.495395" lon="9.128475"><ele>623.2</ele><time>2026-04-25T11:47:20.995Z</time></trkpt><trkpt lat="44.4954517" lon="9.12835"><ele>623.6</ele><time>2026-04-25T11:47:21.997Z</time></trkpt><trkpt lat="44.4954867" lon="9.128205"><ele>624.0</ele><time>2026-04-25T11:47:22.996Z</time></trkpt><trkpt lat="44.4955133" lon="9.1280583"><ele>622.8</ele><time>2026-04-25T11:47:23.998Z</time></trkpt><trkpt lat="44.49552" lon="9.1279083"><ele>621.5999999999999</ele><time>2026-04-25T11:47:24.995Z</time></trkpt><trkpt lat="44.4955233" lon="9.1277617"><ele>620.4</ele><time>2026-04-25T11:47:25.997Z</time></trkpt><trkpt lat="44.4955317" lon="9.1276117"><ele>619.1999999999999</ele><time>2026-04-25T11:47:26.994Z</time></trkpt><trkpt lat="44.4955467" lon="9.12746"><ele>618.0</ele><time>2026-04-25T11:47:27.999Z</time></trkpt><trkpt lat="44.4955617" lon="9.1273033"><ele>616.0</ele><time>2026-04-25T11:47:28.993Z</time></trkpt><trkpt lat="44.4955933" lon="9.127155"><ele>614.0</ele><time>2026-04-25T11:47:29.996Z</time></trkpt><trkpt lat="44.4956567" lon="9.127015"><ele>612.0</ele><time>2026-04-25T11:47:30.997Z</time></trkpt><trkpt lat="44.495735" lon="9.12689"><ele>610.0</ele><time>2026-04-25T11:47:31.996Z</time></trkpt><trkpt lat="44.495825" lon="9.1267717"><ele>610.0</ele><time>2026-04-25T11:47:33Z</time></trkpt><trkpt lat="44.495895" lon="9.1266383"><ele>610.0</ele><time>2026-04-25T11:47:33.998Z</time></trkpt><trkpt lat="44.4959483" lon="9.1264917"><ele>610.0</ele><time>2026-04-25T11:47:34.998Z</time></trkpt><trkpt lat="44.4959917" lon="9.1263417"><ele>610.0</ele><time>2026-04-25T11:47:35.994Z</time></trkpt><trkpt lat="44.4960083" lon="9.1261733"><ele>611.0</ele><time>2026-04-25T11:47:37.002Z</time></trkpt><trkpt lat="44.4960117" lon="9.1260067"><ele>612.0</ele><time>2026-04-25T11:47:37.995Z</time></trkpt><trkpt lat="44.4959867" lon="9.1258467"><ele>613.0</ele><time>2026-04-25T11:47:38.994Z</time></trkpt><trkpt lat="44.4959017" lon="9.12573"><ele>614.0</ele><time>2026-04-25T11:47:39.992Z</time></trkpt><trkpt lat="44.4957883" lon="9.12564"><ele>614.75</ele><time>2026-04-25T11:47:40.997Z</time></trkpt><trkpt lat="44.4956617" lon="9.125555"><ele>615.5</ele><time>2026-04-25T11:47:42.001Z</time></trkpt><trkpt lat="44.4955567" lon="9.1254583"><ele>616.25</ele><time>2026-04-25T11:47:42.993Z</time></trkpt><trkpt lat="44.4954533" lon="9.1253717"><ele>617.0</ele><time>2026-04-25T11:47:43.997Z</time></trkpt><trkpt lat="44.4953767" lon="9.12529"><ele>613.5</ele><time>2026-04-25T11:47:44.998Z</time></trkpt><trkpt lat="44.495325" lon="9.1251917"><ele>610.0</ele><time>2026-04-25T11:47:45.998Z</time></trkpt><trkpt lat="44.4952933" lon="9.1250917"><ele>606.5</ele><time>2026-04-25T11:47:46.998Z</time></trkpt><trkpt lat="44.4952633" lon="9.125"><ele>603.0</ele><time>2026-04-25T11:47:47.995Z</time></trkpt><trkpt lat="44.4952483" lon="9.124905"><ele>599.5</ele><time>2026-04-25T11:47:48.997Z</time></trkpt><trkpt lat="44.4952383" lon="9.124815"><ele>596.0</ele><time>2026-04-25T11:47:49.994Z</time></trkpt><trkpt lat="44.4953467" lon="9.12473"><ele>596.0</ele><time>2026-04-25T11:47:50.995Z</time></trkpt><trkpt lat="44.4953983" lon="9.12464"><ele>596.0</ele><time>2026-04-25T11:47:51.998Z</time></trkpt><trkpt lat="44.4954467" lon="9.1245133"><ele>596.0</ele><time>2026-04-25T11:47:52.998Z</time></trkpt><trkpt lat="44.495515" lon="9.124365"><ele>596.0</ele><time>2026-04-25T11:47:53.998Z</time></trkpt><trkpt lat="44.4955933" lon="9.1242167"><ele>596.0</ele><time>2026-04-25T11:47:55.001Z</time></trkpt><trkpt lat="44.49566" lon="9.1240733"><ele>591.5</ele><time>2026-04-25T11:47:56Z</time></trkpt><trkpt lat="44.4957417" lon="9.1239183"><ele>587.0</ele><time>2026-04-25T11:47:56.996Z</time></trkpt><trkpt lat="44.4958433" lon="9.1237917"><ele>582.5</ele><time>2026-04-25T11:47:57.998Z</time></trkpt><trkpt lat="44.4959317" lon="9.1236617"><ele>578.0</ele><time>2026-04-25T11:47:58.995Z</time></trkpt><trkpt lat="44.4961933" lon="9.1236"><ele>580.0</ele><time>2026-04-25T11:47:59.997Z</time></trkpt><trkpt lat="44.4963067" lon="9.12353"><ele>582.0</ele><time>2026-04-25T11:48:00.994Z</time></trkpt><trkpt lat="44.4964767" lon="9.1234933"><ele>584.0</ele><time>2026-04-25T11:48:02.001Z</time></trkpt><trkpt lat="44.4965883" lon="9.123445"><ele>586.0</ele><time>2026-04-25T11:48:02.995Z</time></trkpt><trkpt lat="44.4967" lon="9.1234117"><ele>586.0</ele><time>2026-04-25T11:48:03.996Z</time></trkpt><trkpt lat="44.49681" lon="9.1234"><ele>586.0</ele><time>2026-04-25T11:48:04.994Z</time></trkpt><trkpt lat="44.4969067" lon="9.123475"><ele>586.0</ele><time>2026-04-25T11:48:06.001Z</time></trkpt><trkpt lat="44.497005" lon="9.1235683"><ele>586.0</ele><time>2026-04-25T11:48:06.997Z</time></trkpt><trkpt lat="44.4970767" lon="9.123715"><ele>585.75</ele><time>2026-04-25T11:48:07.998Z</time></trkpt><trkpt lat="44.4971417" lon="9.123855"><ele>585.5</ele><time>2026-04-25T11:48:08.999Z</time></trkpt><trkpt lat="44.4972183" lon="9.1239833"><ele>585.25</ele><time>2026-04-25T11:48:09.998Z</time></trkpt><trkpt lat="44.497285" lon="9.1241267"><ele>585.0</ele><time>2026-04-25T11:48:10.994Z</time></trkpt><trkpt lat="44.4973383" lon="9.1242667"><ele>585.0</ele><time>2026-04-25T11:48:12.002Z</time></trkpt><trkpt lat="44.49738" lon="9.1244183"><ele>585.0</ele><time>2026-04-25T11:48:13Z</time></trkpt><trkpt lat="44.4974033" lon="9.12461"><ele>585.0</ele><time>2026-04-25T11:48:13.995Z</time></trkpt><trkpt lat="44.4974317" lon="9.1247633"><ele>585.0</ele><time>2026-04-25T11:48:14.997Z</time></trkpt><trkpt lat="44.4974517" lon="9.124915"><ele>586.5</ele><time>2026-04-25T11:48:15.994Z</time></trkpt><trkpt lat="44.49747" lon="9.1251967"><ele>588.0</ele><time>2026-04-25T11:48:16.995Z</time></trkpt><trkpt lat="44.4975133" lon="9.1253417"><ele>589.5</ele><time>2026-04-25T11:48:17.999Z</time></trkpt><trkpt lat="44.49757" lon="9.1254683"><ele>591.0</ele><time>2026-04-25T11:48:18.996Z</time></trkpt><trkpt lat="44.4976283" lon="9.12561"><ele>591.0</ele><time>2026-04-25T11:48:19.994Z</time></trkpt><trkpt lat="44.497725" lon="9.1257033"><ele>591.0</ele><time>2026-04-25T11:48:21Z</time></trkpt><trkpt lat="44.4978067" lon="9.1257833"><ele>591.0</ele><time>2026-04-25T11:48:22Z</time></trkpt><trkpt lat="44.4978917" lon="9.1258367"><ele>591.0</ele><time>2026-04-25T11:48:22.995Z</time></trkpt><trkpt lat="44.4979783" lon="9.125875"><ele>591.0</ele><time>2026-04-25T11:48:23.994Z</time></trkpt><trkpt lat="44.4980967" lon="9.1258067"><ele>591.75</ele><time>2026-04-25T11:48:25.001Z</time></trkpt><trkpt lat="44.4981917" lon="9.12573"><ele>592.5</ele><time>2026-04-25T11:48:25.997Z</time></trkpt><trkpt lat="44.4982767" lon="9.125625"><ele>593.25</ele><time>2026-04-25T11:48:26.998Z</time></trkpt><trkpt lat="44.49835" lon="9.12549"><ele>594.0</ele><time>2026-04-25T11:48:27.994Z</time></trkpt><trkpt lat="44.4984" lon="9.12535"><ele>593.0</ele><time>2026-04-25T11:48:28.997Z</time></trkpt><trkpt lat="44.4984483" lon="9.1252083"><ele>592.0</ele><time>2026-04-25T11:48:29.997Z</time></trkpt><trkpt lat="44.4984983" lon="9.1250567"><ele>591.0</ele><time>2026-04-25T11:48:31.001Z</time></trkpt><trkpt lat="44.4985333" lon="9.1248917"><ele>590.0</ele><time>2026-04-25T11:48:32Z</time></trkpt><trkpt lat="44.4985633" lon="9.1247233"><ele>590.0</ele><time>2026-04-25T11:48:33.006Z</time></trkpt><trkpt lat="44.4985717" lon="9.1245483"><ele>590.0</ele><time>2026-04-25T11:48:33.999Z</time></trkpt><trkpt lat="44.4985633" lon="9.1243783"><ele>590.0</ele><time>2026-04-25T11:48:35Z</time></trkpt><trkpt lat="44.4985433" lon="9.1242033"><ele>590.0</ele><time>2026-04-25T11:48:35.998Z</time></trkpt><trkpt lat="44.4985183" lon="9.12403"><ele>592.75</ele><time>2026-04-25T11:48:36.994Z</time></trkpt><trkpt lat="44.498495" lon="9.12386"><ele>595.5</ele><time>2026-04-25T11:48:37.992Z</time></trkpt><trkpt lat="44.49847" lon="9.1236967"><ele>598.25</ele><time>2026-04-25T11:48:38.999Z</time></trkpt><trkpt lat="44.49842" lon="9.1235433"><ele>601.0</ele><time>2026-04-25T11:48:39.999Z</time></trkpt><trkpt lat="44.4983517" lon="9.1234083"><ele>601.0</ele><time>2026-04-25T11:48:40.998Z</time></trkpt><trkpt lat="44.498265" lon="9.12328"><ele>601.0</ele><time>2026-04-25T11:48:41.995Z</time></trkpt><trkpt lat="44.4981633" lon="9.1231667"><ele>601.0</ele><time>2026-04-25T11:48:43.001Z</time></trkpt><trkpt lat="44.498065" lon="9.1230433"><ele>601.0</ele><time>2026-04-25T11:48:43.995Z</time></trkpt><trkpt lat="44.497975" lon="9.1229067"><ele>599.0</ele><time>2026-04-25T11:48:44.999Z</time></trkpt><trkpt lat="44.49789" lon="9.12276"><ele>597.0</ele><time>2026-04-25T11:48:45.995Z</time></trkpt><trkpt lat="44.4978" lon="9.1226167"><ele>595.0</ele><time>2026-04-25T11:48:46.998Z</time></trkpt><trkpt lat="44.497705" lon="9.1224733"><ele>593.0</ele><time>2026-04-25T11:48:47.999Z</time></trkpt><trkpt lat="44.497605" lon="9.1223333"><ele>597.25</ele><time>2026-04-25T11:48:48.996Z</time></trkpt><trkpt lat="44.4974983" lon="9.1221967"><ele>601.5</ele><time>2026-04-25T11:48:49.994Z</time></trkpt><trkpt lat="44.4974" lon="9.1220417"><ele>605.75</ele><time>2026-04-25T11:48:50.998Z</time></trkpt><trkpt lat="44.4973017" lon="9.1218967"><ele>610.0</ele><time>2026-04-25T11:48:51.998Z</time></trkpt><trkpt lat="44.4972117" lon="9.1217567"><ele>610.0</ele><time>2026-04-25T11:48:52.999Z</time></trkpt><trkpt lat="44.497135" lon="9.12162"><ele>610.0</ele><time>2026-04-25T11:48:53.996Z</time></trkpt><trkpt lat="44.497075" lon="9.1214767"><ele>610.0</ele><time>2026-04-25T11:48:55.003Z</time></trkpt><trkpt lat="44.497035" lon="9.1213183"><ele>610.0</ele><time>2026-04-25T11:48:55.996Z</time></trkpt><trkpt lat="44.4970133" lon="9.1211567"><ele>601.75</ele><time>2026-04-25T11:48:56.998Z</time></trkpt><trkpt lat="44.4970067" lon="9.1209917"><ele>593.5</ele><time>2026-04-25T11:48:57.995Z</time></trkpt><trkpt lat="44.49701" lon="9.1208317"><ele>585.25</ele><time>2026-04-25T11:48:58.999Z</time></trkpt><trkpt lat="44.4970417" lon="9.1206783"><ele>577.0</ele><time>2026-04-25T11:48:59.996Z</time></trkpt><trkpt lat="44.497065" lon="9.1205267"><ele>576.75</ele><time>2026-04-25T11:49:00.995Z</time></trkpt><trkpt lat="44.497085" lon="9.1203883"><ele>576.5</ele><time>2026-04-25T11:49:01.994Z</time></trkpt><trkpt lat="44.4971333" lon="9.1202817"><ele>576.25</ele><time>2026-04-25T11:49:02.997Z</time></trkpt><trkpt lat="44.49731" lon="9.1202067"><ele>576.0</ele><time>2026-04-25T11:49:03.996Z</time></trkpt><trkpt lat="44.497345" lon="9.1200717"><ele>582.5</ele><time>2026-04-25T11:49:04.994Z</time></trkpt><trkpt lat="44.4973717" lon="9.11991"><ele>589.0</ele><time>2026-04-25T11:49:06Z</time></trkpt><trkpt lat="44.4974233" lon="9.119765"><ele>595.5</ele><time>2026-04-25T11:49:06.999Z</time></trkpt><trkpt lat="44.4974567" lon="9.1195983"><ele>602.0</ele><time>2026-04-25T11:49:07.998Z</time></trkpt><trkpt lat="44.4974833" lon="9.1194383"><ele>602.0</ele><time>2026-04-25T11:49:08.994Z</time></trkpt><trkpt lat="44.49749" lon="9.1192917"><ele>602.0</ele><time>2026-04-25T11:49:09.994Z</time></trkpt><trkpt lat="44.49747" lon="9.1191667"><ele>602.0</ele><time>2026-04-25T11:49:10.991Z</time></trkpt><trkpt lat="44.497455" lon="9.1190533"><ele>602.0</ele><time>2026-04-25T11:49:11.996Z</time></trkpt><trkpt lat="44.4974233" lon="9.1189383"><ele>602.0</ele><time>2026-04-25T11:49:13.002Z</time></trkpt><trkpt lat="44.4973767" lon="9.118825"><ele>602.4</ele><time>2026-04-25T11:49:13.993Z</time></trkpt><trkpt lat="44.4973" lon="9.1187267"><ele>602.8000000000001</ele><time>2026-04-25T11:49:15.001Z</time></trkpt><trkpt lat="44.49721" lon="9.118645"><ele>603.2</ele><time>2026-04-25T11:49:15.996Z</time></trkpt><trkpt lat="44.49713" lon="9.1185833"><ele>603.6</ele><time>2026-04-25T11:49:16.995Z</time></trkpt><trkpt lat="44.497055" lon="9.11852"><ele>604.0</ele><time>2026-04-25T11:49:17.997Z</time></trkpt><trkpt lat="44.4970017" lon="9.1184383"><ele>598.1666666666667</ele><time>2026-04-25T11:49:18.998Z</time></trkpt><trkpt lat="44.4969517" lon="9.1183533"><ele>592.3333333333334</ele><time>2026-04-25T11:49:19.999Z</time></trkpt><trkpt lat="44.49692" lon="9.1182533"><ele>586.5</ele><time>2026-04-25T11:49:20.999Z</time></trkpt><trkpt lat="44.4969067" lon="9.1181383"><ele>580.6666666666666</ele><time>2026-04-25T11:49:21.996Z</time></trkpt><trkpt lat="44.4969267" lon="9.1180067"><ele>574.8333333333333</ele><time>2026-04-25T11:49:22.998Z</time></trkpt><trkpt lat="44.496955" lon="9.117895"><ele>569.0</ele><time>2026-04-25T11:49:23.996Z</time></trkpt><trkpt lat="44.497015" lon="9.1177783"><ele>568.0</ele><time>2026-04-25T11:49:24.997Z</time></trkpt><trkpt lat="44.4970817" lon="9.11767"><ele>567.0</ele><time>2026-04-25T11:49:25.994Z</time></trkpt><trkpt lat="44.49717" lon="9.1175683"><ele>566.0</ele><time>2026-04-25T11:49:26.996Z</time></trkpt><trkpt lat="44.4972617" lon="9.117475"><ele>565.0</ele><time>2026-04-25T11:49:27.995Z</time></trkpt><trkpt lat="44.4973833" lon="9.117375"><ele>563.0</ele><time>2026-04-25T11:49:28.997Z</time></trkpt><trkpt lat="44.4975083" lon="9.1172383"><ele>561.0</ele><time>2026-04-25T11:49:29.996Z</time></trkpt><trkpt lat="44.4976433" lon="9.117115"><ele>559.0</ele><time>2026-04-25T11:49:30.999Z</time></trkpt><trkpt lat="44.49776" lon="9.1169917"><ele>559.0</ele><time>2026-04-25T11:49:31.997Z</time></trkpt><trkpt lat="44.4978717" lon="9.1168217"><ele>559.0</ele><time>2026-04-25T11:49:32.997Z</time></trkpt><trkpt lat="44.49798" lon="9.1166117"><ele>559.0</ele><time>2026-04-25T11:49:33.994Z</time></trkpt><trkpt lat="44.4981267" lon="9.11643"><ele>563.6666666666667</ele><time>2026-04-25T11:49:35Z</time></trkpt><trkpt lat="44.49823" lon="9.116255"><ele>568.3333333333334</ele><time>2026-04-25T11:49:35.996Z</time></trkpt><trkpt lat="44.4982767" lon="9.1160617"><ele>573.0</ele><time>2026-04-25T11:49:36.993Z</time></trkpt><trkpt lat="44.4983283" lon="9.11587"><ele>570.5</ele><time>2026-04-25T11:49:37.999Z</time></trkpt><trkpt lat="44.4983983" lon="9.1156917"><ele>568.0</ele><time>2026-04-25T11:49:39.002Z</time></trkpt><trkpt lat="44.498455" lon="9.11551"><ele>565.5</ele><time>2026-04-25T11:49:40Z</time></trkpt><trkpt lat="44.4984867" lon="9.1153117"><ele>563.0</ele><time>2026-04-25T11:49:41Z</time></trkpt><trkpt lat="44.498495" lon="9.1150967"><ele>562.0</ele><time>2026-04-25T11:49:41.996Z</time></trkpt><trkpt lat="44.4985033" lon="9.114875"><ele>561.0</ele><time>2026-04-25T11:49:43.002Z</time></trkpt><trkpt lat="44.4985067" lon="9.11466"><ele>560.0</ele><time>2026-04-25T11:49:43.999Z</time></trkpt><trkpt lat="44.4985033" lon="9.1144683"><ele>559.0</ele><time>2026-04-25T11:49:44.999Z</time></trkpt><trkpt lat="44.4985417" lon="9.1143033"><ele>559.0</ele><time>2026-04-25T11:49:45.999Z</time></trkpt><trkpt lat="44.498575" lon="9.1141417"><ele>559.0</ele><time>2026-04-25T11:49:46.999Z</time></trkpt><trkpt lat="44.49861" lon="9.1139933"><ele>559.0</ele><time>2026-04-25T11:49:47.999Z</time></trkpt><trkpt lat="44.498605" lon="9.1138367"><ele>559.0</ele><time>2026-04-25T11:49:48.996Z</time></trkpt><trkpt lat="44.4985833" lon="9.113695"><ele>559.0</ele><time>2026-04-25T11:49:49.997Z</time></trkpt><trkpt lat="44.4985633" lon="9.1135567"><ele>557.8</ele><time>2026-04-25T11:49:50.998Z</time></trkpt><trkpt lat="44.4985733" lon="9.1134283"><ele>556.5999999999999</ele><time>2026-04-25T11:49:51.993Z</time></trkpt><trkpt lat="44.4986217" lon="9.1133267"><ele>555.4</ele><time>2026-04-25T11:49:52.995Z</time></trkpt><trkpt lat="44.4986833" lon="9.1132283"><ele>554.1999999999999</ele><time>2026-04-25T11:49:53.994Z</time></trkpt><trkpt lat="44.49879" lon="9.1131383"><ele>553.0</ele><time>2026-04-25T11:49:54.996Z</time></trkpt><trkpt lat="44.4989" lon="9.113035"><ele>559.75</ele><time>2026-04-25T11:49:56.001Z</time></trkpt><trkpt lat="44.498975" lon="9.1128933"><ele>566.5</ele><time>2026-04-25T11:49:56.995Z</time></trkpt><trkpt lat="44.4990367" lon="9.112735"><ele>573.25</ele><time>2026-04-25T11:49:57.993Z</time></trkpt><trkpt lat="44.4990983" lon="9.1125833"><ele>580.0</ele><time>2026-04-25T11:49:58.997Z</time></trkpt><trkpt lat="44.4991433" lon="9.1124233"><ele>576.75</ele><time>2026-04-25T11:50:00.007Z</time></trkpt><trkpt lat="44.4991617" lon="9.11226"><ele>573.5</ele><time>2026-04-25T11:50:00.997Z</time></trkpt><trkpt lat="44.499165" lon="9.1120917"><ele>570.25</ele><time>2026-04-25T11:50:02.007Z</time></trkpt><trkpt lat="44.499165" lon="9.111925"><ele>567.0</ele><time>2026-04-25T11:50:02.998Z</time></trkpt><trkpt lat="44.49916" lon="9.11176"><ele>567.0</ele><time>2026-04-25T11:50:03.997Z</time></trkpt><trkpt lat="44.499165" lon="9.1115933"><ele>567.0</ele><time>2026-04-25T11:50:04.998Z</time></trkpt><trkpt lat="44.4991383" lon="9.1114283"><ele>567.0</ele><time>2026-04-25T11:50:05.996Z</time></trkpt><trkpt lat="44.499095" lon="9.1112717"><ele>567.0</ele><time>2026-04-25T11:50:06.999Z</time></trkpt><trkpt lat="44.4990433" lon="9.1111233"><ele>566.8000000000001</ele><time>2026-04-25T11:50:07.996Z</time></trkpt><trkpt lat="44.499005" lon="9.1109683"><ele>566.6</ele><time>2026-04-25T11:50:08.999Z</time></trkpt><trkpt lat="44.49897" lon="9.1108217"><ele>566.4000000000001</ele><time>2026-04-25T11:50:09.993Z</time></trkpt><trkpt lat="44.49896" lon="9.1106767"><ele>566.2</ele><time>2026-04-25T11:50:10.999Z</time></trkpt><trkpt lat="44.4989467" lon="9.110535"><ele>566.0</ele><time>2026-04-25T11:50:11.996Z</time></trkpt><trkpt lat="44.498985" lon="9.11044"><ele>565.8333333333333</ele><time>2026-04-25T11:50:12.996Z</time></trkpt><trkpt lat="44.4990233" lon="9.11036"><ele>565.6666666666666</ele><time>2026-04-25T11:50:13.994Z</time></trkpt><trkpt lat="44.4990783" lon="9.1102817"><ele>565.5</ele><time>2026-04-25T11:50:14.994Z</time></trkpt><trkpt lat="44.4991633" lon="9.1102083"><ele>565.3333333333334</ele><time>2026-04-25T11:50:16Z</time></trkpt><trkpt lat="44.4992417" lon="9.11013"><ele>565.1666666666667</ele><time>2026-04-25T11:50:16.997Z</time></trkpt><trkpt lat="44.4992783" lon="9.1100233"><ele>565.0</ele><time>2026-04-25T11:50:17.996Z</time></trkpt><trkpt lat="44.49929" lon="9.1098917"><ele>564.2</ele><time>2026-04-25T11:50:18.997Z</time></trkpt><trkpt lat="44.499275" lon="9.1097517"><ele>563.4</ele><time>2026-04-25T11:50:19.993Z</time></trkpt><trkpt lat="44.4992533" lon="9.10961"><ele>562.6</ele><time>2026-04-25T11:50:21Z</time></trkpt><trkpt lat="44.4992383" lon="9.1094667"><ele>561.8</ele><time>2026-04-25T11:50:22.005Z</time></trkpt><trkpt lat="44.4992433" lon="9.1093217"><ele>561.0</ele><time>2026-04-25T11:50:22.993Z</time></trkpt><trkpt lat="44.4992717" lon="9.1091767"><ele>555.5</ele><time>2026-04-25T11:50:23.997Z</time></trkpt><trkpt lat="44.4993183" lon="9.1090267"><ele>550.0</ele><time>2026-04-25T11:50:25.001Z</time></trkpt><trkpt lat="44.4993617" lon="9.1088717"><ele>544.5</ele><time>2026-04-25T11:50:26.001Z</time></trkpt><trkpt lat="44.4993967" lon="9.1087117"><ele>539.0</ele><time>2026-04-25T11:50:26.997Z</time></trkpt><trkpt lat="44.4994267" lon="9.1085567"><ele>539.0</ele><time>2026-04-25T11:50:27.997Z</time></trkpt><trkpt lat="44.4994783" lon="9.1084183"><ele>539.0</ele><time>2026-04-25T11:50:28.996Z</time></trkpt><trkpt lat="44.4995333" lon="9.1082967"><ele>539.0</ele><time>2026-04-25T11:50:29.997Z</time></trkpt><trkpt lat="44.4996233" lon="9.108225"><ele>539.0</ele><time>2026-04-25T11:50:30.997Z</time></trkpt><trkpt lat="44.4997083" lon="9.108175"><ele>539.0</ele><time>2026-04-25T11:50:31.994Z</time></trkpt><trkpt lat="44.4998017" lon="9.1081433"><ele>539.0</ele><time>2026-04-25T11:50:32.994Z</time></trkpt><trkpt lat="44.4999133" lon="9.1081383"><ele>539.0</ele><time>2026-04-25T11:50:33.999Z</time></trkpt><trkpt lat="44.5000217" lon="9.1081217"><ele>539.0</ele><time>2026-04-25T11:50:34.996Z</time></trkpt><trkpt lat="44.5001233" lon="9.1080733"><ele>539.0</ele><time>2026-04-25T11:50:35.996Z</time></trkpt><trkpt lat="44.5002133" lon="9.1079833"><ele>539.0</ele><time>2026-04-25T11:50:36.997Z</time></trkpt><trkpt lat="44.5002983" lon="9.1078717"><ele>539.0</ele><time>2026-04-25T11:50:37.997Z</time></trkpt><trkpt lat="44.50037" lon="9.1077333"><ele>539.0</ele><time>2026-04-25T11:50:38.995Z</time></trkpt><trkpt lat="44.5004367" lon="9.10758"><ele>539.0</ele><time>2026-04-25T11:50:40.001Z</time></trkpt><trkpt lat="44.5004817" lon="9.1074133"><ele>539.0</ele><time>2026-04-25T11:50:40.996Z</time></trkpt><trkpt lat="44.500525" lon="9.1072533"><ele>544.0</ele><time>2026-04-25T11:50:41.996Z</time></trkpt><trkpt lat="44.5005433" lon="9.1070867"><ele>549.0</ele><time>2026-04-25T11:50:43Z</time></trkpt><trkpt lat="44.5005483" lon="9.1069017"><ele>554.0</ele><time>2026-04-25T11:50:43.994Z</time></trkpt><trkpt lat="44.500545" lon="9.1067067"><ele>559.0</ele><time>2026-04-25T11:50:45.001Z</time></trkpt><trkpt lat="44.5005417" lon="9.10651"><ele>559.0</ele><time>2026-04-25T11:50:45.996Z</time></trkpt><trkpt lat="44.5005367" lon="9.106295"><ele>559.0</ele><time>2026-04-25T11:50:46.993Z</time></trkpt><trkpt lat="44.50052" lon="9.1060833"><ele>559.0</ele><time>2026-04-25T11:50:47.998Z</time></trkpt><trkpt lat="44.5005183" lon="9.1059133"><ele>559.0</ele><time>2026-04-25T11:50:48.995Z</time></trkpt><trkpt lat="44.5005283" lon="9.1057733"><ele>554.2</ele><time>2026-04-25T11:50:49.995Z</time></trkpt><trkpt lat="44.50055" lon="9.1056417"><ele>549.4</ele><time>2026-04-25T11:50:50.996Z</time></trkpt><trkpt lat="44.5005983" lon="9.1055317"><ele>544.6</ele><time>2026-04-25T11:50:51.997Z</time></trkpt><trkpt lat="44.5006633" lon="9.105435"><ele>539.8</ele><time>2026-04-25T11:50:52.995Z</time></trkpt><trkpt lat="44.5007567" lon="9.1053683"><ele>535.0</ele><time>2026-04-25T11:50:53.994Z</time></trkpt><trkpt lat="44.5008683" lon="9.1053467"><ele>535.0</ele><time>2026-04-25T11:50:54.995Z</time></trkpt><trkpt lat="44.5009783" lon="9.1053417"><ele>535.0</ele><time>2026-04-25T11:50:55.996Z</time></trkpt><trkpt lat="44.5010917" lon="9.1053517"><ele>535.0</ele><time>2026-04-25T11:50:56.994Z</time></trkpt><trkpt lat="44.5012033" lon="9.1053517"><ele>535.0</ele><time>2026-04-25T11:50:57.995Z</time></trkpt><trkpt lat="44.50132" lon="9.1053517"><ele>537.0</ele><time>2026-04-25T11:50:58.995Z</time></trkpt><trkpt lat="44.50144" lon="9.1053433"><ele>539.0</ele><time>2026-04-25T11:50:59.995Z</time></trkpt><trkpt lat="44.50155" lon="9.1052833"><ele>541.0</ele><time>2026-04-25T11:51:00.996Z</time></trkpt><trkpt lat="44.50168" lon="9.1051933"><ele>543.0</ele><time>2026-04-25T11:51:01.996Z</time></trkpt><trkpt lat="44.5018083" lon="9.1050733"><ele>541.5</ele><time>2026-04-25T11:51:02.996Z</time></trkpt><trkpt lat="44.5019133" lon="9.1049033"><ele>540.0</ele><time>2026-04-25T11:51:03.998Z</time></trkpt><trkpt lat="44.5020117" lon="9.104765"><ele>538.5</ele><time>2026-04-25T11:51:04.998Z</time></trkpt><trkpt lat="44.5021167" lon="9.1046633"><ele>537.0</ele><time>2026-04-25T11:51:05.997Z</time></trkpt><trkpt lat="44.50219" lon="9.1045283"><ele>536.75</ele><time>2026-04-25T11:51:07Z</time></trkpt><trkpt lat="44.5022133" lon="9.104335"><ele>536.5</ele><time>2026-04-25T11:51:07.998Z</time></trkpt><trkpt lat="44.5022833" lon="9.1041867"><ele>536.25</ele><time>2026-04-25T11:51:08.997Z</time></trkpt><trkpt lat="44.5023767" lon="9.1040533"><ele>536.0</ele><time>2026-04-25T11:51:10Z</time></trkpt><trkpt lat="44.5024633" lon="9.1039217"><ele>534.25</ele><time>2026-04-25T11:51:11Z</time></trkpt><trkpt lat="44.502565" lon="9.1038117"><ele>532.5</ele><time>2026-04-25T11:51:12Z</time></trkpt><trkpt lat="44.5026717" lon="9.1037217"><ele>530.75</ele><time>2026-04-25T11:51:12.997Z</time></trkpt><trkpt lat="44.5027933" lon="9.10366"><ele>529.0</ele><time>2026-04-25T11:51:13.996Z</time></trkpt><trkpt lat="44.5029233" lon="9.1036117"><ele>528.5</ele><time>2026-04-25T11:51:14.997Z</time></trkpt><trkpt lat="44.5030483" lon="9.1035683"><ele>528.0</ele><time>2026-04-25T11:51:15.998Z</time></trkpt><trkpt lat="44.50318" lon="9.1035417"><ele>527.5</ele><time>2026-04-25T11:51:16.996Z</time></trkpt><trkpt lat="44.503315" lon="9.1035217"><ele>527.0</ele><time>2026-04-25T11:51:17.997Z</time></trkpt><trkpt lat="44.503445" lon="9.10349"><ele>527.0</ele><time>2026-04-25T11:51:18.998Z</time></trkpt><trkpt lat="44.5035767" lon="9.1034767"><ele>527.0</ele><time>2026-04-25T11:51:19.999Z</time></trkpt><trkpt lat="44.5037033" lon="9.103465"><ele>527.0</ele><time>2026-04-25T11:51:20.997Z</time></trkpt><trkpt lat="44.5038333" lon="9.1034717"><ele>527.0</ele><time>2026-04-25T11:51:21.994Z</time></trkpt><trkpt lat="44.503955" lon="9.103495"><ele>527.75</ele><time>2026-04-25T11:51:22.995Z</time></trkpt><trkpt lat="44.5041117" lon="9.1035817"><ele>528.5</ele><time>2026-04-25T11:51:23.996Z</time></trkpt><trkpt lat="44.5042167" lon="9.1035517"><ele>529.25</ele><time>2026-04-25T11:51:24.997Z</time></trkpt><trkpt lat="44.5043383" lon="9.10356"><ele>530.0</ele><time>2026-04-25T11:51:25.995Z</time></trkpt><trkpt lat="44.50443" lon="9.1034733"><ele>530.0</ele><time>2026-04-25T11:51:26.999Z</time></trkpt><trkpt lat="44.5045317" lon="9.103395"><ele>530.0</ele><time>2026-04-25T11:51:27.997Z</time></trkpt><trkpt lat="44.5046183" lon="9.103265"><ele>530.0</ele><time>2026-04-25T11:51:28.996Z</time></trkpt><trkpt lat="44.5046983" lon="9.103125"><ele>530.0</ele><time>2026-04-25T11:51:30.002Z</time></trkpt><trkpt lat="44.5047183" lon="9.10294"><ele>536.0</ele><time>2026-04-25T11:51:30.998Z</time></trkpt><trkpt lat="44.5047583" lon="9.1027667"><ele>542.0</ele><time>2026-04-25T11:51:32.002Z</time></trkpt><trkpt lat="44.5047817" lon="9.1025783"><ele>548.0</ele><time>2026-04-25T11:51:32.996Z</time></trkpt><trkpt lat="44.5048" lon="9.102395"><ele>554.0</ele><time>2026-04-25T11:51:34.002Z</time></trkpt><trkpt lat="44.50481" lon="9.102205"><ele>554.0</ele><time>2026-04-25T11:51:34.994Z</time></trkpt><trkpt lat="44.5047983" lon="9.10201"><ele>554.0</ele><time>2026-04-25T11:51:35.997Z</time></trkpt><trkpt lat="44.504775" lon="9.1017933"><ele>554.0</ele><time>2026-04-25T11:51:37Z</time></trkpt><trkpt lat="44.504755" lon="9.1015817"><ele>554.0</ele><time>2026-04-25T11:51:37.998Z</time></trkpt><trkpt lat="44.5046683" lon="9.1013383"><ele>555.0</ele><time>2026-04-25T11:51:39Z</time></trkpt><trkpt lat="44.5046617" lon="9.1011217"><ele>556.0</ele><time>2026-04-25T11:51:40.001Z</time></trkpt><trkpt lat="44.5046717" lon="9.1009167"><ele>557.0</ele><time>2026-04-25T11:51:40.996Z</time></trkpt><trkpt lat="44.504675" lon="9.1007133"><ele>558.0</ele><time>2026-04-25T11:51:41.993Z</time></trkpt><trkpt lat="44.5046817" lon="9.1005133"><ele>554.3333333333334</ele><time>2026-04-25T11:51:42.999Z</time></trkpt><trkpt lat="44.5046967" lon="9.10031"><ele>550.6666666666667</ele><time>2026-04-25T11:51:43.996Z</time></trkpt><trkpt lat="44.504685" lon="9.10009"><ele>547.0</ele><time>2026-04-25T11:51:44.997Z</time></trkpt><trkpt lat="44.5046817" lon="9.0998717"><ele>541.75</ele><time>2026-04-25T11:51:45.994Z</time></trkpt><trkpt lat="44.5046883" lon="9.0996533"><ele>536.5</ele><time>2026-04-25T11:51:46.995Z</time></trkpt><trkpt lat="44.504705" lon="9.099465"><ele>531.25</ele><time>2026-04-25T11:51:47.996Z</time></trkpt><trkpt lat="44.5047283" lon="9.0992817"><ele>526.0</ele><time>2026-04-25T11:51:48.995Z</time></trkpt><trkpt lat="44.5047767" lon="9.0991433"><ele>523.25</ele><time>2026-04-25T11:51:49.997Z</time></trkpt><trkpt lat="44.5048567" lon="9.0990283"><ele>520.5</ele><time>2026-04-25T11:51:50.994Z</time></trkpt><trkpt lat="44.5049567" lon="9.0989283"><ele>517.75</ele><time>2026-04-25T11:51:51.997Z</time></trkpt><trkpt lat="44.5050517" lon="9.0988167"><ele>515.0</ele><time>2026-04-25T11:51:52.995Z</time></trkpt><trkpt lat="44.50515" lon="9.098715"><ele>515.0</ele><time>2026-04-25T11:51:53.996Z</time></trkpt><trkpt lat="44.5052283" lon="9.0986233"><ele>515.0</ele><time>2026-04-25T11:51:54.996Z</time></trkpt><trkpt lat="44.5052983" lon="9.0985333"><ele>515.0</ele><time>2026-04-25T11:51:55.992Z</time></trkpt><trkpt lat="44.50538" lon="9.0984783"><ele>515.0</ele><time>2026-04-25T11:51:56.998Z</time></trkpt><trkpt lat="44.5054683" lon="9.098435"><ele>515.0</ele><time>2026-04-25T11:51:57.996Z</time></trkpt><trkpt lat="44.5055867" lon="9.09843"><ele>515.5</ele><time>2026-04-25T11:51:58.996Z</time></trkpt><trkpt lat="44.5057" lon="9.098385"><ele>516.0</ele><time>2026-04-25T11:51:59.997Z</time></trkpt><trkpt lat="44.50583" lon="9.0983317"><ele>516.5</ele><time>2026-04-25T11:52:00.995Z</time></trkpt><trkpt lat="44.505955" lon="9.09827"><ele>517.0</ele><time>2026-04-25T11:52:01.996Z</time></trkpt><trkpt lat="44.50608" lon="9.098195"><ele>517.0</ele><time>2026-04-25T11:52:02.997Z</time></trkpt><trkpt lat="44.506205" lon="9.0981117"><ele>517.0</ele><time>2026-04-25T11:52:03.999Z</time></trkpt><trkpt lat="44.5063083" lon="9.0980233"><ele>517.0</ele><time>2026-04-25T11:52:04.997Z</time></trkpt><trkpt lat="44.506415" lon="9.0979017"><ele>517.0</ele><time>2026-04-25T11:52:05.995Z</time></trkpt><trkpt lat="44.506525" lon="9.0977817"><ele>516.75</ele><time>2026-04-25T11:52:06.996Z</time></trkpt><trkpt lat="44.5066133" lon="9.097635"><ele>516.5</ele><time>2026-04-25T11:52:07.997Z</time></trkpt><trkpt lat="44.50666" lon="9.09745"><ele>516.25</ele><time>2026-04-25T11:52:08.997Z</time></trkpt><trkpt lat="44.506695" lon="9.0972467"><ele>516.0</ele><time>2026-04-25T11:52:09.997Z</time></trkpt><trkpt lat="44.5067417" lon="9.097045"><ele>516.0</ele><time>2026-04-25T11:52:10.999Z</time></trkpt><trkpt lat="44.506795" lon="9.0968483"><ele>516.0</ele><time>2026-04-25T11:52:11.992Z</time></trkpt><trkpt lat="44.5068633" lon="9.0966667"><ele>516.0</ele><time>2026-04-25T11:52:13.003Z</time></trkpt><trkpt lat="44.506935" lon="9.096495"><ele>516.0</ele><time>2026-04-25T11:52:13.996Z</time></trkpt><trkpt lat="44.5070017" lon="9.0963183"><ele>517.5</ele><time>2026-04-25T11:52:14.999Z</time></trkpt><trkpt lat="44.507055" lon="9.0961367"><ele>519.0</ele><time>2026-04-25T11:52:15.999Z</time></trkpt><trkpt lat="44.5070833" lon="9.0959433"><ele>520.5</ele><time>2026-04-25T11:52:16.996Z</time></trkpt><trkpt lat="44.5071" lon="9.09575"><ele>522.0</ele><time>2026-04-25T11:52:17.996Z</time></trkpt><trkpt lat="44.5071083" lon="9.0955667"><ele>522.25</ele><time>2026-04-25T11:52:18.998Z</time></trkpt><trkpt lat="44.5071133" lon="9.0953867"><ele>522.5</ele><time>2026-04-25T11:52:19.995Z</time></trkpt><trkpt lat="44.5071417" lon="9.0952217"><ele>522.75</ele><time>2026-04-25T11:52:20.998Z</time></trkpt><trkpt lat="44.5072" lon="9.0950733"><ele>523.0</ele><time>2026-04-25T11:52:21.997Z</time></trkpt><trkpt lat="44.5072717" lon="9.0949317"><ele>520.5</ele><time>2026-04-25T11:52:23.005Z</time></trkpt><trkpt lat="44.5073283" lon="9.0947867"><ele>518.0</ele><time>2026-04-25T11:52:24.004Z</time></trkpt><trkpt lat="44.5074283" lon="9.094655"><ele>515.5</ele><time>2026-04-25T11:52:24.999Z</time></trkpt><trkpt lat="44.507535" lon="9.094525"><ele>513.0</ele><time>2026-04-25T11:52:26Z</time></trkpt><trkpt lat="44.507635" lon="9.0943883"><ele>513.0</ele><time>2026-04-25T11:52:27Z</time></trkpt><trkpt lat="44.50774" lon="9.0942633"><ele>513.0</ele><time>2026-04-25T11:52:27.998Z</time></trkpt><trkpt lat="44.507805" lon="9.0941083"><ele>513.0</ele><time>2026-04-25T11:52:28.996Z</time></trkpt><trkpt lat="44.5078917" lon="9.0939867"><ele>513.0</ele><time>2026-04-25T11:52:29.998Z</time></trkpt><trkpt lat="44.507985" lon="9.093885"><ele>511.79999999999995</ele><time>2026-04-25T11:52:30.998Z</time></trkpt><trkpt lat="44.508075" lon="9.09377"><ele>510.59999999999997</ele><time>2026-04-25T11:52:32Z</time></trkpt><trkpt lat="44.5081717" lon="9.0937017"><ele>509.40000000000003</ele><time>2026-04-25T11:52:32.998Z</time></trkpt><trkpt lat="44.5082683" lon="9.0936417"><ele>508.20000000000005</ele><time>2026-04-25T11:52:33.996Z</time></trkpt><trkpt lat="44.5083667" lon="9.0936217"><ele>507.0</ele><time>2026-04-25T11:52:34.998Z</time></trkpt><trkpt lat="44.5085117" lon="9.093695"><ele>507.0</ele><time>2026-04-25T11:52:35.996Z</time></trkpt><trkpt lat="44.5086633" lon="9.0937917"><ele>507.0</ele><time>2026-04-25T11:52:37.001Z</time></trkpt><trkpt lat="44.5087967" lon="9.093865"><ele>507.0</ele><time>2026-04-25T11:52:37.996Z</time></trkpt><trkpt lat="44.508925" lon="9.0939233"><ele>507.0</ele><time>2026-04-25T11:52:39.002Z</time></trkpt><trkpt lat="44.509055" lon="9.0939717"><ele>507.75</ele><time>2026-04-25T11:52:39.995Z</time></trkpt><trkpt lat="44.50918" lon="9.0939933"><ele>508.5</ele><time>2026-04-25T11:52:40.995Z</time></trkpt><trkpt lat="44.509305" lon="9.0939917"><ele>509.25</ele><time>2026-04-25T11:52:42Z</time></trkpt><trkpt lat="44.5094317" lon="9.0939733"><ele>510.0</ele><time>2026-04-25T11:52:43.004Z</time></trkpt><trkpt lat="44.509565" lon="9.093935"><ele>513.25</ele><time>2026-04-25T11:52:44.005Z</time></trkpt><trkpt lat="44.5096917" lon="9.0938717"><ele>516.5</ele><time>2026-04-25T11:52:45.002Z</time></trkpt><trkpt lat="44.509825" lon="9.09381"><ele>519.75</ele><time>2026-04-25T11:52:46.001Z</time></trkpt><trkpt lat="44.5099533" lon="9.093725"><ele>523.0</ele><time>2026-04-25T11:52:46.997Z</time></trkpt><trkpt lat="44.5100467" lon="9.0936167"><ele>523.0</ele><time>2026-04-25T11:52:47.995Z</time></trkpt><trkpt lat="44.5101217" lon="9.093495"><ele>523.0</ele><time>2026-04-25T11:52:48.997Z</time></trkpt><trkpt lat="44.5101717" lon="9.0933517"><ele>523.0</ele><time>2026-04-25T11:52:49.996Z</time></trkpt><trkpt lat="44.5101983" lon="9.09319"><ele>523.0</ele><time>2026-04-25T11:52:50.999Z</time></trkpt><trkpt lat="44.510235" lon="9.0930283"><ele>521.5</ele><time>2026-04-25T11:52:52.002Z</time></trkpt><trkpt lat="44.51026" lon="9.09287"><ele>520.0</ele><time>2026-04-25T11:52:52.999Z</time></trkpt><trkpt lat="44.5102767" lon="9.0927083"><ele>518.5</ele><time>2026-04-25T11:52:53.998Z</time></trkpt><trkpt lat="44.5102867" lon="9.0925483"><ele>517.0</ele><time>2026-04-25T11:52:55Z</time></trkpt><trkpt lat="44.51026" lon="9.09238"><ele>516.0</ele><time>2026-04-25T11:52:56.001Z</time></trkpt><trkpt lat="44.5102717" lon="9.0922267"><ele>515.0</ele><time>2026-04-25T11:52:56.997Z</time></trkpt><trkpt lat="44.5102883" lon="9.0920633"><ele>514.0</ele><time>2026-04-25T11:52:57.996Z</time></trkpt><trkpt lat="44.5103017" lon="9.09192"><ele>513.0</ele><time>2026-04-25T11:52:58.998Z</time></trkpt><trkpt lat="44.51032" lon="9.09181"><ele>512.0</ele><time>2026-04-25T11:52:59.995Z</time></trkpt><trkpt lat="44.51037" lon="9.0917"><ele>514.4</ele><time>2026-04-25T11:53:01.001Z</time></trkpt><trkpt lat="44.5104133" lon="9.0916117"><ele>516.8000000000001</ele><time>2026-04-25T11:53:02.001Z</time></trkpt><trkpt lat="44.5105167" lon="9.09155"><ele>519.2</ele><time>2026-04-25T11:53:03Z</time></trkpt><trkpt lat="44.5105617" lon="9.0914433"><ele>521.6</ele><time>2026-04-25T11:53:03.999Z</time></trkpt><trkpt lat="44.5106283" lon="9.0913433"><ele>524.0</ele><time>2026-04-25T11:53:04.996Z</time></trkpt><trkpt lat="44.5106433" lon="9.0911817"><ele>526.5</ele><time>2026-04-25T11:53:05.995Z</time></trkpt><trkpt lat="44.5106167" lon="9.0910183"><ele>529.0</ele><time>2026-04-25T11:53:07Z</time></trkpt><trkpt lat="44.5105883" lon="9.09086"><ele>531.5</ele><time>2026-04-25T11:53:07.995Z</time></trkpt><trkpt lat="44.510565" lon="9.0907083"><ele>534.0</ele><time>2026-04-25T11:53:09.001Z</time></trkpt><trkpt lat="44.5105567" lon="9.0905517"><ele>535.25</ele><time>2026-04-25T11:53:09.996Z</time></trkpt><trkpt lat="44.5105717" lon="9.09039"><ele>536.5</ele><time>2026-04-25T11:53:11Z</time></trkpt><trkpt lat="44.51058" lon="9.09022"><ele>537.75</ele><time>2026-04-25T11:53:11.997Z</time></trkpt><trkpt lat="44.51057" lon="9.090035"><ele>539.0</ele><time>2026-04-25T11:53:12.999Z</time></trkpt><trkpt lat="44.5105467" lon="9.0898567"><ele>539.5</ele><time>2026-04-25T11:53:14Z</time></trkpt><trkpt lat="44.5105217" lon="9.08969"><ele>540.0</ele><time>2026-04-25T11:53:15.001Z</time></trkpt><trkpt lat="44.5105017" lon="9.0895317"><ele>540.5</ele><time>2026-04-25T11:53:15.995Z</time></trkpt><trkpt lat="44.5104383" lon="9.08939"><ele>541.0</ele><time>2026-04-25T11:53:16.995Z</time></trkpt><trkpt lat="44.5103767" lon="9.0892583"><ele>533.75</ele><time>2026-04-25T11:53:17.996Z</time></trkpt><trkpt lat="44.5102883" lon="9.0891417"><ele>526.5</ele><time>2026-04-25T11:53:18.999Z</time></trkpt><trkpt lat="44.5101917" lon="9.08905"><ele>519.25</ele><time>2026-04-25T11:53:19.995Z</time></trkpt><trkpt lat="44.5101033" lon="9.0889567"><ele>512.0</ele><time>2026-04-25T11:53:21Z</time></trkpt><trkpt lat="44.5100017" lon="9.0888883"><ele>512.0</ele><time>2026-04-25T11:53:21.997Z</time></trkpt><trkpt lat="44.5098617" lon="9.0889483"><ele>512.0</ele><time>2026-04-25T11:53:22.994Z</time></trkpt><trkpt lat="44.5097417" lon="9.0889433"><ele>512.0</ele><time>2026-04-25T11:53:24.004Z</time></trkpt><trkpt lat="44.5096367" lon="9.0889117"><ele>512.0</ele><time>2026-04-25T11:53:25.004Z</time></trkpt><trkpt lat="44.5095383" lon="9.0888717"><ele>511.99999999999994</ele><time>2026-04-25T11:53:25.997Z</time></trkpt><trkpt lat="44.5094783" lon="9.0887983"><ele>512.0</ele><time>2026-04-25T11:53:26.996Z</time></trkpt><trkpt lat="44.5094633" lon="9.0887067"><ele>512.0</ele><time>2026-04-25T11:53:28.001Z</time></trkpt><trkpt lat="44.5094517" lon="9.0885733"><ele>512.0</ele><time>2026-04-25T11:53:30.005Z</time></trkpt><trkpt lat="44.509485" lon="9.0884233"><ele>511.99999999999994</ele><time>2026-04-25T11:53:32.001Z</time></trkpt><trkpt lat="44.5095283" lon="9.0883583"><ele>512.0</ele><time>2026-04-25T11:53:33.006Z</time></trkpt><trkpt lat="44.509605" lon="9.0883033"><ele>510.25</ele><time>2026-04-25T11:53:33.996Z</time></trkpt><trkpt lat="44.5097" lon="9.0882217"><ele>508.5</ele><time>2026-04-25T11:53:35Z</time></trkpt><trkpt lat="44.5097983" lon="9.0881517"><ele>506.75</ele><time>2026-04-25T11:53:35.999Z</time></trkpt><trkpt lat="44.5099517" lon="9.0881017"><ele>505.0</ele><time>2026-04-25T11:53:36.998Z</time></trkpt><trkpt lat="44.510105" lon="9.0880567"><ele>505.0</ele><time>2026-04-25T11:53:37.994Z</time></trkpt><trkpt lat="44.510245" lon="9.08801"><ele>505.0</ele><time>2026-04-25T11:53:38.998Z</time></trkpt><trkpt lat="44.510395" lon="9.087955"><ele>505.0</ele><time>2026-04-25T11:53:40.006Z</time></trkpt><trkpt lat="44.510545" lon="9.0879183"><ele>503.75</ele><time>2026-04-25T11:53:40.995Z</time></trkpt><trkpt lat="44.5107083" lon="9.0878733"><ele>502.5</ele><time>2026-04-25T11:53:41.997Z</time></trkpt><trkpt lat="44.51086" lon="9.08782"><ele>501.25</ele><time>2026-04-25T11:53:42.996Z</time></trkpt><trkpt lat="44.5109617" lon="9.087725"><ele>500.0</ele><time>2026-04-25T11:53:44Z</time></trkpt><trkpt lat="44.5110717" lon="9.0876617"><ele>500.0</ele><time>2026-04-25T11:53:44.997Z</time></trkpt><trkpt lat="44.5111867" lon="9.0875583"><ele>500.0</ele><time>2026-04-25T11:53:45.998Z</time></trkpt><trkpt lat="44.5112617" lon="9.0874317"><ele>500.0</ele><time>2026-04-25T11:53:46.995Z</time></trkpt><trkpt lat="44.5113167" lon="9.0872783"><ele>500.0</ele><time>2026-04-25T11:53:47.996Z</time></trkpt><trkpt lat="44.5113417" lon="9.0871317"><ele>502.0</ele><time>2026-04-25T11:53:49.001Z</time></trkpt><trkpt lat="44.5113633" lon="9.0869783"><ele>504.0</ele><time>2026-04-25T11:53:49.999Z</time></trkpt><trkpt lat="44.5113867" lon="9.0868083"><ele>506.0</ele><time>2026-04-25T11:53:50.995Z</time></trkpt><trkpt lat="44.5113917" lon="9.086635"><ele>508.0</ele><time>2026-04-25T11:53:51.995Z</time></trkpt><trkpt lat="44.51142" lon="9.086485"><ele>508.0</ele><time>2026-04-25T11:53:52.995Z</time></trkpt><trkpt lat="44.511475" lon="9.0863567"><ele>507.99999999999994</ele><time>2026-04-25T11:53:53.997Z</time></trkpt><trkpt lat="44.51152" lon="9.0862283"><ele>507.99999999999994</ele><time>2026-04-25T11:53:54.996Z</time></trkpt><trkpt lat="44.51152" lon="9.0860917"><ele>508.0</ele><time>2026-04-25T11:53:55.999Z</time></trkpt><trkpt lat="44.5115433" lon="9.0859967"><ele>508.0</ele><time>2026-04-25T11:53:56.995Z</time></trkpt><trkpt lat="44.51154" lon="9.0858883"><ele>508.00000000000006</ele><time>2026-04-25T11:53:57.996Z</time></trkpt><trkpt lat="44.5115183" lon="9.0857817"><ele>508.0</ele><time>2026-04-25T11:53:59.002Z</time></trkpt><trkpt lat="44.5114917" lon="9.085685"><ele>508.0</ele><time>2026-04-25T11:53:59.997Z</time></trkpt><trkpt lat="44.5114533" lon="9.085605"><ele>508.0</ele><time>2026-04-25T11:54:01Z</time></trkpt><trkpt lat="44.5113733" lon="9.085575"><ele>508.00000000000006</ele><time>2026-04-25T11:54:01.998Z</time></trkpt><trkpt lat="44.511295" lon="9.085565"><ele>508.0</ele><time>2026-04-25T11:54:02.998Z</time></trkpt><trkpt lat="44.5110433" lon="9.08565"><ele>507.4</ele><time>2026-04-25T11:54:03.997Z</time></trkpt><trkpt lat="44.5109383" lon="9.0856367"><ele>506.79999999999995</ele><time>2026-04-25T11:54:04.994Z</time></trkpt><trkpt lat="44.5108167" lon="9.0856867"><ele>506.2</ele><time>2026-04-25T11:54:06Z</time></trkpt><trkpt lat="44.5107067" lon="9.0856667"><ele>505.6</ele><time>2026-04-25T11:54:06.999Z</time></trkpt><trkpt lat="44.5106067" lon="9.0856467"><ele>505.0</ele><time>2026-04-25T11:54:07.994Z</time></trkpt><trkpt lat="44.5105233" lon="9.0856"><ele>505.0</ele><time>2026-04-25T11:54:09Z</time></trkpt><trkpt lat="44.5104517" lon="9.085575"><ele>505.0</ele><time>2026-04-25T11:54:09.995Z</time></trkpt><trkpt lat="44.51039" lon="9.08549"><ele>505.0</ele><time>2026-04-25T11:54:10.996Z</time></trkpt><trkpt lat="44.51039" lon="9.085355"><ele>505.0</ele><time>2026-04-25T11:54:12.001Z</time></trkpt><trkpt lat="44.5104" lon="9.0852"><ele>505.0</ele><time>2026-04-25T11:54:12.997Z</time></trkpt><trkpt lat="44.5104067" lon="9.085055"><ele>503.8</ele><time>2026-04-25T11:54:13.995Z</time></trkpt><trkpt lat="44.5104033" lon="9.084915"><ele>502.6</ele><time>2026-04-25T11:54:14.996Z</time></trkpt><trkpt lat="44.5103967" lon="9.0847683"><ele>501.4</ele><time>2026-04-25T11:54:15.996Z</time></trkpt><trkpt lat="44.510365" lon="9.084645"><ele>500.2</ele><time>2026-04-25T11:54:16.994Z</time></trkpt><trkpt lat="44.5103083" lon="9.0845333"><ele>499.0</ele><time>2026-04-25T11:54:17.996Z</time></trkpt><trkpt lat="44.5102367" lon="9.0844417"><ele>499.0</ele><time>2026-04-25T11:54:18.996Z</time></trkpt><trkpt lat="44.5101533" lon="9.084355"><ele>499.0</ele><time>2026-04-25T11:54:19.997Z</time></trkpt><trkpt lat="44.5100617" lon="9.084265"><ele>499.0</ele><time>2026-04-25T11:54:21Z</time></trkpt><trkpt lat="44.5099683" lon="9.0841817"><ele>499.0</ele><time>2026-04-25T11:54:21.996Z</time></trkpt><trkpt lat="44.5098733" lon="9.0841133"><ele>499.0</ele><time>2026-04-25T11:54:23.001Z</time></trkpt><trkpt lat="44.5097683" lon="9.0840583"><ele>500.4</ele><time>2026-04-25T11:54:24.001Z</time></trkpt><trkpt lat="44.5096583" lon="9.0840183"><ele>501.79999999999995</ele><time>2026-04-25T11:54:24.995Z</time></trkpt><trkpt lat="44.50956" lon="9.0839667"><ele>503.20000000000005</ele><time>2026-04-25T11:54:25.996Z</time></trkpt><trkpt lat="44.5094717" lon="9.083905"><ele>504.6</ele><time>2026-04-25T11:54:26.997Z</time></trkpt><trkpt lat="44.50939" lon="9.0838167"><ele>506.0</ele><time>2026-04-25T11:54:27.993Z</time></trkpt><trkpt lat="44.50933" lon="9.0837"><ele>502.8</ele><time>2026-04-25T11:54:28.999Z</time></trkpt><trkpt lat="44.5093067" lon="9.0835583"><ele>499.6</ele><time>2026-04-25T11:54:29.993Z</time></trkpt><trkpt lat="44.5092917" lon="9.0834167"><ele>496.4</ele><time>2026-04-25T11:54:30.998Z</time></trkpt><trkpt lat="44.5092867" lon="9.0832667"><ele>493.2</ele><time>2026-04-25T11:54:31.994Z</time></trkpt><trkpt lat="44.5092983" lon="9.0831233"><ele>490.0</ele><time>2026-04-25T11:54:32.994Z</time></trkpt><trkpt lat="44.509305" lon="9.08297"><ele>488.5</ele><time>2026-04-25T11:54:33.997Z</time></trkpt><trkpt lat="44.509395" lon="9.0828317"><ele>487.0</ele><time>2026-04-25T11:54:34.994Z</time></trkpt><trkpt lat="44.5094833" lon="9.0826733"><ele>485.5</ele><time>2026-04-25T11:54:36.001Z</time></trkpt><trkpt lat="44.5095267" lon="9.082515"><ele>484.0</ele><time>2026-04-25T11:54:36.998Z</time></trkpt><trkpt lat="44.5095583" lon="9.0823467"><ele>489.0</ele><time>2026-04-25T11:54:37.992Z</time></trkpt><trkpt lat="44.5096133" lon="9.0821683"><ele>494.0</ele><time>2026-04-25T11:54:38.997Z</time></trkpt><trkpt lat="44.5096567" lon="9.0819833"><ele>499.0</ele><time>2026-04-25T11:54:39.995Z</time></trkpt><trkpt lat="44.5096967" lon="9.0818067"><ele>504.0</ele><time>2026-04-25T11:54:40.995Z</time></trkpt><trkpt lat="44.5097467" lon="9.0816383"><ele>500.25</ele><time>2026-04-25T11:54:41.993Z</time></trkpt><trkpt lat="44.50981" lon="9.0814767"><ele>496.5</ele><time>2026-04-25T11:54:42.994Z</time></trkpt><trkpt lat="44.509875" lon="9.0813283"><ele>492.75</ele><time>2026-04-25T11:54:43.994Z</time></trkpt><trkpt lat="44.509955" lon="9.0811833"><ele>489.0</ele><time>2026-04-25T11:54:45Z</time></trkpt><trkpt lat="44.510035" lon="9.0810417"><ele>489.0</ele><time>2026-04-25T11:54:45.993Z</time></trkpt><trkpt lat="44.51012" lon="9.0809033"><ele>489.0</ele><time>2026-04-25T11:54:46.994Z</time></trkpt><trkpt lat="44.51021" lon="9.08077"><ele>489.0</ele><time>2026-04-25T11:54:48Z</time></trkpt><trkpt lat="44.5103083" lon="9.0806467"><ele>489.0</ele><time>2026-04-25T11:54:48.996Z</time></trkpt><trkpt lat="44.5104133" lon="9.08053"><ele>488.75</ele><time>2026-04-25T11:54:49.996Z</time></trkpt><trkpt lat="44.5105133" lon="9.0804133"><ele>488.5</ele><time>2026-04-25T11:54:50.996Z</time></trkpt><trkpt lat="44.5106033" lon="9.0802967"><ele>488.25</ele><time>2026-04-25T11:54:51.996Z</time></trkpt><trkpt lat="44.5106733" lon="9.08016"><ele>488.0</ele><time>2026-04-25T11:54:52.993Z</time></trkpt><trkpt lat="44.51072" lon="9.08001"><ele>489.0</ele><time>2026-04-25T11:54:53.999Z</time></trkpt><trkpt lat="44.5107467" lon="9.0798367"><ele>490.0</ele><time>2026-04-25T11:54:54.999Z</time></trkpt><trkpt lat="44.5107717" lon="9.0796583"><ele>491.0</ele><time>2026-04-25T11:54:55.999Z</time></trkpt><trkpt lat="44.510795" lon="9.0794767"><ele>492.0</ele><time>2026-04-25T11:54:56.994Z</time></trkpt><trkpt lat="44.51084" lon="9.0793017"><ele>492.0</ele><time>2026-04-25T11:54:58.001Z</time></trkpt><trkpt lat="44.5109033" lon="9.0791383"><ele>492.0</ele><time>2026-04-25T11:54:58.993Z</time></trkpt><trkpt lat="44.510965" lon="9.0789733"><ele>492.0</ele><time>2026-04-25T11:54:59.996Z</time></trkpt><trkpt lat="44.5110333" lon="9.07881"><ele>492.0</ele><time>2026-04-25T11:55:00.994Z</time></trkpt><trkpt lat="44.5110883" lon="9.078635"><ele>492.0</ele><time>2026-04-25T11:55:01.995Z</time></trkpt><trkpt lat="44.5111583" lon="9.0784633"><ele>492.0</ele><time>2026-04-25T11:55:02.997Z</time></trkpt><trkpt lat="44.5112267" lon="9.07829"><ele>492.0</ele><time>2026-04-25T11:55:03.992Z</time></trkpt><trkpt lat="44.5112883" lon="9.0781117"><ele>492.0</ele><time>2026-04-25T11:55:04.994Z</time></trkpt><trkpt lat="44.5113533" lon="9.0779367"><ele>491.0</ele><time>2026-04-25T11:55:05.996Z</time></trkpt><trkpt lat="44.5114183" lon="9.0777667"><ele>490.0</ele><time>2026-04-25T11:55:06.998Z</time></trkpt><trkpt lat="44.511485" lon="9.0776117"><ele>489.0</ele><time>2026-04-25T11:55:07.994Z</time></trkpt><trkpt lat="44.51155" lon="9.0774633"><ele>488.0</ele><time>2026-04-25T11:55:08.993Z</time></trkpt><trkpt lat="44.51162" lon="9.0773133"><ele>485.25</ele><time>2026-04-25T11:55:09.994Z</time></trkpt><trkpt lat="44.5116967" lon="9.077185"><ele>482.5</ele><time>2026-04-25T11:55:10.995Z</time></trkpt><trkpt lat="44.5117767" lon="9.0770517"><ele>479.75</ele><time>2026-04-25T11:55:11.992Z</time></trkpt><trkpt lat="44.5118517" lon="9.0769067"><ele>477.0</ele><time>2026-04-25T11:55:12.999Z</time></trkpt><trkpt lat="44.5119217" lon="9.0767483"><ele>478.75</ele><time>2026-04-25T11:55:13.997Z</time></trkpt><trkpt lat="44.5119883" lon="9.0765783"><ele>480.5</ele><time>2026-04-25T11:55:14.999Z</time></trkpt><trkpt lat="44.512055" lon="9.0764033"><ele>482.25</ele><time>2026-04-25T11:55:15.996Z</time></trkpt><trkpt lat="44.51211" lon="9.0762067"><ele>484.0</ele><time>2026-04-25T11:55:16.993Z</time></trkpt><trkpt lat="44.512165" lon="9.0760017"><ele>486.6666666666667</ele><time>2026-04-25T11:55:17.996Z</time></trkpt><trkpt lat="44.512225" lon="9.0757967"><ele>489.33333333333337</ele><time>2026-04-25T11:55:18.992Z</time></trkpt><trkpt lat="44.5122883" lon="9.0755867"><ele>492.0</ele><time>2026-04-25T11:55:19.995Z</time></trkpt><trkpt lat="44.512345" lon="9.0753667"><ele>492.0</ele><time>2026-04-25T11:55:20.999Z</time></trkpt><trkpt lat="44.5124017" lon="9.075155"><ele>492.0</ele><time>2026-04-25T11:55:21.994Z</time></trkpt><trkpt lat="44.5124567" lon="9.07495"><ele>492.0</ele><time>2026-04-25T11:55:22.999Z</time></trkpt><trkpt lat="44.5125133" lon="9.0747617"><ele>489.5</ele><time>2026-04-25T11:55:23.994Z</time></trkpt><trkpt lat="44.5125633" lon="9.0745817"><ele>487.0</ele><time>2026-04-25T11:55:24.994Z</time></trkpt><trkpt lat="44.5126117" lon="9.0744083"><ele>484.5</ele><time>2026-04-25T11:55:25.994Z</time></trkpt><trkpt lat="44.5126533" lon="9.07424"><ele>482.0</ele><time>2026-04-25T11:55:26.994Z</time></trkpt><trkpt lat="44.51269" lon="9.07408"><ele>482.0</ele><time>2026-04-25T11:55:27.996Z</time></trkpt><trkpt lat="44.5127267" lon="9.0739217"><ele>482.0</ele><time>2026-04-25T11:55:28.996Z</time></trkpt><trkpt lat="44.5127383" lon="9.073755"><ele>482.0</ele><time>2026-04-25T11:55:29.995Z</time></trkpt><trkpt lat="44.5127483" lon="9.0735967"><ele>482.0</ele><time>2026-04-25T11:55:30.995Z</time></trkpt><trkpt lat="44.5127483" lon="9.0734283"><ele>483.0</ele><time>2026-04-25T11:55:31.997Z</time></trkpt><trkpt lat="44.51273" lon="9.0732533"><ele>484.0</ele><time>2026-04-25T11:55:32.993Z</time></trkpt><trkpt lat="44.5127017" lon="9.0730717"><ele>485.0</ele><time>2026-04-25T11:55:33.997Z</time></trkpt><trkpt lat="44.5126533" lon="9.0729"><ele>486.0</ele><time>2026-04-25T11:55:34.996Z</time></trkpt><trkpt lat="44.512595" lon="9.0727417"><ele>486.0</ele><time>2026-04-25T11:55:35.994Z</time></trkpt><trkpt lat="44.5125217" lon="9.0726033"><ele>486.0</ele><time>2026-04-25T11:55:36.996Z</time></trkpt><trkpt lat="44.51244" lon="9.07247"><ele>486.0</ele><time>2026-04-25T11:55:37.994Z</time></trkpt><trkpt lat="44.5123733" lon="9.072325"><ele>486.0</ele><time>2026-04-25T11:55:38.999Z</time></trkpt><trkpt lat="44.5123317" lon="9.0721667"><ele>486.0</ele><time>2026-04-25T11:55:39.999Z</time></trkpt><trkpt lat="44.512315" lon="9.0719933"><ele>486.0</ele><time>2026-04-25T11:55:40.994Z</time></trkpt><trkpt lat="44.5123233" lon="9.071825"><ele>486.0</ele><time>2026-04-25T11:55:41.998Z</time></trkpt><trkpt lat="44.51235" lon="9.0716633"><ele>486.0</ele><time>2026-04-25T11:55:42.996Z</time></trkpt><trkpt lat="44.512385" lon="9.0714983"><ele>485.25</ele><time>2026-04-25T11:55:43.994Z</time></trkpt><trkpt lat="44.51243" lon="9.071335"><ele>484.5</ele><time>2026-04-25T11:55:44.997Z</time></trkpt><trkpt lat="44.5124767" lon="9.07117"><ele>483.75</ele><time>2026-04-25T11:55:45.996Z</time></trkpt><trkpt lat="44.5125033" lon="9.0709967"><ele>483.0</ele><time>2026-04-25T11:55:46.999Z</time></trkpt><trkpt lat="44.5125183" lon="9.07082"><ele>484.5</ele><time>2026-04-25T11:55:47.997Z</time></trkpt><trkpt lat="44.5125283" lon="9.0706383"><ele>486.0</ele><time>2026-04-25T11:55:48.995Z</time></trkpt><trkpt lat="44.5125417" lon="9.0704583"><ele>487.5</ele><time>2026-04-25T11:55:49.997Z</time></trkpt><trkpt lat="44.512545" lon="9.0702733"><ele>489.0</ele><time>2026-04-25T11:55:50.998Z</time></trkpt><trkpt lat="44.5125117" lon="9.070065"><ele>491.25</ele><time>2026-04-25T11:55:51.999Z</time></trkpt><trkpt lat="44.51248" lon="9.069855"><ele>493.5</ele><time>2026-04-25T11:55:52.993Z</time></trkpt><trkpt lat="44.512445" lon="9.069655"><ele>495.75</ele><time>2026-04-25T11:55:53.993Z</time></trkpt><trkpt lat="44.5124133" lon="9.06945"><ele>498.0</ele><time>2026-04-25T11:55:54.995Z</time></trkpt><trkpt lat="44.5123867" lon="9.0692383"><ele>501.0</ele><time>2026-04-25T11:55:55.994Z</time></trkpt><trkpt lat="44.51235" lon="9.0690217"><ele>504.0</ele><time>2026-04-25T11:55:56.993Z</time></trkpt><trkpt lat="44.5123117" lon="9.0688067"><ele>507.0</ele><time>2026-04-25T11:55:57.996Z</time></trkpt><trkpt lat="44.512285" lon="9.06859"><ele>507.0</ele><time>2026-04-25T11:55:58.995Z</time></trkpt><trkpt lat="44.5122483" lon="9.06837"><ele>507.0</ele><time>2026-04-25T11:55:59.997Z</time></trkpt><trkpt lat="44.5122033" lon="9.0681583"><ele>507.0</ele><time>2026-04-25T11:56:00.994Z</time></trkpt><trkpt lat="44.512155" lon="9.0679567"><ele>507.5</ele><time>2026-04-25T11:56:01.999Z</time></trkpt><trkpt lat="44.51211" lon="9.0677667"><ele>508.0</ele><time>2026-04-25T11:56:03.004Z</time></trkpt><trkpt lat="44.512075" lon="9.067585"><ele>508.5</ele><time>2026-04-25T11:56:04.001Z</time></trkpt><trkpt lat="44.51206" lon="9.0674033"><ele>509.0</ele><time>2026-04-25T11:56:04.999Z</time></trkpt><trkpt lat="44.51207" lon="9.067225"><ele>504.5</ele><time>2026-04-25T11:56:05.998Z</time></trkpt><trkpt lat="44.5120867" lon="9.0670467"><ele>500.0</ele><time>2026-04-25T11:56:06.997Z</time></trkpt><trkpt lat="44.5121217" lon="9.066875"><ele>495.5</ele><time>2026-04-25T11:56:07.995Z</time></trkpt><trkpt lat="44.5121833" lon="9.066705"><ele>491.0</ele><time>2026-04-25T11:56:08.998Z</time></trkpt><trkpt lat="44.5122533" lon="9.0665283"><ele>485.5</ele><time>2026-04-25T11:56:09.997Z</time></trkpt><trkpt lat="44.5123133" lon="9.06635"><ele>480.0</ele><time>2026-04-25T11:56:10.994Z</time></trkpt><trkpt lat="44.512365" lon="9.06618"><ele>474.5</ele><time>2026-04-25T11:56:11.996Z</time></trkpt><trkpt lat="44.51245" lon="9.0660433"><ele>469.0</ele><time>2026-04-25T11:56:12.996Z</time></trkpt><trkpt lat="44.5125683" lon="9.0659617"><ele>469.0</ele><time>2026-04-25T11:56:13.996Z</time></trkpt><trkpt lat="44.512675" lon="9.0658983"><ele>469.0</ele><time>2026-04-25T11:56:14.997Z</time></trkpt><trkpt lat="44.5127833" lon="9.0658467"><ele>469.0</ele><time>2026-04-25T11:56:15.996Z</time></trkpt><trkpt lat="44.5129033" lon="9.0658217"><ele>469.0</ele><time>2026-04-25T11:56:16.994Z</time></trkpt><trkpt lat="44.513025" lon="9.06582"><ele>469.0</ele><time>2026-04-25T11:56:17.996Z</time></trkpt><trkpt lat="44.5131367" lon="9.065825"><ele>469.0</ele><time>2026-04-25T11:56:18.995Z</time></trkpt><trkpt lat="44.5132667" lon="9.065855"><ele>469.0</ele><time>2026-04-25T11:56:19.995Z</time></trkpt><trkpt lat="44.5133767" lon="9.065905"><ele>469.0</ele><time>2026-04-25T11:56:20.995Z</time></trkpt><trkpt lat="44.5134933" lon="9.0659267"><ele>469.0</ele><time>2026-04-25T11:56:21.996Z</time></trkpt><trkpt lat="44.513615" lon="9.06596"><ele>469.0</ele><time>2026-04-25T11:56:22.993Z</time></trkpt><trkpt lat="44.5137367" lon="9.0660033"><ele>469.0</ele><time>2026-04-25T11:56:23.994Z</time></trkpt><trkpt lat="44.5138567" lon="9.0660367"><ele>469.0</ele><time>2026-04-25T11:56:24.994Z</time></trkpt><trkpt lat="44.5139667" lon="9.0660733"><ele>468.75</ele><time>2026-04-25T11:56:25.993Z</time></trkpt><trkpt lat="44.5140967" lon="9.0661583"><ele>468.5</ele><time>2026-04-25T11:56:26.996Z</time></trkpt><trkpt lat="44.5142183" lon="9.0661683"><ele>468.25</ele><time>2026-04-25T11:56:27.997Z</time></trkpt><trkpt lat="44.514325" lon="9.0661333"><ele>468.0</ele><time>2026-04-25T11:56:28.997Z</time></trkpt><trkpt lat="44.514425" lon="9.0660717"><ele>468.0</ele><time>2026-04-25T11:56:29.996Z</time></trkpt><trkpt lat="44.5145083" lon="9.0659667"><ele>468.0</ele><time>2026-04-25T11:56:30.998Z</time></trkpt><trkpt lat="44.5145733" lon="9.0658317"><ele>468.0</ele><time>2026-04-25T11:56:31.995Z</time></trkpt><trkpt lat="44.514615" lon="9.0656767"><ele>468.0</ele><time>2026-04-25T11:56:32.996Z</time></trkpt><trkpt lat="44.5146617" lon="9.0655133"><ele>468.5</ele><time>2026-04-25T11:56:33.995Z</time></trkpt><trkpt lat="44.5147183" lon="9.0653567"><ele>469.0</ele><time>2026-04-25T11:56:34.994Z</time></trkpt><trkpt lat="44.5147767" lon="9.0651967"><ele>469.5</ele><time>2026-04-25T11:56:35.998Z</time></trkpt><trkpt lat="44.5148317" lon="9.0650317"><ele>470.0</ele><time>2026-04-25T11:56:36.998Z</time></trkpt><trkpt lat="44.5148867" lon="9.0648583"><ele>470.0</ele><time>2026-04-25T11:56:37.999Z</time></trkpt><trkpt lat="44.514945" lon="9.0646817"><ele>470.0</ele><time>2026-04-25T11:56:38.998Z</time></trkpt><trkpt lat="44.5149933" lon="9.0644983"><ele>470.0</ele><time>2026-04-25T11:56:39.995Z</time></trkpt><trkpt lat="44.515035" lon="9.06431"><ele>470.0</ele><time>2026-04-25T11:56:40.993Z</time></trkpt><trkpt lat="44.5150667" lon="9.0641083"><ele>467.66666666666663</ele><time>2026-04-25T11:56:41.993Z</time></trkpt><trkpt lat="44.5151017" lon="9.0639033"><ele>465.33333333333337</ele><time>2026-04-25T11:56:42.994Z</time></trkpt><trkpt lat="44.5151367" lon="9.063695"><ele>463.0</ele><time>2026-04-25T11:56:43.993Z</time></trkpt><trkpt lat="44.515165" lon="9.0634683"><ele>462.0</ele><time>2026-04-25T11:56:45Z</time></trkpt><trkpt lat="44.5151933" lon="9.0632467"><ele>461.0</ele><time>2026-04-25T11:56:45.992Z</time></trkpt><trkpt lat="44.5152233" lon="9.063025"><ele>460.0</ele><time>2026-04-25T11:56:46.993Z</time></trkpt><trkpt lat="44.5152483" lon="9.0628017"><ele>460.0</ele><time>2026-04-25T11:56:47.998Z</time></trkpt><trkpt lat="44.515265" lon="9.062585"><ele>460.0</ele><time>2026-04-25T11:56:49.003Z</time></trkpt><trkpt lat="44.5152833" lon="9.0623717"><ele>460.0</ele><time>2026-04-25T11:56:50Z</time></trkpt><trkpt lat="44.5153083" lon="9.062165"><ele>459.0</ele><time>2026-04-25T11:56:50.995Z</time></trkpt><trkpt lat="44.5153367" lon="9.0619533"><ele>458.0</ele><time>2026-04-25T11:56:51.996Z</time></trkpt><trkpt lat="44.515355" lon="9.0617467"><ele>457.0</ele><time>2026-04-25T11:56:52.994Z</time></trkpt><trkpt lat="44.51537" lon="9.06153"><ele>456.5</ele><time>2026-04-25T11:56:53.993Z</time></trkpt><trkpt lat="44.515385" lon="9.0613283"><ele>456.0</ele><time>2026-04-25T11:56:54.996Z</time></trkpt><trkpt lat="44.515415" lon="9.0611467"><ele>455.5</ele><time>2026-04-25T11:56:55.997Z</time></trkpt><trkpt lat="44.515455" lon="9.0609583"><ele>455.0</ele><time>2026-04-25T11:56:56.995Z</time></trkpt><trkpt lat="44.5155117" lon="9.0607817"><ele>455.0</ele><time>2026-04-25T11:56:57.999Z</time></trkpt><trkpt lat="44.515575" lon="9.0606183"><ele>455.0</ele><time>2026-04-25T11:56:59Z</time></trkpt><trkpt lat="44.51564" lon="9.060465"><ele>455.0</ele><time>2026-04-25T11:56:59.996Z</time></trkpt><trkpt lat="44.515715" lon="9.0603317"><ele>455.0</ele><time>2026-04-25T11:57:00.997Z</time></trkpt><trkpt lat="44.5157983" lon="9.0602083"><ele>455.0</ele><time>2026-04-25T11:57:01.996Z</time></trkpt><trkpt lat="44.5159017" lon="9.0601167"><ele>455.0</ele><time>2026-04-25T11:57:03.003Z</time></trkpt><trkpt lat="44.516005" lon="9.0600017"><ele>455.0</ele><time>2026-04-25T11:57:03.995Z</time></trkpt><trkpt lat="44.5161" lon="9.0598667"><ele>455.0</ele><time>2026-04-25T11:57:04.997Z</time></trkpt><trkpt lat="44.5162017" lon="9.059725"><ele>455.0</ele><time>2026-04-25T11:57:05.995Z</time></trkpt><trkpt lat="44.5163033" lon="9.05958"><ele>455.0</ele><time>2026-04-25T11:57:06.995Z</time></trkpt><trkpt lat="44.5163817" lon="9.0594133"><ele>455.0</ele><time>2026-04-25T11:57:08Z</time></trkpt><trkpt lat="44.5164617" lon="9.05924"><ele>455.0</ele><time>2026-04-25T11:57:08.999Z</time></trkpt><trkpt lat="44.51653" lon="9.0590583"><ele>455.0</ele><time>2026-04-25T11:57:09.997Z</time></trkpt><trkpt lat="44.516615" lon="9.05887"><ele>455.0</ele><time>2026-04-25T11:57:10.997Z</time></trkpt><trkpt lat="44.5166683" lon="9.058695"><ele>455.0</ele><time>2026-04-25T11:57:11.995Z</time></trkpt><trkpt lat="44.516715" lon="9.058545"><ele>455.0</ele><time>2026-04-25T11:57:12.996Z</time></trkpt><trkpt lat="44.51676" lon="9.0584267"><ele>455.0</ele><time>2026-04-25T11:57:14.006Z</time></trkpt><trkpt lat="44.5168" lon="9.0583067"><ele>455.0</ele><time>2026-04-25T11:57:14.997Z</time></trkpt><trkpt lat="44.5168417" lon="9.0581867"><ele>455.0</ele><time>2026-04-25T11:57:15.999Z</time></trkpt><trkpt lat="44.5168717" lon="9.0580717"><ele>455.0</ele><time>2026-04-25T11:57:17Z</time></trkpt><trkpt lat="44.516915" lon="9.057965"><ele>455.0</ele><time>2026-04-25T11:57:17.997Z</time></trkpt><trkpt lat="44.516965" lon="9.057865"><ele>455.0</ele><time>2026-04-25T11:57:18.999Z</time></trkpt><trkpt lat="44.5170317" lon="9.05778"><ele>455.0</ele><time>2026-04-25T11:57:19.994Z</time></trkpt><trkpt lat="44.5170967" lon="9.0576733"><ele>455.0</ele><time>2026-04-25T11:57:20.998Z</time></trkpt><trkpt lat="44.5171467" lon="9.0575317"><ele>455.0</ele><time>2026-04-25T11:57:21.996Z</time></trkpt><trkpt lat="44.5171867" lon="9.0573833"><ele>455.0</ele><time>2026-04-25T11:57:23Z</time></trkpt><trkpt lat="44.5172333" lon="9.05724"><ele>454.6</ele><time>2026-04-25T11:57:23.996Z</time></trkpt><trkpt lat="44.5172733" lon="9.057095"><ele>454.2</ele><time>2026-04-25T11:57:24.996Z</time></trkpt><trkpt lat="44.5173283" lon="9.0569667"><ele>453.79999999999995</ele><time>2026-04-25T11:57:25.997Z</time></trkpt><trkpt lat="44.5173717" lon="9.05684"><ele>453.4</ele><time>2026-04-25T11:57:26.996Z</time></trkpt><trkpt lat="44.5174367" lon="9.056745"><ele>453.0</ele><time>2026-04-25T11:57:27.994Z</time></trkpt><trkpt lat="44.5175167" lon="9.0566683"><ele>453.0</ele><time>2026-04-25T11:57:28.998Z</time></trkpt><trkpt lat="44.5176167" lon="9.0566217"><ele>452.99999999999994</ele><time>2026-04-25T11:57:29.999Z</time></trkpt><trkpt lat="44.5177233" lon="9.0565983"><ele>452.99999999999994</ele><time>2026-04-25T11:57:30.996Z</time></trkpt><trkpt lat="44.5178217" lon="9.0565817"><ele>453.0</ele><time>2026-04-25T11:57:32Z</time></trkpt><trkpt lat="44.517925" lon="9.056585"><ele>453.0</ele><time>2026-04-25T11:57:32.998Z</time></trkpt><trkpt lat="44.518015" lon="9.056585"><ele>451.8333333333333</ele><time>2026-04-25T11:57:33.997Z</time></trkpt><trkpt lat="44.5180967" lon="9.0565817"><ele>450.66666666666663</ele><time>2026-04-25T11:57:35.001Z</time></trkpt><trkpt lat="44.5181817" lon="9.0565667"><ele>449.5</ele><time>2026-04-25T11:57:35.997Z</time></trkpt><trkpt lat="44.5182633" lon="9.05655"><ele>448.3333333333333</ele><time>2026-04-25T11:57:36.997Z</time></trkpt><trkpt lat="44.5183467" lon="9.0565383"><ele>447.16666666666663</ele><time>2026-04-25T11:57:37.997Z</time></trkpt><trkpt lat="44.5184383" lon="9.056525"><ele>446.0</ele><time>2026-04-25T11:57:39.001Z</time></trkpt><trkpt lat="44.51853" lon="9.0565117"><ele>446.0</ele><time>2026-04-25T11:57:39.996Z</time></trkpt><trkpt lat="44.5186217" lon="9.0564983"><ele>446.0</ele><time>2026-04-25T11:57:41.001Z</time></trkpt><trkpt lat="44.51871" lon="9.0564867"><ele>446.0</ele><time>2026-04-25T11:57:41.997Z</time></trkpt><trkpt lat="44.5188" lon="9.0564767"><ele>446.0</ele><time>2026-04-25T11:57:42.995Z</time></trkpt><trkpt lat="44.5188933" lon="9.0564583"><ele>446.0</ele><time>2026-04-25T11:57:43.997Z</time></trkpt><trkpt lat="44.51899" lon="9.0564333"><ele>447.8</ele><time>2026-04-25T11:57:44.999Z</time></trkpt><trkpt lat="44.5190867" lon="9.0563933"><ele>449.6</ele><time>2026-04-25T11:57:46Z</time></trkpt><trkpt lat="44.5191767" lon="9.0563183"><ele>451.4</ele><time>2026-04-25T11:57:46.998Z</time></trkpt><trkpt lat="44.5192467" lon="9.0562267"><ele>453.2</ele><time>2026-04-25T11:57:47.996Z</time></trkpt><trkpt lat="44.5192817" lon="9.0561033"><ele>455.0</ele><time>2026-04-25T11:57:48.998Z</time></trkpt><trkpt lat="44.5192917" lon="9.0559583"><ele>455.0</ele><time>2026-04-25T11:57:49.997Z</time></trkpt><trkpt lat="44.5192883" lon="9.0558"><ele>455.0</ele><time>2026-04-25T11:57:50.995Z</time></trkpt><trkpt lat="44.5192717" lon="9.05563"><ele>455.0</ele><time>2026-04-25T11:57:51.999Z</time></trkpt><trkpt lat="44.519255" lon="9.055455"><ele>455.0</ele><time>2026-04-25T11:57:52.994Z</time></trkpt><trkpt lat="44.51922" lon="9.05528"><ele>455.25</ele><time>2026-04-25T11:57:53.998Z</time></trkpt><trkpt lat="44.51917" lon="9.0551117"><ele>455.5</ele><time>2026-04-25T11:57:54.995Z</time></trkpt><trkpt lat="44.519115" lon="9.0549517"><ele>455.75</ele><time>2026-04-25T11:57:55.994Z</time></trkpt><trkpt lat="44.5190533" lon="9.0548"><ele>456.0</ele><time>2026-04-25T11:57:57Z</time></trkpt><trkpt lat="44.51898" lon="9.0546717"><ele>456.8</ele><time>2026-04-25T11:57:57.995Z</time></trkpt><trkpt lat="44.51891" lon="9.0545433"><ele>457.6</ele><time>2026-04-25T11:57:58.996Z</time></trkpt><trkpt lat="44.518835" lon="9.05443"><ele>458.4</ele><time>2026-04-25T11:57:59.996Z</time></trkpt><trkpt lat="44.5187667" lon="9.054315"><ele>459.2</ele><time>2026-04-25T11:58:00.993Z</time></trkpt><trkpt lat="44.5187033" lon="9.054205"><ele>460.0</ele><time>2026-04-25T11:58:01.997Z</time></trkpt><trkpt lat="44.5186333" lon="9.0541067"><ele>457.75</ele><time>2026-04-25T11:58:02.998Z</time></trkpt><trkpt lat="44.518565" lon="9.0539933"><ele>455.5</ele><time>2026-04-25T11:58:03.995Z</time></trkpt><trkpt lat="44.5185067" lon="9.0538483"><ele>453.25</ele><time>2026-04-25T11:58:04.995Z</time></trkpt><trkpt lat="44.518465" lon="9.0536833"><ele>451.0</ele><time>2026-04-25T11:58:05.995Z</time></trkpt><trkpt lat="44.5184417" lon="9.0535267"><ele>451.0</ele><time>2026-04-25T11:58:06.996Z</time></trkpt><trkpt lat="44.5184167" lon="9.0533617"><ele>451.0</ele><time>2026-04-25T11:58:07.996Z</time></trkpt><trkpt lat="44.5183833" lon="9.053185"><ele>451.0</ele><time>2026-04-25T11:58:08.997Z</time></trkpt><trkpt lat="44.5183317" lon="9.0530117"><ele>451.0</ele><time>2026-04-25T11:58:09.994Z</time></trkpt><trkpt lat="44.5182817" lon="9.05285"><ele>451.75</ele><time>2026-04-25T11:58:10.998Z</time></trkpt><trkpt lat="44.5182217" lon="9.0526933"><ele>452.5</ele><time>2026-04-25T11:58:11.996Z</time></trkpt><trkpt lat="44.518165" lon="9.0525367"><ele>453.25</ele><time>2026-04-25T11:58:12.996Z</time></trkpt><trkpt lat="44.5181033" lon="9.0523867"><ele>454.0</ele><time>2026-04-25T11:58:13.994Z</time></trkpt><trkpt lat="44.5180367" lon="9.0522433"><ele>455.5</ele><time>2026-04-25T11:58:14.996Z</time></trkpt><trkpt lat="44.51796" lon="9.0521167"><ele>457.0</ele><time>2026-04-25T11:58:15.995Z</time></trkpt><trkpt lat="44.5178817" lon="9.0519867"><ele>458.5</ele><time>2026-04-25T11:58:16.999Z</time></trkpt><trkpt lat="44.5178067" lon="9.051855"><ele>460.0</ele><time>2026-04-25T11:58:17.996Z</time></trkpt><trkpt lat="44.51774" lon="9.0517167"><ele>457.25</ele><time>2026-04-25T11:58:18.995Z</time></trkpt><trkpt lat="44.5176817" lon="9.05157"><ele>454.5</ele><time>2026-04-25T11:58:19.997Z</time></trkpt><trkpt lat="44.5176367" lon="9.051415"><ele>451.75</ele><time>2026-04-25T11:58:20.997Z</time></trkpt><trkpt lat="44.5176083" lon="9.051255"><ele>449.0</ele><time>2026-04-25T11:58:21.996Z</time></trkpt><trkpt lat="44.51759" lon="9.0510833"><ele>449.0</ele><time>2026-04-25T11:58:22.998Z</time></trkpt><trkpt lat="44.5175767" lon="9.0509167"><ele>449.0</ele><time>2026-04-25T11:58:23.999Z</time></trkpt><trkpt lat="44.5175683" lon="9.0507517"><ele>449.0</ele><time>2026-04-25T11:58:24.994Z</time></trkpt><trkpt lat="44.5175767" lon="9.0506017"><ele>449.0</ele><time>2026-04-25T11:58:25.996Z</time></trkpt><trkpt lat="44.5175933" lon="9.0504567"><ele>449.0</ele><time>2026-04-25T11:58:27.001Z</time></trkpt><trkpt lat="44.517595" lon="9.050305"><ele>449.2</ele><time>2026-04-25T11:58:27.998Z</time></trkpt><trkpt lat="44.5176017" lon="9.0501567"><ele>449.4</ele><time>2026-04-25T11:58:28.994Z</time></trkpt><trkpt lat="44.51759" lon="9.0499983"><ele>449.6</ele><time>2026-04-25T11:58:29.999Z</time></trkpt><trkpt lat="44.51759" lon="9.0498417"><ele>449.8</ele><time>2026-04-25T11:58:30.997Z</time></trkpt><trkpt lat="44.517585" lon="9.0496933"><ele>450.0</ele><time>2026-04-25T11:58:31.998Z</time></trkpt><trkpt lat="44.51756" lon="9.0495567"><ele>450.0</ele><time>2026-04-25T11:58:33.001Z</time></trkpt><trkpt lat="44.5175167" lon="9.0494467"><ele>450.0</ele><time>2026-04-25T11:58:33.997Z</time></trkpt><trkpt lat="44.5174733" lon="9.0493583"><ele>450.0</ele><time>2026-04-25T11:58:35Z</time></trkpt><trkpt lat="44.5174133" lon="9.0492683"><ele>450.0</ele><time>2026-04-25T11:58:35.999Z</time></trkpt><trkpt lat="44.5173283" lon="9.0491717"><ele>450.0</ele><time>2026-04-25T11:58:36.997Z</time></trkpt><trkpt lat="44.5172517" lon="9.0490767"><ele>449.0</ele><time>2026-04-25T11:58:37.995Z</time></trkpt><trkpt lat="44.5171767" lon="9.0489583"><ele>448.0</ele><time>2026-04-25T11:58:38.998Z</time></trkpt><trkpt lat="44.517105" lon="9.048835"><ele>447.0</ele><time>2026-04-25T11:58:39.995Z</time></trkpt><trkpt lat="44.5170217" lon="9.0487267"><ele>446.0</ele><time>2026-04-25T11:58:40.998Z</time></trkpt><trkpt lat="44.5169483" lon="9.0485967"><ele>446.0</ele><time>2026-04-25T11:58:41.998Z</time></trkpt><trkpt lat="44.516885" lon="9.0484567"><ele>446.0</ele><time>2026-04-25T11:58:43.001Z</time></trkpt><trkpt lat="44.5168317" lon="9.048305"><ele>446.0</ele><time>2026-04-25T11:58:43.997Z</time></trkpt><trkpt lat="44.5167733" lon="9.0481483"><ele>446.0</ele><time>2026-04-25T11:58:44.998Z</time></trkpt><trkpt lat="44.51671" lon="9.0479933"><ele>447.75</ele><time>2026-04-25T11:58:45.994Z</time></trkpt><trkpt lat="44.516635" lon="9.04785"><ele>449.5</ele><time>2026-04-25T11:58:47Z</time></trkpt><trkpt lat="44.5165483" lon="9.0477167"><ele>451.25</ele><time>2026-04-25T11:58:47.996Z</time></trkpt><trkpt lat="44.5164283" lon="9.0476317"><ele>453.0</ele><time>2026-04-25T11:58:48.998Z</time></trkpt><trkpt lat="44.5162983" lon="9.0475867"><ele>449.75</ele><time>2026-04-25T11:58:49.998Z</time></trkpt><trkpt lat="44.5161767" lon="9.0475767"><ele>446.5</ele><time>2026-04-25T11:58:50.996Z</time></trkpt><trkpt lat="44.5160517" lon="9.0475933"><ele>443.25</ele><time>2026-04-25T11:58:51.997Z</time></trkpt><trkpt lat="44.51593" lon="9.04762"><ele>440.0</ele><time>2026-04-25T11:58:52.995Z</time></trkpt><trkpt lat="44.5157967" lon="9.0476583"><ele>440.0</ele><time>2026-04-25T11:58:53.995Z</time></trkpt><trkpt lat="44.5156783" lon="9.0476883"><ele>440.0</ele><time>2026-04-25T11:58:54.998Z</time></trkpt><trkpt lat="44.515555" lon="9.047725"><ele>440.0</ele><time>2026-04-25T11:58:55.998Z</time></trkpt><trkpt lat="44.5154317" lon="9.0477633"><ele>440.0</ele><time>2026-04-25T11:58:56.996Z</time></trkpt><trkpt lat="44.5153083" lon="9.0478033"><ele>440.4</ele><time>2026-04-25T11:58:57.998Z</time></trkpt><trkpt lat="44.5151933" lon="9.0478417"><ele>440.8</ele><time>2026-04-25T11:58:58.999Z</time></trkpt><trkpt lat="44.5150783" lon="9.047875"><ele>441.20000000000005</ele><time>2026-04-25T11:58:59.998Z</time></trkpt><trkpt lat="44.514965" lon="9.0479017"><ele>441.6</ele><time>2026-04-25T11:59:00.999Z</time></trkpt><trkpt lat="44.51487" lon="9.0479117"><ele>442.0</ele><time>2026-04-25T11:59:02.001Z</time></trkpt><trkpt lat="44.5147783" lon="9.047905"><ele>442.0</ele><time>2026-04-25T11:59:02.997Z</time></trkpt><trkpt lat="44.5146917" lon="9.0478633"><ele>442.00000000000006</ele><time>2026-04-25T11:59:04.001Z</time></trkpt><trkpt lat="44.5146467" lon="9.047765"><ele>442.00000000000006</ele><time>2026-04-25T11:59:05Z</time></trkpt><trkpt lat="44.5146283" lon="9.0475933"><ele>442.0</ele><time>2026-04-25T11:59:06.001Z</time></trkpt><trkpt lat="44.5145933" lon="9.0474433"><ele>442.0</ele><time>2026-04-25T11:59:06.996Z</time></trkpt><trkpt lat="44.5145617" lon="9.0472783"><ele>443.33333333333337</ele><time>2026-04-25T11:59:07.996Z</time></trkpt><trkpt lat="44.514535" lon="9.0471067"><ele>444.66666666666663</ele><time>2026-04-25T11:59:08.997Z</time></trkpt><trkpt lat="44.5145517" lon="9.04684"><ele>446.0</ele><time>2026-04-25T11:59:09.996Z</time></trkpt><trkpt lat="44.514525" lon="9.0466433"><ele>445.5</ele><time>2026-04-25T11:59:10.997Z</time></trkpt><trkpt lat="44.5144867" lon="9.0464767"><ele>445.0</ele><time>2026-04-25T11:59:11.995Z</time></trkpt><trkpt lat="44.514445" lon="9.0463067"><ele>444.5</ele><time>2026-04-25T11:59:13.001Z</time></trkpt><trkpt lat="44.514405" lon="9.0461383"><ele>444.0</ele><time>2026-04-25T11:59:14Z</time></trkpt><trkpt lat="44.5143667" lon="9.0459733"><ele>444.0</ele><time>2026-04-25T11:59:14.995Z</time></trkpt><trkpt lat="44.514335" lon="9.0458033"><ele>444.0</ele><time>2026-04-25T11:59:16.001Z</time></trkpt><trkpt lat="44.5143033" lon="9.045635"><ele>444.0</ele><time>2026-04-25T11:59:16.997Z</time></trkpt><trkpt lat="44.5143" lon="9.0454633"><ele>444.0</ele><time>2026-04-25T11:59:17.996Z</time></trkpt><trkpt lat="44.5142767" lon="9.0453033"><ele>443.75</ele><time>2026-04-25T11:59:18.995Z</time></trkpt><trkpt lat="44.5142567" lon="9.04514"><ele>443.5</ele><time>2026-04-25T11:59:19.996Z</time></trkpt><trkpt lat="44.5142267" lon="9.044975"><ele>443.25</ele><time>2026-04-25T11:59:20.998Z</time></trkpt><trkpt lat="44.5142033" lon="9.044815"><ele>443.0</ele><time>2026-04-25T11:59:21.997Z</time></trkpt><trkpt lat="44.5141833" lon="9.044665"><ele>442.75</ele><time>2026-04-25T11:59:22.998Z</time></trkpt><trkpt lat="44.5141483" lon="9.04451"><ele>442.5</ele><time>2026-04-25T11:59:23.994Z</time></trkpt><trkpt lat="44.5141017" lon="9.044345"><ele>442.25</ele><time>2026-04-25T11:59:24.996Z</time></trkpt><trkpt lat="44.514065" lon="9.0441817"><ele>442.0</ele><time>2026-04-25T11:59:25.997Z</time></trkpt><trkpt lat="44.5140167" lon="9.0440133"><ele>441.25</ele><time>2026-04-25T11:59:27.004Z</time></trkpt><trkpt lat="44.5139733" lon="9.043845"><ele>440.5</ele><time>2026-04-25T11:59:27.995Z</time></trkpt><trkpt lat="44.5139267" lon="9.0436767"><ele>439.75</ele><time>2026-04-25T11:59:29.001Z</time></trkpt><trkpt lat="44.513895" lon="9.0435033"><ele>439.0</ele><time>2026-04-25T11:59:30.001Z</time></trkpt><trkpt lat="44.513875" lon="9.0433233"><ele>439.25</ele><time>2026-04-25T11:59:30.998Z</time></trkpt><trkpt lat="44.5138617" lon="9.0431467"><ele>439.5</ele><time>2026-04-25T11:59:31.999Z</time></trkpt><trkpt lat="44.5138367" lon="9.04298"><ele>439.75</ele><time>2026-04-25T11:59:32.998Z</time></trkpt><trkpt lat="44.51378" lon="9.0428183"><ele>440.0</ele><time>2026-04-25T11:59:33.997Z</time></trkpt><trkpt lat="44.5137183" lon="9.04266"><ele>443.5</ele><time>2026-04-25T11:59:34.994Z</time></trkpt><trkpt lat="44.5136483" lon="9.0425067"><ele>447.0</ele><time>2026-04-25T11:59:35.999Z</time></trkpt><trkpt lat="44.5135833" lon="9.0423517"><ele>450.5</ele><time>2026-04-25T11:59:36.996Z</time></trkpt><trkpt lat="44.51352" lon="9.042195"><ele>454.0</ele><time>2026-04-25T11:59:37.999Z</time></trkpt><trkpt lat="44.513455" lon="9.0420433"><ele>454.0</ele><time>2026-04-25T11:59:38.997Z</time></trkpt><trkpt lat="44.5134" lon="9.041895"><ele>454.0</ele><time>2026-04-25T11:59:39.993Z</time></trkpt><trkpt lat="44.5133533" lon="9.041755"><ele>454.0</ele><time>2026-04-25T11:59:40.996Z</time></trkpt><trkpt lat="44.5133267" lon="9.041605"><ele>454.0</ele><time>2026-04-25T11:59:41.991Z</time></trkpt><trkpt lat="44.5133367" lon="9.0414467"><ele>454.0</ele><time>2026-04-25T11:59:43Z</time></trkpt><trkpt lat="44.51337" lon="9.0412833"><ele>454.0</ele><time>2026-04-25T11:59:43.996Z</time></trkpt><trkpt lat="44.5134083" lon="9.0411267"><ele>454.0</ele><time>2026-04-25T11:59:44.996Z</time></trkpt><trkpt lat="44.5134467" lon="9.0409717"><ele>454.0</ele><time>2026-04-25T11:59:45.995Z</time></trkpt><trkpt lat="44.51345" lon="9.0407983"><ele>454.0</ele><time>2026-04-25T11:59:46.998Z</time></trkpt><trkpt lat="44.5134283" lon="9.0406167"><ele>454.0</ele><time>2026-04-25T11:59:48Z</time></trkpt><trkpt lat="44.5133883" lon="9.0404383"><ele>454.0</ele><time>2026-04-25T11:59:48.997Z</time></trkpt><trkpt lat="44.51334" lon="9.0402583"><ele>454.0</ele><time>2026-04-25T11:59:49.999Z</time></trkpt><trkpt lat="44.51328" lon="9.0400717"><ele>452.75</ele><time>2026-04-25T11:59:51.004Z</time></trkpt><trkpt lat="44.5132233" lon="9.0398867"><ele>451.5</ele><time>2026-04-25T11:59:51.998Z</time></trkpt><trkpt lat="44.5131567" lon="9.0397"><ele>450.25</ele><time>2026-04-25T11:59:52.996Z</time></trkpt><trkpt lat="44.5130867" lon="9.0395217"><ele>449.0</ele><time>2026-04-25T11:59:53.998Z</time></trkpt><trkpt lat="44.5130067" lon="9.0393617"><ele>449.0</ele><time>2026-04-25T11:59:55Z</time></trkpt><trkpt lat="44.51291" lon="9.0392233"><ele>449.0</ele><time>2026-04-25T11:59:55.995Z</time></trkpt><trkpt lat="44.5128233" lon="9.03909"><ele>449.0</ele><time>2026-04-25T11:59:56.995Z</time></trkpt><trkpt lat="44.512755" lon="9.0389417"><ele>449.0</ele><time>2026-04-25T11:59:57.996Z</time></trkpt><trkpt lat="44.51272" lon="9.0387817"><ele>452.99999999999994</ele><time>2026-04-25T11:59:58.995Z</time></trkpt><trkpt lat="44.5127" lon="9.0386383"><ele>457.0</ele><time>2026-04-25T12:00:00.003Z</time></trkpt><trkpt lat="44.512695" lon="9.0385167"><ele>461.0</ele><time>2026-04-25T12:00:01Z</time></trkpt><trkpt lat="44.512695" lon="9.0384117"><ele>465.0</ele><time>2026-04-25T12:00:01.997Z</time></trkpt><trkpt lat="44.512705" lon="9.0383083"><ele>468.99999999999994</ele><time>2026-04-25T12:00:02.996Z</time></trkpt><trkpt lat="44.51274" lon="9.03821"><ele>473.0</ele><time>2026-04-25T12:00:04.002Z</time></trkpt><trkpt lat="44.51279" lon="9.0381383"><ele>474.66666666666663</ele><time>2026-04-25T12:00:04.996Z</time></trkpt><trkpt lat="44.5128467" lon="9.0380683"><ele>476.3333333333333</ele><time>2026-04-25T12:00:05.996Z</time></trkpt><trkpt lat="44.5129083" lon="9.0380117"><ele>478.0</ele><time>2026-04-25T12:00:07Z</time></trkpt><trkpt lat="44.5129783" lon="9.0379717"><ele>479.66666666666663</ele><time>2026-04-25T12:00:07.998Z</time></trkpt><trkpt lat="44.51304" lon="9.0379417"><ele>481.3333333333333</ele><time>2026-04-25T12:00:08.998Z</time></trkpt><trkpt lat="44.5131267" lon="9.0379617"><ele>483.0</ele><time>2026-04-25T12:00:09.995Z</time></trkpt><trkpt lat="44.51331" lon="9.038175"><ele>478.25</ele><time>2026-04-25T12:00:11.002Z</time></trkpt><trkpt lat="44.51344" lon="9.0383167"><ele>473.5</ele><time>2026-04-25T12:00:11.996Z</time></trkpt><trkpt lat="44.5135833" lon="9.03838"><ele>468.75</ele><time>2026-04-25T12:00:12.998Z</time></trkpt><trkpt lat="44.5137033" lon="9.03837"><ele>464.0</ele><time>2026-04-25T12:00:13.998Z</time></trkpt><trkpt lat="44.5138167" lon="9.0382967"><ele>460.5</ele><time>2026-04-25T12:00:15.004Z</time></trkpt><trkpt lat="44.5139117" lon="9.03818"><ele>457.0</ele><time>2026-04-25T12:00:15.995Z</time></trkpt><trkpt lat="44.51399" lon="9.038035"><ele>453.5</ele><time>2026-04-25T12:00:17.003Z</time></trkpt><trkpt lat="44.51405" lon="9.0378633"><ele>450.0</ele><time>2026-04-25T12:00:17.997Z</time></trkpt><trkpt lat="44.5140883" lon="9.0376883"><ele>450.0</ele><time>2026-04-25T12:00:18.994Z</time></trkpt><trkpt lat="44.514095" lon="9.0374917"><ele>450.0</ele><time>2026-04-25T12:00:19.996Z</time></trkpt><trkpt lat="44.5140683" lon="9.0372983"><ele>450.0</ele><time>2026-04-25T12:00:21.001Z</time></trkpt><trkpt lat="44.5140083" lon="9.0371217"><ele>450.0</ele><time>2026-04-25T12:00:22Z</time></trkpt><trkpt lat="44.51393" lon="9.036955"><ele>448.75</ele><time>2026-04-25T12:00:22.998Z</time></trkpt><trkpt lat="44.5138317" lon="9.0367967"><ele>447.5</ele><time>2026-04-25T12:00:24Z</time></trkpt><trkpt lat="44.5137567" lon="9.036645"><ele>446.25</ele><time>2026-04-25T12:00:24.996Z</time></trkpt><trkpt lat="44.5136833" lon="9.0365067"><ele>445.0</ele><time>2026-04-25T12:00:26.001Z</time></trkpt><trkpt lat="44.513665" lon="9.03634"><ele>447.5</ele><time>2026-04-25T12:00:26.998Z</time></trkpt><trkpt lat="44.513665" lon="9.0361617"><ele>450.0</ele><time>2026-04-25T12:00:27.999Z</time></trkpt><trkpt lat="44.51366" lon="9.0359633"><ele>452.5</ele><time>2026-04-25T12:00:28.995Z</time></trkpt><trkpt lat="44.513635" lon="9.0357683"><ele>455.0</ele><time>2026-04-25T12:00:29.998Z</time></trkpt><trkpt lat="44.5135867" lon="9.0355633"><ele>455.0</ele><time>2026-04-25T12:00:31Z</time></trkpt><trkpt lat="44.513535" lon="9.0353567"><ele>455.0</ele><time>2026-04-25T12:00:31.995Z</time></trkpt><trkpt lat="44.51348" lon="9.0351567"><ele>455.0</ele><time>2026-04-25T12:00:33.004Z</time></trkpt><trkpt lat="44.5134133" lon="9.0349617"><ele>452.25</ele><time>2026-04-25T12:00:34Z</time></trkpt><trkpt lat="44.5133533" lon="9.0347717"><ele>449.5</ele><time>2026-04-25T12:00:35.002Z</time></trkpt><trkpt lat="44.513285" lon="9.0345883"><ele>446.75</ele><time>2026-04-25T12:00:36Z</time></trkpt><trkpt lat="44.5132083" lon="9.0344183"><ele>444.0</ele><time>2026-04-25T12:00:36.996Z</time></trkpt><trkpt lat="44.5131067" lon="9.0342683"><ele>444.25</ele><time>2026-04-25T12:00:37.999Z</time></trkpt><trkpt lat="44.513005" lon="9.0341333"><ele>444.5</ele><time>2026-04-25T12:00:39.003Z</time></trkpt><trkpt lat="44.5128967" lon="9.0340133"><ele>444.75</ele><time>2026-04-25T12:00:39.999Z</time></trkpt><trkpt lat="44.5128067" lon="9.0338883"><ele>445.0</ele><time>2026-04-25T12:00:41Z</time></trkpt><trkpt lat="44.5127717" lon="9.033725"><ele>448.75</ele><time>2026-04-25T12:00:41.994Z</time></trkpt><trkpt lat="44.5127733" lon="9.03354"><ele>452.5</ele><time>2026-04-25T12:00:42.999Z</time></trkpt><trkpt lat="44.512815" lon="9.03335"><ele>456.25</ele><time>2026-04-25T12:00:43.997Z</time></trkpt><trkpt lat="44.5129083" lon="9.03316"><ele>460.0</ele><time>2026-04-25T12:00:45.001Z</time></trkpt><trkpt lat="44.5130417" lon="9.032975"><ele>460.0</ele><time>2026-04-25T12:00:46Z</time></trkpt><trkpt lat="44.5131417" lon="9.0328183"><ele>460.0</ele><time>2026-04-25T12:00:46.998Z</time></trkpt><trkpt lat="44.513275" lon="9.0326683"><ele>460.0</ele><time>2026-04-25T12:00:47.996Z</time></trkpt><trkpt lat="44.5133983" lon="9.0325017"><ele>455.6666666666667</ele><time>2026-04-25T12:00:48.996Z</time></trkpt><trkpt lat="44.5135183" lon="9.0323733"><ele>451.33333333333337</ele><time>2026-04-25T12:00:49.997Z</time></trkpt><trkpt lat="44.5136317" lon="9.03222"><ele>447.0</ele><time>2026-04-25T12:00:50.998Z</time></trkpt><trkpt lat="44.5137633" lon="9.0320533"><ele>447.0</ele><time>2026-04-25T12:00:51.999Z</time></trkpt><trkpt lat="44.5138717" lon="9.0319067"><ele>447.0</ele><time>2026-04-25T12:00:52.997Z</time></trkpt><trkpt lat="44.5139783" lon="9.03177"><ele>447.0</ele><time>2026-04-25T12:00:53.998Z</time></trkpt><trkpt lat="44.5140833" lon="9.0316433"><ele>447.0</ele><time>2026-04-25T12:00:54.993Z</time></trkpt><trkpt lat="44.51419" lon="9.0315183"><ele>450.25</ele><time>2026-04-25T12:00:56Z</time></trkpt><trkpt lat="44.5143033" lon="9.0313883"><ele>453.5</ele><time>2026-04-25T12:00:56.996Z</time></trkpt><trkpt lat="44.5144083" lon="9.03125"><ele>456.75</ele><time>2026-04-25T12:00:57.999Z</time></trkpt><trkpt lat="44.5144933" lon="9.0311067"><ele>460.0</ele><time>2026-04-25T12:00:58.996Z</time></trkpt><trkpt lat="44.514565" lon="9.030945"><ele>453.75</ele><time>2026-04-25T12:01:00Z</time></trkpt><trkpt lat="44.5146333" lon="9.0307783"><ele>447.5</ele><time>2026-04-25T12:01:01.004Z</time></trkpt><trkpt lat="44.5146917" lon="9.0306117"><ele>441.25</ele><time>2026-04-25T12:01:01.998Z</time></trkpt><trkpt lat="44.514745" lon="9.030425"><ele>435.0</ele><time>2026-04-25T12:01:03Z</time></trkpt><trkpt lat="44.5147933" lon="9.0302267"><ele>435.0</ele><time>2026-04-25T12:01:03.993Z</time></trkpt><trkpt lat="44.5148383" lon="9.03002"><ele>435.0</ele><time>2026-04-25T12:01:04.992Z</time></trkpt><trkpt lat="44.514885" lon="9.029815"><ele>435.0</ele><time>2026-04-25T12:01:05.998Z</time></trkpt><trkpt lat="44.514925" lon="9.0296017"><ele>434.33333333333337</ele><time>2026-04-25T12:01:06.997Z</time></trkpt><trkpt lat="44.5149583" lon="9.0293883"><ele>433.6666666666667</ele><time>2026-04-25T12:01:07.995Z</time></trkpt><trkpt lat="44.5149933" lon="9.0291833"><ele>433.0</ele><time>2026-04-25T12:01:08.996Z</time></trkpt><trkpt lat="44.51503" lon="9.0289783"><ele>433.0</ele><time>2026-04-25T12:01:09.995Z</time></trkpt><trkpt lat="44.5150833" lon="9.0287733"><ele>433.0</ele><time>2026-04-25T12:01:10.995Z</time></trkpt><trkpt lat="44.5151283" lon="9.0285667"><ele>433.0</ele><time>2026-04-25T12:01:11.996Z</time></trkpt><trkpt lat="44.51517" lon="9.0283617"><ele>433.25</ele><time>2026-04-25T12:01:13.005Z</time></trkpt><trkpt lat="44.515205" lon="9.02816"><ele>433.5</ele><time>2026-04-25T12:01:13.999Z</time></trkpt><trkpt lat="44.51524" lon="9.02796"><ele>433.75</ele><time>2026-04-25T12:01:14.998Z</time></trkpt><trkpt lat="44.5152633" lon="9.027755"><ele>434.0</ele><time>2026-04-25T12:01:15.997Z</time></trkpt><trkpt lat="44.515295" lon="9.0275567"><ele>433.25</ele><time>2026-04-25T12:01:17.003Z</time></trkpt><trkpt lat="44.5153283" lon="9.0273567"><ele>432.5</ele><time>2026-04-25T12:01:18.001Z</time></trkpt><trkpt lat="44.5153583" lon="9.0271567"><ele>431.75</ele><time>2026-04-25T12:01:18.999Z</time></trkpt><trkpt lat="44.5153883" lon="9.0269517"><ele>431.0</ele><time>2026-04-25T12:01:19.997Z</time></trkpt><trkpt lat="44.5154167" lon="9.0267483"><ele>430.25</ele><time>2026-04-25T12:01:21.002Z</time></trkpt><trkpt lat="44.51545" lon="9.026545"><ele>429.5</ele><time>2026-04-25T12:01:22Z</time></trkpt><trkpt lat="44.5154817" lon="9.02634"><ele>428.75</ele><time>2026-04-25T12:01:23.003Z</time></trkpt><trkpt lat="44.5155033" lon="9.0261367"><ele>428.0</ele><time>2026-04-25T12:01:23.991Z</time></trkpt><trkpt lat="44.515515" lon="9.0259383"><ele>427.75</ele><time>2026-04-25T12:01:25.001Z</time></trkpt><trkpt lat="44.515515" lon="9.0257467"><ele>427.5</ele><time>2026-04-25T12:01:26.002Z</time></trkpt><trkpt lat="44.5155083" lon="9.02556"><ele>427.25</ele><time>2026-04-25T12:01:27.005Z</time></trkpt><trkpt lat="44.5155017" lon="9.02538"><ele>427.0</ele><time>2026-04-25T12:01:27.997Z</time></trkpt><trkpt lat="44.5155033" lon="9.0252017"><ele>427.0</ele><time>2026-04-25T12:01:29.003Z</time></trkpt><trkpt lat="44.5155167" lon="9.0250333"><ele>427.0</ele><time>2026-04-25T12:01:30Z</time></trkpt><trkpt lat="44.5155433" lon="9.0248667"><ele>427.0</ele><time>2026-04-25T12:01:31.003Z</time></trkpt><trkpt lat="44.5155917" lon="9.0247317"><ele>427.0</ele><time>2026-04-25T12:01:32.001Z</time></trkpt><trkpt lat="44.51567" lon="9.0246133"><ele>428.5</ele><time>2026-04-25T12:01:33.002Z</time></trkpt><trkpt lat="44.5157783" lon="9.0245167"><ele>430.0</ele><time>2026-04-25T12:01:33.996Z</time></trkpt><trkpt lat="44.5158833" lon="9.02442"><ele>431.5</ele><time>2026-04-25T12:01:34.996Z</time></trkpt><trkpt lat="44.5159967" lon="9.0243183"><ele>433.0</ele><time>2026-04-25T12:01:36.001Z</time></trkpt><trkpt lat="44.5161117" lon="9.0242233"><ele>433.25</ele><time>2026-04-25T12:01:37.001Z</time></trkpt><trkpt lat="44.5162233" lon="9.0241267"><ele>433.5</ele><time>2026-04-25T12:01:37.997Z</time></trkpt><trkpt lat="44.516325" lon="9.0240233"><ele>433.75</ele><time>2026-04-25T12:01:38.999Z</time></trkpt><trkpt lat="44.5164133" lon="9.0239067"><ele>434.0</ele><time>2026-04-25T12:01:39.995Z</time></trkpt><trkpt lat="44.5164783" lon="9.02377"><ele>433.75</ele><time>2026-04-25T12:01:40.995Z</time></trkpt><trkpt lat="44.5165217" lon="9.023615"><ele>433.5</ele><time>2026-04-25T12:01:41.997Z</time></trkpt><trkpt lat="44.516555" lon="9.023445"><ele>433.25</ele><time>2026-04-25T12:01:43.001Z</time></trkpt><trkpt lat="44.516585" lon="9.0232717"><ele>433.0</ele><time>2026-04-25T12:01:44Z</time></trkpt><trkpt lat="44.516615" lon="9.0230967"><ele>433.0</ele><time>2026-04-25T12:01:44.997Z</time></trkpt><trkpt lat="44.51665" lon="9.02293"><ele>433.0</ele><time>2026-04-25T12:01:46Z</time></trkpt><trkpt lat="44.5167017" lon="9.0227667"><ele>433.0</ele><time>2026-04-25T12:01:47.002Z</time></trkpt><trkpt lat="44.5167617" lon="9.0225933"><ele>433.0</ele><time>2026-04-25T12:01:48Z</time></trkpt><trkpt lat="44.5168367" lon="9.022435"><ele>432.75</ele><time>2026-04-25T12:01:49.001Z</time></trkpt><trkpt lat="44.5169283" lon="9.02229"><ele>432.5</ele><time>2026-04-25T12:01:49.999Z</time></trkpt><trkpt lat="44.5170267" lon="9.0221533"><ele>432.25</ele><time>2026-04-25T12:01:51.001Z</time></trkpt><trkpt lat="44.5171333" lon="9.0220367"><ele>432.0</ele><time>2026-04-25T12:01:51.995Z</time></trkpt><trkpt lat="44.51726" lon="9.0219167"><ele>432.0</ele><time>2026-04-25T12:01:53Z</time></trkpt><trkpt lat="44.51738" lon="9.0218067"><ele>432.0</ele><time>2026-04-25T12:01:54.001Z</time></trkpt><trkpt lat="44.5174967" lon="9.02169"><ele>432.0</ele><time>2026-04-25T12:01:54.995Z</time></trkpt><trkpt lat="44.5176067" lon="9.0215667"><ele>432.0</ele><time>2026-04-25T12:01:55.994Z</time></trkpt><trkpt lat="44.5177117" lon="9.021445"><ele>432.75</ele><time>2026-04-25T12:01:56.996Z</time></trkpt><trkpt lat="44.5178217" lon="9.0213267"><ele>433.5</ele><time>2026-04-25T12:01:58Z</time></trkpt><trkpt lat="44.51793" lon="9.02121"><ele>434.25</ele><time>2026-04-25T12:01:58.996Z</time></trkpt><trkpt lat="44.5180467" lon="9.021115"><ele>435.0</ele><time>2026-04-25T12:01:59.997Z</time></trkpt><trkpt lat="44.5181667" lon="9.02103"><ele>435.0</ele><time>2026-04-25T12:02:00.997Z</time></trkpt><trkpt lat="44.5182867" lon="9.0209633"><ele>435.0</ele><time>2026-04-25T12:02:01.996Z</time></trkpt><trkpt lat="44.518405" lon="9.0208983"><ele>435.0</ele><time>2026-04-25T12:02:02.995Z</time></trkpt><trkpt lat="44.5185233" lon="9.0208267"><ele>435.0</ele><time>2026-04-25T12:02:03.994Z</time></trkpt><trkpt lat="44.51864" lon="9.02074"><ele>434.25</ele><time>2026-04-25T12:02:04.999Z</time></trkpt><trkpt lat="44.5187583" lon="9.020645"><ele>433.5</ele><time>2026-04-25T12:02:05.997Z</time></trkpt><trkpt lat="44.51888" lon="9.0205483"><ele>432.75</ele><time>2026-04-25T12:02:06.996Z</time></trkpt><trkpt lat="44.5189983" lon="9.0204483"><ele>432.0</ele><time>2026-04-25T12:02:07.996Z</time></trkpt><trkpt lat="44.5191167" lon="9.0203417"><ele>432.0</ele><time>2026-04-25T12:02:08.997Z</time></trkpt><trkpt lat="44.51923" lon="9.0202317"><ele>432.0</ele><time>2026-04-25T12:02:09.999Z</time></trkpt><trkpt lat="44.5193417" lon="9.0201167"><ele>432.0</ele><time>2026-04-25T12:02:10.995Z</time></trkpt><trkpt lat="44.51945" lon="9.0199867"><ele>432.0</ele><time>2026-04-25T12:02:11.998Z</time></trkpt><trkpt lat="44.5195517" lon="9.019855"><ele>431.5</ele><time>2026-04-25T12:02:13.001Z</time></trkpt><trkpt lat="44.51965" lon="9.0197183"><ele>431.0</ele><time>2026-04-25T12:02:14Z</time></trkpt><trkpt lat="44.519745" lon="9.0195783"><ele>430.5</ele><time>2026-04-25T12:02:14.998Z</time></trkpt><trkpt lat="44.5198367" lon="9.0194367"><ele>430.0</ele><time>2026-04-25T12:02:15.997Z</time></trkpt><trkpt lat="44.51993" lon="9.0192867"><ele>435.0</ele><time>2026-04-25T12:02:16.996Z</time></trkpt><trkpt lat="44.5200217" lon="9.0191283"><ele>440.0</ele><time>2026-04-25T12:02:17.994Z</time></trkpt><trkpt lat="44.52012" lon="9.0189833"><ele>445.0</ele><time>2026-04-25T12:02:18.999Z</time></trkpt><trkpt lat="44.5202283" lon="9.01886"><ele>450.0</ele><time>2026-04-25T12:02:19.995Z</time></trkpt><trkpt lat="44.5203367" lon="9.0187467"><ele>444.5</ele><time>2026-04-25T12:02:21.002Z</time></trkpt><trkpt lat="44.5204517" lon="9.0186433"><ele>439.0</ele><time>2026-04-25T12:02:21.997Z</time></trkpt><trkpt lat="44.5205633" lon="9.0185433"><ele>433.5</ele><time>2026-04-25T12:02:22.997Z</time></trkpt><trkpt lat="44.5206817" lon="9.0184467"><ele>428.0</ele><time>2026-04-25T12:02:24.002Z</time></trkpt><trkpt lat="44.5208017" lon="9.01835"><ele>426.75</ele><time>2026-04-25T12:02:25Z</time></trkpt><trkpt lat="44.5209233" lon="9.0182533"><ele>425.5</ele><time>2026-04-25T12:02:25.999Z</time></trkpt><trkpt lat="44.5210417" lon="9.0181567"><ele>424.25</ele><time>2026-04-25T12:02:26.996Z</time></trkpt><trkpt lat="44.5211617" lon="9.0180633"><ele>423.0</ele><time>2026-04-25T12:02:27.997Z</time></trkpt><trkpt lat="44.5212767" lon="9.017955"><ele>423.0</ele><time>2026-04-25T12:02:28.997Z</time></trkpt><trkpt lat="44.5213883" lon="9.017835"><ele>423.0</ele><time>2026-04-25T12:02:29.995Z</time></trkpt><trkpt lat="44.5214933" lon="9.017695"><ele>423.0</ele><time>2026-04-25T12:02:30.998Z</time></trkpt><trkpt lat="44.5215883" lon="9.0175467"><ele>423.0</ele><time>2026-04-25T12:02:32.002Z</time></trkpt><trkpt lat="44.52168" lon="9.017395"><ele>422.5</ele><time>2026-04-25T12:02:32.998Z</time></trkpt><trkpt lat="44.5217733" lon="9.01724"><ele>422.0</ele><time>2026-04-25T12:02:34Z</time></trkpt><trkpt lat="44.5218767" lon="9.0170883"><ele>421.5</ele><time>2026-04-25T12:02:34.995Z</time></trkpt><trkpt lat="44.5219817" lon="9.016945"><ele>421.0</ele><time>2026-04-25T12:02:35.995Z</time></trkpt><trkpt lat="44.5220883" lon="9.016805"><ele>421.0</ele><time>2026-04-25T12:02:37.004Z</time></trkpt><trkpt lat="44.5221933" lon="9.01667"><ele>421.0</ele><time>2026-04-25T12:02:37.994Z</time></trkpt><trkpt lat="44.5223017" lon="9.0165417"><ele>421.0</ele><time>2026-04-25T12:02:38.995Z</time></trkpt><trkpt lat="44.5224067" lon="9.016415"><ele>421.0</ele><time>2026-04-25T12:02:39.998Z</time></trkpt><trkpt lat="44.5225117" lon="9.0162817"><ele>420.5</ele><time>2026-04-25T12:02:40.995Z</time></trkpt><trkpt lat="44.5226183" lon="9.01616"><ele>420.0</ele><time>2026-04-25T12:02:41.998Z</time></trkpt><trkpt lat="44.52273" lon="9.0160417"><ele>419.5</ele><time>2026-04-25T12:02:42.998Z</time></trkpt><trkpt lat="44.522845" lon="9.0159283"><ele>419.0</ele><time>2026-04-25T12:02:44Z</time></trkpt><trkpt lat="44.522965" lon="9.0158317"><ele>422.0</ele><time>2026-04-25T12:02:45.001Z</time></trkpt><trkpt lat="44.5230933" lon="9.0157483"><ele>425.0</ele><time>2026-04-25T12:02:46.002Z</time></trkpt><trkpt lat="44.523225" lon="9.0156733"><ele>428.0</ele><time>2026-04-25T12:02:46.998Z</time></trkpt><trkpt lat="44.52336" lon="9.0156017"><ele>431.0</ele><time>2026-04-25T12:02:48Z</time></trkpt><trkpt lat="44.5234933" lon="9.015525"><ele>431.0</ele><time>2026-04-25T12:02:49.003Z</time></trkpt><trkpt lat="44.5236283" lon="9.0154517"><ele>431.0</ele><time>2026-04-25T12:02:49.996Z</time></trkpt><trkpt lat="44.5237667" lon="9.01538"><ele>431.0</ele><time>2026-04-25T12:02:50.998Z</time></trkpt><trkpt lat="44.5239017" lon="9.0153083"><ele>431.0</ele><time>2026-04-25T12:02:52Z</time></trkpt><trkpt lat="44.5240367" lon="9.0152267"><ele>429.66666666666663</ele><time>2026-04-25T12:02:52.997Z</time></trkpt><trkpt lat="44.5241683" lon="9.0151333"><ele>428.33333333333337</ele><time>2026-04-25T12:02:53.999Z</time></trkpt><trkpt lat="44.5242983" lon="9.015025"><ele>427.0</ele><time>2026-04-25T12:02:55.003Z</time></trkpt><trkpt lat="44.5244217" lon="9.0149017"><ele>427.0</ele><time>2026-04-25T12:02:55.997Z</time></trkpt><trkpt lat="44.5245417" lon="9.01476"><ele>427.0</ele><time>2026-04-25T12:02:57.004Z</time></trkpt><trkpt lat="44.52466" lon="9.0146083"><ele>427.0</ele><time>2026-04-25T12:02:57.996Z</time></trkpt><trkpt lat="44.524775" lon="9.0144517"><ele>427.33333333333337</ele><time>2026-04-25T12:02:58.999Z</time></trkpt><trkpt lat="44.5248917" lon="9.0142917"><ele>427.66666666666663</ele><time>2026-04-25T12:03:00.003Z</time></trkpt><trkpt lat="44.5250083" lon="9.0141333"><ele>428.0</ele><time>2026-04-25T12:03:00.994Z</time></trkpt><trkpt lat="44.5251283" lon="9.0139733"><ele>428.0</ele><time>2026-04-25T12:03:01.996Z</time></trkpt><trkpt lat="44.5252433" lon="9.0138183"><ele>428.0</ele><time>2026-04-25T12:03:02.998Z</time></trkpt><trkpt lat="44.52536" lon="9.0136583"><ele>428.0</ele><time>2026-04-25T12:03:03.999Z</time></trkpt><trkpt lat="44.5254767" lon="9.013505"><ele>428.75</ele><time>2026-04-25T12:03:04.997Z</time></trkpt><trkpt lat="44.52559" lon="9.0133583"><ele>429.5</ele><time>2026-04-25T12:03:06Z</time></trkpt><trkpt lat="44.5256967" lon="9.0132233"><ele>430.25</ele><time>2026-04-25T12:03:06.999Z</time></trkpt><trkpt lat="44.525795" lon="9.0131117"><ele>431.0</ele><time>2026-04-25T12:03:07.997Z</time></trkpt><trkpt lat="44.5258933" lon="9.0130283"><ele>431.0</ele><time>2026-04-25T12:03:09.001Z</time></trkpt><trkpt lat="44.525995" lon="9.0129783"><ele>431.0</ele><time>2026-04-25T12:03:09.997Z</time></trkpt><trkpt lat="44.5260933" lon="9.0129633"><ele>431.0</ele><time>2026-04-25T12:03:10.995Z</time></trkpt><trkpt lat="44.5261933" lon="9.0129883"><ele>431.0</ele><time>2026-04-25T12:03:11.996Z</time></trkpt><trkpt lat="44.5262917" lon="9.01304"><ele>431.0</ele><time>2026-04-25T12:03:12.996Z</time></trkpt><trkpt lat="44.52639" lon="9.0131133"><ele>425.75</ele><time>2026-04-25T12:03:13.997Z</time></trkpt><trkpt lat="44.5264917" lon="9.0132117"><ele>420.5</ele><time>2026-04-25T12:03:15Z</time></trkpt><trkpt lat="44.5265917" lon="9.01331"><ele>415.25</ele><time>2026-04-25T12:03:15.997Z</time></trkpt><trkpt lat="44.5266917" lon="9.0134033"><ele>410.0</ele><time>2026-04-25T12:03:16.996Z</time></trkpt><trkpt lat="44.5267883" lon="9.0134833"><ele>410.0</ele><time>2026-04-25T12:03:17.998Z</time></trkpt><trkpt lat="44.5268817" lon="9.013535"><ele>410.0</ele><time>2026-04-25T12:03:18.998Z</time></trkpt><trkpt lat="44.52698" lon="9.01354"><ele>410.0</ele><time>2026-04-25T12:03:19.999Z</time></trkpt><trkpt lat="44.5270733" lon="9.0134917"><ele>410.0</ele><time>2026-04-25T12:03:20.998Z</time></trkpt><trkpt lat="44.5271567" lon="9.0134117"><ele>410.0</ele><time>2026-04-25T12:03:21.999Z</time></trkpt><trkpt lat="44.527245" lon="9.0133083"><ele>410.75</ele><time>2026-04-25T12:03:22.997Z</time></trkpt><trkpt lat="44.52734" lon="9.013205"><ele>411.5</ele><time>2026-04-25T12:03:24Z</time></trkpt><trkpt lat="44.52744" lon="9.013105"><ele>412.25</ele><time>2026-04-25T12:03:24.996Z</time></trkpt><trkpt lat="44.5275483" lon="9.013005"><ele>413.0</ele><time>2026-04-25T12:03:25.996Z</time></trkpt><trkpt lat="44.5276567" lon="9.0129017"><ele>413.0</ele><time>2026-04-25T12:03:26.996Z</time></trkpt><trkpt lat="44.52777" lon="9.012805"><ele>413.0</ele><time>2026-04-25T12:03:27.996Z</time></trkpt><trkpt lat="44.527885" lon="9.0127133"><ele>413.0</ele><time>2026-04-25T12:03:28.995Z</time></trkpt><trkpt lat="44.5279983" lon="9.012625"><ele>413.0</ele><time>2026-04-25T12:03:29.997Z</time></trkpt><trkpt lat="44.5281067" lon="9.0125383"><ele>413.0</ele><time>2026-04-25T12:03:30.995Z</time></trkpt><trkpt lat="44.528215" lon="9.0124617"><ele>413.0</ele><time>2026-04-25T12:03:31.997Z</time></trkpt><trkpt lat="44.52833" lon="9.0124"><ele>413.0</ele><time>2026-04-25T12:03:33.004Z</time></trkpt><trkpt lat="44.5284483" lon="9.0123583"><ele>413.0</ele><time>2026-04-25T12:03:33.995Z</time></trkpt><trkpt lat="44.52856" lon="9.0123333"><ele>413.0</ele><time>2026-04-25T12:03:34.996Z</time></trkpt><trkpt lat="44.5286817" lon="9.012355"><ele>413.0</ele><time>2026-04-25T12:03:35.997Z</time></trkpt><trkpt lat="44.5288033" lon="9.0123967"><ele>413.0</ele><time>2026-04-25T12:03:36.997Z</time></trkpt><trkpt lat="44.5289267" lon="9.0124433"><ele>413.0</ele><time>2026-04-25T12:03:37.997Z</time></trkpt><trkpt lat="44.5290567" lon="9.0124933"><ele>413.5</ele><time>2026-04-25T12:03:38.997Z</time></trkpt><trkpt lat="44.529185" lon="9.01253"><ele>414.0</ele><time>2026-04-25T12:03:39.998Z</time></trkpt><trkpt lat="44.52932" lon="9.012555"><ele>414.5</ele><time>2026-04-25T12:03:40.999Z</time></trkpt><trkpt lat="44.52946" lon="9.01258"><ele>415.0</ele><time>2026-04-25T12:03:42Z</time></trkpt><trkpt lat="44.5295983" lon="9.012595"><ele>415.0</ele><time>2026-04-25T12:03:42.999Z</time></trkpt><trkpt lat="44.52973" lon="9.0126267"><ele>415.0</ele><time>2026-04-25T12:03:44.003Z</time></trkpt><trkpt lat="44.52986" lon="9.0126683"><ele>415.0</ele><time>2026-04-25T12:03:45.001Z</time></trkpt><trkpt lat="44.5299933" lon="9.012725"><ele>415.0</ele><time>2026-04-25T12:03:45.999Z</time></trkpt><trkpt lat="44.53012" lon="9.012795"><ele>415.0</ele><time>2026-04-25T12:03:46.995Z</time></trkpt><trkpt lat="44.5302383" lon="9.0128833"><ele>415.0</ele><time>2026-04-25T12:03:47.997Z</time></trkpt><trkpt lat="44.5303383" lon="9.012975"><ele>415.0</ele><time>2026-04-25T12:03:49.004Z</time></trkpt><trkpt lat="44.53045" lon="9.013065"><ele>415.0</ele><time>2026-04-25T12:03:49.994Z</time></trkpt><trkpt lat="44.5305733" lon="9.01313"><ele>414.5</ele><time>2026-04-25T12:03:50.999Z</time></trkpt><trkpt lat="44.5307017" lon="9.01317"><ele>414.0</ele><time>2026-04-25T12:03:51.997Z</time></trkpt><trkpt lat="44.5308333" lon="9.0131933"><ele>413.5</ele><time>2026-04-25T12:03:52.997Z</time></trkpt><trkpt lat="44.53096" lon="9.013205"><ele>413.0</ele><time>2026-04-25T12:03:53.995Z</time></trkpt><trkpt lat="44.5310917" lon="9.01322"><ele>413.0</ele><time>2026-04-25T12:03:54.998Z</time></trkpt><trkpt lat="44.5312183" lon="9.013235"><ele>413.0</ele><time>2026-04-25T12:03:56Z</time></trkpt><trkpt lat="44.5313483" lon="9.01326"><ele>413.0</ele><time>2026-04-25T12:03:56.997Z</time></trkpt><trkpt lat="44.53147" lon="9.01329"><ele>413.0</ele><time>2026-04-25T12:03:57.996Z</time></trkpt><trkpt lat="44.531595" lon="9.0133283"><ele>415.0</ele><time>2026-04-25T12:03:58.998Z</time></trkpt><trkpt lat="44.5317217" lon="9.0133867"><ele>417.0</ele><time>2026-04-25T12:03:59.996Z</time></trkpt><trkpt lat="44.53184" lon="9.013425"><ele>419.0</ele><time>2026-04-25T12:04:00.999Z</time></trkpt><trkpt lat="44.5319517" lon="9.0134517"><ele>421.0</ele><time>2026-04-25T12:04:01.996Z</time></trkpt><trkpt lat="44.5320567" lon="9.0134233"><ele>421.0</ele><time>2026-04-25T12:04:03Z</time></trkpt><trkpt lat="44.53216" lon="9.013365"><ele>421.0</ele><time>2026-04-25T12:04:03.995Z</time></trkpt><trkpt lat="44.5322633" lon="9.013275"><ele>421.0</ele><time>2026-04-25T12:04:04.993Z</time></trkpt><trkpt lat="44.5323567" lon="9.0131733"><ele>421.0</ele><time>2026-04-25T12:04:05.995Z</time></trkpt><trkpt lat="44.532455" lon="9.0130733"><ele>420.4</ele><time>2026-04-25T12:04:06.996Z</time></trkpt><trkpt lat="44.5325517" lon="9.0129733"><ele>419.8</ele><time>2026-04-25T12:04:08Z</time></trkpt><trkpt lat="44.53264" lon="9.0128783"><ele>419.2</ele><time>2026-04-25T12:04:08.999Z</time></trkpt><trkpt lat="44.532695" lon="9.012765"><ele>418.59999999999997</ele><time>2026-04-25T12:04:09.993Z</time></trkpt><trkpt lat="44.5327333" lon="9.01264"><ele>418.0</ele><time>2026-04-25T12:04:10.993Z</time></trkpt><trkpt lat="44.53273" lon="9.01249"><ele>418.25</ele><time>2026-04-25T12:04:11.994Z</time></trkpt><trkpt lat="44.5326983" lon="9.012325"><ele>418.5</ele><time>2026-04-25T12:04:12.995Z</time></trkpt><trkpt lat="44.5326467" lon="9.0121667"><ele>418.75</ele><time>2026-04-25T12:04:13.996Z</time></trkpt><trkpt lat="44.532595" lon="9.0120067"><ele>419.0</ele><time>2026-04-25T12:04:14.999Z</time></trkpt><trkpt lat="44.532555" lon="9.01184"><ele>419.0</ele><time>2026-04-25T12:04:15.994Z</time></trkpt><trkpt lat="44.5325183" lon="9.0116767"><ele>419.0</ele><time>2026-04-25T12:04:16.999Z</time></trkpt><trkpt lat="44.5325117" lon="9.011515"><ele>419.0</ele><time>2026-04-25T12:04:17.999Z</time></trkpt><trkpt lat="44.5325183" lon="9.011345"><ele>419.0</ele><time>2026-04-25T12:04:18.996Z</time></trkpt><trkpt lat="44.532535" lon="9.0111717"><ele>419.75</ele><time>2026-04-25T12:04:20.001Z</time></trkpt><trkpt lat="44.5325517" lon="9.0109967"><ele>420.5</ele><time>2026-04-25T12:04:21.002Z</time></trkpt><trkpt lat="44.5325717" lon="9.010825"><ele>421.25</ele><time>2026-04-25T12:04:21.996Z</time></trkpt><trkpt lat="44.5326" lon="9.0106517"><ele>422.0</ele><time>2026-04-25T12:04:22.995Z</time></trkpt><trkpt lat="44.53263" lon="9.0104833"><ele>422.75</ele><time>2026-04-25T12:04:23.998Z</time></trkpt><trkpt lat="44.5326583" lon="9.0103167"><ele>423.5</ele><time>2026-04-25T12:04:24.995Z</time></trkpt><trkpt lat="44.53268" lon="9.0101483"><ele>424.25</ele><time>2026-04-25T12:04:25.995Z</time></trkpt><trkpt lat="44.53267" lon="9.0099817"><ele>425.0</ele><time>2026-04-25T12:04:26.997Z</time></trkpt><trkpt lat="44.5326367" lon="9.009815"><ele>425.5</ele><time>2026-04-25T12:04:27.995Z</time></trkpt><trkpt lat="44.5325883" lon="9.0096617"><ele>426.0</ele><time>2026-04-25T12:04:28.994Z</time></trkpt><trkpt lat="44.5325333" lon="9.0095033"><ele>426.5</ele><time>2026-04-25T12:04:29.994Z</time></trkpt><trkpt lat="44.5324733" lon="9.0093433"><ele>427.0</ele><time>2026-04-25T12:04:30.998Z</time></trkpt><trkpt lat="44.532415" lon="9.00918"><ele>427.25</ele><time>2026-04-25T12:04:31.993Z</time></trkpt><trkpt lat="44.532355" lon="9.0090133"><ele>427.5</ele><time>2026-04-25T12:04:32.999Z</time></trkpt><trkpt lat="44.5322917" lon="9.00885"><ele>427.75</ele><time>2026-04-25T12:04:33.995Z</time></trkpt><trkpt lat="44.532235" lon="9.0086833"><ele>428.0</ele><time>2026-04-25T12:04:34.996Z</time></trkpt><trkpt lat="44.5321817" lon="9.0085133"><ele>428.0</ele><time>2026-04-25T12:04:35.995Z</time></trkpt><trkpt lat="44.5321283" lon="9.0083433"><ele>428.0</ele><time>2026-04-25T12:04:36.999Z</time></trkpt><trkpt lat="44.532075" lon="9.0081717"><ele>428.0</ele><time>2026-04-25T12:04:37.997Z</time></trkpt><trkpt lat="44.53202" lon="9.008005"><ele>428.0</ele><time>2026-04-25T12:04:38.999Z</time></trkpt><trkpt lat="44.5319733" lon="9.0078467"><ele>423.5</ele><time>2026-04-25T12:04:39.996Z</time></trkpt><trkpt lat="44.5319217" lon="9.0076833"><ele>419.0</ele><time>2026-04-25T12:04:40.995Z</time></trkpt><trkpt lat="44.5318667" lon="9.0075267"><ele>414.5</ele><time>2026-04-25T12:04:41.995Z</time></trkpt><trkpt lat="44.53181" lon="9.007365"><ele>410.0</ele><time>2026-04-25T12:04:43Z</time></trkpt><trkpt lat="44.5317517" lon="9.0072033"><ele>409.0</ele><time>2026-04-25T12:04:43.997Z</time></trkpt><trkpt lat="44.5316933" lon="9.0070417"><ele>408.0</ele><time>2026-04-25T12:04:44.997Z</time></trkpt><trkpt lat="44.5316383" lon="9.0068683"><ele>407.0</ele><time>2026-04-25T12:04:46.005Z</time></trkpt><trkpt lat="44.5315867" lon="9.00669"><ele>406.0</ele><time>2026-04-25T12:04:46.996Z</time></trkpt><trkpt lat="44.53154" lon="9.0065067"><ele>406.0</ele><time>2026-04-25T12:04:47.998Z</time></trkpt><trkpt lat="44.531505" lon="9.006315"><ele>406.0</ele><time>2026-04-25T12:04:48.998Z</time></trkpt><trkpt lat="44.5314783" lon="9.006115"><ele>406.0</ele><time>2026-04-25T12:04:50Z</time></trkpt><trkpt lat="44.531465" lon="9.00591"><ele>406.0</ele><time>2026-04-25T12:04:51.001Z</time></trkpt><trkpt lat="44.5314633" lon="9.0057033"><ele>405.6666666666667</ele><time>2026-04-25T12:04:51.995Z</time></trkpt><trkpt lat="44.5314667" lon="9.00549"><ele>405.33333333333337</ele><time>2026-04-25T12:04:52.995Z</time></trkpt><trkpt lat="44.5314783" lon="9.0052767"><ele>405.0</ele><time>2026-04-25T12:04:53.996Z</time></trkpt><trkpt lat="44.5314883" lon="9.0050567"><ele>404.33333333333337</ele><time>2026-04-25T12:04:55.002Z</time></trkpt><trkpt lat="44.5314967" lon="9.004835"><ele>403.6666666666667</ele><time>2026-04-25T12:04:55.996Z</time></trkpt><trkpt lat="44.5315017" lon="9.0046083"><ele>403.0</ele><time>2026-04-25T12:04:56.999Z</time></trkpt><trkpt lat="44.53151" lon="9.00438"><ele>402.33333333333337</ele><time>2026-04-25T12:04:58.006Z</time></trkpt><trkpt lat="44.5315183" lon="9.0041533"><ele>401.66666666666663</ele><time>2026-04-25T12:04:59.003Z</time></trkpt><trkpt lat="44.5315267" lon="9.003925"><ele>401.0</ele><time>2026-04-25T12:05:00.008Z</time></trkpt><trkpt lat="44.5315367" lon="9.0037"><ele>401.0</ele><time>2026-04-25T12:05:01.001Z</time></trkpt><trkpt lat="44.531545" lon="9.0034717"><ele>401.0</ele><time>2026-04-25T12:05:01.994Z</time></trkpt><trkpt lat="44.531555" lon="9.0032467"><ele>401.0</ele><time>2026-04-25T12:05:03Z</time></trkpt><trkpt lat="44.531565" lon="9.003025"><ele>401.0</ele><time>2026-04-25T12:05:03.999Z</time></trkpt><trkpt lat="44.5315783" lon="9.002805"><ele>401.0</ele><time>2026-04-25T12:05:04.997Z</time></trkpt><trkpt lat="44.5315883" lon="9.0025833"><ele>401.0</ele><time>2026-04-25T12:05:05.995Z</time></trkpt><trkpt lat="44.5316" lon="9.0023617"><ele>400.66666666666663</ele><time>2026-04-25T12:05:07.002Z</time></trkpt><trkpt lat="44.5316117" lon="9.00214"><ele>400.33333333333337</ele><time>2026-04-25T12:05:07.999Z</time></trkpt><trkpt lat="44.53162" lon="9.0019167"><ele>400.0</ele><time>2026-04-25T12:05:08.995Z</time></trkpt><trkpt lat="44.5316267" lon="9.0016917"><ele>399.6666666666667</ele><time>2026-04-25T12:05:09.999Z</time></trkpt><trkpt lat="44.5316333" lon="9.0014633"><ele>399.33333333333337</ele><time>2026-04-25T12:05:10.998Z</time></trkpt><trkpt lat="44.53164" lon="9.0012333"><ele>399.0</ele><time>2026-04-25T12:05:11.994Z</time></trkpt><trkpt lat="44.5316533" lon="9.001005"><ele>398.33333333333337</ele><time>2026-04-25T12:05:12.994Z</time></trkpt><trkpt lat="44.5316667" lon="9.0007733"><ele>397.6666666666667</ele><time>2026-04-25T12:05:13.998Z</time></trkpt><trkpt lat="44.5316783" lon="9.00054"><ele>397.0</ele><time>2026-04-25T12:05:14.996Z</time></trkpt><trkpt lat="44.53169" lon="9.0003083"><ele>397.0</ele><time>2026-04-25T12:05:15.997Z</time></trkpt><trkpt lat="44.5317" lon="9.0000783"><ele>397.0</ele><time>2026-04-25T12:05:16.995Z</time></trkpt><trkpt lat="44.5317083" lon="8.9998483"><ele>397.0</ele><time>2026-04-25T12:05:17.997Z</time></trkpt><trkpt lat="44.531715" lon="8.99962"><ele>397.0</ele><time>2026-04-25T12:05:19Z</time></trkpt><trkpt lat="44.531725" lon="8.9993967"><ele>397.0</ele><time>2026-04-25T12:05:19.995Z</time></trkpt><trkpt lat="44.531735" lon="8.9991733"><ele>397.0</ele><time>2026-04-25T12:05:21Z</time></trkpt><trkpt lat="44.531745" lon="8.99895"><ele>397.33333333333337</ele><time>2026-04-25T12:05:21.997Z</time></trkpt><trkpt lat="44.5317567" lon="8.99873"><ele>397.66666666666663</ele><time>2026-04-25T12:05:23.001Z</time></trkpt><trkpt lat="44.53177" lon="8.9985117"><ele>398.0</ele><time>2026-04-25T12:05:23.996Z</time></trkpt><trkpt lat="44.53178" lon="8.9982933"><ele>398.66666666666663</ele><time>2026-04-25T12:05:24.997Z</time></trkpt><trkpt lat="44.5317917" lon="8.9980767"><ele>399.33333333333337</ele><time>2026-04-25T12:05:25.997Z</time></trkpt><trkpt lat="44.531805" lon="8.9978617"><ele>400.0</ele><time>2026-04-25T12:05:26.999Z</time></trkpt><trkpt lat="44.531815" lon="8.9976467"><ele>399.0</ele><time>2026-04-25T12:05:27.996Z</time></trkpt><trkpt lat="44.5318233" lon="8.9974333"><ele>398.0</ele><time>2026-04-25T12:05:28.994Z</time></trkpt><trkpt lat="44.5318333" lon="8.9972217"><ele>397.0</ele><time>2026-04-25T12:05:29.998Z</time></trkpt><trkpt lat="44.53184" lon="8.9970133"><ele>397.0</ele><time>2026-04-25T12:05:30.996Z</time></trkpt><trkpt lat="44.5318467" lon="8.9968067"><ele>397.0</ele><time>2026-04-25T12:05:31.997Z</time></trkpt><trkpt lat="44.531855" lon="8.9966017"><ele>397.0</ele><time>2026-04-25T12:05:32.999Z</time></trkpt><trkpt lat="44.5318583" lon="8.9964"><ele>397.0</ele><time>2026-04-25T12:05:33.994Z</time></trkpt><trkpt lat="44.531865" lon="8.9961983"><ele>397.0</ele><time>2026-04-25T12:05:34.998Z</time></trkpt><trkpt lat="44.531875" lon="8.9959983"><ele>397.0</ele><time>2026-04-25T12:05:35.998Z</time></trkpt><trkpt lat="44.5318817" lon="8.9957967"><ele>397.0</ele><time>2026-04-25T12:05:37.001Z</time></trkpt><trkpt lat="44.5318917" lon="8.9955967"><ele>397.0</ele><time>2026-04-25T12:05:38.001Z</time></trkpt><trkpt lat="44.5319017" lon="8.9953917"><ele>397.25</ele><time>2026-04-25T12:05:39.001Z</time></trkpt><trkpt lat="44.5319117" lon="8.9951883"><ele>397.5</ele><time>2026-04-25T12:05:39.997Z</time></trkpt><trkpt lat="44.53192" lon="8.9949883"><ele>397.75</ele><time>2026-04-25T12:05:41Z</time></trkpt><trkpt lat="44.5319283" lon="8.9947883"><ele>398.0</ele><time>2026-04-25T12:05:41.996Z</time></trkpt><trkpt lat="44.5319367" lon="8.994595"><ele>398.0</ele><time>2026-04-25T12:05:42.999Z</time></trkpt><trkpt lat="44.5319417" lon="8.9944067"><ele>398.0</ele><time>2026-04-25T12:05:43.997Z</time></trkpt><trkpt lat="44.53195" lon="8.9942267"><ele>398.0</ele><time>2026-04-25T12:05:44.996Z</time></trkpt><trkpt lat="44.5319533" lon="8.9940567"><ele>398.0</ele><time>2026-04-25T12:05:46.001Z</time></trkpt><trkpt lat="44.531955" lon="8.9939067"><ele>397.99999999999994</ele><time>2026-04-25T12:05:46.995Z</time></trkpt><trkpt lat="44.5319583" lon="8.9937883"><ele>398.0</ele><time>2026-04-25T12:05:47.994Z</time></trkpt><trkpt lat="44.5319633" lon="8.9936983"><ele>398.0</ele><time>2026-04-25T12:05:48.995Z</time></trkpt><trkpt lat="44.53197" lon="8.993585"><ele>398.0</ele><time>2026-04-25T12:05:50.996Z</time></trkpt><trkpt lat="44.5319933" lon="8.9935"><ele>398.0</ele><time>2026-04-25T12:05:52.995Z</time></trkpt><trkpt lat="44.5320467" lon="8.9934017"><ele>397.99999999999994</ele><time>2026-04-25T12:05:54.997Z</time></trkpt><trkpt lat="44.5320717" lon="8.9933183"><ele>398.0</ele><time>2026-04-25T12:05:55.996Z</time></trkpt><trkpt lat="44.53209" lon="8.993225"><ele>398.3333333333333</ele><time>2026-04-25T12:05:57.001Z</time></trkpt><trkpt lat="44.5321133" lon="8.9931317"><ele>398.66666666666663</ele><time>2026-04-25T12:05:57.996Z</time></trkpt><trkpt lat="44.532135" lon="8.9930317"><ele>399.0</ele><time>2026-04-25T12:05:58.999Z</time></trkpt><trkpt lat="44.5321633" lon="8.99293"><ele>399.33333333333337</ele><time>2026-04-25T12:06:00.007Z</time></trkpt><trkpt lat="44.5321967" lon="8.99283"><ele>399.6666666666667</ele><time>2026-04-25T12:06:00.996Z</time></trkpt><trkpt lat="44.5322433" lon="8.9927233"><ele>400.0</ele><time>2026-04-25T12:06:01.997Z</time></trkpt><trkpt lat="44.5322933" lon="8.99261"><ele>399.6</ele><time>2026-04-25T12:06:02.997Z</time></trkpt><trkpt lat="44.5323483" lon="8.9924917"><ele>399.2</ele><time>2026-04-25T12:06:03.998Z</time></trkpt><trkpt lat="44.5324083" lon="8.992375"><ele>398.79999999999995</ele><time>2026-04-25T12:06:04.996Z</time></trkpt><trkpt lat="44.5324817" lon="8.9922517"><ele>398.4</ele><time>2026-04-25T12:06:05.995Z</time></trkpt><trkpt lat="44.5325667" lon="8.9921233"><ele>398.0</ele><time>2026-04-25T12:06:07.001Z</time></trkpt><trkpt lat="44.5326617" lon="8.9919967"><ele>398.0</ele><time>2026-04-25T12:06:07.998Z</time></trkpt><trkpt lat="44.532765" lon="8.9918717"><ele>398.0</ele><time>2026-04-25T12:06:08.999Z</time></trkpt><trkpt lat="44.5328733" lon="8.991755"><ele>398.0</ele><time>2026-04-25T12:06:09.998Z</time></trkpt><trkpt lat="44.5329867" lon="8.9916383"><ele>398.0</ele><time>2026-04-25T12:06:10.995Z</time></trkpt><trkpt lat="44.5331033" lon="8.9915167"><ele>397.5</ele><time>2026-04-25T12:06:11.998Z</time></trkpt><trkpt lat="44.5332183" lon="8.991395"><ele>397.0</ele><time>2026-04-25T12:06:12.998Z</time></trkpt><trkpt lat="44.5333367" lon="8.991275"><ele>396.5</ele><time>2026-04-25T12:06:13.997Z</time></trkpt><trkpt lat="44.53346" lon="8.991155"><ele>396.0</ele><time>2026-04-25T12:06:14.996Z</time></trkpt><trkpt lat="44.53359" lon="8.9910517"><ele>396.0</ele><time>2026-04-25T12:06:15.998Z</time></trkpt><trkpt lat="44.5337233" lon="8.9909683"><ele>396.0</ele><time>2026-04-25T12:06:16.998Z</time></trkpt><trkpt lat="44.53386" lon="8.9909067"><ele>396.0</ele><time>2026-04-25T12:06:17.997Z</time></trkpt><trkpt lat="44.5339967" lon="8.9908633"><ele>396.0</ele><time>2026-04-25T12:06:18.999Z</time></trkpt><trkpt lat="44.5341383" lon="8.9908333"><ele>395.75</ele><time>2026-04-25T12:06:19.992Z</time></trkpt><trkpt lat="44.5342833" lon="8.9908217"><ele>395.5</ele><time>2026-04-25T12:06:20.996Z</time></trkpt><trkpt lat="44.5344267" lon="8.9908333"><ele>395.25</ele><time>2026-04-25T12:06:21.995Z</time></trkpt><trkpt lat="44.53457" lon="8.9908583"><ele>395.0</ele><time>2026-04-25T12:06:22.999Z</time></trkpt><trkpt lat="44.5347133" lon="8.9908917"><ele>396.0</ele><time>2026-04-25T12:06:23.994Z</time></trkpt><trkpt lat="44.5348583" lon="8.9909233"><ele>397.0</ele><time>2026-04-25T12:06:24.994Z</time></trkpt><trkpt lat="44.5350083" lon="8.9909467"><ele>398.0</ele><time>2026-04-25T12:06:26.005Z</time></trkpt><trkpt lat="44.53516" lon="8.99097"><ele>398.0</ele><time>2026-04-25T12:06:27Z</time></trkpt><trkpt lat="44.53531" lon="8.9909967"><ele>398.0</ele><time>2026-04-25T12:06:27.998Z</time></trkpt><trkpt lat="44.5354633" lon="8.99102"><ele>398.0</ele><time>2026-04-25T12:06:28.994Z</time></trkpt><trkpt lat="44.5356167" lon="8.991045"><ele>398.0</ele><time>2026-04-25T12:06:29.999Z</time></trkpt><trkpt lat="44.535775" lon="8.99107"><ele>398.0</ele><time>2026-04-25T12:06:30.999Z</time></trkpt><trkpt lat="44.5359367" lon="8.9911017"><ele>398.0</ele><time>2026-04-25T12:06:32.002Z</time></trkpt><trkpt lat="44.5360967" lon="8.991135"><ele>396.3333333333333</ele><time>2026-04-25T12:06:33.001Z</time></trkpt><trkpt lat="44.5362583" lon="8.9911633"><ele>394.66666666666663</ele><time>2026-04-25T12:06:33.995Z</time></trkpt><trkpt lat="44.536415" lon="8.991195"><ele>393.0</ele><time>2026-04-25T12:06:35.002Z</time></trkpt><trkpt lat="44.53657" lon="8.9912283"><ele>393.0</ele><time>2026-04-25T12:06:35.999Z</time></trkpt><trkpt lat="44.53672" lon="8.99126"><ele>393.0</ele><time>2026-04-25T12:06:37Z</time></trkpt><trkpt lat="44.5368683" lon="8.9912983"><ele>393.0</ele><time>2026-04-25T12:06:38.002Z</time></trkpt><trkpt lat="44.5370133" lon="8.9913283"><ele>393.0</ele><time>2026-04-25T12:06:39.002Z</time></trkpt><trkpt lat="44.5371567" lon="8.991355"><ele>392.5</ele><time>2026-04-25T12:06:39.996Z</time></trkpt><trkpt lat="44.537295" lon="8.991385"><ele>392.0</ele><time>2026-04-25T12:06:40.995Z</time></trkpt><trkpt lat="44.53743" lon="8.9914083"><ele>391.5</ele><time>2026-04-25T12:06:41.999Z</time></trkpt><trkpt lat="44.5375617" lon="8.9914317"><ele>391.0</ele><time>2026-04-25T12:06:42.999Z</time></trkpt><trkpt lat="44.537695" lon="8.991465"><ele>391.0</ele><time>2026-04-25T12:06:43.999Z</time></trkpt><trkpt lat="44.5378267" lon="8.9914917"><ele>391.0</ele><time>2026-04-25T12:06:44.999Z</time></trkpt><trkpt lat="44.5379483" lon="8.9915217"><ele>391.0</ele><time>2026-04-25T12:06:45.996Z</time></trkpt><trkpt lat="44.5380717" lon="8.9915433"><ele>391.0</ele><time>2026-04-25T12:06:46.995Z</time></trkpt><trkpt lat="44.5381933" lon="8.991565"><ele>391.5</ele><time>2026-04-25T12:06:47.997Z</time></trkpt><trkpt lat="44.5383117" lon="8.99158"><ele>392.0</ele><time>2026-04-25T12:06:48.996Z</time></trkpt><trkpt lat="44.538435" lon="8.9915817"><ele>392.5</ele><time>2026-04-25T12:06:49.999Z</time></trkpt><trkpt lat="44.5385583" lon="8.9915583"><ele>393.0</ele><time>2026-04-25T12:06:50.996Z</time></trkpt><trkpt lat="44.5386767" lon="8.991505"><ele>396.25</ele><time>2026-04-25T12:06:51.993Z</time></trkpt><trkpt lat="44.5387883" lon="8.991425"><ele>399.5</ele><time>2026-04-25T12:06:53Z</time></trkpt><trkpt lat="44.5388933" lon="8.9913333"><ele>402.75</ele><time>2026-04-25T12:06:53.997Z</time></trkpt><trkpt lat="44.5389967" lon="8.9912317"><ele>406.0</ele><time>2026-04-25T12:06:54.996Z</time></trkpt><trkpt lat="44.5391017" lon="8.9911267"><ele>406.0</ele><time>2026-04-25T12:06:55.997Z</time></trkpt><trkpt lat="44.5392067" lon="8.99102"><ele>406.0</ele><time>2026-04-25T12:06:56.998Z</time></trkpt><trkpt lat="44.5393167" lon="8.9909133"><ele>406.0</ele><time>2026-04-25T12:06:58.001Z</time></trkpt><trkpt lat="44.5394267" lon="8.990805"><ele>406.0</ele><time>2026-04-25T12:06:58.995Z</time></trkpt><trkpt lat="44.5395383" lon="8.9906933"><ele>408.25</ele><time>2026-04-25T12:07:00.008Z</time></trkpt><trkpt lat="44.5396483" lon="8.9905783"><ele>410.5</ele><time>2026-04-25T12:07:01.001Z</time></trkpt><trkpt lat="44.5397633" lon="8.9904633"><ele>412.75</ele><time>2026-04-25T12:07:01.997Z</time></trkpt><trkpt lat="44.5398767" lon="8.990345"><ele>415.0</ele><time>2026-04-25T12:07:03.001Z</time></trkpt><trkpt lat="44.5399817" lon="8.99022"><ele>415.0</ele><time>2026-04-25T12:07:03.996Z</time></trkpt><trkpt lat="44.5400867" lon="8.9900983"><ele>415.0</ele><time>2026-04-25T12:07:04.997Z</time></trkpt><trkpt lat="44.5401817" lon="8.9899717"><ele>415.0</ele><time>2026-04-25T12:07:05.994Z</time></trkpt><trkpt lat="44.5402733" lon="8.989845"><ele>415.0</ele><time>2026-04-25T12:07:06.998Z</time></trkpt><trkpt lat="44.5403567" lon="8.98971"><ele>413.0</ele><time>2026-04-25T12:07:07.994Z</time></trkpt><trkpt lat="44.5404417" lon="8.98956"><ele>411.0</ele><time>2026-04-25T12:07:08.994Z</time></trkpt><trkpt lat="44.540525" lon="8.9894067"><ele>409.0</ele><time>2026-04-25T12:07:10.002Z</time></trkpt><trkpt lat="44.5406033" lon="8.98924"><ele>407.0</ele><time>2026-04-25T12:07:10.995Z</time></trkpt><trkpt lat="44.5406817" lon="8.9890633"><ele>404.0</ele><time>2026-04-25T12:07:11.998Z</time></trkpt><trkpt lat="44.5407633" lon="8.988885"><ele>401.0</ele><time>2026-04-25T12:07:12.993Z</time></trkpt><trkpt lat="44.5408567" lon="8.98871"><ele>398.0</ele><time>2026-04-25T12:07:13.996Z</time></trkpt><trkpt lat="44.540945" lon="8.98853"><ele>396.0</ele><time>2026-04-25T12:07:14.997Z</time></trkpt><trkpt lat="44.5410467" lon="8.98834"><ele>394.0</ele><time>2026-04-25T12:07:15.998Z</time></trkpt><trkpt lat="44.54114" lon="8.9881533"><ele>392.0</ele><time>2026-04-25T12:07:16.995Z</time></trkpt><trkpt lat="44.5412367" lon="8.9879683"><ele>395.3333333333333</ele><time>2026-04-25T12:07:17.997Z</time></trkpt><trkpt lat="44.5413317" lon="8.9877767"><ele>398.66666666666663</ele><time>2026-04-25T12:07:19.001Z</time></trkpt><trkpt lat="44.54143" lon="8.9875917"><ele>402.0</ele><time>2026-04-25T12:07:20Z</time></trkpt><trkpt lat="44.5415217" lon="8.9874117"><ele>402.0</ele><time>2026-04-25T12:07:20.998Z</time></trkpt><trkpt lat="44.541615" lon="8.987235"><ele>402.0</ele><time>2026-04-25T12:07:21.995Z</time></trkpt><trkpt lat="44.5417033" lon="8.987065"><ele>402.0</ele><time>2026-04-25T12:07:23Z</time></trkpt><trkpt lat="44.5417917" lon="8.9868967"><ele>402.0</ele><time>2026-04-25T12:07:23.994Z</time></trkpt><trkpt lat="44.5418817" lon="8.9867333"><ele>402.0</ele><time>2026-04-25T12:07:24.995Z</time></trkpt><trkpt lat="44.5419683" lon="8.986575"><ele>402.0</ele><time>2026-04-25T12:07:25.995Z</time></trkpt><trkpt lat="44.542055" lon="8.9864233"><ele>402.0</ele><time>2026-04-25T12:07:26.996Z</time></trkpt><trkpt lat="44.542145" lon="8.9862817"><ele>401.0</ele><time>2026-04-25T12:07:27.996Z</time></trkpt><trkpt lat="44.5422433" lon="8.9861567"><ele>400.0</ele><time>2026-04-25T12:07:28.995Z</time></trkpt><trkpt lat="44.54235" lon="8.986055"><ele>399.0</ele><time>2026-04-25T12:07:30Z</time></trkpt><trkpt lat="44.5424683" lon="8.9859517"><ele>398.0</ele><time>2026-04-25T12:07:31.001Z</time></trkpt><trkpt lat="44.54258" lon="8.98586"><ele>398.0</ele><time>2026-04-25T12:07:31.997Z</time></trkpt><trkpt lat="44.542695" lon="8.9857733"><ele>398.0</ele><time>2026-04-25T12:07:33.002Z</time></trkpt><trkpt lat="44.5428117" lon="8.9856883"><ele>398.0</ele><time>2026-04-25T12:07:33.998Z</time></trkpt><trkpt lat="44.54293" lon="8.9856033"><ele>398.0</ele><time>2026-04-25T12:07:34.995Z</time></trkpt><trkpt lat="44.5430383" lon="8.9855"><ele>398.0</ele><time>2026-04-25T12:07:36.003Z</time></trkpt><trkpt lat="44.5431367" lon="8.9853683"><ele>398.0</ele><time>2026-04-25T12:07:36.998Z</time></trkpt><trkpt lat="44.54322" lon="8.9852117"><ele>398.0</ele><time>2026-04-25T12:07:37.999Z</time></trkpt><trkpt lat="44.5432767" lon="8.9850317"><ele>398.0</ele><time>2026-04-25T12:07:38.997Z</time></trkpt><trkpt lat="44.54331" lon="8.9848383"><ele>397.0</ele><time>2026-04-25T12:07:40.001Z</time></trkpt><trkpt lat="44.5433117" lon="8.98464"><ele>396.0</ele><time>2026-04-25T12:07:40.998Z</time></trkpt><trkpt lat="44.5432933" lon="8.98444"><ele>395.0</ele><time>2026-04-25T12:07:42Z</time></trkpt><trkpt lat="44.54326" lon="8.98424"><ele>394.0</ele><time>2026-04-25T12:07:42.999Z</time></trkpt><trkpt lat="44.5432217" lon="8.98404"><ele>392.5</ele><time>2026-04-25T12:07:43.996Z</time></trkpt><trkpt lat="44.5431833" lon="8.9838417"><ele>391.0</ele><time>2026-04-25T12:07:45.002Z</time></trkpt><trkpt lat="44.543145" lon="8.9836467"><ele>389.5</ele><time>2026-04-25T12:07:46.003Z</time></trkpt><trkpt lat="44.543105" lon="8.9834467"><ele>388.0</ele><time>2026-04-25T12:07:46.999Z</time></trkpt><trkpt lat="44.5430633" lon="8.98324"><ele>388.0</ele><time>2026-04-25T12:07:47.997Z</time></trkpt><trkpt lat="44.5430283" lon="8.9830383"><ele>388.0</ele><time>2026-04-25T12:07:49Z</time></trkpt><trkpt lat="44.5429917" lon="8.9828383"><ele>388.0</ele><time>2026-04-25T12:07:49.996Z</time></trkpt><trkpt lat="44.542955" lon="8.9826417"><ele>388.0</ele><time>2026-04-25T12:07:51.005Z</time></trkpt><trkpt lat="44.5429233" lon="8.9824583"><ele>388.0</ele><time>2026-04-25T12:07:51.997Z</time></trkpt><trkpt lat="44.542895" lon="8.9822833"><ele>388.0</ele><time>2026-04-25T12:07:53.002Z</time></trkpt><trkpt lat="44.5428767" lon="8.982105"><ele>388.0</ele><time>2026-04-25T12:07:54.002Z</time></trkpt><trkpt lat="44.542875" lon="8.9819267"><ele>388.0</ele><time>2026-04-25T12:07:55.003Z</time></trkpt><trkpt lat="44.5428883" lon="8.98175"><ele>388.5</ele><time>2026-04-25T12:07:55.998Z</time></trkpt><trkpt lat="44.5429217" lon="8.98158"><ele>389.0</ele><time>2026-04-25T12:07:56.999Z</time></trkpt><trkpt lat="44.54297" lon="8.9814267"><ele>389.5</ele><time>2026-04-25T12:07:57.995Z</time></trkpt><trkpt lat="44.5430133" lon="8.98128"><ele>390.0</ele><time>2026-04-25T12:07:58.999Z</time></trkpt><trkpt lat="44.5430667" lon="8.9811417"><ele>390.0</ele><time>2026-04-25T12:07:59.992Z</time></trkpt><trkpt lat="44.5431233" lon="8.9809967"><ele>390.0</ele><time>2026-04-25T12:08:00.991Z</time></trkpt><trkpt lat="44.5431833" lon="8.9808567"><ele>390.0</ele><time>2026-04-25T12:08:01.993Z</time></trkpt><trkpt lat="44.5432483" lon="8.98072"><ele>390.0</ele><time>2026-04-25T12:08:02.999Z</time></trkpt><trkpt lat="44.5433067" lon="8.9805733"><ele>390.25</ele><time>2026-04-25T12:08:03.994Z</time></trkpt><trkpt lat="44.5433683" lon="8.9804317"><ele>390.5</ele><time>2026-04-25T12:08:04.995Z</time></trkpt><trkpt lat="44.5434267" lon="8.9802967"><ele>390.75</ele><time>2026-04-25T12:08:05.999Z</time></trkpt><trkpt lat="44.5434833" lon="8.98016"><ele>391.0</ele><time>2026-04-25T12:08:06.997Z</time></trkpt><trkpt lat="44.5435383" lon="8.9800217"><ele>391.25</ele><time>2026-04-25T12:08:08.001Z</time></trkpt><trkpt lat="44.543595" lon="8.9798833"><ele>391.5</ele><time>2026-04-25T12:08:08.997Z</time></trkpt><trkpt lat="44.5436517" lon="8.9797367"><ele>391.75</ele><time>2026-04-25T12:08:09.996Z</time></trkpt><trkpt lat="44.5437117" lon="8.9795917"><ele>392.0</ele><time>2026-04-25T12:08:10.999Z</time></trkpt><trkpt lat="44.5437733" lon="8.9794433"><ele>392.0</ele><time>2026-04-25T12:08:11.996Z</time></trkpt><trkpt lat="44.54384" lon="8.979295"><ele>392.0</ele><time>2026-04-25T12:08:12.998Z</time></trkpt><trkpt lat="44.5439117" lon="8.9791567"><ele>392.0</ele><time>2026-04-25T12:08:13.997Z</time></trkpt><trkpt lat="44.5439883" lon="8.9790333"><ele>392.0</ele><time>2026-04-25T12:08:14.997Z</time></trkpt><trkpt lat="44.5440767" lon="8.9789067"><ele>391.6</ele><time>2026-04-25T12:08:15.996Z</time></trkpt><trkpt lat="44.5441683" lon="8.9788033"><ele>391.20000000000005</ele><time>2026-04-25T12:08:16.996Z</time></trkpt><trkpt lat="44.5442617" lon="8.9787167"><ele>390.8</ele><time>2026-04-25T12:08:17.994Z</time></trkpt><trkpt lat="44.5443567" lon="8.9786383"><ele>390.4</ele><time>2026-04-25T12:08:18.995Z</time></trkpt><trkpt lat="44.544455" lon="8.97857"><ele>390.0</ele><time>2026-04-25T12:08:19.995Z</time></trkpt><trkpt lat="44.5445567" lon="8.9785117"><ele>389.2</ele><time>2026-04-25T12:08:21.004Z</time></trkpt><trkpt lat="44.5446567" lon="8.9784683"><ele>388.4</ele><time>2026-04-25T12:08:22.003Z</time></trkpt><trkpt lat="44.5447617" lon="8.9784283"><ele>387.6</ele><time>2026-04-25T12:08:22.993Z</time></trkpt><trkpt lat="44.54487" lon="8.9783967"><ele>386.8</ele><time>2026-04-25T12:08:23.993Z</time></trkpt><trkpt lat="44.5449833" lon="8.9783717"><ele>386.0</ele><time>2026-04-25T12:08:24.994Z</time></trkpt><trkpt lat="44.545095" lon="8.9783483"><ele>386.75</ele><time>2026-04-25T12:08:25.999Z</time></trkpt><trkpt lat="44.545205" lon="8.9783233"><ele>387.5</ele><time>2026-04-25T12:08:26.995Z</time></trkpt><trkpt lat="44.545325" lon="8.978295"><ele>388.25</ele><time>2026-04-25T12:08:28Z</time></trkpt><trkpt lat="44.5454433" lon="8.9782667"><ele>389.0</ele><time>2026-04-25T12:08:28.995Z</time></trkpt><trkpt lat="44.54556" lon="8.9782383"><ele>389.0</ele><time>2026-04-25T12:08:29.995Z</time></trkpt><trkpt lat="44.54567" lon="8.9782117"><ele>389.0</ele><time>2026-04-25T12:08:31.004Z</time></trkpt><trkpt lat="44.5457833" lon="8.97818"><ele>389.0</ele><time>2026-04-25T12:08:31.996Z</time></trkpt><trkpt lat="44.5458933" lon="8.9781483"><ele>389.0</ele><time>2026-04-25T12:08:33.006Z</time></trkpt><trkpt lat="44.546" lon="8.9781183"><ele>389.0</ele><time>2026-04-25T12:08:33.993Z</time></trkpt><trkpt lat="44.5460983" lon="8.9780883"><ele>389.0</ele><time>2026-04-25T12:08:34.995Z</time></trkpt><trkpt lat="44.5461933" lon="8.9780533"><ele>389.0</ele><time>2026-04-25T12:08:36.007Z</time></trkpt><trkpt lat="44.5462833" lon="8.9780133"><ele>389.0</ele><time>2026-04-25T12:08:36.998Z</time></trkpt><trkpt lat="44.5463733" lon="8.977985"><ele>389.0</ele><time>2026-04-25T12:08:37.997Z</time></trkpt><trkpt lat="44.546465" lon="8.9779583"><ele>389.0</ele><time>2026-04-25T12:08:39.001Z</time></trkpt><trkpt lat="44.54656" lon="8.9779333"><ele>388.2</ele><time>2026-04-25T12:08:39.997Z</time></trkpt><trkpt lat="44.5466583" lon="8.9778967"><ele>387.4</ele><time>2026-04-25T12:08:41.002Z</time></trkpt><trkpt lat="44.5467633" lon="8.9778617"><ele>386.6</ele><time>2026-04-25T12:08:41.996Z</time></trkpt><trkpt lat="44.546865" lon="8.9778167"><ele>385.8</ele><time>2026-04-25T12:08:42.996Z</time></trkpt><trkpt lat="44.546965" lon="8.9777783"><ele>385.0</ele><time>2026-04-25T12:08:43.996Z</time></trkpt><trkpt lat="44.5470617" lon="8.97772"><ele>384.8</ele><time>2026-04-25T12:08:44.991Z</time></trkpt><trkpt lat="44.5471583" lon="8.9776467"><ele>384.6</ele><time>2026-04-25T12:08:45.998Z</time></trkpt><trkpt lat="44.5472533" lon="8.9775617"><ele>384.4</ele><time>2026-04-25T12:08:46.999Z</time></trkpt><trkpt lat="44.5473433" lon="8.9774733"><ele>384.2</ele><time>2026-04-25T12:08:47.999Z</time></trkpt><trkpt lat="44.5474283" lon="8.9773833"><ele>384.0</ele><time>2026-04-25T12:08:48.996Z</time></trkpt><trkpt lat="44.5475067" lon="8.977305"><ele>384.6666666666667</ele><time>2026-04-25T12:08:49.996Z</time></trkpt><trkpt lat="44.5475783" lon="8.9772367"><ele>385.33333333333337</ele><time>2026-04-25T12:08:51.001Z</time></trkpt><trkpt lat="44.54764" lon="8.9771833"><ele>386.0</ele><time>2026-04-25T12:08:52.003Z</time></trkpt><trkpt lat="44.5477317" lon="8.9771017"><ele>386.6666666666667</ele><time>2026-04-25T12:08:53.996Z</time></trkpt><trkpt lat="44.5477867" lon="8.97696"><ele>387.33333333333337</ele><time>2026-04-25T12:08:56.005Z</time></trkpt><trkpt lat="44.5478167" lon="8.9768767"><ele>388.0</ele><time>2026-04-25T12:08:56.999Z</time></trkpt><trkpt lat="44.547845" lon="8.9767733"><ele>387.83333333333337</ele><time>2026-04-25T12:08:57.994Z</time></trkpt><trkpt lat="44.5478717" lon="8.976665"><ele>387.6666666666667</ele><time>2026-04-25T12:08:59Z</time></trkpt><trkpt lat="44.5478933" lon="8.9765533"><ele>387.5</ele><time>2026-04-25T12:09:00.009Z</time></trkpt><trkpt lat="44.5479167" lon="8.976435"><ele>387.33333333333337</ele><time>2026-04-25T12:09:00.998Z</time></trkpt><trkpt lat="44.5479433" lon="8.976325"><ele>387.1666666666667</ele><time>2026-04-25T12:09:02.001Z</time></trkpt><trkpt lat="44.5479617" lon="8.9762167"><ele>387.0</ele><time>2026-04-25T12:09:03Z</time></trkpt><trkpt lat="44.5479833" lon="8.9761167"><ele>387.0</ele><time>2026-04-25T12:09:04.003Z</time></trkpt><trkpt lat="44.548005" lon="8.976025"><ele>387.0</ele><time>2026-04-25T12:09:04.996Z</time></trkpt><trkpt lat="44.548025" lon="8.9759367"><ele>387.0</ele><time>2026-04-25T12:09:06Z</time></trkpt><trkpt lat="44.5480683" lon="8.975805"><ele>387.0</ele><time>2026-04-25T12:09:07.996Z</time></trkpt><trkpt lat="44.5481567" lon="8.9757317"><ele>387.0</ele><time>2026-04-25T12:09:10Z</time></trkpt><trkpt lat="44.5482333" lon="8.9756933"><ele>387.0</ele><time>2026-04-25T12:09:11.003Z</time></trkpt><trkpt lat="44.548295" lon="8.9756467"><ele>387.5</ele><time>2026-04-25T12:09:12.006Z</time></trkpt><trkpt lat="44.5483567" lon="8.9756017"><ele>388.0</ele><time>2026-04-25T12:09:12.994Z</time></trkpt><trkpt lat="44.548425" lon="8.9755567"><ele>388.5</ele><time>2026-04-25T12:09:13.996Z</time></trkpt><trkpt lat="44.5484883" lon="8.9755067"><ele>389.0</ele><time>2026-04-25T12:09:14.995Z</time></trkpt><trkpt lat="44.54855" lon="8.9754533"><ele>389.5</ele><time>2026-04-25T12:09:15.996Z</time></trkpt><trkpt lat="44.5486567" lon="8.9753883"><ele>390.0</ele><time>2026-04-25T12:09:17.997Z</time></trkpt><trkpt lat="44.5487683" lon="8.9753783"><ele>390.8</ele><time>2026-04-25T12:09:19.998Z</time></trkpt><trkpt lat="44.5488883" lon="8.97538"><ele>391.6</ele><time>2026-04-25T12:09:22.006Z</time></trkpt><trkpt lat="44.5489567" lon="8.9753783"><ele>392.4</ele><time>2026-04-25T12:09:22.996Z</time></trkpt><trkpt lat="44.5490417" lon="8.9753867"><ele>393.2</ele><time>2026-04-25T12:09:23.997Z</time></trkpt><trkpt lat="44.5491367" lon="8.9754017"><ele>394.0</ele><time>2026-04-25T12:09:24.998Z</time></trkpt><trkpt lat="44.5492483" lon="8.9754383"><ele>394.0</ele><time>2026-04-25T12:09:25.995Z</time></trkpt><trkpt lat="44.5493583" lon="8.9754783"><ele>394.0</ele><time>2026-04-25T12:09:27.005Z</time></trkpt><trkpt lat="44.5494683" lon="8.97553"><ele>394.0</ele><time>2026-04-25T12:09:27.995Z</time></trkpt><trkpt lat="44.5495833" lon="8.97557"><ele>394.0</ele><time>2026-04-25T12:09:28.998Z</time></trkpt><trkpt lat="44.5497" lon="8.9756"><ele>395.5</ele><time>2026-04-25T12:09:30.001Z</time></trkpt><trkpt lat="44.5498183" lon="8.9756317"><ele>397.0</ele><time>2026-04-25T12:09:30.996Z</time></trkpt><trkpt lat="44.5499383" lon="8.9756567"><ele>398.5</ele><time>2026-04-25T12:09:32Z</time></trkpt><trkpt lat="44.550055" lon="8.9756767"><ele>400.0</ele><time>2026-04-25T12:09:33.001Z</time></trkpt><trkpt lat="44.5501583" lon="8.9757"><ele>400.0</ele><time>2026-04-25T12:09:33.994Z</time></trkpt><trkpt lat="44.550245" lon="8.97574"><ele>400.0</ele><time>2026-04-25T12:09:34.994Z</time></trkpt><trkpt lat="44.55033" lon="8.9757867"><ele>400.0</ele><time>2026-04-25T12:09:35.997Z</time></trkpt><trkpt lat="44.5504133" lon="8.9758417"><ele>400.0</ele><time>2026-04-25T12:09:37.006Z</time></trkpt><trkpt lat="44.5504983" lon="8.9759067"><ele>400.0</ele><time>2026-04-25T12:09:37.997Z</time></trkpt><trkpt lat="44.5505833" lon="8.97598"><ele>397.6</ele><time>2026-04-25T12:09:38.997Z</time></trkpt><trkpt lat="44.5506717" lon="8.9760467"><ele>395.2</ele><time>2026-04-25T12:09:39.999Z</time></trkpt><trkpt lat="44.5507633" lon="8.976105"><ele>392.79999999999995</ele><time>2026-04-25T12:09:40.996Z</time></trkpt><trkpt lat="44.5508583" lon="8.9761367"><ele>390.4</ele><time>2026-04-25T12:09:41.995Z</time></trkpt><trkpt lat="44.5509583" lon="8.9761583"><ele>388.0</ele><time>2026-04-25T12:09:43Z</time></trkpt><trkpt lat="44.551055" lon="8.97617"><ele>388.0</ele><time>2026-04-25T12:09:43.997Z</time></trkpt><trkpt lat="44.5511533" lon="8.976175"><ele>388.0</ele><time>2026-04-25T12:09:44.999Z</time></trkpt><trkpt lat="44.5512483" lon="8.976175"><ele>388.0</ele><time>2026-04-25T12:09:45.996Z</time></trkpt><trkpt lat="44.5513417" lon="8.9761633"><ele>388.0</ele><time>2026-04-25T12:09:46.994Z</time></trkpt><trkpt lat="44.5514283" lon="8.9761733"><ele>388.0</ele><time>2026-04-25T12:09:48.001Z</time></trkpt><trkpt lat="44.55152" lon="8.9761733"><ele>390.2</ele><time>2026-04-25T12:09:48.997Z</time></trkpt><trkpt lat="44.5516167" lon="8.976185"><ele>392.4</ele><time>2026-04-25T12:09:49.995Z</time></trkpt><trkpt lat="44.55171" lon="8.9762183"><ele>394.59999999999997</ele><time>2026-04-25T12:09:50.995Z</time></trkpt><trkpt lat="44.5518017" lon="8.9762533"><ele>396.79999999999995</ele><time>2026-04-25T12:09:51.998Z</time></trkpt><trkpt lat="44.5519" lon="8.9762967"><ele>399.0</ele><time>2026-04-25T12:09:52.995Z</time></trkpt><trkpt lat="44.5519933" lon="8.97636"><ele>398.4</ele><time>2026-04-25T12:09:53.999Z</time></trkpt><trkpt lat="44.5520933" lon="8.9764433"><ele>397.79999999999995</ele><time>2026-04-25T12:09:54.998Z</time></trkpt><trkpt lat="44.5521917" lon="8.9765217"><ele>397.20000000000005</ele><time>2026-04-25T12:09:55.996Z</time></trkpt><trkpt lat="44.5522833" lon="8.9765967"><ele>396.6</ele><time>2026-04-25T12:09:56.994Z</time></trkpt><trkpt lat="44.5523633" lon="8.97666"><ele>396.0</ele><time>2026-04-25T12:09:57.995Z</time></trkpt><trkpt lat="44.552435" lon="8.9767183"><ele>396.0</ele><time>2026-04-25T12:09:59Z</time></trkpt><trkpt lat="44.5525" lon="8.976755"><ele>396.0</ele><time>2026-04-25T12:09:59.996Z</time></trkpt><trkpt lat="44.552575" lon="8.9767733"><ele>396.0</ele><time>2026-04-25T12:10:01.999Z</time></trkpt><trkpt lat="44.5525483" lon="8.976635"><ele>396.0</ele><time>2026-04-25T12:10:05Z</time></trkpt><trkpt lat="44.5524467" lon="8.97656"><ele>396.0</ele><time>2026-04-25T12:10:07.001Z</time></trkpt><trkpt lat="44.5523833" lon="8.9765067"><ele>396.0</ele><time>2026-04-25T12:10:07.995Z</time></trkpt><trkpt lat="44.5523133" lon="8.9764433"><ele>396.5</ele><time>2026-04-25T12:10:08.993Z</time></trkpt><trkpt lat="44.55225" lon="8.9763617"><ele>397.0</ele><time>2026-04-25T12:10:10.001Z</time></trkpt><trkpt lat="44.5521817" lon="8.97628"><ele>397.5</ele><time>2026-04-25T12:10:11Z</time></trkpt><trkpt lat="44.552115" lon="8.976185"><ele>398.0</ele><time>2026-04-25T12:10:11.998Z</time></trkpt><trkpt lat="44.5520517" lon="8.9760917"><ele>398.5</ele><time>2026-04-25T12:10:12.992Z</time></trkpt><trkpt lat="44.55199" lon="8.9760067"><ele>399.0</ele><time>2026-04-25T12:10:13.995Z</time></trkpt><trkpt lat="44.5519217" lon="8.9759367"><ele>399.0</ele><time>2026-04-25T12:10:14.998Z</time></trkpt><trkpt lat="44.5518517" lon="8.9758833"><ele>399.0</ele><time>2026-04-25T12:10:16.002Z</time></trkpt><trkpt lat="44.5517833" lon="8.9758367"><ele>399.0</ele><time>2026-04-25T12:10:16.999Z</time></trkpt><trkpt lat="44.5517133" lon="8.9757867"><ele>399.0</ele><time>2026-04-25T12:10:17.998Z</time></trkpt><trkpt lat="44.5516367" lon="8.9757267"><ele>399.0</ele><time>2026-04-25T12:10:19Z</time></trkpt><trkpt lat="44.5515583" lon="8.97567"><ele>399.0</ele><time>2026-04-25T12:10:19.996Z</time></trkpt><trkpt lat="44.5514817" lon="8.975605"><ele>401.0</ele><time>2026-04-25T12:10:20.995Z</time></trkpt><trkpt lat="44.5514183" lon="8.9755183"><ele>403.0</ele><time>2026-04-25T12:10:21.996Z</time></trkpt><trkpt lat="44.5513617" lon="8.9754433"><ele>405.0</ele><time>2026-04-25T12:10:22.995Z</time></trkpt><trkpt lat="44.5513167" lon="8.9753417"><ele>407.0</ele><time>2026-04-25T12:10:23.994Z</time></trkpt><trkpt lat="44.55128" lon="8.9752417"><ele>409.0</ele><time>2026-04-25T12:10:24.999Z</time></trkpt><trkpt lat="44.5512333" lon="8.9751517"><ele>411.0</ele><time>2026-04-25T12:10:25.992Z</time></trkpt><trkpt lat="44.551185" lon="8.9750633"><ele>416.0</ele><time>2026-04-25T12:10:26.993Z</time></trkpt><trkpt lat="44.5510917" lon="8.975015"><ele>421.0</ele><time>2026-04-25T12:10:27.996Z</time></trkpt><trkpt lat="44.5510117" lon="8.9749783"><ele>426.0</ele><time>2026-04-25T12:10:29Z</time></trkpt><trkpt lat="44.5509283" lon="8.9749383"><ele>431.0</ele><time>2026-04-25T12:10:30Z</time></trkpt><trkpt lat="44.550845" lon="8.9748567"><ele>436.0</ele><time>2026-04-25T12:10:30.996Z</time></trkpt><trkpt lat="44.5507767" lon="8.97479"><ele>436.00000000000006</ele><time>2026-04-25T12:10:32.005Z</time></trkpt><trkpt lat="44.5507267" lon="8.97473"><ele>436.0</ele><time>2026-04-25T12:10:33.001Z</time></trkpt><trkpt lat="44.5506683" lon="8.9746083"><ele>436.0</ele><time>2026-04-25T12:10:34.995Z</time></trkpt><trkpt lat="44.55073" lon="8.9745883"><ele>436.0</ele><time>2026-04-25T12:10:37.997Z</time></trkpt><trkpt lat="44.550825" lon="8.9746483"><ele>436.00000000000006</ele><time>2026-04-25T12:10:39.992Z</time></trkpt><trkpt lat="44.550925" lon="8.974695"><ele>436.0</ele><time>2026-04-25T12:10:41.994Z</time></trkpt><trkpt lat="44.550985" lon="8.9747433"><ele>436.0</ele><time>2026-04-25T12:10:42.994Z</time></trkpt><trkpt lat="44.5510967" lon="8.9748017"><ele>436.0</ele><time>2026-04-25T12:10:44.999Z</time></trkpt><trkpt lat="44.5511817" lon="8.9747233"><ele>436.0</ele><time>2026-04-25T12:10:46.996Z</time></trkpt><trkpt lat="44.55117" lon="8.97459"><ele>436.0</ele><time>2026-04-25T12:10:48.996Z</time></trkpt><trkpt lat="44.5510333" lon="8.9744117"><ele>436.0</ele><time>2026-04-25T12:10:50.996Z</time></trkpt><trkpt lat="44.5509483" lon="8.9743633"><ele>436.0</ele><time>2026-04-25T12:10:51.993Z</time></trkpt><trkpt lat="44.5508533" lon="8.97434"><ele>436.0</ele><time>2026-04-25T12:10:52.995Z</time></trkpt><trkpt lat="44.5507583" lon="8.974325"><ele>436.0</ele><time>2026-04-25T12:10:53.995Z</time></trkpt><trkpt lat="44.5506683" lon="8.97429"><ele>436.0</ele><time>2026-04-25T12:10:54.998Z</time></trkpt><trkpt lat="44.5505733" lon="8.9742817"><ele>436.00000000000006</ele><time>2026-04-25T12:10:55.995Z</time></trkpt><trkpt lat="44.550485" lon="8.974245"><ele>436.0</ele><time>2026-04-25T12:10:56.997Z</time></trkpt><trkpt lat="44.5504033" lon="8.9742117"><ele>436.0</ele><time>2026-04-25T12:10:57.993Z</time></trkpt><trkpt lat="44.5503233" lon="8.9741617"><ele>436.0</ele><time>2026-04-25T12:10:58.996Z</time></trkpt><trkpt lat="44.5502517" lon="8.9740833"><ele>436.00000000000006</ele><time>2026-04-25T12:10:59.996Z</time></trkpt><trkpt lat="44.550185" lon="8.974005"><ele>436.0</ele><time>2026-04-25T12:11:00.995Z</time></trkpt><trkpt lat="44.5501183" lon="8.9739017"><ele>439.20000000000005</ele><time>2026-04-25T12:11:02Z</time></trkpt><trkpt lat="44.5500533" lon="8.973785"><ele>442.40000000000003</ele><time>2026-04-25T12:11:02.997Z</time></trkpt><trkpt lat="44.5499933" lon="8.9736533"><ele>445.6</ele><time>2026-04-25T12:11:03.997Z</time></trkpt><trkpt lat="44.5499683" lon="8.9734683"><ele>448.8</ele><time>2026-04-25T12:11:04.998Z</time></trkpt><trkpt lat="44.5499417" lon="8.9733367"><ele>452.0</ele><time>2026-04-25T12:11:05.996Z</time></trkpt><trkpt lat="44.549905" lon="8.97324"><ele>454.66666666666663</ele><time>2026-04-25T12:11:06.996Z</time></trkpt><trkpt lat="44.54988" lon="8.9731383"><ele>457.3333333333333</ele><time>2026-04-25T12:11:07.994Z</time></trkpt><trkpt lat="44.549865" lon="8.9730217"><ele>460.0</ele><time>2026-04-25T12:11:08.995Z</time></trkpt><trkpt lat="44.549855" lon="8.9729067"><ele>462.66666666666663</ele><time>2026-04-25T12:11:09.995Z</time></trkpt><trkpt lat="44.5498483" lon="8.9727783"><ele>465.3333333333333</ele><time>2026-04-25T12:11:10.996Z</time></trkpt><trkpt lat="44.54984" lon="8.9726417"><ele>468.0</ele><time>2026-04-25T12:11:11.994Z</time></trkpt><trkpt lat="44.5498317" lon="8.9725133"><ele>470.4</ele><time>2026-04-25T12:11:12.996Z</time></trkpt><trkpt lat="44.5497967" lon="8.9723833"><ele>472.79999999999995</ele><time>2026-04-25T12:11:13.997Z</time></trkpt><trkpt lat="44.54974" lon="8.9722833"><ele>475.2</ele><time>2026-04-25T12:11:15Z</time></trkpt><trkpt lat="44.54967" lon="8.9721933"><ele>477.6</ele><time>2026-04-25T12:11:15.991Z</time></trkpt><trkpt lat="44.5495967" lon="8.9721033"><ele>480.0</ele><time>2026-04-25T12:11:16.993Z</time></trkpt><trkpt lat="44.54953" lon="8.9720183"><ele>478.1666666666667</ele><time>2026-04-25T12:11:18.002Z</time></trkpt><trkpt lat="44.549465" lon="8.9719367"><ele>476.33333333333337</ele><time>2026-04-25T12:11:18.995Z</time></trkpt><trkpt lat="44.5494033" lon="8.971855"><ele>474.5</ele><time>2026-04-25T12:11:19.996Z</time></trkpt><trkpt lat="44.549335" lon="8.97178"><ele>472.6666666666667</ele><time>2026-04-25T12:11:20.993Z</time></trkpt><trkpt lat="44.549265" lon="8.9717167"><ele>470.83333333333337</ele><time>2026-04-25T12:11:21.992Z</time></trkpt><trkpt lat="44.5492017" lon="8.971635"><ele>469.0</ele><time>2026-04-25T12:11:22.998Z</time></trkpt><trkpt lat="44.5491533" lon="8.9715383"><ele>469.00000000000006</ele><time>2026-04-25T12:11:23.992Z</time></trkpt><trkpt lat="44.5491133" lon="8.9714467"><ele>469.0</ele><time>2026-04-25T12:11:24.998Z</time></trkpt><trkpt lat="44.5490783" lon="8.971355"><ele>469.0</ele><time>2026-04-25T12:11:25.992Z</time></trkpt><trkpt lat="44.5490583" lon="8.9712583"><ele>469.0</ele><time>2026-04-25T12:11:27.007Z</time></trkpt><trkpt lat="44.54905" lon="8.9711567"><ele>469.00000000000006</ele><time>2026-04-25T12:11:27.994Z</time></trkpt><trkpt lat="44.5490517" lon="8.9710467"><ele>469.0</ele><time>2026-04-25T12:11:28.994Z</time></trkpt><trkpt lat="44.5490483" lon="8.9709317"><ele>470.6666666666667</ele><time>2026-04-25T12:11:29.996Z</time></trkpt><trkpt lat="44.5490383" lon="8.970815"><ele>472.33333333333337</ele><time>2026-04-25T12:11:30.996Z</time></trkpt><trkpt lat="44.5490383" lon="8.9707033"><ele>474.0</ele><time>2026-04-25T12:11:31.996Z</time></trkpt><trkpt lat="44.5490467" lon="8.9705917"><ele>475.66666666666663</ele><time>2026-04-25T12:11:32.996Z</time></trkpt><trkpt lat="44.5490667" lon="8.9704783"><ele>477.3333333333333</ele><time>2026-04-25T12:11:33.995Z</time></trkpt><trkpt lat="44.5490917" lon="8.9703567"><ele>479.0</ele><time>2026-04-25T12:11:34.993Z</time></trkpt><trkpt lat="44.5491117" lon="8.9702317"><ele>479.0</ele><time>2026-04-25T12:11:35.996Z</time></trkpt><trkpt lat="44.54916" lon="8.9701117"><ele>479.0</ele><time>2026-04-25T12:11:37Z</time></trkpt><trkpt lat="44.54922" lon="8.96999"><ele>479.0</ele><time>2026-04-25T12:11:37.995Z</time></trkpt><trkpt lat="44.5492867" lon="8.9698783"><ele>479.0</ele><time>2026-04-25T12:11:38.994Z</time></trkpt><trkpt lat="44.5493667" lon="8.9697633"><ele>479.0</ele><time>2026-04-25T12:11:39.994Z</time></trkpt><trkpt lat="44.5494367" lon="8.969635"><ele>478.6</ele><time>2026-04-25T12:11:40.994Z</time></trkpt><trkpt lat="44.5495033" lon="8.969505"><ele>478.2</ele><time>2026-04-25T12:11:41.993Z</time></trkpt><trkpt lat="44.5495583" lon="8.9693833"><ele>477.80000000000007</ele><time>2026-04-25T12:11:42.994Z</time></trkpt><trkpt lat="44.5496033" lon="8.9692683"><ele>477.40000000000003</ele><time>2026-04-25T12:11:43.993Z</time></trkpt><trkpt lat="44.54964" lon="8.969165"><ele>477.0</ele><time>2026-04-25T12:11:44.994Z</time></trkpt><trkpt lat="44.5496667" lon="8.9690667"><ele>477.5</ele><time>2026-04-25T12:11:45.993Z</time></trkpt><trkpt lat="44.5496783" lon="8.968975"><ele>478.0</ele><time>2026-04-25T12:11:46.997Z</time></trkpt><trkpt lat="44.54964" lon="8.9688817"><ele>478.5</ele><time>2026-04-25T12:11:47.996Z</time></trkpt><trkpt lat="44.5496117" lon="8.968785"><ele>479.0</ele><time>2026-04-25T12:11:48.994Z</time></trkpt><trkpt lat="44.54958" lon="8.968675"><ele>479.5</ele><time>2026-04-25T12:11:49.997Z</time></trkpt><trkpt lat="44.5495533" lon="8.9685533"><ele>480.0</ele><time>2026-04-25T12:11:50.995Z</time></trkpt><trkpt lat="44.549535" lon="8.9684217"><ele>480.4</ele><time>2026-04-25T12:11:51.998Z</time></trkpt><trkpt lat="44.549515" lon="8.9682833"><ele>480.8</ele><time>2026-04-25T12:11:52.997Z</time></trkpt><trkpt lat="44.549495" lon="8.9681333"><ele>481.20000000000005</ele><time>2026-04-25T12:11:54.001Z</time></trkpt><trkpt lat="44.5494783" lon="8.9679867"><ele>481.6</ele><time>2026-04-25T12:11:54.997Z</time></trkpt><trkpt lat="44.5494617" lon="8.96784"><ele>482.0</ele><time>2026-04-25T12:11:55.997Z</time></trkpt><trkpt lat="44.5494467" lon="8.9676983"><ele>482.0</ele><time>2026-04-25T12:11:56.994Z</time></trkpt><trkpt lat="44.5494317" lon="8.967555"><ele>482.00000000000006</ele><time>2026-04-25T12:11:57.992Z</time></trkpt><trkpt lat="44.549415" lon="8.967415"><ele>482.00000000000006</ele><time>2026-04-25T12:11:58.992Z</time></trkpt><trkpt lat="44.5494017" lon="8.9672717"><ele>482.0</ele><time>2026-04-25T12:11:59.993Z</time></trkpt><trkpt lat="44.5493883" lon="8.9671367"><ele>482.0</ele><time>2026-04-25T12:12:00.993Z</time></trkpt><trkpt lat="44.5493783" lon="8.9670167"><ele>483.16666666666663</ele><time>2026-04-25T12:12:01.996Z</time></trkpt><trkpt lat="44.549375" lon="8.9669117"><ele>484.3333333333333</ele><time>2026-04-25T12:12:02.994Z</time></trkpt><trkpt lat="44.549375" lon="8.9668183"><ele>485.5</ele><time>2026-04-25T12:12:03.995Z</time></trkpt><trkpt lat="44.5494117" lon="8.96666"><ele>486.66666666666663</ele><time>2026-04-25T12:12:05.995Z</time></trkpt><trkpt lat="44.549465" lon="8.96659"><ele>487.8333333333333</ele><time>2026-04-25T12:12:06.993Z</time></trkpt><trkpt lat="44.5494983" lon="8.9665117"><ele>489.0</ele><time>2026-04-25T12:12:07.997Z</time></trkpt><trkpt lat="44.5495267" lon="8.9664267"><ele>490.1666666666667</ele><time>2026-04-25T12:12:08.996Z</time></trkpt><trkpt lat="44.54952" lon="8.9663233"><ele>491.33333333333337</ele><time>2026-04-25T12:12:09.998Z</time></trkpt><trkpt lat="44.549515" lon="8.9662233"><ele>492.5</ele><time>2026-04-25T12:12:10.992Z</time></trkpt><trkpt lat="44.5495017" lon="8.96611"><ele>493.6666666666667</ele><time>2026-04-25T12:12:11.992Z</time></trkpt><trkpt lat="44.5494617" lon="8.9659933"><ele>494.83333333333337</ele><time>2026-04-25T12:12:12.993Z</time></trkpt><trkpt lat="44.5494217" lon="8.9658683"><ele>496.0</ele><time>2026-04-25T12:12:13.997Z</time></trkpt><trkpt lat="44.5493683" lon="8.9657333"><ele>496.8</ele><time>2026-04-25T12:12:15Z</time></trkpt><trkpt lat="44.5493117" lon="8.9656033"><ele>497.6</ele><time>2026-04-25T12:12:15.997Z</time></trkpt><trkpt lat="44.5492633" lon="8.965475"><ele>498.4</ele><time>2026-04-25T12:12:16.993Z</time></trkpt><trkpt lat="44.5492183" lon="8.96535"><ele>499.2</ele><time>2026-04-25T12:12:17.994Z</time></trkpt><trkpt lat="44.5491733" lon="8.96523"><ele>500.0</ele><time>2026-04-25T12:12:18.999Z</time></trkpt><trkpt lat="44.549135" lon="8.9651183"><ele>501.0</ele><time>2026-04-25T12:12:19.995Z</time></trkpt><trkpt lat="44.5491033" lon="8.96502"><ele>502.0</ele><time>2026-04-25T12:12:21Z</time></trkpt><trkpt lat="44.5490783" lon="8.964925"><ele>503.0</ele><time>2026-04-25T12:12:21.993Z</time></trkpt><trkpt lat="44.5490633" lon="8.9648217"><ele>504.0</ele><time>2026-04-25T12:12:22.996Z</time></trkpt><trkpt lat="44.54908" lon="8.964725"><ele>505.0</ele><time>2026-04-25T12:12:23.993Z</time></trkpt><trkpt lat="44.5491017" lon="8.9646317"><ele>506.0</ele><time>2026-04-25T12:12:24.996Z</time></trkpt><trkpt lat="44.549145" lon="8.964555"><ele>507.0</ele><time>2026-04-25T12:12:25.994Z</time></trkpt><trkpt lat="44.5491883" lon="8.96448"><ele>507.0</ele><time>2026-04-25T12:12:27Z</time></trkpt><trkpt lat="44.5492083" lon="8.9643933"><ele>507.00000000000006</ele><time>2026-04-25T12:12:27.995Z</time></trkpt><trkpt lat="44.549235" lon="8.964225"><ele>507.00000000000006</ele><time>2026-04-25T12:12:29.993Z</time></trkpt><trkpt lat="44.549235" lon="8.9641267"><ele>507.0</ele><time>2026-04-25T12:12:30.995Z</time></trkpt><trkpt lat="44.5492083" lon="8.9640167"><ele>507.0</ele><time>2026-04-25T12:12:31.994Z</time></trkpt><trkpt lat="44.5491367" lon="8.9638917"><ele>509.40000000000003</ele><time>2026-04-25T12:12:32.998Z</time></trkpt><trkpt lat="44.5490983" lon="8.963775"><ele>511.80000000000007</ele><time>2026-04-25T12:12:33.994Z</time></trkpt><trkpt lat="44.5490433" lon="8.96366"><ele>514.2</ele><time>2026-04-25T12:12:34.992Z</time></trkpt><trkpt lat="44.5489867" lon="8.9635533"><ele>516.6</ele><time>2026-04-25T12:12:35.995Z</time></trkpt><trkpt lat="44.5489283" lon="8.963465"><ele>519.0</ele><time>2026-04-25T12:12:37.004Z</time></trkpt><trkpt lat="44.5488667" lon="8.963385"><ele>521.5</ele><time>2026-04-25T12:12:37.999Z</time></trkpt><trkpt lat="44.5488233" lon="8.9632983"><ele>524.0</ele><time>2026-04-25T12:12:39Z</time></trkpt><trkpt lat="44.548795" lon="8.963215"><ele>526.5</ele><time>2026-04-25T12:12:39.996Z</time></trkpt><trkpt lat="44.5488083" lon="8.9631233"><ele>529.0</ele><time>2026-04-25T12:12:40.994Z</time></trkpt><trkpt lat="44.5488317" lon="8.9630267"><ele>531.5</ele><time>2026-04-25T12:12:41.995Z</time></trkpt><trkpt lat="44.5488517" lon="8.96294"><ele>534.0</ele><time>2026-04-25T12:12:42.994Z</time></trkpt><trkpt lat="44.548905" lon="8.9628"><ele>534.0</ele><time>2026-04-25T12:12:44.997Z</time></trkpt><trkpt lat="44.5489383" lon="8.962925"><ele>534.0</ele><time>2026-04-25T12:12:47.999Z</time></trkpt><trkpt lat="44.5489383" lon="8.9630783"><ele>534.0</ele><time>2026-04-25T12:12:49.993Z</time></trkpt><trkpt lat="44.5489617" lon="8.963245"><ele>534.0</ele><time>2026-04-25T12:12:51.996Z</time></trkpt><trkpt lat="44.5489967" lon="8.96332"><ele>534.0</ele><time>2026-04-25T12:12:52.993Z</time></trkpt><trkpt lat="44.549065" lon="8.9633817"><ele>531.8571428571429</ele><time>2026-04-25T12:12:53.997Z</time></trkpt><trkpt lat="44.5491417" lon="8.9634183"><ele>529.7142857142858</ele><time>2026-04-25T12:12:54.996Z</time></trkpt><trkpt lat="44.5492133" lon="8.9634633"><ele>527.5714285714286</ele><time>2026-04-25T12:12:55.997Z</time></trkpt><trkpt lat="44.549265" lon="8.9635217"><ele>525.4285714285714</ele><time>2026-04-25T12:12:57.003Z</time></trkpt><trkpt lat="44.5493167" lon="8.9635867"><ele>523.2857142857142</ele><time>2026-04-25T12:12:58Z</time></trkpt><trkpt lat="44.549355" lon="8.9636733"><ele>521.1428571428571</ele><time>2026-04-25T12:12:58.999Z</time></trkpt><trkpt lat="44.549385" lon="8.9637683"><ele>519.0</ele><time>2026-04-25T12:12:59.996Z</time></trkpt><trkpt lat="44.5494517" lon="8.9639017"><ele>519.0</ele><time>2026-04-25T12:13:01.997Z</time></trkpt><trkpt lat="44.5495133" lon="8.9638133"><ele>519.0</ele><time>2026-04-25T12:13:04.994Z</time></trkpt><trkpt lat="44.5494967" lon="8.9637033"><ele>519.0</ele><time>2026-04-25T12:13:06.997Z</time></trkpt><trkpt lat="44.5494583" lon="8.9635817"><ele>519.0</ele><time>2026-04-25T12:13:07.998Z</time></trkpt><trkpt lat="44.54941" lon="8.9634817"><ele>519.0</ele><time>2026-04-25T12:13:08.994Z</time></trkpt><trkpt lat="44.549335" lon="8.9634"><ele>519.0</ele><time>2026-04-25T12:13:09.993Z</time></trkpt><trkpt lat="44.5492667" lon="8.9633267"><ele>521.5</ele><time>2026-04-25T12:13:10.997Z</time></trkpt><trkpt lat="44.5492083" lon="8.96325"><ele>524.0</ele><time>2026-04-25T12:13:11.995Z</time></trkpt><trkpt lat="44.5491583" lon="8.9631717"><ele>526.5</ele><time>2026-04-25T12:13:12.993Z</time></trkpt><trkpt lat="44.5491283" lon="8.96307"><ele>529.0</ele><time>2026-04-25T12:13:13.993Z</time></trkpt><trkpt lat="44.549095" lon="8.962995"><ele>531.5</ele><time>2026-04-25T12:13:14.996Z</time></trkpt><trkpt lat="44.5491233" lon="8.9628317"><ele>534.0</ele><time>2026-04-25T12:13:16.995Z</time></trkpt><trkpt lat="44.5491883" lon="8.96276"><ele>534.0</ele><time>2026-04-25T12:13:17.999Z</time></trkpt><trkpt lat="44.5492383" lon="8.962695"><ele>534.0</ele><time>2026-04-25T12:13:18.995Z</time></trkpt><trkpt lat="44.5492983" lon="8.9625733"><ele>534.0</ele><time>2026-04-25T12:13:20.995Z</time></trkpt><trkpt lat="44.5493083" lon="8.9624333"><ele>534.0</ele><time>2026-04-25T12:13:22.992Z</time></trkpt><trkpt lat="44.54925" lon="8.96227"><ele>534.0</ele><time>2026-04-25T12:13:24.994Z</time></trkpt><trkpt lat="44.5492483" lon="8.96217"><ele>536.0</ele><time>2026-04-25T12:13:25.994Z</time></trkpt><trkpt lat="44.549265" lon="8.96199"><ele>538.0</ele><time>2026-04-25T12:13:27.999Z</time></trkpt><trkpt lat="44.5492883" lon="8.9618983"><ele>540.0</ele><time>2026-04-25T12:13:28.996Z</time></trkpt><trkpt lat="44.549295" lon="8.961805"><ele>542.0</ele><time>2026-04-25T12:13:29.995Z</time></trkpt><trkpt lat="44.5492983" lon="8.961705"><ele>544.0</ele><time>2026-04-25T12:13:30.995Z</time></trkpt><trkpt lat="44.549255" lon="8.961545"><ele>545.3333333333334</ele><time>2026-04-25T12:13:32.997Z</time></trkpt><trkpt lat="44.549205" lon="8.96148"><ele>546.6666666666667</ele><time>2026-04-25T12:13:34.002Z</time></trkpt><trkpt lat="44.5491417" lon="8.9614017"><ele>548.0</ele><time>2026-04-25T12:13:35Z</time></trkpt><trkpt lat="44.5490733" lon="8.96134"><ele>549.3333333333334</ele><time>2026-04-25T12:13:35.995Z</time></trkpt><trkpt lat="44.5490117" lon="8.9612583"><ele>550.6666666666666</ele><time>2026-04-25T12:13:36.996Z</time></trkpt><trkpt lat="44.5489633" lon="8.9611683"><ele>552.0</ele><time>2026-04-25T12:13:37.998Z</time></trkpt><trkpt lat="44.5489217" lon="8.9610533"><ele>552.0</ele><time>2026-04-25T12:13:38.998Z</time></trkpt><trkpt lat="44.548885" lon="8.9609417"><ele>552.0</ele><time>2026-04-25T12:13:40Z</time></trkpt><trkpt lat="44.548835" lon="8.9608433"><ele>552.0</ele><time>2026-04-25T12:13:40.995Z</time></trkpt><trkpt lat="44.548775" lon="8.960755"><ele>552.0</ele><time>2026-04-25T12:13:41.996Z</time></trkpt><trkpt lat="44.5487" lon="8.960665"><ele>552.0</ele><time>2026-04-25T12:13:43Z</time></trkpt><trkpt lat="44.5486133" lon="8.9606017"><ele>551.5</ele><time>2026-04-25T12:13:43.996Z</time></trkpt><trkpt lat="44.5485433" lon="8.9605217"><ele>551.0</ele><time>2026-04-25T12:13:44.993Z</time></trkpt><trkpt lat="44.5484783" lon="8.9604467"><ele>550.5</ele><time>2026-04-25T12:13:45.996Z</time></trkpt><trkpt lat="44.5484317" lon="8.9603417"><ele>550.0</ele><time>2026-04-25T12:13:46.995Z</time></trkpt><trkpt lat="44.548405" lon="8.9602183"><ele>549.5</ele><time>2026-04-25T12:13:47.996Z</time></trkpt><trkpt lat="44.5483917" lon="8.9600933"><ele>549.0</ele><time>2026-04-25T12:13:48.996Z</time></trkpt><trkpt lat="44.5483883" lon="8.9599617"><ele>549.0</ele><time>2026-04-25T12:13:49.995Z</time></trkpt><trkpt lat="44.5484133" lon="8.9598267"><ele>549.0</ele><time>2026-04-25T12:13:50.994Z</time></trkpt><trkpt lat="44.5484417" lon="8.9597017"><ele>549.0</ele><time>2026-04-25T12:13:51.994Z</time></trkpt><trkpt lat="44.54848" lon="8.9595733"><ele>549.0</ele><time>2026-04-25T12:13:52.993Z</time></trkpt><trkpt lat="44.5485183" lon="8.9594483"><ele>549.0</ele><time>2026-04-25T12:13:53.996Z</time></trkpt><trkpt lat="44.54856" lon="8.9593233"><ele>549.0</ele><time>2026-04-25T12:13:54.999Z</time></trkpt><trkpt lat="44.5486283" lon="8.95921"><ele>549.0</ele><time>2026-04-25T12:13:55.995Z</time></trkpt><trkpt lat="44.5487217" lon="8.9591033"><ele>549.0</ele><time>2026-04-25T12:13:56.995Z</time></trkpt><trkpt lat="44.5488133" lon="8.9590067"><ele>549.0</ele><time>2026-04-25T12:13:57.998Z</time></trkpt><trkpt lat="44.54891" lon="8.958905"><ele>555.8</ele><time>2026-04-25T12:13:59.001Z</time></trkpt><trkpt lat="44.5490033" lon="8.958795"><ele>562.5999999999999</ele><time>2026-04-25T12:13:59.993Z</time></trkpt><trkpt lat="44.5490983" lon="8.9586967"><ele>569.4</ele><time>2026-04-25T12:14:00.994Z</time></trkpt><trkpt lat="44.5491817" lon="8.9586"><ele>576.1999999999999</ele><time>2026-04-25T12:14:01.994Z</time></trkpt><trkpt lat="44.5492433" lon="8.9585183"><ele>583.0</ele><time>2026-04-25T12:14:02.995Z</time></trkpt><trkpt lat="44.5493017" lon="8.9584567"><ele>583.0</ele><time>2026-04-25T12:14:04Z</time></trkpt><trkpt lat="44.5493667" lon="8.9584083"><ele>583.0</ele><time>2026-04-25T12:14:04.999Z</time></trkpt><trkpt lat="44.54942" lon="8.958345"><ele>583.0</ele><time>2026-04-25T12:14:05.994Z</time></trkpt><trkpt lat="44.5494583" lon="8.95826"><ele>583.0</ele><time>2026-04-25T12:14:06.998Z</time></trkpt><trkpt lat="44.5494833" lon="8.95817"><ele>583.0</ele><time>2026-04-25T12:14:07.994Z</time></trkpt><trkpt lat="44.5495017" lon="8.95808"><ele>583.0</ele><time>2026-04-25T12:14:08.999Z</time></trkpt><trkpt lat="44.5494367" lon="8.9579"><ele>581.5</ele><time>2026-04-25T12:14:10.998Z</time></trkpt><trkpt lat="44.54936" lon="8.9578033"><ele>580.0</ele><time>2026-04-25T12:14:11.996Z</time></trkpt><trkpt lat="44.5492467" lon="8.957675"><ele>578.5</ele><time>2026-04-25T12:14:12.993Z</time></trkpt><trkpt lat="44.5491683" lon="8.9575583"><ele>577.0</ele><time>2026-04-25T12:14:13.998Z</time></trkpt><trkpt lat="44.54909" lon="8.9574683"><ele>577.0</ele><time>2026-04-25T12:14:14.996Z</time></trkpt><trkpt lat="44.5489933" lon="8.957415"><ele>577.0</ele><time>2026-04-25T12:14:15.999Z</time></trkpt><trkpt lat="44.54891" lon="8.957385"><ele>577.0</ele><time>2026-04-25T12:14:16.996Z</time></trkpt><trkpt lat="44.5488317" lon="8.95736"><ele>577.0</ele><time>2026-04-25T12:14:17.994Z</time></trkpt><trkpt lat="44.5487633" lon="8.95733"><ele>577.0</ele><time>2026-04-25T12:14:19.001Z</time></trkpt><trkpt lat="44.5487017" lon="8.9572667"><ele>577.0</ele><time>2026-04-25T12:14:20Z</time></trkpt><trkpt lat="44.5486417" lon="8.9572"><ele>575.5714285714286</ele><time>2026-04-25T12:14:21Z</time></trkpt><trkpt lat="44.5486017" lon="8.9571283"><ele>574.1428571428571</ele><time>2026-04-25T12:14:21.996Z</time></trkpt><trkpt lat="44.5485617" lon="8.95706"><ele>572.7142857142858</ele><time>2026-04-25T12:14:22.998Z</time></trkpt><trkpt lat="44.5485133" lon="8.9570017"><ele>571.2857142857142</ele><time>2026-04-25T12:14:23.998Z</time></trkpt><trkpt lat="44.548455" lon="8.9569683"><ele>569.8571428571429</ele><time>2026-04-25T12:14:24.995Z</time></trkpt><trkpt lat="44.5483883" lon="8.9569383"><ele>568.4285714285714</ele><time>2026-04-25T12:14:25.992Z</time></trkpt><trkpt lat="44.5483283" lon="8.956885"><ele>567.0</ele><time>2026-04-25T12:14:26.998Z</time></trkpt><trkpt lat="44.54827" lon="8.95683"><ele>567.0</ele><time>2026-04-25T12:14:27.996Z</time></trkpt><trkpt lat="44.5482133" lon="8.9567583"><ele>567.0</ele><time>2026-04-25T12:14:28.995Z</time></trkpt><trkpt lat="44.5481533" lon="8.9566967"><ele>567.0</ele><time>2026-04-25T12:14:29.998Z</time></trkpt><trkpt lat="44.5480867" lon="8.9566717"><ele>567.0</ele><time>2026-04-25T12:14:30.996Z</time></trkpt><trkpt lat="44.548015" lon="8.956655"><ele>567.0</ele><time>2026-04-25T12:14:32.003Z</time></trkpt><trkpt lat="44.54794" lon="8.9566533"><ele>567.0</ele><time>2026-04-25T12:14:32.998Z</time></trkpt><trkpt lat="44.5478717" lon="8.9566283"><ele>567.0</ele><time>2026-04-25T12:14:33.997Z</time></trkpt><trkpt lat="44.5478083" lon="8.9566067"><ele>568.5</ele><time>2026-04-25T12:14:34.996Z</time></trkpt><trkpt lat="44.5477017" lon="8.956515"><ele>570.0</ele><time>2026-04-25T12:14:36.995Z</time></trkpt><trkpt lat="44.54767" lon="8.9564167"><ele>571.5</ele><time>2026-04-25T12:14:37.996Z</time></trkpt><trkpt lat="44.5476233" lon="8.9563217"><ele>573.0</ele><time>2026-04-25T12:14:38.999Z</time></trkpt><trkpt lat="44.5475767" lon="8.9562267"><ele>574.5</ele><time>2026-04-25T12:14:39.997Z</time></trkpt><trkpt lat="44.5475233" lon="8.95614"><ele>576.0</ele><time>2026-04-25T12:14:41Z</time></trkpt><trkpt lat="44.547455" lon="8.9560683"><ele>576.0</ele><time>2026-04-25T12:14:42.001Z</time></trkpt><trkpt lat="44.5473683" lon="8.9560133"><ele>576.0</ele><time>2026-04-25T12:14:43.004Z</time></trkpt><trkpt lat="44.5472833" lon="8.95595"><ele>576.0</ele><time>2026-04-25T12:14:44.005Z</time></trkpt><trkpt lat="44.5471967" lon="8.9558867"><ele>576.0</ele><time>2026-04-25T12:14:44.998Z</time></trkpt><trkpt lat="44.5471083" lon="8.955825"><ele>576.0</ele><time>2026-04-25T12:14:45.998Z</time></trkpt><trkpt lat="44.5470233" lon="8.9557617"><ele>576.6666666666666</ele><time>2026-04-25T12:14:46.994Z</time></trkpt><trkpt lat="44.5469467" lon="8.9556767"><ele>577.3333333333334</ele><time>2026-04-25T12:14:47.999Z</time></trkpt><trkpt lat="44.54688" lon="8.9555883"><ele>578.0</ele><time>2026-04-25T12:14:49.001Z</time></trkpt><trkpt lat="44.5468183" lon="8.9555117"><ele>578.6666666666667</ele><time>2026-04-25T12:14:50Z</time></trkpt><trkpt lat="44.546755" lon="8.9554467"><ele>579.3333333333334</ele><time>2026-04-25T12:14:51.003Z</time></trkpt><trkpt lat="44.546675" lon="8.9554317"><ele>580.0</ele><time>2026-04-25T12:14:52.002Z</time></trkpt><trkpt lat="44.5465917" lon="8.95543"><ele>580.0</ele><time>2026-04-25T12:14:52.995Z</time></trkpt><trkpt lat="44.546495" lon="8.9554283"><ele>580.0</ele><time>2026-04-25T12:14:53.995Z</time></trkpt><trkpt lat="44.5463967" lon="8.95543"><ele>580.0</ele><time>2026-04-25T12:14:54.997Z</time></trkpt><trkpt lat="44.5462983" lon="8.9554367"><ele>580.0</ele><time>2026-04-25T12:14:55.998Z</time></trkpt><trkpt lat="44.546205" lon="8.955455"><ele>580.0</ele><time>2026-04-25T12:14:57.003Z</time></trkpt><trkpt lat="44.5461183" lon="8.95547"><ele>579.5</ele><time>2026-04-25T12:14:57.999Z</time></trkpt><trkpt lat="44.5460367" lon="8.95548"><ele>579.0</ele><time>2026-04-25T12:14:58.996Z</time></trkpt><trkpt lat="44.5459583" lon="8.95548"><ele>578.5</ele><time>2026-04-25T12:14:59.998Z</time></trkpt><trkpt lat="44.5458933" lon="8.95545"><ele>578.0</ele><time>2026-04-25T12:15:00.996Z</time></trkpt><trkpt lat="44.5457933" lon="8.9553867"><ele>577.5</ele><time>2026-04-25T12:15:03.001Z</time></trkpt><trkpt lat="44.5457467" lon="8.95532"><ele>577.0</ele><time>2026-04-25T12:15:05.004Z</time></trkpt><trkpt lat="44.54578" lon="8.9552333"><ele>577.0</ele><time>2026-04-25T12:15:07.997Z</time></trkpt><trkpt lat="44.5458667" lon="8.9551467"><ele>577.0</ele><time>2026-04-25T12:15:10.998Z</time></trkpt><trkpt lat="44.54597" lon="8.9550917"><ele>577.0</ele><time>2026-04-25T12:15:12.996Z</time></trkpt><trkpt lat="44.54604" lon="8.9550617"><ele>577.0</ele><time>2026-04-25T12:15:13.998Z</time></trkpt><trkpt lat="44.5461083" lon="8.955025"><ele>577.0</ele><time>2026-04-25T12:15:14.999Z</time></trkpt><trkpt lat="44.54617" lon="8.9549967"><ele>577.0</ele><time>2026-04-25T12:15:15.997Z</time></trkpt><trkpt lat="44.5462367" lon="8.95497"><ele>579.1666666666667</ele><time>2026-04-25T12:15:16.996Z</time></trkpt><trkpt lat="44.5463017" lon="8.954935"><ele>581.3333333333334</ele><time>2026-04-25T12:15:18.002Z</time></trkpt><trkpt lat="44.546365" lon="8.9548917"><ele>583.5</ele><time>2026-04-25T12:15:19.001Z</time></trkpt><trkpt lat="44.54643" lon="8.9548467"><ele>585.6666666666666</ele><time>2026-04-25T12:15:19.999Z</time></trkpt><trkpt lat="44.5464917" lon="8.954805"><ele>587.8333333333333</ele><time>2026-04-25T12:15:21Z</time></trkpt><trkpt lat="44.546605" lon="8.9547333"><ele>590.0</ele><time>2026-04-25T12:15:23.002Z</time></trkpt><trkpt lat="44.5466717" lon="8.95471"><ele>590.0</ele><time>2026-04-25T12:15:23.993Z</time></trkpt><trkpt lat="44.5467383" lon="8.9546867"><ele>590.0</ele><time>2026-04-25T12:15:24.994Z</time></trkpt><trkpt lat="44.5468067" lon="8.9546583"><ele>590.0</ele><time>2026-04-25T12:15:25.995Z</time></trkpt><trkpt lat="44.5468717" lon="8.954625"><ele>590.0</ele><time>2026-04-25T12:15:26.995Z</time></trkpt><trkpt lat="44.5469883" lon="8.9545833"><ele>590.0</ele><time>2026-04-25T12:15:28.994Z</time></trkpt><trkpt lat="44.5470617" lon="8.9545617"><ele>590.0</ele><time>2026-04-25T12:15:29.993Z</time></trkpt><trkpt lat="44.54716" lon="8.9544833"><ele>592.75</ele><time>2026-04-25T12:15:31.995Z</time></trkpt><trkpt lat="44.5472633" lon="8.954385"><ele>595.5</ele><time>2026-04-25T12:15:33.998Z</time></trkpt><trkpt lat="44.5473417" lon="8.9542583"><ele>598.25</ele><time>2026-04-25T12:15:35.995Z</time></trkpt><trkpt lat="44.547405" lon="8.9541267"><ele>601.0</ele><time>2026-04-25T12:15:37.998Z</time></trkpt><trkpt lat="44.54747" lon="8.954025"><ele>602.1666666666667</ele><time>2026-04-25T12:15:39.997Z</time></trkpt><trkpt lat="44.5475017" lon="8.9539417"><ele>603.3333333333334</ele><time>2026-04-25T12:15:42.997Z</time></trkpt><trkpt lat="44.54748" lon="8.9538567"><ele>604.5</ele><time>2026-04-25T12:15:45.997Z</time></trkpt><trkpt lat="44.547465" lon="8.95373"><ele>605.6666666666666</ele><time>2026-04-25T12:15:48.999Z</time></trkpt><trkpt lat="44.5474617" lon="8.9536283"><ele>606.8333333333333</ele><time>2026-04-25T12:15:51.995Z</time></trkpt><trkpt lat="44.5474383" lon="8.953505"><ele>608.0</ele><time>2026-04-25T12:15:55Z</time></trkpt><trkpt lat="44.547445" lon="8.9533933"><ele>607.1999999999999</ele><time>2026-04-25T12:15:56.996Z</time></trkpt><trkpt lat="44.5474717" lon="8.9532967"><ele>606.4</ele><time>2026-04-25T12:15:58.993Z</time></trkpt><trkpt lat="44.5475133" lon="8.9531983"><ele>605.5999999999999</ele><time>2026-04-25T12:16:00.995Z</time></trkpt><trkpt lat="44.547575" lon="8.9531117"><ele>604.8</ele><time>2026-04-25T12:16:02.994Z</time></trkpt><trkpt lat="44.5476617" lon="8.95305"><ele>604.0</ele><time>2026-04-25T12:16:04.998Z</time></trkpt><trkpt lat="44.5477783" lon="8.9529833"><ele>604.0</ele><time>2026-04-25T12:16:06.995Z</time></trkpt><trkpt lat="44.5478417" lon="8.9529517"><ele>604.0</ele><time>2026-04-25T12:16:07.998Z</time></trkpt><trkpt lat="44.547905" lon="8.952915"><ele>604.0</ele><time>2026-04-25T12:16:08.994Z</time></trkpt><trkpt lat="44.5479733" lon="8.9528683"><ele>604.0</ele><time>2026-04-25T12:16:09.996Z</time></trkpt><trkpt lat="44.5480667" lon="8.9528333"><ele>604.0</ele><time>2026-04-25T12:16:11.993Z</time></trkpt><trkpt lat="44.54815" lon="8.9528217"><ele>604.0</ele><time>2026-04-25T12:16:13.995Z</time></trkpt><trkpt lat="44.5482183" lon="8.9528233"><ele>603.4</ele><time>2026-04-25T12:16:15.996Z</time></trkpt><trkpt lat="44.5483" lon="8.9529233"><ele>602.8</ele><time>2026-04-25T12:16:18.998Z</time></trkpt><trkpt lat="44.5483717" lon="8.9529933"><ele>602.2</ele><time>2026-04-25T12:16:20.994Z</time></trkpt><trkpt lat="44.54846" lon="8.9530333"><ele>601.6</ele><time>2026-04-25T12:16:22.993Z</time></trkpt><trkpt lat="44.5485767" lon="8.9530567"><ele>601.0</ele><time>2026-04-25T12:16:24.994Z</time></trkpt><trkpt lat="44.5486717" lon="8.9530717"><ele>598.8333333333334</ele><time>2026-04-25T12:16:26.997Z</time></trkpt><trkpt lat="44.5487633" lon="8.95308"><ele>596.6666666666667</ele><time>2026-04-25T12:16:28.998Z</time></trkpt><trkpt lat="44.5488283" lon="8.9530633"><ele>594.5</ele><time>2026-04-25T12:16:30.998Z</time></trkpt><trkpt lat="44.54885" lon="8.9531633"><ele>592.3333333333334</ele><time>2026-04-25T12:16:31.995Z</time></trkpt><trkpt lat="44.5489367" lon="8.9531533"><ele>590.1666666666666</ele><time>2026-04-25T12:16:34.996Z</time></trkpt><trkpt lat="44.549025" lon="8.95314"><ele>588.0</ele><time>2026-04-25T12:16:38Z</time></trkpt><trkpt lat="44.5490867" lon="8.9530983"><ele>588.0</ele><time>2026-04-25T12:16:39.991Z</time></trkpt><trkpt lat="44.5491567" lon="8.95306"><ele>588.0</ele><time>2026-04-25T12:16:41.994Z</time></trkpt><trkpt lat="44.5492233" lon="8.9530733"><ele>588.0</ele><time>2026-04-25T12:16:42.996Z</time></trkpt><trkpt lat="44.549305" lon="8.953085"><ele>588.0</ele><time>2026-04-25T12:16:43.993Z</time></trkpt><trkpt lat="44.5494" lon="8.9530933"><ele>588.0</ele><time>2026-04-25T12:16:45.002Z</time></trkpt><trkpt lat="44.5494983" lon="8.95309"><ele>588.0</ele><time>2026-04-25T12:16:45.998Z</time></trkpt><trkpt lat="44.5495917" lon="8.95306"><ele>587.4</ele><time>2026-04-25T12:16:46.995Z</time></trkpt><trkpt lat="44.5496783" lon="8.95303"><ele>586.8</ele><time>2026-04-25T12:16:48.002Z</time></trkpt><trkpt lat="44.549775" lon="8.9530083"><ele>586.2</ele><time>2026-04-25T12:16:48.996Z</time></trkpt><trkpt lat="44.549865" lon="8.9529933"><ele>585.6</ele><time>2026-04-25T12:16:49.998Z</time></trkpt><trkpt lat="44.54996" lon="8.9529567"><ele>585.0</ele><time>2026-04-25T12:16:50.999Z</time></trkpt><trkpt lat="44.550055" lon="8.9529133"><ele>585.0</ele><time>2026-04-25T12:16:51.995Z</time></trkpt><trkpt lat="44.5501483" lon="8.95287"><ele>585.0</ele><time>2026-04-25T12:16:52.995Z</time></trkpt><trkpt lat="44.5502367" lon="8.9528117"><ele>585.0</ele><time>2026-04-25T12:16:53.995Z</time></trkpt><trkpt lat="44.55033" lon="8.9527483"><ele>585.0</ele><time>2026-04-25T12:16:54.999Z</time></trkpt><trkpt lat="44.5504333" lon="8.9527"><ele>585.0</ele><time>2026-04-25T12:16:55.998Z</time></trkpt><trkpt lat="44.55052" lon="8.9526417"><ele>585.5</ele><time>2026-04-25T12:16:56.999Z</time></trkpt><trkpt lat="44.5506033" lon="8.95258"><ele>586.0</ele><time>2026-04-25T12:16:57.996Z</time></trkpt><trkpt lat="44.5506533" lon="8.9524867"><ele>586.5</ele><time>2026-04-25T12:16:58.999Z</time></trkpt><trkpt lat="44.5506867" lon="8.9523833"><ele>587.0</ele><time>2026-04-25T12:17:00.004Z</time></trkpt><trkpt lat="44.55071" lon="8.9522767"><ele>587.5</ele><time>2026-04-25T12:17:00.997Z</time></trkpt><trkpt lat="44.5507117" lon="8.9521617"><ele>588.0</ele><time>2026-04-25T12:17:01.997Z</time></trkpt><trkpt lat="44.5507283" lon="8.9520483"><ele>583.6</ele><time>2026-04-25T12:17:02.998Z</time></trkpt><trkpt lat="44.55076" lon="8.9519433"><ele>579.1999999999999</ele><time>2026-04-25T12:17:04.002Z</time></trkpt><trkpt lat="44.5508083" lon="8.9518417"><ele>574.8</ele><time>2026-04-25T12:17:04.996Z</time></trkpt><trkpt lat="44.5508667" lon="8.951745"><ele>570.4</ele><time>2026-04-25T12:17:05.995Z</time></trkpt><trkpt lat="44.5509317" lon="8.9516483"><ele>566.0</ele><time>2026-04-25T12:17:06.994Z</time></trkpt><trkpt lat="44.55104" lon="8.95158"><ele>566.4</ele><time>2026-04-25T12:17:07.992Z</time></trkpt><trkpt lat="44.5511367" lon="8.951515"><ele>566.8</ele><time>2026-04-25T12:17:09.004Z</time></trkpt><trkpt lat="44.5512167" lon="8.9514283"><ele>567.1999999999999</ele><time>2026-04-25T12:17:10.002Z</time></trkpt><trkpt lat="44.55128" lon="8.9513217"><ele>567.6</ele><time>2026-04-25T12:17:10.997Z</time></trkpt><trkpt lat="44.55133" lon="8.9511933"><ele>568.0</ele><time>2026-04-25T12:17:11.995Z</time></trkpt><trkpt lat="44.55137" lon="8.9510617"><ele>568.0</ele><time>2026-04-25T12:17:12.995Z</time></trkpt><trkpt lat="44.55141" lon="8.9509467"><ele>568.0</ele><time>2026-04-25T12:17:13.997Z</time></trkpt><trkpt lat="44.5514567" lon="8.9508567"><ele>568.0</ele><time>2026-04-25T12:17:14.999Z</time></trkpt><trkpt lat="44.5515083" lon="8.9507267"><ele>568.0</ele><time>2026-04-25T12:17:16.994Z</time></trkpt><trkpt lat="44.551495" lon="8.9506333"><ele>568.0</ele><time>2026-04-25T12:17:18.998Z</time></trkpt><trkpt lat="44.55143" lon="8.950555"><ele>568.0</ele><time>2026-04-25T12:17:21.003Z</time></trkpt><trkpt lat="44.5513217" lon="8.9505083"><ele>563.3333333333334</ele><time>2026-04-25T12:17:22.995Z</time></trkpt><trkpt lat="44.5512" lon="8.95047"><ele>558.6666666666667</ele><time>2026-04-25T12:17:24.994Z</time></trkpt><trkpt lat="44.5511283" lon="8.9504583"><ele>554.0</ele><time>2026-04-25T12:17:25.999Z</time></trkpt><trkpt lat="44.5510517" lon="8.9504433"><ele>549.3333333333334</ele><time>2026-04-25T12:17:26.996Z</time></trkpt><trkpt lat="44.5509733" lon="8.95044"><ele>544.6666666666666</ele><time>2026-04-25T12:17:27.995Z</time></trkpt><trkpt lat="44.5508883" lon="8.95045"><ele>540.0</ele><time>2026-04-25T12:17:29.001Z</time></trkpt><trkpt lat="44.550805" lon="8.9504667"><ele>540.0</ele><time>2026-04-25T12:17:29.994Z</time></trkpt><trkpt lat="44.55072" lon="8.950495"><ele>540.0</ele><time>2026-04-25T12:17:30.999Z</time></trkpt><trkpt lat="44.5506367" lon="8.9505433"><ele>540.0</ele><time>2026-04-25T12:17:31.997Z</time></trkpt><trkpt lat="44.5505583" lon="8.9506033"><ele>540.0</ele><time>2026-04-25T12:17:33.001Z</time></trkpt><trkpt lat="44.5504867" lon="8.9506767"><ele>540.0</ele><time>2026-04-25T12:17:33.994Z</time></trkpt><trkpt lat="44.55042" lon="8.9507583"><ele>540.0</ele><time>2026-04-25T12:17:34.996Z</time></trkpt><trkpt lat="44.550365" lon="8.9508567"><ele>537.6666666666666</ele><time>2026-04-25T12:17:35.997Z</time></trkpt><trkpt lat="44.5503183" lon="8.9509667"><ele>535.3333333333334</ele><time>2026-04-25T12:17:37Z</time></trkpt><trkpt lat="44.5502617" lon="8.9510683"><ele>533.0</ele><time>2026-04-25T12:17:37.999Z</time></trkpt><trkpt lat="44.5502067" lon="8.951165"><ele>530.6666666666667</ele><time>2026-04-25T12:17:38.997Z</time></trkpt><trkpt lat="44.5501617" lon="8.9512683"><ele>528.3333333333334</ele><time>2026-04-25T12:17:39.998Z</time></trkpt><trkpt lat="44.55013" lon="8.9513867"><ele>526.0</ele><time>2026-04-25T12:17:40.995Z</time></trkpt><trkpt lat="44.5500983" lon="8.9515083"><ele>526.0</ele><time>2026-04-25T12:17:41.998Z</time></trkpt><trkpt lat="44.5500733" lon="8.951625"><ele>526.0</ele><time>2026-04-25T12:17:43Z</time></trkpt><trkpt lat="44.5500533" lon="8.9517317"><ele>526.0</ele><time>2026-04-25T12:17:43.997Z</time></trkpt><trkpt lat="44.5500367" lon="8.9518283"><ele>526.0</ele><time>2026-04-25T12:17:44.994Z</time></trkpt><trkpt lat="44.549975" lon="8.9519733"><ele>526.0</ele><time>2026-04-25T12:17:47Z</time></trkpt><trkpt lat="44.54986" lon="8.952015"><ele>530.75</ele><time>2026-04-25T12:17:48.999Z</time></trkpt><trkpt lat="44.5497167" lon="8.952005"><ele>535.5</ele><time>2026-04-25T12:17:50.997Z</time></trkpt><trkpt lat="44.54963" lon="8.9520133"><ele>540.25</ele><time>2026-04-25T12:17:52Z</time></trkpt><trkpt lat="44.54951" lon="8.9519767"><ele>545.0</ele><time>2026-04-25T12:17:53.001Z</time></trkpt><trkpt lat="44.549415" lon="8.951945"><ele>545.0</ele><time>2026-04-25T12:17:54Z</time></trkpt><trkpt lat="44.54932" lon="8.9518817"><ele>545.0</ele><time>2026-04-25T12:17:54.997Z</time></trkpt><trkpt lat="44.5492317" lon="8.95179"><ele>545.0</ele><time>2026-04-25T12:17:55.995Z</time></trkpt><trkpt lat="44.5491533" lon="8.9516933"><ele>545.0</ele><time>2026-04-25T12:17:56.997Z</time></trkpt><trkpt lat="44.549075" lon="8.9515683"><ele>545.0</ele><time>2026-04-25T12:17:57.996Z</time></trkpt><trkpt lat="44.549" lon="8.9514517"><ele>543.2</ele><time>2026-04-25T12:17:58.994Z</time></trkpt><trkpt lat="44.5489217" lon="8.9513383"><ele>541.4</ele><time>2026-04-25T12:17:59.999Z</time></trkpt><trkpt lat="44.548845" lon="8.9512267"><ele>539.6</ele><time>2026-04-25T12:18:00.999Z</time></trkpt><trkpt lat="44.5487717" lon="8.9511233"><ele>537.8</ele><time>2026-04-25T12:18:01.995Z</time></trkpt><trkpt lat="44.5487067" lon="8.9509967"><ele>536.0</ele><time>2026-04-25T12:18:03.001Z</time></trkpt><trkpt lat="44.5486533" lon="8.9508733"><ele>530.6</ele><time>2026-04-25T12:18:03.998Z</time></trkpt><trkpt lat="44.5486" lon="8.9507633"><ele>525.2</ele><time>2026-04-25T12:18:04.999Z</time></trkpt><trkpt lat="44.548545" lon="8.9506467"><ele>519.8</ele><time>2026-04-25T12:18:05.994Z</time></trkpt><trkpt lat="44.5484767" lon="8.9505633"><ele>514.4</ele><time>2026-04-25T12:18:06.994Z</time></trkpt><trkpt lat="44.5484" lon="8.9505033"><ele>509.0</ele><time>2026-04-25T12:18:07.996Z</time></trkpt><trkpt lat="44.5483" lon="8.9504667"><ele>509.0</ele><time>2026-04-25T12:18:08.996Z</time></trkpt><trkpt lat="44.5481917" lon="8.9504633"><ele>509.0</ele><time>2026-04-25T12:18:09.997Z</time></trkpt><trkpt lat="44.5480883" lon="8.9504633"><ele>509.0</ele><time>2026-04-25T12:18:10.995Z</time></trkpt><trkpt lat="44.5479883" lon="8.9504517"><ele>509.0</ele><time>2026-04-25T12:18:11.997Z</time></trkpt><trkpt lat="44.5479083" lon="8.9503983"><ele>509.0</ele><time>2026-04-25T12:18:13.002Z</time></trkpt><trkpt lat="44.5478383" lon="8.9503267"><ele>510.8333333333333</ele><time>2026-04-25T12:18:13.995Z</time></trkpt><trkpt lat="44.54778" lon="8.9502433"><ele>512.6666666666666</ele><time>2026-04-25T12:18:14.994Z</time></trkpt><trkpt lat="44.5477267" lon="8.9501583"><ele>514.5</ele><time>2026-04-25T12:18:15.995Z</time></trkpt><trkpt lat="44.5476667" lon="8.9500883"><ele>516.3333333333334</ele><time>2026-04-25T12:18:16.999Z</time></trkpt><trkpt lat="44.5476017" lon="8.9500367"><ele>518.1666666666667</ele><time>2026-04-25T12:18:17.996Z</time></trkpt><trkpt lat="44.5475367" lon="8.9499967"><ele>520.0</ele><time>2026-04-25T12:18:18.997Z</time></trkpt><trkpt lat="44.5474633" lon="8.949965"><ele>516.1666666666667</ele><time>2026-04-25T12:18:19.998Z</time></trkpt><trkpt lat="44.5473967" lon="8.949915"><ele>512.3333333333334</ele><time>2026-04-25T12:18:20.997Z</time></trkpt><trkpt lat="44.54734" lon="8.9498517"><ele>508.5</ele><time>2026-04-25T12:18:21.997Z</time></trkpt><trkpt lat="44.5473" lon="8.94976"><ele>504.66666666666663</ele><time>2026-04-25T12:18:22.995Z</time></trkpt><trkpt lat="44.5472717" lon="8.9496617"><ele>500.8333333333333</ele><time>2026-04-25T12:18:23.998Z</time></trkpt><trkpt lat="44.5472583" lon="8.9495533"><ele>497.0</ele><time>2026-04-25T12:18:24.996Z</time></trkpt><trkpt lat="44.547235" lon="8.949445"><ele>496.99999999999994</ele><time>2026-04-25T12:18:25.998Z</time></trkpt><trkpt lat="44.5472017" lon="8.949345"><ele>497.0</ele><time>2026-04-25T12:18:26.997Z</time></trkpt><trkpt lat="44.5471533" lon="8.9492617"><ele>497.0</ele><time>2026-04-25T12:18:27.996Z</time></trkpt><trkpt lat="44.547095" lon="8.94918"><ele>497.0</ele><time>2026-04-25T12:18:28.995Z</time></trkpt><trkpt lat="44.5470283" lon="8.94911"><ele>496.99999999999994</ele><time>2026-04-25T12:18:29.996Z</time></trkpt><trkpt lat="44.5469567" lon="8.949055"><ele>497.0</ele><time>2026-04-25T12:18:30.995Z</time></trkpt><trkpt lat="44.54688" lon="8.9490217"><ele>497.3333333333333</ele><time>2026-04-25T12:18:31.998Z</time></trkpt><trkpt lat="44.5468033" lon="8.9490083"><ele>497.66666666666663</ele><time>2026-04-25T12:18:33Z</time></trkpt><trkpt lat="44.5467233" lon="8.949015"><ele>498.0</ele><time>2026-04-25T12:18:33.994Z</time></trkpt><trkpt lat="44.54664" lon="8.94905"><ele>498.33333333333337</ele><time>2026-04-25T12:18:34.996Z</time></trkpt><trkpt lat="44.5465633" lon="8.9491117"><ele>498.6666666666667</ele><time>2026-04-25T12:18:35.997Z</time></trkpt><trkpt lat="44.5464917" lon="8.949175"><ele>499.0</ele><time>2026-04-25T12:18:37.003Z</time></trkpt><trkpt lat="44.54642" lon="8.949225"><ele>499.00000000000006</ele><time>2026-04-25T12:18:37.999Z</time></trkpt><trkpt lat="44.546355" lon="8.9492583"><ele>499.0</ele><time>2026-04-25T12:18:39Z</time></trkpt><trkpt lat="44.54629" lon="8.94927"><ele>499.0</ele><time>2026-04-25T12:18:40.001Z</time></trkpt><trkpt lat="44.54621" lon="8.9491633"><ele>499.0</ele><time>2026-04-25T12:18:41.998Z</time></trkpt><trkpt lat="44.5462017" lon="8.9490717"><ele>499.00000000000006</ele><time>2026-04-25T12:18:43.001Z</time></trkpt><trkpt lat="44.5462117" lon="8.9489667"><ele>499.0</ele><time>2026-04-25T12:18:43.996Z</time></trkpt><trkpt lat="44.5462317" lon="8.9488583"><ele>497.1666666666667</ele><time>2026-04-25T12:18:44.999Z</time></trkpt><trkpt lat="44.54626" lon="8.9487483"><ele>495.33333333333337</ele><time>2026-04-25T12:18:46Z</time></trkpt><trkpt lat="44.5462867" lon="8.9486383"><ele>493.5</ele><time>2026-04-25T12:18:47.001Z</time></trkpt><trkpt lat="44.5463167" lon="8.948535"><ele>491.66666666666663</ele><time>2026-04-25T12:18:47.995Z</time></trkpt><trkpt lat="44.5463483" lon="8.948445"><ele>489.8333333333333</ele><time>2026-04-25T12:18:48.994Z</time></trkpt><trkpt lat="44.5463867" lon="8.948365"><ele>488.0</ele><time>2026-04-25T12:18:49.998Z</time></trkpt><trkpt lat="44.5464317" lon="8.948285"><ele>486.49999999999994</ele><time>2026-04-25T12:18:51Z</time></trkpt><trkpt lat="44.5464983" lon="8.9482083"><ele>485.0</ele><time>2026-04-25T12:18:51.997Z</time></trkpt><trkpt lat="44.546565" lon="8.94812"><ele>483.5</ele><time>2026-04-25T12:18:52.998Z</time></trkpt><trkpt lat="44.5466217" lon="8.948025"><ele>482.0</ele><time>2026-04-25T12:18:53.996Z</time></trkpt><trkpt lat="44.5466667" lon="8.9479217"><ele>480.49999999999994</ele><time>2026-04-25T12:18:54.996Z</time></trkpt><trkpt lat="44.54669" lon="8.947815"><ele>479.0</ele><time>2026-04-25T12:18:55.996Z</time></trkpt><trkpt lat="44.5466717" lon="8.9477117"><ele>479.0</ele><time>2026-04-25T12:18:56.998Z</time></trkpt><trkpt lat="44.546665" lon="8.9476133"><ele>479.0</ele><time>2026-04-25T12:18:57.997Z</time></trkpt><trkpt lat="44.54667" lon="8.947525"><ele>479.0</ele><time>2026-04-25T12:18:58.999Z</time></trkpt><trkpt lat="44.546685" lon="8.9474367"><ele>479.0</ele><time>2026-04-25T12:19:00.008Z</time></trkpt><trkpt lat="44.5467017" lon="8.9473467"><ele>479.0</ele><time>2026-04-25T12:19:00.994Z</time></trkpt><trkpt lat="44.54671" lon="8.9472517"><ele>479.0</ele><time>2026-04-25T12:19:01.995Z</time></trkpt><trkpt lat="44.5467167" lon="8.947145"><ele>479.0</ele><time>2026-04-25T12:19:02.998Z</time></trkpt><trkpt lat="44.5467117" lon="8.9470417"><ele>476.3333333333333</ele><time>2026-04-25T12:19:03.998Z</time></trkpt><trkpt lat="44.5467067" lon="8.9469433"><ele>473.66666666666663</ele><time>2026-04-25T12:19:04.996Z</time></trkpt><trkpt lat="44.5466833" lon="8.9468533"><ele>471.0</ele><time>2026-04-25T12:19:05.996Z</time></trkpt><trkpt lat="44.546655" lon="8.9467667"><ele>468.33333333333337</ele><time>2026-04-25T12:19:06.996Z</time></trkpt><trkpt lat="44.5466133" lon="8.946685"><ele>465.6666666666667</ele><time>2026-04-25T12:19:07.995Z</time></trkpt><trkpt lat="44.5464867" lon="8.94667"><ele>463.0</ele><time>2026-04-25T12:19:09.999Z</time></trkpt><trkpt lat="44.5464217" lon="8.9466917"><ele>463.0</ele><time>2026-04-25T12:19:10.996Z</time></trkpt><trkpt lat="44.5463533" lon="8.9467317"><ele>462.99999999999994</ele><time>2026-04-25T12:19:12Z</time></trkpt><trkpt lat="44.5462983" lon="8.9468233"><ele>462.99999999999994</ele><time>2026-04-25T12:19:12.996Z</time></trkpt><trkpt lat="44.5462517" lon="8.9469283"><ele>463.0</ele><time>2026-04-25T12:19:13.997Z</time></trkpt><trkpt lat="44.5461933" lon="8.9470433"><ele>463.0</ele><time>2026-04-25T12:19:14.997Z</time></trkpt><trkpt lat="44.5461217" lon="8.9471567"><ele>462.59999999999997</ele><time>2026-04-25T12:19:15.997Z</time></trkpt><trkpt lat="44.5460583" lon="8.94726"><ele>462.19999999999993</ele><time>2026-04-25T12:19:16.995Z</time></trkpt><trkpt lat="44.5460067" lon="8.9473767"><ele>461.8</ele><time>2026-04-25T12:19:17.996Z</time></trkpt><trkpt lat="44.54594" lon="8.947485"><ele>461.4</ele><time>2026-04-25T12:19:18.995Z</time></trkpt><trkpt lat="44.545875" lon="8.947585"><ele>461.0</ele><time>2026-04-25T12:19:19.996Z</time></trkpt><trkpt lat="44.5458083" lon="8.9476733"><ele>461.0</ele><time>2026-04-25T12:19:20.999Z</time></trkpt><trkpt lat="44.5457317" lon="8.9477517"><ele>461.0</ele><time>2026-04-25T12:19:21.999Z</time></trkpt><trkpt lat="44.54565" lon="8.9478183"><ele>461.0</ele><time>2026-04-25T12:19:22.998Z</time></trkpt><trkpt lat="44.545565" lon="8.9478817"><ele>461.0</ele><time>2026-04-25T12:19:23.998Z</time></trkpt><trkpt lat="44.5454833" lon="8.9479467"><ele>461.0</ele><time>2026-04-25T12:19:24.998Z</time></trkpt><trkpt lat="44.54541" lon="8.9480267"><ele>456.99999999999994</ele><time>2026-04-25T12:19:25.995Z</time></trkpt><trkpt lat="44.5453467" lon="8.94812"><ele>453.0</ele><time>2026-04-25T12:19:26.995Z</time></trkpt><trkpt lat="44.5452917" lon="8.9482167"><ele>449.0</ele><time>2026-04-25T12:19:28.001Z</time></trkpt><trkpt lat="44.545235" lon="8.94831"><ele>445.0</ele><time>2026-04-25T12:19:28.993Z</time></trkpt><trkpt lat="44.5451783" lon="8.9484067"><ele>440.99999999999994</ele><time>2026-04-25T12:19:29.994Z</time></trkpt><trkpt lat="44.5451183" lon="8.9485"><ele>437.0</ele><time>2026-04-25T12:19:30.997Z</time></trkpt><trkpt lat="44.5450567" lon="8.9485867"><ele>436.99999999999994</ele><time>2026-04-25T12:19:31.998Z</time></trkpt><trkpt lat="44.5449967" lon="8.9486717"><ele>437.0</ele><time>2026-04-25T12:19:32.996Z</time></trkpt><trkpt lat="44.5449467" lon="8.9487517"><ele>437.0</ele><time>2026-04-25T12:19:33.995Z</time></trkpt><trkpt lat="44.5449" lon="8.9488133"><ele>437.0</ele><time>2026-04-25T12:19:34.995Z</time></trkpt><trkpt lat="44.5448033" lon="8.9488833"><ele>436.99999999999994</ele><time>2026-04-25T12:19:36.997Z</time></trkpt><trkpt lat="44.5447183" lon="8.9488067"><ele>437.0</ele><time>2026-04-25T12:19:38.999Z</time></trkpt><trkpt lat="44.5447167" lon="8.9487183"><ele>437.0</ele><time>2026-04-25T12:19:39.996Z</time></trkpt><trkpt lat="44.5447417" lon="8.9485667"><ele>437.00000000000006</ele><time>2026-04-25T12:19:40.999Z</time></trkpt><trkpt lat="44.5447533" lon="8.94843"><ele>437.00000000000006</ele><time>2026-04-25T12:19:41.997Z</time></trkpt><trkpt lat="44.5447567" lon="8.94832"><ele>437.0</ele><time>2026-04-25T12:19:42.997Z</time></trkpt><trkpt lat="44.544755" lon="8.948175"><ele>437.0</ele><time>2026-04-25T12:19:43.993Z</time></trkpt><trkpt lat="44.5447483" lon="8.9480183"><ele>436.6</ele><time>2026-04-25T12:19:44.997Z</time></trkpt><trkpt lat="44.5447367" lon="8.9478617"><ele>436.20000000000005</ele><time>2026-04-25T12:19:45.995Z</time></trkpt><trkpt lat="44.5447283" lon="8.9477083"><ele>435.8</ele><time>2026-04-25T12:19:46.995Z</time></trkpt><trkpt lat="44.54472" lon="8.9475517"><ele>435.4</ele><time>2026-04-25T12:19:47.995Z</time></trkpt><trkpt lat="44.5447067" lon="8.947395"><ele>435.0</ele><time>2026-04-25T12:19:48.996Z</time></trkpt><trkpt lat="44.54469" lon="8.947255"><ele>433.2</ele><time>2026-04-25T12:19:49.995Z</time></trkpt><trkpt lat="44.5446817" lon="8.9471333"><ele>431.4</ele><time>2026-04-25T12:19:50.997Z</time></trkpt><trkpt lat="44.5446733" lon="8.9470367"><ele>429.6</ele><time>2026-04-25T12:19:51.998Z</time></trkpt><trkpt lat="44.5446717" lon="8.94687"><ele>427.8</ele><time>2026-04-25T12:19:53.997Z</time></trkpt><trkpt lat="44.5447517" lon="8.9467483"><ele>426.0</ele><time>2026-04-25T12:19:55.995Z</time></trkpt><trkpt lat="44.5447967" lon="8.9466817"><ele>424.4</ele><time>2026-04-25T12:19:56.997Z</time></trkpt><trkpt lat="44.544855" lon="8.9465417"><ele>422.8</ele><time>2026-04-25T12:19:58.995Z</time></trkpt><trkpt lat="44.5448283" lon="8.9464017"><ele>421.2</ele><time>2026-04-25T12:20:00.995Z</time></trkpt><trkpt lat="44.54479" lon="8.9463133"><ele>419.59999999999997</ele><time>2026-04-25T12:20:01.996Z</time></trkpt><trkpt lat="44.544765" lon="8.9462233"><ele>418.0</ele><time>2026-04-25T12:20:02.996Z</time></trkpt><trkpt lat="44.5447717" lon="8.9460617"><ele>418.0</ele><time>2026-04-25T12:20:04.996Z</time></trkpt><trkpt lat="44.5448733" lon="8.945955"><ele>418.0</ele><time>2026-04-25T12:20:06.995Z</time></trkpt><trkpt lat="44.5449383" lon="8.9458083"><ele>418.0</ele><time>2026-04-25T12:20:08.997Z</time></trkpt><trkpt lat="44.5449217" lon="8.9457183"><ele>418.0</ele><time>2026-04-25T12:20:09.997Z</time></trkpt><trkpt lat="44.5448967" lon="8.9456333"><ele>418.0</ele><time>2026-04-25T12:20:10.996Z</time></trkpt><trkpt lat="44.5448567" lon="8.94554"><ele>416.79999999999995</ele><time>2026-04-25T12:20:12.001Z</time></trkpt><trkpt lat="44.5448083" lon="8.9454333"><ele>415.6</ele><time>2026-04-25T12:20:13.001Z</time></trkpt><trkpt lat="44.5447333" lon="8.9453217"><ele>414.4</ele><time>2026-04-25T12:20:13.996Z</time></trkpt><trkpt lat="44.5446383" lon="8.9452183"><ele>413.20000000000005</ele><time>2026-04-25T12:20:14.996Z</time></trkpt><trkpt lat="44.54456" lon="8.9451117"><ele>412.0</ele><time>2026-04-25T12:20:15.994Z</time></trkpt><trkpt lat="44.5444783" lon="8.9450067"><ele>408.40000000000003</ele><time>2026-04-25T12:20:16.996Z</time></trkpt><trkpt lat="44.54439" lon="8.9449117"><ele>404.8</ele><time>2026-04-25T12:20:17.996Z</time></trkpt><trkpt lat="44.5443017" lon="8.9448233"><ele>401.2</ele><time>2026-04-25T12:20:18.994Z</time></trkpt><trkpt lat="44.5442117" lon="8.944745"><ele>397.6</ele><time>2026-04-25T12:20:19.992Z</time></trkpt><trkpt lat="44.54412" lon="8.9446767"><ele>394.0</ele><time>2026-04-25T12:20:21.002Z</time></trkpt><trkpt lat="44.5440283" lon="8.944615"><ele>394.0</ele><time>2026-04-25T12:20:21.995Z</time></trkpt><trkpt lat="44.5439267" lon="8.94458"><ele>394.0</ele><time>2026-04-25T12:20:22.995Z</time></trkpt><trkpt lat="44.5438283" lon="8.9445567"><ele>394.0</ele><time>2026-04-25T12:20:23.995Z</time></trkpt><trkpt lat="44.54373" lon="8.9445367"><ele>394.0</ele><time>2026-04-25T12:20:24.995Z</time></trkpt><trkpt lat="44.543635" lon="8.9445233"><ele>394.0</ele><time>2026-04-25T12:20:25.997Z</time></trkpt><trkpt lat="44.543545" lon="8.9445183"><ele>391.50000000000006</ele><time>2026-04-25T12:20:26.997Z</time></trkpt><trkpt lat="44.5434567" lon="8.9445367"><ele>389.0</ele><time>2026-04-25T12:20:27.996Z</time></trkpt><trkpt lat="44.54337" lon="8.9445683"><ele>386.5</ele><time>2026-04-25T12:20:28.991Z</time></trkpt><trkpt lat="44.5432833" lon="8.944615"><ele>384.0</ele><time>2026-04-25T12:20:29.994Z</time></trkpt><trkpt lat="44.5431917" lon="8.94465"><ele>381.5</ele><time>2026-04-25T12:20:30.992Z</time></trkpt><trkpt lat="44.5431117" lon="8.9446783"><ele>379.0</ele><time>2026-04-25T12:20:31.996Z</time></trkpt><trkpt lat="44.5430317" lon="8.9446817"><ele>379.0</ele><time>2026-04-25T12:20:32.999Z</time></trkpt><trkpt lat="44.54298" lon="8.9446217"><ele>379.0</ele><time>2026-04-25T12:20:33.994Z</time></trkpt><trkpt lat="44.54292" lon="8.9444883"><ele>379.0</ele><time>2026-04-25T12:20:36Z</time></trkpt><trkpt lat="44.542925" lon="8.94435"><ele>379.0</ele><time>2026-04-25T12:20:36.999Z</time></trkpt><trkpt lat="44.5429267" lon="8.9442233"><ele>379.0</ele><time>2026-04-25T12:20:37.995Z</time></trkpt><trkpt lat="44.54293" lon="8.9441167"><ele>379.0</ele><time>2026-04-25T12:20:38.997Z</time></trkpt><trkpt lat="44.5429283" lon="8.94402"><ele>379.66666666666663</ele><time>2026-04-25T12:20:39.994Z</time></trkpt><trkpt lat="44.5429" lon="8.9438583"><ele>380.3333333333333</ele><time>2026-04-25T12:20:41.996Z</time></trkpt><trkpt lat="44.5428417" lon="8.943805"><ele>381.0</ele><time>2026-04-25T12:20:42.998Z</time></trkpt><trkpt lat="44.54277" lon="8.9437667"><ele>381.6666666666667</ele><time>2026-04-25T12:20:43.996Z</time></trkpt><trkpt lat="44.5426767" lon="8.94375"><ele>382.33333333333337</ele><time>2026-04-25T12:20:45.002Z</time></trkpt><trkpt lat="44.54259" lon="8.9437533"><ele>383.0</ele><time>2026-04-25T12:20:45.992Z</time></trkpt><trkpt lat="44.5425" lon="8.94376"><ele>380.6666666666667</ele><time>2026-04-25T12:20:46.995Z</time></trkpt><trkpt lat="44.542415" lon="8.9437583"><ele>378.33333333333337</ele><time>2026-04-25T12:20:47.996Z</time></trkpt><trkpt lat="44.542335" lon="8.943755"><ele>376.0</ele><time>2026-04-25T12:20:48.998Z</time></trkpt><trkpt lat="44.542255" lon="8.9437433"><ele>373.6666666666667</ele><time>2026-04-25T12:20:49.994Z</time></trkpt><trkpt lat="44.5421767" lon="8.9437167"><ele>371.3333333333333</ele><time>2026-04-25T12:20:50.994Z</time></trkpt><trkpt lat="44.5421333" lon="8.943645"><ele>369.0</ele><time>2026-04-25T12:20:51.998Z</time></trkpt><trkpt lat="44.5420867" lon="8.943565"><ele>369.0</ele><time>2026-04-25T12:20:52.995Z</time></trkpt><trkpt lat="44.542055" lon="8.9434617"><ele>369.0</ele><time>2026-04-25T12:20:54.001Z</time></trkpt><trkpt lat="44.5420283" lon="8.9433583"><ele>369.0</ele><time>2026-04-25T12:20:54.995Z</time></trkpt><trkpt lat="44.5419983" lon="8.9432717"><ele>369.0</ele><time>2026-04-25T12:20:55.995Z</time></trkpt><trkpt lat="44.5419567" lon="8.9431933"><ele>369.0</ele><time>2026-04-25T12:20:57Z</time></trkpt><trkpt lat="44.5419033" lon="8.9431233"><ele>369.0</ele><time>2026-04-25T12:20:57.995Z</time></trkpt><trkpt lat="44.5418433" lon="8.9430683"><ele>369.0</ele><time>2026-04-25T12:20:58.998Z</time></trkpt><trkpt lat="44.5417717" lon="8.94302"><ele>366.6666666666667</ele><time>2026-04-25T12:20:59.994Z</time></trkpt><trkpt lat="44.541695" lon="8.9429817"><ele>364.3333333333333</ele><time>2026-04-25T12:21:00.994Z</time></trkpt><trkpt lat="44.5416183" lon="8.942925"><ele>362.0</ele><time>2026-04-25T12:21:02.004Z</time></trkpt><trkpt lat="44.5415383" lon="8.94289"><ele>359.66666666666663</ele><time>2026-04-25T12:21:02.996Z</time></trkpt><trkpt lat="44.541455" lon="8.942845"><ele>357.3333333333333</ele><time>2026-04-25T12:21:03.991Z</time></trkpt><trkpt lat="44.5413683" lon="8.9427917"><ele>355.0</ele><time>2026-04-25T12:21:04.994Z</time></trkpt><trkpt lat="44.541285" lon="8.9427233"><ele>354.5</ele><time>2026-04-25T12:21:06.003Z</time></trkpt><trkpt lat="44.5412067" lon="8.9426483"><ele>354.0</ele><time>2026-04-25T12:21:06.994Z</time></trkpt><trkpt lat="44.541135" lon="8.942565"><ele>353.5</ele><time>2026-04-25T12:21:07.993Z</time></trkpt><trkpt lat="44.54107" lon="8.94249"><ele>353.0</ele><time>2026-04-25T12:21:08.994Z</time></trkpt><trkpt lat="44.541005" lon="8.9424217"><ele>352.5</ele><time>2026-04-25T12:21:09.993Z</time></trkpt><trkpt lat="44.5409583" lon="8.942355"><ele>352.0</ele><time>2026-04-25T12:21:10.996Z</time></trkpt><trkpt lat="44.54092" lon="8.942275"><ele>352.0</ele><time>2026-04-25T12:21:11.997Z</time></trkpt><trkpt lat="44.5408767" lon="8.9421367"><ele>352.0</ele><time>2026-04-25T12:21:13.993Z</time></trkpt><trkpt lat="44.5408467" lon="8.942055"><ele>352.0</ele><time>2026-04-25T12:21:14.997Z</time></trkpt><trkpt lat="44.5407883" lon="8.941925"><ele>352.0</ele><time>2026-04-25T12:21:16.996Z</time></trkpt><trkpt lat="44.5407433" lon="8.9417967"><ele>352.0</ele><time>2026-04-25T12:21:17.996Z</time></trkpt><trkpt lat="44.54069" lon="8.9417117"><ele>353.5</ele><time>2026-04-25T12:21:19.001Z</time></trkpt><trkpt lat="44.540635" lon="8.9416267"><ele>355.0</ele><time>2026-04-25T12:21:19.991Z</time></trkpt><trkpt lat="44.5405483" lon="8.941505"><ele>356.5</ele><time>2026-04-25T12:21:21.996Z</time></trkpt><trkpt lat="44.5404967" lon="8.9414467"><ele>358.0</ele><time>2026-04-25T12:21:23Z</time></trkpt><trkpt lat="44.5404583" lon="8.9413433"><ele>359.5</ele><time>2026-04-25T12:21:24.998Z</time></trkpt><trkpt lat="44.5404583" lon="8.9412467"><ele>361.0</ele><time>2026-04-25T12:21:26.998Z</time></trkpt><trkpt lat="44.5405183" lon="8.9410917"><ele>361.0</ele><time>2026-04-25T12:21:28.995Z</time></trkpt><trkpt lat="44.5405217" lon="8.940955"><ele>361.0</ele><time>2026-04-25T12:21:30.994Z</time></trkpt><trkpt lat="44.5405383" lon="8.9410867"><ele>361.0</ele><time>2026-04-25T12:21:36.994Z</time></trkpt><trkpt lat="44.5405333" lon="8.9409733"><ele>361.0</ele><time>2026-04-25T12:21:42.998Z</time></trkpt><trkpt lat="44.5405817" lon="8.9408317"><ele>361.0</ele><time>2026-04-25T12:21:45.002Z</time></trkpt><trkpt lat="44.5406233" lon="8.94076"><ele>358.25</ele><time>2026-04-25T12:21:45.999Z</time></trkpt><trkpt lat="44.5407017" lon="8.9406283"><ele>355.5</ele><time>2026-04-25T12:21:47.996Z</time></trkpt><trkpt lat="44.5407733" lon="8.9404933"><ele>352.75</ele><time>2026-04-25T12:21:49.994Z</time></trkpt><trkpt lat="44.5408283" lon="8.9403767"><ele>350.0</ele><time>2026-04-25T12:21:51.996Z</time></trkpt><trkpt lat="44.54092" lon="8.9402617"><ele>350.0</ele><time>2026-04-25T12:21:53.995Z</time></trkpt><trkpt lat="44.540975" lon="8.9401967"><ele>350.0</ele><time>2026-04-25T12:21:54.995Z</time></trkpt><trkpt lat="44.5410383" lon="8.9401317"><ele>350.0</ele><time>2026-04-25T12:21:56Z</time></trkpt><trkpt lat="44.541095" lon="8.9400533"><ele>350.0</ele><time>2026-04-25T12:21:56.994Z</time></trkpt><trkpt lat="44.541145" lon="8.93996"><ele>350.0</ele><time>2026-04-25T12:21:57.997Z</time></trkpt><trkpt lat="44.541185" lon="8.93984"><ele>350.0</ele><time>2026-04-25T12:21:58.996Z</time></trkpt><trkpt lat="44.5412367" lon="8.939745"><ele>348.6666666666667</ele><time>2026-04-25T12:21:59.994Z</time></trkpt><trkpt lat="44.5412783" lon="8.9396567"><ele>347.33333333333337</ele><time>2026-04-25T12:22:00.997Z</time></trkpt><trkpt lat="44.5413167" lon="8.9395767"><ele>346.0</ele><time>2026-04-25T12:22:02.001Z</time></trkpt><trkpt lat="44.541365" lon="8.9395117"><ele>344.6666666666667</ele><time>2026-04-25T12:22:02.996Z</time></trkpt><trkpt lat="44.5414583" lon="8.9394183"><ele>343.3333333333333</ele><time>2026-04-25T12:22:04.997Z</time></trkpt><trkpt lat="44.5415617" lon="8.9394167"><ele>342.0</ele><time>2026-04-25T12:22:06.999Z</time></trkpt><trkpt lat="44.5416317" lon="8.939425"><ele>342.0</ele><time>2026-04-25T12:22:07.997Z</time></trkpt><trkpt lat="44.5417083" lon="8.9394717"><ele>342.0</ele><time>2026-04-25T12:22:08.998Z</time></trkpt><trkpt lat="44.541795" lon="8.9395183"><ele>342.0</ele><time>2026-04-25T12:22:09.996Z</time></trkpt><trkpt lat="44.5418867" lon="8.9395517"><ele>342.0</ele><time>2026-04-25T12:22:10.997Z</time></trkpt><trkpt lat="44.5419833" lon="8.939555"><ele>342.0</ele><time>2026-04-25T12:22:11.998Z</time></trkpt><trkpt lat="44.5420833" lon="8.93956"><ele>339.40000000000003</ele><time>2026-04-25T12:22:12.996Z</time></trkpt><trkpt lat="44.5421867" lon="8.9395883"><ele>336.8</ele><time>2026-04-25T12:22:13.994Z</time></trkpt><trkpt lat="44.5422817" lon="8.939635"><ele>334.2</ele><time>2026-04-25T12:22:14.996Z</time></trkpt><trkpt lat="44.5423767" lon="8.9397217"><ele>331.6</ele><time>2026-04-25T12:22:15.994Z</time></trkpt><trkpt lat="44.5424617" lon="8.9397683"><ele>329.0</ele><time>2026-04-25T12:22:16.996Z</time></trkpt><trkpt lat="44.5425517" lon="8.93981"><ele>329.0</ele><time>2026-04-25T12:22:17.996Z</time></trkpt><trkpt lat="44.542655" lon="8.93983"><ele>329.0</ele><time>2026-04-25T12:22:18.993Z</time></trkpt><trkpt lat="44.5427617" lon="8.9398483"><ele>329.0</ele><time>2026-04-25T12:22:19.998Z</time></trkpt><trkpt lat="44.5428683" lon="8.93987"><ele>329.0</ele><time>2026-04-25T12:22:20.994Z</time></trkpt><trkpt lat="44.542975" lon="8.9398883"><ele>329.0</ele><time>2026-04-25T12:22:21.997Z</time></trkpt><trkpt lat="44.5430833" lon="8.9399117"><ele>326.0</ele><time>2026-04-25T12:22:22.994Z</time></trkpt><trkpt lat="44.5432017" lon="8.9399717"><ele>323.0</ele><time>2026-04-25T12:22:23.991Z</time></trkpt><trkpt lat="44.5432967" lon="8.94001"><ele>320.0</ele><time>2026-04-25T12:22:24.995Z</time></trkpt><trkpt lat="44.5433817" lon="8.940055"><ele>317.0</ele><time>2026-04-25T12:22:25.994Z</time></trkpt><trkpt lat="44.5434683" lon="8.940095"><ele>314.0</ele><time>2026-04-25T12:22:27.002Z</time></trkpt><trkpt lat="44.543545" lon="8.94013"><ele>314.0</ele><time>2026-04-25T12:22:27.997Z</time></trkpt><trkpt lat="44.543605" lon="8.9401"><ele>314.0</ele><time>2026-04-25T12:22:30.995Z</time></trkpt><trkpt lat="44.5435733" lon="8.9400183"><ele>314.0</ele><time>2026-04-25T12:22:32.999Z</time></trkpt><trkpt lat="44.54348" lon="8.9399983"><ele>314.0</ele><time>2026-04-25T12:22:33.996Z</time></trkpt><trkpt lat="44.5434" lon="8.9399667"><ele>314.0</ele><time>2026-04-25T12:22:34.994Z</time></trkpt><trkpt lat="44.5433233" lon="8.93993"><ele>314.0</ele><time>2026-04-25T12:22:35.997Z</time></trkpt><trkpt lat="44.5432483" lon="8.9399"><ele>314.0</ele><time>2026-04-25T12:22:36.994Z</time></trkpt><trkpt lat="44.543175" lon="8.93986"><ele>314.0</ele><time>2026-04-25T12:22:37.996Z</time></trkpt><trkpt lat="44.5431017" lon="8.939815"><ele>314.0</ele><time>2026-04-25T12:22:38.995Z</time></trkpt><trkpt lat="44.5430283" lon="8.9397783"><ele>314.0</ele><time>2026-04-25T12:22:39.994Z</time></trkpt><trkpt lat="44.542965" lon="8.93973"><ele>314.0</ele><time>2026-04-25T12:22:40.994Z</time></trkpt><trkpt lat="44.5429" lon="8.9396867"><ele>314.0</ele><time>2026-04-25T12:22:41.995Z</time></trkpt><trkpt lat="44.5428317" lon="8.9396467"><ele>316.5</ele><time>2026-04-25T12:22:42.998Z</time></trkpt><trkpt lat="44.5427617" lon="8.9396"><ele>319.0</ele><time>2026-04-25T12:22:43.996Z</time></trkpt><trkpt lat="44.54269" lon="8.9395417"><ele>321.5</ele><time>2026-04-25T12:22:45.002Z</time></trkpt><trkpt lat="44.5426233" lon="8.9394683"><ele>324.0</ele><time>2026-04-25T12:22:45.996Z</time></trkpt><trkpt lat="44.5425633" lon="8.93938"><ele>326.5</ele><time>2026-04-25T12:22:46.993Z</time></trkpt><trkpt lat="44.5425033" lon="8.9392883"><ele>329.0</ele><time>2026-04-25T12:22:47.997Z</time></trkpt><trkpt lat="44.5424467" lon="8.9392"><ele>326.83333333333337</ele><time>2026-04-25T12:22:49Z</time></trkpt><trkpt lat="44.54239" lon="8.9391117"><ele>324.6666666666667</ele><time>2026-04-25T12:22:49.995Z</time></trkpt><trkpt lat="44.54233" lon="8.93903"><ele>322.5</ele><time>2026-04-25T12:22:50.995Z</time></trkpt><trkpt lat="44.54227" lon="8.9389617"><ele>320.3333333333333</ele><time>2026-04-25T12:22:52Z</time></trkpt><trkpt lat="44.5421983" lon="8.9389067"><ele>318.16666666666663</ele><time>2026-04-25T12:22:52.996Z</time></trkpt><trkpt lat="44.5421233" lon="8.9388667"><ele>316.0</ele><time>2026-04-25T12:22:53.993Z</time></trkpt><trkpt lat="44.54204" lon="8.9388367"><ele>316.0</ele><time>2026-04-25T12:22:54.995Z</time></trkpt><trkpt lat="44.5419567" lon="8.9387967"><ele>316.0</ele><time>2026-04-25T12:22:56Z</time></trkpt><trkpt lat="44.541875" lon="8.93874"><ele>316.0</ele><time>2026-04-25T12:22:56.999Z</time></trkpt><trkpt lat="44.5417767" lon="8.9386717"><ele>316.0</ele><time>2026-04-25T12:22:57.998Z</time></trkpt><trkpt lat="44.5416983" lon="8.9386167"><ele>316.0</ele><time>2026-04-25T12:22:58.993Z</time></trkpt><trkpt lat="44.5416033" lon="8.9385633"><ele>316.0</ele><time>2026-04-25T12:22:59.994Z</time></trkpt><trkpt lat="44.5415067" lon="8.9385117"><ele>316.0</ele><time>2026-04-25T12:23:00.995Z</time></trkpt><trkpt lat="44.5414117" lon="8.9384667"><ele>316.0</ele><time>2026-04-25T12:23:02.001Z</time></trkpt><trkpt lat="44.5413083" lon="8.938435"><ele>316.0</ele><time>2026-04-25T12:23:02.995Z</time></trkpt><trkpt lat="44.5412167" lon="8.9384133"><ele>316.0</ele><time>2026-04-25T12:23:03.995Z</time></trkpt><trkpt lat="44.54114" lon="8.9384133"><ele>316.0</ele><time>2026-04-25T12:23:04.999Z</time></trkpt><trkpt lat="44.541025" lon="8.938425"><ele>316.0</ele><time>2026-04-25T12:23:06.999Z</time></trkpt><trkpt lat="44.5409633" lon="8.938445"><ele>316.0</ele><time>2026-04-25T12:23:07.999Z</time></trkpt><trkpt lat="44.5411283" lon="8.9383967"><ele>316.0</ele><time>2026-04-25T12:23:11.993Z</time></trkpt><trkpt lat="44.54121" lon="8.9384183"><ele>316.0</ele><time>2026-04-25T12:23:12.997Z</time></trkpt><trkpt lat="44.5413" lon="8.9384583"><ele>316.0</ele><time>2026-04-25T12:23:13.999Z</time></trkpt><trkpt lat="44.5413733" lon="8.9384883"><ele>316.0</ele><time>2026-04-25T12:23:14.993Z</time></trkpt><trkpt lat="44.5414433" lon="8.9385233"><ele>316.0</ele><time>2026-04-25T12:23:15.997Z</time></trkpt><trkpt lat="44.541505" lon="8.938555"><ele>316.0</ele><time>2026-04-25T12:23:16.996Z</time></trkpt><trkpt lat="44.5416117" lon="8.9386233"><ele>316.0</ele><time>2026-04-25T12:23:18.999Z</time></trkpt><trkpt lat="44.5416183" lon="8.938515"><ele>316.0</ele><time>2026-04-25T12:23:20.995Z</time></trkpt><trkpt lat="44.541575" lon="8.938425"><ele>308.2</ele><time>2026-04-25T12:23:22.996Z</time></trkpt><trkpt lat="44.541475" lon="8.9383733"><ele>300.40000000000003</ele><time>2026-04-25T12:23:24.997Z</time></trkpt><trkpt lat="44.541415" lon="8.93833"><ele>292.6</ele><time>2026-04-25T12:23:25.997Z</time></trkpt><trkpt lat="44.5413233" lon="8.9382767"><ele>284.8</ele><time>2026-04-25T12:23:26.994Z</time></trkpt><trkpt lat="44.5412067" lon="8.9382283"><ele>277.0</ele><time>2026-04-25T12:23:28.001Z</time></trkpt><trkpt lat="44.54109" lon="8.9381817"><ele>277.0</ele><time>2026-04-25T12:23:28.995Z</time></trkpt><trkpt lat="44.541005" lon="8.9381433"><ele>277.0</ele><time>2026-04-25T12:23:29.994Z</time></trkpt><trkpt lat="44.5409367" lon="8.938135"><ele>277.0</ele><time>2026-04-25T12:23:30.999Z</time></trkpt><trkpt lat="44.5408317" lon="8.938105"><ele>277.0</ele><time>2026-04-25T12:23:32.994Z</time></trkpt><trkpt lat="44.54079" lon="8.9380317"><ele>277.0</ele><time>2026-04-25T12:23:35.998Z</time></trkpt><trkpt lat="44.5408583" lon="8.9380367"><ele>277.0</ele><time>2026-04-25T12:23:36.995Z</time></trkpt><trkpt lat="44.5409617" lon="8.9380367"><ele>277.0</ele><time>2026-04-25T12:23:38.998Z</time></trkpt><trkpt lat="44.5410833" lon="8.9380617"><ele>277.0</ele><time>2026-04-25T12:23:40.994Z</time></trkpt><trkpt lat="44.5412067" lon="8.9380967"><ele>277.0</ele><time>2026-04-25T12:23:42.995Z</time></trkpt><trkpt lat="44.54132" lon="8.9381617"><ele>277.0</ele><time>2026-04-25T12:23:44.996Z</time></trkpt><trkpt lat="44.5414083" lon="8.9382067"><ele>277.0</ele><time>2026-04-25T12:23:46.997Z</time></trkpt><trkpt lat="44.5413433" lon="8.9380783"><ele>277.0</ele><time>2026-04-25T12:23:51.006Z</time></trkpt><trkpt lat="44.5412367" lon="8.9380117"><ele>277.0</ele><time>2026-04-25T12:23:53Z</time></trkpt><trkpt lat="44.5411567" lon="8.9379633"><ele>277.0</ele><time>2026-04-25T12:23:54.002Z</time></trkpt><trkpt lat="44.5410767" lon="8.93792"><ele>277.0</ele><time>2026-04-25T12:23:54.995Z</time></trkpt><trkpt lat="44.5409983" lon="8.9378883"><ele>277.0</ele><time>2026-04-25T12:23:55.993Z</time></trkpt><trkpt lat="44.5409317" lon="8.93785"><ele>277.0</ele><time>2026-04-25T12:23:56.999Z</time></trkpt><trkpt lat="44.5408683" lon="8.93782"><ele>277.0</ele><time>2026-04-25T12:23:57.994Z</time></trkpt><trkpt lat="44.5407667" lon="8.93775"><ele>277.0</ele><time>2026-04-25T12:23:59.997Z</time></trkpt><trkpt lat="44.5407583" lon="8.9376283"><ele>277.0</ele><time>2026-04-25T12:24:01.996Z</time></trkpt><trkpt lat="44.54079" lon="8.9375467"><ele>277.0</ele><time>2026-04-25T12:24:02.996Z</time></trkpt><trkpt lat="44.540835" lon="8.9374667"><ele>273.8333333333333</ele><time>2026-04-25T12:24:03.998Z</time></trkpt><trkpt lat="44.5408767" lon="8.9373717"><ele>270.66666666666663</ele><time>2026-04-25T12:24:04.994Z</time></trkpt><trkpt lat="44.5409083" lon="8.9372833"><ele>267.5</ele><time>2026-04-25T12:24:05.999Z</time></trkpt><trkpt lat="44.5409433" lon="8.9371933"><ele>264.3333333333333</ele><time>2026-04-25T12:24:06.996Z</time></trkpt><trkpt lat="44.54096" lon="8.9370983"><ele>261.1666666666667</ele><time>2026-04-25T12:24:07.993Z</time></trkpt><trkpt lat="44.5409583" lon="8.9370033"><ele>258.0</ele><time>2026-04-25T12:24:08.994Z</time></trkpt><trkpt lat="44.5408833" lon="8.9369117"><ele>258.0</ele><time>2026-04-25T12:24:09.995Z</time></trkpt><trkpt lat="44.5408233" lon="8.9368267"><ele>258.0</ele><time>2026-04-25T12:24:10.994Z</time></trkpt><trkpt lat="44.54075" lon="8.9367467"><ele>258.0</ele><time>2026-04-25T12:24:11.993Z</time></trkpt><trkpt lat="44.540675" lon="8.9366717"><ele>258.0</ele><time>2026-04-25T12:24:12.998Z</time></trkpt><trkpt lat="44.5406133" lon="8.9365933"><ele>258.0</ele><time>2026-04-25T12:24:13.993Z</time></trkpt><trkpt lat="44.5405583" lon="8.9365133"><ele>258.0</ele><time>2026-04-25T12:24:14.998Z</time></trkpt><trkpt lat="44.54051" lon="8.9364267"><ele>258.6</ele><time>2026-04-25T12:24:15.998Z</time></trkpt><trkpt lat="44.54047" lon="8.9363317"><ele>259.20000000000005</ele><time>2026-04-25T12:24:17.001Z</time></trkpt><trkpt lat="44.5404367" lon="8.9362317"><ele>259.8</ele><time>2026-04-25T12:24:17.995Z</time></trkpt><trkpt lat="44.5404033" lon="8.9361033"><ele>260.40000000000003</ele><time>2026-04-25T12:24:19.001Z</time></trkpt><trkpt lat="44.5403683" lon="8.9359533"><ele>261.0</ele><time>2026-04-25T12:24:19.997Z</time></trkpt><trkpt lat="44.5403283" lon="8.9358067"><ele>258.75</ele><time>2026-04-25T12:24:21Z</time></trkpt><trkpt lat="44.5402833" lon="8.9356517"><ele>256.5</ele><time>2026-04-25T12:24:21.995Z</time></trkpt><trkpt lat="44.54024" lon="8.935505"><ele>254.25</ele><time>2026-04-25T12:24:22.999Z</time></trkpt><trkpt lat="44.5402033" lon="8.9353533"><ele>252.0</ele><time>2026-04-25T12:24:23.997Z</time></trkpt><trkpt lat="44.5401583" lon="8.9352183"><ele>252.0</ele><time>2026-04-25T12:24:25.001Z</time></trkpt><trkpt lat="44.5401083" lon="8.9350833"><ele>252.0</ele><time>2026-04-25T12:24:25.997Z</time></trkpt><trkpt lat="44.5400517" lon="8.93496"><ele>252.0</ele><time>2026-04-25T12:24:27.002Z</time></trkpt><trkpt lat="44.53998" lon="8.9348467"><ele>252.0</ele><time>2026-04-25T12:24:27.998Z</time></trkpt><trkpt lat="44.5399067" lon="8.9347383"><ele>252.0</ele><time>2026-04-25T12:24:28.996Z</time></trkpt><trkpt lat="44.5398483" lon="8.93462"><ele>252.0</ele><time>2026-04-25T12:24:29.996Z</time></trkpt><trkpt lat="44.539805" lon="8.934495"><ele>252.0</ele><time>2026-04-25T12:24:30.994Z</time></trkpt><trkpt lat="44.5397717" lon="8.93437"><ele>252.0</ele><time>2026-04-25T12:24:31.996Z</time></trkpt><trkpt lat="44.5397683" lon="8.9342367"><ele>252.0</ele><time>2026-04-25T12:24:32.993Z</time></trkpt><trkpt lat="44.53978" lon="8.9341083"><ele>252.0</ele><time>2026-04-25T12:24:33.998Z</time></trkpt><trkpt lat="44.5398" lon="8.93399"><ele>252.0</ele><time>2026-04-25T12:24:34.996Z</time></trkpt><trkpt lat="44.53982" lon="8.9338767"><ele>252.0</ele><time>2026-04-25T12:24:35.995Z</time></trkpt><trkpt lat="44.5398783" lon="8.9337733"><ele>252.0</ele><time>2026-04-25T12:24:36.995Z</time></trkpt><trkpt lat="44.5399683" lon="8.9336767"><ele>252.0</ele><time>2026-04-25T12:24:37.994Z</time></trkpt><trkpt lat="44.5400417" lon="8.933585"><ele>252.0</ele><time>2026-04-25T12:24:38.996Z</time></trkpt><trkpt lat="44.5401583" lon="8.9335217"><ele>252.0</ele><time>2026-04-25T12:24:40.001Z</time></trkpt><trkpt lat="44.540255" lon="8.9334317"><ele>252.0</ele><time>2026-04-25T12:24:40.995Z</time></trkpt><trkpt lat="44.5403567" lon="8.93336"><ele>252.0</ele><time>2026-04-25T12:24:41.995Z</time></trkpt><trkpt lat="44.540445" lon="8.93329"><ele>252.0</ele><time>2026-04-25T12:24:42.994Z</time></trkpt><trkpt lat="44.5405117" lon="8.93319"><ele>252.0</ele><time>2026-04-25T12:24:43.994Z</time></trkpt><trkpt lat="44.5405667" lon="8.93309"><ele>252.16666666666666</ele><time>2026-04-25T12:24:44.996Z</time></trkpt><trkpt lat="44.5406117" lon="8.9329883"><ele>252.33333333333331</ele><time>2026-04-25T12:24:45.995Z</time></trkpt><trkpt lat="44.5406517" lon="8.93289"><ele>252.5</ele><time>2026-04-25T12:24:46.999Z</time></trkpt><trkpt lat="44.5406833" lon="8.9327817"><ele>252.66666666666666</ele><time>2026-04-25T12:24:47.998Z</time></trkpt><trkpt lat="44.5407" lon="8.9326733"><ele>252.83333333333331</ele><time>2026-04-25T12:24:49Z</time></trkpt><trkpt lat="44.5407033" lon="8.9325567"><ele>253.0</ele><time>2026-04-25T12:24:49.992Z</time></trkpt><trkpt lat="44.54069" lon="8.93244"><ele>253.00000000000003</ele><time>2026-04-25T12:24:51Z</time></trkpt><trkpt lat="44.540695" lon="8.9323333"><ele>253.0</ele><time>2026-04-25T12:24:51.996Z</time></trkpt><trkpt lat="44.54069" lon="8.9322283"><ele>253.00000000000003</ele><time>2026-04-25T12:24:52.997Z</time></trkpt><trkpt lat="44.5406833" lon="8.9321317"><ele>253.00000000000003</ele><time>2026-04-25T12:24:53.996Z</time></trkpt><trkpt lat="44.5406733" lon="8.93204"><ele>253.0</ele><time>2026-04-25T12:24:54.999Z</time></trkpt><trkpt lat="44.5406783" lon="8.9319483"><ele>253.00000000000003</ele><time>2026-04-25T12:24:55.995Z</time></trkpt><trkpt lat="44.5406983" lon="8.93186"><ele>253.00000000000003</ele><time>2026-04-25T12:24:57Z</time></trkpt><trkpt lat="44.5407567" lon="8.9318"><ele>252.99999999999997</ele><time>2026-04-25T12:24:57.998Z</time></trkpt><trkpt lat="44.5408083" lon="8.93174"><ele>253.0</ele><time>2026-04-25T12:24:59.001Z</time></trkpt><trkpt lat="44.5408583" lon="8.931685"><ele>253.0</ele><time>2026-04-25T12:24:59.993Z</time></trkpt><trkpt lat="44.5409333" lon="8.931545"><ele>253.0</ele><time>2026-04-25T12:25:02.002Z</time></trkpt><trkpt lat="44.5409633" lon="8.9313933"><ele>252.99999999999997</ele><time>2026-04-25T12:25:03.995Z</time></trkpt><trkpt lat="44.5409617" lon="8.931305"><ele>253.0</ele><time>2026-04-25T12:25:04.993Z</time></trkpt><trkpt lat="44.540955" lon="8.931215"><ele>251.83333333333331</ele><time>2026-04-25T12:25:05.993Z</time></trkpt><trkpt lat="44.5409033" lon="8.9311283"><ele>250.66666666666666</ele><time>2026-04-25T12:25:06.992Z</time></trkpt><trkpt lat="44.5408767" lon="8.9310417"><ele>249.5</ele><time>2026-04-25T12:25:10Z</time></trkpt><trkpt lat="44.54083" lon="8.9309783"><ele>248.33333333333331</ele><time>2026-04-25T12:25:14.998Z</time></trkpt><trkpt lat="44.540725" lon="8.9310167"><ele>247.16666666666666</ele><time>2026-04-25T12:25:16.992Z</time></trkpt><trkpt lat="44.5406533" lon="8.93105"><ele>246.0</ele><time>2026-04-25T12:25:17.995Z</time></trkpt><trkpt lat="44.5405717" lon="8.9310967"><ele>246.0</ele><time>2026-04-25T12:25:18.992Z</time></trkpt><trkpt lat="44.5404783" lon="8.93114"><ele>246.00000000000003</ele><time>2026-04-25T12:25:19.996Z</time></trkpt><trkpt lat="44.5403717" lon="8.9311817"><ele>246.00000000000003</ele><time>2026-04-25T12:25:20.992Z</time></trkpt><trkpt lat="44.54026" lon="8.9312183"><ele>246.0</ele><time>2026-04-25T12:25:21.996Z</time></trkpt><trkpt lat="44.5401517" lon="8.93124"><ele>246.0</ele><time>2026-04-25T12:25:22.999Z</time></trkpt><trkpt lat="44.540045" lon="8.9312767"><ele>242.0</ele><time>2026-04-25T12:25:23.992Z</time></trkpt><trkpt lat="44.539935" lon="8.9313267"><ele>238.0</ele><time>2026-04-25T12:25:25.002Z</time></trkpt><trkpt lat="44.53982" lon="8.9313917"><ele>234.0</ele><time>2026-04-25T12:25:25.992Z</time></trkpt><trkpt lat="44.5397083" lon="8.93145"><ele>230.0</ele><time>2026-04-25T12:25:26.996Z</time></trkpt><trkpt lat="44.5396133" lon="8.9314817"><ele>231.8</ele><time>2026-04-25T12:25:28Z</time></trkpt><trkpt lat="44.5395283" lon="8.9314667"><ele>233.6</ele><time>2026-04-25T12:25:28.992Z</time></trkpt><trkpt lat="44.5394417" lon="8.9314417"><ele>235.39999999999998</ele><time>2026-04-25T12:25:29.994Z</time></trkpt><trkpt lat="44.5393667" lon="8.9313733"><ele>237.2</ele><time>2026-04-25T12:25:30.998Z</time></trkpt><trkpt lat="44.5392967" lon="8.931245"><ele>239.0</ele><time>2026-04-25T12:25:31.997Z</time></trkpt><trkpt lat="44.53922" lon="8.9311"><ele>239.0</ele><time>2026-04-25T12:25:32.995Z</time></trkpt><trkpt lat="44.5391417" lon="8.93094"><ele>239.0</ele><time>2026-04-25T12:25:33.997Z</time></trkpt><trkpt lat="44.5390583" lon="8.9307817"><ele>239.0</ele><time>2026-04-25T12:25:34.995Z</time></trkpt><trkpt lat="44.538975" lon="8.930615"><ele>239.0</ele><time>2026-04-25T12:25:35.993Z</time></trkpt><trkpt lat="44.5388917" lon="8.9304467"><ele>238.75</ele><time>2026-04-25T12:25:36.995Z</time></trkpt><trkpt lat="44.5388133" lon="8.930285"><ele>238.5</ele><time>2026-04-25T12:25:37.993Z</time></trkpt><trkpt lat="44.5387383" lon="8.9301267"><ele>238.25</ele><time>2026-04-25T12:25:38.993Z</time></trkpt><trkpt lat="44.538665" lon="8.9299567"><ele>238.0</ele><time>2026-04-25T12:25:39.994Z</time></trkpt><trkpt lat="44.5386067" lon="8.9297833"><ele>238.0</ele><time>2026-04-25T12:25:40.994Z</time></trkpt><trkpt lat="44.5385567" lon="8.929595"><ele>238.0</ele><time>2026-04-25T12:25:42.001Z</time></trkpt><trkpt lat="44.5385117" lon="8.929405"><ele>238.0</ele><time>2026-04-25T12:25:42.993Z</time></trkpt><trkpt lat="44.5384667" lon="8.9292167"><ele>238.0</ele><time>2026-04-25T12:25:43.992Z</time></trkpt><trkpt lat="44.5384233" lon="8.9290233"><ele>236.5</ele><time>2026-04-25T12:25:44.996Z</time></trkpt><trkpt lat="44.5383717" lon="8.9288317"><ele>235.0</ele><time>2026-04-25T12:25:45.993Z</time></trkpt><trkpt lat="44.5383367" lon="8.92863"><ele>233.5</ele><time>2026-04-25T12:25:46.999Z</time></trkpt><trkpt lat="44.5383017" lon="8.92843"><ele>232.0</ele><time>2026-04-25T12:25:47.993Z</time></trkpt><trkpt lat="44.5382667" lon="8.9282233"><ele>231.0</ele><time>2026-04-25T12:25:48.997Z</time></trkpt><trkpt lat="44.5382317" lon="8.9280283"><ele>230.0</ele><time>2026-04-25T12:25:49.995Z</time></trkpt><trkpt lat="44.5381917" lon="8.9278417"><ele>229.0</ele><time>2026-04-25T12:25:50.996Z</time></trkpt><trkpt lat="44.538145" lon="8.927655"><ele>228.0</ele><time>2026-04-25T12:25:51.999Z</time></trkpt><trkpt lat="44.538105" lon="8.9274667"><ele>227.5</ele><time>2026-04-25T12:25:53Z</time></trkpt><trkpt lat="44.5380617" lon="8.9272833"><ele>227.0</ele><time>2026-04-25T12:25:53.997Z</time></trkpt><trkpt lat="44.5380117" lon="8.9271017"><ele>226.5</ele><time>2026-04-25T12:25:54.993Z</time></trkpt><trkpt lat="44.5379767" lon="8.92694"><ele>226.0</ele><time>2026-04-25T12:25:55.997Z</time></trkpt><trkpt lat="44.5379783" lon="8.9267883"><ele>226.0</ele><time>2026-04-25T12:25:56.994Z</time></trkpt><trkpt lat="44.5379867" lon="8.926645"><ele>226.00000000000003</ele><time>2026-04-25T12:25:57.993Z</time></trkpt><trkpt lat="44.5379967" lon="8.9265067"><ele>226.00000000000003</ele><time>2026-04-25T12:25:58.995Z</time></trkpt><trkpt lat="44.53796" lon="8.9263867"><ele>226.0</ele><time>2026-04-25T12:25:59.994Z</time></trkpt><trkpt lat="44.5379133" lon="8.926255"><ele>226.0</ele><time>2026-04-25T12:26:00.994Z</time></trkpt><trkpt lat="44.5378717" lon="8.9261183"><ele>226.0</ele><time>2026-04-25T12:26:01.992Z</time></trkpt><trkpt lat="44.5378267" lon="8.9259733"><ele>226.00000000000003</ele><time>2026-04-25T12:26:02.996Z</time></trkpt><trkpt lat="44.5377833" lon="8.925825"><ele>226.00000000000003</ele><time>2026-04-25T12:26:03.998Z</time></trkpt><trkpt lat="44.5377633" lon="8.925685"><ele>226.0</ele><time>2026-04-25T12:26:04.996Z</time></trkpt><trkpt lat="44.5377383" lon="8.9255467"><ele>226.0</ele><time>2026-04-25T12:26:05.997Z</time></trkpt><trkpt lat="44.5377317" lon="8.9254033"><ele>224.0</ele><time>2026-04-25T12:26:06.995Z</time></trkpt><trkpt lat="44.5377217" lon="8.925265"><ele>222.00000000000003</ele><time>2026-04-25T12:26:07.996Z</time></trkpt><trkpt lat="44.5376933" lon="8.9251317"><ele>220.00000000000003</ele><time>2026-04-25T12:26:09Z</time></trkpt><trkpt lat="44.53767" lon="8.92499"><ele>218.0</ele><time>2026-04-25T12:26:09.993Z</time></trkpt><trkpt lat="44.5375917" lon="8.924845"><ele>216.0</ele><time>2026-04-25T12:26:10.993Z</time></trkpt><trkpt lat="44.5375283" lon="8.9247117"><ele>216.0</ele><time>2026-04-25T12:26:11.997Z</time></trkpt><trkpt lat="44.5374583" lon="8.9245883"><ele>216.00000000000003</ele><time>2026-04-25T12:26:12.995Z</time></trkpt><trkpt lat="44.53737" lon="8.924515"><ele>216.00000000000003</ele><time>2026-04-25T12:26:13.993Z</time></trkpt><trkpt lat="44.5372683" lon="8.9244467"><ele>216.0</ele><time>2026-04-25T12:26:14.998Z</time></trkpt><trkpt lat="44.537195" lon="8.924395"><ele>216.0</ele><time>2026-04-25T12:26:15.997Z</time></trkpt><trkpt lat="44.537115" lon="8.924345"><ele>214.25</ele><time>2026-04-25T12:26:16.998Z</time></trkpt><trkpt lat="44.5369967" lon="8.9243617"><ele>212.5</ele><time>2026-04-25T12:26:17.997Z</time></trkpt><trkpt lat="44.5368817" lon="8.924405"><ele>210.75</ele><time>2026-04-25T12:26:19.005Z</time></trkpt><trkpt lat="44.5367683" lon="8.9244583"><ele>209.0</ele><time>2026-04-25T12:26:19.993Z</time></trkpt><trkpt lat="44.536665" lon="8.9244983"><ele>209.0</ele><time>2026-04-25T12:26:20.996Z</time></trkpt><trkpt lat="44.5365583" lon="8.9245283"><ele>209.0</ele><time>2026-04-25T12:26:21.994Z</time></trkpt><trkpt lat="44.5364583" lon="8.92452"><ele>209.0</ele><time>2026-04-25T12:26:22.994Z</time></trkpt><trkpt lat="44.5363717" lon="8.9244833"><ele>209.0</ele><time>2026-04-25T12:26:23.992Z</time></trkpt><trkpt lat="44.5362917" lon="8.9244017"><ele>209.0</ele><time>2026-04-25T12:26:24.997Z</time></trkpt><trkpt lat="44.536225" lon="8.924295"><ele>208.6</ele><time>2026-04-25T12:26:25.996Z</time></trkpt><trkpt lat="44.536155" lon="8.9241883"><ele>208.2</ele><time>2026-04-25T12:26:26.997Z</time></trkpt><trkpt lat="44.53609" lon="8.92407"><ele>207.79999999999998</ele><time>2026-04-25T12:26:27.997Z</time></trkpt><trkpt lat="44.5360217" lon="8.9239483"><ele>207.39999999999998</ele><time>2026-04-25T12:26:28.994Z</time></trkpt><trkpt lat="44.5359583" lon="8.9238533"><ele>207.0</ele><time>2026-04-25T12:26:29.996Z</time></trkpt><trkpt lat="44.5358733" lon="8.9237767"><ele>207.0</ele><time>2026-04-25T12:26:30.996Z</time></trkpt><trkpt lat="44.5357767" lon="8.9237167"><ele>207.0</ele><time>2026-04-25T12:26:31.995Z</time></trkpt><trkpt lat="44.5356683" lon="8.9236983"><ele>207.0</ele><time>2026-04-25T12:26:32.993Z</time></trkpt><trkpt lat="44.5355567" lon="8.9237067"><ele>207.0</ele><time>2026-04-25T12:26:33.994Z</time></trkpt><trkpt lat="44.535445" lon="8.923725"><ele>207.0</ele><time>2026-04-25T12:26:34.996Z</time></trkpt><trkpt lat="44.5353317" lon="8.9237267"><ele>206.5</ele><time>2026-04-25T12:26:35.994Z</time></trkpt><trkpt lat="44.535215" lon="8.9236917"><ele>206.0</ele><time>2026-04-25T12:26:36.996Z</time></trkpt><trkpt lat="44.5351017" lon="8.9236367"><ele>205.5</ele><time>2026-04-25T12:26:37.998Z</time></trkpt><trkpt lat="44.5349883" lon="8.923555"><ele>205.0</ele><time>2026-04-25T12:26:38.998Z</time></trkpt><trkpt lat="44.5348717" lon="8.9234617"><ele>205.0</ele><time>2026-04-25T12:26:40Z</time></trkpt><trkpt lat="44.534755" lon="8.92337"><ele>205.0</ele><time>2026-04-25T12:26:40.995Z</time></trkpt><trkpt lat="44.5346367" lon="8.9232817"><ele>205.0</ele><time>2026-04-25T12:26:41.998Z</time></trkpt><trkpt lat="44.5345067" lon="8.9232"><ele>205.0</ele><time>2026-04-25T12:26:43.001Z</time></trkpt><trkpt lat="44.5343783" lon="8.9231267"><ele>204.5</ele><time>2026-04-25T12:26:43.996Z</time></trkpt><trkpt lat="44.5342483" lon="8.923065"><ele>204.0</ele><time>2026-04-25T12:26:44.999Z</time></trkpt><trkpt lat="44.53412" lon="8.9230083"><ele>203.5</ele><time>2026-04-25T12:26:45.995Z</time></trkpt><trkpt lat="44.534" lon="8.9229267"><ele>203.0</ele><time>2026-04-25T12:26:46.999Z</time></trkpt><trkpt lat="44.533885" lon="8.92279"><ele>203.0</ele><time>2026-04-25T12:26:47.996Z</time></trkpt><trkpt lat="44.5337783" lon="8.9226933"><ele>203.0</ele><time>2026-04-25T12:26:49Z</time></trkpt><trkpt lat="44.53368" lon="8.9225733"><ele>203.0</ele><time>2026-04-25T12:26:49.997Z</time></trkpt><trkpt lat="44.5335867" lon="8.9224567"><ele>203.0</ele><time>2026-04-25T12:26:50.999Z</time></trkpt><trkpt lat="44.5334933" lon="8.922325"><ele>202.5</ele><time>2026-04-25T12:26:51.995Z</time></trkpt><trkpt lat="44.533395" lon="8.922195"><ele>202.0</ele><time>2026-04-25T12:26:53Z</time></trkpt><trkpt lat="44.533295" lon="8.92206"><ele>201.5</ele><time>2026-04-25T12:26:53.997Z</time></trkpt><trkpt lat="44.5331867" lon="8.9219333"><ele>201.0</ele><time>2026-04-25T12:26:54.998Z</time></trkpt><trkpt lat="44.5330783" lon="8.9218033"><ele>199.5</ele><time>2026-04-25T12:26:56Z</time></trkpt><trkpt lat="44.5329717" lon="8.9216667"><ele>198.0</ele><time>2026-04-25T12:26:57.005Z</time></trkpt><trkpt lat="44.5328633" lon="8.9215233"><ele>196.5</ele><time>2026-04-25T12:26:57.998Z</time></trkpt><trkpt lat="44.5327567" lon="8.9213783"><ele>195.0</ele><time>2026-04-25T12:26:58.997Z</time></trkpt><trkpt lat="44.5326483" lon="8.9212317"><ele>195.0</ele><time>2026-04-25T12:26:59.996Z</time></trkpt><trkpt lat="44.53254" lon="8.9210733"><ele>195.0</ele><time>2026-04-25T12:27:00.996Z</time></trkpt><trkpt lat="44.532425" lon="8.9209367"><ele>195.0</ele><time>2026-04-25T12:27:01.999Z</time></trkpt><trkpt lat="44.5323133" lon="8.92081"><ele>195.0</ele><time>2026-04-25T12:27:02.999Z</time></trkpt><trkpt lat="44.5322" lon="8.9206983"><ele>195.0</ele><time>2026-04-25T12:27:04.001Z</time></trkpt><trkpt lat="44.53209" lon="8.920585"><ele>195.0</ele><time>2026-04-25T12:27:04.995Z</time></trkpt><trkpt lat="44.5319817" lon="8.9204883"><ele>195.0</ele><time>2026-04-25T12:27:05.993Z</time></trkpt><trkpt lat="44.5318917" lon="8.9203767"><ele>195.0</ele><time>2026-04-25T12:27:06.997Z</time></trkpt><trkpt lat="44.53183" lon="8.920245"><ele>195.0</ele><time>2026-04-25T12:27:07.996Z</time></trkpt><trkpt lat="44.5318" lon="8.9201017"><ele>195.0</ele><time>2026-04-25T12:27:08.999Z</time></trkpt><trkpt lat="44.5317883" lon="8.919955"><ele>195.0</ele><time>2026-04-25T12:27:09.995Z</time></trkpt><trkpt lat="44.5317967" lon="8.9198033"><ele>195.0</ele><time>2026-04-25T12:27:10.996Z</time></trkpt><trkpt lat="44.5318033" lon="8.9196517"><ele>194.4</ele><time>2026-04-25T12:27:12Z</time></trkpt><trkpt lat="44.5318017" lon="8.9195033"><ele>193.8</ele><time>2026-04-25T12:27:12.993Z</time></trkpt><trkpt lat="44.5317733" lon="8.9193583"><ele>193.2</ele><time>2026-04-25T12:27:13.995Z</time></trkpt><trkpt lat="44.53173" lon="8.9192317"><ele>192.6</ele><time>2026-04-25T12:27:14.999Z</time></trkpt><trkpt lat="44.5316433" lon="8.9191283"><ele>192.0</ele><time>2026-04-25T12:27:15.996Z</time></trkpt><trkpt lat="44.5315283" lon="8.9190683"><ele>192.0</ele><time>2026-04-25T12:27:16.995Z</time></trkpt><trkpt lat="44.53144" lon="8.9189717"><ele>192.0</ele><time>2026-04-25T12:27:17.994Z</time></trkpt><trkpt lat="44.5313633" lon="8.9188733"><ele>192.0</ele><time>2026-04-25T12:27:18.998Z</time></trkpt><trkpt lat="44.53132" lon="8.918755"><ele>192.0</ele><time>2026-04-25T12:27:19.995Z</time></trkpt><trkpt lat="44.5312917" lon="8.9186083"><ele>192.0</ele><time>2026-04-25T12:27:21.003Z</time></trkpt><trkpt lat="44.53126" lon="8.9184567"><ele>195.0</ele><time>2026-04-25T12:27:22.001Z</time></trkpt><trkpt lat="44.53123" lon="8.9183033"><ele>198.0</ele><time>2026-04-25T12:27:22.998Z</time></trkpt><trkpt lat="44.5312" lon="8.91815"><ele>201.0</ele><time>2026-04-25T12:27:23.997Z</time></trkpt><trkpt lat="44.5311533" lon="8.9180017"><ele>204.0</ele><time>2026-04-25T12:27:24.995Z</time></trkpt><trkpt lat="44.5310867" lon="8.917875"><ele>199.5</ele><time>2026-04-25T12:27:25.993Z</time></trkpt><trkpt lat="44.531005" lon="8.9177583"><ele>195.0</ele><time>2026-04-25T12:27:26.997Z</time></trkpt><trkpt lat="44.530915" lon="8.9176483"><ele>190.5</ele><time>2026-04-25T12:27:27.995Z</time></trkpt><trkpt lat="44.5308167" lon="8.9175467"><ele>186.0</ele><time>2026-04-25T12:27:28.998Z</time></trkpt><trkpt lat="44.530725" lon="8.9174433"><ele>186.0</ele><time>2026-04-25T12:27:29.995Z</time></trkpt><trkpt lat="44.5306283" lon="8.9173417"><ele>186.0</ele><time>2026-04-25T12:27:30.993Z</time></trkpt><trkpt lat="44.5305283" lon="8.9172417"><ele>186.0</ele><time>2026-04-25T12:27:31.998Z</time></trkpt><trkpt lat="44.530425" lon="8.9171433"><ele>186.0</ele><time>2026-04-25T12:27:32.994Z</time></trkpt><trkpt lat="44.53031" lon="8.917045"><ele>184.5</ele><time>2026-04-25T12:27:33.995Z</time></trkpt><trkpt lat="44.5302017" lon="8.91694"><ele>183.0</ele><time>2026-04-25T12:27:34.994Z</time></trkpt><trkpt lat="44.5301" lon="8.9168217"><ele>181.5</ele><time>2026-04-25T12:27:35.997Z</time></trkpt><trkpt lat="44.52999" lon="8.916705"><ele>180.0</ele><time>2026-04-25T12:27:36.998Z</time></trkpt><trkpt lat="44.5298967" lon="8.91657"><ele>180.0</ele><time>2026-04-25T12:27:37.992Z</time></trkpt><trkpt lat="44.529795" lon="8.91644"><ele>180.0</ele><time>2026-04-25T12:27:38.994Z</time></trkpt><trkpt lat="44.5297" lon="8.9163"><ele>180.0</ele><time>2026-04-25T12:27:39.997Z</time></trkpt><trkpt lat="44.529605" lon="8.91616"><ele>180.0</ele><time>2026-04-25T12:27:40.994Z</time></trkpt><trkpt lat="44.5295167" lon="8.9160217"><ele>177.25</ele><time>2026-04-25T12:27:41.996Z</time></trkpt><trkpt lat="44.5294417" lon="8.9158833"><ele>174.5</ele><time>2026-04-25T12:27:42.994Z</time></trkpt><trkpt lat="44.5293717" lon="8.9157483"><ele>171.75</ele><time>2026-04-25T12:27:43.994Z</time></trkpt><trkpt lat="44.529305" lon="8.915615"><ele>169.0</ele><time>2026-04-25T12:27:44.997Z</time></trkpt><trkpt lat="44.5292283" lon="8.915495"><ele>169.0</ele><time>2026-04-25T12:27:45.998Z</time></trkpt><trkpt lat="44.5291417" lon="8.9154"><ele>169.0</ele><time>2026-04-25T12:27:46.998Z</time></trkpt><trkpt lat="44.52904" lon="8.915345"><ele>169.0</ele><time>2026-04-25T12:27:47.996Z</time></trkpt><trkpt lat="44.5289317" lon="8.915345"><ele>169.0</ele><time>2026-04-25T12:27:48.994Z</time></trkpt><trkpt lat="44.5288183" lon="8.9153783"><ele>169.0</ele><time>2026-04-25T12:27:49.995Z</time></trkpt><trkpt lat="44.528705" lon="8.9154383"><ele>168.6</ele><time>2026-04-25T12:27:50.995Z</time></trkpt><trkpt lat="44.5285967" lon="8.9155033"><ele>168.2</ele><time>2026-04-25T12:27:51.995Z</time></trkpt><trkpt lat="44.528495" lon="8.9155583"><ele>167.79999999999998</ele><time>2026-04-25T12:27:52.995Z</time></trkpt><trkpt lat="44.52839" lon="8.9155917"><ele>167.39999999999998</ele><time>2026-04-25T12:27:53.996Z</time></trkpt><trkpt lat="44.5282817" lon="8.9156133"><ele>167.0</ele><time>2026-04-25T12:27:54.994Z</time></trkpt><trkpt lat="44.5281717" lon="8.9155917"><ele>167.0</ele><time>2026-04-25T12:27:55.997Z</time></trkpt><trkpt lat="44.5280633" lon="8.9155683"><ele>167.0</ele><time>2026-04-25T12:27:56.993Z</time></trkpt><trkpt lat="44.5279533" lon="8.9154983"><ele>167.0</ele><time>2026-04-25T12:27:57.995Z</time></trkpt><trkpt lat="44.5278433" lon="8.9154283"><ele>167.0</ele><time>2026-04-25T12:27:58.993Z</time></trkpt><trkpt lat="44.5277417" lon="8.91533"><ele>166.75</ele><time>2026-04-25T12:27:59.993Z</time></trkpt><trkpt lat="44.5276417" lon="8.9152267"><ele>166.5</ele><time>2026-04-25T12:28:00.997Z</time></trkpt><trkpt lat="44.5275467" lon="8.91511"><ele>166.25</ele><time>2026-04-25T12:28:01.995Z</time></trkpt><trkpt lat="44.5274483" lon="8.914985"><ele>166.0</ele><time>2026-04-25T12:28:02.995Z</time></trkpt><trkpt lat="44.5273533" lon="8.9148567"><ele>166.0</ele><time>2026-04-25T12:28:03.995Z</time></trkpt><trkpt lat="44.527255" lon="8.914725"><ele>166.0</ele><time>2026-04-25T12:28:04.992Z</time></trkpt><trkpt lat="44.5271583" lon="8.914595"><ele>166.0</ele><time>2026-04-25T12:28:05.997Z</time></trkpt><trkpt lat="44.5270567" lon="8.9144683"><ele>166.0</ele><time>2026-04-25T12:28:06.998Z</time></trkpt><trkpt lat="44.5269517" lon="8.91434"><ele>165.5</ele><time>2026-04-25T12:28:07.996Z</time></trkpt><trkpt lat="44.5268517" lon="8.9142117"><ele>165.0</ele><time>2026-04-25T12:28:08.995Z</time></trkpt><trkpt lat="44.52675" lon="8.9140883"><ele>164.5</ele><time>2026-04-25T12:28:10Z</time></trkpt><trkpt lat="44.526655" lon="8.91397"><ele>164.0</ele><time>2026-04-25T12:28:10.993Z</time></trkpt><trkpt lat="44.5265617" lon="8.913865"><ele>164.0</ele><time>2026-04-25T12:28:11.996Z</time></trkpt><trkpt lat="44.526465" lon="8.9137817"><ele>164.0</ele><time>2026-04-25T12:28:12.996Z</time></trkpt><trkpt lat="44.5263633" lon="8.9137283"><ele>164.0</ele><time>2026-04-25T12:28:13.996Z</time></trkpt><trkpt lat="44.526255" lon="8.9137217"><ele>164.0</ele><time>2026-04-25T12:28:14.997Z</time></trkpt><trkpt lat="44.52615" lon="8.9136967"><ele>164.0</ele><time>2026-04-25T12:28:15.994Z</time></trkpt><trkpt lat="44.5260433" lon="8.9136683"><ele>163.6</ele><time>2026-04-25T12:28:16.994Z</time></trkpt><trkpt lat="44.5259333" lon="8.9136467"><ele>163.2</ele><time>2026-04-25T12:28:17.991Z</time></trkpt><trkpt lat="44.5258317" lon="8.9136233"><ele>162.79999999999998</ele><time>2026-04-25T12:28:18.995Z</time></trkpt><trkpt lat="44.5257317" lon="8.9135917"><ele>162.39999999999998</ele><time>2026-04-25T12:28:19.996Z</time></trkpt><trkpt lat="44.5256333" lon="8.913575"><ele>162.0</ele><time>2026-04-25T12:28:20.996Z</time></trkpt><trkpt lat="44.5255317" lon="8.9135717"><ele>162.0</ele><time>2026-04-25T12:28:21.995Z</time></trkpt><trkpt lat="44.5254183" lon="8.9135917"><ele>162.0</ele><time>2026-04-25T12:28:22.995Z</time></trkpt><trkpt lat="44.525305" lon="8.9136183"><ele>162.0</ele><time>2026-04-25T12:28:23.993Z</time></trkpt><trkpt lat="44.5251967" lon="8.9136517"><ele>162.0</ele><time>2026-04-25T12:28:24.993Z</time></trkpt><trkpt lat="44.5250817" lon="8.9136833"><ele>162.0</ele><time>2026-04-25T12:28:25.997Z</time></trkpt><trkpt lat="44.5249733" lon="8.913735"><ele>162.0</ele><time>2026-04-25T12:28:26.995Z</time></trkpt><trkpt lat="44.5248667" lon="8.91379"><ele>162.0</ele><time>2026-04-25T12:28:27.993Z</time></trkpt><trkpt lat="44.52476" lon="8.9138317"><ele>162.0</ele><time>2026-04-25T12:28:28.996Z</time></trkpt><trkpt lat="44.524655" lon="8.9138483"><ele>162.0</ele><time>2026-04-25T12:28:29.994Z</time></trkpt><trkpt lat="44.5245483" lon="8.9138333"><ele>162.0</ele><time>2026-04-25T12:28:30.992Z</time></trkpt><trkpt lat="44.5244467" lon="8.9137817"><ele>162.0</ele><time>2026-04-25T12:28:31.997Z</time></trkpt><trkpt lat="44.524345" lon="8.91372"><ele>162.0</ele><time>2026-04-25T12:28:32.993Z</time></trkpt><trkpt lat="44.5242383" lon="8.91366"><ele>162.0</ele><time>2026-04-25T12:28:33.997Z</time></trkpt><trkpt lat="44.5241233" lon="8.9136067"><ele>162.0</ele><time>2026-04-25T12:28:34.992Z</time></trkpt><trkpt lat="44.5240033" lon="8.913565"><ele>162.0</ele><time>2026-04-25T12:28:35.993Z</time></trkpt><trkpt lat="44.523885" lon="8.9135217"><ele>162.0</ele><time>2026-04-25T12:28:36.997Z</time></trkpt><trkpt lat="44.5237617" lon="8.91348"><ele>162.0</ele><time>2026-04-25T12:28:37.995Z</time></trkpt><trkpt lat="44.5236367" lon="8.9134367"><ele>160.25</ele><time>2026-04-25T12:28:38.997Z</time></trkpt><trkpt lat="44.5235133" lon="8.9133867"><ele>158.5</ele><time>2026-04-25T12:28:39.993Z</time></trkpt><trkpt lat="44.52339" lon="8.9133433"><ele>156.75</ele><time>2026-04-25T12:28:40.992Z</time></trkpt><trkpt lat="44.523265" lon="8.9132967"><ele>155.0</ele><time>2026-04-25T12:28:41.993Z</time></trkpt><trkpt lat="44.5231367" lon="8.9132567"><ele>155.0</ele><time>2026-04-25T12:28:42.995Z</time></trkpt><trkpt lat="44.523005" lon="8.9132317"><ele>155.0</ele><time>2026-04-25T12:28:43.997Z</time></trkpt><trkpt lat="44.5228717" lon="8.9132117"><ele>155.0</ele><time>2026-04-25T12:28:44.995Z</time></trkpt><trkpt lat="44.5227383" lon="8.9132033"><ele>155.0</ele><time>2026-04-25T12:28:45.999Z</time></trkpt><trkpt lat="44.5226117" lon="8.913205"><ele>155.25</ele><time>2026-04-25T12:28:46.997Z</time></trkpt><trkpt lat="44.5224933" lon="8.913245"><ele>155.5</ele><time>2026-04-25T12:28:47.993Z</time></trkpt><trkpt lat="44.5223833" lon="8.9133033"><ele>155.75</ele><time>2026-04-25T12:28:48.995Z</time></trkpt><trkpt lat="44.5222783" lon="8.9133833"><ele>156.0</ele><time>2026-04-25T12:28:49.993Z</time></trkpt><trkpt lat="44.5221867" lon="8.9134883"><ele>156.5</ele><time>2026-04-25T12:28:50.995Z</time></trkpt><trkpt lat="44.5221033" lon="8.91362"><ele>157.0</ele><time>2026-04-25T12:28:52.001Z</time></trkpt><trkpt lat="44.522025" lon="8.913765"><ele>157.5</ele><time>2026-04-25T12:28:52.995Z</time></trkpt><trkpt lat="44.52196" lon="8.91393"><ele>158.0</ele><time>2026-04-25T12:28:53.994Z</time></trkpt><trkpt lat="44.521905" lon="8.9140967"><ele>157.25</ele><time>2026-04-25T12:28:54.993Z</time></trkpt><trkpt lat="44.5218567" lon="8.9142633"><ele>156.5</ele><time>2026-04-25T12:28:55.995Z</time></trkpt><trkpt lat="44.521815" lon="8.9144217"><ele>155.75</ele><time>2026-04-25T12:28:56.996Z</time></trkpt><trkpt lat="44.5217733" lon="8.9145683"><ele>155.0</ele><time>2026-04-25T12:28:57.995Z</time></trkpt><trkpt lat="44.5216967" lon="8.9146917"><ele>155.0</ele><time>2026-04-25T12:28:58.997Z</time></trkpt><trkpt lat="44.52161" lon="8.9148017"><ele>155.0</ele><time>2026-04-25T12:28:59.993Z</time></trkpt><trkpt lat="44.52151" lon="8.9149083"><ele>155.0</ele><time>2026-04-25T12:29:00.995Z</time></trkpt><trkpt lat="44.521405" lon="8.91502"><ele>155.0</ele><time>2026-04-25T12:29:01.994Z</time></trkpt><trkpt lat="44.5213017" lon="8.9151333"><ele>155.75</ele><time>2026-04-25T12:29:03Z</time></trkpt><trkpt lat="44.5212" lon="8.9152533"><ele>156.5</ele><time>2026-04-25T12:29:03.998Z</time></trkpt><trkpt lat="44.5210933" lon="8.9153767"><ele>157.25</ele><time>2026-04-25T12:29:04.994Z</time></trkpt><trkpt lat="44.5209867" lon="8.9154967"><ele>158.0</ele><time>2026-04-25T12:29:05.997Z</time></trkpt><trkpt lat="44.5208783" lon="8.9156233"><ele>158.0</ele><time>2026-04-25T12:29:06.997Z</time></trkpt><trkpt lat="44.520765" lon="8.91575"><ele>158.0</ele><time>2026-04-25T12:29:07.995Z</time></trkpt><trkpt lat="44.5206517" lon="8.9158783"><ele>158.0</ele><time>2026-04-25T12:29:08.997Z</time></trkpt><trkpt lat="44.52055" lon="8.9160183"><ele>158.0</ele><time>2026-04-25T12:29:10.001Z</time></trkpt><trkpt lat="44.520455" lon="8.9161633"><ele>157.0</ele><time>2026-04-25T12:29:10.992Z</time></trkpt><trkpt lat="44.5203767" lon="8.9163233"><ele>156.0</ele><time>2026-04-25T12:29:11.995Z</time></trkpt><trkpt lat="44.52031" lon="8.9164933"><ele>155.0</ele><time>2026-04-25T12:29:12.995Z</time></trkpt><trkpt lat="44.5202467" lon="8.91666"><ele>154.0</ele><time>2026-04-25T12:29:13.993Z</time></trkpt><trkpt lat="44.5201817" lon="8.916825"><ele>154.0</ele><time>2026-04-25T12:29:14.999Z</time></trkpt><trkpt lat="44.5201217" lon="8.9169933"><ele>154.0</ele><time>2026-04-25T12:29:16Z</time></trkpt><trkpt lat="44.5200683" lon="8.9171617"><ele>154.0</ele><time>2026-04-25T12:29:16.995Z</time></trkpt><trkpt lat="44.5200183" lon="8.917315"><ele>154.0</ele><time>2026-04-25T12:29:17.997Z</time></trkpt><trkpt lat="44.5199633" lon="8.9174517"><ele>154.0</ele><time>2026-04-25T12:29:18.995Z</time></trkpt><trkpt lat="44.51989" lon="8.9175683"><ele>154.0</ele><time>2026-04-25T12:29:19.993Z</time></trkpt><trkpt lat="44.519805" lon="8.917655"><ele>154.0</ele><time>2026-04-25T12:29:20.994Z</time></trkpt><trkpt lat="44.519715" lon="8.9177267"><ele>154.0</ele><time>2026-04-25T12:29:21.995Z</time></trkpt><trkpt lat="44.51961" lon="8.91776"><ele>154.0</ele><time>2026-04-25T12:29:22.996Z</time></trkpt><trkpt lat="44.5195033" lon="8.91777"><ele>152.2</ele><time>2026-04-25T12:29:23.994Z</time></trkpt><trkpt lat="44.5193983" lon="8.9177417"><ele>150.4</ele><time>2026-04-25T12:29:24.994Z</time></trkpt><trkpt lat="44.5192967" lon="8.9176733"><ele>148.6</ele><time>2026-04-25T12:29:25.991Z</time></trkpt><trkpt lat="44.51921" lon="8.9175817"><ele>146.8</ele><time>2026-04-25T12:29:26.995Z</time></trkpt><trkpt lat="44.5191283" lon="8.917465"><ele>145.0</ele><time>2026-04-25T12:29:27.995Z</time></trkpt><trkpt lat="44.5190483" lon="8.91734"><ele>145.0</ele><time>2026-04-25T12:29:28.998Z</time></trkpt><trkpt lat="44.5189683" lon="8.9172133"><ele>145.0</ele><time>2026-04-25T12:29:29.992Z</time></trkpt><trkpt lat="44.518895" lon="8.9170917"><ele>145.0</ele><time>2026-04-25T12:29:31.001Z</time></trkpt><trkpt lat="44.51884" lon="8.9169567"><ele>145.0</ele><time>2026-04-25T12:29:31.995Z</time></trkpt><trkpt lat="44.5188017" lon="8.916805"><ele>148.25</ele><time>2026-04-25T12:29:32.995Z</time></trkpt><trkpt lat="44.5187783" lon="8.9166467"><ele>151.5</ele><time>2026-04-25T12:29:34Z</time></trkpt><trkpt lat="44.518765" lon="8.91649"><ele>154.75</ele><time>2026-04-25T12:29:34.997Z</time></trkpt><trkpt lat="44.518765" lon="8.9163333"><ele>158.0</ele><time>2026-04-25T12:29:35.999Z</time></trkpt><trkpt lat="44.5187817" lon="8.9161783"><ele>158.0</ele><time>2026-04-25T12:29:36.999Z</time></trkpt><trkpt lat="44.518795" lon="8.91602"><ele>158.0</ele><time>2026-04-25T12:29:38.003Z</time></trkpt><trkpt lat="44.5188067" lon="8.915855"><ele>158.0</ele><time>2026-04-25T12:29:38.992Z</time></trkpt><trkpt lat="44.518805" lon="8.9156867"><ele>158.0</ele><time>2026-04-25T12:29:39.996Z</time></trkpt><trkpt lat="44.5187917" lon="8.915515"><ele>158.25</ele><time>2026-04-25T12:29:40.996Z</time></trkpt><trkpt lat="44.5187783" lon="8.9153433"><ele>158.5</ele><time>2026-04-25T12:29:42.001Z</time></trkpt><trkpt lat="44.518765" lon="8.9151783"><ele>158.75</ele><time>2026-04-25T12:29:42.994Z</time></trkpt><trkpt lat="44.5187683" lon="8.9150067"><ele>159.0</ele><time>2026-04-25T12:29:43.995Z</time></trkpt><trkpt lat="44.5187483" lon="8.91483"><ele>155.25</ele><time>2026-04-25T12:29:44.999Z</time></trkpt><trkpt lat="44.5187217" lon="8.914665"><ele>151.5</ele><time>2026-04-25T12:29:45.996Z</time></trkpt><trkpt lat="44.5186867" lon="8.9145083"><ele>147.75</ele><time>2026-04-25T12:29:46.996Z</time></trkpt><trkpt lat="44.51865" lon="8.914355"><ele>144.0</ele><time>2026-04-25T12:29:47.994Z</time></trkpt><trkpt lat="44.5186133" lon="8.914205"><ele>142.5</ele><time>2026-04-25T12:29:48.997Z</time></trkpt><trkpt lat="44.5185567" lon="8.9140567"><ele>141.0</ele><time>2026-04-25T12:29:49.993Z</time></trkpt><trkpt lat="44.51849" lon="8.9139233"><ele>139.5</ele><time>2026-04-25T12:29:50.995Z</time></trkpt><trkpt lat="44.5184167" lon="8.9138033"><ele>138.0</ele><time>2026-04-25T12:29:51.993Z</time></trkpt><trkpt lat="44.518315" lon="8.91369"><ele>138.0</ele><time>2026-04-25T12:29:52.997Z</time></trkpt><trkpt lat="44.5182183" lon="8.913585"><ele>138.0</ele><time>2026-04-25T12:29:53.997Z</time></trkpt><trkpt lat="44.5181233" lon="8.91348"><ele>138.0</ele><time>2026-04-25T12:29:54.997Z</time></trkpt><trkpt lat="44.5180367" lon="8.9133567"><ele>138.0</ele><time>2026-04-25T12:29:55.994Z</time></trkpt><trkpt lat="44.5179567" lon="8.913235"><ele>137.4</ele><time>2026-04-25T12:29:56.996Z</time></trkpt><trkpt lat="44.51789" lon="8.9131017"><ele>136.8</ele><time>2026-04-25T12:29:57.994Z</time></trkpt><trkpt lat="44.517815" lon="8.9129767"><ele>136.2</ele><time>2026-04-25T12:29:58.994Z</time></trkpt><trkpt lat="44.517745" lon="8.91286"><ele>135.6</ele><time>2026-04-25T12:29:59.995Z</time></trkpt><trkpt lat="44.5176667" lon="8.9127667"><ele>135.0</ele><time>2026-04-25T12:30:00.994Z</time></trkpt><trkpt lat="44.5175717" lon="8.912695"><ele>135.0</ele><time>2026-04-25T12:30:01.995Z</time></trkpt><trkpt lat="44.517465" lon="8.91264"><ele>135.0</ele><time>2026-04-25T12:30:02.995Z</time></trkpt><trkpt lat="44.5173533" lon="8.9125883"><ele>135.0</ele><time>2026-04-25T12:30:03.994Z</time></trkpt><trkpt lat="44.5172383" lon="8.9125367"><ele>135.0</ele><time>2026-04-25T12:30:04.995Z</time></trkpt><trkpt lat="44.51712" lon="8.9125133"><ele>135.75</ele><time>2026-04-25T12:30:05.996Z</time></trkpt><trkpt lat="44.5170033" lon="8.9125083"><ele>136.5</ele><time>2026-04-25T12:30:06.994Z</time></trkpt><trkpt lat="44.516885" lon="8.912545"><ele>137.25</ele><time>2026-04-25T12:30:07.993Z</time></trkpt><trkpt lat="44.51677" lon="8.9126133"><ele>138.0</ele><time>2026-04-25T12:30:08.995Z</time></trkpt><trkpt lat="44.5166583" lon="8.9126983"><ele>138.0</ele><time>2026-04-25T12:30:09.994Z</time></trkpt><trkpt lat="44.5165533" lon="8.9128017"><ele>138.0</ele><time>2026-04-25T12:30:10.992Z</time></trkpt><trkpt lat="44.51645" lon="8.9129183"><ele>138.0</ele><time>2026-04-25T12:30:11.994Z</time></trkpt><trkpt lat="44.516355" lon="8.91304"><ele>138.0</ele><time>2026-04-25T12:30:12.993Z</time></trkpt><trkpt lat="44.516255" lon="8.91315"><ele>138.0</ele><time>2026-04-25T12:30:13.996Z</time></trkpt><trkpt lat="44.5161467" lon="8.9132367"><ele>138.0</ele><time>2026-04-25T12:30:14.995Z</time></trkpt><trkpt lat="44.516035" lon="8.9133117"><ele>138.0</ele><time>2026-04-25T12:30:15.992Z</time></trkpt><trkpt lat="44.5159217" lon="8.91338"><ele>138.0</ele><time>2026-04-25T12:30:16.996Z</time></trkpt><trkpt lat="44.5158067" lon="8.91345"><ele>136.25</ele><time>2026-04-25T12:30:17.997Z</time></trkpt><trkpt lat="44.515685" lon="8.9135083"><ele>134.5</ele><time>2026-04-25T12:30:18.994Z</time></trkpt><trkpt lat="44.5155667" lon="8.9135767"><ele>132.75</ele><time>2026-04-25T12:30:20.002Z</time></trkpt><trkpt lat="44.51545" lon="8.91365"><ele>131.0</ele><time>2026-04-25T12:30:20.994Z</time></trkpt><trkpt lat="44.5153283" lon="8.9137183"><ele>130.0</ele><time>2026-04-25T12:30:21.996Z</time></trkpt><trkpt lat="44.515205" lon="8.9137917"><ele>129.0</ele><time>2026-04-25T12:30:22.998Z</time></trkpt><trkpt lat="44.5150817" lon="8.91387"><ele>128.0</ele><time>2026-04-25T12:30:23.995Z</time></trkpt><trkpt lat="44.5149567" lon="8.9139483"><ele>127.0</ele><time>2026-04-25T12:30:24.997Z</time></trkpt><trkpt lat="44.5148317" lon="8.9140133"><ele>127.0</ele><time>2026-04-25T12:30:25.995Z</time></trkpt><trkpt lat="44.5147083" lon="8.9140733"><ele>127.0</ele><time>2026-04-25T12:30:26.998Z</time></trkpt><trkpt lat="44.5145833" lon="8.9141267"><ele>127.0</ele><time>2026-04-25T12:30:27.993Z</time></trkpt><trkpt lat="44.5144583" lon="8.9141767"><ele>127.0</ele><time>2026-04-25T12:30:28.997Z</time></trkpt><trkpt lat="44.5143333" lon="8.9142283"><ele>127.25</ele><time>2026-04-25T12:30:29.994Z</time></trkpt><trkpt lat="44.514205" lon="8.914255"><ele>127.5</ele><time>2026-04-25T12:30:31.001Z</time></trkpt><trkpt lat="44.514085" lon="8.9142817"><ele>127.75</ele><time>2026-04-25T12:30:31.994Z</time></trkpt><trkpt lat="44.5139633" lon="8.914315"><ele>128.0</ele><time>2026-04-25T12:30:32.994Z</time></trkpt><trkpt lat="44.513845" lon="8.9143433"><ele>126.5</ele><time>2026-04-25T12:30:33.995Z</time></trkpt><trkpt lat="44.513725" lon="8.9143583"><ele>125.0</ele><time>2026-04-25T12:30:34.998Z</time></trkpt><trkpt lat="44.5135983" lon="8.91436"><ele>123.5</ele><time>2026-04-25T12:30:35.995Z</time></trkpt><trkpt lat="44.5134733" lon="8.91437"><ele>122.0</ele><time>2026-04-25T12:30:36.995Z</time></trkpt><trkpt lat="44.51335" lon="8.9143667"><ele>122.0</ele><time>2026-04-25T12:30:37.995Z</time></trkpt><trkpt lat="44.5132333" lon="8.9143383"><ele>122.0</ele><time>2026-04-25T12:30:38.997Z</time></trkpt><trkpt lat="44.5131083" lon="8.9142617"><ele>122.0</ele><time>2026-04-25T12:30:39.995Z</time></trkpt><trkpt lat="44.5129867" lon="8.9141817"><ele>122.0</ele><time>2026-04-25T12:30:40.994Z</time></trkpt><trkpt lat="44.512875" lon="8.914075"><ele>122.0</ele><time>2026-04-25T12:30:41.995Z</time></trkpt><trkpt lat="44.5127533" lon="8.91397"><ele>122.0</ele><time>2026-04-25T12:30:42.997Z</time></trkpt><trkpt lat="44.5126333" lon="8.9138567"><ele>122.0</ele><time>2026-04-25T12:30:44.001Z</time></trkpt><trkpt lat="44.51251" lon="8.91374"><ele>122.0</ele><time>2026-04-25T12:30:44.994Z</time></trkpt><trkpt lat="44.512385" lon="8.9136167"><ele>122.0</ele><time>2026-04-25T12:30:45.998Z</time></trkpt><trkpt lat="44.5122633" lon="8.9134867"><ele>122.0</ele><time>2026-04-25T12:30:46.996Z</time></trkpt><trkpt lat="44.5121383" lon="8.9133667"><ele>122.0</ele><time>2026-04-25T12:30:48.002Z</time></trkpt><trkpt lat="44.51202" lon="8.9132383"><ele>122.75</ele><time>2026-04-25T12:30:48.996Z</time></trkpt><trkpt lat="44.5119017" lon="8.9131167"><ele>123.5</ele><time>2026-04-25T12:30:49.995Z</time></trkpt><trkpt lat="44.51178" lon="8.9130067"><ele>124.25</ele><time>2026-04-25T12:30:50.993Z</time></trkpt><trkpt lat="44.5116633" lon="8.9128933"><ele>125.0</ele><time>2026-04-25T12:30:51.998Z</time></trkpt><trkpt lat="44.511545" lon="8.9127867"><ele>125.0</ele><time>2026-04-25T12:30:52.995Z</time></trkpt><trkpt lat="44.5114283" lon="8.9126783"><ele>125.0</ele><time>2026-04-25T12:30:53.994Z</time></trkpt><trkpt lat="44.5113167" lon="8.91257"><ele>125.0</ele><time>2026-04-25T12:30:54.997Z</time></trkpt><trkpt lat="44.5112033" lon="8.9124717"><ele>125.0</ele><time>2026-04-25T12:30:55.995Z</time></trkpt><trkpt lat="44.51109" lon="8.9123833"><ele>124.5</ele><time>2026-04-25T12:30:57.004Z</time></trkpt><trkpt lat="44.5109683" lon="8.9123217"><ele>124.0</ele><time>2026-04-25T12:30:57.995Z</time></trkpt><trkpt lat="44.5108417" lon="8.9122833"><ele>123.5</ele><time>2026-04-25T12:30:59.002Z</time></trkpt><trkpt lat="44.5107117" lon="8.91225"><ele>123.0</ele><time>2026-04-25T12:31:00Z</time></trkpt><trkpt lat="44.5105817" lon="8.9122233"><ele>123.0</ele><time>2026-04-25T12:31:00.996Z</time></trkpt><trkpt lat="44.510455" lon="8.9122067"><ele>123.0</ele><time>2026-04-25T12:31:01.999Z</time></trkpt><trkpt lat="44.510325" lon="8.9122017"><ele>123.0</ele><time>2026-04-25T12:31:03Z</time></trkpt><trkpt lat="44.51019" lon="8.91221"><ele>123.0</ele><time>2026-04-25T12:31:04.005Z</time></trkpt><trkpt lat="44.5100583" lon="8.9122333"><ele>123.0</ele><time>2026-04-25T12:31:04.998Z</time></trkpt><trkpt lat="44.5099317" lon="8.912265"><ele>123.0</ele><time>2026-04-25T12:31:05.997Z</time></trkpt><trkpt lat="44.509795" lon="8.91232"><ele>123.0</ele><time>2026-04-25T12:31:06.996Z</time></trkpt><trkpt lat="44.5096517" lon="8.9123717"><ele>123.0</ele><time>2026-04-25T12:31:07.996Z</time></trkpt><trkpt lat="44.5095233" lon="8.912455"><ele>122.60000000000001</ele><time>2026-04-25T12:31:08.999Z</time></trkpt><trkpt lat="44.50942" lon="8.912505"><ele>122.20000000000002</ele><time>2026-04-25T12:31:09.999Z</time></trkpt><trkpt lat="44.5093283" lon="8.9125233"><ele>121.8</ele><time>2026-04-25T12:31:11.002Z</time></trkpt><trkpt lat="44.5092367" lon="8.9125433"><ele>121.4</ele><time>2026-04-25T12:31:11.999Z</time></trkpt><trkpt lat="44.50915" lon="8.9125517"><ele>121.0</ele><time>2026-04-25T12:31:12.995Z</time></trkpt><trkpt lat="44.5090683" lon="8.9125717"><ele>120.4</ele><time>2026-04-25T12:31:13.999Z</time></trkpt><trkpt lat="44.5089883" lon="8.91262"><ele>119.8</ele><time>2026-04-25T12:31:14.997Z</time></trkpt><trkpt lat="44.508905" lon="8.91267"><ele>119.20000000000002</ele><time>2026-04-25T12:31:15.995Z</time></trkpt><trkpt lat="44.5088117" lon="8.9127"><ele>118.60000000000001</ele><time>2026-04-25T12:31:17Z</time></trkpt><trkpt lat="44.5087217" lon="8.912725"><ele>118.0</ele><time>2026-04-25T12:31:17.995Z</time></trkpt><trkpt lat="44.508625" lon="8.912735"><ele>118.0</ele><time>2026-04-25T12:31:19Z</time></trkpt><trkpt lat="44.5085283" lon="8.9127233"><ele>118.00000000000001</ele><time>2026-04-25T12:31:19.998Z</time></trkpt><trkpt lat="44.508445" lon="8.9126633"><ele>118.00000000000001</ele><time>2026-04-25T12:31:20.995Z</time></trkpt><trkpt lat="44.5083783" lon="8.912605"><ele>118.0</ele><time>2026-04-25T12:31:22Z</time></trkpt><trkpt lat="44.5083417" lon="8.912415"><ele>118.0</ele><time>2026-04-25T12:31:22.995Z</time></trkpt><trkpt lat="44.508295" lon="8.9122817"><ele>117.75</ele><time>2026-04-25T12:31:23.999Z</time></trkpt><trkpt lat="44.5082383" lon="8.9121133"><ele>117.5</ele><time>2026-04-25T12:31:24.993Z</time></trkpt><trkpt lat="44.5081917" lon="8.9119617"><ele>117.25</ele><time>2026-04-25T12:31:25.991Z</time></trkpt><trkpt lat="44.5081433" lon="8.91182"><ele>117.0</ele><time>2026-04-25T12:31:26.993Z</time></trkpt><trkpt lat="44.50809" lon="8.9116767"><ele>117.0</ele><time>2026-04-25T12:31:27.997Z</time></trkpt><trkpt lat="44.5080367" lon="8.91154"><ele>116.99999999999999</ele><time>2026-04-25T12:31:28.993Z</time></trkpt><trkpt lat="44.5079917" lon="8.9113983"><ele>116.99999999999999</ele><time>2026-04-25T12:31:29.993Z</time></trkpt><trkpt lat="44.5079617" lon="8.9112583"><ele>117.0</ele><time>2026-04-25T12:31:30.993Z</time></trkpt><trkpt lat="44.5079167" lon="8.9111183"><ele>117.0</ele><time>2026-04-25T12:31:31.996Z</time></trkpt><trkpt lat="44.5078833" lon="8.9109683"><ele>115.8</ele><time>2026-04-25T12:31:32.997Z</time></trkpt><trkpt lat="44.5078467" lon="8.91082"><ele>114.6</ele><time>2026-04-25T12:31:33.994Z</time></trkpt><trkpt lat="44.5078083" lon="8.9106767"><ele>113.39999999999999</ele><time>2026-04-25T12:31:34.994Z</time></trkpt><trkpt lat="44.5077667" lon="8.9105283"><ele>112.19999999999999</ele><time>2026-04-25T12:31:35.998Z</time></trkpt><trkpt lat="44.5077317" lon="8.91039"><ele>111.0</ele><time>2026-04-25T12:31:36.994Z</time></trkpt><trkpt lat="44.5076933" lon="8.910245"><ele>111.0</ele><time>2026-04-25T12:31:37.994Z</time></trkpt><trkpt lat="44.5076467" lon="8.9100983"><ele>111.0</ele><time>2026-04-25T12:31:39Z</time></trkpt><trkpt lat="44.50759" lon="8.9099583"><ele>111.0</ele><time>2026-04-25T12:31:39.996Z</time></trkpt><trkpt lat="44.5075317" lon="8.9098433"><ele>111.0</ele><time>2026-04-25T12:31:40.995Z</time></trkpt><trkpt lat="44.5074933" lon="8.90974"><ele>111.0</ele><time>2026-04-25T12:31:41.997Z</time></trkpt><trkpt lat="44.5074483" lon="8.9096433"><ele>111.0</ele><time>2026-04-25T12:31:42.995Z</time></trkpt><trkpt lat="44.507395" lon="8.9095617"><ele>111.0</ele><time>2026-04-25T12:31:43.996Z</time></trkpt><trkpt lat="44.50733" lon="8.9094767"><ele>111.0</ele><time>2026-04-25T12:31:44.993Z</time></trkpt><trkpt lat="44.50727" lon="8.9094033"><ele>111.0</ele><time>2026-04-25T12:31:45.996Z</time></trkpt><trkpt lat="44.5071817" lon="8.90932"><ele>111.0</ele><time>2026-04-25T12:31:46.993Z</time></trkpt><trkpt lat="44.5070917" lon="8.9092533"><ele>111.4</ele><time>2026-04-25T12:31:47.993Z</time></trkpt><trkpt lat="44.5069967" lon="8.90919"><ele>111.8</ele><time>2026-04-25T12:31:48.993Z</time></trkpt><trkpt lat="44.5069017" lon="8.9091483"><ele>112.20000000000002</ele><time>2026-04-25T12:31:49.998Z</time></trkpt><trkpt lat="44.5067983" lon="8.9091117"><ele>112.60000000000001</ele><time>2026-04-25T12:31:51Z</time></trkpt><trkpt lat="44.5067" lon="8.9090433"><ele>113.0</ele><time>2026-04-25T12:31:51.999Z</time></trkpt><trkpt lat="44.5066017" lon="8.90896"><ele>113.0</ele><time>2026-04-25T12:31:52.998Z</time></trkpt><trkpt lat="44.506495" lon="8.908915"><ele>113.0</ele><time>2026-04-25T12:31:53.997Z</time></trkpt><trkpt lat="44.5063817" lon="8.9088583"><ele>113.0</ele><time>2026-04-25T12:31:54.996Z</time></trkpt><trkpt lat="44.5062667" lon="8.9088067"><ele>113.0</ele><time>2026-04-25T12:31:55.993Z</time></trkpt><trkpt lat="44.5061633" lon="8.9087383"><ele>111.75</ele><time>2026-04-25T12:31:56.992Z</time></trkpt><trkpt lat="44.50606" lon="8.9086433"><ele>110.5</ele><time>2026-04-25T12:31:57.995Z</time></trkpt><trkpt lat="44.5059617" lon="8.9085783"><ele>109.25</ele><time>2026-04-25T12:31:58.991Z</time></trkpt><trkpt lat="44.5058633" lon="8.9085083"><ele>108.0</ele><time>2026-04-25T12:31:59.996Z</time></trkpt><trkpt lat="44.5057667" lon="8.908435"><ele>107.80000000000001</ele><time>2026-04-25T12:32:00.992Z</time></trkpt><trkpt lat="44.50567" lon="8.9083617"><ele>107.60000000000001</ele><time>2026-04-25T12:32:01.993Z</time></trkpt><trkpt lat="44.505575" lon="8.9082817"><ele>107.39999999999999</ele><time>2026-04-25T12:32:03.002Z</time></trkpt><trkpt lat="44.5054867" lon="8.9081933"><ele>107.19999999999999</ele><time>2026-04-25T12:32:03.992Z</time></trkpt><trkpt lat="44.5053933" lon="8.9081133"><ele>107.0</ele><time>2026-04-25T12:32:04.996Z</time></trkpt><trkpt lat="44.5053" lon="8.9080317"><ele>107.0</ele><time>2026-04-25T12:32:06Z</time></trkpt><trkpt lat="44.505205" lon="8.907945"><ele>107.0</ele><time>2026-04-25T12:32:06.997Z</time></trkpt><trkpt lat="44.5051083" lon="8.907865"><ele>107.0</ele><time>2026-04-25T12:32:07.991Z</time></trkpt><trkpt lat="44.5050133" lon="8.90777"><ele>107.0</ele><time>2026-04-25T12:32:08.995Z</time></trkpt><trkpt lat="44.5049183" lon="8.9076717"><ele>107.0</ele><time>2026-04-25T12:32:09.993Z</time></trkpt><trkpt lat="44.504825" lon="8.90758"><ele>107.0</ele><time>2026-04-25T12:32:10.992Z</time></trkpt><trkpt lat="44.5047283" lon="8.907495"><ele>107.0</ele><time>2026-04-25T12:32:11.993Z</time></trkpt><trkpt lat="44.5046333" lon="8.9074117"><ele>107.0</ele><time>2026-04-25T12:32:12.993Z</time></trkpt><trkpt lat="44.50454" lon="8.907325"><ele>106.19999999999999</ele><time>2026-04-25T12:32:13.996Z</time></trkpt><trkpt lat="44.504445" lon="8.9072467"><ele>105.39999999999999</ele><time>2026-04-25T12:32:14.995Z</time></trkpt><trkpt lat="44.50436" lon="8.907165"><ele>104.6</ele><time>2026-04-25T12:32:15.996Z</time></trkpt><trkpt lat="44.504275" lon="8.9070883"><ele>103.80000000000001</ele><time>2026-04-25T12:32:16.996Z</time></trkpt><trkpt lat="44.5041883" lon="8.90701"><ele>103.0</ele><time>2026-04-25T12:32:17.994Z</time></trkpt><trkpt lat="44.504095" lon="8.9069383"><ele>103.0</ele><time>2026-04-25T12:32:18.997Z</time></trkpt><trkpt lat="44.5040083" lon="8.906845"><ele>103.0</ele><time>2026-04-25T12:32:19.995Z</time></trkpt><trkpt lat="44.5039317" lon="8.9067383"><ele>103.0</ele><time>2026-04-25T12:32:20.996Z</time></trkpt><trkpt lat="44.5038583" lon="8.9066333"><ele>103.0</ele><time>2026-04-25T12:32:21.991Z</time></trkpt><trkpt lat="44.5037933" lon="8.9064933"><ele>103.0</ele><time>2026-04-25T12:32:22.995Z</time></trkpt><trkpt lat="44.5037183" lon="8.9063633"><ele>102.75</ele><time>2026-04-25T12:32:23.996Z</time></trkpt><trkpt lat="44.50364" lon="8.9062433"><ele>102.5</ele><time>2026-04-25T12:32:24.993Z</time></trkpt><trkpt lat="44.5035467" lon="8.90613"><ele>102.25</ele><time>2026-04-25T12:32:25.997Z</time></trkpt><trkpt lat="44.5034533" lon="8.9060267"><ele>102.0</ele><time>2026-04-25T12:32:26.993Z</time></trkpt><trkpt lat="44.503355" lon="8.9059467"><ele>105.0</ele><time>2026-04-25T12:32:27.993Z</time></trkpt><trkpt lat="44.5032467" lon="8.9058933"><ele>108.0</ele><time>2026-04-25T12:32:29.001Z</time></trkpt><trkpt lat="44.5031433" lon="8.9058567"><ele>111.0</ele><time>2026-04-25T12:32:29.995Z</time></trkpt><trkpt lat="44.50303" lon="8.905815"><ele>114.0</ele><time>2026-04-25T12:32:30.996Z</time></trkpt><trkpt lat="44.5029167" lon="8.9058"><ele>113.4</ele><time>2026-04-25T12:32:31.999Z</time></trkpt><trkpt lat="44.5028017" lon="8.9058017"><ele>112.80000000000001</ele><time>2026-04-25T12:32:32.994Z</time></trkpt><trkpt lat="44.5026917" lon="8.9058517"><ele>112.19999999999999</ele><time>2026-04-25T12:32:33.994Z</time></trkpt><trkpt lat="44.502595" lon="8.9058983"><ele>111.6</ele><time>2026-04-25T12:32:34.994Z</time></trkpt><trkpt lat="44.5024967" lon="8.9059417"><ele>111.0</ele><time>2026-04-25T12:32:35.991Z</time></trkpt><trkpt lat="44.502405" lon="8.9059533"><ele>111.0</ele><time>2026-04-25T12:32:36.996Z</time></trkpt><trkpt lat="44.5023283" lon="8.9059233"><ele>111.0</ele><time>2026-04-25T12:32:38Z</time></trkpt><trkpt lat="44.50225" lon="8.9058683"><ele>111.0</ele><time>2026-04-25T12:32:38.996Z</time></trkpt><trkpt lat="44.5021667" lon="8.9058067"><ele>111.0</ele><time>2026-04-25T12:32:39.996Z</time></trkpt><trkpt lat="44.502085" lon="8.9057367"><ele>111.0</ele><time>2026-04-25T12:32:40.995Z</time></trkpt><trkpt lat="44.5019933" lon="8.9056567"><ele>108.6</ele><time>2026-04-25T12:32:41.998Z</time></trkpt><trkpt lat="44.5019" lon="8.9055817"><ele>106.19999999999999</ele><time>2026-04-25T12:32:42.994Z</time></trkpt><trkpt lat="44.5018033" lon="8.9055317"><ele>103.80000000000001</ele><time>2026-04-25T12:32:43.998Z</time></trkpt><trkpt lat="44.5017083" lon="8.9054667"><ele>101.4</ele><time>2026-04-25T12:32:44.998Z</time></trkpt><trkpt lat="44.501615" lon="8.9053983"><ele>99.0</ele><time>2026-04-25T12:32:45.996Z</time></trkpt><trkpt lat="44.501545" lon="8.90532"><ele>99.0</ele><time>2026-04-25T12:32:46.994Z</time></trkpt><trkpt lat="44.5014867" lon="8.90525"><ele>99.0</ele><time>2026-04-25T12:32:48.001Z</time></trkpt><trkpt lat="44.501445" lon="8.9051733"><ele>99.0</ele><time>2026-04-25T12:32:48.999Z</time></trkpt><trkpt lat="44.5013867" lon="8.9050533"><ele>99.0</ele><time>2026-04-25T12:32:50.999Z</time></trkpt><trkpt lat="44.501345" lon="8.9049633"><ele>99.0</ele><time>2026-04-25T12:33:37.998Z</time></trkpt><trkpt lat="44.501315" lon="8.9048367"><ele>99.0</ele><time>2026-04-25T12:33:40.996Z</time></trkpt><trkpt lat="44.50129" lon="8.904715"><ele>99.6</ele><time>2026-04-25T12:33:42.994Z</time></trkpt><trkpt lat="44.5012733" lon="8.9046283"><ele>100.2</ele><time>2026-04-25T12:33:43.993Z</time></trkpt><trkpt lat="44.5012883" lon="8.9044683"><ele>100.8</ele><time>2026-04-25T12:33:45.997Z</time></trkpt><trkpt lat="44.50127" lon="8.90436"><ele>101.39999999999999</ele><time>2026-04-25T12:33:46.992Z</time></trkpt><trkpt lat="44.5012333" lon="8.90424"><ele>102.0</ele><time>2026-04-25T12:33:47.998Z</time></trkpt><trkpt lat="44.5012233" lon="8.9041033"><ele>102.0</ele><time>2026-04-25T12:33:48.995Z</time></trkpt><trkpt lat="44.5011817" lon="8.90397"><ele>102.0</ele><time>2026-04-25T12:33:49.992Z</time></trkpt><trkpt lat="44.50113" lon="8.9038267"><ele>102.0</ele><time>2026-04-25T12:33:50.998Z</time></trkpt><trkpt lat="44.501085" lon="8.9036917"><ele>102.0</ele><time>2026-04-25T12:33:51.994Z</time></trkpt><trkpt lat="44.501025" lon="8.903565"><ele>102.0</ele><time>2026-04-25T12:33:52.992Z</time></trkpt><trkpt lat="44.5009533" lon="8.9034533"><ele>103.6</ele><time>2026-04-25T12:33:53.993Z</time></trkpt><trkpt lat="44.50091" lon="8.9033283"><ele>105.19999999999999</ele><time>2026-04-25T12:33:54.996Z</time></trkpt><trkpt lat="44.500855" lon="8.9032033"><ele>106.8</ele><time>2026-04-25T12:33:55.994Z</time></trkpt><trkpt lat="44.5008033" lon="8.9030783"><ele>108.4</ele><time>2026-04-25T12:33:56.992Z</time></trkpt><trkpt lat="44.500745" lon="8.9029533"><ele>110.0</ele><time>2026-04-25T12:33:57.992Z</time></trkpt><trkpt lat="44.500675" lon="8.90283"><ele>110.0</ele><time>2026-04-25T12:33:58.993Z</time></trkpt><trkpt lat="44.5005933" lon="8.9027167"><ele>110.0</ele><time>2026-04-25T12:33:59.995Z</time></trkpt><trkpt lat="44.5005083" lon="8.9025967"><ele>110.0</ele><time>2026-04-25T12:34:00.998Z</time></trkpt><trkpt lat="44.5004233" lon="8.9024867"><ele>110.0</ele><time>2026-04-25T12:34:02Z</time></trkpt><trkpt lat="44.50034" lon="8.90238"><ele>109.33333333333333</ele><time>2026-04-25T12:34:02.992Z</time></trkpt><trkpt lat="44.5002767" lon="8.9022933"><ele>108.66666666666666</ele><time>2026-04-25T12:34:03.992Z</time></trkpt><trkpt lat="44.5002383" lon="8.9021983"><ele>108.0</ele><time>2026-04-25T12:34:04.995Z</time></trkpt><trkpt lat="44.5002083" lon="8.9021067"><ele>107.33333333333334</ele><time>2026-04-25T12:34:05.996Z</time></trkpt><trkpt lat="44.5001967" lon="8.90201"><ele>106.66666666666667</ele><time>2026-04-25T12:34:07Z</time></trkpt><trkpt lat="44.5001917" lon="8.90191"><ele>106.0</ele><time>2026-04-25T12:34:07.995Z</time></trkpt><trkpt lat="44.50021" lon="8.9017867"><ele>105.0</ele><time>2026-04-25T12:34:08.997Z</time></trkpt><trkpt lat="44.5002567" lon="8.9016767"><ele>104.0</ele><time>2026-04-25T12:34:09.993Z</time></trkpt><trkpt lat="44.500315" lon="8.9015733"><ele>103.0</ele><time>2026-04-25T12:34:10.993Z</time></trkpt><trkpt lat="44.500375" lon="8.9014767"><ele>102.0</ele><time>2026-04-25T12:34:11.994Z</time></trkpt><trkpt lat="44.5004433" lon="8.9013867"><ele>101.0</ele><time>2026-04-25T12:34:12.994Z</time></trkpt><trkpt lat="44.5005167" lon="8.901305"><ele>105.75</ele><time>2026-04-25T12:34:14.001Z</time></trkpt><trkpt lat="44.5006133" lon="8.9012433"><ele>110.5</ele><time>2026-04-25T12:34:14.998Z</time></trkpt><trkpt lat="44.5007083" lon="8.9011717"><ele>115.25</ele><time>2026-04-25T12:34:15.995Z</time></trkpt><trkpt lat="44.5008133" lon="8.9011067"><ele>120.0</ele><time>2026-04-25T12:34:16.996Z</time></trkpt><trkpt lat="44.5009317" lon="8.901055"><ele>120.0</ele><time>2026-04-25T12:34:17.993Z</time></trkpt><trkpt lat="44.5010567" lon="8.901005"><ele>120.0</ele><time>2026-04-25T12:34:18.992Z</time></trkpt><trkpt lat="44.501165" lon="8.9009517"><ele>120.0</ele><time>2026-04-25T12:34:19.997Z</time></trkpt><trkpt lat="44.501265" lon="8.90088"><ele>120.0</ele><time>2026-04-25T12:34:20.996Z</time></trkpt><trkpt lat="44.50137" lon="8.9008033"><ele>120.0</ele><time>2026-04-25T12:34:21.993Z</time></trkpt><trkpt lat="44.50147" lon="8.9007217"><ele>120.0</ele><time>2026-04-25T12:34:22.994Z</time></trkpt><trkpt lat="44.50158" lon="8.9006367"><ele>120.0</ele><time>2026-04-25T12:34:23.993Z</time></trkpt><trkpt lat="44.5016817" lon="8.9005433"><ele>120.0</ele><time>2026-04-25T12:34:24.997Z</time></trkpt><trkpt lat="44.5017833" lon="8.9004433"><ele>120.0</ele><time>2026-04-25T12:34:25.998Z</time></trkpt><trkpt lat="44.50189" lon="8.9003433"><ele>120.0</ele><time>2026-04-25T12:34:27Z</time></trkpt><trkpt lat="44.5019933" lon="8.900235"><ele>120.0</ele><time>2026-04-25T12:34:27.996Z</time></trkpt><trkpt lat="44.502095" lon="8.9001267"><ele>120.0</ele><time>2026-04-25T12:34:29Z</time></trkpt><trkpt lat="44.5022" lon="8.9000183"><ele>118.25</ele><time>2026-04-25T12:34:29.997Z</time></trkpt><trkpt lat="44.502315" lon="8.8999167"><ele>116.5</ele><time>2026-04-25T12:34:30.995Z</time></trkpt><trkpt lat="44.502425" lon="8.8998283"><ele>114.75</ele><time>2026-04-25T12:34:32.001Z</time></trkpt><trkpt lat="44.5025383" lon="8.89975"><ele>113.0</ele><time>2026-04-25T12:34:32.995Z</time></trkpt><trkpt lat="44.5026517" lon="8.8996783"><ele>113.0</ele><time>2026-04-25T12:34:33.996Z</time></trkpt><trkpt lat="44.5027667" lon="8.8996"><ele>113.0</ele><time>2026-04-25T12:34:34.996Z</time></trkpt><trkpt lat="44.50287" lon="8.8994867"><ele>113.0</ele><time>2026-04-25T12:34:35.994Z</time></trkpt><trkpt lat="44.50296" lon="8.8993617"><ele>113.0</ele><time>2026-04-25T12:34:36.996Z</time></trkpt><trkpt lat="44.5030433" lon="8.8992283"><ele>114.25</ele><time>2026-04-25T12:34:37.996Z</time></trkpt><trkpt lat="44.50312" lon="8.8990783"><ele>115.5</ele><time>2026-04-25T12:34:39.001Z</time></trkpt><trkpt lat="44.5031983" lon="8.8989267"><ele>116.75</ele><time>2026-04-25T12:34:39.992Z</time></trkpt><trkpt lat="44.5032783" lon="8.8987767"><ele>118.0</ele><time>2026-04-25T12:34:40.996Z</time></trkpt><trkpt lat="44.503355" lon="8.8986333"><ele>118.0</ele><time>2026-04-25T12:34:41.993Z</time></trkpt><trkpt lat="44.5034317" lon="8.8984983"><ele>118.0</ele><time>2026-04-25T12:34:42.994Z</time></trkpt><trkpt lat="44.503505" lon="8.898365"><ele>118.0</ele><time>2026-04-25T12:34:43.995Z</time></trkpt><trkpt lat="44.5035817" lon="8.8982483"><ele>118.0</ele><time>2026-04-25T12:34:44.997Z</time></trkpt><trkpt lat="44.5036833" lon="8.8981867"><ele>119.0</ele><time>2026-04-25T12:34:45.997Z</time></trkpt><trkpt lat="44.50378" lon="8.8980983"><ele>120.0</ele><time>2026-04-25T12:34:46.995Z</time></trkpt><trkpt lat="44.5038967" lon="8.89803"><ele>121.0</ele><time>2026-04-25T12:34:47.993Z</time></trkpt><trkpt lat="44.5040067" lon="8.89797"><ele>122.0</ele><time>2026-04-25T12:34:48.993Z</time></trkpt><trkpt lat="44.5041083" lon="8.8979017"><ele>122.0</ele><time>2026-04-25T12:34:49.996Z</time></trkpt><trkpt lat="44.5042083" lon="8.89784"><ele>121.99999999999999</ele><time>2026-04-25T12:34:50.995Z</time></trkpt><trkpt lat="44.5043133" lon="8.8977867"><ele>121.99999999999999</ele><time>2026-04-25T12:34:51.995Z</time></trkpt><trkpt lat="44.5044133" lon="8.8977367"><ele>122.0</ele><time>2026-04-25T12:34:53.002Z</time></trkpt><trkpt lat="44.5045133" lon="8.8976867"><ele>122.0</ele><time>2026-04-25T12:34:53.995Z</time></trkpt><trkpt lat="44.5046133" lon="8.8976367"><ele>121.8</ele><time>2026-04-25T12:34:54.994Z</time></trkpt><trkpt lat="44.5047083" lon="8.8975817"><ele>121.6</ele><time>2026-04-25T12:34:55.995Z</time></trkpt><trkpt lat="44.5048067" lon="8.8975183"><ele>121.39999999999999</ele><time>2026-04-25T12:34:57.002Z</time></trkpt><trkpt lat="44.504915" lon="8.8974617"><ele>121.19999999999999</ele><time>2026-04-25T12:34:57.992Z</time></trkpt><trkpt lat="44.5050233" lon="8.897395"><ele>121.0</ele><time>2026-04-25T12:34:58.997Z</time></trkpt><trkpt lat="44.5051317" lon="8.8973233"><ele>121.0</ele><time>2026-04-25T12:34:59.995Z</time></trkpt><trkpt lat="44.5052333" lon="8.8972433"><ele>121.0</ele><time>2026-04-25T12:35:00.993Z</time></trkpt><trkpt lat="44.50533" lon="8.8971533"><ele>121.0</ele><time>2026-04-25T12:35:01.994Z</time></trkpt><trkpt lat="44.5054167" lon="8.8970517"><ele>121.0</ele><time>2026-04-25T12:35:02.993Z</time></trkpt><trkpt lat="44.5055017" lon="8.8969517"><ele>121.4</ele><time>2026-04-25T12:35:03.995Z</time></trkpt><trkpt lat="44.5055917" lon="8.8968633"><ele>121.8</ele><time>2026-04-25T12:35:04.992Z</time></trkpt><trkpt lat="44.5056783" lon="8.8967717"><ele>122.20000000000002</ele><time>2026-04-25T12:35:05.993Z</time></trkpt><trkpt lat="44.5057617" lon="8.896675"><ele>122.60000000000001</ele><time>2026-04-25T12:35:06.992Z</time></trkpt><trkpt lat="44.505845" lon="8.896575"><ele>123.0</ele><time>2026-04-25T12:35:07.997Z</time></trkpt><trkpt lat="44.5059283" lon="8.8964717"><ele>121.80000000000001</ele><time>2026-04-25T12:35:08.994Z</time></trkpt><trkpt lat="44.5060133" lon="8.89637"><ele>120.60000000000001</ele><time>2026-04-25T12:35:10Z</time></trkpt><trkpt lat="44.506095" lon="8.8962617"><ele>119.39999999999999</ele><time>2026-04-25T12:35:10.999Z</time></trkpt><trkpt lat="44.50617" lon="8.8961433"><ele>118.19999999999999</ele><time>2026-04-25T12:35:11.993Z</time></trkpt><trkpt lat="44.5062283" lon="8.8960117"><ele>117.0</ele><time>2026-04-25T12:35:12.995Z</time></trkpt><trkpt lat="44.5062717" lon="8.8958667"><ele>117.0</ele><time>2026-04-25T12:35:13.995Z</time></trkpt><trkpt lat="44.5063067" lon="8.8957167"><ele>116.99999999999999</ele><time>2026-04-25T12:35:14.995Z</time></trkpt><trkpt lat="44.5063317" lon="8.8955633"><ele>116.99999999999999</ele><time>2026-04-25T12:35:15.995Z</time></trkpt><trkpt lat="44.5063417" lon="8.8954067"><ele>117.0</ele><time>2026-04-25T12:35:16.995Z</time></trkpt><trkpt lat="44.506355" lon="8.8952567"><ele>117.0</ele><time>2026-04-25T12:35:17.995Z</time></trkpt><trkpt lat="44.5063717" lon="8.8951"><ele>117.0</ele><time>2026-04-25T12:35:19.001Z</time></trkpt><trkpt lat="44.5063917" lon="8.8949483"><ele>116.99999999999999</ele><time>2026-04-25T12:35:19.999Z</time></trkpt><trkpt lat="44.5064133" lon="8.8948017"><ele>116.99999999999999</ele><time>2026-04-25T12:35:21Z</time></trkpt><trkpt lat="44.5064217" lon="8.8946567"><ele>117.0</ele><time>2026-04-25T12:35:21.995Z</time></trkpt><trkpt lat="44.506435" lon="8.89451"><ele>117.0</ele><time>2026-04-25T12:35:22.995Z</time></trkpt><trkpt lat="44.5064417" lon="8.8943567"><ele>118.19999999999999</ele><time>2026-04-25T12:35:23.997Z</time></trkpt><trkpt lat="44.5064583" lon="8.8942117"><ele>119.39999999999999</ele><time>2026-04-25T12:35:24.995Z</time></trkpt><trkpt lat="44.5064783" lon="8.8940583"><ele>120.60000000000001</ele><time>2026-04-25T12:35:25.993Z</time></trkpt><trkpt lat="44.5064917" lon="8.89391"><ele>121.80000000000001</ele><time>2026-04-25T12:35:26.999Z</time></trkpt><trkpt lat="44.5065083" lon="8.8937867"><ele>123.0</ele><time>2026-04-25T12:35:28Z</time></trkpt><trkpt lat="44.506515" lon="8.8936567"><ele>123.0</ele><time>2026-04-25T12:35:28.994Z</time></trkpt><trkpt lat="44.506505" lon="8.8935167"><ele>123.00000000000001</ele><time>2026-04-25T12:35:29.999Z</time></trkpt><trkpt lat="44.5065033" lon="8.89338"><ele>123.00000000000001</ele><time>2026-04-25T12:35:30.994Z</time></trkpt><trkpt lat="44.5065117" lon="8.89325"><ele>123.0</ele><time>2026-04-25T12:35:31.993Z</time></trkpt><trkpt lat="44.5065467" lon="8.8931267"><ele>123.0</ele><time>2026-04-25T12:35:32.998Z</time></trkpt><trkpt lat="44.5065433" lon="8.8930033"><ele>123.4</ele><time>2026-04-25T12:35:33.996Z</time></trkpt><trkpt lat="44.50654" lon="8.8928867"><ele>123.80000000000001</ele><time>2026-04-25T12:35:34.997Z</time></trkpt><trkpt lat="44.50656" lon="8.8927633"><ele>124.2</ele><time>2026-04-25T12:35:35.997Z</time></trkpt><trkpt lat="44.506595" lon="8.89264"><ele>124.6</ele><time>2026-04-25T12:35:36.995Z</time></trkpt><trkpt lat="44.5066317" lon="8.8925183"><ele>125.0</ele><time>2026-04-25T12:35:37.996Z</time></trkpt><trkpt lat="44.50668" lon="8.8923983"><ele>125.2</ele><time>2026-04-25T12:35:38.996Z</time></trkpt><trkpt lat="44.5067267" lon="8.89228"><ele>125.4</ele><time>2026-04-25T12:35:39.996Z</time></trkpt><trkpt lat="44.5067667" lon="8.892175"><ele>125.6</ele><time>2026-04-25T12:35:40.993Z</time></trkpt><trkpt lat="44.5068283" lon="8.8920683"><ele>125.8</ele><time>2026-04-25T12:35:41.994Z</time></trkpt><trkpt lat="44.5068833" lon="8.8919667"><ele>126.0</ele><time>2026-04-25T12:35:42.993Z</time></trkpt><trkpt lat="44.50694" lon="8.8918633"><ele>126.4</ele><time>2026-04-25T12:35:43.998Z</time></trkpt><trkpt lat="44.5070167" lon="8.8917517"><ele>126.8</ele><time>2026-04-25T12:35:44.995Z</time></trkpt><trkpt lat="44.5070583" lon="8.8916183"><ele>127.20000000000002</ele><time>2026-04-25T12:35:45.995Z</time></trkpt><trkpt lat="44.50712" lon="8.8914917"><ele>127.60000000000001</ele><time>2026-04-25T12:35:46.996Z</time></trkpt><trkpt lat="44.5071583" lon="8.8913617"><ele>128.0</ele><time>2026-04-25T12:35:47.993Z</time></trkpt><trkpt lat="44.5071833" lon="8.8912183"><ele>129.4</ele><time>2026-04-25T12:35:48.994Z</time></trkpt><trkpt lat="44.50721" lon="8.8910667"><ele>130.8</ele><time>2026-04-25T12:35:49.993Z</time></trkpt><trkpt lat="44.50724" lon="8.89093"><ele>132.2</ele><time>2026-04-25T12:35:50.995Z</time></trkpt><trkpt lat="44.5072833" lon="8.8907867"><ele>133.6</ele><time>2026-04-25T12:35:51.996Z</time></trkpt><trkpt lat="44.507335" lon="8.890645"><ele>135.0</ele><time>2026-04-25T12:35:52.993Z</time></trkpt><trkpt lat="44.5073867" lon="8.8905033"><ele>135.0</ele><time>2026-04-25T12:35:53.993Z</time></trkpt><trkpt lat="44.507435" lon="8.89036"><ele>135.0</ele><time>2026-04-25T12:35:54.994Z</time></trkpt><trkpt lat="44.5074883" lon="8.8902233"><ele>135.0</ele><time>2026-04-25T12:35:55.99Z</time></trkpt><trkpt lat="44.5075417" lon="8.890085"><ele>135.0</ele><time>2026-04-25T12:35:56.994Z</time></trkpt><trkpt lat="44.5075933" lon="8.8899533"><ele>135.0</ele><time>2026-04-25T12:35:57.994Z</time></trkpt><trkpt lat="44.5076433" lon="8.8898183"><ele>135.0</ele><time>2026-04-25T12:35:58.995Z</time></trkpt><trkpt lat="44.5076983" lon="8.8896933"><ele>135.0</ele><time>2026-04-25T12:35:59.993Z</time></trkpt><trkpt lat="44.507745" lon="8.8895633"><ele>135.0</ele><time>2026-04-25T12:36:00.995Z</time></trkpt><trkpt lat="44.5078067" lon="8.8894533"><ele>135.0</ele><time>2026-04-25T12:36:01.998Z</time></trkpt><trkpt lat="44.5078583" lon="8.8893183"><ele>135.0</ele><time>2026-04-25T12:36:03Z</time></trkpt><trkpt lat="44.5079133" lon="8.88919"><ele>137.0</ele><time>2026-04-25T12:36:03.995Z</time></trkpt><trkpt lat="44.507965" lon="8.8890633"><ele>139.0</ele><time>2026-04-25T12:36:04.995Z</time></trkpt><trkpt lat="44.5080133" lon="8.8889367"><ele>141.0</ele><time>2026-04-25T12:36:05.993Z</time></trkpt><trkpt lat="44.508065" lon="8.8888067"><ele>143.0</ele><time>2026-04-25T12:36:06.994Z</time></trkpt><trkpt lat="44.50813" lon="8.888685"><ele>145.0</ele><time>2026-04-25T12:36:07.995Z</time></trkpt><trkpt lat="44.5081867" lon="8.8885517"><ele>144.4</ele><time>2026-04-25T12:36:09.002Z</time></trkpt><trkpt lat="44.5082433" lon="8.8884167"><ele>143.8</ele><time>2026-04-25T12:36:09.995Z</time></trkpt><trkpt lat="44.5083" lon="8.888285"><ele>143.2</ele><time>2026-04-25T12:36:10.996Z</time></trkpt><trkpt lat="44.5083567" lon="8.888165"><ele>142.6</ele><time>2026-04-25T12:36:11.994Z</time></trkpt><trkpt lat="44.508415" lon="8.88804"><ele>142.0</ele><time>2026-04-25T12:36:12.996Z</time></trkpt><trkpt lat="44.508465" lon="8.8879067"><ele>142.0</ele><time>2026-04-25T12:36:13.995Z</time></trkpt><trkpt lat="44.5085133" lon="8.8877833"><ele>142.0</ele><time>2026-04-25T12:36:14.994Z</time></trkpt><trkpt lat="44.508565" lon="8.88766"><ele>142.0</ele><time>2026-04-25T12:36:15.994Z</time></trkpt><trkpt lat="44.5086" lon="8.8875333"><ele>142.0</ele><time>2026-04-25T12:36:16.994Z</time></trkpt><trkpt lat="44.5086517" lon="8.887405"><ele>142.0</ele><time>2026-04-25T12:36:17.998Z</time></trkpt><trkpt lat="44.50871" lon="8.887285"><ele>142.0</ele><time>2026-04-25T12:36:18.996Z</time></trkpt><trkpt lat="44.5087583" lon="8.8871583"><ele>142.0</ele><time>2026-04-25T12:36:19.996Z</time></trkpt><trkpt lat="44.50881" lon="8.8870317"><ele>142.0</ele><time>2026-04-25T12:36:20.997Z</time></trkpt><trkpt lat="44.5088633" lon="8.8869217"><ele>142.0</ele><time>2026-04-25T12:36:21.994Z</time></trkpt><trkpt lat="44.5089117" lon="8.88681"><ele>142.0</ele><time>2026-04-25T12:36:22.997Z</time></trkpt><trkpt lat="44.5089583" lon="8.8866967"><ele>142.0</ele><time>2026-04-25T12:36:23.997Z</time></trkpt><trkpt lat="44.5090017" lon="8.8865783"><ele>142.0</ele><time>2026-04-25T12:36:24.997Z</time></trkpt><trkpt lat="44.5090567" lon="8.886475"><ele>142.0</ele><time>2026-04-25T12:36:25.997Z</time></trkpt><trkpt lat="44.5090983" lon="8.8863617"><ele>142.0</ele><time>2026-04-25T12:36:27.006Z</time></trkpt><trkpt lat="44.5091367" lon="8.88624"><ele>142.0</ele><time>2026-04-25T12:36:27.999Z</time></trkpt><trkpt lat="44.50919" lon="8.886135"><ele>142.0</ele><time>2026-04-25T12:36:28.999Z</time></trkpt><trkpt lat="44.5092567" lon="8.8860133"><ele>142.0</ele><time>2026-04-25T12:36:29.994Z</time></trkpt><trkpt lat="44.5093183" lon="8.8858767"><ele>142.0</ele><time>2026-04-25T12:36:31.003Z</time></trkpt><trkpt lat="44.509375" lon="8.8857433"><ele>142.0</ele><time>2026-04-25T12:36:31.997Z</time></trkpt><trkpt lat="44.5094367" lon="8.8856183"><ele>142.0</ele><time>2026-04-25T12:36:33Z</time></trkpt><trkpt lat="44.5094983" lon="8.885515"><ele>142.16666666666669</ele><time>2026-04-25T12:36:34.001Z</time></trkpt><trkpt lat="44.5095483" lon="8.88541"><ele>142.33333333333334</ele><time>2026-04-25T12:36:34.996Z</time></trkpt><trkpt lat="44.5095967" lon="8.8853117"><ele>142.5</ele><time>2026-04-25T12:36:35.999Z</time></trkpt><trkpt lat="44.5096483" lon="8.88522"><ele>142.66666666666666</ele><time>2026-04-25T12:36:37.003Z</time></trkpt><trkpt lat="44.5096933" lon="8.8851283"><ele>142.83333333333331</ele><time>2026-04-25T12:36:37.998Z</time></trkpt><trkpt lat="44.5097567" lon="8.8850467"><ele>143.0</ele><time>2026-04-25T12:36:39.001Z</time></trkpt><trkpt lat="44.5097983" lon="8.8849517"><ele>143.0</ele><time>2026-04-25T12:36:39.998Z</time></trkpt><trkpt lat="44.50986" lon="8.8848767"><ele>143.0</ele><time>2026-04-25T12:36:40.995Z</time></trkpt><trkpt lat="44.5099067" lon="8.884795"><ele>143.0</ele><time>2026-04-25T12:36:41.999Z</time></trkpt><trkpt lat="44.5099517" lon="8.88471"><ele>143.0</ele><time>2026-04-25T12:36:43Z</time></trkpt><trkpt lat="44.5100017" lon="8.88463"><ele>143.0</ele><time>2026-04-25T12:36:44.005Z</time></trkpt><trkpt lat="44.5100467" lon="8.8845467"><ele>143.0</ele><time>2026-04-25T12:36:45.003Z</time></trkpt><trkpt lat="44.5100917" lon="8.884465"><ele>143.0</ele><time>2026-04-25T12:36:45.996Z</time></trkpt><trkpt lat="44.5101433" lon="8.88439"><ele>143.0</ele><time>2026-04-25T12:36:46.995Z</time></trkpt><trkpt lat="44.5102183" lon="8.884335"><ele>143.0</ele><time>2026-04-25T12:36:47.997Z</time></trkpt><trkpt lat="44.5102833" lon="8.8842717"><ele>143.0</ele><time>2026-04-25T12:36:48.996Z</time></trkpt><trkpt lat="44.510345" lon="8.8842117"><ele>143.0</ele><time>2026-04-25T12:36:50.002Z</time></trkpt><trkpt lat="44.51041" lon="8.8841667"><ele>143.0</ele><time>2026-04-25T12:36:50.997Z</time></trkpt><trkpt lat="44.5104867" lon="8.8840867"><ele>142.8</ele><time>2026-04-25T12:36:53Z</time></trkpt><trkpt lat="44.51052" lon="8.883955"><ele>142.60000000000002</ele><time>2026-04-25T12:36:55.002Z</time></trkpt><trkpt lat="44.5105217" lon="8.8838017"><ele>142.39999999999998</ele><time>2026-04-25T12:36:56.999Z</time></trkpt><trkpt lat="44.5104833" lon="8.8836817"><ele>142.2</ele><time>2026-04-25T12:36:58.002Z</time></trkpt><trkpt lat="44.510455" lon="8.8835783"><ele>142.0</ele><time>2026-04-25T12:36:59Z</time></trkpt><trkpt lat="44.5104333" lon="8.8834867"><ele>139.6</ele><time>2026-04-25T12:36:59.998Z</time></trkpt><trkpt lat="44.5104183" lon="8.8833733"><ele>137.2</ele><time>2026-04-25T12:37:01.998Z</time></trkpt><trkpt lat="44.5104167" lon="8.883275"><ele>134.8</ele><time>2026-04-25T12:37:03.996Z</time></trkpt><trkpt lat="44.51049" lon="8.8831483"><ele>132.4</ele><time>2026-04-25T12:37:05.997Z</time></trkpt><trkpt lat="44.5105483" lon="8.8830517"><ele>130.0</ele><time>2026-04-25T12:37:06.997Z</time></trkpt><trkpt lat="44.5106133" lon="8.8829383"><ele>130.0</ele><time>2026-04-25T12:37:07.997Z</time></trkpt><trkpt lat="44.5106733" lon="8.8828117"><ele>130.0</ele><time>2026-04-25T12:37:08.999Z</time></trkpt><trkpt lat="44.510725" lon="8.8826717"><ele>130.0</ele><time>2026-04-25T12:37:10.003Z</time></trkpt><trkpt lat="44.5107683" lon="8.8825283"><ele>130.0</ele><time>2026-04-25T12:37:10.997Z</time></trkpt><trkpt lat="44.5108033" lon="8.8823783"><ele>130.0</ele><time>2026-04-25T12:37:11.998Z</time></trkpt><trkpt lat="44.5108333" lon="8.8822233"><ele>131.5</ele><time>2026-04-25T12:37:12.998Z</time></trkpt><trkpt lat="44.5108633" lon="8.8820633"><ele>133.0</ele><time>2026-04-25T12:37:13.995Z</time></trkpt><trkpt lat="44.5108883" lon="8.8819"><ele>134.5</ele><time>2026-04-25T12:37:14.998Z</time></trkpt><trkpt lat="44.5109167" lon="8.88174"><ele>136.0</ele><time>2026-04-25T12:37:15.995Z</time></trkpt><trkpt lat="44.5109367" lon="8.8815783"><ele>137.5</ele><time>2026-04-25T12:37:16.996Z</time></trkpt><trkpt lat="44.5109583" lon="8.8814117"><ele>139.0</ele><time>2026-04-25T12:37:17.996Z</time></trkpt><trkpt lat="44.5109733" lon="8.8812433"><ele>140.5</ele><time>2026-04-25T12:37:18.993Z</time></trkpt><trkpt lat="44.5109883" lon="8.8810717"><ele>142.0</ele><time>2026-04-25T12:37:19.993Z</time></trkpt><trkpt lat="44.511005" lon="8.8809017"><ele>144.25</ele><time>2026-04-25T12:37:20.994Z</time></trkpt><trkpt lat="44.5110267" lon="8.8807317"><ele>146.5</ele><time>2026-04-25T12:37:21.994Z</time></trkpt><trkpt lat="44.511055" lon="8.8805667"><ele>148.75</ele><time>2026-04-25T12:37:22.996Z</time></trkpt><trkpt lat="44.5110817" lon="8.8804017"><ele>151.0</ele><time>2026-04-25T12:37:23.994Z</time></trkpt><trkpt lat="44.5111083" lon="8.8802517"><ele>150.4</ele><time>2026-04-25T12:37:24.998Z</time></trkpt><trkpt lat="44.511125" lon="8.8800983"><ele>149.8</ele><time>2026-04-25T12:37:25.996Z</time></trkpt><trkpt lat="44.51114" lon="8.8799483"><ele>149.20000000000002</ele><time>2026-04-25T12:37:26.996Z</time></trkpt><trkpt lat="44.51116" lon="8.8798"><ele>148.6</ele><time>2026-04-25T12:37:27.994Z</time></trkpt><trkpt lat="44.51121" lon="8.8796667"><ele>148.0</ele><time>2026-04-25T12:37:28.998Z</time></trkpt><trkpt lat="44.511265" lon="8.87954"><ele>148.0</ele><time>2026-04-25T12:37:29.997Z</time></trkpt><trkpt lat="44.5113417" lon="8.8794267"><ele>148.0</ele><time>2026-04-25T12:37:30.996Z</time></trkpt><trkpt lat="44.5114433" lon="8.8793333"><ele>148.0</ele><time>2026-04-25T12:37:31.992Z</time></trkpt><trkpt lat="44.51153" lon="8.8792217"><ele>148.0</ele><time>2026-04-25T12:37:32.995Z</time></trkpt><trkpt lat="44.5116183" lon="8.8791117"><ele>149.75</ele><time>2026-04-25T12:37:33.999Z</time></trkpt><trkpt lat="44.5117117" lon="8.879"><ele>151.5</ele><time>2026-04-25T12:37:34.995Z</time></trkpt><trkpt lat="44.5118067" lon="8.8788883"><ele>153.25</ele><time>2026-04-25T12:37:35.995Z</time></trkpt><trkpt lat="44.5119017" lon="8.8787917"><ele>155.0</ele><time>2026-04-25T12:37:36.991Z</time></trkpt><trkpt lat="44.5120033" lon="8.87871"><ele>155.0</ele><time>2026-04-25T12:37:37.999Z</time></trkpt><trkpt lat="44.512115" lon="8.8786583"><ele>155.0</ele><time>2026-04-25T12:37:38.996Z</time></trkpt><trkpt lat="44.5122167" lon="8.8786083"><ele>155.0</ele><time>2026-04-25T12:37:39.996Z</time></trkpt><trkpt lat="44.51231" lon="8.878545"><ele>155.0</ele><time>2026-04-25T12:37:40.993Z</time></trkpt><trkpt lat="44.512385" lon="8.8784633"><ele>155.0</ele><time>2026-04-25T12:37:41.993Z</time></trkpt><trkpt lat="44.5124417" lon="8.8783533"><ele>155.0</ele><time>2026-04-25T12:37:42.998Z</time></trkpt><trkpt lat="44.5124933" lon="8.8782317"><ele>155.0</ele><time>2026-04-25T12:37:43.994Z</time></trkpt><trkpt lat="44.5125367" lon="8.8780967"><ele>155.0</ele><time>2026-04-25T12:37:44.993Z</time></trkpt><trkpt lat="44.5125767" lon="8.8779567"><ele>155.0</ele><time>2026-04-25T12:37:45.995Z</time></trkpt><trkpt lat="44.5126233" lon="8.877815"><ele>155.0</ele><time>2026-04-25T12:37:46.993Z</time></trkpt><trkpt lat="44.512665" lon="8.877675"><ele>156.5</ele><time>2026-04-25T12:37:47.999Z</time></trkpt><trkpt lat="44.5127083" lon="8.8775233"><ele>158.0</ele><time>2026-04-25T12:37:48.995Z</time></trkpt><trkpt lat="44.5127483" lon="8.8773783"><ele>159.5</ele><time>2026-04-25T12:37:49.997Z</time></trkpt><trkpt lat="44.5127817" lon="8.8772217"><ele>161.0</ele><time>2026-04-25T12:37:51.001Z</time></trkpt><trkpt lat="44.51282" lon="8.8770783"><ele>161.0</ele><time>2026-04-25T12:37:51.994Z</time></trkpt><trkpt lat="44.5128683" lon="8.8769333"><ele>161.0</ele><time>2026-04-25T12:37:52.992Z</time></trkpt><trkpt lat="44.5129133" lon="8.87679"><ele>161.0</ele><time>2026-04-25T12:37:53.997Z</time></trkpt><trkpt lat="44.51296" lon="8.87664"><ele>161.0</ele><time>2026-04-25T12:37:54.993Z</time></trkpt><trkpt lat="44.5130117" lon="8.8765083"><ele>160.0</ele><time>2026-04-25T12:37:55.998Z</time></trkpt><trkpt lat="44.5130567" lon="8.8763733"><ele>159.0</ele><time>2026-04-25T12:37:57Z</time></trkpt><trkpt lat="44.5130967" lon="8.8762233"><ele>158.0</ele><time>2026-04-25T12:37:57.997Z</time></trkpt><trkpt lat="44.5131317" lon="8.876075"><ele>157.0</ele><time>2026-04-25T12:37:58.999Z</time></trkpt><trkpt lat="44.5131517" lon="8.8759167"><ele>156.0</ele><time>2026-04-25T12:37:59.995Z</time></trkpt><trkpt lat="44.5131683" lon="8.8757617"><ele>156.0</ele><time>2026-04-25T12:38:00.996Z</time></trkpt><trkpt lat="44.5131867" lon="8.8756083"><ele>156.0</ele><time>2026-04-25T12:38:01.999Z</time></trkpt><trkpt lat="44.513195" lon="8.8754533"><ele>156.0</ele><time>2026-04-25T12:38:03Z</time></trkpt><trkpt lat="44.5132017" lon="8.8753017"><ele>156.0</ele><time>2026-04-25T12:38:03.997Z</time></trkpt><trkpt lat="44.5132183" lon="8.8751533"><ele>156.0</ele><time>2026-04-25T12:38:04.992Z</time></trkpt><trkpt lat="44.51324" lon="8.875005"><ele>157.2</ele><time>2026-04-25T12:38:05.997Z</time></trkpt><trkpt lat="44.5132517" lon="8.8748633"><ele>158.39999999999998</ele><time>2026-04-25T12:38:06.995Z</time></trkpt><trkpt lat="44.5132667" lon="8.8747333"><ele>159.6</ele><time>2026-04-25T12:38:07.991Z</time></trkpt><trkpt lat="44.5132967" lon="8.8746233"><ele>160.79999999999998</ele><time>2026-04-25T12:38:08.998Z</time></trkpt><trkpt lat="44.5133367" lon="8.8745117"><ele>162.0</ele><time>2026-04-25T12:38:09.994Z</time></trkpt><trkpt lat="44.513375" lon="8.874395"><ele>162.0</ele><time>2026-04-25T12:38:10.995Z</time></trkpt><trkpt lat="44.5134117" lon="8.8742783"><ele>162.0</ele><time>2026-04-25T12:38:11.994Z</time></trkpt><trkpt lat="44.5134333" lon="8.874145"><ele>162.0</ele><time>2026-04-25T12:38:12.993Z</time></trkpt><trkpt lat="44.5134567" lon="8.8740133"><ele>162.0</ele><time>2026-04-25T12:38:14.002Z</time></trkpt><trkpt lat="44.5134567" lon="8.8738583"><ele>162.0</ele><time>2026-04-25T12:38:14.993Z</time></trkpt><trkpt lat="44.5134417" lon="8.8736983"><ele>162.0</ele><time>2026-04-25T12:38:15.995Z</time></trkpt><trkpt lat="44.513415" lon="8.87354"><ele>162.0</ele><time>2026-04-25T12:38:16.994Z</time></trkpt><trkpt lat="44.5133733" lon="8.87339"><ele>162.0</ele><time>2026-04-25T12:38:17.995Z</time></trkpt><trkpt lat="44.5133167" lon="8.8732433"><ele>162.0</ele><time>2026-04-25T12:38:19.001Z</time></trkpt><trkpt lat="44.5132467" lon="8.8731083"><ele>162.0</ele><time>2026-04-25T12:38:19.998Z</time></trkpt><trkpt lat="44.5131583" lon="8.8729883"><ele>162.0</ele><time>2026-04-25T12:38:21.002Z</time></trkpt><trkpt lat="44.5130533" lon="8.8728833"><ele>162.0</ele><time>2026-04-25T12:38:21.999Z</time></trkpt><trkpt lat="44.512945" lon="8.8727767"><ele>162.0</ele><time>2026-04-25T12:38:22.997Z</time></trkpt><trkpt lat="44.5128333" lon="8.87266"><ele>164.75</ele><time>2026-04-25T12:38:23.992Z</time></trkpt><trkpt lat="44.512715" lon="8.8725333"><ele>167.5</ele><time>2026-04-25T12:38:24.996Z</time></trkpt><trkpt lat="44.5126033" lon="8.8724033"><ele>170.25</ele><time>2026-04-25T12:38:25.999Z</time></trkpt><trkpt lat="44.512495" lon="8.872265"><ele>173.0</ele><time>2026-04-25T12:38:26.993Z</time></trkpt><trkpt lat="44.51239" lon="8.872125"><ele>173.0</ele><time>2026-04-25T12:38:27.994Z</time></trkpt><trkpt lat="44.5122867" lon="8.8719917"><ele>173.0</ele><time>2026-04-25T12:38:28.993Z</time></trkpt><trkpt lat="44.51218" lon="8.871855"><ele>173.0</ele><time>2026-04-25T12:38:29.992Z</time></trkpt><trkpt lat="44.5120817" lon="8.87172"><ele>173.0</ele><time>2026-04-25T12:38:30.996Z</time></trkpt><trkpt lat="44.5119883" lon="8.8715883"><ele>175.25</ele><time>2026-04-25T12:38:31.99Z</time></trkpt><trkpt lat="44.5118933" lon="8.8714667"><ele>177.5</ele><time>2026-04-25T12:38:32.999Z</time></trkpt><trkpt lat="44.5118033" lon="8.8713367"><ele>179.75</ele><time>2026-04-25T12:38:33.992Z</time></trkpt><trkpt lat="44.51171" lon="8.87121"><ele>182.0</ele><time>2026-04-25T12:38:34.993Z</time></trkpt><trkpt lat="44.5116167" lon="8.8710767"><ele>182.0</ele><time>2026-04-25T12:38:35.994Z</time></trkpt><trkpt lat="44.5115317" lon="8.8709483"><ele>182.0</ele><time>2026-04-25T12:38:36.995Z</time></trkpt><trkpt lat="44.511455" lon="8.8708117"><ele>182.0</ele><time>2026-04-25T12:38:37.994Z</time></trkpt><trkpt lat="44.5113683" lon="8.87067"><ele>182.0</ele><time>2026-04-25T12:38:39Z</time></trkpt><trkpt lat="44.5112867" lon="8.87053"><ele>182.25</ele><time>2026-04-25T12:38:39.997Z</time></trkpt><trkpt lat="44.511205" lon="8.870385"><ele>182.5</ele><time>2026-04-25T12:38:40.997Z</time></trkpt><trkpt lat="44.511125" lon="8.8702333"><ele>182.75</ele><time>2026-04-25T12:38:41.994Z</time></trkpt><trkpt lat="44.5110483" lon="8.8700783"><ele>183.0</ele><time>2026-04-25T12:38:42.996Z</time></trkpt><trkpt lat="44.5109683" lon="8.86992"><ele>183.0</ele><time>2026-04-25T12:38:43.996Z</time></trkpt><trkpt lat="44.51089" lon="8.8697633"><ele>183.0</ele><time>2026-04-25T12:38:44.997Z</time></trkpt><trkpt lat="44.510815" lon="8.869605"><ele>183.0</ele><time>2026-04-25T12:38:45.992Z</time></trkpt><trkpt lat="44.510745" lon="8.869445"><ele>183.0</ele><time>2026-04-25T12:38:46.993Z</time></trkpt><trkpt lat="44.51068" lon="8.86928"><ele>180.0</ele><time>2026-04-25T12:38:47.994Z</time></trkpt><trkpt lat="44.5106267" lon="8.8691167"><ele>177.0</ele><time>2026-04-25T12:38:48.994Z</time></trkpt><trkpt lat="44.510565" lon="8.86896"><ele>174.0</ele><time>2026-04-25T12:38:49.996Z</time></trkpt><trkpt lat="44.5104983" lon="8.8688133"><ele>171.0</ele><time>2026-04-25T12:38:50.999Z</time></trkpt><trkpt lat="44.5104233" lon="8.868665"><ele>172.5</ele><time>2026-04-25T12:38:51.993Z</time></trkpt><trkpt lat="44.5103433" lon="8.8685233"><ele>174.0</ele><time>2026-04-25T12:38:52.993Z</time></trkpt><trkpt lat="44.5102583" lon="8.86838"><ele>175.5</ele><time>2026-04-25T12:38:53.994Z</time></trkpt><trkpt lat="44.5101833" lon="8.8682333"><ele>177.0</ele><time>2026-04-25T12:38:54.998Z</time></trkpt><trkpt lat="44.5101083" lon="8.8680867"><ele>177.0</ele><time>2026-04-25T12:38:55.993Z</time></trkpt><trkpt lat="44.5100267" lon="8.867945"><ele>177.0</ele><time>2026-04-25T12:38:56.996Z</time></trkpt><trkpt lat="44.50994" lon="8.86781"><ele>177.0</ele><time>2026-04-25T12:38:57.991Z</time></trkpt><trkpt lat="44.5098433" lon="8.8676883"><ele>177.0</ele><time>2026-04-25T12:38:58.997Z</time></trkpt><trkpt lat="44.5097267" lon="8.8675817"><ele>178.0</ele><time>2026-04-25T12:38:59.996Z</time></trkpt><trkpt lat="44.5096033" lon="8.8675"><ele>179.0</ele><time>2026-04-25T12:39:00.992Z</time></trkpt><trkpt lat="44.5094833" lon="8.8674183"><ele>180.0</ele><time>2026-04-25T12:39:01.994Z</time></trkpt><trkpt lat="44.5093767" lon="8.8673267"><ele>181.0</ele><time>2026-04-25T12:39:02.995Z</time></trkpt><trkpt lat="44.5092883" lon="8.8672267"><ele>181.4</ele><time>2026-04-25T12:39:03.996Z</time></trkpt><trkpt lat="44.5092217" lon="8.867105"><ele>181.8</ele><time>2026-04-25T12:39:04.994Z</time></trkpt><trkpt lat="44.5091667" lon="8.8669783"><ele>182.20000000000002</ele><time>2026-04-25T12:39:05.992Z</time></trkpt><trkpt lat="44.5091217" lon="8.8668533"><ele>182.60000000000002</ele><time>2026-04-25T12:39:06.997Z</time></trkpt><trkpt lat="44.5090817" lon="8.8667233"><ele>183.0</ele><time>2026-04-25T12:39:07.994Z</time></trkpt><trkpt lat="44.5090617" lon="8.8665783"><ele>183.0</ele><time>2026-04-25T12:39:08.999Z</time></trkpt><trkpt lat="44.50905" lon="8.8664233"><ele>183.0</ele><time>2026-04-25T12:39:09.994Z</time></trkpt><trkpt lat="44.5090483" lon="8.8662617"><ele>183.0</ele><time>2026-04-25T12:39:10.994Z</time></trkpt><trkpt lat="44.509045" lon="8.8660917"><ele>183.0</ele><time>2026-04-25T12:39:11.992Z</time></trkpt><trkpt lat="44.5090367" lon="8.8659217"><ele>183.75</ele><time>2026-04-25T12:39:12.992Z</time></trkpt><trkpt lat="44.5090267" lon="8.8657467"><ele>184.5</ele><time>2026-04-25T12:39:13.994Z</time></trkpt><trkpt lat="44.5090117" lon="8.86558"><ele>185.25</ele><time>2026-04-25T12:39:14.993Z</time></trkpt><trkpt lat="44.5089833" lon="8.8654133"><ele>186.0</ele><time>2026-04-25T12:39:15.997Z</time></trkpt><trkpt lat="44.5089483" lon="8.865265"><ele>186.0</ele><time>2026-04-25T12:39:16.993Z</time></trkpt><trkpt lat="44.5089017" lon="8.865125"><ele>186.0</ele><time>2026-04-25T12:39:17.999Z</time></trkpt><trkpt lat="44.508845" lon="8.8649867"><ele>186.0</ele><time>2026-04-25T12:39:18.996Z</time></trkpt><trkpt lat="44.5088" lon="8.8648517"><ele>186.0</ele><time>2026-04-25T12:39:19.996Z</time></trkpt><trkpt lat="44.50876" lon="8.8647133"><ele>186.0</ele><time>2026-04-25T12:39:20.997Z</time></trkpt><trkpt lat="44.5087333" lon="8.8645817"><ele>187.60000000000002</ele><time>2026-04-25T12:39:21.999Z</time></trkpt><trkpt lat="44.508725" lon="8.8644383"><ele>189.2</ele><time>2026-04-25T12:39:22.994Z</time></trkpt><trkpt lat="44.5087433" lon="8.8642983"><ele>190.8</ele><time>2026-04-25T12:39:23.997Z</time></trkpt><trkpt lat="44.5087667" lon="8.8641683"><ele>192.39999999999998</ele><time>2026-04-25T12:39:24.997Z</time></trkpt><trkpt lat="44.5088033" lon="8.864055"><ele>194.0</ele><time>2026-04-25T12:39:25.994Z</time></trkpt><trkpt lat="44.5088417" lon="8.8639583"><ele>194.33333333333334</ele><time>2026-04-25T12:39:26.996Z</time></trkpt><trkpt lat="44.5088933" lon="8.86387"><ele>194.66666666666669</ele><time>2026-04-25T12:39:27.996Z</time></trkpt><trkpt lat="44.5089417" lon="8.86377"><ele>195.0</ele><time>2026-04-25T12:39:28.995Z</time></trkpt><trkpt lat="44.5090067" lon="8.8636933"><ele>195.33333333333331</ele><time>2026-04-25T12:39:29.995Z</time></trkpt><trkpt lat="44.5090917" lon="8.86363"><ele>195.66666666666666</ele><time>2026-04-25T12:39:30.994Z</time></trkpt><trkpt lat="44.509175" lon="8.8635583"><ele>196.0</ele><time>2026-04-25T12:39:31.995Z</time></trkpt><trkpt lat="44.50924" lon="8.86347"><ele>195.60000000000002</ele><time>2026-04-25T12:39:32.995Z</time></trkpt><trkpt lat="44.5092933" lon="8.8633733"><ele>195.2</ele><time>2026-04-25T12:39:33.993Z</time></trkpt><trkpt lat="44.5093617" lon="8.8632833"><ele>194.8</ele><time>2026-04-25T12:39:34.995Z</time></trkpt><trkpt lat="44.509425" lon="8.863185"><ele>194.39999999999998</ele><time>2026-04-25T12:39:35.994Z</time></trkpt><trkpt lat="44.5094967" lon="8.8630867"><ele>194.0</ele><time>2026-04-25T12:39:36.997Z</time></trkpt><trkpt lat="44.5095483" lon="8.86298"><ele>197.39999999999998</ele><time>2026-04-25T12:39:37.993Z</time></trkpt><trkpt lat="44.5096167" lon="8.862875"><ele>200.8</ele><time>2026-04-25T12:39:38.994Z</time></trkpt><trkpt lat="44.5096867" lon="8.8627633"><ele>204.2</ele><time>2026-04-25T12:39:39.995Z</time></trkpt><trkpt lat="44.5097717" lon="8.8626667"><ele>207.60000000000002</ele><time>2026-04-25T12:39:40.993Z</time></trkpt><trkpt lat="44.5098433" lon="8.862565"><ele>211.0</ele><time>2026-04-25T12:39:41.994Z</time></trkpt><trkpt lat="44.5098983" lon="8.8624533"><ele>211.0</ele><time>2026-04-25T12:39:42.998Z</time></trkpt><trkpt lat="44.5099517" lon="8.862335"><ele>211.0</ele><time>2026-04-25T12:39:43.997Z</time></trkpt><trkpt lat="44.51" lon="8.862215"><ele>211.0</ele><time>2026-04-25T12:39:45.001Z</time></trkpt><trkpt lat="44.5100483" lon="8.8620967"><ele>211.0</ele><time>2026-04-25T12:39:45.993Z</time></trkpt><trkpt lat="44.510095" lon="8.8619833"><ele>211.0</ele><time>2026-04-25T12:39:46.994Z</time></trkpt><trkpt lat="44.51014" lon="8.8618717"><ele>211.16666666666666</ele><time>2026-04-25T12:39:47.994Z</time></trkpt><trkpt lat="44.510185" lon="8.8617617"><ele>211.33333333333331</ele><time>2026-04-25T12:39:48.993Z</time></trkpt><trkpt lat="44.5102267" lon="8.8616583"><ele>211.5</ele><time>2026-04-25T12:39:50.001Z</time></trkpt><trkpt lat="44.51027" lon="8.861565"><ele>211.66666666666669</ele><time>2026-04-25T12:39:50.995Z</time></trkpt><trkpt lat="44.5103083" lon="8.8614733"><ele>211.83333333333334</ele><time>2026-04-25T12:39:51.995Z</time></trkpt><trkpt lat="44.5103467" lon="8.861385"><ele>212.0</ele><time>2026-04-25T12:39:52.995Z</time></trkpt><trkpt lat="44.5103917" lon="8.8612983"><ele>213.66666666666669</ele><time>2026-04-25T12:39:53.995Z</time></trkpt><trkpt lat="44.51043" lon="8.8612017"><ele>215.33333333333334</ele><time>2026-04-25T12:39:54.994Z</time></trkpt><trkpt lat="44.5104733" lon="8.8611"><ele>217.0</ele><time>2026-04-25T12:39:55.993Z</time></trkpt><trkpt lat="44.5105217" lon="8.8609917"><ele>218.66666666666669</ele><time>2026-04-25T12:39:56.998Z</time></trkpt><trkpt lat="44.5105783" lon="8.8608817"><ele>220.33333333333334</ele><time>2026-04-25T12:39:57.997Z</time></trkpt><trkpt lat="44.5106317" lon="8.8607717"><ele>222.0</ele><time>2026-04-25T12:39:58.996Z</time></trkpt><trkpt lat="44.5106917" lon="8.86067"><ele>222.0</ele><time>2026-04-25T12:39:59.994Z</time></trkpt><trkpt lat="44.5107583" lon="8.8605883"><ele>222.0</ele><time>2026-04-25T12:40:00.999Z</time></trkpt><trkpt lat="44.510835" lon="8.8605233"><ele>222.0</ele><time>2026-04-25T12:40:02.001Z</time></trkpt><trkpt lat="44.5109083" lon="8.8604483"><ele>222.0</ele><time>2026-04-25T12:40:02.994Z</time></trkpt><trkpt lat="44.5109783" lon="8.8603683"><ele>222.0</ele><time>2026-04-25T12:40:03.994Z</time></trkpt><trkpt lat="44.5110483" lon="8.8602867"><ele>222.0</ele><time>2026-04-25T12:40:04.996Z</time></trkpt><trkpt lat="44.5111167" lon="8.8602017"><ele>222.0</ele><time>2026-04-25T12:40:05.995Z</time></trkpt><trkpt lat="44.5111583" lon="8.86009"><ele>222.0</ele><time>2026-04-25T12:40:06.996Z</time></trkpt><trkpt lat="44.51119" lon="8.85997"><ele>222.0</ele><time>2026-04-25T12:40:08Z</time></trkpt><trkpt lat="44.5112117" lon="8.8598467"><ele>222.0</ele><time>2026-04-25T12:40:08.995Z</time></trkpt><trkpt lat="44.5112267" lon="8.859725"><ele>223.0</ele><time>2026-04-25T12:40:09.993Z</time></trkpt><trkpt lat="44.511235" lon="8.8595933"><ele>224.0</ele><time>2026-04-25T12:40:10.997Z</time></trkpt><trkpt lat="44.5112317" lon="8.85946"><ele>225.0</ele><time>2026-04-25T12:40:11.996Z</time></trkpt><trkpt lat="44.5112283" lon="8.85934"><ele>226.0</ele><time>2026-04-25T12:40:12.997Z</time></trkpt><trkpt lat="44.5112283" lon="8.8592283"><ele>227.0</ele><time>2026-04-25T12:40:13.996Z</time></trkpt><trkpt lat="44.511235" lon="8.85912"><ele>228.0</ele><time>2026-04-25T12:40:14.995Z</time></trkpt><trkpt lat="44.5112533" lon="8.85902"><ele>228.0</ele><time>2026-04-25T12:40:15.994Z</time></trkpt><trkpt lat="44.51128" lon="8.8589183"><ele>228.0</ele><time>2026-04-25T12:40:16.995Z</time></trkpt><trkpt lat="44.5113233" lon="8.858825"><ele>228.0</ele><time>2026-04-25T12:40:17.996Z</time></trkpt><trkpt lat="44.5113783" lon="8.8587467"><ele>228.0</ele><time>2026-04-25T12:40:18.995Z</time></trkpt><trkpt lat="44.51143" lon="8.85867"><ele>228.0</ele><time>2026-04-25T12:40:19.994Z</time></trkpt><trkpt lat="44.5114867" lon="8.8586"><ele>228.0</ele><time>2026-04-25T12:40:20.998Z</time></trkpt><trkpt lat="44.51156" lon="8.8585333"><ele>228.0</ele><time>2026-04-25T12:40:21.993Z</time></trkpt><trkpt lat="44.511615" lon="8.8584683"><ele>228.0</ele><time>2026-04-25T12:40:22.997Z</time></trkpt><trkpt lat="44.5116467" lon="8.8583683"><ele>228.0</ele><time>2026-04-25T12:40:23.993Z</time></trkpt><trkpt lat="44.51166" lon="8.8582617"><ele>228.0</ele><time>2026-04-25T12:40:24.993Z</time></trkpt><trkpt lat="44.5116783" lon="8.8581533"><ele>228.0</ele><time>2026-04-25T12:40:25.996Z</time></trkpt><trkpt lat="44.511705" lon="8.8580517"><ele>228.0</ele><time>2026-04-25T12:40:26.997Z</time></trkpt><trkpt lat="44.51173" lon="8.8579533"><ele>227.57142857142856</ele><time>2026-04-25T12:40:27.995Z</time></trkpt><trkpt lat="44.511755" lon="8.857855"><ele>227.1428571428571</ele><time>2026-04-25T12:40:28.993Z</time></trkpt><trkpt lat="44.5117867" lon="8.8577617"><ele>226.71428571428572</ele><time>2026-04-25T12:40:29.994Z</time></trkpt><trkpt lat="44.5117983" lon="8.8576583"><ele>226.28571428571428</ele><time>2026-04-25T12:40:30.995Z</time></trkpt><trkpt lat="44.5118" lon="8.85755"><ele>225.85714285714286</ele><time>2026-04-25T12:40:31.997Z</time></trkpt><trkpt lat="44.5117867" lon="8.8574517"><ele>225.42857142857144</ele><time>2026-04-25T12:40:32.995Z</time></trkpt><trkpt lat="44.5117567" lon="8.8573633"><ele>225.00000000000003</ele><time>2026-04-25T12:40:33.993Z</time></trkpt><trkpt lat="44.5117167" lon="8.8572817"><ele>224.8</ele><time>2026-04-25T12:40:34.994Z</time></trkpt><trkpt lat="44.5116717" lon="8.8572017"><ele>224.6</ele><time>2026-04-25T12:40:35.992Z</time></trkpt><trkpt lat="44.5116367" lon="8.857115"><ele>224.39999999999998</ele><time>2026-04-25T12:40:36.996Z</time></trkpt><trkpt lat="44.5116083" lon="8.85703"><ele>224.2</ele><time>2026-04-25T12:40:37.998Z</time></trkpt><trkpt lat="44.5115967" lon="8.8568583"><ele>224.0</ele><time>2026-04-25T12:40:39.998Z</time></trkpt><trkpt lat="44.51166" lon="8.8567017"><ele>224.00000000000003</ele><time>2026-04-25T12:40:41.996Z</time></trkpt><trkpt lat="44.51172" lon="8.8566267"><ele>224.0</ele><time>2026-04-25T12:40:42.996Z</time></trkpt><trkpt lat="44.5117883" lon="8.8565483"><ele>224.0</ele><time>2026-04-25T12:40:43.991Z</time></trkpt><trkpt lat="44.5118467" lon="8.8564583"><ele>224.0</ele><time>2026-04-25T12:40:44.995Z</time></trkpt><trkpt lat="44.5118967" lon="8.8563533"><ele>224.00000000000003</ele><time>2026-04-25T12:40:45.993Z</time></trkpt><trkpt lat="44.511945" lon="8.8562433"><ele>224.0</ele><time>2026-04-25T12:40:46.995Z</time></trkpt><trkpt lat="44.511985" lon="8.8561233"><ele>224.00000000000003</ele><time>2026-04-25T12:40:47.996Z</time></trkpt><trkpt lat="44.5120017" lon="8.8559983"><ele>224.0</ele><time>2026-04-25T12:40:48.997Z</time></trkpt><trkpt lat="44.5120033" lon="8.8558767"><ele>224.0</ele><time>2026-04-25T12:40:49.995Z</time></trkpt><trkpt lat="44.511985" lon="8.855755"><ele>224.0</ele><time>2026-04-25T12:40:50.993Z</time></trkpt><trkpt lat="44.5119567" lon="8.85564"><ele>224.00000000000003</ele><time>2026-04-25T12:40:51.996Z</time></trkpt><trkpt lat="44.5119283" lon="8.85552"><ele>224.0</ele><time>2026-04-25T12:40:52.992Z</time></trkpt><trkpt lat="44.5118867" lon="8.8553967"><ele>224.66666666666669</ele><time>2026-04-25T12:40:53.998Z</time></trkpt><trkpt lat="44.51185" lon="8.855275"><ele>225.33333333333334</ele><time>2026-04-25T12:40:54.994Z</time></trkpt><trkpt lat="44.5118267" lon="8.85515"><ele>226.0</ele><time>2026-04-25T12:40:55.992Z</time></trkpt><trkpt lat="44.5118117" lon="8.85503"><ele>226.66666666666669</ele><time>2026-04-25T12:40:56.994Z</time></trkpt><trkpt lat="44.51179" lon="8.8549167"><ele>227.33333333333334</ele><time>2026-04-25T12:40:57.994Z</time></trkpt><trkpt lat="44.511775" lon="8.8547967"><ele>228.0</ele><time>2026-04-25T12:40:58.995Z</time></trkpt><trkpt lat="44.5117617" lon="8.85469"><ele>229.33333333333334</ele><time>2026-04-25T12:40:59.995Z</time></trkpt><trkpt lat="44.5117617" lon="8.8545733"><ele>230.66666666666669</ele><time>2026-04-25T12:41:00.995Z</time></trkpt><trkpt lat="44.5117783" lon="8.8544517"><ele>232.0</ele><time>2026-04-25T12:41:01.994Z</time></trkpt><trkpt lat="44.5118067" lon="8.8543333"><ele>233.33333333333334</ele><time>2026-04-25T12:41:02.993Z</time></trkpt><trkpt lat="44.51183" lon="8.854215"><ele>234.66666666666669</ele><time>2026-04-25T12:41:03.993Z</time></trkpt><trkpt lat="44.5118583" lon="8.8541033"><ele>236.0</ele><time>2026-04-25T12:41:04.995Z</time></trkpt><trkpt lat="44.5118917" lon="8.8539933"><ele>236.16666666666669</ele><time>2026-04-25T12:41:05.995Z</time></trkpt><trkpt lat="44.5119167" lon="8.85389"><ele>236.33333333333334</ele><time>2026-04-25T12:41:06.994Z</time></trkpt><trkpt lat="44.5119483" lon="8.8537967"><ele>236.5</ele><time>2026-04-25T12:41:07.992Z</time></trkpt><trkpt lat="44.5119767" lon="8.8537033"><ele>236.66666666666669</ele><time>2026-04-25T12:41:08.993Z</time></trkpt><trkpt lat="44.5120083" lon="8.8536167"><ele>236.83333333333334</ele><time>2026-04-25T12:41:09.995Z</time></trkpt><trkpt lat="44.5120533" lon="8.85353"><ele>237.0</ele><time>2026-04-25T12:41:10.992Z</time></trkpt><trkpt lat="44.5121133" lon="8.8534483"><ele>238.66666666666666</ele><time>2026-04-25T12:41:11.997Z</time></trkpt><trkpt lat="44.5121783" lon="8.8533717"><ele>240.33333333333331</ele><time>2026-04-25T12:41:12.996Z</time></trkpt><trkpt lat="44.5122333" lon="8.8532817"><ele>242.0</ele><time>2026-04-25T12:41:13.994Z</time></trkpt><trkpt lat="44.5122733" lon="8.8531767"><ele>243.66666666666666</ele><time>2026-04-25T12:41:14.996Z</time></trkpt><trkpt lat="44.5123017" lon="8.8530633"><ele>245.33333333333331</ele><time>2026-04-25T12:41:15.995Z</time></trkpt><trkpt lat="44.5123233" lon="8.8529517"><ele>247.0</ele><time>2026-04-25T12:41:16.996Z</time></trkpt><trkpt lat="44.5123367" lon="8.8528417"><ele>247.0</ele><time>2026-04-25T12:41:17.994Z</time></trkpt><trkpt lat="44.5123433" lon="8.8527367"><ele>247.0</ele><time>2026-04-25T12:41:18.994Z</time></trkpt><trkpt lat="44.5123467" lon="8.8526433"><ele>247.0</ele><time>2026-04-25T12:41:19.996Z</time></trkpt><trkpt lat="44.5123867" lon="8.8524883"><ele>247.0</ele><time>2026-04-25T12:41:21.994Z</time></trkpt><trkpt lat="44.5124867" lon="8.8523883"><ele>247.0</ele><time>2026-04-25T12:41:23.997Z</time></trkpt><trkpt lat="44.512545" lon="8.852335"><ele>247.16666666666666</ele><time>2026-04-25T12:41:24.994Z</time></trkpt><trkpt lat="44.5126067" lon="8.85227"><ele>247.33333333333331</ele><time>2026-04-25T12:41:25.997Z</time></trkpt><trkpt lat="44.512665" lon="8.8521833"><ele>247.5</ele><time>2026-04-25T12:41:26.994Z</time></trkpt><trkpt lat="44.5127067" lon="8.85208"><ele>247.66666666666669</ele><time>2026-04-25T12:41:27.995Z</time></trkpt><trkpt lat="44.5127367" lon="8.8519733"><ele>247.83333333333334</ele><time>2026-04-25T12:41:28.991Z</time></trkpt><trkpt lat="44.51275" lon="8.8518617"><ele>248.0</ele><time>2026-04-25T12:41:29.993Z</time></trkpt><trkpt lat="44.5127617" lon="8.8517483"><ele>249.66666666666669</ele><time>2026-04-25T12:41:30.993Z</time></trkpt><trkpt lat="44.512765" lon="8.851625"><ele>251.33333333333334</ele><time>2026-04-25T12:41:31.993Z</time></trkpt><trkpt lat="44.5127683" lon="8.8514867"><ele>253.0</ele><time>2026-04-25T12:41:32.997Z</time></trkpt><trkpt lat="44.5127633" lon="8.8513583"><ele>254.66666666666669</ele><time>2026-04-25T12:41:33.99Z</time></trkpt><trkpt lat="44.512735" lon="8.8512417"><ele>256.3333333333333</ele><time>2026-04-25T12:41:34.997Z</time></trkpt><trkpt lat="44.512705" lon="8.8511433"><ele>258.0</ele><time>2026-04-25T12:41:35.992Z</time></trkpt><trkpt lat="44.5126733" lon="8.85104"><ele>258.1666666666667</ele><time>2026-04-25T12:41:36.994Z</time></trkpt><trkpt lat="44.512625" lon="8.85095"><ele>258.3333333333333</ele><time>2026-04-25T12:41:37.996Z</time></trkpt><trkpt lat="44.51257" lon="8.85085"><ele>258.5</ele><time>2026-04-25T12:41:38.998Z</time></trkpt><trkpt lat="44.512515" lon="8.8507433"><ele>258.66666666666663</ele><time>2026-04-25T12:41:39.994Z</time></trkpt><trkpt lat="44.5124617" lon="8.850635"><ele>258.8333333333333</ele><time>2026-04-25T12:41:40.993Z</time></trkpt><trkpt lat="44.5124267" lon="8.85052"><ele>259.0</ele><time>2026-04-25T12:41:41.995Z</time></trkpt><trkpt lat="44.5124033" lon="8.8503967"><ele>259.0</ele><time>2026-04-25T12:41:42.996Z</time></trkpt><trkpt lat="44.5123883" lon="8.85027"><ele>259.0</ele><time>2026-04-25T12:41:44.005Z</time></trkpt><trkpt lat="44.51238" lon="8.8501383"><ele>259.0</ele><time>2026-04-25T12:41:44.997Z</time></trkpt><trkpt lat="44.5123817" lon="8.850005"><ele>259.0</ele><time>2026-04-25T12:41:45.996Z</time></trkpt><trkpt lat="44.512395" lon="8.84988"><ele>259.0</ele><time>2026-04-25T12:41:46.998Z</time></trkpt><trkpt lat="44.5124117" lon="8.8497533"><ele>257.66666666666663</ele><time>2026-04-25T12:41:47.999Z</time></trkpt><trkpt lat="44.512435" lon="8.8496333"><ele>256.3333333333333</ele><time>2026-04-25T12:41:48.992Z</time></trkpt><trkpt lat="44.5124617" lon="8.8495133"><ele>255.0</ele><time>2026-04-25T12:41:49.997Z</time></trkpt><trkpt lat="44.5124983" lon="8.8494033"><ele>253.66666666666669</ele><time>2026-04-25T12:41:51Z</time></trkpt><trkpt lat="44.5125383" lon="8.8492917"><ele>252.33333333333334</ele><time>2026-04-25T12:41:51.993Z</time></trkpt><trkpt lat="44.5125817" lon="8.8491783"><ele>251.0</ele><time>2026-04-25T12:41:52.994Z</time></trkpt><trkpt lat="44.5126283" lon="8.8490683"><ele>250.83333333333334</ele><time>2026-04-25T12:41:53.998Z</time></trkpt><trkpt lat="44.5126817" lon="8.848965"><ele>250.66666666666669</ele><time>2026-04-25T12:41:54.992Z</time></trkpt><trkpt lat="44.5127383" lon="8.848865"><ele>250.5</ele><time>2026-04-25T12:41:55.992Z</time></trkpt><trkpt lat="44.5127983" lon="8.848775"><ele>250.33333333333331</ele><time>2026-04-25T12:41:56.996Z</time></trkpt><trkpt lat="44.5128617" lon="8.8487033"><ele>250.16666666666666</ele><time>2026-04-25T12:41:57.993Z</time></trkpt><trkpt lat="44.5129233" lon="8.8486417"><ele>250.0</ele><time>2026-04-25T12:41:58.993Z</time></trkpt><trkpt lat="44.5130067" lon="8.84865"><ele>252.42857142857142</ele><time>2026-04-25T12:41:59.995Z</time></trkpt><trkpt lat="44.5130817" lon="8.84866"><ele>254.8571428571429</ele><time>2026-04-25T12:42:00.994Z</time></trkpt><trkpt lat="44.5131483" lon="8.8486817"><ele>257.28571428571433</ele><time>2026-04-25T12:42:01.995Z</time></trkpt><trkpt lat="44.513215" lon="8.84871"><ele>259.7142857142857</ele><time>2026-04-25T12:42:02.997Z</time></trkpt><trkpt lat="44.5132833" lon="8.8487517"><ele>262.14285714285717</ele><time>2026-04-25T12:42:03.998Z</time></trkpt><trkpt lat="44.5133433" lon="8.84881"><ele>264.5714285714286</ele><time>2026-04-25T12:42:04.995Z</time></trkpt><trkpt lat="44.5134" lon="8.8488767"><ele>267.0</ele><time>2026-04-25T12:42:05.993Z</time></trkpt><trkpt lat="44.51343" lon="8.84896"><ele>267.0</ele><time>2026-04-25T12:42:06.995Z</time></trkpt><trkpt lat="44.5134333" lon="8.8490483"><ele>267.0</ele><time>2026-04-25T12:42:07.996Z</time></trkpt><trkpt lat="44.5132967" lon="8.8491517"><ele>267.0</ele><time>2026-04-25T12:42:08.997Z</time></trkpt><trkpt lat="44.51322" lon="8.849235"><ele>267.0</ele><time>2026-04-25T12:42:09.993Z</time></trkpt><trkpt lat="44.513155" lon="8.849325"><ele>267.0</ele><time>2026-04-25T12:42:10.994Z</time></trkpt><trkpt lat="44.5131033" lon="8.849425"><ele>269.2</ele><time>2026-04-25T12:42:11.993Z</time></trkpt><trkpt lat="44.5130617" lon="8.8495383"><ele>271.4</ele><time>2026-04-25T12:42:12.994Z</time></trkpt><trkpt lat="44.5130433" lon="8.8496617"><ele>273.6</ele><time>2026-04-25T12:42:13.993Z</time></trkpt><trkpt lat="44.5130333" lon="8.84979"><ele>275.8</ele><time>2026-04-25T12:42:14.995Z</time></trkpt><trkpt lat="44.5130183" lon="8.849915"><ele>278.0</ele><time>2026-04-25T12:42:15.996Z</time></trkpt><trkpt lat="44.513005" lon="8.8500433"><ele>277.83333333333337</ele><time>2026-04-25T12:42:16.995Z</time></trkpt><trkpt lat="44.5130067" lon="8.85017"><ele>277.6666666666667</ele><time>2026-04-25T12:42:17.996Z</time></trkpt><trkpt lat="44.51302" lon="8.8502933"><ele>277.5</ele><time>2026-04-25T12:42:18.997Z</time></trkpt><trkpt lat="44.5130483" lon="8.850405"><ele>277.3333333333333</ele><time>2026-04-25T12:42:19.993Z</time></trkpt><trkpt lat="44.5130883" lon="8.850515"><ele>277.16666666666663</ele><time>2026-04-25T12:42:20.997Z</time></trkpt><trkpt lat="44.5131367" lon="8.85062"><ele>277.0</ele><time>2026-04-25T12:42:21.994Z</time></trkpt><trkpt lat="44.513195" lon="8.850735"><ele>277.0</ele><time>2026-04-25T12:42:22.993Z</time></trkpt><trkpt lat="44.51324" lon="8.8508417"><ele>277.0</ele><time>2026-04-25T12:42:24.001Z</time></trkpt><trkpt lat="44.51327" lon="8.850955"><ele>277.0</ele><time>2026-04-25T12:42:24.994Z</time></trkpt><trkpt lat="44.5132917" lon="8.8510717"><ele>277.0</ele><time>2026-04-25T12:42:25.997Z</time></trkpt><trkpt lat="44.5133033" lon="8.85119"><ele>277.0</ele><time>2026-04-25T12:42:27.001Z</time></trkpt><trkpt lat="44.5133" lon="8.8513067"><ele>277.0</ele><time>2026-04-25T12:42:27.996Z</time></trkpt><trkpt lat="44.5132967" lon="8.85142"><ele>277.3333333333333</ele><time>2026-04-25T12:42:28.996Z</time></trkpt><trkpt lat="44.513285" lon="8.8515333"><ele>277.66666666666663</ele><time>2026-04-25T12:42:29.992Z</time></trkpt><trkpt lat="44.5132783" lon="8.851645"><ele>278.0</ele><time>2026-04-25T12:42:30.994Z</time></trkpt><trkpt lat="44.5132767" lon="8.85176"><ele>278.3333333333333</ele><time>2026-04-25T12:42:31.996Z</time></trkpt><trkpt lat="44.5132833" lon="8.8518717"><ele>278.6666666666667</ele><time>2026-04-25T12:42:32.997Z</time></trkpt><trkpt lat="44.5132967" lon="8.8519867"><ele>279.0</ele><time>2026-04-25T12:42:33.992Z</time></trkpt><trkpt lat="44.5133017" lon="8.852105"><ele>279.0</ele><time>2026-04-25T12:42:34.992Z</time></trkpt><trkpt lat="44.5133217" lon="8.85223"><ele>279.0</ele><time>2026-04-25T12:42:35.994Z</time></trkpt><trkpt lat="44.51334" lon="8.85235"><ele>279.0</ele><time>2026-04-25T12:42:36.998Z</time></trkpt><trkpt lat="44.5133583" lon="8.8524717"><ele>279.0</ele><time>2026-04-25T12:42:37.992Z</time></trkpt><trkpt lat="44.5133767" lon="8.852595"><ele>279.0</ele><time>2026-04-25T12:42:38.992Z</time></trkpt><trkpt lat="44.5133967" lon="8.8527183"><ele>279.0</ele><time>2026-04-25T12:42:39.992Z</time></trkpt><trkpt lat="44.5134033" lon="8.852835"><ele>279.2</ele><time>2026-04-25T12:42:40.994Z</time></trkpt><trkpt lat="44.5134217" lon="8.85294"><ele>279.4</ele><time>2026-04-25T12:42:41.995Z</time></trkpt><trkpt lat="44.5134467" lon="8.8530317"><ele>279.6</ele><time>2026-04-25T12:42:42.997Z</time></trkpt><trkpt lat="44.5135583" lon="8.8531217"><ele>279.8</ele><time>2026-04-25T12:42:44.997Z</time></trkpt><trkpt lat="44.513625" lon="8.8531183"><ele>280.0</ele><time>2026-04-25T12:42:45.994Z</time></trkpt><trkpt lat="44.51372" lon="8.8529917"><ele>284.0</ele><time>2026-04-25T12:42:47.996Z</time></trkpt><trkpt lat="44.5137533" lon="8.852895"><ele>288.0</ele><time>2026-04-25T12:42:48.995Z</time></trkpt><trkpt lat="44.5137633" lon="8.85279"><ele>292.0</ele><time>2026-04-25T12:42:49.998Z</time></trkpt><trkpt lat="44.5137617" lon="8.8526817"><ele>296.0</ele><time>2026-04-25T12:42:50.995Z</time></trkpt><trkpt lat="44.51378" lon="8.8525783"><ele>300.0</ele><time>2026-04-25T12:42:51.991Z</time></trkpt><trkpt lat="44.5138233" lon="8.8524867"><ele>304.0</ele><time>2026-04-25T12:42:52.995Z</time></trkpt><trkpt lat="44.513925" lon="8.8524317"><ele>304.0</ele><time>2026-04-25T12:42:54.995Z</time></trkpt><trkpt lat="44.5140033" lon="8.852465"><ele>304.0</ele><time>2026-04-25T12:42:55.995Z</time></trkpt><trkpt lat="44.5140883" lon="8.85251"><ele>304.0</ele><time>2026-04-25T12:42:56.991Z</time></trkpt><trkpt lat="44.5141783" lon="8.85257"><ele>304.0</ele><time>2026-04-25T12:42:57.995Z</time></trkpt><trkpt lat="44.51427" lon="8.85263"><ele>304.0</ele><time>2026-04-25T12:42:58.994Z</time></trkpt><trkpt lat="44.5143567" lon="8.8526833"><ele>304.0</ele><time>2026-04-25T12:42:59.993Z</time></trkpt><trkpt lat="44.5144433" lon="8.8527417"><ele>304.0</ele><time>2026-04-25T12:43:00.994Z</time></trkpt><trkpt lat="44.5145317" lon="8.85281"><ele>304.0</ele><time>2026-04-25T12:43:01.993Z</time></trkpt><trkpt lat="44.5146167" lon="8.8528783"><ele>304.0</ele><time>2026-04-25T12:43:02.997Z</time></trkpt><trkpt lat="44.5147033" lon="8.8529217"><ele>304.0</ele><time>2026-04-25T12:43:04.001Z</time></trkpt><trkpt lat="44.5148" lon="8.8529567"><ele>307.5</ele><time>2026-04-25T12:43:04.996Z</time></trkpt><trkpt lat="44.514885" lon="8.8529517"><ele>311.0</ele><time>2026-04-25T12:43:05.992Z</time></trkpt><trkpt lat="44.5149717" lon="8.8529433"><ele>314.5</ele><time>2026-04-25T12:43:06.993Z</time></trkpt><trkpt lat="44.5150533" lon="8.8529133"><ele>318.0</ele><time>2026-04-25T12:43:07.994Z</time></trkpt><trkpt lat="44.5151183" lon="8.8528667"><ele>321.5</ele><time>2026-04-25T12:43:08.996Z</time></trkpt><trkpt lat="44.5151733" lon="8.8528017"><ele>325.0</ele><time>2026-04-25T12:43:09.998Z</time></trkpt><trkpt lat="44.5152167" lon="8.85273"><ele>325.0</ele><time>2026-04-25T12:43:10.995Z</time></trkpt><trkpt lat="44.5152417" lon="8.8526417"><ele>325.0</ele><time>2026-04-25T12:43:11.992Z</time></trkpt><trkpt lat="44.5152183" lon="8.8525267"><ele>325.0</ele><time>2026-04-25T12:43:12.996Z</time></trkpt><trkpt lat="44.5151767" lon="8.85236"><ele>325.0</ele><time>2026-04-25T12:43:14.996Z</time></trkpt><trkpt lat="44.5150933" lon="8.8523117"><ele>325.0</ele><time>2026-04-25T12:43:15.995Z</time></trkpt><trkpt lat="44.5150067" lon="8.8522967"><ele>324.3333333333333</ele><time>2026-04-25T12:43:16.994Z</time></trkpt><trkpt lat="44.5149233" lon="8.8522967"><ele>323.66666666666663</ele><time>2026-04-25T12:43:17.992Z</time></trkpt><trkpt lat="44.5148367" lon="8.8523083"><ele>323.0</ele><time>2026-04-25T12:43:18.996Z</time></trkpt><trkpt lat="44.5147567" lon="8.85232"><ele>322.3333333333333</ele><time>2026-04-25T12:43:19.992Z</time></trkpt><trkpt lat="44.5146817" lon="8.85232"><ele>321.6666666666667</ele><time>2026-04-25T12:43:21.002Z</time></trkpt><trkpt lat="44.5146067" lon="8.8523033"><ele>321.0</ele><time>2026-04-25T12:43:21.994Z</time></trkpt><trkpt lat="44.5145317" lon="8.852265"><ele>319.8333333333333</ele><time>2026-04-25T12:43:22.995Z</time></trkpt><trkpt lat="44.5145" lon="8.852155"><ele>318.6666666666667</ele><time>2026-04-25T12:43:23.993Z</time></trkpt><trkpt lat="44.51446" lon="8.8520567"><ele>317.5</ele><time>2026-04-25T12:43:24.993Z</time></trkpt><trkpt lat="44.5144483" lon="8.8519317"><ele>316.33333333333337</ele><time>2026-04-25T12:43:25.992Z</time></trkpt><trkpt lat="44.514435" lon="8.8518333"><ele>315.1666666666667</ele><time>2026-04-25T12:43:26.998Z</time></trkpt><trkpt lat="44.5144283" lon="8.851735"><ele>314.0</ele><time>2026-04-25T12:43:27.993Z</time></trkpt><trkpt lat="44.51453" lon="8.85169"><ele>317.0</ele><time>2026-04-25T12:43:28.992Z</time></trkpt><trkpt lat="44.5146483" lon="8.85166"><ele>320.0</ele><time>2026-04-25T12:43:29.992Z</time></trkpt><trkpt lat="44.514805" lon="8.8516367"><ele>323.0</ele><time>2026-04-25T12:43:30.992Z</time></trkpt><trkpt lat="44.5149467" lon="8.8515917"><ele>326.0</ele><time>2026-04-25T12:43:32Z</time></trkpt><trkpt lat="44.5150733" lon="8.8515567"><ele>326.0</ele><time>2026-04-25T12:43:32.999Z</time></trkpt><trkpt lat="44.51518" lon="8.8515183"><ele>326.0</ele><time>2026-04-25T12:43:33.997Z</time></trkpt><trkpt lat="44.5152883" lon="8.8514883"><ele>326.0</ele><time>2026-04-25T12:43:34.994Z</time></trkpt><trkpt lat="44.5153817" lon="8.8514567"><ele>326.0</ele><time>2026-04-25T12:43:35.996Z</time></trkpt><trkpt lat="44.515485" lon="8.8514533"><ele>326.0</ele><time>2026-04-25T12:43:36.996Z</time></trkpt><trkpt lat="44.5155867" lon="8.8514883"><ele>326.6</ele><time>2026-04-25T12:43:37.996Z</time></trkpt><trkpt lat="44.51568" lon="8.8515517"><ele>327.20000000000005</ele><time>2026-04-25T12:43:38.992Z</time></trkpt><trkpt lat="44.5157683" lon="8.8516333"><ele>327.79999999999995</ele><time>2026-04-25T12:43:39.995Z</time></trkpt><trkpt lat="44.5158567" lon="8.8517167"><ele>328.4</ele><time>2026-04-25T12:43:40.992Z</time></trkpt><trkpt lat="44.5159433" lon="8.8518033"><ele>329.0</ele><time>2026-04-25T12:43:41.994Z</time></trkpt><trkpt lat="44.51603" lon="8.8518883"><ele>329.33333333333337</ele><time>2026-04-25T12:43:42.995Z</time></trkpt><trkpt lat="44.5161083" lon="8.851975"><ele>329.6666666666667</ele><time>2026-04-25T12:43:43.995Z</time></trkpt><trkpt lat="44.516175" lon="8.8520483"><ele>330.0</ele><time>2026-04-25T12:43:44.994Z</time></trkpt><trkpt lat="44.516245" lon="8.8521"><ele>330.3333333333333</ele><time>2026-04-25T12:43:46Z</time></trkpt><trkpt lat="44.51632" lon="8.8521433"><ele>330.66666666666663</ele><time>2026-04-25T12:43:46.994Z</time></trkpt><trkpt lat="44.51641" lon="8.85216"><ele>331.0</ele><time>2026-04-25T12:43:47.994Z</time></trkpt><trkpt lat="44.5165033" lon="8.8521483"><ele>333.16666666666663</ele><time>2026-04-25T12:43:48.993Z</time></trkpt><trkpt lat="44.51657" lon="8.8520783"><ele>335.3333333333333</ele><time>2026-04-25T12:43:49.993Z</time></trkpt><trkpt lat="44.516635" lon="8.8519817"><ele>337.5</ele><time>2026-04-25T12:43:50.994Z</time></trkpt><trkpt lat="44.5166867" lon="8.85188"><ele>339.6666666666667</ele><time>2026-04-25T12:43:51.998Z</time></trkpt><trkpt lat="44.5167117" lon="8.8517733"><ele>341.83333333333337</ele><time>2026-04-25T12:43:52.999Z</time></trkpt><trkpt lat="44.51673" lon="8.8516583"><ele>344.0</ele><time>2026-04-25T12:43:53.999Z</time></trkpt><trkpt lat="44.5167167" lon="8.85152"><ele>344.0</ele><time>2026-04-25T12:43:54.995Z</time></trkpt><trkpt lat="44.5166833" lon="8.8513717"><ele>344.0</ele><time>2026-04-25T12:43:55.997Z</time></trkpt><trkpt lat="44.51666" lon="8.851235"><ele>344.0</ele><time>2026-04-25T12:43:56.996Z</time></trkpt><trkpt lat="44.5166433" lon="8.851115"><ele>344.0</ele><time>2026-04-25T12:43:58.001Z</time></trkpt><trkpt lat="44.5166383" lon="8.8510067"><ele>344.0</ele><time>2026-04-25T12:43:58.993Z</time></trkpt><trkpt lat="44.516635" lon="8.8508983"><ele>343.5</ele><time>2026-04-25T12:43:59.999Z</time></trkpt><trkpt lat="44.516645" lon="8.8507967"><ele>343.0</ele><time>2026-04-25T12:44:00.997Z</time></trkpt><trkpt lat="44.5166783" lon="8.8507"><ele>342.5</ele><time>2026-04-25T12:44:01.995Z</time></trkpt><trkpt lat="44.516715" lon="8.8506083"><ele>342.0</ele><time>2026-04-25T12:44:02.998Z</time></trkpt><trkpt lat="44.5167717" lon="8.8505333"><ele>341.5</ele><time>2026-04-25T12:44:03.996Z</time></trkpt><trkpt lat="44.5168283" lon="8.8504633"><ele>341.0</ele><time>2026-04-25T12:44:04.998Z</time></trkpt><trkpt lat="44.51688" lon="8.85039"><ele>341.0</ele><time>2026-04-25T12:44:05.995Z</time></trkpt><trkpt lat="44.5169317" lon="8.850315"><ele>341.0</ele><time>2026-04-25T12:44:06.996Z</time></trkpt><trkpt lat="44.516985" lon="8.85024"><ele>341.0</ele><time>2026-04-25T12:44:07.996Z</time></trkpt><trkpt lat="44.51703" lon="8.8501683"><ele>341.0</ele><time>2026-04-25T12:44:08.995Z</time></trkpt><trkpt lat="44.5170783" lon="8.8501033"><ele>341.0</ele><time>2026-04-25T12:44:09.993Z</time></trkpt><trkpt lat="44.5171317" lon="8.85005"><ele>341.0</ele><time>2026-04-25T12:44:10.995Z</time></trkpt><trkpt lat="44.5172383" lon="8.850005"><ele>346.0</ele><time>2026-04-25T12:44:12.996Z</time></trkpt><trkpt lat="44.5173383" lon="8.8500867"><ele>351.0</ele><time>2026-04-25T12:44:14.996Z</time></trkpt><trkpt lat="44.5173567" lon="8.850185"><ele>356.0</ele><time>2026-04-25T12:44:15.999Z</time></trkpt><trkpt lat="44.5173417" lon="8.8502917"><ele>361.0</ele><time>2026-04-25T12:44:16.998Z</time></trkpt><trkpt lat="44.5172733" lon="8.8504367"><ele>366.0</ele><time>2026-04-25T12:44:17.993Z</time></trkpt><trkpt lat="44.5172067" lon="8.85057"><ele>367.0</ele><time>2026-04-25T12:44:18.994Z</time></trkpt><trkpt lat="44.5171733" lon="8.850695"><ele>368.0</ele><time>2026-04-25T12:44:20.003Z</time></trkpt><trkpt lat="44.5171517" lon="8.85081"><ele>369.0</ele><time>2026-04-25T12:44:21.003Z</time></trkpt><trkpt lat="44.5171367" lon="8.850915"><ele>370.0</ele><time>2026-04-25T12:44:21.997Z</time></trkpt><trkpt lat="44.51714" lon="8.8510217"><ele>371.0</ele><time>2026-04-25T12:44:22.994Z</time></trkpt><trkpt lat="44.51716" lon="8.8511333"><ele>372.0</ele><time>2026-04-25T12:44:23.996Z</time></trkpt><trkpt lat="44.5171917" lon="8.8512467"><ele>372.1666666666667</ele><time>2026-04-25T12:44:24.993Z</time></trkpt><trkpt lat="44.5172367" lon="8.8513567"><ele>372.3333333333333</ele><time>2026-04-25T12:44:25.995Z</time></trkpt><trkpt lat="44.5172817" lon="8.8514667"><ele>372.5</ele><time>2026-04-25T12:44:26.996Z</time></trkpt><trkpt lat="44.51732" lon="8.8515717"><ele>372.66666666666663</ele><time>2026-04-25T12:44:27.993Z</time></trkpt><trkpt lat="44.51736" lon="8.851675"><ele>372.8333333333333</ele><time>2026-04-25T12:44:28.996Z</time></trkpt><trkpt lat="44.5173983" lon="8.8517767"><ele>373.0</ele><time>2026-04-25T12:44:29.994Z</time></trkpt><trkpt lat="44.5174367" lon="8.8518733"><ele>373.16666666666663</ele><time>2026-04-25T12:44:31Z</time></trkpt><trkpt lat="44.5174633" lon="8.851965"><ele>373.3333333333333</ele><time>2026-04-25T12:44:31.996Z</time></trkpt><trkpt lat="44.51748" lon="8.85206"><ele>373.5</ele><time>2026-04-25T12:44:32.995Z</time></trkpt><trkpt lat="44.5174883" lon="8.8521617"><ele>373.6666666666667</ele><time>2026-04-25T12:44:33.994Z</time></trkpt><trkpt lat="44.5174717" lon="8.85227"><ele>373.83333333333337</ele><time>2026-04-25T12:44:34.996Z</time></trkpt><trkpt lat="44.5174383" lon="8.8523817"><ele>374.0</ele><time>2026-04-25T12:44:35.995Z</time></trkpt><trkpt lat="44.517405" lon="8.8524983"><ele>374.0</ele><time>2026-04-25T12:44:36.996Z</time></trkpt><trkpt lat="44.51736" lon="8.8526117"><ele>374.0</ele><time>2026-04-25T12:44:37.994Z</time></trkpt><trkpt lat="44.517305" lon="8.8527167"><ele>374.0</ele><time>2026-04-25T12:44:38.995Z</time></trkpt><trkpt lat="44.5172683" lon="8.8528233"><ele>374.0</ele><time>2026-04-25T12:44:39.995Z</time></trkpt><trkpt lat="44.5172467" lon="8.85293"><ele>374.0</ele><time>2026-04-25T12:44:40.995Z</time></trkpt><trkpt lat="44.517245" lon="8.8530467"><ele>374.0</ele><time>2026-04-25T12:44:42.002Z</time></trkpt><trkpt lat="44.5172617" lon="8.8531683"><ele>375.0</ele><time>2026-04-25T12:44:42.997Z</time></trkpt><trkpt lat="44.517295" lon="8.85328"><ele>376.0</ele><time>2026-04-25T12:44:43.997Z</time></trkpt><trkpt lat="44.5173367" lon="8.853375"><ele>377.0</ele><time>2026-04-25T12:44:44.999Z</time></trkpt><trkpt lat="44.5173817" lon="8.8534633"><ele>378.0</ele><time>2026-04-25T12:44:45.995Z</time></trkpt><trkpt lat="44.51745" lon="8.8535467"><ele>379.0</ele><time>2026-04-25T12:44:46.999Z</time></trkpt><trkpt lat="44.5175667" lon="8.853625"><ele>379.66666666666663</ele><time>2026-04-25T12:44:47.997Z</time></trkpt><trkpt lat="44.5177367" lon="8.8537133"><ele>380.3333333333333</ele><time>2026-04-25T12:44:48.997Z</time></trkpt><trkpt lat="44.5178867" lon="8.8538117"><ele>381.0</ele><time>2026-04-25T12:44:49.995Z</time></trkpt><trkpt lat="44.5180333" lon="8.85391"><ele>384.5</ele><time>2026-04-25T12:44:50.997Z</time></trkpt><trkpt lat="44.5181617" lon="8.853995"><ele>388.0</ele><time>2026-04-25T12:44:51.994Z</time></trkpt><trkpt lat="44.5182717" lon="8.8540733"><ele>391.5</ele><time>2026-04-25T12:44:52.996Z</time></trkpt><trkpt lat="44.5183733" lon="8.8541117"><ele>395.0</ele><time>2026-04-25T12:44:53.996Z</time></trkpt><trkpt lat="44.5184767" lon="8.8541"><ele>395.0</ele><time>2026-04-25T12:44:54.994Z</time></trkpt><trkpt lat="44.518565" lon="8.8540417"><ele>395.0</ele><time>2026-04-25T12:44:56.002Z</time></trkpt><trkpt lat="44.5186433" lon="8.853955"><ele>395.0</ele><time>2026-04-25T12:44:56.995Z</time></trkpt><trkpt lat="44.5187083" lon="8.85384"><ele>395.0</ele><time>2026-04-25T12:44:57.999Z</time></trkpt><trkpt lat="44.5187683" lon="8.85369"><ele>395.0</ele><time>2026-04-25T12:44:58.994Z</time></trkpt><trkpt lat="44.5187983" lon="8.8535117"><ele>405.66666666666663</ele><time>2026-04-25T12:44:59.995Z</time></trkpt><trkpt lat="44.518805" lon="8.8533017"><ele>416.33333333333337</ele><time>2026-04-25T12:45:00.995Z</time></trkpt><trkpt lat="44.5187917" lon="8.8530767"><ele>427.0</ele><time>2026-04-25T12:45:01.999Z</time></trkpt><trkpt lat="44.5187783" lon="8.8528683"><ele>427.0</ele><time>2026-04-25T12:45:02.994Z</time></trkpt><trkpt lat="44.5187683" lon="8.8526433"><ele>427.0</ele><time>2026-04-25T12:45:03.999Z</time></trkpt><trkpt lat="44.5187583" lon="8.8524433"><ele>427.0</ele><time>2026-04-25T12:45:04.996Z</time></trkpt><trkpt lat="44.5187533" lon="8.8522467"><ele>427.0</ele><time>2026-04-25T12:45:05.997Z</time></trkpt><trkpt lat="44.5187567" lon="8.85205"><ele>427.75</ele><time>2026-04-25T12:45:06.996Z</time></trkpt><trkpt lat="44.5187683" lon="8.8518433"><ele>428.5</ele><time>2026-04-25T12:45:07.996Z</time></trkpt><trkpt lat="44.5188017" lon="8.8516367"><ele>429.25</ele><time>2026-04-25T12:45:08.999Z</time></trkpt><trkpt lat="44.5188483" lon="8.851445"><ele>430.0</ele><time>2026-04-25T12:45:09.996Z</time></trkpt><trkpt lat="44.5188933" lon="8.851255"><ele>430.0</ele><time>2026-04-25T12:45:10.998Z</time></trkpt><trkpt lat="44.5189517" lon="8.8510733"><ele>430.0</ele><time>2026-04-25T12:45:11.996Z</time></trkpt><trkpt lat="44.518995" lon="8.85089"><ele>430.0</ele><time>2026-04-25T12:45:13.003Z</time></trkpt><trkpt lat="44.5190267" lon="8.85071"><ele>430.0</ele><time>2026-04-25T12:45:13.998Z</time></trkpt><trkpt lat="44.51905" lon="8.8505317"><ele>430.75</ele><time>2026-04-25T12:45:14.999Z</time></trkpt><trkpt lat="44.5190567" lon="8.85034"><ele>431.5</ele><time>2026-04-25T12:45:15.995Z</time></trkpt><trkpt lat="44.5190433" lon="8.8501567"><ele>432.25</ele><time>2026-04-25T12:45:16.995Z</time></trkpt><trkpt lat="44.51902" lon="8.84998"><ele>433.0</ele><time>2026-04-25T12:45:17.994Z</time></trkpt><trkpt lat="44.5189883" lon="8.8497917"><ele>434.75</ele><time>2026-04-25T12:45:18.993Z</time></trkpt><trkpt lat="44.5189717" lon="8.8496033"><ele>436.5</ele><time>2026-04-25T12:45:19.992Z</time></trkpt><trkpt lat="44.519" lon="8.8494083"><ele>438.25</ele><time>2026-04-25T12:45:20.999Z</time></trkpt><trkpt lat="44.51903" lon="8.84922"><ele>440.0</ele><time>2026-04-25T12:45:21.993Z</time></trkpt><trkpt lat="44.5190717" lon="8.8490517"><ele>440.0</ele><time>2026-04-25T12:45:22.999Z</time></trkpt><trkpt lat="44.5191417" lon="8.8488967"><ele>440.0</ele><time>2026-04-25T12:45:23.994Z</time></trkpt><trkpt lat="44.5192467" lon="8.848765"><ele>440.0</ele><time>2026-04-25T12:45:24.995Z</time></trkpt><trkpt lat="44.51936" lon="8.8486133"><ele>440.0</ele><time>2026-04-25T12:45:25.997Z</time></trkpt><trkpt lat="44.5194683" lon="8.8484683"><ele>445.5</ele><time>2026-04-25T12:45:26.996Z</time></trkpt><trkpt lat="44.5195983" lon="8.848345"><ele>451.0</ele><time>2026-04-25T12:45:28Z</time></trkpt><trkpt lat="44.5197067" lon="8.848235"><ele>456.5</ele><time>2026-04-25T12:45:28.995Z</time></trkpt><trkpt lat="44.5197767" lon="8.8480933"><ele>462.0</ele><time>2026-04-25T12:45:30.006Z</time></trkpt><trkpt lat="44.5198233" lon="8.8479583"><ele>462.0</ele><time>2026-04-25T12:45:30.997Z</time></trkpt><trkpt lat="44.51986" lon="8.84784"><ele>462.00000000000006</ele><time>2026-04-25T12:45:31.997Z</time></trkpt><trkpt lat="44.5199117" lon="8.8477367"><ele>462.00000000000006</ele><time>2026-04-25T12:45:32.995Z</time></trkpt><trkpt lat="44.519965" lon="8.84764"><ele>462.0</ele><time>2026-04-25T12:45:34Z</time></trkpt><trkpt lat="44.52002" lon="8.8475517"><ele>462.0</ele><time>2026-04-25T12:45:34.999Z</time></trkpt><trkpt lat="44.5201083" lon="8.8474817"><ele>463.0</ele><time>2026-04-25T12:45:35.998Z</time></trkpt><trkpt lat="44.520235" lon="8.8474533"><ele>464.0</ele><time>2026-04-25T12:45:36.997Z</time></trkpt><trkpt lat="44.5203467" lon="8.8474017"><ele>465.0</ele><time>2026-04-25T12:45:37.998Z</time></trkpt><trkpt lat="44.5204483" lon="8.8473383"><ele>466.0</ele><time>2026-04-25T12:45:38.997Z</time></trkpt><trkpt lat="44.5205433" lon="8.84725"><ele>466.0</ele><time>2026-04-25T12:45:39.999Z</time></trkpt><trkpt lat="44.5206117" lon="8.8471333"><ele>466.0</ele><time>2026-04-25T12:45:40.998Z</time></trkpt><trkpt lat="44.520665" lon="8.846995"><ele>466.0</ele><time>2026-04-25T12:45:41.997Z</time></trkpt><trkpt lat="44.5207167" lon="8.8468433"><ele>466.0</ele><time>2026-04-25T12:45:42.995Z</time></trkpt><trkpt lat="44.5207633" lon="8.8466817"><ele>464.75</ele><time>2026-04-25T12:45:43.997Z</time></trkpt><trkpt lat="44.5208183" lon="8.8465283"><ele>463.5</ele><time>2026-04-25T12:45:44.994Z</time></trkpt><trkpt lat="44.5208717" lon="8.8463917"><ele>462.25</ele><time>2026-04-25T12:45:46Z</time></trkpt><trkpt lat="44.520945" lon="8.8462583"><ele>461.0</ele><time>2026-04-25T12:45:46.995Z</time></trkpt><trkpt lat="44.52103" lon="8.8461417"><ele>461.0</ele><time>2026-04-25T12:45:47.994Z</time></trkpt><trkpt lat="44.5211133" lon="8.8460383"><ele>461.0</ele><time>2026-04-25T12:45:48.994Z</time></trkpt><trkpt lat="44.5211817" lon="8.84593"><ele>461.0</ele><time>2026-04-25T12:45:50Z</time></trkpt><trkpt lat="44.5212317" lon="8.8457917"><ele>461.0</ele><time>2026-04-25T12:45:50.996Z</time></trkpt><trkpt lat="44.5212683" lon="8.8456333"><ele>461.0</ele><time>2026-04-25T12:45:51.993Z</time></trkpt><trkpt lat="44.52128" lon="8.8454667"><ele>465.75</ele><time>2026-04-25T12:45:52.995Z</time></trkpt><trkpt lat="44.521255" lon="8.84529"><ele>470.5</ele><time>2026-04-25T12:45:53.996Z</time></trkpt><trkpt lat="44.5211933" lon="8.8451183"><ele>475.25</ele><time>2026-04-25T12:45:54.997Z</time></trkpt><trkpt lat="44.5211133" lon="8.844945"><ele>480.0</ele><time>2026-04-25T12:45:55.993Z</time></trkpt><trkpt lat="44.5210183" lon="8.8447517"><ele>480.0</ele><time>2026-04-25T12:45:56.997Z</time></trkpt><trkpt lat="44.52093" lon="8.8445483"><ele>480.0</ele><time>2026-04-25T12:45:57.994Z</time></trkpt><trkpt lat="44.52085" lon="8.8443517"><ele>480.0</ele><time>2026-04-25T12:45:58.995Z</time></trkpt><trkpt lat="44.52077" lon="8.84416"><ele>480.0</ele><time>2026-04-25T12:45:59.998Z</time></trkpt><trkpt lat="44.5206783" lon="8.8439833"><ele>480.0</ele><time>2026-04-25T12:46:01Z</time></trkpt><trkpt lat="44.520575" lon="8.8438333"><ele>480.0</ele><time>2026-04-25T12:46:01.996Z</time></trkpt><trkpt lat="44.5204567" lon="8.84372"><ele>480.0</ele><time>2026-04-25T12:46:02.999Z</time></trkpt><trkpt lat="44.52032" lon="8.8436533"><ele>480.0</ele><time>2026-04-25T12:46:03.995Z</time></trkpt><trkpt lat="44.5201967" lon="8.84357"><ele>480.0</ele><time>2026-04-25T12:46:04.994Z</time></trkpt><trkpt lat="44.5200717" lon="8.84349"><ele>480.0</ele><time>2026-04-25T12:46:05.999Z</time></trkpt><trkpt lat="44.519965" lon="8.84337"><ele>480.0</ele><time>2026-04-25T12:46:06.999Z</time></trkpt><trkpt lat="44.519875" lon="8.8432233"><ele>486.75</ele><time>2026-04-25T12:46:07.995Z</time></trkpt><trkpt lat="44.519795" lon="8.8430967"><ele>493.5</ele><time>2026-04-25T12:46:08.993Z</time></trkpt><trkpt lat="44.5197267" lon="8.8429667"><ele>500.25</ele><time>2026-04-25T12:46:10.001Z</time></trkpt><trkpt lat="44.51967" lon="8.842835"><ele>507.0</ele><time>2026-04-25T12:46:10.998Z</time></trkpt><trkpt lat="44.51962" lon="8.8426883"><ele>503.0</ele><time>2026-04-25T12:46:11.997Z</time></trkpt><trkpt lat="44.519585" lon="8.8425133"><ele>499.0</ele><time>2026-04-25T12:46:13.002Z</time></trkpt><trkpt lat="44.5195567" lon="8.8423133"><ele>495.0</ele><time>2026-04-25T12:46:13.998Z</time></trkpt><trkpt lat="44.51952" lon="8.8421367"><ele>491.0</ele><time>2026-04-25T12:46:15.001Z</time></trkpt><trkpt lat="44.5194983" lon="8.8419667"><ele>491.0</ele><time>2026-04-25T12:46:15.994Z</time></trkpt><trkpt lat="44.5194883" lon="8.8418083"><ele>491.0</ele><time>2026-04-25T12:46:16.995Z</time></trkpt><trkpt lat="44.5195017" lon="8.8416533"><ele>491.0</ele><time>2026-04-25T12:46:17.993Z</time></trkpt><trkpt lat="44.5195433" lon="8.8414967"><ele>491.0</ele><time>2026-04-25T12:46:18.995Z</time></trkpt><trkpt lat="44.51959" lon="8.8413833"><ele>491.0</ele><time>2026-04-25T12:46:20.003Z</time></trkpt><trkpt lat="44.519635" lon="8.8412483"><ele>497.49999999999994</ele><time>2026-04-25T12:46:20.997Z</time></trkpt><trkpt lat="44.5196533" lon="8.8411217"><ele>504.0</ele><time>2026-04-25T12:46:21.999Z</time></trkpt><trkpt lat="44.519655" lon="8.8410083"><ele>510.5</ele><time>2026-04-25T12:46:22.996Z</time></trkpt><trkpt lat="44.5196467" lon="8.8409033"><ele>517.0</ele><time>2026-04-25T12:46:23.997Z</time></trkpt><trkpt lat="44.5196283" lon="8.8408133"><ele>523.5</ele><time>2026-04-25T12:46:25Z</time></trkpt><trkpt lat="44.519585" lon="8.84074"><ele>530.0</ele><time>2026-04-25T12:46:25.996Z</time></trkpt><trkpt lat="44.51938" lon="8.8406967"><ele>530.0</ele><time>2026-04-25T12:46:27.998Z</time></trkpt><trkpt lat="44.5192533" lon="8.8406483"><ele>530.0</ele><time>2026-04-25T12:46:28.992Z</time></trkpt><trkpt lat="44.5191517" lon="8.840585"><ele>530.0</ele><time>2026-04-25T12:46:29.992Z</time></trkpt><trkpt lat="44.5190767" lon="8.84045"><ele>530.0</ele><time>2026-04-25T12:46:30.999Z</time></trkpt><trkpt lat="44.5190017" lon="8.8403117"><ele>530.0</ele><time>2026-04-25T12:46:31.993Z</time></trkpt><trkpt lat="44.5189417" lon="8.8401533"><ele>530.0</ele><time>2026-04-25T12:46:32.994Z</time></trkpt><trkpt lat="44.5188683" lon="8.8399983"><ele>530.0</ele><time>2026-04-25T12:46:33.997Z</time></trkpt><trkpt lat="44.5187867" lon="8.839835"><ele>530.0</ele><time>2026-04-25T12:46:34.993Z</time></trkpt><trkpt lat="44.5187167" lon="8.8396617"><ele>531.5</ele><time>2026-04-25T12:46:35.994Z</time></trkpt><trkpt lat="44.5186567" lon="8.83949"><ele>533.0</ele><time>2026-04-25T12:46:36.997Z</time></trkpt><trkpt lat="44.51861" lon="8.839315"><ele>534.5</ele><time>2026-04-25T12:46:37.998Z</time></trkpt><trkpt lat="44.518575" lon="8.8391333"><ele>536.0</ele><time>2026-04-25T12:46:39Z</time></trkpt><trkpt lat="44.518545" lon="8.8389533"><ele>536.0</ele><time>2026-04-25T12:46:39.999Z</time></trkpt><trkpt lat="44.518505" lon="8.8387967"><ele>536.0</ele><time>2026-04-25T12:46:40.997Z</time></trkpt><trkpt lat="44.51846" lon="8.838635"><ele>536.0</ele><time>2026-04-25T12:46:41.994Z</time></trkpt><trkpt lat="44.5183933" lon="8.8385067"><ele>536.0</ele><time>2026-04-25T12:46:42.993Z</time></trkpt><trkpt lat="44.51833" lon="8.8383983"><ele>538.5</ele><time>2026-04-25T12:46:43.997Z</time></trkpt><trkpt lat="44.518285" lon="8.8383017"><ele>541.0</ele><time>2026-04-25T12:46:44.997Z</time></trkpt><trkpt lat="44.5182533" lon="8.838205"><ele>543.5</ele><time>2026-04-25T12:46:45.996Z</time></trkpt><trkpt lat="44.51824" lon="8.83811"><ele>546.0</ele><time>2026-04-25T12:46:46.995Z</time></trkpt><trkpt lat="44.5182517" lon="8.8379517"><ele>548.5</ele><time>2026-04-25T12:46:48.995Z</time></trkpt><trkpt lat="44.5183167" lon="8.8379167"><ele>551.0</ele><time>2026-04-25T12:46:50.996Z</time></trkpt><trkpt lat="44.5184117" lon="8.8380217"><ele>551.0</ele><time>2026-04-25T12:46:52.996Z</time></trkpt><trkpt lat="44.5184983" lon="8.838285"><ele>551.0</ele><time>2026-04-25T12:46:53.996Z</time></trkpt><trkpt lat="44.51858" lon="8.8384717"><ele>551.0</ele><time>2026-04-25T12:46:55Z</time></trkpt><trkpt lat="44.518655" lon="8.8386533"><ele>547.25</ele><time>2026-04-25T12:46:55.992Z</time></trkpt><trkpt lat="44.5187283" lon="8.8388317"><ele>543.5</ele><time>2026-04-25T12:46:57Z</time></trkpt><trkpt lat="44.5187933" lon="8.8389883"><ele>539.75</ele><time>2026-04-25T12:46:57.993Z</time></trkpt><trkpt lat="44.5188617" lon="8.8391483"><ele>536.0</ele><time>2026-04-25T12:46:58.998Z</time></trkpt><trkpt lat="44.5189317" lon="8.8392917"><ele>539.8</ele><time>2026-04-25T12:47:00.005Z</time></trkpt><trkpt lat="44.5190167" lon="8.8394117"><ele>543.6</ele><time>2026-04-25T12:47:00.997Z</time></trkpt><trkpt lat="44.5191" lon="8.8395"><ele>547.4</ele><time>2026-04-25T12:47:02Z</time></trkpt><trkpt lat="44.5191933" lon="8.8395483"><ele>551.2</ele><time>2026-04-25T12:47:03.002Z</time></trkpt><trkpt lat="44.519295" lon="8.839565"><ele>555.0</ele><time>2026-04-25T12:47:03.996Z</time></trkpt><trkpt lat="44.519405" lon="8.83957"><ele>555.0</ele><time>2026-04-25T12:47:04.998Z</time></trkpt><trkpt lat="44.5195183" lon="8.8395583"><ele>555.0</ele><time>2026-04-25T12:47:05.995Z</time></trkpt><trkpt lat="44.5196283" lon="8.83955"><ele>555.0</ele><time>2026-04-25T12:47:06.995Z</time></trkpt><trkpt lat="44.5197433" lon="8.8395333"><ele>555.0</ele><time>2026-04-25T12:47:07.994Z</time></trkpt><trkpt lat="44.5198533" lon="8.8395333"><ele>555.0</ele><time>2026-04-25T12:47:08.994Z</time></trkpt><trkpt lat="44.5199683" lon="8.839545"><ele>561.5</ele><time>2026-04-25T12:47:09.996Z</time></trkpt><trkpt lat="44.5200567" lon="8.8396133"><ele>568.0</ele><time>2026-04-25T12:47:10.995Z</time></trkpt><trkpt lat="44.5201417" lon="8.839715"><ele>574.5</ele><time>2026-04-25T12:47:12Z</time></trkpt><trkpt lat="44.5202217" lon="8.8398517"><ele>581.0</ele><time>2026-04-25T12:47:12.996Z</time></trkpt><trkpt lat="44.5202967" lon="8.84"><ele>577.0</ele><time>2026-04-25T12:47:13.995Z</time></trkpt><trkpt lat="44.52038" lon="8.8401583"><ele>573.0</ele><time>2026-04-25T12:47:15Z</time></trkpt><trkpt lat="44.52046" lon="8.8403367"><ele>569.0</ele><time>2026-04-25T12:47:15.996Z</time></trkpt><trkpt lat="44.5205383" lon="8.8405167"><ele>565.0</ele><time>2026-04-25T12:47:16.996Z</time></trkpt><trkpt lat="44.5206117" lon="8.8406917"><ele>570.0</ele><time>2026-04-25T12:47:17.998Z</time></trkpt><trkpt lat="44.5206883" lon="8.8408533"><ele>575.0</ele><time>2026-04-25T12:47:19.001Z</time></trkpt><trkpt lat="44.5207667" lon="8.8409967"><ele>580.0</ele><time>2026-04-25T12:47:19.995Z</time></trkpt><trkpt lat="44.5208517" lon="8.84114"><ele>585.0</ele><time>2026-04-25T12:47:20.995Z</time></trkpt><trkpt lat="44.52094" lon="8.8412783"><ele>585.0</ele><time>2026-04-25T12:47:21.997Z</time></trkpt><trkpt lat="44.5210467" lon="8.841395"><ele>585.0</ele><time>2026-04-25T12:47:22.999Z</time></trkpt><trkpt lat="44.52115" lon="8.8415167"><ele>585.0</ele><time>2026-04-25T12:47:24Z</time></trkpt><trkpt lat="44.521265" lon="8.8416283"><ele>585.0</ele><time>2026-04-25T12:47:25Z</time></trkpt><trkpt lat="44.5213817" lon="8.8417383"><ele>586.0</ele><time>2026-04-25T12:47:25.995Z</time></trkpt><trkpt lat="44.5214933" lon="8.8418333"><ele>587.0</ele><time>2026-04-25T12:47:26.998Z</time></trkpt><trkpt lat="44.5216" lon="8.8419167"><ele>588.0</ele><time>2026-04-25T12:47:27.999Z</time></trkpt><trkpt lat="44.5217017" lon="8.8419767"><ele>589.0</ele><time>2026-04-25T12:47:28.997Z</time></trkpt><trkpt lat="44.5217867" lon="8.841985"><ele>590.0</ele><time>2026-04-25T12:47:29.993Z</time></trkpt><trkpt lat="44.5218633" lon="8.8419667"><ele>590.0</ele><time>2026-04-25T12:47:30.995Z</time></trkpt><trkpt lat="44.5219283" lon="8.8419183"><ele>590.0</ele><time>2026-04-25T12:47:31.995Z</time></trkpt><trkpt lat="44.521985" lon="8.8418367"><ele>590.0</ele><time>2026-04-25T12:47:32.999Z</time></trkpt><trkpt lat="44.5219767" lon="8.8416567"><ele>590.0</ele><time>2026-04-25T12:47:33.996Z</time></trkpt><trkpt lat="44.5219783" lon="8.8414583"><ele>590.0</ele><time>2026-04-25T12:47:34.994Z</time></trkpt><trkpt lat="44.5219833" lon="8.8412767"><ele>594.75</ele><time>2026-04-25T12:47:35.998Z</time></trkpt><trkpt lat="44.521995" lon="8.8411017"><ele>599.5</ele><time>2026-04-25T12:47:36.996Z</time></trkpt><trkpt lat="44.522025" lon="8.84094"><ele>604.25</ele><time>2026-04-25T12:47:37.997Z</time></trkpt><trkpt lat="44.522075" lon="8.8407967"><ele>609.0</ele><time>2026-04-25T12:47:38.997Z</time></trkpt><trkpt lat="44.522135" lon="8.840675"><ele>610.8</ele><time>2026-04-25T12:47:39.996Z</time></trkpt><trkpt lat="44.522205" lon="8.8405833"><ele>612.5999999999999</ele><time>2026-04-25T12:47:40.993Z</time></trkpt><trkpt lat="44.5222767" lon="8.840515"><ele>614.4</ele><time>2026-04-25T12:47:41.996Z</time></trkpt><trkpt lat="44.5223717" lon="8.840475"><ele>616.1999999999999</ele><time>2026-04-25T12:47:42.995Z</time></trkpt><trkpt lat="44.52249" lon="8.8404617"><ele>618.0</ele><time>2026-04-25T12:47:43.994Z</time></trkpt><trkpt lat="44.5226067" lon="8.8404233"><ele>618.0</ele><time>2026-04-25T12:47:44.995Z</time></trkpt><trkpt lat="44.5227217" lon="8.840365"><ele>618.0</ele><time>2026-04-25T12:47:45.995Z</time></trkpt><trkpt lat="44.52282" lon="8.8402767"><ele>618.0</ele><time>2026-04-25T12:47:46.993Z</time></trkpt><trkpt lat="44.5229083" lon="8.8401733"><ele>618.0</ele><time>2026-04-25T12:47:47.995Z</time></trkpt><trkpt lat="44.5229967" lon="8.8400667"><ele>620.6</ele><time>2026-04-25T12:47:48.999Z</time></trkpt><trkpt lat="44.5230883" lon="8.8399733"><ele>623.1999999999999</ele><time>2026-04-25T12:47:49.996Z</time></trkpt><trkpt lat="44.523175" lon="8.83989"><ele>625.8</ele><time>2026-04-25T12:47:50.996Z</time></trkpt><trkpt lat="44.523285" lon="8.8398567"><ele>628.4</ele><time>2026-04-25T12:47:51.995Z</time></trkpt><trkpt lat="44.5233933" lon="8.8398583"><ele>631.0</ele><time>2026-04-25T12:47:53Z</time></trkpt><trkpt lat="44.5235167" lon="8.839875"><ele>631.0</ele><time>2026-04-25T12:47:53.999Z</time></trkpt><trkpt lat="44.52364" lon="8.83993"><ele>631.0</ele><time>2026-04-25T12:47:55.006Z</time></trkpt><trkpt lat="44.5237733" lon="8.8399717"><ele>631.0</ele><time>2026-04-25T12:47:55.993Z</time></trkpt><trkpt lat="44.523915" lon="8.84"><ele>631.0</ele><time>2026-04-25T12:47:56.995Z</time></trkpt><trkpt lat="44.5240633" lon="8.8400267"><ele>635.3333333333334</ele><time>2026-04-25T12:47:57.994Z</time></trkpt><trkpt lat="44.5242167" lon="8.8400567"><ele>639.6666666666666</ele><time>2026-04-25T12:47:58.993Z</time></trkpt><trkpt lat="44.52437" lon="8.84008"><ele>644.0</ele><time>2026-04-25T12:47:59.994Z</time></trkpt><trkpt lat="44.5245217" lon="8.8400983"><ele>646.25</ele><time>2026-04-25T12:48:00.998Z</time></trkpt><trkpt lat="44.524665" lon="8.84011"><ele>648.5</ele><time>2026-04-25T12:48:01.994Z</time></trkpt><trkpt lat="44.5247983" lon="8.8401183"><ele>650.75</ele><time>2026-04-25T12:48:03.004Z</time></trkpt><trkpt lat="44.5249217" lon="8.8401267"><ele>653.0</ele><time>2026-04-25T12:48:03.998Z</time></trkpt><trkpt lat="44.52503" lon="8.8401317"><ele>653.0</ele><time>2026-04-25T12:48:04.995Z</time></trkpt><trkpt lat="44.5251267" lon="8.8401367"><ele>653.0</ele><time>2026-04-25T12:48:05.995Z</time></trkpt><trkpt lat="44.5252183" lon="8.840105"><ele>653.0</ele><time>2026-04-25T12:48:06.997Z</time></trkpt><trkpt lat="44.5252933" lon="8.8400233"><ele>653.0</ele><time>2026-04-25T12:48:07.996Z</time></trkpt><trkpt lat="44.5253467" lon="8.8399067"><ele>653.0</ele><time>2026-04-25T12:48:08.995Z</time></trkpt><trkpt lat="44.5253767" lon="8.8397833"><ele>653.0</ele><time>2026-04-25T12:48:09.995Z</time></trkpt><trkpt lat="44.5253717" lon="8.8396483"><ele>653.0</ele><time>2026-04-25T12:48:10.998Z</time></trkpt><trkpt lat="44.5253383" lon="8.8395167"><ele>653.0</ele><time>2026-04-25T12:48:11.999Z</time></trkpt><trkpt lat="44.5252917" lon="8.8394083"><ele>653.0</ele><time>2026-04-25T12:48:12.997Z</time></trkpt><trkpt lat="44.52523" lon="8.8393117"><ele>653.0</ele><time>2026-04-25T12:48:13.994Z</time></trkpt><trkpt lat="44.5251433" lon="8.83927"><ele>657.25</ele><time>2026-04-25T12:48:14.997Z</time></trkpt><trkpt lat="44.525045" lon="8.8392317"><ele>661.5</ele><time>2026-04-25T12:48:15.993Z</time></trkpt><trkpt lat="44.5249433" lon="8.8392083"><ele>665.75</ele><time>2026-04-25T12:48:16.995Z</time></trkpt><trkpt lat="44.524805" lon="8.8392667"><ele>670.0</ele><time>2026-04-25T12:48:17.999Z</time></trkpt><trkpt lat="44.5246667" lon="8.83929"><ele>670.25</ele><time>2026-04-25T12:48:18.992Z</time></trkpt><trkpt lat="44.524535" lon="8.839315"><ele>670.5</ele><time>2026-04-25T12:48:19.996Z</time></trkpt><trkpt lat="44.5244083" lon="8.8393167"><ele>670.75</ele><time>2026-04-25T12:48:21.001Z</time></trkpt><trkpt lat="44.524285" lon="8.8393133"><ele>671.0</ele><time>2026-04-25T12:48:21.993Z</time></trkpt><trkpt lat="44.52417" lon="8.8392633"><ele>671.0</ele><time>2026-04-25T12:48:22.999Z</time></trkpt><trkpt lat="44.524065" lon="8.8391867"><ele>671.0</ele><time>2026-04-25T12:48:23.993Z</time></trkpt><trkpt lat="44.5239783" lon="8.83909"><ele>671.0</ele><time>2026-04-25T12:48:24.996Z</time></trkpt><trkpt lat="44.523905" lon="8.8389667"><ele>671.0</ele><time>2026-04-25T12:48:25.999Z</time></trkpt><trkpt lat="44.5238333" lon="8.838815"><ele>671.0</ele><time>2026-04-25T12:48:26.995Z</time></trkpt><trkpt lat="44.5237683" lon="8.8386467"><ele>671.0</ele><time>2026-04-25T12:48:27.995Z</time></trkpt><trkpt lat="44.5236967" lon="8.8384917"><ele>671.0</ele><time>2026-04-25T12:48:28.993Z</time></trkpt><trkpt lat="44.5236017" lon="8.8383583"><ele>671.0</ele><time>2026-04-25T12:48:29.998Z</time></trkpt><trkpt lat="44.5234833" lon="8.8382133"><ele>673.0</ele><time>2026-04-25T12:48:30.997Z</time></trkpt><trkpt lat="44.523355" lon="8.838095"><ele>675.0</ele><time>2026-04-25T12:48:31.998Z</time></trkpt><trkpt lat="44.5232283" lon="8.8379917"><ele>677.0</ele><time>2026-04-25T12:48:32.994Z</time></trkpt><trkpt lat="44.5231067" lon="8.8378883"><ele>679.0</ele><time>2026-04-25T12:48:33.996Z</time></trkpt><trkpt lat="44.522995" lon="8.8377833"><ele>679.0</ele><time>2026-04-25T12:48:34.995Z</time></trkpt><trkpt lat="44.5229067" lon="8.8376683"><ele>679.0</ele><time>2026-04-25T12:48:35.994Z</time></trkpt><trkpt lat="44.5228383" lon="8.8375367"><ele>679.0</ele><time>2026-04-25T12:48:36.995Z</time></trkpt><trkpt lat="44.52278" lon="8.8373983"><ele>679.0</ele><time>2026-04-25T12:48:37.997Z</time></trkpt><trkpt lat="44.522735" lon="8.8372417"><ele>680.0</ele><time>2026-04-25T12:48:38.997Z</time></trkpt><trkpt lat="44.5227" lon="8.8370683"><ele>681.0</ele><time>2026-04-25T12:48:39.998Z</time></trkpt><trkpt lat="44.52267" lon="8.8368833"><ele>682.0</ele><time>2026-04-25T12:48:40.995Z</time></trkpt><trkpt lat="44.5226467" lon="8.83671"><ele>683.0</ele><time>2026-04-25T12:48:41.996Z</time></trkpt><trkpt lat="44.52264" lon="8.83656"><ele>684.0</ele><time>2026-04-25T12:48:42.998Z</time></trkpt><trkpt lat="44.5226517" lon="8.8364233"><ele>685.0</ele><time>2026-04-25T12:48:43.995Z</time></trkpt><trkpt lat="44.5226783" lon="8.8363067"><ele>686.0</ele><time>2026-04-25T12:48:44.997Z</time></trkpt><trkpt lat="44.52271" lon="8.8361983"><ele>687.0</ele><time>2026-04-25T12:48:45.994Z</time></trkpt><trkpt lat="44.5227567" lon="8.8360867"><ele>688.0</ele><time>2026-04-25T12:48:46.993Z</time></trkpt><trkpt lat="44.52281" lon="8.8360017"><ele>689.0</ele><time>2026-04-25T12:48:47.995Z</time></trkpt><trkpt lat="44.522905" lon="8.835955"><ele>692.6666666666666</ele><time>2026-04-25T12:48:49Z</time></trkpt><trkpt lat="44.5230967" lon="8.836035"><ele>696.3333333333334</ele><time>2026-04-25T12:48:49.993Z</time></trkpt><trkpt lat="44.5232617" lon="8.8360867"><ele>700.0</ele><time>2026-04-25T12:48:50.996Z</time></trkpt><trkpt lat="44.5234533" lon="8.836155"><ele>700.0</ele><time>2026-04-25T12:48:51.995Z</time></trkpt><trkpt lat="44.5236433" lon="8.83623"><ele>700.0</ele><time>2026-04-25T12:48:52.996Z</time></trkpt><trkpt lat="44.5238183" lon="8.8362933"><ele>700.0</ele><time>2026-04-25T12:48:53.999Z</time></trkpt><trkpt lat="44.52399" lon="8.8363483"><ele>703.6666666666667</ele><time>2026-04-25T12:48:54.994Z</time></trkpt><trkpt lat="44.5241433" lon="8.8364167"><ele>707.3333333333334</ele><time>2026-04-25T12:48:56Z</time></trkpt><trkpt lat="44.5242817" lon="8.8364983"><ele>711.0</ele><time>2026-04-25T12:48:56.999Z</time></trkpt><trkpt lat="44.5244083" lon="8.8365917"><ele>711.0</ele><time>2026-04-25T12:48:58Z</time></trkpt><trkpt lat="44.524525" lon="8.8366933"><ele>711.0</ele><time>2026-04-25T12:48:58.998Z</time></trkpt><trkpt lat="44.52462" lon="8.8367783"><ele>711.0</ele><time>2026-04-25T12:48:59.999Z</time></trkpt><trkpt lat="44.5247067" lon="8.8368383"><ele>711.0</ele><time>2026-04-25T12:49:00.996Z</time></trkpt><trkpt lat="44.5247983" lon="8.83688"><ele>711.0</ele><time>2026-04-25T12:49:01.995Z</time></trkpt><trkpt lat="44.5249017" lon="8.8368717"><ele>710.0</ele><time>2026-04-25T12:49:02.995Z</time></trkpt><trkpt lat="44.5249883" lon="8.83682"><ele>709.0</ele><time>2026-04-25T12:49:04Z</time></trkpt><trkpt lat="44.525055" lon="8.8367183"><ele>708.0</ele><time>2026-04-25T12:49:04.994Z</time></trkpt><trkpt lat="44.525085" lon="8.8365933"><ele>707.0</ele><time>2026-04-25T12:49:05.998Z</time></trkpt><trkpt lat="44.52509" lon="8.8364683"><ele>706.0</ele><time>2026-04-25T12:49:06.994Z</time></trkpt><trkpt lat="44.525065" lon="8.836345"><ele>708.75</ele><time>2026-04-25T12:49:07.996Z</time></trkpt><trkpt lat="44.5250167" lon="8.8362283"><ele>711.5</ele><time>2026-04-25T12:49:08.995Z</time></trkpt><trkpt lat="44.5249333" lon="8.8361033"><ele>714.25</ele><time>2026-04-25T12:49:09.995Z</time></trkpt><trkpt lat="44.5248433" lon="8.8359833"><ele>717.0</ele><time>2026-04-25T12:49:10.998Z</time></trkpt><trkpt lat="44.5247383" lon="8.835855"><ele>718.25</ele><time>2026-04-25T12:49:11.996Z</time></trkpt><trkpt lat="44.52463" lon="8.8357183"><ele>719.5</ele><time>2026-04-25T12:49:12.995Z</time></trkpt><trkpt lat="44.5245233" lon="8.835575"><ele>720.75</ele><time>2026-04-25T12:49:13.995Z</time></trkpt><trkpt lat="44.524415" lon="8.8354317"><ele>722.0</ele><time>2026-04-25T12:49:14.998Z</time></trkpt><trkpt lat="44.5243117" lon="8.8352917"><ele>722.0</ele><time>2026-04-25T12:49:15.995Z</time></trkpt><trkpt lat="44.5242083" lon="8.8351583"><ele>722.0</ele><time>2026-04-25T12:49:16.995Z</time></trkpt><trkpt lat="44.5241117" lon="8.8350133"><ele>722.0</ele><time>2026-04-25T12:49:17.996Z</time></trkpt><trkpt lat="44.52402" lon="8.83487"><ele>722.0</ele><time>2026-04-25T12:49:18.997Z</time></trkpt><trkpt lat="44.5239433" lon="8.8347167"><ele>724.5</ele><time>2026-04-25T12:49:20Z</time></trkpt><trkpt lat="44.5238683" lon="8.8345467"><ele>727.0</ele><time>2026-04-25T12:49:20.996Z</time></trkpt><trkpt lat="44.523805" lon="8.8343783"><ele>729.5</ele><time>2026-04-25T12:49:21.993Z</time></trkpt><trkpt lat="44.5237517" lon="8.8342033"><ele>732.0</ele><time>2026-04-25T12:49:22.997Z</time></trkpt><trkpt lat="44.5236967" lon="8.8340367"><ele>732.0</ele><time>2026-04-25T12:49:24Z</time></trkpt><trkpt lat="44.5236483" lon="8.8338717"><ele>732.0</ele><time>2026-04-25T12:49:24.995Z</time></trkpt><trkpt lat="44.5236317" lon="8.833735"><ele>732.0</ele><time>2026-04-25T12:49:25.997Z</time></trkpt><trkpt lat="44.5236383" lon="8.8335983"><ele>732.0</ele><time>2026-04-25T12:49:26.995Z</time></trkpt><trkpt lat="44.5236667" lon="8.833475"><ele>732.0</ele><time>2026-04-25T12:49:27.996Z</time></trkpt><trkpt lat="44.5237233" lon="8.8333883"><ele>737.0</ele><time>2026-04-25T12:49:28.996Z</time></trkpt><trkpt lat="44.5237883" lon="8.8333033"><ele>742.0</ele><time>2026-04-25T12:49:29.993Z</time></trkpt><trkpt lat="44.5238933" lon="8.8332433"><ele>747.0</ele><time>2026-04-25T12:49:30.992Z</time></trkpt><trkpt lat="44.5239967" lon="8.83317"><ele>752.0</ele><time>2026-04-25T12:49:31.993Z</time></trkpt><trkpt lat="44.5240783" lon="8.83306"><ele>757.0</ele><time>2026-04-25T12:49:32.998Z</time></trkpt><trkpt lat="44.5241617" lon="8.83294"><ele>757.0</ele><time>2026-04-25T12:49:33.994Z</time></trkpt><trkpt lat="44.5242217" lon="8.8328083"><ele>757.0</ele><time>2026-04-25T12:49:35Z</time></trkpt><trkpt lat="44.5242667" lon="8.83265"><ele>757.0</ele><time>2026-04-25T12:49:35.995Z</time></trkpt><trkpt lat="44.5242967" lon="8.8324817"><ele>757.0</ele><time>2026-04-25T12:49:36.995Z</time></trkpt><trkpt lat="44.524315" lon="8.8323017"><ele>756.75</ele><time>2026-04-25T12:49:37.995Z</time></trkpt><trkpt lat="44.5243333" lon="8.8321167"><ele>756.5</ele><time>2026-04-25T12:49:38.995Z</time></trkpt><trkpt lat="44.524345" lon="8.8319267"><ele>756.25</ele><time>2026-04-25T12:49:39.997Z</time></trkpt><trkpt lat="44.5243633" lon="8.831735"><ele>756.0</ele><time>2026-04-25T12:49:40.996Z</time></trkpt><trkpt lat="44.5243883" lon="8.8315567"><ele>756.0</ele><time>2026-04-25T12:49:41.995Z</time></trkpt><trkpt lat="44.5244283" lon="8.8313883"><ele>756.0</ele><time>2026-04-25T12:49:42.996Z</time></trkpt><trkpt lat="44.52449" lon="8.8312233"><ele>756.0</ele><time>2026-04-25T12:49:43.993Z</time></trkpt><trkpt lat="44.5245633" lon="8.831065"><ele>756.0</ele><time>2026-04-25T12:49:45Z</time></trkpt><trkpt lat="44.5246417" lon="8.83091"><ele>761.5</ele><time>2026-04-25T12:49:45.996Z</time></trkpt><trkpt lat="44.52473" lon="8.8307683"><ele>767.0</ele><time>2026-04-25T12:49:46.993Z</time></trkpt><trkpt lat="44.5248167" lon="8.830645"><ele>772.5</ele><time>2026-04-25T12:49:47.994Z</time></trkpt><trkpt lat="44.524915" lon="8.8305433"><ele>778.0</ele><time>2026-04-25T12:49:48.996Z</time></trkpt><trkpt lat="44.5250283" lon="8.83048"><ele>778.0</ele><time>2026-04-25T12:49:49.995Z</time></trkpt><trkpt lat="44.52514" lon="8.83044"><ele>778.0</ele><time>2026-04-25T12:49:50.998Z</time></trkpt><trkpt lat="44.5252517" lon="8.8304017"><ele>778.0</ele><time>2026-04-25T12:49:51.996Z</time></trkpt><trkpt lat="44.52535" lon="8.830355"><ele>778.0</ele><time>2026-04-25T12:49:52.996Z</time></trkpt><trkpt lat="44.525435" lon="8.8302817"><ele>778.0</ele><time>2026-04-25T12:49:53.996Z</time></trkpt><trkpt lat="44.5254933" lon="8.83018"><ele>782.0</ele><time>2026-04-25T12:49:54.997Z</time></trkpt><trkpt lat="44.52554" lon="8.83006"><ele>786.0</ele><time>2026-04-25T12:49:55.993Z</time></trkpt><trkpt lat="44.525585" lon="8.8299467"><ele>790.0</ele><time>2026-04-25T12:49:56.995Z</time></trkpt><trkpt lat="44.5256117" lon="8.829825"><ele>794.0</ele><time>2026-04-25T12:49:57.996Z</time></trkpt><trkpt lat="44.5255733" lon="8.82969"><ele>798.0</ele><time>2026-04-25T12:49:58.998Z</time></trkpt><trkpt lat="44.5254517" lon="8.8295517"><ele>797.25</ele><time>2026-04-25T12:49:59.997Z</time></trkpt><trkpt lat="44.5253667" lon="8.8294233"><ele>796.5</ele><time>2026-04-25T12:50:00.994Z</time></trkpt><trkpt lat="44.5252717" lon="8.8292933"><ele>795.75</ele><time>2026-04-25T12:50:01.998Z</time></trkpt><trkpt lat="44.525155" lon="8.829175"><ele>795.0</ele><time>2026-04-25T12:50:02.995Z</time></trkpt><trkpt lat="44.5250333" lon="8.8290867"><ele>795.0</ele><time>2026-04-25T12:50:03.996Z</time></trkpt><trkpt lat="44.5249017" lon="8.8290167"><ele>795.0</ele><time>2026-04-25T12:50:04.997Z</time></trkpt><trkpt lat="44.5247533" lon="8.828975"><ele>795.0</ele><time>2026-04-25T12:50:05.992Z</time></trkpt><trkpt lat="44.5245833" lon="8.82897"><ele>795.0</ele><time>2026-04-25T12:50:07Z</time></trkpt><trkpt lat="44.5244033" lon="8.8289683"><ele>795.0</ele><time>2026-04-25T12:50:08.001Z</time></trkpt><trkpt lat="44.5242167" lon="8.8289683"><ele>795.0</ele><time>2026-04-25T12:50:08.996Z</time></trkpt><trkpt lat="44.5240317" lon="8.82896"><ele>795.0</ele><time>2026-04-25T12:50:09.995Z</time></trkpt><trkpt lat="44.5238433" lon="8.8289517"><ele>795.0</ele><time>2026-04-25T12:50:10.995Z</time></trkpt><trkpt lat="44.523655" lon="8.8289283"><ele>795.0</ele><time>2026-04-25T12:50:11.997Z</time></trkpt><trkpt lat="44.5234783" lon="8.8289167"><ele>795.6666666666667</ele><time>2026-04-25T12:50:12.993Z</time></trkpt><trkpt lat="44.52331" lon="8.8288917"><ele>796.3333333333334</ele><time>2026-04-25T12:50:13.996Z</time></trkpt><trkpt lat="44.5231517" lon="8.8288633"><ele>797.0</ele><time>2026-04-25T12:50:14.998Z</time></trkpt><trkpt lat="44.522995" lon="8.828825"><ele>795.5</ele><time>2026-04-25T12:50:15.994Z</time></trkpt><trkpt lat="44.522855" lon="8.8287567"><ele>794.0</ele><time>2026-04-25T12:50:16.999Z</time></trkpt><trkpt lat="44.5227267" lon="8.828675"><ele>792.5</ele><time>2026-04-25T12:50:18.002Z</time></trkpt><trkpt lat="44.522615" lon="8.8285683"><ele>791.0</ele><time>2026-04-25T12:50:18.996Z</time></trkpt><trkpt lat="44.5225183" lon="8.8284467"><ele>794.75</ele><time>2026-04-25T12:50:19.994Z</time></trkpt><trkpt lat="44.5224317" lon="8.8283133"><ele>798.5</ele><time>2026-04-25T12:50:20.996Z</time></trkpt><trkpt lat="44.522365" lon="8.82817"><ele>802.25</ele><time>2026-04-25T12:50:21.995Z</time></trkpt><trkpt lat="44.522305" lon="8.82802"><ele>806.0</ele><time>2026-04-25T12:50:22.997Z</time></trkpt><trkpt lat="44.522255" lon="8.82784"><ele>806.0</ele><time>2026-04-25T12:50:23.996Z</time></trkpt><trkpt lat="44.5222267" lon="8.8276583"><ele>806.0</ele><time>2026-04-25T12:50:24.996Z</time></trkpt><trkpt lat="44.5222117" lon="8.8274733"><ele>806.0</ele><time>2026-04-25T12:50:25.995Z</time></trkpt><trkpt lat="44.5222067" lon="8.8272833"><ele>806.0</ele><time>2026-04-25T12:50:26.996Z</time></trkpt><trkpt lat="44.5222067" lon="8.827085"><ele>808.75</ele><time>2026-04-25T12:50:27.998Z</time></trkpt><trkpt lat="44.5222083" lon="8.82688"><ele>811.5</ele><time>2026-04-25T12:50:28.996Z</time></trkpt><trkpt lat="44.5222033" lon="8.8266683"><ele>814.25</ele><time>2026-04-25T12:50:29.996Z</time></trkpt><trkpt lat="44.5221867" lon="8.8264583"><ele>817.0</ele><time>2026-04-25T12:50:30.997Z</time></trkpt><trkpt lat="44.5221567" lon="8.8262517"><ele>819.6666666666666</ele><time>2026-04-25T12:50:31.993Z</time></trkpt><trkpt lat="44.5221033" lon="8.82605"><ele>822.3333333333333</ele><time>2026-04-25T12:50:32.995Z</time></trkpt><trkpt lat="44.522035" lon="8.8258583"><ele>825.0</ele><time>2026-04-25T12:50:33.996Z</time></trkpt><trkpt lat="44.5219483" lon="8.8256733"><ele>819.6666666666667</ele><time>2026-04-25T12:50:34.995Z</time></trkpt><trkpt lat="44.5218433" lon="8.8255017"><ele>814.3333333333334</ele><time>2026-04-25T12:50:35.997Z</time></trkpt><trkpt lat="44.52173" lon="8.82533"><ele>809.0</ele><time>2026-04-25T12:50:36.997Z</time></trkpt><trkpt lat="44.5216233" lon="8.8251683"><ele>812.5</ele><time>2026-04-25T12:50:37.996Z</time></trkpt><trkpt lat="44.52152" lon="8.8250117"><ele>816.0</ele><time>2026-04-25T12:50:38.999Z</time></trkpt><trkpt lat="44.5214267" lon="8.8248717"><ele>819.5</ele><time>2026-04-25T12:50:39.999Z</time></trkpt><trkpt lat="44.52134" lon="8.8247283"><ele>823.0</ele><time>2026-04-25T12:50:40.998Z</time></trkpt><trkpt lat="44.52126" lon="8.8245917"><ele>820.75</ele><time>2026-04-25T12:50:41.996Z</time></trkpt><trkpt lat="44.5211967" lon="8.8244633"><ele>818.5</ele><time>2026-04-25T12:50:42.995Z</time></trkpt><trkpt lat="44.521145" lon="8.8243167"><ele>816.25</ele><time>2026-04-25T12:50:43.995Z</time></trkpt><trkpt lat="44.52112" lon="8.8241633"><ele>814.0</ele><time>2026-04-25T12:50:44.995Z</time></trkpt><trkpt lat="44.52113" lon="8.8240033"><ele>814.0</ele><time>2026-04-25T12:50:45.997Z</time></trkpt><trkpt lat="44.5211617" lon="8.8238367"><ele>814.0</ele><time>2026-04-25T12:50:46.997Z</time></trkpt><trkpt lat="44.5212183" lon="8.8236567"><ele>814.0</ele><time>2026-04-25T12:50:47.999Z</time></trkpt><trkpt lat="44.5212867" lon="8.8234633"><ele>814.0</ele><time>2026-04-25T12:50:48.995Z</time></trkpt><trkpt lat="44.521355" lon="8.8232567"><ele>816.6666666666666</ele><time>2026-04-25T12:50:49.992Z</time></trkpt><trkpt lat="44.5214217" lon="8.8230467"><ele>819.3333333333333</ele><time>2026-04-25T12:50:50.996Z</time></trkpt><trkpt lat="44.5214883" lon="8.822825"><ele>822.0</ele><time>2026-04-25T12:50:51.994Z</time></trkpt><trkpt lat="44.5215567" lon="8.822595"><ele>824.3333333333333</ele><time>2026-04-25T12:50:52.995Z</time></trkpt><trkpt lat="44.521625" lon="8.8223633"><ele>826.6666666666666</ele><time>2026-04-25T12:50:53.994Z</time></trkpt><trkpt lat="44.5216983" lon="8.8221267"><ele>829.0</ele><time>2026-04-25T12:50:54.994Z</time></trkpt><trkpt lat="44.52177" lon="8.8218983"><ele>831.5</ele><time>2026-04-25T12:50:55.994Z</time></trkpt><trkpt lat="44.5218333" lon="8.8216933"><ele>834.0</ele><time>2026-04-25T12:50:56.994Z</time></trkpt><trkpt lat="44.5218817" lon="8.8215133"><ele>836.5</ele><time>2026-04-25T12:50:57.994Z</time></trkpt><trkpt lat="44.5219033" lon="8.82135"><ele>839.0</ele><time>2026-04-25T12:50:58.995Z</time></trkpt><trkpt lat="44.5219" lon="8.821205"><ele>839.0</ele><time>2026-04-25T12:50:59.992Z</time></trkpt><trkpt lat="44.521865" lon="8.8210667"><ele>839.0</ele><time>2026-04-25T12:51:00.993Z</time></trkpt><trkpt lat="44.5218033" lon="8.820945"><ele>839.0</ele><time>2026-04-25T12:51:01.993Z</time></trkpt><trkpt lat="44.521715" lon="8.8208367"><ele>839.0</ele><time>2026-04-25T12:51:02.998Z</time></trkpt><trkpt lat="44.5216017" lon="8.8207517"><ele>838.6666666666667</ele><time>2026-04-25T12:51:04.002Z</time></trkpt><trkpt lat="44.5214733" lon="8.820665"><ele>838.3333333333333</ele><time>2026-04-25T12:51:04.998Z</time></trkpt><trkpt lat="44.5213333" lon="8.8205733"><ele>838.0</ele><time>2026-04-25T12:51:06Z</time></trkpt><trkpt lat="44.5211833" lon="8.8204783"><ele>842.6666666666666</ele><time>2026-04-25T12:51:06.994Z</time></trkpt><trkpt lat="44.5210317" lon="8.8203783"><ele>847.3333333333333</ele><time>2026-04-25T12:51:07.997Z</time></trkpt><trkpt lat="44.520875" lon="8.8202717"><ele>852.0</ele><time>2026-04-25T12:51:08.999Z</time></trkpt><trkpt lat="44.5207167" lon="8.8201633"><ele>851.0</ele><time>2026-04-25T12:51:09.995Z</time></trkpt><trkpt lat="44.520555" lon="8.8200517"><ele>850.0</ele><time>2026-04-25T12:51:10.997Z</time></trkpt><trkpt lat="44.5203917" lon="8.819945"><ele>849.0</ele><time>2026-04-25T12:51:11.997Z</time></trkpt><trkpt lat="44.520225" lon="8.8198367"><ele>852.0</ele><time>2026-04-25T12:51:12.996Z</time></trkpt><trkpt lat="44.5200617" lon="8.8197483"><ele>855.0</ele><time>2026-04-25T12:51:13.996Z</time></trkpt><trkpt lat="44.519915" lon="8.819685"><ele>858.0</ele><time>2026-04-25T12:51:15.003Z</time></trkpt><trkpt lat="44.519765" lon="8.81965"><ele>858.0</ele><time>2026-04-25T12:51:15.998Z</time></trkpt><trkpt lat="44.5196183" lon="8.8196383"><ele>858.0</ele><time>2026-04-25T12:51:16.993Z</time></trkpt><trkpt lat="44.519475" lon="8.81965"><ele>858.0</ele><time>2026-04-25T12:51:17.999Z</time></trkpt><trkpt lat="44.5193317" lon="8.8196717"><ele>858.0</ele><time>2026-04-25T12:51:18.996Z</time></trkpt><trkpt lat="44.51919" lon="8.8196867"><ele>858.25</ele><time>2026-04-25T12:51:19.997Z</time></trkpt><trkpt lat="44.5190567" lon="8.819695"><ele>858.5</ele><time>2026-04-25T12:51:20.999Z</time></trkpt><trkpt lat="44.5189183" lon="8.81968"><ele>858.75</ele><time>2026-04-25T12:51:21.997Z</time></trkpt><trkpt lat="44.5187933" lon="8.8196417"><ele>859.0</ele><time>2026-04-25T12:51:22.999Z</time></trkpt><trkpt lat="44.5186767" lon="8.8195683"><ele>861.75</ele><time>2026-04-25T12:51:24.001Z</time></trkpt><trkpt lat="44.51856" lon="8.81947"><ele>864.5</ele><time>2026-04-25T12:51:25Z</time></trkpt><trkpt lat="44.5184517" lon="8.819345"><ele>867.25</ele><time>2026-04-25T12:51:25.997Z</time></trkpt><trkpt lat="44.5183417" lon="8.8191983"><ele>870.0</ele><time>2026-04-25T12:51:26.996Z</time></trkpt><trkpt lat="44.5182283" lon="8.8190433"><ele>870.0</ele><time>2026-04-25T12:51:27.993Z</time></trkpt><trkpt lat="44.5181117" lon="8.818885"><ele>870.0</ele><time>2026-04-25T12:51:28.995Z</time></trkpt><trkpt lat="44.517985" lon="8.8187367"><ele>870.0</ele><time>2026-04-25T12:51:30.001Z</time></trkpt><trkpt lat="44.5178433" lon="8.818605"><ele>873.3333333333333</ele><time>2026-04-25T12:51:30.994Z</time></trkpt><trkpt lat="44.5176933" lon="8.81849"><ele>876.6666666666666</ele><time>2026-04-25T12:51:31.998Z</time></trkpt><trkpt lat="44.5175367" lon="8.8183817"><ele>880.0</ele><time>2026-04-25T12:51:32.995Z</time></trkpt><trkpt lat="44.5173767" lon="8.818275"><ele>880.0</ele><time>2026-04-25T12:51:34Z</time></trkpt><trkpt lat="44.5172183" lon="8.8181833"><ele>880.0</ele><time>2026-04-25T12:51:34.995Z</time></trkpt><trkpt lat="44.5170617" lon="8.8180783"><ele>880.0</ele><time>2026-04-25T12:51:35.999Z</time></trkpt><trkpt lat="44.516915" lon="8.8179833"><ele>875.3333333333333</ele><time>2026-04-25T12:51:37.001Z</time></trkpt><trkpt lat="44.5167683" lon="8.81788"><ele>870.6666666666667</ele><time>2026-04-25T12:51:37.994Z</time></trkpt><trkpt lat="44.5166233" lon="8.8177883"><ele>866.0</ele><time>2026-04-25T12:51:39.002Z</time></trkpt><trkpt lat="44.5164817" lon="8.8177017"><ele>869.6666666666667</ele><time>2026-04-25T12:51:39.995Z</time></trkpt><trkpt lat="44.5163433" lon="8.817595"><ele>873.3333333333333</ele><time>2026-04-25T12:51:40.994Z</time></trkpt><trkpt lat="44.5162117" lon="8.8174817"><ele>877.0</ele><time>2026-04-25T12:51:41.995Z</time></trkpt><trkpt lat="44.516085" lon="8.8173467"><ele>877.0</ele><time>2026-04-25T12:51:42.995Z</time></trkpt><trkpt lat="44.515965" lon="8.8171933"><ele>877.0</ele><time>2026-04-25T12:51:43.998Z</time></trkpt><trkpt lat="44.515855" lon="8.81703"><ele>877.0</ele><time>2026-04-25T12:51:44.993Z</time></trkpt><trkpt lat="44.5157433" lon="8.8168633"><ele>878.0</ele><time>2026-04-25T12:51:45.998Z</time></trkpt><trkpt lat="44.5156333" lon="8.8167"><ele>879.0</ele><time>2026-04-25T12:51:46.998Z</time></trkpt><trkpt lat="44.51552" lon="8.8165283"><ele>880.0</ele><time>2026-04-25T12:51:47.992Z</time></trkpt><trkpt lat="44.5154167" lon="8.8163467"><ele>876.3333333333333</ele><time>2026-04-25T12:51:48.998Z</time></trkpt><trkpt lat="44.515325" lon="8.81615"><ele>872.6666666666667</ele><time>2026-04-25T12:51:49.999Z</time></trkpt><trkpt lat="44.51524" lon="8.8159417"><ele>869.0</ele><time>2026-04-25T12:51:50.992Z</time></trkpt><trkpt lat="44.51516" lon="8.8157167"><ele>869.0</ele><time>2026-04-25T12:51:51.996Z</time></trkpt><trkpt lat="44.5150983" lon="8.81549"><ele>869.0</ele><time>2026-04-25T12:51:52.994Z</time></trkpt><trkpt lat="44.515045" lon="8.815265"><ele>869.0</ele><time>2026-04-25T12:51:54.004Z</time></trkpt><trkpt lat="44.514995" lon="8.8150383"><ele>869.0</ele><time>2026-04-25T12:51:54.995Z</time></trkpt><trkpt lat="44.5149417" lon="8.81481"><ele>869.0</ele><time>2026-04-25T12:51:55.995Z</time></trkpt><trkpt lat="44.51489" lon="8.814585"><ele>869.0</ele><time>2026-04-25T12:51:56.994Z</time></trkpt><trkpt lat="44.5148383" lon="8.8143633"><ele>869.3333333333334</ele><time>2026-04-25T12:51:57.995Z</time></trkpt><trkpt lat="44.5147867" lon="8.8141417"><ele>869.6666666666667</ele><time>2026-04-25T12:51:58.992Z</time></trkpt><trkpt lat="44.5147383" lon="8.8139183"><ele>870.0</ele><time>2026-04-25T12:52:00Z</time></trkpt><trkpt lat="44.51469" lon="8.8137"><ele>870.0</ele><time>2026-04-25T12:52:00.997Z</time></trkpt><trkpt lat="44.5146433" lon="8.8134867"><ele>870.0</ele><time>2026-04-25T12:52:01.995Z</time></trkpt><trkpt lat="44.5145967" lon="8.813275"><ele>870.0</ele><time>2026-04-25T12:52:02.993Z</time></trkpt><trkpt lat="44.5145517" lon="8.8130617"><ele>867.0</ele><time>2026-04-25T12:52:03.993Z</time></trkpt><trkpt lat="44.5145083" lon="8.812855"><ele>864.0</ele><time>2026-04-25T12:52:04.995Z</time></trkpt><trkpt lat="44.5144583" lon="8.81265"><ele>861.0</ele><time>2026-04-25T12:52:05.993Z</time></trkpt><trkpt lat="44.5144067" lon="8.81242"><ele>861.0</ele><time>2026-04-25T12:52:06.996Z</time></trkpt><trkpt lat="44.5143533" lon="8.8122133"><ele>861.0</ele><time>2026-04-25T12:52:07.995Z</time></trkpt><trkpt lat="44.51432" lon="8.812005"><ele>861.0</ele><time>2026-04-25T12:52:09Z</time></trkpt><trkpt lat="44.5142967" lon="8.8117883"><ele>861.0</ele><time>2026-04-25T12:52:09.992Z</time></trkpt><trkpt lat="44.5142733" lon="8.8115683"><ele>861.0</ele><time>2026-04-25T12:52:11.005Z</time></trkpt><trkpt lat="44.514255" lon="8.8113583"><ele>861.0</ele><time>2026-04-25T12:52:11.994Z</time></trkpt><trkpt lat="44.5142367" lon="8.8111483"><ele>859.5</ele><time>2026-04-25T12:52:13.002Z</time></trkpt><trkpt lat="44.5142283" lon="8.8109533"><ele>858.0</ele><time>2026-04-25T12:52:13.995Z</time></trkpt><trkpt lat="44.5142317" lon="8.8107767"><ele>856.5</ele><time>2026-04-25T12:52:15.001Z</time></trkpt><trkpt lat="44.514245" lon="8.8105967"><ele>855.0</ele><time>2026-04-25T12:52:15.999Z</time></trkpt><trkpt lat="44.5142683" lon="8.8104133"><ele>855.0</ele><time>2026-04-25T12:52:16.999Z</time></trkpt><trkpt lat="44.5143117" lon="8.8102233"><ele>855.0</ele><time>2026-04-25T12:52:17.996Z</time></trkpt><trkpt lat="44.5143633" lon="8.8100267"><ele>855.0</ele><time>2026-04-25T12:52:18.998Z</time></trkpt><trkpt lat="44.5144167" lon="8.8098333"><ele>855.0</ele><time>2026-04-25T12:52:19.992Z</time></trkpt><trkpt lat="44.5144633" lon="8.8096417"><ele>854.75</ele><time>2026-04-25T12:52:20.995Z</time></trkpt><trkpt lat="44.51451" lon="8.8094667"><ele>854.5</ele><time>2026-04-25T12:52:21.992Z</time></trkpt><trkpt lat="44.5145683" lon="8.8093033"><ele>854.25</ele><time>2026-04-25T12:52:22.993Z</time></trkpt><trkpt lat="44.5146433" lon="8.8091433"><ele>854.0</ele><time>2026-04-25T12:52:23.998Z</time></trkpt><trkpt lat="44.5147333" lon="8.8089817"><ele>854.0</ele><time>2026-04-25T12:52:25.001Z</time></trkpt><trkpt lat="44.5148417" lon="8.80883"><ele>854.0</ele><time>2026-04-25T12:52:25.997Z</time></trkpt><trkpt lat="44.5149483" lon="8.80868"><ele>854.0</ele><time>2026-04-25T12:52:26.997Z</time></trkpt><trkpt lat="44.5150517" lon="8.8085183"><ele>851.6666666666667</ele><time>2026-04-25T12:52:27.992Z</time></trkpt><trkpt lat="44.5151517" lon="8.8083583"><ele>849.3333333333333</ele><time>2026-04-25T12:52:28.998Z</time></trkpt><trkpt lat="44.5152467" lon="8.8081867"><ele>847.0</ele><time>2026-04-25T12:52:29.995Z</time></trkpt><trkpt lat="44.5153333" lon="8.8080217"><ele>847.5</ele><time>2026-04-25T12:52:30.996Z</time></trkpt><trkpt lat="44.5154217" lon="8.8078467"><ele>848.0</ele><time>2026-04-25T12:52:31.993Z</time></trkpt><trkpt lat="44.5155017" lon="8.8076833"><ele>848.5</ele><time>2026-04-25T12:52:32.998Z</time></trkpt><trkpt lat="44.5155717" lon="8.8075183"><ele>849.0</ele><time>2026-04-25T12:52:33.996Z</time></trkpt><trkpt lat="44.51564" lon="8.8073533"><ele>849.0</ele><time>2026-04-25T12:52:34.99Z</time></trkpt><trkpt lat="44.515705" lon="8.8071833"><ele>849.0</ele><time>2026-04-25T12:52:35.996Z</time></trkpt><trkpt lat="44.5157667" lon="8.8070217"><ele>849.0</ele><time>2026-04-25T12:52:36.993Z</time></trkpt><trkpt lat="44.5158367" lon="8.8068617"><ele>849.0</ele><time>2026-04-25T12:52:37.993Z</time></trkpt><trkpt lat="44.51591" lon="8.8067"><ele>849.25</ele><time>2026-04-25T12:52:38.994Z</time></trkpt><trkpt lat="44.515985" lon="8.8065417"><ele>849.5</ele><time>2026-04-25T12:52:40Z</time></trkpt><trkpt lat="44.5160633" lon="8.8063883"><ele>849.75</ele><time>2026-04-25T12:52:40.993Z</time></trkpt><trkpt lat="44.51615" lon="8.8062383"><ele>850.0</ele><time>2026-04-25T12:52:41.994Z</time></trkpt><trkpt lat="44.5162467" lon="8.8060983"><ele>848.25</ele><time>2026-04-25T12:52:42.996Z</time></trkpt><trkpt lat="44.51636" lon="8.8059783"><ele>846.5</ele><time>2026-04-25T12:52:43.999Z</time></trkpt><trkpt lat="44.516475" lon="8.8058867"><ele>844.75</ele><time>2026-04-25T12:52:44.999Z</time></trkpt><trkpt lat="44.5165883" lon="8.8057867"><ele>843.0</ele><time>2026-04-25T12:52:45.994Z</time></trkpt><trkpt lat="44.5166917" lon="8.8056917"><ele>843.0</ele><time>2026-04-25T12:52:46.996Z</time></trkpt><trkpt lat="44.516785" lon="8.8056133"><ele>843.0</ele><time>2026-04-25T12:52:47.994Z</time></trkpt><trkpt lat="44.51686" lon="8.8055233"><ele>843.0</ele><time>2026-04-25T12:52:48.997Z</time></trkpt><trkpt lat="44.5169183" lon="8.8054217"><ele>843.0</ele><time>2026-04-25T12:52:49.995Z</time></trkpt><trkpt lat="44.5169533" lon="8.8053183"><ele>843.0</ele><time>2026-04-25T12:52:50.995Z</time></trkpt><trkpt lat="44.516975" lon="8.80521"><ele>842.8333333333334</ele><time>2026-04-25T12:52:51.993Z</time></trkpt><trkpt lat="44.5169733" lon="8.8051"><ele>842.6666666666667</ele><time>2026-04-25T12:52:52.997Z</time></trkpt><trkpt lat="44.5169617" lon="8.8049933"><ele>842.5</ele><time>2026-04-25T12:52:53.997Z</time></trkpt><trkpt lat="44.516935" lon="8.8048883"><ele>842.3333333333334</ele><time>2026-04-25T12:52:54.997Z</time></trkpt><trkpt lat="44.5169083" lon="8.804775"><ele>842.1666666666667</ele><time>2026-04-25T12:52:55.992Z</time></trkpt><trkpt lat="44.51687" lon="8.80466"><ele>842.0</ele><time>2026-04-25T12:52:56.992Z</time></trkpt><trkpt lat="44.5168267" lon="8.80455"><ele>842.0000000000001</ele><time>2026-04-25T12:52:57.995Z</time></trkpt><trkpt lat="44.5167833" lon="8.8044417"><ele>842.0</ele><time>2026-04-25T12:52:59Z</time></trkpt><trkpt lat="44.5167433" lon="8.8043367"><ele>842.0</ele><time>2026-04-25T12:52:59.995Z</time></trkpt><trkpt lat="44.5167" lon="8.80423"><ele>842.0</ele><time>2026-04-25T12:53:00.996Z</time></trkpt><trkpt lat="44.5166583" lon="8.804125"><ele>842.0000000000001</ele><time>2026-04-25T12:53:01.995Z</time></trkpt><trkpt lat="44.5166133" lon="8.8040217"><ele>842.0</ele><time>2026-04-25T12:53:02.994Z</time></trkpt><trkpt lat="44.5165783" lon="8.803905"><ele>843.6</ele><time>2026-04-25T12:53:04Z</time></trkpt><trkpt lat="44.5165567" lon="8.80379"><ele>845.2</ele><time>2026-04-25T12:53:04.993Z</time></trkpt><trkpt lat="44.5165417" lon="8.8036717"><ele>846.8</ele><time>2026-04-25T12:53:05.994Z</time></trkpt><trkpt lat="44.51653" lon="8.8035417"><ele>848.4</ele><time>2026-04-25T12:53:06.993Z</time></trkpt><trkpt lat="44.516535" lon="8.80341"><ele>850.0</ele><time>2026-04-25T12:53:07.993Z</time></trkpt><trkpt lat="44.51654" lon="8.8032683"><ele>851.2</ele><time>2026-04-25T12:53:08.997Z</time></trkpt><trkpt lat="44.5165517" lon="8.8031217"><ele>852.4</ele><time>2026-04-25T12:53:09.992Z</time></trkpt><trkpt lat="44.5165667" lon="8.802975"><ele>853.5999999999999</ele><time>2026-04-25T12:53:10.997Z</time></trkpt><trkpt lat="44.5165933" lon="8.8028233"><ele>854.8</ele><time>2026-04-25T12:53:11.992Z</time></trkpt><trkpt lat="44.5166283" lon="8.8026683"><ele>856.0</ele><time>2026-04-25T12:53:12.994Z</time></trkpt><trkpt lat="44.5166783" lon="8.8025167"><ele>856.0</ele><time>2026-04-25T12:53:13.994Z</time></trkpt><trkpt lat="44.5167417" lon="8.8023717"><ele>856.0</ele><time>2026-04-25T12:53:14.999Z</time></trkpt><trkpt lat="44.5168183" lon="8.8022283"><ele>856.0</ele><time>2026-04-25T12:53:15.995Z</time></trkpt><trkpt lat="44.516895" lon="8.8020833"><ele>856.0</ele><time>2026-04-25T12:53:16.994Z</time></trkpt><trkpt lat="44.51697" lon="8.801935"><ele>854.75</ele><time>2026-04-25T12:53:17.997Z</time></trkpt><trkpt lat="44.51704" lon="8.801785"><ele>853.5</ele><time>2026-04-25T12:53:18.992Z</time></trkpt><trkpt lat="44.5171067" lon="8.801635"><ele>852.25</ele><time>2026-04-25T12:53:19.992Z</time></trkpt><trkpt lat="44.51716" lon="8.80148"><ele>851.0</ele><time>2026-04-25T12:53:20.995Z</time></trkpt><trkpt lat="44.5172083" lon="8.8013267"><ele>855.0</ele><time>2026-04-25T12:53:21.995Z</time></trkpt><trkpt lat="44.5172383" lon="8.80117"><ele>859.0</ele><time>2026-04-25T12:53:22.994Z</time></trkpt><trkpt lat="44.5172433" lon="8.8010067"><ele>863.0</ele><time>2026-04-25T12:53:23.995Z</time></trkpt><trkpt lat="44.5172367" lon="8.8008467"><ele>867.0</ele><time>2026-04-25T12:53:24.998Z</time></trkpt><trkpt lat="44.5172117" lon="8.8006967"><ele>867.0</ele><time>2026-04-25T12:53:25.995Z</time></trkpt><trkpt lat="44.5171717" lon="8.800565"><ele>867.0</ele><time>2026-04-25T12:53:26.993Z</time></trkpt><trkpt lat="44.517125" lon="8.8004483"><ele>867.0</ele><time>2026-04-25T12:53:27.994Z</time></trkpt><trkpt lat="44.5170583" lon="8.8003417"><ele>867.0</ele><time>2026-04-25T12:53:28.994Z</time></trkpt><trkpt lat="44.51699" lon="8.8002467"><ele>867.0</ele><time>2026-04-25T12:53:29.997Z</time></trkpt><trkpt lat="44.5169317" lon="8.8001683"><ele>865.1666666666666</ele><time>2026-04-25T12:53:30.997Z</time></trkpt><trkpt lat="44.5168917" lon="8.8000817"><ele>863.3333333333333</ele><time>2026-04-25T12:53:31.993Z</time></trkpt><trkpt lat="44.5168783" lon="8.799985"><ele>861.5</ele><time>2026-04-25T12:53:32.995Z</time></trkpt><trkpt lat="44.5168783" lon="8.799875"><ele>859.6666666666666</ele><time>2026-04-25T12:53:33.999Z</time></trkpt><trkpt lat="44.5168983" lon="8.79974"><ele>857.8333333333333</ele><time>2026-04-25T12:53:34.994Z</time></trkpt><trkpt lat="44.5169283" lon="8.7996017"><ele>856.0</ele><time>2026-04-25T12:53:35.993Z</time></trkpt><trkpt lat="44.516945" lon="8.7994617"><ele>857.0</ele><time>2026-04-25T12:53:36.996Z</time></trkpt><trkpt lat="44.5169467" lon="8.799315"><ele>857.9999999999999</ele><time>2026-04-25T12:53:37.994Z</time></trkpt><trkpt lat="44.5169333" lon="8.7991633"><ele>858.9999999999999</ele><time>2026-04-25T12:53:38.999Z</time></trkpt><trkpt lat="44.5169083" lon="8.79901"><ele>860.0</ele><time>2026-04-25T12:53:39.999Z</time></trkpt><trkpt lat="44.5168767" lon="8.7988617"><ele>861.0</ele><time>2026-04-25T12:53:40.995Z</time></trkpt><trkpt lat="44.5168367" lon="8.7987283"><ele>861.0</ele><time>2026-04-25T12:53:41.997Z</time></trkpt><trkpt lat="44.5167733" lon="8.79861"><ele>860.9999999999999</ele><time>2026-04-25T12:53:42.995Z</time></trkpt><trkpt lat="44.5166933" lon="8.7985067"><ele>860.9999999999999</ele><time>2026-04-25T12:53:43.996Z</time></trkpt><trkpt lat="44.5165983" lon="8.7984267"><ele>861.0</ele><time>2026-04-25T12:53:45Z</time></trkpt><trkpt lat="44.5164933" lon="8.79836"><ele>861.0</ele><time>2026-04-25T12:53:46.002Z</time></trkpt><trkpt lat="44.5163817" lon="8.7983117"><ele>861.75</ele><time>2026-04-25T12:53:46.996Z</time></trkpt><trkpt lat="44.5162667" lon="8.7982817"><ele>862.5</ele><time>2026-04-25T12:53:47.997Z</time></trkpt><trkpt lat="44.5161533" lon="8.7982583"><ele>863.25</ele><time>2026-04-25T12:53:48.995Z</time></trkpt><trkpt lat="44.5160433" lon="8.7982467"><ele>864.0</ele><time>2026-04-25T12:53:50.003Z</time></trkpt><trkpt lat="44.515935" lon="8.798235"><ele>864.0</ele><time>2026-04-25T12:53:50.996Z</time></trkpt><trkpt lat="44.515825" lon="8.798225"><ele>864.0000000000001</ele><time>2026-04-25T12:53:52.004Z</time></trkpt><trkpt lat="44.515715" lon="8.798215"><ele>864.0000000000001</ele><time>2026-04-25T12:53:53Z</time></trkpt><trkpt lat="44.5156117" lon="8.7982083"><ele>864.0</ele><time>2026-04-25T12:53:53.996Z</time></trkpt><trkpt lat="44.5155183" lon="8.79819"><ele>864.0</ele><time>2026-04-25T12:53:54.999Z</time></trkpt><trkpt lat="44.5154317" lon="8.798165"><ele>863.2</ele><time>2026-04-25T12:53:55.996Z</time></trkpt><trkpt lat="44.5153583" lon="8.7981267"><ele>862.4000000000001</ele><time>2026-04-25T12:53:57.005Z</time></trkpt><trkpt lat="44.5153283" lon="8.798045"><ele>861.6</ele><time>2026-04-25T12:53:57.994Z</time></trkpt><trkpt lat="44.5153267" lon="8.7978383"><ele>860.8</ele><time>2026-04-25T12:53:59.994Z</time></trkpt><trkpt lat="44.515335" lon="8.7977167"><ele>860.0</ele><time>2026-04-25T12:54:00.996Z</time></trkpt><trkpt lat="44.5153233" lon="8.797595"><ele>860.0000000000001</ele><time>2026-04-25T12:54:01.998Z</time></trkpt><trkpt lat="44.5152933" lon="8.7974783"><ele>860.0</ele><time>2026-04-25T12:54:02.997Z</time></trkpt><trkpt lat="44.515255" lon="8.7973717"><ele>860.0</ele><time>2026-04-25T12:54:03.993Z</time></trkpt><trkpt lat="44.515225" lon="8.7972683"><ele>860.0</ele><time>2026-04-25T12:54:04.996Z</time></trkpt><trkpt lat="44.5152133" lon="8.79717"><ele>860.0000000000001</ele><time>2026-04-25T12:54:05.995Z</time></trkpt><trkpt lat="44.5152117" lon="8.797075"><ele>860.0</ele><time>2026-04-25T12:54:06.996Z</time></trkpt><trkpt lat="44.5152167" lon="8.7969833"><ele>860.0</ele><time>2026-04-25T12:54:07.997Z</time></trkpt><trkpt lat="44.515265" lon="8.7969167"><ele>860.0</ele><time>2026-04-25T12:54:08.997Z</time></trkpt><trkpt lat="44.5153283" lon="8.79687"><ele>860.0</ele><time>2026-04-25T12:54:09.997Z</time></trkpt><trkpt lat="44.5153867" lon="8.7968217"><ele>860.0</ele><time>2026-04-25T12:54:11.007Z</time></trkpt><trkpt lat="44.5155033" lon="8.7967967"><ele>860.0</ele><time>2026-04-25T12:54:11.998Z</time></trkpt><trkpt lat="44.5157867" lon="8.79684"><ele>861.6666666666667</ele><time>2026-04-25T12:54:12.999Z</time></trkpt><trkpt lat="44.51598" lon="8.79682"><ele>863.3333333333333</ele><time>2026-04-25T12:54:13.998Z</time></trkpt><trkpt lat="44.5161433" lon="8.796765"><ele>865.0</ele><time>2026-04-25T12:54:14.998Z</time></trkpt><trkpt lat="44.516285" lon="8.7967"><ele>866.75</ele><time>2026-04-25T12:54:15.996Z</time></trkpt><trkpt lat="44.516425" lon="8.7966433"><ele>868.5</ele><time>2026-04-25T12:54:16.999Z</time></trkpt><trkpt lat="44.516565" lon="8.7965933"><ele>870.25</ele><time>2026-04-25T12:54:17.996Z</time></trkpt><trkpt lat="44.5166967" lon="8.7965317"><ele>872.0</ele><time>2026-04-25T12:54:18.994Z</time></trkpt><trkpt lat="44.5168083" lon="8.7964433"><ele>872.0</ele><time>2026-04-25T12:54:19.995Z</time></trkpt><trkpt lat="44.516905" lon="8.79633"><ele>872.0</ele><time>2026-04-25T12:54:20.996Z</time></trkpt><trkpt lat="44.5169883" lon="8.7962"><ele>872.0</ele><time>2026-04-25T12:54:21.995Z</time></trkpt><trkpt lat="44.5170717" lon="8.7960617"><ele>872.0</ele><time>2026-04-25T12:54:23.001Z</time></trkpt><trkpt lat="44.5171633" lon="8.7959333"><ele>872.75</ele><time>2026-04-25T12:54:23.999Z</time></trkpt><trkpt lat="44.5172567" lon="8.7958167"><ele>873.5</ele><time>2026-04-25T12:54:24.993Z</time></trkpt><trkpt lat="44.5173417" lon="8.795695"><ele>874.25</ele><time>2026-04-25T12:54:25.994Z</time></trkpt><trkpt lat="44.5174133" lon="8.7955717"><ele>875.0</ele><time>2026-04-25T12:54:26.998Z</time></trkpt><trkpt lat="44.5174633" lon="8.7954433"><ele>875.0</ele><time>2026-04-25T12:54:27.994Z</time></trkpt><trkpt lat="44.5175017" lon="8.7953067"><ele>875.0</ele><time>2026-04-25T12:54:28.997Z</time></trkpt><trkpt lat="44.5175217" lon="8.7951617"><ele>875.0</ele><time>2026-04-25T12:54:29.994Z</time></trkpt><trkpt lat="44.517535" lon="8.7950167"><ele>875.0</ele><time>2026-04-25T12:54:31.001Z</time></trkpt><trkpt lat="44.5175517" lon="8.7948633"><ele>875.0</ele><time>2026-04-25T12:54:31.997Z</time></trkpt><trkpt lat="44.5175783" lon="8.794715"><ele>875.2</ele><time>2026-04-25T12:54:32.995Z</time></trkpt><trkpt lat="44.5176133" lon="8.7945717"><ele>875.4</ele><time>2026-04-25T12:54:33.999Z</time></trkpt><trkpt lat="44.5176617" lon="8.794435"><ele>875.5999999999999</ele><time>2026-04-25T12:54:34.999Z</time></trkpt><trkpt lat="44.5177217" lon="8.794325"><ele>875.8</ele><time>2026-04-25T12:54:35.998Z</time></trkpt><trkpt lat="44.51779" lon="8.7942467"><ele>876.0</ele><time>2026-04-25T12:54:36.996Z</time></trkpt><trkpt lat="44.5178633" lon="8.7941817"><ele>874.75</ele><time>2026-04-25T12:54:37.999Z</time></trkpt><trkpt lat="44.517955" lon="8.7941467"><ele>873.5</ele><time>2026-04-25T12:54:38.997Z</time></trkpt><trkpt lat="44.5180633" lon="8.79415"><ele>872.25</ele><time>2026-04-25T12:54:39.997Z</time></trkpt><trkpt lat="44.5182" lon="8.7941933"><ele>871.0</ele><time>2026-04-25T12:54:40.996Z</time></trkpt><trkpt lat="44.5183367" lon="8.7942217"><ele>871.0</ele><time>2026-04-25T12:54:42Z</time></trkpt><trkpt lat="44.5184733" lon="8.7942517"><ele>871.0</ele><time>2026-04-25T12:54:42.994Z</time></trkpt><trkpt lat="44.518605" lon="8.794285"><ele>871.0</ele><time>2026-04-25T12:54:43.999Z</time></trkpt><trkpt lat="44.518735" lon="8.7943333"><ele>871.0</ele><time>2026-04-25T12:54:44.994Z</time></trkpt><trkpt lat="44.5188683" lon="8.7944033"><ele>869.5</ele><time>2026-04-25T12:54:45.994Z</time></trkpt><trkpt lat="44.5190017" lon="8.7944867"><ele>868.0</ele><time>2026-04-25T12:54:46.994Z</time></trkpt><trkpt lat="44.5191333" lon="8.79457"><ele>866.5</ele><time>2026-04-25T12:54:47.995Z</time></trkpt><trkpt lat="44.5192667" lon="8.7946417"><ele>865.0</ele><time>2026-04-25T12:54:48.999Z</time></trkpt><trkpt lat="44.5194017" lon="8.7947067"><ele>865.0</ele><time>2026-04-25T12:54:49.994Z</time></trkpt><trkpt lat="44.5195333" lon="8.7947567"><ele>865.0</ele><time>2026-04-25T12:54:51.001Z</time></trkpt><trkpt lat="44.51966" lon="8.7948033"><ele>865.0</ele><time>2026-04-25T12:54:51.994Z</time></trkpt><trkpt lat="44.5197867" lon="8.7948533"><ele>865.0</ele><time>2026-04-25T12:54:52.996Z</time></trkpt><trkpt lat="44.51991" lon="8.7949083"><ele>866.5</ele><time>2026-04-25T12:54:53.995Z</time></trkpt><trkpt lat="44.520035" lon="8.7949667"><ele>868.0</ele><time>2026-04-25T12:54:54.995Z</time></trkpt><trkpt lat="44.5201583" lon="8.795025"><ele>869.5</ele><time>2026-04-25T12:54:55.999Z</time></trkpt><trkpt lat="44.5202733" lon="8.7950733"><ele>871.0</ele><time>2026-04-25T12:54:56.999Z</time></trkpt><trkpt lat="44.5203833" lon="8.7951167"><ele>869.1999999999999</ele><time>2026-04-25T12:54:58.001Z</time></trkpt><trkpt lat="44.5204883" lon="8.7951667"><ele>867.3999999999999</ele><time>2026-04-25T12:54:58.997Z</time></trkpt><trkpt lat="44.520585" lon="8.7952117"><ele>865.6</ele><time>2026-04-25T12:55:00.009Z</time></trkpt><trkpt lat="44.5206767" lon="8.7952667"><ele>863.8</ele><time>2026-04-25T12:55:01.003Z</time></trkpt><trkpt lat="44.5207717" lon="8.7953317"><ele>862.0</ele><time>2026-04-25T12:55:01.996Z</time></trkpt><trkpt lat="44.5208667" lon="8.795395"><ele>862.0</ele><time>2026-04-25T12:55:03.001Z</time></trkpt><trkpt lat="44.52096" lon="8.7954683"><ele>862.0</ele><time>2026-04-25T12:55:03.999Z</time></trkpt><trkpt lat="44.521055" lon="8.79554"><ele>862.0</ele><time>2026-04-25T12:55:04.997Z</time></trkpt><trkpt lat="44.5211533" lon="8.7955917"><ele>862.0</ele><time>2026-04-25T12:55:05.996Z</time></trkpt><trkpt lat="44.5212583" lon="8.7956233"><ele>862.0</ele><time>2026-04-25T12:55:06.994Z</time></trkpt><trkpt lat="44.5213633" lon="8.7956383"><ele>863.6</ele><time>2026-04-25T12:55:07.998Z</time></trkpt><trkpt lat="44.52147" lon="8.7956517"><ele>865.2</ele><time>2026-04-25T12:55:08.995Z</time></trkpt><trkpt lat="44.5215767" lon="8.7956667"><ele>866.8</ele><time>2026-04-25T12:55:09.997Z</time></trkpt><trkpt lat="44.5216767" lon="8.795695"><ele>868.4</ele><time>2026-04-25T12:55:10.997Z</time></trkpt><trkpt lat="44.521775" lon="8.7957367"><ele>870.0</ele><time>2026-04-25T12:55:12.003Z</time></trkpt><trkpt lat="44.521865" lon="8.7957933"><ele>870.0</ele><time>2026-04-25T12:55:12.998Z</time></trkpt><trkpt lat="44.5219567" lon="8.7958517"><ele>870.0</ele><time>2026-04-25T12:55:14.002Z</time></trkpt><trkpt lat="44.5220533" lon="8.795915"><ele>870.0</ele><time>2026-04-25T12:55:14.994Z</time></trkpt><trkpt lat="44.52215" lon="8.7959767"><ele>870.0</ele><time>2026-04-25T12:55:15.996Z</time></trkpt><trkpt lat="44.5222483" lon="8.7960367"><ele>870.0</ele><time>2026-04-25T12:55:16.995Z</time></trkpt><trkpt lat="44.5223533" lon="8.796085"><ele>866.2</ele><time>2026-04-25T12:55:18.002Z</time></trkpt><trkpt lat="44.5224633" lon="8.7961183"><ele>862.4</ele><time>2026-04-25T12:55:18.998Z</time></trkpt><trkpt lat="44.522575" lon="8.796145"><ele>858.5999999999999</ele><time>2026-04-25T12:55:19.995Z</time></trkpt><trkpt lat="44.5226817" lon="8.79616"><ele>854.8</ele><time>2026-04-25T12:55:21Z</time></trkpt><trkpt lat="44.5227867" lon="8.796185"><ele>851.0</ele><time>2026-04-25T12:55:21.999Z</time></trkpt><trkpt lat="44.52289" lon="8.79621"><ele>855.4</ele><time>2026-04-25T12:55:22.997Z</time></trkpt><trkpt lat="44.5229917" lon="8.7962533"><ele>859.8</ele><time>2026-04-25T12:55:23.996Z</time></trkpt><trkpt lat="44.5230933" lon="8.7963067"><ele>864.1999999999999</ele><time>2026-04-25T12:55:25.001Z</time></trkpt><trkpt lat="44.5231933" lon="8.79637"><ele>868.5999999999999</ele><time>2026-04-25T12:55:25.993Z</time></trkpt><trkpt lat="44.52329" lon="8.7964283"><ele>873.0</ele><time>2026-04-25T12:55:26.997Z</time></trkpt><trkpt lat="44.52338" lon="8.79651"><ele>873.0</ele><time>2026-04-25T12:55:27.997Z</time></trkpt><trkpt lat="44.5234683" lon="8.79658"><ele>873.0</ele><time>2026-04-25T12:55:28.997Z</time></trkpt><trkpt lat="44.5235483" lon="8.7966517"><ele>873.0</ele><time>2026-04-25T12:55:29.994Z</time></trkpt><trkpt lat="44.5236283" lon="8.7967267"><ele>873.0</ele><time>2026-04-25T12:55:30.993Z</time></trkpt><trkpt lat="44.5237017" lon="8.7968117"><ele>873.0</ele><time>2026-04-25T12:55:31.998Z</time></trkpt><trkpt lat="44.5237683" lon="8.796895"><ele>871.8</ele><time>2026-04-25T12:55:32.996Z</time></trkpt><trkpt lat="44.5238383" lon="8.79698"><ele>870.5999999999999</ele><time>2026-04-25T12:55:33.998Z</time></trkpt><trkpt lat="44.523915" lon="8.7970567"><ele>869.4000000000001</ele><time>2026-04-25T12:55:34.993Z</time></trkpt><trkpt lat="44.5239967" lon="8.797125"><ele>868.2</ele><time>2026-04-25T12:55:35.992Z</time></trkpt><trkpt lat="44.5240833" lon="8.7971883"><ele>867.0</ele><time>2026-04-25T12:55:36.994Z</time></trkpt><trkpt lat="44.5241717" lon="8.79724"><ele>867.0</ele><time>2026-04-25T12:55:37.995Z</time></trkpt><trkpt lat="44.5242633" lon="8.797285"><ele>867.0</ele><time>2026-04-25T12:55:38.995Z</time></trkpt><trkpt lat="44.52436" lon="8.7973167"><ele>867.0</ele><time>2026-04-25T12:55:39.997Z</time></trkpt><trkpt lat="44.5244583" lon="8.797345"><ele>867.0</ele><time>2026-04-25T12:55:40.997Z</time></trkpt><trkpt lat="44.5245567" lon="8.7973767"><ele>867.0</ele><time>2026-04-25T12:55:41.998Z</time></trkpt><trkpt lat="44.5246567" lon="8.7973967"><ele>869.0</ele><time>2026-04-25T12:55:42.999Z</time></trkpt><trkpt lat="44.52476" lon="8.7974167"><ele>871.0</ele><time>2026-04-25T12:55:43.995Z</time></trkpt><trkpt lat="44.5248633" lon="8.79743"><ele>873.0</ele><time>2026-04-25T12:55:44.996Z</time></trkpt><trkpt lat="44.5249683" lon="8.79743"><ele>875.0</ele><time>2026-04-25T12:55:45.996Z</time></trkpt><trkpt lat="44.52507" lon="8.7974167"><ele>877.0</ele><time>2026-04-25T12:55:46.997Z</time></trkpt><trkpt lat="44.5251667" lon="8.7973883"><ele>877.0</ele><time>2026-04-25T12:55:47.995Z</time></trkpt><trkpt lat="44.5252583" lon="8.7973467"><ele>877.0</ele><time>2026-04-25T12:55:48.995Z</time></trkpt><trkpt lat="44.525345" lon="8.797295"><ele>877.0</ele><time>2026-04-25T12:55:49.992Z</time></trkpt><trkpt lat="44.5254283" lon="8.79723"><ele>877.0</ele><time>2026-04-25T12:55:50.999Z</time></trkpt><trkpt lat="44.525505" lon="8.79716"><ele>877.0</ele><time>2026-04-25T12:55:51.992Z</time></trkpt><trkpt lat="44.5255783" lon="8.7970867"><ele>877.8333333333333</ele><time>2026-04-25T12:55:52.993Z</time></trkpt><trkpt lat="44.5256417" lon="8.797015"><ele>878.6666666666666</ele><time>2026-04-25T12:55:53.995Z</time></trkpt><trkpt lat="44.5256967" lon="8.7969433"><ele>879.5</ele><time>2026-04-25T12:55:54.995Z</time></trkpt><trkpt lat="44.525745" lon="8.79687"><ele>880.3333333333333</ele><time>2026-04-25T12:55:55.994Z</time></trkpt><trkpt lat="44.5257833" lon="8.7967983"><ele>881.1666666666666</ele><time>2026-04-25T12:55:56.995Z</time></trkpt><trkpt lat="44.525825" lon="8.7966883"><ele>882.0</ele><time>2026-04-25T12:55:58.995Z</time></trkpt><trkpt lat="44.5258733" lon="8.7965783"><ele>882.0</ele><time>2026-04-25T12:59:31.995Z</time></trkpt><trkpt lat="44.5259367" lon="8.7965283"><ele>882.0</ele><time>2026-04-25T12:59:34.995Z</time></trkpt><trkpt lat="44.5259917" lon="8.7964283"><ele>882.0</ele><time>2026-04-25T12:59:37.999Z</time></trkpt><trkpt lat="44.52602" lon="8.796305"><ele>882.0</ele><time>2026-04-25T12:59:40.998Z</time></trkpt><trkpt lat="44.5260333" lon="8.7961917"><ele>882.0</ele><time>2026-04-25T12:59:42.998Z</time></trkpt><trkpt lat="44.526045" lon="8.79606"><ele>882.0</ele><time>2026-04-25T12:59:44.997Z</time></trkpt><trkpt lat="44.52607" lon="8.7959083"><ele>882.3333333333334</ele><time>2026-04-25T12:59:46.998Z</time></trkpt><trkpt lat="44.5261017" lon="8.7957383"><ele>882.6666666666667</ele><time>2026-04-25T12:59:48.995Z</time></trkpt><trkpt lat="44.5261167" lon="8.7956483"><ele>883.0</ele><time>2026-04-25T12:59:49.993Z</time></trkpt><trkpt lat="44.5261333" lon="8.7955533"><ele>883.3333333333334</ele><time>2026-04-25T12:59:50.996Z</time></trkpt><trkpt lat="44.5261467" lon="8.7954567"><ele>883.6666666666667</ele><time>2026-04-25T12:59:51.996Z</time></trkpt><trkpt lat="44.52615" lon="8.7953617"><ele>884.0</ele><time>2026-04-25T12:59:52.999Z</time></trkpt><trkpt lat="44.52614" lon="8.7952683"><ele>884.0000000000001</ele><time>2026-04-25T12:59:53.997Z</time></trkpt><trkpt lat="44.5261217" lon="8.7951767"><ele>884.0</ele><time>2026-04-25T12:59:54.997Z</time></trkpt><trkpt lat="44.5260883" lon="8.7950983"><ele>884.0</ele><time>2026-04-25T12:59:55.994Z</time></trkpt><trkpt lat="44.5260317" lon="8.7950517"><ele>884.0</ele><time>2026-04-25T12:59:56.996Z</time></trkpt><trkpt lat="44.5259633" lon="8.79502"><ele>884.0</ele><time>2026-04-25T12:59:57.994Z</time></trkpt><trkpt lat="44.5258933" lon="8.795005"><ele>884.0000000000001</ele><time>2026-04-25T12:59:58.992Z</time></trkpt><trkpt lat="44.5257983" lon="8.7950033"><ele>884.0</ele><time>2026-04-25T12:59:59.993Z</time></trkpt><trkpt lat="44.5257" lon="8.794995"><ele>883.1666666666667</ele><time>2026-04-25T13:00:01Z</time></trkpt><trkpt lat="44.5256117" lon="8.7949733"><ele>882.3333333333334</ele><time>2026-04-25T13:00:02Z</time></trkpt><trkpt lat="44.5255267" lon="8.7949517"><ele>881.5</ele><time>2026-04-25T13:00:02.994Z</time></trkpt><trkpt lat="44.5254433" lon="8.79491"><ele>880.6666666666667</ele><time>2026-04-25T13:00:03.996Z</time></trkpt><trkpt lat="44.5253617" lon="8.7948483"><ele>879.8333333333334</ele><time>2026-04-25T13:00:04.993Z</time></trkpt><trkpt lat="44.5253433" lon="8.7947567"><ele>879.0</ele><time>2026-04-25T13:00:05.994Z</time></trkpt><trkpt lat="44.52532" lon="8.7946567"><ele>881.0</ele><time>2026-04-25T13:00:06.994Z</time></trkpt><trkpt lat="44.5253267" lon="8.7945333"><ele>883.0000000000001</ele><time>2026-04-25T13:00:07.995Z</time></trkpt><trkpt lat="44.5253483" lon="8.794405"><ele>885.0000000000001</ele><time>2026-04-25T13:00:08.997Z</time></trkpt><trkpt lat="44.525385" lon="8.7942683"><ele>887.0</ele><time>2026-04-25T13:00:09.993Z</time></trkpt><trkpt lat="44.5254183" lon="8.7941333"><ele>889.0</ele><time>2026-04-25T13:00:10.997Z</time></trkpt><trkpt lat="44.5254533" lon="8.7940117"><ele>885.6666666666666</ele><time>2026-04-25T13:00:11.993Z</time></trkpt><trkpt lat="44.525495" lon="8.7939017"><ele>882.3333333333333</ele><time>2026-04-25T13:00:12.993Z</time></trkpt><trkpt lat="44.52554" lon="8.7937983"><ele>879.0</ele><time>2026-04-25T13:00:14Z</time></trkpt><trkpt lat="44.52558" lon="8.7936933"><ele>875.6666666666667</ele><time>2026-04-25T13:00:14.995Z</time></trkpt><trkpt lat="44.5256117" lon="8.79358"><ele>872.3333333333334</ele><time>2026-04-25T13:00:15.996Z</time></trkpt><trkpt lat="44.5256267" lon="8.79346"><ele>869.0</ele><time>2026-04-25T13:00:16.993Z</time></trkpt><trkpt lat="44.525635" lon="8.79334"><ele>867.8333333333334</ele><time>2026-04-25T13:00:17.995Z</time></trkpt><trkpt lat="44.52564" lon="8.7932217"><ele>866.6666666666667</ele><time>2026-04-25T13:00:18.995Z</time></trkpt><trkpt lat="44.5256383" lon="8.7931"><ele>865.5</ele><time>2026-04-25T13:00:19.997Z</time></trkpt><trkpt lat="44.52563" lon="8.7929767"><ele>864.3333333333333</ele><time>2026-04-25T13:00:20.995Z</time></trkpt><trkpt lat="44.52563" lon="8.7928467"><ele>863.1666666666666</ele><time>2026-04-25T13:00:21.996Z</time></trkpt><trkpt lat="44.5256317" lon="8.7927183"><ele>862.0</ele><time>2026-04-25T13:00:22.996Z</time></trkpt><trkpt lat="44.52564" lon="8.7925983"><ele>861.9999999999999</ele><time>2026-04-25T13:00:23.994Z</time></trkpt><trkpt lat="44.5256417" lon="8.7924783"><ele>862.0</ele><time>2026-04-25T13:00:24.993Z</time></trkpt><trkpt lat="44.5256317" lon="8.7923567"><ele>862.0</ele><time>2026-04-25T13:00:26.001Z</time></trkpt><trkpt lat="44.5256183" lon="8.7922383"><ele>862.0</ele><time>2026-04-25T13:00:26.996Z</time></trkpt><trkpt lat="44.5255917" lon="8.7921183"><ele>861.9999999999999</ele><time>2026-04-25T13:00:28.003Z</time></trkpt><trkpt lat="44.525555" lon="8.7920083"><ele>862.0</ele><time>2026-04-25T13:00:29.001Z</time></trkpt><trkpt lat="44.5255133" lon="8.7919017"><ele>860.4000000000001</ele><time>2026-04-25T13:00:29.995Z</time></trkpt><trkpt lat="44.5254633" lon="8.7917917"><ele>858.8000000000001</ele><time>2026-04-25T13:00:30.993Z</time></trkpt><trkpt lat="44.525405" lon="8.7916817"><ele>857.2</ele><time>2026-04-25T13:00:32.001Z</time></trkpt><trkpt lat="44.5253467" lon="8.7915767"><ele>855.6</ele><time>2026-04-25T13:00:32.999Z</time></trkpt><trkpt lat="44.525295" lon="8.7914733"><ele>854.0</ele><time>2026-04-25T13:00:33.994Z</time></trkpt><trkpt lat="44.5252417" lon="8.7913583"><ele>856.25</ele><time>2026-04-25T13:00:34.997Z</time></trkpt><trkpt lat="44.525195" lon="8.7912167"><ele>858.5</ele><time>2026-04-25T13:00:35.997Z</time></trkpt><trkpt lat="44.525155" lon="8.79108"><ele>860.75</ele><time>2026-04-25T13:00:36.994Z</time></trkpt><trkpt lat="44.5251083" lon="8.79093"><ele>863.0</ele><time>2026-04-25T13:00:37.997Z</time></trkpt><trkpt lat="44.5250617" lon="8.7907717"><ele>863.0</ele><time>2026-04-25T13:00:38.993Z</time></trkpt><trkpt lat="44.525025" lon="8.79061"><ele>863.0</ele><time>2026-04-25T13:00:39.994Z</time></trkpt><trkpt lat="44.5249917" lon="8.790445"><ele>863.0</ele><time>2026-04-25T13:00:40.993Z</time></trkpt><trkpt lat="44.5249533" lon="8.7902767"><ele>863.0</ele><time>2026-04-25T13:00:41.996Z</time></trkpt><trkpt lat="44.5249233" lon="8.790105"><ele>861.25</ele><time>2026-04-25T13:00:42.997Z</time></trkpt><trkpt lat="44.5248917" lon="8.7899333"><ele>859.5</ele><time>2026-04-25T13:00:43.996Z</time></trkpt><trkpt lat="44.52486" lon="8.7897617"><ele>857.75</ele><time>2026-04-25T13:00:44.996Z</time></trkpt><trkpt lat="44.5248333" lon="8.789585"><ele>856.0</ele><time>2026-04-25T13:00:45.993Z</time></trkpt><trkpt lat="44.524805" lon="8.78942"><ele>855.0</ele><time>2026-04-25T13:00:46.994Z</time></trkpt><trkpt lat="44.5247733" lon="8.7892633"><ele>854.0</ele><time>2026-04-25T13:00:47.996Z</time></trkpt><trkpt lat="44.5247567" lon="8.7891033"><ele>853.0</ele><time>2026-04-25T13:00:48.993Z</time></trkpt><trkpt lat="44.52475" lon="8.78895"><ele>852.0</ele><time>2026-04-25T13:00:49.993Z</time></trkpt><trkpt lat="44.5247533" lon="8.78879"><ele>852.0</ele><time>2026-04-25T13:00:50.993Z</time></trkpt><trkpt lat="44.5247767" lon="8.7886383"><ele>852.0</ele><time>2026-04-25T13:00:51.998Z</time></trkpt><trkpt lat="44.5248067" lon="8.78848"><ele>852.0</ele><time>2026-04-25T13:00:52.996Z</time></trkpt><trkpt lat="44.52486" lon="8.788345"><ele>852.0</ele><time>2026-04-25T13:00:54.001Z</time></trkpt><trkpt lat="44.5249217" lon="8.78821"><ele>852.2</ele><time>2026-04-25T13:00:54.995Z</time></trkpt><trkpt lat="44.5249733" lon="8.7880717"><ele>852.4000000000001</ele><time>2026-04-25T13:00:55.994Z</time></trkpt><trkpt lat="44.5250117" lon="8.7879367"><ele>852.5999999999999</ele><time>2026-04-25T13:00:56.995Z</time></trkpt><trkpt lat="44.525035" lon="8.7877867"><ele>852.8</ele><time>2026-04-25T13:00:57.996Z</time></trkpt><trkpt lat="44.5250333" lon="8.7876383"><ele>853.0</ele><time>2026-04-25T13:00:59.004Z</time></trkpt><trkpt lat="44.5250267" lon="8.7875133"><ele>853.0</ele><time>2026-04-25T13:00:59.993Z</time></trkpt><trkpt lat="44.5250433" lon="8.7874"><ele>853.0</ele><time>2026-04-25T13:01:00.994Z</time></trkpt><trkpt lat="44.525075" lon="8.7872833"><ele>853.0</ele><time>2026-04-25T13:01:01.996Z</time></trkpt><trkpt lat="44.52511" lon="8.7871633"><ele>853.0</ele><time>2026-04-25T13:01:02.993Z</time></trkpt><trkpt lat="44.5251367" lon="8.787035"><ele>853.0</ele><time>2026-04-25T13:01:03.994Z</time></trkpt><trkpt lat="44.5251533" lon="8.7869017"><ele>852.5999999999999</ele><time>2026-04-25T13:01:04.992Z</time></trkpt><trkpt lat="44.5251733" lon="8.7867667"><ele>852.1999999999999</ele><time>2026-04-25T13:01:05.996Z</time></trkpt><trkpt lat="44.5251883" lon="8.78663"><ele>851.8</ele><time>2026-04-25T13:01:06.997Z</time></trkpt><trkpt lat="44.5251983" lon="8.7864917"><ele>851.4</ele><time>2026-04-25T13:01:07.992Z</time></trkpt><trkpt lat="44.525215" lon="8.78636"><ele>851.0</ele><time>2026-04-25T13:01:08.998Z</time></trkpt><trkpt lat="44.52524" lon="8.7862467"><ele>851.0</ele><time>2026-04-25T13:01:09.995Z</time></trkpt><trkpt lat="44.5252833" lon="8.7861433"><ele>851.0</ele><time>2026-04-25T13:01:10.993Z</time></trkpt><trkpt lat="44.52534" lon="8.7860533"><ele>851.0</ele><time>2026-04-25T13:01:11.996Z</time></trkpt><trkpt lat="44.5254183" lon="8.7859683"><ele>851.0</ele><time>2026-04-25T13:01:12.995Z</time></trkpt><trkpt lat="44.5254883" lon="8.785865"><ele>851.0</ele><time>2026-04-25T13:01:13.993Z</time></trkpt><trkpt lat="44.52556" lon="8.7857583"><ele>854.0</ele><time>2026-04-25T13:01:14.998Z</time></trkpt><trkpt lat="44.5256433" lon="8.7856667"><ele>857.0</ele><time>2026-04-25T13:01:15.995Z</time></trkpt><trkpt lat="44.52573" lon="8.78558"><ele>859.9999999999999</ele><time>2026-04-25T13:01:16.997Z</time></trkpt><trkpt lat="44.525805" lon="8.7854867"><ele>863.0</ele><time>2026-04-25T13:01:17.996Z</time></trkpt><trkpt lat="44.5258683" lon="8.7853883"><ele>866.0</ele><time>2026-04-25T13:01:18.993Z</time></trkpt><trkpt lat="44.5259267" lon="8.7853017"><ele>866.0000000000001</ele><time>2026-04-25T13:01:19.993Z</time></trkpt><trkpt lat="44.5259817" lon="8.78523"><ele>866.0</ele><time>2026-04-25T13:01:20.995Z</time></trkpt><trkpt lat="44.5260417" lon="8.785175"><ele>866.0</ele><time>2026-04-25T13:01:21.997Z</time></trkpt><trkpt lat="44.5261133" lon="8.78514"><ele>866.0</ele><time>2026-04-25T13:01:22.998Z</time></trkpt><trkpt lat="44.5261933" lon="8.7851433"><ele>866.0000000000001</ele><time>2026-04-25T13:01:24Z</time></trkpt><trkpt lat="44.5263033" lon="8.785185"><ele>866.0</ele><time>2026-04-25T13:01:24.996Z</time></trkpt><trkpt lat="44.5264083" lon="8.7852067"><ele>868.0</ele><time>2026-04-25T13:01:25.996Z</time></trkpt><trkpt lat="44.5265067" lon="8.7851917"><ele>869.9999999999999</ele><time>2026-04-25T13:01:26.998Z</time></trkpt><trkpt lat="44.526605" lon="8.7851417"><ele>871.9999999999999</ele><time>2026-04-25T13:01:27.991Z</time></trkpt><trkpt lat="44.5266833" lon="8.7850533"><ele>874.0</ele><time>2026-04-25T13:01:28.996Z</time></trkpt><trkpt lat="44.52674" lon="8.7849433"><ele>876.0</ele><time>2026-04-25T13:01:29.998Z</time></trkpt><trkpt lat="44.526805" lon="8.7848367"><ele>876.0</ele><time>2026-04-25T13:01:30.999Z</time></trkpt><trkpt lat="44.5268733" lon="8.78474"><ele>875.9999999999999</ele><time>2026-04-25T13:01:31.994Z</time></trkpt><trkpt lat="44.5269367" lon="8.7846467"><ele>875.9999999999999</ele><time>2026-04-25T13:01:33.001Z</time></trkpt><trkpt lat="44.5269817" lon="8.7845433"><ele>876.0</ele><time>2026-04-25T13:01:33.995Z</time></trkpt><trkpt lat="44.5270133" lon="8.7844317"><ele>876.0</ele><time>2026-04-25T13:01:34.996Z</time></trkpt><trkpt lat="44.5270333" lon="8.7843033"><ele>873.0</ele><time>2026-04-25T13:01:35.994Z</time></trkpt><trkpt lat="44.5270517" lon="8.78417"><ele>869.9999999999999</ele><time>2026-04-25T13:01:36.997Z</time></trkpt><trkpt lat="44.52707" lon="8.784035"><ele>866.9999999999999</ele><time>2026-04-25T13:01:37.998Z</time></trkpt><trkpt lat="44.5270917" lon="8.7839033"><ele>864.0</ele><time>2026-04-25T13:01:38.995Z</time></trkpt><trkpt lat="44.5271233" lon="8.7837833"><ele>861.0</ele><time>2026-04-25T13:01:39.996Z</time></trkpt><trkpt lat="44.5271733" lon="8.7836733"><ele>868.8</ele><time>2026-04-25T13:01:40.993Z</time></trkpt><trkpt lat="44.5272117" lon="8.7835533"><ele>876.5999999999999</ele><time>2026-04-25T13:01:41.995Z</time></trkpt><trkpt lat="44.52724" lon="8.783425"><ele>884.4</ele><time>2026-04-25T13:01:42.995Z</time></trkpt><trkpt lat="44.5272667" lon="8.7832883"><ele>892.2</ele><time>2026-04-25T13:01:43.996Z</time></trkpt><trkpt lat="44.52729" lon="8.7831467"><ele>900.0</ele><time>2026-04-25T13:01:44.993Z</time></trkpt><trkpt lat="44.527305" lon="8.7830067"><ele>900.0</ele><time>2026-04-25T13:01:45.996Z</time></trkpt><trkpt lat="44.5272967" lon="8.7828717"><ele>900.0</ele><time>2026-04-25T13:01:46.995Z</time></trkpt><trkpt lat="44.5272733" lon="8.782745"><ele>900.0</ele><time>2026-04-25T13:01:47.993Z</time></trkpt><trkpt lat="44.5272333" lon="8.782625"><ele>900.0</ele><time>2026-04-25T13:01:48.994Z</time></trkpt><trkpt lat="44.5271917" lon="8.782515"><ele>900.0</ele><time>2026-04-25T13:01:49.996Z</time></trkpt><trkpt lat="44.5271633" lon="8.7824183"><ele>900.0</ele><time>2026-04-25T13:01:50.995Z</time></trkpt><trkpt lat="44.527145" lon="8.782325"><ele>900.0</ele><time>2026-04-25T13:01:52.003Z</time></trkpt><trkpt lat="44.5271467" lon="8.7822317"><ele>900.0</ele><time>2026-04-25T13:01:52.995Z</time></trkpt><trkpt lat="44.5271583" lon="8.782135"><ele>900.0</ele><time>2026-04-25T13:01:53.993Z</time></trkpt><trkpt lat="44.527185" lon="8.782025"><ele>900.0</ele><time>2026-04-25T13:01:54.995Z</time></trkpt><trkpt lat="44.5272117" lon="8.7819083"><ele>900.0</ele><time>2026-04-25T13:01:55.994Z</time></trkpt><trkpt lat="44.52723" lon="8.781775"><ele>900.0</ele><time>2026-04-25T13:01:56.994Z</time></trkpt><trkpt lat="44.5272633" lon="8.7816267"><ele>898.0</ele><time>2026-04-25T13:01:58Z</time></trkpt><trkpt lat="44.5273133" lon="8.7814817"><ele>896.0</ele><time>2026-04-25T13:01:58.996Z</time></trkpt><trkpt lat="44.5273783" lon="8.7813367"><ele>894.0</ele><time>2026-04-25T13:01:59.993Z</time></trkpt><trkpt lat="44.5274533" lon="8.78119"><ele>892.0</ele><time>2026-04-25T13:02:00.996Z</time></trkpt><trkpt lat="44.5275267" lon="8.7810317"><ele>889.0</ele><time>2026-04-25T13:02:01.995Z</time></trkpt><trkpt lat="44.5275867" lon="8.7808667"><ele>886.0</ele><time>2026-04-25T13:02:02.994Z</time></trkpt><trkpt lat="44.5276267" lon="8.7806917"><ele>883.0</ele><time>2026-04-25T13:02:03.997Z</time></trkpt><trkpt lat="44.5276483" lon="8.780505"><ele>880.0</ele><time>2026-04-25T13:02:04.996Z</time></trkpt><trkpt lat="44.5276617" lon="8.7803117"><ele>877.75</ele><time>2026-04-25T13:02:05.994Z</time></trkpt><trkpt lat="44.52767" lon="8.7801167"><ele>875.5</ele><time>2026-04-25T13:02:06.995Z</time></trkpt><trkpt lat="44.5276767" lon="8.779925"><ele>873.25</ele><time>2026-04-25T13:02:07.995Z</time></trkpt><trkpt lat="44.5276883" lon="8.7797367"><ele>871.0</ele><time>2026-04-25T13:02:09Z</time></trkpt><trkpt lat="44.5277" lon="8.779555"><ele>871.0</ele><time>2026-04-25T13:02:09.993Z</time></trkpt><trkpt lat="44.5277183" lon="8.7793917"><ele>870.9999999999999</ele><time>2026-04-25T13:02:10.996Z</time></trkpt><trkpt lat="44.52774" lon="8.7792467"><ele>870.9999999999999</ele><time>2026-04-25T13:02:11.993Z</time></trkpt><trkpt lat="44.5277667" lon="8.7791183"><ele>871.0</ele><time>2026-04-25T13:02:12.995Z</time></trkpt><trkpt lat="44.5278117" lon="8.7790067"><ele>871.0</ele><time>2026-04-25T13:02:13.993Z</time></trkpt><trkpt lat="44.5278717" lon="8.77891"><ele>880.5</ele><time>2026-04-25T13:02:14.999Z</time></trkpt><trkpt lat="44.527955" lon="8.77882"><ele>890.0</ele><time>2026-04-25T13:02:15.991Z</time></trkpt><trkpt lat="44.528045" lon="8.7787333"><ele>899.5</ele><time>2026-04-25T13:02:16.994Z</time></trkpt><trkpt lat="44.528145" lon="8.77864"><ele>909.0</ele><time>2026-04-25T13:02:18.01Z</time></trkpt><trkpt lat="44.5282383" lon="8.7785383"><ele>904.75</ele><time>2026-04-25T13:02:18.995Z</time></trkpt><trkpt lat="44.528325" lon="8.778425"><ele>900.5</ele><time>2026-04-25T13:02:19.995Z</time></trkpt><trkpt lat="44.528405" lon="8.7783"><ele>896.25</ele><time>2026-04-25T13:02:21Z</time></trkpt><trkpt lat="44.52847" lon="8.7781567"><ele>892.0</ele><time>2026-04-25T13:02:21.995Z</time></trkpt><trkpt lat="44.5285283" lon="8.778"><ele>892.0</ele><time>2026-04-25T13:02:22.992Z</time></trkpt><trkpt lat="44.5285867" lon="8.777835"><ele>892.0</ele><time>2026-04-25T13:02:23.999Z</time></trkpt><trkpt lat="44.5286483" lon="8.777675"><ele>892.0</ele><time>2026-04-25T13:02:24.999Z</time></trkpt><trkpt lat="44.5287117" lon="8.7775067"><ele>892.0</ele><time>2026-04-25T13:02:25.997Z</time></trkpt><trkpt lat="44.52877" lon="8.77733"><ele>892.0</ele><time>2026-04-25T13:02:26.997Z</time></trkpt><trkpt lat="44.528815" lon="8.7771433"><ele>892.0</ele><time>2026-04-25T13:02:27.997Z</time></trkpt><trkpt lat="44.528845" lon="8.776955"><ele>892.0</ele><time>2026-04-25T13:02:28.995Z</time></trkpt><trkpt lat="44.5288667" lon="8.7767833"><ele>892.0</ele><time>2026-04-25T13:02:29.994Z</time></trkpt><trkpt lat="44.5288917" lon="8.7766383"><ele>891.9999999999999</ele><time>2026-04-25T13:02:30.997Z</time></trkpt><trkpt lat="44.5289217" lon="8.7765233"><ele>892.0</ele><time>2026-04-25T13:02:32.005Z</time></trkpt><trkpt lat="44.5289617" lon="8.7764317"><ele>892.0</ele><time>2026-04-25T13:02:32.995Z</time></trkpt><trkpt lat="44.5290017" lon="8.7763617"><ele>892.0</ele><time>2026-04-25T13:02:33.996Z</time></trkpt><trkpt lat="44.5290633" lon="8.7763067"><ele>891.9999999999999</ele><time>2026-04-25T13:02:34.994Z</time></trkpt><trkpt lat="44.5291417" lon="8.7762833"><ele>892.0</ele><time>2026-04-25T13:02:35.993Z</time></trkpt><trkpt lat="44.529245" lon="8.7763017"><ele>892.0</ele><time>2026-04-25T13:02:36.996Z</time></trkpt><trkpt lat="44.529375" lon="8.7763417"><ele>892.0</ele><time>2026-04-25T13:02:37.992Z</time></trkpt><trkpt lat="44.5295033" lon="8.7763767"><ele>892.0</ele><time>2026-04-25T13:02:38.997Z</time></trkpt><trkpt lat="44.5296317" lon="8.7764017"><ele>892.0</ele><time>2026-04-25T13:02:39.992Z</time></trkpt><trkpt lat="44.52976" lon="8.7764067"><ele>892.5</ele><time>2026-04-25T13:02:40.995Z</time></trkpt><trkpt lat="44.52989" lon="8.7763767"><ele>893.0</ele><time>2026-04-25T13:02:41.994Z</time></trkpt><trkpt lat="44.5300167" lon="8.77634"><ele>893.5</ele><time>2026-04-25T13:02:42.996Z</time></trkpt><trkpt lat="44.53014" lon="8.77633"><ele>894.0</ele><time>2026-04-25T13:02:43.994Z</time></trkpt><trkpt lat="44.5302567" lon="8.7763283"><ele>894.0</ele><time>2026-04-25T13:02:44.997Z</time></trkpt><trkpt lat="44.5303733" lon="8.7763317"><ele>894.0</ele><time>2026-04-25T13:02:45.994Z</time></trkpt><trkpt lat="44.5304917" lon="8.7763383"><ele>894.0</ele><time>2026-04-25T13:02:46.994Z</time></trkpt><trkpt lat="44.530615" lon="8.7763517"><ele>894.0</ele><time>2026-04-25T13:02:47.996Z</time></trkpt><trkpt lat="44.5307383" lon="8.77637"><ele>893.75</ele><time>2026-04-25T13:02:48.996Z</time></trkpt><trkpt lat="44.5308633" lon="8.7763883"><ele>893.5</ele><time>2026-04-25T13:02:49.994Z</time></trkpt><trkpt lat="44.5309917" lon="8.7763917"><ele>893.25</ele><time>2026-04-25T13:02:50.993Z</time></trkpt><trkpt lat="44.5311133" lon="8.7763817"><ele>893.0</ele><time>2026-04-25T13:02:51.996Z</time></trkpt><trkpt lat="44.5312333" lon="8.77637"><ele>891.25</ele><time>2026-04-25T13:02:52.994Z</time></trkpt><trkpt lat="44.5313517" lon="8.7763717"><ele>889.5</ele><time>2026-04-25T13:02:53.995Z</time></trkpt><trkpt lat="44.5314767" lon="8.7763917"><ele>887.75</ele><time>2026-04-25T13:02:54.994Z</time></trkpt><trkpt lat="44.5316033" lon="8.7764233"><ele>886.0</ele><time>2026-04-25T13:02:55.996Z</time></trkpt><trkpt lat="44.5317367" lon="8.7764533"><ele>886.0</ele><time>2026-04-25T13:02:56.994Z</time></trkpt><trkpt lat="44.5318667" lon="8.7764683"><ele>886.0</ele><time>2026-04-25T13:02:57.996Z</time></trkpt><trkpt lat="44.5319933" lon="8.77648"><ele>886.0</ele><time>2026-04-25T13:02:58.992Z</time></trkpt><trkpt lat="44.5321233" lon="8.7765017"><ele>886.0</ele><time>2026-04-25T13:02:59.996Z</time></trkpt><trkpt lat="44.5322583" lon="8.77653"><ele>884.5</ele><time>2026-04-25T13:03:00.994Z</time></trkpt><trkpt lat="44.5323933" lon="8.776565"><ele>883.0</ele><time>2026-04-25T13:03:01.992Z</time></trkpt><trkpt lat="44.532525" lon="8.776595"><ele>881.5</ele><time>2026-04-25T13:03:03Z</time></trkpt><trkpt lat="44.5326533" lon="8.7766267"><ele>880.0</ele><time>2026-04-25T13:03:03.995Z</time></trkpt><trkpt lat="44.53278" lon="8.7766483"><ele>877.5</ele><time>2026-04-25T13:03:04.994Z</time></trkpt><trkpt lat="44.5329033" lon="8.776675"><ele>875.0</ele><time>2026-04-25T13:03:05.997Z</time></trkpt><trkpt lat="44.53302" lon="8.7767133"><ele>872.5</ele><time>2026-04-25T13:03:06.993Z</time></trkpt><trkpt lat="44.5331283" lon="8.7767667"><ele>870.0</ele><time>2026-04-25T13:03:07.997Z</time></trkpt><trkpt lat="44.533235" lon="8.7768383"><ele>873.0</ele><time>2026-04-25T13:03:08.995Z</time></trkpt><trkpt lat="44.5333417" lon="8.7769183"><ele>876.0</ele><time>2026-04-25T13:03:09.995Z</time></trkpt><trkpt lat="44.5334467" lon="8.7769983"><ele>879.0</ele><time>2026-04-25T13:03:11.004Z</time></trkpt><trkpt lat="44.53356" lon="8.7770833"><ele>882.0</ele><time>2026-04-25T13:03:11.997Z</time></trkpt><trkpt lat="44.5336733" lon="8.7771667"><ele>878.75</ele><time>2026-04-25T13:03:12.999Z</time></trkpt><trkpt lat="44.5337933" lon="8.77726"><ele>875.5</ele><time>2026-04-25T13:03:13.998Z</time></trkpt><trkpt lat="44.533915" lon="8.7773567"><ele>872.25</ele><time>2026-04-25T13:03:14.999Z</time></trkpt><trkpt lat="44.5340317" lon="8.7774517"><ele>869.0</ele><time>2026-04-25T13:03:15.994Z</time></trkpt><trkpt lat="44.5341517" lon="8.77755"><ele>869.0</ele><time>2026-04-25T13:03:17Z</time></trkpt><trkpt lat="44.53427" lon="8.7776483"><ele>869.0</ele><time>2026-04-25T13:03:17.996Z</time></trkpt><trkpt lat="44.5343883" lon="8.77774"><ele>869.0</ele><time>2026-04-25T13:03:18.993Z</time></trkpt><trkpt lat="44.5345067" lon="8.777835"><ele>869.0</ele><time>2026-04-25T13:03:19.993Z</time></trkpt><trkpt lat="44.5346283" lon="8.7779417"><ele>867.75</ele><time>2026-04-25T13:03:20.996Z</time></trkpt><trkpt lat="44.53475" lon="8.7780467"><ele>866.5</ele><time>2026-04-25T13:03:21.993Z</time></trkpt><trkpt lat="44.534875" lon="8.7781633"><ele>865.25</ele><time>2026-04-25T13:03:22.998Z</time></trkpt><trkpt lat="44.5349983" lon="8.7782733"><ele>864.0</ele><time>2026-04-25T13:03:23.992Z</time></trkpt><trkpt lat="44.5351183" lon="8.77838"><ele>864.0</ele><time>2026-04-25T13:03:25.001Z</time></trkpt><trkpt lat="44.53524" lon="8.7784883"><ele>864.0</ele><time>2026-04-25T13:03:26.001Z</time></trkpt><trkpt lat="44.53536" lon="8.7786017"><ele>864.0</ele><time>2026-04-25T13:03:26.998Z</time></trkpt><trkpt lat="44.5354783" lon="8.7787133"><ele>864.0</ele><time>2026-04-25T13:03:27.996Z</time></trkpt><trkpt lat="44.5355983" lon="8.7788133"><ele>862.75</ele><time>2026-04-25T13:03:29.002Z</time></trkpt><trkpt lat="44.535715" lon="8.7789233"><ele>861.5</ele><time>2026-04-25T13:03:29.996Z</time></trkpt><trkpt lat="44.5358333" lon="8.7790317"><ele>860.25</ele><time>2026-04-25T13:03:30.995Z</time></trkpt><trkpt lat="44.5359567" lon="8.779135"><ele>859.0</ele><time>2026-04-25T13:03:32.001Z</time></trkpt><trkpt lat="44.5360817" lon="8.7792383"><ele>859.0</ele><time>2026-04-25T13:03:33.004Z</time></trkpt><trkpt lat="44.5362083" lon="8.779345"><ele>859.0</ele><time>2026-04-25T13:03:33.994Z</time></trkpt><trkpt lat="44.53633" lon="8.77945"><ele>859.0</ele><time>2026-04-25T13:03:34.998Z</time></trkpt><trkpt lat="44.5364533" lon="8.7795533"><ele>859.0</ele><time>2026-04-25T13:03:35.995Z</time></trkpt><trkpt lat="44.5365733" lon="8.77965"><ele>859.0</ele><time>2026-04-25T13:03:36.998Z</time></trkpt><trkpt lat="44.5366917" lon="8.7797367"><ele>859.0</ele><time>2026-04-25T13:03:37.995Z</time></trkpt><trkpt lat="44.5368083" lon="8.7798217"><ele>859.0</ele><time>2026-04-25T13:03:38.994Z</time></trkpt><trkpt lat="44.5369183" lon="8.779905"><ele>859.0</ele><time>2026-04-25T13:03:39.998Z</time></trkpt><trkpt lat="44.5370233" lon="8.7799867"><ele>857.0</ele><time>2026-04-25T13:03:40.996Z</time></trkpt><trkpt lat="44.53712" lon="8.7800867"><ele>855.0</ele><time>2026-04-25T13:03:41.991Z</time></trkpt><trkpt lat="44.5372133" lon="8.7801783"><ele>853.0</ele><time>2026-04-25T13:03:42.996Z</time></trkpt><trkpt lat="44.5372967" lon="8.7802783"><ele>851.0</ele><time>2026-04-25T13:03:43.997Z</time></trkpt><trkpt lat="44.53738" lon="8.7803867"><ele>851.0</ele><time>2026-04-25T13:03:44.994Z</time></trkpt><trkpt lat="44.5374633" lon="8.7804933"><ele>851.0</ele><time>2026-04-25T13:03:45.993Z</time></trkpt><trkpt lat="44.5375533" lon="8.7806033"><ele>851.0</ele><time>2026-04-25T13:03:46.999Z</time></trkpt><trkpt lat="44.5376517" lon="8.7807067"><ele>851.0</ele><time>2026-04-25T13:03:47.999Z</time></trkpt><trkpt lat="44.5377517" lon="8.7808083"><ele>851.0</ele><time>2026-04-25T13:03:48.994Z</time></trkpt><trkpt lat="44.5378517" lon="8.7809233"><ele>851.0</ele><time>2026-04-25T13:03:49.994Z</time></trkpt><trkpt lat="44.5379533" lon="8.7810467"><ele>851.0</ele><time>2026-04-25T13:03:50.995Z</time></trkpt><trkpt lat="44.5380417" lon="8.7811617"><ele>851.0</ele><time>2026-04-25T13:03:51.995Z</time></trkpt><trkpt lat="44.5381217" lon="8.7812617"><ele>849.8</ele><time>2026-04-25T13:03:52.999Z</time></trkpt><trkpt lat="44.5382033" lon="8.7813333"><ele>848.5999999999999</ele><time>2026-04-25T13:03:53.996Z</time></trkpt><trkpt lat="44.5382867" lon="8.78137"><ele>847.4</ele><time>2026-04-25T13:03:54.996Z</time></trkpt><trkpt lat="44.5383867" lon="8.7813583"><ele>846.2</ele><time>2026-04-25T13:03:55.995Z</time></trkpt><trkpt lat="44.5384833" lon="8.7813317"><ele>845.0</ele><time>2026-04-25T13:03:56.999Z</time></trkpt><trkpt lat="44.5386017" lon="8.78129"><ele>843.0</ele><time>2026-04-25T13:03:57.993Z</time></trkpt><trkpt lat="44.5387217" lon="8.781245"><ele>841.0</ele><time>2026-04-25T13:03:58.994Z</time></trkpt><trkpt lat="44.5388533" lon="8.7812033"><ele>839.0</ele><time>2026-04-25T13:03:59.993Z</time></trkpt><trkpt lat="44.5389833" lon="8.7811617"><ele>837.0</ele><time>2026-04-25T13:04:00.994Z</time></trkpt><trkpt lat="44.5391233" lon="8.7811183"><ele>837.0</ele><time>2026-04-25T13:04:01.995Z</time></trkpt><trkpt lat="44.53926" lon="8.7810717"><ele>837.0</ele><time>2026-04-25T13:04:02.994Z</time></trkpt><trkpt lat="44.539385" lon="8.7810283"><ele>837.0</ele><time>2026-04-25T13:04:03.995Z</time></trkpt><trkpt lat="44.53951" lon="8.7809767"><ele>837.0</ele><time>2026-04-25T13:04:04.993Z</time></trkpt><trkpt lat="44.5396267" lon="8.780925"><ele>833.5</ele><time>2026-04-25T13:04:05.996Z</time></trkpt><trkpt lat="44.5397433" lon="8.7808733"><ele>830.0</ele><time>2026-04-25T13:04:06.998Z</time></trkpt><trkpt lat="44.53986" lon="8.7808267"><ele>826.5</ele><time>2026-04-25T13:04:07.993Z</time></trkpt><trkpt lat="44.5399767" lon="8.78077"><ele>823.0</ele><time>2026-04-25T13:04:08.995Z</time></trkpt><trkpt lat="44.54009" lon="8.7807"><ele>823.0</ele><time>2026-04-25T13:04:09.992Z</time></trkpt><trkpt lat="44.5401983" lon="8.78062"><ele>823.0</ele><time>2026-04-25T13:04:10.996Z</time></trkpt><trkpt lat="44.5403" lon="8.78053"><ele>823.0</ele><time>2026-04-25T13:04:11.994Z</time></trkpt><trkpt lat="44.5403983" lon="8.7804483"><ele>823.0</ele><time>2026-04-25T13:04:12.995Z</time></trkpt><trkpt lat="44.540495" lon="8.7803817"><ele>824.25</ele><time>2026-04-25T13:04:13.992Z</time></trkpt><trkpt lat="44.5405967" lon="8.7803333"><ele>825.5</ele><time>2026-04-25T13:04:14.998Z</time></trkpt><trkpt lat="44.5407067" lon="8.7802817"><ele>826.75</ele><time>2026-04-25T13:04:15.999Z</time></trkpt><trkpt lat="44.5408133" lon="8.7802083"><ele>828.0</ele><time>2026-04-25T13:04:16.995Z</time></trkpt><trkpt lat="44.5409167" lon="8.78012"><ele>827.5999999999999</ele><time>2026-04-25T13:04:17.994Z</time></trkpt><trkpt lat="44.5410083" lon="8.7800317"><ele>827.1999999999999</ele><time>2026-04-25T13:04:18.995Z</time></trkpt><trkpt lat="44.54109" lon="8.7799367"><ele>826.8</ele><time>2026-04-25T13:04:19.995Z</time></trkpt><trkpt lat="44.54117" lon="8.7798467"><ele>826.4</ele><time>2026-04-25T13:04:20.993Z</time></trkpt><trkpt lat="44.541255" lon="8.7797683"><ele>826.0</ele><time>2026-04-25T13:04:21.997Z</time></trkpt><trkpt lat="44.541345" lon="8.77971"><ele>826.0</ele><time>2026-04-25T13:04:22.994Z</time></trkpt><trkpt lat="44.5414383" lon="8.779665"><ele>826.0</ele><time>2026-04-25T13:04:23.994Z</time></trkpt><trkpt lat="44.5415383" lon="8.7796283"><ele>826.0</ele><time>2026-04-25T13:04:24.993Z</time></trkpt><trkpt lat="44.5416367" lon="8.7795817"><ele>826.0</ele><time>2026-04-25T13:04:25.992Z</time></trkpt><trkpt lat="44.5417333" lon="8.7795167"><ele>826.0</ele><time>2026-04-25T13:04:26.998Z</time></trkpt><trkpt lat="44.5418183" lon="8.7794283"><ele>826.5</ele><time>2026-04-25T13:04:27.995Z</time></trkpt><trkpt lat="44.5419033" lon="8.7793217"><ele>827.0</ele><time>2026-04-25T13:04:28.994Z</time></trkpt><trkpt lat="44.5419917" lon="8.779215"><ele>827.5</ele><time>2026-04-25T13:04:29.993Z</time></trkpt><trkpt lat="44.5420783" lon="8.779105"><ele>828.0</ele><time>2026-04-25T13:04:30.992Z</time></trkpt><trkpt lat="44.542145" lon="8.77899"><ele>828.0</ele><time>2026-04-25T13:04:31.992Z</time></trkpt><trkpt lat="44.5422083" lon="8.7788683"><ele>828.0</ele><time>2026-04-25T13:04:32.994Z</time></trkpt><trkpt lat="44.5422617" lon="8.7787417"><ele>828.0</ele><time>2026-04-25T13:04:33.992Z</time></trkpt><trkpt lat="44.5423217" lon="8.778625"><ele>828.0</ele><time>2026-04-25T13:04:34.999Z</time></trkpt><trkpt lat="44.5423883" lon="8.7785133"><ele>828.0</ele><time>2026-04-25T13:04:35.995Z</time></trkpt><trkpt lat="44.5424567" lon="8.7784033"><ele>825.8</ele><time>2026-04-25T13:04:36.996Z</time></trkpt><trkpt lat="44.5425283" lon="8.778295"><ele>823.5999999999999</ele><time>2026-04-25T13:04:37.996Z</time></trkpt><trkpt lat="44.5425983" lon="8.7781833"><ele>821.4000000000001</ele><time>2026-04-25T13:04:38.996Z</time></trkpt><trkpt lat="44.5426667" lon="8.77807"><ele>819.2</ele><time>2026-04-25T13:04:39.995Z</time></trkpt><trkpt lat="44.5427283" lon="8.7779433"><ele>817.0</ele><time>2026-04-25T13:04:40.994Z</time></trkpt><trkpt lat="44.5427733" lon="8.77781"><ele>814.75</ele><time>2026-04-25T13:04:41.996Z</time></trkpt><trkpt lat="44.542795" lon="8.7776567"><ele>812.5</ele><time>2026-04-25T13:04:42.993Z</time></trkpt><trkpt lat="44.5428133" lon="8.777495"><ele>810.25</ele><time>2026-04-25T13:04:43.998Z</time></trkpt><trkpt lat="44.54283" lon="8.7773283"><ele>808.0</ele><time>2026-04-25T13:04:44.997Z</time></trkpt><trkpt lat="44.54284" lon="8.77716"><ele>808.0</ele><time>2026-04-25T13:04:45.994Z</time></trkpt><trkpt lat="44.5428467" lon="8.776995"><ele>808.0</ele><time>2026-04-25T13:04:46.995Z</time></trkpt><trkpt lat="44.5428467" lon="8.7768317"><ele>808.0</ele><time>2026-04-25T13:04:47.995Z</time></trkpt><trkpt lat="44.5428433" lon="8.7766733"><ele>808.0</ele><time>2026-04-25T13:04:48.992Z</time></trkpt><trkpt lat="44.5428283" lon="8.7765233"><ele>808.2</ele><time>2026-04-25T13:04:49.994Z</time></trkpt><trkpt lat="44.5428" lon="8.7763833"><ele>808.4</ele><time>2026-04-25T13:04:50.995Z</time></trkpt><trkpt lat="44.5427717" lon="8.77624"><ele>808.6</ele><time>2026-04-25T13:04:51.996Z</time></trkpt><trkpt lat="44.5427433" lon="8.7761"><ele>808.8000000000001</ele><time>2026-04-25T13:04:52.994Z</time></trkpt><trkpt lat="44.5427367" lon="8.7759633"><ele>809.0</ele><time>2026-04-25T13:04:53.993Z</time></trkpt><trkpt lat="44.542745" lon="8.7758383"><ele>809.4000000000001</ele><time>2026-04-25T13:04:54.999Z</time></trkpt><trkpt lat="44.542775" lon="8.7757117"><ele>809.8</ele><time>2026-04-25T13:04:55.995Z</time></trkpt><trkpt lat="44.542805" lon="8.7755917"><ele>810.2</ele><time>2026-04-25T13:04:57.001Z</time></trkpt><trkpt lat="44.5428167" lon="8.7754667"><ele>810.5999999999999</ele><time>2026-04-25T13:04:57.995Z</time></trkpt><trkpt lat="44.542815" lon="8.775335"><ele>811.0</ele><time>2026-04-25T13:04:58.995Z</time></trkpt><trkpt lat="44.5428117" lon="8.7751983"><ele>808.4</ele><time>2026-04-25T13:04:59.997Z</time></trkpt><trkpt lat="44.5428183" lon="8.7750583"><ele>805.8</ele><time>2026-04-25T13:05:00.992Z</time></trkpt><trkpt lat="44.5428433" lon="8.7749283"><ele>803.1999999999999</ele><time>2026-04-25T13:05:01.996Z</time></trkpt><trkpt lat="44.54286" lon="8.774805"><ele>800.5999999999999</ele><time>2026-04-25T13:05:02.993Z</time></trkpt><trkpt lat="44.5428683" lon="8.7746767"><ele>798.0</ele><time>2026-04-25T13:05:03.998Z</time></trkpt><trkpt lat="44.5428583" lon="8.77454"><ele>798.0</ele><time>2026-04-25T13:05:04.995Z</time></trkpt><trkpt lat="44.5428417" lon="8.7744183"><ele>798.0</ele><time>2026-04-25T13:05:06.001Z</time></trkpt><trkpt lat="44.5428117" lon="8.7743"><ele>798.0</ele><time>2026-04-25T13:05:06.996Z</time></trkpt><trkpt lat="44.54277" lon="8.77419"><ele>798.0</ele><time>2026-04-25T13:05:07.993Z</time></trkpt><trkpt lat="44.5427283" lon="8.7740917"><ele>798.0</ele><time>2026-04-25T13:05:08.994Z</time></trkpt><trkpt lat="44.5426867" lon="8.7740083"><ele>798.0</ele><time>2026-04-25T13:05:09.999Z</time></trkpt><trkpt lat="44.54265" lon="8.7739267"><ele>798.1666666666666</ele><time>2026-04-25T13:05:10.996Z</time></trkpt><trkpt lat="44.5426117" lon="8.7738433"><ele>798.3333333333333</ele><time>2026-04-25T13:05:11.995Z</time></trkpt><trkpt lat="44.5425933" lon="8.7737517"><ele>798.5</ele><time>2026-04-25T13:05:12.994Z</time></trkpt><trkpt lat="44.5425717" lon="8.7736533"><ele>798.6666666666666</ele><time>2026-04-25T13:05:13.994Z</time></trkpt><trkpt lat="44.5425833" lon="8.7735283"><ele>798.8333333333333</ele><time>2026-04-25T13:05:14.993Z</time></trkpt><trkpt lat="44.5426117" lon="8.7734"><ele>799.0</ele><time>2026-04-25T13:05:15.994Z</time></trkpt><trkpt lat="44.5426467" lon="8.77327"><ele>799.0</ele><time>2026-04-25T13:05:16.994Z</time></trkpt><trkpt lat="44.5426933" lon="8.7731283"><ele>799.0</ele><time>2026-04-25T13:05:17.992Z</time></trkpt><trkpt lat="44.5427317" lon="8.77299"><ele>799.0</ele><time>2026-04-25T13:05:18.995Z</time></trkpt><trkpt lat="44.5427667" lon="8.77285"><ele>799.0</ele><time>2026-04-25T13:05:19.994Z</time></trkpt><trkpt lat="44.5427933" lon="8.772715"><ele>799.0</ele><time>2026-04-25T13:05:21Z</time></trkpt><trkpt lat="44.5428333" lon="8.7725983"><ele>798.9999999999999</ele><time>2026-04-25T13:05:21.998Z</time></trkpt><trkpt lat="44.54289" lon="8.7724967"><ele>799.0</ele><time>2026-04-25T13:05:22.995Z</time></trkpt><trkpt lat="44.5429433" lon="8.7724067"><ele>799.0</ele><time>2026-04-25T13:05:23.993Z</time></trkpt><trkpt lat="44.543" lon="8.7723367"><ele>799.0</ele><time>2026-04-25T13:05:24.994Z</time></trkpt><trkpt lat="44.5430517" lon="8.7722667"><ele>798.9999999999999</ele><time>2026-04-25T13:05:25.993Z</time></trkpt><trkpt lat="44.5431633" lon="8.7722083"><ele>799.0</ele><time>2026-04-25T13:05:27.993Z</time></trkpt><trkpt lat="44.5432483" lon="8.7722233"><ele>799.0</ele><time>2026-04-25T13:05:28.993Z</time></trkpt><trkpt lat="44.543335" lon="8.7722083"><ele>799.0</ele><time>2026-04-25T13:05:29.995Z</time></trkpt><trkpt lat="44.5434083" lon="8.772175"><ele>799.0</ele><time>2026-04-25T13:05:30.995Z</time></trkpt><trkpt lat="44.5434867" lon="8.772105"><ele>799.0</ele><time>2026-04-25T13:05:31.993Z</time></trkpt><trkpt lat="44.5435733" lon="8.7720117"><ele>799.0</ele><time>2026-04-25T13:05:32.994Z</time></trkpt><trkpt lat="44.5436517" lon="8.7719133"><ele>796.0</ele><time>2026-04-25T13:05:33.992Z</time></trkpt><trkpt lat="44.543735" lon="8.77183"><ele>793.0</ele><time>2026-04-25T13:05:34.996Z</time></trkpt><trkpt lat="44.543815" lon="8.7717517"><ele>790.0</ele><time>2026-04-25T13:05:35.994Z</time></trkpt><trkpt lat="44.543905" lon="8.7716783"><ele>787.0</ele><time>2026-04-25T13:05:36.993Z</time></trkpt><trkpt lat="44.5439983" lon="8.7716067"><ele>784.0</ele><time>2026-04-25T13:05:37.997Z</time></trkpt><trkpt lat="44.5440967" lon="8.7715417"><ele>784.0</ele><time>2026-04-25T13:05:38.992Z</time></trkpt><trkpt lat="44.5442" lon="8.7714983"><ele>784.0</ele><time>2026-04-25T13:05:39.994Z</time></trkpt><trkpt lat="44.5443083" lon="8.771465"><ele>784.0</ele><time>2026-04-25T13:05:41.003Z</time></trkpt><trkpt lat="44.5444183" lon="8.7714333"><ele>784.0</ele><time>2026-04-25T13:05:41.996Z</time></trkpt><trkpt lat="44.5445267" lon="8.7714233"><ele>784.0</ele><time>2026-04-25T13:05:42.994Z</time></trkpt><trkpt lat="44.5446367" lon="8.7714167"><ele>783.0</ele><time>2026-04-25T13:05:43.999Z</time></trkpt><trkpt lat="44.5447633" lon="8.7714167"><ele>782.0</ele><time>2026-04-25T13:05:44.994Z</time></trkpt><trkpt lat="44.544875" lon="8.771445"><ele>781.0</ele><time>2026-04-25T13:05:45.994Z</time></trkpt><trkpt lat="44.5449933" lon="8.7714883"><ele>780.0</ele><time>2026-04-25T13:05:46.994Z</time></trkpt><trkpt lat="44.545115" lon="8.7715217"><ele>780.0</ele><time>2026-04-25T13:05:47.994Z</time></trkpt><trkpt lat="44.545225" lon="8.771555"><ele>780.0</ele><time>2026-04-25T13:05:48.998Z</time></trkpt><trkpt lat="44.545325" lon="8.7715883"><ele>780.0</ele><time>2026-04-25T13:05:49.995Z</time></trkpt><trkpt lat="44.5454283" lon="8.7716167"><ele>780.0</ele><time>2026-04-25T13:05:51.001Z</time></trkpt><trkpt lat="44.54553" lon="8.77162"><ele>780.0</ele><time>2026-04-25T13:05:51.995Z</time></trkpt><trkpt lat="44.54563" lon="8.7716083"><ele>778.0</ele><time>2026-04-25T13:05:53.002Z</time></trkpt><trkpt lat="44.5457283" lon="8.7715933"><ele>776.0</ele><time>2026-04-25T13:05:53.999Z</time></trkpt><trkpt lat="44.545835" lon="8.7715883"><ele>774.0</ele><time>2026-04-25T13:05:54.997Z</time></trkpt><trkpt lat="44.5459433" lon="8.77161"><ele>772.0</ele><time>2026-04-25T13:05:55.999Z</time></trkpt><trkpt lat="44.5460433" lon="8.7716533"><ele>770.0</ele><time>2026-04-25T13:05:56.997Z</time></trkpt><trkpt lat="44.54614" lon="8.7717183"><ele>768.8</ele><time>2026-04-25T13:05:57.998Z</time></trkpt><trkpt lat="44.5462383" lon="8.7717967"><ele>767.6</ele><time>2026-04-25T13:05:58.994Z</time></trkpt><trkpt lat="44.54634" lon="8.77186"><ele>766.4000000000001</ele><time>2026-04-25T13:05:59.995Z</time></trkpt><trkpt lat="44.5464417" lon="8.7719083"><ele>765.2</ele><time>2026-04-25T13:06:00.994Z</time></trkpt><trkpt lat="44.546535" lon="8.77195"><ele>764.0</ele><time>2026-04-25T13:06:01.997Z</time></trkpt><trkpt lat="44.546615" lon="8.7719967"><ele>764.0</ele><time>2026-04-25T13:06:02.996Z</time></trkpt><trkpt lat="44.5466883" lon="8.772045"><ele>764.0</ele><time>2026-04-25T13:06:03.997Z</time></trkpt><trkpt lat="44.5467517" lon="8.7720733"><ele>764.0</ele><time>2026-04-25T13:06:04.993Z</time></trkpt><trkpt lat="44.54683" lon="8.772085"><ele>764.0</ele><time>2026-04-25T13:06:06.995Z</time></trkpt><trkpt lat="44.5468267" lon="8.7719683"><ele>764.0</ele><time>2026-04-25T13:06:10.992Z</time></trkpt><trkpt lat="44.5467717" lon="8.7719067"><ele>764.0</ele><time>2026-04-25T13:06:12.999Z</time></trkpt><trkpt lat="44.54666" lon="8.7718033"><ele>764.0</ele><time>2026-04-25T13:06:14.996Z</time></trkpt><trkpt lat="44.5465717" lon="8.7717267"><ele>764.0</ele><time>2026-04-25T13:06:15.997Z</time></trkpt><trkpt lat="44.5464667" lon="8.7716333"><ele>764.0</ele><time>2026-04-25T13:06:16.997Z</time></trkpt><trkpt lat="44.5463833" lon="8.7715533"><ele>764.0</ele><time>2026-04-25T13:06:17.995Z</time></trkpt><trkpt lat="44.5463" lon="8.771475"><ele>764.0</ele><time>2026-04-25T13:06:18.993Z</time></trkpt><trkpt lat="44.5461917" lon="8.7714167"><ele>765.2</ele><time>2026-04-25T13:06:19.993Z</time></trkpt><trkpt lat="44.5460883" lon="8.7713883"><ele>766.4000000000001</ele><time>2026-04-25T13:06:20.994Z</time></trkpt><trkpt lat="44.5459833" lon="8.771375"><ele>767.6</ele><time>2026-04-25T13:06:21.994Z</time></trkpt><trkpt lat="44.5458833" lon="8.771365"><ele>768.8</ele><time>2026-04-25T13:06:22.995Z</time></trkpt><trkpt lat="44.5457767" lon="8.77135"><ele>770.0</ele><time>2026-04-25T13:06:23.993Z</time></trkpt><trkpt lat="44.5456683" lon="8.7713183"><ele>770.0</ele><time>2026-04-25T13:06:24.995Z</time></trkpt><trkpt lat="44.545565" lon="8.7712583"><ele>770.0</ele><time>2026-04-25T13:06:25.997Z</time></trkpt><trkpt lat="44.54546" lon="8.771175"><ele>770.0</ele><time>2026-04-25T13:06:26.995Z</time></trkpt><trkpt lat="44.5453583" lon="8.7710933"><ele>770.0</ele><time>2026-04-25T13:06:27.994Z</time></trkpt><trkpt lat="44.5452617" lon="8.77103"><ele>768.8</ele><time>2026-04-25T13:06:28.996Z</time></trkpt><trkpt lat="44.5451517" lon="8.77098"><ele>767.6</ele><time>2026-04-25T13:06:29.997Z</time></trkpt><trkpt lat="44.545035" lon="8.770945"><ele>766.4000000000001</ele><time>2026-04-25T13:06:30.997Z</time></trkpt><trkpt lat="44.5449217" lon="8.7709183"><ele>765.2</ele><time>2026-04-25T13:06:31.998Z</time></trkpt><trkpt lat="44.5448267" lon="8.770905"><ele>764.0</ele><time>2026-04-25T13:06:32.995Z</time></trkpt><trkpt lat="44.544735" lon="8.7708783"><ele>764.0</ele><time>2026-04-25T13:06:33.995Z</time></trkpt><trkpt lat="44.5446583" lon="8.770825"><ele>764.0</ele><time>2026-04-25T13:06:34.995Z</time></trkpt><trkpt lat="44.5445833" lon="8.7707683"><ele>764.0</ele><time>2026-04-25T13:06:35.994Z</time></trkpt><trkpt lat="44.5445333" lon="8.7707033"><ele>764.0</ele><time>2026-04-25T13:06:36.994Z</time></trkpt><trkpt lat="44.5445083" lon="8.7706183"><ele>764.0</ele><time>2026-04-25T13:06:37.993Z</time></trkpt><trkpt lat="44.544505" lon="8.7704333"><ele>764.0</ele><time>2026-04-25T13:06:39.996Z</time></trkpt><trkpt lat="44.54456" lon="8.7702967"><ele>762.4000000000001</ele><time>2026-04-25T13:06:40.997Z</time></trkpt><trkpt lat="44.5446333" lon="8.7701617"><ele>760.8</ele><time>2026-04-25T13:06:41.992Z</time></trkpt><trkpt lat="44.544655" lon="8.77004"><ele>759.2</ele><time>2026-04-25T13:06:42.996Z</time></trkpt><trkpt lat="44.5446683" lon="8.7699117"><ele>757.5999999999999</ele><time>2026-04-25T13:06:43.991Z</time></trkpt><trkpt lat="44.5446783" lon="8.769795"><ele>756.0</ele><time>2026-04-25T13:06:44.999Z</time></trkpt><trkpt lat="44.5446733" lon="8.7696817"><ele>756.0</ele><time>2026-04-25T13:06:45.993Z</time></trkpt><trkpt lat="44.5446517" lon="8.7695683"><ele>756.0</ele><time>2026-04-25T13:06:46.995Z</time></trkpt><trkpt lat="44.544615" lon="8.7694583"><ele>756.0</ele><time>2026-04-25T13:06:47.992Z</time></trkpt><trkpt lat="44.5445783" lon="8.7693433"><ele>756.0</ele><time>2026-04-25T13:06:49Z</time></trkpt><trkpt lat="44.5445583" lon="8.7692283"><ele>756.0</ele><time>2026-04-25T13:06:50Z</time></trkpt><trkpt lat="44.5445517" lon="8.7691167"><ele>756.0</ele><time>2026-04-25T13:06:51.002Z</time></trkpt><trkpt lat="44.544555" lon="8.768985"><ele>756.3333333333334</ele><time>2026-04-25T13:06:52.001Z</time></trkpt><trkpt lat="44.5445417" lon="8.7688767"><ele>756.6666666666666</ele><time>2026-04-25T13:06:52.992Z</time></trkpt><trkpt lat="44.5445133" lon="8.7687717"><ele>757.0</ele><time>2026-04-25T13:06:53.994Z</time></trkpt><trkpt lat="44.5444783" lon="8.7686667"><ele>757.3333333333333</ele><time>2026-04-25T13:06:54.999Z</time></trkpt><trkpt lat="44.5444233" lon="8.7685683"><ele>757.6666666666666</ele><time>2026-04-25T13:06:55.998Z</time></trkpt><trkpt lat="44.5443517" lon="8.7684817"><ele>758.0</ele><time>2026-04-25T13:06:56.991Z</time></trkpt><trkpt lat="44.54428" lon="8.7684017"><ele>758.0</ele><time>2026-04-25T13:06:57.994Z</time></trkpt><trkpt lat="44.5442117" lon="8.7683183"><ele>758.0</ele><time>2026-04-25T13:06:58.991Z</time></trkpt><trkpt lat="44.5441417" lon="8.7682417"><ele>758.0</ele><time>2026-04-25T13:06:59.992Z</time></trkpt><trkpt lat="44.5440983" lon="8.768155"><ele>758.0</ele><time>2026-04-25T13:07:00.994Z</time></trkpt><trkpt lat="44.54406" lon="8.7680617"><ele>758.0</ele><time>2026-04-25T13:07:01.996Z</time></trkpt><trkpt lat="44.5440583" lon="8.767965"><ele>758.0</ele><time>2026-04-25T13:07:02.994Z</time></trkpt><trkpt lat="44.5440983" lon="8.76787"><ele>758.0</ele><time>2026-04-25T13:07:03.993Z</time></trkpt><trkpt lat="44.5441283" lon="8.7677617"><ele>758.0</ele><time>2026-04-25T13:07:04.999Z</time></trkpt><trkpt lat="44.5441867" lon="8.7676583"><ele>758.0</ele><time>2026-04-25T13:07:05.993Z</time></trkpt><trkpt lat="44.5442883" lon="8.7675567"><ele>758.0</ele><time>2026-04-25T13:07:06.997Z</time></trkpt><trkpt lat="44.5443783" lon="8.7674633"><ele>758.0</ele><time>2026-04-25T13:07:07.993Z</time></trkpt><trkpt lat="44.5444233" lon="8.7673483"><ele>756.0</ele><time>2026-04-25T13:07:08.998Z</time></trkpt><trkpt lat="44.5444283" lon="8.76723"><ele>754.0</ele><time>2026-04-25T13:07:09.995Z</time></trkpt><trkpt lat="44.5444117" lon="8.7671067"><ele>752.0</ele><time>2026-04-25T13:07:10.999Z</time></trkpt><trkpt lat="44.5443767" lon="8.7669833"><ele>750.0</ele><time>2026-04-25T13:07:11.997Z</time></trkpt><trkpt lat="44.5443367" lon="8.7668483"><ele>748.0</ele><time>2026-04-25T13:07:12.999Z</time></trkpt><trkpt lat="44.5442967" lon="8.7667083"><ele>747.4</ele><time>2026-04-25T13:07:13.996Z</time></trkpt><trkpt lat="44.54426" lon="8.76656"><ele>746.8</ele><time>2026-04-25T13:07:14.993Z</time></trkpt><trkpt lat="44.5442333" lon="8.7664083"><ele>746.2</ele><time>2026-04-25T13:07:15.997Z</time></trkpt><trkpt lat="44.5442167" lon="8.76626"><ele>745.6</ele><time>2026-04-25T13:07:16.999Z</time></trkpt><trkpt lat="44.5442233" lon="8.7661167"><ele>745.0</ele><time>2026-04-25T13:07:17.996Z</time></trkpt><trkpt lat="44.5442067" lon="8.76598"><ele>745.0</ele><time>2026-04-25T13:07:18.995Z</time></trkpt><trkpt lat="44.5441767" lon="8.7658533"><ele>745.0</ele><time>2026-04-25T13:07:19.995Z</time></trkpt><trkpt lat="44.5441317" lon="8.7657317"><ele>745.0</ele><time>2026-04-25T13:07:20.993Z</time></trkpt><trkpt lat="44.54409" lon="8.7656217"><ele>745.0</ele><time>2026-04-25T13:07:21.997Z</time></trkpt><trkpt lat="44.5440583" lon="8.765515"><ele>745.0</ele><time>2026-04-25T13:07:22.992Z</time></trkpt><trkpt lat="44.5440433" lon="8.765395"><ele>745.0</ele><time>2026-04-25T13:07:23.996Z</time></trkpt><trkpt lat="44.5440367" lon="8.7652717"><ele>745.0</ele><time>2026-04-25T13:07:24.994Z</time></trkpt><trkpt lat="44.544045" lon="8.7651467"><ele>745.0</ele><time>2026-04-25T13:07:25.996Z</time></trkpt><trkpt lat="44.5440617" lon="8.765015"><ele>745.0</ele><time>2026-04-25T13:07:26.996Z</time></trkpt><trkpt lat="44.544095" lon="8.7648733"><ele>745.0</ele><time>2026-04-25T13:07:27.994Z</time></trkpt><trkpt lat="44.544135" lon="8.7647267"><ele>744.25</ele><time>2026-04-25T13:07:28.995Z</time></trkpt><trkpt lat="44.54417" lon="8.7645733"><ele>743.5</ele><time>2026-04-25T13:07:29.992Z</time></trkpt><trkpt lat="44.544205" lon="8.7644117"><ele>742.75</ele><time>2026-04-25T13:07:30.997Z</time></trkpt><trkpt lat="44.5442367" lon="8.76424"><ele>742.0</ele><time>2026-04-25T13:07:31.993Z</time></trkpt><trkpt lat="44.544265" lon="8.7640617"><ele>740.6</ele><time>2026-04-25T13:07:32.992Z</time></trkpt><trkpt lat="44.5442817" lon="8.7638817"><ele>739.2</ele><time>2026-04-25T13:07:33.993Z</time></trkpt><trkpt lat="44.5442783" lon="8.7637167"><ele>737.8</ele><time>2026-04-25T13:07:34.992Z</time></trkpt><trkpt lat="44.5442567" lon="8.7635717"><ele>736.4</ele><time>2026-04-25T13:07:35.995Z</time></trkpt><trkpt lat="44.544225" lon="8.7634567"><ele>735.0</ele><time>2026-04-25T13:07:36.994Z</time></trkpt><trkpt lat="44.5441867" lon="8.7633567"><ele>735.0</ele><time>2026-04-25T13:07:37.993Z</time></trkpt><trkpt lat="44.54414" lon="8.7632633"><ele>735.0</ele><time>2026-04-25T13:07:38.996Z</time></trkpt><trkpt lat="44.54409" lon="8.763175"><ele>735.0</ele><time>2026-04-25T13:07:39.996Z</time></trkpt><trkpt lat="44.544045" lon="8.7630767"><ele>735.0</ele><time>2026-04-25T13:07:40.994Z</time></trkpt><trkpt lat="44.544005" lon="8.7629683"><ele>735.0</ele><time>2026-04-25T13:07:41.994Z</time></trkpt><trkpt lat="44.5439767" lon="8.76285"><ele>735.0</ele><time>2026-04-25T13:07:43.001Z</time></trkpt><trkpt lat="44.54396" lon="8.7627217"><ele>735.2</ele><time>2026-04-25T13:07:43.992Z</time></trkpt><trkpt lat="44.5439567" lon="8.7625867"><ele>735.4</ele><time>2026-04-25T13:07:44.997Z</time></trkpt><trkpt lat="44.5439867" lon="8.7624383"><ele>735.5999999999999</ele><time>2026-04-25T13:07:45.993Z</time></trkpt><trkpt lat="44.5440217" lon="8.7623033"><ele>735.8</ele><time>2026-04-25T13:07:46.994Z</time></trkpt><trkpt lat="44.5440433" lon="8.7621517"><ele>736.0</ele><time>2026-04-25T13:07:47.999Z</time></trkpt><trkpt lat="44.5440717" lon="8.7620067"><ele>736.0</ele><time>2026-04-25T13:07:48.993Z</time></trkpt><trkpt lat="44.544095" lon="8.76187"><ele>736.0</ele><time>2026-04-25T13:07:49.996Z</time></trkpt><trkpt lat="44.5441217" lon="8.7617483"><ele>736.0</ele><time>2026-04-25T13:07:50.995Z</time></trkpt><trkpt lat="44.544165" lon="8.7616267"><ele>736.0</ele><time>2026-04-25T13:07:51.991Z</time></trkpt><trkpt lat="44.544225" lon="8.7615167"><ele>736.0</ele><time>2026-04-25T13:07:52.995Z</time></trkpt><trkpt lat="44.5442983" lon="8.7614267"><ele>735.6666666666667</ele><time>2026-04-25T13:07:53.992Z</time></trkpt><trkpt lat="44.5443733" lon="8.7613533"><ele>735.3333333333334</ele><time>2026-04-25T13:07:54.997Z</time></trkpt><trkpt lat="44.5444717" lon="8.7612967"><ele>735.0</ele><time>2026-04-25T13:07:55.992Z</time></trkpt><trkpt lat="44.5445383" lon="8.7612233"><ele>734.6666666666666</ele><time>2026-04-25T13:07:56.995Z</time></trkpt><trkpt lat="44.54459" lon="8.7611417"><ele>734.3333333333333</ele><time>2026-04-25T13:07:57.996Z</time></trkpt><trkpt lat="44.544645" lon="8.761045"><ele>734.0</ele><time>2026-04-25T13:07:58.995Z</time></trkpt><trkpt lat="44.5446783" lon="8.7609283"><ele>736.6</ele><time>2026-04-25T13:07:59.997Z</time></trkpt><trkpt lat="44.5446833" lon="8.7607883"><ele>739.2</ele><time>2026-04-25T13:08:00.996Z</time></trkpt><trkpt lat="44.5446667" lon="8.7606367"><ele>741.8000000000001</ele><time>2026-04-25T13:08:01.995Z</time></trkpt><trkpt lat="44.5446583" lon="8.7605033"><ele>744.4000000000001</ele><time>2026-04-25T13:08:02.995Z</time></trkpt><trkpt lat="44.5446467" lon="8.76038"><ele>747.0</ele><time>2026-04-25T13:08:03.994Z</time></trkpt><trkpt lat="44.5446517" lon="8.7602567"><ele>746.3333333333334</ele><time>2026-04-25T13:08:04.997Z</time></trkpt><trkpt lat="44.54467" lon="8.7601417"><ele>745.6666666666666</ele><time>2026-04-25T13:08:05.995Z</time></trkpt><trkpt lat="44.5447083" lon="8.760025"><ele>745.0</ele><time>2026-04-25T13:08:06.996Z</time></trkpt><trkpt lat="44.5447117" lon="8.7598933"><ele>744.3333333333333</ele><time>2026-04-25T13:08:07.995Z</time></trkpt><trkpt lat="44.544695" lon="8.7597767"><ele>743.6666666666666</ele><time>2026-04-25T13:08:08.993Z</time></trkpt><trkpt lat="44.5446733" lon="8.7596633"><ele>743.0</ele><time>2026-04-25T13:08:09.993Z</time></trkpt><trkpt lat="44.5446417" lon="8.759555"><ele>743.0</ele><time>2026-04-25T13:08:10.993Z</time></trkpt><trkpt lat="44.54461" lon="8.75944"><ele>743.0</ele><time>2026-04-25T13:08:12.002Z</time></trkpt><trkpt lat="44.5445833" lon="8.75932"><ele>743.0</ele><time>2026-04-25T13:08:13Z</time></trkpt><trkpt lat="44.5445567" lon="8.7591933"><ele>743.0</ele><time>2026-04-25T13:08:13.997Z</time></trkpt><trkpt lat="44.5445317" lon="8.7590633"><ele>743.0</ele><time>2026-04-25T13:08:14.996Z</time></trkpt><trkpt lat="44.544515" lon="8.7589317"><ele>740.0</ele><time>2026-04-25T13:08:15.996Z</time></trkpt><trkpt lat="44.5445" lon="8.7587983"><ele>737.0</ele><time>2026-04-25T13:08:16.997Z</time></trkpt><trkpt lat="44.54449" lon="8.7586667"><ele>734.0</ele><time>2026-04-25T13:08:17.998Z</time></trkpt><trkpt lat="44.5444883" lon="8.758535"><ele>731.0</ele><time>2026-04-25T13:08:18.994Z</time></trkpt><trkpt lat="44.5445067" lon="8.758425"><ele>728.0</ele><time>2026-04-25T13:08:20Z</time></trkpt><trkpt lat="44.544515" lon="8.75831"><ele>725.0</ele><time>2026-04-25T13:08:21Z</time></trkpt><trkpt lat="44.5445133" lon="8.7581867"><ele>725.0</ele><time>2026-04-25T13:08:21.997Z</time></trkpt><trkpt lat="44.5445033" lon="8.758065"><ele>725.0</ele><time>2026-04-25T13:08:22.999Z</time></trkpt><trkpt lat="44.544505" lon="8.7579483"><ele>725.0</ele><time>2026-04-25T13:08:23.994Z</time></trkpt><trkpt lat="44.54452" lon="8.7578367"><ele>725.0</ele><time>2026-04-25T13:08:24.995Z</time></trkpt><trkpt lat="44.5445517" lon="8.757735"><ele>725.0</ele><time>2026-04-25T13:08:25.996Z</time></trkpt><trkpt lat="44.54459" lon="8.7576433"><ele>725.0</ele><time>2026-04-25T13:08:26.999Z</time></trkpt><trkpt lat="44.5446383" lon="8.7575733"><ele>726.4</ele><time>2026-04-25T13:08:27.996Z</time></trkpt><trkpt lat="44.5447067" lon="8.75751"><ele>727.8</ele><time>2026-04-25T13:08:28.997Z</time></trkpt><trkpt lat="44.5447717" lon="8.7574483"><ele>729.2</ele><time>2026-04-25T13:08:29.998Z</time></trkpt><trkpt lat="44.5448517" lon="8.75738"><ele>730.6</ele><time>2026-04-25T13:08:31.002Z</time></trkpt><trkpt lat="44.5449317" lon="8.75731"><ele>732.0</ele><time>2026-04-25T13:08:32.001Z</time></trkpt><trkpt lat="44.5450333" lon="8.7572317"><ele>732.0</ele><time>2026-04-25T13:08:33.002Z</time></trkpt><trkpt lat="44.54512" lon="8.7571633"><ele>732.0</ele><time>2026-04-25T13:08:33.998Z</time></trkpt><trkpt lat="44.5452267" lon="8.7571083"><ele>732.0</ele><time>2026-04-25T13:08:34.995Z</time></trkpt><trkpt lat="44.5453333" lon="8.757055"><ele>732.0</ele><time>2026-04-25T13:08:35.997Z</time></trkpt><trkpt lat="44.5454383" lon="8.7570367"><ele>732.0</ele><time>2026-04-25T13:08:37.005Z</time></trkpt><trkpt lat="44.5455517" lon="8.7570133"><ele>733.2</ele><time>2026-04-25T13:08:37.999Z</time></trkpt><trkpt lat="44.545655" lon="8.7569667"><ele>734.4000000000001</ele><time>2026-04-25T13:08:38.999Z</time></trkpt><trkpt lat="44.5457683" lon="8.75695"><ele>735.5999999999999</ele><time>2026-04-25T13:08:39.994Z</time></trkpt><trkpt lat="44.5458783" lon="8.756945"><ele>736.8</ele><time>2026-04-25T13:08:40.998Z</time></trkpt><trkpt lat="44.5459883" lon="8.7569367"><ele>738.0</ele><time>2026-04-25T13:08:41.996Z</time></trkpt><trkpt lat="44.5461017" lon="8.7569517"><ele>738.0</ele><time>2026-04-25T13:08:42.996Z</time></trkpt><trkpt lat="44.546205" lon="8.7569583"><ele>738.0</ele><time>2026-04-25T13:08:43.997Z</time></trkpt><trkpt lat="44.5462733" lon="8.7569367"><ele>738.0</ele><time>2026-04-25T13:08:44.996Z</time></trkpt><trkpt lat="44.5463533" lon="8.756855"><ele>738.0</ele><time>2026-04-25T13:08:46.995Z</time></trkpt><trkpt lat="44.546385" lon="8.7566983"><ele>738.0</ele><time>2026-04-25T13:08:49.002Z</time></trkpt><trkpt lat="44.5463917" lon="8.7565917"><ele>737.8</ele><time>2026-04-25T13:08:49.997Z</time></trkpt><trkpt lat="44.5464017" lon="8.7564667"><ele>737.5999999999999</ele><time>2026-04-25T13:08:50.999Z</time></trkpt><trkpt lat="44.5464133" lon="8.7563367"><ele>737.4000000000001</ele><time>2026-04-25T13:08:51.996Z</time></trkpt><trkpt lat="44.5464" lon="8.7561933"><ele>737.2</ele><time>2026-04-25T13:08:52.998Z</time></trkpt><trkpt lat="44.5464267" lon="8.756085"><ele>737.0</ele><time>2026-04-25T13:08:53.995Z</time></trkpt><trkpt lat="44.5464483" lon="8.7559717"><ele>737.0</ele><time>2026-04-25T13:08:54.996Z</time></trkpt><trkpt lat="44.5464783" lon="8.7558617"><ele>737.0</ele><time>2026-04-25T13:08:55.995Z</time></trkpt><trkpt lat="44.5465167" lon="8.7557483"><ele>737.0</ele><time>2026-04-25T13:08:56.996Z</time></trkpt><trkpt lat="44.5465583" lon="8.7556233"><ele>737.0</ele><time>2026-04-25T13:08:57.993Z</time></trkpt><trkpt lat="44.5465967" lon="8.7554883"><ele>737.0</ele><time>2026-04-25T13:08:58.997Z</time></trkpt><trkpt lat="44.546635" lon="8.7553467"><ele>734.6</ele><time>2026-04-25T13:08:59.996Z</time></trkpt><trkpt lat="44.5466717" lon="8.7552033"><ele>732.2</ele><time>2026-04-25T13:09:00.998Z</time></trkpt><trkpt lat="44.5467133" lon="8.7550567"><ele>729.8</ele><time>2026-04-25T13:09:01.996Z</time></trkpt><trkpt lat="44.5467383" lon="8.7549017"><ele>727.4</ele><time>2026-04-25T13:09:02.994Z</time></trkpt><trkpt lat="44.5467567" lon="8.7547467"><ele>725.0</ele><time>2026-04-25T13:09:03.997Z</time></trkpt><trkpt lat="44.5467767" lon="8.75459"><ele>725.0</ele><time>2026-04-25T13:09:04.997Z</time></trkpt><trkpt lat="44.5467983" lon="8.754435"><ele>725.0</ele><time>2026-04-25T13:09:05.994Z</time></trkpt><trkpt lat="44.5468067" lon="8.7542833"><ele>725.0</ele><time>2026-04-25T13:09:06.997Z</time></trkpt><trkpt lat="44.546805" lon="8.7541283"><ele>725.0</ele><time>2026-04-25T13:09:07.996Z</time></trkpt><trkpt lat="44.5468033" lon="8.753975"><ele>725.0</ele><time>2026-04-25T13:09:08.995Z</time></trkpt><trkpt lat="44.5467933" lon="8.75382"><ele>724.2</ele><time>2026-04-25T13:09:09.993Z</time></trkpt><trkpt lat="44.5467633" lon="8.7536667"><ele>723.4</ele><time>2026-04-25T13:09:10.997Z</time></trkpt><trkpt lat="44.5467283" lon="8.7535233"><ele>722.5999999999999</ele><time>2026-04-25T13:09:11.997Z</time></trkpt><trkpt lat="44.5466817" lon="8.7533933"><ele>721.8</ele><time>2026-04-25T13:09:12.996Z</time></trkpt><trkpt lat="44.54664" lon="8.753265"><ele>721.0</ele><time>2026-04-25T13:09:13.994Z</time></trkpt><trkpt lat="44.5466" lon="8.7531367"><ele>721.0</ele><time>2026-04-25T13:09:14.999Z</time></trkpt><trkpt lat="44.5465617" lon="8.7530183"><ele>721.0</ele><time>2026-04-25T13:09:16.007Z</time></trkpt><trkpt lat="44.546535" lon="8.7528933"><ele>721.0</ele><time>2026-04-25T13:09:16.995Z</time></trkpt><trkpt lat="44.546505" lon="8.752775"><ele>721.0</ele><time>2026-04-25T13:09:17.994Z</time></trkpt><trkpt lat="44.5464967" lon="8.7526767"><ele>721.0</ele><time>2026-04-25T13:09:18.998Z</time></trkpt><trkpt lat="44.5464783" lon="8.7525733"><ele>721.0</ele><time>2026-04-25T13:09:19.998Z</time></trkpt><trkpt lat="44.5464817" lon="8.75247"><ele>720.5999999999999</ele><time>2026-04-25T13:09:20.995Z</time></trkpt><trkpt lat="44.54649" lon="8.7523483"><ele>720.2</ele><time>2026-04-25T13:09:21.995Z</time></trkpt><trkpt lat="44.5465117" lon="8.7522183"><ele>719.8</ele><time>2026-04-25T13:09:22.997Z</time></trkpt><trkpt lat="44.5465033" lon="8.7520883"><ele>719.4000000000001</ele><time>2026-04-25T13:09:24.002Z</time></trkpt><trkpt lat="44.5464733" lon="8.75196"><ele>719.0</ele><time>2026-04-25T13:09:24.997Z</time></trkpt><trkpt lat="44.5464317" lon="8.7518333"><ele>719.0</ele><time>2026-04-25T13:09:25.993Z</time></trkpt><trkpt lat="44.5463783" lon="8.75172"><ele>719.0</ele><time>2026-04-25T13:09:26.998Z</time></trkpt><trkpt lat="44.5463217" lon="8.7516133"><ele>719.0</ele><time>2026-04-25T13:09:28Z</time></trkpt><trkpt lat="44.546255" lon="8.7515167"><ele>719.0</ele><time>2026-04-25T13:09:28.996Z</time></trkpt><trkpt lat="44.546185" lon="8.7514183"><ele>719.0</ele><time>2026-04-25T13:09:29.996Z</time></trkpt><trkpt lat="44.54611" lon="8.75133"><ele>714.0</ele><time>2026-04-25T13:09:30.993Z</time></trkpt><trkpt lat="44.5460333" lon="8.751255"><ele>709.0</ele><time>2026-04-25T13:09:31.995Z</time></trkpt><trkpt lat="44.5459717" lon="8.7511683"><ele>704.0</ele><time>2026-04-25T13:09:32.998Z</time></trkpt><trkpt lat="44.545925" lon="8.75107"><ele>699.0</ele><time>2026-04-25T13:09:33.998Z</time></trkpt><trkpt lat="44.5458917" lon="8.7509667"><ele>694.0</ele><time>2026-04-25T13:09:34.995Z</time></trkpt><trkpt lat="44.5458733" lon="8.75085"><ele>689.0</ele><time>2026-04-25T13:09:35.999Z</time></trkpt><trkpt lat="44.5458617" lon="8.750735"><ele>689.0</ele><time>2026-04-25T13:09:36.995Z</time></trkpt><trkpt lat="44.54586" lon="8.7506033"><ele>689.0</ele><time>2026-04-25T13:09:37.993Z</time></trkpt><trkpt lat="44.545825" lon="8.7504933"><ele>689.0</ele><time>2026-04-25T13:09:38.994Z</time></trkpt><trkpt lat="44.54579" lon="8.7503867"><ele>689.0</ele><time>2026-04-25T13:09:39.995Z</time></trkpt><trkpt lat="44.5457467" lon="8.7502883"><ele>689.0</ele><time>2026-04-25T13:09:41.002Z</time></trkpt><trkpt lat="44.5456933" lon="8.7502067"><ele>689.0</ele><time>2026-04-25T13:09:41.993Z</time></trkpt><trkpt lat="44.5456483" lon="8.7501317"><ele>689.3333333333333</ele><time>2026-04-25T13:09:42.996Z</time></trkpt><trkpt lat="44.5456" lon="8.7500717"><ele>689.6666666666666</ele><time>2026-04-25T13:09:43.997Z</time></trkpt><trkpt lat="44.5455383" lon="8.7499217"><ele>690.0</ele><time>2026-04-25T13:09:45.995Z</time></trkpt><trkpt lat="44.5455117" lon="8.7498317"><ele>690.3333333333334</ele><time>2026-04-25T13:09:46.997Z</time></trkpt><trkpt lat="44.545505" lon="8.749725"><ele>690.6666666666667</ele><time>2026-04-25T13:09:47.996Z</time></trkpt><trkpt lat="44.5455117" lon="8.749605"><ele>691.0</ele><time>2026-04-25T13:09:49.002Z</time></trkpt><trkpt lat="44.5455217" lon="8.7494717"><ele>690.4</ele><time>2026-04-25T13:09:50Z</time></trkpt><trkpt lat="44.5455383" lon="8.7493317"><ele>689.8</ele><time>2026-04-25T13:09:50.997Z</time></trkpt><trkpt lat="44.5455533" lon="8.7491867"><ele>689.1999999999999</ele><time>2026-04-25T13:09:51.993Z</time></trkpt><trkpt lat="44.54558" lon="8.749035"><ele>688.5999999999999</ele><time>2026-04-25T13:09:52.994Z</time></trkpt><trkpt lat="44.5456167" lon="8.748885"><ele>688.0</ele><time>2026-04-25T13:09:53.991Z</time></trkpt><trkpt lat="44.5456467" lon="8.7487567"><ele>688.0</ele><time>2026-04-25T13:09:54.997Z</time></trkpt><trkpt lat="44.5456567" lon="8.7486317"><ele>688.0</ele><time>2026-04-25T13:09:55.992Z</time></trkpt><trkpt lat="44.5456567" lon="8.7485133"><ele>688.0</ele><time>2026-04-25T13:09:56.997Z</time></trkpt><trkpt lat="44.54565" lon="8.7484033"><ele>688.0</ele><time>2026-04-25T13:09:57.998Z</time></trkpt><trkpt lat="44.5456267" lon="8.7483033"><ele>688.0</ele><time>2026-04-25T13:09:58.995Z</time></trkpt><trkpt lat="44.545575" lon="8.7482133"><ele>688.0</ele><time>2026-04-25T13:09:59.998Z</time></trkpt><trkpt lat="44.5454917" lon="8.7481433"><ele>688.5</ele><time>2026-04-25T13:10:00.996Z</time></trkpt><trkpt lat="44.5454317" lon="8.7480517"><ele>689.0</ele><time>2026-04-25T13:10:01.999Z</time></trkpt><trkpt lat="44.5453767" lon="8.747955"><ele>689.5</ele><time>2026-04-25T13:10:02.995Z</time></trkpt><trkpt lat="44.5453383" lon="8.7478517"><ele>690.0</ele><time>2026-04-25T13:10:04Z</time></trkpt><trkpt lat="44.5453167" lon="8.7477317"><ele>690.5</ele><time>2026-04-25T13:10:04.993Z</time></trkpt><trkpt lat="44.54532" lon="8.747615"><ele>691.0</ele><time>2026-04-25T13:10:05.993Z</time></trkpt><trkpt lat="44.545295" lon="8.74751"><ele>687.0</ele><time>2026-04-25T13:10:06.992Z</time></trkpt><trkpt lat="44.54527" lon="8.747415"><ele>683.0</ele><time>2026-04-25T13:10:07.991Z</time></trkpt><trkpt lat="44.54524" lon="8.747325"><ele>679.0</ele><time>2026-04-25T13:10:08.995Z</time></trkpt><trkpt lat="44.5451817" lon="8.7472483"><ele>675.0</ele><time>2026-04-25T13:10:09.998Z</time></trkpt><trkpt lat="44.5450917" lon="8.7471767"><ele>671.0</ele><time>2026-04-25T13:10:10.992Z</time></trkpt><trkpt lat="44.5450183" lon="8.7470883"><ele>667.0</ele><time>2026-04-25T13:10:11.993Z</time></trkpt><trkpt lat="44.5449567" lon="8.7469783"><ele>667.6666666666667</ele><time>2026-04-25T13:10:12.998Z</time></trkpt><trkpt lat="44.5449133" lon="8.746855"><ele>668.3333333333334</ele><time>2026-04-25T13:10:13.998Z</time></trkpt><trkpt lat="44.5448867" lon="8.7467283"><ele>669.0</ele><time>2026-04-25T13:10:14.998Z</time></trkpt><trkpt lat="44.5448867" lon="8.7465883"><ele>669.6666666666666</ele><time>2026-04-25T13:10:15.995Z</time></trkpt><trkpt lat="44.5448533" lon="8.74649"><ele>670.3333333333333</ele><time>2026-04-25T13:10:16.996Z</time></trkpt><trkpt lat="44.544815" lon="8.7464133"><ele>671.0</ele><time>2026-04-25T13:10:17.993Z</time></trkpt><trkpt lat="44.544775" lon="8.7463283"><ele>671.0</ele><time>2026-04-25T13:10:18.997Z</time></trkpt><trkpt lat="44.5447233" lon="8.7462733"><ele>671.0</ele><time>2026-04-25T13:10:19.994Z</time></trkpt><trkpt lat="44.5446483" lon="8.7462367"><ele>671.0</ele><time>2026-04-25T13:10:20.997Z</time></trkpt><trkpt lat="44.54458" lon="8.7461867"><ele>671.0</ele><time>2026-04-25T13:10:21.994Z</time></trkpt><trkpt lat="44.5445267" lon="8.746125"><ele>671.0</ele><time>2026-04-25T13:10:22.993Z</time></trkpt><trkpt lat="44.5444817" lon="8.7460517"><ele>671.0</ele><time>2026-04-25T13:10:23.996Z</time></trkpt><trkpt lat="44.54446" lon="8.7459583"><ele>671.0</ele><time>2026-04-25T13:10:25.001Z</time></trkpt><trkpt lat="44.5444667" lon="8.7458517"><ele>670.5999999999999</ele><time>2026-04-25T13:10:25.994Z</time></trkpt><trkpt lat="44.544475" lon="8.74575"><ele>670.2</ele><time>2026-04-25T13:10:26.998Z</time></trkpt><trkpt lat="44.5445183" lon="8.7456333"><ele>669.8</ele><time>2026-04-25T13:10:27.993Z</time></trkpt><trkpt lat="44.5445933" lon="8.745525"><ele>669.4000000000001</ele><time>2026-04-25T13:10:28.996Z</time></trkpt><trkpt lat="44.5446233" lon="8.7454017"><ele>669.0</ele><time>2026-04-25T13:10:29.995Z</time></trkpt><trkpt lat="44.5446533" lon="8.7452733"><ele>669.0</ele><time>2026-04-25T13:10:30.998Z</time></trkpt><trkpt lat="44.5446817" lon="8.745145"><ele>669.0</ele><time>2026-04-25T13:10:31.999Z</time></trkpt><trkpt lat="44.5447017" lon="8.7450083"><ele>669.0</ele><time>2026-04-25T13:10:32.998Z</time></trkpt><trkpt lat="44.5447283" lon="8.7448933"><ele>669.0</ele><time>2026-04-25T13:10:33.999Z</time></trkpt><trkpt lat="44.54475" lon="8.744785"><ele>669.0</ele><time>2026-04-25T13:10:34.997Z</time></trkpt><trkpt lat="44.5447583" lon="8.7446933"><ele>669.0</ele><time>2026-04-25T13:10:35.995Z</time></trkpt><trkpt lat="44.5447533" lon="8.74453"><ele>669.0</ele><time>2026-04-25T13:10:37.994Z</time></trkpt><trkpt lat="44.544685" lon="8.7444017"><ele>669.0</ele><time>2026-04-25T13:10:39.996Z</time></trkpt><trkpt lat="44.544625" lon="8.74436"><ele>669.0</ele><time>2026-04-25T13:10:40.996Z</time></trkpt><trkpt lat="44.5445717" lon="8.7442933"><ele>669.0</ele><time>2026-04-25T13:10:41.997Z</time></trkpt><trkpt lat="44.5445117" lon="8.7442133"><ele>669.0</ele><time>2026-04-25T13:10:42.994Z</time></trkpt><trkpt lat="44.5444533" lon="8.744125"><ele>669.0</ele><time>2026-04-25T13:10:44.002Z</time></trkpt><trkpt lat="44.5443933" lon="8.7440183"><ele>666.0</ele><time>2026-04-25T13:10:45Z</time></trkpt><trkpt lat="44.5443367" lon="8.7439017"><ele>663.0</ele><time>2026-04-25T13:10:45.996Z</time></trkpt><trkpt lat="44.5442817" lon="8.7437867"><ele>660.0</ele><time>2026-04-25T13:10:46.991Z</time></trkpt><trkpt lat="44.544235" lon="8.7436483"><ele>657.0</ele><time>2026-04-25T13:10:47.992Z</time></trkpt><trkpt lat="44.5442083" lon="8.7434967"><ele>654.0</ele><time>2026-04-25T13:10:48.993Z</time></trkpt><trkpt lat="44.544205" lon="8.7433333"><ele>654.0</ele><time>2026-04-25T13:10:49.994Z</time></trkpt><trkpt lat="44.54419" lon="8.743155"><ele>654.0</ele><time>2026-04-25T13:10:50.993Z</time></trkpt><trkpt lat="44.5441767" lon="8.742975"><ele>654.0</ele><time>2026-04-25T13:10:51.996Z</time></trkpt><trkpt lat="44.5441633" lon="8.7427983"><ele>654.0</ele><time>2026-04-25T13:10:52.998Z</time></trkpt><trkpt lat="44.5441567" lon="8.7426233"><ele>654.3333333333334</ele><time>2026-04-25T13:10:53.994Z</time></trkpt><trkpt lat="44.54415" lon="8.7424633"><ele>654.6666666666666</ele><time>2026-04-25T13:10:54.999Z</time></trkpt><trkpt lat="44.54413" lon="8.7423267"><ele>655.0</ele><time>2026-04-25T13:10:55.998Z</time></trkpt><trkpt lat="44.5440983" lon="8.7422217"><ele>655.3333333333333</ele><time>2026-04-25T13:10:56.998Z</time></trkpt><trkpt lat="44.54406" lon="8.7421333"><ele>655.6666666666666</ele><time>2026-04-25T13:10:57.994Z</time></trkpt><trkpt lat="44.5440083" lon="8.74205"><ele>656.0</ele><time>2026-04-25T13:10:58.996Z</time></trkpt><trkpt lat="44.5439233" lon="8.7419883"><ele>656.0</ele><time>2026-04-25T13:10:59.996Z</time></trkpt><trkpt lat="44.5438333" lon="8.7419067"><ele>656.0</ele><time>2026-04-25T13:11:00.997Z</time></trkpt><trkpt lat="44.54375" lon="8.7418083"><ele>656.0</ele><time>2026-04-25T13:11:01.997Z</time></trkpt><trkpt lat="44.5436767" lon="8.741695"><ele>656.0</ele><time>2026-04-25T13:11:02.994Z</time></trkpt><trkpt lat="44.5436033" lon="8.741565"><ele>656.0</ele><time>2026-04-25T13:11:03.997Z</time></trkpt><trkpt lat="44.5435267" lon="8.7414217"><ele>657.5</ele><time>2026-04-25T13:11:04.996Z</time></trkpt><trkpt lat="44.5434433" lon="8.741275"><ele>659.0</ele><time>2026-04-25T13:11:05.994Z</time></trkpt><trkpt lat="44.543355" lon="8.74114"><ele>660.5</ele><time>2026-04-25T13:11:06.996Z</time></trkpt><trkpt lat="44.5432667" lon="8.7410017"><ele>662.0</ele><time>2026-04-25T13:11:07.995Z</time></trkpt><trkpt lat="44.543185" lon="8.7408567"><ele>662.0</ele><time>2026-04-25T13:11:08.998Z</time></trkpt><trkpt lat="44.5431117" lon="8.7407133"><ele>662.0</ele><time>2026-04-25T13:11:09.993Z</time></trkpt><trkpt lat="44.5430433" lon="8.7405767"><ele>662.0</ele><time>2026-04-25T13:11:10.994Z</time></trkpt><trkpt lat="44.542975" lon="8.7404583"><ele>662.0</ele><time>2026-04-25T13:11:11.999Z</time></trkpt><trkpt lat="44.5429" lon="8.7403633"><ele>660.0</ele><time>2026-04-25T13:11:12.998Z</time></trkpt><trkpt lat="44.542835" lon="8.7402817"><ele>658.0</ele><time>2026-04-25T13:11:13.995Z</time></trkpt><trkpt lat="44.5427783" lon="8.7402"><ele>656.0</ele><time>2026-04-25T13:11:14.993Z</time></trkpt><trkpt lat="44.542735" lon="8.7400917"><ele>654.0</ele><time>2026-04-25T13:11:15.996Z</time></trkpt><trkpt lat="44.5427067" lon="8.7399717"><ele>652.0</ele><time>2026-04-25T13:11:16.996Z</time></trkpt><trkpt lat="44.54268" lon="8.7398433"><ele>650.0</ele><time>2026-04-25T13:11:17.998Z</time></trkpt><trkpt lat="44.542635" lon="8.739715"><ele>650.0</ele><time>2026-04-25T13:11:18.995Z</time></trkpt><trkpt lat="44.54258" lon="8.7396033"><ele>650.0</ele><time>2026-04-25T13:11:19.992Z</time></trkpt><trkpt lat="44.5425283" lon="8.7395083"><ele>650.0</ele><time>2026-04-25T13:11:20.994Z</time></trkpt><trkpt lat="44.54248" lon="8.7394267"><ele>650.0</ele><time>2026-04-25T13:11:21.993Z</time></trkpt><trkpt lat="44.54243" lon="8.7393483"><ele>650.0</ele><time>2026-04-25T13:11:22.994Z</time></trkpt><trkpt lat="44.5423783" lon="8.7392617"><ele>650.0</ele><time>2026-04-25T13:11:23.994Z</time></trkpt><trkpt lat="44.5423267" lon="8.739165"><ele>652.6666666666666</ele><time>2026-04-25T13:11:24.996Z</time></trkpt><trkpt lat="44.5422917" lon="8.7390583"><ele>655.3333333333333</ele><time>2026-04-25T13:11:25.994Z</time></trkpt><trkpt lat="44.5422567" lon="8.73895"><ele>658.0</ele><time>2026-04-25T13:11:27Z</time></trkpt><trkpt lat="44.5422267" lon="8.7388283"><ele>660.6666666666666</ele><time>2026-04-25T13:11:27.996Z</time></trkpt><trkpt lat="44.54219" lon="8.738705"><ele>663.3333333333334</ele><time>2026-04-25T13:11:28.995Z</time></trkpt><trkpt lat="44.54216" lon="8.7385817"><ele>666.0</ele><time>2026-04-25T13:11:29.994Z</time></trkpt><trkpt lat="44.5421367" lon="8.7384617"><ele>668.4</ele><time>2026-04-25T13:11:30.993Z</time></trkpt><trkpt lat="44.5421117" lon="8.7383417"><ele>670.8</ele><time>2026-04-25T13:11:31.993Z</time></trkpt><trkpt lat="44.5420983" lon="8.7382117"><ele>673.1999999999999</ele><time>2026-04-25T13:11:33.001Z</time></trkpt><trkpt lat="44.5420767" lon="8.7380683"><ele>675.5999999999999</ele><time>2026-04-25T13:11:33.994Z</time></trkpt><trkpt lat="44.5420517" lon="8.737925"><ele>678.0</ele><time>2026-04-25T13:11:34.993Z</time></trkpt><trkpt lat="44.54202" lon="8.7377783"><ele>673.5</ele><time>2026-04-25T13:11:35.997Z</time></trkpt><trkpt lat="44.541975" lon="8.737645"><ele>669.0</ele><time>2026-04-25T13:11:36.995Z</time></trkpt><trkpt lat="44.54193" lon="8.737525"><ele>664.5</ele><time>2026-04-25T13:11:37.995Z</time></trkpt><trkpt lat="44.5418967" lon="8.7374133"><ele>660.0</ele><time>2026-04-25T13:11:38.993Z</time></trkpt><trkpt lat="44.5418767" lon="8.7373"><ele>655.5</ele><time>2026-04-25T13:11:39.995Z</time></trkpt><trkpt lat="44.5418617" lon="8.7372083"><ele>651.0</ele><time>2026-04-25T13:11:40.992Z</time></trkpt><trkpt lat="44.5418667" lon="8.7370933"><ele>651.0</ele><time>2026-04-25T13:11:41.994Z</time></trkpt><trkpt lat="44.54188" lon="8.73697"><ele>651.0</ele><time>2026-04-25T13:11:42.993Z</time></trkpt><trkpt lat="44.5419217" lon="8.7368317"><ele>651.0</ele><time>2026-04-25T13:11:43.992Z</time></trkpt><trkpt lat="44.5419883" lon="8.7366667"><ele>651.0</ele><time>2026-04-25T13:11:44.996Z</time></trkpt><trkpt lat="44.542035" lon="8.7365067"><ele>656.25</ele><time>2026-04-25T13:11:45.996Z</time></trkpt><trkpt lat="44.5420833" lon="8.7363433"><ele>661.5</ele><time>2026-04-25T13:11:46.996Z</time></trkpt><trkpt lat="44.542135" lon="8.73619"><ele>666.75</ele><time>2026-04-25T13:11:47.995Z</time></trkpt><trkpt lat="44.54218" lon="8.7360417"><ele>672.0</ele><time>2026-04-25T13:11:48.993Z</time></trkpt><trkpt lat="44.5422433" lon="8.7359117"><ele>672.0</ele><time>2026-04-25T13:11:49.996Z</time></trkpt><trkpt lat="44.5423083" lon="8.73578"><ele>672.0</ele><time>2026-04-25T13:11:50.995Z</time></trkpt><trkpt lat="44.5424083" lon="8.735675"><ele>672.0</ele><time>2026-04-25T13:11:51.999Z</time></trkpt><trkpt lat="44.54251" lon="8.7355683"><ele>672.0</ele><time>2026-04-25T13:11:52.995Z</time></trkpt><trkpt lat="44.5425933" lon="8.7354533"><ele>672.0</ele><time>2026-04-25T13:11:53.997Z</time></trkpt><trkpt lat="44.5426633" lon="8.7353433"><ele>672.0</ele><time>2026-04-25T13:11:54.996Z</time></trkpt><trkpt lat="44.5427183" lon="8.735215"><ele>672.0</ele><time>2026-04-25T13:11:55.993Z</time></trkpt><trkpt lat="44.5427433" lon="8.735065"><ele>672.0</ele><time>2026-04-25T13:11:56.996Z</time></trkpt><trkpt lat="44.5427617" lon="8.7349033"><ele>672.0</ele><time>2026-04-25T13:11:57.996Z</time></trkpt><trkpt lat="44.5427767" lon="8.7347333"><ele>669.5</ele><time>2026-04-25T13:11:58.995Z</time></trkpt><trkpt lat="44.542775" lon="8.73455"><ele>667.0</ele><time>2026-04-25T13:11:59.999Z</time></trkpt><trkpt lat="44.542765" lon="8.7343717"><ele>664.5</ele><time>2026-04-25T13:12:00.996Z</time></trkpt><trkpt lat="44.5427433" lon="8.7341917"><ele>662.0</ele><time>2026-04-25T13:12:01.998Z</time></trkpt><trkpt lat="44.5427117" lon="8.7340183"><ele>662.0</ele><time>2026-04-25T13:12:02.997Z</time></trkpt><trkpt lat="44.5426667" lon="8.7338483"><ele>662.0</ele><time>2026-04-25T13:12:03.994Z</time></trkpt><trkpt lat="44.542615" lon="8.7337033"><ele>662.0</ele><time>2026-04-25T13:12:04.993Z</time></trkpt><trkpt lat="44.542565" lon="8.7335833"><ele>662.0</ele><time>2026-04-25T13:12:05.994Z</time></trkpt><trkpt lat="44.5425383" lon="8.733475"><ele>662.0</ele><time>2026-04-25T13:12:06.995Z</time></trkpt><trkpt lat="44.5425167" lon="8.7333617"><ele>663.5</ele><time>2026-04-25T13:12:07.994Z</time></trkpt><trkpt lat="44.5425083" lon="8.733245"><ele>665.0</ele><time>2026-04-25T13:12:09Z</time></trkpt><trkpt lat="44.54254" lon="8.7331317"><ele>666.5</ele><time>2026-04-25T13:12:09.994Z</time></trkpt><trkpt lat="44.5425333" lon="8.733035"><ele>668.0</ele><time>2026-04-25T13:12:10.996Z</time></trkpt><trkpt lat="44.5425183" lon="8.7328733"><ele>669.5</ele><time>2026-04-25T13:12:12.996Z</time></trkpt><trkpt lat="44.5425" lon="8.7327883"><ele>671.0</ele><time>2026-04-25T13:12:13.997Z</time></trkpt><trkpt lat="44.542425" lon="8.7326483"><ele>672.4</ele><time>2026-04-25T13:12:15.995Z</time></trkpt><trkpt lat="44.5423633" lon="8.7325733"><ele>673.8</ele><time>2026-04-25T13:12:16.994Z</time></trkpt><trkpt lat="44.5423183" lon="8.73249"><ele>675.1999999999999</ele><time>2026-04-25T13:12:17.996Z</time></trkpt><trkpt lat="44.542225" lon="8.7324083"><ele>676.5999999999999</ele><time>2026-04-25T13:12:19.002Z</time></trkpt><trkpt lat="44.5421283" lon="8.7323417"><ele>678.0</ele><time>2026-04-25T13:12:19.993Z</time></trkpt><trkpt lat="44.54204" lon="8.7322817"><ele>678.0</ele><time>2026-04-25T13:12:20.995Z</time></trkpt><trkpt lat="44.5419533" lon="8.732225"><ele>678.0</ele><time>2026-04-25T13:12:21.997Z</time></trkpt><trkpt lat="44.5418417" lon="8.7321717"><ele>678.0</ele><time>2026-04-25T13:12:23Z</time></trkpt><trkpt lat="44.54174" lon="8.7321567"><ele>678.0</ele><time>2026-04-25T13:12:23.993Z</time></trkpt><trkpt lat="44.5416417" lon="8.73215"><ele>678.0</ele><time>2026-04-25T13:12:24.997Z</time></trkpt><trkpt lat="44.541555" lon="8.732175"><ele>678.0</ele><time>2026-04-25T13:12:25.997Z</time></trkpt><trkpt lat="44.541495" lon="8.7322317"><ele>678.0</ele><time>2026-04-25T13:12:27Z</time></trkpt><trkpt lat="44.5414117" lon="8.732265"><ele>678.0</ele><time>2026-04-25T13:12:27.995Z</time></trkpt><trkpt lat="44.5413217" lon="8.7322383"><ele>678.0</ele><time>2026-04-25T13:12:29.997Z</time></trkpt><trkpt lat="44.5412567" lon="8.7320967"><ele>678.0</ele><time>2026-04-25T13:12:32.996Z</time></trkpt><trkpt lat="44.5411867" lon="8.7319867"><ele>675.5999999999999</ele><time>2026-04-25T13:12:34.993Z</time></trkpt><trkpt lat="44.5410683" lon="8.731935"><ele>673.1999999999999</ele><time>2026-04-25T13:12:36.995Z</time></trkpt><trkpt lat="44.5410033" lon="8.73192"><ele>670.8</ele><time>2026-04-25T13:12:37.996Z</time></trkpt><trkpt lat="44.5409167" lon="8.731915"><ele>668.4</ele><time>2026-04-25T13:12:38.994Z</time></trkpt><trkpt lat="44.5408283" lon="8.7319067"><ele>666.0</ele><time>2026-04-25T13:12:39.996Z</time></trkpt><trkpt lat="44.54074" lon="8.7319267"><ele>666.0</ele><time>2026-04-25T13:12:40.992Z</time></trkpt><trkpt lat="44.5406417" lon="8.73194"><ele>666.0</ele><time>2026-04-25T13:12:41.996Z</time></trkpt><trkpt lat="44.5405483" lon="8.7319483"><ele>666.0</ele><time>2026-04-25T13:12:42.996Z</time></trkpt><trkpt lat="44.5404583" lon="8.731955"><ele>666.0</ele><time>2026-04-25T13:12:43.996Z</time></trkpt><trkpt lat="44.5403667" lon="8.731985"><ele>666.0</ele><time>2026-04-25T13:12:44.994Z</time></trkpt><trkpt lat="44.5402883" lon="8.7319817"><ele>663.7142857142858</ele><time>2026-04-25T13:12:45.997Z</time></trkpt><trkpt lat="44.5402217" lon="8.7319617"><ele>661.4285714285713</ele><time>2026-04-25T13:12:46.994Z</time></trkpt><trkpt lat="44.540155" lon="8.7319283"><ele>659.1428571428571</ele><time>2026-04-25T13:12:47.998Z</time></trkpt><trkpt lat="44.5400833" lon="8.731905"><ele>656.8571428571429</ele><time>2026-04-25T13:12:48.997Z</time></trkpt><trkpt lat="44.5400117" lon="8.7318933"><ele>654.5714285714287</ele><time>2026-04-25T13:12:49.996Z</time></trkpt><trkpt lat="44.5399267" lon="8.731875"><ele>652.2857142857142</ele><time>2026-04-25T13:12:50.996Z</time></trkpt><trkpt lat="44.53986" lon="8.7318633"><ele>650.0</ele><time>2026-04-25T13:12:52Z</time></trkpt><trkpt lat="44.5397883" lon="8.73185"><ele>650.5</ele><time>2026-04-25T13:12:53Z</time></trkpt><trkpt lat="44.53972" lon="8.731835"><ele>651.0</ele><time>2026-04-25T13:12:54.001Z</time></trkpt><trkpt lat="44.5396467" lon="8.731805"><ele>651.5</ele><time>2026-04-25T13:12:54.996Z</time></trkpt><trkpt lat="44.5395767" lon="8.7317717"><ele>652.0</ele><time>2026-04-25T13:12:55.997Z</time></trkpt><trkpt lat="44.53951" lon="8.7317583"><ele>652.5</ele><time>2026-04-25T13:12:56.995Z</time></trkpt><trkpt lat="44.539395" lon="8.7317333"><ele>653.0</ele><time>2026-04-25T13:12:58.996Z</time></trkpt><trkpt lat="44.5392933" lon="8.73167"><ele>653.0</ele><time>2026-04-25T13:13:00.996Z</time></trkpt><trkpt lat="44.5392333" lon="8.7315567"><ele>653.0</ele><time>2026-04-25T13:13:03.001Z</time></trkpt><trkpt lat="44.5392167" lon="8.73144"><ele>653.0</ele><time>2026-04-25T13:13:04.994Z</time></trkpt><trkpt lat="44.53925" lon="8.73129"><ele>653.0</ele><time>2026-04-25T13:13:06.997Z</time></trkpt><trkpt lat="44.5392717" lon="8.731115"><ele>653.0</ele><time>2026-04-25T13:13:08.995Z</time></trkpt><trkpt lat="44.5392633" lon="8.73095"><ele>653.8333333333333</ele><time>2026-04-25T13:13:10.993Z</time></trkpt><trkpt lat="44.539255" lon="8.73085"><ele>654.6666666666666</ele><time>2026-04-25T13:13:11.997Z</time></trkpt><trkpt lat="44.5392367" lon="8.7307467"><ele>655.5</ele><time>2026-04-25T13:13:12.997Z</time></trkpt><trkpt lat="44.5391983" lon="8.730655"><ele>656.3333333333334</ele><time>2026-04-25T13:13:13.998Z</time></trkpt><trkpt lat="44.5391583" lon="8.73056"><ele>657.1666666666667</ele><time>2026-04-25T13:13:14.993Z</time></trkpt><trkpt lat="44.5391233" lon="8.7303783"><ele>658.0</ele><time>2026-04-25T13:13:17.001Z</time></trkpt><trkpt lat="44.539105" lon="8.73027"><ele>659.3333333333334</ele><time>2026-04-25T13:13:17.993Z</time></trkpt><trkpt lat="44.5391" lon="8.730155"><ele>660.6666666666667</ele><time>2026-04-25T13:13:18.997Z</time></trkpt><trkpt lat="44.5391" lon="8.73005"><ele>662.0</ele><time>2026-04-25T13:13:19.996Z</time></trkpt><trkpt lat="44.5391" lon="8.729955"><ele>663.3333333333334</ele><time>2026-04-25T13:13:20.995Z</time></trkpt><trkpt lat="44.539095" lon="8.7298567"><ele>664.6666666666666</ele><time>2026-04-25T13:13:21.992Z</time></trkpt><trkpt lat="44.5390767" lon="8.7297583"><ele>666.0</ele><time>2026-04-25T13:13:22.993Z</time></trkpt><trkpt lat="44.53905" lon="8.7296383"><ele>666.0</ele><time>2026-04-25T13:13:23.994Z</time></trkpt><trkpt lat="44.5390067" lon="8.7295217"><ele>666.0</ele><time>2026-04-25T13:13:24.995Z</time></trkpt><trkpt lat="44.5389883" lon="8.72942"><ele>666.0</ele><time>2026-04-25T13:13:25.993Z</time></trkpt><trkpt lat="44.538945" lon="8.729315"><ele>666.0</ele><time>2026-04-25T13:13:26.994Z</time></trkpt><trkpt lat="44.5389067" lon="8.72921"><ele>666.0</ele><time>2026-04-25T13:13:27.996Z</time></trkpt><trkpt lat="44.5388467" lon="8.7291333"><ele>666.0</ele><time>2026-04-25T13:13:28.993Z</time></trkpt><trkpt lat="44.538785" lon="8.7290767"><ele>663.4</ele><time>2026-04-25T13:13:29.995Z</time></trkpt><trkpt lat="44.5387167" lon="8.7289967"><ele>660.8</ele><time>2026-04-25T13:13:30.994Z</time></trkpt><trkpt lat="44.5386167" lon="8.7289767"><ele>658.1999999999999</ele><time>2026-04-25T13:13:31.991Z</time></trkpt><trkpt lat="44.538515" lon="8.728925"><ele>655.5999999999999</ele><time>2026-04-25T13:13:32.999Z</time></trkpt><trkpt lat="44.5384283" lon="8.7288717"><ele>653.0</ele><time>2026-04-25T13:13:33.992Z</time></trkpt><trkpt lat="44.5383283" lon="8.72882"><ele>653.0</ele><time>2026-04-25T13:13:34.995Z</time></trkpt><trkpt lat="44.5382333" lon="8.7287883"><ele>653.0</ele><time>2026-04-25T13:13:35.994Z</time></trkpt><trkpt lat="44.53813" lon="8.728775"><ele>653.0</ele><time>2026-04-25T13:13:37.001Z</time></trkpt><trkpt lat="44.5380167" lon="8.728785"><ele>653.0</ele><time>2026-04-25T13:13:37.998Z</time></trkpt><trkpt lat="44.53792" lon="8.7288333"><ele>653.0</ele><time>2026-04-25T13:13:39Z</time></trkpt><trkpt lat="44.5378133" lon="8.7288867"><ele>651.5999999999999</ele><time>2026-04-25T13:13:40Z</time></trkpt><trkpt lat="44.537715" lon="8.7289133"><ele>650.1999999999999</ele><time>2026-04-25T13:13:40.992Z</time></trkpt><trkpt lat="44.5376267" lon="8.7289517"><ele>648.8</ele><time>2026-04-25T13:13:41.997Z</time></trkpt><trkpt lat="44.53753" lon="8.7289767"><ele>647.4</ele><time>2026-04-25T13:13:42.997Z</time></trkpt><trkpt lat="44.53743" lon="8.7289933"><ele>646.0</ele><time>2026-04-25T13:13:43.996Z</time></trkpt><trkpt lat="44.53734" lon="8.728975"><ele>646.0000000000001</ele><time>2026-04-25T13:13:45.008Z</time></trkpt><trkpt lat="44.53726" lon="8.7289617"><ele>646.0</ele><time>2026-04-25T13:13:45.999Z</time></trkpt><trkpt lat="44.53718" lon="8.7289383"><ele>646.0</ele><time>2026-04-25T13:13:46.997Z</time></trkpt><trkpt lat="44.5371067" lon="8.72891"><ele>646.0</ele><time>2026-04-25T13:13:47.996Z</time></trkpt><trkpt lat="44.5370483" lon="8.72887"><ele>646.0</ele><time>2026-04-25T13:13:48.998Z</time></trkpt><trkpt lat="44.5369933" lon="8.7288233"><ele>646.0000000000001</ele><time>2026-04-25T13:13:49.997Z</time></trkpt><trkpt lat="44.53694" lon="8.7287667"><ele>646.0</ele><time>2026-04-25T13:13:51.001Z</time></trkpt><trkpt lat="44.536875" lon="8.72871"><ele>645.8571428571429</ele><time>2026-04-25T13:13:51.999Z</time></trkpt><trkpt lat="44.5368267" lon="8.7286317"><ele>645.7142857142858</ele><time>2026-04-25T13:13:52.997Z</time></trkpt><trkpt lat="44.5367783" lon="8.72856"><ele>645.5714285714287</ele><time>2026-04-25T13:13:53.997Z</time></trkpt><trkpt lat="44.53673" lon="8.7285"><ele>645.4285714285714</ele><time>2026-04-25T13:13:54.994Z</time></trkpt><trkpt lat="44.5366817" lon="8.7284367"><ele>645.2857142857142</ele><time>2026-04-25T13:13:55.996Z</time></trkpt><trkpt lat="44.5366367" lon="8.7283617"><ele>645.1428571428572</ele><time>2026-04-25T13:13:56.994Z</time></trkpt><trkpt lat="44.5366117" lon="8.7282783"><ele>645.0</ele><time>2026-04-25T13:13:57.991Z</time></trkpt><trkpt lat="44.53661" lon="8.7281233"><ele>645.0</ele><time>2026-04-25T13:13:59.994Z</time></trkpt><trkpt lat="44.5366367" lon="8.72795"><ele>645.0</ele><time>2026-04-25T13:14:01.992Z</time></trkpt><trkpt lat="44.5366683" lon="8.7278583"><ele>645.0</ele><time>2026-04-25T13:14:02.999Z</time></trkpt><trkpt lat="44.5366917" lon="8.72777"><ele>645.0</ele><time>2026-04-25T13:14:03.994Z</time></trkpt><trkpt lat="44.536715" lon="8.727685"><ele>645.0</ele><time>2026-04-25T13:14:04.995Z</time></trkpt><trkpt lat="44.53672" lon="8.72759"><ele>645.0</ele><time>2026-04-25T13:14:05.994Z</time></trkpt><trkpt lat="44.5366683" lon="8.7274133"><ele>645.6666666666666</ele><time>2026-04-25T13:14:07.995Z</time></trkpt><trkpt lat="44.53662" lon="8.7273267"><ele>646.3333333333334</ele><time>2026-04-25T13:14:08.996Z</time></trkpt><trkpt lat="44.53655" lon="8.7272433"><ele>647.0</ele><time>2026-04-25T13:14:09.998Z</time></trkpt><trkpt lat="44.536475" lon="8.727165"><ele>647.6666666666667</ele><time>2026-04-25T13:14:10.996Z</time></trkpt><trkpt lat="44.53641" lon="8.7271033"><ele>648.3333333333334</ele><time>2026-04-25T13:14:11.994Z</time></trkpt><trkpt lat="44.53634" lon="8.7270483"><ele>649.0</ele><time>2026-04-25T13:14:12.995Z</time></trkpt><trkpt lat="44.5362667" lon="8.7270083"><ele>645.1666666666667</ele><time>2026-04-25T13:14:13.999Z</time></trkpt><trkpt lat="44.5361967" lon="8.7269733"><ele>641.3333333333334</ele><time>2026-04-25T13:14:14.994Z</time></trkpt><trkpt lat="44.5361133" lon="8.7269467"><ele>637.5</ele><time>2026-04-25T13:14:15.997Z</time></trkpt><trkpt lat="44.5360283" lon="8.7269283"><ele>633.6666666666666</ele><time>2026-04-25T13:14:16.996Z</time></trkpt><trkpt lat="44.5359467" lon="8.7269367"><ele>629.8333333333333</ele><time>2026-04-25T13:14:17.997Z</time></trkpt><trkpt lat="44.5358833" lon="8.7269483"><ele>626.0</ele><time>2026-04-25T13:14:18.994Z</time></trkpt><trkpt lat="44.5357833" lon="8.72701"><ele>626.0</ele><time>2026-04-25T13:14:20.999Z</time></trkpt><trkpt lat="44.5356933" lon="8.727005"><ele>626.0</ele><time>2026-04-25T13:14:22.995Z</time></trkpt><trkpt lat="44.5355633" lon="8.7269583"><ele>626.0</ele><time>2026-04-25T13:14:24.997Z</time></trkpt><trkpt lat="44.5354883" lon="8.7269183"><ele>626.0</ele><time>2026-04-25T13:14:25.996Z</time></trkpt><trkpt lat="44.5354017" lon="8.726885"><ele>626.0</ele><time>2026-04-25T13:14:26.995Z</time></trkpt><trkpt lat="44.5353133" lon="8.7268733"><ele>630.3333333333333</ele><time>2026-04-25T13:14:27.997Z</time></trkpt><trkpt lat="44.5352267" lon="8.7268483"><ele>634.6666666666666</ele><time>2026-04-25T13:14:28.992Z</time></trkpt><trkpt lat="44.53514" lon="8.7268267"><ele>639.0</ele><time>2026-04-25T13:14:29.998Z</time></trkpt><trkpt lat="44.535045" lon="8.7268217"><ele>643.3333333333334</ele><time>2026-04-25T13:14:30.995Z</time></trkpt><trkpt lat="44.534965" lon="8.7268167"><ele>647.6666666666667</ele><time>2026-04-25T13:14:31.996Z</time></trkpt><trkpt lat="44.53489" lon="8.7268133"><ele>652.0</ele><time>2026-04-25T13:14:32.996Z</time></trkpt><trkpt lat="44.5348083" lon="8.726815"><ele>652.0</ele><time>2026-04-25T13:14:33.996Z</time></trkpt><trkpt lat="44.5347333" lon="8.7268283"><ele>652.0</ele><time>2026-04-25T13:14:34.994Z</time></trkpt><trkpt lat="44.5346533" lon="8.7268617"><ele>652.0</ele><time>2026-04-25T13:14:35.998Z</time></trkpt><trkpt lat="44.5345733" lon="8.7269117"><ele>652.0</ele><time>2026-04-25T13:14:36.998Z</time></trkpt><trkpt lat="44.5345017" lon="8.7269833"><ele>652.0</ele><time>2026-04-25T13:14:37.993Z</time></trkpt><trkpt lat="44.5344267" lon="8.7270633"><ele>652.0</ele><time>2026-04-25T13:14:38.996Z</time></trkpt><trkpt lat="44.53436" lon="8.7271417"><ele>648.1666666666667</ele><time>2026-04-25T13:14:39.995Z</time></trkpt><trkpt lat="44.5342833" lon="8.7272217"><ele>644.3333333333334</ele><time>2026-04-25T13:14:40.998Z</time></trkpt><trkpt lat="44.5342133" lon="8.72729"><ele>640.5</ele><time>2026-04-25T13:14:41.991Z</time></trkpt><trkpt lat="44.534145" lon="8.7273683"><ele>636.6666666666666</ele><time>2026-04-25T13:14:42.996Z</time></trkpt><trkpt lat="44.53408" lon="8.7274317"><ele>632.8333333333333</ele><time>2026-04-25T13:14:43.999Z</time></trkpt><trkpt lat="44.5340267" lon="8.727485"><ele>629.0</ele><time>2026-04-25T13:14:44.992Z</time></trkpt><trkpt lat="44.5339633" lon="8.7275217"><ele>629.0</ele><time>2026-04-25T13:14:45.994Z</time></trkpt><trkpt lat="44.533895" lon="8.72755"><ele>629.0</ele><time>2026-04-25T13:14:46.994Z</time></trkpt><trkpt lat="44.5338317" lon="8.727555"><ele>629.0</ele><time>2026-04-25T13:14:47.996Z</time></trkpt><trkpt lat="44.5337633" lon="8.7275483"><ele>629.0</ele><time>2026-04-25T13:14:48.994Z</time></trkpt><trkpt lat="44.53369" lon="8.727535"><ele>629.0</ele><time>2026-04-25T13:14:49.993Z</time></trkpt><trkpt lat="44.5336117" lon="8.727525"><ele>629.0</ele><time>2026-04-25T13:14:50.997Z</time></trkpt><trkpt lat="44.5335267" lon="8.72752"><ele>629.0</ele><time>2026-04-25T13:14:51.995Z</time></trkpt><trkpt lat="44.533425" lon="8.7275217"><ele>628.0</ele><time>2026-04-25T13:14:52.999Z</time></trkpt><trkpt lat="44.5333333" lon="8.7275183"><ele>627.0</ele><time>2026-04-25T13:14:53.997Z</time></trkpt><trkpt lat="44.5332417" lon="8.72752"><ele>626.0</ele><time>2026-04-25T13:14:54.996Z</time></trkpt><trkpt lat="44.533155" lon="8.727515"><ele>625.0</ele><time>2026-04-25T13:14:55.994Z</time></trkpt><trkpt lat="44.5330783" lon="8.7275017"><ele>624.0</ele><time>2026-04-25T13:14:56.997Z</time></trkpt><trkpt lat="44.5330083" lon="8.7274917"><ele>623.0</ele><time>2026-04-25T13:14:57.997Z</time></trkpt><trkpt lat="44.5329367" lon="8.7274867"><ele>617.4</ele><time>2026-04-25T13:14:58.993Z</time></trkpt><trkpt lat="44.5328367" lon="8.7274467"><ele>611.8</ele><time>2026-04-25T13:15:00.992Z</time></trkpt><trkpt lat="44.532765" lon="8.7273717"><ele>606.2</ele><time>2026-04-25T13:15:03.001Z</time></trkpt><trkpt lat="44.5327433" lon="8.7272433"><ele>600.6</ele><time>2026-04-25T13:15:04.999Z</time></trkpt><trkpt lat="44.532715" lon="8.7270833"><ele>595.0</ele><time>2026-04-25T13:15:06.995Z</time></trkpt><trkpt lat="44.5326833" lon="8.7270067"><ele>595.0</ele><time>2026-04-25T13:15:07.995Z</time></trkpt><trkpt lat="44.5326517" lon="8.7269233"><ele>595.0</ele><time>2026-04-25T13:15:08.995Z</time></trkpt><trkpt lat="44.5326133" lon="8.7268367"><ele>595.0</ele><time>2026-04-25T13:15:09.994Z</time></trkpt><trkpt lat="44.5325733" lon="8.726745"><ele>595.0</ele><time>2026-04-25T13:15:10.997Z</time></trkpt><trkpt lat="44.5325233" lon="8.7266367"><ele>595.0</ele><time>2026-04-25T13:15:11.998Z</time></trkpt><trkpt lat="44.53247" lon="8.726515"><ele>595.0</ele><time>2026-04-25T13:15:12.994Z</time></trkpt><trkpt lat="44.5324" lon="8.7263883"><ele>594.2</ele><time>2026-04-25T13:15:13.999Z</time></trkpt><trkpt lat="44.5323333" lon="8.72629"><ele>593.4</ele><time>2026-04-25T13:15:15Z</time></trkpt><trkpt lat="44.5322633" lon="8.7261983"><ele>592.6</ele><time>2026-04-25T13:15:15.991Z</time></trkpt><trkpt lat="44.5321683" lon="8.726095"><ele>591.8</ele><time>2026-04-25T13:15:16.997Z</time></trkpt><trkpt lat="44.5320817" lon="8.7259917"><ele>591.0</ele><time>2026-04-25T13:15:17.995Z</time></trkpt><trkpt lat="44.5319817" lon="8.72591"><ele>591.0</ele><time>2026-04-25T13:15:18.995Z</time></trkpt><trkpt lat="44.5319017" lon="8.7258317"><ele>591.0</ele><time>2026-04-25T13:15:19.994Z</time></trkpt><trkpt lat="44.531825" lon="8.72576"><ele>591.0</ele><time>2026-04-25T13:15:20.999Z</time></trkpt><trkpt lat="44.5317467" lon="8.7256883"><ele>591.0</ele><time>2026-04-25T13:15:21.993Z</time></trkpt><trkpt lat="44.531675" lon="8.725635"><ele>591.0</ele><time>2026-04-25T13:15:22.994Z</time></trkpt><trkpt lat="44.5316217" lon="8.72558"><ele>591.0</ele><time>2026-04-25T13:15:23.996Z</time></trkpt><trkpt lat="44.53154" lon="8.725485"><ele>591.0</ele><time>2026-04-25T13:15:25.996Z</time></trkpt><trkpt lat="44.5315517" lon="8.72532"><ele>591.0</ele><time>2026-04-25T13:15:27.992Z</time></trkpt><trkpt lat="44.5315817" lon="8.7251683"><ele>591.0</ele><time>2026-04-25T13:15:29.996Z</time></trkpt><trkpt lat="44.5315883" lon="8.725065"><ele>591.0</ele><time>2026-04-25T13:15:31Z</time></trkpt><trkpt lat="44.5316117" lon="8.7249717"><ele>591.0</ele><time>2026-04-25T13:15:31.995Z</time></trkpt><trkpt lat="44.5316233" lon="8.7248667"><ele>591.8</ele><time>2026-04-25T13:15:33.001Z</time></trkpt><trkpt lat="44.5316417" lon="8.7247533"><ele>592.6</ele><time>2026-04-25T13:15:33.996Z</time></trkpt><trkpt lat="44.531665" lon="8.7246433"><ele>593.4</ele><time>2026-04-25T13:15:34.996Z</time></trkpt><trkpt lat="44.5317217" lon="8.7244767"><ele>594.2</ele><time>2026-04-25T13:15:35.994Z</time></trkpt><trkpt lat="44.53176" lon="8.724375"><ele>595.0</ele><time>2026-04-25T13:15:36.997Z</time></trkpt><trkpt lat="44.531785" lon="8.7242633"><ele>592.8333333333334</ele><time>2026-04-25T13:15:37.997Z</time></trkpt><trkpt lat="44.5317883" lon="8.72413"><ele>590.6666666666667</ele><time>2026-04-25T13:15:38.999Z</time></trkpt><trkpt lat="44.531765" lon="8.723985"><ele>588.5</ele><time>2026-04-25T13:15:39.993Z</time></trkpt><trkpt lat="44.5317783" lon="8.7238633"><ele>586.3333333333334</ele><time>2026-04-25T13:15:40.993Z</time></trkpt><trkpt lat="44.5317933" lon="8.7237683"><ele>584.1666666666666</ele><time>2026-04-25T13:15:41.997Z</time></trkpt><trkpt lat="44.5318117" lon="8.7236817"><ele>582.0</ele><time>2026-04-25T13:15:42.999Z</time></trkpt><trkpt lat="44.5318417" lon="8.7236017"><ele>581.4</ele><time>2026-04-25T13:15:43.992Z</time></trkpt><trkpt lat="44.5319233" lon="8.7234717"><ele>580.8000000000001</ele><time>2026-04-25T13:15:45.995Z</time></trkpt><trkpt lat="44.53197" lon="8.7234083"><ele>580.2</ele><time>2026-04-25T13:15:46.995Z</time></trkpt><trkpt lat="44.532065" lon="8.7233217"><ele>579.6</ele><time>2026-04-25T13:15:48.996Z</time></trkpt><trkpt lat="44.5321067" lon="8.7232083"><ele>579.0</ele><time>2026-04-25T13:15:50.996Z</time></trkpt><trkpt lat="44.5321017" lon="8.7230817"><ele>579.0</ele><time>2026-04-25T13:15:52.994Z</time></trkpt><trkpt lat="44.53205" lon="8.7229333"><ele>579.0</ele><time>2026-04-25T13:15:54.999Z</time></trkpt><trkpt lat="44.53202" lon="8.7228517"><ele>579.0</ele><time>2026-04-25T13:15:55.996Z</time></trkpt><trkpt lat="44.5319617" lon="8.7227617"><ele>579.0</ele><time>2026-04-25T13:15:56.998Z</time></trkpt><trkpt lat="44.5318767" lon="8.7227067"><ele>579.0</ele><time>2026-04-25T13:15:57.998Z</time></trkpt><trkpt lat="44.5318017" lon="8.7226533"><ele>579.0</ele><time>2026-04-25T13:15:58.994Z</time></trkpt><trkpt lat="44.5316917" lon="8.722615"><ele>583.5</ele><time>2026-04-25T13:15:59.995Z</time></trkpt><trkpt lat="44.531585" lon="8.7226133"><ele>588.0</ele><time>2026-04-25T13:16:00.995Z</time></trkpt><trkpt lat="44.531475" lon="8.722625"><ele>592.5</ele><time>2026-04-25T13:16:01.998Z</time></trkpt><trkpt lat="44.531335" lon="8.7226067"><ele>597.0</ele><time>2026-04-25T13:16:02.998Z</time></trkpt><trkpt lat="44.53122" lon="8.722605"><ele>597.0</ele><time>2026-04-25T13:16:03.993Z</time></trkpt><trkpt lat="44.5311033" lon="8.72261"><ele>597.0</ele><time>2026-04-25T13:16:04.998Z</time></trkpt><trkpt lat="44.5309633" lon="8.7226283"><ele>597.0</ele><time>2026-04-25T13:16:05.994Z</time></trkpt><trkpt lat="44.530845" lon="8.7226783"><ele>597.0</ele><time>2026-04-25T13:16:06.997Z</time></trkpt><trkpt lat="44.5307483" lon="8.722735"><ele>590.2</ele><time>2026-04-25T13:16:07.996Z</time></trkpt><trkpt lat="44.5306667" lon="8.7227717"><ele>583.4000000000001</ele><time>2026-04-25T13:16:08.994Z</time></trkpt><trkpt lat="44.53058" lon="8.7228017"><ele>576.5999999999999</ele><time>2026-04-25T13:16:09.996Z</time></trkpt><trkpt lat="44.53049" lon="8.7228333"><ele>569.8</ele><time>2026-04-25T13:16:10.994Z</time></trkpt><trkpt lat="44.5304033" lon="8.7228567"><ele>563.0</ele><time>2026-04-25T13:16:11.996Z</time></trkpt><trkpt lat="44.53031" lon="8.7228983"><ele>562.3333333333333</ele><time>2026-04-25T13:16:12.993Z</time></trkpt><trkpt lat="44.5302117" lon="8.7229283"><ele>561.6666666666666</ele><time>2026-04-25T13:16:14.001Z</time></trkpt><trkpt lat="44.5301183" lon="8.7229633"><ele>561.0</ele><time>2026-04-25T13:16:14.999Z</time></trkpt><trkpt lat="44.5300367" lon="8.7229883"><ele>560.3333333333334</ele><time>2026-04-25T13:16:15.995Z</time></trkpt><trkpt lat="44.5299617" lon="8.7230133"><ele>559.6666666666667</ele><time>2026-04-25T13:16:16.994Z</time></trkpt><trkpt lat="44.529895" lon="8.7230333"><ele>559.0</ele><time>2026-04-25T13:16:17.996Z</time></trkpt><trkpt lat="44.5298267" lon="8.723055"><ele>559.0</ele><time>2026-04-25T13:16:18.996Z</time></trkpt><trkpt lat="44.529725" lon="8.723035"><ele>559.0</ele><time>2026-04-25T13:16:20.999Z</time></trkpt><trkpt lat="44.5296483" lon="8.72295"><ele>559.0</ele><time>2026-04-25T13:16:22.994Z</time></trkpt><trkpt lat="44.529635" lon="8.7228517"><ele>559.0</ele><time>2026-04-25T13:16:23.995Z</time></trkpt><trkpt lat="44.5296333" lon="8.7226933"><ele>559.0</ele><time>2026-04-25T13:16:25.997Z</time></trkpt><trkpt lat="44.5295767" lon="8.7225483"><ele>559.3333333333334</ele><time>2026-04-25T13:16:27.995Z</time></trkpt><trkpt lat="44.5294917" lon="8.72245"><ele>559.6666666666667</ele><time>2026-04-25T13:16:29.991Z</time></trkpt><trkpt lat="44.5294333" lon="8.72241"><ele>560.0</ele><time>2026-04-25T13:16:30.998Z</time></trkpt><trkpt lat="44.529375" lon="8.7223717"><ele>560.3333333333334</ele><time>2026-04-25T13:16:31.991Z</time></trkpt><trkpt lat="44.5292717" lon="8.7222733"><ele>560.6666666666666</ele><time>2026-04-25T13:16:33.994Z</time></trkpt><trkpt lat="44.529225" lon="8.7222133"><ele>561.0</ele><time>2026-04-25T13:16:34.992Z</time></trkpt><trkpt lat="44.5291767" lon="8.7221517"><ele>561.0</ele><time>2026-04-25T13:16:35.997Z</time></trkpt><trkpt lat="44.529125" lon="8.72209"><ele>561.0</ele><time>2026-04-25T13:16:36.996Z</time></trkpt><trkpt lat="44.529075" lon="8.7220233"><ele>561.0</ele><time>2026-04-25T13:16:38Z</time></trkpt><trkpt lat="44.5290267" lon="8.7219417"><ele>561.0</ele><time>2026-04-25T13:16:38.994Z</time></trkpt><trkpt lat="44.5289817" lon="8.7218567"><ele>561.0</ele><time>2026-04-25T13:16:39.994Z</time></trkpt><trkpt lat="44.5289383" lon="8.72177"><ele>561.0</ele><time>2026-04-25T13:16:40.993Z</time></trkpt><trkpt lat="44.52891" lon="8.7216783"><ele>561.0</ele><time>2026-04-25T13:16:41.993Z</time></trkpt><trkpt lat="44.528885" lon="8.7215833"><ele>560.0</ele><time>2026-04-25T13:16:42.999Z</time></trkpt><trkpt lat="44.528865" lon="8.7214917"><ele>559.0</ele><time>2026-04-25T13:16:43.994Z</time></trkpt><trkpt lat="44.5287983" lon="8.7213667"><ele>558.0</ele><time>2026-04-25T13:16:45.996Z</time></trkpt><trkpt lat="44.528705" lon="8.721285"><ele>557.0</ele><time>2026-04-25T13:16:47.998Z</time></trkpt><trkpt lat="44.5286367" lon="8.7212717"><ele>556.0</ele><time>2026-04-25T13:16:48.995Z</time></trkpt><trkpt lat="44.5285633" lon="8.721295"><ele>555.0</ele><time>2026-04-25T13:16:49.993Z</time></trkpt><trkpt lat="44.5284767" lon="8.7213133"><ele>555.0</ele><time>2026-04-25T13:16:50.998Z</time></trkpt><trkpt lat="44.5283717" lon="8.7213483"><ele>555.0</ele><time>2026-04-25T13:16:51.999Z</time></trkpt><trkpt lat="44.52827" lon="8.7213917"><ele>555.0</ele><time>2026-04-25T13:16:52.992Z</time></trkpt><trkpt lat="44.52818" lon="8.7214117"><ele>555.0</ele><time>2026-04-25T13:16:53.995Z</time></trkpt><trkpt lat="44.5280783" lon="8.72142"><ele>555.0</ele><time>2026-04-25T13:16:54.997Z</time></trkpt><trkpt lat="44.527925" lon="8.7214067"><ele>550.8</ele><time>2026-04-25T13:16:55.995Z</time></trkpt><trkpt lat="44.5278267" lon="8.721395"><ele>546.6</ele><time>2026-04-25T13:16:56.995Z</time></trkpt><trkpt lat="44.5277483" lon="8.7213617"><ele>542.4</ele><time>2026-04-25T13:16:57.996Z</time></trkpt><trkpt lat="44.527685" lon="8.7213033"><ele>538.2</ele><time>2026-04-25T13:16:58.992Z</time></trkpt><trkpt lat="44.5275967" lon="8.7211917"><ele>534.0</ele><time>2026-04-25T13:16:59.995Z</time></trkpt><trkpt lat="44.527535" lon="8.7210767"><ele>536.4</ele><time>2026-04-25T13:17:00.998Z</time></trkpt><trkpt lat="44.5274783" lon="8.7209517"><ele>538.8</ele><time>2026-04-25T13:17:01.994Z</time></trkpt><trkpt lat="44.5274517" lon="8.72083"><ele>541.2</ele><time>2026-04-25T13:17:03.001Z</time></trkpt><trkpt lat="44.5274183" lon="8.7206933"><ele>543.6</ele><time>2026-04-25T13:17:03.997Z</time></trkpt><trkpt lat="44.5273867" lon="8.72058"><ele>546.0</ele><time>2026-04-25T13:17:04.994Z</time></trkpt><trkpt lat="44.527355" lon="8.7204533"><ele>546.0</ele><time>2026-04-25T13:17:05.993Z</time></trkpt><trkpt lat="44.5273267" lon="8.72034"><ele>546.0</ele><time>2026-04-25T13:17:06.998Z</time></trkpt><trkpt lat="44.5273033" lon="8.720215"><ele>546.0</ele><time>2026-04-25T13:17:07.995Z</time></trkpt><trkpt lat="44.5272617" lon="8.7201083"><ele>546.0</ele><time>2026-04-25T13:17:08.999Z</time></trkpt><trkpt lat="44.5272217" lon="8.7199967"><ele>546.0</ele><time>2026-04-25T13:17:09.994Z</time></trkpt><trkpt lat="44.5271833" lon="8.7198667"><ele>544.6</ele><time>2026-04-25T13:17:10.995Z</time></trkpt><trkpt lat="44.52714" lon="8.71977"><ele>543.2</ele><time>2026-04-25T13:17:11.998Z</time></trkpt><trkpt lat="44.5271" lon="8.7196733"><ele>541.8</ele><time>2026-04-25T13:17:12.996Z</time></trkpt><trkpt lat="44.5270667" lon="8.7195867"><ele>540.4</ele><time>2026-04-25T13:17:13.992Z</time></trkpt><trkpt lat="44.526985" lon="8.7194617"><ele>539.0</ele><time>2026-04-25T13:17:15.994Z</time></trkpt><trkpt lat="44.5268683" lon="8.7193783"><ele>539.0</ele><time>2026-04-25T13:17:17.997Z</time></trkpt><trkpt lat="44.5268017" lon="8.7193617"><ele>539.0</ele><time>2026-04-25T13:17:18.996Z</time></trkpt><trkpt lat="44.5267267" lon="8.719325"><ele>539.0</ele><time>2026-04-25T13:17:19.998Z</time></trkpt><trkpt lat="44.52667" lon="8.719265"><ele>539.0</ele><time>2026-04-25T13:17:20.992Z</time></trkpt><trkpt lat="44.52662" lon="8.719175"><ele>539.0</ele><time>2026-04-25T13:17:21.996Z</time></trkpt><trkpt lat="44.5265817" lon="8.7190683"><ele>539.0</ele><time>2026-04-25T13:17:22.993Z</time></trkpt><trkpt lat="44.526555" lon="8.718955"><ele>539.0</ele><time>2026-04-25T13:17:23.995Z</time></trkpt><trkpt lat="44.5265283" lon="8.718815"><ele>539.0</ele><time>2026-04-25T13:17:25Z</time></trkpt><trkpt lat="44.5264933" lon="8.7186883"><ele>539.0</ele><time>2026-04-25T13:17:25.997Z</time></trkpt><trkpt lat="44.5264483" lon="8.7185783"><ele>539.0</ele><time>2026-04-25T13:17:26.993Z</time></trkpt><trkpt lat="44.5264" lon="8.718475"><ele>539.0</ele><time>2026-04-25T13:17:27.995Z</time></trkpt><trkpt lat="44.5263433" lon="8.718385"><ele>539.1666666666666</ele><time>2026-04-25T13:17:28.994Z</time></trkpt><trkpt lat="44.52627" lon="8.7183033"><ele>539.3333333333333</ele><time>2026-04-25T13:17:29.992Z</time></trkpt><trkpt lat="44.5261983" lon="8.7182283"><ele>539.5</ele><time>2026-04-25T13:17:30.995Z</time></trkpt><trkpt lat="44.5261233" lon="8.7181533"><ele>539.6666666666666</ele><time>2026-04-25T13:17:31.996Z</time></trkpt><trkpt lat="44.52605" lon="8.71808"><ele>539.8333333333334</ele><time>2026-04-25T13:17:32.998Z</time></trkpt><trkpt lat="44.5259883" lon="8.7180083"><ele>540.0</ele><time>2026-04-25T13:17:33.993Z</time></trkpt><trkpt lat="44.52594" lon="8.717935"><ele>536.7142857142857</ele><time>2026-04-25T13:17:34.992Z</time></trkpt><trkpt lat="44.5258967" lon="8.7178517"><ele>533.4285714285713</ele><time>2026-04-25T13:17:35.994Z</time></trkpt><trkpt lat="44.5258783" lon="8.7177617"><ele>530.1428571428571</ele><time>2026-04-25T13:17:36.994Z</time></trkpt><trkpt lat="44.5259317" lon="8.717645"><ele>526.8571428571429</ele><time>2026-04-25T13:17:38.994Z</time></trkpt><trkpt lat="44.526" lon="8.717595"><ele>523.5714285714287</ele><time>2026-04-25T13:17:39.993Z</time></trkpt><trkpt lat="44.52603" lon="8.717515"><ele>520.2857142857143</ele><time>2026-04-25T13:17:40.993Z</time></trkpt><trkpt lat="44.5260467" lon="8.7174217"><ele>517.0</ele><time>2026-04-25T13:17:41.995Z</time></trkpt><trkpt lat="44.5260633" lon="8.7173267"><ele>517.0</ele><time>2026-04-25T13:17:42.993Z</time></trkpt><trkpt lat="44.526065" lon="8.7172333"><ele>517.0</ele><time>2026-04-25T13:17:43.992Z</time></trkpt><trkpt lat="44.5260633" lon="8.7171267"><ele>517.0</ele><time>2026-04-25T13:17:44.994Z</time></trkpt><trkpt lat="44.5260567" lon="8.717015"><ele>517.0</ele><time>2026-04-25T13:17:45.992Z</time></trkpt><trkpt lat="44.52602" lon="8.7168967"><ele>517.0</ele><time>2026-04-25T13:17:46.994Z</time></trkpt><trkpt lat="44.5260017" lon="8.7167767"><ele>517.0</ele><time>2026-04-25T13:17:47.999Z</time></trkpt><trkpt lat="44.52597" lon="8.7166633"><ele>518.1666666666667</ele><time>2026-04-25T13:17:48.995Z</time></trkpt><trkpt lat="44.5259467" lon="8.7165617"><ele>519.3333333333334</ele><time>2026-04-25T13:17:49.995Z</time></trkpt><trkpt lat="44.5259567" lon="8.7164117"><ele>520.5</ele><time>2026-04-25T13:17:50.999Z</time></trkpt><trkpt lat="44.5259383" lon="8.7163183"><ele>521.6666666666666</ele><time>2026-04-25T13:17:51.992Z</time></trkpt><trkpt lat="44.5259217" lon="8.716225"><ele>522.8333333333333</ele><time>2026-04-25T13:17:52.996Z</time></trkpt><trkpt lat="44.52587" lon="8.7161683"><ele>524.0</ele><time>2026-04-25T13:17:53.993Z</time></trkpt><trkpt lat="44.5257917" lon="8.7161417"><ele>524.0</ele><time>2026-04-25T13:17:54.996Z</time></trkpt><trkpt lat="44.5256983" lon="8.716135"><ele>524.0</ele><time>2026-04-25T13:17:55.999Z</time></trkpt><trkpt lat="44.52558" lon="8.7161633"><ele>524.0</ele><time>2026-04-25T13:17:56.997Z</time></trkpt><trkpt lat="44.5254717" lon="8.7161817"><ele>524.0</ele><time>2026-04-25T13:17:57.993Z</time></trkpt><trkpt lat="44.525365" lon="8.7161867"><ele>524.0</ele><time>2026-04-25T13:17:58.997Z</time></trkpt><trkpt lat="44.5252533" lon="8.7162333"><ele>520.5</ele><time>2026-04-25T13:17:59.994Z</time></trkpt><trkpt lat="44.5251467" lon="8.7162717"><ele>517.0</ele><time>2026-04-25T13:18:00.995Z</time></trkpt><trkpt lat="44.52503" lon="8.7163333"><ele>513.5</ele><time>2026-04-25T13:18:01.996Z</time></trkpt><trkpt lat="44.52492" lon="8.71639"><ele>510.0</ele><time>2026-04-25T13:18:02.995Z</time></trkpt><trkpt lat="44.5248083" lon="8.716435"><ele>510.0</ele><time>2026-04-25T13:18:03.997Z</time></trkpt><trkpt lat="44.5247033" lon="8.7164833"><ele>510.0</ele><time>2026-04-25T13:18:04.996Z</time></trkpt><trkpt lat="44.524595" lon="8.71654"><ele>510.0</ele><time>2026-04-25T13:18:05.993Z</time></trkpt><trkpt lat="44.52449" lon="8.716585"><ele>510.0</ele><time>2026-04-25T13:18:06.993Z</time></trkpt><trkpt lat="44.5244017" lon="8.7166217"><ele>510.0</ele><time>2026-04-25T13:18:07.995Z</time></trkpt><trkpt lat="44.5243183" lon="8.7166417"><ele>506.6666666666667</ele><time>2026-04-25T13:18:08.999Z</time></trkpt><trkpt lat="44.5242183" lon="8.71666"><ele>503.33333333333337</ele><time>2026-04-25T13:18:09.994Z</time></trkpt><trkpt lat="44.5241283" lon="8.716665"><ele>500.0</ele><time>2026-04-25T13:18:10.994Z</time></trkpt><trkpt lat="44.5240467" lon="8.7166567"><ele>496.6666666666667</ele><time>2026-04-25T13:18:11.994Z</time></trkpt><trkpt lat="44.52397" lon="8.71664"><ele>493.33333333333337</ele><time>2026-04-25T13:18:12.994Z</time></trkpt><trkpt lat="44.5238983" lon="8.7165683"><ele>490.0</ele><time>2026-04-25T13:18:13.996Z</time></trkpt><trkpt lat="44.523835" lon="8.71653"><ele>490.0</ele><time>2026-04-25T13:18:14.996Z</time></trkpt><trkpt lat="44.5237383" lon="8.7164483"><ele>490.0</ele><time>2026-04-25T13:18:16.994Z</time></trkpt><trkpt lat="44.5236967" lon="8.7162833"><ele>490.0</ele><time>2026-04-25T13:18:18.992Z</time></trkpt><trkpt lat="44.52367" lon="8.71611"><ele>490.0</ele><time>2026-04-25T13:18:20.999Z</time></trkpt><trkpt lat="44.5237067" lon="8.7158683"><ele>490.0</ele><time>2026-04-25T13:18:22.995Z</time></trkpt><trkpt lat="44.523765" lon="8.71569"><ele>490.0</ele><time>2026-04-25T13:18:24Z</time></trkpt><trkpt lat="44.52384" lon="8.7155217"><ele>490.0</ele><time>2026-04-25T13:18:24.995Z</time></trkpt><trkpt lat="44.523915" lon="8.715345"><ele>490.0</ele><time>2026-04-25T13:18:25.999Z</time></trkpt><trkpt lat="44.5239633" lon="8.7151783"><ele>490.0</ele><time>2026-04-25T13:18:26.993Z</time></trkpt><trkpt lat="44.5240283" lon="8.7149883"><ele>490.0</ele><time>2026-04-25T13:18:27.994Z</time></trkpt><trkpt lat="44.5240767" lon="8.71482"><ele>490.0</ele><time>2026-04-25T13:18:28.997Z</time></trkpt><trkpt lat="44.5241" lon="8.71466"><ele>490.0</ele><time>2026-04-25T13:18:29.996Z</time></trkpt><trkpt lat="44.5241233" lon="8.71452"><ele>487.00000000000006</ele><time>2026-04-25T13:18:30.996Z</time></trkpt><trkpt lat="44.5241667" lon="8.71434"><ele>484.0</ele><time>2026-04-25T13:18:31.996Z</time></trkpt><trkpt lat="44.5242183" lon="8.71422"><ele>481.0</ele><time>2026-04-25T13:18:33.001Z</time></trkpt><trkpt lat="44.5242433" lon="8.7141317"><ele>478.0</ele><time>2026-04-25T13:18:33.997Z</time></trkpt><trkpt lat="44.52427" lon="8.7140417"><ele>475.00000000000006</ele><time>2026-04-25T13:18:34.997Z</time></trkpt><trkpt lat="44.5242967" lon="8.713955"><ele>472.0</ele><time>2026-04-25T13:18:35.993Z</time></trkpt><trkpt lat="44.5243317" lon="8.71388"><ele>472.0</ele><time>2026-04-25T13:18:36.996Z</time></trkpt><trkpt lat="44.5243583" lon="8.713795"><ele>472.0</ele><time>2026-04-25T13:18:37.996Z</time></trkpt><trkpt lat="44.5243883" lon="8.7137067"><ele>472.0</ele><time>2026-04-25T13:18:38.995Z</time></trkpt><trkpt lat="44.52443" lon="8.7136217"><ele>472.0</ele><time>2026-04-25T13:18:39.999Z</time></trkpt><trkpt lat="44.5244683" lon="8.7135367"><ele>472.0</ele><time>2026-04-25T13:18:40.995Z</time></trkpt><trkpt lat="44.5245083" lon="8.7134517"><ele>472.0</ele><time>2026-04-25T13:18:41.996Z</time></trkpt><trkpt lat="44.5245617" lon="8.7133783"><ele>472.0</ele><time>2026-04-25T13:18:42.995Z</time></trkpt><trkpt lat="44.5246183" lon="8.7133217"><ele>473.1666666666667</ele><time>2026-04-25T13:18:43.995Z</time></trkpt><trkpt lat="44.5246817" lon="8.7132833"><ele>474.33333333333337</ele><time>2026-04-25T13:18:44.995Z</time></trkpt><trkpt lat="44.5247417" lon="8.71323"><ele>475.5</ele><time>2026-04-25T13:18:45.996Z</time></trkpt><trkpt lat="44.5248133" lon="8.7131983"><ele>476.66666666666663</ele><time>2026-04-25T13:18:46.996Z</time></trkpt><trkpt lat="44.524875" lon="8.71316"><ele>477.8333333333333</ele><time>2026-04-25T13:18:47.994Z</time></trkpt><trkpt lat="44.524945" lon="8.7130617"><ele>479.0</ele><time>2026-04-25T13:18:49.995Z</time></trkpt><trkpt lat="44.5249567" lon="8.712955"><ele>479.0</ele><time>2026-04-25T13:18:51.994Z</time></trkpt><trkpt lat="44.524965" lon="8.7128067"><ele>479.0</ele><time>2026-04-25T13:18:53.994Z</time></trkpt><trkpt lat="44.5249467" lon="8.71271"><ele>479.0</ele><time>2026-04-25T13:18:54.993Z</time></trkpt><trkpt lat="44.5249467" lon="8.7125333"><ele>479.0</ele><time>2026-04-25T13:18:56.995Z</time></trkpt><trkpt lat="44.52497" lon="8.7123817"><ele>479.0</ele><time>2026-04-25T13:18:59.001Z</time></trkpt><trkpt lat="44.5249967" lon="8.7122633"><ele>474.2</ele><time>2026-04-25T13:19:00.999Z</time></trkpt><trkpt lat="44.52504" lon="8.712165"><ele>469.4</ele><time>2026-04-25T13:19:02.994Z</time></trkpt><trkpt lat="44.5250583" lon="8.712025"><ele>464.6</ele><time>2026-04-25T13:19:04.995Z</time></trkpt><trkpt lat="44.5251283" lon="8.7118867"><ele>459.8</ele><time>2026-04-25T13:19:06.999Z</time></trkpt><trkpt lat="44.5251967" lon="8.71175"><ele>455.0</ele><time>2026-04-25T13:19:08.996Z</time></trkpt><trkpt lat="44.525235" lon="8.7116133"><ele>457.16666666666663</ele><time>2026-04-25T13:19:10.999Z</time></trkpt><trkpt lat="44.5252483" lon="8.711525"><ele>459.3333333333333</ele><time>2026-04-25T13:19:11.998Z</time></trkpt><trkpt lat="44.52527" lon="8.7114383"><ele>461.5</ele><time>2026-04-25T13:19:12.998Z</time></trkpt><trkpt lat="44.5253083" lon="8.7113633"><ele>463.66666666666663</ele><time>2026-04-25T13:19:13.997Z</time></trkpt><trkpt lat="44.5254067" lon="8.7112567"><ele>465.8333333333333</ele><time>2026-04-25T13:19:15.995Z</time></trkpt><trkpt lat="44.5254767" lon="8.71119"><ele>468.0</ele><time>2026-04-25T13:19:16.994Z</time></trkpt><trkpt lat="44.525555" lon="8.7111117"><ele>462.59999999999997</ele><time>2026-04-25T13:19:17.996Z</time></trkpt><trkpt lat="44.5256317" lon="8.71101"><ele>457.19999999999993</ele><time>2026-04-25T13:19:19.002Z</time></trkpt><trkpt lat="44.525695" lon="8.7109067"><ele>451.8</ele><time>2026-04-25T13:19:19.996Z</time></trkpt><trkpt lat="44.52577" lon="8.710815"><ele>446.4</ele><time>2026-04-25T13:19:21.003Z</time></trkpt><trkpt lat="44.525845" lon="8.7107233"><ele>441.0</ele><time>2026-04-25T13:19:21.996Z</time></trkpt><trkpt lat="44.5259183" lon="8.7106417"><ele>441.0</ele><time>2026-04-25T13:19:22.998Z</time></trkpt><trkpt lat="44.5260217" lon="8.7105567"><ele>441.0</ele><time>2026-04-25T13:19:23.998Z</time></trkpt><trkpt lat="44.5261167" lon="8.7104967"><ele>441.0</ele><time>2026-04-25T13:19:24.996Z</time></trkpt><trkpt lat="44.5262083" lon="8.7104433"><ele>441.0</ele><time>2026-04-25T13:19:25.997Z</time></trkpt><trkpt lat="44.5262867" lon="8.7104"><ele>441.0</ele><time>2026-04-25T13:19:27Z</time></trkpt><trkpt lat="44.526365" lon="8.7103633"><ele>444.1666666666667</ele><time>2026-04-25T13:19:27.994Z</time></trkpt><trkpt lat="44.5264367" lon="8.7103367"><ele>447.33333333333337</ele><time>2026-04-25T13:19:28.998Z</time></trkpt><trkpt lat="44.5265083" lon="8.7103283"><ele>450.5</ele><time>2026-04-25T13:19:29.998Z</time></trkpt><trkpt lat="44.5266033" lon="8.7103483"><ele>453.6666666666667</ele><time>2026-04-25T13:19:31.994Z</time></trkpt><trkpt lat="44.5266867" lon="8.7102683"><ele>456.83333333333337</ele><time>2026-04-25T13:19:33.998Z</time></trkpt><trkpt lat="44.5267133" lon="8.7101817"><ele>460.0</ele><time>2026-04-25T13:19:34.993Z</time></trkpt><trkpt lat="44.5267317" lon="8.710085"><ele>456.1666666666667</ele><time>2026-04-25T13:19:35.992Z</time></trkpt><trkpt lat="44.5267633" lon="8.71"><ele>452.33333333333337</ele><time>2026-04-25T13:19:36.994Z</time></trkpt><trkpt lat="44.5268083" lon="8.7099283"><ele>448.5</ele><time>2026-04-25T13:19:38Z</time></trkpt><trkpt lat="44.5268533" lon="8.70985"><ele>444.66666666666663</ele><time>2026-04-25T13:19:38.993Z</time></trkpt><trkpt lat="44.5269083" lon="8.7097867"><ele>440.8333333333333</ele><time>2026-04-25T13:19:39.997Z</time></trkpt><trkpt lat="44.5270083" lon="8.70969"><ele>437.0</ele><time>2026-04-25T13:19:41.999Z</time></trkpt><trkpt lat="44.5270817" lon="8.709545"><ele>437.0</ele><time>2026-04-25T13:19:44Z</time></trkpt><trkpt lat="44.527145" lon="8.7094217"><ele>437.00000000000006</ele><time>2026-04-25T13:19:45.998Z</time></trkpt><trkpt lat="44.527225" lon="8.7093567"><ele>437.00000000000006</ele><time>2026-04-25T13:19:48Z</time></trkpt><trkpt lat="44.5273283" lon="8.7093533"><ele>437.0</ele><time>2026-04-25T13:19:49.995Z</time></trkpt><trkpt lat="44.5274067" lon="8.709385"><ele>437.0</ele><time>2026-04-25T13:19:50.992Z</time></trkpt><trkpt lat="44.52747" lon="8.7093983"><ele>431.16666666666663</ele><time>2026-04-25T13:19:51.994Z</time></trkpt><trkpt lat="44.5275333" lon="8.7094033"><ele>425.3333333333333</ele><time>2026-04-25T13:19:52.994Z</time></trkpt><trkpt lat="44.5276583" lon="8.70937"><ele>419.5</ele><time>2026-04-25T13:19:54.999Z</time></trkpt><trkpt lat="44.52773" lon="8.7093533"><ele>413.66666666666663</ele><time>2026-04-25T13:19:55.994Z</time></trkpt><trkpt lat="44.5278" lon="8.7093517"><ele>407.8333333333333</ele><time>2026-04-25T13:19:56.998Z</time></trkpt><trkpt lat="44.5278683" lon="8.70935"><ele>402.0</ele><time>2026-04-25T13:19:57.994Z</time></trkpt><trkpt lat="44.5279433" lon="8.7093433"><ele>401.6666666666667</ele><time>2026-04-25T13:19:58.994Z</time></trkpt><trkpt lat="44.5280167" lon="8.7093433"><ele>401.33333333333337</ele><time>2026-04-25T13:19:59.995Z</time></trkpt><trkpt lat="44.5280883" lon="8.7093383"><ele>401.0</ele><time>2026-04-25T13:20:00.994Z</time></trkpt><trkpt lat="44.52816" lon="8.7093483"><ele>400.6666666666667</ele><time>2026-04-25T13:20:01.997Z</time></trkpt><trkpt lat="44.528235" lon="8.7093567"><ele>400.33333333333337</ele><time>2026-04-25T13:20:02.994Z</time></trkpt><trkpt lat="44.528315" lon="8.7093867"><ele>400.0</ele><time>2026-04-25T13:20:03.993Z</time></trkpt><trkpt lat="44.5283917" lon="8.7094333"><ele>404.6</ele><time>2026-04-25T13:20:04.997Z</time></trkpt><trkpt lat="44.5284633" lon="8.7094817"><ele>409.2</ele><time>2026-04-25T13:20:05.997Z</time></trkpt><trkpt lat="44.5285283" lon="8.709525"><ele>413.79999999999995</ele><time>2026-04-25T13:20:06.996Z</time></trkpt><trkpt lat="44.5286" lon="8.709595"><ele>418.4</ele><time>2026-04-25T13:20:07.996Z</time></trkpt><trkpt lat="44.5286633" lon="8.70964"><ele>423.0</ele><time>2026-04-25T13:20:08.996Z</time></trkpt><trkpt lat="44.5287867" lon="8.7097333"><ele>423.0</ele><time>2026-04-25T13:20:10.996Z</time></trkpt><trkpt lat="44.52886" lon="8.7097633"><ele>423.0</ele><time>2026-04-25T13:20:11.997Z</time></trkpt><trkpt lat="44.5289917" lon="8.7097317"><ele>423.0</ele><time>2026-04-25T13:20:13.995Z</time></trkpt><trkpt lat="44.5290583" lon="8.7097033"><ele>423.0</ele><time>2026-04-25T13:20:15.001Z</time></trkpt><trkpt lat="44.529125" lon="8.7096417"><ele>423.0</ele><time>2026-04-25T13:20:15.998Z</time></trkpt><trkpt lat="44.529155" lon="8.7095083"><ele>417.4</ele><time>2026-04-25T13:20:16.994Z</time></trkpt><trkpt lat="44.5291583" lon="8.7093283"><ele>411.79999999999995</ele><time>2026-04-25T13:20:17.997Z</time></trkpt><trkpt lat="44.529225" lon="8.7092467"><ele>406.2</ele><time>2026-04-25T13:20:18.994Z</time></trkpt><trkpt lat="44.529295" lon="8.7091817"><ele>400.6</ele><time>2026-04-25T13:20:19.994Z</time></trkpt><trkpt lat="44.5293733" lon="8.7091517"><ele>395.0</ele><time>2026-04-25T13:20:20.999Z</time></trkpt><trkpt lat="44.5294483" lon="8.709135"><ele>395.8</ele><time>2026-04-25T13:20:21.999Z</time></trkpt><trkpt lat="44.5295717" lon="8.7091633"><ele>396.6</ele><time>2026-04-25T13:20:23.995Z</time></trkpt><trkpt lat="44.5296483" lon="8.7092217"><ele>397.4</ele><time>2026-04-25T13:20:24.998Z</time></trkpt><trkpt lat="44.529725" lon="8.7093417"><ele>398.2</ele><time>2026-04-25T13:20:25.993Z</time></trkpt><trkpt lat="44.5297983" lon="8.7093967"><ele>399.0</ele><time>2026-04-25T13:20:26.996Z</time></trkpt><trkpt lat="44.5298833" lon="8.7094583"><ele>401.8333333333333</ele><time>2026-04-25T13:20:27.996Z</time></trkpt><trkpt lat="44.5299383" lon="8.709545"><ele>404.66666666666663</ele><time>2026-04-25T13:20:28.995Z</time></trkpt><trkpt lat="44.5300367" lon="8.709635"><ele>407.5</ele><time>2026-04-25T13:20:30.998Z</time></trkpt><trkpt lat="44.5301067" lon="8.7097017"><ele>410.3333333333333</ele><time>2026-04-25T13:20:32.999Z</time></trkpt><trkpt lat="44.5301633" lon="8.7097417"><ele>413.16666666666663</ele><time>2026-04-25T13:20:34.996Z</time></trkpt><trkpt lat="44.5301333" lon="8.7096067"><ele>416.0</ele><time>2026-04-25T13:20:41Z</time></trkpt><trkpt lat="44.5300667" lon="8.7095083"><ele>415.99999999999994</ele><time>2026-04-25T13:20:41.994Z</time></trkpt><trkpt lat="44.5300317" lon="8.709415"><ele>416.0</ele><time>2026-04-25T13:20:43Z</time></trkpt><trkpt lat="44.5300333" lon="8.7092417"><ele>416.0</ele><time>2026-04-25T13:20:44.998Z</time></trkpt><trkpt lat="44.5300417" lon="8.7091383"><ele>416.0</ele><time>2026-04-25T13:20:45.995Z</time></trkpt><trkpt lat="44.530035" lon="8.7090267"><ele>415.99999999999994</ele><time>2026-04-25T13:20:46.996Z</time></trkpt><trkpt lat="44.5300083" lon="8.70894"><ele>416.0</ele><time>2026-04-25T13:20:48.002Z</time></trkpt><trkpt lat="44.52998" lon="8.7087733"><ele>412.6</ele><time>2026-04-25T13:20:50.001Z</time></trkpt><trkpt lat="44.5300183" lon="8.70865"><ele>409.20000000000005</ele><time>2026-04-25T13:20:51.993Z</time></trkpt><trkpt lat="44.53007" lon="8.7085483"><ele>405.79999999999995</ele><time>2026-04-25T13:20:53.995Z</time></trkpt><trkpt lat="44.5301383" lon="8.70845"><ele>402.4</ele><time>2026-04-25T13:20:55.994Z</time></trkpt><trkpt lat="44.530265" lon="8.70839"><ele>399.0</ele><time>2026-04-25T13:20:57.996Z</time></trkpt><trkpt lat="44.5303617" lon="8.7083717"><ele>396.0</ele><time>2026-04-25T13:20:58.994Z</time></trkpt><trkpt lat="44.53043" lon="8.7083183"><ele>393.0</ele><time>2026-04-25T13:20:59.994Z</time></trkpt><trkpt lat="44.5306433" lon="8.708415"><ele>390.0</ele><time>2026-04-25T13:21:00.994Z</time></trkpt><trkpt lat="44.530735" lon="8.7083983"><ele>387.0</ele><time>2026-04-25T13:21:01.994Z</time></trkpt><trkpt lat="44.53082" lon="8.7083733"><ele>387.0</ele><time>2026-04-25T13:21:02.996Z</time></trkpt><trkpt lat="44.5309117" lon="8.708345"><ele>387.0</ele><time>2026-04-25T13:21:03.994Z</time></trkpt><trkpt lat="44.5309983" lon="8.7083"><ele>387.0</ele><time>2026-04-25T13:21:04.994Z</time></trkpt><trkpt lat="44.5310817" lon="8.7082433"><ele>387.0</ele><time>2026-04-25T13:21:05.994Z</time></trkpt><trkpt lat="44.531165" lon="8.708195"><ele>387.0</ele><time>2026-04-25T13:21:06.992Z</time></trkpt><trkpt lat="44.5312633" lon="8.7081667"><ele>389.5</ele><time>2026-04-25T13:21:07.994Z</time></trkpt><trkpt lat="44.5313483" lon="8.7081467"><ele>392.0</ele><time>2026-04-25T13:21:08.999Z</time></trkpt><trkpt lat="44.5314267" lon="8.7081267"><ele>394.5</ele><time>2026-04-25T13:21:09.998Z</time></trkpt><trkpt lat="44.5314983" lon="8.7081083"><ele>397.0</ele><time>2026-04-25T13:21:10.995Z</time></trkpt><trkpt lat="44.5315667" lon="8.7080917"><ele>399.5</ele><time>2026-04-25T13:21:11.998Z</time></trkpt><trkpt lat="44.5316817" lon="8.7080267"><ele>402.0</ele><time>2026-04-25T13:21:13.995Z</time></trkpt><trkpt lat="44.53178" lon="8.70791"><ele>402.0</ele><time>2026-04-25T13:21:15.995Z</time></trkpt><trkpt lat="44.5318133" lon="8.70783"><ele>402.0</ele><time>2026-04-25T13:21:16.992Z</time></trkpt><trkpt lat="44.53185" lon="8.7077533"><ele>402.0</ele><time>2026-04-25T13:21:17.993Z</time></trkpt><trkpt lat="44.53192" lon="8.7076117"><ele>402.0</ele><time>2026-04-25T13:21:19.994Z</time></trkpt><trkpt lat="44.5320067" lon="8.7075033"><ele>402.0</ele><time>2026-04-25T13:21:21.994Z</time></trkpt><trkpt lat="44.5320467" lon="8.7073333"><ele>400.8333333333333</ele><time>2026-04-25T13:21:23.997Z</time></trkpt><trkpt lat="44.5320633" lon="8.707235"><ele>399.66666666666663</ele><time>2026-04-25T13:21:24.997Z</time></trkpt><trkpt lat="44.5320967" lon="8.70715"><ele>398.5</ele><time>2026-04-25T13:21:25.995Z</time></trkpt><trkpt lat="44.5321267" lon="8.70704"><ele>397.3333333333333</ele><time>2026-04-25T13:21:26.996Z</time></trkpt><trkpt lat="44.5321667" lon="8.70694"><ele>396.16666666666663</ele><time>2026-04-25T13:21:27.997Z</time></trkpt><trkpt lat="44.5322183" lon="8.7068617"><ele>395.0</ele><time>2026-04-25T13:21:28.995Z</time></trkpt><trkpt lat="44.5322683" lon="8.7067967"><ele>395.0</ele><time>2026-04-25T13:21:29.997Z</time></trkpt><trkpt lat="44.532325" lon="8.7067567"><ele>395.0</ele><time>2026-04-25T13:21:31Z</time></trkpt><trkpt lat="44.5324333" lon="8.7067333"><ele>395.0</ele><time>2026-04-25T13:21:33.001Z</time></trkpt><trkpt lat="44.53252" lon="8.7067917"><ele>395.0</ele><time>2026-04-25T13:21:35Z</time></trkpt><trkpt lat="44.5325983" lon="8.70692"><ele>395.0</ele><time>2026-04-25T13:21:36.996Z</time></trkpt><trkpt lat="44.532635" lon="8.706995"><ele>394.99999999999994</ele><time>2026-04-25T13:21:37.996Z</time></trkpt><trkpt lat="44.5326733" lon="8.7070767"><ele>395.0</ele><time>2026-04-25T13:21:38.999Z</time></trkpt><trkpt lat="44.53271" lon="8.70715"><ele>395.0</ele><time>2026-04-25T13:21:39.995Z</time></trkpt><trkpt lat="44.5327733" lon="8.7072717"><ele>395.0</ele><time>2026-04-25T13:21:42Z</time></trkpt><trkpt lat="44.5328367" lon="8.7073483"><ele>394.99999999999994</ele><time>2026-04-25T13:21:44.001Z</time></trkpt><trkpt lat="44.5329083" lon="8.7073833"><ele>395.0</ele><time>2026-04-25T13:21:45.996Z</time></trkpt><trkpt lat="44.5329817" lon="8.707315"><ele>394.2</ele><time>2026-04-25T13:21:47.996Z</time></trkpt><trkpt lat="44.5330583" lon="8.70719"><ele>393.4</ele><time>2026-04-25T13:21:49.992Z</time></trkpt><trkpt lat="44.5331517" lon="8.7070717"><ele>392.6</ele><time>2026-04-25T13:21:51.997Z</time></trkpt><trkpt lat="44.5332017" lon="8.707015"><ele>391.8</ele><time>2026-04-25T13:21:52.992Z</time></trkpt><trkpt lat="44.5333067" lon="8.7069633"><ele>391.0</ele><time>2026-04-25T13:21:54.993Z</time></trkpt><trkpt lat="44.5333983" lon="8.7070017"><ele>391.00000000000006</ele><time>2026-04-25T13:21:56.998Z</time></trkpt><trkpt lat="44.533465" lon="8.7070983"><ele>391.0</ele><time>2026-04-25T13:21:58.997Z</time></trkpt><trkpt lat="44.5335317" lon="8.7071733"><ele>391.0</ele><time>2026-04-25T13:22:00.996Z</time></trkpt><trkpt lat="44.5335983" lon="8.7071683"><ele>391.0</ele><time>2026-04-25T13:22:03.995Z</time></trkpt><trkpt lat="44.5336633" lon="8.7070583"><ele>391.00000000000006</ele><time>2026-04-25T13:22:05.994Z</time></trkpt><trkpt lat="44.533695" lon="8.7069717"><ele>391.0</ele><time>2026-04-25T13:22:06.996Z</time></trkpt><trkpt lat="44.533745" lon="8.70687"><ele>390.33333333333337</ele><time>2026-04-25T13:22:07.996Z</time></trkpt><trkpt lat="44.5338017" lon="8.70678"><ele>389.6666666666667</ele><time>2026-04-25T13:22:09.004Z</time></trkpt><trkpt lat="44.53385" lon="8.7067033"><ele>389.0</ele><time>2026-04-25T13:22:09.998Z</time></trkpt><trkpt lat="44.53389" lon="8.7066217"><ele>388.33333333333337</ele><time>2026-04-25T13:22:10.999Z</time></trkpt><trkpt lat="44.53393" lon="8.7065267"><ele>387.6666666666667</ele><time>2026-04-25T13:22:11.996Z</time></trkpt><trkpt lat="44.5339633" lon="8.7064167"><ele>387.0</ele><time>2026-04-25T13:22:12.995Z</time></trkpt><trkpt lat="44.5339983" lon="8.706325"><ele>387.0</ele><time>2026-04-25T13:22:13.993Z</time></trkpt><trkpt lat="44.5340333" lon="8.7062367"><ele>387.0</ele><time>2026-04-25T13:22:14.998Z</time></trkpt><trkpt lat="44.534055" lon="8.70614"><ele>387.0</ele><time>2026-04-25T13:22:15.995Z</time></trkpt><trkpt lat="44.5340933" lon="8.705995"><ele>387.0</ele><time>2026-04-25T13:22:17.993Z</time></trkpt><trkpt lat="44.5341067" lon="8.7058933"><ele>387.0</ele><time>2026-04-25T13:22:19.998Z</time></trkpt><trkpt lat="44.5340917" lon="8.705795"><ele>387.0</ele><time>2026-04-25T13:22:21.996Z</time></trkpt><trkpt lat="44.5340517" lon="8.7057267"><ele>384.8333333333333</ele><time>2026-04-25T13:22:22.995Z</time></trkpt><trkpt lat="44.5340083" lon="8.7056567"><ele>382.6666666666667</ele><time>2026-04-25T13:22:23.993Z</time></trkpt><trkpt lat="44.5339633" lon="8.7055783"><ele>380.5</ele><time>2026-04-25T13:22:24.997Z</time></trkpt><trkpt lat="44.533915" lon="8.70549"><ele>378.33333333333337</ele><time>2026-04-25T13:22:25.995Z</time></trkpt><trkpt lat="44.5338667" lon="8.70537"><ele>376.1666666666667</ele><time>2026-04-25T13:22:26.994Z</time></trkpt><trkpt lat="44.5338533" lon="8.7052633"><ele>374.0</ele><time>2026-04-25T13:22:27.996Z</time></trkpt><trkpt lat="44.533855" lon="8.70513"><ele>371.79999999999995</ele><time>2026-04-25T13:22:28.992Z</time></trkpt><trkpt lat="44.5338417" lon="8.7049767"><ele>369.59999999999997</ele><time>2026-04-25T13:22:29.996Z</time></trkpt><trkpt lat="44.5338183" lon="8.7048367"><ele>367.4</ele><time>2026-04-25T13:22:30.994Z</time></trkpt><trkpt lat="44.5337883" lon="8.7047217"><ele>365.2</ele><time>2026-04-25T13:22:31.995Z</time></trkpt><trkpt lat="44.5337567" lon="8.704615"><ele>363.0</ele><time>2026-04-25T13:22:32.994Z</time></trkpt><trkpt lat="44.5337317" lon="8.7045067"><ele>362.6666666666667</ele><time>2026-04-25T13:22:33.993Z</time></trkpt><trkpt lat="44.5337217" lon="8.704395"><ele>362.3333333333333</ele><time>2026-04-25T13:22:34.993Z</time></trkpt><trkpt lat="44.5337183" lon="8.7042767"><ele>362.0</ele><time>2026-04-25T13:22:35.997Z</time></trkpt><trkpt lat="44.53373" lon="8.704155"><ele>361.66666666666663</ele><time>2026-04-25T13:22:37Z</time></trkpt><trkpt lat="44.5337517" lon="8.7040367"><ele>361.3333333333333</ele><time>2026-04-25T13:22:37.997Z</time></trkpt><trkpt lat="44.53377" lon="8.7039167"><ele>361.0</ele><time>2026-04-25T13:22:38.997Z</time></trkpt><trkpt lat="44.5337883" lon="8.7037933"><ele>361.0</ele><time>2026-04-25T13:22:39.997Z</time></trkpt><trkpt lat="44.53381" lon="8.7036633"><ele>361.0</ele><time>2026-04-25T13:22:40.996Z</time></trkpt><trkpt lat="44.5338317" lon="8.703535"><ele>361.0</ele><time>2026-04-25T13:22:41.999Z</time></trkpt><trkpt lat="44.533855" lon="8.7034033"><ele>361.0</ele><time>2026-04-25T13:22:42.994Z</time></trkpt><trkpt lat="44.5338867" lon="8.7032717"><ele>361.0</ele><time>2026-04-25T13:22:43.996Z</time></trkpt><trkpt lat="44.5339217" lon="8.7031367"><ele>360.75</ele><time>2026-04-25T13:22:44.995Z</time></trkpt><trkpt lat="44.5339667" lon="8.7029983"><ele>360.5</ele><time>2026-04-25T13:22:45.997Z</time></trkpt><trkpt lat="44.5340167" lon="8.70286"><ele>360.25</ele><time>2026-04-25T13:22:46.999Z</time></trkpt><trkpt lat="44.534075" lon="8.7027183"><ele>360.0</ele><time>2026-04-25T13:22:47.994Z</time></trkpt><trkpt lat="44.53414" lon="8.702575"><ele>361.5</ele><time>2026-04-25T13:22:48.996Z</time></trkpt><trkpt lat="44.5342083" lon="8.7024267"><ele>363.0</ele><time>2026-04-25T13:22:49.993Z</time></trkpt><trkpt lat="44.53428" lon="8.7022767"><ele>364.5</ele><time>2026-04-25T13:22:50.995Z</time></trkpt><trkpt lat="44.5343583" lon="8.7021283"><ele>366.0</ele><time>2026-04-25T13:22:51.996Z</time></trkpt><trkpt lat="44.53444" lon="8.70198"><ele>368.75</ele><time>2026-04-25T13:22:52.994Z</time></trkpt><trkpt lat="44.5345183" lon="8.701835"><ele>371.5</ele><time>2026-04-25T13:22:54.002Z</time></trkpt><trkpt lat="44.53459" lon="8.701695"><ele>374.25</ele><time>2026-04-25T13:22:54.994Z</time></trkpt><trkpt lat="44.5346583" lon="8.7015617"><ele>377.0</ele><time>2026-04-25T13:22:55.994Z</time></trkpt><trkpt lat="44.5347217" lon="8.701435"><ele>373.0</ele><time>2026-04-25T13:22:56.998Z</time></trkpt><trkpt lat="44.5347833" lon="8.7013133"><ele>369.0</ele><time>2026-04-25T13:22:57.993Z</time></trkpt><trkpt lat="44.5348417" lon="8.7011967"><ele>365.0</ele><time>2026-04-25T13:22:58.993Z</time></trkpt><trkpt lat="44.5348967" lon="8.7010833"><ele>361.0</ele><time>2026-04-25T13:22:59.999Z</time></trkpt><trkpt lat="44.5349517" lon="8.70097"><ele>357.0</ele><time>2026-04-25T13:23:00.994Z</time></trkpt><trkpt lat="44.5350033" lon="8.7008517"><ele>357.0</ele><time>2026-04-25T13:23:01.996Z</time></trkpt><trkpt lat="44.5350567" lon="8.7007417"><ele>357.0</ele><time>2026-04-25T13:23:02.993Z</time></trkpt><trkpt lat="44.5351033" lon="8.700625"><ele>357.0</ele><time>2026-04-25T13:23:03.994Z</time></trkpt><trkpt lat="44.5351483" lon="8.70051"><ele>357.0</ele><time>2026-04-25T13:23:04.996Z</time></trkpt><trkpt lat="44.53519" lon="8.700395"><ele>357.0</ele><time>2026-04-25T13:23:05.999Z</time></trkpt><trkpt lat="44.5352317" lon="8.70028"><ele>357.8333333333333</ele><time>2026-04-25T13:23:06.998Z</time></trkpt><trkpt lat="44.5352717" lon="8.700165"><ele>358.6666666666667</ele><time>2026-04-25T13:23:07.998Z</time></trkpt><trkpt lat="44.5353033" lon="8.7000517"><ele>359.5</ele><time>2026-04-25T13:23:09Z</time></trkpt><trkpt lat="44.53533" lon="8.6999433"><ele>360.33333333333337</ele><time>2026-04-25T13:23:09.999Z</time></trkpt><trkpt lat="44.535355" lon="8.6998367"><ele>361.1666666666667</ele><time>2026-04-25T13:23:10.995Z</time></trkpt><trkpt lat="44.5353817" lon="8.699735"><ele>362.0</ele><time>2026-04-25T13:23:11.993Z</time></trkpt><trkpt lat="44.5354117" lon="8.6996483"><ele>360.1666666666667</ele><time>2026-04-25T13:23:12.998Z</time></trkpt><trkpt lat="44.53547" lon="8.6995067"><ele>358.33333333333337</ele><time>2026-04-25T13:23:14.996Z</time></trkpt><trkpt lat="44.535525" lon="8.699395"><ele>356.5</ele><time>2026-04-25T13:23:17Z</time></trkpt><trkpt lat="44.53557" lon="8.69931"><ele>354.6666666666667</ele><time>2026-04-25T13:23:19Z</time></trkpt><trkpt lat="44.5356333" lon="8.69924"><ele>352.8333333333333</ele><time>2026-04-25T13:23:20.996Z</time></trkpt><trkpt lat="44.5357067" lon="8.699215"><ele>351.0</ele><time>2026-04-25T13:23:23.994Z</time></trkpt><trkpt lat="44.5357683" lon="8.6991633"><ele>351.0</ele><time>2026-04-25T13:23:26.996Z</time></trkpt><trkpt lat="44.5357667" lon="8.699075"><ele>351.0</ele><time>2026-04-25T13:23:33Z</time></trkpt><trkpt lat="44.5356633" lon="8.6990533"><ele>351.0</ele><time>2026-04-25T13:23:34.994Z</time></trkpt><trkpt lat="44.53558" lon="8.6990217"><ele>351.0</ele><time>2026-04-25T13:23:35.995Z</time></trkpt><trkpt lat="44.5354717" lon="8.6990017"><ele>351.0</ele><time>2026-04-25T13:23:37Z</time></trkpt><trkpt lat="44.535385" lon="8.6989867"><ele>351.6666666666667</ele><time>2026-04-25T13:23:37.999Z</time></trkpt><trkpt lat="44.5353067" lon="8.6989783"><ele>352.3333333333333</ele><time>2026-04-25T13:23:38.998Z</time></trkpt><trkpt lat="44.5352183" lon="8.69898"><ele>353.0</ele><time>2026-04-25T13:23:40.002Z</time></trkpt><trkpt lat="44.5351233" lon="8.6989983"><ele>353.66666666666663</ele><time>2026-04-25T13:23:40.997Z</time></trkpt><trkpt lat="44.53502" lon="8.6989983"><ele>354.3333333333333</ele><time>2026-04-25T13:23:41.997Z</time></trkpt><trkpt lat="44.5349417" lon="8.6989883"><ele>355.0</ele><time>2026-04-25T13:23:42.999Z</time></trkpt><trkpt lat="44.5348633" lon="8.6989833"><ele>355.0</ele><time>2026-04-25T13:23:44.002Z</time></trkpt><trkpt lat="44.5347933" lon="8.6989717"><ele>355.0</ele><time>2026-04-25T13:23:44.995Z</time></trkpt><trkpt lat="44.53472" lon="8.6989717"><ele>355.0</ele><time>2026-04-25T13:23:45.994Z</time></trkpt><trkpt lat="44.534625" lon="8.6989517"><ele>355.0</ele><time>2026-04-25T13:23:47.001Z</time></trkpt><trkpt lat="44.5345317" lon="8.6989333"><ele>355.0</ele><time>2026-04-25T13:23:47.998Z</time></trkpt><trkpt lat="44.53446" lon="8.698965"><ele>355.0</ele><time>2026-04-25T13:23:49.997Z</time></trkpt><trkpt lat="44.5343867" lon="8.6989867"><ele>355.4</ele><time>2026-04-25T13:23:52.996Z</time></trkpt><trkpt lat="44.5343233" lon="8.6988917"><ele>355.8</ele><time>2026-04-25T13:24:33.997Z</time></trkpt><trkpt lat="44.5342283" lon="8.6988483"><ele>356.20000000000005</ele><time>2026-04-25T13:24:36.995Z</time></trkpt><trkpt lat="44.534125" lon="8.6988933"><ele>356.6</ele><time>2026-04-25T13:24:38.993Z</time></trkpt><trkpt lat="44.5340633" lon="8.6989567"><ele>357.0</ele><time>2026-04-25T13:24:39.994Z</time></trkpt><trkpt lat="44.534005" lon="8.699035"><ele>357.0</ele><time>2026-04-25T13:24:40.994Z</time></trkpt><trkpt lat="44.53394" lon="8.6991183"><ele>357.0</ele><time>2026-04-25T13:24:41.994Z</time></trkpt><trkpt lat="44.5338617" lon="8.6992183"><ele>357.0</ele><time>2026-04-25T13:24:42.995Z</time></trkpt><trkpt lat="44.533775" lon="8.699325"><ele>357.0</ele><time>2026-04-25T13:24:43.995Z</time></trkpt><trkpt lat="44.5336817" lon="8.69944"><ele>357.0</ele><time>2026-04-25T13:24:44.999Z</time></trkpt><trkpt lat="44.5335733" lon="8.6995633"><ele>358.25</ele><time>2026-04-25T13:24:45.997Z</time></trkpt><trkpt lat="44.53347" lon="8.6996867"><ele>359.5</ele><time>2026-04-25T13:24:46.992Z</time></trkpt><trkpt lat="44.533365" lon="8.6998133"><ele>360.75</ele><time>2026-04-25T13:24:47.994Z</time></trkpt><trkpt lat="44.5332617" lon="8.6999433"><ele>362.0</ele><time>2026-04-25T13:24:48.992Z</time></trkpt><trkpt lat="44.53316" lon="8.700075"><ele>362.0</ele><time>2026-04-25T13:24:49.996Z</time></trkpt><trkpt lat="44.5330617" lon="8.7002017"><ele>362.0</ele><time>2026-04-25T13:24:50.997Z</time></trkpt><trkpt lat="44.5329683" lon="8.7003267"><ele>362.0</ele><time>2026-04-25T13:24:51.992Z</time></trkpt><trkpt lat="44.5328833" lon="8.7004583"><ele>362.0</ele><time>2026-04-25T13:24:52.993Z</time></trkpt><trkpt lat="44.5327983" lon="8.7005933"><ele>363.5</ele><time>2026-04-25T13:24:53.991Z</time></trkpt><trkpt lat="44.532715" lon="8.7007233"><ele>365.0</ele><time>2026-04-25T13:24:54.997Z</time></trkpt><trkpt lat="44.532625" lon="8.7008383"><ele>366.5</ele><time>2026-04-25T13:24:55.995Z</time></trkpt><trkpt lat="44.5325283" lon="8.700945"><ele>368.0</ele><time>2026-04-25T13:24:56.999Z</time></trkpt><trkpt lat="44.5324267" lon="8.7010317"><ele>369.25</ele><time>2026-04-25T13:24:57.994Z</time></trkpt><trkpt lat="44.5323183" lon="8.7010983"><ele>370.5</ele><time>2026-04-25T13:24:58.993Z</time></trkpt><trkpt lat="44.5321933" lon="8.7011317"><ele>371.75</ele><time>2026-04-25T13:24:59.996Z</time></trkpt><trkpt lat="44.5320683" lon="8.7011433"><ele>373.0</ele><time>2026-04-25T13:25:00.995Z</time></trkpt><trkpt lat="44.5319333" lon="8.70113"><ele>373.0</ele><time>2026-04-25T13:25:01.995Z</time></trkpt><trkpt lat="44.531805" lon="8.7011133"><ele>373.0</ele><time>2026-04-25T13:25:02.996Z</time></trkpt><trkpt lat="44.53168" lon="8.70113"><ele>373.0</ele><time>2026-04-25T13:25:03.997Z</time></trkpt><trkpt lat="44.5315683" lon="8.70116"><ele>373.0</ele><time>2026-04-25T13:25:04.998Z</time></trkpt><trkpt lat="44.5314567" lon="8.7012033"><ele>373.0</ele><time>2026-04-25T13:25:05.994Z</time></trkpt><trkpt lat="44.5313567" lon="8.7012583"><ele>373.0</ele><time>2026-04-25T13:25:06.993Z</time></trkpt><trkpt lat="44.5312567" lon="8.701325"><ele>373.0</ele><time>2026-04-25T13:25:07.998Z</time></trkpt><trkpt lat="44.5311683" lon="8.70141"><ele>373.0</ele><time>2026-04-25T13:25:08.991Z</time></trkpt><trkpt lat="44.5310867" lon="8.7015"><ele>373.0</ele><time>2026-04-25T13:25:09.995Z</time></trkpt><trkpt lat="44.5310033" lon="8.7015933"><ele>373.16666666666663</ele><time>2026-04-25T13:25:10.993Z</time></trkpt><trkpt lat="44.5309233" lon="8.7016733"><ele>373.3333333333333</ele><time>2026-04-25T13:25:11.997Z</time></trkpt><trkpt lat="44.5308617" lon="8.7017633"><ele>373.5</ele><time>2026-04-25T13:25:12.994Z</time></trkpt><trkpt lat="44.530805" lon="8.7018317"><ele>373.6666666666667</ele><time>2026-04-25T13:25:13.997Z</time></trkpt><trkpt lat="44.5307633" lon="8.7019033"><ele>373.83333333333337</ele><time>2026-04-25T13:25:14.993Z</time></trkpt><trkpt lat="44.5307017" lon="8.7020217"><ele>374.0</ele><time>2026-04-25T13:25:16.991Z</time></trkpt><trkpt lat="44.5306883" lon="8.7022033"><ele>374.0</ele><time>2026-04-25T13:29:11.993Z</time></trkpt><trkpt lat="44.53065" lon="8.7020883"><ele>374.0</ele><time>2026-04-25T13:30:15.995Z</time></trkpt><trkpt lat="44.5305533" lon="8.7020333"><ele>374.0</ele><time>2026-04-25T13:30:27Z</time></trkpt><trkpt lat="44.5304383" lon="8.7020633"><ele>374.0</ele><time>2026-04-25T13:30:28.995Z</time></trkpt><trkpt lat="44.53037" lon="8.7021217"><ele>374.0</ele><time>2026-04-25T13:30:30Z</time></trkpt><trkpt lat="44.5303033" lon="8.7021717"><ele>372.6</ele><time>2026-04-25T13:30:30.995Z</time></trkpt><trkpt lat="44.5302283" lon="8.70221"><ele>371.2</ele><time>2026-04-25T13:30:31.995Z</time></trkpt><trkpt lat="44.530145" lon="8.70224"><ele>369.8</ele><time>2026-04-25T13:30:32.994Z</time></trkpt><trkpt lat="44.53005" lon="8.7022633"><ele>368.40000000000003</ele><time>2026-04-25T13:30:33.991Z</time></trkpt><trkpt lat="44.52995" lon="8.7022733"><ele>367.0</ele><time>2026-04-25T13:30:34.995Z</time></trkpt><trkpt lat="44.5298517" lon="8.7022783"><ele>367.0</ele><time>2026-04-25T13:30:35.995Z</time></trkpt><trkpt lat="44.5297517" lon="8.702265"><ele>367.0</ele><time>2026-04-25T13:30:36.995Z</time></trkpt><trkpt lat="44.529665" lon="8.702235"><ele>367.0</ele><time>2026-04-25T13:30:37.997Z</time></trkpt><trkpt lat="44.5295883" lon="8.702185"><ele>367.0</ele><time>2026-04-25T13:30:38.995Z</time></trkpt><trkpt lat="44.52953" lon="8.7021017"><ele>367.0</ele><time>2026-04-25T13:30:39.993Z</time></trkpt><trkpt lat="44.5294717" lon="8.702005"><ele>367.0</ele><time>2026-04-25T13:30:40.995Z</time></trkpt><trkpt lat="44.5294167" lon="8.70189"><ele>365.8</ele><time>2026-04-25T13:30:41.998Z</time></trkpt><trkpt lat="44.5293517" lon="8.70177"><ele>364.6</ele><time>2026-04-25T13:30:42.996Z</time></trkpt><trkpt lat="44.5292867" lon="8.7016517"><ele>363.40000000000003</ele><time>2026-04-25T13:30:43.995Z</time></trkpt><trkpt lat="44.5292217" lon="8.7015317"><ele>362.20000000000005</ele><time>2026-04-25T13:30:44.993Z</time></trkpt><trkpt lat="44.5291583" lon="8.7014117"><ele>361.0</ele><time>2026-04-25T13:30:45.993Z</time></trkpt><trkpt lat="44.5290967" lon="8.7012883"><ele>361.0</ele><time>2026-04-25T13:30:46.996Z</time></trkpt><trkpt lat="44.529035" lon="8.7011667"><ele>361.0</ele><time>2026-04-25T13:30:47.996Z</time></trkpt><trkpt lat="44.52897" lon="8.70105"><ele>361.0</ele><time>2026-04-25T13:30:48.995Z</time></trkpt><trkpt lat="44.5288933" lon="8.7009333"><ele>361.0</ele><time>2026-04-25T13:30:49.994Z</time></trkpt><trkpt lat="44.5288133" lon="8.700815"><ele>361.0</ele><time>2026-04-25T13:30:51.002Z</time></trkpt><trkpt lat="44.5287283" lon="8.7007233"><ele>360.5</ele><time>2026-04-25T13:30:51.997Z</time></trkpt><trkpt lat="44.5286333" lon="8.7006483"><ele>360.0</ele><time>2026-04-25T13:30:52.995Z</time></trkpt><trkpt lat="44.528525" lon="8.7005867"><ele>359.5</ele><time>2026-04-25T13:30:53.992Z</time></trkpt><trkpt lat="44.52841" lon="8.7005467"><ele>359.0</ele><time>2026-04-25T13:30:54.996Z</time></trkpt><trkpt lat="44.528285" lon="8.7005183"><ele>359.0</ele><time>2026-04-25T13:30:55.997Z</time></trkpt><trkpt lat="44.5281567" lon="8.7004967"><ele>359.0</ele><time>2026-04-25T13:30:56.994Z</time></trkpt><trkpt lat="44.5280233" lon="8.7004667"><ele>359.0</ele><time>2026-04-25T13:30:57.993Z</time></trkpt><trkpt lat="44.5278883" lon="8.7004467"><ele>359.0</ele><time>2026-04-25T13:30:58.993Z</time></trkpt><trkpt lat="44.527755" lon="8.7004367"><ele>360.25</ele><time>2026-04-25T13:30:59.995Z</time></trkpt><trkpt lat="44.5276283" lon="8.7004183"><ele>361.5</ele><time>2026-04-25T13:31:00.994Z</time></trkpt><trkpt lat="44.5275033" lon="8.7003933"><ele>362.75</ele><time>2026-04-25T13:31:01.993Z</time></trkpt><trkpt lat="44.5273767" lon="8.7003683"><ele>364.0</ele><time>2026-04-25T13:31:02.997Z</time></trkpt><trkpt lat="44.5272467" lon="8.700345"><ele>364.0</ele><time>2026-04-25T13:31:03.992Z</time></trkpt><trkpt lat="44.527115" lon="8.7003333"><ele>364.0</ele><time>2026-04-25T13:31:04.994Z</time></trkpt><trkpt lat="44.5269817" lon="8.70032"><ele>364.0</ele><time>2026-04-25T13:31:05.992Z</time></trkpt><trkpt lat="44.526845" lon="8.700305"><ele>364.0</ele><time>2026-04-25T13:31:06.995Z</time></trkpt><trkpt lat="44.52671" lon="8.7002983"><ele>363.75</ele><time>2026-04-25T13:31:07.993Z</time></trkpt><trkpt lat="44.5265767" lon="8.7003133"><ele>363.5</ele><time>2026-04-25T13:31:08.993Z</time></trkpt><trkpt lat="44.5264433" lon="8.700345"><ele>363.25</ele><time>2026-04-25T13:31:09.995Z</time></trkpt><trkpt lat="44.5263183" lon="8.7004067"><ele>363.0</ele><time>2026-04-25T13:31:10.994Z</time></trkpt><trkpt lat="44.5261983" lon="8.7004883"><ele>363.0</ele><time>2026-04-25T13:31:11.998Z</time></trkpt><trkpt lat="44.526085" lon="8.700595"><ele>363.0</ele><time>2026-04-25T13:31:12.994Z</time></trkpt><trkpt lat="44.525975" lon="8.700715"><ele>363.0</ele><time>2026-04-25T13:31:13.993Z</time></trkpt><trkpt lat="44.5258683" lon="8.700845"><ele>363.0</ele><time>2026-04-25T13:31:14.993Z</time></trkpt><trkpt lat="44.5257667" lon="8.70098"><ele>369.25</ele><time>2026-04-25T13:31:15.992Z</time></trkpt><trkpt lat="44.52567" lon="8.701115"><ele>375.5</ele><time>2026-04-25T13:31:16.992Z</time></trkpt><trkpt lat="44.5255717" lon="8.7012467"><ele>381.75</ele><time>2026-04-25T13:31:17.996Z</time></trkpt><trkpt lat="44.5254917" lon="8.7013933"><ele>388.0</ele><time>2026-04-25T13:31:18.994Z</time></trkpt><trkpt lat="44.5254267" lon="8.7015533"><ele>383.25</ele><time>2026-04-25T13:31:19.997Z</time></trkpt><trkpt lat="44.5253767" lon="8.7017217"><ele>378.5</ele><time>2026-04-25T13:31:20.991Z</time></trkpt><trkpt lat="44.52534" lon="8.70189"><ele>373.75</ele><time>2026-04-25T13:31:21.996Z</time></trkpt><trkpt lat="44.5253283" lon="8.7020617"><ele>369.0</ele><time>2026-04-25T13:31:22.996Z</time></trkpt><trkpt lat="44.525335" lon="8.7022367"><ele>368.25</ele><time>2026-04-25T13:31:23.996Z</time></trkpt><trkpt lat="44.52535" lon="8.70242"><ele>367.5</ele><time>2026-04-25T13:31:24.995Z</time></trkpt><trkpt lat="44.5253567" lon="8.70259"><ele>366.75</ele><time>2026-04-25T13:31:25.995Z</time></trkpt><trkpt lat="44.5253517" lon="8.7027567"><ele>366.0</ele><time>2026-04-25T13:31:26.995Z</time></trkpt><trkpt lat="44.52532" lon="8.702905"><ele>367.20000000000005</ele><time>2026-04-25T13:31:27.993Z</time></trkpt><trkpt lat="44.5252733" lon="8.7030467"><ele>368.40000000000003</ele><time>2026-04-25T13:31:28.995Z</time></trkpt><trkpt lat="44.5252217" lon="8.70318"><ele>369.6</ele><time>2026-04-25T13:31:29.994Z</time></trkpt><trkpt lat="44.525145" lon="8.7032917"><ele>370.8</ele><time>2026-04-25T13:31:30.992Z</time></trkpt><trkpt lat="44.5250533" lon="8.7033833"><ele>372.0</ele><time>2026-04-25T13:31:31.996Z</time></trkpt><trkpt lat="44.5249533" lon="8.7034467"><ele>372.0</ele><time>2026-04-25T13:31:32.999Z</time></trkpt><trkpt lat="44.5248467" lon="8.70348"><ele>372.0</ele><time>2026-04-25T13:31:33.994Z</time></trkpt><trkpt lat="44.5247317" lon="8.7034817"><ele>372.0</ele><time>2026-04-25T13:31:34.993Z</time></trkpt><trkpt lat="44.5246117" lon="8.7034417"><ele>372.0</ele><time>2026-04-25T13:31:35.993Z</time></trkpt><trkpt lat="44.5244883" lon="8.703355"><ele>370.0</ele><time>2026-04-25T13:31:36.992Z</time></trkpt><trkpt lat="44.524375" lon="8.7032633"><ele>368.0</ele><time>2026-04-25T13:31:37.993Z</time></trkpt><trkpt lat="44.52425" lon="8.7031433"><ele>366.0</ele><time>2026-04-25T13:31:38.992Z</time></trkpt><trkpt lat="44.5241183" lon="8.7030217"><ele>364.0</ele><time>2026-04-25T13:31:39.999Z</time></trkpt><trkpt lat="44.523995" lon="8.702915"><ele>364.0</ele><time>2026-04-25T13:31:40.997Z</time></trkpt><trkpt lat="44.523875" lon="8.7028083"><ele>364.0</ele><time>2026-04-25T13:31:41.993Z</time></trkpt><trkpt lat="44.52376" lon="8.7027067"><ele>364.0</ele><time>2026-04-25T13:31:42.997Z</time></trkpt><trkpt lat="44.5236333" lon="8.7025983"><ele>364.0</ele><time>2026-04-25T13:31:43.995Z</time></trkpt><trkpt lat="44.5235" lon="8.7024883"><ele>364.5</ele><time>2026-04-25T13:31:44.997Z</time></trkpt><trkpt lat="44.5233717" lon="8.7023783"><ele>365.0</ele><time>2026-04-25T13:31:45.996Z</time></trkpt><trkpt lat="44.5232467" lon="8.7022667"><ele>365.5</ele><time>2026-04-25T13:31:46.994Z</time></trkpt><trkpt lat="44.5231233" lon="8.7021567"><ele>366.0</ele><time>2026-04-25T13:31:47.997Z</time></trkpt><trkpt lat="44.522995" lon="8.7020417"><ele>365.6666666666667</ele><time>2026-04-25T13:31:48.999Z</time></trkpt><trkpt lat="44.5228717" lon="8.7019217"><ele>365.33333333333337</ele><time>2026-04-25T13:31:49.993Z</time></trkpt><trkpt lat="44.5227433" lon="8.7018067"><ele>365.0</ele><time>2026-04-25T13:31:50.992Z</time></trkpt><trkpt lat="44.5226133" lon="8.7016933"><ele>365.0</ele><time>2026-04-25T13:31:51.993Z</time></trkpt><trkpt lat="44.5224833" lon="8.7015867"><ele>365.0</ele><time>2026-04-25T13:31:52.991Z</time></trkpt><trkpt lat="44.5223583" lon="8.7014767"><ele>365.0</ele><time>2026-04-25T13:31:53.995Z</time></trkpt><trkpt lat="44.5222333" lon="8.70137"><ele>365.0</ele><time>2026-04-25T13:31:54.992Z</time></trkpt><trkpt lat="44.5221133" lon="8.70126"><ele>365.25</ele><time>2026-04-25T13:31:55.996Z</time></trkpt><trkpt lat="44.5219917" lon="8.70116"><ele>365.5</ele><time>2026-04-25T13:31:56.998Z</time></trkpt><trkpt lat="44.5218667" lon="8.7010683"><ele>365.75</ele><time>2026-04-25T13:31:57.996Z</time></trkpt><trkpt lat="44.52174" lon="8.70098"><ele>366.0</ele><time>2026-04-25T13:31:58.995Z</time></trkpt><trkpt lat="44.521605" lon="8.7009133"><ele>366.0</ele><time>2026-04-25T13:31:59.993Z</time></trkpt><trkpt lat="44.5214667" lon="8.700865"><ele>366.0</ele><time>2026-04-25T13:32:00.997Z</time></trkpt><trkpt lat="44.5213233" lon="8.7008317"><ele>366.0</ele><time>2026-04-25T13:32:01.992Z</time></trkpt><trkpt lat="44.5211783" lon="8.700815"><ele>366.0</ele><time>2026-04-25T13:32:02.995Z</time></trkpt><trkpt lat="44.5210317" lon="8.7008"><ele>366.0</ele><time>2026-04-25T13:32:03.995Z</time></trkpt><trkpt lat="44.5208883" lon="8.7007817"><ele>366.0</ele><time>2026-04-25T13:32:05Z</time></trkpt><trkpt lat="44.520755" lon="8.7007383"><ele>366.0</ele><time>2026-04-25T13:32:05.995Z</time></trkpt><trkpt lat="44.52063" lon="8.7006683"><ele>366.0</ele><time>2026-04-25T13:32:06.993Z</time></trkpt><trkpt lat="44.520505" lon="8.7005833"><ele>366.0</ele><time>2026-04-25T13:32:07.996Z</time></trkpt><trkpt lat="44.5203817" lon="8.7004917"><ele>366.0</ele><time>2026-04-25T13:32:09Z</time></trkpt><trkpt lat="44.5202617" lon="8.7003933"><ele>366.0</ele><time>2026-04-25T13:32:09.995Z</time></trkpt><trkpt lat="44.52014" lon="8.7003"><ele>366.0</ele><time>2026-04-25T13:32:10.997Z</time></trkpt><trkpt lat="44.520015" lon="8.7002133"><ele>366.0</ele><time>2026-04-25T13:32:11.993Z</time></trkpt><trkpt lat="44.519885" lon="8.70014"><ele>366.0</ele><time>2026-04-25T13:32:12.997Z</time></trkpt><trkpt lat="44.519745" lon="8.7000767"><ele>366.0</ele><time>2026-04-25T13:32:13.993Z</time></trkpt><trkpt lat="44.519595" lon="8.7000333"><ele>366.0</ele><time>2026-04-25T13:32:14.993Z</time></trkpt><trkpt lat="44.519445" lon="8.6999983"><ele>366.0</ele><time>2026-04-25T13:32:15.994Z</time></trkpt><trkpt lat="44.5192917" lon="8.6999667"><ele>366.0</ele><time>2026-04-25T13:32:16.993Z</time></trkpt><trkpt lat="44.5191383" lon="8.699935"><ele>366.0</ele><time>2026-04-25T13:32:17.997Z</time></trkpt><trkpt lat="44.5189883" lon="8.6999"><ele>366.0</ele><time>2026-04-25T13:32:18.995Z</time></trkpt><trkpt lat="44.51884" lon="8.6998683"><ele>366.0</ele><time>2026-04-25T13:32:19.992Z</time></trkpt><trkpt lat="44.5186917" lon="8.69984"><ele>366.0</ele><time>2026-04-25T13:32:20.993Z</time></trkpt><trkpt lat="44.5185433" lon="8.69981"><ele>366.5</ele><time>2026-04-25T13:32:21.995Z</time></trkpt><trkpt lat="44.5184" lon="8.6997833"><ele>367.0</ele><time>2026-04-25T13:32:22.996Z</time></trkpt><trkpt lat="44.5182533" lon="8.699755"><ele>367.5</ele><time>2026-04-25T13:32:23.993Z</time></trkpt><trkpt lat="44.5181067" lon="8.69973"><ele>368.0</ele><time>2026-04-25T13:32:24.995Z</time></trkpt><trkpt lat="44.51796" lon="8.6996983"><ele>372.0</ele><time>2026-04-25T13:32:25.998Z</time></trkpt><trkpt lat="44.5178117" lon="8.699675"><ele>376.0</ele><time>2026-04-25T13:32:26.994Z</time></trkpt><trkpt lat="44.517665" lon="8.6996567"><ele>380.0</ele><time>2026-04-25T13:32:27.993Z</time></trkpt><trkpt lat="44.517515" lon="8.699655"><ele>384.0</ele><time>2026-04-25T13:32:28.998Z</time></trkpt><trkpt lat="44.5173633" lon="8.6996717"><ele>384.0</ele><time>2026-04-25T13:32:29.996Z</time></trkpt><trkpt lat="44.517205" lon="8.6997083"><ele>384.0</ele><time>2026-04-25T13:32:31Z</time></trkpt><trkpt lat="44.5170317" lon="8.6997683"><ele>384.0</ele><time>2026-04-25T13:32:31.997Z</time></trkpt><trkpt lat="44.5168467" lon="8.69984"><ele>383.0</ele><time>2026-04-25T13:32:32.994Z</time></trkpt><trkpt lat="44.5166533" lon="8.6999183"><ele>382.0</ele><time>2026-04-25T13:32:33.992Z</time></trkpt><trkpt lat="44.5164617" lon="8.6999967"><ele>381.0</ele><time>2026-04-25T13:32:34.992Z</time></trkpt><trkpt lat="44.5162833" lon="8.7000817"><ele>377.6666666666667</ele><time>2026-04-25T13:32:35.993Z</time></trkpt><trkpt lat="44.5161033" lon="8.70015"><ele>374.33333333333337</ele><time>2026-04-25T13:32:36.996Z</time></trkpt><trkpt lat="44.5159317" lon="8.700215"><ele>371.0</ele><time>2026-04-25T13:32:37.993Z</time></trkpt><trkpt lat="44.5157783" lon="8.7002967"><ele>375.33333333333337</ele><time>2026-04-25T13:32:39.002Z</time></trkpt><trkpt lat="44.5156083" lon="8.7003333"><ele>379.6666666666667</ele><time>2026-04-25T13:32:39.998Z</time></trkpt><trkpt lat="44.5154617" lon="8.7003967"><ele>384.0</ele><time>2026-04-25T13:32:40.993Z</time></trkpt><trkpt lat="44.5153133" lon="8.70043"><ele>384.0</ele><time>2026-04-25T13:32:41.994Z</time></trkpt><trkpt lat="44.5151617" lon="8.7004517"><ele>384.0</ele><time>2026-04-25T13:32:42.993Z</time></trkpt><trkpt lat="44.515005" lon="8.700485"><ele>384.0</ele><time>2026-04-25T13:32:43.994Z</time></trkpt><trkpt lat="44.5148317" lon="8.700525"><ele>384.0</ele><time>2026-04-25T13:32:44.997Z</time></trkpt><trkpt lat="44.514655" lon="8.7005617"><ele>384.0</ele><time>2026-04-25T13:32:45.998Z</time></trkpt><trkpt lat="44.5144817" lon="8.7006017"><ele>384.0</ele><time>2026-04-25T13:32:46.991Z</time></trkpt><trkpt lat="44.514305" lon="8.7006433"><ele>382.6666666666667</ele><time>2026-04-25T13:32:47.997Z</time></trkpt><trkpt lat="44.5141283" lon="8.7006817"><ele>381.33333333333337</ele><time>2026-04-25T13:32:48.999Z</time></trkpt><trkpt lat="44.51395" lon="8.7007167"><ele>380.0</ele><time>2026-04-25T13:32:49.997Z</time></trkpt><trkpt lat="44.51378" lon="8.7007517"><ele>379.6666666666667</ele><time>2026-04-25T13:32:50.994Z</time></trkpt><trkpt lat="44.5136067" lon="8.700785"><ele>379.3333333333333</ele><time>2026-04-25T13:32:51.996Z</time></trkpt><trkpt lat="44.51344" lon="8.7008233"><ele>379.0</ele><time>2026-04-25T13:32:52.994Z</time></trkpt><trkpt lat="44.51328" lon="8.7008683"><ele>379.0</ele><time>2026-04-25T13:32:53.997Z</time></trkpt><trkpt lat="44.5131283" lon="8.700915"><ele>379.0</ele><time>2026-04-25T13:32:54.993Z</time></trkpt><trkpt lat="44.5129817" lon="8.7009783"><ele>379.0</ele><time>2026-04-25T13:32:55.995Z</time></trkpt><trkpt lat="44.5128383" lon="8.7010617"><ele>386.3333333333333</ele><time>2026-04-25T13:32:56.998Z</time></trkpt><trkpt lat="44.5127017" lon="8.7011667"><ele>393.66666666666663</ele><time>2026-04-25T13:32:57.998Z</time></trkpt><trkpt lat="44.51257" lon="8.701295"><ele>401.0</ele><time>2026-04-25T13:32:58.994Z</time></trkpt><trkpt lat="44.51244" lon="8.7014233"><ele>401.0</ele><time>2026-04-25T13:32:59.993Z</time></trkpt><trkpt lat="44.5122967" lon="8.7015333"><ele>401.0</ele><time>2026-04-25T13:33:00.994Z</time></trkpt><trkpt lat="44.512165" lon="8.701675"><ele>401.0</ele><time>2026-04-25T13:33:01.992Z</time></trkpt><trkpt lat="44.512035" lon="8.701825"><ele>401.3333333333333</ele><time>2026-04-25T13:33:02.996Z</time></trkpt><trkpt lat="44.5119033" lon="8.7019567"><ele>401.66666666666663</ele><time>2026-04-25T13:33:03.999Z</time></trkpt><trkpt lat="44.5117733" lon="8.702085"><ele>402.0</ele><time>2026-04-25T13:33:04.993Z</time></trkpt><trkpt lat="44.5116417" lon="8.7022133"><ele>402.0</ele><time>2026-04-25T13:33:05.994Z</time></trkpt><trkpt lat="44.511515" lon="8.70234"><ele>402.0</ele><time>2026-04-25T13:33:06.996Z</time></trkpt><trkpt lat="44.5113833" lon="8.7024667"><ele>402.0</ele><time>2026-04-25T13:33:07.994Z</time></trkpt><trkpt lat="44.511255" lon="8.7025917"><ele>401.66666666666663</ele><time>2026-04-25T13:33:08.992Z</time></trkpt><trkpt lat="44.5111317" lon="8.70273"><ele>401.3333333333333</ele><time>2026-04-25T13:33:09.997Z</time></trkpt><trkpt lat="44.5110033" lon="8.7028583"><ele>401.0</ele><time>2026-04-25T13:33:10.995Z</time></trkpt><trkpt lat="44.5108733" lon="8.70298"><ele>401.0</ele><time>2026-04-25T13:33:11.999Z</time></trkpt><trkpt lat="44.5107383" lon="8.70309"><ele>401.0</ele><time>2026-04-25T13:33:12.994Z</time></trkpt><trkpt lat="44.5106067" lon="8.7031983"><ele>401.0</ele><time>2026-04-25T13:33:13.994Z</time></trkpt><trkpt lat="44.5104767" lon="8.70332"><ele>399.66666666666663</ele><time>2026-04-25T13:33:14.998Z</time></trkpt><trkpt lat="44.5103433" lon="8.7034433"><ele>398.33333333333337</ele><time>2026-04-25T13:33:15.999Z</time></trkpt><trkpt lat="44.5102117" lon="8.7035667"><ele>397.0</ele><time>2026-04-25T13:33:16.998Z</time></trkpt><trkpt lat="44.510075" lon="8.7036717"><ele>397.0</ele><time>2026-04-25T13:33:17.994Z</time></trkpt><trkpt lat="44.5099283" lon="8.7037533"><ele>397.0</ele><time>2026-04-25T13:33:18.995Z</time></trkpt><trkpt lat="44.5097867" lon="8.70386"><ele>397.0</ele><time>2026-04-25T13:33:19.995Z</time></trkpt><trkpt lat="44.509655" lon="8.7039833"><ele>392.0</ele><time>2026-04-25T13:33:20.993Z</time></trkpt><trkpt lat="44.5095267" lon="8.704095"><ele>387.0</ele><time>2026-04-25T13:33:21.998Z</time></trkpt><trkpt lat="44.5094183" lon="8.70423"><ele>382.0</ele><time>2026-04-25T13:33:22.997Z</time></trkpt><trkpt lat="44.509275" lon="8.704325"><ele>382.0</ele><time>2026-04-25T13:33:23.995Z</time></trkpt><trkpt lat="44.509115" lon="8.7044033"><ele>382.0</ele><time>2026-04-25T13:33:24.993Z</time></trkpt><trkpt lat="44.5089533" lon="8.7044717"><ele>382.0</ele><time>2026-04-25T13:33:25.995Z</time></trkpt><trkpt lat="44.508805" lon="8.70454"><ele>386.0</ele><time>2026-04-25T13:33:26.994Z</time></trkpt><trkpt lat="44.5086433" lon="8.7046167"><ele>390.0</ele><time>2026-04-25T13:33:27.996Z</time></trkpt><trkpt lat="44.508465" lon="8.704665"><ele>394.0</ele><time>2026-04-25T13:33:28.997Z</time></trkpt><trkpt lat="44.508255" lon="8.7046867"><ele>394.0</ele><time>2026-04-25T13:33:29.997Z</time></trkpt><trkpt lat="44.5080933" lon="8.7047317"><ele>394.0</ele><time>2026-04-25T13:33:30.996Z</time></trkpt><trkpt lat="44.5079367" lon="8.7047783"><ele>394.0</ele><time>2026-04-25T13:33:31.995Z</time></trkpt><trkpt lat="44.50778" lon="8.7048183"><ele>392.75</ele><time>2026-04-25T13:33:32.997Z</time></trkpt><trkpt lat="44.5076517" lon="8.70489"><ele>391.5</ele><time>2026-04-25T13:33:33.996Z</time></trkpt><trkpt lat="44.5075267" lon="8.704945"><ele>390.25</ele><time>2026-04-25T13:33:34.993Z</time></trkpt><trkpt lat="44.5074083" lon="8.7049933"><ele>389.0</ele><time>2026-04-25T13:33:35.994Z</time></trkpt><trkpt lat="44.5073" lon="8.7050383"><ele>388.99999999999994</ele><time>2026-04-25T13:33:36.992Z</time></trkpt><trkpt lat="44.5071983" lon="8.7050767"><ele>389.0</ele><time>2026-04-25T13:33:37.995Z</time></trkpt><trkpt lat="44.5071217" lon="8.7051133"><ele>389.0</ele><time>2026-04-25T13:33:39.001Z</time></trkpt><trkpt lat="44.5070567" lon="8.7051483"><ele>389.0</ele><time>2026-04-25T13:33:39.994Z</time></trkpt><trkpt lat="44.50699" lon="8.7051717"><ele>388.99999999999994</ele><time>2026-04-25T13:33:40.999Z</time></trkpt><trkpt lat="44.50692" lon="8.7051917"><ele>389.0</ele><time>2026-04-25T13:33:41.994Z</time></trkpt><trkpt lat="44.5068567" lon="8.7052317"><ele>390.6</ele><time>2026-04-25T13:33:43Z</time></trkpt><trkpt lat="44.506785" lon="8.705275"><ele>392.2</ele><time>2026-04-25T13:33:43.994Z</time></trkpt><trkpt lat="44.506715" lon="8.70534"><ele>393.8</ele><time>2026-04-25T13:33:44.999Z</time></trkpt><trkpt lat="44.5066383" lon="8.705415"><ele>395.40000000000003</ele><time>2026-04-25T13:33:45.999Z</time></trkpt><trkpt lat="44.50655" lon="8.7054917"><ele>397.0</ele><time>2026-04-25T13:33:46.993Z</time></trkpt><trkpt lat="44.50645" lon="8.7055767"><ele>397.0</ele><time>2026-04-25T13:33:47.996Z</time></trkpt><trkpt lat="44.5063467" lon="8.7056633"><ele>397.0</ele><time>2026-04-25T13:33:48.995Z</time></trkpt><trkpt lat="44.5062383" lon="8.7057567"><ele>397.0</ele><time>2026-04-25T13:33:49.996Z</time></trkpt><trkpt lat="44.5061283" lon="8.7058517"><ele>397.0</ele><time>2026-04-25T13:33:50.997Z</time></trkpt><trkpt lat="44.50602" lon="8.7059517"><ele>398.0</ele><time>2026-04-25T13:33:51.994Z</time></trkpt><trkpt lat="44.5059067" lon="8.7060567"><ele>399.0</ele><time>2026-04-25T13:33:52.998Z</time></trkpt><trkpt lat="44.5057967" lon="8.70616"><ele>400.0</ele><time>2026-04-25T13:33:53.993Z</time></trkpt><trkpt lat="44.5056917" lon="8.7062767"><ele>401.0</ele><time>2026-04-25T13:33:54.992Z</time></trkpt><trkpt lat="44.5055933" lon="8.7064"><ele>401.0</ele><time>2026-04-25T13:33:55.995Z</time></trkpt><trkpt lat="44.5055033" lon="8.7065333"><ele>401.0</ele><time>2026-04-25T13:33:56.996Z</time></trkpt><trkpt lat="44.5054217" lon="8.7066617"><ele>401.0</ele><time>2026-04-25T13:33:58Z</time></trkpt><trkpt lat="44.505345" lon="8.7067917"><ele>401.0</ele><time>2026-04-25T13:33:58.994Z</time></trkpt><trkpt lat="44.5052767" lon="8.7069317"><ele>399.5</ele><time>2026-04-25T13:33:59.993Z</time></trkpt><trkpt lat="44.5052133" lon="8.707085"><ele>398.0</ele><time>2026-04-25T13:34:00.998Z</time></trkpt><trkpt lat="44.50515" lon="8.70723"><ele>396.5</ele><time>2026-04-25T13:34:01.996Z</time></trkpt><trkpt lat="44.5051" lon="8.7073867"><ele>395.0</ele><time>2026-04-25T13:34:02.995Z</time></trkpt><trkpt lat="44.5050767" lon="8.707555"><ele>395.0</ele><time>2026-04-25T13:34:03.995Z</time></trkpt><trkpt lat="44.5050733" lon="8.7077183"><ele>395.0</ele><time>2026-04-25T13:34:04.994Z</time></trkpt><trkpt lat="44.5050883" lon="8.7078717"><ele>395.0</ele><time>2026-04-25T13:34:05.996Z</time></trkpt><trkpt lat="44.5051217" lon="8.7080283"><ele>395.0</ele><time>2026-04-25T13:34:06.998Z</time></trkpt><trkpt lat="44.5051633" lon="8.7081917"><ele>396.0</ele><time>2026-04-25T13:34:07.996Z</time></trkpt><trkpt lat="44.5052133" lon="8.7083567"><ele>397.0</ele><time>2026-04-25T13:34:08.997Z</time></trkpt><trkpt lat="44.5052717" lon="8.7085217"><ele>398.0</ele><time>2026-04-25T13:34:09.997Z</time></trkpt><trkpt lat="44.5053317" lon="8.7086883"><ele>399.0</ele><time>2026-04-25T13:34:10.997Z</time></trkpt><trkpt lat="44.505395" lon="8.7088617"><ele>399.0</ele><time>2026-04-25T13:34:12.003Z</time></trkpt><trkpt lat="44.505455" lon="8.7090367"><ele>399.0</ele><time>2026-04-25T13:34:12.995Z</time></trkpt><trkpt lat="44.5055133" lon="8.709205"><ele>399.0</ele><time>2026-04-25T13:34:13.998Z</time></trkpt><trkpt lat="44.5055717" lon="8.7093717"><ele>399.0</ele><time>2026-04-25T13:34:14.994Z</time></trkpt><trkpt lat="44.505635" lon="8.7095217"><ele>399.0</ele><time>2026-04-25T13:34:15.994Z</time></trkpt><trkpt lat="44.5057" lon="8.709675"><ele>399.0</ele><time>2026-04-25T13:34:16.997Z</time></trkpt><trkpt lat="44.5057767" lon="8.7098283"><ele>399.0</ele><time>2026-04-25T13:34:18Z</time></trkpt><trkpt lat="44.50586" lon="8.70997"><ele>399.0</ele><time>2026-04-25T13:34:18.995Z</time></trkpt><trkpt lat="44.505955" lon="8.710105"><ele>399.0</ele><time>2026-04-25T13:34:19.993Z</time></trkpt><trkpt lat="44.5060533" lon="8.710235"><ele>399.0</ele><time>2026-04-25T13:34:20.996Z</time></trkpt><trkpt lat="44.5061533" lon="8.7103633"><ele>399.0</ele><time>2026-04-25T13:34:21.996Z</time></trkpt><trkpt lat="44.5062533" lon="8.7104917"><ele>399.0</ele><time>2026-04-25T13:34:22.993Z</time></trkpt><trkpt lat="44.5063517" lon="8.7106133"><ele>397.0</ele><time>2026-04-25T13:34:23.992Z</time></trkpt><trkpt lat="44.50645" lon="8.7107367"><ele>395.0</ele><time>2026-04-25T13:34:24.996Z</time></trkpt><trkpt lat="44.50654" lon="8.710865"><ele>393.0</ele><time>2026-04-25T13:34:25.998Z</time></trkpt><trkpt lat="44.5066267" lon="8.710995"><ele>391.0</ele><time>2026-04-25T13:34:26.997Z</time></trkpt><trkpt lat="44.50671" lon="8.711135"><ele>391.0</ele><time>2026-04-25T13:34:27.995Z</time></trkpt><trkpt lat="44.5067883" lon="8.711275"><ele>391.0</ele><time>2026-04-25T13:34:28.996Z</time></trkpt><trkpt lat="44.5068667" lon="8.711415"><ele>391.0</ele><time>2026-04-25T13:34:29.997Z</time></trkpt><trkpt lat="44.5069433" lon="8.711555"><ele>391.0</ele><time>2026-04-25T13:34:30.994Z</time></trkpt><trkpt lat="44.507005" lon="8.7116917"><ele>391.0</ele><time>2026-04-25T13:34:31.995Z</time></trkpt><trkpt lat="44.507045" lon="8.7118417"><ele>391.0</ele><time>2026-04-25T13:34:32.999Z</time></trkpt><trkpt lat="44.507055" lon="8.7120133"><ele>391.0</ele><time>2026-04-25T13:34:33.995Z</time></trkpt><trkpt lat="44.50704" lon="8.7121817"><ele>391.0</ele><time>2026-04-25T13:34:34.995Z</time></trkpt><trkpt lat="44.5070067" lon="8.7123367"><ele>391.25</ele><time>2026-04-25T13:34:35.999Z</time></trkpt><trkpt lat="44.5069717" lon="8.7124767"><ele>391.5</ele><time>2026-04-25T13:34:36.996Z</time></trkpt><trkpt lat="44.5069167" lon="8.7126233"><ele>391.75</ele><time>2026-04-25T13:34:37.994Z</time></trkpt><trkpt lat="44.5068467" lon="8.7127667"><ele>392.0</ele><time>2026-04-25T13:34:38.999Z</time></trkpt><trkpt lat="44.5067767" lon="8.7129133"><ele>392.0</ele><time>2026-04-25T13:34:39.995Z</time></trkpt><trkpt lat="44.5066983" lon="8.7130633"><ele>392.0</ele><time>2026-04-25T13:34:40.995Z</time></trkpt><trkpt lat="44.506615" lon="8.713215"><ele>392.0</ele><time>2026-04-25T13:34:41.994Z</time></trkpt><trkpt lat="44.506535" lon="8.713365"><ele>392.0</ele><time>2026-04-25T13:34:42.997Z</time></trkpt><trkpt lat="44.5064567" lon="8.7135133"><ele>392.0</ele><time>2026-04-25T13:34:43.996Z</time></trkpt><trkpt lat="44.5063683" lon="8.71365"><ele>392.0</ele><time>2026-04-25T13:34:44.995Z</time></trkpt><trkpt lat="44.5062717" lon="8.7137617"><ele>392.0</ele><time>2026-04-25T13:34:45.993Z</time></trkpt><trkpt lat="44.506175" lon="8.7138583"><ele>392.0</ele><time>2026-04-25T13:34:47Z</time></trkpt><trkpt lat="44.5060733" lon="8.7139417"><ele>392.0</ele><time>2026-04-25T13:34:47.999Z</time></trkpt><trkpt lat="44.5059767" lon="8.7140267"><ele>392.0</ele><time>2026-04-25T13:34:48.998Z</time></trkpt><trkpt lat="44.5058717" lon="8.7140833"><ele>392.0</ele><time>2026-04-25T13:34:50.002Z</time></trkpt><trkpt lat="44.5057567" lon="8.7141417"><ele>392.0</ele><time>2026-04-25T13:34:50.998Z</time></trkpt><trkpt lat="44.50565" lon="8.7142033"><ele>392.0</ele><time>2026-04-25T13:34:51.997Z</time></trkpt><trkpt lat="44.5055317" lon="8.7142417"><ele>392.0</ele><time>2026-04-25T13:34:52.995Z</time></trkpt><trkpt lat="44.5054117" lon="8.71425"><ele>392.0</ele><time>2026-04-25T13:34:53.997Z</time></trkpt><trkpt lat="44.5052933" lon="8.7142367"><ele>392.0</ele><time>2026-04-25T13:34:54.998Z</time></trkpt><trkpt lat="44.505175" lon="8.7141933"><ele>392.25</ele><time>2026-04-25T13:34:55.995Z</time></trkpt><trkpt lat="44.5050583" lon="8.7141283"><ele>392.5</ele><time>2026-04-25T13:34:56.998Z</time></trkpt><trkpt lat="44.50494" lon="8.7140617"><ele>392.75</ele><time>2026-04-25T13:34:58.001Z</time></trkpt><trkpt lat="44.50482" lon="8.7139967"><ele>393.0</ele><time>2026-04-25T13:34:58.995Z</time></trkpt><trkpt lat="44.5047" lon="8.7139217"><ele>393.0</ele><time>2026-04-25T13:34:59.995Z</time></trkpt><trkpt lat="44.50458" lon="8.7138433"><ele>393.0</ele><time>2026-04-25T13:35:00.999Z</time></trkpt><trkpt lat="44.5044583" lon="8.7137667"><ele>393.0</ele><time>2026-04-25T13:35:01.994Z</time></trkpt><trkpt lat="44.50434" lon="8.713685"><ele>393.0</ele><time>2026-04-25T13:35:02.992Z</time></trkpt><trkpt lat="44.5042217" lon="8.7136183"><ele>393.5</ele><time>2026-04-25T13:35:03.996Z</time></trkpt><trkpt lat="44.5041083" lon="8.7135433"><ele>394.0</ele><time>2026-04-25T13:35:04.995Z</time></trkpt><trkpt lat="44.5039883" lon="8.7134783"><ele>394.5</ele><time>2026-04-25T13:35:05.993Z</time></trkpt><trkpt lat="44.50388" lon="8.7134083"><ele>395.0</ele><time>2026-04-25T13:35:06.997Z</time></trkpt><trkpt lat="44.5037767" lon="8.7133567"><ele>395.8</ele><time>2026-04-25T13:35:07.993Z</time></trkpt><trkpt lat="44.5036733" lon="8.7133317"><ele>396.6</ele><time>2026-04-25T13:35:08.998Z</time></trkpt><trkpt lat="44.5035717" lon="8.7133517"><ele>397.4</ele><time>2026-04-25T13:35:09.996Z</time></trkpt><trkpt lat="44.503475" lon="8.7134117"><ele>398.2</ele><time>2026-04-25T13:35:10.995Z</time></trkpt><trkpt lat="44.5033883" lon="8.7134867"><ele>399.0</ele><time>2026-04-25T13:35:11.999Z</time></trkpt><trkpt lat="44.5033067" lon="8.7135767"><ele>399.2</ele><time>2026-04-25T13:35:12.995Z</time></trkpt><trkpt lat="44.50324" lon="8.7136683"><ele>399.4</ele><time>2026-04-25T13:35:13.995Z</time></trkpt><trkpt lat="44.5031817" lon="8.7137633"><ele>399.6</ele><time>2026-04-25T13:35:14.996Z</time></trkpt><trkpt lat="44.5031133" lon="8.713855"><ele>399.8</ele><time>2026-04-25T13:35:15.999Z</time></trkpt><trkpt lat="44.5030433" lon="8.7139483"><ele>400.0</ele><time>2026-04-25T13:35:16.994Z</time></trkpt><trkpt lat="44.5029717" lon="8.7140483"><ele>400.2</ele><time>2026-04-25T13:35:17.996Z</time></trkpt><trkpt lat="44.502905" lon="8.7141533"><ele>400.4</ele><time>2026-04-25T13:35:18.999Z</time></trkpt><trkpt lat="44.5028483" lon="8.714265"><ele>400.6</ele><time>2026-04-25T13:35:19.995Z</time></trkpt><trkpt lat="44.50279" lon="8.714375"><ele>400.8</ele><time>2026-04-25T13:35:20.999Z</time></trkpt><trkpt lat="44.5027317" lon="8.7144933"><ele>401.0</ele><time>2026-04-25T13:35:21.995Z</time></trkpt><trkpt lat="44.50267" lon="8.714615"><ele>402.4</ele><time>2026-04-25T13:35:22.994Z</time></trkpt><trkpt lat="44.502615" lon="8.7147467"><ele>403.8</ele><time>2026-04-25T13:35:23.997Z</time></trkpt><trkpt lat="44.5025517" lon="8.7148783"><ele>405.2</ele><time>2026-04-25T13:35:24.996Z</time></trkpt><trkpt lat="44.5024917" lon="8.7150017"><ele>406.59999999999997</ele><time>2026-04-25T13:35:25.994Z</time></trkpt><trkpt lat="44.50243" lon="8.715115"><ele>408.0</ele><time>2026-04-25T13:35:26.993Z</time></trkpt><trkpt lat="44.50238" lon="8.71524"><ele>407.25</ele><time>2026-04-25T13:35:27.993Z</time></trkpt><trkpt lat="44.502315" lon="8.7153617"><ele>406.5</ele><time>2026-04-25T13:35:28.996Z</time></trkpt><trkpt lat="44.50224" lon="8.7154883"><ele>405.75</ele><time>2026-04-25T13:35:29.993Z</time></trkpt><trkpt lat="44.50215" lon="8.7155983"><ele>405.0</ele><time>2026-04-25T13:35:30.993Z</time></trkpt><trkpt lat="44.502075" lon="8.7157167"><ele>405.0</ele><time>2026-04-25T13:35:31.996Z</time></trkpt><trkpt lat="44.5019817" lon="8.71582"><ele>405.0</ele><time>2026-04-25T13:35:32.998Z</time></trkpt><trkpt lat="44.5018933" lon="8.7159267"><ele>405.0</ele><time>2026-04-25T13:35:33.993Z</time></trkpt><trkpt lat="44.5018333" lon="8.7160517"><ele>405.0</ele><time>2026-04-25T13:35:34.994Z</time></trkpt><trkpt lat="44.5017867" lon="8.7161867"><ele>405.25</ele><time>2026-04-25T13:35:35.993Z</time></trkpt><trkpt lat="44.5017483" lon="8.7163317"><ele>405.5</ele><time>2026-04-25T13:35:36.997Z</time></trkpt><trkpt lat="44.501705" lon="8.716475"><ele>405.75</ele><time>2026-04-25T13:35:37.997Z</time></trkpt><trkpt lat="44.5016583" lon="8.7166217"><ele>406.0</ele><time>2026-04-25T13:35:38.999Z</time></trkpt><trkpt lat="44.501615" lon="8.716775"><ele>405.25</ele><time>2026-04-25T13:35:39.994Z</time></trkpt><trkpt lat="44.5015783" lon="8.716935"><ele>404.5</ele><time>2026-04-25T13:35:40.998Z</time></trkpt><trkpt lat="44.5015433" lon="8.7170983"><ele>403.75</ele><time>2026-04-25T13:35:42.003Z</time></trkpt><trkpt lat="44.501495" lon="8.71725"><ele>403.0</ele><time>2026-04-25T13:35:42.999Z</time></trkpt><trkpt lat="44.501435" lon="8.7173933"><ele>403.0</ele><time>2026-04-25T13:35:43.996Z</time></trkpt><trkpt lat="44.5013817" lon="8.7175433"><ele>403.0</ele><time>2026-04-25T13:35:44.996Z</time></trkpt><trkpt lat="44.5013233" lon="8.7176817"><ele>403.0</ele><time>2026-04-25T13:35:45.993Z</time></trkpt><trkpt lat="44.5012567" lon="8.717815"><ele>403.0</ele><time>2026-04-25T13:35:46.995Z</time></trkpt><trkpt lat="44.5011917" lon="8.7179467"><ele>403.25</ele><time>2026-04-25T13:35:47.996Z</time></trkpt><trkpt lat="44.501125" lon="8.7180717"><ele>403.5</ele><time>2026-04-25T13:35:48.993Z</time></trkpt><trkpt lat="44.501065" lon="8.7181917"><ele>403.75</ele><time>2026-04-25T13:35:50Z</time></trkpt><trkpt lat="44.5009967" lon="8.7183233"><ele>404.0</ele><time>2026-04-25T13:35:50.992Z</time></trkpt><trkpt lat="44.5009133" lon="8.71846"><ele>405.0</ele><time>2026-04-25T13:35:51.995Z</time></trkpt><trkpt lat="44.5008183" lon="8.7185983"><ele>406.0</ele><time>2026-04-25T13:35:52.993Z</time></trkpt><trkpt lat="44.5007217" lon="8.7187583"><ele>407.0</ele><time>2026-04-25T13:35:53.995Z</time></trkpt><trkpt lat="44.500625" lon="8.7189267"><ele>408.0</ele><time>2026-04-25T13:35:54.994Z</time></trkpt><trkpt lat="44.5005267" lon="8.719105"><ele>408.0</ele><time>2026-04-25T13:35:55.996Z</time></trkpt><trkpt lat="44.50043" lon="8.7192833"><ele>408.0</ele><time>2026-04-25T13:35:56.998Z</time></trkpt><trkpt lat="44.500335" lon="8.7194567"><ele>408.0</ele><time>2026-04-25T13:35:58.001Z</time></trkpt><trkpt lat="44.5002383" lon="8.7196267"><ele>408.33333333333337</ele><time>2026-04-25T13:35:58.995Z</time></trkpt><trkpt lat="44.5001417" lon="8.719795"><ele>408.6666666666667</ele><time>2026-04-25T13:35:59.995Z</time></trkpt><trkpt lat="44.500045" lon="8.7199567"><ele>409.0</ele><time>2026-04-25T13:36:00.997Z</time></trkpt><trkpt lat="44.4999517" lon="8.7201183"><ele>409.25</ele><time>2026-04-25T13:36:01.996Z</time></trkpt><trkpt lat="44.499865" lon="8.7202833"><ele>409.5</ele><time>2026-04-25T13:36:02.995Z</time></trkpt><trkpt lat="44.4997883" lon="8.7204583"><ele>409.75</ele><time>2026-04-25T13:36:03.995Z</time></trkpt><trkpt lat="44.4997317" lon="8.7206567"><ele>410.0</ele><time>2026-04-25T13:36:04.994Z</time></trkpt><trkpt lat="44.499685" lon="8.7208617"><ele>410.0</ele><time>2026-04-25T13:36:05.994Z</time></trkpt><trkpt lat="44.49965" lon="8.7210617"><ele>410.0</ele><time>2026-04-25T13:36:06.997Z</time></trkpt><trkpt lat="44.499625" lon="8.72125"><ele>410.0</ele><time>2026-04-25T13:36:07.995Z</time></trkpt><trkpt lat="44.4996" lon="8.7214217"><ele>410.0</ele><time>2026-04-25T13:36:08.998Z</time></trkpt><trkpt lat="44.499565" lon="8.7215767"><ele>410.8</ele><time>2026-04-25T13:36:09.995Z</time></trkpt><trkpt lat="44.4995217" lon="8.72172"><ele>411.6</ele><time>2026-04-25T13:36:10.992Z</time></trkpt><trkpt lat="44.4994617" lon="8.721845"><ele>412.4</ele><time>2026-04-25T13:36:11.994Z</time></trkpt><trkpt lat="44.49938" lon="8.7219333"><ele>413.2</ele><time>2026-04-25T13:36:12.993Z</time></trkpt><trkpt lat="44.4992767" lon="8.7220183"><ele>414.0</ele><time>2026-04-25T13:36:13.997Z</time></trkpt><trkpt lat="44.4991417" lon="8.722115"><ele>414.0</ele><time>2026-04-25T13:36:14.997Z</time></trkpt><trkpt lat="44.4989783" lon="8.7222"><ele>414.0</ele><time>2026-04-25T13:36:15.994Z</time></trkpt><trkpt lat="44.4988217" lon="8.7222833"><ele>414.0</ele><time>2026-04-25T13:36:16.996Z</time></trkpt><trkpt lat="44.4986783" lon="8.72236"><ele>418.66666666666663</ele><time>2026-04-25T13:36:17.992Z</time></trkpt><trkpt lat="44.4985267" lon="8.722435"><ele>423.3333333333333</ele><time>2026-04-25T13:36:18.995Z</time></trkpt><trkpt lat="44.4983783" lon="8.72253"><ele>428.0</ele><time>2026-04-25T13:36:19.995Z</time></trkpt><trkpt lat="44.49823" lon="8.722605"><ele>428.0</ele><time>2026-04-25T13:36:21.005Z</time></trkpt><trkpt lat="44.4980883" lon="8.7226983"><ele>428.0</ele><time>2026-04-25T13:36:22Z</time></trkpt><trkpt lat="44.49795" lon="8.7227933"><ele>428.0</ele><time>2026-04-25T13:36:22.994Z</time></trkpt><trkpt lat="44.4978167" lon="8.7229"><ele>432.75</ele><time>2026-04-25T13:36:23.996Z</time></trkpt><trkpt lat="44.4977017" lon="8.7230233"><ele>437.5</ele><time>2026-04-25T13:36:24.995Z</time></trkpt><trkpt lat="44.4976333" lon="8.7231833"><ele>442.25</ele><time>2026-04-25T13:36:25.997Z</time></trkpt><trkpt lat="44.4975867" lon="8.7233567"><ele>447.0</ele><time>2026-04-25T13:36:26.994Z</time></trkpt><trkpt lat="44.4975433" lon="8.7235417"><ele>443.25</ele><time>2026-04-25T13:36:27.997Z</time></trkpt><trkpt lat="44.4974867" lon="8.723725"><ele>439.5</ele><time>2026-04-25T13:36:28.996Z</time></trkpt><trkpt lat="44.4974283" lon="8.72391"><ele>435.75</ele><time>2026-04-25T13:36:29.997Z</time></trkpt><trkpt lat="44.4973733" lon="8.7241033"><ele>432.0</ele><time>2026-04-25T13:36:30.998Z</time></trkpt><trkpt lat="44.497315" lon="8.7242983"><ele>434.5</ele><time>2026-04-25T13:36:31.998Z</time></trkpt><trkpt lat="44.4972583" lon="8.7244883"><ele>437.0</ele><time>2026-04-25T13:36:32.999Z</time></trkpt><trkpt lat="44.4972033" lon="8.724665"><ele>439.5</ele><time>2026-04-25T13:36:33.995Z</time></trkpt><trkpt lat="44.4971283" lon="8.7248067"><ele>442.0</ele><time>2026-04-25T13:36:34.994Z</time></trkpt><trkpt lat="44.497035" lon="8.7249167"><ele>442.0</ele><time>2026-04-25T13:36:35.993Z</time></trkpt><trkpt lat="44.49693" lon="8.7250017"><ele>442.00000000000006</ele><time>2026-04-25T13:36:36.999Z</time></trkpt><trkpt lat="44.4968167" lon="8.72506"><ele>442.00000000000006</ele><time>2026-04-25T13:36:37.998Z</time></trkpt><trkpt lat="44.4967117" lon="8.7250933"><ele>442.0</ele><time>2026-04-25T13:36:39.001Z</time></trkpt><trkpt lat="44.49663" lon="8.725155"><ele>442.0</ele><time>2026-04-25T13:36:39.998Z</time></trkpt><trkpt lat="44.4965783" lon="8.725265"><ele>441.8</ele><time>2026-04-25T13:36:40.997Z</time></trkpt><trkpt lat="44.49654" lon="8.7253883"><ele>441.6</ele><time>2026-04-25T13:36:41.995Z</time></trkpt><trkpt lat="44.4965267" lon="8.725535"><ele>441.40000000000003</ele><time>2026-04-25T13:36:43.004Z</time></trkpt><trkpt lat="44.4965583" lon="8.72567"><ele>441.20000000000005</ele><time>2026-04-25T13:36:43.996Z</time></trkpt><trkpt lat="44.4965983" lon="8.7257883"><ele>441.0</ele><time>2026-04-25T13:36:44.994Z</time></trkpt><trkpt lat="44.4966433" lon="8.7259"><ele>441.0</ele><time>2026-04-25T13:36:45.996Z</time></trkpt><trkpt lat="44.4967433" lon="8.7259883"><ele>441.0</ele><time>2026-04-25T13:36:46.995Z</time></trkpt><trkpt lat="44.49688" lon="8.72605"><ele>441.0</ele><time>2026-04-25T13:36:47.996Z</time></trkpt><trkpt lat="44.4970217" lon="8.7260517"><ele>441.0</ele><time>2026-04-25T13:36:49.005Z</time></trkpt><trkpt lat="44.4971483" lon="8.7261067"><ele>439.20000000000005</ele><time>2026-04-25T13:36:49.997Z</time></trkpt><trkpt lat="44.4972383" lon="8.7261883"><ele>437.40000000000003</ele><time>2026-04-25T13:36:50.999Z</time></trkpt><trkpt lat="44.4973017" lon="8.726285"><ele>435.6</ele><time>2026-04-25T13:36:51.994Z</time></trkpt><trkpt lat="44.49736" lon="8.7263833"><ele>433.8</ele><time>2026-04-25T13:36:52.994Z</time></trkpt><trkpt lat="44.49739" lon="8.72651"><ele>432.0</ele><time>2026-04-25T13:36:53.997Z</time></trkpt><trkpt lat="44.497425" lon="8.72664"><ele>432.0</ele><time>2026-04-25T13:36:54.997Z</time></trkpt><trkpt lat="44.497425" lon="8.72681"><ele>432.0</ele><time>2026-04-25T13:36:55.992Z</time></trkpt><trkpt lat="44.4974267" lon="8.7269967"><ele>432.0</ele><time>2026-04-25T13:36:56.995Z</time></trkpt><trkpt lat="44.4974317" lon="8.72719"><ele>432.0</ele><time>2026-04-25T13:36:57.993Z</time></trkpt><trkpt lat="44.4973683" lon="8.72747"><ele>433.0</ele><time>2026-04-25T13:36:58.995Z</time></trkpt><trkpt lat="44.497345" lon="8.7276933"><ele>434.0</ele><time>2026-04-25T13:36:59.998Z</time></trkpt><trkpt lat="44.4973283" lon="8.7279"><ele>435.0</ele><time>2026-04-25T13:37:00.995Z</time></trkpt><trkpt lat="44.497315" lon="8.7280633"><ele>436.0</ele><time>2026-04-25T13:37:01.994Z</time></trkpt><trkpt lat="44.49729" lon="8.72821"><ele>437.0</ele><time>2026-04-25T13:37:03Z</time></trkpt><trkpt lat="44.4971983" lon="8.7282767"><ele>438.0</ele><time>2026-04-25T13:37:03.994Z</time></trkpt><trkpt lat="44.4970767" lon="8.72832"><ele>439.0</ele><time>2026-04-25T13:37:04.996Z</time></trkpt><trkpt lat="44.497005" lon="8.72838"><ele>440.0</ele><time>2026-04-25T13:37:05.993Z</time></trkpt><trkpt lat="44.4969067" lon="8.7284133"><ele>441.0</ele><time>2026-04-25T13:37:06.997Z</time></trkpt><trkpt lat="44.4966233" lon="8.7282817"><ele>441.0</ele><time>2026-04-25T13:37:07.996Z</time></trkpt><trkpt lat="44.4963733" lon="8.7281183"><ele>441.0</ele><time>2026-04-25T13:37:08.995Z</time></trkpt><trkpt lat="44.4962" lon="8.7280867"><ele>443.66666666666663</ele><time>2026-04-25T13:37:09.998Z</time></trkpt><trkpt lat="44.496045" lon="8.7280833"><ele>446.3333333333333</ele><time>2026-04-25T13:37:11Z</time></trkpt><trkpt lat="44.4958967" lon="8.728135"><ele>449.0</ele><time>2026-04-25T13:37:11.993Z</time></trkpt><trkpt lat="44.4957467" lon="8.7281917"><ele>449.0</ele><time>2026-04-25T13:37:12.993Z</time></trkpt><trkpt lat="44.4955983" lon="8.7282383"><ele>449.0</ele><time>2026-04-25T13:37:13.995Z</time></trkpt><trkpt lat="44.4954483" lon="8.7282817"><ele>449.0</ele><time>2026-04-25T13:37:14.998Z</time></trkpt><trkpt lat="44.4953" lon="8.7283267"><ele>456.66666666666663</ele><time>2026-04-25T13:37:15.996Z</time></trkpt><trkpt lat="44.495155" lon="8.728375"><ele>464.33333333333337</ele><time>2026-04-25T13:37:16.991Z</time></trkpt><trkpt lat="44.495" lon="8.7284567"><ele>472.0</ele><time>2026-04-25T13:37:17.995Z</time></trkpt><trkpt lat="44.4948567" lon="8.72852"><ele>472.75</ele><time>2026-04-25T13:37:18.996Z</time></trkpt><trkpt lat="44.4947167" lon="8.72856"><ele>473.5</ele><time>2026-04-25T13:37:19.993Z</time></trkpt><trkpt lat="44.4945717" lon="8.7285783"><ele>474.25</ele><time>2026-04-25T13:37:21.001Z</time></trkpt><trkpt lat="44.4944333" lon="8.728545"><ele>475.0</ele><time>2026-04-25T13:37:21.992Z</time></trkpt><trkpt lat="44.4943017" lon="8.7285017"><ele>475.0</ele><time>2026-04-25T13:37:22.994Z</time></trkpt><trkpt lat="44.4941767" lon="8.7284367"><ele>475.0</ele><time>2026-04-25T13:37:23.993Z</time></trkpt><trkpt lat="44.494055" lon="8.7283567"><ele>475.0</ele><time>2026-04-25T13:37:24.996Z</time></trkpt><trkpt lat="44.4939367" lon="8.72827"><ele>475.0</ele><time>2026-04-25T13:37:25.996Z</time></trkpt><trkpt lat="44.4938217" lon="8.7281767"><ele>474.0</ele><time>2026-04-25T13:37:27.001Z</time></trkpt><trkpt lat="44.4937067" lon="8.7281"><ele>473.0</ele><time>2026-04-25T13:37:28.001Z</time></trkpt><trkpt lat="44.4935883" lon="8.7280267"><ele>472.0</ele><time>2026-04-25T13:37:28.995Z</time></trkpt><trkpt lat="44.4934733" lon="8.727975"><ele>471.0</ele><time>2026-04-25T13:37:29.997Z</time></trkpt><trkpt lat="44.4933617" lon="8.72792"><ele>471.0</ele><time>2026-04-25T13:37:30.997Z</time></trkpt><trkpt lat="44.493255" lon="8.7278617"><ele>471.0</ele><time>2026-04-25T13:37:31.997Z</time></trkpt><trkpt lat="44.493135" lon="8.7278317"><ele>471.0</ele><time>2026-04-25T13:37:32.995Z</time></trkpt><trkpt lat="44.4930117" lon="8.7278267"><ele>471.0</ele><time>2026-04-25T13:37:33.995Z</time></trkpt><trkpt lat="44.4928667" lon="8.7278733"><ele>474.0</ele><time>2026-04-25T13:37:34.995Z</time></trkpt><trkpt lat="44.492745" lon="8.727875"><ele>477.0</ele><time>2026-04-25T13:37:35.996Z</time></trkpt><trkpt lat="44.4926283" lon="8.7279533"><ele>480.0</ele><time>2026-04-25T13:37:36.995Z</time></trkpt><trkpt lat="44.4925" lon="8.7280133"><ele>483.0</ele><time>2026-04-25T13:37:37.995Z</time></trkpt><trkpt lat="44.4923817" lon="8.7281283"><ele>483.0</ele><time>2026-04-25T13:37:38.994Z</time></trkpt><trkpt lat="44.49226" lon="8.7282167"><ele>483.0</ele><time>2026-04-25T13:37:39.999Z</time></trkpt><trkpt lat="44.4921367" lon="8.7283633"><ele>483.0</ele><time>2026-04-25T13:37:40.991Z</time></trkpt><trkpt lat="44.4920183" lon="8.728545"><ele>486.0</ele><time>2026-04-25T13:37:41.995Z</time></trkpt><trkpt lat="44.4919233" lon="8.7287233"><ele>489.0</ele><time>2026-04-25T13:37:42.997Z</time></trkpt><trkpt lat="44.491825" lon="8.7288467"><ele>492.0</ele><time>2026-04-25T13:37:43.994Z</time></trkpt><trkpt lat="44.49171" lon="8.728955"><ele>495.0</ele><time>2026-04-25T13:37:45Z</time></trkpt><trkpt lat="44.4915883" lon="8.729015"><ele>495.0</ele><time>2026-04-25T13:37:45.995Z</time></trkpt><trkpt lat="44.491465" lon="8.7290667"><ele>495.0</ele><time>2026-04-25T13:37:46.995Z</time></trkpt><trkpt lat="44.4913483" lon="8.7291317"><ele>495.0</ele><time>2026-04-25T13:37:47.996Z</time></trkpt><trkpt lat="44.49124" lon="8.7292367"><ele>495.0</ele><time>2026-04-25T13:37:48.997Z</time></trkpt><trkpt lat="44.49112" lon="8.7292983"><ele>497.5</ele><time>2026-04-25T13:37:49.995Z</time></trkpt><trkpt lat="44.490995" lon="8.72933"><ele>500.0</ele><time>2026-04-25T13:37:50.997Z</time></trkpt><trkpt lat="44.490875" lon="8.72932"><ele>502.5</ele><time>2026-04-25T13:37:51.997Z</time></trkpt><trkpt lat="44.4907617" lon="8.72923"><ele>505.0</ele><time>2026-04-25T13:37:52.996Z</time></trkpt><trkpt lat="44.4906483" lon="8.7291733"><ele>505.0</ele><time>2026-04-25T13:37:53.998Z</time></trkpt><trkpt lat="44.4905317" lon="8.7291483"><ele>505.0</ele><time>2026-04-25T13:37:54.997Z</time></trkpt><trkpt lat="44.4904083" lon="8.7291433"><ele>505.0</ele><time>2026-04-25T13:37:55.996Z</time></trkpt><trkpt lat="44.49029" lon="8.72916"><ele>505.0</ele><time>2026-04-25T13:37:56.998Z</time></trkpt><trkpt lat="44.4901767" lon="8.7291983"><ele>506.0</ele><time>2026-04-25T13:37:57.996Z</time></trkpt><trkpt lat="44.490095" lon="8.7292933"><ele>507.0</ele><time>2026-04-25T13:37:58.996Z</time></trkpt><trkpt lat="44.4900433" lon="8.7294317"><ele>508.0</ele><time>2026-04-25T13:37:59.995Z</time></trkpt><trkpt lat="44.4899983" lon="8.729585"><ele>509.0</ele><time>2026-04-25T13:38:00.994Z</time></trkpt><trkpt lat="44.4899667" lon="8.7297617"><ele>505.75</ele><time>2026-04-25T13:38:01.995Z</time></trkpt><trkpt lat="44.489935" lon="8.7299233"><ele>502.5</ele><time>2026-04-25T13:38:02.997Z</time></trkpt><trkpt lat="44.4899033" lon="8.7300817"><ele>499.25</ele><time>2026-04-25T13:38:03.995Z</time></trkpt><trkpt lat="44.4898733" lon="8.73023"><ele>496.0</ele><time>2026-04-25T13:38:04.999Z</time></trkpt><trkpt lat="44.4898217" lon="8.730365"><ele>498.25</ele><time>2026-04-25T13:38:05.993Z</time></trkpt><trkpt lat="44.4897167" lon="8.7304417"><ele>500.5</ele><time>2026-04-25T13:38:06.995Z</time></trkpt><trkpt lat="44.48961" lon="8.7305217"><ele>502.75</ele><time>2026-04-25T13:38:07.994Z</time></trkpt><trkpt lat="44.489495" lon="8.730595"><ele>505.0</ele><time>2026-04-25T13:38:08.996Z</time></trkpt><trkpt lat="44.48934" lon="8.7306383"><ele>505.0</ele><time>2026-04-25T13:38:09.995Z</time></trkpt><trkpt lat="44.48919" lon="8.730675"><ele>505.0</ele><time>2026-04-25T13:38:10.997Z</time></trkpt><trkpt lat="44.4890383" lon="8.730705"><ele>505.0</ele><time>2026-04-25T13:38:11.994Z</time></trkpt><trkpt lat="44.48891" lon="8.73077"><ele>505.0</ele><time>2026-04-25T13:38:12.994Z</time></trkpt><trkpt lat="44.4887983" lon="8.73082"><ele>510.2</ele><time>2026-04-25T13:38:13.995Z</time></trkpt><trkpt lat="44.488715" lon="8.7308983"><ele>515.4</ele><time>2026-04-25T13:38:14.994Z</time></trkpt><trkpt lat="44.48863" lon="8.730955"><ele>520.6</ele><time>2026-04-25T13:38:15.995Z</time></trkpt><trkpt lat="44.4885833" lon="8.7310433"><ele>525.8</ele><time>2026-04-25T13:38:16.997Z</time></trkpt><trkpt lat="44.4885567" lon="8.731175"><ele>531.0</ele><time>2026-04-25T13:38:17.996Z</time></trkpt><trkpt lat="44.4885667" lon="8.7313233"><ele>531.4</ele><time>2026-04-25T13:38:18.994Z</time></trkpt><trkpt lat="44.48858" lon="8.7314683"><ele>531.8</ele><time>2026-04-25T13:38:19.995Z</time></trkpt><trkpt lat="44.4886133" lon="8.73161"><ele>532.1999999999999</ele><time>2026-04-25T13:38:20.996Z</time></trkpt><trkpt lat="44.4886183" lon="8.7317483"><ele>532.6</ele><time>2026-04-25T13:38:21.992Z</time></trkpt><trkpt lat="44.488585" lon="8.7318733"><ele>533.0</ele><time>2026-04-25T13:38:22.994Z</time></trkpt><trkpt lat="44.4885117" lon="8.7319817"><ele>534.6</ele><time>2026-04-25T13:38:23.995Z</time></trkpt><trkpt lat="44.4884883" lon="8.7321"><ele>536.1999999999999</ele><time>2026-04-25T13:38:24.997Z</time></trkpt><trkpt lat="44.4885" lon="8.7322333"><ele>537.8</ele><time>2026-04-25T13:38:25.998Z</time></trkpt><trkpt lat="44.4885283" lon="8.7323617"><ele>539.4</ele><time>2026-04-25T13:38:27Z</time></trkpt><trkpt lat="44.48858" lon="8.7324767"><ele>541.0</ele><time>2026-04-25T13:38:27.997Z</time></trkpt><trkpt lat="44.4886417" lon="8.732595"><ele>541.0</ele><time>2026-04-25T13:38:28.999Z</time></trkpt><trkpt lat="44.4887317" lon="8.73272"><ele>541.0</ele><time>2026-04-25T13:38:29.997Z</time></trkpt><trkpt lat="44.4888067" lon="8.7328433"><ele>541.0</ele><time>2026-04-25T13:38:30.997Z</time></trkpt><trkpt lat="44.4888383" lon="8.7329783"><ele>541.0</ele><time>2026-04-25T13:38:31.995Z</time></trkpt><trkpt lat="44.4888333" lon="8.7331267"><ele>541.2</ele><time>2026-04-25T13:38:32.999Z</time></trkpt><trkpt lat="44.4888117" lon="8.7332583"><ele>541.4000000000001</ele><time>2026-04-25T13:38:33.995Z</time></trkpt><trkpt lat="44.48876" lon="8.7333817"><ele>541.6</ele><time>2026-04-25T13:38:34.995Z</time></trkpt><trkpt lat="44.4886883" lon="8.7334883"><ele>541.8000000000001</ele><time>2026-04-25T13:38:35.997Z</time></trkpt><trkpt lat="44.4885883" lon="8.733585"><ele>542.0</ele><time>2026-04-25T13:38:36.995Z</time></trkpt><trkpt lat="44.4885" lon="8.7336533"><ele>537.75</ele><time>2026-04-25T13:38:37.995Z</time></trkpt><trkpt lat="44.488395" lon="8.7337133"><ele>533.5</ele><time>2026-04-25T13:38:38.997Z</time></trkpt><trkpt lat="44.4882983" lon="8.7337583"><ele>529.25</ele><time>2026-04-25T13:38:39.995Z</time></trkpt><trkpt lat="44.4881917" lon="8.7338"><ele>525.0</ele><time>2026-04-25T13:38:40.993Z</time></trkpt><trkpt lat="44.4880683" lon="8.7338333"><ele>525.0</ele><time>2026-04-25T13:38:42.003Z</time></trkpt><trkpt lat="44.4879317" lon="8.7338633"><ele>525.0</ele><time>2026-04-25T13:38:42.997Z</time></trkpt><trkpt lat="44.4877883" lon="8.7338983"><ele>525.0</ele><time>2026-04-25T13:38:43.997Z</time></trkpt><trkpt lat="44.4876367" lon="8.7339383"><ele>525.0</ele><time>2026-04-25T13:38:44.994Z</time></trkpt><trkpt lat="44.4875033" lon="8.7339817"><ele>534.0</ele><time>2026-04-25T13:38:45.996Z</time></trkpt><trkpt lat="44.4873733" lon="8.7340183"><ele>543.0</ele><time>2026-04-25T13:38:46.997Z</time></trkpt><trkpt lat="44.487245" lon="8.7340567"><ele>552.0</ele><time>2026-04-25T13:38:47.995Z</time></trkpt><trkpt lat="44.487115" lon="8.7340967"><ele>561.0</ele><time>2026-04-25T13:38:48.996Z</time></trkpt><trkpt lat="44.486985" lon="8.734135"><ele>567.25</ele><time>2026-04-25T13:38:49.998Z</time></trkpt><trkpt lat="44.486855" lon="8.7341733"><ele>573.5</ele><time>2026-04-25T13:38:50.994Z</time></trkpt><trkpt lat="44.486725" lon="8.7342133"><ele>579.75</ele><time>2026-04-25T13:38:51.999Z</time></trkpt><trkpt lat="44.4865967" lon="8.7342517"><ele>586.0</ele><time>2026-04-25T13:38:52.996Z</time></trkpt><trkpt lat="44.4851483" lon="8.735305"><ele>574.2</ele><time>2026-04-25T13:39:03.002Z</time></trkpt><trkpt lat="44.4850683" lon="8.73544"><ele>562.4000000000001</ele><time>2026-04-25T13:39:03.994Z</time></trkpt><trkpt lat="44.4849933" lon="8.7355683"><ele>550.6</ele><time>2026-04-25T13:39:04.993Z</time></trkpt><trkpt lat="44.484925" lon="8.735685"><ele>538.8000000000001</ele><time>2026-04-25T13:39:05.993Z</time></trkpt><trkpt lat="44.4848733" lon="8.73578"><ele>527.0</ele><time>2026-04-25T13:39:06.994Z</time></trkpt><trkpt lat="44.4848283" lon="8.7358533"><ele>527.0</ele><time>2026-04-25T13:39:07.996Z</time></trkpt><trkpt lat="44.4847417" lon="8.7359283"><ele>527.0</ele><time>2026-04-25T13:39:09.996Z</time></trkpt><trkpt lat="44.4847033" lon="8.7360283"><ele>527.0</ele><time>2026-04-25T13:39:11.992Z</time></trkpt><trkpt lat="44.4847733" lon="8.736045"><ele>527.0</ele><time>2026-04-25T13:39:13.994Z</time></trkpt><trkpt lat="44.48488" lon="8.735945"><ele>527.0</ele><time>2026-04-25T13:39:15.994Z</time></trkpt><trkpt lat="44.4849333" lon="8.735865"><ele>527.0</ele><time>2026-04-25T13:39:16.996Z</time></trkpt><trkpt lat="44.4849933" lon="8.73579"><ele>527.0</ele><time>2026-04-25T13:39:17.994Z</time></trkpt><trkpt lat="44.4850567" lon="8.7357017"><ele>527.0</ele><time>2026-04-25T13:39:19.002Z</time></trkpt><trkpt lat="44.4851283" lon="8.7356167"><ele>527.0</ele><time>2026-04-25T13:39:19.993Z</time></trkpt><trkpt lat="44.4852" lon="8.7355267"><ele>527.0</ele><time>2026-04-25T13:39:20.993Z</time></trkpt><trkpt lat="44.485275" lon="8.7354283"><ele>527.0</ele><time>2026-04-25T13:39:21.997Z</time></trkpt><trkpt lat="44.4853517" lon="8.7353417"><ele>527.0</ele><time>2026-04-25T13:39:22.992Z</time></trkpt><trkpt lat="44.485435" lon="8.7352533"><ele>527.0</ele><time>2026-04-25T13:39:23.993Z</time></trkpt><trkpt lat="44.4855133" lon="8.735165"><ele>527.0</ele><time>2026-04-25T13:39:24.997Z</time></trkpt><trkpt lat="44.48558" lon="8.7350683"><ele>527.0</ele><time>2026-04-25T13:39:25.996Z</time></trkpt><trkpt lat="44.4856167" lon="8.7349533"><ele>528.8000000000001</ele><time>2026-04-25T13:39:26.997Z</time></trkpt><trkpt lat="44.4856383" lon="8.7348383"><ele>530.6</ele><time>2026-04-25T13:39:27.996Z</time></trkpt><trkpt lat="44.48559" lon="8.7346867"><ele>532.4000000000001</ele><time>2026-04-25T13:39:28.995Z</time></trkpt><trkpt lat="44.4855233" lon="8.7345467"><ele>534.2</ele><time>2026-04-25T13:39:29.996Z</time></trkpt><trkpt lat="44.48545" lon="8.7344267"><ele>536.0</ele><time>2026-04-25T13:39:30.997Z</time></trkpt><trkpt lat="44.4853683" lon="8.7343317"><ele>536.0</ele><time>2026-04-25T13:39:32.005Z</time></trkpt><trkpt lat="44.4852767" lon="8.7342183"><ele>536.0</ele><time>2026-04-25T13:39:32.999Z</time></trkpt><trkpt lat="44.485185" lon="8.734105"><ele>536.0</ele><time>2026-04-25T13:39:33.999Z</time></trkpt><trkpt lat="44.4850883" lon="8.7339983"><ele>536.0</ele><time>2026-04-25T13:39:34.993Z</time></trkpt><trkpt lat="44.48499" lon="8.73388"><ele>536.0</ele><time>2026-04-25T13:39:35.996Z</time></trkpt><trkpt lat="44.4849083" lon="8.7337533"><ele>536.0</ele><time>2026-04-25T13:39:36.994Z</time></trkpt><trkpt lat="44.4848383" lon="8.7336367"><ele>536.0</ele><time>2026-04-25T13:39:37.998Z</time></trkpt><trkpt lat="44.4847817" lon="8.733525"><ele>536.0</ele><time>2026-04-25T13:39:38.994Z</time></trkpt><trkpt lat="44.48475" lon="8.73338"><ele>536.0</ele><time>2026-04-25T13:39:40.002Z</time></trkpt><trkpt lat="44.48474" lon="8.7332367"><ele>534.75</ele><time>2026-04-25T13:39:40.992Z</time></trkpt><trkpt lat="44.484735" lon="8.73308"><ele>533.5</ele><time>2026-04-25T13:39:41.994Z</time></trkpt><trkpt lat="44.4847533" lon="8.7329167"><ele>532.25</ele><time>2026-04-25T13:39:42.993Z</time></trkpt><trkpt lat="44.4848967" lon="8.732815"><ele>531.0</ele><time>2026-04-25T13:39:43.993Z</time></trkpt><trkpt lat="44.48503" lon="8.7327117"><ele>531.0</ele><time>2026-04-25T13:39:44.993Z</time></trkpt><trkpt lat="44.4851133" lon="8.73259"><ele>531.0</ele><time>2026-04-25T13:39:45.992Z</time></trkpt><trkpt lat="44.485225" lon="8.7325383"><ele>531.0</ele><time>2026-04-25T13:39:46.996Z</time></trkpt><trkpt lat="44.4853133" lon="8.7324917"><ele>531.0</ele><time>2026-04-25T13:39:47.993Z</time></trkpt><trkpt lat="44.4853933" lon="8.7324417"><ele>531.0</ele><time>2026-04-25T13:39:48.994Z</time></trkpt><trkpt lat="44.4854883" lon="8.73241"><ele>539.3333333333334</ele><time>2026-04-25T13:39:49.994Z</time></trkpt><trkpt lat="44.4855567" lon="8.7323433"><ele>547.6666666666666</ele><time>2026-04-25T13:39:50.995Z</time></trkpt><trkpt lat="44.4855933" lon="8.7322467"><ele>556.0</ele><time>2026-04-25T13:39:51.992Z</time></trkpt><trkpt lat="44.4855933" lon="8.732105"><ele>564.3333333333333</ele><time>2026-04-25T13:39:52.996Z</time></trkpt><trkpt lat="44.4856217" lon="8.7319867"><ele>572.6666666666666</ele><time>2026-04-25T13:39:53.997Z</time></trkpt><trkpt lat="44.485655" lon="8.7318817"><ele>581.0</ele><time>2026-04-25T13:39:54.993Z</time></trkpt><trkpt lat="44.4856733" lon="8.7317833"><ele>581.25</ele><time>2026-04-25T13:39:55.997Z</time></trkpt><trkpt lat="44.485675" lon="8.7316867"><ele>581.5</ele><time>2026-04-25T13:39:56.993Z</time></trkpt><trkpt lat="44.4856283" lon="8.7315917"><ele>581.75</ele><time>2026-04-25T13:39:57.994Z</time></trkpt><trkpt lat="44.4855417" lon="8.7314767"><ele>582.0</ele><time>2026-04-25T13:39:58.997Z</time></trkpt><trkpt lat="44.4853717" lon="8.73135"><ele>574.0</ele><time>2026-04-25T13:39:59.999Z</time></trkpt><trkpt lat="44.4852367" lon="8.7312317"><ele>566.0</ele><time>2026-04-25T13:40:00.994Z</time></trkpt><trkpt lat="44.4851017" lon="8.7311967"><ele>558.0</ele><time>2026-04-25T13:40:01.993Z</time></trkpt><trkpt lat="44.4849833" lon="8.73116"><ele>550.0</ele><time>2026-04-25T13:40:02.994Z</time></trkpt><trkpt lat="44.4848517" lon="8.7311417"><ele>550.0</ele><time>2026-04-25T13:40:03.997Z</time></trkpt><trkpt lat="44.4847117" lon="8.731135"><ele>550.0</ele><time>2026-04-25T13:40:04.993Z</time></trkpt><trkpt lat="44.4845783" lon="8.7310867"><ele>550.0</ele><time>2026-04-25T13:40:05.992Z</time></trkpt><trkpt lat="44.4844383" lon="8.7310283"><ele>550.0</ele><time>2026-04-25T13:40:06.996Z</time></trkpt><trkpt lat="44.4843" lon="8.73097"><ele>554.75</ele><time>2026-04-25T13:40:07.993Z</time></trkpt><trkpt lat="44.4841617" lon="8.73092"><ele>559.5</ele><time>2026-04-25T13:40:08.999Z</time></trkpt><trkpt lat="44.4840317" lon="8.7308817"><ele>564.25</ele><time>2026-04-25T13:40:09.998Z</time></trkpt><trkpt lat="44.4839183" lon="8.7308133"><ele>569.0</ele><time>2026-04-25T13:40:10.994Z</time></trkpt><trkpt lat="44.4838133" lon="8.7307417"><ele>562.75</ele><time>2026-04-25T13:40:11.994Z</time></trkpt><trkpt lat="44.483725" lon="8.7306583"><ele>556.5</ele><time>2026-04-25T13:40:12.996Z</time></trkpt><trkpt lat="44.483665" lon="8.7305067"><ele>550.25</ele><time>2026-04-25T13:40:13.994Z</time></trkpt><trkpt lat="44.4835883" lon="8.7303867"><ele>544.0</ele><time>2026-04-25T13:40:14.998Z</time></trkpt><trkpt lat="44.48349" lon="8.7302883"><ele>549.0</ele><time>2026-04-25T13:40:16.001Z</time></trkpt><trkpt lat="44.483385" lon="8.7302117"><ele>554.0</ele><time>2026-04-25T13:40:16.994Z</time></trkpt><trkpt lat="44.4832917" lon="8.7301383"><ele>559.0</ele><time>2026-04-25T13:40:17.995Z</time></trkpt><trkpt lat="44.4832067" lon="8.7300783"><ele>564.0</ele><time>2026-04-25T13:40:18.995Z</time></trkpt><trkpt lat="44.4831367" lon="8.730025"><ele>569.0</ele><time>2026-04-25T13:40:19.992Z</time></trkpt><trkpt lat="44.4830667" lon="8.72993"><ele>569.0</ele><time>2026-04-25T13:40:21.994Z</time></trkpt><trkpt lat="44.483115" lon="8.7297867"><ele>569.0</ele><time>2026-04-25T13:40:23.993Z</time></trkpt><trkpt lat="44.4832167" lon="8.7297067"><ele>569.0</ele><time>2026-04-25T13:40:24.994Z</time></trkpt><trkpt lat="44.483335" lon="8.72961"><ele>569.0</ele><time>2026-04-25T13:40:25.995Z</time></trkpt><trkpt lat="44.4834483" lon="8.72949"><ele>568.0</ele><time>2026-04-25T13:40:26.993Z</time></trkpt><trkpt lat="44.483565" lon="8.7293583"><ele>567.0</ele><time>2026-04-25T13:40:27.993Z</time></trkpt><trkpt lat="44.4836783" lon="8.729215"><ele>566.0</ele><time>2026-04-25T13:40:28.995Z</time></trkpt><trkpt lat="44.4837817" lon="8.72908"><ele>565.0</ele><time>2026-04-25T13:40:29.991Z</time></trkpt><trkpt lat="44.48388" lon="8.7289633"><ele>571.5</ele><time>2026-04-25T13:40:30.996Z</time></trkpt><trkpt lat="44.4839833" lon="8.7288767"><ele>578.0</ele><time>2026-04-25T13:40:31.991Z</time></trkpt><trkpt lat="44.4841" lon="8.7288517"><ele>584.5</ele><time>2026-04-25T13:40:32.994Z</time></trkpt><trkpt lat="44.484225" lon="8.7288383"><ele>591.0</ele><time>2026-04-25T13:40:33.995Z</time></trkpt><trkpt lat="44.4843517" lon="8.7288133"><ele>591.0</ele><time>2026-04-25T13:40:34.995Z</time></trkpt><trkpt lat="44.4844783" lon="8.728775"><ele>591.0</ele><time>2026-04-25T13:40:35.996Z</time></trkpt><trkpt lat="44.4845967" lon="8.7287183"><ele>591.0</ele><time>2026-04-25T13:40:36.997Z</time></trkpt><trkpt lat="44.4847217" lon="8.72865"><ele>591.0</ele><time>2026-04-25T13:40:37.999Z</time></trkpt><trkpt lat="44.4848483" lon="8.7285633"><ele>590.0</ele><time>2026-04-25T13:40:38.997Z</time></trkpt><trkpt lat="44.4849717" lon="8.7284633"><ele>589.0</ele><time>2026-04-25T13:40:39.996Z</time></trkpt><trkpt lat="44.4850967" lon="8.72837"><ele>588.0</ele><time>2026-04-25T13:40:40.993Z</time></trkpt><trkpt lat="44.4852217" lon="8.7282733"><ele>587.0</ele><time>2026-04-25T13:40:41.995Z</time></trkpt><trkpt lat="44.4853367" lon="8.7281783"><ele>594.0</ele><time>2026-04-25T13:40:42.993Z</time></trkpt><trkpt lat="44.48543" lon="8.728085"><ele>601.0</ele><time>2026-04-25T13:40:43.994Z</time></trkpt><trkpt lat="44.4855167" lon="8.7279967"><ele>608.0</ele><time>2026-04-25T13:40:44.996Z</time></trkpt><trkpt lat="44.4855617" lon="8.7278933"><ele>615.0</ele><time>2026-04-25T13:40:45.996Z</time></trkpt><trkpt lat="44.4856133" lon="8.727795"><ele>622.0</ele><time>2026-04-25T13:40:46.999Z</time></trkpt><trkpt lat="44.4856383" lon="8.727685"><ele>622.0</ele><time>2026-04-25T13:40:47.996Z</time></trkpt><trkpt lat="44.48566" lon="8.7275867"><ele>622.0</ele><time>2026-04-25T13:40:49Z</time></trkpt><trkpt lat="44.485655" lon="8.727475"><ele>622.0</ele><time>2026-04-25T13:40:49.998Z</time></trkpt><trkpt lat="44.485645" lon="8.7273583"><ele>622.0</ele><time>2026-04-25T13:40:50.997Z</time></trkpt><trkpt lat="44.48563" lon="8.7272167"><ele>622.0</ele><time>2026-04-25T13:40:51.995Z</time></trkpt><trkpt lat="44.4856367" lon="8.727065"><ele>622.0</ele><time>2026-04-25T13:40:52.996Z</time></trkpt><trkpt lat="44.48564" lon="8.7269133"><ele>621.8000000000001</ele><time>2026-04-25T13:40:53.994Z</time></trkpt><trkpt lat="44.485635" lon="8.7267583"><ele>621.6</ele><time>2026-04-25T13:40:54.997Z</time></trkpt><trkpt lat="44.4856217" lon="8.7266083"><ele>621.4000000000001</ele><time>2026-04-25T13:40:55.995Z</time></trkpt><trkpt lat="44.4855983" lon="8.7264633"><ele>621.2</ele><time>2026-04-25T13:40:56.997Z</time></trkpt><trkpt lat="44.485585" lon="8.726315"><ele>621.0</ele><time>2026-04-25T13:40:57.996Z</time></trkpt><trkpt lat="44.4856017" lon="8.7261817"><ele>616.8</ele><time>2026-04-25T13:40:58.994Z</time></trkpt><trkpt lat="44.4856283" lon="8.72606"><ele>612.6</ele><time>2026-04-25T13:40:59.992Z</time></trkpt><trkpt lat="44.4856817" lon="8.7259533"><ele>608.4</ele><time>2026-04-25T13:41:00.996Z</time></trkpt><trkpt lat="44.4857733" lon="8.7258717"><ele>604.2</ele><time>2026-04-25T13:41:01.993Z</time></trkpt><trkpt lat="44.4858817" lon="8.7257917"><ele>600.0</ele><time>2026-04-25T13:41:02.995Z</time></trkpt><trkpt lat="44.486005" lon="8.7257133"><ele>600.0</ele><time>2026-04-25T13:41:03.995Z</time></trkpt><trkpt lat="44.4861267" lon="8.725635"><ele>600.0</ele><time>2026-04-25T13:41:04.993Z</time></trkpt><trkpt lat="44.4862533" lon="8.72556"><ele>600.0</ele><time>2026-04-25T13:41:05.995Z</time></trkpt><trkpt lat="44.4863767" lon="8.7254833"><ele>600.0</ele><time>2026-04-25T13:41:06.996Z</time></trkpt><trkpt lat="44.4865" lon="8.7254167"><ele>603.25</ele><time>2026-04-25T13:41:07.993Z</time></trkpt><trkpt lat="44.4866067" lon="8.725335"><ele>606.5</ele><time>2026-04-25T13:41:08.998Z</time></trkpt><trkpt lat="44.4867033" lon="8.7252317"><ele>609.75</ele><time>2026-04-25T13:41:09.994Z</time></trkpt><trkpt lat="44.486785" lon="8.72512"><ele>613.0</ele><time>2026-04-25T13:41:10.995Z</time></trkpt><trkpt lat="44.4868533" lon="8.7249917"><ele>613.0</ele><time>2026-04-25T13:41:11.992Z</time></trkpt><trkpt lat="44.48689" lon="8.724835"><ele>613.0</ele><time>2026-04-25T13:41:12.995Z</time></trkpt><trkpt lat="44.4868983" lon="8.7246633"><ele>613.0</ele><time>2026-04-25T13:41:13.995Z</time></trkpt><trkpt lat="44.4869167" lon="8.7244967"><ele>613.0</ele><time>2026-04-25T13:41:14.993Z</time></trkpt><trkpt lat="44.486915" lon="8.724325"><ele>612.75</ele><time>2026-04-25T13:41:15.993Z</time></trkpt><trkpt lat="44.486865" lon="8.7241583"><ele>612.5</ele><time>2026-04-25T13:41:16.992Z</time></trkpt><trkpt lat="44.4868483" lon="8.7239917"><ele>612.25</ele><time>2026-04-25T13:41:17.992Z</time></trkpt><trkpt lat="44.486845" lon="8.7238183"><ele>612.0</ele><time>2026-04-25T13:41:18.995Z</time></trkpt><trkpt lat="44.4868583" lon="8.723645"><ele>608.75</ele><time>2026-04-25T13:41:19.994Z</time></trkpt><trkpt lat="44.4869067" lon="8.7234767"><ele>605.5</ele><time>2026-04-25T13:41:20.994Z</time></trkpt><trkpt lat="44.4869767" lon="8.7233383"><ele>602.25</ele><time>2026-04-25T13:41:21.994Z</time></trkpt><trkpt lat="44.4870783" lon="8.7232317"><ele>599.0</ele><time>2026-04-25T13:41:22.994Z</time></trkpt><trkpt lat="44.487165" lon="8.7231067"><ele>602.0</ele><time>2026-04-25T13:41:23.994Z</time></trkpt><trkpt lat="44.4872633" lon="8.7230117"><ele>605.0</ele><time>2026-04-25T13:41:24.994Z</time></trkpt><trkpt lat="44.4873417" lon="8.7229033"><ele>608.0</ele><time>2026-04-25T13:41:26.002Z</time></trkpt><trkpt lat="44.4873967" lon="8.7227717"><ele>611.0</ele><time>2026-04-25T13:41:26.995Z</time></trkpt><trkpt lat="44.4874367" lon="8.7226417"><ele>614.0</ele><time>2026-04-25T13:41:27.995Z</time></trkpt><trkpt lat="44.487455" lon="8.7224933"><ele>614.0</ele><time>2026-04-25T13:41:28.997Z</time></trkpt><trkpt lat="44.4874583" lon="8.722345"><ele>614.0</ele><time>2026-04-25T13:41:29.999Z</time></trkpt><trkpt lat="44.487465" lon="8.72221"><ele>614.0</ele><time>2026-04-25T13:41:30.993Z</time></trkpt><trkpt lat="44.4874683" lon="8.722095"><ele>614.0</ele><time>2026-04-25T13:41:31.993Z</time></trkpt><trkpt lat="44.48744" lon="8.7219833"><ele>614.0</ele><time>2026-04-25T13:41:32.993Z</time></trkpt><trkpt lat="44.487405" lon="8.7218767"><ele>615.75</ele><time>2026-04-25T13:41:33.995Z</time></trkpt><trkpt lat="44.4873" lon="8.72185"><ele>617.5</ele><time>2026-04-25T13:41:34.995Z</time></trkpt><trkpt lat="44.487195" lon="8.7218"><ele>619.25</ele><time>2026-04-25T13:41:35.995Z</time></trkpt><trkpt lat="44.4870933" lon="8.7217117"><ele>621.0</ele><time>2026-04-25T13:41:36.993Z</time></trkpt><trkpt lat="44.4869883" lon="8.72164"><ele>621.0</ele><time>2026-04-25T13:41:37.992Z</time></trkpt><trkpt lat="44.4868933" lon="8.721575"><ele>621.0</ele><time>2026-04-25T13:41:38.993Z</time></trkpt><trkpt lat="44.4868067" lon="8.7215133"><ele>621.0</ele><time>2026-04-25T13:41:39.993Z</time></trkpt><trkpt lat="44.4867233" lon="8.7214583"><ele>621.0</ele><time>2026-04-25T13:41:40.993Z</time></trkpt><trkpt lat="44.4866367" lon="8.7214117"><ele>621.0</ele><time>2026-04-25T13:41:41.994Z</time></trkpt><trkpt lat="44.48655" lon="8.721355"><ele>621.0</ele><time>2026-04-25T13:41:42.994Z</time></trkpt><trkpt lat="44.486475" lon="8.721285"><ele>621.0</ele><time>2026-04-25T13:41:43.995Z</time></trkpt><trkpt lat="44.4864067" lon="8.7212167"><ele>621.0</ele><time>2026-04-25T13:41:44.993Z</time></trkpt><trkpt lat="44.4863467" lon="8.72114"><ele>621.0</ele><time>2026-04-25T13:41:45.994Z</time></trkpt><trkpt lat="44.4863017" lon="8.7210217"><ele>621.0</ele><time>2026-04-25T13:41:46.996Z</time></trkpt><trkpt lat="44.486265" lon="8.720875"><ele>617.0</ele><time>2026-04-25T13:41:47.993Z</time></trkpt><trkpt lat="44.48626" lon="8.7206867"><ele>613.0</ele><time>2026-04-25T13:41:49.001Z</time></trkpt><trkpt lat="44.486255" lon="8.72053"><ele>609.0</ele><time>2026-04-25T13:41:49.992Z</time></trkpt><trkpt lat="44.4862617" lon="8.72037"><ele>605.0</ele><time>2026-04-25T13:41:50.996Z</time></trkpt><trkpt lat="44.48628" lon="8.7202183"><ele>615.0</ele><time>2026-04-25T13:41:51.993Z</time></trkpt><trkpt lat="44.4863333" lon="8.7200767"><ele>625.0</ele><time>2026-04-25T13:41:52.997Z</time></trkpt><trkpt lat="44.4864133" lon="8.7199283"><ele>635.0</ele><time>2026-04-25T13:41:53.992Z</time></trkpt><trkpt lat="44.4864667" lon="8.7197583"><ele>645.0</ele><time>2026-04-25T13:41:54.992Z</time></trkpt><trkpt lat="44.4865367" lon="8.7195867"><ele>645.0</ele><time>2026-04-25T13:41:55.992Z</time></trkpt><trkpt lat="44.4866033" lon="8.7194267"><ele>645.0</ele><time>2026-04-25T13:41:56.991Z</time></trkpt><trkpt lat="44.486685" lon="8.7192767"><ele>645.0</ele><time>2026-04-25T13:41:57.994Z</time></trkpt><trkpt lat="44.4867633" lon="8.7191317"><ele>645.0</ele><time>2026-04-25T13:41:58.992Z</time></trkpt><trkpt lat="44.4868317" lon="8.7189967"><ele>643.0</ele><time>2026-04-25T13:41:59.994Z</time></trkpt><trkpt lat="44.4868783" lon="8.7188667"><ele>641.0</ele><time>2026-04-25T13:42:00.993Z</time></trkpt><trkpt lat="44.4868883" lon="8.7187367"><ele>639.0</ele><time>2026-04-25T13:42:01.992Z</time></trkpt><trkpt lat="44.4868683" lon="8.71861"><ele>637.0</ele><time>2026-04-25T13:42:02.997Z</time></trkpt><trkpt lat="44.4868233" lon="8.7184817"><ele>635.0</ele><time>2026-04-25T13:42:03.992Z</time></trkpt><trkpt lat="44.4867967" lon="8.71834"><ele>635.0</ele><time>2026-04-25T13:42:04.993Z</time></trkpt><trkpt lat="44.4867833" lon="8.71818"><ele>635.0</ele><time>2026-04-25T13:42:05.994Z</time></trkpt><trkpt lat="44.48677" lon="8.718015"><ele>635.0</ele><time>2026-04-25T13:42:06.997Z</time></trkpt><trkpt lat="44.4867817" lon="8.717835"><ele>635.0</ele><time>2026-04-25T13:42:07.996Z</time></trkpt><trkpt lat="44.4867983" lon="8.71765"><ele>637.0</ele><time>2026-04-25T13:42:08.997Z</time></trkpt><trkpt lat="44.4868083" lon="8.717465"><ele>639.0</ele><time>2026-04-25T13:42:09.997Z</time></trkpt><trkpt lat="44.486815" lon="8.717295"><ele>641.0</ele><time>2026-04-25T13:42:10.998Z</time></trkpt><trkpt lat="44.4868083" lon="8.7171417"><ele>643.0</ele><time>2026-04-25T13:42:11.994Z</time></trkpt><trkpt lat="44.486775" lon="8.71699"><ele>646.75</ele><time>2026-04-25T13:42:12.994Z</time></trkpt><trkpt lat="44.4867067" lon="8.7168683"><ele>650.5</ele><time>2026-04-25T13:42:13.995Z</time></trkpt><trkpt lat="44.48661" lon="8.7167933"><ele>654.25</ele><time>2026-04-25T13:42:15.001Z</time></trkpt><trkpt lat="44.4864967" lon="8.7167417"><ele>658.0</ele><time>2026-04-25T13:42:15.994Z</time></trkpt><trkpt lat="44.4863683" lon="8.7167133"><ele>656.25</ele><time>2026-04-25T13:42:16.993Z</time></trkpt><trkpt lat="44.486225" lon="8.7166983"><ele>654.5</ele><time>2026-04-25T13:42:17.995Z</time></trkpt><trkpt lat="44.4860733" lon="8.7166817"><ele>652.75</ele><time>2026-04-25T13:42:18.993Z</time></trkpt><trkpt lat="44.4859217" lon="8.71666"><ele>651.0</ele><time>2026-04-25T13:42:19.996Z</time></trkpt><trkpt lat="44.48578" lon="8.71664"><ele>651.0</ele><time>2026-04-25T13:42:20.995Z</time></trkpt><trkpt lat="44.4856567" lon="8.7166283"><ele>651.0</ele><time>2026-04-25T13:42:21.992Z</time></trkpt><trkpt lat="44.4855533" lon="8.7166083"><ele>651.0</ele><time>2026-04-25T13:42:22.996Z</time></trkpt><trkpt lat="44.48548" lon="8.716555"><ele>651.0</ele><time>2026-04-25T13:42:23.996Z</time></trkpt><trkpt lat="44.4854483" lon="8.7164583"><ele>651.0</ele><time>2026-04-25T13:42:24.995Z</time></trkpt><trkpt lat="44.485425" lon="8.7163583"><ele>651.0</ele><time>2026-04-25T13:42:25.999Z</time></trkpt><trkpt lat="44.4854683" lon="8.716255"><ele>651.0</ele><time>2026-04-25T13:42:26.993Z</time></trkpt><trkpt lat="44.48551" lon="8.71615"><ele>651.0</ele><time>2026-04-25T13:42:27.995Z</time></trkpt><trkpt lat="44.4855733" lon="8.7160417"><ele>651.0</ele><time>2026-04-25T13:42:28.993Z</time></trkpt><trkpt lat="44.485675" lon="8.7159133"><ele>651.0</ele><time>2026-04-25T13:42:29.998Z</time></trkpt><trkpt lat="44.48576" lon="8.7157983"><ele>652.3333333333334</ele><time>2026-04-25T13:42:30.994Z</time></trkpt><trkpt lat="44.48584" lon="8.7156867"><ele>653.6666666666666</ele><time>2026-04-25T13:42:31.997Z</time></trkpt><trkpt lat="44.4858983" lon="8.715575"><ele>655.0</ele><time>2026-04-25T13:42:32.996Z</time></trkpt><trkpt lat="44.48594" lon="8.7154683"><ele>656.3333333333333</ele><time>2026-04-25T13:42:34Z</time></trkpt><trkpt lat="44.4859633" lon="8.71537"><ele>657.6666666666666</ele><time>2026-04-25T13:42:34.995Z</time></trkpt><trkpt lat="44.4859783" lon="8.7152783"><ele>659.0</ele><time>2026-04-25T13:42:35.993Z</time></trkpt><trkpt lat="44.4859683" lon="8.7151017"><ele>660.4000000000001</ele><time>2026-04-25T13:42:37.997Z</time></trkpt><trkpt lat="44.4858983" lon="8.7150017"><ele>661.8</ele><time>2026-04-25T13:42:39.001Z</time></trkpt><trkpt lat="44.4858367" lon="8.7149133"><ele>663.2</ele><time>2026-04-25T13:42:39.998Z</time></trkpt><trkpt lat="44.485755" lon="8.71487"><ele>664.5999999999999</ele><time>2026-04-25T13:42:40.995Z</time></trkpt><trkpt lat="44.48567" lon="8.714825"><ele>666.0</ele><time>2026-04-25T13:42:41.996Z</time></trkpt><trkpt lat="44.4855733" lon="8.714795"><ele>666.0</ele><time>2026-04-25T13:42:42.995Z</time></trkpt><trkpt lat="44.485475" lon="8.7147717"><ele>666.0</ele><time>2026-04-25T13:42:43.998Z</time></trkpt><trkpt lat="44.4853767" lon="8.714735"><ele>666.0</ele><time>2026-04-25T13:42:44.996Z</time></trkpt><trkpt lat="44.4852817" lon="8.71469"><ele>666.0</ele><time>2026-04-25T13:42:45.992Z</time></trkpt><trkpt lat="44.4851917" lon="8.714615"><ele>666.0</ele><time>2026-04-25T13:42:46.991Z</time></trkpt><trkpt lat="44.485105" lon="8.71451"><ele>669.0</ele><time>2026-04-25T13:42:47.995Z</time></trkpt><trkpt lat="44.4850067" lon="8.7144017"><ele>672.0</ele><time>2026-04-25T13:42:48.994Z</time></trkpt><trkpt lat="44.4849033" lon="8.7143133"><ele>675.0</ele><time>2026-04-25T13:42:50.001Z</time></trkpt><trkpt lat="44.4847967" lon="8.7142533"><ele>678.0</ele><time>2026-04-25T13:42:50.996Z</time></trkpt><trkpt lat="44.484705" lon="8.7141583"><ele>678.0</ele><time>2026-04-25T13:42:51.996Z</time></trkpt><trkpt lat="44.4846267" lon="8.714035"><ele>678.0</ele><time>2026-04-25T13:42:52.994Z</time></trkpt><trkpt lat="44.4845617" lon="8.7138633"><ele>678.0</ele><time>2026-04-25T13:42:53.995Z</time></trkpt><trkpt lat="44.484525" lon="8.7137083"><ele>678.0</ele><time>2026-04-25T13:42:54.996Z</time></trkpt><trkpt lat="44.48448" lon="8.71357"><ele>680.5</ele><time>2026-04-25T13:42:55.995Z</time></trkpt><trkpt lat="44.484415" lon="8.71346"><ele>683.0</ele><time>2026-04-25T13:42:56.998Z</time></trkpt><trkpt lat="44.4843233" lon="8.7133867"><ele>685.5</ele><time>2026-04-25T13:42:57.995Z</time></trkpt><trkpt lat="44.4842117" lon="8.7133233"><ele>688.0</ele><time>2026-04-25T13:42:58.996Z</time></trkpt><trkpt lat="44.4840817" lon="8.7132683"><ele>688.0</ele><time>2026-04-25T13:42:59.995Z</time></trkpt><trkpt lat="44.48394" lon="8.713235"><ele>688.0</ele><time>2026-04-25T13:43:01.002Z</time></trkpt><trkpt lat="44.4837817" lon="8.7132433"><ele>688.0</ele><time>2026-04-25T13:43:01.996Z</time></trkpt><trkpt lat="44.4836367" lon="8.713225"><ele>688.0</ele><time>2026-04-25T13:43:02.995Z</time></trkpt><trkpt lat="44.483505" lon="8.7131667"><ele>687.25</ele><time>2026-04-25T13:43:03.996Z</time></trkpt><trkpt lat="44.4833767" lon="8.7131117"><ele>686.5</ele><time>2026-04-25T13:43:04.993Z</time></trkpt><trkpt lat="44.483245" lon="8.7130767"><ele>685.75</ele><time>2026-04-25T13:43:05.994Z</time></trkpt><trkpt lat="44.4831133" lon="8.7130717"><ele>685.0</ele><time>2026-04-25T13:43:06.997Z</time></trkpt><trkpt lat="44.4829767" lon="8.713085"><ele>688.5</ele><time>2026-04-25T13:43:07.995Z</time></trkpt><trkpt lat="44.4828283" lon="8.71312"><ele>692.0</ele><time>2026-04-25T13:43:08.996Z</time></trkpt><trkpt lat="44.482685" lon="8.713155"><ele>695.5</ele><time>2026-04-25T13:43:09.992Z</time></trkpt><trkpt lat="44.48254" lon="8.7132033"><ele>699.0</ele><time>2026-04-25T13:43:10.997Z</time></trkpt><trkpt lat="44.4824" lon="8.7132483"><ele>699.0</ele><time>2026-04-25T13:43:11.994Z</time></trkpt><trkpt lat="44.48227" lon="8.7132667"><ele>699.0</ele><time>2026-04-25T13:43:12.998Z</time></trkpt><trkpt lat="44.48214" lon="8.7132817"><ele>699.0</ele><time>2026-04-25T13:43:13.993Z</time></trkpt><trkpt lat="44.4820167" lon="8.7132883"><ele>699.0</ele><time>2026-04-25T13:43:14.996Z</time></trkpt><trkpt lat="44.48191" lon="8.7132667"><ele>698.0</ele><time>2026-04-25T13:43:15.995Z</time></trkpt><trkpt lat="44.4818183" lon="8.7132083"><ele>697.0</ele><time>2026-04-25T13:43:16.996Z</time></trkpt><trkpt lat="44.4817417" lon="8.7131183"><ele>696.0</ele><time>2026-04-25T13:43:17.994Z</time></trkpt><trkpt lat="44.4816767" lon="8.712995"><ele>695.0</ele><time>2026-04-25T13:43:18.995Z</time></trkpt><trkpt lat="44.48162" lon="8.7128817"><ele>694.0</ele><time>2026-04-25T13:43:19.992Z</time></trkpt><trkpt lat="44.4815483" lon="8.71278"><ele>696.0</ele><time>2026-04-25T13:43:20.996Z</time></trkpt><trkpt lat="44.4814717" lon="8.7126817"><ele>698.0</ele><time>2026-04-25T13:43:22Z</time></trkpt><trkpt lat="44.4813633" lon="8.712645"><ele>700.0</ele><time>2026-04-25T13:43:22.993Z</time></trkpt><trkpt lat="44.4812533" lon="8.7125967"><ele>702.0</ele><time>2026-04-25T13:43:24Z</time></trkpt><trkpt lat="44.481155" lon="8.712515"><ele>704.0</ele><time>2026-04-25T13:43:24.995Z</time></trkpt><trkpt lat="44.4810533" lon="8.7124067"><ele>704.0</ele><time>2026-04-25T13:43:25.992Z</time></trkpt><trkpt lat="44.48094" lon="8.7123167"><ele>704.0</ele><time>2026-04-25T13:43:26.993Z</time></trkpt><trkpt lat="44.4808167" lon="8.7122467"><ele>704.0</ele><time>2026-04-25T13:43:27.993Z</time></trkpt><trkpt lat="44.480705" lon="8.71217"><ele>704.0</ele><time>2026-04-25T13:43:28.996Z</time></trkpt><trkpt lat="44.4806133" lon="8.7120883"><ele>704.0</ele><time>2026-04-25T13:43:29.996Z</time></trkpt><trkpt lat="44.4805267" lon="8.712005"><ele>704.0</ele><time>2026-04-25T13:43:30.991Z</time></trkpt><trkpt lat="44.48045" lon="8.7119267"><ele>704.0</ele><time>2026-04-25T13:43:31.992Z</time></trkpt><trkpt lat="44.480405" lon="8.7118117"><ele>704.0</ele><time>2026-04-25T13:43:32.999Z</time></trkpt><trkpt lat="44.4803517" lon="8.71171"><ele>704.0</ele><time>2026-04-25T13:43:33.992Z</time></trkpt><trkpt lat="44.4802767" lon="8.7116083"><ele>708.75</ele><time>2026-04-25T13:43:34.998Z</time></trkpt><trkpt lat="44.4801833" lon="8.71152"><ele>713.5</ele><time>2026-04-25T13:43:35.994Z</time></trkpt><trkpt lat="44.480075" lon="8.7114383"><ele>718.25</ele><time>2026-04-25T13:43:36.994Z</time></trkpt><trkpt lat="44.4799667" lon="8.71136"><ele>723.0</ele><time>2026-04-25T13:43:37.998Z</time></trkpt><trkpt lat="44.4798583" lon="8.711305"><ele>723.0</ele><time>2026-04-25T13:43:38.993Z</time></trkpt><trkpt lat="44.4797617" lon="8.7112883"><ele>723.0</ele><time>2026-04-25T13:43:39.999Z</time></trkpt><trkpt lat="44.4796683" lon="8.7112733"><ele>723.0</ele><time>2026-04-25T13:43:40.995Z</time></trkpt><trkpt lat="44.47957" lon="8.7112867"><ele>723.0</ele><time>2026-04-25T13:43:41.993Z</time></trkpt><trkpt lat="44.4794767" lon="8.7114083"><ele>723.0</ele><time>2026-04-25T13:43:42.993Z</time></trkpt><trkpt lat="44.4793567" lon="8.7115517"><ele>719.75</ele><time>2026-04-25T13:43:43.993Z</time></trkpt><trkpt lat="44.47925" lon="8.7116833"><ele>716.5</ele><time>2026-04-25T13:43:44.995Z</time></trkpt><trkpt lat="44.4791467" lon="8.7118067"><ele>713.25</ele><time>2026-04-25T13:43:45.998Z</time></trkpt><trkpt lat="44.47905" lon="8.711925"><ele>710.0</ele><time>2026-04-25T13:43:46.992Z</time></trkpt><trkpt lat="44.4789533" lon="8.7120167"><ele>710.0</ele><time>2026-04-25T13:43:47.999Z</time></trkpt><trkpt lat="44.4788483" lon="8.71207"><ele>710.0</ele><time>2026-04-25T13:43:48.995Z</time></trkpt><trkpt lat="44.4787283" lon="8.7120967"><ele>710.0</ele><time>2026-04-25T13:43:49.991Z</time></trkpt><trkpt lat="44.4786117" lon="8.7121383"><ele>710.0</ele><time>2026-04-25T13:43:50.992Z</time></trkpt><trkpt lat="44.4784833" lon="8.7121633"><ele>712.0</ele><time>2026-04-25T13:43:51.991Z</time></trkpt><trkpt lat="44.4783583" lon="8.7121817"><ele>714.0</ele><time>2026-04-25T13:43:52.992Z</time></trkpt><trkpt lat="44.47825" lon="8.7121917"><ele>716.0</ele><time>2026-04-25T13:43:53.991Z</time></trkpt><trkpt lat="44.4781533" lon="8.7121667"><ele>718.0</ele><time>2026-04-25T13:43:54.996Z</time></trkpt><trkpt lat="44.4780517" lon="8.7121233"><ele>720.0</ele><time>2026-04-25T13:43:55.995Z</time></trkpt><trkpt lat="44.4779867" lon="8.7120367"><ele>720.6666666666666</ele><time>2026-04-25T13:43:56.992Z</time></trkpt><trkpt lat="44.477925" lon="8.7119583"><ele>721.3333333333334</ele><time>2026-04-25T13:43:58.001Z</time></trkpt><trkpt lat="44.4778583" lon="8.7118917"><ele>722.0</ele><time>2026-04-25T13:43:58.991Z</time></trkpt><trkpt lat="44.4777733" lon="8.7118983"><ele>722.6666666666667</ele><time>2026-04-25T13:43:59.997Z</time></trkpt><trkpt lat="44.47769" lon="8.71191"><ele>723.3333333333334</ele><time>2026-04-25T13:44:00.996Z</time></trkpt><trkpt lat="44.4776" lon="8.71193"><ele>724.0</ele><time>2026-04-25T13:44:01.994Z</time></trkpt><trkpt lat="44.4775233" lon="8.7119383"><ele>724.0</ele><time>2026-04-25T13:44:03.002Z</time></trkpt><trkpt lat="44.47744" lon="8.71193"><ele>724.0</ele><time>2026-04-25T13:44:03.999Z</time></trkpt><trkpt lat="44.47736" lon="8.7119233"><ele>724.0</ele><time>2026-04-25T13:44:04.995Z</time></trkpt><trkpt lat="44.4773017" lon="8.711855"><ele>724.0</ele><time>2026-04-25T13:44:05.995Z</time></trkpt><trkpt lat="44.477265" lon="8.7117583"><ele>724.0</ele><time>2026-04-25T13:44:06.997Z</time></trkpt><trkpt lat="44.4772433" lon="8.711665"><ele>724.0</ele><time>2026-04-25T13:44:07.995Z</time></trkpt><trkpt lat="44.4772467" lon="8.7115667"><ele>727.0</ele><time>2026-04-25T13:44:08.996Z</time></trkpt><trkpt lat="44.4772867" lon="8.7114467"><ele>730.0</ele><time>2026-04-25T13:44:10.994Z</time></trkpt><trkpt lat="44.4773433" lon="8.7113433"><ele>733.0</ele><time>2026-04-25T13:44:12.994Z</time></trkpt><trkpt lat="44.477415" lon="8.7112433"><ele>736.0</ele><time>2026-04-25T13:44:14.994Z</time></trkpt><trkpt lat="44.4775267" lon="8.7111033"><ele>739.0</ele><time>2026-04-25T13:44:16.995Z</time></trkpt><trkpt lat="44.477615" lon="8.711035"><ele>739.0</ele><time>2026-04-25T13:44:17.993Z</time></trkpt><trkpt lat="44.477715" lon="8.71096"><ele>739.0</ele><time>2026-04-25T13:44:18.993Z</time></trkpt><trkpt lat="44.47777" lon="8.7108483"><ele>739.0</ele><time>2026-04-25T13:44:19.994Z</time></trkpt><trkpt lat="44.4778083" lon="8.7107317"><ele>739.0</ele><time>2026-04-25T13:44:20.994Z</time></trkpt><trkpt lat="44.47785" lon="8.7106083"><ele>739.0</ele><time>2026-04-25T13:44:21.998Z</time></trkpt><trkpt lat="44.4778967" lon="8.7104817"><ele>742.0</ele><time>2026-04-25T13:44:22.993Z</time></trkpt><trkpt lat="44.477945" lon="8.7103533"><ele>745.0</ele><time>2026-04-25T13:44:23.996Z</time></trkpt><trkpt lat="44.4779967" lon="8.7102233"><ele>748.0</ele><time>2026-04-25T13:44:24.995Z</time></trkpt><trkpt lat="44.47805" lon="8.7100933"><ele>751.0</ele><time>2026-04-25T13:44:25.994Z</time></trkpt><trkpt lat="44.478105" lon="8.7099767"><ele>754.0</ele><time>2026-04-25T13:44:26.996Z</time></trkpt><trkpt lat="44.4781633" lon="8.7098683"><ele>754.0</ele><time>2026-04-25T13:44:27.993Z</time></trkpt><trkpt lat="44.4782317" lon="8.7097733"><ele>754.0</ele><time>2026-04-25T13:44:28.993Z</time></trkpt><trkpt lat="44.47831" lon="8.709685"><ele>754.0</ele><time>2026-04-25T13:44:29.994Z</time></trkpt><trkpt lat="44.478385" lon="8.70959"><ele>754.0</ele><time>2026-04-25T13:44:30.993Z</time></trkpt><trkpt lat="44.478465" lon="8.7094967"><ele>754.0</ele><time>2026-04-25T13:44:31.999Z</time></trkpt><trkpt lat="44.478545" lon="8.7094033"><ele>751.2</ele><time>2026-04-25T13:44:32.995Z</time></trkpt><trkpt lat="44.4786267" lon="8.7093133"><ele>748.4000000000001</ele><time>2026-04-25T13:44:33.995Z</time></trkpt><trkpt lat="44.4787083" lon="8.7092233"><ele>745.6</ele><time>2026-04-25T13:44:34.993Z</time></trkpt><trkpt lat="44.4787817" lon="8.7091367"><ele>742.8</ele><time>2026-04-25T13:44:35.995Z</time></trkpt><trkpt lat="44.4788417" lon="8.7090433"><ele>740.0</ele><time>2026-04-25T13:44:36.993Z</time></trkpt><trkpt lat="44.4788883" lon="8.7089317"><ele>746.2</ele><time>2026-04-25T13:44:37.993Z</time></trkpt><trkpt lat="44.4788917" lon="8.7088"><ele>752.4</ele><time>2026-04-25T13:44:38.992Z</time></trkpt><trkpt lat="44.4788633" lon="8.7086683"><ele>758.5999999999999</ele><time>2026-04-25T13:44:39.992Z</time></trkpt><trkpt lat="44.47883" lon="8.708535"><ele>764.8</ele><time>2026-04-25T13:44:40.993Z</time></trkpt><trkpt lat="44.4788083" lon="8.7084083"><ele>771.0</ele><time>2026-04-25T13:44:41.993Z</time></trkpt><trkpt lat="44.4788167" lon="8.7082883"><ele>771.0</ele><time>2026-04-25T13:44:42.995Z</time></trkpt><trkpt lat="44.4788483" lon="8.7081717"><ele>771.0</ele><time>2026-04-25T13:44:44.002Z</time></trkpt><trkpt lat="44.4789017" lon="8.7080683"><ele>771.0</ele><time>2026-04-25T13:44:44.996Z</time></trkpt><trkpt lat="44.4789533" lon="8.70796"><ele>771.0</ele><time>2026-04-25T13:44:45.993Z</time></trkpt><trkpt lat="44.47899" lon="8.7078517"><ele>771.0</ele><time>2026-04-25T13:44:46.991Z</time></trkpt><trkpt lat="44.4790117" lon="8.7077367"><ele>771.0</ele><time>2026-04-25T13:44:47.995Z</time></trkpt><trkpt lat="44.4790167" lon="8.7076217"><ele>771.5999999999999</ele><time>2026-04-25T13:44:48.995Z</time></trkpt><trkpt lat="44.479" lon="8.7075167"><ele>772.2</ele><time>2026-04-25T13:44:49.996Z</time></trkpt><trkpt lat="44.4789833" lon="8.7073933"><ele>772.8</ele><time>2026-04-25T13:44:50.993Z</time></trkpt><trkpt lat="44.4789783" lon="8.70725"><ele>773.4000000000001</ele><time>2026-04-25T13:44:51.995Z</time></trkpt><trkpt lat="44.4790133" lon="8.7071167"><ele>774.0</ele><time>2026-04-25T13:44:52.998Z</time></trkpt><trkpt lat="44.479055" lon="8.7069667"><ele>773.75</ele><time>2026-04-25T13:44:53.996Z</time></trkpt><trkpt lat="44.4791" lon="8.7068167"><ele>773.5</ele><time>2026-04-25T13:44:54.997Z</time></trkpt><trkpt lat="44.4791267" lon="8.7066617"><ele>773.25</ele><time>2026-04-25T13:44:55.993Z</time></trkpt><trkpt lat="44.4791333" lon="8.7065067"><ele>773.0</ele><time>2026-04-25T13:44:56.992Z</time></trkpt><trkpt lat="44.479115" lon="8.706355"><ele>773.0</ele><time>2026-04-25T13:44:57.996Z</time></trkpt><trkpt lat="44.4790667" lon="8.70621"><ele>773.0</ele><time>2026-04-25T13:44:58.995Z</time></trkpt><trkpt lat="44.478995" lon="8.7060783"><ele>773.0</ele><time>2026-04-25T13:44:59.991Z</time></trkpt><trkpt lat="44.4789083" lon="8.705965"><ele>773.0</ele><time>2026-04-25T13:45:00.998Z</time></trkpt><trkpt lat="44.4788133" lon="8.705855"><ele>770.0</ele><time>2026-04-25T13:45:01.996Z</time></trkpt><trkpt lat="44.4787183" lon="8.70575"><ele>767.0</ele><time>2026-04-25T13:45:02.992Z</time></trkpt><trkpt lat="44.4786333" lon="8.7056533"><ele>764.0</ele><time>2026-04-25T13:45:03.993Z</time></trkpt><trkpt lat="44.478575" lon="8.7055633"><ele>761.0</ele><time>2026-04-25T13:45:04.992Z</time></trkpt><trkpt lat="44.478525" lon="8.7054717"><ele>758.0</ele><time>2026-04-25T13:45:05.997Z</time></trkpt><trkpt lat="44.478555" lon="8.7053717"><ele>758.0</ele><time>2026-04-25T13:45:07.005Z</time></trkpt><trkpt lat="44.4785983" lon="8.7052817"><ele>758.0</ele><time>2026-04-25T13:45:07.995Z</time></trkpt><trkpt lat="44.4786517" lon="8.7051967"><ele>758.0</ele><time>2026-04-25T13:45:08.995Z</time></trkpt><trkpt lat="44.4787317" lon="8.7051183"><ele>758.0</ele><time>2026-04-25T13:45:09.997Z</time></trkpt><trkpt lat="44.4788517" lon="8.7050717"><ele>758.0</ele><time>2026-04-25T13:45:10.999Z</time></trkpt><trkpt lat="44.4789833" lon="8.7050083"><ele>759.75</ele><time>2026-04-25T13:45:11.995Z</time></trkpt><trkpt lat="44.4791083" lon="8.7049367"><ele>761.5</ele><time>2026-04-25T13:45:12.998Z</time></trkpt><trkpt lat="44.4792333" lon="8.704855"><ele>763.25</ele><time>2026-04-25T13:45:13.999Z</time></trkpt><trkpt lat="44.4793583" lon="8.7047617"><ele>765.0</ele><time>2026-04-25T13:45:14.997Z</time></trkpt><trkpt lat="44.47948" lon="8.7046633"><ele>765.0</ele><time>2026-04-25T13:45:15.993Z</time></trkpt><trkpt lat="44.4795983" lon="8.7045567"><ele>765.0</ele><time>2026-04-25T13:45:16.994Z</time></trkpt><trkpt lat="44.47971" lon="8.7044283"><ele>765.0</ele><time>2026-04-25T13:45:17.993Z</time></trkpt><trkpt lat="44.4798167" lon="8.7042933"><ele>765.0</ele><time>2026-04-25T13:45:18.997Z</time></trkpt><trkpt lat="44.4799267" lon="8.70416"><ele>766.75</ele><time>2026-04-25T13:45:19.993Z</time></trkpt><trkpt lat="44.4800367" lon="8.7040217"><ele>768.5</ele><time>2026-04-25T13:45:20.994Z</time></trkpt><trkpt lat="44.4801417" lon="8.7038717"><ele>770.25</ele><time>2026-04-25T13:45:21.993Z</time></trkpt><trkpt lat="44.4802383" lon="8.70372"><ele>772.0</ele><time>2026-04-25T13:45:22.994Z</time></trkpt><trkpt lat="44.4803283" lon="8.7035683"><ele>773.8</ele><time>2026-04-25T13:45:23.997Z</time></trkpt><trkpt lat="44.4804117" lon="8.7034333"><ele>775.6</ele><time>2026-04-25T13:45:24.997Z</time></trkpt><trkpt lat="44.4804633" lon="8.7032933"><ele>777.4</ele><time>2026-04-25T13:45:25.996Z</time></trkpt><trkpt lat="44.4804917" lon="8.7031517"><ele>779.1999999999999</ele><time>2026-04-25T13:45:26.999Z</time></trkpt><trkpt lat="44.4805083" lon="8.7030217"><ele>781.0</ele><time>2026-04-25T13:45:27.993Z</time></trkpt><trkpt lat="44.48054" lon="8.7028917"><ele>781.0</ele><time>2026-04-25T13:45:28.993Z</time></trkpt><trkpt lat="44.4805933" lon="8.7027633"><ele>781.0</ele><time>2026-04-25T13:45:29.994Z</time></trkpt><trkpt lat="44.4806683" lon="8.7026383"><ele>781.0</ele><time>2026-04-25T13:45:30.997Z</time></trkpt><trkpt lat="44.4807667" lon="8.7025233"><ele>781.0</ele><time>2026-04-25T13:45:31.996Z</time></trkpt><trkpt lat="44.4808633" lon="8.7023983"><ele>776.25</ele><time>2026-04-25T13:45:32.995Z</time></trkpt><trkpt lat="44.4809533" lon="8.7022617"><ele>771.5</ele><time>2026-04-25T13:45:33.994Z</time></trkpt><trkpt lat="44.48099" lon="8.7020717"><ele>766.75</ele><time>2026-04-25T13:45:34.997Z</time></trkpt><trkpt lat="44.4810017" lon="8.7018833"><ele>762.0</ele><time>2026-04-25T13:45:35.994Z</time></trkpt><trkpt lat="44.4810033" lon="8.7016817"><ele>763.0</ele><time>2026-04-25T13:45:36.996Z</time></trkpt><trkpt lat="44.4810083" lon="8.7014733"><ele>764.0</ele><time>2026-04-25T13:45:37.997Z</time></trkpt><trkpt lat="44.4810117" lon="8.7012617"><ele>765.0</ele><time>2026-04-25T13:45:38.994Z</time></trkpt><trkpt lat="44.4810117" lon="8.701055"><ele>766.0</ele><time>2026-04-25T13:45:39.996Z</time></trkpt><trkpt lat="44.480995" lon="8.7008467"><ele>766.0</ele><time>2026-04-25T13:45:40.995Z</time></trkpt><trkpt lat="44.4809683" lon="8.7006517"><ele>766.0</ele><time>2026-04-25T13:45:41.997Z</time></trkpt><trkpt lat="44.4809267" lon="8.7004683"><ele>766.0</ele><time>2026-04-25T13:45:42.998Z</time></trkpt><trkpt lat="44.4808867" lon="8.7002983"><ele>766.0</ele><time>2026-04-25T13:45:43.993Z</time></trkpt><trkpt lat="44.4808617" lon="8.7001183"><ele>767.0</ele><time>2026-04-25T13:45:44.996Z</time></trkpt><trkpt lat="44.480855" lon="8.6999467"><ele>768.0</ele><time>2026-04-25T13:45:45.993Z</time></trkpt><trkpt lat="44.4808767" lon="8.699785"><ele>769.0</ele><time>2026-04-25T13:45:46.996Z</time></trkpt><trkpt lat="44.4809133" lon="8.6996333"><ele>770.0</ele><time>2026-04-25T13:45:47.994Z</time></trkpt><trkpt lat="44.480945" lon="8.6994733"><ele>772.75</ele><time>2026-04-25T13:45:48.993Z</time></trkpt><trkpt lat="44.4809467" lon="8.6993183"><ele>775.5</ele><time>2026-04-25T13:45:49.993Z</time></trkpt><trkpt lat="44.4809183" lon="8.6991683"><ele>778.25</ele><time>2026-04-25T13:45:51.002Z</time></trkpt><trkpt lat="44.48086" lon="8.6990233"><ele>781.0</ele><time>2026-04-25T13:45:51.993Z</time></trkpt><trkpt lat="44.4807767" lon="8.6989067"><ele>781.0</ele><time>2026-04-25T13:45:52.995Z</time></trkpt><trkpt lat="44.4806817" lon="8.6988033"><ele>781.0</ele><time>2026-04-25T13:45:53.996Z</time></trkpt><trkpt lat="44.4805933" lon="8.6987"><ele>781.0</ele><time>2026-04-25T13:45:54.996Z</time></trkpt><trkpt lat="44.4805233" lon="8.6985767"><ele>781.0</ele><time>2026-04-25T13:45:55.996Z</time></trkpt><trkpt lat="44.48048" lon="8.6984383"><ele>784.75</ele><time>2026-04-25T13:45:56.994Z</time></trkpt><trkpt lat="44.480465" lon="8.6982867"><ele>788.5</ele><time>2026-04-25T13:45:57.997Z</time></trkpt><trkpt lat="44.4804833" lon="8.6981333"><ele>792.25</ele><time>2026-04-25T13:45:58.996Z</time></trkpt><trkpt lat="44.48054" lon="8.69799"><ele>796.0</ele><time>2026-04-25T13:45:59.994Z</time></trkpt><trkpt lat="44.480615" lon="8.6978367"><ele>796.75</ele><time>2026-04-25T13:46:00.994Z</time></trkpt><trkpt lat="44.480705" lon="8.6976767"><ele>797.5</ele><time>2026-04-25T13:46:01.995Z</time></trkpt><trkpt lat="44.4807817" lon="8.6975167"><ele>798.25</ele><time>2026-04-25T13:46:03Z</time></trkpt><trkpt lat="44.4808367" lon="8.69735"><ele>799.0</ele><time>2026-04-25T13:46:03.994Z</time></trkpt><trkpt lat="44.4808483" lon="8.69718"><ele>799.0</ele><time>2026-04-25T13:46:04.997Z</time></trkpt><trkpt lat="44.48084" lon="8.697015"><ele>799.0</ele><time>2026-04-25T13:46:06Z</time></trkpt><trkpt lat="44.4808267" lon="8.6968483"><ele>799.0</ele><time>2026-04-25T13:46:06.992Z</time></trkpt><trkpt lat="44.4808233" lon="8.6966783"><ele>799.0</ele><time>2026-04-25T13:46:07.994Z</time></trkpt><trkpt lat="44.4808383" lon="8.6965133"><ele>799.25</ele><time>2026-04-25T13:46:08.995Z</time></trkpt><trkpt lat="44.480875" lon="8.6963483"><ele>799.5</ele><time>2026-04-25T13:46:09.998Z</time></trkpt><trkpt lat="44.4809267" lon="8.6961833"><ele>799.75</ele><time>2026-04-25T13:46:10.992Z</time></trkpt><trkpt lat="44.48099" lon="8.696025"><ele>800.0</ele><time>2026-04-25T13:46:11.995Z</time></trkpt><trkpt lat="44.4810717" lon="8.6958733"><ele>797.5</ele><time>2026-04-25T13:46:12.997Z</time></trkpt><trkpt lat="44.4811667" lon="8.695735"><ele>795.0</ele><time>2026-04-25T13:46:13.994Z</time></trkpt><trkpt lat="44.4812717" lon="8.695605"><ele>792.5</ele><time>2026-04-25T13:46:14.996Z</time></trkpt><trkpt lat="44.4813833" lon="8.6954767"><ele>790.0</ele><time>2026-04-25T13:46:15.995Z</time></trkpt><trkpt lat="44.4815083" lon="8.6953433"><ele>794.0</ele><time>2026-04-25T13:46:17Z</time></trkpt><trkpt lat="44.481645" lon="8.6952183"><ele>798.0</ele><time>2026-04-25T13:46:17.996Z</time></trkpt><trkpt lat="44.481775" lon="8.6951033"><ele>802.0</ele><time>2026-04-25T13:46:18.995Z</time></trkpt><trkpt lat="44.4818967" lon="8.694995"><ele>802.0</ele><time>2026-04-25T13:46:19.993Z</time></trkpt><trkpt lat="44.4820167" lon="8.69488"><ele>802.0</ele><time>2026-04-25T13:46:20.994Z</time></trkpt><trkpt lat="44.482135" lon="8.6947567"><ele>802.0</ele><time>2026-04-25T13:46:21.993Z</time></trkpt><trkpt lat="44.4822583" lon="8.6946333"><ele>802.0</ele><time>2026-04-25T13:46:22.993Z</time></trkpt><trkpt lat="44.482385" lon="8.69451"><ele>806.75</ele><time>2026-04-25T13:46:23.993Z</time></trkpt><trkpt lat="44.4825067" lon="8.69439"><ele>811.5</ele><time>2026-04-25T13:46:24.998Z</time></trkpt><trkpt lat="44.4826183" lon="8.6942783"><ele>816.25</ele><time>2026-04-25T13:46:25.998Z</time></trkpt><trkpt lat="44.482705" lon="8.6941667"><ele>821.0</ele><time>2026-04-25T13:46:26.994Z</time></trkpt><trkpt lat="44.48276" lon="8.6940433"><ele>821.0</ele><time>2026-04-25T13:46:27.994Z</time></trkpt><trkpt lat="44.48279" lon="8.6939167"><ele>821.0</ele><time>2026-04-25T13:46:28.995Z</time></trkpt><trkpt lat="44.482775" lon="8.6937783"><ele>821.0</ele><time>2026-04-25T13:46:29.993Z</time></trkpt><trkpt lat="44.4827383" lon="8.69365"><ele>821.0</ele><time>2026-04-25T13:46:30.993Z</time></trkpt><trkpt lat="44.4826733" lon="8.6935317"><ele>821.0</ele><time>2026-04-25T13:46:31.993Z</time></trkpt><trkpt lat="44.4825883" lon="8.69342"><ele>823.75</ele><time>2026-04-25T13:46:32.999Z</time></trkpt><trkpt lat="44.4825" lon="8.6933083"><ele>826.5</ele><time>2026-04-25T13:46:33.996Z</time></trkpt><trkpt lat="44.4824133" lon="8.69319"><ele>829.25</ele><time>2026-04-25T13:46:34.995Z</time></trkpt><trkpt lat="44.4823267" lon="8.69307"><ele>832.0</ele><time>2026-04-25T13:46:35.998Z</time></trkpt><trkpt lat="44.4822417" lon="8.692945"><ele>832.0</ele><time>2026-04-25T13:46:36.994Z</time></trkpt><trkpt lat="44.48216" lon="8.6928133"><ele>832.0</ele><time>2026-04-25T13:46:37.995Z</time></trkpt><trkpt lat="44.4820883" lon="8.6926617"><ele>832.0</ele><time>2026-04-25T13:46:38.995Z</time></trkpt><trkpt lat="44.4820267" lon="8.69249"><ele>832.0</ele><time>2026-04-25T13:46:39.994Z</time></trkpt><trkpt lat="44.4819717" lon="8.6923017"><ele>831.3333333333333</ele><time>2026-04-25T13:46:40.995Z</time></trkpt><trkpt lat="44.4819133" lon="8.6920967"><ele>830.6666666666667</ele><time>2026-04-25T13:46:41.996Z</time></trkpt><trkpt lat="44.4818517" lon="8.6918817"><ele>830.0</ele><time>2026-04-25T13:46:42.994Z</time></trkpt><trkpt lat="44.4817817" lon="8.6916733"><ele>830.0</ele><time>2026-04-25T13:46:43.993Z</time></trkpt><trkpt lat="44.48171" lon="8.6914867"><ele>830.0</ele><time>2026-04-25T13:46:44.999Z</time></trkpt><trkpt lat="44.4816467" lon="8.6913233"><ele>830.0</ele><time>2026-04-25T13:46:45.996Z</time></trkpt><trkpt lat="44.4816033" lon="8.6911633"><ele>830.0</ele><time>2026-04-25T13:46:46.996Z</time></trkpt><trkpt lat="44.4815867" lon="8.6909883"><ele>833.0</ele><time>2026-04-25T13:46:47.996Z</time></trkpt><trkpt lat="44.4815967" lon="8.6908117"><ele>836.0</ele><time>2026-04-25T13:46:48.996Z</time></trkpt><trkpt lat="44.481635" lon="8.6906383"><ele>839.0</ele><time>2026-04-25T13:46:49.999Z</time></trkpt><trkpt lat="44.4816967" lon="8.6904733"><ele>842.0</ele><time>2026-04-25T13:46:50.997Z</time></trkpt><trkpt lat="44.4817817" lon="8.6903283"><ele>838.75</ele><time>2026-04-25T13:46:51.995Z</time></trkpt><trkpt lat="44.481885" lon="8.6901983"><ele>835.5</ele><time>2026-04-25T13:46:52.995Z</time></trkpt><trkpt lat="44.4820017" lon="8.6900817"><ele>832.25</ele><time>2026-04-25T13:46:53.996Z</time></trkpt><trkpt lat="44.4821117" lon="8.68996"><ele>829.0</ele><time>2026-04-25T13:46:54.993Z</time></trkpt><trkpt lat="44.4822183" lon="8.6898333"><ele>837.0</ele><time>2026-04-25T13:46:55.995Z</time></trkpt><trkpt lat="44.4823133" lon="8.6896933"><ele>845.0</ele><time>2026-04-25T13:46:56.991Z</time></trkpt><trkpt lat="44.482385" lon="8.689535"><ele>853.0</ele><time>2026-04-25T13:46:57.998Z</time></trkpt><trkpt lat="44.4824333" lon="8.689365"><ele>861.0</ele><time>2026-04-25T13:46:58.997Z</time></trkpt><trkpt lat="44.4824717" lon="8.6891867"><ele>861.0</ele><time>2026-04-25T13:47:00.004Z</time></trkpt><trkpt lat="44.4825133" lon="8.68901"><ele>861.0</ele><time>2026-04-25T13:47:00.997Z</time></trkpt><trkpt lat="44.4825617" lon="8.6888417"><ele>861.0</ele><time>2026-04-25T13:47:01.993Z</time></trkpt><trkpt lat="44.482625" lon="8.6886933"><ele>861.0</ele><time>2026-04-25T13:47:02.995Z</time></trkpt><trkpt lat="44.4827" lon="8.68856"><ele>858.5</ele><time>2026-04-25T13:47:03.998Z</time></trkpt><trkpt lat="44.4827533" lon="8.68842"><ele>856.0</ele><time>2026-04-25T13:47:04.995Z</time></trkpt><trkpt lat="44.4827783" lon="8.6882667"><ele>853.5</ele><time>2026-04-25T13:47:05.995Z</time></trkpt><trkpt lat="44.4827667" lon="8.68811"><ele>851.0</ele><time>2026-04-25T13:47:06.993Z</time></trkpt><trkpt lat="44.4827233" lon="8.6879567"><ele>851.0</ele><time>2026-04-25T13:47:07.998Z</time></trkpt><trkpt lat="44.48266" lon="8.687805"><ele>851.0</ele><time>2026-04-25T13:47:08.993Z</time></trkpt><trkpt lat="44.482595" lon="8.6876417"><ele>851.0</ele><time>2026-04-25T13:47:09.997Z</time></trkpt><trkpt lat="44.4825417" lon="8.687485"><ele>851.0</ele><time>2026-04-25T13:47:10.993Z</time></trkpt><trkpt lat="44.4825067" lon="8.6873133"><ele>851.75</ele><time>2026-04-25T13:47:11.997Z</time></trkpt><trkpt lat="44.4824867" lon="8.6871433"><ele>852.5</ele><time>2026-04-25T13:47:12.993Z</time></trkpt><trkpt lat="44.4824933" lon="8.6869783"><ele>853.25</ele><time>2026-04-25T13:47:13.998Z</time></trkpt><trkpt lat="44.482525" lon="8.686825"><ele>854.0</ele><time>2026-04-25T13:47:14.994Z</time></trkpt><trkpt lat="44.4825833" lon="8.6866867"><ele>854.0</ele><time>2026-04-25T13:47:15.994Z</time></trkpt><trkpt lat="44.4826567" lon="8.686555"><ele>854.0</ele><time>2026-04-25T13:47:16.999Z</time></trkpt><trkpt lat="44.4827317" lon="8.6864167"><ele>854.0</ele><time>2026-04-25T13:47:17.996Z</time></trkpt><trkpt lat="44.4828033" lon="8.6862817"><ele>854.0</ele><time>2026-04-25T13:47:18.995Z</time></trkpt><trkpt lat="44.4828667" lon="8.6861467"><ele>852.8000000000001</ele><time>2026-04-25T13:47:19.997Z</time></trkpt><trkpt lat="44.482915" lon="8.6860117"><ele>851.6000000000001</ele><time>2026-04-25T13:47:20.993Z</time></trkpt><trkpt lat="44.48294" lon="8.6858683"><ele>850.4</ele><time>2026-04-25T13:47:21.997Z</time></trkpt><trkpt lat="44.4829433" lon="8.6857267"><ele>849.2</ele><time>2026-04-25T13:47:22.994Z</time></trkpt><trkpt lat="44.48291" lon="8.6855783"><ele>848.0</ele><time>2026-04-25T13:47:23.997Z</time></trkpt><trkpt lat="44.4828533" lon="8.6854533"><ele>848.0</ele><time>2026-04-25T13:47:24.999Z</time></trkpt><trkpt lat="44.4827767" lon="8.685335"><ele>848.0</ele><time>2026-04-25T13:47:25.994Z</time></trkpt><trkpt lat="44.4826867" lon="8.685205"><ele>848.0</ele><time>2026-04-25T13:47:26.997Z</time></trkpt><trkpt lat="44.4825967" lon="8.6850683"><ele>848.0</ele><time>2026-04-25T13:47:27.995Z</time></trkpt><trkpt lat="44.482505" lon="8.6849283"><ele>854.75</ele><time>2026-04-25T13:47:28.997Z</time></trkpt><trkpt lat="44.4824083" lon="8.68479"><ele>861.5</ele><time>2026-04-25T13:47:29.997Z</time></trkpt><trkpt lat="44.482305" lon="8.6846517"><ele>868.25</ele><time>2026-04-25T13:47:30.996Z</time></trkpt><trkpt lat="44.4822017" lon="8.6845133"><ele>875.0</ele><time>2026-04-25T13:47:31.995Z</time></trkpt><trkpt lat="44.482105" lon="8.6843783"><ele>871.75</ele><time>2026-04-25T13:47:33.002Z</time></trkpt><trkpt lat="44.48202" lon="8.6842383"><ele>868.5</ele><time>2026-04-25T13:47:33.993Z</time></trkpt><trkpt lat="44.4819417" lon="8.68409"><ele>865.25</ele><time>2026-04-25T13:47:34.995Z</time></trkpt><trkpt lat="44.4818717" lon="8.6839383"><ele>862.0</ele><time>2026-04-25T13:47:35.996Z</time></trkpt><trkpt lat="44.4818083" lon="8.683785"><ele>862.0</ele><time>2026-04-25T13:47:36.994Z</time></trkpt><trkpt lat="44.481755" lon="8.6836417"><ele>862.0</ele><time>2026-04-25T13:47:37.997Z</time></trkpt><trkpt lat="44.4817117" lon="8.6835033"><ele>862.0</ele><time>2026-04-25T13:47:38.995Z</time></trkpt><trkpt lat="44.4816767" lon="8.6833717"><ele>862.0</ele><time>2026-04-25T13:47:39.997Z</time></trkpt><trkpt lat="44.481655" lon="8.6832383"><ele>862.0</ele><time>2026-04-25T13:47:40.992Z</time></trkpt><trkpt lat="44.48165" lon="8.6831083"><ele>864.0</ele><time>2026-04-25T13:47:41.994Z</time></trkpt><trkpt lat="44.48166" lon="8.683005"><ele>866.0</ele><time>2026-04-25T13:47:42.997Z</time></trkpt><trkpt lat="44.4816783" lon="8.68292"><ele>868.0</ele><time>2026-04-25T13:47:43.994Z</time></trkpt><trkpt lat="44.4817133" lon="8.682815"><ele>870.0</ele><time>2026-04-25T13:47:45.997Z</time></trkpt><trkpt lat="44.4817417" lon="8.682725"><ele>872.0</ele><time>2026-04-25T13:50:56.999Z</time></trkpt><trkpt lat="44.4817217" lon="8.6826233"><ele>874.0</ele><time>2026-04-25T13:51:00Z</time></trkpt><trkpt lat="44.4817167" lon="8.6825317"><ele>876.0</ele><time>2026-04-25T13:51:01.998Z</time></trkpt><trkpt lat="44.4817" lon="8.68241"><ele>876.7142857142858</ele><time>2026-04-25T13:51:03.997Z</time></trkpt><trkpt lat="44.4816783" lon="8.6823167"><ele>877.4285714285713</ele><time>2026-04-25T13:51:04.991Z</time></trkpt><trkpt lat="44.48165" lon="8.682235"><ele>878.1428571428571</ele><time>2026-04-25T13:51:05.997Z</time></trkpt><trkpt lat="44.4816283" lon="8.6821517"><ele>878.8571428571429</ele><time>2026-04-25T13:51:06.991Z</time></trkpt><trkpt lat="44.4816067" lon="8.6820617"><ele>879.5714285714287</ele><time>2026-04-25T13:51:07.991Z</time></trkpt><trkpt lat="44.481585" lon="8.6819633"><ele>880.2857142857142</ele><time>2026-04-25T13:51:08.998Z</time></trkpt><trkpt lat="44.481565" lon="8.6818633"><ele>881.0</ele><time>2026-04-25T13:51:09.993Z</time></trkpt><trkpt lat="44.481545" lon="8.6817667"><ele>883.1428571428571</ele><time>2026-04-25T13:51:10.994Z</time></trkpt><trkpt lat="44.4815233" lon="8.68166"><ele>885.2857142857143</ele><time>2026-04-25T13:51:11.994Z</time></trkpt><trkpt lat="44.4815017" lon="8.6815633"><ele>887.4285714285714</ele><time>2026-04-25T13:51:12.992Z</time></trkpt><trkpt lat="44.4814783" lon="8.6814717"><ele>889.5714285714286</ele><time>2026-04-25T13:51:13.995Z</time></trkpt><trkpt lat="44.4814583" lon="8.6813717"><ele>891.7142857142858</ele><time>2026-04-25T13:51:14.995Z</time></trkpt><trkpt lat="44.48144" lon="8.6812683"><ele>893.8571428571429</ele><time>2026-04-25T13:51:15.994Z</time></trkpt><trkpt lat="44.48142" lon="8.6811633"><ele>896.0</ele><time>2026-04-25T13:51:16.993Z</time></trkpt><trkpt lat="44.4813983" lon="8.6810567"><ele>895.1666666666667</ele><time>2026-04-25T13:51:17.996Z</time></trkpt><trkpt lat="44.4813717" lon="8.6809533"><ele>894.3333333333334</ele><time>2026-04-25T13:51:18.993Z</time></trkpt><trkpt lat="44.481335" lon="8.68085"><ele>893.5</ele><time>2026-04-25T13:51:19.994Z</time></trkpt><trkpt lat="44.4812917" lon="8.6807517"><ele>892.6666666666667</ele><time>2026-04-25T13:51:20.996Z</time></trkpt><trkpt lat="44.4812383" lon="8.6806617"><ele>891.8333333333334</ele><time>2026-04-25T13:51:21.995Z</time></trkpt><trkpt lat="44.4811817" lon="8.6805733"><ele>891.0</ele><time>2026-04-25T13:51:22.994Z</time></trkpt><trkpt lat="44.4811133" lon="8.6805"><ele>891.0</ele><time>2026-04-25T13:51:23.994Z</time></trkpt><trkpt lat="44.4810433" lon="8.680425"><ele>891.0</ele><time>2026-04-25T13:51:24.997Z</time></trkpt><trkpt lat="44.48096" lon="8.6803883"><ele>891.0</ele><time>2026-04-25T13:51:25.992Z</time></trkpt><trkpt lat="44.480885" lon="8.68035"><ele>891.0</ele><time>2026-04-25T13:51:26.999Z</time></trkpt><trkpt lat="44.480815" lon="8.6803117"><ele>891.0</ele><time>2026-04-25T13:51:27.992Z</time></trkpt><trkpt lat="44.4807533" lon="8.6802633"><ele>891.0</ele><time>2026-04-25T13:51:28.996Z</time></trkpt><trkpt lat="44.4807" lon="8.6801917"><ele>895.8333333333334</ele><time>2026-04-25T13:51:29.994Z</time></trkpt><trkpt lat="44.4806633" lon="8.6801033"><ele>900.6666666666667</ele><time>2026-04-25T13:51:30.993Z</time></trkpt><trkpt lat="44.4806283" lon="8.6800167"><ele>905.5</ele><time>2026-04-25T13:51:31.995Z</time></trkpt><trkpt lat="44.4806033" lon="8.67992"><ele>910.3333333333334</ele><time>2026-04-25T13:51:32.993Z</time></trkpt><trkpt lat="44.4805983" lon="8.6798067"><ele>915.1666666666667</ele><time>2026-04-25T13:51:33.995Z</time></trkpt><trkpt lat="44.480605" lon="8.6796867"><ele>920.0</ele><time>2026-04-25T13:51:34.995Z</time></trkpt><trkpt lat="44.4806133" lon="8.6795617"><ele>923.6</ele><time>2026-04-25T13:51:35.993Z</time></trkpt><trkpt lat="44.4806167" lon="8.6794283"><ele>927.2</ele><time>2026-04-25T13:51:36.996Z</time></trkpt><trkpt lat="44.480615" lon="8.67929"><ele>930.8</ele><time>2026-04-25T13:51:37.997Z</time></trkpt><trkpt lat="44.4805933" lon="8.6791367"><ele>934.4</ele><time>2026-04-25T13:51:38.995Z</time></trkpt><trkpt lat="44.4805483" lon="8.6789933"><ele>938.0</ele><time>2026-04-25T13:51:39.997Z</time></trkpt><trkpt lat="44.4804767" lon="8.6788717"><ele>935.2</ele><time>2026-04-25T13:51:40.997Z</time></trkpt><trkpt lat="44.4804083" lon="8.678755"><ele>932.4</ele><time>2026-04-25T13:51:41.994Z</time></trkpt><trkpt lat="44.4803467" lon="8.67865"><ele>929.6000000000001</ele><time>2026-04-25T13:51:43.007Z</time></trkpt><trkpt lat="44.4802833" lon="8.6785467"><ele>926.8000000000001</ele><time>2026-04-25T13:51:43.995Z</time></trkpt><trkpt lat="44.48022" lon="8.6784467"><ele>924.0</ele><time>2026-04-25T13:51:45Z</time></trkpt><trkpt lat="44.480145" lon="8.678365"><ele>924.0</ele><time>2026-04-25T13:51:45.996Z</time></trkpt><trkpt lat="44.48007" lon="8.6782867"><ele>924.0000000000001</ele><time>2026-04-25T13:51:46.996Z</time></trkpt><trkpt lat="44.4799883" lon="8.6782117"><ele>924.0000000000001</ele><time>2026-04-25T13:51:47.996Z</time></trkpt><trkpt lat="44.4799017" lon="8.6781433"><ele>924.0</ele><time>2026-04-25T13:51:48.994Z</time></trkpt><trkpt lat="44.4798083" lon="8.67808"><ele>924.0</ele><time>2026-04-25T13:51:49.993Z</time></trkpt><trkpt lat="44.4797133" lon="8.67801"><ele>924.0</ele><time>2026-04-25T13:51:50.994Z</time></trkpt><trkpt lat="44.4796183" lon="8.6779367"><ele>924.0000000000001</ele><time>2026-04-25T13:51:51.997Z</time></trkpt><trkpt lat="44.4795367" lon="8.6778517"><ele>924.0000000000001</ele><time>2026-04-25T13:51:52.997Z</time></trkpt><trkpt lat="44.47947" lon="8.6777367"><ele>924.0</ele><time>2026-04-25T13:51:54Z</time></trkpt><trkpt lat="44.4794117" lon="8.677605"><ele>924.0</ele><time>2026-04-25T13:51:54.997Z</time></trkpt><trkpt lat="44.47938" lon="8.67746"><ele>923.25</ele><time>2026-04-25T13:51:55.997Z</time></trkpt><trkpt lat="44.479375" lon="8.6772983"><ele>922.5</ele><time>2026-04-25T13:51:56.997Z</time></trkpt><trkpt lat="44.4793833" lon="8.6771267"><ele>921.75</ele><time>2026-04-25T13:51:57.996Z</time></trkpt><trkpt lat="44.4793983" lon="8.676945"><ele>921.0</ele><time>2026-04-25T13:51:58.996Z</time></trkpt><trkpt lat="44.4794167" lon="8.6767717"><ele>921.0</ele><time>2026-04-25T13:51:59.997Z</time></trkpt><trkpt lat="44.4794367" lon="8.6765983"><ele>921.0</ele><time>2026-04-25T13:52:00.994Z</time></trkpt><trkpt lat="44.479455" lon="8.676425"><ele>921.0</ele><time>2026-04-25T13:52:01.996Z</time></trkpt><trkpt lat="44.4794683" lon="8.6762533"><ele>921.0</ele><time>2026-04-25T13:52:02.999Z</time></trkpt><trkpt lat="44.4794717" lon="8.6760917"><ele>924.5</ele><time>2026-04-25T13:52:03.995Z</time></trkpt><trkpt lat="44.4794583" lon="8.6759367"><ele>928.0</ele><time>2026-04-25T13:52:04.994Z</time></trkpt><trkpt lat="44.4794183" lon="8.6757867"><ele>931.5</ele><time>2026-04-25T13:52:05.994Z</time></trkpt><trkpt lat="44.4793567" lon="8.675635"><ele>935.0</ele><time>2026-04-25T13:52:06.994Z</time></trkpt><trkpt lat="44.4793067" lon="8.6754767"><ele>935.0</ele><time>2026-04-25T13:52:07.994Z</time></trkpt><trkpt lat="44.4792717" lon="8.6753283"><ele>935.0</ele><time>2026-04-25T13:52:08.998Z</time></trkpt><trkpt lat="44.479265" lon="8.6751817"><ele>935.0</ele><time>2026-04-25T13:52:09.996Z</time></trkpt><trkpt lat="44.4792967" lon="8.6750467"><ele>935.0</ele><time>2026-04-25T13:52:10.994Z</time></trkpt><trkpt lat="44.4793483" lon="8.674925"><ele>935.0</ele><time>2026-04-25T13:52:11.993Z</time></trkpt><trkpt lat="44.47941" lon="8.674805"><ele>936.0</ele><time>2026-04-25T13:52:12.995Z</time></trkpt><trkpt lat="44.4794617" lon="8.6746767"><ele>937.0</ele><time>2026-04-25T13:52:13.994Z</time></trkpt><trkpt lat="44.479485" lon="8.6745367"><ele>938.0</ele><time>2026-04-25T13:52:14.994Z</time></trkpt><trkpt lat="44.4794683" lon="8.6743883"><ele>939.0</ele><time>2026-04-25T13:52:15.996Z</time></trkpt><trkpt lat="44.47943" lon="8.6742533"><ele>940.0</ele><time>2026-04-25T13:52:16.991Z</time></trkpt><trkpt lat="44.4793617" lon="8.67414"><ele>942.8</ele><time>2026-04-25T13:52:17.994Z</time></trkpt><trkpt lat="44.4792867" lon="8.6740317"><ele>945.6</ele><time>2026-04-25T13:52:19.001Z</time></trkpt><trkpt lat="44.4792067" lon="8.6739267"><ele>948.4000000000001</ele><time>2026-04-25T13:52:19.996Z</time></trkpt><trkpt lat="44.479135" lon="8.673815"><ele>951.2</ele><time>2026-04-25T13:52:20.994Z</time></trkpt><trkpt lat="44.4790733" lon="8.673695"><ele>954.0</ele><time>2026-04-25T13:52:21.997Z</time></trkpt><trkpt lat="44.4790217" lon="8.6735583"><ele>959.25</ele><time>2026-04-25T13:52:22.998Z</time></trkpt><trkpt lat="44.4790017" lon="8.6734017"><ele>964.5</ele><time>2026-04-25T13:52:23.996Z</time></trkpt><trkpt lat="44.47898" lon="8.6732433"><ele>969.75</ele><time>2026-04-25T13:52:24.996Z</time></trkpt><trkpt lat="44.47895" lon="8.6730833"><ele>975.0</ele><time>2026-04-25T13:52:25.996Z</time></trkpt><trkpt lat="44.4788933" lon="8.6729133"><ele>971.3333333333333</ele><time>2026-04-25T13:52:26.993Z</time></trkpt><trkpt lat="44.4788033" lon="8.6727533"><ele>967.6666666666666</ele><time>2026-04-25T13:52:27.993Z</time></trkpt><trkpt lat="44.4786933" lon="8.6726017"><ele>964.0</ele><time>2026-04-25T13:52:28.994Z</time></trkpt><trkpt lat="44.4785683" lon="8.6724633"><ele>964.0</ele><time>2026-04-25T13:52:29.994Z</time></trkpt><trkpt lat="44.4784317" lon="8.6723383"><ele>964.0</ele><time>2026-04-25T13:52:30.996Z</time></trkpt><trkpt lat="44.4782917" lon="8.6722283"><ele>964.0</ele><time>2026-04-25T13:52:31.994Z</time></trkpt><trkpt lat="44.4781517" lon="8.6721283"><ele>964.0</ele><time>2026-04-25T13:52:32.995Z</time></trkpt><trkpt lat="44.4780033" lon="8.6720517"><ele>964.0</ele><time>2026-04-25T13:52:33.996Z</time></trkpt><trkpt lat="44.4778517" lon="8.671995"><ele>964.0</ele><time>2026-04-25T13:52:34.998Z</time></trkpt><trkpt lat="44.4776983" lon="8.671945"><ele>970.25</ele><time>2026-04-25T13:52:35.997Z</time></trkpt><trkpt lat="44.47755" lon="8.6718983"><ele>976.5</ele><time>2026-04-25T13:52:36.994Z</time></trkpt><trkpt lat="44.477415" lon="8.6718283"><ele>982.75</ele><time>2026-04-25T13:52:37.993Z</time></trkpt><trkpt lat="44.4773017" lon="8.671715"><ele>989.0</ele><time>2026-04-25T13:52:38.999Z</time></trkpt><trkpt lat="44.4771867" lon="8.6716067"><ele>986.25</ele><time>2026-04-25T13:52:39.994Z</time></trkpt><trkpt lat="44.4770633" lon="8.6715267"><ele>983.5</ele><time>2026-04-25T13:52:40.997Z</time></trkpt><trkpt lat="44.4769317" lon="8.67152"><ele>980.75</ele><time>2026-04-25T13:52:41.997Z</time></trkpt><trkpt lat="44.4768" lon="8.67153"><ele>978.0</ele><time>2026-04-25T13:52:42.995Z</time></trkpt><trkpt lat="44.4766667" lon="8.671555"><ele>978.0</ele><time>2026-04-25T13:52:43.996Z</time></trkpt><trkpt lat="44.4765217" lon="8.6715817"><ele>978.0</ele><time>2026-04-25T13:52:44.996Z</time></trkpt><trkpt lat="44.4763733" lon="8.6715717"><ele>978.0</ele><time>2026-04-25T13:52:45.997Z</time></trkpt><trkpt lat="44.4762283" lon="8.6715217"><ele>978.0</ele><time>2026-04-25T13:52:46.995Z</time></trkpt><trkpt lat="44.4760867" lon="8.67148"><ele>973.25</ele><time>2026-04-25T13:52:47.995Z</time></trkpt><trkpt lat="44.4759633" lon="8.67143"><ele>968.5</ele><time>2026-04-25T13:52:48.995Z</time></trkpt><trkpt lat="44.4758567" lon="8.6713567"><ele>963.75</ele><time>2026-04-25T13:52:49.996Z</time></trkpt><trkpt lat="44.4757633" lon="8.6712567"><ele>959.0</ele><time>2026-04-25T13:52:50.996Z</time></trkpt><trkpt lat="44.475685" lon="8.6711233"><ele>956.0</ele><time>2026-04-25T13:52:51.996Z</time></trkpt><trkpt lat="44.4756133" lon="8.6709817"><ele>953.0</ele><time>2026-04-25T13:52:52.993Z</time></trkpt><trkpt lat="44.47554" lon="8.67083"><ele>950.0</ele><time>2026-04-25T13:52:53.997Z</time></trkpt><trkpt lat="44.47547" lon="8.6706567"><ele>947.0</ele><time>2026-04-25T13:52:54.999Z</time></trkpt><trkpt lat="44.4753967" lon="8.6704767"><ele>947.0</ele><time>2026-04-25T13:52:55.997Z</time></trkpt><trkpt lat="44.4753217" lon="8.6702933"><ele>947.0</ele><time>2026-04-25T13:52:56.996Z</time></trkpt><trkpt lat="44.4752533" lon="8.6701083"><ele>947.0</ele><time>2026-04-25T13:52:57.996Z</time></trkpt><trkpt lat="44.4751933" lon="8.6699317"><ele>947.0</ele><time>2026-04-25T13:52:58.994Z</time></trkpt><trkpt lat="44.4751467" lon="8.6697617"><ele>951.5</ele><time>2026-04-25T13:52:59.996Z</time></trkpt><trkpt lat="44.475125" lon="8.6695883"><ele>956.0</ele><time>2026-04-25T13:53:00.998Z</time></trkpt><trkpt lat="44.475145" lon="8.6694083"><ele>960.5</ele><time>2026-04-25T13:53:01.998Z</time></trkpt><trkpt lat="44.4752017" lon="8.6692367"><ele>965.0</ele><time>2026-04-25T13:53:02.994Z</time></trkpt><trkpt lat="44.4752867" lon="8.6690733"><ele>965.0</ele><time>2026-04-25T13:53:03.994Z</time></trkpt><trkpt lat="44.4754133" lon="8.6689233"><ele>965.0</ele><time>2026-04-25T13:53:04.994Z</time></trkpt><trkpt lat="44.47555" lon="8.668765"><ele>965.0</ele><time>2026-04-25T13:53:05.995Z</time></trkpt><trkpt lat="44.4756933" lon="8.668605"><ele>965.0</ele><time>2026-04-25T13:53:06.998Z</time></trkpt><trkpt lat="44.4758317" lon="8.6684517"><ele>965.0</ele><time>2026-04-25T13:53:07.997Z</time></trkpt><trkpt lat="44.47597" lon="8.6683033"><ele>965.0</ele><time>2026-04-25T13:53:08.997Z</time></trkpt><trkpt lat="44.4760983" lon="8.6681483"><ele>965.0</ele><time>2026-04-25T13:53:09.994Z</time></trkpt><trkpt lat="44.4762233" lon="8.66801"><ele>965.0</ele><time>2026-04-25T13:53:10.999Z</time></trkpt><trkpt lat="44.4763267" lon="8.66789"><ele>965.0</ele><time>2026-04-25T13:53:12Z</time></trkpt><trkpt lat="44.4764" lon="8.66779"><ele>965.0</ele><time>2026-04-25T13:53:12.996Z</time></trkpt><trkpt lat="44.476435" lon="8.6676783"><ele>964.1666666666667</ele><time>2026-04-25T13:53:13.997Z</time></trkpt><trkpt lat="44.476455" lon="8.6675733"><ele>963.3333333333334</ele><time>2026-04-25T13:53:14.998Z</time></trkpt><trkpt lat="44.47642" lon="8.6674783"><ele>962.5</ele><time>2026-04-25T13:53:15.994Z</time></trkpt><trkpt lat="44.4763733" lon="8.6674"><ele>961.6666666666667</ele><time>2026-04-25T13:53:16.995Z</time></trkpt><trkpt lat="44.47629" lon="8.667395"><ele>960.8333333333334</ele><time>2026-04-25T13:53:17.996Z</time></trkpt><trkpt lat="44.4762133" lon="8.6674067"><ele>960.0</ele><time>2026-04-25T13:53:19.002Z</time></trkpt><trkpt lat="44.4761167" lon="8.6674833"><ele>961.25</ele><time>2026-04-25T13:53:20Z</time></trkpt><trkpt lat="44.4760317" lon="8.6675683"><ele>962.5</ele><time>2026-04-25T13:53:20.993Z</time></trkpt><trkpt lat="44.4759467" lon="8.66767"><ele>963.75</ele><time>2026-04-25T13:53:21.994Z</time></trkpt><trkpt lat="44.47586" lon="8.66778"><ele>965.0</ele><time>2026-04-25T13:53:22.992Z</time></trkpt><trkpt lat="44.4757683" lon="8.6678833"><ele>965.0</ele><time>2026-04-25T13:53:23.998Z</time></trkpt><trkpt lat="44.4756667" lon="8.6679867"><ele>965.0</ele><time>2026-04-25T13:53:24.994Z</time></trkpt><trkpt lat="44.47556" lon="8.6680783"><ele>965.0</ele><time>2026-04-25T13:53:25.993Z</time></trkpt><trkpt lat="44.4754467" lon="8.6681567"><ele>965.0</ele><time>2026-04-25T13:53:26.996Z</time></trkpt><trkpt lat="44.4753217" lon="8.6682183"><ele>961.75</ele><time>2026-04-25T13:53:27.993Z</time></trkpt><trkpt lat="44.4751933" lon="8.6682517"><ele>958.5</ele><time>2026-04-25T13:53:28.996Z</time></trkpt><trkpt lat="44.4750617" lon="8.668265"><ele>955.25</ele><time>2026-04-25T13:53:29.995Z</time></trkpt><trkpt lat="44.47493" lon="8.66826"><ele>952.0</ele><time>2026-04-25T13:53:30.994Z</time></trkpt><trkpt lat="44.4748" lon="8.6682267"><ele>952.0</ele><time>2026-04-25T13:53:31.997Z</time></trkpt><trkpt lat="44.4746733" lon="8.6681783"><ele>952.0</ele><time>2026-04-25T13:53:33.001Z</time></trkpt><trkpt lat="44.4745533" lon="8.6681217"><ele>952.0</ele><time>2026-04-25T13:53:33.995Z</time></trkpt><trkpt lat="44.4744317" lon="8.6680683"><ele>952.0</ele><time>2026-04-25T13:53:34.996Z</time></trkpt><trkpt lat="44.4743117" lon="8.6680383"><ele>950.5</ele><time>2026-04-25T13:53:35.994Z</time></trkpt><trkpt lat="44.474195" lon="8.6680517"><ele>949.0</ele><time>2026-04-25T13:53:36.999Z</time></trkpt><trkpt lat="44.4740917" lon="8.6681083"><ele>947.5</ele><time>2026-04-25T13:53:37.994Z</time></trkpt><trkpt lat="44.4739983" lon="8.6682033"><ele>946.0</ele><time>2026-04-25T13:53:38.996Z</time></trkpt><trkpt lat="44.4739267" lon="8.66833"><ele>946.0</ele><time>2026-04-25T13:53:39.994Z</time></trkpt><trkpt lat="44.4738683" lon="8.6684617"><ele>945.9999999999999</ele><time>2026-04-25T13:53:40.995Z</time></trkpt><trkpt lat="44.4738133" lon="8.66859"><ele>945.9999999999999</ele><time>2026-04-25T13:53:41.996Z</time></trkpt><trkpt lat="44.4737583" lon="8.6687"><ele>946.0</ele><time>2026-04-25T13:53:42.994Z</time></trkpt><trkpt lat="44.4737067" lon="8.6688033"><ele>946.0</ele><time>2026-04-25T13:53:43.996Z</time></trkpt><trkpt lat="44.4736583" lon="8.6688917"><ele>943.9999999999999</ele><time>2026-04-25T13:53:44.999Z</time></trkpt><trkpt lat="44.4736167" lon="8.6689683"><ele>942.0</ele><time>2026-04-25T13:53:45.996Z</time></trkpt><trkpt lat="44.47359" lon="8.6690483"><ele>940.0</ele><time>2026-04-25T13:53:46.994Z</time></trkpt><trkpt lat="44.4735217" lon="8.6691883"><ele>938.0</ele><time>2026-04-25T13:53:48.996Z</time></trkpt><trkpt lat="44.4734467" lon="8.6692617"><ele>935.9999999999999</ele><time>2026-04-25T13:53:50.995Z</time></trkpt><trkpt lat="44.473355" lon="8.6692667"><ele>934.0</ele><time>2026-04-25T13:55:46.994Z</time></trkpt><trkpt lat="44.4732617" lon="8.6692833"><ele>933.9999999999999</ele><time>2026-04-25T13:55:48.994Z</time></trkpt><trkpt lat="44.4731383" lon="8.66932"><ele>934.0</ele><time>2026-04-25T13:55:51Z</time></trkpt><trkpt lat="44.4730667" lon="8.669355"><ele>934.0</ele><time>2026-04-25T13:55:51.994Z</time></trkpt><trkpt lat="44.4729933" lon="8.669385"><ele>934.0</ele><time>2026-04-25T13:55:52.997Z</time></trkpt><trkpt lat="44.472915" lon="8.6694017"><ele>933.9999999999999</ele><time>2026-04-25T13:55:53.996Z</time></trkpt><trkpt lat="44.4728283" lon="8.6694167"><ele>934.0</ele><time>2026-04-25T13:55:54.994Z</time></trkpt><trkpt lat="44.4727383" lon="8.6694217"><ele>934.25</ele><time>2026-04-25T13:55:55.995Z</time></trkpt><trkpt lat="44.4726367" lon="8.6694167"><ele>934.5</ele><time>2026-04-25T13:55:56.997Z</time></trkpt><trkpt lat="44.472525" lon="8.6694117"><ele>934.75</ele><time>2026-04-25T13:55:57.996Z</time></trkpt><trkpt lat="44.4724033" lon="8.6694033"><ele>935.0</ele><time>2026-04-25T13:55:59Z</time></trkpt><trkpt lat="44.472285" lon="8.6693983"><ele>935.0</ele><time>2026-04-25T13:55:59.992Z</time></trkpt><trkpt lat="44.4721583" lon="8.6693867"><ele>935.0</ele><time>2026-04-25T13:56:00.999Z</time></trkpt><trkpt lat="44.4720267" lon="8.66937"><ele>935.0</ele><time>2026-04-25T13:56:01.994Z</time></trkpt><trkpt lat="44.4718933" lon="8.6693517"><ele>935.0</ele><time>2026-04-25T13:56:02.996Z</time></trkpt><trkpt lat="44.4717533" lon="8.66934"><ele>934.75</ele><time>2026-04-25T13:56:03.995Z</time></trkpt><trkpt lat="44.4716133" lon="8.66933"><ele>934.5</ele><time>2026-04-25T13:56:05Z</time></trkpt><trkpt lat="44.4714683" lon="8.6693233"><ele>934.25</ele><time>2026-04-25T13:56:05.996Z</time></trkpt><trkpt lat="44.4713183" lon="8.66932"><ele>934.0</ele><time>2026-04-25T13:56:06.993Z</time></trkpt><trkpt lat="44.4711467" lon="8.669315"><ele>934.0</ele><time>2026-04-25T13:56:07.995Z</time></trkpt><trkpt lat="44.4709783" lon="8.6693033"><ele>934.0</ele><time>2026-04-25T13:56:08.997Z</time></trkpt><trkpt lat="44.4708117" lon="8.6692933"><ele>934.0</ele><time>2026-04-25T13:56:09.996Z</time></trkpt><trkpt lat="44.4706433" lon="8.669285"><ele>934.0</ele><time>2026-04-25T13:56:10.996Z</time></trkpt><trkpt lat="44.4704767" lon="8.6692767"><ele>934.0</ele><time>2026-04-25T13:56:11.996Z</time></trkpt><trkpt lat="44.47031" lon="8.66927"><ele>934.0</ele><time>2026-04-25T13:56:12.995Z</time></trkpt><trkpt lat="44.4701533" lon="8.669275"><ele>935.25</ele><time>2026-04-25T13:56:13.995Z</time></trkpt><trkpt lat="44.47001" lon="8.66931"><ele>936.5</ele><time>2026-04-25T13:56:14.995Z</time></trkpt><trkpt lat="44.4698733" lon="8.6693817"><ele>937.75</ele><time>2026-04-25T13:56:15.997Z</time></trkpt><trkpt lat="44.4697367" lon="8.6694617"><ele>939.0</ele><time>2026-04-25T13:56:16.994Z</time></trkpt><trkpt lat="44.46961" lon="8.6695683"><ele>942.0</ele><time>2026-04-25T13:56:17.998Z</time></trkpt><trkpt lat="44.4694933" lon="8.66968"><ele>945.0</ele><time>2026-04-25T13:56:19Z</time></trkpt><trkpt lat="44.4693783" lon="8.6698"><ele>948.0</ele><time>2026-04-25T13:56:19.995Z</time></trkpt><trkpt lat="44.469245" lon="8.6699133"><ele>951.0</ele><time>2026-04-25T13:56:20.998Z</time></trkpt><trkpt lat="44.46911" lon="8.6700133"><ele>951.0</ele><time>2026-04-25T13:56:21.998Z</time></trkpt><trkpt lat="44.4689617" lon="8.6700917"><ele>951.0</ele><time>2026-04-25T13:56:22.993Z</time></trkpt><trkpt lat="44.4687983" lon="8.6701633"><ele>951.0</ele><time>2026-04-25T13:56:23.999Z</time></trkpt><trkpt lat="44.468605" lon="8.6702367"><ele>948.0</ele><time>2026-04-25T13:56:25.002Z</time></trkpt><trkpt lat="44.4684" lon="8.67033"><ele>945.0</ele><time>2026-04-25T13:56:25.998Z</time></trkpt><trkpt lat="44.4681917" lon="8.67043"><ele>942.0</ele><time>2026-04-25T13:56:26.994Z</time></trkpt><trkpt lat="44.467995" lon="8.67053"><ele>948.6666666666667</ele><time>2026-04-25T13:56:27.996Z</time></trkpt><trkpt lat="44.4678133" lon="8.6706183"><ele>955.3333333333334</ele><time>2026-04-25T13:56:28.995Z</time></trkpt><trkpt lat="44.46765" lon="8.6707"><ele>962.0</ele><time>2026-04-25T13:56:29.995Z</time></trkpt><trkpt lat="44.4675017" lon="8.6707733"><ele>962.0</ele><time>2026-04-25T13:56:31.001Z</time></trkpt><trkpt lat="44.4673567" lon="8.670845"><ele>962.0</ele><time>2026-04-25T13:56:31.994Z</time></trkpt><trkpt lat="44.4672217" lon="8.6709117"><ele>962.0</ele><time>2026-04-25T13:56:32.994Z</time></trkpt><trkpt lat="44.4670933" lon="8.6709383"><ele>962.0</ele><time>2026-04-25T13:56:33.996Z</time></trkpt><trkpt lat="44.46698" lon="8.6709467"><ele>962.2</ele><time>2026-04-25T13:56:34.995Z</time></trkpt><trkpt lat="44.4668717" lon="8.6709233"><ele>962.4000000000001</ele><time>2026-04-25T13:56:35.998Z</time></trkpt><trkpt lat="44.4667783" lon="8.670875"><ele>962.5999999999999</ele><time>2026-04-25T13:56:36.993Z</time></trkpt><trkpt lat="44.466705" lon="8.67079"><ele>962.8</ele><time>2026-04-25T13:56:37.995Z</time></trkpt><trkpt lat="44.4666583" lon="8.670685"><ele>963.0</ele><time>2026-04-25T13:56:38.996Z</time></trkpt><trkpt lat="44.4666533" lon="8.6705633"><ele>963.0</ele><time>2026-04-25T13:56:39.993Z</time></trkpt><trkpt lat="44.4666617" lon="8.67044"><ele>963.0</ele><time>2026-04-25T13:56:40.994Z</time></trkpt><trkpt lat="44.4666867" lon="8.6703067"><ele>963.0</ele><time>2026-04-25T13:56:41.996Z</time></trkpt><trkpt lat="44.4667367" lon="8.6701567"><ele>963.0</ele><time>2026-04-25T13:56:42.993Z</time></trkpt><trkpt lat="44.466835" lon="8.6699633"><ele>967.3333333333333</ele><time>2026-04-25T13:56:43.995Z</time></trkpt><trkpt lat="44.46693" lon="8.6697667"><ele>971.6666666666666</ele><time>2026-04-25T13:56:44.993Z</time></trkpt><trkpt lat="44.4670183" lon="8.6695717"><ele>976.0</ele><time>2026-04-25T13:56:45.992Z</time></trkpt><trkpt lat="44.4671033" lon="8.6693983"><ele>977.75</ele><time>2026-04-25T13:56:46.993Z</time></trkpt><trkpt lat="44.4671817" lon="8.6692383"><ele>979.5</ele><time>2026-04-25T13:56:47.995Z</time></trkpt><trkpt lat="44.4672483" lon="8.6690867"><ele>981.25</ele><time>2026-04-25T13:56:48.994Z</time></trkpt><trkpt lat="44.4673133" lon="8.6689383"><ele>983.0</ele><time>2026-04-25T13:56:49.995Z</time></trkpt><trkpt lat="44.4673767" lon="8.6687867"><ele>983.0</ele><time>2026-04-25T13:56:50.994Z</time></trkpt><trkpt lat="44.4674367" lon="8.6686367"><ele>983.0</ele><time>2026-04-25T13:56:51.997Z</time></trkpt><trkpt lat="44.467485" lon="8.66847"><ele>983.0</ele><time>2026-04-25T13:56:52.995Z</time></trkpt><trkpt lat="44.46753" lon="8.6682967"><ele>983.0</ele><time>2026-04-25T13:56:53.998Z</time></trkpt><trkpt lat="44.46757" lon="8.668115"><ele>985.0</ele><time>2026-04-25T13:56:54.996Z</time></trkpt><trkpt lat="44.4676183" lon="8.667935"><ele>987.0</ele><time>2026-04-25T13:56:55.994Z</time></trkpt><trkpt lat="44.4676683" lon="8.66776"><ele>989.0</ele><time>2026-04-25T13:56:56.996Z</time></trkpt><trkpt lat="44.4677217" lon="8.6675867"><ele>991.0</ele><time>2026-04-25T13:56:57.996Z</time></trkpt><trkpt lat="44.467785" lon="8.6674183"><ele>990.5</ele><time>2026-04-25T13:56:59Z</time></trkpt><trkpt lat="44.4678617" lon="8.6672517"><ele>990.0</ele><time>2026-04-25T13:56:59.996Z</time></trkpt><trkpt lat="44.4679483" lon="8.6670833"><ele>989.5</ele><time>2026-04-25T13:57:00.994Z</time></trkpt><trkpt lat="44.468035" lon="8.666915"><ele>989.0</ele><time>2026-04-25T13:57:01.995Z</time></trkpt><trkpt lat="44.46813" lon="8.6667383"><ele>993.6666666666667</ele><time>2026-04-25T13:57:02.994Z</time></trkpt><trkpt lat="44.46822" lon="8.6665517"><ele>998.3333333333333</ele><time>2026-04-25T13:57:03.996Z</time></trkpt><trkpt lat="44.46831" lon="8.666375"><ele>1003.0</ele><time>2026-04-25T13:57:04.993Z</time></trkpt><trkpt lat="44.4684233" lon="8.666205"><ele>1003.0</ele><time>2026-04-25T13:57:05.993Z</time></trkpt><trkpt lat="44.46855" lon="8.666055"><ele>1003.0</ele><time>2026-04-25T13:57:06.994Z</time></trkpt><trkpt lat="44.4686717" lon="8.6659183"><ele>1003.0</ele><time>2026-04-25T13:57:08Z</time></trkpt><trkpt lat="44.4687967" lon="8.6658183"><ele>1003.0</ele><time>2026-04-25T13:57:08.993Z</time></trkpt><trkpt lat="44.4689167" lon="8.6657317"><ele>1003.0</ele><time>2026-04-25T13:57:09.996Z</time></trkpt><trkpt lat="44.4690217" lon="8.6656517"><ele>1003.0</ele><time>2026-04-25T13:57:10.995Z</time></trkpt><trkpt lat="44.4691117" lon="8.6655617"><ele>1003.0</ele><time>2026-04-25T13:57:11.995Z</time></trkpt><trkpt lat="44.46918" lon="8.6654667"><ele>1002.9999999999999</ele><time>2026-04-25T13:57:12.997Z</time></trkpt><trkpt lat="44.4692217" lon="8.6653783"><ele>1003.0</ele><time>2026-04-25T13:57:13.996Z</time></trkpt><trkpt lat="44.46923" lon="8.6652267"><ele>1003.0</ele><time>2026-04-25T13:57:15.996Z</time></trkpt><trkpt lat="44.4691717" lon="8.665095"><ele>1003.0</ele><time>2026-04-25T13:57:17.999Z</time></trkpt><trkpt lat="44.4690917" lon="8.6650733"><ele>1002.9999999999999</ele><time>2026-04-25T13:57:18.996Z</time></trkpt><trkpt lat="44.4690233" lon="8.6650867"><ele>1003.0</ele><time>2026-04-25T13:57:19.994Z</time></trkpt><trkpt lat="44.4689467" lon="8.665115"><ele>1004.0</ele><time>2026-04-25T13:57:20.999Z</time></trkpt><trkpt lat="44.468845" lon="8.6651567"><ele>1005.0</ele><time>2026-04-25T13:57:21.995Z</time></trkpt><trkpt lat="44.468735" lon="8.6652217"><ele>1006.0</ele><time>2026-04-25T13:57:22.998Z</time></trkpt><trkpt lat="44.4685917" lon="8.6653683"><ele>1007.0</ele><time>2026-04-25T13:57:23.994Z</time></trkpt><trkpt lat="44.4684617" lon="8.6654717"><ele>1010.3333333333334</ele><time>2026-04-25T13:57:24.993Z</time></trkpt><trkpt lat="44.4683233" lon="8.665585"><ele>1013.6666666666667</ele><time>2026-04-25T13:57:25.995Z</time></trkpt><trkpt lat="44.46819" lon="8.6657067"><ele>1017.0</ele><time>2026-04-25T13:57:26.997Z</time></trkpt><trkpt lat="44.4680633" lon="8.665825"><ele>1019.3333333333333</ele><time>2026-04-25T13:57:27.996Z</time></trkpt><trkpt lat="44.4679283" lon="8.665925"><ele>1021.6666666666666</ele><time>2026-04-25T13:57:28.996Z</time></trkpt><trkpt lat="44.4677833" lon="8.666025"><ele>1024.0</ele><time>2026-04-25T13:57:29.996Z</time></trkpt><trkpt lat="44.4676267" lon="8.6661133"><ele>1024.0</ele><time>2026-04-25T13:57:30.998Z</time></trkpt><trkpt lat="44.4674617" lon="8.666195"><ele>1024.0</ele><time>2026-04-25T13:57:31.995Z</time></trkpt><trkpt lat="44.467295" lon="8.666265"><ele>1024.0</ele><time>2026-04-25T13:57:32.998Z</time></trkpt><trkpt lat="44.4671367" lon="8.6663117"><ele>1030.0</ele><time>2026-04-25T13:57:33.994Z</time></trkpt><trkpt lat="44.46698" lon="8.6663733"><ele>1036.0</ele><time>2026-04-25T13:57:34.995Z</time></trkpt><trkpt lat="44.46683" lon="8.666435"><ele>1042.0</ele><time>2026-04-25T13:57:35.999Z</time></trkpt><trkpt lat="44.466685" lon="8.6665033"><ele>1042.0</ele><time>2026-04-25T13:57:36.997Z</time></trkpt><trkpt lat="44.466545" lon="8.66658"><ele>1042.0</ele><time>2026-04-25T13:57:38.002Z</time></trkpt><trkpt lat="44.46641" lon="8.6666817"><ele>1042.0</ele><time>2026-04-25T13:57:38.997Z</time></trkpt><trkpt lat="44.4662783" lon="8.66679"><ele>1040.75</ele><time>2026-04-25T13:57:39.997Z</time></trkpt><trkpt lat="44.466155" lon="8.666885"><ele>1039.5</ele><time>2026-04-25T13:57:40.993Z</time></trkpt><trkpt lat="44.4660317" lon="8.666955"><ele>1038.25</ele><time>2026-04-25T13:57:41.995Z</time></trkpt><trkpt lat="44.4659167" lon="8.6670067"><ele>1037.0</ele><time>2026-04-25T13:57:42.996Z</time></trkpt><trkpt lat="44.4658083" lon="8.6670267"><ele>1037.0</ele><time>2026-04-25T13:57:43.995Z</time></trkpt><trkpt lat="44.465695" lon="8.6670233"><ele>1037.0</ele><time>2026-04-25T13:57:44.998Z</time></trkpt><trkpt lat="44.4655733" lon="8.6669983"><ele>1037.0</ele><time>2026-04-25T13:57:45.998Z</time></trkpt><trkpt lat="44.465435" lon="8.66696"><ele>1037.0</ele><time>2026-04-25T13:57:46.993Z</time></trkpt><trkpt lat="44.4653017" lon="8.6669167"><ele>1043.75</ele><time>2026-04-25T13:57:47.993Z</time></trkpt><trkpt lat="44.4651783" lon="8.6668883"><ele>1050.5</ele><time>2026-04-25T13:57:48.997Z</time></trkpt><trkpt lat="44.4650517" lon="8.6668783"><ele>1057.25</ele><time>2026-04-25T13:57:49.991Z</time></trkpt><trkpt lat="44.4649283" lon="8.66689"><ele>1064.0</ele><time>2026-04-25T13:57:50.996Z</time></trkpt><trkpt lat="44.4648" lon="8.6669183"><ele>1059.75</ele><time>2026-04-25T13:57:51.996Z</time></trkpt><trkpt lat="44.46466" lon="8.6669483"><ele>1055.5</ele><time>2026-04-25T13:57:52.995Z</time></trkpt><trkpt lat="44.464515" lon="8.6669783"><ele>1051.25</ele><time>2026-04-25T13:57:53.995Z</time></trkpt><trkpt lat="44.464365" lon="8.6670133"><ele>1047.0</ele><time>2026-04-25T13:57:54.993Z</time></trkpt><trkpt lat="44.4642133" lon="8.6670617"><ele>1047.0</ele><time>2026-04-25T13:57:55.99Z</time></trkpt><trkpt lat="44.46406" lon="8.6671"><ele>1047.0</ele><time>2026-04-25T13:57:56.995Z</time></trkpt><trkpt lat="44.4639083" lon="8.667145"><ele>1047.0</ele><time>2026-04-25T13:57:57.992Z</time></trkpt><trkpt lat="44.46376" lon="8.6671933"><ele>1050.0</ele><time>2026-04-25T13:57:58.993Z</time></trkpt><trkpt lat="44.4636133" lon="8.6672517"><ele>1053.0</ele><time>2026-04-25T13:57:59.996Z</time></trkpt><trkpt lat="44.4634633" lon="8.6673083"><ele>1056.0</ele><time>2026-04-25T13:58:00.993Z</time></trkpt><trkpt lat="44.46331" lon="8.6673517"><ele>1056.0</ele><time>2026-04-25T13:58:01.999Z</time></trkpt><trkpt lat="44.4631583" lon="8.667395"><ele>1056.0</ele><time>2026-04-25T13:58:02.993Z</time></trkpt><trkpt lat="44.463005" lon="8.6674467"><ele>1056.0</ele><time>2026-04-25T13:58:03.998Z</time></trkpt><trkpt lat="44.4628533" lon="8.6674983"><ele>1056.6666666666667</ele><time>2026-04-25T13:58:04.992Z</time></trkpt><trkpt lat="44.4627033" lon="8.6675383"><ele>1057.3333333333335</ele><time>2026-04-25T13:58:05.996Z</time></trkpt><trkpt lat="44.46255" lon="8.66758"><ele>1058.0</ele><time>2026-04-25T13:58:06.996Z</time></trkpt><trkpt lat="44.4623933" lon="8.667625"><ele>1058.0</ele><time>2026-04-25T13:58:07.995Z</time></trkpt><trkpt lat="44.4622483" lon="8.6676683"><ele>1058.0</ele><time>2026-04-25T13:58:08.996Z</time></trkpt><trkpt lat="44.4621183" lon="8.667685"><ele>1058.0</ele><time>2026-04-25T13:58:09.996Z</time></trkpt><trkpt lat="44.4620017" lon="8.6677067"><ele>1058.0</ele><time>2026-04-25T13:58:10.994Z</time></trkpt><trkpt lat="44.4618967" lon="8.6677067"><ele>1056.6</ele><time>2026-04-25T13:58:11.995Z</time></trkpt><trkpt lat="44.4617983" lon="8.6676717"><ele>1055.1999999999998</ele><time>2026-04-25T13:58:13.002Z</time></trkpt><trkpt lat="44.4617117" lon="8.667615"><ele>1053.8</ele><time>2026-04-25T13:58:13.995Z</time></trkpt><trkpt lat="44.4616433" lon="8.6675467"><ele>1052.3999999999999</ele><time>2026-04-25T13:58:14.996Z</time></trkpt><trkpt lat="44.461585" lon="8.6674683"><ele>1051.0</ele><time>2026-04-25T13:58:15.993Z</time></trkpt><trkpt lat="44.4615667" lon="8.667315"><ele>1051.0</ele><time>2026-04-25T13:58:16.993Z</time></trkpt><trkpt lat="44.46156" lon="8.6671633"><ele>1051.0</ele><time>2026-04-25T13:58:17.994Z</time></trkpt><trkpt lat="44.4615617" lon="8.6669983"><ele>1051.0</ele><time>2026-04-25T13:58:18.991Z</time></trkpt><trkpt lat="44.4615683" lon="8.6668183"><ele>1051.0</ele><time>2026-04-25T13:58:19.995Z</time></trkpt><trkpt lat="44.461575" lon="8.66664"><ele>1051.0</ele><time>2026-04-25T13:58:20.996Z</time></trkpt><trkpt lat="44.461585" lon="8.6664533"><ele>1051.0</ele><time>2026-04-25T13:58:22Z</time></trkpt><trkpt lat="44.461595" lon="8.6662633"><ele>1051.0</ele><time>2026-04-25T13:58:22.994Z</time></trkpt><trkpt lat="44.4616" lon="8.666065"><ele>1051.0</ele><time>2026-04-25T13:58:23.995Z</time></trkpt><trkpt lat="44.4616067" lon="8.66587"><ele>1050.25</ele><time>2026-04-25T13:58:25Z</time></trkpt><trkpt lat="44.4616033" lon="8.6656683"><ele>1049.5</ele><time>2026-04-25T13:58:25.996Z</time></trkpt><trkpt lat="44.4616133" lon="8.66547"><ele>1048.75</ele><time>2026-04-25T13:58:26.994Z</time></trkpt><trkpt lat="44.4616217" lon="8.6652683"><ele>1048.0</ele><time>2026-04-25T13:58:27.994Z</time></trkpt><trkpt lat="44.4616283" lon="8.6650733"><ele>1047.5</ele><time>2026-04-25T13:58:28.997Z</time></trkpt><trkpt lat="44.4616417" lon="8.6648817"><ele>1047.0</ele><time>2026-04-25T13:58:29.993Z</time></trkpt><trkpt lat="44.461665" lon="8.6647"><ele>1046.5</ele><time>2026-04-25T13:58:30.995Z</time></trkpt><trkpt lat="44.4617017" lon="8.664525"><ele>1046.0</ele><time>2026-04-25T13:58:31.997Z</time></trkpt><trkpt lat="44.461745" lon="8.6643517"><ele>1044.0</ele><time>2026-04-25T13:58:32.994Z</time></trkpt><trkpt lat="44.4618017" lon="8.66418"><ele>1042.0</ele><time>2026-04-25T13:58:33.994Z</time></trkpt><trkpt lat="44.4618567" lon="8.6640033"><ele>1040.0</ele><time>2026-04-25T13:58:34.993Z</time></trkpt><trkpt lat="44.4619117" lon="8.6638217"><ele>1038.0</ele><time>2026-04-25T13:58:35.996Z</time></trkpt><trkpt lat="44.46196" lon="8.663645"><ele>1035.75</ele><time>2026-04-25T13:58:36.992Z</time></trkpt><trkpt lat="44.4620117" lon="8.6634683"><ele>1033.5</ele><time>2026-04-25T13:58:37.995Z</time></trkpt><trkpt lat="44.4620683" lon="8.6632917"><ele>1031.25</ele><time>2026-04-25T13:58:38.993Z</time></trkpt><trkpt lat="44.4621217" lon="8.6631167"><ele>1029.0</ele><time>2026-04-25T13:58:39.992Z</time></trkpt><trkpt lat="44.46217" lon="8.6629383"><ele>1033.75</ele><time>2026-04-25T13:58:40.992Z</time></trkpt><trkpt lat="44.4622117" lon="8.662755"><ele>1038.5</ele><time>2026-04-25T13:58:41.992Z</time></trkpt><trkpt lat="44.4622317" lon="8.662565"><ele>1043.25</ele><time>2026-04-25T13:58:42.992Z</time></trkpt><trkpt lat="44.4622317" lon="8.662365"><ele>1048.0</ele><time>2026-04-25T13:58:43.995Z</time></trkpt><trkpt lat="44.4622117" lon="8.662175"><ele>1048.0</ele><time>2026-04-25T13:58:44.994Z</time></trkpt><trkpt lat="44.4621817" lon="8.6619833"><ele>1048.0</ele><time>2026-04-25T13:58:45.992Z</time></trkpt><trkpt lat="44.4621517" lon="8.6618"><ele>1048.0</ele><time>2026-04-25T13:58:46.995Z</time></trkpt><trkpt lat="44.46208" lon="8.6616283"><ele>1048.0</ele><time>2026-04-25T13:58:47.993Z</time></trkpt><trkpt lat="44.46206" lon="8.6614817"><ele>1048.0</ele><time>2026-04-25T13:58:48.997Z</time></trkpt><trkpt lat="44.462065" lon="8.66134"><ele>1048.0</ele><time>2026-04-25T13:58:50Z</time></trkpt><trkpt lat="44.4620967" lon="8.6612267"><ele>1048.0</ele><time>2026-04-25T13:58:50.993Z</time></trkpt><trkpt lat="44.46213" lon="8.6611283"><ele>1048.0</ele><time>2026-04-25T13:58:51.996Z</time></trkpt><trkpt lat="44.4621817" lon="8.6610333"><ele>1048.0</ele><time>2026-04-25T13:58:52.993Z</time></trkpt><trkpt lat="44.46225" lon="8.6609483"><ele>1048.0</ele><time>2026-04-25T13:58:53.992Z</time></trkpt><trkpt lat="44.4623433" lon="8.66087"><ele>1046.6</ele><time>2026-04-25T13:58:54.992Z</time></trkpt><trkpt lat="44.4624383" lon="8.66078"><ele>1045.1999999999998</ele><time>2026-04-25T13:58:55.993Z</time></trkpt><trkpt lat="44.46251" lon="8.66067"><ele>1043.8</ele><time>2026-04-25T13:58:56.993Z</time></trkpt><trkpt lat="44.462565" lon="8.6605567"><ele>1042.3999999999999</ele><time>2026-04-25T13:58:57.991Z</time></trkpt><trkpt lat="44.46259" lon="8.6604317"><ele>1041.0</ele><time>2026-04-25T13:58:59Z</time></trkpt><trkpt lat="44.4625967" lon="8.6603"><ele>1040.2</ele><time>2026-04-25T13:58:59.994Z</time></trkpt><trkpt lat="44.462575" lon="8.6601567"><ele>1039.3999999999999</ele><time>2026-04-25T13:59:00.994Z</time></trkpt><trkpt lat="44.4625517" lon="8.6600117"><ele>1038.6</ele><time>2026-04-25T13:59:01.993Z</time></trkpt><trkpt lat="44.46254" lon="8.6598633"><ele>1037.8</ele><time>2026-04-25T13:59:02.994Z</time></trkpt><trkpt lat="44.4625283" lon="8.6597"><ele>1037.0</ele><time>2026-04-25T13:59:03.993Z</time></trkpt><trkpt lat="44.4625" lon="8.659515"><ele>1037.25</ele><time>2026-04-25T13:59:04.993Z</time></trkpt><trkpt lat="44.46248" lon="8.6593233"><ele>1037.5</ele><time>2026-04-25T13:59:05.996Z</time></trkpt><trkpt lat="44.4624433" lon="8.6591317"><ele>1037.75</ele><time>2026-04-25T13:59:06.998Z</time></trkpt><trkpt lat="44.4624233" lon="8.6589183"><ele>1038.0</ele><time>2026-04-25T13:59:07.996Z</time></trkpt><trkpt lat="44.462435" lon="8.6587217"><ele>1036.0</ele><time>2026-04-25T13:59:09.002Z</time></trkpt><trkpt lat="44.4624333" lon="8.6585433"><ele>1034.0</ele><time>2026-04-25T13:59:09.997Z</time></trkpt><trkpt lat="44.46245" lon="8.6583783"><ele>1032.0</ele><time>2026-04-25T13:59:10.995Z</time></trkpt><trkpt lat="44.4625367" lon="8.6582567"><ele>1030.0</ele><time>2026-04-25T13:59:11.994Z</time></trkpt><trkpt lat="44.4626" lon="8.658125"><ele>1030.0</ele><time>2026-04-25T13:59:12.995Z</time></trkpt><trkpt lat="44.462665" lon="8.6580117"><ele>1030.0</ele><time>2026-04-25T13:59:13.994Z</time></trkpt><trkpt lat="44.46276" lon="8.6579233"><ele>1030.0</ele><time>2026-04-25T13:59:14.995Z</time></trkpt><trkpt lat="44.4628667" lon="8.65785"><ele>1030.0</ele><time>2026-04-25T13:59:15.994Z</time></trkpt><trkpt lat="44.46298" lon="8.6578083"><ele>1030.5</ele><time>2026-04-25T13:59:17Z</time></trkpt><trkpt lat="44.463085" lon="8.6577683"><ele>1031.0</ele><time>2026-04-25T13:59:17.994Z</time></trkpt><trkpt lat="44.4631917" lon="8.6577283"><ele>1031.5</ele><time>2026-04-25T13:59:18.999Z</time></trkpt><trkpt lat="44.4632983" lon="8.65766"><ele>1032.0</ele><time>2026-04-25T13:59:19.996Z</time></trkpt><trkpt lat="44.4634067" lon="8.6575917"><ele>1032.0</ele><time>2026-04-25T13:59:20.995Z</time></trkpt><trkpt lat="44.4634967" lon="8.6574733"><ele>1032.0</ele><time>2026-04-25T13:59:21.993Z</time></trkpt><trkpt lat="44.4635717" lon="8.6573433"><ele>1032.0</ele><time>2026-04-25T13:59:22.996Z</time></trkpt><trkpt lat="44.4636767" lon="8.657195"><ele>1032.0</ele><time>2026-04-25T13:59:23.994Z</time></trkpt><trkpt lat="44.4637583" lon="8.65701"><ele>1031.75</ele><time>2026-04-25T13:59:25.001Z</time></trkpt><trkpt lat="44.4638433" lon="8.656845"><ele>1031.5</ele><time>2026-04-25T13:59:25.994Z</time></trkpt><trkpt lat="44.4639217" lon="8.656685"><ele>1031.25</ele><time>2026-04-25T13:59:26.997Z</time></trkpt><trkpt lat="44.4639833" lon="8.6565167"><ele>1031.0</ele><time>2026-04-25T13:59:27.995Z</time></trkpt><trkpt lat="44.4640083" lon="8.6563067"><ele>1030.0</ele><time>2026-04-25T13:59:28.993Z</time></trkpt><trkpt lat="44.46403" lon="8.6561067"><ele>1029.0</ele><time>2026-04-25T13:59:29.996Z</time></trkpt><trkpt lat="44.4640567" lon="8.65591"><ele>1028.0</ele><time>2026-04-25T13:59:30.995Z</time></trkpt><trkpt lat="44.4640667" lon="8.6556983"><ele>1027.0</ele><time>2026-04-25T13:59:31.999Z</time></trkpt><trkpt lat="44.4640717" lon="8.655485"><ele>1028.0</ele><time>2026-04-25T13:59:32.994Z</time></trkpt><trkpt lat="44.464065" lon="8.6552867"><ele>1029.0</ele><time>2026-04-25T13:59:33.996Z</time></trkpt><trkpt lat="44.4640567" lon="8.6551133"><ele>1030.0</ele><time>2026-04-25T13:59:34.999Z</time></trkpt><trkpt lat="44.4640367" lon="8.6549483"><ele>1031.0</ele><time>2026-04-25T13:59:35.995Z</time></trkpt><trkpt lat="44.4640017" lon="8.654825"><ele>1031.0</ele><time>2026-04-25T13:59:36.999Z</time></trkpt><trkpt lat="44.4639233" lon="8.654725"><ele>1031.0</ele><time>2026-04-25T13:59:37.996Z</time></trkpt><trkpt lat="44.463825" lon="8.6546333"><ele>1031.0</ele><time>2026-04-25T13:59:38.999Z</time></trkpt><trkpt lat="44.463705" lon="8.6545933"><ele>1031.0</ele><time>2026-04-25T13:59:39.996Z</time></trkpt><trkpt lat="44.463575" lon="8.6545567"><ele>1028.25</ele><time>2026-04-25T13:59:40.999Z</time></trkpt><trkpt lat="44.46344" lon="8.654525"><ele>1025.5</ele><time>2026-04-25T13:59:41.995Z</time></trkpt><trkpt lat="44.4633017" lon="8.6544933"><ele>1022.75</ele><time>2026-04-25T13:59:42.995Z</time></trkpt><trkpt lat="44.4631667" lon="8.65446"><ele>1020.0</ele><time>2026-04-25T13:59:43.995Z</time></trkpt><trkpt lat="44.4630317" lon="8.65442"><ele>1018.5</ele><time>2026-04-25T13:59:44.993Z</time></trkpt><trkpt lat="44.4629" lon="8.6543767"><ele>1017.0</ele><time>2026-04-25T13:59:45.998Z</time></trkpt><trkpt lat="44.46278" lon="8.6543267"><ele>1015.5</ele><time>2026-04-25T13:59:46.995Z</time></trkpt><trkpt lat="44.4626667" lon="8.6542567"><ele>1014.0</ele><time>2026-04-25T13:59:47.998Z</time></trkpt><trkpt lat="44.462555" lon="8.6541683"><ele>1014.0</ele><time>2026-04-25T13:59:48.993Z</time></trkpt><trkpt lat="44.46246" lon="8.65407"><ele>1014.0</ele><time>2026-04-25T13:59:49.994Z</time></trkpt><trkpt lat="44.4623783" lon="8.65396"><ele>1014.0</ele><time>2026-04-25T13:59:51.002Z</time></trkpt><trkpt lat="44.4623117" lon="8.653835"><ele>1014.0</ele><time>2026-04-25T13:59:52Z</time></trkpt><trkpt lat="44.4622383" lon="8.6537233"><ele>1016.5</ele><time>2026-04-25T13:59:52.996Z</time></trkpt><trkpt lat="44.4622017" lon="8.65358"><ele>1019.0</ele><time>2026-04-25T13:59:53.996Z</time></trkpt><trkpt lat="44.4621733" lon="8.6534267"><ele>1021.5</ele><time>2026-04-25T13:59:54.994Z</time></trkpt><trkpt lat="44.4621517" lon="8.6532617"><ele>1024.0</ele><time>2026-04-25T13:59:56.001Z</time></trkpt><trkpt lat="44.4621217" lon="8.65308"><ele>1018.5</ele><time>2026-04-25T13:59:56.998Z</time></trkpt><trkpt lat="44.4620817" lon="8.6529067"><ele>1013.0</ele><time>2026-04-25T13:59:57.992Z</time></trkpt><trkpt lat="44.4620383" lon="8.65271"><ele>1007.5</ele><time>2026-04-25T13:59:58.996Z</time></trkpt><trkpt lat="44.4619683" lon="8.6525267"><ele>1002.0</ele><time>2026-04-25T13:59:59.993Z</time></trkpt><trkpt lat="44.46189" lon="8.6523533"><ele>1002.0</ele><time>2026-04-25T14:00:00.995Z</time></trkpt><trkpt lat="44.46183" lon="8.65216"><ele>1002.0</ele><time>2026-04-25T14:00:01.997Z</time></trkpt><trkpt lat="44.461785" lon="8.6519567"><ele>1002.0</ele><time>2026-04-25T14:00:02.997Z</time></trkpt><trkpt lat="44.461745" lon="8.651755"><ele>1001.6666666666667</ele><time>2026-04-25T14:00:03.994Z</time></trkpt><trkpt lat="44.4617117" lon="8.651545"><ele>1001.3333333333334</ele><time>2026-04-25T14:00:04.998Z</time></trkpt><trkpt lat="44.4616783" lon="8.651315"><ele>1001.0</ele><time>2026-04-25T14:00:05.995Z</time></trkpt><trkpt lat="44.4616467" lon="8.6510817"><ele>1001.0</ele><time>2026-04-25T14:00:07.001Z</time></trkpt><trkpt lat="44.4615883" lon="8.6508633"><ele>1001.0</ele><time>2026-04-25T14:00:08.003Z</time></trkpt><trkpt lat="44.4615183" lon="8.6506483"><ele>1001.0</ele><time>2026-04-25T14:00:09Z</time></trkpt><trkpt lat="44.4614433" lon="8.6504317"><ele>1002.0</ele><time>2026-04-25T14:00:09.993Z</time></trkpt><trkpt lat="44.4613533" lon="8.6502283"><ele>1003.0</ele><time>2026-04-25T14:00:10.993Z</time></trkpt><trkpt lat="44.4612317" lon="8.65005"><ele>1004.0</ele><time>2026-04-25T14:00:11.996Z</time></trkpt><trkpt lat="44.46111" lon="8.64988"><ele>1003.6666666666667</ele><time>2026-04-25T14:00:12.994Z</time></trkpt><trkpt lat="44.4609867" lon="8.6497117"><ele>1003.3333333333333</ele><time>2026-04-25T14:00:13.995Z</time></trkpt><trkpt lat="44.4608667" lon="8.649545"><ele>1003.0</ele><time>2026-04-25T14:00:14.996Z</time></trkpt><trkpt lat="44.4607533" lon="8.6493833"><ele>1003.0</ele><time>2026-04-25T14:00:15.996Z</time></trkpt><trkpt lat="44.4606417" lon="8.6492083"><ele>1003.0</ele><time>2026-04-25T14:00:16.994Z</time></trkpt><trkpt lat="44.4605417" lon="8.6490317"><ele>1003.0</ele><time>2026-04-25T14:00:17.995Z</time></trkpt><trkpt lat="44.4604533" lon="8.6488433"><ele>996.6666666666666</ele><time>2026-04-25T14:00:18.996Z</time></trkpt><trkpt lat="44.4603733" lon="8.6486433"><ele>990.3333333333333</ele><time>2026-04-25T14:00:19.996Z</time></trkpt><trkpt lat="44.4603017" lon="8.6484383"><ele>984.0</ele><time>2026-04-25T14:00:20.995Z</time></trkpt><trkpt lat="44.4602417" lon="8.6482283"><ele>984.0</ele><time>2026-04-25T14:00:21.994Z</time></trkpt><trkpt lat="44.4601933" lon="8.6480117"><ele>984.0</ele><time>2026-04-25T14:00:22.995Z</time></trkpt><trkpt lat="44.4601633" lon="8.6477833"><ele>984.0</ele><time>2026-04-25T14:00:23.995Z</time></trkpt><trkpt lat="44.4601317" lon="8.64755"><ele>986.3333333333333</ele><time>2026-04-25T14:00:24.997Z</time></trkpt><trkpt lat="44.460085" lon="8.647315"><ele>988.6666666666666</ele><time>2026-04-25T14:00:25.997Z</time></trkpt><trkpt lat="44.460025" lon="8.64708"><ele>991.0</ele><time>2026-04-25T14:00:27Z</time></trkpt><trkpt lat="44.4599633" lon="8.6468517"><ele>992.6666666666666</ele><time>2026-04-25T14:00:27.993Z</time></trkpt><trkpt lat="44.4599083" lon="8.64663"><ele>994.3333333333333</ele><time>2026-04-25T14:00:28.997Z</time></trkpt><trkpt lat="44.4598517" lon="8.6464083"><ele>996.0</ele><time>2026-04-25T14:00:29.997Z</time></trkpt><trkpt lat="44.45979" lon="8.646195"><ele>997.5</ele><time>2026-04-25T14:00:30.993Z</time></trkpt><trkpt lat="44.4597217" lon="8.6459967"><ele>999.0</ele><time>2026-04-25T14:00:31.994Z</time></trkpt><trkpt lat="44.4596467" lon="8.6458183"><ele>1000.5</ele><time>2026-04-25T14:00:32.994Z</time></trkpt><trkpt lat="44.4595617" lon="8.6456617"><ele>1002.0</ele><time>2026-04-25T14:00:33.994Z</time></trkpt><trkpt lat="44.4594733" lon="8.645515"><ele>997.5</ele><time>2026-04-25T14:00:35.001Z</time></trkpt><trkpt lat="44.459385" lon="8.6453667"><ele>993.0</ele><time>2026-04-25T14:00:35.994Z</time></trkpt><trkpt lat="44.459295" lon="8.64522"><ele>988.5</ele><time>2026-04-25T14:00:36.996Z</time></trkpt><trkpt lat="44.45921" lon="8.64507"><ele>984.0</ele><time>2026-04-25T14:00:38.001Z</time></trkpt><trkpt lat="44.45913" lon="8.64492"><ele>984.0</ele><time>2026-04-25T14:00:38.998Z</time></trkpt><trkpt lat="44.4590567" lon="8.6447633"><ele>984.0</ele><time>2026-04-25T14:00:39.997Z</time></trkpt><trkpt lat="44.4589917" lon="8.6445983"><ele>984.0</ele><time>2026-04-25T14:00:40.992Z</time></trkpt><trkpt lat="44.458935" lon="8.6444317"><ele>984.0</ele><time>2026-04-25T14:00:42.004Z</time></trkpt><trkpt lat="44.4588767" lon="8.6442617"><ele>981.5</ele><time>2026-04-25T14:00:42.994Z</time></trkpt><trkpt lat="44.4588133" lon="8.6440883"><ele>979.0</ele><time>2026-04-25T14:00:43.996Z</time></trkpt><trkpt lat="44.4587467" lon="8.6439183"><ele>976.5</ele><time>2026-04-25T14:00:44.995Z</time></trkpt><trkpt lat="44.4586767" lon="8.6437517"><ele>974.0</ele><time>2026-04-25T14:00:45.999Z</time></trkpt><trkpt lat="44.4586117" lon="8.6436"><ele>974.0</ele><time>2026-04-25T14:00:46.995Z</time></trkpt><trkpt lat="44.4585633" lon="8.6434583"><ele>974.0</ele><time>2026-04-25T14:00:47.996Z</time></trkpt><trkpt lat="44.45854" lon="8.6433067"><ele>974.0</ele><time>2026-04-25T14:00:48.996Z</time></trkpt><trkpt lat="44.458525" lon="8.643145"><ele>974.0</ele><time>2026-04-25T14:00:49.996Z</time></trkpt><trkpt lat="44.4585117" lon="8.642975"><ele>974.0</ele><time>2026-04-25T14:00:50.996Z</time></trkpt><trkpt lat="44.4584933" lon="8.6428067"><ele>974.0</ele><time>2026-04-25T14:00:51.991Z</time></trkpt><trkpt lat="44.45847" lon="8.6426417"><ele>974.0</ele><time>2026-04-25T14:00:52.995Z</time></trkpt><trkpt lat="44.4584417" lon="8.6424783"><ele>974.0</ele><time>2026-04-25T14:00:53.996Z</time></trkpt><trkpt lat="44.4584033" lon="8.6423217"><ele>975.5</ele><time>2026-04-25T14:00:54.993Z</time></trkpt><trkpt lat="44.4583617" lon="8.642165"><ele>977.0</ele><time>2026-04-25T14:00:55.993Z</time></trkpt><trkpt lat="44.4583" lon="8.6420067"><ele>978.5</ele><time>2026-04-25T14:00:56.993Z</time></trkpt><trkpt lat="44.45823" lon="8.6418217"><ele>980.0</ele><time>2026-04-25T14:00:57.994Z</time></trkpt><trkpt lat="44.4581633" lon="8.641635"><ele>981.75</ele><time>2026-04-25T14:00:58.993Z</time></trkpt><trkpt lat="44.4581" lon="8.641455"><ele>983.5</ele><time>2026-04-25T14:00:59.993Z</time></trkpt><trkpt lat="44.4580367" lon="8.64127"><ele>985.25</ele><time>2026-04-25T14:01:00.995Z</time></trkpt><trkpt lat="44.457985" lon="8.641085"><ele>987.0</ele><time>2026-04-25T14:01:02Z</time></trkpt><trkpt lat="44.4579433" lon="8.6408967"><ele>983.25</ele><time>2026-04-25T14:01:02.996Z</time></trkpt><trkpt lat="44.4579017" lon="8.6407117"><ele>979.5</ele><time>2026-04-25T14:01:03.997Z</time></trkpt><trkpt lat="44.457845" lon="8.6405283"><ele>975.75</ele><time>2026-04-25T14:01:04.996Z</time></trkpt><trkpt lat="44.4577733" lon="8.6403633"><ele>972.0</ele><time>2026-04-25T14:01:05.999Z</time></trkpt><trkpt lat="44.4576767" lon="8.64022"><ele>972.0</ele><time>2026-04-25T14:01:06.993Z</time></trkpt><trkpt lat="44.4575833" lon="8.6400733"><ele>972.0</ele><time>2026-04-25T14:01:07.999Z</time></trkpt><trkpt lat="44.4575033" lon="8.63993"><ele>972.0</ele><time>2026-04-25T14:01:08.996Z</time></trkpt><trkpt lat="44.4574483" lon="8.6397867"><ele>972.0</ele><time>2026-04-25T14:01:09.995Z</time></trkpt><trkpt lat="44.4573917" lon="8.63964"><ele>972.0</ele><time>2026-04-25T14:01:10.996Z</time></trkpt><trkpt lat="44.4573583" lon="8.63947"><ele>972.0</ele><time>2026-04-25T14:01:11.995Z</time></trkpt><trkpt lat="44.45733" lon="8.6392867"><ele>972.0</ele><time>2026-04-25T14:01:12.997Z</time></trkpt><trkpt lat="44.4573033" lon="8.639115"><ele>972.0</ele><time>2026-04-25T14:01:13.994Z</time></trkpt><trkpt lat="44.457265" lon="8.6389633"><ele>973.5</ele><time>2026-04-25T14:01:14.997Z</time></trkpt><trkpt lat="44.4572067" lon="8.6388067"><ele>975.0</ele><time>2026-04-25T14:01:15.996Z</time></trkpt><trkpt lat="44.4571283" lon="8.6386583"><ele>976.5</ele><time>2026-04-25T14:01:16.993Z</time></trkpt><trkpt lat="44.4570433" lon="8.6385117"><ele>978.0</ele><time>2026-04-25T14:01:17.994Z</time></trkpt><trkpt lat="44.4569617" lon="8.6383517"><ele>975.5</ele><time>2026-04-25T14:01:18.997Z</time></trkpt><trkpt lat="44.4568733" lon="8.638185"><ele>973.0</ele><time>2026-04-25T14:01:19.998Z</time></trkpt><trkpt lat="44.4567833" lon="8.638025"><ele>970.5</ele><time>2026-04-25T14:01:21Z</time></trkpt><trkpt lat="44.4566933" lon="8.6378817"><ele>968.0</ele><time>2026-04-25T14:01:21.995Z</time></trkpt><trkpt lat="44.4566033" lon="8.6377383"><ele>968.0</ele><time>2026-04-25T14:01:22.993Z</time></trkpt><trkpt lat="44.4565233" lon="8.6375867"><ele>968.0</ele><time>2026-04-25T14:01:23.993Z</time></trkpt><trkpt lat="44.456465" lon="8.637405"><ele>968.0</ele><time>2026-04-25T14:01:24.996Z</time></trkpt><trkpt lat="44.45644" lon="8.63722"><ele>968.0</ele><time>2026-04-25T14:01:25.994Z</time></trkpt><trkpt lat="44.45643" lon="8.637035"><ele>967.5</ele><time>2026-04-25T14:01:26.999Z</time></trkpt><trkpt lat="44.4564017" lon="8.636855"><ele>967.0</ele><time>2026-04-25T14:01:27.993Z</time></trkpt><trkpt lat="44.456345" lon="8.6366933"><ele>966.5</ele><time>2026-04-25T14:01:28.996Z</time></trkpt><trkpt lat="44.456275" lon="8.6365433"><ele>966.0</ele><time>2026-04-25T14:01:29.995Z</time></trkpt><trkpt lat="44.4561983" lon="8.6364067"><ele>964.5</ele><time>2026-04-25T14:01:31.001Z</time></trkpt><trkpt lat="44.4561183" lon="8.63628"><ele>963.0</ele><time>2026-04-25T14:01:31.994Z</time></trkpt><trkpt lat="44.4560283" lon="8.6361633"><ele>961.5</ele><time>2026-04-25T14:01:32.998Z</time></trkpt><trkpt lat="44.45594" lon="8.63605"><ele>960.0</ele><time>2026-04-25T14:01:33.995Z</time></trkpt><trkpt lat="44.4558517" lon="8.635945"><ele>960.0</ele><time>2026-04-25T14:01:34.997Z</time></trkpt><trkpt lat="44.4557817" lon="8.63584"><ele>960.0</ele><time>2026-04-25T14:01:35.995Z</time></trkpt><trkpt lat="44.4557233" lon="8.6357333"><ele>960.0</ele><time>2026-04-25T14:01:37Z</time></trkpt><trkpt lat="44.4556833" lon="8.6356183"><ele>960.0</ele><time>2026-04-25T14:01:37.995Z</time></trkpt><trkpt lat="44.4556617" lon="8.6354933"><ele>960.0</ele><time>2026-04-25T14:01:38.994Z</time></trkpt><trkpt lat="44.4556583" lon="8.6353633"><ele>959.2</ele><time>2026-04-25T14:01:39.996Z</time></trkpt><trkpt lat="44.4556683" lon="8.6352283"><ele>958.4</ele><time>2026-04-25T14:01:40.994Z</time></trkpt><trkpt lat="44.4557" lon="8.6351067"><ele>957.5999999999999</ele><time>2026-04-25T14:01:41.994Z</time></trkpt><trkpt lat="44.45574" lon="8.635005"><ele>956.8</ele><time>2026-04-25T14:01:42.997Z</time></trkpt><trkpt lat="44.4557967" lon="8.63491"><ele>956.0</ele><time>2026-04-25T14:01:43.994Z</time></trkpt><trkpt lat="44.4558583" lon="8.63482"><ele>956.0</ele><time>2026-04-25T14:01:44.995Z</time></trkpt><trkpt lat="44.4559417" lon="8.6347483"><ele>956.0</ele><time>2026-04-25T14:01:45.994Z</time></trkpt><trkpt lat="44.4560533" lon="8.6347017"><ele>956.0</ele><time>2026-04-25T14:01:46.995Z</time></trkpt><trkpt lat="44.4561917" lon="8.6346667"><ele>956.0</ele><time>2026-04-25T14:01:47.999Z</time></trkpt><trkpt lat="44.4563317" lon="8.6346417"><ele>955.5</ele><time>2026-04-25T14:01:48.992Z</time></trkpt><trkpt lat="44.4564717" lon="8.634615"><ele>955.0</ele><time>2026-04-25T14:01:49.993Z</time></trkpt><trkpt lat="44.456605" lon="8.6345817"><ele>954.5</ele><time>2026-04-25T14:01:50.993Z</time></trkpt><trkpt lat="44.45674" lon="8.6345567"><ele>954.0</ele><time>2026-04-25T14:01:51.996Z</time></trkpt><trkpt lat="44.4568767" lon="8.634535"><ele>954.0</ele><time>2026-04-25T14:01:52.994Z</time></trkpt><trkpt lat="44.4570033" lon="8.6345017"><ele>954.0</ele><time>2026-04-25T14:01:53.998Z</time></trkpt><trkpt lat="44.457135" lon="8.6344683"><ele>954.0</ele><time>2026-04-25T14:01:54.997Z</time></trkpt><trkpt lat="44.45726" lon="8.6344417"><ele>954.0</ele><time>2026-04-25T14:01:55.997Z</time></trkpt><trkpt lat="44.457395" lon="8.6344367"><ele>948.25</ele><time>2026-04-25T14:01:56.993Z</time></trkpt><trkpt lat="44.4575367" lon="8.6344333"><ele>942.5</ele><time>2026-04-25T14:01:57.991Z</time></trkpt><trkpt lat="44.4576867" lon="8.634435"><ele>936.75</ele><time>2026-04-25T14:01:58.992Z</time></trkpt><trkpt lat="44.4578383" lon="8.6344517"><ele>931.0</ele><time>2026-04-25T14:02:00.007Z</time></trkpt><trkpt lat="44.4579933" lon="8.634465"><ele>935.25</ele><time>2026-04-25T14:02:00.996Z</time></trkpt><trkpt lat="44.4581433" lon="8.6344783"><ele>939.5</ele><time>2026-04-25T14:02:01.994Z</time></trkpt><trkpt lat="44.4582917" lon="8.6345033"><ele>943.75</ele><time>2026-04-25T14:02:02.996Z</time></trkpt><trkpt lat="44.4584333" lon="8.6345183"><ele>948.0</ele><time>2026-04-25T14:02:03.997Z</time></trkpt><trkpt lat="44.4585767" lon="8.6345233"><ele>948.0</ele><time>2026-04-25T14:02:04.993Z</time></trkpt><trkpt lat="44.45872" lon="8.6345283"><ele>948.0</ele><time>2026-04-25T14:02:05.994Z</time></trkpt><trkpt lat="44.4588633" lon="8.63453"><ele>948.0</ele><time>2026-04-25T14:02:06.999Z</time></trkpt><trkpt lat="44.4590067" lon="8.6345383"><ele>948.0</ele><time>2026-04-25T14:02:07.997Z</time></trkpt><trkpt lat="44.4591483" lon="8.6345433"><ele>946.0</ele><time>2026-04-25T14:02:08.999Z</time></trkpt><trkpt lat="44.4592867" lon="8.6345433"><ele>944.0</ele><time>2026-04-25T14:02:09.996Z</time></trkpt><trkpt lat="44.4594267" lon="8.6345467"><ele>942.0</ele><time>2026-04-25T14:02:10.998Z</time></trkpt><trkpt lat="44.4595667" lon="8.6345617"><ele>940.0</ele><time>2026-04-25T14:02:11.997Z</time></trkpt><trkpt lat="44.4596983" lon="8.6345717"><ele>936.0</ele><time>2026-04-25T14:02:12.998Z</time></trkpt><trkpt lat="44.4598133" lon="8.6345833"><ele>932.0</ele><time>2026-04-25T14:02:13.994Z</time></trkpt><trkpt lat="44.45992" lon="8.6346183"><ele>928.0</ele><time>2026-04-25T14:02:14.996Z</time></trkpt><trkpt lat="44.4600117" lon="8.6346883"><ele>924.0</ele><time>2026-04-25T14:02:15.993Z</time></trkpt><trkpt lat="44.4600833" lon="8.634795"><ele>920.0</ele><time>2026-04-25T14:02:16.997Z</time></trkpt><trkpt lat="44.4601317" lon="8.63493"><ele>920.0</ele><time>2026-04-25T14:02:17.999Z</time></trkpt><trkpt lat="44.4601817" lon="8.635085"><ele>920.0</ele><time>2026-04-25T14:02:18.997Z</time></trkpt><trkpt lat="44.4602333" lon="8.6352617"><ele>920.0</ele><time>2026-04-25T14:02:19.995Z</time></trkpt><trkpt lat="44.4602917" lon="8.63544"><ele>920.0</ele><time>2026-04-25T14:02:20.993Z</time></trkpt><trkpt lat="44.46034" lon="8.6356067"><ele>918.6666666666667</ele><time>2026-04-25T14:02:21.995Z</time></trkpt><trkpt lat="44.4603817" lon="8.6357533"><ele>917.3333333333334</ele><time>2026-04-25T14:02:22.995Z</time></trkpt><trkpt lat="44.4604183" lon="8.6358733"><ele>916.0</ele><time>2026-04-25T14:02:23.993Z</time></trkpt><trkpt lat="44.4604633" lon="8.6359733"><ele>914.6666666666667</ele><time>2026-04-25T14:02:24.992Z</time></trkpt><trkpt lat="44.4605167" lon="8.63606"><ele>913.3333333333334</ele><time>2026-04-25T14:02:25.992Z</time></trkpt><trkpt lat="44.4605833" lon="8.6361117"><ele>912.0</ele><time>2026-04-25T14:02:26.998Z</time></trkpt><trkpt lat="44.4606633" lon="8.636135"><ele>912.0</ele><time>2026-04-25T14:02:27.995Z</time></trkpt><trkpt lat="44.4607967" lon="8.6360667"><ele>912.0</ele><time>2026-04-25T14:02:28.995Z</time></trkpt><trkpt lat="44.46091" lon="8.6360467"><ele>912.0</ele><time>2026-04-25T14:02:29.994Z</time></trkpt><trkpt lat="44.4610317" lon="8.6360133"><ele>912.0</ele><time>2026-04-25T14:02:30.998Z</time></trkpt><trkpt lat="44.4611533" lon="8.6359817"><ele>912.0</ele><time>2026-04-25T14:02:31.994Z</time></trkpt><trkpt lat="44.4612783" lon="8.6359483"><ele>912.0</ele><time>2026-04-25T14:02:32.996Z</time></trkpt><trkpt lat="44.4614" lon="8.635905"><ele>912.0</ele><time>2026-04-25T14:02:33.998Z</time></trkpt><trkpt lat="44.4615033" lon="8.6358533"><ele>912.0</ele><time>2026-04-25T14:02:34.996Z</time></trkpt><trkpt lat="44.4615933" lon="8.6357917"><ele>912.0</ele><time>2026-04-25T14:02:35.995Z</time></trkpt><trkpt lat="44.461675" lon="8.6357083"><ele>912.0</ele><time>2026-04-25T14:02:37Z</time></trkpt><trkpt lat="44.4617517" lon="8.6355933"><ele>912.0</ele><time>2026-04-25T14:02:37.999Z</time></trkpt><trkpt lat="44.461825" lon="8.6354733"><ele>912.0</ele><time>2026-04-25T14:02:38.999Z</time></trkpt><trkpt lat="44.4618983" lon="8.635345"><ele>912.0</ele><time>2026-04-25T14:02:39.993Z</time></trkpt><trkpt lat="44.4619867" lon="8.63523"><ele>909.75</ele><time>2026-04-25T14:02:40.995Z</time></trkpt><trkpt lat="44.46208" lon="8.6351217"><ele>907.5</ele><time>2026-04-25T14:02:41.993Z</time></trkpt><trkpt lat="44.46218" lon="8.6350433"><ele>905.25</ele><time>2026-04-25T14:02:42.994Z</time></trkpt><trkpt lat="44.462295" lon="8.634975"><ele>903.0</ele><time>2026-04-25T14:02:43.997Z</time></trkpt><trkpt lat="44.462415" lon="8.6349133"><ele>903.0</ele><time>2026-04-25T14:02:44.994Z</time></trkpt><trkpt lat="44.4625367" lon="8.63488"><ele>903.0</ele><time>2026-04-25T14:02:45.996Z</time></trkpt><trkpt lat="44.4626533" lon="8.6348217"><ele>903.0</ele><time>2026-04-25T14:02:46.991Z</time></trkpt><trkpt lat="44.46276" lon="8.634765"><ele>903.0</ele><time>2026-04-25T14:02:47.996Z</time></trkpt><trkpt lat="44.4628783" lon="8.634715"><ele>904.75</ele><time>2026-04-25T14:02:48.997Z</time></trkpt><trkpt lat="44.4630017" lon="8.6346533"><ele>906.5</ele><time>2026-04-25T14:02:49.997Z</time></trkpt><trkpt lat="44.46313" lon="8.63459"><ele>908.25</ele><time>2026-04-25T14:02:51Z</time></trkpt><trkpt lat="44.4632467" lon="8.6345283"><ele>910.0</ele><time>2026-04-25T14:02:51.994Z</time></trkpt><trkpt lat="44.463355" lon="8.63446"><ele>903.5</ele><time>2026-04-25T14:02:52.996Z</time></trkpt><trkpt lat="44.4634467" lon="8.63436"><ele>897.0</ele><time>2026-04-25T14:02:53.994Z</time></trkpt><trkpt lat="44.4635317" lon="8.6342433"><ele>890.5</ele><time>2026-04-25T14:02:54.997Z</time></trkpt><trkpt lat="44.4636367" lon="8.63414"><ele>884.0</ele><time>2026-04-25T14:02:55.995Z</time></trkpt><trkpt lat="44.4637433" lon="8.6340567"><ele>886.6</ele><time>2026-04-25T14:02:57.001Z</time></trkpt><trkpt lat="44.4638317" lon="8.6339733"><ele>889.2</ele><time>2026-04-25T14:02:57.994Z</time></trkpt><trkpt lat="44.4639333" lon="8.6339183"><ele>891.8000000000001</ele><time>2026-04-25T14:02:58.996Z</time></trkpt><trkpt lat="44.4640383" lon="8.6338783"><ele>894.4000000000001</ele><time>2026-04-25T14:02:59.995Z</time></trkpt><trkpt lat="44.4641417" lon="8.6338283"><ele>897.0</ele><time>2026-04-25T14:03:01.002Z</time></trkpt><trkpt lat="44.464235" lon="8.6337633"><ele>897.0</ele><time>2026-04-25T14:03:01.995Z</time></trkpt><trkpt lat="44.464325" lon="8.6336867"><ele>897.0</ele><time>2026-04-25T14:03:02.996Z</time></trkpt><trkpt lat="44.46441" lon="8.6335817"><ele>897.0</ele><time>2026-04-25T14:03:03.995Z</time></trkpt><trkpt lat="44.4644917" lon="8.6334583"><ele>897.0</ele><time>2026-04-25T14:03:04.995Z</time></trkpt><trkpt lat="44.4645633" lon="8.6333367"><ele>893.8</ele><time>2026-04-25T14:03:05.996Z</time></trkpt><trkpt lat="44.464625" lon="8.63322"><ele>890.6</ele><time>2026-04-25T14:03:06.995Z</time></trkpt><trkpt lat="44.4646867" lon="8.6331017"><ele>887.3999999999999</ele><time>2026-04-25T14:03:07.995Z</time></trkpt><trkpt lat="44.4647767" lon="8.6330183"><ele>884.1999999999999</ele><time>2026-04-25T14:03:08.994Z</time></trkpt><trkpt lat="44.4648667" lon="8.63298"><ele>881.0</ele><time>2026-04-25T14:03:09.998Z</time></trkpt><trkpt lat="44.4649683" lon="8.632975"><ele>881.0</ele><time>2026-04-25T14:03:10.992Z</time></trkpt><trkpt lat="44.4650767" lon="8.6329917"><ele>880.9999999999999</ele><time>2026-04-25T14:03:11.997Z</time></trkpt><trkpt lat="44.4651867" lon="8.63302"><ele>880.9999999999999</ele><time>2026-04-25T14:03:12.996Z</time></trkpt><trkpt lat="44.4652883" lon="8.63306"><ele>881.0</ele><time>2026-04-25T14:03:13.993Z</time></trkpt><trkpt lat="44.4653717" lon="8.6331283"><ele>881.0</ele><time>2026-04-25T14:03:14.997Z</time></trkpt><trkpt lat="44.4654467" lon="8.6332017"><ele>879.0</ele><time>2026-04-25T14:03:15.994Z</time></trkpt><trkpt lat="44.4654983" lon="8.63331"><ele>876.9999999999999</ele><time>2026-04-25T14:03:16.999Z</time></trkpt><trkpt lat="44.4655383" lon="8.6334267"><ele>874.9999999999999</ele><time>2026-04-25T14:03:17.992Z</time></trkpt><trkpt lat="44.4655733" lon="8.6335433"><ele>873.0</ele><time>2026-04-25T14:03:18.995Z</time></trkpt><trkpt lat="44.465615" lon="8.633655"><ele>871.0</ele><time>2026-04-25T14:03:20.003Z</time></trkpt><trkpt lat="44.4656633" lon="8.6337633"><ele>871.0</ele><time>2026-04-25T14:03:20.997Z</time></trkpt><trkpt lat="44.4657383" lon="8.6337483"><ele>870.9999999999999</ele><time>2026-04-25T14:03:21.995Z</time></trkpt><trkpt lat="44.4658183" lon="8.633695"><ele>870.9999999999999</ele><time>2026-04-25T14:03:22.992Z</time></trkpt><trkpt lat="44.4659" lon="8.6336033"><ele>871.0</ele><time>2026-04-25T14:03:23.994Z</time></trkpt><trkpt lat="44.4659733" lon="8.633485"><ele>871.0</ele><time>2026-04-25T14:03:24.993Z</time></trkpt><trkpt lat="44.46604" lon="8.6333533"><ele>871.0</ele><time>2026-04-25T14:03:25.994Z</time></trkpt><trkpt lat="44.4660967" lon="8.6332"><ele>871.0</ele><time>2026-04-25T14:03:26.996Z</time></trkpt><trkpt lat="44.46613" lon="8.6330317"><ele>871.0</ele><time>2026-04-25T14:03:27.993Z</time></trkpt><trkpt lat="44.4661567" lon="8.6328617"><ele>871.0</ele><time>2026-04-25T14:03:28.994Z</time></trkpt><trkpt lat="44.4661783" lon="8.6326833"><ele>871.5</ele><time>2026-04-25T14:03:29.994Z</time></trkpt><trkpt lat="44.4662017" lon="8.632505"><ele>872.0</ele><time>2026-04-25T14:03:30.993Z</time></trkpt><trkpt lat="44.466225" lon="8.632335"><ele>872.5</ele><time>2026-04-25T14:03:31.996Z</time></trkpt><trkpt lat="44.4662583" lon="8.632185"><ele>873.0</ele><time>2026-04-25T14:03:32.996Z</time></trkpt><trkpt lat="44.46631" lon="8.6320583"><ele>868.0</ele><time>2026-04-25T14:03:33.998Z</time></trkpt><trkpt lat="44.46639" lon="8.63195"><ele>863.0</ele><time>2026-04-25T14:03:34.993Z</time></trkpt><trkpt lat="44.4664783" lon="8.63183"><ele>858.0</ele><time>2026-04-25T14:03:35.993Z</time></trkpt><trkpt lat="44.4665767" lon="8.631705"><ele>853.0</ele><time>2026-04-25T14:03:36.995Z</time></trkpt><trkpt lat="44.4666717" lon="8.631575"><ele>853.0</ele><time>2026-04-25T14:03:37.995Z</time></trkpt><trkpt lat="44.4667617" lon="8.631445"><ele>853.0</ele><time>2026-04-25T14:03:38.995Z</time></trkpt><trkpt lat="44.4668467" lon="8.63132"><ele>853.0</ele><time>2026-04-25T14:03:39.993Z</time></trkpt><trkpt lat="44.4669217" lon="8.631205"><ele>853.0</ele><time>2026-04-25T14:03:40.995Z</time></trkpt><trkpt lat="44.4669967" lon="8.6311167"><ele>848.5999999999999</ele><time>2026-04-25T14:03:41.994Z</time></trkpt><trkpt lat="44.4670717" lon="8.6310583"><ele>844.1999999999999</ele><time>2026-04-25T14:03:42.995Z</time></trkpt><trkpt lat="44.4671433" lon="8.6310167"><ele>839.8</ele><time>2026-04-25T14:03:43.993Z</time></trkpt><trkpt lat="44.46722" lon="8.630995"><ele>835.4</ele><time>2026-04-25T14:03:44.996Z</time></trkpt><trkpt lat="44.46733" lon="8.6310617"><ele>831.0</ele><time>2026-04-25T14:03:45.995Z</time></trkpt><trkpt lat="44.46743" lon="8.6311083"><ele>833.5999999999999</ele><time>2026-04-25T14:03:46.996Z</time></trkpt><trkpt lat="44.4675317" lon="8.6311567"><ele>836.2</ele><time>2026-04-25T14:03:47.997Z</time></trkpt><trkpt lat="44.4676367" lon="8.6312067"><ele>838.8</ele><time>2026-04-25T14:03:48.995Z</time></trkpt><trkpt lat="44.4677367" lon="8.6312583"><ele>841.4000000000001</ele><time>2026-04-25T14:03:49.999Z</time></trkpt><trkpt lat="44.4678417" lon="8.6313067"><ele>844.0</ele><time>2026-04-25T14:03:50.994Z</time></trkpt><trkpt lat="44.4679467" lon="8.631355"><ele>844.0</ele><time>2026-04-25T14:03:51.996Z</time></trkpt><trkpt lat="44.4680483" lon="8.6314017"><ele>844.0</ele><time>2026-04-25T14:03:52.994Z</time></trkpt><trkpt lat="44.46815" lon="8.6314583"><ele>844.0</ele><time>2026-04-25T14:03:53.993Z</time></trkpt><trkpt lat="44.4682517" lon="8.63151"><ele>844.0</ele><time>2026-04-25T14:03:54.996Z</time></trkpt><trkpt lat="44.468355" lon="8.631555"><ele>844.0</ele><time>2026-04-25T14:03:55.993Z</time></trkpt><trkpt lat="44.4684533" lon="8.6316067"><ele>844.0</ele><time>2026-04-25T14:03:56.997Z</time></trkpt><trkpt lat="44.4685483" lon="8.63165"><ele>844.0</ele><time>2026-04-25T14:03:57.998Z</time></trkpt><trkpt lat="44.4686433" lon="8.6316783"><ele>844.0</ele><time>2026-04-25T14:03:58.994Z</time></trkpt><trkpt lat="44.4687233" lon="8.6316933"><ele>844.0</ele><time>2026-04-25T14:03:59.994Z</time></trkpt><trkpt lat="44.468815" lon="8.631665"><ele>844.0</ele><time>2026-04-25T14:04:00.994Z</time></trkpt><trkpt lat="44.468905" lon="8.6316"><ele>845.75</ele><time>2026-04-25T14:04:01.996Z</time></trkpt><trkpt lat="44.4689817" lon="8.6314867"><ele>847.5</ele><time>2026-04-25T14:04:02.995Z</time></trkpt><trkpt lat="44.46906" lon="8.6313683"><ele>849.25</ele><time>2026-04-25T14:04:03.995Z</time></trkpt><trkpt lat="44.4691433" lon="8.631245"><ele>851.0</ele><time>2026-04-25T14:04:04.996Z</time></trkpt><trkpt lat="44.469215" lon="8.63112"><ele>847.25</ele><time>2026-04-25T14:04:05.998Z</time></trkpt><trkpt lat="44.4692817" lon="8.6309883"><ele>843.5</ele><time>2026-04-25T14:04:06.994Z</time></trkpt><trkpt lat="44.4693433" lon="8.6308383"><ele>839.75</ele><time>2026-04-25T14:04:07.992Z</time></trkpt><trkpt lat="44.4693867" lon="8.63068"><ele>836.0</ele><time>2026-04-25T14:04:08.995Z</time></trkpt><trkpt lat="44.46943" lon="8.63051"><ele>836.0</ele><time>2026-04-25T14:04:09.994Z</time></trkpt><trkpt lat="44.46947" lon="8.63034"><ele>836.0</ele><time>2026-04-25T14:04:10.998Z</time></trkpt><trkpt lat="44.469505" lon="8.6301683"><ele>836.0</ele><time>2026-04-25T14:04:11.993Z</time></trkpt><trkpt lat="44.4695383" lon="8.6299967"><ele>836.0</ele><time>2026-04-25T14:04:12.994Z</time></trkpt><trkpt lat="44.4695733" lon="8.6298283"><ele>834.5</ele><time>2026-04-25T14:04:14.003Z</time></trkpt><trkpt lat="44.469605" lon="8.629655"><ele>833.0</ele><time>2026-04-25T14:04:14.993Z</time></trkpt><trkpt lat="44.4696383" lon="8.6294783"><ele>831.5</ele><time>2026-04-25T14:04:15.995Z</time></trkpt><trkpt lat="44.4696717" lon="8.629305"><ele>830.0</ele><time>2026-04-25T14:04:16.995Z</time></trkpt><trkpt lat="44.4697067" lon="8.6291383"><ele>830.0</ele><time>2026-04-25T14:04:17.996Z</time></trkpt><trkpt lat="44.4697467" lon="8.6289883"><ele>830.0</ele><time>2026-04-25T14:04:18.992Z</time></trkpt><trkpt lat="44.4697817" lon="8.62886"><ele>830.0</ele><time>2026-04-25T14:04:19.998Z</time></trkpt><trkpt lat="44.469835" lon="8.62874"><ele>830.0</ele><time>2026-04-25T14:04:20.998Z</time></trkpt><trkpt lat="44.4699" lon="8.6286167"><ele>830.0</ele><time>2026-04-25T14:04:21.997Z</time></trkpt><trkpt lat="44.4699683" lon="8.6284883"><ele>827.8</ele><time>2026-04-25T14:04:22.996Z</time></trkpt><trkpt lat="44.4700367" lon="8.6283667"><ele>825.6</ele><time>2026-04-25T14:04:23.995Z</time></trkpt><trkpt lat="44.4701" lon="8.6282433"><ele>823.4000000000001</ele><time>2026-04-25T14:04:24.993Z</time></trkpt><trkpt lat="44.470145" lon="8.6281333"><ele>821.2</ele><time>2026-04-25T14:04:25.994Z</time></trkpt><trkpt lat="44.4701683" lon="8.628025"><ele>819.0</ele><time>2026-04-25T14:04:26.997Z</time></trkpt><trkpt lat="44.4701767" lon="8.6279233"><ele>819.0</ele><time>2026-04-25T14:04:27.996Z</time></trkpt><trkpt lat="44.4701783" lon="8.627835"><ele>819.0</ele><time>2026-04-25T14:04:28.996Z</time></trkpt><trkpt lat="44.4701067" lon="8.6278017"><ele>819.0</ele><time>2026-04-25T14:04:29.997Z</time></trkpt><trkpt lat="44.469955" lon="8.6278233"><ele>819.0</ele><time>2026-04-25T14:04:31.995Z</time></trkpt><trkpt lat="44.4698733" lon="8.6278867"><ele>819.0</ele><time>2026-04-25T14:04:32.995Z</time></trkpt><trkpt lat="44.4697917" lon="8.6279633"><ele>819.0</ele><time>2026-04-25T14:04:33.997Z</time></trkpt><trkpt lat="44.4697267" lon="8.62807"><ele>819.0</ele><time>2026-04-25T14:04:34.996Z</time></trkpt><trkpt lat="44.4696583" lon="8.6281783"><ele>819.0</ele><time>2026-04-25T14:04:35.995Z</time></trkpt><trkpt lat="44.469595" lon="8.6282817"><ele>819.0</ele><time>2026-04-25T14:04:36.992Z</time></trkpt><trkpt lat="44.4695283" lon="8.62839"><ele>819.0</ele><time>2026-04-25T14:04:37.994Z</time></trkpt><trkpt lat="44.4694567" lon="8.6284967"><ele>818.0</ele><time>2026-04-25T14:04:38.996Z</time></trkpt><trkpt lat="44.4693717" lon="8.6285983"><ele>817.0</ele><time>2026-04-25T14:04:39.995Z</time></trkpt><trkpt lat="44.4692817" lon="8.628705"><ele>816.0</ele><time>2026-04-25T14:04:40.996Z</time></trkpt><trkpt lat="44.4691917" lon="8.628805"><ele>815.0</ele><time>2026-04-25T14:04:41.992Z</time></trkpt><trkpt lat="44.4690783" lon="8.6288917"><ele>815.0</ele><time>2026-04-25T14:04:42.994Z</time></trkpt><trkpt lat="44.46898" lon="8.6289867"><ele>815.0</ele><time>2026-04-25T14:04:43.992Z</time></trkpt><trkpt lat="44.4688817" lon="8.629085"><ele>815.0</ele><time>2026-04-25T14:04:44.995Z</time></trkpt><trkpt lat="44.46878" lon="8.62918"><ele>815.0</ele><time>2026-04-25T14:04:45.993Z</time></trkpt><trkpt lat="44.4686817" lon="8.6292733"><ele>813.4</ele><time>2026-04-25T14:04:47Z</time></trkpt><trkpt lat="44.4685883" lon="8.62934"><ele>811.8</ele><time>2026-04-25T14:04:47.994Z</time></trkpt><trkpt lat="44.46851" lon="8.6293933"><ele>810.2</ele><time>2026-04-25T14:04:48.997Z</time></trkpt><trkpt lat="44.468435" lon="8.6294333"><ele>808.6</ele><time>2026-04-25T14:04:49.997Z</time></trkpt><trkpt lat="44.4683717" lon="8.6294533"><ele>807.0</ele><time>2026-04-25T14:04:50.992Z</time></trkpt><trkpt lat="44.4682567" lon="8.6294467"><ele>807.0</ele><time>2026-04-25T14:04:52.992Z</time></trkpt><trkpt lat="44.4682" lon="8.6294083"><ele>807.0</ele><time>2026-04-25T14:04:53.993Z</time></trkpt><trkpt lat="44.4681417" lon="8.6293383"><ele>807.0</ele><time>2026-04-25T14:04:54.994Z</time></trkpt><trkpt lat="44.4680967" lon="8.6292683"><ele>807.0</ele><time>2026-04-25T14:04:55.996Z</time></trkpt><trkpt lat="44.4680733" lon="8.629165"><ele>807.0</ele><time>2026-04-25T14:04:56.995Z</time></trkpt><trkpt lat="44.46807" lon="8.62907"><ele>807.0</ele><time>2026-04-25T14:04:57.994Z</time></trkpt><trkpt lat="44.4681617" lon="8.6290067"><ele>807.0</ele><time>2026-04-25T14:04:59.001Z</time></trkpt><trkpt lat="44.4682333" lon="8.6289383"><ele>807.0</ele><time>2026-04-25T14:04:59.997Z</time></trkpt><trkpt lat="44.4683267" lon="8.6288733"><ele>807.0</ele><time>2026-04-25T14:05:00.999Z</time></trkpt><trkpt lat="44.4684117" lon="8.6287983"><ele>807.0</ele><time>2026-04-25T14:05:01.992Z</time></trkpt><trkpt lat="44.46849" lon="8.6287083"><ele>807.0</ele><time>2026-04-25T14:05:02.992Z</time></trkpt><trkpt lat="44.4685583" lon="8.62859"><ele>805.5</ele><time>2026-04-25T14:05:03.995Z</time></trkpt><trkpt lat="44.46862" lon="8.6284467"><ele>804.0</ele><time>2026-04-25T14:05:04.99Z</time></trkpt><trkpt lat="44.4686683" lon="8.6282867"><ele>802.5</ele><time>2026-04-25T14:05:06Z</time></trkpt><trkpt lat="44.4687167" lon="8.6281183"><ele>801.0</ele><time>2026-04-25T14:05:06.992Z</time></trkpt><trkpt lat="44.4687633" lon="8.627945"><ele>800.75</ele><time>2026-04-25T14:05:07.993Z</time></trkpt><trkpt lat="44.4688133" lon="8.6277767"><ele>800.5</ele><time>2026-04-25T14:05:08.998Z</time></trkpt><trkpt lat="44.4688617" lon="8.6276067"><ele>800.25</ele><time>2026-04-25T14:05:09.994Z</time></trkpt><trkpt lat="44.4689283" lon="8.6274317"><ele>800.0</ele><time>2026-04-25T14:05:10.993Z</time></trkpt><trkpt lat="44.4689883" lon="8.627255"><ele>800.0</ele><time>2026-04-25T14:05:11.995Z</time></trkpt><trkpt lat="44.4690467" lon="8.6270817"><ele>800.0</ele><time>2026-04-25T14:05:12.995Z</time></trkpt><trkpt lat="44.4690933" lon="8.6269117"><ele>800.0</ele><time>2026-04-25T14:05:13.994Z</time></trkpt><trkpt lat="44.4691367" lon="8.6267467"><ele>800.0</ele><time>2026-04-25T14:05:14.994Z</time></trkpt><trkpt lat="44.46918" lon="8.6265833"><ele>798.5</ele><time>2026-04-25T14:05:15.993Z</time></trkpt><trkpt lat="44.4692217" lon="8.62642"><ele>797.0</ele><time>2026-04-25T14:05:16.995Z</time></trkpt><trkpt lat="44.4692517" lon="8.62625"><ele>795.5</ele><time>2026-04-25T14:05:17.995Z</time></trkpt><trkpt lat="44.4692733" lon="8.6260783"><ele>794.0</ele><time>2026-04-25T14:05:18.995Z</time></trkpt><trkpt lat="44.46929" lon="8.625905"><ele>793.75</ele><time>2026-04-25T14:05:19.997Z</time></trkpt><trkpt lat="44.4693033" lon="8.6257367"><ele>793.5</ele><time>2026-04-25T14:05:20.995Z</time></trkpt><trkpt lat="44.46932" lon="8.6255633"><ele>793.25</ele><time>2026-04-25T14:05:21.995Z</time></trkpt><trkpt lat="44.46934" lon="8.6253983"><ele>793.0</ele><time>2026-04-25T14:05:22.993Z</time></trkpt><trkpt lat="44.4693533" lon="8.6252317"><ele>793.0</ele><time>2026-04-25T14:05:23.997Z</time></trkpt><trkpt lat="44.469365" lon="8.6250633"><ele>793.0</ele><time>2026-04-25T14:05:24.996Z</time></trkpt><trkpt lat="44.46938" lon="8.6248967"><ele>793.0</ele><time>2026-04-25T14:05:25.994Z</time></trkpt><trkpt lat="44.4693917" lon="8.624735"><ele>793.0</ele><time>2026-04-25T14:05:26.993Z</time></trkpt><trkpt lat="44.4694033" lon="8.6245733"><ele>792.25</ele><time>2026-04-25T14:05:27.994Z</time></trkpt><trkpt lat="44.469415" lon="8.624405"><ele>791.5</ele><time>2026-04-25T14:05:28.995Z</time></trkpt><trkpt lat="44.4694233" lon="8.6242433"><ele>790.75</ele><time>2026-04-25T14:05:29.998Z</time></trkpt><trkpt lat="44.4694233" lon="8.6240717"><ele>790.0</ele><time>2026-04-25T14:05:30.995Z</time></trkpt><trkpt lat="44.4694133" lon="8.6239033"><ele>790.0</ele><time>2026-04-25T14:05:31.996Z</time></trkpt><trkpt lat="44.469385" lon="8.62374"><ele>790.0</ele><time>2026-04-25T14:05:32.996Z</time></trkpt><trkpt lat="44.4693567" lon="8.6235917"><ele>790.0</ele><time>2026-04-25T14:05:33.995Z</time></trkpt><trkpt lat="44.4693433" lon="8.6234417"><ele>790.0</ele><time>2026-04-25T14:05:34.993Z</time></trkpt><trkpt lat="44.4693417" lon="8.62328"><ele>789.75</ele><time>2026-04-25T14:05:35.997Z</time></trkpt><trkpt lat="44.4693583" lon="8.6231133"><ele>789.5</ele><time>2026-04-25T14:05:36.995Z</time></trkpt><trkpt lat="44.46939" lon="8.6229433"><ele>789.25</ele><time>2026-04-25T14:05:37.993Z</time></trkpt><trkpt lat="44.4694267" lon="8.622765"><ele>789.0</ele><time>2026-04-25T14:05:38.992Z</time></trkpt><trkpt lat="44.4694633" lon="8.6225767"><ele>788.0</ele><time>2026-04-25T14:05:39.995Z</time></trkpt><trkpt lat="44.4695017" lon="8.622395"><ele>787.0</ele><time>2026-04-25T14:05:40.998Z</time></trkpt><trkpt lat="44.4695233" lon="8.6222183"><ele>786.0</ele><time>2026-04-25T14:05:41.993Z</time></trkpt><trkpt lat="44.4695233" lon="8.6220517"><ele>785.0</ele><time>2026-04-25T14:05:42.997Z</time></trkpt><trkpt lat="44.469515" lon="8.621905"><ele>785.0</ele><time>2026-04-25T14:05:43.993Z</time></trkpt><trkpt lat="44.4694667" lon="8.6217733"><ele>785.0</ele><time>2026-04-25T14:05:44.993Z</time></trkpt><trkpt lat="44.46938" lon="8.6216617"><ele>785.0</ele><time>2026-04-25T14:05:45.993Z</time></trkpt><trkpt lat="44.469285" lon="8.6215617"><ele>785.0</ele><time>2026-04-25T14:05:46.995Z</time></trkpt><trkpt lat="44.4691983" lon="8.6214517"><ele>785.0</ele><time>2026-04-25T14:05:47.994Z</time></trkpt><trkpt lat="44.4691333" lon="8.621325"><ele>785.0</ele><time>2026-04-25T14:05:48.996Z</time></trkpt><trkpt lat="44.4690867" lon="8.621175"><ele>785.0</ele><time>2026-04-25T14:05:49.994Z</time></trkpt><trkpt lat="44.4690533" lon="8.621015"><ele>785.0</ele><time>2026-04-25T14:05:50.997Z</time></trkpt><trkpt lat="44.4690233" lon="8.6208433"><ele>785.75</ele><time>2026-04-25T14:05:51.995Z</time></trkpt><trkpt lat="44.468995" lon="8.6206717"><ele>786.5</ele><time>2026-04-25T14:05:52.992Z</time></trkpt><trkpt lat="44.4689683" lon="8.6205"><ele>787.25</ele><time>2026-04-25T14:05:53.993Z</time></trkpt><trkpt lat="44.46895" lon="8.620325"><ele>788.0</ele><time>2026-04-25T14:05:54.993Z</time></trkpt><trkpt lat="44.46894" lon="8.62016"><ele>788.75</ele><time>2026-04-25T14:05:55.994Z</time></trkpt><trkpt lat="44.4689633" lon="8.6199967"><ele>789.5</ele><time>2026-04-25T14:05:56.992Z</time></trkpt><trkpt lat="44.46902" lon="8.6198467"><ele>790.25</ele><time>2026-04-25T14:05:57.994Z</time></trkpt><trkpt lat="44.4690867" lon="8.619695"><ele>791.0</ele><time>2026-04-25T14:05:58.992Z</time></trkpt><trkpt lat="44.469155" lon="8.6195367"><ele>790.0</ele><time>2026-04-25T14:05:59.995Z</time></trkpt><trkpt lat="44.4692033" lon="8.61936"><ele>789.0</ele><time>2026-04-25T14:06:00.996Z</time></trkpt><trkpt lat="44.4692333" lon="8.619165"><ele>788.0</ele><time>2026-04-25T14:06:01.996Z</time></trkpt><trkpt lat="44.4692483" lon="8.6189583"><ele>787.0</ele><time>2026-04-25T14:06:02.992Z</time></trkpt><trkpt lat="44.4692567" lon="8.6187433"><ele>785.3333333333333</ele><time>2026-04-25T14:06:03.997Z</time></trkpt><trkpt lat="44.4692683" lon="8.6185233"><ele>783.6666666666667</ele><time>2026-04-25T14:06:04.997Z</time></trkpt><trkpt lat="44.46929" lon="8.618305"><ele>782.0</ele><time>2026-04-25T14:06:05.997Z</time></trkpt><trkpt lat="44.4693183" lon="8.61809"><ele>782.0</ele><time>2026-04-25T14:06:06.994Z</time></trkpt><trkpt lat="44.4693433" lon="8.6178833"><ele>782.0</ele><time>2026-04-25T14:06:07.995Z</time></trkpt><trkpt lat="44.4693683" lon="8.6176783"><ele>782.0</ele><time>2026-04-25T14:06:08.994Z</time></trkpt><trkpt lat="44.4693817" lon="8.6174983"><ele>782.0</ele><time>2026-04-25T14:06:09.993Z</time></trkpt><trkpt lat="44.4693717" lon="8.617345"><ele>781.0</ele><time>2026-04-25T14:06:10.993Z</time></trkpt><trkpt lat="44.4693317" lon="8.6172083"><ele>780.0</ele><time>2026-04-25T14:06:11.997Z</time></trkpt><trkpt lat="44.4692567" lon="8.6170783"><ele>779.0</ele><time>2026-04-25T14:06:12.995Z</time></trkpt><trkpt lat="44.4691717" lon="8.61696"><ele>778.0</ele><time>2026-04-25T14:06:13.993Z</time></trkpt><trkpt lat="44.46906" lon="8.6168667"><ele>780.25</ele><time>2026-04-25T14:06:15.005Z</time></trkpt><trkpt lat="44.4689617" lon="8.616775"><ele>782.5</ele><time>2026-04-25T14:06:15.998Z</time></trkpt><trkpt lat="44.4688733" lon="8.6166733"><ele>784.75</ele><time>2026-04-25T14:06:16.996Z</time></trkpt><trkpt lat="44.46879" lon="8.6165517"><ele>787.0</ele><time>2026-04-25T14:06:17.996Z</time></trkpt><trkpt lat="44.4687367" lon="8.61639"><ele>782.0</ele><time>2026-04-25T14:06:18.999Z</time></trkpt><trkpt lat="44.4687067" lon="8.6161967"><ele>777.0</ele><time>2026-04-25T14:06:19.997Z</time></trkpt><trkpt lat="44.468675" lon="8.616005"><ele>772.0</ele><time>2026-04-25T14:06:20.997Z</time></trkpt><trkpt lat="44.4686467" lon="8.6158183"><ele>767.0</ele><time>2026-04-25T14:06:21.995Z</time></trkpt><trkpt lat="44.46863" lon="8.6156367"><ele>767.0</ele><time>2026-04-25T14:06:22.995Z</time></trkpt><trkpt lat="44.4686233" lon="8.6154783"><ele>767.0</ele><time>2026-04-25T14:06:23.998Z</time></trkpt><trkpt lat="44.46863" lon="8.615345"><ele>767.0</ele><time>2026-04-25T14:06:24.995Z</time></trkpt><trkpt lat="44.4686633" lon="8.6152267"><ele>767.0</ele><time>2026-04-25T14:06:25.996Z</time></trkpt><trkpt lat="44.4687133" lon="8.6151033"><ele>767.0</ele><time>2026-04-25T14:06:27Z</time></trkpt><trkpt lat="44.46879" lon="8.6150033"><ele>769.25</ele><time>2026-04-25T14:06:27.997Z</time></trkpt><trkpt lat="44.4689067" lon="8.6149267"><ele>771.5</ele><time>2026-04-25T14:06:28.996Z</time></trkpt><trkpt lat="44.469025" lon="8.6148367"><ele>773.75</ele><time>2026-04-25T14:06:29.995Z</time></trkpt><trkpt lat="44.46914" lon="8.6147317"><ele>776.0</ele><time>2026-04-25T14:06:31Z</time></trkpt><trkpt lat="44.4692517" lon="8.61462"><ele>776.0</ele><time>2026-04-25T14:06:31.997Z</time></trkpt><trkpt lat="44.4693733" lon="8.614525"><ele>776.0</ele><time>2026-04-25T14:06:32.993Z</time></trkpt><trkpt lat="44.4694883" lon="8.6144217"><ele>776.0</ele><time>2026-04-25T14:06:33.993Z</time></trkpt><trkpt lat="44.4696267" lon="8.6143533"><ele>776.0</ele><time>2026-04-25T14:06:34.996Z</time></trkpt><trkpt lat="44.4697717" lon="8.614295"><ele>772.25</ele><time>2026-04-25T14:06:35.999Z</time></trkpt><trkpt lat="44.4699217" lon="8.6142567"><ele>768.5</ele><time>2026-04-25T14:06:36.997Z</time></trkpt><trkpt lat="44.47006" lon="8.61419"><ele>764.75</ele><time>2026-04-25T14:06:37.996Z</time></trkpt><trkpt lat="44.4701867" lon="8.6141183"><ele>761.0</ele><time>2026-04-25T14:06:38.995Z</time></trkpt><trkpt lat="44.4702867" lon="8.614045"><ele>761.0</ele><time>2026-04-25T14:06:40Z</time></trkpt><trkpt lat="44.4703533" lon="8.6139483"><ele>761.0</ele><time>2026-04-25T14:06:40.993Z</time></trkpt><trkpt lat="44.4703883" lon="8.6138283"><ele>761.0</ele><time>2026-04-25T14:06:42Z</time></trkpt><trkpt lat="44.47042" lon="8.613705"><ele>761.0</ele><time>2026-04-25T14:06:42.997Z</time></trkpt><trkpt lat="44.4704267" lon="8.6135783"><ele>761.0</ele><time>2026-04-25T14:06:43.996Z</time></trkpt><trkpt lat="44.470385" lon="8.6134483"><ele>760.0</ele><time>2026-04-25T14:06:44.997Z</time></trkpt><trkpt lat="44.47031" lon="8.6133217"><ele>759.0</ele><time>2026-04-25T14:06:46Z</time></trkpt><trkpt lat="44.4701683" lon="8.61317"><ele>758.0</ele><time>2026-04-25T14:06:46.993Z</time></trkpt><trkpt lat="44.4700833" lon="8.612995"><ele>757.0</ele><time>2026-04-25T14:06:47.996Z</time></trkpt><trkpt lat="44.46999" lon="8.6128"><ele>757.0</ele><time>2026-04-25T14:06:48.996Z</time></trkpt><trkpt lat="44.4698983" lon="8.6125933"><ele>757.0</ele><time>2026-04-25T14:06:49.994Z</time></trkpt><trkpt lat="44.4698233" lon="8.6123783"><ele>757.0</ele><time>2026-04-25T14:06:50.994Z</time></trkpt><trkpt lat="44.4697567" lon="8.6121567"><ele>759.6666666666667</ele><time>2026-04-25T14:06:51.993Z</time></trkpt><trkpt lat="44.4696867" lon="8.61196"><ele>762.3333333333334</ele><time>2026-04-25T14:06:52.997Z</time></trkpt><trkpt lat="44.4696183" lon="8.6117717"><ele>765.0</ele><time>2026-04-25T14:06:53.998Z</time></trkpt><trkpt lat="44.4695583" lon="8.6115783"><ele>757.5</ele><time>2026-04-25T14:06:54.994Z</time></trkpt><trkpt lat="44.4695083" lon="8.6113917"><ele>750.0</ele><time>2026-04-25T14:06:55.993Z</time></trkpt><trkpt lat="44.46946" lon="8.6111983"><ele>742.5</ele><time>2026-04-25T14:06:56.994Z</time></trkpt><trkpt lat="44.4694167" lon="8.611"><ele>735.0</ele><time>2026-04-25T14:06:57.993Z</time></trkpt><trkpt lat="44.4693733" lon="8.6108067"><ele>735.0</ele><time>2026-04-25T14:06:58.996Z</time></trkpt><trkpt lat="44.4693333" lon="8.6106233"><ele>735.0</ele><time>2026-04-25T14:06:59.997Z</time></trkpt><trkpt lat="44.469295" lon="8.61046"><ele>735.0</ele><time>2026-04-25T14:07:01.002Z</time></trkpt><trkpt lat="44.4692433" lon="8.6103267"><ele>735.0</ele><time>2026-04-25T14:07:01.998Z</time></trkpt><trkpt lat="44.4691683" lon="8.6102333"><ele>735.0</ele><time>2026-04-25T14:07:02.994Z</time></trkpt><trkpt lat="44.46908" lon="8.610205"><ele>735.0</ele><time>2026-04-25T14:07:03.995Z</time></trkpt><trkpt lat="44.4689833" lon="8.61022"><ele>735.0</ele><time>2026-04-25T14:07:04.994Z</time></trkpt><trkpt lat="44.4688967" lon="8.610275"><ele>735.0</ele><time>2026-04-25T14:07:05.994Z</time></trkpt><trkpt lat="44.468825" lon="8.6103733"><ele>735.0</ele><time>2026-04-25T14:07:06.998Z</time></trkpt><trkpt lat="44.468785" lon="8.6105117"><ele>735.0</ele><time>2026-04-25T14:07:07.997Z</time></trkpt><trkpt lat="44.4687817" lon="8.610675"><ele>735.0</ele><time>2026-04-25T14:07:09.001Z</time></trkpt><trkpt lat="44.4688017" lon="8.610845"><ele>735.0</ele><time>2026-04-25T14:07:09.999Z</time></trkpt><trkpt lat="44.46883" lon="8.6110133"><ele>735.0</ele><time>2026-04-25T14:07:11.003Z</time></trkpt><trkpt lat="44.46886" lon="8.6111733"><ele>734.8333333333334</ele><time>2026-04-25T14:07:11.995Z</time></trkpt><trkpt lat="44.4688767" lon="8.611315"><ele>734.6666666666666</ele><time>2026-04-25T14:07:12.996Z</time></trkpt><trkpt lat="44.4688617" lon="8.611435"><ele>734.5</ele><time>2026-04-25T14:07:13.993Z</time></trkpt><trkpt lat="44.46884" lon="8.6115467"><ele>734.3333333333333</ele><time>2026-04-25T14:07:14.995Z</time></trkpt><trkpt lat="44.4688017" lon="8.61164"><ele>734.1666666666666</ele><time>2026-04-25T14:07:15.993Z</time></trkpt><trkpt lat="44.4687533" lon="8.6117183"><ele>734.0</ele><time>2026-04-25T14:07:16.993Z</time></trkpt><trkpt lat="44.4686833" lon="8.6117733"><ele>731.3333333333333</ele><time>2026-04-25T14:07:18.002Z</time></trkpt><trkpt lat="44.4686117" lon="8.6118167"><ele>728.6666666666666</ele><time>2026-04-25T14:07:18.994Z</time></trkpt><trkpt lat="44.4685383" lon="8.6118367"><ele>726.0</ele><time>2026-04-25T14:07:19.994Z</time></trkpt><trkpt lat="44.4684667" lon="8.6118617"><ele>723.3333333333334</ele><time>2026-04-25T14:07:20.995Z</time></trkpt><trkpt lat="44.468395" lon="8.6117633"><ele>720.6666666666667</ele><time>2026-04-25T14:07:21.995Z</time></trkpt><trkpt lat="44.4683517" lon="8.6116483"><ele>718.0</ele><time>2026-04-25T14:07:22.996Z</time></trkpt><trkpt lat="44.46833" lon="8.6114967"><ele>718.0</ele><time>2026-04-25T14:07:23.995Z</time></trkpt><trkpt lat="44.4683117" lon="8.6113083"><ele>718.0</ele><time>2026-04-25T14:07:24.999Z</time></trkpt><trkpt lat="44.4683483" lon="8.6110383"><ele>718.0</ele><time>2026-04-25T14:07:26.001Z</time></trkpt><trkpt lat="44.4683783" lon="8.6107733"><ele>717.25</ele><time>2026-04-25T14:07:26.995Z</time></trkpt><trkpt lat="44.4684033" lon="8.6105567"><ele>716.5</ele><time>2026-04-25T14:07:27.999Z</time></trkpt><trkpt lat="44.4684183" lon="8.6103633"><ele>715.75</ele><time>2026-04-25T14:07:28.995Z</time></trkpt><trkpt lat="44.468425" lon="8.6101867"><ele>715.0</ele><time>2026-04-25T14:07:29.998Z</time></trkpt><trkpt lat="44.4683917" lon="8.6100267"><ele>715.0</ele><time>2026-04-25T14:07:30.996Z</time></trkpt><trkpt lat="44.468335" lon="8.6098683"><ele>715.0</ele><time>2026-04-25T14:07:31.995Z</time></trkpt><trkpt lat="44.4682467" lon="8.609735"><ele>715.0</ele><time>2026-04-25T14:07:32.996Z</time></trkpt><trkpt lat="44.468135" lon="8.609605"><ele>715.0</ele><time>2026-04-25T14:07:33.996Z</time></trkpt><trkpt lat="44.46802" lon="8.6094717"><ele>709.5</ele><time>2026-04-25T14:07:34.995Z</time></trkpt><trkpt lat="44.467905" lon="8.6093433"><ele>704.0</ele><time>2026-04-25T14:07:36Z</time></trkpt><trkpt lat="44.4677867" lon="8.6092167"><ele>698.5</ele><time>2026-04-25T14:07:36.998Z</time></trkpt><trkpt lat="44.4676833" lon="8.6090983"><ele>693.0</ele><time>2026-04-25T14:07:37.996Z</time></trkpt><trkpt lat="44.467605" lon="8.608975"><ele>693.0</ele><time>2026-04-25T14:07:38.995Z</time></trkpt><trkpt lat="44.4675433" lon="8.60886"><ele>693.0</ele><time>2026-04-25T14:07:40.001Z</time></trkpt><trkpt lat="44.4675117" lon="8.6087133"><ele>693.0</ele><time>2026-04-25T14:07:41Z</time></trkpt><trkpt lat="44.4674983" lon="8.6085767"><ele>693.0</ele><time>2026-04-25T14:07:41.995Z</time></trkpt><trkpt lat="44.4675183" lon="8.608415"><ele>693.0</ele><time>2026-04-25T14:07:42.996Z</time></trkpt><trkpt lat="44.4675533" lon="8.608275"><ele>694.8</ele><time>2026-04-25T14:07:44.005Z</time></trkpt><trkpt lat="44.4675633" lon="8.60813"><ele>696.5999999999999</ele><time>2026-04-25T14:07:44.995Z</time></trkpt><trkpt lat="44.467545" lon="8.6080033"><ele>698.4000000000001</ele><time>2026-04-25T14:07:45.996Z</time></trkpt><trkpt lat="44.4675083" lon="8.607885"><ele>700.2</ele><time>2026-04-25T14:07:46.997Z</time></trkpt><trkpt lat="44.4674467" lon="8.607775"><ele>702.0</ele><time>2026-04-25T14:07:47.996Z</time></trkpt><trkpt lat="44.4673433" lon="8.60772"><ele>704.5</ele><time>2026-04-25T14:07:48.996Z</time></trkpt><trkpt lat="44.4672333" lon="8.6077017"><ele>707.0</ele><time>2026-04-25T14:07:50.001Z</time></trkpt><trkpt lat="44.4671133" lon="8.6077017"><ele>709.5</ele><time>2026-04-25T14:07:50.999Z</time></trkpt><trkpt lat="44.4669933" lon="8.6077267"><ele>712.0</ele><time>2026-04-25T14:07:52.002Z</time></trkpt><trkpt lat="44.4668767" lon="8.6077817"><ele>706.2</ele><time>2026-04-25T14:07:53.001Z</time></trkpt><trkpt lat="44.46677" lon="8.607855"><ele>700.4000000000001</ele><time>2026-04-25T14:07:53.996Z</time></trkpt><trkpt lat="44.4666867" lon="8.6079533"><ele>694.5999999999999</ele><time>2026-04-25T14:07:54.998Z</time></trkpt><trkpt lat="44.4666383" lon="8.6080667"><ele>688.8</ele><time>2026-04-25T14:07:55.998Z</time></trkpt><trkpt lat="44.4666167" lon="8.6081883"><ele>683.0</ele><time>2026-04-25T14:07:56.997Z</time></trkpt><trkpt lat="44.4666333" lon="8.6083183"><ele>683.0</ele><time>2026-04-25T14:07:57.995Z</time></trkpt><trkpt lat="44.4666917" lon="8.6084433"><ele>683.0</ele><time>2026-04-25T14:07:58.998Z</time></trkpt><trkpt lat="44.4667717" lon="8.6085667"><ele>683.0</ele><time>2026-04-25T14:07:59.999Z</time></trkpt><trkpt lat="44.46686" lon="8.6086917"><ele>683.0</ele><time>2026-04-25T14:08:00.998Z</time></trkpt><trkpt lat="44.4669567" lon="8.608815"><ele>681.0</ele><time>2026-04-25T14:08:01.996Z</time></trkpt><trkpt lat="44.467055" lon="8.6089383"><ele>679.0</ele><time>2026-04-25T14:08:02.999Z</time></trkpt><trkpt lat="44.4671483" lon="8.6090667"><ele>677.0</ele><time>2026-04-25T14:08:03.994Z</time></trkpt><trkpt lat="44.4672267" lon="8.6092"><ele>675.0</ele><time>2026-04-25T14:08:04.995Z</time></trkpt><trkpt lat="44.4672883" lon="8.6093233"><ele>677.0</ele><time>2026-04-25T14:08:06.006Z</time></trkpt><trkpt lat="44.4673233" lon="8.609435"><ele>679.0</ele><time>2026-04-25T14:08:06.993Z</time></trkpt><trkpt lat="44.46735" lon="8.6095483"><ele>681.0</ele><time>2026-04-25T14:08:07.998Z</time></trkpt><trkpt lat="44.4673217" lon="8.6096517"><ele>683.0</ele><time>2026-04-25T14:08:08.996Z</time></trkpt><trkpt lat="44.467285" lon="8.6097467"><ele>685.0</ele><time>2026-04-25T14:08:09.997Z</time></trkpt><trkpt lat="44.4671967" lon="8.60979"><ele>687.0</ele><time>2026-04-25T14:08:11.002Z</time></trkpt><trkpt lat="44.4671167" lon="8.6098217"><ele>683.4000000000001</ele><time>2026-04-25T14:08:11.998Z</time></trkpt><trkpt lat="44.4670467" lon="8.6098567"><ele>679.8000000000001</ele><time>2026-04-25T14:08:12.995Z</time></trkpt><trkpt lat="44.4669567" lon="8.609845"><ele>676.2</ele><time>2026-04-25T14:08:13.996Z</time></trkpt><trkpt lat="44.46687" lon="8.6098017"><ele>672.6</ele><time>2026-04-25T14:08:14.999Z</time></trkpt><trkpt lat="44.466775" lon="8.609715"><ele>669.0</ele><time>2026-04-25T14:08:15.999Z</time></trkpt><trkpt lat="44.4667" lon="8.6095917"><ele>671.0</ele><time>2026-04-25T14:08:16.996Z</time></trkpt><trkpt lat="44.466585" lon="8.609365"><ele>673.0</ele><time>2026-04-25T14:08:17.999Z</time></trkpt><trkpt lat="44.4664933" lon="8.609175"><ele>675.0</ele><time>2026-04-25T14:08:18.995Z</time></trkpt><trkpt lat="44.4663983" lon="8.609035"><ele>675.0</ele><time>2026-04-25T14:08:19.995Z</time></trkpt><trkpt lat="44.4663167" lon="8.6089233"><ele>675.0</ele><time>2026-04-25T14:08:21.003Z</time></trkpt><trkpt lat="44.4662383" lon="8.6088217"><ele>675.0</ele><time>2026-04-25T14:08:21.998Z</time></trkpt><trkpt lat="44.4661667" lon="8.6087183"><ele>675.0</ele><time>2026-04-25T14:08:22.999Z</time></trkpt><trkpt lat="44.4661017" lon="8.6085917"><ele>675.0</ele><time>2026-04-25T14:08:24.008Z</time></trkpt><trkpt lat="44.466065" lon="8.60845"><ele>673.5</ele><time>2026-04-25T14:08:25Z</time></trkpt><trkpt lat="44.4660433" lon="8.608295"><ele>672.0</ele><time>2026-04-25T14:08:25.995Z</time></trkpt><trkpt lat="44.4660283" lon="8.6081383"><ele>670.5</ele><time>2026-04-25T14:08:26.997Z</time></trkpt><trkpt lat="44.4660233" lon="8.607985"><ele>669.0</ele><time>2026-04-25T14:08:27.994Z</time></trkpt><trkpt lat="44.4660283" lon="8.6078183"><ele>669.0</ele><time>2026-04-25T14:08:28.998Z</time></trkpt><trkpt lat="44.4660233" lon="8.6076433"><ele>669.0</ele><time>2026-04-25T14:08:30.002Z</time></trkpt><trkpt lat="44.4660133" lon="8.607465"><ele>669.0</ele><time>2026-04-25T14:08:30.999Z</time></trkpt><trkpt lat="44.4659917" lon="8.6072733"><ele>669.0</ele><time>2026-04-25T14:08:31.999Z</time></trkpt><trkpt lat="44.4659567" lon="8.6070983"><ele>670.75</ele><time>2026-04-25T14:08:32.997Z</time></trkpt><trkpt lat="44.4659083" lon="8.606925"><ele>672.5</ele><time>2026-04-25T14:08:33.998Z</time></trkpt><trkpt lat="44.4658517" lon="8.6067683"><ele>674.25</ele><time>2026-04-25T14:08:34.997Z</time></trkpt><trkpt lat="44.4658017" lon="8.6066083"><ele>676.0</ele><time>2026-04-25T14:08:35.997Z</time></trkpt><trkpt lat="44.4657633" lon="8.60645"><ele>676.0</ele><time>2026-04-25T14:08:37.001Z</time></trkpt><trkpt lat="44.4657467" lon="8.606285"><ele>676.0</ele><time>2026-04-25T14:08:38.003Z</time></trkpt><trkpt lat="44.465765" lon="8.606105"><ele>676.0</ele><time>2026-04-25T14:08:38.995Z</time></trkpt><trkpt lat="44.4657867" lon="8.6059133"><ele>676.0</ele><time>2026-04-25T14:08:39.998Z</time></trkpt><trkpt lat="44.4658133" lon="8.60571"><ele>676.25</ele><time>2026-04-25T14:08:40.999Z</time></trkpt><trkpt lat="44.4658283" lon="8.605515"><ele>676.5</ele><time>2026-04-25T14:08:41.998Z</time></trkpt><trkpt lat="44.46585" lon="8.605345"><ele>676.75</ele><time>2026-04-25T14:08:42.996Z</time></trkpt><trkpt lat="44.4658867" lon="8.6052067"><ele>677.0</ele><time>2026-04-25T14:08:43.999Z</time></trkpt><trkpt lat="44.4659467" lon="8.6051017"><ele>673.0</ele><time>2026-04-25T14:08:44.996Z</time></trkpt><trkpt lat="44.466025" lon="8.6049983"><ele>669.0</ele><time>2026-04-25T14:08:45.994Z</time></trkpt><trkpt lat="44.4661" lon="8.6048733"><ele>665.0</ele><time>2026-04-25T14:08:46.995Z</time></trkpt><trkpt lat="44.4661617" lon="8.6047117"><ele>661.0</ele><time>2026-04-25T14:08:47.999Z</time></trkpt><trkpt lat="44.4662333" lon="8.60454"><ele>666.25</ele><time>2026-04-25T14:08:48.998Z</time></trkpt><trkpt lat="44.4663033" lon="8.6043667"><ele>671.5</ele><time>2026-04-25T14:08:50Z</time></trkpt><trkpt lat="44.46637" lon="8.6041967"><ele>676.75</ele><time>2026-04-25T14:08:50.995Z</time></trkpt><trkpt lat="44.4664317" lon="8.60402"><ele>682.0</ele><time>2026-04-25T14:08:51.993Z</time></trkpt><trkpt lat="44.466495" lon="8.60386"><ele>682.0</ele><time>2026-04-25T14:08:52.997Z</time></trkpt><trkpt lat="44.4665533" lon="8.6037133"><ele>682.0</ele><time>2026-04-25T14:08:53.997Z</time></trkpt><trkpt lat="44.4666067" lon="8.6035783"><ele>682.0</ele><time>2026-04-25T14:08:54.999Z</time></trkpt><trkpt lat="44.4666683" lon="8.6034633"><ele>682.0</ele><time>2026-04-25T14:08:55.994Z</time></trkpt><trkpt lat="44.4667417" lon="8.6033583"><ele>682.0</ele><time>2026-04-25T14:08:56.995Z</time></trkpt><trkpt lat="44.4668367" lon="8.6032633"><ele>685.0</ele><time>2026-04-25T14:08:57.997Z</time></trkpt><trkpt lat="44.4669383" lon="8.603165"><ele>688.0</ele><time>2026-04-25T14:08:58.994Z</time></trkpt><trkpt lat="44.4670517" lon="8.6030617"><ele>691.0</ele><time>2026-04-25T14:08:59.995Z</time></trkpt><trkpt lat="44.4671633" lon="8.6029567"><ele>694.0</ele><time>2026-04-25T14:09:00.996Z</time></trkpt><trkpt lat="44.4672683" lon="8.6028233"><ele>684.25</ele><time>2026-04-25T14:09:01.996Z</time></trkpt><trkpt lat="44.4673833" lon="8.6027017"><ele>674.5</ele><time>2026-04-25T14:09:02.998Z</time></trkpt><trkpt lat="44.4674967" lon="8.602585"><ele>664.75</ele><time>2026-04-25T14:09:03.994Z</time></trkpt><trkpt lat="44.467615" lon="8.6024883"><ele>655.0</ele><time>2026-04-25T14:09:05Z</time></trkpt><trkpt lat="44.467745" lon="8.6024217"><ele>655.0</ele><time>2026-04-25T14:09:05.995Z</time></trkpt><trkpt lat="44.46786" lon="8.602335"><ele>655.0</ele><time>2026-04-25T14:09:06.994Z</time></trkpt><trkpt lat="44.46798" lon="8.60228"><ele>655.0</ele><time>2026-04-25T14:09:07.997Z</time></trkpt><trkpt lat="44.4681067" lon="8.6022533"><ele>655.0</ele><time>2026-04-25T14:09:08.994Z</time></trkpt><trkpt lat="44.4682317" lon="8.6022217"><ele>658.0</ele><time>2026-04-25T14:09:09.999Z</time></trkpt><trkpt lat="44.4683517" lon="8.6021833"><ele>661.0</ele><time>2026-04-25T14:09:10.994Z</time></trkpt><trkpt lat="44.468475" lon="8.6021567"><ele>664.0</ele><time>2026-04-25T14:09:11.993Z</time></trkpt><trkpt lat="44.4685817" lon="8.6020933"><ele>667.0</ele><time>2026-04-25T14:09:12.995Z</time></trkpt><trkpt lat="44.4686733" lon="8.6020017"><ele>665.5</ele><time>2026-04-25T14:09:13.995Z</time></trkpt><trkpt lat="44.4687533" lon="8.6018867"><ele>664.0</ele><time>2026-04-25T14:09:14.996Z</time></trkpt><trkpt lat="44.4688283" lon="8.601765"><ele>662.5</ele><time>2026-04-25T14:09:15.993Z</time></trkpt><trkpt lat="44.4689167" lon="8.6016583"><ele>661.0</ele><time>2026-04-25T14:09:16.994Z</time></trkpt><trkpt lat="44.46902" lon="8.60156"><ele>661.0</ele><time>2026-04-25T14:09:17.995Z</time></trkpt><trkpt lat="44.4691483" lon="8.60149"><ele>661.0</ele><time>2026-04-25T14:09:18.995Z</time></trkpt><trkpt lat="44.4692817" lon="8.6014"><ele>661.0</ele><time>2026-04-25T14:09:19.995Z</time></trkpt><trkpt lat="44.4694033" lon="8.6012933"><ele>661.0</ele><time>2026-04-25T14:09:20.996Z</time></trkpt><trkpt lat="44.46952" lon="8.6011633"><ele>656.75</ele><time>2026-04-25T14:09:21.995Z</time></trkpt><trkpt lat="44.46964" lon="8.6010433"><ele>652.5</ele><time>2026-04-25T14:09:22.998Z</time></trkpt><trkpt lat="44.4697583" lon="8.6009633"><ele>648.25</ele><time>2026-04-25T14:09:24.003Z</time></trkpt><trkpt lat="44.46988" lon="8.6009117"><ele>644.0</ele><time>2026-04-25T14:09:24.993Z</time></trkpt><trkpt lat="44.4700217" lon="8.60091"><ele>644.0</ele><time>2026-04-25T14:09:25.997Z</time></trkpt><trkpt lat="44.4701633" lon="8.600905"><ele>644.0</ele><time>2026-04-25T14:09:26.994Z</time></trkpt><trkpt lat="44.47031" lon="8.6009033"><ele>644.0</ele><time>2026-04-25T14:09:27.993Z</time></trkpt><trkpt lat="44.4704633" lon="8.6008983"><ele>644.0</ele><time>2026-04-25T14:09:28.993Z</time></trkpt><trkpt lat="44.4706183" lon="8.6009"><ele>643.6666666666666</ele><time>2026-04-25T14:09:29.994Z</time></trkpt><trkpt lat="44.470765" lon="8.6009"><ele>643.3333333333334</ele><time>2026-04-25T14:09:30.993Z</time></trkpt><trkpt lat="44.4709217" lon="8.6009683"><ele>643.0</ele><time>2026-04-25T14:09:31.993Z</time></trkpt><trkpt lat="44.47107" lon="8.601005"><ele>643.0</ele><time>2026-04-25T14:09:32.996Z</time></trkpt><trkpt lat="44.4712183" lon="8.60101"><ele>643.0</ele><time>2026-04-25T14:09:33.997Z</time></trkpt><trkpt lat="44.4713633" lon="8.6010133"><ele>643.0</ele><time>2026-04-25T14:09:34.992Z</time></trkpt><trkpt lat="44.4715167" lon="8.601015"><ele>643.0</ele><time>2026-04-25T14:09:35.998Z</time></trkpt><trkpt lat="44.4716633" lon="8.6009933"><ele>643.0</ele><time>2026-04-25T14:09:36.993Z</time></trkpt><trkpt lat="44.471815" lon="8.600955"><ele>643.0</ele><time>2026-04-25T14:09:37.992Z</time></trkpt><trkpt lat="44.471965" lon="8.600915"><ele>643.0</ele><time>2026-04-25T14:09:38.992Z</time></trkpt><trkpt lat="44.472125" lon="8.6008783"><ele>645.5</ele><time>2026-04-25T14:09:39.994Z</time></trkpt><trkpt lat="44.4722567" lon="8.60079"><ele>648.0</ele><time>2026-04-25T14:09:40.996Z</time></trkpt><trkpt lat="44.4723883" lon="8.6006983"><ele>650.5</ele><time>2026-04-25T14:09:41.997Z</time></trkpt><trkpt lat="44.472515" lon="8.6006167"><ele>653.0</ele><time>2026-04-25T14:09:42.995Z</time></trkpt><trkpt lat="44.472605" lon="8.60049"><ele>653.0</ele><time>2026-04-25T14:09:43.995Z</time></trkpt><trkpt lat="44.4726833" lon="8.6003517"><ele>653.0</ele><time>2026-04-25T14:09:44.999Z</time></trkpt><trkpt lat="44.4727583" lon="8.6001967"><ele>653.0</ele><time>2026-04-25T14:09:46.002Z</time></trkpt><trkpt lat="44.472835" lon="8.6000367"><ele>653.0</ele><time>2026-04-25T14:09:46.993Z</time></trkpt><trkpt lat="44.472935" lon="8.599895"><ele>654.3333333333333</ele><time>2026-04-25T14:09:47.995Z</time></trkpt><trkpt lat="44.4730383" lon="8.5997433"><ele>655.6666666666666</ele><time>2026-04-25T14:09:48.993Z</time></trkpt><trkpt lat="44.47316" lon="8.5996017"><ele>657.0</ele><time>2026-04-25T14:09:49.998Z</time></trkpt><trkpt lat="44.47328" lon="8.5994517"><ele>643.6666666666666</ele><time>2026-04-25T14:09:50.998Z</time></trkpt><trkpt lat="44.4734067" lon="8.5993083"><ele>630.3333333333333</ele><time>2026-04-25T14:09:51.996Z</time></trkpt><trkpt lat="44.473535" lon="8.59917"><ele>617.0</ele><time>2026-04-25T14:09:52.993Z</time></trkpt><trkpt lat="44.4736633" lon="8.5990267"><ele>627.3333333333333</ele><time>2026-04-25T14:09:53.993Z</time></trkpt><trkpt lat="44.4737967" lon="8.5989033"><ele>637.6666666666666</ele><time>2026-04-25T14:09:54.995Z</time></trkpt><trkpt lat="44.4739267" lon="8.5987867"><ele>648.0</ele><time>2026-04-25T14:09:55.996Z</time></trkpt><trkpt lat="44.4740617" lon="8.598675"><ele>637.0</ele><time>2026-04-25T14:09:56.994Z</time></trkpt><trkpt lat="44.4742033" lon="8.5985683"><ele>626.0</ele><time>2026-04-25T14:09:57.994Z</time></trkpt><trkpt lat="44.474345" lon="8.5984583"><ele>615.0</ele><time>2026-04-25T14:09:58.995Z</time></trkpt><trkpt lat="44.4744917" lon="8.5983483"><ele>624.3333333333334</ele><time>2026-04-25T14:09:59.998Z</time></trkpt><trkpt lat="44.47464" lon="8.5982433"><ele>633.6666666666667</ele><time>2026-04-25T14:10:00.998Z</time></trkpt><trkpt lat="44.4747867" lon="8.5981417"><ele>643.0</ele><time>2026-04-25T14:10:01.994Z</time></trkpt><trkpt lat="44.4749317" lon="8.598035"><ele>643.0</ele><time>2026-04-25T14:10:02.999Z</time></trkpt><trkpt lat="44.4750783" lon="8.5979233"><ele>643.0</ele><time>2026-04-25T14:10:03.996Z</time></trkpt><trkpt lat="44.475215" lon="8.5977917"><ele>643.0</ele><time>2026-04-25T14:10:05.002Z</time></trkpt><trkpt lat="44.4753533" lon="8.5976817"><ele>638.75</ele><time>2026-04-25T14:10:05.997Z</time></trkpt><trkpt lat="44.47549" lon="8.5975833"><ele>634.5</ele><time>2026-04-25T14:10:06.995Z</time></trkpt><trkpt lat="44.4756333" lon="8.5975167"><ele>630.25</ele><time>2026-04-25T14:10:07.999Z</time></trkpt><trkpt lat="44.4757617" lon="8.5974367"><ele>626.0</ele><time>2026-04-25T14:10:09Z</time></trkpt><trkpt lat="44.4758917" lon="8.5973783"><ele>626.0</ele><time>2026-04-25T14:10:09.993Z</time></trkpt><trkpt lat="44.4760267" lon="8.5973317"><ele>626.0</ele><time>2026-04-25T14:10:10.994Z</time></trkpt><trkpt lat="44.476165" lon="8.597295"><ele>626.0</ele><time>2026-04-25T14:10:11.995Z</time></trkpt><trkpt lat="44.4762933" lon="8.5972483"><ele>626.0</ele><time>2026-04-25T14:10:12.996Z</time></trkpt><trkpt lat="44.4764233" lon="8.5972417"><ele>625.75</ele><time>2026-04-25T14:10:13.999Z</time></trkpt><trkpt lat="44.4765567" lon="8.5972667"><ele>625.5</ele><time>2026-04-25T14:10:14.994Z</time></trkpt><trkpt lat="44.4766917" lon="8.5973133"><ele>625.25</ele><time>2026-04-25T14:10:15.997Z</time></trkpt><trkpt lat="44.4768117" lon="8.5973667"><ele>625.0</ele><time>2026-04-25T14:10:16.997Z</time></trkpt><trkpt lat="44.4769383" lon="8.5974767"><ele>625.0</ele><time>2026-04-25T14:10:17.995Z</time></trkpt><trkpt lat="44.477065" lon="8.597605"><ele>625.0</ele><time>2026-04-25T14:10:19Z</time></trkpt><trkpt lat="44.4771917" lon="8.5977483"><ele>625.0</ele><time>2026-04-25T14:10:19.995Z</time></trkpt><trkpt lat="44.477315" lon="8.5978967"><ele>624.3333333333334</ele><time>2026-04-25T14:10:20.995Z</time></trkpt><trkpt lat="44.4774333" lon="8.5980433"><ele>623.6666666666666</ele><time>2026-04-25T14:10:21.994Z</time></trkpt><trkpt lat="44.477545" lon="8.5981833"><ele>623.0</ele><time>2026-04-25T14:10:22.994Z</time></trkpt><trkpt lat="44.4776567" lon="8.5983117"><ele>623.0</ele><time>2026-04-25T14:10:23.995Z</time></trkpt><trkpt lat="44.4777567" lon="8.59845"><ele>623.0</ele><time>2026-04-25T14:10:24.993Z</time></trkpt><trkpt lat="44.4778483" lon="8.5986133"><ele>623.0</ele><time>2026-04-25T14:10:25.994Z</time></trkpt><trkpt lat="44.477925" lon="8.5988033"><ele>623.0</ele><time>2026-04-25T14:10:26.997Z</time></trkpt><trkpt lat="44.477995" lon="8.5990133"><ele>619.6666666666666</ele><time>2026-04-25T14:10:27.994Z</time></trkpt><trkpt lat="44.4780667" lon="8.5992267"><ele>616.3333333333334</ele><time>2026-04-25T14:10:28.997Z</time></trkpt><trkpt lat="44.4781383" lon="8.5994383"><ele>613.0</ele><time>2026-04-25T14:10:29.993Z</time></trkpt><trkpt lat="44.4782067" lon="8.5996383"><ele>613.0</ele><time>2026-04-25T14:10:30.999Z</time></trkpt><trkpt lat="44.4782817" lon="8.599835"><ele>613.0</ele><time>2026-04-25T14:10:31.996Z</time></trkpt><trkpt lat="44.47836" lon="8.6000183"><ele>613.0</ele><time>2026-04-25T14:10:32.997Z</time></trkpt><trkpt lat="44.4784633" lon="8.6001817"><ele>624.3333333333334</ele><time>2026-04-25T14:10:33.994Z</time></trkpt><trkpt lat="44.4785683" lon="8.600345"><ele>635.6666666666666</ele><time>2026-04-25T14:10:34.993Z</time></trkpt><trkpt lat="44.478665" lon="8.60051"><ele>647.0</ele><time>2026-04-25T14:10:35.999Z</time></trkpt><trkpt lat="44.478765" lon="8.6006567"><ele>637.5</ele><time>2026-04-25T14:10:36.997Z</time></trkpt><trkpt lat="44.478875" lon="8.6007567"><ele>628.0</ele><time>2026-04-25T14:10:37.992Z</time></trkpt><trkpt lat="44.4789983" lon="8.6008133"><ele>618.5</ele><time>2026-04-25T14:10:38.996Z</time></trkpt><trkpt lat="44.4791133" lon="8.6008233"><ele>609.0</ele><time>2026-04-25T14:10:39.994Z</time></trkpt><trkpt lat="44.4792333" lon="8.600795"><ele>609.0</ele><time>2026-04-25T14:10:40.996Z</time></trkpt><trkpt lat="44.4793583" lon="8.6007583"><ele>609.0</ele><time>2026-04-25T14:10:41.998Z</time></trkpt><trkpt lat="44.4794933" lon="8.6007333"><ele>609.0</ele><time>2026-04-25T14:10:42.993Z</time></trkpt><trkpt lat="44.479635" lon="8.60072"><ele>609.0</ele><time>2026-04-25T14:10:43.995Z</time></trkpt><trkpt lat="44.47978" lon="8.6007083"><ele>611.3333333333334</ele><time>2026-04-25T14:10:44.993Z</time></trkpt><trkpt lat="44.47993" lon="8.6006733"><ele>613.6666666666667</ele><time>2026-04-25T14:10:45.995Z</time></trkpt><trkpt lat="44.4800867" lon="8.6006183"><ele>616.0</ele><time>2026-04-25T14:10:46.993Z</time></trkpt><trkpt lat="44.4802417" lon="8.6005633"><ele>616.0</ele><time>2026-04-25T14:10:47.993Z</time></trkpt><trkpt lat="44.480385" lon="8.6004517"><ele>616.0</ele><time>2026-04-25T14:10:48.996Z</time></trkpt><trkpt lat="44.4805217" lon="8.6003033"><ele>616.0</ele><time>2026-04-25T14:10:50.002Z</time></trkpt><trkpt lat="44.4806467" lon="8.60012"><ele>612.6666666666667</ele><time>2026-04-25T14:10:50.997Z</time></trkpt><trkpt lat="44.4807567" lon="8.5999367"><ele>609.3333333333334</ele><time>2026-04-25T14:10:51.991Z</time></trkpt><trkpt lat="44.480855" lon="8.5997283"><ele>606.0</ele><time>2026-04-25T14:10:52.995Z</time></trkpt><trkpt lat="44.4809517" lon="8.5995183"><ele>595.6666666666666</ele><time>2026-04-25T14:10:53.994Z</time></trkpt><trkpt lat="44.4810517" lon="8.5993167"><ele>585.3333333333333</ele><time>2026-04-25T14:10:54.994Z</time></trkpt><trkpt lat="44.4811533" lon="8.5991383"><ele>575.0</ele><time>2026-04-25T14:10:55.993Z</time></trkpt><trkpt lat="44.48125" lon="8.598955"><ele>580.0</ele><time>2026-04-25T14:10:56.993Z</time></trkpt><trkpt lat="44.4813433" lon="8.5987917"><ele>585.0</ele><time>2026-04-25T14:10:57.991Z</time></trkpt><trkpt lat="44.481415" lon="8.598605"><ele>590.0</ele><time>2026-04-25T14:10:58.992Z</time></trkpt><trkpt lat="44.4814817" lon="8.59843"><ele>595.0</ele><time>2026-04-25T14:10:59.994Z</time></trkpt><trkpt lat="44.4815283" lon="8.5982533"><ele>595.0</ele><time>2026-04-25T14:11:00.993Z</time></trkpt><trkpt lat="44.4815683" lon="8.5980817"><ele>595.0</ele><time>2026-04-25T14:11:01.997Z</time></trkpt><trkpt lat="44.4815983" lon="8.5979083"><ele>595.0</ele><time>2026-04-25T14:11:02.995Z</time></trkpt><trkpt lat="44.4816317" lon="8.5977367"><ele>595.0</ele><time>2026-04-25T14:11:03.994Z</time></trkpt><trkpt lat="44.4816717" lon="8.5975683"><ele>591.5</ele><time>2026-04-25T14:11:04.995Z</time></trkpt><trkpt lat="44.48172" lon="8.5974083"><ele>588.0</ele><time>2026-04-25T14:11:05.994Z</time></trkpt><trkpt lat="44.48177" lon="8.5972533"><ele>584.5</ele><time>2026-04-25T14:11:06.995Z</time></trkpt><trkpt lat="44.481815" lon="8.5970983"><ele>581.0</ele><time>2026-04-25T14:11:07.992Z</time></trkpt><trkpt lat="44.481855" lon="8.5969433"><ele>578.5</ele><time>2026-04-25T14:11:08.995Z</time></trkpt><trkpt lat="44.481895" lon="8.59679"><ele>576.0</ele><time>2026-04-25T14:11:09.991Z</time></trkpt><trkpt lat="44.4819317" lon="8.5966383"><ele>573.5</ele><time>2026-04-25T14:11:10.995Z</time></trkpt><trkpt lat="44.4819767" lon="8.596495"><ele>571.0</ele><time>2026-04-25T14:11:11.996Z</time></trkpt><trkpt lat="44.4820217" lon="8.5963567"><ele>571.0</ele><time>2026-04-25T14:11:12.993Z</time></trkpt><trkpt lat="44.4820733" lon="8.5962283"><ele>571.0</ele><time>2026-04-25T14:11:13.993Z</time></trkpt><trkpt lat="44.4821267" lon="8.5960983"><ele>571.0</ele><time>2026-04-25T14:11:14.993Z</time></trkpt><trkpt lat="44.482185" lon="8.5959717"><ele>571.0</ele><time>2026-04-25T14:11:15.994Z</time></trkpt><trkpt lat="44.4822483" lon="8.5958583"><ele>571.0</ele><time>2026-04-25T14:11:16.996Z</time></trkpt><trkpt lat="44.4823133" lon="8.5957533"><ele>570.8</ele><time>2026-04-25T14:11:17.996Z</time></trkpt><trkpt lat="44.4823817" lon="8.59566"><ele>570.6</ele><time>2026-04-25T14:11:18.999Z</time></trkpt><trkpt lat="44.482455" lon="8.59557"><ele>570.4</ele><time>2026-04-25T14:11:19.996Z</time></trkpt><trkpt lat="44.4825217" lon="8.5954667"><ele>570.2</ele><time>2026-04-25T14:11:20.997Z</time></trkpt><trkpt lat="44.4825667" lon="8.595345"><ele>570.0</ele><time>2026-04-25T14:11:21.995Z</time></trkpt><trkpt lat="44.4826033" lon="8.5952217"><ele>570.0</ele><time>2026-04-25T14:11:22.996Z</time></trkpt><trkpt lat="44.4826233" lon="8.59508"><ele>570.0</ele><time>2026-04-25T14:11:24.002Z</time></trkpt><trkpt lat="44.4826367" lon="8.59494"><ele>570.0</ele><time>2026-04-25T14:11:24.997Z</time></trkpt><trkpt lat="44.4826433" lon="8.5948083"><ele>570.0</ele><time>2026-04-25T14:11:25.998Z</time></trkpt><trkpt lat="44.4826383" lon="8.5946733"><ele>570.0</ele><time>2026-04-25T14:11:26.999Z</time></trkpt><trkpt lat="44.4826067" lon="8.59454"><ele>570.0</ele><time>2026-04-25T14:11:27.994Z</time></trkpt><trkpt lat="44.4825617" lon="8.5944133"><ele>570.0</ele><time>2026-04-25T14:11:28.994Z</time></trkpt><trkpt lat="44.482495" lon="8.5942983"><ele>570.0</ele><time>2026-04-25T14:11:29.995Z</time></trkpt><trkpt lat="44.482425" lon="8.594185"><ele>570.0</ele><time>2026-04-25T14:11:30.998Z</time></trkpt><trkpt lat="44.4823567" lon="8.5940717"><ele>570.0</ele><time>2026-04-25T14:11:31.994Z</time></trkpt><trkpt lat="44.4822967" lon="8.59394"><ele>570.0</ele><time>2026-04-25T14:11:32.998Z</time></trkpt><trkpt lat="44.4822467" lon="8.59381"><ele>570.0</ele><time>2026-04-25T14:11:34.001Z</time></trkpt><trkpt lat="44.4822217" lon="8.59368"><ele>570.0</ele><time>2026-04-25T14:11:34.996Z</time></trkpt><trkpt lat="44.4822017" lon="8.5935533"><ele>570.0</ele><time>2026-04-25T14:11:35.992Z</time></trkpt><trkpt lat="44.4821967" lon="8.5934333"><ele>570.0</ele><time>2026-04-25T14:11:36.993Z</time></trkpt><trkpt lat="44.4822033" lon="8.593305"><ele>570.0</ele><time>2026-04-25T14:11:37.997Z</time></trkpt><trkpt lat="44.4822233" lon="8.593185"><ele>570.0</ele><time>2026-04-25T14:11:38.995Z</time></trkpt><trkpt lat="44.4822717" lon="8.5930683"><ele>570.0</ele><time>2026-04-25T14:11:39.998Z</time></trkpt><trkpt lat="44.4823283" lon="8.5929533"><ele>570.0</ele><time>2026-04-25T14:11:40.996Z</time></trkpt><trkpt lat="44.4824217" lon="8.5928667"><ele>570.0</ele><time>2026-04-25T14:11:41.997Z</time></trkpt><trkpt lat="44.4825067" lon="8.5927883"><ele>568.0</ele><time>2026-04-25T14:11:42.994Z</time></trkpt><trkpt lat="44.4826083" lon="8.592745"><ele>566.0</ele><time>2026-04-25T14:11:43.999Z</time></trkpt><trkpt lat="44.4826983" lon="8.592705"><ele>564.0</ele><time>2026-04-25T14:11:44.996Z</time></trkpt><trkpt lat="44.48281" lon="8.5927283"><ele>562.0</ele><time>2026-04-25T14:11:45.994Z</time></trkpt><trkpt lat="44.48293" lon="8.5927883"><ele>560.0</ele><time>2026-04-25T14:11:46.994Z</time></trkpt><trkpt lat="44.4830467" lon="8.5928033"><ele>560.0</ele><time>2026-04-25T14:11:47.994Z</time></trkpt><trkpt lat="44.48315" lon="8.59277"><ele>560.0</ele><time>2026-04-25T14:11:48.997Z</time></trkpt><trkpt lat="44.4832583" lon="8.5927383"><ele>560.0</ele><time>2026-04-25T14:11:49.995Z</time></trkpt><trkpt lat="44.4833567" lon="8.5927017"><ele>560.0</ele><time>2026-04-25T14:11:50.996Z</time></trkpt><trkpt lat="44.4834367" lon="8.592635"><ele>560.0</ele><time>2026-04-25T14:11:51.994Z</time></trkpt><trkpt lat="44.483515" lon="8.592545"><ele>560.0</ele><time>2026-04-25T14:11:52.999Z</time></trkpt><trkpt lat="44.4835867" lon="8.5924417"><ele>560.0</ele><time>2026-04-25T14:11:53.995Z</time></trkpt><trkpt lat="44.483665" lon="8.592345"><ele>560.0</ele><time>2026-04-25T14:11:54.996Z</time></trkpt><trkpt lat="44.4837467" lon="8.592255"><ele>560.0</ele><time>2026-04-25T14:11:55.994Z</time></trkpt><trkpt lat="44.4838283" lon="8.5921833"><ele>560.0</ele><time>2026-04-25T14:11:56.998Z</time></trkpt><trkpt lat="44.4839117" lon="8.592135"><ele>560.4</ele><time>2026-04-25T14:11:57.998Z</time></trkpt><trkpt lat="44.484005" lon="8.5921367"><ele>560.8</ele><time>2026-04-25T14:11:58.994Z</time></trkpt><trkpt lat="44.4840917" lon="8.5921633"><ele>561.2</ele><time>2026-04-25T14:11:59.994Z</time></trkpt><trkpt lat="44.4841917" lon="8.5922"><ele>561.6</ele><time>2026-04-25T14:12:00.997Z</time></trkpt><trkpt lat="44.484295" lon="8.59223"><ele>562.0</ele><time>2026-04-25T14:12:01.995Z</time></trkpt><trkpt lat="44.484405" lon="8.5922367"><ele>562.0</ele><time>2026-04-25T14:12:02.997Z</time></trkpt><trkpt lat="44.48451" lon="8.5922283"><ele>562.0</ele><time>2026-04-25T14:12:03.993Z</time></trkpt><trkpt lat="44.48462" lon="8.5922267"><ele>562.0</ele><time>2026-04-25T14:12:04.994Z</time></trkpt><trkpt lat="44.4847167" lon="8.59218"><ele>562.0</ele><time>2026-04-25T14:12:06.001Z</time></trkpt><trkpt lat="44.4848167" lon="8.59213"><ele>562.0</ele><time>2026-04-25T14:12:06.996Z</time></trkpt><trkpt lat="44.48492" lon="8.59208"><ele>561.2</ele><time>2026-04-25T14:12:07.993Z</time></trkpt><trkpt lat="44.4850283" lon="8.5920367"><ele>560.4000000000001</ele><time>2026-04-25T14:12:08.995Z</time></trkpt><trkpt lat="44.4851333" lon="8.5920017"><ele>559.5999999999999</ele><time>2026-04-25T14:12:09.995Z</time></trkpt><trkpt lat="44.48524" lon="8.5919833"><ele>558.8</ele><time>2026-04-25T14:12:10.996Z</time></trkpt><trkpt lat="44.485355" lon="8.5919533"><ele>558.0</ele><time>2026-04-25T14:12:12.001Z</time></trkpt><trkpt lat="44.4854617" lon="8.5919333"><ele>555.5</ele><time>2026-04-25T14:12:13.002Z</time></trkpt><trkpt lat="44.485545" lon="8.59197"><ele>553.0</ele><time>2026-04-25T14:12:13.995Z</time></trkpt><trkpt lat="44.48563" lon="8.59198"><ele>550.5</ele><time>2026-04-25T14:12:14.995Z</time></trkpt><trkpt lat="44.4856983" lon="8.5919517"><ele>548.0</ele><time>2026-04-25T14:12:16.002Z</time></trkpt><trkpt lat="44.48575" lon="8.591895"><ele>545.5</ele><time>2026-04-25T14:12:16.993Z</time></trkpt><trkpt lat="44.4857967" lon="8.591815"><ele>543.0</ele><time>2026-04-25T14:12:17.993Z</time></trkpt><trkpt lat="44.4858383" lon="8.5917217"><ele>543.0</ele><time>2026-04-25T14:12:18.997Z</time></trkpt><trkpt lat="44.48586" lon="8.5916233"><ele>543.0</ele><time>2026-04-25T14:12:19.995Z</time></trkpt><trkpt lat="44.4858967" lon="8.5915133"><ele>543.0</ele><time>2026-04-25T14:12:20.995Z</time></trkpt><trkpt lat="44.4859217" lon="8.5914"><ele>543.0</ele><time>2026-04-25T14:12:21.995Z</time></trkpt><trkpt lat="44.48596" lon="8.5912867"><ele>543.0</ele><time>2026-04-25T14:12:22.993Z</time></trkpt><trkpt lat="44.4860017" lon="8.5911867"><ele>543.0</ele><time>2026-04-25T14:12:23.994Z</time></trkpt><trkpt lat="44.4860417" lon="8.5910817"><ele>541.1666666666666</ele><time>2026-04-25T14:12:24.995Z</time></trkpt><trkpt lat="44.486085" lon="8.59098"><ele>539.3333333333334</ele><time>2026-04-25T14:12:25.995Z</time></trkpt><trkpt lat="44.4861233" lon="8.5908933"><ele>537.5</ele><time>2026-04-25T14:12:27.002Z</time></trkpt><trkpt lat="44.4861933" lon="8.5907633"><ele>535.6666666666667</ele><time>2026-04-25T14:12:28.994Z</time></trkpt><trkpt lat="44.4862333" lon="8.59069"><ele>533.8333333333334</ele><time>2026-04-25T14:12:30.995Z</time></trkpt><trkpt lat="44.486195" lon="8.5906183"><ele>532.0</ele><time>2026-04-25T14:12:46.992Z</time></trkpt><trkpt lat="44.4860833" lon="8.5905383"><ele>532.0</ele><time>2026-04-25T14:12:49Z</time></trkpt><trkpt lat="44.4859933" lon="8.59048"><ele>532.0</ele><time>2026-04-25T14:12:49.996Z</time></trkpt><trkpt lat="44.485905" lon="8.590425"><ele>532.0</ele><time>2026-04-25T14:12:50.996Z</time></trkpt><trkpt lat="44.4858083" lon="8.59037"><ele>532.0</ele><time>2026-04-25T14:12:51.993Z</time></trkpt><trkpt lat="44.48572" lon="8.59031"><ele>532.0</ele><time>2026-04-25T14:12:52.992Z</time></trkpt><trkpt lat="44.4856383" lon="8.5902367"><ele>531.8000000000001</ele><time>2026-04-25T14:12:53.996Z</time></trkpt><trkpt lat="44.4855667" lon="8.5901567"><ele>531.6</ele><time>2026-04-25T14:12:55Z</time></trkpt><trkpt lat="44.4854983" lon="8.59006"><ele>531.4000000000001</ele><time>2026-04-25T14:12:55.993Z</time></trkpt><trkpt lat="44.4854533" lon="8.5899017"><ele>531.2</ele><time>2026-04-25T14:12:56.993Z</time></trkpt><trkpt lat="44.485405" lon="8.589735"><ele>531.0</ele><time>2026-04-25T14:12:57.996Z</time></trkpt><trkpt lat="44.4853617" lon="8.589565"><ele>538.75</ele><time>2026-04-25T14:12:58.991Z</time></trkpt><trkpt lat="44.48532" lon="8.5893917"><ele>546.5</ele><time>2026-04-25T14:12:59.994Z</time></trkpt><trkpt lat="44.4852817" lon="8.5892183"><ele>554.25</ele><time>2026-04-25T14:13:00.993Z</time></trkpt><trkpt lat="44.4852467" lon="8.5890417"><ele>562.0</ele><time>2026-04-25T14:13:01.995Z</time></trkpt><trkpt lat="44.485235" lon="8.5888567"><ele>563.0</ele><time>2026-04-25T14:13:02.999Z</time></trkpt><trkpt lat="44.4852533" lon="8.588675"><ele>564.0</ele><time>2026-04-25T14:13:03.993Z</time></trkpt><trkpt lat="44.48529" lon="8.5884883"><ele>565.0</ele><time>2026-04-25T14:13:04.996Z</time></trkpt><trkpt lat="44.48534" lon="8.588305"><ele>566.0</ele><time>2026-04-25T14:13:05.994Z</time></trkpt><trkpt lat="44.485405" lon="8.5881217"><ele>561.0</ele><time>2026-04-25T14:13:06.996Z</time></trkpt><trkpt lat="44.4854833" lon="8.58794"><ele>556.0</ele><time>2026-04-25T14:13:07.992Z</time></trkpt><trkpt lat="44.485555" lon="8.5877633"><ele>551.0</ele><time>2026-04-25T14:13:08.994Z</time></trkpt><trkpt lat="44.4856267" lon="8.587605"><ele>546.0</ele><time>2026-04-25T14:13:09.996Z</time></trkpt><trkpt lat="44.4856917" lon="8.58746"><ele>546.0</ele><time>2026-04-25T14:13:10.994Z</time></trkpt><trkpt lat="44.4857633" lon="8.5873233"><ele>546.0</ele><time>2026-04-25T14:13:11.994Z</time></trkpt><trkpt lat="44.485845" lon="8.5871967"><ele>546.0</ele><time>2026-04-25T14:13:12.995Z</time></trkpt><trkpt lat="44.4859367" lon="8.587085"><ele>546.0</ele><time>2026-04-25T14:13:13.993Z</time></trkpt><trkpt lat="44.4860267" lon="8.5869733"><ele>547.4</ele><time>2026-04-25T14:13:14.996Z</time></trkpt><trkpt lat="44.48611" lon="8.5868817"><ele>548.8</ele><time>2026-04-25T14:13:15.999Z</time></trkpt><trkpt lat="44.4861917" lon="8.5868183"><ele>550.1999999999999</ele><time>2026-04-25T14:13:16.995Z</time></trkpt><trkpt lat="44.4862733" lon="8.5867783"><ele>551.6</ele><time>2026-04-25T14:13:17.994Z</time></trkpt><trkpt lat="44.4863683" lon="8.5867783"><ele>553.0</ele><time>2026-04-25T14:13:18.996Z</time></trkpt><trkpt lat="44.4864567" lon="8.586815"><ele>553.0</ele><time>2026-04-25T14:13:19.995Z</time></trkpt><trkpt lat="44.4865483" lon="8.586875"><ele>553.0</ele><time>2026-04-25T14:13:20.995Z</time></trkpt><trkpt lat="44.4866417" lon="8.58694"><ele>553.0</ele><time>2026-04-25T14:13:21.994Z</time></trkpt><trkpt lat="44.4867433" lon="8.587"><ele>553.0</ele><time>2026-04-25T14:13:22.993Z</time></trkpt><trkpt lat="44.486845" lon="8.5870583"><ele>553.0</ele><time>2026-04-25T14:13:24.001Z</time></trkpt><trkpt lat="44.4869433" lon="8.5871033"><ele>552.5</ele><time>2026-04-25T14:13:24.996Z</time></trkpt><trkpt lat="44.4870367" lon="8.58715"><ele>552.0</ele><time>2026-04-25T14:13:26Z</time></trkpt><trkpt lat="44.4871217" lon="8.5871933"><ele>551.5</ele><time>2026-04-25T14:13:26.995Z</time></trkpt><trkpt lat="44.4872067" lon="8.5871917"><ele>551.0</ele><time>2026-04-25T14:13:27.992Z</time></trkpt><trkpt lat="44.4872833" lon="8.58717"><ele>550.5</ele><time>2026-04-25T14:13:28.995Z</time></trkpt><trkpt lat="44.48735" lon="8.5871383"><ele>550.0</ele><time>2026-04-25T14:13:29.994Z</time></trkpt><trkpt lat="44.48746" lon="8.5870583"><ele>551.0</ele><time>2026-04-25T14:13:31.995Z</time></trkpt><trkpt lat="44.487505" lon="8.5869817"><ele>552.0</ele><time>2026-04-25T14:13:32.994Z</time></trkpt><trkpt lat="44.4875367" lon="8.586885"><ele>553.0</ele><time>2026-04-25T14:13:33.995Z</time></trkpt><trkpt lat="44.4875583" lon="8.58677"><ele>554.0</ele><time>2026-04-25T14:13:34.997Z</time></trkpt><trkpt lat="44.487575" lon="8.58662"><ele>555.0</ele><time>2026-04-25T14:13:35.995Z</time></trkpt><trkpt lat="44.4875733" lon="8.58644"><ele>555.0</ele><time>2026-04-25T14:13:36.995Z</time></trkpt><trkpt lat="44.48755" lon="8.58629"><ele>555.0</ele><time>2026-04-25T14:13:37.995Z</time></trkpt><trkpt lat="44.487525" lon="8.586175"><ele>555.0</ele><time>2026-04-25T14:13:39Z</time></trkpt><trkpt lat="44.4874733" lon="8.5860817"><ele>555.0</ele><time>2026-04-25T14:13:39.994Z</time></trkpt><trkpt lat="44.487405" lon="8.5860317"><ele>555.0</ele><time>2026-04-25T14:13:40.992Z</time></trkpt><trkpt lat="44.4873367" lon="8.5860067"><ele>555.0</ele><time>2026-04-25T14:13:41.993Z</time></trkpt><trkpt lat="44.4872383" lon="8.58603"><ele>556.75</ele><time>2026-04-25T14:13:42.996Z</time></trkpt><trkpt lat="44.487135" lon="8.586075"><ele>558.5</ele><time>2026-04-25T14:13:43.994Z</time></trkpt><trkpt lat="44.4869983" lon="8.58612"><ele>560.25</ele><time>2026-04-25T14:13:44.995Z</time></trkpt><trkpt lat="44.4868683" lon="8.5861417"><ele>562.0</ele><time>2026-04-25T14:13:45.992Z</time></trkpt><trkpt lat="44.4867433" lon="8.58616"><ele>562.25</ele><time>2026-04-25T14:13:46.994Z</time></trkpt><trkpt lat="44.4866083" lon="8.586185"><ele>562.5</ele><time>2026-04-25T14:13:47.995Z</time></trkpt><trkpt lat="44.48648" lon="8.5862233"><ele>562.75</ele><time>2026-04-25T14:13:48.997Z</time></trkpt><trkpt lat="44.4863617" lon="8.5862733"><ele>563.0</ele><time>2026-04-25T14:13:49.993Z</time></trkpt><trkpt lat="44.4862567" lon="8.5863117"><ele>563.0</ele><time>2026-04-25T14:13:50.994Z</time></trkpt><trkpt lat="44.4861617" lon="8.5863217"><ele>563.0</ele><time>2026-04-25T14:13:51.993Z</time></trkpt><trkpt lat="44.4860817" lon="8.5862967"><ele>563.0</ele><time>2026-04-25T14:13:52.997Z</time></trkpt><trkpt lat="44.48605" lon="8.5862"><ele>563.0</ele><time>2026-04-25T14:13:53.996Z</time></trkpt><trkpt lat="44.486035" lon="8.5861"><ele>563.0</ele><time>2026-04-25T14:13:54.995Z</time></trkpt><trkpt lat="44.48605" lon="8.5859917"><ele>563.0</ele><time>2026-04-25T14:13:55.994Z</time></trkpt><trkpt lat="44.48606" lon="8.5858983"><ele>564.5</ele><time>2026-04-25T14:13:56.996Z</time></trkpt><trkpt lat="44.486145" lon="8.58584"><ele>566.0</ele><time>2026-04-25T14:13:57.998Z</time></trkpt><trkpt lat="44.4862533" lon="8.5857983"><ele>567.5</ele><time>2026-04-25T14:13:58.997Z</time></trkpt><trkpt lat="44.4863717" lon="8.585795"><ele>569.0</ele><time>2026-04-25T14:13:59.996Z</time></trkpt><trkpt lat="44.4865283" lon="8.5858317"><ele>569.0</ele><time>2026-04-25T14:14:00.995Z</time></trkpt><trkpt lat="44.4866767" lon="8.58583"><ele>569.0</ele><time>2026-04-25T14:14:02.003Z</time></trkpt><trkpt lat="44.4868167" lon="8.5857933"><ele>569.0</ele><time>2026-04-25T14:14:03Z</time></trkpt><trkpt lat="44.486955" lon="8.5857383"><ele>569.0</ele><time>2026-04-25T14:14:03.995Z</time></trkpt><trkpt lat="44.4870917" lon="8.58567"><ele>567.25</ele><time>2026-04-25T14:14:04.994Z</time></trkpt><trkpt lat="44.4872217" lon="8.5855767"><ele>565.5</ele><time>2026-04-25T14:14:05.994Z</time></trkpt><trkpt lat="44.48734" lon="8.5854567"><ele>563.75</ele><time>2026-04-25T14:14:06.995Z</time></trkpt><trkpt lat="44.4874517" lon="8.58533"><ele>562.0</ele><time>2026-04-25T14:14:07.998Z</time></trkpt><trkpt lat="44.4875667" lon="8.5852217"><ele>564.75</ele><time>2026-04-25T14:14:08.998Z</time></trkpt><trkpt lat="44.4876883" lon="8.5851217"><ele>567.5</ele><time>2026-04-25T14:14:10Z</time></trkpt><trkpt lat="44.4877933" lon="8.58502"><ele>570.25</ele><time>2026-04-25T14:14:10.991Z</time></trkpt><trkpt lat="44.487875" lon="8.5849217"><ele>573.0</ele><time>2026-04-25T14:14:12Z</time></trkpt><trkpt lat="44.4879417" lon="8.5848183"><ele>573.0</ele><time>2026-04-25T14:14:12.996Z</time></trkpt><trkpt lat="44.48801" lon="8.584725"><ele>573.0</ele><time>2026-04-25T14:14:13.993Z</time></trkpt><trkpt lat="44.488085" lon="8.5846417"><ele>573.0</ele><time>2026-04-25T14:14:14.995Z</time></trkpt><trkpt lat="44.4881733" lon="8.584575"><ele>573.0</ele><time>2026-04-25T14:14:15.995Z</time></trkpt><trkpt lat="44.4882767" lon="8.584565"><ele>573.0</ele><time>2026-04-25T14:14:16.992Z</time></trkpt><trkpt lat="44.4883833" lon="8.5845867"><ele>573.0</ele><time>2026-04-25T14:14:17.992Z</time></trkpt><trkpt lat="44.4884933" lon="8.5846317"><ele>573.0</ele><time>2026-04-25T14:14:18.999Z</time></trkpt><trkpt lat="44.488605" lon="8.5846833"><ele>573.0</ele><time>2026-04-25T14:14:19.992Z</time></trkpt><trkpt lat="44.4887083" lon="8.5847333"><ele>573.0</ele><time>2026-04-25T14:14:20.993Z</time></trkpt><trkpt lat="44.488795" lon="8.584805"><ele>573.0</ele><time>2026-04-25T14:14:21.995Z</time></trkpt><trkpt lat="44.48886" lon="8.584895"><ele>576.5</ele><time>2026-04-25T14:14:22.992Z</time></trkpt><trkpt lat="44.4889083" lon="8.5850033"><ele>580.0</ele><time>2026-04-25T14:14:23.992Z</time></trkpt><trkpt lat="44.4889517" lon="8.5851217"><ele>583.5</ele><time>2026-04-25T14:14:24.992Z</time></trkpt><trkpt lat="44.4889767" lon="8.5853067"><ele>587.0</ele><time>2026-04-25T14:14:25.992Z</time></trkpt><trkpt lat="44.48903" lon="8.585495"><ele>587.0</ele><time>2026-04-25T14:14:26.992Z</time></trkpt><trkpt lat="44.4891" lon="8.5857083"><ele>587.0</ele><time>2026-04-25T14:14:27.993Z</time></trkpt><trkpt lat="44.4891833" lon="8.585925"><ele>587.0</ele><time>2026-04-25T14:14:28.994Z</time></trkpt><trkpt lat="44.4892583" lon="8.5861383"><ele>583.0</ele><time>2026-04-25T14:14:29.996Z</time></trkpt><trkpt lat="44.4893167" lon="8.5863317"><ele>579.0</ele><time>2026-04-25T14:14:30.992Z</time></trkpt><trkpt lat="44.4893567" lon="8.58649"><ele>575.0</ele><time>2026-04-25T14:14:31.994Z</time></trkpt><trkpt lat="44.4894117" lon="8.58662"><ele>571.0</ele><time>2026-04-25T14:14:32.994Z</time></trkpt><trkpt lat="44.489475" lon="8.5867233"><ele>571.0</ele><time>2026-04-25T14:14:33.992Z</time></trkpt><trkpt lat="44.4895617" lon="8.5867933"><ele>571.0</ele><time>2026-04-25T14:14:34.993Z</time></trkpt><trkpt lat="44.489655" lon="8.5868367"><ele>571.0</ele><time>2026-04-25T14:14:35.995Z</time></trkpt><trkpt lat="44.489745" lon="8.5868083"><ele>571.0</ele><time>2026-04-25T14:14:36.994Z</time></trkpt><trkpt lat="44.4898417" lon="8.5867583"><ele>571.0</ele><time>2026-04-25T14:14:37.993Z</time></trkpt><trkpt lat="44.4899267" lon="8.5866967"><ele>575.4</ele><time>2026-04-25T14:14:38.995Z</time></trkpt><trkpt lat="44.4900083" lon="8.5866317"><ele>579.8</ele><time>2026-04-25T14:14:39.996Z</time></trkpt><trkpt lat="44.4900967" lon="8.586585"><ele>584.1999999999999</ele><time>2026-04-25T14:14:40.997Z</time></trkpt><trkpt lat="44.49019" lon="8.586575"><ele>588.6</ele><time>2026-04-25T14:14:41.992Z</time></trkpt><trkpt lat="44.49028" lon="8.586585"><ele>593.0</ele><time>2026-04-25T14:14:42.994Z</time></trkpt><trkpt lat="44.4903867" lon="8.5866067"><ele>593.1999999999999</ele><time>2026-04-25T14:14:43.993Z</time></trkpt><trkpt lat="44.490485" lon="8.586635"><ele>593.4</ele><time>2026-04-25T14:14:44.995Z</time></trkpt><trkpt lat="44.4905783" lon="8.586655"><ele>593.5999999999999</ele><time>2026-04-25T14:14:45.998Z</time></trkpt><trkpt lat="44.4906917" lon="8.5866967"><ele>593.8</ele><time>2026-04-25T14:14:46.992Z</time></trkpt><trkpt lat="44.490795" lon="8.5866833"><ele>594.0</ele><time>2026-04-25T14:14:47.995Z</time></trkpt><trkpt lat="44.4908733" lon="8.58662"><ele>594.0</ele><time>2026-04-25T14:14:48.997Z</time></trkpt><trkpt lat="44.4909417" lon="8.5865283"><ele>594.0</ele><time>2026-04-25T14:14:49.994Z</time></trkpt><trkpt lat="44.4910167" lon="8.5864267"><ele>594.0</ele><time>2026-04-25T14:14:50.994Z</time></trkpt><trkpt lat="44.4910933" lon="8.5863183"><ele>594.0</ele><time>2026-04-25T14:14:51.992Z</time></trkpt><trkpt lat="44.49116" lon="8.5862117"><ele>594.0</ele><time>2026-04-25T14:14:52.997Z</time></trkpt><trkpt lat="44.491215" lon="8.5861183"><ele>594.8333333333334</ele><time>2026-04-25T14:14:53.998Z</time></trkpt><trkpt lat="44.4912667" lon="8.5860417"><ele>595.6666666666666</ele><time>2026-04-25T14:14:54.998Z</time></trkpt><trkpt lat="44.491325" lon="8.585915"><ele>596.5</ele><time>2026-04-25T14:14:56.999Z</time></trkpt><trkpt lat="44.4913517" lon="8.5858167"><ele>597.3333333333333</ele><time>2026-04-25T14:14:59.995Z</time></trkpt><trkpt lat="44.49137" lon="8.5857267"><ele>598.1666666666666</ele><time>2026-04-25T14:15:35.997Z</time></trkpt><trkpt lat="44.4914067" lon="8.585645"><ele>599.0</ele><time>2026-04-25T14:15:37.99Z</time></trkpt><trkpt lat="44.4914667" lon="8.5855567"><ele>599.0</ele><time>2026-04-25T14:15:39.991Z</time></trkpt><trkpt lat="44.4915433" lon="8.5854617"><ele>599.0</ele><time>2026-04-25T14:15:41.999Z</time></trkpt><trkpt lat="44.4915983" lon="8.5854117"><ele>599.0</ele><time>2026-04-25T14:15:42.995Z</time></trkpt><trkpt lat="44.4916683" lon="8.5853767"><ele>599.0</ele><time>2026-04-25T14:15:43.996Z</time></trkpt><trkpt lat="44.4917467" lon="8.5853433"><ele>599.0</ele><time>2026-04-25T14:15:44.995Z</time></trkpt><trkpt lat="44.49183" lon="8.58531"><ele>599.0</ele><time>2026-04-25T14:15:45.998Z</time></trkpt><trkpt lat="44.4919183" lon="8.58528"><ele>599.8</ele><time>2026-04-25T14:15:46.993Z</time></trkpt><trkpt lat="44.49201" lon="8.5852683"><ele>600.5999999999999</ele><time>2026-04-25T14:15:48.008Z</time></trkpt><trkpt lat="44.4920983" lon="8.5852767"><ele>601.4</ele><time>2026-04-25T14:15:48.995Z</time></trkpt><trkpt lat="44.4921867" lon="8.5853183"><ele>602.1999999999999</ele><time>2026-04-25T14:15:49.995Z</time></trkpt><trkpt lat="44.492285" lon="8.585385"><ele>603.0</ele><time>2026-04-25T14:15:50.997Z</time></trkpt><trkpt lat="44.4923883" lon="8.5854683"><ele>603.0</ele><time>2026-04-25T14:15:51.995Z</time></trkpt><trkpt lat="44.4924917" lon="8.5855667"><ele>603.0</ele><time>2026-04-25T14:15:52.994Z</time></trkpt><trkpt lat="44.49259" lon="8.5856767"><ele>603.0</ele><time>2026-04-25T14:15:53.996Z</time></trkpt><trkpt lat="44.4926967" lon="8.5857867"><ele>603.0</ele><time>2026-04-25T14:15:54.995Z</time></trkpt><trkpt lat="44.4928083" lon="8.5858833"><ele>603.0</ele><time>2026-04-25T14:15:55.995Z</time></trkpt><trkpt lat="44.49292" lon="8.585995"><ele>603.0</ele><time>2026-04-25T14:15:56.994Z</time></trkpt><trkpt lat="44.4930383" lon="8.58611"><ele>603.0</ele><time>2026-04-25T14:15:57.998Z</time></trkpt><trkpt lat="44.4931567" lon="8.5862283"><ele>603.0</ele><time>2026-04-25T14:15:58.993Z</time></trkpt><trkpt lat="44.4932733" lon="8.5863417"><ele>604.0</ele><time>2026-04-25T14:15:59.992Z</time></trkpt><trkpt lat="44.4933817" lon="8.586455"><ele>605.0</ele><time>2026-04-25T14:16:00.997Z</time></trkpt><trkpt lat="44.4934867" lon="8.5865733"><ele>606.0</ele><time>2026-04-25T14:16:01.996Z</time></trkpt><trkpt lat="44.493585" lon="8.5867017"><ele>607.0</ele><time>2026-04-25T14:16:02.994Z</time></trkpt><trkpt lat="44.493685" lon="8.586825"><ele>608.75</ele><time>2026-04-25T14:16:03.993Z</time></trkpt><trkpt lat="44.4937667" lon="8.5869683"><ele>610.5</ele><time>2026-04-25T14:16:04.995Z</time></trkpt><trkpt lat="44.4938233" lon="8.58713"><ele>612.25</ele><time>2026-04-25T14:16:05.993Z</time></trkpt><trkpt lat="44.4938583" lon="8.587295"><ele>614.0</ele><time>2026-04-25T14:16:06.999Z</time></trkpt><trkpt lat="44.49389" lon="8.587455"><ele>614.0</ele><time>2026-04-25T14:16:07.996Z</time></trkpt><trkpt lat="44.4939333" lon="8.5876167"><ele>614.0</ele><time>2026-04-25T14:16:08.998Z</time></trkpt><trkpt lat="44.4939883" lon="8.5877517"><ele>614.0</ele><time>2026-04-25T14:16:09.995Z</time></trkpt><trkpt lat="44.4940583" lon="8.5878483"><ele>614.0</ele><time>2026-04-25T14:16:10.994Z</time></trkpt><trkpt lat="44.4941417" lon="8.587885"><ele>614.0</ele><time>2026-04-25T14:16:11.999Z</time></trkpt><trkpt lat="44.4942233" lon="8.5878617"><ele>614.0</ele><time>2026-04-25T14:16:12.998Z</time></trkpt><trkpt lat="44.494295" lon="8.5878267"><ele>614.0</ele><time>2026-04-25T14:16:13.996Z</time></trkpt><trkpt lat="44.494355" lon="8.5877533"><ele>614.0</ele><time>2026-04-25T14:16:14.995Z</time></trkpt><trkpt lat="44.4943867" lon="8.5876217"><ele>614.0</ele><time>2026-04-25T14:16:15.994Z</time></trkpt><trkpt lat="44.4944" lon="8.5874783"><ele>614.0</ele><time>2026-04-25T14:16:16.999Z</time></trkpt><trkpt lat="44.4943467" lon="8.5872517"><ele>614.0</ele><time>2026-04-25T14:16:17.995Z</time></trkpt><trkpt lat="44.4943167" lon="8.5870567"><ele>614.0</ele><time>2026-04-25T14:16:18.995Z</time></trkpt><trkpt lat="44.4942733" lon="8.58688"><ele>614.0</ele><time>2026-04-25T14:16:19.996Z</time></trkpt><trkpt lat="44.4942217" lon="8.58672"><ele>614.0</ele><time>2026-04-25T14:16:20.992Z</time></trkpt><trkpt lat="44.4941417" lon="8.586595"><ele>612.25</ele><time>2026-04-25T14:16:21.997Z</time></trkpt><trkpt lat="44.4940417" lon="8.5864867"><ele>610.5</ele><time>2026-04-25T14:16:22.994Z</time></trkpt><trkpt lat="44.4939333" lon="8.586405"><ele>608.75</ele><time>2026-04-25T14:16:23.999Z</time></trkpt><trkpt lat="44.49383" lon="8.586325"><ele>607.0</ele><time>2026-04-25T14:16:24.999Z</time></trkpt><trkpt lat="44.4937467" lon="8.5862383"><ele>609.2</ele><time>2026-04-25T14:16:26.002Z</time></trkpt><trkpt lat="44.4936817" lon="8.58614"><ele>611.4000000000001</ele><time>2026-04-25T14:16:27Z</time></trkpt><trkpt lat="44.4936517" lon="8.585995"><ele>613.5999999999999</ele><time>2026-04-25T14:16:27.995Z</time></trkpt><trkpt lat="44.4936433" lon="8.5858567"><ele>615.8</ele><time>2026-04-25T14:16:28.995Z</time></trkpt><trkpt lat="44.4936417" lon="8.5857233"><ele>618.0</ele><time>2026-04-25T14:16:29.996Z</time></trkpt><trkpt lat="44.4936683" lon="8.585545"><ele>618.0</ele><time>2026-04-25T14:16:30.996Z</time></trkpt><trkpt lat="44.4937133" lon="8.5853867"><ele>618.0</ele><time>2026-04-25T14:16:31.996Z</time></trkpt><trkpt lat="44.49374" lon="8.58523"><ele>618.0</ele><time>2026-04-25T14:16:33Z</time></trkpt><trkpt lat="44.4937317" lon="8.58511"><ele>618.0</ele><time>2026-04-25T14:16:33.997Z</time></trkpt><trkpt lat="44.4936867" lon="8.5849667"><ele>618.0</ele><time>2026-04-25T14:16:34.994Z</time></trkpt><trkpt lat="44.4936083" lon="8.58485"><ele>620.25</ele><time>2026-04-25T14:16:36Z</time></trkpt><trkpt lat="44.4935183" lon="8.5847233"><ele>622.5</ele><time>2026-04-25T14:16:36.995Z</time></trkpt><trkpt lat="44.4934233" lon="8.5845817"><ele>624.75</ele><time>2026-04-25T14:16:37.997Z</time></trkpt><trkpt lat="44.4933267" lon="8.5844367"><ele>627.0</ele><time>2026-04-25T14:16:39Z</time></trkpt><trkpt lat="44.493235" lon="8.5842867"><ele>628.5</ele><time>2026-04-25T14:16:39.997Z</time></trkpt><trkpt lat="44.4931483" lon="8.5841383"><ele>630.0</ele><time>2026-04-25T14:16:40.994Z</time></trkpt><trkpt lat="44.49307" lon="8.5840033"><ele>631.5</ele><time>2026-04-25T14:16:41.995Z</time></trkpt><trkpt lat="44.4929917" lon="8.5839"><ele>633.0</ele><time>2026-04-25T14:16:42.996Z</time></trkpt><trkpt lat="44.4929033" lon="8.58385"><ele>633.0</ele><time>2026-04-25T14:16:43.995Z</time></trkpt><trkpt lat="44.492815" lon="8.583815"><ele>633.0</ele><time>2026-04-25T14:16:44.998Z</time></trkpt><trkpt lat="44.4927083" lon="8.5838333"><ele>633.0</ele><time>2026-04-25T14:16:45.995Z</time></trkpt><trkpt lat="44.492595" lon="8.5838617"><ele>633.0</ele><time>2026-04-25T14:16:47.001Z</time></trkpt><trkpt lat="44.4924783" lon="8.5838733"><ele>633.0</ele><time>2026-04-25T14:16:47.997Z</time></trkpt><trkpt lat="44.4923633" lon="8.583875"><ele>633.0</ele><time>2026-04-25T14:16:48.997Z</time></trkpt><trkpt lat="44.4922533" lon="8.5838633"><ele>633.0</ele><time>2026-04-25T14:16:49.994Z</time></trkpt><trkpt lat="44.4921733" lon="8.5838183"><ele>633.0</ele><time>2026-04-25T14:16:50.999Z</time></trkpt><trkpt lat="44.492115" lon="8.5837383"><ele>633.0</ele><time>2026-04-25T14:16:51.999Z</time></trkpt><trkpt lat="44.492045" lon="8.5836733"><ele>633.0</ele><time>2026-04-25T14:16:53Z</time></trkpt><trkpt lat="44.4919817" lon="8.5835683"><ele>637.0</ele><time>2026-04-25T14:16:53.994Z</time></trkpt><trkpt lat="44.4919633" lon="8.58332"><ele>641.0</ele><time>2026-04-25T14:16:54.995Z</time></trkpt><trkpt lat="44.49188" lon="8.5832167"><ele>645.0</ele><time>2026-04-25T14:16:55.996Z</time></trkpt><trkpt lat="44.4917683" lon="8.5831533"><ele>649.0</ele><time>2026-04-25T14:16:56.995Z</time></trkpt><trkpt lat="44.4916617" lon="8.5830783"><ele>649.0</ele><time>2026-04-25T14:16:57.998Z</time></trkpt><trkpt lat="44.49154" lon="8.5830733"><ele>649.0</ele><time>2026-04-25T14:16:59Z</time></trkpt><trkpt lat="44.4914067" lon="8.5830667"><ele>649.0</ele><time>2026-04-25T14:17:00.004Z</time></trkpt><trkpt lat="44.491265" lon="8.5830467"><ele>649.0</ele><time>2026-04-25T14:17:00.996Z</time></trkpt><trkpt lat="44.4911133" lon="8.5830233"><ele>649.3333333333334</ele><time>2026-04-25T14:17:02Z</time></trkpt><trkpt lat="44.4909633" lon="8.5829933"><ele>649.6666666666666</ele><time>2026-04-25T14:17:03Z</time></trkpt><trkpt lat="44.4908083" lon="8.58297"><ele>650.0</ele><time>2026-04-25T14:17:03.999Z</time></trkpt><trkpt lat="44.49065" lon="8.5829433"><ele>650.0</ele><time>2026-04-25T14:17:04.997Z</time></trkpt><trkpt lat="44.4904933" lon="8.582915"><ele>650.0</ele><time>2026-04-25T14:17:05.996Z</time></trkpt><trkpt lat="44.4903517" lon="8.5828817"><ele>650.0</ele><time>2026-04-25T14:17:06.995Z</time></trkpt><trkpt lat="44.4902183" lon="8.5828417"><ele>650.0</ele><time>2026-04-25T14:17:07.995Z</time></trkpt><trkpt lat="44.4900967" lon="8.5828033"><ele>652.5</ele><time>2026-04-25T14:17:08.997Z</time></trkpt><trkpt lat="44.4899817" lon="8.582765"><ele>655.0</ele><time>2026-04-25T14:17:09.996Z</time></trkpt><trkpt lat="44.4898917" lon="8.582685"><ele>657.5</ele><time>2026-04-25T14:17:10.993Z</time></trkpt><trkpt lat="44.4898133" lon="8.582565"><ele>660.0</ele><time>2026-04-25T14:17:11.998Z</time></trkpt><trkpt lat="44.489735" lon="8.5824367"><ele>660.0</ele><time>2026-04-25T14:17:12.994Z</time></trkpt><trkpt lat="44.4896717" lon="8.5822967"><ele>660.0</ele><time>2026-04-25T14:17:13.993Z</time></trkpt><trkpt lat="44.489615" lon="8.5821583"><ele>660.0</ele><time>2026-04-25T14:17:14.994Z</time></trkpt><trkpt lat="44.4895783" lon="8.5820267"><ele>660.0</ele><time>2026-04-25T14:17:15.997Z</time></trkpt><trkpt lat="44.4895283" lon="8.58192"><ele>660.0</ele><time>2026-04-25T14:17:16.996Z</time></trkpt><trkpt lat="44.4894667" lon="8.5818383"><ele>660.8</ele><time>2026-04-25T14:17:17.999Z</time></trkpt><trkpt lat="44.48939" lon="8.58179"><ele>661.6</ele><time>2026-04-25T14:17:18.996Z</time></trkpt><trkpt lat="44.48928" lon="8.581785"><ele>662.4000000000001</ele><time>2026-04-25T14:17:20Z</time></trkpt><trkpt lat="44.48918" lon="8.5817967"><ele>663.2</ele><time>2026-04-25T14:17:20.995Z</time></trkpt><trkpt lat="44.489095" lon="8.5817933"><ele>664.0</ele><time>2026-04-25T14:17:21.998Z</time></trkpt><trkpt lat="44.489025" lon="8.58177"><ele>664.0</ele><time>2026-04-25T14:17:22.998Z</time></trkpt><trkpt lat="44.4889633" lon="8.5817233"><ele>664.0</ele><time>2026-04-25T14:17:23.995Z</time></trkpt><trkpt lat="44.4889167" lon="8.5816383"><ele>664.0</ele><time>2026-04-25T14:17:25.001Z</time></trkpt><trkpt lat="44.488875" lon="8.5815367"><ele>664.0</ele><time>2026-04-25T14:17:25.995Z</time></trkpt><trkpt lat="44.488855" lon="8.5813683"><ele>664.0</ele><time>2026-04-25T14:17:26.995Z</time></trkpt><trkpt lat="44.4888667" lon="8.5811733"><ele>665.0</ele><time>2026-04-25T14:17:27.999Z</time></trkpt><trkpt lat="44.488915" lon="8.5809817"><ele>666.0</ele><time>2026-04-25T14:17:28.997Z</time></trkpt><trkpt lat="44.4889383" lon="8.5807833"><ele>667.0</ele><time>2026-04-25T14:17:29.997Z</time></trkpt><trkpt lat="44.488945" lon="8.5805983"><ele>668.0</ele><time>2026-04-25T14:17:30.996Z</time></trkpt><trkpt lat="44.4889267" lon="8.58042"><ele>667.25</ele><time>2026-04-25T14:17:31.998Z</time></trkpt><trkpt lat="44.4889133" lon="8.5802467"><ele>666.5</ele><time>2026-04-25T14:17:32.999Z</time></trkpt><trkpt lat="44.48891" lon="8.580075"><ele>665.75</ele><time>2026-04-25T14:17:33.995Z</time></trkpt><trkpt lat="44.4889183" lon="8.579905"><ele>665.0</ele><time>2026-04-25T14:17:34.998Z</time></trkpt><trkpt lat="44.4889483" lon="8.5797417"><ele>665.0</ele><time>2026-04-25T14:17:35.997Z</time></trkpt><trkpt lat="44.48901" lon="8.5795817"><ele>665.0</ele><time>2026-04-25T14:17:36.998Z</time></trkpt><trkpt lat="44.4890833" lon="8.5794233"><ele>665.0</ele><time>2026-04-25T14:17:37.996Z</time></trkpt><trkpt lat="44.4891733" lon="8.5792833"><ele>665.0</ele><time>2026-04-25T14:17:38.997Z</time></trkpt><trkpt lat="44.489275" lon="8.5791633"><ele>664.25</ele><time>2026-04-25T14:17:39.995Z</time></trkpt><trkpt lat="44.4893867" lon="8.5790517"><ele>663.5</ele><time>2026-04-25T14:17:40.996Z</time></trkpt><trkpt lat="44.4895033" lon="8.578945"><ele>662.75</ele><time>2026-04-25T14:17:41.997Z</time></trkpt><trkpt lat="44.4896067" lon="8.5788417"><ele>662.0</ele><time>2026-04-25T14:17:42.996Z</time></trkpt><trkpt lat="44.4896917" lon="8.57872"><ele>663.0</ele><time>2026-04-25T14:17:43.996Z</time></trkpt><trkpt lat="44.4897517" lon="8.5785817"><ele>664.0</ele><time>2026-04-25T14:17:44.999Z</time></trkpt><trkpt lat="44.4897783" lon="8.5784433"><ele>665.0</ele><time>2026-04-25T14:17:45.998Z</time></trkpt><trkpt lat="44.4897733" lon="8.578295"><ele>666.0</ele><time>2026-04-25T14:17:46.996Z</time></trkpt><trkpt lat="44.48974" lon="8.578135"><ele>667.0</ele><time>2026-04-25T14:17:47.994Z</time></trkpt><trkpt lat="44.489685" lon="8.5779767"><ele>665.75</ele><time>2026-04-25T14:17:48.996Z</time></trkpt><trkpt lat="44.4896183" lon="8.5778217"><ele>664.5</ele><time>2026-04-25T14:17:49.996Z</time></trkpt><trkpt lat="44.4895283" lon="8.5776733"><ele>663.25</ele><time>2026-04-25T14:17:50.994Z</time></trkpt><trkpt lat="44.4894033" lon="8.57756"><ele>662.0</ele><time>2026-04-25T14:17:51.994Z</time></trkpt><trkpt lat="44.4892733" lon="8.5774517"><ele>665.3333333333333</ele><time>2026-04-25T14:17:52.998Z</time></trkpt><trkpt lat="44.4891267" lon="8.5773633"><ele>668.6666666666666</ele><time>2026-04-25T14:17:53.994Z</time></trkpt><trkpt lat="44.4889817" lon="8.57727"><ele>672.0</ele><time>2026-04-25T14:17:54.996Z</time></trkpt><trkpt lat="44.488835" lon="8.5771783"><ele>673.0</ele><time>2026-04-25T14:17:55.996Z</time></trkpt><trkpt lat="44.4886917" lon="8.5770883"><ele>674.0</ele><time>2026-04-25T14:17:56.999Z</time></trkpt><trkpt lat="44.4885483" lon="8.57701"><ele>675.0</ele><time>2026-04-25T14:17:57.997Z</time></trkpt><trkpt lat="44.488385" lon="8.576965"><ele>675.0</ele><time>2026-04-25T14:17:58.994Z</time></trkpt><trkpt lat="44.4882267" lon="8.5769517"><ele>675.0</ele><time>2026-04-25T14:17:59.998Z</time></trkpt><trkpt lat="44.488075" lon="8.576965"><ele>675.0</ele><time>2026-04-25T14:18:01Z</time></trkpt><trkpt lat="44.4879217" lon="8.5770067"><ele>678.0</ele><time>2026-04-25T14:18:01.997Z</time></trkpt><trkpt lat="44.4877767" lon="8.57707"><ele>681.0</ele><time>2026-04-25T14:18:02.996Z</time></trkpt><trkpt lat="44.487655" lon="8.577155"><ele>684.0</ele><time>2026-04-25T14:18:03.999Z</time></trkpt><trkpt lat="44.4875317" lon="8.5772717"><ele>687.0</ele><time>2026-04-25T14:18:04.994Z</time></trkpt><trkpt lat="44.4874117" lon="8.5773833"><ele>687.0</ele><time>2026-04-25T14:18:05.995Z</time></trkpt><trkpt lat="44.4872867" lon="8.5774583"><ele>687.0</ele><time>2026-04-25T14:18:06.995Z</time></trkpt><trkpt lat="44.48716" lon="8.57752"><ele>687.0</ele><time>2026-04-25T14:18:07.996Z</time></trkpt><trkpt lat="44.4870417" lon="8.57758"><ele>687.0</ele><time>2026-04-25T14:18:09.001Z</time></trkpt><trkpt lat="44.4869283" lon="8.57762"><ele>687.5</ele><time>2026-04-25T14:18:09.998Z</time></trkpt><trkpt lat="44.4867983" lon="8.5776133"><ele>688.0</ele><time>2026-04-25T14:18:10.994Z</time></trkpt><trkpt lat="44.4866617" lon="8.5776183"><ele>688.5</ele><time>2026-04-25T14:18:11.995Z</time></trkpt><trkpt lat="44.48653" lon="8.5776333"><ele>689.0</ele><time>2026-04-25T14:18:12.996Z</time></trkpt><trkpt lat="44.4864083" lon="8.57765"><ele>689.0</ele><time>2026-04-25T14:18:13.994Z</time></trkpt><trkpt lat="44.4862967" lon="8.5776683"><ele>689.0</ele><time>2026-04-25T14:18:14.994Z</time></trkpt><trkpt lat="44.4861967" lon="8.57767"><ele>689.0</ele><time>2026-04-25T14:18:15.995Z</time></trkpt><trkpt lat="44.4861267" lon="8.57764"><ele>689.0</ele><time>2026-04-25T14:18:16.993Z</time></trkpt><trkpt lat="44.486065" lon="8.577595"><ele>689.0</ele><time>2026-04-25T14:18:17.996Z</time></trkpt><trkpt lat="44.4860183" lon="8.5775267"><ele>689.0</ele><time>2026-04-25T14:18:18.992Z</time></trkpt><trkpt lat="44.486025" lon="8.5774017"><ele>689.8000000000001</ele><time>2026-04-25T14:18:19.993Z</time></trkpt><trkpt lat="44.4860567" lon="8.5773017"><ele>690.6</ele><time>2026-04-25T14:18:20.997Z</time></trkpt><trkpt lat="44.4861017" lon="8.5772033"><ele>691.4</ele><time>2026-04-25T14:18:21.999Z</time></trkpt><trkpt lat="44.4861617" lon="8.5771167"><ele>692.2</ele><time>2026-04-25T14:18:22.996Z</time></trkpt><trkpt lat="44.486245" lon="8.5770383"><ele>693.0</ele><time>2026-04-25T14:18:23.994Z</time></trkpt><trkpt lat="44.4863583" lon="8.57696"><ele>693.0</ele><time>2026-04-25T14:18:24.997Z</time></trkpt><trkpt lat="44.4864983" lon="8.5768717"><ele>693.0</ele><time>2026-04-25T14:18:25.994Z</time></trkpt><trkpt lat="44.4866" lon="8.5767767"><ele>693.0</ele><time>2026-04-25T14:18:26.997Z</time></trkpt><trkpt lat="44.4866883" lon="8.576665"><ele>693.0</ele><time>2026-04-25T14:18:27.997Z</time></trkpt><trkpt lat="44.486745" lon="8.5765433"><ele>693.0</ele><time>2026-04-25T14:18:28.994Z</time></trkpt><trkpt lat="44.4867683" lon="8.5764083"><ele>693.0</ele><time>2026-04-25T14:18:29.996Z</time></trkpt><trkpt lat="44.48677" lon="8.57626"><ele>693.0</ele><time>2026-04-25T14:18:30.994Z</time></trkpt><trkpt lat="44.486745" lon="8.5761167"><ele>693.0</ele><time>2026-04-25T14:18:31.993Z</time></trkpt><trkpt lat="44.4866733" lon="8.5760033"><ele>693.0</ele><time>2026-04-25T14:18:33Z</time></trkpt><trkpt lat="44.4865767" lon="8.5759167"><ele>693.25</ele><time>2026-04-25T14:18:33.999Z</time></trkpt><trkpt lat="44.4864583" lon="8.5758767"><ele>693.5</ele><time>2026-04-25T14:18:34.996Z</time></trkpt><trkpt lat="44.4863417" lon="8.575865"><ele>693.75</ele><time>2026-04-25T14:18:35.993Z</time></trkpt><trkpt lat="44.4862067" lon="8.575875"><ele>694.0</ele><time>2026-04-25T14:18:36.995Z</time></trkpt><trkpt lat="44.4860667" lon="8.5758933"><ele>695.25</ele><time>2026-04-25T14:18:37.995Z</time></trkpt><trkpt lat="44.485925" lon="8.5759117"><ele>696.5</ele><time>2026-04-25T14:18:38.995Z</time></trkpt><trkpt lat="44.4857833" lon="8.575915"><ele>697.75</ele><time>2026-04-25T14:18:39.994Z</time></trkpt><trkpt lat="44.4856467" lon="8.57591"><ele>699.0</ele><time>2026-04-25T14:18:40.995Z</time></trkpt><trkpt lat="44.4855133" lon="8.5758983"><ele>702.25</ele><time>2026-04-25T14:18:41.997Z</time></trkpt><trkpt lat="44.4853833" lon="8.57586"><ele>705.5</ele><time>2026-04-25T14:18:42.997Z</time></trkpt><trkpt lat="44.485255" lon="8.57581"><ele>708.75</ele><time>2026-04-25T14:18:43.996Z</time></trkpt><trkpt lat="44.4851367" lon="8.575745"><ele>712.0</ele><time>2026-04-25T14:18:44.995Z</time></trkpt><trkpt lat="44.4850133" lon="8.5756433"><ele>712.0</ele><time>2026-04-25T14:18:45.994Z</time></trkpt><trkpt lat="44.484905" lon="8.57552"><ele>712.0</ele><time>2026-04-25T14:18:46.999Z</time></trkpt><trkpt lat="44.4847983" lon="8.5754067"><ele>712.0</ele><time>2026-04-25T14:18:47.996Z</time></trkpt><trkpt lat="44.48471" lon="8.5752983"><ele>712.0</ele><time>2026-04-25T14:18:48.994Z</time></trkpt><trkpt lat="44.4846417" lon="8.5751833"><ele>711.0</ele><time>2026-04-25T14:18:49.999Z</time></trkpt><trkpt lat="44.4846017" lon="8.575075"><ele>710.0</ele><time>2026-04-25T14:18:50.999Z</time></trkpt><trkpt lat="44.484575" lon="8.57499"><ele>709.0</ele><time>2026-04-25T14:18:51.998Z</time></trkpt><trkpt lat="44.4846067" lon="8.57487"><ele>708.0</ele><time>2026-04-25T14:18:52.994Z</time></trkpt><trkpt lat="44.4846833" lon="8.5747533"><ele>707.0</ele><time>2026-04-25T14:18:53.995Z</time></trkpt><trkpt lat="44.484765" lon="8.5746433"><ele>707.0</ele><time>2026-04-25T14:18:54.996Z</time></trkpt><trkpt lat="44.4848583" lon="8.574525"><ele>707.0</ele><time>2026-04-25T14:18:55.998Z</time></trkpt><trkpt lat="44.484945" lon="8.574395"><ele>707.0</ele><time>2026-04-25T14:18:56.998Z</time></trkpt><trkpt lat="44.4850067" lon="8.5742417"><ele>707.0</ele><time>2026-04-25T14:18:57.994Z</time></trkpt><trkpt lat="44.48503" lon="8.57408"><ele>709.25</ele><time>2026-04-25T14:18:58.999Z</time></trkpt><trkpt lat="44.4850233" lon="8.57391"><ele>711.5</ele><time>2026-04-25T14:18:59.993Z</time></trkpt><trkpt lat="44.484995" lon="8.5737417"><ele>713.75</ele><time>2026-04-25T14:19:00.996Z</time></trkpt><trkpt lat="44.4849183" lon="8.5735783"><ele>716.0</ele><time>2026-04-25T14:19:01.998Z</time></trkpt><trkpt lat="44.484825" lon="8.5734183"><ele>717.0</ele><time>2026-04-25T14:19:02.996Z</time></trkpt><trkpt lat="44.4847417" lon="8.573275"><ele>718.0</ele><time>2026-04-25T14:19:03.998Z</time></trkpt><trkpt lat="44.484675" lon="8.5731233"><ele>719.0</ele><time>2026-04-25T14:19:04.998Z</time></trkpt><trkpt lat="44.4846317" lon="8.5729667"><ele>720.0</ele><time>2026-04-25T14:19:06Z</time></trkpt><trkpt lat="44.4846267" lon="8.572805"><ele>720.75</ele><time>2026-04-25T14:19:06.994Z</time></trkpt><trkpt lat="44.48463" lon="8.572635"><ele>721.5</ele><time>2026-04-25T14:19:07.993Z</time></trkpt><trkpt lat="44.4846633" lon="8.57241"><ele>722.25</ele><time>2026-04-25T14:19:09.002Z</time></trkpt><trkpt lat="44.4846867" lon="8.5722167"><ele>723.0</ele><time>2026-04-25T14:19:09.994Z</time></trkpt><trkpt lat="44.4847233" lon="8.5720317"><ele>723.25</ele><time>2026-04-25T14:19:10.996Z</time></trkpt><trkpt lat="44.4847517" lon="8.571845"><ele>723.5</ele><time>2026-04-25T14:19:11.995Z</time></trkpt><trkpt lat="44.48476" lon="8.5716633"><ele>723.75</ele><time>2026-04-25T14:19:12.998Z</time></trkpt><trkpt lat="44.4847383" lon="8.5715017"><ele>724.0</ele><time>2026-04-25T14:19:13.995Z</time></trkpt><trkpt lat="44.4846983" lon="8.5713717"><ele>724.0</ele><time>2026-04-25T14:19:14.999Z</time></trkpt><trkpt lat="44.484635" lon="8.57128"><ele>724.0</ele><time>2026-04-25T14:19:15.995Z</time></trkpt><trkpt lat="44.484555" lon="8.5712017"><ele>724.0</ele><time>2026-04-25T14:19:16.995Z</time></trkpt><trkpt lat="44.484455" lon="8.5711383"><ele>724.0</ele><time>2026-04-25T14:19:17.998Z</time></trkpt><trkpt lat="44.4842933" lon="8.5711317"><ele>724.0</ele><time>2026-04-25T14:19:19Z</time></trkpt><trkpt lat="44.4841417" lon="8.5711217"><ele>724.0</ele><time>2026-04-25T14:19:19.997Z</time></trkpt><trkpt lat="44.483995" lon="8.571105"><ele>724.0</ele><time>2026-04-25T14:19:20.994Z</time></trkpt><trkpt lat="44.4838717" lon="8.57109"><ele>724.0</ele><time>2026-04-25T14:19:21.998Z</time></trkpt><trkpt lat="44.48376" lon="8.571055"><ele>728.2</ele><time>2026-04-25T14:19:22.995Z</time></trkpt><trkpt lat="44.4836867" lon="8.570985"><ele>732.4000000000001</ele><time>2026-04-25T14:19:23.995Z</time></trkpt><trkpt lat="44.483635" lon="8.5708867"><ele>736.6</ele><time>2026-04-25T14:19:25.001Z</time></trkpt><trkpt lat="44.4835983" lon="8.570785"><ele>740.8</ele><time>2026-04-25T14:19:25.993Z</time></trkpt><trkpt lat="44.48363" lon="8.5706067"><ele>745.0</ele><time>2026-04-25T14:19:26.996Z</time></trkpt><trkpt lat="44.4836683" lon="8.57042"><ele>745.0</ele><time>2026-04-25T14:19:27.998Z</time></trkpt><trkpt lat="44.4836833" lon="8.57023"><ele>745.0</ele><time>2026-04-25T14:19:28.994Z</time></trkpt><trkpt lat="44.4836833" lon="8.5700417"><ele>745.0</ele><time>2026-04-25T14:19:30Z</time></trkpt><trkpt lat="44.4836617" lon="8.5698667"><ele>745.0</ele><time>2026-04-25T14:19:30.993Z</time></trkpt><trkpt lat="44.4836233" lon="8.5696967"><ele>744.0</ele><time>2026-04-25T14:19:31.997Z</time></trkpt><trkpt lat="44.48357" lon="8.5695233"><ele>743.0</ele><time>2026-04-25T14:19:32.995Z</time></trkpt><trkpt lat="44.4835317" lon="8.5693433"><ele>742.0</ele><time>2026-04-25T14:19:33.996Z</time></trkpt><trkpt lat="44.4835017" lon="8.5691717"><ele>741.0</ele><time>2026-04-25T14:19:34.996Z</time></trkpt><trkpt lat="44.4834733" lon="8.569"><ele>741.0</ele><time>2026-04-25T14:19:36.001Z</time></trkpt><trkpt lat="44.483425" lon="8.568835"><ele>741.0</ele><time>2026-04-25T14:19:37Z</time></trkpt><trkpt lat="44.4833567" lon="8.5686833"><ele>741.0</ele><time>2026-04-25T14:19:37.993Z</time></trkpt><trkpt lat="44.4832883" lon="8.5685517"><ele>741.0</ele><time>2026-04-25T14:19:38.997Z</time></trkpt><trkpt lat="44.4832383" lon="8.5684317"><ele>740.8333333333334</ele><time>2026-04-25T14:19:39.994Z</time></trkpt><trkpt lat="44.48322" lon="8.56831"><ele>740.6666666666666</ele><time>2026-04-25T14:19:40.993Z</time></trkpt><trkpt lat="44.4832567" lon="8.568195"><ele>740.5</ele><time>2026-04-25T14:19:41.996Z</time></trkpt><trkpt lat="44.4832983" lon="8.5680967"><ele>740.3333333333333</ele><time>2026-04-25T14:19:43.001Z</time></trkpt><trkpt lat="44.48337" lon="8.5680233"><ele>740.1666666666666</ele><time>2026-04-25T14:19:43.992Z</time></trkpt><trkpt lat="44.4834633" lon="8.5679817"><ele>740.0</ele><time>2026-04-25T14:19:44.995Z</time></trkpt><trkpt lat="44.483585" lon="8.5679483"><ele>740.0</ele><time>2026-04-25T14:19:45.993Z</time></trkpt><trkpt lat="44.483715" lon="8.5679"><ele>740.0</ele><time>2026-04-25T14:19:46.996Z</time></trkpt><trkpt lat="44.48381" lon="8.5678067"><ele>740.0</ele><time>2026-04-25T14:19:47.994Z</time></trkpt><trkpt lat="44.4838883" lon="8.5677033"><ele>740.0</ele><time>2026-04-25T14:19:48.994Z</time></trkpt><trkpt lat="44.4839283" lon="8.5675867"><ele>739.5</ele><time>2026-04-25T14:19:49.995Z</time></trkpt><trkpt lat="44.48394" lon="8.5674617"><ele>739.0</ele><time>2026-04-25T14:19:50.992Z</time></trkpt><trkpt lat="44.48393" lon="8.567325"><ele>738.5</ele><time>2026-04-25T14:19:51.999Z</time></trkpt><trkpt lat="44.4838767" lon="8.56714"><ele>738.0</ele><time>2026-04-25T14:19:52.998Z</time></trkpt><trkpt lat="44.4838467" lon="8.5669617"><ele>738.0</ele><time>2026-04-25T14:19:53.997Z</time></trkpt><trkpt lat="44.48384" lon="8.5667833"><ele>738.0</ele><time>2026-04-25T14:19:54.995Z</time></trkpt><trkpt lat="44.4838367" lon="8.5666183"><ele>738.0</ele><time>2026-04-25T14:19:56Z</time></trkpt><trkpt lat="44.4838433" lon="8.56645"><ele>738.0</ele><time>2026-04-25T14:19:56.994Z</time></trkpt><trkpt lat="44.483835" lon="8.5662867"><ele>738.0</ele><time>2026-04-25T14:19:57.997Z</time></trkpt><trkpt lat="44.483805" lon="8.5661217"><ele>738.0</ele><time>2026-04-25T14:19:58.993Z</time></trkpt><trkpt lat="44.4837483" lon="8.5659533"><ele>738.0</ele><time>2026-04-25T14:19:59.997Z</time></trkpt><trkpt lat="44.4836917" lon="8.5657933"><ele>738.0</ele><time>2026-04-25T14:20:00.995Z</time></trkpt><trkpt lat="44.4836333" lon="8.5656267"><ele>739.75</ele><time>2026-04-25T14:20:01.994Z</time></trkpt><trkpt lat="44.4835883" lon="8.5654433"><ele>741.5</ele><time>2026-04-25T14:20:02.999Z</time></trkpt><trkpt lat="44.4835567" lon="8.5652583"><ele>743.25</ele><time>2026-04-25T14:20:03.999Z</time></trkpt><trkpt lat="44.4835283" lon="8.5650883"><ele>745.0</ele><time>2026-04-25T14:20:04.995Z</time></trkpt><trkpt lat="44.4834833" lon="8.5649367"><ele>745.0</ele><time>2026-04-25T14:20:05.993Z</time></trkpt><trkpt lat="44.4834167" lon="8.5648067"><ele>745.0</ele><time>2026-04-25T14:20:06.993Z</time></trkpt><trkpt lat="44.4833117" lon="8.56471"><ele>745.0</ele><time>2026-04-25T14:20:07.993Z</time></trkpt><trkpt lat="44.4831967" lon="8.5646383"><ele>745.0</ele><time>2026-04-25T14:20:08.994Z</time></trkpt><trkpt lat="44.4830617" lon="8.5645633"><ele>744.25</ele><time>2026-04-25T14:20:09.994Z</time></trkpt><trkpt lat="44.4829233" lon="8.5645067"><ele>743.5</ele><time>2026-04-25T14:20:10.993Z</time></trkpt><trkpt lat="44.482785" lon="8.5644633"><ele>742.75</ele><time>2026-04-25T14:20:12Z</time></trkpt><trkpt lat="44.482655" lon="8.5644383"><ele>742.0</ele><time>2026-04-25T14:20:12.993Z</time></trkpt><trkpt lat="44.482535" lon="8.5643933"><ele>742.0</ele><time>2026-04-25T14:20:13.994Z</time></trkpt><trkpt lat="44.4824267" lon="8.5643267"><ele>742.0</ele><time>2026-04-25T14:20:14.999Z</time></trkpt><trkpt lat="44.4823217" lon="8.5642283"><ele>742.0</ele><time>2026-04-25T14:20:15.995Z</time></trkpt><trkpt lat="44.4822167" lon="8.5641017"><ele>742.0</ele><time>2026-04-25T14:20:16.997Z</time></trkpt><trkpt lat="44.4821233" lon="8.5639417"><ele>743.25</ele><time>2026-04-25T14:20:17.998Z</time></trkpt><trkpt lat="44.48203" lon="8.5637867"><ele>744.5</ele><time>2026-04-25T14:20:18.995Z</time></trkpt><trkpt lat="44.4819383" lon="8.56363"><ele>745.75</ele><time>2026-04-25T14:20:19.998Z</time></trkpt><trkpt lat="44.4818517" lon="8.5634667"><ele>747.0</ele><time>2026-04-25T14:20:20.998Z</time></trkpt><trkpt lat="44.4817767" lon="8.563315"><ele>747.0</ele><time>2026-04-25T14:20:21.996Z</time></trkpt><trkpt lat="44.48171" lon="8.56316"><ele>747.0</ele><time>2026-04-25T14:20:22.994Z</time></trkpt><trkpt lat="44.4817033" lon="8.5629867"><ele>747.0</ele><time>2026-04-25T14:20:23.994Z</time></trkpt><trkpt lat="44.4816933" lon="8.5628183"><ele>747.0</ele><time>2026-04-25T14:20:24.993Z</time></trkpt><trkpt lat="44.4818033" lon="8.56267"><ele>748.0</ele><time>2026-04-25T14:20:25.993Z</time></trkpt><trkpt lat="44.48189" lon="8.5625333"><ele>749.0</ele><time>2026-04-25T14:20:27Z</time></trkpt><trkpt lat="44.4819917" lon="8.562395"><ele>750.0</ele><time>2026-04-25T14:20:27.997Z</time></trkpt><trkpt lat="44.4821017" lon="8.562255"><ele>751.0</ele><time>2026-04-25T14:20:28.994Z</time></trkpt><trkpt lat="44.4822" lon="8.56212"><ele>746.3333333333334</ele><time>2026-04-25T14:20:29.993Z</time></trkpt><trkpt lat="44.4822983" lon="8.56196"><ele>741.6666666666666</ele><time>2026-04-25T14:20:30.991Z</time></trkpt><trkpt lat="44.4823783" lon="8.5617683"><ele>737.0</ele><time>2026-04-25T14:20:31.993Z</time></trkpt><trkpt lat="44.4824333" lon="8.561565"><ele>737.0</ele><time>2026-04-25T14:20:32.996Z</time></trkpt><trkpt lat="44.4824783" lon="8.5613517"><ele>737.0</ele><time>2026-04-25T14:20:33.992Z</time></trkpt><trkpt lat="44.482515" lon="8.5611483"><ele>737.0</ele><time>2026-04-25T14:20:34.999Z</time></trkpt><trkpt lat="44.4825367" lon="8.5609467"><ele>738.25</ele><time>2026-04-25T14:20:35.994Z</time></trkpt><trkpt lat="44.48255" lon="8.560745"><ele>739.5</ele><time>2026-04-25T14:20:36.994Z</time></trkpt><trkpt lat="44.4825467" lon="8.5605467"><ele>740.75</ele><time>2026-04-25T14:20:37.994Z</time></trkpt><trkpt lat="44.482545" lon="8.5603467"><ele>742.0</ele><time>2026-04-25T14:20:38.995Z</time></trkpt><trkpt lat="44.482555" lon="8.5601417"><ele>742.0</ele><time>2026-04-25T14:20:39.998Z</time></trkpt><trkpt lat="44.4825817" lon="8.55994"><ele>742.0</ele><time>2026-04-25T14:20:40.997Z</time></trkpt><trkpt lat="44.48261" lon="8.5597433"><ele>742.0</ele><time>2026-04-25T14:20:41.996Z</time></trkpt><trkpt lat="44.4826483" lon="8.5595567"><ele>742.0</ele><time>2026-04-25T14:20:42.997Z</time></trkpt><trkpt lat="44.482705" lon="8.5593833"><ele>743.25</ele><time>2026-04-25T14:20:43.995Z</time></trkpt><trkpt lat="44.4827733" lon="8.5592417"><ele>744.5</ele><time>2026-04-25T14:20:44.997Z</time></trkpt><trkpt lat="44.48285" lon="8.5591167"><ele>745.75</ele><time>2026-04-25T14:20:45.995Z</time></trkpt><trkpt lat="44.4829183" lon="8.5589933"><ele>747.0</ele><time>2026-04-25T14:20:46.996Z</time></trkpt><trkpt lat="44.4829667" lon="8.5588467"><ele>741.25</ele><time>2026-04-25T14:20:47.999Z</time></trkpt><trkpt lat="44.4829833" lon="8.5586783"><ele>735.5</ele><time>2026-04-25T14:20:48.998Z</time></trkpt><trkpt lat="44.4830033" lon="8.5584983"><ele>729.75</ele><time>2026-04-25T14:20:49.994Z</time></trkpt><trkpt lat="44.4830267" lon="8.55832"><ele>724.0</ele><time>2026-04-25T14:20:50.994Z</time></trkpt><trkpt lat="44.48303" lon="8.5581283"><ele>724.0</ele><time>2026-04-25T14:20:51.996Z</time></trkpt><trkpt lat="44.4830033" lon="8.5579433"><ele>724.0</ele><time>2026-04-25T14:20:52.994Z</time></trkpt><trkpt lat="44.482975" lon="8.5577517"><ele>724.0</ele><time>2026-04-25T14:20:53.999Z</time></trkpt><trkpt lat="44.4829583" lon="8.55756"><ele>724.0</ele><time>2026-04-25T14:20:54.999Z</time></trkpt><trkpt lat="44.482945" lon="8.5573833"><ele>721.8000000000001</ele><time>2026-04-25T14:20:55.997Z</time></trkpt><trkpt lat="44.4829617" lon="8.55721"><ele>719.6</ele><time>2026-04-25T14:20:56.997Z</time></trkpt><trkpt lat="44.4829883" lon="8.5570783"><ele>717.4</ele><time>2026-04-25T14:20:57.994Z</time></trkpt><trkpt lat="44.48302" lon="8.5569333"><ele>715.2</ele><time>2026-04-25T14:20:58.995Z</time></trkpt><trkpt lat="44.483035" lon="8.556805"><ele>713.0</ele><time>2026-04-25T14:20:59.993Z</time></trkpt><trkpt lat="44.48302" lon="8.5566817"><ele>711.4</ele><time>2026-04-25T14:21:00.995Z</time></trkpt><trkpt lat="44.4829817" lon="8.5565867"><ele>709.8</ele><time>2026-04-25T14:21:02Z</time></trkpt><trkpt lat="44.48292" lon="8.5565133"><ele>708.2</ele><time>2026-04-25T14:21:02.993Z</time></trkpt><trkpt lat="44.48283" lon="8.55648"><ele>706.6</ele><time>2026-04-25T14:21:03.995Z</time></trkpt><trkpt lat="44.4827333" lon="8.55645"><ele>705.0</ele><time>2026-04-25T14:21:04.993Z</time></trkpt><trkpt lat="44.482605" lon="8.5564483"><ele>710.25</ele><time>2026-04-25T14:21:05.997Z</time></trkpt><trkpt lat="44.482485" lon="8.5564517"><ele>715.5</ele><time>2026-04-25T14:21:06.995Z</time></trkpt><trkpt lat="44.48236" lon="8.5564317"><ele>720.75</ele><time>2026-04-25T14:21:07.996Z</time></trkpt><trkpt lat="44.482225" lon="8.5564117"><ele>726.0</ele><time>2026-04-25T14:21:08.996Z</time></trkpt><trkpt lat="44.4820883" lon="8.55637"><ele>728.0</ele><time>2026-04-25T14:21:09.994Z</time></trkpt><trkpt lat="44.48196" lon="8.5563133"><ele>730.0</ele><time>2026-04-25T14:21:10.992Z</time></trkpt><trkpt lat="44.4818517" lon="8.5562583"><ele>732.0</ele><time>2026-04-25T14:21:11.994Z</time></trkpt><trkpt lat="44.481765" lon="8.5561967"><ele>734.0</ele><time>2026-04-25T14:21:12.998Z</time></trkpt><trkpt lat="44.4817067" lon="8.5561"><ele>736.0</ele><time>2026-04-25T14:21:13.996Z</time></trkpt><trkpt lat="44.4816667" lon="8.5560083"><ele>731.0</ele><time>2026-04-25T14:21:14.994Z</time></trkpt><trkpt lat="44.48162" lon="8.555905"><ele>726.0</ele><time>2026-04-25T14:21:15.993Z</time></trkpt><trkpt lat="44.481645" lon="8.5556983"><ele>721.0</ele><time>2026-04-25T14:21:16.999Z</time></trkpt><trkpt lat="44.4817067" lon="8.5554833"><ele>716.0</ele><time>2026-04-25T14:21:17.995Z</time></trkpt><trkpt lat="44.481785" lon="8.5552217"><ele>714.3333333333333</ele><time>2026-04-25T14:21:18.995Z</time></trkpt><trkpt lat="44.4818233" lon="8.5550067"><ele>712.6666666666666</ele><time>2026-04-25T14:21:19.993Z</time></trkpt><trkpt lat="44.4818767" lon="8.5548017"><ele>711.0</ele><time>2026-04-25T14:21:20.993Z</time></trkpt><trkpt lat="44.4819283" lon="8.55462"><ele>708.25</ele><time>2026-04-25T14:21:21.999Z</time></trkpt><trkpt lat="44.4820133" lon="8.5544617"><ele>705.5</ele><time>2026-04-25T14:21:22.994Z</time></trkpt><trkpt lat="44.482115" lon="8.554335"><ele>702.75</ele><time>2026-04-25T14:21:24.001Z</time></trkpt><trkpt lat="44.4822317" lon="8.5542433"><ele>700.0</ele><time>2026-04-25T14:21:24.995Z</time></trkpt><trkpt lat="44.4823533" lon="8.5541467"><ele>700.0</ele><time>2026-04-25T14:21:25.997Z</time></trkpt><trkpt lat="44.48247" lon="8.554045"><ele>700.0</ele><time>2026-04-25T14:21:26.995Z</time></trkpt><trkpt lat="44.4825783" lon="8.5539217"><ele>700.0</ele><time>2026-04-25T14:21:27.996Z</time></trkpt><trkpt lat="44.4826733" lon="8.5537767"><ele>700.0</ele><time>2026-04-25T14:21:28.998Z</time></trkpt><trkpt lat="44.4827567" lon="8.5536417"><ele>698.5</ele><time>2026-04-25T14:21:29.997Z</time></trkpt><trkpt lat="44.4828517" lon="8.5535117"><ele>697.0</ele><time>2026-04-25T14:21:30.993Z</time></trkpt><trkpt lat="44.4829767" lon="8.5534267"><ele>695.5</ele><time>2026-04-25T14:21:31.994Z</time></trkpt><trkpt lat="44.4830983" lon="8.55336"><ele>694.0</ele><time>2026-04-25T14:21:32.999Z</time></trkpt><trkpt lat="44.4832167" lon="8.5532833"><ele>694.0</ele><time>2026-04-25T14:21:33.995Z</time></trkpt><trkpt lat="44.4833133" lon="8.5532117"><ele>694.0</ele><time>2026-04-25T14:21:34.995Z</time></trkpt><trkpt lat="44.4834083" lon="8.5531283"><ele>694.0</ele><time>2026-04-25T14:21:35.998Z</time></trkpt><trkpt lat="44.48348" lon="8.5530233"><ele>694.0</ele><time>2026-04-25T14:21:36.999Z</time></trkpt><trkpt lat="44.4835517" lon="8.5529167"><ele>694.0</ele><time>2026-04-25T14:21:37.996Z</time></trkpt><trkpt lat="44.4836217" lon="8.552815"><ele>690.8333333333334</ele><time>2026-04-25T14:21:38.996Z</time></trkpt><trkpt lat="44.483685" lon="8.5527217"><ele>687.6666666666667</ele><time>2026-04-25T14:21:39.995Z</time></trkpt><trkpt lat="44.4837283" lon="8.5526167"><ele>684.5</ele><time>2026-04-25T14:21:40.992Z</time></trkpt><trkpt lat="44.4837517" lon="8.552505"><ele>681.3333333333334</ele><time>2026-04-25T14:21:41.994Z</time></trkpt><trkpt lat="44.4837617" lon="8.5524017"><ele>678.1666666666666</ele><time>2026-04-25T14:21:42.994Z</time></trkpt><trkpt lat="44.483755" lon="8.552275"><ele>675.0</ele><time>2026-04-25T14:21:43.993Z</time></trkpt><trkpt lat="44.4837683" lon="8.5521533"><ele>675.8</ele><time>2026-04-25T14:21:44.992Z</time></trkpt><trkpt lat="44.483785" lon="8.5520167"><ele>676.6</ele><time>2026-04-25T14:21:46Z</time></trkpt><trkpt lat="44.4838033" lon="8.551875"><ele>677.4000000000001</ele><time>2026-04-25T14:21:46.999Z</time></trkpt><trkpt lat="44.4838033" lon="8.551705"><ele>678.2</ele><time>2026-04-25T14:21:47.995Z</time></trkpt><trkpt lat="44.4837817" lon="8.5515417"><ele>679.0</ele><time>2026-04-25T14:21:48.995Z</time></trkpt><trkpt lat="44.4837517" lon="8.5513867"><ele>680.5</ele><time>2026-04-25T14:21:49.996Z</time></trkpt><trkpt lat="44.48371" lon="8.5512517"><ele>682.0</ele><time>2026-04-25T14:21:50.996Z</time></trkpt><trkpt lat="44.483655" lon="8.5511233"><ele>683.5</ele><time>2026-04-25T14:21:51.993Z</time></trkpt><trkpt lat="44.4835917" lon="8.5510033"><ele>685.0</ele><time>2026-04-25T14:21:53Z</time></trkpt><trkpt lat="44.4834733" lon="8.5509083"><ele>685.0</ele><time>2026-04-25T14:21:53.996Z</time></trkpt><trkpt lat="44.4833833" lon="8.55082"><ele>685.0</ele><time>2026-04-25T14:21:54.997Z</time></trkpt><trkpt lat="44.4832383" lon="8.550785"><ele>685.0</ele><time>2026-04-25T14:21:56Z</time></trkpt><trkpt lat="44.4830933" lon="8.5507817"><ele>685.0</ele><time>2026-04-25T14:21:56.998Z</time></trkpt><trkpt lat="44.4829567" lon="8.5507817"><ele>685.5</ele><time>2026-04-25T14:21:57.996Z</time></trkpt><trkpt lat="44.4828167" lon="8.5507867"><ele>686.0</ele><time>2026-04-25T14:21:58.994Z</time></trkpt><trkpt lat="44.482685" lon="8.55076"><ele>686.5</ele><time>2026-04-25T14:21:59.995Z</time></trkpt><trkpt lat="44.4825583" lon="8.550735"><ele>687.0</ele><time>2026-04-25T14:22:00.995Z</time></trkpt><trkpt lat="44.4824117" lon="8.55077"><ele>687.0</ele><time>2026-04-25T14:22:01.998Z</time></trkpt><trkpt lat="44.4823" lon="8.5507867"><ele>687.0</ele><time>2026-04-25T14:22:02.997Z</time></trkpt><trkpt lat="44.4821717" lon="8.5507983"><ele>687.0</ele><time>2026-04-25T14:22:03.998Z</time></trkpt><trkpt lat="44.4820467" lon="8.55079"><ele>687.0</ele><time>2026-04-25T14:22:04.997Z</time></trkpt><trkpt lat="44.481925" lon="8.5508183"><ele>685.25</ele><time>2026-04-25T14:22:05.994Z</time></trkpt><trkpt lat="44.4818083" lon="8.550865"><ele>683.5</ele><time>2026-04-25T14:22:06.992Z</time></trkpt><trkpt lat="44.4816683" lon="8.550935"><ele>681.75</ele><time>2026-04-25T14:22:07.994Z</time></trkpt><trkpt lat="44.4815317" lon="8.5510017"><ele>680.0</ele><time>2026-04-25T14:22:08.996Z</time></trkpt><trkpt lat="44.4813933" lon="8.5510783"><ele>680.0</ele><time>2026-04-25T14:22:09.998Z</time></trkpt><trkpt lat="44.4812767" lon="8.5511717"><ele>680.0</ele><time>2026-04-25T14:22:10.997Z</time></trkpt><trkpt lat="44.4811717" lon="8.5512733"><ele>680.0</ele><time>2026-04-25T14:22:11.994Z</time></trkpt><trkpt lat="44.4810717" lon="8.551365"><ele>680.0</ele><time>2026-04-25T14:22:12.998Z</time></trkpt><trkpt lat="44.4809683" lon="8.5514167"><ele>684.8</ele><time>2026-04-25T14:22:13.995Z</time></trkpt><trkpt lat="44.4808633" lon="8.5514183"><ele>689.6</ele><time>2026-04-25T14:22:14.993Z</time></trkpt><trkpt lat="44.4807483" lon="8.5513867"><ele>694.4000000000001</ele><time>2026-04-25T14:22:15.997Z</time></trkpt><trkpt lat="44.48065" lon="8.5513517"><ele>699.2</ele><time>2026-04-25T14:22:16.996Z</time></trkpt><trkpt lat="44.48055" lon="8.551305"><ele>704.0</ele><time>2026-04-25T14:22:17.997Z</time></trkpt><trkpt lat="44.48046" lon="8.5512317"><ele>701.0</ele><time>2026-04-25T14:22:18.999Z</time></trkpt><trkpt lat="44.4803783" lon="8.55113"><ele>698.0</ele><time>2026-04-25T14:22:19.997Z</time></trkpt><trkpt lat="44.4803167" lon="8.5510067"><ele>695.0</ele><time>2026-04-25T14:22:20.993Z</time></trkpt><trkpt lat="44.4802783" lon="8.5509017"><ele>692.0</ele><time>2026-04-25T14:22:21.994Z</time></trkpt><trkpt lat="44.480255" lon="8.5507883"><ele>689.0</ele><time>2026-04-25T14:22:22.999Z</time></trkpt><trkpt lat="44.48024" lon="8.5506617"><ele>689.0</ele><time>2026-04-25T14:22:23.995Z</time></trkpt><trkpt lat="44.480265" lon="8.5505317"><ele>689.0</ele><time>2026-04-25T14:22:24.996Z</time></trkpt><trkpt lat="44.4802783" lon="8.550415"><ele>689.0</ele><time>2026-04-25T14:22:25.992Z</time></trkpt><trkpt lat="44.4803" lon="8.5503083"><ele>689.0</ele><time>2026-04-25T14:22:27Z</time></trkpt><trkpt lat="44.4803467" lon="8.550215"><ele>689.0</ele><time>2026-04-25T14:22:27.993Z</time></trkpt><trkpt lat="44.4804983" lon="8.5501717"><ele>688.5</ele><time>2026-04-25T14:22:28.993Z</time></trkpt><trkpt lat="44.480645" lon="8.5501733"><ele>688.0</ele><time>2026-04-25T14:22:29.993Z</time></trkpt><trkpt lat="44.4808133" lon="8.5502233"><ele>687.5</ele><time>2026-04-25T14:22:30.992Z</time></trkpt><trkpt lat="44.4809367" lon="8.55021"><ele>687.0</ele><time>2026-04-25T14:22:32Z</time></trkpt><trkpt lat="44.4810533" lon="8.5502133"><ele>687.0</ele><time>2026-04-25T14:22:32.997Z</time></trkpt><trkpt lat="44.481155" lon="8.5501683"><ele>687.0</ele><time>2026-04-25T14:22:33.996Z</time></trkpt><trkpt lat="44.481255" lon="8.5500933"><ele>687.0</ele><time>2026-04-25T14:22:34.992Z</time></trkpt><trkpt lat="44.4813383" lon="8.550005"><ele>687.0</ele><time>2026-04-25T14:22:35.995Z</time></trkpt><trkpt lat="44.4814133" lon="8.549905"><ele>687.0</ele><time>2026-04-25T14:22:36.996Z</time></trkpt><trkpt lat="44.4814717" lon="8.549795"><ele>687.6</ele><time>2026-04-25T14:22:37.994Z</time></trkpt><trkpt lat="44.4815167" lon="8.5496767"><ele>688.2</ele><time>2026-04-25T14:22:38.998Z</time></trkpt><trkpt lat="44.481545" lon="8.5495483"><ele>688.8</ele><time>2026-04-25T14:22:39.998Z</time></trkpt><trkpt lat="44.4815767" lon="8.5494217"><ele>689.4</ele><time>2026-04-25T14:22:40.995Z</time></trkpt><trkpt lat="44.48164" lon="8.54932"><ele>690.0</ele><time>2026-04-25T14:22:41.996Z</time></trkpt><trkpt lat="44.4817067" lon="8.5492167"><ele>690.0</ele><time>2026-04-25T14:22:42.993Z</time></trkpt><trkpt lat="44.4818083" lon="8.54915"><ele>690.0</ele><time>2026-04-25T14:22:43.997Z</time></trkpt><trkpt lat="44.4819317" lon="8.5491033"><ele>690.0</ele><time>2026-04-25T14:22:44.993Z</time></trkpt><trkpt lat="44.4820533" lon="8.549065"><ele>690.0</ele><time>2026-04-25T14:22:45.994Z</time></trkpt><trkpt lat="44.4821833" lon="8.5490483"><ele>687.75</ele><time>2026-04-25T14:22:46.996Z</time></trkpt><trkpt lat="44.482315" lon="8.5490467"><ele>685.5</ele><time>2026-04-25T14:22:47.995Z</time></trkpt><trkpt lat="44.4824567" lon="8.5490733"><ele>683.25</ele><time>2026-04-25T14:22:48.996Z</time></trkpt><trkpt lat="44.4826017" lon="8.5491067"><ele>681.0</ele><time>2026-04-25T14:22:49.99Z</time></trkpt><trkpt lat="44.482755" lon="8.5491283"><ele>681.0</ele><time>2026-04-25T14:22:51Z</time></trkpt><trkpt lat="44.4828933" lon="8.5491767"><ele>681.0</ele><time>2026-04-25T14:22:51.991Z</time></trkpt><trkpt lat="44.48303" lon="8.549215"><ele>681.0</ele><time>2026-04-25T14:22:52.993Z</time></trkpt><trkpt lat="44.483165" lon="8.54924"><ele>681.0</ele><time>2026-04-25T14:22:53.993Z</time></trkpt><trkpt lat="44.4832833" lon="8.5492433"><ele>679.0</ele><time>2026-04-25T14:22:54.994Z</time></trkpt><trkpt lat="44.483395" lon="8.54921"><ele>677.0</ele><time>2026-04-25T14:22:55.996Z</time></trkpt><trkpt lat="44.483495" lon="8.54912"><ele>675.0</ele><time>2026-04-25T14:22:56.997Z</time></trkpt><trkpt lat="44.4835883" lon="8.5490383"><ele>673.0</ele><time>2026-04-25T14:22:57.995Z</time></trkpt><trkpt lat="44.4836667" lon="8.5489283"><ele>673.0</ele><time>2026-04-25T14:22:59.002Z</time></trkpt><trkpt lat="44.483735" lon="8.5488017"><ele>673.0</ele><time>2026-04-25T14:22:59.998Z</time></trkpt><trkpt lat="44.4837683" lon="8.54866"><ele>673.0</ele><time>2026-04-25T14:23:00.998Z</time></trkpt><trkpt lat="44.48378" lon="8.5485117"><ele>673.0</ele><time>2026-04-25T14:23:02Z</time></trkpt><trkpt lat="44.4837683" lon="8.5483583"><ele>673.0</ele><time>2026-04-25T14:23:02.991Z</time></trkpt><trkpt lat="44.4837333" lon="8.5482"><ele>674.25</ele><time>2026-04-25T14:23:03.995Z</time></trkpt><trkpt lat="44.4836533" lon="8.5480233"><ele>675.5</ele><time>2026-04-25T14:23:04.997Z</time></trkpt><trkpt lat="44.483575" lon="8.5478517"><ele>676.75</ele><time>2026-04-25T14:23:06.002Z</time></trkpt><trkpt lat="44.4834717" lon="8.54769"><ele>678.0</ele><time>2026-04-25T14:23:07Z</time></trkpt><trkpt lat="44.4833667" lon="8.547525"><ele>674.75</ele><time>2026-04-25T14:23:07.994Z</time></trkpt><trkpt lat="44.4832483" lon="8.5473783"><ele>671.5</ele><time>2026-04-25T14:23:08.994Z</time></trkpt><trkpt lat="44.48313" lon="8.5472633"><ele>668.25</ele><time>2026-04-25T14:23:09.994Z</time></trkpt><trkpt lat="44.4830383" lon="8.547165"><ele>665.0</ele><time>2026-04-25T14:23:10.996Z</time></trkpt><trkpt lat="44.4829633" lon="8.5470917"><ele>664.2</ele><time>2026-04-25T14:23:11.991Z</time></trkpt><trkpt lat="44.4828967" lon="8.547025"><ele>663.4</ele><time>2026-04-25T14:23:12.997Z</time></trkpt><trkpt lat="44.4828883" lon="8.5469017"><ele>662.5999999999999</ele><time>2026-04-25T14:23:13.994Z</time></trkpt><trkpt lat="44.4828967" lon="8.5467583"><ele>661.8</ele><time>2026-04-25T14:23:14.993Z</time></trkpt><trkpt lat="44.4829383" lon="8.5466317"><ele>661.0</ele><time>2026-04-25T14:23:15.995Z</time></trkpt><trkpt lat="44.483005" lon="8.5465383"><ele>661.0</ele><time>2026-04-25T14:23:16.992Z</time></trkpt><trkpt lat="44.4831067" lon="8.5464617"><ele>661.0</ele><time>2026-04-25T14:23:17.996Z</time></trkpt><trkpt lat="44.4832233" lon="8.5464167"><ele>661.0</ele><time>2026-04-25T14:23:18.997Z</time></trkpt><trkpt lat="44.48334" lon="8.54639"><ele>661.0</ele><time>2026-04-25T14:23:19.996Z</time></trkpt><trkpt lat="44.4834583" lon="8.546385"><ele>661.0</ele><time>2026-04-25T14:23:20.994Z</time></trkpt><trkpt lat="44.483565" lon="8.5464183"><ele>661.0</ele><time>2026-04-25T14:23:21.998Z</time></trkpt><trkpt lat="44.4836683" lon="8.5464933"><ele>661.0</ele><time>2026-04-25T14:23:22.994Z</time></trkpt><trkpt lat="44.48376" lon="8.5465867"><ele>661.0</ele><time>2026-04-25T14:23:23.994Z</time></trkpt><trkpt lat="44.4838517" lon="8.546695"><ele>663.0</ele><time>2026-04-25T14:23:25Z</time></trkpt><trkpt lat="44.4839583" lon="8.5467967"><ele>665.0</ele><time>2026-04-25T14:23:25.996Z</time></trkpt><trkpt lat="44.4840867" lon="8.5468717"><ele>667.0</ele><time>2026-04-25T14:23:26.999Z</time></trkpt><trkpt lat="44.4842233" lon="8.5469267"><ele>669.0</ele><time>2026-04-25T14:23:27.996Z</time></trkpt><trkpt lat="44.4843667" lon="8.5469633"><ele>669.0</ele><time>2026-04-25T14:23:28.998Z</time></trkpt><trkpt lat="44.4845117" lon="8.5469933"><ele>669.0</ele><time>2026-04-25T14:23:29.997Z</time></trkpt><trkpt lat="44.4846517" lon="8.547045"><ele>669.0</ele><time>2026-04-25T14:23:30.996Z</time></trkpt><trkpt lat="44.4847783" lon="8.5471217"><ele>669.0</ele><time>2026-04-25T14:23:31.996Z</time></trkpt><trkpt lat="44.48489" lon="8.5472083"><ele>667.5</ele><time>2026-04-25T14:23:32.994Z</time></trkpt><trkpt lat="44.4849917" lon="8.5473133"><ele>666.0</ele><time>2026-04-25T14:23:33.994Z</time></trkpt><trkpt lat="44.4850833" lon="8.5474433"><ele>664.5</ele><time>2026-04-25T14:23:34.995Z</time></trkpt><trkpt lat="44.4851933" lon="8.547555"><ele>663.0</ele><time>2026-04-25T14:23:35.996Z</time></trkpt><trkpt lat="44.48532" lon="8.5476717"><ele>665.3333333333334</ele><time>2026-04-25T14:23:36.994Z</time></trkpt><trkpt lat="44.485465" lon="8.54776"><ele>667.6666666666667</ele><time>2026-04-25T14:23:37.993Z</time></trkpt><trkpt lat="44.48561" lon="8.547835"><ele>670.0</ele><time>2026-04-25T14:23:39Z</time></trkpt><trkpt lat="44.48576" lon="8.5479"><ele>667.5</ele><time>2026-04-25T14:23:39.995Z</time></trkpt><trkpt lat="44.485915" lon="8.5479567"><ele>665.0</ele><time>2026-04-25T14:23:40.995Z</time></trkpt><trkpt lat="44.4860567" lon="8.548005"><ele>662.5</ele><time>2026-04-25T14:23:41.994Z</time></trkpt><trkpt lat="44.4861767" lon="8.5480783"><ele>660.0</ele><time>2026-04-25T14:23:42.999Z</time></trkpt><trkpt lat="44.4862833" lon="8.5481783"><ele>660.0</ele><time>2026-04-25T14:23:44.002Z</time></trkpt><trkpt lat="44.4863833" lon="8.5482817"><ele>660.0</ele><time>2026-04-25T14:23:45Z</time></trkpt><trkpt lat="44.486475" lon="8.54839"><ele>660.0</ele><time>2026-04-25T14:23:45.997Z</time></trkpt><trkpt lat="44.48655" lon="8.5485117"><ele>660.0</ele><time>2026-04-25T14:23:46.998Z</time></trkpt><trkpt lat="44.48662" lon="8.5486417"><ele>658.6</ele><time>2026-04-25T14:23:47.996Z</time></trkpt><trkpt lat="44.4866817" lon="8.5487567"><ele>657.2</ele><time>2026-04-25T14:23:49.005Z</time></trkpt><trkpt lat="44.4867517" lon="8.5488467"><ele>655.8</ele><time>2026-04-25T14:23:49.998Z</time></trkpt><trkpt lat="44.4868283" lon="8.5489167"><ele>654.4</ele><time>2026-04-25T14:23:50.998Z</time></trkpt><trkpt lat="44.4869067" lon="8.5489717"><ele>653.0</ele><time>2026-04-25T14:23:51.995Z</time></trkpt><trkpt lat="44.486985" lon="8.54902"><ele>653.0</ele><time>2026-04-25T14:23:52.997Z</time></trkpt><trkpt lat="44.487065" lon="8.5490567"><ele>653.0</ele><time>2026-04-25T14:23:53.994Z</time></trkpt><trkpt lat="44.4871433" lon="8.5490817"><ele>653.0</ele><time>2026-04-25T14:23:54.997Z</time></trkpt><trkpt lat="44.487215" lon="8.5490983"><ele>653.0</ele><time>2026-04-25T14:23:55.996Z</time></trkpt><trkpt lat="44.4872933" lon="8.5490933"><ele>653.0</ele><time>2026-04-25T14:23:56.997Z</time></trkpt><trkpt lat="44.4873717" lon="8.5490633"><ele>653.0</ele><time>2026-04-25T14:23:57.995Z</time></trkpt><trkpt lat="44.48745" lon="8.5490133"><ele>653.8333333333333</ele><time>2026-04-25T14:23:58.993Z</time></trkpt><trkpt lat="44.4875267" lon="8.5489817"><ele>654.6666666666666</ele><time>2026-04-25T14:23:59.993Z</time></trkpt><trkpt lat="44.4876083" lon="8.5489383"><ele>655.5</ele><time>2026-04-25T14:24:00.996Z</time></trkpt><trkpt lat="44.4876983" lon="8.5488983"><ele>656.3333333333334</ele><time>2026-04-25T14:24:01.995Z</time></trkpt><trkpt lat="44.487785" lon="8.5488583"><ele>657.1666666666667</ele><time>2026-04-25T14:24:02.994Z</time></trkpt><trkpt lat="44.4878733" lon="8.5488133"><ele>658.0</ele><time>2026-04-25T14:24:03.995Z</time></trkpt><trkpt lat="44.4879683" lon="8.54875"><ele>656.5</ele><time>2026-04-25T14:24:04.997Z</time></trkpt><trkpt lat="44.4880617" lon="8.5486967"><ele>655.0</ele><time>2026-04-25T14:24:05.996Z</time></trkpt><trkpt lat="44.4881683" lon="8.5486467"><ele>653.5</ele><time>2026-04-25T14:24:06.997Z</time></trkpt><trkpt lat="44.488285" lon="8.5486033"><ele>652.0</ele><time>2026-04-25T14:24:07.996Z</time></trkpt><trkpt lat="44.488405" lon="8.5485583"><ele>652.0</ele><time>2026-04-25T14:24:08.998Z</time></trkpt><trkpt lat="44.4885267" lon="8.548525"><ele>652.0</ele><time>2026-04-25T14:24:09.993Z</time></trkpt><trkpt lat="44.48865" lon="8.5484767"><ele>652.0</ele><time>2026-04-25T14:24:10.998Z</time></trkpt><trkpt lat="44.4887683" lon="8.5484233"><ele>652.0</ele><time>2026-04-25T14:24:11.995Z</time></trkpt><trkpt lat="44.488885" lon="8.548355"><ele>651.75</ele><time>2026-04-25T14:24:12.995Z</time></trkpt><trkpt lat="44.4889767" lon="8.548265"><ele>651.5</ele><time>2026-04-25T14:24:13.996Z</time></trkpt><trkpt lat="44.4890667" lon="8.5481633"><ele>651.25</ele><time>2026-04-25T14:24:14.995Z</time></trkpt><trkpt lat="44.4891517" lon="8.5480533"><ele>651.0</ele><time>2026-04-25T14:24:15.994Z</time></trkpt><trkpt lat="44.4892333" lon="8.5479433"><ele>650.25</ele><time>2026-04-25T14:24:16.995Z</time></trkpt><trkpt lat="44.4893183" lon="8.5478383"><ele>649.5</ele><time>2026-04-25T14:24:17.996Z</time></trkpt><trkpt lat="44.4894033" lon="8.54773"><ele>648.75</ele><time>2026-04-25T14:24:18.996Z</time></trkpt><trkpt lat="44.4894867" lon="8.5476283"><ele>648.0</ele><time>2026-04-25T14:24:19.991Z</time></trkpt><trkpt lat="44.4895717" lon="8.54752"><ele>648.0</ele><time>2026-04-25T14:24:20.997Z</time></trkpt><trkpt lat="44.4896483" lon="8.547395"><ele>648.0</ele><time>2026-04-25T14:24:21.994Z</time></trkpt><trkpt lat="44.4897267" lon="8.5472683"><ele>648.0</ele><time>2026-04-25T14:24:22.998Z</time></trkpt><trkpt lat="44.48981" lon="8.5471467"><ele>648.0</ele><time>2026-04-25T14:24:23.993Z</time></trkpt><trkpt lat="44.4898883" lon="8.5470117"><ele>646.5</ele><time>2026-04-25T14:24:25Z</time></trkpt><trkpt lat="44.48997" lon="8.54688"><ele>645.0</ele><time>2026-04-25T14:24:25.997Z</time></trkpt><trkpt lat="44.4900483" lon="8.5467483"><ele>643.5</ele><time>2026-04-25T14:24:26.993Z</time></trkpt><trkpt lat="44.4901333" lon="8.5466117"><ele>642.0</ele><time>2026-04-25T14:24:27.995Z</time></trkpt><trkpt lat="44.49022" lon="8.546475"><ele>642.0</ele><time>2026-04-25T14:24:28.998Z</time></trkpt><trkpt lat="44.49031" lon="8.5463467"><ele>642.0</ele><time>2026-04-25T14:24:29.996Z</time></trkpt><trkpt lat="44.4903933" lon="8.5462283"><ele>642.0</ele><time>2026-04-25T14:24:30.993Z</time></trkpt><trkpt lat="44.4904817" lon="8.5461267"><ele>642.0</ele><time>2026-04-25T14:24:31.994Z</time></trkpt><trkpt lat="44.4905783" lon="8.5460383"><ele>639.8000000000001</ele><time>2026-04-25T14:24:32.997Z</time></trkpt><trkpt lat="44.490685" lon="8.5459667"><ele>637.6</ele><time>2026-04-25T14:24:34.008Z</time></trkpt><trkpt lat="44.4907833" lon="8.5459217"><ele>635.4000000000001</ele><time>2026-04-25T14:24:34.998Z</time></trkpt><trkpt lat="44.4908833" lon="8.545925"><ele>633.2</ele><time>2026-04-25T14:24:35.997Z</time></trkpt><trkpt lat="44.4909917" lon="8.5459417"><ele>631.0</ele><time>2026-04-25T14:24:36.997Z</time></trkpt><trkpt lat="44.491095" lon="8.54603"><ele>631.0</ele><time>2026-04-25T14:24:37.994Z</time></trkpt><trkpt lat="44.4912067" lon="8.54613"><ele>631.0</ele><time>2026-04-25T14:24:38.993Z</time></trkpt><trkpt lat="44.491315" lon="8.546245"><ele>631.0</ele><time>2026-04-25T14:24:39.992Z</time></trkpt><trkpt lat="44.4914233" lon="8.54634"><ele>631.0</ele><time>2026-04-25T14:24:40.998Z</time></trkpt><trkpt lat="44.491525" lon="8.546445"><ele>631.0</ele><time>2026-04-25T14:24:41.996Z</time></trkpt><trkpt lat="44.49161" lon="8.5465683"><ele>631.0</ele><time>2026-04-25T14:24:42.997Z</time></trkpt><trkpt lat="44.4916933" lon="8.5466917"><ele>631.0</ele><time>2026-04-25T14:24:43.999Z</time></trkpt><trkpt lat="44.4917983" lon="8.5468017"><ele>631.0</ele><time>2026-04-25T14:24:44.992Z</time></trkpt><trkpt lat="44.4918983" lon="8.54689"><ele>631.0</ele><time>2026-04-25T14:24:45.996Z</time></trkpt><trkpt lat="44.4920133" lon="8.546965"><ele>631.0</ele><time>2026-04-25T14:24:46.995Z</time></trkpt><trkpt lat="44.4921267" lon="8.547065"><ele>631.0</ele><time>2026-04-25T14:24:47.994Z</time></trkpt><trkpt lat="44.4922283" lon="8.547185"><ele>631.0</ele><time>2026-04-25T14:24:48.995Z</time></trkpt><trkpt lat="44.4923267" lon="8.5472983"><ele>628.25</ele><time>2026-04-25T14:24:49.996Z</time></trkpt><trkpt lat="44.492445" lon="8.5473833"><ele>625.5</ele><time>2026-04-25T14:24:50.995Z</time></trkpt><trkpt lat="44.4925617" lon="8.5474417"><ele>622.75</ele><time>2026-04-25T14:24:51.994Z</time></trkpt><trkpt lat="44.4926833" lon="8.5474683"><ele>620.0</ele><time>2026-04-25T14:24:52.994Z</time></trkpt><trkpt lat="44.4928133" lon="8.547465"><ele>618.5</ele><time>2026-04-25T14:24:53.994Z</time></trkpt><trkpt lat="44.4929467" lon="8.5474483"><ele>617.0</ele><time>2026-04-25T14:24:54.995Z</time></trkpt><trkpt lat="44.49308" lon="8.54741"><ele>615.5</ele><time>2026-04-25T14:24:55.996Z</time></trkpt><trkpt lat="44.4932283" lon="8.5473367"><ele>614.0</ele><time>2026-04-25T14:24:56.995Z</time></trkpt><trkpt lat="44.49336" lon="8.54726"><ele>614.0</ele><time>2026-04-25T14:24:57.993Z</time></trkpt><trkpt lat="44.4934817" lon="8.5471567"><ele>614.0</ele><time>2026-04-25T14:24:58.994Z</time></trkpt><trkpt lat="44.4935917" lon="8.5470783"><ele>614.0</ele><time>2026-04-25T14:24:59.995Z</time></trkpt><trkpt lat="44.4936983" lon="8.5470317"><ele>614.0</ele><time>2026-04-25T14:25:00.995Z</time></trkpt><trkpt lat="44.493805" lon="8.5470117"><ele>614.4</ele><time>2026-04-25T14:25:01.993Z</time></trkpt><trkpt lat="44.4939033" lon="8.5470333"><ele>614.8</ele><time>2026-04-25T14:25:02.992Z</time></trkpt><trkpt lat="44.4940033" lon="8.5470767"><ele>615.2</ele><time>2026-04-25T14:25:03.992Z</time></trkpt><trkpt lat="44.4940983" lon="8.547155"><ele>615.6</ele><time>2026-04-25T14:25:04.994Z</time></trkpt><trkpt lat="44.49419" lon="8.5472533"><ele>616.0</ele><time>2026-04-25T14:25:05.998Z</time></trkpt><trkpt lat="44.49429" lon="8.54737"><ele>616.0</ele><time>2026-04-25T14:25:06.996Z</time></trkpt><trkpt lat="44.494395" lon="8.547495"><ele>616.0</ele><time>2026-04-25T14:25:07.996Z</time></trkpt><trkpt lat="44.49451" lon="8.5476117"><ele>616.0</ele><time>2026-04-25T14:25:08.999Z</time></trkpt><trkpt lat="44.4946283" lon="8.5477383"><ele>616.0</ele><time>2026-04-25T14:25:09.995Z</time></trkpt><trkpt lat="44.4947467" lon="8.5478617"><ele>616.5</ele><time>2026-04-25T14:25:10.992Z</time></trkpt><trkpt lat="44.4948617" lon="8.5479817"><ele>617.0</ele><time>2026-04-25T14:25:11.994Z</time></trkpt><trkpt lat="44.494975" lon="8.5480967"><ele>617.5</ele><time>2026-04-25T14:25:12.995Z</time></trkpt><trkpt lat="44.49508" lon="8.5481983"><ele>618.0</ele><time>2026-04-25T14:25:13.992Z</time></trkpt><trkpt lat="44.4951833" lon="8.5482733"><ele>618.0</ele><time>2026-04-25T14:25:14.996Z</time></trkpt><trkpt lat="44.495285" lon="8.54831"><ele>618.0</ele><time>2026-04-25T14:25:15.997Z</time></trkpt><trkpt lat="44.4953833" lon="8.548305"><ele>618.0</ele><time>2026-04-25T14:25:16.992Z</time></trkpt><trkpt lat="44.4954833" lon="8.5482683"><ele>618.0</ele><time>2026-04-25T14:25:17.998Z</time></trkpt><trkpt lat="44.4955817" lon="8.54819"><ele>618.0</ele><time>2026-04-25T14:25:18.996Z</time></trkpt><trkpt lat="44.4956917" lon="8.5480917"><ele>617.5</ele><time>2026-04-25T14:25:20Z</time></trkpt><trkpt lat="44.4958083" lon="8.5479933"><ele>617.0</ele><time>2026-04-25T14:25:20.999Z</time></trkpt><trkpt lat="44.495925" lon="8.547885"><ele>616.5</ele><time>2026-04-25T14:25:22.002Z</time></trkpt><trkpt lat="44.49604" lon="8.5477733"><ele>616.0</ele><time>2026-04-25T14:25:22.993Z</time></trkpt><trkpt lat="44.4961467" lon="8.547655"><ele>618.0</ele><time>2026-04-25T14:25:23.991Z</time></trkpt><trkpt lat="44.4962483" lon="8.5475133"><ele>620.0</ele><time>2026-04-25T14:25:25.003Z</time></trkpt><trkpt lat="44.4963167" lon="8.547375"><ele>622.0</ele><time>2026-04-25T14:25:25.996Z</time></trkpt><trkpt lat="44.496375" lon="8.5472217"><ele>624.0</ele><time>2026-04-25T14:25:26.991Z</time></trkpt><trkpt lat="44.4964033" lon="8.5470517"><ele>619.25</ele><time>2026-04-25T14:25:27.995Z</time></trkpt><trkpt lat="44.4964183" lon="8.546855"><ele>614.5</ele><time>2026-04-25T14:25:28.992Z</time></trkpt><trkpt lat="44.4964267" lon="8.5466433"><ele>609.75</ele><time>2026-04-25T14:25:29.994Z</time></trkpt><trkpt lat="44.4964283" lon="8.546425"><ele>605.0</ele><time>2026-04-25T14:25:30.993Z</time></trkpt><trkpt lat="44.496425" lon="8.5462083"><ele>605.0</ele><time>2026-04-25T14:25:31.993Z</time></trkpt><trkpt lat="44.496415" lon="8.5460067"><ele>605.0</ele><time>2026-04-25T14:25:32.996Z</time></trkpt><trkpt lat="44.496415" lon="8.5458217"><ele>605.0</ele><time>2026-04-25T14:25:33.996Z</time></trkpt><trkpt lat="44.496425" lon="8.5456717"><ele>605.0</ele><time>2026-04-25T14:25:34.995Z</time></trkpt><trkpt lat="44.4964717" lon="8.5455383"><ele>605.0</ele><time>2026-04-25T14:25:35.992Z</time></trkpt><trkpt lat="44.4965417" lon="8.5454583"><ele>605.0</ele><time>2026-04-25T14:25:36.994Z</time></trkpt><trkpt lat="44.4966283" lon="8.5454367"><ele>605.0</ele><time>2026-04-25T14:25:37.993Z</time></trkpt><trkpt lat="44.4967117" lon="8.5454683"><ele>605.0</ele><time>2026-04-25T14:25:39Z</time></trkpt><trkpt lat="44.4967967" lon="8.5455233"><ele>605.0</ele><time>2026-04-25T14:25:39.996Z</time></trkpt><trkpt lat="44.4968767" lon="8.5455767"><ele>605.0</ele><time>2026-04-25T14:25:40.998Z</time></trkpt><trkpt lat="44.4969567" lon="8.5456333"><ele>605.0</ele><time>2026-04-25T14:25:41.995Z</time></trkpt><trkpt lat="44.4970383" lon="8.54569"><ele>605.0</ele><time>2026-04-25T14:25:42.995Z</time></trkpt><trkpt lat="44.4971317" lon="8.5457417"><ele>605.0</ele><time>2026-04-25T14:25:43.996Z</time></trkpt><trkpt lat="44.4972433" lon="8.5457617"><ele>605.0</ele><time>2026-04-25T14:25:44.996Z</time></trkpt><trkpt lat="44.4973633" lon="8.5457583"><ele>605.0</ele><time>2026-04-25T14:25:45.997Z</time></trkpt><trkpt lat="44.4974867" lon="8.54573"><ele>603.25</ele><time>2026-04-25T14:25:46.994Z</time></trkpt><trkpt lat="44.497605" lon="8.5456817"><ele>601.5</ele><time>2026-04-25T14:25:48.004Z</time></trkpt><trkpt lat="44.4977133" lon="8.5456017"><ele>599.75</ele><time>2026-04-25T14:25:48.992Z</time></trkpt><trkpt lat="44.49782" lon="8.5454967"><ele>598.0</ele><time>2026-04-25T14:25:50Z</time></trkpt><trkpt lat="44.4979183" lon="8.54537"><ele>596.75</ele><time>2026-04-25T14:25:50.996Z</time></trkpt><trkpt lat="44.4980183" lon="8.5452283"><ele>595.5</ele><time>2026-04-25T14:25:51.994Z</time></trkpt><trkpt lat="44.4981183" lon="8.5450883"><ele>594.25</ele><time>2026-04-25T14:25:52.994Z</time></trkpt><trkpt lat="44.49822" lon="8.5449433"><ele>593.0</ele><time>2026-04-25T14:25:53.993Z</time></trkpt><trkpt lat="44.4983283" lon="8.544805"><ele>593.0</ele><time>2026-04-25T14:25:54.995Z</time></trkpt><trkpt lat="44.4984367" lon="8.5446867"><ele>593.0</ele><time>2026-04-25T14:25:55.992Z</time></trkpt><trkpt lat="44.49855" lon="8.5446017"><ele>593.0</ele><time>2026-04-25T14:25:56.996Z</time></trkpt><trkpt lat="44.49865" lon="8.5445417"><ele>593.0</ele><time>2026-04-25T14:25:58Z</time></trkpt><trkpt lat="44.49874" lon="8.5445217"><ele>593.0</ele><time>2026-04-25T14:25:58.995Z</time></trkpt><trkpt lat="44.498825" lon="8.5445233"><ele>593.0</ele><time>2026-04-25T14:25:59.995Z</time></trkpt><trkpt lat="44.4989167" lon="8.5445667"><ele>593.0</ele><time>2026-04-25T14:26:00.993Z</time></trkpt><trkpt lat="44.4989933" lon="8.5446783"><ele>593.0</ele><time>2026-04-25T14:26:01.996Z</time></trkpt><trkpt lat="44.4990767" lon="8.5447683"><ele>593.0</ele><time>2026-04-25T14:26:02.996Z</time></trkpt><trkpt lat="44.49917" lon="8.5448433"><ele>593.0</ele><time>2026-04-25T14:26:03.998Z</time></trkpt><trkpt lat="44.4992767" lon="8.54487"><ele>593.0</ele><time>2026-04-25T14:26:04.995Z</time></trkpt><trkpt lat="44.4993733" lon="8.544835"><ele>593.0</ele><time>2026-04-25T14:26:05.995Z</time></trkpt><trkpt lat="44.4994667" lon="8.5447767"><ele>593.0</ele><time>2026-04-25T14:26:06.995Z</time></trkpt><trkpt lat="44.4995633" lon="8.5447167"><ele>593.0</ele><time>2026-04-25T14:26:07.994Z</time></trkpt><trkpt lat="44.4996567" lon="8.5446967"><ele>592.6</ele><time>2026-04-25T14:26:08.993Z</time></trkpt><trkpt lat="44.4997567" lon="8.544705"><ele>592.1999999999999</ele><time>2026-04-25T14:26:09.993Z</time></trkpt><trkpt lat="44.4998617" lon="8.544695"><ele>591.8</ele><time>2026-04-25T14:26:10.995Z</time></trkpt><trkpt lat="44.4999617" lon="8.5446583"><ele>591.4</ele><time>2026-04-25T14:26:11.994Z</time></trkpt><trkpt lat="44.5000483" lon="8.5445683"><ele>591.0</ele><time>2026-04-25T14:26:12.992Z</time></trkpt><trkpt lat="44.5001067" lon="8.5444467"><ele>588.25</ele><time>2026-04-25T14:26:13.996Z</time></trkpt><trkpt lat="44.5001483" lon="8.5443067"><ele>585.5</ele><time>2026-04-25T14:26:14.992Z</time></trkpt><trkpt lat="44.500155" lon="8.54413"><ele>582.75</ele><time>2026-04-25T14:26:15.998Z</time></trkpt><trkpt lat="44.5001317" lon="8.5439117"><ele>580.0</ele><time>2026-04-25T14:26:17.001Z</time></trkpt><trkpt lat="44.5000583" lon="8.5436583"><ele>578.3333333333334</ele><time>2026-04-25T14:26:17.997Z</time></trkpt><trkpt lat="44.500005" lon="8.5434233"><ele>576.6666666666666</ele><time>2026-04-25T14:26:18.995Z</time></trkpt><trkpt lat="44.4999517" lon="8.5431933"><ele>575.0</ele><time>2026-04-25T14:26:19.997Z</time></trkpt><trkpt lat="44.4999017" lon="8.5429667"><ele>574.3333333333333</ele><time>2026-04-25T14:26:20.993Z</time></trkpt><trkpt lat="44.49984" lon="8.5427583"><ele>573.6666666666666</ele><time>2026-04-25T14:26:21.997Z</time></trkpt><trkpt lat="44.49976" lon="8.54257"><ele>573.0</ele><time>2026-04-25T14:26:22.993Z</time></trkpt><trkpt lat="44.49966" lon="8.5423967"><ele>567.3333333333334</ele><time>2026-04-25T14:26:23.996Z</time></trkpt><trkpt lat="44.499555" lon="8.5422283"><ele>561.6666666666667</ele><time>2026-04-25T14:26:24.999Z</time></trkpt><trkpt lat="44.4994533" lon="8.5420617"><ele>556.0</ele><time>2026-04-25T14:26:25.999Z</time></trkpt><trkpt lat="44.499375" lon="8.54187"><ele>556.0</ele><time>2026-04-25T14:26:27Z</time></trkpt><trkpt lat="44.4993233" lon="8.541665"><ele>556.0</ele><time>2026-04-25T14:26:27.994Z</time></trkpt><trkpt lat="44.4993" lon="8.5414517"><ele>556.0</ele><time>2026-04-25T14:26:28.996Z</time></trkpt><trkpt lat="44.4993033" lon="8.5412383"><ele>554.0</ele><time>2026-04-25T14:26:29.994Z</time></trkpt><trkpt lat="44.4993233" lon="8.5410267"><ele>552.0</ele><time>2026-04-25T14:26:30.992Z</time></trkpt><trkpt lat="44.4993433" lon="8.5408133"><ele>550.0</ele><time>2026-04-25T14:26:31.997Z</time></trkpt><trkpt lat="44.499345" lon="8.5405983"><ele>550.0</ele><time>2026-04-25T14:26:32.995Z</time></trkpt><trkpt lat="44.4993167" lon="8.5403833"><ele>550.0</ele><time>2026-04-25T14:26:33.995Z</time></trkpt><trkpt lat="44.4992717" lon="8.5401617"><ele>550.0</ele><time>2026-04-25T14:26:34.993Z</time></trkpt><trkpt lat="44.4992" lon="8.5399283"><ele>548.6666666666667</ele><time>2026-04-25T14:26:35.997Z</time></trkpt><trkpt lat="44.499125" lon="8.5396917"><ele>547.3333333333334</ele><time>2026-04-25T14:26:36.997Z</time></trkpt><trkpt lat="44.499055" lon="8.539455"><ele>546.0</ele><time>2026-04-25T14:26:37.997Z</time></trkpt><trkpt lat="44.4989883" lon="8.539225"><ele>544.6666666666666</ele><time>2026-04-25T14:26:39Z</time></trkpt><trkpt lat="44.4989117" lon="8.5390167"><ele>543.3333333333333</ele><time>2026-04-25T14:26:39.994Z</time></trkpt><trkpt lat="44.4988317" lon="8.538835"><ele>542.0</ele><time>2026-04-25T14:26:40.999Z</time></trkpt><trkpt lat="44.4987433" lon="8.5386783"><ele>539.75</ele><time>2026-04-25T14:26:41.995Z</time></trkpt><trkpt lat="44.498665" lon="8.5385383"><ele>537.5</ele><time>2026-04-25T14:26:42.997Z</time></trkpt><trkpt lat="44.49861" lon="8.5384017"><ele>535.25</ele><time>2026-04-25T14:26:43.997Z</time></trkpt><trkpt lat="44.4985917" lon="8.5382533"><ele>533.0</ele><time>2026-04-25T14:26:44.993Z</time></trkpt><trkpt lat="44.4985967" lon="8.5380817"><ele>533.0</ele><time>2026-04-25T14:26:45.997Z</time></trkpt><trkpt lat="44.498585" lon="8.5379067"><ele>533.0</ele><time>2026-04-25T14:26:46.998Z</time></trkpt><trkpt lat="44.4985533" lon="8.5377433"><ele>533.0</ele><time>2026-04-25T14:26:47.999Z</time></trkpt><trkpt lat="44.4985" lon="8.5375767"><ele>533.0</ele><time>2026-04-25T14:26:49Z</time></trkpt><trkpt lat="44.4984533" lon="8.5374083"><ele>533.5</ele><time>2026-04-25T14:26:49.995Z</time></trkpt><trkpt lat="44.4984233" lon="8.53723"><ele>534.0</ele><time>2026-04-25T14:26:50.999Z</time></trkpt><trkpt lat="44.4984217" lon="8.5370383"><ele>534.5</ele><time>2026-04-25T14:26:51.998Z</time></trkpt><trkpt lat="44.49842" lon="8.5368333"><ele>535.0</ele><time>2026-04-25T14:26:52.995Z</time></trkpt><trkpt lat="44.4984117" lon="8.536615"><ele>533.3333333333334</ele><time>2026-04-25T14:26:53.994Z</time></trkpt><trkpt lat="44.4984133" lon="8.5363967"><ele>531.6666666666666</ele><time>2026-04-25T14:26:54.993Z</time></trkpt><trkpt lat="44.4984267" lon="8.5361817"><ele>530.0</ele><time>2026-04-25T14:26:55.997Z</time></trkpt><trkpt lat="44.4984383" lon="8.5359633"><ele>527.3333333333333</ele><time>2026-04-25T14:26:56.993Z</time></trkpt><trkpt lat="44.4984283" lon="8.5357367"><ele>524.6666666666666</ele><time>2026-04-25T14:26:58Z</time></trkpt><trkpt lat="44.4984133" lon="8.5355167"><ele>522.0</ele><time>2026-04-25T14:26:58.993Z</time></trkpt><trkpt lat="44.4984017" lon="8.535305"><ele>521.75</ele><time>2026-04-25T14:26:59.994Z</time></trkpt><trkpt lat="44.4983833" lon="8.535095"><ele>521.5</ele><time>2026-04-25T14:27:00.998Z</time></trkpt><trkpt lat="44.4983517" lon="8.5349017"><ele>521.25</ele><time>2026-04-25T14:27:01.992Z</time></trkpt><trkpt lat="44.4983083" lon="8.5347233"><ele>521.0</ele><time>2026-04-25T14:27:02.997Z</time></trkpt><trkpt lat="44.4982483" lon="8.5345633"><ele>519.5</ele><time>2026-04-25T14:27:03.999Z</time></trkpt><trkpt lat="44.4981717" lon="8.5344217"><ele>518.0</ele><time>2026-04-25T14:27:04.994Z</time></trkpt><trkpt lat="44.4980783" lon="8.5342933"><ele>516.5</ele><time>2026-04-25T14:27:05.996Z</time></trkpt><trkpt lat="44.4979667" lon="8.5341833"><ele>515.0</ele><time>2026-04-25T14:27:06.995Z</time></trkpt><trkpt lat="44.4978417" lon="8.5340967"><ele>515.0</ele><time>2026-04-25T14:27:07.994Z</time></trkpt><trkpt lat="44.497705" lon="8.5340233"><ele>515.0</ele><time>2026-04-25T14:27:08.994Z</time></trkpt><trkpt lat="44.4975717" lon="8.5339583"><ele>515.0</ele><time>2026-04-25T14:27:09.995Z</time></trkpt><trkpt lat="44.497455" lon="8.5339217"><ele>515.0</ele><time>2026-04-25T14:27:10.995Z</time></trkpt><trkpt lat="44.497345" lon="8.53393"><ele>515.0</ele><time>2026-04-25T14:27:11.996Z</time></trkpt><trkpt lat="44.4972483" lon="8.5339767"><ele>515.0</ele><time>2026-04-25T14:27:12.999Z</time></trkpt><trkpt lat="44.49716" lon="8.53403"><ele>515.0</ele><time>2026-04-25T14:27:13.993Z</time></trkpt><trkpt lat="44.49707" lon="8.534055"><ele>515.0</ele><time>2026-04-25T14:27:15Z</time></trkpt><trkpt lat="44.4969717" lon="8.5340667"><ele>515.0</ele><time>2026-04-25T14:27:16Z</time></trkpt><trkpt lat="44.4968817" lon="8.5341067"><ele>515.2</ele><time>2026-04-25T14:27:17.003Z</time></trkpt><trkpt lat="44.4968" lon="8.5341883"><ele>515.4</ele><time>2026-04-25T14:27:17.999Z</time></trkpt><trkpt lat="44.4967433" lon="8.53431"><ele>515.6</ele><time>2026-04-25T14:27:18.994Z</time></trkpt><trkpt lat="44.496685" lon="8.5344533"><ele>515.8</ele><time>2026-04-25T14:27:19.995Z</time></trkpt><trkpt lat="44.4966283" lon="8.5346067"><ele>516.0</ele><time>2026-04-25T14:27:20.995Z</time></trkpt><trkpt lat="44.4965733" lon="8.53474"><ele>514.0</ele><time>2026-04-25T14:27:21.991Z</time></trkpt><trkpt lat="44.4965083" lon="8.5348417"><ele>512.0</ele><time>2026-04-25T14:27:22.992Z</time></trkpt><trkpt lat="44.49644" lon="8.534915"><ele>510.0</ele><time>2026-04-25T14:27:23.995Z</time></trkpt><trkpt lat="44.4963683" lon="8.53497"><ele>508.0</ele><time>2026-04-25T14:27:24.993Z</time></trkpt><trkpt lat="44.4963017" lon="8.5349983"><ele>506.0</ele><time>2026-04-25T14:27:25.999Z</time></trkpt><trkpt lat="44.4962283" lon="8.53496"><ele>504.0</ele><time>2026-04-25T14:27:27Z</time></trkpt><trkpt lat="44.4961583" lon="8.5348467"><ele>504.0</ele><time>2026-04-25T14:27:27.993Z</time></trkpt><trkpt lat="44.4960683" lon="8.53472"><ele>504.0</ele><time>2026-04-25T14:27:28.995Z</time></trkpt><trkpt lat="44.4959783" lon="8.5345467"><ele>504.0</ele><time>2026-04-25T14:27:29.996Z</time></trkpt><trkpt lat="44.4959117" lon="8.5343933"><ele>504.0</ele><time>2026-04-25T14:27:30.997Z</time></trkpt><trkpt lat="44.495835" lon="8.534205"><ele>504.0</ele><time>2026-04-25T14:27:31.994Z</time></trkpt><trkpt lat="44.4957717" lon="8.5340217"><ele>504.0</ele><time>2026-04-25T14:27:33Z</time></trkpt><trkpt lat="44.4957283" lon="8.5338083"><ele>504.0</ele><time>2026-04-25T14:27:33.993Z</time></trkpt><trkpt lat="44.4956817" lon="8.53363"><ele>504.0</ele><time>2026-04-25T14:27:34.994Z</time></trkpt><trkpt lat="44.495665" lon="8.53344"><ele>503.79999999999995</ele><time>2026-04-25T14:27:35.994Z</time></trkpt><trkpt lat="44.49565" lon="8.5332817"><ele>503.59999999999997</ele><time>2026-04-25T14:27:36.993Z</time></trkpt><trkpt lat="44.4956467" lon="8.5331167"><ele>503.4</ele><time>2026-04-25T14:27:37.994Z</time></trkpt><trkpt lat="44.4956467" lon="8.5329717"><ele>503.2</ele><time>2026-04-25T14:27:38.996Z</time></trkpt><trkpt lat="44.4956783" lon="8.5328233"><ele>503.0</ele><time>2026-04-25T14:27:39.993Z</time></trkpt><trkpt lat="44.495675" lon="8.532685"><ele>501.59999999999997</ele><time>2026-04-25T14:27:40.995Z</time></trkpt><trkpt lat="44.4956517" lon="8.5325267"><ele>500.19999999999993</ele><time>2026-04-25T14:27:41.993Z</time></trkpt><trkpt lat="44.495635" lon="8.5323833"><ele>498.8</ele><time>2026-04-25T14:27:42.994Z</time></trkpt><trkpt lat="44.4956217" lon="8.5322583"><ele>497.4</ele><time>2026-04-25T14:27:43.995Z</time></trkpt><trkpt lat="44.4956383" lon="8.5320983"><ele>496.0</ele><time>2026-04-25T14:27:44.993Z</time></trkpt><trkpt lat="44.4956483" lon="8.5319467"><ele>495.6</ele><time>2026-04-25T14:27:45.993Z</time></trkpt><trkpt lat="44.4957033" lon="8.531805"><ele>495.20000000000005</ele><time>2026-04-25T14:27:46.993Z</time></trkpt><trkpt lat="44.4957267" lon="8.5316667"><ele>494.79999999999995</ele><time>2026-04-25T14:27:47.996Z</time></trkpt><trkpt lat="44.4957483" lon="8.531545"><ele>494.4</ele><time>2026-04-25T14:27:48.991Z</time></trkpt><trkpt lat="44.495735" lon="8.5314317"><ele>494.0</ele><time>2026-04-25T14:27:49.992Z</time></trkpt><trkpt lat="44.495725" lon="8.5313183"><ele>496.0</ele><time>2026-04-25T14:27:50.995Z</time></trkpt><trkpt lat="44.4956983" lon="8.531195"><ele>498.0</ele><time>2026-04-25T14:27:51.994Z</time></trkpt><trkpt lat="44.495585" lon="8.5311"><ele>500.0</ele><time>2026-04-25T14:27:52.996Z</time></trkpt><trkpt lat="44.4954233" lon="8.531"><ele>502.0</ele><time>2026-04-25T14:27:53.994Z</time></trkpt><trkpt lat="44.4952717" lon="8.530915"><ele>495.0</ele><time>2026-04-25T14:27:54.996Z</time></trkpt><trkpt lat="44.4951183" lon="8.5308183"><ele>488.0</ele><time>2026-04-25T14:27:55.993Z</time></trkpt><trkpt lat="44.4949933" lon="8.530695"><ele>481.0</ele><time>2026-04-25T14:27:56.994Z</time></trkpt><trkpt lat="44.4948667" lon="8.53058"><ele>481.0</ele><time>2026-04-25T14:27:57.998Z</time></trkpt><trkpt lat="44.494745" lon="8.5304667"><ele>481.0</ele><time>2026-04-25T14:27:58.993Z</time></trkpt><trkpt lat="44.4946267" lon="8.530365"><ele>481.0</ele><time>2026-04-25T14:27:59.993Z</time></trkpt><trkpt lat="44.4945183" lon="8.5302517"><ele>481.0</ele><time>2026-04-25T14:28:00.994Z</time></trkpt><trkpt lat="44.494415" lon="8.5301283"><ele>479.0</ele><time>2026-04-25T14:28:01.995Z</time></trkpt><trkpt lat="44.49438" lon="8.5298817"><ele>477.0</ele><time>2026-04-25T14:28:02.993Z</time></trkpt><trkpt lat="44.4943167" lon="8.5296583"><ele>475.0</ele><time>2026-04-25T14:28:03.995Z</time></trkpt><trkpt lat="44.494245" lon="8.52944"><ele>475.0</ele><time>2026-04-25T14:28:04.992Z</time></trkpt><trkpt lat="44.4941683" lon="8.5292483"><ele>475.0</ele><time>2026-04-25T14:28:05.991Z</time></trkpt><trkpt lat="44.4941033" lon="8.5290533"><ele>475.0</ele><time>2026-04-25T14:28:06.998Z</time></trkpt><trkpt lat="44.4940283" lon="8.5288817"><ele>473.5</ele><time>2026-04-25T14:28:07.993Z</time></trkpt><trkpt lat="44.4939833" lon="8.5287067"><ele>472.0</ele><time>2026-04-25T14:28:08.994Z</time></trkpt><trkpt lat="44.4939583" lon="8.5285567"><ele>470.5</ele><time>2026-04-25T14:28:09.993Z</time></trkpt><trkpt lat="44.493935" lon="8.5284017"><ele>469.0</ele><time>2026-04-25T14:28:10.995Z</time></trkpt><trkpt lat="44.4940617" lon="8.528335"><ele>469.0</ele><time>2026-04-25T14:28:11.996Z</time></trkpt><trkpt lat="44.4941233" lon="8.5282367"><ele>469.0</ele><time>2026-04-25T14:28:12.993Z</time></trkpt><trkpt lat="44.4942383" lon="8.5280867"><ele>469.0</ele><time>2026-04-25T14:28:13.993Z</time></trkpt><trkpt lat="44.4943133" lon="8.5279433"><ele>469.0</ele><time>2026-04-25T14:28:14.994Z</time></trkpt><trkpt lat="44.4943767" lon="8.5277833"><ele>466.75</ele><time>2026-04-25T14:28:15.996Z</time></trkpt><trkpt lat="44.4944267" lon="8.5276017"><ele>464.5</ele><time>2026-04-25T14:28:16.998Z</time></trkpt><trkpt lat="44.4944633" lon="8.5274133"><ele>462.25</ele><time>2026-04-25T14:28:17.997Z</time></trkpt><trkpt lat="44.4944817" lon="8.527215"><ele>460.0</ele><time>2026-04-25T14:28:18.997Z</time></trkpt><trkpt lat="44.4944867" lon="8.527015"><ele>459.0</ele><time>2026-04-25T14:28:19.995Z</time></trkpt><trkpt lat="44.49448" lon="8.5268183"><ele>458.0</ele><time>2026-04-25T14:28:20.994Z</time></trkpt><trkpt lat="44.494465" lon="8.5266217"><ele>457.0</ele><time>2026-04-25T14:28:21.994Z</time></trkpt><trkpt lat="44.494445" lon="8.52645"><ele>456.0</ele><time>2026-04-25T14:28:22.995Z</time></trkpt><trkpt lat="44.4944067" lon="8.5262767"><ele>455.5</ele><time>2026-04-25T14:28:24.002Z</time></trkpt><trkpt lat="44.4943583" lon="8.5261117"><ele>455.0</ele><time>2026-04-25T14:28:24.997Z</time></trkpt><trkpt lat="44.4943317" lon="8.52594"><ele>454.5</ele><time>2026-04-25T14:28:25.994Z</time></trkpt><trkpt lat="44.4943033" lon="8.5257683"><ele>454.0</ele><time>2026-04-25T14:28:26.992Z</time></trkpt><trkpt lat="44.4942867" lon="8.5255767"><ele>452.0</ele><time>2026-04-25T14:28:27.997Z</time></trkpt><trkpt lat="44.4942733" lon="8.52539"><ele>450.0</ele><time>2026-04-25T14:28:28.997Z</time></trkpt><trkpt lat="44.4942867" lon="8.525205"><ele>448.0</ele><time>2026-04-25T14:28:29.994Z</time></trkpt><trkpt lat="44.4943417" lon="8.5250483"><ele>446.0</ele><time>2026-04-25T14:28:30.993Z</time></trkpt><trkpt lat="44.4944583" lon="8.5248767"><ele>446.0</ele><time>2026-04-25T14:28:31.992Z</time></trkpt><trkpt lat="44.4945567" lon="8.524695"><ele>446.0</ele><time>2026-04-25T14:28:32.994Z</time></trkpt><trkpt lat="44.4945983" lon="8.5244833"><ele>446.0</ele><time>2026-04-25T14:28:33.994Z</time></trkpt><trkpt lat="44.494635" lon="8.5242633"><ele>444.3333333333333</ele><time>2026-04-25T14:28:34.996Z</time></trkpt><trkpt lat="44.4946567" lon="8.5240367"><ele>442.66666666666663</ele><time>2026-04-25T14:28:35.995Z</time></trkpt><trkpt lat="44.4946883" lon="8.5238133"><ele>441.0</ele><time>2026-04-25T14:28:36.993Z</time></trkpt><trkpt lat="44.49472" lon="8.523595"><ele>440.0</ele><time>2026-04-25T14:28:37.992Z</time></trkpt><trkpt lat="44.4947517" lon="8.5233817"><ele>439.0</ele><time>2026-04-25T14:28:38.998Z</time></trkpt><trkpt lat="44.4947933" lon="8.5231767"><ele>438.0</ele><time>2026-04-25T14:28:39.994Z</time></trkpt><trkpt lat="44.494845" lon="8.522975"><ele>436.75</ele><time>2026-04-25T14:28:40.992Z</time></trkpt><trkpt lat="44.4948967" lon="8.5227833"><ele>435.5</ele><time>2026-04-25T14:28:41.996Z</time></trkpt><trkpt lat="44.49495" lon="8.522605"><ele>434.25</ele><time>2026-04-25T14:28:42.997Z</time></trkpt><trkpt lat="44.4950083" lon="8.5224533"><ele>433.0</ele><time>2026-04-25T14:28:44Z</time></trkpt><trkpt lat="44.4950767" lon="8.5223317"><ele>433.0</ele><time>2026-04-25T14:28:44.996Z</time></trkpt><trkpt lat="44.49515" lon="8.5222433"><ele>432.99999999999994</ele><time>2026-04-25T14:28:46.003Z</time></trkpt><trkpt lat="44.4952333" lon="8.522185"><ele>432.99999999999994</ele><time>2026-04-25T14:28:46.994Z</time></trkpt><trkpt lat="44.49533" lon="8.5221567"><ele>433.0</ele><time>2026-04-25T14:28:47.999Z</time></trkpt><trkpt lat="44.4954383" lon="8.5221333"><ele>433.0</ele><time>2026-04-25T14:28:48.994Z</time></trkpt><trkpt lat="44.495545" lon="8.5220817"><ele>433.0</ele><time>2026-04-25T14:28:49.994Z</time></trkpt><trkpt lat="44.4956433" lon="8.5220033"><ele>433.0</ele><time>2026-04-25T14:28:50.992Z</time></trkpt><trkpt lat="44.4957317" lon="8.5218883"><ele>433.0</ele><time>2026-04-25T14:28:51.993Z</time></trkpt><trkpt lat="44.4957967" lon="8.52173"><ele>433.0</ele><time>2026-04-25T14:28:52.996Z</time></trkpt><trkpt lat="44.4958533" lon="8.5215517"><ele>433.0</ele><time>2026-04-25T14:28:53.999Z</time></trkpt><trkpt lat="44.4959017" lon="8.5213533"><ele>433.0</ele><time>2026-04-25T14:28:54.996Z</time></trkpt><trkpt lat="44.4959317" lon="8.521135"><ele>433.0</ele><time>2026-04-25T14:28:55.994Z</time></trkpt><trkpt lat="44.4959383" lon="8.5209033"><ele>433.0</ele><time>2026-04-25T14:28:56.994Z</time></trkpt><trkpt lat="44.49594" lon="8.5206683"><ele>433.0</ele><time>2026-04-25T14:28:57.993Z</time></trkpt><trkpt lat="44.4959417" lon="8.5204417"><ele>433.0</ele><time>2026-04-25T14:28:58.998Z</time></trkpt><trkpt lat="44.4959467" lon="8.5202167"><ele>432.6666666666667</ele><time>2026-04-25T14:29:00.001Z</time></trkpt><trkpt lat="44.4959367" lon="8.520005"><ele>432.33333333333337</ele><time>2026-04-25T14:29:00.998Z</time></trkpt><trkpt lat="44.4959" lon="8.5198"><ele>432.0</ele><time>2026-04-25T14:29:01.997Z</time></trkpt><trkpt lat="44.4958333" lon="8.5195917"><ele>433.0</ele><time>2026-04-25T14:29:03.004Z</time></trkpt><trkpt lat="44.4957583" lon="8.51939"><ele>434.0</ele><time>2026-04-25T14:29:03.996Z</time></trkpt><trkpt lat="44.4956867" lon="8.5191833"><ele>435.0</ele><time>2026-04-25T14:29:04.996Z</time></trkpt><trkpt lat="44.495605" lon="8.5189767"><ele>435.0</ele><time>2026-04-25T14:29:05.995Z</time></trkpt><trkpt lat="44.4955283" lon="8.51874"><ele>435.0</ele><time>2026-04-25T14:29:06.996Z</time></trkpt><trkpt lat="44.4954467" lon="8.5185033"><ele>435.0</ele><time>2026-04-25T14:29:07.999Z</time></trkpt><trkpt lat="44.4953667" lon="8.5182717"><ele>433.66666666666663</ele><time>2026-04-25T14:29:08.995Z</time></trkpt><trkpt lat="44.49529" lon="8.5180483"><ele>432.3333333333333</ele><time>2026-04-25T14:29:09.999Z</time></trkpt><trkpt lat="44.4952117" lon="8.5178283"><ele>431.0</ele><time>2026-04-25T14:29:10.994Z</time></trkpt><trkpt lat="44.495135" lon="8.5176067"><ele>431.0</ele><time>2026-04-25T14:29:11.993Z</time></trkpt><trkpt lat="44.4950633" lon="8.517385"><ele>431.0</ele><time>2026-04-25T14:29:12.994Z</time></trkpt><trkpt lat="44.4949883" lon="8.5171767"><ele>431.0</ele><time>2026-04-25T14:29:13.994Z</time></trkpt><trkpt lat="44.4948983" lon="8.5169783"><ele>432.66666666666663</ele><time>2026-04-25T14:29:14.993Z</time></trkpt><trkpt lat="44.4948017" lon="8.516775"><ele>434.33333333333337</ele><time>2026-04-25T14:29:15.996Z</time></trkpt><trkpt lat="44.4946933" lon="8.51658"><ele>436.0</ele><time>2026-04-25T14:29:16.993Z</time></trkpt><trkpt lat="44.49458" lon="8.51639"><ele>434.0</ele><time>2026-04-25T14:29:17.998Z</time></trkpt><trkpt lat="44.4944683" lon="8.5161883"><ele>432.0</ele><time>2026-04-25T14:29:18.997Z</time></trkpt><trkpt lat="44.4943683" lon="8.5159717"><ele>430.0</ele><time>2026-04-25T14:29:19.994Z</time></trkpt><trkpt lat="44.494275" lon="8.51576"><ele>430.0</ele><time>2026-04-25T14:29:20.996Z</time></trkpt><trkpt lat="44.49419" lon="8.5155583"><ele>430.0</ele><time>2026-04-25T14:29:22.003Z</time></trkpt><trkpt lat="44.4941083" lon="8.5153733"><ele>430.0</ele><time>2026-04-25T14:29:22.994Z</time></trkpt><trkpt lat="44.4940133" lon="8.5152217"><ele>428.75</ele><time>2026-04-25T14:29:23.996Z</time></trkpt><trkpt lat="44.4938967" lon="8.515115"><ele>427.5</ele><time>2026-04-25T14:29:24.996Z</time></trkpt><trkpt lat="44.4937667" lon="8.5150433"><ele>426.25</ele><time>2026-04-25T14:29:25.995Z</time></trkpt><trkpt lat="44.4936267" lon="8.5150067"><ele>425.0</ele><time>2026-04-25T14:29:26.999Z</time></trkpt><trkpt lat="44.493485" lon="8.5149733"><ele>425.0</ele><time>2026-04-25T14:29:27.994Z</time></trkpt><trkpt lat="44.4933517" lon="8.5149433"><ele>425.0</ele><time>2026-04-25T14:29:28.995Z</time></trkpt><trkpt lat="44.4932267" lon="8.514915"><ele>425.0</ele><time>2026-04-25T14:29:29.993Z</time></trkpt><trkpt lat="44.4931183" lon="8.5148867"><ele>425.0</ele><time>2026-04-25T14:29:31.001Z</time></trkpt><trkpt lat="44.4930283" lon="8.5148417"><ele>425.0</ele><time>2026-04-25T14:29:31.996Z</time></trkpt><trkpt lat="44.49296" lon="8.5147717"><ele>425.0</ele><time>2026-04-25T14:29:32.997Z</time></trkpt><trkpt lat="44.4928933" lon="8.5146883"><ele>425.0</ele><time>2026-04-25T14:29:33.994Z</time></trkpt><trkpt lat="44.4928267" lon="8.5145917"><ele>425.0</ele><time>2026-04-25T14:29:34.993Z</time></trkpt><trkpt lat="44.49279" lon="8.5144167"><ele>425.0</ele><time>2026-04-25T14:29:35.999Z</time></trkpt><trkpt lat="44.4927483" lon="8.51424"><ele>423.3333333333333</ele><time>2026-04-25T14:29:36.995Z</time></trkpt><trkpt lat="44.4927017" lon="8.51404"><ele>421.66666666666663</ele><time>2026-04-25T14:29:37.997Z</time></trkpt><trkpt lat="44.4926483" lon="8.51382"><ele>420.0</ele><time>2026-04-25T14:29:38.995Z</time></trkpt><trkpt lat="44.4925883" lon="8.51362"><ele>420.0</ele><time>2026-04-25T14:29:39.994Z</time></trkpt><trkpt lat="44.4925167" lon="8.5134267"><ele>420.0</ele><time>2026-04-25T14:29:40.996Z</time></trkpt><trkpt lat="44.4924383" lon="8.5132317"><ele>420.0</ele><time>2026-04-25T14:29:41.995Z</time></trkpt><trkpt lat="44.49236" lon="8.5130383"><ele>420.66666666666663</ele><time>2026-04-25T14:29:42.999Z</time></trkpt><trkpt lat="44.4922767" lon="8.512845"><ele>421.3333333333333</ele><time>2026-04-25T14:29:43.996Z</time></trkpt><trkpt lat="44.4921933" lon="8.51266"><ele>422.0</ele><time>2026-04-25T14:29:44.997Z</time></trkpt><trkpt lat="44.4921083" lon="8.5124767"><ele>420.0</ele><time>2026-04-25T14:29:45.997Z</time></trkpt><trkpt lat="44.4920133" lon="8.512295"><ele>418.0</ele><time>2026-04-25T14:29:46.997Z</time></trkpt><trkpt lat="44.49192" lon="8.5121083"><ele>416.0</ele><time>2026-04-25T14:29:47.995Z</time></trkpt><trkpt lat="44.4918133" lon="8.5119283"><ele>416.0</ele><time>2026-04-25T14:29:48.997Z</time></trkpt><trkpt lat="44.4916917" lon="8.5117533"><ele>416.0</ele><time>2026-04-25T14:29:49.996Z</time></trkpt><trkpt lat="44.49157" lon="8.5115683"><ele>416.0</ele><time>2026-04-25T14:29:50.995Z</time></trkpt><trkpt lat="44.4914483" lon="8.511375"><ele>415.3333333333333</ele><time>2026-04-25T14:29:51.994Z</time></trkpt><trkpt lat="44.4913267" lon="8.511185"><ele>414.66666666666663</ele><time>2026-04-25T14:29:52.996Z</time></trkpt><trkpt lat="44.4911983" lon="8.5109883"><ele>414.0</ele><time>2026-04-25T14:29:53.998Z</time></trkpt><trkpt lat="44.491065" lon="8.5107983"><ele>414.0</ele><time>2026-04-25T14:29:55Z</time></trkpt><trkpt lat="44.4909317" lon="8.51061"><ele>414.0</ele><time>2026-04-25T14:29:56Z</time></trkpt><trkpt lat="44.4907983" lon="8.51042"><ele>414.0</ele><time>2026-04-25T14:29:56.995Z</time></trkpt><trkpt lat="44.4906667" lon="8.5102267"><ele>414.33333333333337</ele><time>2026-04-25T14:29:57.996Z</time></trkpt><trkpt lat="44.4905367" lon="8.5100283"><ele>414.6666666666667</ele><time>2026-04-25T14:29:58.995Z</time></trkpt><trkpt lat="44.49041" lon="8.5098183"><ele>415.0</ele><time>2026-04-25T14:29:59.996Z</time></trkpt><trkpt lat="44.490295" lon="8.5096167"><ele>413.0</ele><time>2026-04-25T14:30:00.997Z</time></trkpt><trkpt lat="44.490195" lon="8.5094183"><ele>411.0</ele><time>2026-04-25T14:30:01.998Z</time></trkpt><trkpt lat="44.4901267" lon="8.5092"><ele>409.0</ele><time>2026-04-25T14:30:03Z</time></trkpt><trkpt lat="44.4900817" lon="8.5089633"><ele>408.6666666666667</ele><time>2026-04-25T14:30:03.999Z</time></trkpt><trkpt lat="44.4900233" lon="8.508735"><ele>408.33333333333337</ele><time>2026-04-25T14:30:04.995Z</time></trkpt><trkpt lat="44.489955" lon="8.5084983"><ele>408.0</ele><time>2026-04-25T14:30:05.993Z</time></trkpt><trkpt lat="44.48987" lon="8.50827"><ele>408.0</ele><time>2026-04-25T14:30:06.996Z</time></trkpt><trkpt lat="44.4897867" lon="8.5080283"><ele>408.0</ele><time>2026-04-25T14:30:08.001Z</time></trkpt><trkpt lat="44.4896967" lon="8.5077817"><ele>408.0</ele><time>2026-04-25T14:30:09Z</time></trkpt><trkpt lat="44.4896033" lon="8.5075333"><ele>405.0</ele><time>2026-04-25T14:30:09.998Z</time></trkpt><trkpt lat="44.4895117" lon="8.5072717"><ele>402.0</ele><time>2026-04-25T14:30:10.997Z</time></trkpt><trkpt lat="44.4894133" lon="8.50701"><ele>399.0</ele><time>2026-04-25T14:30:11.999Z</time></trkpt><trkpt lat="44.4893133" lon="8.5067517"><ele>398.66666666666663</ele><time>2026-04-25T14:30:12.996Z</time></trkpt><trkpt lat="44.4892217" lon="8.5065133"><ele>398.3333333333333</ele><time>2026-04-25T14:30:13.995Z</time></trkpt><trkpt lat="44.4891317" lon="8.5062933"><ele>398.0</ele><time>2026-04-25T14:30:14.999Z</time></trkpt><trkpt lat="44.4890383" lon="8.5060983"><ele>397.0</ele><time>2026-04-25T14:30:15.994Z</time></trkpt><trkpt lat="44.48891" lon="8.5059417"><ele>396.0</ele><time>2026-04-25T14:30:16.995Z</time></trkpt><trkpt lat="44.488775" lon="8.5057917"><ele>395.0</ele><time>2026-04-25T14:30:17.996Z</time></trkpt><trkpt lat="44.4886317" lon="8.5056517"><ele>395.0</ele><time>2026-04-25T14:30:18.997Z</time></trkpt><trkpt lat="44.4884717" lon="8.50552"><ele>395.0</ele><time>2026-04-25T14:30:19.994Z</time></trkpt><trkpt lat="44.4883133" lon="8.5053883"><ele>395.0</ele><time>2026-04-25T14:30:20.995Z</time></trkpt><trkpt lat="44.48816" lon="8.505255"><ele>394.3333333333333</ele><time>2026-04-25T14:30:21.998Z</time></trkpt><trkpt lat="44.488015" lon="8.505125"><ele>393.66666666666663</ele><time>2026-04-25T14:30:22.999Z</time></trkpt><trkpt lat="44.4878817" lon="8.505005"><ele>393.0</ele><time>2026-04-25T14:30:24Z</time></trkpt><trkpt lat="44.4877633" lon="8.5048933"><ele>393.0</ele><time>2026-04-25T14:30:25.001Z</time></trkpt><trkpt lat="44.4876467" lon="8.5047967"><ele>393.0</ele><time>2026-04-25T14:30:25.996Z</time></trkpt><trkpt lat="44.4875367" lon="8.504725"><ele>393.0</ele><time>2026-04-25T14:30:26.997Z</time></trkpt><trkpt lat="44.4874267" lon="8.5046767"><ele>393.0</ele><time>2026-04-25T14:30:27.994Z</time></trkpt><trkpt lat="44.4873167" lon="8.5046517"><ele>393.0</ele><time>2026-04-25T14:30:29Z</time></trkpt><trkpt lat="44.4872083" lon="8.50465"><ele>393.0</ele><time>2026-04-25T14:30:29.996Z</time></trkpt><trkpt lat="44.4871" lon="8.5046833"><ele>393.0</ele><time>2026-04-25T14:30:30.998Z</time></trkpt><trkpt lat="44.4870033" lon="8.5047633"><ele>393.0</ele><time>2026-04-25T14:30:31.999Z</time></trkpt><trkpt lat="44.4869167" lon="8.5048717"><ele>393.0</ele><time>2026-04-25T14:30:32.997Z</time></trkpt><trkpt lat="44.4868283" lon="8.5049967"><ele>392.4</ele><time>2026-04-25T14:30:34Z</time></trkpt><trkpt lat="44.4867417" lon="8.5051133"><ele>391.79999999999995</ele><time>2026-04-25T14:30:34.997Z</time></trkpt><trkpt lat="44.4866383" lon="8.5051817"><ele>391.2</ele><time>2026-04-25T14:30:36.001Z</time></trkpt><trkpt lat="44.4865383" lon="8.5051967"><ele>390.6</ele><time>2026-04-25T14:30:36.999Z</time></trkpt><trkpt lat="44.486445" lon="8.5051683"><ele>390.0</ele><time>2026-04-25T14:30:37.994Z</time></trkpt><trkpt lat="44.4863533" lon="8.5050967"><ele>390.0</ele><time>2026-04-25T14:30:38.995Z</time></trkpt><trkpt lat="44.4862633" lon="8.505"><ele>390.0</ele><time>2026-04-25T14:30:39.993Z</time></trkpt><trkpt lat="44.4861767" lon="8.5048767"><ele>390.0</ele><time>2026-04-25T14:30:40.995Z</time></trkpt><trkpt lat="44.4860867" lon="8.5047483"><ele>390.0</ele><time>2026-04-25T14:30:41.994Z</time></trkpt><trkpt lat="44.48599" lon="8.504625"><ele>390.0</ele><time>2026-04-25T14:30:42.998Z</time></trkpt><trkpt lat="44.4858933" lon="8.5044983"><ele>390.0</ele><time>2026-04-25T14:30:43.998Z</time></trkpt><trkpt lat="44.4858083" lon="8.5043717"><ele>390.0</ele><time>2026-04-25T14:30:44.996Z</time></trkpt><trkpt lat="44.4857283" lon="8.5042517"><ele>390.0</ele><time>2026-04-25T14:30:45.995Z</time></trkpt><trkpt lat="44.4856517" lon="8.5041367"><ele>390.0</ele><time>2026-04-25T14:30:46.996Z</time></trkpt><trkpt lat="44.4855783" lon="8.50403"><ele>390.0</ele><time>2026-04-25T14:30:47.999Z</time></trkpt><trkpt lat="44.4855133" lon="8.5039283"><ele>390.0</ele><time>2026-04-25T14:30:49.001Z</time></trkpt><trkpt lat="44.48544" lon="8.503835"><ele>390.0</ele><time>2026-04-25T14:30:49.995Z</time></trkpt><trkpt lat="44.4853717" lon="8.5037533"><ele>390.0</ele><time>2026-04-25T14:30:50.998Z</time></trkpt><trkpt lat="44.485295" lon="8.5036967"><ele>390.0</ele><time>2026-04-25T14:30:51.998Z</time></trkpt><trkpt lat="44.4852233" lon="8.5036567"><ele>390.0</ele><time>2026-04-25T14:30:52.997Z</time></trkpt><trkpt lat="44.4851433" lon="8.503675"><ele>390.0</ele><time>2026-04-25T14:30:53.993Z</time></trkpt><trkpt lat="44.48507" lon="8.5037467"><ele>390.0</ele><time>2026-04-25T14:30:54.993Z</time></trkpt><trkpt lat="44.484995" lon="8.5038383"><ele>390.0</ele><time>2026-04-25T14:30:55.996Z</time></trkpt><trkpt lat="44.4849267" lon="8.5039383"><ele>390.0</ele><time>2026-04-25T14:30:56.998Z</time></trkpt><trkpt lat="44.48485" lon="8.50402"><ele>390.0</ele><time>2026-04-25T14:30:58Z</time></trkpt><trkpt lat="44.4847667" lon="8.5040683"><ele>390.0</ele><time>2026-04-25T14:30:58.995Z</time></trkpt><trkpt lat="44.48467" lon="8.504095"><ele>390.0</ele><time>2026-04-25T14:30:59.999Z</time></trkpt><trkpt lat="44.4845617" lon="8.5041083"><ele>390.0</ele><time>2026-04-25T14:31:00.996Z</time></trkpt><trkpt lat="44.4844633" lon="8.5040817"><ele>390.0</ele><time>2026-04-25T14:31:01.994Z</time></trkpt><trkpt lat="44.484365" lon="8.5040267"><ele>390.2</ele><time>2026-04-25T14:31:02.997Z</time></trkpt><trkpt lat="44.4842667" lon="8.5039683"><ele>390.4</ele><time>2026-04-25T14:31:03.995Z</time></trkpt><trkpt lat="44.4841817" lon="8.5038983"><ele>390.6</ele><time>2026-04-25T14:31:04.993Z</time></trkpt><trkpt lat="44.484105" lon="8.5038167"><ele>390.8</ele><time>2026-04-25T14:31:05.992Z</time></trkpt><trkpt lat="44.4840417" lon="8.50373"><ele>391.0</ele><time>2026-04-25T14:31:06.995Z</time></trkpt><trkpt lat="44.48399" lon="8.5036333"><ele>391.0</ele><time>2026-04-25T14:31:07.996Z</time></trkpt><trkpt lat="44.48399" lon="8.503505"><ele>391.0</ele><time>2026-04-25T14:31:08.997Z</time></trkpt><trkpt lat="44.4840117" lon="8.50337"><ele>391.0</ele><time>2026-04-25T14:31:09.994Z</time></trkpt><trkpt lat="44.4840467" lon="8.5032167"><ele>391.0</ele><time>2026-04-25T14:31:11.001Z</time></trkpt><trkpt lat="44.4840567" lon="8.503075"><ele>391.0</ele><time>2026-04-25T14:31:11.995Z</time></trkpt><trkpt lat="44.48405" lon="8.50292"><ele>390.25</ele><time>2026-04-25T14:31:12.997Z</time></trkpt><trkpt lat="44.4840417" lon="8.502745"><ele>389.5</ele><time>2026-04-25T14:31:13.997Z</time></trkpt><trkpt lat="44.4840333" lon="8.502565"><ele>388.75</ele><time>2026-04-25T14:31:14.996Z</time></trkpt><trkpt lat="44.4840133" lon="8.5024017"><ele>388.0</ele><time>2026-04-25T14:31:16.001Z</time></trkpt><trkpt lat="44.484" lon="8.50223"><ele>388.0</ele><time>2026-04-25T14:31:16.993Z</time></trkpt><trkpt lat="44.4839683" lon="8.50207"><ele>388.0</ele><time>2026-04-25T14:31:17.995Z</time></trkpt><trkpt lat="44.4839367" lon="8.5019133"><ele>388.0</ele><time>2026-04-25T14:31:18.994Z</time></trkpt><trkpt lat="44.4838833" lon="8.501785"><ele>388.0</ele><time>2026-04-25T14:31:19.995Z</time></trkpt><trkpt lat="44.48382" lon="8.5016683"><ele>388.0</ele><time>2026-04-25T14:31:20.995Z</time></trkpt><trkpt lat="44.4837433" lon="8.5015467"><ele>388.0</ele><time>2026-04-25T14:31:21.995Z</time></trkpt><trkpt lat="44.4836717" lon="8.5014167"><ele>388.0</ele><time>2026-04-25T14:31:22.995Z</time></trkpt><trkpt lat="44.4836117" lon="8.5012767"><ele>388.0</ele><time>2026-04-25T14:31:23.994Z</time></trkpt><trkpt lat="44.4835717" lon="8.501125"><ele>388.0</ele><time>2026-04-25T14:31:24.996Z</time></trkpt><trkpt lat="44.48354" lon="8.5009617"><ele>387.25</ele><time>2026-04-25T14:31:25.993Z</time></trkpt><trkpt lat="44.4835267" lon="8.5008033"><ele>386.5</ele><time>2026-04-25T14:31:26.998Z</time></trkpt><trkpt lat="44.48352" lon="8.5006417"><ele>385.75</ele><time>2026-04-25T14:31:27.994Z</time></trkpt><trkpt lat="44.4835033" lon="8.500485"><ele>385.0</ele><time>2026-04-25T14:31:28.995Z</time></trkpt><trkpt lat="44.4834883" lon="8.5003317"><ele>385.0</ele><time>2026-04-25T14:31:29.996Z</time></trkpt><trkpt lat="44.4834633" lon="8.5001867"><ele>385.0</ele><time>2026-04-25T14:31:30.999Z</time></trkpt><trkpt lat="44.483435" lon="8.50005"><ele>385.0</ele><time>2026-04-25T14:31:31.995Z</time></trkpt><trkpt lat="44.483395" lon="8.499915"><ele>385.0</ele><time>2026-04-25T14:31:32.999Z</time></trkpt><trkpt lat="44.4833467" lon="8.4997767"><ele>385.0</ele><time>2026-04-25T14:31:34Z</time></trkpt><trkpt lat="44.4832933" lon="8.49964"><ele>384.6</ele><time>2026-04-25T14:31:34.995Z</time></trkpt><trkpt lat="44.4832383" lon="8.4995033"><ele>384.2</ele><time>2026-04-25T14:31:35.997Z</time></trkpt><trkpt lat="44.4831767" lon="8.4993717"><ele>383.79999999999995</ele><time>2026-04-25T14:31:36.997Z</time></trkpt><trkpt lat="44.4831183" lon="8.4992417"><ele>383.4</ele><time>2026-04-25T14:31:37.997Z</time></trkpt><trkpt lat="44.4830583" lon="8.4991117"><ele>383.0</ele><time>2026-04-25T14:31:39Z</time></trkpt><trkpt lat="44.4829983" lon="8.4989917"><ele>383.0</ele><time>2026-04-25T14:31:39.995Z</time></trkpt><trkpt lat="44.4829367" lon="8.4988717"><ele>383.0</ele><time>2026-04-25T14:31:40.996Z</time></trkpt><trkpt lat="44.4828733" lon="8.4987467"><ele>383.0</ele><time>2026-04-25T14:31:41.995Z</time></trkpt><trkpt lat="44.4828083" lon="8.4986133"><ele>383.0</ele><time>2026-04-25T14:31:42.993Z</time></trkpt><trkpt lat="44.4827467" lon="8.49848"><ele>383.0</ele><time>2026-04-25T14:31:43.994Z</time></trkpt><trkpt lat="44.4826967" lon="8.49834"><ele>383.25</ele><time>2026-04-25T14:31:44.994Z</time></trkpt><trkpt lat="44.4826467" lon="8.49819"><ele>383.5</ele><time>2026-04-25T14:31:45.998Z</time></trkpt><trkpt lat="44.4826" lon="8.4980317"><ele>383.75</ele><time>2026-04-25T14:31:46.994Z</time></trkpt><trkpt lat="44.4825533" lon="8.4978617"><ele>384.0</ele><time>2026-04-25T14:31:47.993Z</time></trkpt><trkpt lat="44.4825033" lon="8.4976983"><ele>384.0</ele><time>2026-04-25T14:31:48.993Z</time></trkpt><trkpt lat="44.4824483" lon="8.4975233"><ele>384.0</ele><time>2026-04-25T14:31:49.995Z</time></trkpt><trkpt lat="44.482395" lon="8.49735"><ele>384.0</ele><time>2026-04-25T14:31:50.996Z</time></trkpt><trkpt lat="44.48234" lon="8.4971817"><ele>384.0</ele><time>2026-04-25T14:31:51.992Z</time></trkpt><trkpt lat="44.4822867" lon="8.49701"><ele>383.4</ele><time>2026-04-25T14:31:52.993Z</time></trkpt><trkpt lat="44.4822333" lon="8.496845"><ele>382.79999999999995</ele><time>2026-04-25T14:31:53.996Z</time></trkpt><trkpt lat="44.48218" lon="8.4966917"><ele>382.20000000000005</ele><time>2026-04-25T14:31:54.996Z</time></trkpt><trkpt lat="44.4821317" lon="8.4965667"><ele>381.6</ele><time>2026-04-25T14:31:55.994Z</time></trkpt><trkpt lat="44.4820933" lon="8.49646"><ele>381.0</ele><time>2026-04-25T14:31:56.998Z</time></trkpt><trkpt lat="44.482055" lon="8.49636"><ele>381.8</ele><time>2026-04-25T14:31:57.999Z</time></trkpt><trkpt lat="44.4820067" lon="8.496255"><ele>382.6</ele><time>2026-04-25T14:31:58.998Z</time></trkpt><trkpt lat="44.48195" lon="8.4961383"><ele>383.4</ele><time>2026-04-25T14:31:59.998Z</time></trkpt><trkpt lat="44.4818867" lon="8.496"><ele>384.2</ele><time>2026-04-25T14:32:00.999Z</time></trkpt><trkpt lat="44.48182" lon="8.495845"><ele>385.0</ele><time>2026-04-25T14:32:01.995Z</time></trkpt><trkpt lat="44.4817483" lon="8.4956833"><ele>385.0</ele><time>2026-04-25T14:32:02.996Z</time></trkpt><trkpt lat="44.4816733" lon="8.495515"><ele>385.0</ele><time>2026-04-25T14:32:03.997Z</time></trkpt><trkpt lat="44.4815883" lon="8.4953467"><ele>385.0</ele><time>2026-04-25T14:32:04.992Z</time></trkpt><trkpt lat="44.4814933" lon="8.4951867"><ele>385.0</ele><time>2026-04-25T14:32:05.995Z</time></trkpt><trkpt lat="44.4813817" lon="8.4950317"><ele>388.33333333333337</ele><time>2026-04-25T14:32:06.994Z</time></trkpt><trkpt lat="44.481265" lon="8.4948867"><ele>391.66666666666663</ele><time>2026-04-25T14:32:07.996Z</time></trkpt><trkpt lat="44.4811433" lon="8.4947533"><ele>395.0</ele><time>2026-04-25T14:32:08.999Z</time></trkpt><trkpt lat="44.4810183" lon="8.494625"><ele>390.0</ele><time>2026-04-25T14:32:09.995Z</time></trkpt><trkpt lat="44.48089" lon="8.4945083"><ele>385.0</ele><time>2026-04-25T14:32:10.993Z</time></trkpt><trkpt lat="44.4807617" lon="8.4943967"><ele>380.0</ele><time>2026-04-25T14:32:11.994Z</time></trkpt><trkpt lat="44.4806367" lon="8.4942867"><ele>380.0</ele><time>2026-04-25T14:32:12.999Z</time></trkpt><trkpt lat="44.4805217" lon="8.4941733"><ele>380.0</ele><time>2026-04-25T14:32:13.997Z</time></trkpt><trkpt lat="44.4803983" lon="8.4940767"><ele>380.0</ele><time>2026-04-25T14:32:14.993Z</time></trkpt><trkpt lat="44.4802817" lon="8.4939733"><ele>380.0</ele><time>2026-04-25T14:32:15.997Z</time></trkpt><trkpt lat="44.4801833" lon="8.4938633"><ele>382.5</ele><time>2026-04-25T14:32:16.993Z</time></trkpt><trkpt lat="44.4801133" lon="8.4937333"><ele>385.0</ele><time>2026-04-25T14:32:17.997Z</time></trkpt><trkpt lat="44.4800533" lon="8.4935967"><ele>387.5</ele><time>2026-04-25T14:32:18.998Z</time></trkpt><trkpt lat="44.4800017" lon="8.493445"><ele>390.0</ele><time>2026-04-25T14:32:19.999Z</time></trkpt><trkpt lat="44.4799567" lon="8.4932833"><ele>390.0</ele><time>2026-04-25T14:32:21Z</time></trkpt><trkpt lat="44.4799083" lon="8.4931283"><ele>390.0</ele><time>2026-04-25T14:32:21.995Z</time></trkpt><trkpt lat="44.4798667" lon="8.492995"><ele>390.0</ele><time>2026-04-25T14:32:22.994Z</time></trkpt><trkpt lat="44.4798367" lon="8.492855"><ele>390.0</ele><time>2026-04-25T14:32:23.996Z</time></trkpt><trkpt lat="44.479805" lon="8.49273"><ele>390.0</ele><time>2026-04-25T14:32:24.997Z</time></trkpt><trkpt lat="44.47977" lon="8.4926017"><ele>389.0</ele><time>2026-04-25T14:32:25.999Z</time></trkpt><trkpt lat="44.4797417" lon="8.49248"><ele>388.0</ele><time>2026-04-25T14:32:27.005Z</time></trkpt><trkpt lat="44.4797133" lon="8.49236"><ele>387.0</ele><time>2026-04-25T14:32:28Z</time></trkpt><trkpt lat="44.4796783" lon="8.4922567"><ele>386.0</ele><time>2026-04-25T14:32:29Z</time></trkpt><trkpt lat="44.4796483" lon="8.4921483"><ele>385.0</ele><time>2026-04-25T14:32:29.996Z</time></trkpt><trkpt lat="44.4796233" lon="8.492035"><ele>384.0</ele><time>2026-04-25T14:32:30.999Z</time></trkpt><trkpt lat="44.4796017" lon="8.4919167"><ele>385.0</ele><time>2026-04-25T14:32:31.996Z</time></trkpt><trkpt lat="44.4795783" lon="8.491795"><ele>386.0</ele><time>2026-04-25T14:32:32.997Z</time></trkpt><trkpt lat="44.47955" lon="8.4916683"><ele>387.0</ele><time>2026-04-25T14:32:33.995Z</time></trkpt><trkpt lat="44.4795333" lon="8.4915383"><ele>388.0</ele><time>2026-04-25T14:32:34.999Z</time></trkpt><trkpt lat="44.4795117" lon="8.491415"><ele>389.0</ele><time>2026-04-25T14:32:35.997Z</time></trkpt><trkpt lat="44.4794967" lon="8.4912917"><ele>388.8333333333333</ele><time>2026-04-25T14:32:36.998Z</time></trkpt><trkpt lat="44.4794833" lon="8.491165"><ele>388.66666666666663</ele><time>2026-04-25T14:32:38Z</time></trkpt><trkpt lat="44.4794833" lon="8.4910333"><ele>388.5</ele><time>2026-04-25T14:32:39.002Z</time></trkpt><trkpt lat="44.47947" lon="8.49092"><ele>388.33333333333337</ele><time>2026-04-25T14:32:39.995Z</time></trkpt><trkpt lat="44.4794567" lon="8.49083"><ele>388.1666666666667</ele><time>2026-04-25T14:32:41Z</time></trkpt><trkpt lat="44.4794583" lon="8.490705"><ele>388.0</ele><time>2026-04-25T14:32:42.993Z</time></trkpt><trkpt lat="44.479495" lon="8.4906"><ele>388.00000000000006</ele><time>2026-04-25T14:32:47.003Z</time></trkpt><trkpt lat="44.4795083" lon="8.4904683"><ele>388.0</ele><time>2026-04-25T14:32:49.994Z</time></trkpt><trkpt lat="44.4795267" lon="8.49038"><ele>388.0</ele><time>2026-04-25T14:32:51.999Z</time></trkpt><trkpt lat="44.4795833" lon="8.490305"><ele>388.0</ele><time>2026-04-25T14:32:54.994Z</time></trkpt><trkpt lat="44.4796433" lon="8.49037"><ele>388.00000000000006</ele><time>2026-04-25T14:33:09.997Z</time></trkpt><trkpt lat="44.4796917" lon="8.49048"><ele>388.0</ele><time>2026-04-25T14:33:16.995Z</time></trkpt><trkpt lat="44.479715" lon="8.4905833"><ele>377.0</ele><time>2026-04-25T14:33:19.999Z</time></trkpt></trkseg><trkseg><trkpt lat="44.4796217" lon="8.490685"><ele>379.20000000000005</ele><time>2026-04-25T15:00:27.003Z</time></trkpt><trkpt lat="44.4795583" lon="8.49071"><ele>381.4</ele><time>2026-04-25T15:00:29.001Z</time></trkpt><trkpt lat="44.4794367" lon="8.4905567"><ele>383.6</ele><time>2026-04-25T15:00:36.994Z</time></trkpt><trkpt lat="44.4794033" lon="8.49042"><ele>385.79999999999995</ele><time>2026-04-25T15:00:38.998Z</time></trkpt><trkpt lat="44.4793983" lon="8.4902933"><ele>388.0</ele><time>2026-04-25T15:00:40.994Z</time></trkpt><trkpt lat="44.4794967" lon="8.49022"><ele>388.1666666666667</ele><time>2026-04-25T15:00:42.993Z</time></trkpt><trkpt lat="44.4795633" lon="8.4901967"><ele>388.33333333333337</ele><time>2026-04-25T15:00:43.994Z</time></trkpt><trkpt lat="44.4796367" lon="8.4901733"><ele>388.5</ele><time>2026-04-25T15:00:44.995Z</time></trkpt><trkpt lat="44.4797183" lon="8.4901683"><ele>388.66666666666663</ele><time>2026-04-25T15:00:45.998Z</time></trkpt><trkpt lat="44.4798083" lon="8.490165"><ele>388.8333333333333</ele><time>2026-04-25T15:00:46.994Z</time></trkpt><trkpt lat="44.4799067" lon="8.490165"><ele>389.0</ele><time>2026-04-25T15:00:48Z</time></trkpt><trkpt lat="44.4800133" lon="8.4901667"><ele>386.0</ele><time>2026-04-25T15:00:49.001Z</time></trkpt><trkpt lat="44.48012" lon="8.49017"><ele>383.0</ele><time>2026-04-25T15:00:49.993Z</time></trkpt><trkpt lat="44.4802317" lon="8.4901667"><ele>380.0</ele><time>2026-04-25T15:00:50.999Z</time></trkpt><trkpt lat="44.48035" lon="8.49016"><ele>377.0</ele><time>2026-04-25T15:00:51.995Z</time></trkpt><trkpt lat="44.4804733" lon="8.4901567"><ele>375.0</ele><time>2026-04-25T15:00:53Z</time></trkpt><trkpt lat="44.4805983" lon="8.4901517"><ele>373.0</ele><time>2026-04-25T15:00:53.996Z</time></trkpt><trkpt lat="44.48073" lon="8.49015"><ele>371.0</ele><time>2026-04-25T15:00:54.996Z</time></trkpt><trkpt lat="44.4808717" lon="8.490145"><ele>369.0</ele><time>2026-04-25T15:00:56Z</time></trkpt><trkpt lat="44.481015" lon="8.49014"><ele>369.0</ele><time>2026-04-25T15:00:56.995Z</time></trkpt><trkpt lat="44.4811483" lon="8.4901417"><ele>369.0</ele><time>2026-04-25T15:00:57.996Z</time></trkpt><trkpt lat="44.4812717" lon="8.4901467"><ele>369.0</ele><time>2026-04-25T15:00:58.995Z</time></trkpt><trkpt lat="44.48139" lon="8.4901683"><ele>369.0</ele><time>2026-04-25T15:00:59.995Z</time></trkpt><trkpt lat="44.4814983" lon="8.4902117"><ele>369.25</ele><time>2026-04-25T15:01:00.992Z</time></trkpt><trkpt lat="44.4815917" lon="8.490305"><ele>369.5</ele><time>2026-04-25T15:01:01.995Z</time></trkpt><trkpt lat="44.4816717" lon="8.49043"><ele>369.75</ele><time>2026-04-25T15:01:02.993Z</time></trkpt><trkpt lat="44.481745" lon="8.4905667"><ele>370.0</ele><time>2026-04-25T15:01:03.994Z</time></trkpt><trkpt lat="44.481805" lon="8.4907183"><ele>371.25</ele><time>2026-04-25T15:01:04.994Z</time></trkpt><trkpt lat="44.4818533" lon="8.4908717"><ele>372.5</ele><time>2026-04-25T15:01:05.997Z</time></trkpt><trkpt lat="44.4818867" lon="8.4910367"><ele>373.75</ele><time>2026-04-25T15:01:06.998Z</time></trkpt><trkpt lat="44.481905" lon="8.491215"><ele>375.0</ele><time>2026-04-25T15:01:07.993Z</time></trkpt><trkpt lat="44.4819183" lon="8.4914017"><ele>375.25</ele><time>2026-04-25T15:01:08.994Z</time></trkpt><trkpt lat="44.481935" lon="8.4915817"><ele>375.5</ele><time>2026-04-25T15:01:09.995Z</time></trkpt><trkpt lat="44.4819533" lon="8.4917533"><ele>375.75</ele><time>2026-04-25T15:01:10.994Z</time></trkpt><trkpt lat="44.4819717" lon="8.49192"><ele>376.0</ele><time>2026-04-25T15:01:12.001Z</time></trkpt><trkpt lat="44.4819883" lon="8.4920917"><ele>375.25</ele><time>2026-04-25T15:01:12.993Z</time></trkpt><trkpt lat="44.4820133" lon="8.4922667"><ele>374.5</ele><time>2026-04-25T15:01:13.993Z</time></trkpt><trkpt lat="44.48205" lon="8.4924267"><ele>373.75</ele><time>2026-04-25T15:01:14.995Z</time></trkpt><trkpt lat="44.4821017" lon="8.4925717"><ele>373.0</ele><time>2026-04-25T15:01:15.994Z</time></trkpt><trkpt lat="44.4821833" lon="8.492675"><ele>373.0</ele><time>2026-04-25T15:01:16.993Z</time></trkpt><trkpt lat="44.482285" lon="8.4927567"><ele>373.0</ele><time>2026-04-25T15:01:17.995Z</time></trkpt><trkpt lat="44.482395" lon="8.4928317"><ele>373.0</ele><time>2026-04-25T15:01:18.998Z</time></trkpt><trkpt lat="44.482515" lon="8.492895"><ele>373.0</ele><time>2026-04-25T15:01:19.992Z</time></trkpt><trkpt lat="44.4826417" lon="8.49295"><ele>373.0</ele><time>2026-04-25T15:01:20.993Z</time></trkpt><trkpt lat="44.482775" lon="8.492985"><ele>373.0</ele><time>2026-04-25T15:01:21.994Z</time></trkpt><trkpt lat="44.48291" lon="8.4930083"><ele>373.0</ele><time>2026-04-25T15:01:22.995Z</time></trkpt><trkpt lat="44.4830417" lon="8.49303"><ele>373.0</ele><time>2026-04-25T15:01:23.994Z</time></trkpt><trkpt lat="44.4831617" lon="8.4930583"><ele>376.75</ele><time>2026-04-25T15:01:24.992Z</time></trkpt><trkpt lat="44.4832717" lon="8.4931133"><ele>380.5</ele><time>2026-04-25T15:01:25.996Z</time></trkpt><trkpt lat="44.4833667" lon="8.4932033"><ele>384.25</ele><time>2026-04-25T15:01:26.996Z</time></trkpt><trkpt lat="44.48344" lon="8.493325"><ele>388.0</ele><time>2026-04-25T15:01:27.995Z</time></trkpt><trkpt lat="44.48348" lon="8.49347"><ele>388.0</ele><time>2026-04-25T15:01:28.995Z</time></trkpt><trkpt lat="44.48351" lon="8.493635"><ele>388.0</ele><time>2026-04-25T15:01:29.998Z</time></trkpt><trkpt lat="44.4835317" lon="8.4938"><ele>388.0</ele><time>2026-04-25T15:01:30.997Z</time></trkpt><trkpt lat="44.4835517" lon="8.4939567"><ele>388.0</ele><time>2026-04-25T15:01:31.996Z</time></trkpt><trkpt lat="44.483595" lon="8.4940883"><ele>387.25</ele><time>2026-04-25T15:01:33Z</time></trkpt><trkpt lat="44.4836633" lon="8.4942"><ele>386.5</ele><time>2026-04-25T15:01:33.993Z</time></trkpt><trkpt lat="44.4837517" lon="8.4943"><ele>385.75</ele><time>2026-04-25T15:01:34.992Z</time></trkpt><trkpt lat="44.4838583" lon="8.4943867"><ele>385.0</ele><time>2026-04-25T15:01:35.994Z</time></trkpt><trkpt lat="44.4839683" lon="8.4944883"><ele>385.75</ele><time>2026-04-25T15:01:36.994Z</time></trkpt><trkpt lat="44.4840733" lon="8.49459"><ele>386.5</ele><time>2026-04-25T15:01:37.995Z</time></trkpt><trkpt lat="44.48417" lon="8.49471"><ele>387.25</ele><time>2026-04-25T15:01:38.997Z</time></trkpt><trkpt lat="44.484265" lon="8.494805"><ele>388.0</ele><time>2026-04-25T15:01:39.996Z</time></trkpt><trkpt lat="44.4843767" lon="8.4948567"><ele>388.0</ele><time>2026-04-25T15:01:40.996Z</time></trkpt><trkpt lat="44.4845" lon="8.4948883"><ele>388.0</ele><time>2026-04-25T15:01:41.994Z</time></trkpt><trkpt lat="44.4846217" lon="8.4949117"><ele>388.0</ele><time>2026-04-25T15:01:42.992Z</time></trkpt><trkpt lat="44.4847233" lon="8.4949667"><ele>388.0</ele><time>2026-04-25T15:01:44Z</time></trkpt><trkpt lat="44.4848" lon="8.4950633"><ele>391.25</ele><time>2026-04-25T15:01:45.001Z</time></trkpt><trkpt lat="44.4848583" lon="8.4951717"><ele>394.5</ele><time>2026-04-25T15:01:45.994Z</time></trkpt><trkpt lat="44.4848867" lon="8.49533"><ele>397.75</ele><time>2026-04-25T15:01:46.998Z</time></trkpt><trkpt lat="44.4848867" lon="8.4954983"><ele>401.0</ele><time>2026-04-25T15:01:47.995Z</time></trkpt><trkpt lat="44.4848583" lon="8.4956683"><ele>401.0</ele><time>2026-04-25T15:01:48.997Z</time></trkpt><trkpt lat="44.4848367" lon="8.4958383"><ele>401.0</ele><time>2026-04-25T15:01:49.996Z</time></trkpt><trkpt lat="44.484835" lon="8.49602"><ele>401.0</ele><time>2026-04-25T15:01:50.996Z</time></trkpt><trkpt lat="44.4848667" lon="8.4961967"><ele>401.0</ele><time>2026-04-25T15:01:51.996Z</time></trkpt><trkpt lat="44.484945" lon="8.4963417"><ele>401.0</ele><time>2026-04-25T15:01:52.996Z</time></trkpt><trkpt lat="44.4850417" lon="8.4964767"><ele>401.0</ele><time>2026-04-25T15:01:53.996Z</time></trkpt><trkpt lat="44.485155" lon="8.4966033"><ele>401.0</ele><time>2026-04-25T15:01:55Z</time></trkpt><trkpt lat="44.4852767" lon="8.49672"><ele>401.0</ele><time>2026-04-25T15:01:55.997Z</time></trkpt><trkpt lat="44.4854067" lon="8.4968233"><ele>404.3333333333333</ele><time>2026-04-25T15:01:56.998Z</time></trkpt><trkpt lat="44.4855433" lon="8.4969183"><ele>407.66666666666663</ele><time>2026-04-25T15:01:57.998Z</time></trkpt><trkpt lat="44.48568" lon="8.497"><ele>411.0</ele><time>2026-04-25T15:01:58.994Z</time></trkpt><trkpt lat="44.4858233" lon="8.497065"><ele>411.0</ele><time>2026-04-25T15:02:00Z</time></trkpt><trkpt lat="44.48597" lon="8.4971233"><ele>411.0</ele><time>2026-04-25T15:02:00.994Z</time></trkpt><trkpt lat="44.48611" lon="8.4971783"><ele>411.0</ele><time>2026-04-25T15:02:01.994Z</time></trkpt><trkpt lat="44.486255" lon="8.4972367"><ele>411.0</ele><time>2026-04-25T15:02:03.004Z</time></trkpt><trkpt lat="44.4863983" lon="8.4972567"><ele>411.75</ele><time>2026-04-25T15:02:03.994Z</time></trkpt><trkpt lat="44.48654" lon="8.4972517"><ele>412.5</ele><time>2026-04-25T15:02:04.997Z</time></trkpt><trkpt lat="44.48668" lon="8.4972067"><ele>413.25</ele><time>2026-04-25T15:02:05.998Z</time></trkpt><trkpt lat="44.48682" lon="8.49714"><ele>414.0</ele><time>2026-04-25T15:02:07.001Z</time></trkpt><trkpt lat="44.4869533" lon="8.4970533"><ele>415.25</ele><time>2026-04-25T15:02:08.001Z</time></trkpt><trkpt lat="44.4870883" lon="8.4969717"><ele>416.5</ele><time>2026-04-25T15:02:08.996Z</time></trkpt><trkpt lat="44.487205" lon="8.496915"><ele>417.75</ele><time>2026-04-25T15:02:09.999Z</time></trkpt><trkpt lat="44.4873217" lon="8.49686"><ele>419.0</ele><time>2026-04-25T15:02:10.994Z</time></trkpt><trkpt lat="44.4874417" lon="8.4968517"><ele>416.25</ele><time>2026-04-25T15:02:11.998Z</time></trkpt><trkpt lat="44.48756" lon="8.4968483"><ele>413.5</ele><time>2026-04-25T15:02:12.997Z</time></trkpt><trkpt lat="44.4876867" lon="8.4968933"><ele>410.75</ele><time>2026-04-25T15:02:13.995Z</time></trkpt><trkpt lat="44.48779" lon="8.4969283"><ele>408.0</ele><time>2026-04-25T15:02:14.998Z</time></trkpt><trkpt lat="44.487885" lon="8.4969617"><ele>409.0</ele><time>2026-04-25T15:02:15.995Z</time></trkpt><trkpt lat="44.48797" lon="8.4970283"><ele>410.0</ele><time>2026-04-25T15:02:16.997Z</time></trkpt><trkpt lat="44.4880233" lon="8.49718"><ele>411.0</ele><time>2026-04-25T15:02:17.994Z</time></trkpt><trkpt lat="44.488085" lon="8.4973833"><ele>412.0</ele><time>2026-04-25T15:02:18.995Z</time></trkpt><trkpt lat="44.4881817" lon="8.4974683"><ele>412.0</ele><time>2026-04-25T15:02:19.995Z</time></trkpt><trkpt lat="44.4882733" lon="8.4975167"><ele>412.0</ele><time>2026-04-25T15:02:20.996Z</time></trkpt><trkpt lat="44.4883533" lon="8.4974517"><ele>412.0</ele><time>2026-04-25T15:02:21.998Z</time></trkpt><trkpt lat="44.4884367" lon="8.497425"><ele>412.0</ele><time>2026-04-25T15:02:22.995Z</time></trkpt><trkpt lat="44.4885233" lon="8.4973667"><ele>412.0</ele><time>2026-04-25T15:02:23.998Z</time></trkpt><trkpt lat="44.48861" lon="8.4973433"><ele>412.0</ele><time>2026-04-25T15:02:24.994Z</time></trkpt><trkpt lat="44.4887217" lon="8.4973233"><ele>412.0</ele><time>2026-04-25T15:02:25.996Z</time></trkpt><trkpt lat="44.4888267" lon="8.4974133"><ele>412.0</ele><time>2026-04-25T15:02:26.999Z</time></trkpt><trkpt lat="44.488905" lon="8.4975267"><ele>412.0</ele><time>2026-04-25T15:02:27.997Z</time></trkpt><trkpt lat="44.4889833" lon="8.4976683"><ele>408.0</ele><time>2026-04-25T15:02:28.995Z</time></trkpt><trkpt lat="44.4890733" lon="8.4977717"><ele>404.0</ele><time>2026-04-25T15:02:30.002Z</time></trkpt><trkpt lat="44.4891967" lon="8.4978417"><ele>400.0</ele><time>2026-04-25T15:02:31Z</time></trkpt><trkpt lat="44.48932" lon="8.49786"><ele>396.0</ele><time>2026-04-25T15:02:31.996Z</time></trkpt><trkpt lat="44.48944" lon="8.49781"><ele>396.0</ele><time>2026-04-25T15:02:32.999Z</time></trkpt><trkpt lat="44.4895483" lon="8.4977083"><ele>396.0</ele><time>2026-04-25T15:02:34.004Z</time></trkpt><trkpt lat="44.489645" lon="8.4975817"><ele>396.0</ele><time>2026-04-25T15:02:34.997Z</time></trkpt><trkpt lat="44.4897283" lon="8.4974467"><ele>396.0</ele><time>2026-04-25T15:02:35.997Z</time></trkpt><trkpt lat="44.48981" lon="8.4973233"><ele>395.5</ele><time>2026-04-25T15:02:37.002Z</time></trkpt><trkpt lat="44.4899" lon="8.4972183"><ele>395.0</ele><time>2026-04-25T15:02:37.996Z</time></trkpt><trkpt lat="44.4899983" lon="8.4971383"><ele>394.5</ele><time>2026-04-25T15:02:38.999Z</time></trkpt><trkpt lat="44.4901067" lon="8.49709"><ele>394.0</ele><time>2026-04-25T15:02:39.994Z</time></trkpt><trkpt lat="44.4902167" lon="8.4970633"><ele>392.2</ele><time>2026-04-25T15:02:40.994Z</time></trkpt><trkpt lat="44.49033" lon="8.4970517"><ele>390.4</ele><time>2026-04-25T15:02:41.996Z</time></trkpt><trkpt lat="44.4904333" lon="8.49703"><ele>388.6</ele><time>2026-04-25T15:02:42.998Z</time></trkpt><trkpt lat="44.4905267" lon="8.496985"><ele>386.8</ele><time>2026-04-25T15:02:43.995Z</time></trkpt><trkpt lat="44.4906" lon="8.49691"><ele>385.0</ele><time>2026-04-25T15:02:45Z</time></trkpt><trkpt lat="44.4906467" lon="8.4968"><ele>385.00000000000006</ele><time>2026-04-25T15:02:45.996Z</time></trkpt><trkpt lat="44.490675" lon="8.4966767"><ele>385.0</ele><time>2026-04-25T15:02:46.997Z</time></trkpt><trkpt lat="44.4906883" lon="8.4965583"><ele>385.0</ele><time>2026-04-25T15:02:47.994Z</time></trkpt><trkpt lat="44.490715" lon="8.49645"><ele>385.0</ele><time>2026-04-25T15:02:48.994Z</time></trkpt><trkpt lat="44.4907483" lon="8.49635"><ele>385.00000000000006</ele><time>2026-04-25T15:02:49.993Z</time></trkpt><trkpt lat="44.490785" lon="8.4962533"><ele>385.0</ele><time>2026-04-25T15:02:50.997Z</time></trkpt><trkpt lat="44.4908517" lon="8.4961967"><ele>383.85714285714283</ele><time>2026-04-25T15:02:52.001Z</time></trkpt><trkpt lat="44.4909283" lon="8.496165"><ele>382.7142857142857</ele><time>2026-04-25T15:02:52.998Z</time></trkpt><trkpt lat="44.4910117" lon="8.4961683"><ele>381.57142857142856</ele><time>2026-04-25T15:02:53.998Z</time></trkpt><trkpt lat="44.491075" lon="8.4961467"><ele>380.42857142857144</ele><time>2026-04-25T15:02:54.998Z</time></trkpt><trkpt lat="44.4911517" lon="8.4961583"><ele>379.2857142857143</ele><time>2026-04-25T15:02:55.996Z</time></trkpt><trkpt lat="44.491225" lon="8.496185"><ele>378.1428571428571</ele><time>2026-04-25T15:02:57.001Z</time></trkpt><trkpt lat="44.4912867" lon="8.4962083"><ele>377.0</ele><time>2026-04-25T15:02:57.995Z</time></trkpt><trkpt lat="44.4913633" lon="8.49633"><ele>377.0</ele><time>2026-04-25T15:03:00.002Z</time></trkpt><trkpt lat="44.491385" lon="8.496595"><ele>377.0</ele><time>2026-04-25T15:03:01.003Z</time></trkpt><trkpt lat="44.4914317" lon="8.4968683"><ele>377.0</ele><time>2026-04-25T15:03:02.002Z</time></trkpt><trkpt lat="44.4914867" lon="8.4969433"><ele>377.0</ele><time>2026-04-25T15:03:02.996Z</time></trkpt><trkpt lat="44.4915533" lon="8.497005"><ele>377.0</ele><time>2026-04-25T15:03:03.996Z</time></trkpt><trkpt lat="44.4916417" lon="8.4970233"><ele>377.0</ele><time>2026-04-25T15:03:04.993Z</time></trkpt><trkpt lat="44.4917633" lon="8.49701"><ele>377.0</ele><time>2026-04-25T15:03:05.993Z</time></trkpt><trkpt lat="44.4918833" lon="8.4969583"><ele>377.0</ele><time>2026-04-25T15:03:06.999Z</time></trkpt><trkpt lat="44.4920217" lon="8.4968883"><ele>376.5</ele><time>2026-04-25T15:03:07.997Z</time></trkpt><trkpt lat="44.4921433" lon="8.4967533"><ele>376.0</ele><time>2026-04-25T15:03:08.997Z</time></trkpt><trkpt lat="44.4922283" lon="8.49665"><ele>375.5</ele><time>2026-04-25T15:03:09.996Z</time></trkpt><trkpt lat="44.4923133" lon="8.4965517"><ele>375.0</ele><time>2026-04-25T15:03:10.997Z</time></trkpt><trkpt lat="44.4923983" lon="8.4965033"><ele>375.0</ele><time>2026-04-25T15:03:11.994Z</time></trkpt><trkpt lat="44.492485" lon="8.496505"><ele>375.0</ele><time>2026-04-25T15:03:13Z</time></trkpt><trkpt lat="44.4925717" lon="8.4965433"><ele>375.0</ele><time>2026-04-25T15:03:13.997Z</time></trkpt><trkpt lat="44.492655" lon="8.4965967"><ele>375.0</ele><time>2026-04-25T15:03:14.998Z</time></trkpt><trkpt lat="44.4927333" lon="8.49668"><ele>375.0</ele><time>2026-04-25T15:03:15.995Z</time></trkpt><trkpt lat="44.492825" lon="8.4967467"><ele>373.0</ele><time>2026-04-25T15:03:16.997Z</time></trkpt><trkpt lat="44.4929283" lon="8.496795"><ele>371.0</ele><time>2026-04-25T15:03:17.997Z</time></trkpt><trkpt lat="44.4930433" lon="8.4968317"><ele>369.0</ele><time>2026-04-25T15:03:18.994Z</time></trkpt><trkpt lat="44.4931583" lon="8.4968567"><ele>367.0</ele><time>2026-04-25T15:03:20.003Z</time></trkpt><trkpt lat="44.493275" lon="8.49686"><ele>367.0</ele><time>2026-04-25T15:03:20.994Z</time></trkpt><trkpt lat="44.4934" lon="8.496865"><ele>367.0</ele><time>2026-04-25T15:03:21.996Z</time></trkpt><trkpt lat="44.493525" lon="8.49686"><ele>367.0</ele><time>2026-04-25T15:03:22.993Z</time></trkpt><trkpt lat="44.49364" lon="8.4968383"><ele>367.0</ele><time>2026-04-25T15:03:23.999Z</time></trkpt><trkpt lat="44.493745" lon="8.4967883"><ele>366.8</ele><time>2026-04-25T15:03:24.994Z</time></trkpt><trkpt lat="44.4938467" lon="8.49672"><ele>366.6</ele><time>2026-04-25T15:03:25.994Z</time></trkpt><trkpt lat="44.4939433" lon="8.4966533"><ele>366.40000000000003</ele><time>2026-04-25T15:03:27Z</time></trkpt><trkpt lat="44.4940483" lon="8.4966083"><ele>366.20000000000005</ele><time>2026-04-25T15:03:27.993Z</time></trkpt><trkpt lat="44.4941583" lon="8.4965717"><ele>366.0</ele><time>2026-04-25T15:03:28.993Z</time></trkpt><trkpt lat="44.4942683" lon="8.4965233"><ele>366.0</ele><time>2026-04-25T15:03:29.999Z</time></trkpt><trkpt lat="44.4943717" lon="8.4964633"><ele>366.0</ele><time>2026-04-25T15:03:30.995Z</time></trkpt><trkpt lat="44.4944617" lon="8.49641"><ele>366.0</ele><time>2026-04-25T15:03:31.998Z</time></trkpt><trkpt lat="44.494545" lon="8.4963583"><ele>366.0</ele><time>2026-04-25T15:03:32.996Z</time></trkpt><trkpt lat="44.4946317" lon="8.4963167"><ele>366.0</ele><time>2026-04-25T15:03:33.996Z</time></trkpt><trkpt lat="44.494725" lon="8.496305"><ele>366.5</ele><time>2026-04-25T15:03:34.995Z</time></trkpt><trkpt lat="44.4948283" lon="8.49631"><ele>367.0</ele><time>2026-04-25T15:03:35.994Z</time></trkpt><trkpt lat="44.49494" lon="8.4963"><ele>367.5</ele><time>2026-04-25T15:03:36.996Z</time></trkpt><trkpt lat="44.4950583" lon="8.4962967"><ele>368.0</ele><time>2026-04-25T15:03:37.999Z</time></trkpt><trkpt lat="44.4951867" lon="8.4962833"><ele>368.0</ele><time>2026-04-25T15:03:38.998Z</time></trkpt><trkpt lat="44.49532" lon="8.496275"><ele>368.0</ele><time>2026-04-25T15:03:40Z</time></trkpt><trkpt lat="44.4954617" lon="8.4962667"><ele>368.0</ele><time>2026-04-25T15:03:40.995Z</time></trkpt><trkpt lat="44.4956117" lon="8.496265"><ele>368.0</ele><time>2026-04-25T15:03:41.997Z</time></trkpt><trkpt lat="44.4957717" lon="8.4962617"><ele>364.6666666666667</ele><time>2026-04-25T15:03:42.995Z</time></trkpt><trkpt lat="44.4959367" lon="8.4962567"><ele>361.3333333333333</ele><time>2026-04-25T15:03:43.995Z</time></trkpt><trkpt lat="44.4961" lon="8.496245"><ele>358.0</ele><time>2026-04-25T15:03:44.996Z</time></trkpt><trkpt lat="44.4962717" lon="8.4962117"><ele>356.3333333333333</ele><time>2026-04-25T15:03:45.999Z</time></trkpt><trkpt lat="44.4964433" lon="8.4961817"><ele>354.6666666666667</ele><time>2026-04-25T15:03:46.995Z</time></trkpt><trkpt lat="44.4966117" lon="8.4961467"><ele>353.0</ele><time>2026-04-25T15:03:47.995Z</time></trkpt><trkpt lat="44.4967767" lon="8.4961217"><ele>353.0</ele><time>2026-04-25T15:03:49.001Z</time></trkpt><trkpt lat="44.49694" lon="8.4960883"><ele>353.0</ele><time>2026-04-25T15:03:50Z</time></trkpt><trkpt lat="44.49709" lon="8.49606"><ele>353.0</ele><time>2026-04-25T15:03:50.997Z</time></trkpt><trkpt lat="44.4972383" lon="8.4960267"><ele>352.5</ele><time>2026-04-25T15:03:51.995Z</time></trkpt><trkpt lat="44.4973767" lon="8.496"><ele>352.0</ele><time>2026-04-25T15:03:52.993Z</time></trkpt><trkpt lat="44.4975" lon="8.4959517"><ele>351.5</ele><time>2026-04-25T15:03:53.996Z</time></trkpt><trkpt lat="44.49761" lon="8.4958667"><ele>351.0</ele><time>2026-04-25T15:03:54.995Z</time></trkpt><trkpt lat="44.497705" lon="8.4957517"><ele>351.0</ele><time>2026-04-25T15:03:55.995Z</time></trkpt><trkpt lat="44.49778" lon="8.49561"><ele>351.0</ele><time>2026-04-25T15:03:56.993Z</time></trkpt><trkpt lat="44.497845" lon="8.4954583"><ele>351.0</ele><time>2026-04-25T15:03:57.994Z</time></trkpt><trkpt lat="44.49791" lon="8.4952983"><ele>351.0</ele><time>2026-04-25T15:03:58.997Z</time></trkpt><trkpt lat="44.4979717" lon="8.4951333"><ele>351.25</ele><time>2026-04-25T15:03:59.998Z</time></trkpt><trkpt lat="44.4980367" lon="8.4949667"><ele>351.5</ele><time>2026-04-25T15:04:00.996Z</time></trkpt><trkpt lat="44.4980967" lon="8.494805"><ele>351.75</ele><time>2026-04-25T15:04:02Z</time></trkpt><trkpt lat="44.49816" lon="8.4946467"><ele>352.0</ele><time>2026-04-25T15:04:02.995Z</time></trkpt><trkpt lat="44.4982283" lon="8.494495"><ele>352.0</ele><time>2026-04-25T15:04:03.992Z</time></trkpt><trkpt lat="44.498295" lon="8.4943383"><ele>352.0</ele><time>2026-04-25T15:04:05.002Z</time></trkpt><trkpt lat="44.49836" lon="8.4941783"><ele>352.0</ele><time>2026-04-25T15:04:05.995Z</time></trkpt><trkpt lat="44.498425" lon="8.4940133"><ele>352.0</ele><time>2026-04-25T15:04:06.998Z</time></trkpt><trkpt lat="44.4984983" lon="8.49384"><ele>351.3333333333333</ele><time>2026-04-25T15:04:07.994Z</time></trkpt><trkpt lat="44.49857" lon="8.4936617"><ele>350.6666666666667</ele><time>2026-04-25T15:04:08.998Z</time></trkpt><trkpt lat="44.4986433" lon="8.4934767"><ele>350.0</ele><time>2026-04-25T15:04:09.994Z</time></trkpt><trkpt lat="44.49872" lon="8.49329"><ele>349.0</ele><time>2026-04-25T15:04:10.995Z</time></trkpt><trkpt lat="44.4987983" lon="8.4930917"><ele>348.0</ele><time>2026-04-25T15:04:11.993Z</time></trkpt><trkpt lat="44.49888" lon="8.4928867"><ele>347.0</ele><time>2026-04-25T15:04:12.995Z</time></trkpt><trkpt lat="44.4989667" lon="8.4926783"><ele>347.0</ele><time>2026-04-25T15:04:13.994Z</time></trkpt><trkpt lat="44.4990617" lon="8.4924633"><ele>347.0</ele><time>2026-04-25T15:04:14.997Z</time></trkpt><trkpt lat="44.4991533" lon="8.4922417"><ele>347.0</ele><time>2026-04-25T15:04:15.994Z</time></trkpt><trkpt lat="44.4992433" lon="8.4920083"><ele>346.33333333333337</ele><time>2026-04-25T15:04:16.994Z</time></trkpt><trkpt lat="44.499335" lon="8.49178"><ele>345.6666666666667</ele><time>2026-04-25T15:04:17.995Z</time></trkpt><trkpt lat="44.4994283" lon="8.491555"><ele>345.0</ele><time>2026-04-25T15:04:18.997Z</time></trkpt><trkpt lat="44.49952" lon="8.49134"><ele>344.6666666666667</ele><time>2026-04-25T15:04:19.996Z</time></trkpt><trkpt lat="44.499605" lon="8.4911333"><ele>344.33333333333337</ele><time>2026-04-25T15:04:20.996Z</time></trkpt><trkpt lat="44.49969" lon="8.490925"><ele>344.0</ele><time>2026-04-25T15:04:21.999Z</time></trkpt><trkpt lat="44.4997617" lon="8.490725"><ele>344.0</ele><time>2026-04-25T15:04:23.006Z</time></trkpt><trkpt lat="44.499825" lon="8.4905283"><ele>344.0</ele><time>2026-04-25T15:04:23.997Z</time></trkpt><trkpt lat="44.4998933" lon="8.49033"><ele>344.0</ele><time>2026-04-25T15:04:25.004Z</time></trkpt><trkpt lat="44.4999517" lon="8.4901417"><ele>344.0</ele><time>2026-04-25T15:04:25.996Z</time></trkpt><trkpt lat="44.5000083" lon="8.4899517"><ele>344.0</ele><time>2026-04-25T15:04:26.996Z</time></trkpt><trkpt lat="44.50006" lon="8.48976"><ele>344.0</ele><time>2026-04-25T15:04:28.002Z</time></trkpt><trkpt lat="44.500105" lon="8.4895517"><ele>344.0</ele><time>2026-04-25T15:04:28.998Z</time></trkpt><trkpt lat="44.50015" lon="8.4893433"><ele>344.33333333333337</ele><time>2026-04-25T15:04:29.999Z</time></trkpt><trkpt lat="44.5002067" lon="8.489135"><ele>344.6666666666667</ele><time>2026-04-25T15:04:30.994Z</time></trkpt><trkpt lat="44.5002633" lon="8.4889233"><ele>345.0</ele><time>2026-04-25T15:04:31.997Z</time></trkpt><trkpt lat="44.5003183" lon="8.4887067"><ele>344.3333333333333</ele><time>2026-04-25T15:04:32.994Z</time></trkpt><trkpt lat="44.5003733" lon="8.4884883"><ele>343.66666666666663</ele><time>2026-04-25T15:04:33.995Z</time></trkpt><trkpt lat="44.500425" lon="8.4882683"><ele>343.0</ele><time>2026-04-25T15:04:34.992Z</time></trkpt><trkpt lat="44.5004833" lon="8.48805"><ele>344.66666666666663</ele><time>2026-04-25T15:04:35.995Z</time></trkpt><trkpt lat="44.5005417" lon="8.48783"><ele>346.3333333333333</ele><time>2026-04-25T15:04:36.992Z</time></trkpt><trkpt lat="44.5005967" lon="8.48761"><ele>348.0</ele><time>2026-04-25T15:04:37.997Z</time></trkpt><trkpt lat="44.5006533" lon="8.4873917"><ele>348.0</ele><time>2026-04-25T15:04:39Z</time></trkpt><trkpt lat="44.50071" lon="8.487175"><ele>348.0</ele><time>2026-04-25T15:04:39.996Z</time></trkpt><trkpt lat="44.5007667" lon="8.48696"><ele>348.0</ele><time>2026-04-25T15:04:40.993Z</time></trkpt><trkpt lat="44.5008233" lon="8.4867317"><ele>347.6666666666667</ele><time>2026-04-25T15:04:41.994Z</time></trkpt><trkpt lat="44.5008883" lon="8.486485"><ele>347.33333333333337</ele><time>2026-04-25T15:04:42.998Z</time></trkpt><trkpt lat="44.500955" lon="8.4862383"><ele>347.0</ele><time>2026-04-25T15:04:43.997Z</time></trkpt><trkpt lat="44.5010217" lon="8.4860017"><ele>345.6666666666667</ele><time>2026-04-25T15:04:44.996Z</time></trkpt><trkpt lat="44.5010833" lon="8.4857733"><ele>344.3333333333333</ele><time>2026-04-25T15:04:45.996Z</time></trkpt><trkpt lat="44.5011383" lon="8.4855617"><ele>343.0</ele><time>2026-04-25T15:04:46.998Z</time></trkpt><trkpt lat="44.501195" lon="8.4853783"><ele>342.75</ele><time>2026-04-25T15:04:47.997Z</time></trkpt><trkpt lat="44.5012567" lon="8.4852"><ele>342.5</ele><time>2026-04-25T15:04:48.999Z</time></trkpt><trkpt lat="44.5013183" lon="8.48504"><ele>342.25</ele><time>2026-04-25T15:04:50Z</time></trkpt><trkpt lat="44.501395" lon="8.484895"><ele>342.0</ele><time>2026-04-25T15:04:50.997Z</time></trkpt><trkpt lat="44.5014833" lon="8.4847717"><ele>342.0</ele><time>2026-04-25T15:04:52.004Z</time></trkpt><trkpt lat="44.5015867" lon="8.484685"><ele>342.0</ele><time>2026-04-25T15:04:52.995Z</time></trkpt><trkpt lat="44.501715" lon="8.48465"><ele>342.0</ele><time>2026-04-25T15:04:53.997Z</time></trkpt><trkpt lat="44.5018517" lon="8.48461"><ele>342.0</ele><time>2026-04-25T15:04:54.997Z</time></trkpt><trkpt lat="44.5019867" lon="8.48455"><ele>340.5</ele><time>2026-04-25T15:04:56Z</time></trkpt><trkpt lat="44.502125" lon="8.4844967"><ele>339.0</ele><time>2026-04-25T15:04:56.995Z</time></trkpt><trkpt lat="44.5022617" lon="8.4844333"><ele>337.5</ele><time>2026-04-25T15:04:58.001Z</time></trkpt><trkpt lat="44.5024133" lon="8.4843733"><ele>336.0</ele><time>2026-04-25T15:04:58.999Z</time></trkpt><trkpt lat="44.502565" lon="8.4843067"><ele>336.0</ele><time>2026-04-25T15:05:00.004Z</time></trkpt><trkpt lat="44.5027167" lon="8.4842383"><ele>336.0</ele><time>2026-04-25T15:05:00.993Z</time></trkpt><trkpt lat="44.5028733" lon="8.4841633"><ele>336.0</ele><time>2026-04-25T15:05:01.998Z</time></trkpt><trkpt lat="44.5030283" lon="8.4840833"><ele>335.6666666666667</ele><time>2026-04-25T15:05:02.995Z</time></trkpt><trkpt lat="44.5031833" lon="8.4840133"><ele>335.33333333333337</ele><time>2026-04-25T15:05:03.996Z</time></trkpt><trkpt lat="44.5033383" lon="8.4839417"><ele>335.0</ele><time>2026-04-25T15:05:04.996Z</time></trkpt><trkpt lat="44.50349" lon="8.483865"><ele>335.0</ele><time>2026-04-25T15:05:05.995Z</time></trkpt><trkpt lat="44.5036417" lon="8.4837933"><ele>335.0</ele><time>2026-04-25T15:05:06.996Z</time></trkpt><trkpt lat="44.5037917" lon="8.4837233"><ele>335.0</ele><time>2026-04-25T15:05:08.001Z</time></trkpt><trkpt lat="44.5039417" lon="8.4836517"><ele>335.33333333333337</ele><time>2026-04-25T15:05:08.996Z</time></trkpt><trkpt lat="44.50409" lon="8.483575"><ele>335.6666666666667</ele><time>2026-04-25T15:05:09.999Z</time></trkpt><trkpt lat="44.50424" lon="8.4834933"><ele>336.0</ele><time>2026-04-25T15:05:10.997Z</time></trkpt><trkpt lat="44.5043867" lon="8.4834133"><ele>336.0</ele><time>2026-04-25T15:05:11.994Z</time></trkpt><trkpt lat="44.5045333" lon="8.4833367"><ele>336.0</ele><time>2026-04-25T15:05:12.995Z</time></trkpt><trkpt lat="44.5046833" lon="8.4832583"><ele>336.0</ele><time>2026-04-25T15:05:14Z</time></trkpt><trkpt lat="44.5048317" lon="8.4831867"><ele>337.3333333333333</ele><time>2026-04-25T15:05:14.995Z</time></trkpt><trkpt lat="44.50498" lon="8.4831117"><ele>338.66666666666663</ele><time>2026-04-25T15:05:15.996Z</time></trkpt><trkpt lat="44.5051283" lon="8.4830283"><ele>340.0</ele><time>2026-04-25T15:05:16.992Z</time></trkpt><trkpt lat="44.5052783" lon="8.4829417"><ele>339.66666666666663</ele><time>2026-04-25T15:05:17.999Z</time></trkpt><trkpt lat="44.5054267" lon="8.4828483"><ele>339.3333333333333</ele><time>2026-04-25T15:05:18.998Z</time></trkpt><trkpt lat="44.5055733" lon="8.4827683"><ele>339.0</ele><time>2026-04-25T15:05:20.001Z</time></trkpt><trkpt lat="44.5057183" lon="8.4827133"><ele>339.0</ele><time>2026-04-25T15:05:21Z</time></trkpt><trkpt lat="44.5058583" lon="8.4826867"><ele>339.0</ele><time>2026-04-25T15:05:22Z</time></trkpt><trkpt lat="44.5059983" lon="8.4826733"><ele>339.0</ele><time>2026-04-25T15:05:22.999Z</time></trkpt><trkpt lat="44.5061167" lon="8.4826517"><ele>339.0</ele><time>2026-04-25T15:05:23.996Z</time></trkpt><trkpt lat="44.5062283" lon="8.4826033"><ele>338.6</ele><time>2026-04-25T15:05:24.998Z</time></trkpt><trkpt lat="44.5063283" lon="8.4825317"><ele>338.2</ele><time>2026-04-25T15:05:25.995Z</time></trkpt><trkpt lat="44.5064083" lon="8.4824433"><ele>337.8</ele><time>2026-04-25T15:05:26.996Z</time></trkpt><trkpt lat="44.5064783" lon="8.4823583"><ele>337.40000000000003</ele><time>2026-04-25T15:05:27.998Z</time></trkpt><trkpt lat="44.50654" lon="8.48228"><ele>337.0</ele><time>2026-04-25T15:05:28.995Z</time></trkpt><trkpt lat="44.5066017" lon="8.48221"><ele>337.0</ele><time>2026-04-25T15:05:29.998Z</time></trkpt><trkpt lat="44.506665" lon="8.482165"><ele>337.0</ele><time>2026-04-25T15:05:30.993Z</time></trkpt><trkpt lat="44.5067267" lon="8.4821367"><ele>337.0</ele><time>2026-04-25T15:05:31.995Z</time></trkpt><trkpt lat="44.5068717" lon="8.4821767"><ele>337.0</ele><time>2026-04-25T15:05:33.996Z</time></trkpt><trkpt lat="44.506955" lon="8.4822183"><ele>337.0</ele><time>2026-04-25T15:05:34.996Z</time></trkpt><trkpt lat="44.5070617" lon="8.4822633"><ele>337.6</ele><time>2026-04-25T15:05:36Z</time></trkpt><trkpt lat="44.5071717" lon="8.4822983"><ele>338.20000000000005</ele><time>2026-04-25T15:05:37.003Z</time></trkpt><trkpt lat="44.507285" lon="8.4823333"><ele>338.8</ele><time>2026-04-25T15:05:37.995Z</time></trkpt><trkpt lat="44.5073933" lon="8.4823583"><ele>339.4</ele><time>2026-04-25T15:05:38.997Z</time></trkpt><trkpt lat="44.5075017" lon="8.4823583"><ele>340.0</ele><time>2026-04-25T15:05:39.997Z</time></trkpt><trkpt lat="44.5075983" lon="8.48234"><ele>340.0</ele><time>2026-04-25T15:05:40.994Z</time></trkpt><trkpt lat="44.5076933" lon="8.4822967"><ele>340.0</ele><time>2026-04-25T15:05:41.999Z</time></trkpt><trkpt lat="44.5077883" lon="8.4822283"><ele>340.0</ele><time>2026-04-25T15:05:42.997Z</time></trkpt><trkpt lat="44.5078767" lon="8.4821533"><ele>340.0</ele><time>2026-04-25T15:05:43.999Z</time></trkpt><trkpt lat="44.5079567" lon="8.482055"><ele>340.0</ele><time>2026-04-25T15:05:44.999Z</time></trkpt><trkpt lat="44.5080283" lon="8.4819517"><ele>340.2</ele><time>2026-04-25T15:05:45.993Z</time></trkpt><trkpt lat="44.5081083" lon="8.48184"><ele>340.4</ele><time>2026-04-25T15:05:46.993Z</time></trkpt><trkpt lat="44.5082017" lon="8.481765"><ele>340.6</ele><time>2026-04-25T15:05:47.993Z</time></trkpt><trkpt lat="44.508295" lon="8.4817133"><ele>340.8</ele><time>2026-04-25T15:05:48.997Z</time></trkpt><trkpt lat="44.50839" lon="8.4816533"><ele>341.0</ele><time>2026-04-25T15:05:50.001Z</time></trkpt><trkpt lat="44.508495" lon="8.48157"><ele>341.0</ele><time>2026-04-25T15:05:50.998Z</time></trkpt><trkpt lat="44.508605" lon="8.4814733"><ele>341.0</ele><time>2026-04-25T15:05:51.997Z</time></trkpt><trkpt lat="44.5087117" lon="8.4813567"><ele>341.0</ele><time>2026-04-25T15:05:52.994Z</time></trkpt><trkpt lat="44.5088117" lon="8.4812383"><ele>341.0</ele><time>2026-04-25T15:05:53.997Z</time></trkpt><trkpt lat="44.50888" lon="8.481105"><ele>339.25</ele><time>2026-04-25T15:05:54.998Z</time></trkpt><trkpt lat="44.5089483" lon="8.4809617"><ele>337.5</ele><time>2026-04-25T15:05:56.003Z</time></trkpt><trkpt lat="44.5090033" lon="8.48082"><ele>335.75</ele><time>2026-04-25T15:05:57.003Z</time></trkpt><trkpt lat="44.5090667" lon="8.48068"><ele>334.0</ele><time>2026-04-25T15:05:58.003Z</time></trkpt><trkpt lat="44.5091233" lon="8.48054"><ele>335.75</ele><time>2026-04-25T15:05:58.995Z</time></trkpt><trkpt lat="44.5091717" lon="8.4803833"><ele>337.5</ele><time>2026-04-25T15:05:59.997Z</time></trkpt><trkpt lat="44.5092183" lon="8.4802133"><ele>339.25</ele><time>2026-04-25T15:06:00.999Z</time></trkpt><trkpt lat="44.5092517" lon="8.48003"><ele>341.0</ele><time>2026-04-25T15:06:02Z</time></trkpt><trkpt lat="44.5093" lon="8.47983"><ele>341.0</ele><time>2026-04-25T15:06:02.996Z</time></trkpt><trkpt lat="44.50936" lon="8.4796167"><ele>341.0</ele><time>2026-04-25T15:06:03.998Z</time></trkpt><trkpt lat="44.5094083" lon="8.4793867"><ele>341.0</ele><time>2026-04-25T15:06:04.995Z</time></trkpt><trkpt lat="44.50947" lon="8.479135"><ele>341.0</ele><time>2026-04-25T15:06:05.994Z</time></trkpt><trkpt lat="44.509525" lon="8.4788817"><ele>341.0</ele><time>2026-04-25T15:06:06.996Z</time></trkpt><trkpt lat="44.50958" lon="8.4786217"><ele>341.0</ele><time>2026-04-25T15:06:07.993Z</time></trkpt><trkpt lat="44.5096467" lon="8.4783433"><ele>335.0</ele><time>2026-04-25T15:06:08.995Z</time></trkpt><trkpt lat="44.5097233" lon="8.47806"><ele>329.0</ele><time>2026-04-25T15:06:09.996Z</time></trkpt><trkpt lat="44.5097933" lon="8.4777833"><ele>323.0</ele><time>2026-04-25T15:06:10.998Z</time></trkpt><trkpt lat="44.5098617" lon="8.4775117"><ele>323.0</ele><time>2026-04-25T15:06:11.995Z</time></trkpt><trkpt lat="44.509925" lon="8.4772633"><ele>323.0</ele><time>2026-04-25T15:06:12.996Z</time></trkpt><trkpt lat="44.5099833" lon="8.4770217"><ele>323.0</ele><time>2026-04-25T15:06:13.996Z</time></trkpt><trkpt lat="44.5100433" lon="8.476785"><ele>323.0</ele><time>2026-04-25T15:06:14.999Z</time></trkpt><trkpt lat="44.5101017" lon="8.47655"><ele>323.0</ele><time>2026-04-25T15:06:15.998Z</time></trkpt><trkpt lat="44.5101517" lon="8.4763233"><ele>323.0</ele><time>2026-04-25T15:06:16.999Z</time></trkpt><trkpt lat="44.5102033" lon="8.4761"><ele>323.33333333333337</ele><time>2026-04-25T15:06:17.996Z</time></trkpt><trkpt lat="44.510255" lon="8.475875"><ele>323.6666666666667</ele><time>2026-04-25T15:06:19.004Z</time></trkpt><trkpt lat="44.5103033" lon="8.4756533"><ele>324.0</ele><time>2026-04-25T15:06:19.999Z</time></trkpt><trkpt lat="44.51036" lon="8.47544"><ele>323.0</ele><time>2026-04-25T15:06:20.997Z</time></trkpt><trkpt lat="44.51043" lon="8.475235"><ele>322.0</ele><time>2026-04-25T15:06:22Z</time></trkpt><trkpt lat="44.510515" lon="8.47504"><ele>321.0</ele><time>2026-04-25T15:06:23.001Z</time></trkpt><trkpt lat="44.5106117" lon="8.47486"><ele>321.0</ele><time>2026-04-25T15:06:23.996Z</time></trkpt><trkpt lat="44.5107217" lon="8.47469"><ele>321.0</ele><time>2026-04-25T15:06:25.001Z</time></trkpt><trkpt lat="44.5108483" lon="8.474535"><ele>321.0</ele><time>2026-04-25T15:06:26Z</time></trkpt><trkpt lat="44.5109833" lon="8.474395"><ele>321.3333333333333</ele><time>2026-04-25T15:06:26.995Z</time></trkpt><trkpt lat="44.5111283" lon="8.4742667"><ele>321.66666666666663</ele><time>2026-04-25T15:06:27.996Z</time></trkpt><trkpt lat="44.5112733" lon="8.4741517"><ele>322.0</ele><time>2026-04-25T15:06:28.994Z</time></trkpt><trkpt lat="44.5114333" lon="8.474065"><ele>322.0</ele><time>2026-04-25T15:06:29.996Z</time></trkpt><trkpt lat="44.5115933" lon="8.473995"><ele>322.0</ele><time>2026-04-25T15:06:30.994Z</time></trkpt><trkpt lat="44.5117533" lon="8.4739383"><ele>322.0</ele><time>2026-04-25T15:06:31.993Z</time></trkpt><trkpt lat="44.5119067" lon="8.47389"><ele>322.0</ele><time>2026-04-25T15:06:32.996Z</time></trkpt><trkpt lat="44.512055" lon="8.473835"><ele>322.0</ele><time>2026-04-25T15:06:33.998Z</time></trkpt><trkpt lat="44.5122083" lon="8.473785"><ele>322.0</ele><time>2026-04-25T15:06:34.994Z</time></trkpt><trkpt lat="44.5123633" lon="8.4737283"><ele>321.66666666666663</ele><time>2026-04-25T15:06:35.993Z</time></trkpt><trkpt lat="44.5125217" lon="8.4736683"><ele>321.3333333333333</ele><time>2026-04-25T15:06:36.995Z</time></trkpt><trkpt lat="44.5126817" lon="8.47362"><ele>321.0</ele><time>2026-04-25T15:06:37.997Z</time></trkpt><trkpt lat="44.5128467" lon="8.47357"><ele>320.0</ele><time>2026-04-25T15:06:39Z</time></trkpt><trkpt lat="44.513015" lon="8.47352"><ele>319.0</ele><time>2026-04-25T15:06:39.997Z</time></trkpt><trkpt lat="44.5131817" lon="8.4734683"><ele>318.0</ele><time>2026-04-25T15:06:40.999Z</time></trkpt><trkpt lat="44.5133417" lon="8.4734183"><ele>318.0</ele><time>2026-04-25T15:06:42.002Z</time></trkpt><trkpt lat="44.5134983" lon="8.4733667"><ele>318.0</ele><time>2026-04-25T15:06:43.001Z</time></trkpt><trkpt lat="44.5136567" lon="8.47331"><ele>318.0</ele><time>2026-04-25T15:06:43.999Z</time></trkpt><trkpt lat="44.5138167" lon="8.4732533"><ele>318.6666666666667</ele><time>2026-04-25T15:06:45Z</time></trkpt><trkpt lat="44.5139783" lon="8.473195"><ele>319.33333333333337</ele><time>2026-04-25T15:06:45.997Z</time></trkpt><trkpt lat="44.5141433" lon="8.473135"><ele>320.0</ele><time>2026-04-25T15:06:46.996Z</time></trkpt><trkpt lat="44.5143117" lon="8.4730667"><ele>320.0</ele><time>2026-04-25T15:06:47.994Z</time></trkpt><trkpt lat="44.51448" lon="8.4730067"><ele>320.0</ele><time>2026-04-25T15:06:48.992Z</time></trkpt><trkpt lat="44.5146517" lon="8.4729483"><ele>320.0</ele><time>2026-04-25T15:06:49.995Z</time></trkpt><trkpt lat="44.514825" lon="8.4728683"><ele>323.6666666666667</ele><time>2026-04-25T15:06:50.995Z</time></trkpt><trkpt lat="44.5149967" lon="8.4728017"><ele>327.3333333333333</ele><time>2026-04-25T15:06:52Z</time></trkpt><trkpt lat="44.5151633" lon="8.4727533"><ele>331.0</ele><time>2026-04-25T15:06:52.993Z</time></trkpt><trkpt lat="44.51532" lon="8.4727083"><ele>329.0</ele><time>2026-04-25T15:06:53.995Z</time></trkpt><trkpt lat="44.5154733" lon="8.47266"><ele>327.0</ele><time>2026-04-25T15:06:54.994Z</time></trkpt><trkpt lat="44.5156233" lon="8.47262"><ele>325.0</ele><time>2026-04-25T15:06:55.993Z</time></trkpt><trkpt lat="44.5157683" lon="8.47259"><ele>325.0</ele><time>2026-04-25T15:06:56.995Z</time></trkpt><trkpt lat="44.5159033" lon="8.47259"><ele>325.0</ele><time>2026-04-25T15:06:57.996Z</time></trkpt><trkpt lat="44.51602" lon="8.4726283"><ele>325.0</ele><time>2026-04-25T15:06:58.995Z</time></trkpt><trkpt lat="44.5161267" lon="8.4727017"><ele>325.0</ele><time>2026-04-25T15:06:59.994Z</time></trkpt><trkpt lat="44.5162217" lon="8.47282"><ele>325.0</ele><time>2026-04-25T15:07:00.998Z</time></trkpt><trkpt lat="44.5163033" lon="8.47294"><ele>325.0</ele><time>2026-04-25T15:07:02.002Z</time></trkpt><trkpt lat="44.5163817" lon="8.4730733"><ele>325.0</ele><time>2026-04-25T15:07:02.997Z</time></trkpt><trkpt lat="44.5164583" lon="8.47322"><ele>325.0</ele><time>2026-04-25T15:07:03.993Z</time></trkpt><trkpt lat="44.516515" lon="8.4733817"><ele>325.0</ele><time>2026-04-25T15:07:04.995Z</time></trkpt><trkpt lat="44.5165933" lon="8.4735083"><ele>325.0</ele><time>2026-04-25T15:07:05.994Z</time></trkpt><trkpt lat="44.5166817" lon="8.4736317"><ele>325.0</ele><time>2026-04-25T15:07:06.995Z</time></trkpt><trkpt lat="44.516785" lon="8.473725"><ele>325.0</ele><time>2026-04-25T15:07:07.997Z</time></trkpt><trkpt lat="44.5168933" lon="8.473835"><ele>323.5</ele><time>2026-04-25T15:07:08.997Z</time></trkpt><trkpt lat="44.5170017" lon="8.4739333"><ele>322.0</ele><time>2026-04-25T15:07:09.996Z</time></trkpt><trkpt lat="44.51711" lon="8.474025"><ele>320.5</ele><time>2026-04-25T15:07:10.999Z</time></trkpt><trkpt lat="44.5172233" lon="8.47411"><ele>319.0</ele><time>2026-04-25T15:07:11.996Z</time></trkpt><trkpt lat="44.5173417" lon="8.4741867"><ele>319.0</ele><time>2026-04-25T15:07:12.997Z</time></trkpt><trkpt lat="44.5174617" lon="8.47422"><ele>319.0</ele><time>2026-04-25T15:07:13.996Z</time></trkpt><trkpt lat="44.5175833" lon="8.47422"><ele>319.0</ele><time>2026-04-25T15:07:14.999Z</time></trkpt><trkpt lat="44.5177033" lon="8.4741933"><ele>319.0</ele><time>2026-04-25T15:07:15.997Z</time></trkpt><trkpt lat="44.5178233" lon="8.4741467"><ele>319.0</ele><time>2026-04-25T15:07:17Z</time></trkpt><trkpt lat="44.5179417" lon="8.4740967"><ele>319.0</ele><time>2026-04-25T15:07:17.997Z</time></trkpt><trkpt lat="44.51806" lon="8.474055"><ele>319.0</ele><time>2026-04-25T15:07:18.995Z</time></trkpt><trkpt lat="44.5181817" lon="8.474015"><ele>319.0</ele><time>2026-04-25T15:07:19.997Z</time></trkpt><trkpt lat="44.51831" lon="8.4739733"><ele>319.0</ele><time>2026-04-25T15:07:20.995Z</time></trkpt><trkpt lat="44.51844" lon="8.4739233"><ele>319.0</ele><time>2026-04-25T15:07:21.994Z</time></trkpt><trkpt lat="44.5185717" lon="8.473865"><ele>319.0</ele><time>2026-04-25T15:07:22.995Z</time></trkpt><trkpt lat="44.518705" lon="8.473805"><ele>319.0</ele><time>2026-04-25T15:07:24.002Z</time></trkpt><trkpt lat="44.5188383" lon="8.47375"><ele>319.0</ele><time>2026-04-25T15:07:25.003Z</time></trkpt><trkpt lat="44.51897" lon="8.4736933"><ele>319.0</ele><time>2026-04-25T15:07:26.002Z</time></trkpt><trkpt lat="44.519095" lon="8.4736383"><ele>319.0</ele><time>2026-04-25T15:07:27.004Z</time></trkpt><trkpt lat="44.5192183" lon="8.473565"><ele>319.0</ele><time>2026-04-25T15:07:27.995Z</time></trkpt><trkpt lat="44.5193283" lon="8.47345"><ele>319.0</ele><time>2026-04-25T15:07:29.001Z</time></trkpt><trkpt lat="44.5194167" lon="8.473315"><ele>319.0</ele><time>2026-04-25T15:07:29.996Z</time></trkpt><trkpt lat="44.5194767" lon="8.4731517"><ele>319.0</ele><time>2026-04-25T15:07:31.004Z</time></trkpt><trkpt lat="44.51952" lon="8.472975"><ele>319.0</ele><time>2026-04-25T15:07:31.996Z</time></trkpt><trkpt lat="44.5195417" lon="8.4727883"><ele>322.0</ele><time>2026-04-25T15:07:32.995Z</time></trkpt><trkpt lat="44.51954" lon="8.4726033"><ele>325.0</ele><time>2026-04-25T15:07:33.996Z</time></trkpt><trkpt lat="44.5195233" lon="8.4724133"><ele>328.0</ele><time>2026-04-25T15:07:35Z</time></trkpt><trkpt lat="44.5195083" lon="8.4722383"><ele>331.0</ele><time>2026-04-25T15:07:35.999Z</time></trkpt><trkpt lat="44.5195083" lon="8.472065"><ele>333.5</ele><time>2026-04-25T15:07:36.996Z</time></trkpt><trkpt lat="44.5195367" lon="8.4718883"><ele>336.0</ele><time>2026-04-25T15:07:37.995Z</time></trkpt><trkpt lat="44.5196067" lon="8.471735"><ele>338.5</ele><time>2026-04-25T15:07:38.999Z</time></trkpt><trkpt lat="44.5197" lon="8.471615"><ele>341.0</ele><time>2026-04-25T15:07:39.999Z</time></trkpt><trkpt lat="44.5198083" lon="8.4715233"><ele>333.5</ele><time>2026-04-25T15:07:40.998Z</time></trkpt><trkpt lat="44.51992" lon="8.4714417"><ele>326.0</ele><time>2026-04-25T15:07:42Z</time></trkpt><trkpt lat="44.520035" lon="8.47137"><ele>318.5</ele><time>2026-04-25T15:07:43Z</time></trkpt><trkpt lat="44.5201467" lon="8.4713083"><ele>311.0</ele><time>2026-04-25T15:07:44Z</time></trkpt><trkpt lat="44.5202683" lon="8.471245"><ele>311.0</ele><time>2026-04-25T15:07:44.997Z</time></trkpt><trkpt lat="44.52039" lon="8.4711617"><ele>311.0</ele><time>2026-04-25T15:07:45.996Z</time></trkpt><trkpt lat="44.5205017" lon="8.471065"><ele>311.0</ele><time>2026-04-25T15:07:46.994Z</time></trkpt><trkpt lat="44.5206083" lon="8.4709583"><ele>311.0</ele><time>2026-04-25T15:07:47.999Z</time></trkpt><trkpt lat="44.52072" lon="8.470845"><ele>308.25</ele><time>2026-04-25T15:07:48.997Z</time></trkpt><trkpt lat="44.520835" lon="8.4707217"><ele>305.5</ele><time>2026-04-25T15:07:49.994Z</time></trkpt><trkpt lat="44.5209533" lon="8.4705933"><ele>302.75</ele><time>2026-04-25T15:07:51.002Z</time></trkpt><trkpt lat="44.5210733" lon="8.47046"><ele>300.0</ele><time>2026-04-25T15:07:51.996Z</time></trkpt><trkpt lat="44.521195" lon="8.4703317"><ele>297.75</ele><time>2026-04-25T15:07:52.997Z</time></trkpt><trkpt lat="44.521315" lon="8.4701983"><ele>295.5</ele><time>2026-04-25T15:07:53.998Z</time></trkpt><trkpt lat="44.5214283" lon="8.4700617"><ele>293.25</ele><time>2026-04-25T15:07:54.998Z</time></trkpt><trkpt lat="44.52153" lon="8.469925"><ele>291.0</ele><time>2026-04-25T15:07:55.998Z</time></trkpt><trkpt lat="44.521625" lon="8.469785"><ele>291.0</ele><time>2026-04-25T15:07:57Z</time></trkpt><trkpt lat="44.5217083" lon="8.46965"><ele>291.0</ele><time>2026-04-25T15:07:57.998Z</time></trkpt><trkpt lat="44.52178" lon="8.4695383"><ele>291.0</ele><time>2026-04-25T15:07:58.996Z</time></trkpt><trkpt lat="44.5218417" lon="8.4694433"><ele>291.0</ele><time>2026-04-25T15:08:00.007Z</time></trkpt><trkpt lat="44.5218917" lon="8.4693567"><ele>291.0</ele><time>2026-04-25T15:08:01.001Z</time></trkpt><trkpt lat="44.5219283" lon="8.4692833"><ele>291.3333333333333</ele><time>2026-04-25T15:08:02.002Z</time></trkpt><trkpt lat="44.5219883" lon="8.469165"><ele>291.6666666666667</ele><time>2026-04-25T15:08:03.999Z</time></trkpt><trkpt lat="44.5220033" lon="8.4690767"><ele>292.0</ele><time>2026-04-25T15:08:05.002Z</time></trkpt><trkpt lat="44.5220067" lon="8.4689833"><ele>292.33333333333337</ele><time>2026-04-25T15:08:05.997Z</time></trkpt><trkpt lat="44.5219917" lon="8.4688617"><ele>292.6666666666667</ele><time>2026-04-25T15:08:07Z</time></trkpt><trkpt lat="44.52198" lon="8.4687533"><ele>293.0</ele><time>2026-04-25T15:08:07.996Z</time></trkpt><trkpt lat="44.5219767" lon="8.4686367"><ele>294.4</ele><time>2026-04-25T15:08:09.003Z</time></trkpt><trkpt lat="44.5219733" lon="8.4685217"><ele>295.8</ele><time>2026-04-25T15:08:10Z</time></trkpt><trkpt lat="44.5219517" lon="8.46839"><ele>297.2</ele><time>2026-04-25T15:08:10.996Z</time></trkpt><trkpt lat="44.5219067" lon="8.4682667"><ele>298.6</ele><time>2026-04-25T15:08:12Z</time></trkpt><trkpt lat="44.52185" lon="8.4681383"><ele>300.0</ele><time>2026-04-25T15:08:12.995Z</time></trkpt><trkpt lat="44.5217817" lon="8.4680067"><ele>301.2</ele><time>2026-04-25T15:08:13.995Z</time></trkpt><trkpt lat="44.521705" lon="8.467885"><ele>302.4</ele><time>2026-04-25T15:08:15Z</time></trkpt><trkpt lat="44.52163" lon="8.467765"><ele>303.6</ele><time>2026-04-25T15:08:16Z</time></trkpt><trkpt lat="44.52157" lon="8.467645"><ele>304.8</ele><time>2026-04-25T15:08:16.995Z</time></trkpt><trkpt lat="44.5215067" lon="8.4675267"><ele>306.0</ele><time>2026-04-25T15:08:17.998Z</time></trkpt><trkpt lat="44.5214717" lon="8.467415"><ele>306.0</ele><time>2026-04-25T15:08:19.002Z</time></trkpt><trkpt lat="44.5214517" lon="8.4672933"><ele>306.0</ele><time>2026-04-25T15:08:19.997Z</time></trkpt><trkpt lat="44.521445" lon="8.4671767"><ele>306.0</ele><time>2026-04-25T15:08:20.997Z</time></trkpt><trkpt lat="44.5214533" lon="8.4670683"><ele>306.0</ele><time>2026-04-25T15:08:21.999Z</time></trkpt><trkpt lat="44.521475" lon="8.4669633"><ele>306.0</ele><time>2026-04-25T15:08:23.002Z</time></trkpt><trkpt lat="44.5214967" lon="8.4668517"><ele>306.0</ele><time>2026-04-25T15:08:24.001Z</time></trkpt><trkpt lat="44.5214833" lon="8.4667483"><ele>305.8</ele><time>2026-04-25T15:08:24.999Z</time></trkpt><trkpt lat="44.5214683" lon="8.46664"><ele>305.6</ele><time>2026-04-25T15:08:25.997Z</time></trkpt><trkpt lat="44.52144" lon="8.4665267"><ele>305.4</ele><time>2026-04-25T15:08:26.999Z</time></trkpt><trkpt lat="44.5213717" lon="8.4664033"><ele>305.2</ele><time>2026-04-25T15:08:27.996Z</time></trkpt><trkpt lat="44.52123" lon="8.4662733"><ele>305.0</ele><time>2026-04-25T15:08:28.996Z</time></trkpt><trkpt lat="44.5210517" lon="8.4661367"><ele>302.33333333333337</ele><time>2026-04-25T15:08:29.998Z</time></trkpt><trkpt lat="44.5208667" lon="8.4660283"><ele>299.6666666666667</ele><time>2026-04-25T15:08:31.001Z</time></trkpt><trkpt lat="44.5207067" lon="8.4659217"><ele>297.0</ele><time>2026-04-25T15:08:31.995Z</time></trkpt><trkpt lat="44.5205667" lon="8.4658167"><ele>297.0</ele><time>2026-04-25T15:08:32.995Z</time></trkpt><trkpt lat="44.52044" lon="8.46571"><ele>297.0</ele><time>2026-04-25T15:08:34.001Z</time></trkpt><trkpt lat="44.5203233" lon="8.465595"><ele>297.0</ele><time>2026-04-25T15:08:35.001Z</time></trkpt><trkpt lat="44.5202183" lon="8.4654767"><ele>297.0</ele><time>2026-04-25T15:08:35.998Z</time></trkpt><trkpt lat="44.52013" lon="8.4653383"><ele>298.3333333333333</ele><time>2026-04-25T15:08:37.001Z</time></trkpt><trkpt lat="44.520045" lon="8.46516"><ele>299.66666666666663</ele><time>2026-04-25T15:08:37.995Z</time></trkpt><trkpt lat="44.519955" lon="8.464955"><ele>301.0</ele><time>2026-04-25T15:08:39.002Z</time></trkpt><trkpt lat="44.51987" lon="8.4647367"><ele>304.0</ele><time>2026-04-25T15:08:40Z</time></trkpt><trkpt lat="44.5197867" lon="8.4645167"><ele>307.0</ele><time>2026-04-25T15:08:41Z</time></trkpt><trkpt lat="44.5197033" lon="8.4643017"><ele>310.0</ele><time>2026-04-25T15:08:42Z</time></trkpt><trkpt lat="44.519625" lon="8.4641"><ele>305.3333333333333</ele><time>2026-04-25T15:08:42.998Z</time></trkpt><trkpt lat="44.51955" lon="8.4638883"><ele>300.6666666666667</ele><time>2026-04-25T15:08:43.998Z</time></trkpt><trkpt lat="44.5194683" lon="8.4636583"><ele>296.0</ele><time>2026-04-25T15:08:44.996Z</time></trkpt><trkpt lat="44.519375" lon="8.4634017"><ele>295.0</ele><time>2026-04-25T15:08:45.996Z</time></trkpt><trkpt lat="44.5192867" lon="8.4630833"><ele>294.0</ele><time>2026-04-25T15:08:46.997Z</time></trkpt><trkpt lat="44.51921" lon="8.4627517"><ele>295.6666666666667</ele><time>2026-04-25T15:08:47.993Z</time></trkpt><trkpt lat="44.5191167" lon="8.46247"><ele>297.33333333333337</ele><time>2026-04-25T15:08:48.998Z</time></trkpt><trkpt lat="44.5190183" lon="8.4622133"><ele>299.0</ele><time>2026-04-25T15:08:50Z</time></trkpt><trkpt lat="44.5189183" lon="8.4619617"><ele>299.0</ele><time>2026-04-25T15:08:50.997Z</time></trkpt><trkpt lat="44.5188283" lon="8.4616933"><ele>299.0</ele><time>2026-04-25T15:08:51.999Z</time></trkpt><trkpt lat="44.51872" lon="8.4614433"><ele>299.0</ele><time>2026-04-25T15:08:52.998Z</time></trkpt><trkpt lat="44.518615" lon="8.4611917"><ele>299.0</ele><time>2026-04-25T15:08:53.998Z</time></trkpt><trkpt lat="44.5185067" lon="8.4609467"><ele>299.0</ele><time>2026-04-25T15:08:55.002Z</time></trkpt><trkpt lat="44.5183967" lon="8.4607167"><ele>299.0</ele><time>2026-04-25T15:08:55.993Z</time></trkpt><trkpt lat="44.5182883" lon="8.46048"><ele>299.33333333333337</ele><time>2026-04-25T15:08:56.994Z</time></trkpt><trkpt lat="44.5181783" lon="8.46025"><ele>299.6666666666667</ele><time>2026-04-25T15:08:58Z</time></trkpt><trkpt lat="44.5180667" lon="8.46002"><ele>300.0</ele><time>2026-04-25T15:08:58.996Z</time></trkpt><trkpt lat="44.5179417" lon="8.4598017"><ele>299.3333333333333</ele><time>2026-04-25T15:08:59.996Z</time></trkpt><trkpt lat="44.517815" lon="8.4595917"><ele>298.66666666666663</ele><time>2026-04-25T15:09:00.994Z</time></trkpt><trkpt lat="44.517695" lon="8.4593783"><ele>298.0</ele><time>2026-04-25T15:09:01.995Z</time></trkpt><trkpt lat="44.51758" lon="8.4591617"><ele>298.0</ele><time>2026-04-25T15:09:02.999Z</time></trkpt><trkpt lat="44.5174683" lon="8.4589433"><ele>298.0</ele><time>2026-04-25T15:09:03.994Z</time></trkpt><trkpt lat="44.5173633" lon="8.4587217"><ele>298.0</ele><time>2026-04-25T15:09:04.997Z</time></trkpt><trkpt lat="44.5172617" lon="8.4585383"><ele>298.25</ele><time>2026-04-25T15:09:05.994Z</time></trkpt><trkpt lat="44.5171667" lon="8.4583733"><ele>298.5</ele><time>2026-04-25T15:09:06.998Z</time></trkpt><trkpt lat="44.51708" lon="8.4582483"><ele>298.75</ele><time>2026-04-25T15:09:07.998Z</time></trkpt><trkpt lat="44.51698" lon="8.45817"><ele>299.0</ele><time>2026-04-25T15:09:08.993Z</time></trkpt><trkpt lat="44.516855" lon="8.4581433"><ele>299.0</ele><time>2026-04-25T15:09:09.995Z</time></trkpt><trkpt lat="44.5167367" lon="8.4581183"><ele>299.0</ele><time>2026-04-25T15:09:10.994Z</time></trkpt><trkpt lat="44.51662" lon="8.4580783"><ele>299.0</ele><time>2026-04-25T15:09:11.994Z</time></trkpt><trkpt lat="44.5165067" lon="8.4580167"><ele>299.0</ele><time>2026-04-25T15:09:12.999Z</time></trkpt><trkpt lat="44.5164033" lon="8.4579267"><ele>298.8</ele><time>2026-04-25T15:09:13.997Z</time></trkpt><trkpt lat="44.51632" lon="8.45781"><ele>298.59999999999997</ele><time>2026-04-25T15:09:14.997Z</time></trkpt><trkpt lat="44.5162617" lon="8.4576783"><ele>298.4</ele><time>2026-04-25T15:09:15.997Z</time></trkpt><trkpt lat="44.51622" lon="8.4575533"><ele>298.2</ele><time>2026-04-25T15:09:16.993Z</time></trkpt><trkpt lat="44.5162083" lon="8.4573917"><ele>298.0</ele><time>2026-04-25T15:09:17.999Z</time></trkpt><trkpt lat="44.5162083" lon="8.4572033"><ele>299.3333333333333</ele><time>2026-04-25T15:09:18.997Z</time></trkpt><trkpt lat="44.5161983" lon="8.45698"><ele>300.6666666666667</ele><time>2026-04-25T15:09:19.996Z</time></trkpt><trkpt lat="44.5161717" lon="8.4567367"><ele>302.0</ele><time>2026-04-25T15:09:21.003Z</time></trkpt><trkpt lat="44.51613" lon="8.4565033"><ele>304.33333333333337</ele><time>2026-04-25T15:09:21.997Z</time></trkpt><trkpt lat="44.5160867" lon="8.456265"><ele>306.6666666666667</ele><time>2026-04-25T15:09:22.997Z</time></trkpt><trkpt lat="44.516015" lon="8.45606"><ele>309.0</ele><time>2026-04-25T15:09:23.995Z</time></trkpt><trkpt lat="44.5159317" lon="8.455865"><ele>309.0</ele><time>2026-04-25T15:09:24.999Z</time></trkpt><trkpt lat="44.5158317" lon="8.4556883"><ele>309.0</ele><time>2026-04-25T15:09:26.005Z</time></trkpt><trkpt lat="44.5157167" lon="8.4555267"><ele>309.0</ele><time>2026-04-25T15:09:26.992Z</time></trkpt><trkpt lat="44.5155833" lon="8.4553867"><ele>308.6666666666667</ele><time>2026-04-25T15:09:27.994Z</time></trkpt><trkpt lat="44.5154417" lon="8.4552467"><ele>308.33333333333337</ele><time>2026-04-25T15:09:28.996Z</time></trkpt><trkpt lat="44.5152917" lon="8.4551317"><ele>308.0</ele><time>2026-04-25T15:09:29.995Z</time></trkpt><trkpt lat="44.5151417" lon="8.45502"><ele>308.0</ele><time>2026-04-25T15:09:30.995Z</time></trkpt><trkpt lat="44.51499" lon="8.4549133"><ele>308.0</ele><time>2026-04-25T15:09:31.995Z</time></trkpt><trkpt lat="44.51484" lon="8.4548083"><ele>308.0</ele><time>2026-04-25T15:09:32.995Z</time></trkpt><trkpt lat="44.5146967" lon="8.4546983"><ele>310.0</ele><time>2026-04-25T15:09:33.994Z</time></trkpt><trkpt lat="44.5145617" lon="8.4545833"><ele>312.0</ele><time>2026-04-25T15:09:34.996Z</time></trkpt><trkpt lat="44.5144333" lon="8.4544633"><ele>314.0</ele><time>2026-04-25T15:09:35.998Z</time></trkpt><trkpt lat="44.51431" lon="8.45433"><ele>314.0</ele><time>2026-04-25T15:09:36.995Z</time></trkpt><trkpt lat="44.5142033" lon="8.454195"><ele>314.0</ele><time>2026-04-25T15:09:37.997Z</time></trkpt><trkpt lat="44.5140867" lon="8.4540933"><ele>314.0</ele><time>2026-04-25T15:09:38.994Z</time></trkpt><trkpt lat="44.5139617" lon="8.4540267"><ele>314.0</ele><time>2026-04-25T15:09:39.996Z</time></trkpt><trkpt lat="44.5138183" lon="8.4540083"><ele>312.75</ele><time>2026-04-25T15:09:40.993Z</time></trkpt><trkpt lat="44.5136833" lon="8.4539833"><ele>311.5</ele><time>2026-04-25T15:09:41.997Z</time></trkpt><trkpt lat="44.51354" lon="8.4539867"><ele>310.25</ele><time>2026-04-25T15:09:42.999Z</time></trkpt><trkpt lat="44.51339" lon="8.4539983"><ele>309.0</ele><time>2026-04-25T15:09:43.994Z</time></trkpt><trkpt lat="44.5132517" lon="8.45402"><ele>309.0</ele><time>2026-04-25T15:09:44.996Z</time></trkpt><trkpt lat="44.5131133" lon="8.4540417"><ele>309.0</ele><time>2026-04-25T15:09:45.993Z</time></trkpt><trkpt lat="44.5129983" lon="8.4540533"><ele>309.0</ele><time>2026-04-25T15:09:47Z</time></trkpt><trkpt lat="44.5128883" lon="8.4540083"><ele>309.0</ele><time>2026-04-25T15:09:47.994Z</time></trkpt><trkpt lat="44.5127783" lon="8.453955"><ele>308.4</ele><time>2026-04-25T15:09:48.997Z</time></trkpt><trkpt lat="44.5126767" lon="8.45388"><ele>307.79999999999995</ele><time>2026-04-25T15:09:49.993Z</time></trkpt><trkpt lat="44.5125667" lon="8.4538217"><ele>307.20000000000005</ele><time>2026-04-25T15:09:50.997Z</time></trkpt><trkpt lat="44.512485" lon="8.4537317"><ele>306.6</ele><time>2026-04-25T15:09:52.001Z</time></trkpt><trkpt lat="44.512435" lon="8.453635"><ele>306.0</ele><time>2026-04-25T15:09:52.996Z</time></trkpt><trkpt lat="44.5124017" lon="8.45352"><ele>306.25</ele><time>2026-04-25T15:09:53.999Z</time></trkpt><trkpt lat="44.5124067" lon="8.4533733"><ele>306.5</ele><time>2026-04-25T15:09:54.997Z</time></trkpt><trkpt lat="44.5124167" lon="8.453225"><ele>306.75</ele><time>2026-04-25T15:09:56.002Z</time></trkpt><trkpt lat="44.5124317" lon="8.4530783"><ele>307.0</ele><time>2026-04-25T15:09:56.998Z</time></trkpt><trkpt lat="44.5126483" lon="8.4528867"><ele>307.0</ele><time>2026-04-25T15:09:57.997Z</time></trkpt><trkpt lat="44.5128083" lon="8.45273"><ele>307.0</ele><time>2026-04-25T15:09:59.001Z</time></trkpt><trkpt lat="44.5129383" lon="8.45261"><ele>307.0</ele><time>2026-04-25T15:09:59.999Z</time></trkpt><trkpt lat="44.5130533" lon="8.4524733"><ele>310.25</ele><time>2026-04-25T15:10:01.002Z</time></trkpt><trkpt lat="44.5131483" lon="8.4523417"><ele>313.5</ele><time>2026-04-25T15:10:01.994Z</time></trkpt><trkpt lat="44.513225" lon="8.4522117"><ele>316.75</ele><time>2026-04-25T15:10:02.997Z</time></trkpt><trkpt lat="44.5132833" lon="8.4520683"><ele>320.0</ele><time>2026-04-25T15:10:03.999Z</time></trkpt><trkpt lat="44.5133317" lon="8.4519133"><ele>320.0</ele><time>2026-04-25T15:10:04.994Z</time></trkpt><trkpt lat="44.51338" lon="8.4517567"><ele>320.0</ele><time>2026-04-25T15:10:06.003Z</time></trkpt><trkpt lat="44.5134183" lon="8.4516"><ele>320.0</ele><time>2026-04-25T15:10:06.996Z</time></trkpt><trkpt lat="44.5134533" lon="8.4514517"><ele>320.0</ele><time>2026-04-25T15:10:08Z</time></trkpt><trkpt lat="44.5134817" lon="8.4513117"><ele>319.2</ele><time>2026-04-25T15:10:08.998Z</time></trkpt><trkpt lat="44.5135067" lon="8.45118"><ele>318.4</ele><time>2026-04-25T15:10:10Z</time></trkpt><trkpt lat="44.5135317" lon="8.4510533"><ele>317.6</ele><time>2026-04-25T15:10:11.001Z</time></trkpt><trkpt lat="44.51356" lon="8.4509267"><ele>316.8</ele><time>2026-04-25T15:10:12.005Z</time></trkpt><trkpt lat="44.5135883" lon="8.450795"><ele>316.0</ele><time>2026-04-25T15:10:13Z</time></trkpt><trkpt lat="44.5136217" lon="8.4506567"><ele>316.0</ele><time>2026-04-25T15:10:14.002Z</time></trkpt><trkpt lat="44.5136633" lon="8.4505117"><ele>316.0</ele><time>2026-04-25T15:10:14.997Z</time></trkpt><trkpt lat="44.513715" lon="8.4503683"><ele>316.0</ele><time>2026-04-25T15:10:15.997Z</time></trkpt><trkpt lat="44.513785" lon="8.4502033"><ele>316.0</ele><time>2026-04-25T15:10:16.998Z</time></trkpt><trkpt lat="44.513845" lon="8.45005"><ele>317.0</ele><time>2026-04-25T15:10:17.998Z</time></trkpt><trkpt lat="44.5139033" lon="8.4498933"><ele>318.0</ele><time>2026-04-25T15:10:18.997Z</time></trkpt><trkpt lat="44.5139583" lon="8.4497367"><ele>319.0</ele><time>2026-04-25T15:10:19.994Z</time></trkpt><trkpt lat="44.5140017" lon="8.44958"><ele>320.0</ele><time>2026-04-25T15:10:20.999Z</time></trkpt><trkpt lat="44.5140167" lon="8.449415"><ele>320.0</ele><time>2026-04-25T15:10:21.997Z</time></trkpt><trkpt lat="44.514025" lon="8.4492383"><ele>320.0</ele><time>2026-04-25T15:10:22.996Z</time></trkpt><trkpt lat="44.51401" lon="8.4490433"><ele>320.0</ele><time>2026-04-25T15:10:23.997Z</time></trkpt><trkpt lat="44.513935" lon="8.44884"><ele>320.0</ele><time>2026-04-25T15:10:25Z</time></trkpt><trkpt lat="44.5138733" lon="8.4486417"><ele>320.6666666666667</ele><time>2026-04-25T15:10:25.997Z</time></trkpt><trkpt lat="44.5138183" lon="8.4484317"><ele>321.3333333333333</ele><time>2026-04-25T15:10:26.996Z</time></trkpt><trkpt lat="44.5137633" lon="8.4482317"><ele>322.0</ele><time>2026-04-25T15:10:28.001Z</time></trkpt><trkpt lat="44.5137133" lon="8.4480283"><ele>319.3333333333333</ele><time>2026-04-25T15:10:28.995Z</time></trkpt><trkpt lat="44.5136617" lon="8.4478117"><ele>316.6666666666667</ele><time>2026-04-25T15:10:29.998Z</time></trkpt><trkpt lat="44.513625" lon="8.4475933"><ele>314.0</ele><time>2026-04-25T15:10:30.995Z</time></trkpt><trkpt lat="44.51358" lon="8.447395"><ele>314.0</ele><time>2026-04-25T15:10:31.997Z</time></trkpt><trkpt lat="44.5135367" lon="8.4472067"><ele>314.0</ele><time>2026-04-25T15:10:33.002Z</time></trkpt><trkpt lat="44.5134967" lon="8.447025"><ele>314.0</ele><time>2026-04-25T15:10:33.999Z</time></trkpt><trkpt lat="44.5134567" lon="8.4468417"><ele>314.0</ele><time>2026-04-25T15:10:35Z</time></trkpt><trkpt lat="44.513415" lon="8.446655"><ele>314.25</ele><time>2026-04-25T15:10:36.002Z</time></trkpt><trkpt lat="44.51337" lon="8.4464767"><ele>314.5</ele><time>2026-04-25T15:10:37.001Z</time></trkpt><trkpt lat="44.51333" lon="8.4462933"><ele>314.75</ele><time>2026-04-25T15:10:38Z</time></trkpt><trkpt lat="44.51329" lon="8.4461033"><ele>315.0</ele><time>2026-04-25T15:10:38.996Z</time></trkpt><trkpt lat="44.5132517" lon="8.44592"><ele>315.5</ele><time>2026-04-25T15:10:39.996Z</time></trkpt><trkpt lat="44.5132217" lon="8.44573"><ele>316.0</ele><time>2026-04-25T15:10:40.998Z</time></trkpt><trkpt lat="44.513195" lon="8.4455317"><ele>316.5</ele><time>2026-04-25T15:10:41.994Z</time></trkpt><trkpt lat="44.5131683" lon="8.44533"><ele>317.0</ele><time>2026-04-25T15:10:42.996Z</time></trkpt><trkpt lat="44.51314" lon="8.4451233"><ele>318.0</ele><time>2026-04-25T15:10:43.999Z</time></trkpt><trkpt lat="44.5130917" lon="8.4449283"><ele>319.0</ele><time>2026-04-25T15:10:44.997Z</time></trkpt><trkpt lat="44.5130317" lon="8.4447317"><ele>320.0</ele><time>2026-04-25T15:10:45.997Z</time></trkpt><trkpt lat="44.5129717" lon="8.4445467"><ele>321.0</ele><time>2026-04-25T15:10:46.999Z</time></trkpt><trkpt lat="44.5129233" lon="8.4443783"><ele>319.75</ele><time>2026-04-25T15:10:47.996Z</time></trkpt><trkpt lat="44.5128667" lon="8.4442467"><ele>318.5</ele><time>2026-04-25T15:10:49.002Z</time></trkpt><trkpt lat="44.51279" lon="8.44413"><ele>317.25</ele><time>2026-04-25T15:10:49.995Z</time></trkpt><trkpt lat="44.512685" lon="8.4440267"><ele>316.0</ele><time>2026-04-25T15:10:50.998Z</time></trkpt><trkpt lat="44.5125617" lon="8.4439467"><ele>316.0</ele><time>2026-04-25T15:10:51.995Z</time></trkpt><trkpt lat="44.5124233" lon="8.4439017"><ele>316.0</ele><time>2026-04-25T15:10:52.996Z</time></trkpt><trkpt lat="44.5122833" lon="8.443885"><ele>316.0</ele><time>2026-04-25T15:10:54Z</time></trkpt><trkpt lat="44.5121317" lon="8.4439183"><ele>316.0</ele><time>2026-04-25T15:10:54.997Z</time></trkpt><trkpt lat="44.5119867" lon="8.4439283"><ele>315.75</ele><time>2026-04-25T15:10:55.999Z</time></trkpt><trkpt lat="44.511845" lon="8.4438967"><ele>315.5</ele><time>2026-04-25T15:10:56.994Z</time></trkpt><trkpt lat="44.5117133" lon="8.4438533"><ele>315.25</ele><time>2026-04-25T15:10:57.995Z</time></trkpt><trkpt lat="44.51159" lon="8.4437683"><ele>315.0</ele><time>2026-04-25T15:10:58.996Z</time></trkpt><trkpt lat="44.51148" lon="8.4436533"><ele>314.75</ele><time>2026-04-25T15:10:59.995Z</time></trkpt><trkpt lat="44.5113817" lon="8.4435283"><ele>314.5</ele><time>2026-04-25T15:11:00.994Z</time></trkpt><trkpt lat="44.5112933" lon="8.4433817"><ele>314.25</ele><time>2026-04-25T15:11:01.994Z</time></trkpt><trkpt lat="44.511215" lon="8.4432117"><ele>314.0</ele><time>2026-04-25T15:11:02.996Z</time></trkpt><trkpt lat="44.5111467" lon="8.4430267"><ele>315.33333333333337</ele><time>2026-04-25T15:11:03.994Z</time></trkpt><trkpt lat="44.5110717" lon="8.4428417"><ele>316.6666666666667</ele><time>2026-04-25T15:11:04.996Z</time></trkpt><trkpt lat="44.5110033" lon="8.4426383"><ele>318.0</ele><time>2026-04-25T15:11:05.995Z</time></trkpt><trkpt lat="44.510915" lon="8.44245"><ele>318.0</ele><time>2026-04-25T15:11:06.998Z</time></trkpt><trkpt lat="44.5108217" lon="8.44227"><ele>318.0</ele><time>2026-04-25T15:11:07.992Z</time></trkpt><trkpt lat="44.510725" lon="8.442085"><ele>318.0</ele><time>2026-04-25T15:11:08.995Z</time></trkpt><trkpt lat="44.5106117" lon="8.4419383"><ele>318.0</ele><time>2026-04-25T15:11:09.992Z</time></trkpt><trkpt lat="44.5105117" lon="8.441775"><ele>318.0</ele><time>2026-04-25T15:11:10.998Z</time></trkpt><trkpt lat="44.5104283" lon="8.441635"><ele>318.0</ele><time>2026-04-25T15:11:11.997Z</time></trkpt><trkpt lat="44.5103633" lon="8.4415067"><ele>318.0</ele><time>2026-04-25T15:11:12.995Z</time></trkpt><trkpt lat="44.51034" lon="8.4413733"><ele>318.25</ele><time>2026-04-25T15:11:13.993Z</time></trkpt><trkpt lat="44.5103533" lon="8.4412467"><ele>318.5</ele><time>2026-04-25T15:11:14.997Z</time></trkpt><trkpt lat="44.51039" lon="8.4411083"><ele>318.75</ele><time>2026-04-25T15:11:15.997Z</time></trkpt><trkpt lat="44.5104417" lon="8.4409633"><ele>319.0</ele><time>2026-04-25T15:11:16.994Z</time></trkpt><trkpt lat="44.5105267" lon="8.4408117"><ele>318.66666666666663</ele><time>2026-04-25T15:11:18.004Z</time></trkpt><trkpt lat="44.5106183" lon="8.4406317"><ele>318.3333333333333</ele><time>2026-04-25T15:11:18.995Z</time></trkpt><trkpt lat="44.5107133" lon="8.440465"><ele>318.0</ele><time>2026-04-25T15:11:19.999Z</time></trkpt><trkpt lat="44.5107933" lon="8.4403017"><ele>318.0</ele><time>2026-04-25T15:11:21.001Z</time></trkpt><trkpt lat="44.5108617" lon="8.4401317"><ele>318.0</ele><time>2026-04-25T15:11:21.996Z</time></trkpt><trkpt lat="44.5109283" lon="8.4399767"><ele>318.0</ele><time>2026-04-25T15:11:23.026Z</time></trkpt><trkpt lat="44.510975" lon="8.4398233"><ele>318.0</ele><time>2026-04-25T15:11:23.999Z</time></trkpt><trkpt lat="44.5109817" lon="8.4396667"><ele>318.25</ele><time>2026-04-25T15:11:24.995Z</time></trkpt><trkpt lat="44.5109633" lon="8.4395067"><ele>318.5</ele><time>2026-04-25T15:11:25.993Z</time></trkpt><trkpt lat="44.5108933" lon="8.4393533"><ele>318.75</ele><time>2026-04-25T15:11:26.994Z</time></trkpt><trkpt lat="44.510805" lon="8.4391917"><ele>319.0</ele><time>2026-04-25T15:11:27.996Z</time></trkpt><trkpt lat="44.510715" lon="8.4390033"><ele>319.3333333333333</ele><time>2026-04-25T15:11:28.994Z</time></trkpt><trkpt lat="44.5106333" lon="8.4387917"><ele>319.6666666666667</ele><time>2026-04-25T15:11:29.996Z</time></trkpt><trkpt lat="44.51056" lon="8.4385667"><ele>320.0</ele><time>2026-04-25T15:11:30.993Z</time></trkpt><trkpt lat="44.5104867" lon="8.4383417"><ele>320.0</ele><time>2026-04-25T15:11:31.998Z</time></trkpt><trkpt lat="44.5104133" lon="8.438125"><ele>320.0</ele><time>2026-04-25T15:11:32.997Z</time></trkpt><trkpt lat="44.5103417" lon="8.43791"><ele>320.0</ele><time>2026-04-25T15:11:34Z</time></trkpt><trkpt lat="44.5102683" lon="8.4377033"><ele>320.6666666666667</ele><time>2026-04-25T15:11:34.992Z</time></trkpt><trkpt lat="44.5101867" lon="8.4375117"><ele>321.3333333333333</ele><time>2026-04-25T15:11:35.997Z</time></trkpt><trkpt lat="44.5100917" lon="8.4373283"><ele>322.0</ele><time>2026-04-25T15:11:37Z</time></trkpt><trkpt lat="44.5099867" lon="8.4371567"><ele>323.66666666666663</ele><time>2026-04-25T15:11:37.993Z</time></trkpt><trkpt lat="44.5098667" lon="8.4370033"><ele>325.3333333333333</ele><time>2026-04-25T15:11:38.995Z</time></trkpt><trkpt lat="44.50973" lon="8.4368683"><ele>327.0</ele><time>2026-04-25T15:11:40Z</time></trkpt><trkpt lat="44.5095933" lon="8.4367283"><ele>327.3333333333333</ele><time>2026-04-25T15:11:41Z</time></trkpt><trkpt lat="44.5094617" lon="8.43658"><ele>327.66666666666663</ele><time>2026-04-25T15:11:41.999Z</time></trkpt><trkpt lat="44.509335" lon="8.4364267"><ele>328.0</ele><time>2026-04-25T15:11:42.996Z</time></trkpt><trkpt lat="44.5092183" lon="8.4362767"><ele>328.0</ele><time>2026-04-25T15:11:43.993Z</time></trkpt><trkpt lat="44.5091083" lon="8.4361283"><ele>328.0</ele><time>2026-04-25T15:11:44.998Z</time></trkpt><trkpt lat="44.5089883" lon="8.4360117"><ele>328.0</ele><time>2026-04-25T15:11:45.993Z</time></trkpt><trkpt lat="44.5088583" lon="8.4359467"><ele>328.0</ele><time>2026-04-25T15:11:46.994Z</time></trkpt><trkpt lat="44.5087133" lon="8.435925"><ele>328.0</ele><time>2026-04-25T15:11:47.994Z</time></trkpt><trkpt lat="44.5085667" lon="8.4359167"><ele>328.0</ele><time>2026-04-25T15:11:49.002Z</time></trkpt><trkpt lat="44.50841" lon="8.4359067"><ele>328.0</ele><time>2026-04-25T15:11:50.003Z</time></trkpt><trkpt lat="44.5082467" lon="8.4359"><ele>328.0</ele><time>2026-04-25T15:11:50.997Z</time></trkpt><trkpt lat="44.50808" lon="8.4358883"><ele>328.0</ele><time>2026-04-25T15:11:51.996Z</time></trkpt><trkpt lat="44.5079133" lon="8.4358783"><ele>328.0</ele><time>2026-04-25T15:11:52.997Z</time></trkpt><trkpt lat="44.507745" lon="8.4358783"><ele>328.0</ele><time>2026-04-25T15:11:54Z</time></trkpt><trkpt lat="44.5075717" lon="8.4358933"><ele>328.0</ele><time>2026-04-25T15:11:54.998Z</time></trkpt><trkpt lat="44.5074067" lon="8.4359167"><ele>328.0</ele><time>2026-04-25T15:11:55.995Z</time></trkpt><trkpt lat="44.5072517" lon="8.435935"><ele>328.0</ele><time>2026-04-25T15:11:56.996Z</time></trkpt><trkpt lat="44.5071033" lon="8.4359133"><ele>328.0</ele><time>2026-04-25T15:11:58.003Z</time></trkpt><trkpt lat="44.5069633" lon="8.4358567"><ele>328.0</ele><time>2026-04-25T15:11:58.992Z</time></trkpt><trkpt lat="44.5068233" lon="8.435755"><ele>327.0</ele><time>2026-04-25T15:11:59.999Z</time></trkpt><trkpt lat="44.506685" lon="8.4356383"><ele>326.0</ele><time>2026-04-25T15:12:01Z</time></trkpt><trkpt lat="44.5065383" lon="8.4355267"><ele>325.0</ele><time>2026-04-25T15:12:01.996Z</time></trkpt><trkpt lat="44.5063833" lon="8.4354583"><ele>329.0</ele><time>2026-04-25T15:12:02.998Z</time></trkpt><trkpt lat="44.50622" lon="8.4354367"><ele>333.0</ele><time>2026-04-25T15:12:04.004Z</time></trkpt><trkpt lat="44.5060567" lon="8.435415"><ele>337.0</ele><time>2026-04-25T15:12:04.999Z</time></trkpt><trkpt lat="44.5059017" lon="8.4353717"><ele>337.0</ele><time>2026-04-25T15:12:05.995Z</time></trkpt><trkpt lat="44.50576" lon="8.4352867"><ele>337.0</ele><time>2026-04-25T15:12:06.994Z</time></trkpt><trkpt lat="44.5056267" lon="8.4351817"><ele>337.0</ele><time>2026-04-25T15:12:08.001Z</time></trkpt><trkpt lat="44.5054983" lon="8.4350683"><ele>336.0</ele><time>2026-04-25T15:12:08.997Z</time></trkpt><trkpt lat="44.5053667" lon="8.4349717"><ele>335.0</ele><time>2026-04-25T15:12:09.996Z</time></trkpt><trkpt lat="44.50523" lon="8.4348983"><ele>334.0</ele><time>2026-04-25T15:12:10.996Z</time></trkpt><trkpt lat="44.50507" lon="8.43488"><ele>334.0</ele><time>2026-04-25T15:12:12.002Z</time></trkpt><trkpt lat="44.5049117" lon="8.4348867"><ele>334.0</ele><time>2026-04-25T15:12:12.996Z</time></trkpt><trkpt lat="44.5047567" lon="8.4348867"><ele>334.0</ele><time>2026-04-25T15:12:13.996Z</time></trkpt><trkpt lat="44.5046117" lon="8.4348717"><ele>333.75</ele><time>2026-04-25T15:12:14.997Z</time></trkpt><trkpt lat="44.50448" lon="8.4348333"><ele>333.5</ele><time>2026-04-25T15:12:15.998Z</time></trkpt><trkpt lat="44.5043533" lon="8.4347567"><ele>333.25</ele><time>2026-04-25T15:12:17.003Z</time></trkpt><trkpt lat="44.5042267" lon="8.4346483"><ele>333.0</ele><time>2026-04-25T15:12:17.993Z</time></trkpt><trkpt lat="44.5041067" lon="8.4345617"><ele>336.2</ele><time>2026-04-25T15:12:18.997Z</time></trkpt><trkpt lat="44.5040067" lon="8.4345017"><ele>339.4</ele><time>2026-04-25T15:12:19.999Z</time></trkpt><trkpt lat="44.5039283" lon="8.4344467"><ele>342.59999999999997</ele><time>2026-04-25T15:12:21Z</time></trkpt><trkpt lat="44.50386" lon="8.4343767"><ele>345.79999999999995</ele><time>2026-04-25T15:12:22.003Z</time></trkpt><trkpt lat="44.5038117" lon="8.43428"><ele>349.0</ele><time>2026-04-25T15:12:22.996Z</time></trkpt><trkpt lat="44.5038183" lon="8.4340917"><ele>349.0</ele><time>2026-04-25T15:12:23.997Z</time></trkpt><trkpt lat="44.5038217" lon="8.4339017"><ele>349.0</ele><time>2026-04-25T15:12:24.997Z</time></trkpt><trkpt lat="44.5038017" lon="8.43372"><ele>349.0</ele><time>2026-04-25T15:12:25.996Z</time></trkpt><trkpt lat="44.5037617" lon="8.4335483"><ele>349.0</ele><time>2026-04-25T15:12:26.997Z</time></trkpt><trkpt lat="44.5036983" lon="8.4333833"><ele>347.3333333333333</ele><time>2026-04-25T15:12:28Z</time></trkpt><trkpt lat="44.50361" lon="8.4332267"><ele>345.6666666666667</ele><time>2026-04-25T15:12:29Z</time></trkpt><trkpt lat="44.5035233" lon="8.4330567"><ele>344.0</ele><time>2026-04-25T15:12:30Z</time></trkpt><trkpt lat="44.503445" lon="8.43286"><ele>344.0</ele><time>2026-04-25T15:12:31.001Z</time></trkpt><trkpt lat="44.503375" lon="8.4326617"><ele>344.0</ele><time>2026-04-25T15:12:31.998Z</time></trkpt><trkpt lat="44.5033017" lon="8.4324617"><ele>344.0</ele><time>2026-04-25T15:12:33.002Z</time></trkpt><trkpt lat="44.5032267" lon="8.4322883"><ele>344.0</ele><time>2026-04-25T15:12:33.997Z</time></trkpt><trkpt lat="44.503165" lon="8.4321533"><ele>344.0</ele><time>2026-04-25T15:12:34.995Z</time></trkpt><trkpt lat="44.503135" lon="8.432015"><ele>344.0</ele><time>2026-04-25T15:12:35.999Z</time></trkpt><trkpt lat="44.5031267" lon="8.4318617"><ele>344.0</ele><time>2026-04-25T15:12:37.005Z</time></trkpt><trkpt lat="44.503115" lon="8.431695"><ele>344.0</ele><time>2026-04-25T15:12:38.001Z</time></trkpt><trkpt lat="44.5031167" lon="8.4315033"><ele>344.6666666666667</ele><time>2026-04-25T15:12:38.998Z</time></trkpt><trkpt lat="44.5031367" lon="8.4312983"><ele>345.3333333333333</ele><time>2026-04-25T15:12:39.998Z</time></trkpt><trkpt lat="44.5031683" lon="8.4311033"><ele>346.0</ele><time>2026-04-25T15:12:40.997Z</time></trkpt><trkpt lat="44.50322" lon="8.4308767"><ele>346.0</ele><time>2026-04-25T15:12:42Z</time></trkpt><trkpt lat="44.5032667" lon="8.43067"><ele>346.0</ele><time>2026-04-25T15:12:43.007Z</time></trkpt><trkpt lat="44.5033067" lon="8.4304567"><ele>346.0</ele><time>2026-04-25T15:12:44Z</time></trkpt><trkpt lat="44.503345" lon="8.4302383"><ele>346.0</ele><time>2026-04-25T15:12:44.997Z</time></trkpt><trkpt lat="44.5033783" lon="8.43001"><ele>346.0</ele><time>2026-04-25T15:12:46.002Z</time></trkpt><trkpt lat="44.50341" lon="8.4297817"><ele>346.0</ele><time>2026-04-25T15:12:47.001Z</time></trkpt><trkpt lat="44.5034367" lon="8.42955"><ele>346.0</ele><time>2026-04-25T15:12:48.002Z</time></trkpt><trkpt lat="44.5034483" lon="8.4293183"><ele>346.0</ele><time>2026-04-25T15:12:49.005Z</time></trkpt><trkpt lat="44.50344" lon="8.429085"><ele>346.0</ele><time>2026-04-25T15:12:50Z</time></trkpt><trkpt lat="44.5034133" lon="8.4288367"><ele>346.3333333333333</ele><time>2026-04-25T15:12:50.996Z</time></trkpt><trkpt lat="44.5033583" lon="8.4286067"><ele>346.6666666666667</ele><time>2026-04-25T15:12:51.998Z</time></trkpt><trkpt lat="44.503285" lon="8.428385"><ele>347.0</ele><time>2026-04-25T15:12:52.995Z</time></trkpt><trkpt lat="44.5031933" lon="8.428185"><ele>347.0</ele><time>2026-04-25T15:12:53.994Z</time></trkpt><trkpt lat="44.5031183" lon="8.4279967"><ele>347.0</ele><time>2026-04-25T15:12:55Z</time></trkpt><trkpt lat="44.503065" lon="8.427815"><ele>347.0</ele><time>2026-04-25T15:12:55.996Z</time></trkpt><trkpt lat="44.503035" lon="8.42763"><ele>347.0</ele><time>2026-04-25T15:12:56.997Z</time></trkpt><trkpt lat="44.5030083" lon="8.427475"><ele>346.6</ele><time>2026-04-25T15:12:57.996Z</time></trkpt><trkpt lat="44.5029683" lon="8.42734"><ele>346.20000000000005</ele><time>2026-04-25T15:12:58.996Z</time></trkpt><trkpt lat="44.50291" lon="8.4272233"><ele>345.8</ele><time>2026-04-25T15:12:59.996Z</time></trkpt><trkpt lat="44.5028433" lon="8.4271317"><ele>345.4</ele><time>2026-04-25T15:13:00.997Z</time></trkpt><trkpt lat="44.50275" lon="8.4270733"><ele>345.0</ele><time>2026-04-25T15:13:01.997Z</time></trkpt><trkpt lat="44.50261" lon="8.427075"><ele>345.0</ele><time>2026-04-25T15:13:02.994Z</time></trkpt><trkpt lat="44.5024717" lon="8.427045"><ele>345.0</ele><time>2026-04-25T15:13:03.999Z</time></trkpt><trkpt lat="44.5023267" lon="8.4270033"><ele>345.0</ele><time>2026-04-25T15:13:04.999Z</time></trkpt><trkpt lat="44.50218" lon="8.4269267"><ele>345.0</ele><time>2026-04-25T15:13:05.995Z</time></trkpt><trkpt lat="44.50203" lon="8.4268233"><ele>345.0</ele><time>2026-04-25T15:13:06.997Z</time></trkpt><trkpt lat="44.5018783" lon="8.4266967"><ele>345.0</ele><time>2026-04-25T15:13:07.995Z</time></trkpt><trkpt lat="44.5017083" lon="8.4265633"><ele>345.0</ele><time>2026-04-25T15:13:08.994Z</time></trkpt><trkpt lat="44.5015333" lon="8.4264183"><ele>343.0</ele><time>2026-04-25T15:13:09.993Z</time></trkpt><trkpt lat="44.5013683" lon="8.426255"><ele>341.0</ele><time>2026-04-25T15:13:10.999Z</time></trkpt><trkpt lat="44.5012017" lon="8.426085"><ele>339.0</ele><time>2026-04-25T15:13:11.994Z</time></trkpt><trkpt lat="44.5010383" lon="8.4259133"><ele>339.0</ele><time>2026-04-25T15:13:12.992Z</time></trkpt><trkpt lat="44.500885" lon="8.4257433"><ele>339.0</ele><time>2026-04-25T15:13:14.01Z</time></trkpt><trkpt lat="44.5007483" lon="8.4255583"><ele>339.0</ele><time>2026-04-25T15:13:14.996Z</time></trkpt><trkpt lat="44.500605" lon="8.4253817"><ele>337.3333333333333</ele><time>2026-04-25T15:13:15.995Z</time></trkpt><trkpt lat="44.5004617" lon="8.4252133"><ele>335.66666666666663</ele><time>2026-04-25T15:13:16.995Z</time></trkpt><trkpt lat="44.5003283" lon="8.4250483"><ele>334.0</ele><time>2026-04-25T15:13:17.997Z</time></trkpt><trkpt lat="44.5002" lon="8.4248967"><ele>334.0</ele><time>2026-04-25T15:13:18.997Z</time></trkpt><trkpt lat="44.5000783" lon="8.424755"><ele>334.0</ele><time>2026-04-25T15:13:19.995Z</time></trkpt><trkpt lat="44.4999633" lon="8.42462"><ele>334.0</ele><time>2026-04-25T15:13:20.999Z</time></trkpt><trkpt lat="44.4998533" lon="8.4244933"><ele>334.75</ele><time>2026-04-25T15:13:21.993Z</time></trkpt><trkpt lat="44.4997533" lon="8.4243617"><ele>335.5</ele><time>2026-04-25T15:13:23.006Z</time></trkpt><trkpt lat="44.4996633" lon="8.42421"><ele>336.25</ele><time>2026-04-25T15:13:23.995Z</time></trkpt><trkpt lat="44.4995883" lon="8.4240383"><ele>337.0</ele><time>2026-04-25T15:13:24.996Z</time></trkpt><trkpt lat="44.4995333" lon="8.4238483"><ele>337.0</ele><time>2026-04-25T15:13:25.997Z</time></trkpt><trkpt lat="44.4994917" lon="8.4236533"><ele>337.0</ele><time>2026-04-25T15:13:26.998Z</time></trkpt><trkpt lat="44.4994633" lon="8.4234583"><ele>337.0</ele><time>2026-04-25T15:13:28Z</time></trkpt><trkpt lat="44.4994517" lon="8.4232533"><ele>337.0</ele><time>2026-04-25T15:13:28.994Z</time></trkpt><trkpt lat="44.49946" lon="8.4230517"><ele>337.25</ele><time>2026-04-25T15:13:29.996Z</time></trkpt><trkpt lat="44.4994917" lon="8.4228533"><ele>337.5</ele><time>2026-04-25T15:13:30.995Z</time></trkpt><trkpt lat="44.4995367" lon="8.4226667"><ele>337.75</ele><time>2026-04-25T15:13:31.999Z</time></trkpt><trkpt lat="44.4995933" lon="8.4224733"><ele>338.0</ele><time>2026-04-25T15:13:32.998Z</time></trkpt><trkpt lat="44.4996533" lon="8.4222767"><ele>341.0</ele><time>2026-04-25T15:13:33.996Z</time></trkpt><trkpt lat="44.49971" lon="8.42207"><ele>344.0</ele><time>2026-04-25T15:13:34.998Z</time></trkpt><trkpt lat="44.49975" lon="8.4218583"><ele>347.0</ele><time>2026-04-25T15:13:35.996Z</time></trkpt><trkpt lat="44.4997783" lon="8.421635"><ele>347.0</ele><time>2026-04-25T15:13:36.996Z</time></trkpt><trkpt lat="44.4997933" lon="8.42141"><ele>347.0</ele><time>2026-04-25T15:13:37.995Z</time></trkpt><trkpt lat="44.4998" lon="8.421185"><ele>347.0</ele><time>2026-04-25T15:13:39.003Z</time></trkpt><trkpt lat="44.4997983" lon="8.420965"><ele>347.5</ele><time>2026-04-25T15:13:39.993Z</time></trkpt><trkpt lat="44.4997767" lon="8.420775"><ele>348.0</ele><time>2026-04-25T15:13:40.993Z</time></trkpt><trkpt lat="44.4997367" lon="8.4206017"><ele>348.5</ele><time>2026-04-25T15:13:41.998Z</time></trkpt><trkpt lat="44.4996833" lon="8.4204383"><ele>349.0</ele><time>2026-04-25T15:13:42.996Z</time></trkpt><trkpt lat="44.49959" lon="8.4202983"><ele>346.66666666666663</ele><time>2026-04-25T15:13:43.997Z</time></trkpt><trkpt lat="44.499485" lon="8.420145"><ele>344.3333333333333</ele><time>2026-04-25T15:13:44.993Z</time></trkpt><trkpt lat="44.4993317" lon="8.4200317"><ele>342.0</ele><time>2026-04-25T15:13:46.004Z</time></trkpt><trkpt lat="44.499165" lon="8.4199033"><ele>342.0</ele><time>2026-04-25T15:13:46.992Z</time></trkpt><trkpt lat="44.4990033" lon="8.4197667"><ele>342.0</ele><time>2026-04-25T15:13:47.999Z</time></trkpt><trkpt lat="44.4988433" lon="8.4196317"><ele>342.0</ele><time>2026-04-25T15:13:48.999Z</time></trkpt><trkpt lat="44.498685" lon="8.41949"><ele>344.3333333333333</ele><time>2026-04-25T15:13:50.001Z</time></trkpt><trkpt lat="44.498525" lon="8.419355"><ele>346.66666666666663</ele><time>2026-04-25T15:13:51.002Z</time></trkpt><trkpt lat="44.498365" lon="8.4192283"><ele>349.0</ele><time>2026-04-25T15:13:51.997Z</time></trkpt><trkpt lat="44.4982083" lon="8.4190967"><ele>349.0</ele><time>2026-04-25T15:13:52.995Z</time></trkpt><trkpt lat="44.4980533" lon="8.41897"><ele>349.0</ele><time>2026-04-25T15:13:53.996Z</time></trkpt><trkpt lat="44.4978933" lon="8.418855"><ele>349.0</ele><time>2026-04-25T15:13:54.999Z</time></trkpt><trkpt lat="44.497745" lon="8.4187317"><ele>350.66666666666663</ele><time>2026-04-25T15:13:56.003Z</time></trkpt><trkpt lat="44.4975983" lon="8.41861"><ele>352.3333333333333</ele><time>2026-04-25T15:13:56.999Z</time></trkpt><trkpt lat="44.4974483" lon="8.4184967"><ele>354.0</ele><time>2026-04-25T15:13:57.994Z</time></trkpt><trkpt lat="44.4973033" lon="8.4183783"><ele>354.0</ele><time>2026-04-25T15:13:58.999Z</time></trkpt><trkpt lat="44.4971667" lon="8.4182617"><ele>354.0</ele><time>2026-04-25T15:13:59.993Z</time></trkpt><trkpt lat="44.4970317" lon="8.41815"><ele>354.0</ele><time>2026-04-25T15:14:00.995Z</time></trkpt><trkpt lat="44.496905" lon="8.418035"><ele>352.25</ele><time>2026-04-25T15:14:01.997Z</time></trkpt><trkpt lat="44.49678" lon="8.4179233"><ele>350.5</ele><time>2026-04-25T15:14:02.996Z</time></trkpt><trkpt lat="44.496655" lon="8.417815"><ele>348.75</ele><time>2026-04-25T15:14:04.003Z</time></trkpt><trkpt lat="44.4965317" lon="8.4177117"><ele>347.0</ele><time>2026-04-25T15:14:04.994Z</time></trkpt><trkpt lat="44.4964083" lon="8.4176133"><ele>347.0</ele><time>2026-04-25T15:14:05.996Z</time></trkpt><trkpt lat="44.49629" lon="8.4175167"><ele>347.0</ele><time>2026-04-25T15:14:06.998Z</time></trkpt><trkpt lat="44.496175" lon="8.417415"><ele>347.0</ele><time>2026-04-25T15:14:07.995Z</time></trkpt><trkpt lat="44.49606" lon="8.4173117"><ele>347.0</ele><time>2026-04-25T15:14:08.998Z</time></trkpt><trkpt lat="44.49595" lon="8.4172017"><ele>346.75</ele><time>2026-04-25T15:14:09.991Z</time></trkpt><trkpt lat="44.49584" lon="8.4170933"><ele>346.5</ele><time>2026-04-25T15:14:10.994Z</time></trkpt><trkpt lat="44.4957283" lon="8.4169917"><ele>346.25</ele><time>2026-04-25T15:14:11.993Z</time></trkpt><trkpt lat="44.4956133" lon="8.4168917"><ele>346.0</ele><time>2026-04-25T15:14:13Z</time></trkpt><trkpt lat="44.4954983" lon="8.4167933"><ele>345.25</ele><time>2026-04-25T15:14:14.001Z</time></trkpt><trkpt lat="44.4953817" lon="8.4166933"><ele>344.5</ele><time>2026-04-25T15:14:14.993Z</time></trkpt><trkpt lat="44.4952633" lon="8.4165883"><ele>343.75</ele><time>2026-04-25T15:14:15.997Z</time></trkpt><trkpt lat="44.4951433" lon="8.4164783"><ele>343.0</ele><time>2026-04-25T15:14:16.997Z</time></trkpt><trkpt lat="44.49502" lon="8.4163767"><ele>343.0</ele><time>2026-04-25T15:14:17.996Z</time></trkpt><trkpt lat="44.494895" lon="8.4162733"><ele>343.0</ele><time>2026-04-25T15:14:18.993Z</time></trkpt><trkpt lat="44.49477" lon="8.41617"><ele>343.0</ele><time>2026-04-25T15:14:19.995Z</time></trkpt><trkpt lat="44.49465" lon="8.4160633"><ele>343.0</ele><time>2026-04-25T15:14:20.997Z</time></trkpt><trkpt lat="44.49453" lon="8.4159633"><ele>343.0</ele><time>2026-04-25T15:14:21.994Z</time></trkpt><trkpt lat="44.49441" lon="8.4158717"><ele>343.0</ele><time>2026-04-25T15:14:22.996Z</time></trkpt><trkpt lat="44.4942917" lon="8.4157767"><ele>343.0</ele><time>2026-04-25T15:14:23.995Z</time></trkpt><trkpt lat="44.4941717" lon="8.4156783"><ele>343.0</ele><time>2026-04-25T15:14:25.001Z</time></trkpt><trkpt lat="44.4940533" lon="8.41558"><ele>343.0</ele><time>2026-04-25T15:14:25.993Z</time></trkpt><trkpt lat="44.49393" lon="8.4154917"><ele>343.0</ele><time>2026-04-25T15:14:26.995Z</time></trkpt><trkpt lat="44.4938" lon="8.4154167"><ele>343.0</ele><time>2026-04-25T15:14:27.995Z</time></trkpt><trkpt lat="44.4936617" lon="8.4153567"><ele>343.0</ele><time>2026-04-25T15:14:28.998Z</time></trkpt><trkpt lat="44.4935183" lon="8.4153033"><ele>343.5</ele><time>2026-04-25T15:14:29.995Z</time></trkpt><trkpt lat="44.4933783" lon="8.4152433"><ele>344.0</ele><time>2026-04-25T15:14:31Z</time></trkpt><trkpt lat="44.4932367" lon="8.415195"><ele>344.5</ele><time>2026-04-25T15:14:31.995Z</time></trkpt><trkpt lat="44.4931" lon="8.415155"><ele>345.0</ele><time>2026-04-25T15:14:32.996Z</time></trkpt><trkpt lat="44.492965" lon="8.415115"><ele>345.5</ele><time>2026-04-25T15:14:33.998Z</time></trkpt><trkpt lat="44.492835" lon="8.41507"><ele>346.0</ele><time>2026-04-25T15:14:34.999Z</time></trkpt><trkpt lat="44.4927067" lon="8.4150183"><ele>346.5</ele><time>2026-04-25T15:14:36Z</time></trkpt><trkpt lat="44.4925767" lon="8.4149633"><ele>347.0</ele><time>2026-04-25T15:14:36.996Z</time></trkpt><trkpt lat="44.4924533" lon="8.4149067"><ele>347.0</ele><time>2026-04-25T15:14:38Z</time></trkpt><trkpt lat="44.4923333" lon="8.4148483"><ele>347.0</ele><time>2026-04-25T15:14:38.996Z</time></trkpt><trkpt lat="44.49221" lon="8.4147817"><ele>347.0</ele><time>2026-04-25T15:14:39.996Z</time></trkpt><trkpt lat="44.4920833" lon="8.4147217"><ele>347.0</ele><time>2026-04-25T15:14:40.997Z</time></trkpt><trkpt lat="44.4919617" lon="8.4146433"><ele>346.5</ele><time>2026-04-25T15:14:41.997Z</time></trkpt><trkpt lat="44.4918467" lon="8.4145483"><ele>346.0</ele><time>2026-04-25T15:14:43.003Z</time></trkpt><trkpt lat="44.49173" lon="8.414455"><ele>345.5</ele><time>2026-04-25T15:14:43.998Z</time></trkpt><trkpt lat="44.4916233" lon="8.414375"><ele>345.0</ele><time>2026-04-25T15:14:44.999Z</time></trkpt><trkpt lat="44.4915233" lon="8.4143"><ele>345.0</ele><time>2026-04-25T15:14:45.994Z</time></trkpt><trkpt lat="44.49144" lon="8.4142117"><ele>345.0</ele><time>2026-04-25T15:14:46.995Z</time></trkpt><trkpt lat="44.4913683" lon="8.4141067"><ele>345.0</ele><time>2026-04-25T15:14:47.996Z</time></trkpt><trkpt lat="44.4913033" lon="8.41399"><ele>345.0</ele><time>2026-04-25T15:14:48.994Z</time></trkpt><trkpt lat="44.4912333" lon="8.4138767"><ele>345.0</ele><time>2026-04-25T15:14:49.994Z</time></trkpt><trkpt lat="44.49115" lon="8.4137717"><ele>345.2</ele><time>2026-04-25T15:14:50.996Z</time></trkpt><trkpt lat="44.4910583" lon="8.4136767"><ele>345.4</ele><time>2026-04-25T15:14:51.995Z</time></trkpt><trkpt lat="44.490965" lon="8.4136033"><ele>345.6</ele><time>2026-04-25T15:14:52.998Z</time></trkpt><trkpt lat="44.49087" lon="8.4135433"><ele>345.8</ele><time>2026-04-25T15:14:53.997Z</time></trkpt><trkpt lat="44.4907767" lon="8.41348"><ele>346.0</ele><time>2026-04-25T15:14:54.993Z</time></trkpt><trkpt lat="44.4906867" lon="8.4134133"><ele>346.0</ele><time>2026-04-25T15:14:55.993Z</time></trkpt><trkpt lat="44.4906017" lon="8.4133467"><ele>346.0</ele><time>2026-04-25T15:14:56.993Z</time></trkpt><trkpt lat="44.4905267" lon="8.41328"><ele>346.0</ele><time>2026-04-25T15:14:58.001Z</time></trkpt><trkpt lat="44.49046" lon="8.4132083"><ele>346.0</ele><time>2026-04-25T15:14:59Z</time></trkpt><trkpt lat="44.49041" lon="8.4131233"><ele>346.0</ele><time>2026-04-25T15:14:59.998Z</time></trkpt><trkpt lat="44.4903617" lon="8.4130367"><ele>346.0</ele><time>2026-04-25T15:15:00.996Z</time></trkpt><trkpt lat="44.4903217" lon="8.4129383"><ele>346.3333333333333</ele><time>2026-04-25T15:15:01.996Z</time></trkpt><trkpt lat="44.49028" lon="8.4128333"><ele>346.66666666666663</ele><time>2026-04-25T15:15:02.997Z</time></trkpt><trkpt lat="44.4902383" lon="8.4127317"><ele>347.0</ele><time>2026-04-25T15:15:03.996Z</time></trkpt><trkpt lat="44.4901983" lon="8.4126267"><ele>347.3333333333333</ele><time>2026-04-25T15:15:04.996Z</time></trkpt><trkpt lat="44.490155" lon="8.4125183"><ele>347.6666666666667</ele><time>2026-04-25T15:15:05.996Z</time></trkpt><trkpt lat="44.49011" lon="8.4124033"><ele>348.0</ele><time>2026-04-25T15:15:06.997Z</time></trkpt><trkpt lat="44.4900567" lon="8.4122933"><ele>348.0</ele><time>2026-04-25T15:15:07.995Z</time></trkpt><trkpt lat="44.4900067" lon="8.4121867"><ele>348.0</ele><time>2026-04-25T15:15:08.997Z</time></trkpt><trkpt lat="44.48996" lon="8.4120933"><ele>348.0</ele><time>2026-04-25T15:15:09.998Z</time></trkpt><trkpt lat="44.489915" lon="8.41201"><ele>348.0</ele><time>2026-04-25T15:15:10.996Z</time></trkpt><trkpt lat="44.4898733" lon="8.4119233"><ele>348.0</ele><time>2026-04-25T15:15:11.996Z</time></trkpt><trkpt lat="44.4898267" lon="8.4118517"><ele>348.0</ele><time>2026-04-25T15:15:12.998Z</time></trkpt><trkpt lat="44.4897867" lon="8.4117833"><ele>348.4</ele><time>2026-04-25T15:15:13.997Z</time></trkpt><trkpt lat="44.489705" lon="8.4116583"><ele>348.79999999999995</ele><time>2026-04-25T15:15:15.995Z</time></trkpt><trkpt lat="44.4896317" lon="8.4115417"><ele>349.2</ele><time>2026-04-25T15:15:17.997Z</time></trkpt><trkpt lat="44.4895767" lon="8.4114267"><ele>349.6</ele><time>2026-04-25T15:15:20.001Z</time></trkpt><trkpt lat="44.4896067" lon="8.411315"><ele>350.0</ele><time>2026-04-25T15:15:21.995Z</time></trkpt><trkpt lat="44.4897083" lon="8.4112217"><ele>350.83333333333337</ele><time>2026-04-25T15:15:24.002Z</time></trkpt><trkpt lat="44.4897767" lon="8.4111717"><ele>351.6666666666667</ele><time>2026-04-25T15:15:24.995Z</time></trkpt><trkpt lat="44.48985" lon="8.4111067"><ele>352.5</ele><time>2026-04-25T15:15:25.997Z</time></trkpt><trkpt lat="44.489925" lon="8.4110533"><ele>353.3333333333333</ele><time>2026-04-25T15:15:26.998Z</time></trkpt><trkpt lat="44.49" lon="8.41099"><ele>354.16666666666663</ele><time>2026-04-25T15:15:27.995Z</time></trkpt><trkpt lat="44.490065" lon="8.410915"><ele>355.0</ele><time>2026-04-25T15:15:28.995Z</time></trkpt><trkpt lat="44.4901267" lon="8.4108517"><ele>355.0</ele><time>2026-04-25T15:15:29.997Z</time></trkpt><trkpt lat="44.4901767" lon="8.4107667"><ele>355.0</ele><time>2026-04-25T15:15:30.994Z</time></trkpt><trkpt lat="44.49022" lon="8.4106767"><ele>355.0</ele><time>2026-04-25T15:15:32.005Z</time></trkpt><trkpt lat="44.4902717" lon="8.410605"><ele>355.0</ele><time>2026-04-25T15:15:33Z</time></trkpt><trkpt lat="44.4903183" lon="8.4105233"><ele>355.0</ele><time>2026-04-25T15:15:34.002Z</time></trkpt><trkpt lat="44.4903683" lon="8.410445"><ele>355.0</ele><time>2026-04-25T15:15:34.993Z</time></trkpt><trkpt lat="44.4904283" lon="8.4103683"><ele>356.4</ele><time>2026-04-25T15:15:35.999Z</time></trkpt><trkpt lat="44.4904933" lon="8.41029"><ele>357.8</ele><time>2026-04-25T15:15:36.993Z</time></trkpt><trkpt lat="44.49056" lon="8.4102167"><ele>359.20000000000005</ele><time>2026-04-25T15:15:37.99Z</time></trkpt><trkpt lat="44.490635" lon="8.410135"><ele>360.6</ele><time>2026-04-25T15:15:38.996Z</time></trkpt><trkpt lat="44.49072" lon="8.4100767"><ele>362.0</ele><time>2026-04-25T15:15:39.994Z</time></trkpt><trkpt lat="44.4908" lon="8.4099983"><ele>362.0</ele><time>2026-04-25T15:15:40.997Z</time></trkpt><trkpt lat="44.4908867" lon="8.4099167"><ele>362.0</ele><time>2026-04-25T15:15:41.993Z</time></trkpt><trkpt lat="44.4909733" lon="8.4098317"><ele>362.0</ele><time>2026-04-25T15:15:42.997Z</time></trkpt><trkpt lat="44.4910583" lon="8.4097283"><ele>362.0</ele><time>2026-04-25T15:15:43.996Z</time></trkpt><trkpt lat="44.4911433" lon="8.40961"><ele>362.0</ele><time>2026-04-25T15:15:44.996Z</time></trkpt><trkpt lat="44.4912217" lon="8.4094583"><ele>363.25</ele><time>2026-04-25T15:15:46.001Z</time></trkpt><trkpt lat="44.4913" lon="8.4092867"><ele>364.5</ele><time>2026-04-25T15:15:47Z</time></trkpt><trkpt lat="44.49138" lon="8.4091067"><ele>365.75</ele><time>2026-04-25T15:15:47.998Z</time></trkpt><trkpt lat="44.4914483" lon="8.4089233"><ele>367.0</ele><time>2026-04-25T15:15:48.998Z</time></trkpt><trkpt lat="44.4915067" lon="8.4087517"><ele>368.25</ele><time>2026-04-25T15:15:49.996Z</time></trkpt><trkpt lat="44.4915533" lon="8.40858"><ele>369.5</ele><time>2026-04-25T15:15:50.998Z</time></trkpt><trkpt lat="44.4915967" lon="8.4084133"><ele>370.75</ele><time>2026-04-25T15:15:51.999Z</time></trkpt><trkpt lat="44.491645" lon="8.4082517"><ele>372.0</ele><time>2026-04-25T15:15:52.999Z</time></trkpt><trkpt lat="44.4917033" lon="8.4081017"><ele>371.25</ele><time>2026-04-25T15:15:53.998Z</time></trkpt><trkpt lat="44.49179" lon="8.4079667"><ele>370.5</ele><time>2026-04-25T15:15:54.998Z</time></trkpt><trkpt lat="44.491885" lon="8.4078283"><ele>369.75</ele><time>2026-04-25T15:15:55.998Z</time></trkpt><trkpt lat="44.4919783" lon="8.40769"><ele>369.0</ele><time>2026-04-25T15:15:57.002Z</time></trkpt><trkpt lat="44.4920767" lon="8.4075633"><ele>371.5</ele><time>2026-04-25T15:15:58.003Z</time></trkpt><trkpt lat="44.4921933" lon="8.407455"><ele>374.0</ele><time>2026-04-25T15:15:58.995Z</time></trkpt><trkpt lat="44.4923233" lon="8.4073617"><ele>376.5</ele><time>2026-04-25T15:15:59.994Z</time></trkpt><trkpt lat="44.4924533" lon="8.40727"><ele>379.0</ele><time>2026-04-25T15:16:00.995Z</time></trkpt><trkpt lat="44.492575" lon="8.4071633"><ele>378.75</ele><time>2026-04-25T15:16:01.997Z</time></trkpt><trkpt lat="44.4926883" lon="8.407045"><ele>378.5</ele><time>2026-04-25T15:16:02.996Z</time></trkpt><trkpt lat="44.4927833" lon="8.4068983"><ele>378.25</ele><time>2026-04-25T15:16:03.996Z</time></trkpt><trkpt lat="44.4928717" lon="8.40675"><ele>378.0</ele><time>2026-04-25T15:16:04.995Z</time></trkpt><trkpt lat="44.4929483" lon="8.40659"><ele>380.5</ele><time>2026-04-25T15:16:05.999Z</time></trkpt><trkpt lat="44.4930217" lon="8.4064433"><ele>383.0</ele><time>2026-04-25T15:16:06.994Z</time></trkpt><trkpt lat="44.4930933" lon="8.4063117"><ele>385.5</ele><time>2026-04-25T15:16:08.001Z</time></trkpt><trkpt lat="44.49319" lon="8.40622"><ele>388.0</ele><time>2026-04-25T15:16:08.994Z</time></trkpt><trkpt lat="44.493285" lon="8.4061333"><ele>388.0</ele><time>2026-04-25T15:16:09.996Z</time></trkpt><trkpt lat="44.4933717" lon="8.40605"><ele>388.0</ele><time>2026-04-25T15:16:10.997Z</time></trkpt><trkpt lat="44.493435" lon="8.40596"><ele>388.0</ele><time>2026-04-25T15:16:11.995Z</time></trkpt><trkpt lat="44.4934717" lon="8.405845"><ele>388.0</ele><time>2026-04-25T15:16:12.996Z</time></trkpt><trkpt lat="44.49348" lon="8.40572"><ele>388.0</ele><time>2026-04-25T15:16:13.996Z</time></trkpt><trkpt lat="44.49347" lon="8.4055883"><ele>389.2</ele><time>2026-04-25T15:16:14.996Z</time></trkpt><trkpt lat="44.4934433" lon="8.4054483"><ele>390.4</ele><time>2026-04-25T15:16:15.999Z</time></trkpt><trkpt lat="44.4933933" lon="8.4053267"><ele>391.59999999999997</ele><time>2026-04-25T15:16:16.998Z</time></trkpt><trkpt lat="44.4933317" lon="8.4052183"><ele>392.79999999999995</ele><time>2026-04-25T15:16:17.998Z</time></trkpt><trkpt lat="44.4932933" lon="8.40509"><ele>394.0</ele><time>2026-04-25T15:16:18.998Z</time></trkpt><trkpt lat="44.49328" lon="8.404945"><ele>394.0</ele><time>2026-04-25T15:16:19.999Z</time></trkpt><trkpt lat="44.4932883" lon="8.4048"><ele>394.0</ele><time>2026-04-25T15:16:20.999Z</time></trkpt><trkpt lat="44.4932917" lon="8.4046667"><ele>394.0</ele><time>2026-04-25T15:16:21.995Z</time></trkpt><trkpt lat="44.4932767" lon="8.404525"><ele>394.0</ele><time>2026-04-25T15:16:22.997Z</time></trkpt><trkpt lat="44.4932433" lon="8.4043867"><ele>394.0</ele><time>2026-04-25T15:16:23.995Z</time></trkpt><trkpt lat="44.4931967" lon="8.4042517"><ele>393.6</ele><time>2026-04-25T15:16:24.995Z</time></trkpt><trkpt lat="44.49312" lon="8.4041483"><ele>393.2</ele><time>2026-04-25T15:16:25.996Z</time></trkpt><trkpt lat="44.49302" lon="8.4040833"><ele>392.8</ele><time>2026-04-25T15:16:26.996Z</time></trkpt><trkpt lat="44.4929367" lon="8.404005"><ele>392.40000000000003</ele><time>2026-04-25T15:16:27.996Z</time></trkpt><trkpt lat="44.4928767" lon="8.4039083"><ele>392.0</ele><time>2026-04-25T15:16:28.996Z</time></trkpt><trkpt lat="44.4928217" lon="8.4038267"><ele>391.99999999999994</ele><time>2026-04-25T15:16:29.995Z</time></trkpt><trkpt lat="44.492775" lon="8.4037517"><ele>392.0</ele><time>2026-04-25T15:16:30.995Z</time></trkpt><trkpt lat="44.4927367" lon="8.4036667"><ele>392.0</ele><time>2026-04-25T15:16:31.995Z</time></trkpt><trkpt lat="44.492715" lon="8.4035583"><ele>392.0</ele><time>2026-04-25T15:16:32.997Z</time></trkpt><trkpt lat="44.4927117" lon="8.4034517"><ele>391.99999999999994</ele><time>2026-04-25T15:16:33.997Z</time></trkpt><trkpt lat="44.4927767" lon="8.4033183"><ele>392.0</ele><time>2026-04-25T15:16:34.997Z</time></trkpt><trkpt lat="44.4930567" lon="8.40321"><ele>396.66666666666663</ele><time>2026-04-25T15:16:35.997Z</time></trkpt><trkpt lat="44.4931983" lon="8.4031067"><ele>401.33333333333337</ele><time>2026-04-25T15:16:36.998Z</time></trkpt><trkpt lat="44.4933283" lon="8.403005"><ele>406.0</ele><time>2026-04-25T15:16:37.996Z</time></trkpt><trkpt lat="44.4934867" lon="8.4029067"><ele>407.25</ele><time>2026-04-25T15:16:38.996Z</time></trkpt><trkpt lat="44.4936183" lon="8.40282"><ele>408.5</ele><time>2026-04-25T15:16:39.995Z</time></trkpt><trkpt lat="44.493725" lon="8.4027333"><ele>409.75</ele><time>2026-04-25T15:16:40.995Z</time></trkpt><trkpt lat="44.4938333" lon="8.4026483"><ele>411.0</ele><time>2026-04-25T15:16:41.993Z</time></trkpt><trkpt lat="44.49392" lon="8.4025567"><ele>411.0</ele><time>2026-04-25T15:16:42.998Z</time></trkpt><trkpt lat="44.494" lon="8.40244"><ele>411.0</ele><time>2026-04-25T15:16:43.995Z</time></trkpt><trkpt lat="44.4940667" lon="8.4023117"><ele>411.0</ele><time>2026-04-25T15:16:45.001Z</time></trkpt><trkpt lat="44.4941217" lon="8.402185"><ele>411.0</ele><time>2026-04-25T15:16:45.994Z</time></trkpt><trkpt lat="44.4941817" lon="8.402075"><ele>411.0</ele><time>2026-04-25T15:16:46.995Z</time></trkpt><trkpt lat="44.4942433" lon="8.40199"><ele>415.8</ele><time>2026-04-25T15:16:47.993Z</time></trkpt><trkpt lat="44.4943167" lon="8.4019183"><ele>420.6</ele><time>2026-04-25T15:16:48.997Z</time></trkpt><trkpt lat="44.49439" lon="8.4018733"><ele>425.4</ele><time>2026-04-25T15:16:50Z</time></trkpt><trkpt lat="44.4945083" lon="8.401915"><ele>430.2</ele><time>2026-04-25T15:16:50.993Z</time></trkpt><trkpt lat="44.4946183" lon="8.4019533"><ele>435.0</ele><time>2026-04-25T15:16:51.997Z</time></trkpt><trkpt lat="44.494735" lon="8.4019733"><ele>435.0</ele><time>2026-04-25T15:16:52.998Z</time></trkpt><trkpt lat="44.494835" lon="8.4019467"><ele>435.0</ele><time>2026-04-25T15:16:53.996Z</time></trkpt><trkpt lat="44.4949283" lon="8.4018783"><ele>435.0</ele><time>2026-04-25T15:16:54.998Z</time></trkpt><trkpt lat="44.495025" lon="8.40178"><ele>435.0</ele><time>2026-04-25T15:16:55.996Z</time></trkpt><trkpt lat="44.495125" lon="8.4016883"><ele>435.0</ele><time>2026-04-25T15:16:56.998Z</time></trkpt><trkpt lat="44.4952433" lon="8.40163"><ele>435.0</ele><time>2026-04-25T15:16:57.997Z</time></trkpt><trkpt lat="44.49536" lon="8.4015783"><ele>435.0</ele><time>2026-04-25T15:16:58.994Z</time></trkpt><trkpt lat="44.4954783" lon="8.40154"><ele>435.0</ele><time>2026-04-25T15:17:00.001Z</time></trkpt><trkpt lat="44.4956017" lon="8.401535"><ele>435.0</ele><time>2026-04-25T15:17:00.996Z</time></trkpt><trkpt lat="44.4957183" lon="8.401525"><ele>434.75</ele><time>2026-04-25T15:17:01.999Z</time></trkpt><trkpt lat="44.4958367" lon="8.4015917"><ele>434.5</ele><time>2026-04-25T15:17:02.995Z</time></trkpt><trkpt lat="44.4959433" lon="8.40169"><ele>434.25</ele><time>2026-04-25T15:17:03.994Z</time></trkpt><trkpt lat="44.4960367" lon="8.4018117"><ele>434.0</ele><time>2026-04-25T15:17:04.995Z</time></trkpt><trkpt lat="44.4961083" lon="8.40197"><ele>434.0</ele><time>2026-04-25T15:17:05.998Z</time></trkpt><trkpt lat="44.4961717" lon="8.4021183"><ele>434.0</ele><time>2026-04-25T15:17:06.996Z</time></trkpt><trkpt lat="44.4962267" lon="8.4022617"><ele>434.0</ele><time>2026-04-25T15:17:07.996Z</time></trkpt><trkpt lat="44.4962767" lon="8.402365"><ele>434.0</ele><time>2026-04-25T15:17:08.999Z</time></trkpt><trkpt lat="44.4963267" lon="8.4024217"><ele>434.0</ele><time>2026-04-25T15:17:09.993Z</time></trkpt><trkpt lat="44.4964117" lon="8.402415"><ele>434.0</ele><time>2026-04-25T15:17:11.996Z</time></trkpt><trkpt lat="44.49639" lon="8.4022583"><ele>434.0</ele><time>2026-04-25T15:17:13.992Z</time></trkpt><trkpt lat="44.49634" lon="8.40214"><ele>434.0</ele><time>2026-04-25T15:17:14.994Z</time></trkpt><trkpt lat="44.496275" lon="8.402"><ele>434.0</ele><time>2026-04-25T15:17:15.995Z</time></trkpt><trkpt lat="44.49621" lon="8.4018467"><ele>434.0</ele><time>2026-04-25T15:17:16.994Z</time></trkpt><trkpt lat="44.4961517" lon="8.4017067"><ele>434.0</ele><time>2026-04-25T15:17:17.998Z</time></trkpt><trkpt lat="44.4961067" lon="8.401585"><ele>434.0</ele><time>2026-04-25T15:17:19.002Z</time></trkpt><trkpt lat="44.4960733" lon="8.4014733"><ele>434.0</ele><time>2026-04-25T15:17:19.992Z</time></trkpt><trkpt lat="44.4960533" lon="8.4013617"><ele>434.0</ele><time>2026-04-25T15:17:20.995Z</time></trkpt><trkpt lat="44.4960467" lon="8.40125"><ele>433.0</ele><time>2026-04-25T15:17:21.991Z</time></trkpt><trkpt lat="44.4960967" lon="8.4011333"><ele>432.0</ele><time>2026-04-25T15:17:23.997Z</time></trkpt><trkpt lat="44.4962567" lon="8.4012217"><ele>431.0</ele><time>2026-04-25T15:17:24.996Z</time></trkpt><trkpt lat="44.4963767" lon="8.4012383"><ele>430.0</ele><time>2026-04-25T15:17:26.001Z</time></trkpt><trkpt lat="44.4965083" lon="8.40126"><ele>430.0</ele><time>2026-04-25T15:17:27.002Z</time></trkpt><trkpt lat="44.4966333" lon="8.4012583"><ele>430.0</ele><time>2026-04-25T15:17:27.997Z</time></trkpt><trkpt lat="44.4967467" lon="8.4012433"><ele>430.0</ele><time>2026-04-25T15:17:28.996Z</time></trkpt><trkpt lat="44.49684" lon="8.4012283"><ele>430.0</ele><time>2026-04-25T15:17:29.993Z</time></trkpt><trkpt lat="44.49693" lon="8.4012467"><ele>430.0</ele><time>2026-04-25T15:17:30.996Z</time></trkpt><trkpt lat="44.4970167" lon="8.401275"><ele>433.5</ele><time>2026-04-25T15:17:31.995Z</time></trkpt><trkpt lat="44.4970983" lon="8.4013667"><ele>437.0</ele><time>2026-04-25T15:17:32.991Z</time></trkpt><trkpt lat="44.4972067" lon="8.4014517"><ele>440.5</ele><time>2026-04-25T15:17:33.996Z</time></trkpt><trkpt lat="44.4973167" lon="8.401545"><ele>444.0</ele><time>2026-04-25T15:17:34.993Z</time></trkpt><trkpt lat="44.4974233" lon="8.4016267"><ele>444.0</ele><time>2026-04-25T15:17:35.999Z</time></trkpt><trkpt lat="44.49754" lon="8.4016767"><ele>444.0</ele><time>2026-04-25T15:17:36.993Z</time></trkpt><trkpt lat="44.497655" lon="8.4016933"><ele>444.0</ele><time>2026-04-25T15:17:37.992Z</time></trkpt><trkpt lat="44.4977733" lon="8.4016767"><ele>444.0</ele><time>2026-04-25T15:17:38.995Z</time></trkpt><trkpt lat="44.497885" lon="8.4016333"><ele>443.6</ele><time>2026-04-25T15:17:39.995Z</time></trkpt><trkpt lat="44.497985" lon="8.4015583"><ele>443.2</ele><time>2026-04-25T15:17:40.995Z</time></trkpt><trkpt lat="44.4980617" lon="8.4014467"><ele>442.80000000000007</ele><time>2026-04-25T15:17:41.996Z</time></trkpt><trkpt lat="44.4980883" lon="8.4013117"><ele>442.40000000000003</ele><time>2026-04-25T15:17:42.997Z</time></trkpt><trkpt lat="44.4980983" lon="8.40117"><ele>442.0</ele><time>2026-04-25T15:17:43.995Z</time></trkpt><trkpt lat="44.4981067" lon="8.4010483"><ele>442.0</ele><time>2026-04-25T15:17:44.994Z</time></trkpt><trkpt lat="44.4981267" lon="8.4009383"><ele>442.00000000000006</ele><time>2026-04-25T15:17:45.995Z</time></trkpt><trkpt lat="44.49817" lon="8.4008383"><ele>442.00000000000006</ele><time>2026-04-25T15:17:46.995Z</time></trkpt><trkpt lat="44.4982317" lon="8.40078"><ele>442.0</ele><time>2026-04-25T15:17:47.993Z</time></trkpt><trkpt lat="44.4983683" lon="8.4008"><ele>442.0</ele><time>2026-04-25T15:17:48.994Z</time></trkpt><trkpt lat="44.49851" lon="8.4008117"><ele>442.0</ele><time>2026-04-25T15:17:49.996Z</time></trkpt><trkpt lat="44.4986633" lon="8.400805"><ele>442.0</ele><time>2026-04-25T15:17:50.993Z</time></trkpt><trkpt lat="44.4988317" lon="8.4007783"><ele>442.0</ele><time>2026-04-25T15:17:51.993Z</time></trkpt><trkpt lat="44.4990167" lon="8.40074"><ele>443.33333333333337</ele><time>2026-04-25T15:17:52.994Z</time></trkpt><trkpt lat="44.49921" lon="8.4006883"><ele>444.66666666666663</ele><time>2026-04-25T15:17:53.994Z</time></trkpt><trkpt lat="44.4994033" lon="8.4006317"><ele>446.0</ele><time>2026-04-25T15:17:54.997Z</time></trkpt><trkpt lat="44.499585" lon="8.400575"><ele>447.0</ele><time>2026-04-25T15:17:55.997Z</time></trkpt><trkpt lat="44.4997417" lon="8.4005183"><ele>448.0</ele><time>2026-04-25T15:17:57Z</time></trkpt><trkpt lat="44.4998783" lon="8.4004283"><ele>449.0</ele><time>2026-04-25T15:17:57.998Z</time></trkpt><trkpt lat="44.4999983" lon="8.4003217"><ele>450.0</ele><time>2026-04-25T15:17:58.993Z</time></trkpt><trkpt lat="44.50011" lon="8.4002067"><ele>451.0</ele><time>2026-04-25T15:17:59.996Z</time></trkpt><trkpt lat="44.5002183" lon="8.40009"><ele>452.0</ele><time>2026-04-25T15:18:01.001Z</time></trkpt><trkpt lat="44.5003233" lon="8.3999817"><ele>453.0</ele><time>2026-04-25T15:18:02.004Z</time></trkpt><trkpt lat="44.5004317" lon="8.399875"><ele>453.0</ele><time>2026-04-25T15:18:02.997Z</time></trkpt><trkpt lat="44.50053" lon="8.399765"><ele>453.0</ele><time>2026-04-25T15:18:03.993Z</time></trkpt><trkpt lat="44.5006167" lon="8.3996467"><ele>453.0</ele><time>2026-04-25T15:18:04.996Z</time></trkpt><trkpt lat="44.5007067" lon="8.39953"><ele>453.0</ele><time>2026-04-25T15:18:05.996Z</time></trkpt><trkpt lat="44.5008" lon="8.3994333"><ele>455.0</ele><time>2026-04-25T15:18:07.001Z</time></trkpt><trkpt lat="44.5008933" lon="8.3993517"><ele>456.99999999999994</ele><time>2026-04-25T15:18:08.002Z</time></trkpt><trkpt lat="44.5009833" lon="8.3992917"><ele>458.99999999999994</ele><time>2026-04-25T15:18:08.995Z</time></trkpt><trkpt lat="44.5010817" lon="8.3992417"><ele>461.0</ele><time>2026-04-25T15:18:10Z</time></trkpt><trkpt lat="44.50118" lon="8.39922"><ele>463.0</ele><time>2026-04-25T15:18:10.997Z</time></trkpt><trkpt lat="44.5012867" lon="8.39918"><ele>463.5</ele><time>2026-04-25T15:18:11.997Z</time></trkpt><trkpt lat="44.5013933" lon="8.39912"><ele>464.0</ele><time>2026-04-25T15:18:12.996Z</time></trkpt><trkpt lat="44.50151" lon="8.3990767"><ele>464.5</ele><time>2026-04-25T15:18:13.994Z</time></trkpt><trkpt lat="44.5016283" lon="8.3990033"><ele>465.0</ele><time>2026-04-25T15:18:14.995Z</time></trkpt><trkpt lat="44.501755" lon="8.39893"><ele>465.0</ele><time>2026-04-25T15:18:15.993Z</time></trkpt><trkpt lat="44.5018767" lon="8.398865"><ele>465.0</ele><time>2026-04-25T15:18:16.997Z</time></trkpt><trkpt lat="44.5019967" lon="8.398775"><ele>465.0</ele><time>2026-04-25T15:18:17.992Z</time></trkpt><trkpt lat="44.5021083" lon="8.3986717"><ele>465.0</ele><time>2026-04-25T15:18:18.994Z</time></trkpt><trkpt lat="44.502215" lon="8.3985517"><ele>464.75</ele><time>2026-04-25T15:18:20Z</time></trkpt><trkpt lat="44.5023167" lon="8.3984183"><ele>464.5</ele><time>2026-04-25T15:18:20.996Z</time></trkpt><trkpt lat="44.5024267" lon="8.39828"><ele>464.25</ele><time>2026-04-25T15:18:21.991Z</time></trkpt><trkpt lat="44.5025433" lon="8.398145"><ele>464.0</ele><time>2026-04-25T15:18:23.003Z</time></trkpt><trkpt lat="44.50267" lon="8.3980183"><ele>464.66666666666663</ele><time>2026-04-25T15:18:23.995Z</time></trkpt><trkpt lat="44.5028" lon="8.3979"><ele>465.33333333333337</ele><time>2026-04-25T15:18:25.001Z</time></trkpt><trkpt lat="44.50294" lon="8.39779"><ele>466.0</ele><time>2026-04-25T15:18:25.993Z</time></trkpt><trkpt lat="44.5030817" lon="8.397685"><ele>467.0</ele><time>2026-04-25T15:18:26.996Z</time></trkpt><trkpt lat="44.5032133" lon="8.3976"><ele>468.0</ele><time>2026-04-25T15:18:27.995Z</time></trkpt><trkpt lat="44.5033367" lon="8.3974917"><ele>469.0</ele><time>2026-04-25T15:18:29.003Z</time></trkpt><trkpt lat="44.5034583" lon="8.3973717"><ele>470.0</ele><time>2026-04-25T15:18:29.992Z</time></trkpt><trkpt lat="44.503565" lon="8.3972417"><ele>468.75</ele><time>2026-04-25T15:18:30.992Z</time></trkpt><trkpt lat="44.50366" lon="8.3970983"><ele>467.5</ele><time>2026-04-25T15:18:31.995Z</time></trkpt><trkpt lat="44.503755" lon="8.3969467"><ele>466.25</ele><time>2026-04-25T15:18:32.993Z</time></trkpt><trkpt lat="44.5038533" lon="8.3968083"><ele>465.0</ele><time>2026-04-25T15:18:33.995Z</time></trkpt><trkpt lat="44.5039517" lon="8.3966717"><ele>465.0</ele><time>2026-04-25T15:18:34.994Z</time></trkpt><trkpt lat="44.5040383" lon="8.3965283"><ele>465.0</ele><time>2026-04-25T15:18:35.994Z</time></trkpt><trkpt lat="44.5041117" lon="8.3963983"><ele>465.0</ele><time>2026-04-25T15:18:36.995Z</time></trkpt><trkpt lat="44.5041817" lon="8.3963033"><ele>465.0</ele><time>2026-04-25T15:18:37.995Z</time></trkpt><trkpt lat="44.5042533" lon="8.3962483"><ele>465.0</ele><time>2026-04-25T15:18:38.996Z</time></trkpt><trkpt lat="44.5043333" lon="8.3962067"><ele>463.0</ele><time>2026-04-25T15:18:39.996Z</time></trkpt><trkpt lat="44.504425" lon="8.3962083"><ele>461.0</ele><time>2026-04-25T15:18:40.993Z</time></trkpt><trkpt lat="44.504515" lon="8.396245"><ele>459.0</ele><time>2026-04-25T15:18:41.993Z</time></trkpt><trkpt lat="44.5046317" lon="8.3963167"><ele>457.0</ele><time>2026-04-25T15:18:42.998Z</time></trkpt><trkpt lat="44.5047467" lon="8.396335"><ele>455.0</ele><time>2026-04-25T15:18:43.998Z</time></trkpt><trkpt lat="44.5048617" lon="8.3962983"><ele>454.75</ele><time>2026-04-25T15:18:44.997Z</time></trkpt><trkpt lat="44.5049733" lon="8.396205"><ele>454.5</ele><time>2026-04-25T15:18:46Z</time></trkpt><trkpt lat="44.5050833" lon="8.396085"><ele>454.25</ele><time>2026-04-25T15:18:46.991Z</time></trkpt><trkpt lat="44.5052" lon="8.3959383"><ele>454.0</ele><time>2026-04-25T15:18:47.998Z</time></trkpt><trkpt lat="44.5053167" lon="8.3957783"><ele>454.0</ele><time>2026-04-25T15:18:48.995Z</time></trkpt><trkpt lat="44.505435" lon="8.3956083"><ele>454.0</ele><time>2026-04-25T15:18:49.997Z</time></trkpt><trkpt lat="44.5055533" lon="8.39544"><ele>454.0</ele><time>2026-04-25T15:18:50.997Z</time></trkpt><trkpt lat="44.505675" lon="8.39527"><ele>452.33333333333337</ele><time>2026-04-25T15:18:51.997Z</time></trkpt><trkpt lat="44.505805" lon="8.395105"><ele>450.66666666666663</ele><time>2026-04-25T15:18:52.996Z</time></trkpt><trkpt lat="44.5059467" lon="8.39495"><ele>449.0</ele><time>2026-04-25T15:18:53.996Z</time></trkpt><trkpt lat="44.5060917" lon="8.39479"><ele>448.0</ele><time>2026-04-25T15:18:55.002Z</time></trkpt><trkpt lat="44.5062383" lon="8.3946267"><ele>447.0</ele><time>2026-04-25T15:18:55.994Z</time></trkpt><trkpt lat="44.50639" lon="8.394465"><ele>446.0</ele><time>2026-04-25T15:18:56.998Z</time></trkpt><trkpt lat="44.5065433" lon="8.3942983"><ele>446.0</ele><time>2026-04-25T15:18:57.995Z</time></trkpt><trkpt lat="44.506695" lon="8.3941283"><ele>446.0</ele><time>2026-04-25T15:18:58.998Z</time></trkpt><trkpt lat="44.506845" lon="8.3939567"><ele>446.0</ele><time>2026-04-25T15:18:59.996Z</time></trkpt><trkpt lat="44.5069867" lon="8.3937933"><ele>447.0</ele><time>2026-04-25T15:19:00.994Z</time></trkpt><trkpt lat="44.5071167" lon="8.3936283"><ele>448.0</ele><time>2026-04-25T15:19:01.995Z</time></trkpt><trkpt lat="44.5072283" lon="8.3934367"><ele>449.0</ele><time>2026-04-25T15:19:02.995Z</time></trkpt><trkpt lat="44.5073317" lon="8.39322"><ele>450.0</ele><time>2026-04-25T15:19:03.997Z</time></trkpt><trkpt lat="44.507435" lon="8.3929867"><ele>451.0</ele><time>2026-04-25T15:19:05Z</time></trkpt><trkpt lat="44.5075367" lon="8.3927567"><ele>452.0</ele><time>2026-04-25T15:19:05.998Z</time></trkpt><trkpt lat="44.5076367" lon="8.3925317"><ele>452.0</ele><time>2026-04-25T15:19:06.997Z</time></trkpt><trkpt lat="44.5077333" lon="8.3923083"><ele>452.0</ele><time>2026-04-25T15:19:07.996Z</time></trkpt><trkpt lat="44.5078267" lon="8.3920967"><ele>452.0</ele><time>2026-04-25T15:19:08.997Z</time></trkpt><trkpt lat="44.5079217" lon="8.3918917"><ele>454.3333333333333</ele><time>2026-04-25T15:19:09.994Z</time></trkpt><trkpt lat="44.5080183" lon="8.3916983"><ele>456.66666666666663</ele><time>2026-04-25T15:19:10.996Z</time></trkpt><trkpt lat="44.5081217" lon="8.3915133"><ele>459.0</ele><time>2026-04-25T15:19:11.995Z</time></trkpt><trkpt lat="44.508235" lon="8.3913417"><ele>461.66666666666663</ele><time>2026-04-25T15:19:13.001Z</time></trkpt><trkpt lat="44.5083633" lon="8.3912017"><ele>464.3333333333333</ele><time>2026-04-25T15:19:13.996Z</time></trkpt><trkpt lat="44.5084983" lon="8.3910733"><ele>467.0</ele><time>2026-04-25T15:19:14.999Z</time></trkpt><trkpt lat="44.5086267" lon="8.3909517"><ele>465.66666666666663</ele><time>2026-04-25T15:19:15.998Z</time></trkpt><trkpt lat="44.508755" lon="8.3908383"><ele>464.33333333333337</ele><time>2026-04-25T15:19:16.993Z</time></trkpt><trkpt lat="44.50888" lon="8.3907117"><ele>463.0</ele><time>2026-04-25T15:19:17.993Z</time></trkpt><trkpt lat="44.509005" lon="8.3905733"><ele>462.0</ele><time>2026-04-25T15:19:18.995Z</time></trkpt><trkpt lat="44.5091017" lon="8.3904517"><ele>460.99999999999994</ele><time>2026-04-25T15:19:19.993Z</time></trkpt><trkpt lat="44.5091717" lon="8.3903383"><ele>459.99999999999994</ele><time>2026-04-25T15:19:20.994Z</time></trkpt><trkpt lat="44.50921" lon="8.3902067"><ele>459.0</ele><time>2026-04-25T15:19:21.995Z</time></trkpt><trkpt lat="44.50922" lon="8.390055"><ele>458.0</ele><time>2026-04-25T15:19:22.996Z</time></trkpt><trkpt lat="44.5092117" lon="8.389885"><ele>458.0</ele><time>2026-04-25T15:19:23.994Z</time></trkpt><trkpt lat="44.5091967" lon="8.3896967"><ele>458.0</ele><time>2026-04-25T15:19:24.995Z</time></trkpt><trkpt lat="44.5091767" lon="8.3895"><ele>458.0</ele><time>2026-04-25T15:19:25.999Z</time></trkpt><trkpt lat="44.5091533" lon="8.3893083"><ele>458.0</ele><time>2026-04-25T15:19:26.998Z</time></trkpt><trkpt lat="44.509125" lon="8.3891217"><ele>456.5</ele><time>2026-04-25T15:19:27.993Z</time></trkpt><trkpt lat="44.5091" lon="8.3889233"><ele>455.0</ele><time>2026-04-25T15:19:28.995Z</time></trkpt><trkpt lat="44.5090783" lon="8.3887383"><ele>453.5</ele><time>2026-04-25T15:19:30.001Z</time></trkpt><trkpt lat="44.509065" lon="8.3885767"><ele>452.0</ele><time>2026-04-25T15:19:30.997Z</time></trkpt><trkpt lat="44.50908" lon="8.3884383"><ele>451.20000000000005</ele><time>2026-04-25T15:19:31.994Z</time></trkpt><trkpt lat="44.50912" lon="8.3883217"><ele>450.40000000000003</ele><time>2026-04-25T15:19:32.994Z</time></trkpt><trkpt lat="44.5091733" lon="8.3882183"><ele>449.59999999999997</ele><time>2026-04-25T15:19:33.996Z</time></trkpt><trkpt lat="44.5092567" lon="8.38816"><ele>448.79999999999995</ele><time>2026-04-25T15:19:34.999Z</time></trkpt><trkpt lat="44.5093367" lon="8.3881"><ele>448.0</ele><time>2026-04-25T15:19:36.004Z</time></trkpt><trkpt lat="44.509425" lon="8.3880733"><ele>446.33333333333337</ele><time>2026-04-25T15:19:36.999Z</time></trkpt><trkpt lat="44.5095833" lon="8.3882783"><ele>444.66666666666663</ele><time>2026-04-25T15:19:37.996Z</time></trkpt><trkpt lat="44.5097233" lon="8.3884083"><ele>443.0</ele><time>2026-04-25T15:19:38.994Z</time></trkpt><trkpt lat="44.5098467" lon="8.3885433"><ele>443.0</ele><time>2026-04-25T15:19:39.995Z</time></trkpt><trkpt lat="44.5099583" lon="8.3886533"><ele>443.0</ele><time>2026-04-25T15:19:40.998Z</time></trkpt><trkpt lat="44.5100667" lon="8.388735"><ele>443.0</ele><time>2026-04-25T15:19:41.997Z</time></trkpt><trkpt lat="44.510175" lon="8.3887933"><ele>443.0</ele><time>2026-04-25T15:19:42.995Z</time></trkpt><trkpt lat="44.5102867" lon="8.3888"><ele>443.0</ele><time>2026-04-25T15:19:43.992Z</time></trkpt><trkpt lat="44.5104" lon="8.38877"><ele>443.0</ele><time>2026-04-25T15:19:44.996Z</time></trkpt><trkpt lat="44.51052" lon="8.3887183"><ele>443.0</ele><time>2026-04-25T15:19:45.995Z</time></trkpt><trkpt lat="44.510645" lon="8.3886583"><ele>443.0</ele><time>2026-04-25T15:19:46.993Z</time></trkpt><trkpt lat="44.510785" lon="8.3886167"><ele>442.25</ele><time>2026-04-25T15:19:47.995Z</time></trkpt><trkpt lat="44.510925" lon="8.388575"><ele>441.5</ele><time>2026-04-25T15:19:49.001Z</time></trkpt><trkpt lat="44.5110733" lon="8.3885217"><ele>440.75</ele><time>2026-04-25T15:19:49.998Z</time></trkpt><trkpt lat="44.5112167" lon="8.3884567"><ele>440.0</ele><time>2026-04-25T15:19:50.995Z</time></trkpt><trkpt lat="44.5113567" lon="8.388355"><ele>440.0</ele><time>2026-04-25T15:19:51.991Z</time></trkpt><trkpt lat="44.5114867" lon="8.3882367"><ele>440.0</ele><time>2026-04-25T15:19:52.993Z</time></trkpt><trkpt lat="44.511605" lon="8.3881017"><ele>440.0</ele><time>2026-04-25T15:19:53.995Z</time></trkpt><trkpt lat="44.511705" lon="8.3879533"><ele>439.75</ele><time>2026-04-25T15:19:54.995Z</time></trkpt><trkpt lat="44.5117983" lon="8.38783"><ele>439.5</ele><time>2026-04-25T15:19:55.994Z</time></trkpt><trkpt lat="44.5118817" lon="8.3877283"><ele>439.25</ele><time>2026-04-25T15:19:56.996Z</time></trkpt><trkpt lat="44.5119717" lon="8.3876433"><ele>439.0</ele><time>2026-04-25T15:19:58.001Z</time></trkpt><trkpt lat="44.51206" lon="8.3875617"><ele>439.4</ele><time>2026-04-25T15:19:59Z</time></trkpt><trkpt lat="44.5121517" lon="8.3874933"><ele>439.79999999999995</ele><time>2026-04-25T15:19:59.996Z</time></trkpt><trkpt lat="44.5122467" lon="8.387455"><ele>440.20000000000005</ele><time>2026-04-25T15:20:00.995Z</time></trkpt><trkpt lat="44.5123533" lon="8.3874233"><ele>440.6</ele><time>2026-04-25T15:20:01.996Z</time></trkpt><trkpt lat="44.5124617" lon="8.3874067"><ele>441.0</ele><time>2026-04-25T15:20:02.998Z</time></trkpt><trkpt lat="44.5125733" lon="8.38738"><ele>441.0</ele><time>2026-04-25T15:20:03.994Z</time></trkpt><trkpt lat="44.5126817" lon="8.38735"><ele>441.0</ele><time>2026-04-25T15:20:04.993Z</time></trkpt><trkpt lat="44.5127867" lon="8.3872983"><ele>441.0</ele><time>2026-04-25T15:20:05.991Z</time></trkpt><trkpt lat="44.51289" lon="8.38723"><ele>441.0</ele><time>2026-04-25T15:20:06.997Z</time></trkpt><trkpt lat="44.5129817" lon="8.3871317"><ele>439.5</ele><time>2026-04-25T15:20:07.993Z</time></trkpt><trkpt lat="44.5130733" lon="8.3870133"><ele>438.0</ele><time>2026-04-25T15:20:08.997Z</time></trkpt><trkpt lat="44.513165" lon="8.3868917"><ele>436.5</ele><time>2026-04-25T15:20:09.993Z</time></trkpt><trkpt lat="44.513255" lon="8.38676"><ele>435.0</ele><time>2026-04-25T15:20:10.992Z</time></trkpt><trkpt lat="44.51335" lon="8.3866317"><ele>435.0</ele><time>2026-04-25T15:20:11.995Z</time></trkpt><trkpt lat="44.51344" lon="8.3865067"><ele>435.0</ele><time>2026-04-25T15:20:12.999Z</time></trkpt><trkpt lat="44.5135283" lon="8.3863817"><ele>435.0</ele><time>2026-04-25T15:20:13.997Z</time></trkpt><trkpt lat="44.5136167" lon="8.3862517"><ele>435.0</ele><time>2026-04-25T15:20:14.994Z</time></trkpt><trkpt lat="44.5137033" lon="8.38612"><ele>434.75</ele><time>2026-04-25T15:20:15.995Z</time></trkpt><trkpt lat="44.5137883" lon="8.3859883"><ele>434.5</ele><time>2026-04-25T15:20:16.993Z</time></trkpt><trkpt lat="44.5138733" lon="8.3858567"><ele>434.25</ele><time>2026-04-25T15:20:17.995Z</time></trkpt><trkpt lat="44.5139617" lon="8.38572"><ele>434.0</ele><time>2026-04-25T15:20:19.002Z</time></trkpt><trkpt lat="44.5140417" lon="8.3855883"><ele>434.5</ele><time>2026-04-25T15:20:19.998Z</time></trkpt><trkpt lat="44.5141267" lon="8.385455"><ele>435.0</ele><time>2026-04-25T15:20:20.997Z</time></trkpt><trkpt lat="44.5142083" lon="8.38532"><ele>435.5</ele><time>2026-04-25T15:20:21.997Z</time></trkpt><trkpt lat="44.5142817" lon="8.3851817"><ele>436.0</ele><time>2026-04-25T15:20:22.995Z</time></trkpt><trkpt lat="44.514365" lon="8.3850367"><ele>436.0</ele><time>2026-04-25T15:20:23.996Z</time></trkpt><trkpt lat="44.514445" lon="8.384895"><ele>436.0</ele><time>2026-04-25T15:20:24.998Z</time></trkpt><trkpt lat="44.514525" lon="8.3847517"><ele>436.0</ele><time>2026-04-25T15:20:25.995Z</time></trkpt><trkpt lat="44.5146017" lon="8.3846033"><ele>436.0</ele><time>2026-04-25T15:20:26.998Z</time></trkpt><trkpt lat="44.5146717" lon="8.3844567"><ele>436.75</ele><time>2026-04-25T15:20:27.997Z</time></trkpt><trkpt lat="44.514735" lon="8.3843"><ele>437.5</ele><time>2026-04-25T15:20:28.993Z</time></trkpt><trkpt lat="44.514795" lon="8.3841433"><ele>438.25</ele><time>2026-04-25T15:20:29.995Z</time></trkpt><trkpt lat="44.5148533" lon="8.3840017"><ele>439.0</ele><time>2026-04-25T15:20:30.999Z</time></trkpt><trkpt lat="44.5149333" lon="8.3838683"><ele>439.25</ele><time>2026-04-25T15:20:32Z</time></trkpt><trkpt lat="44.515025" lon="8.3837483"><ele>439.5</ele><time>2026-04-25T15:20:32.998Z</time></trkpt><trkpt lat="44.5151217" lon="8.38365"><ele>439.75</ele><time>2026-04-25T15:20:33.999Z</time></trkpt><trkpt lat="44.515225" lon="8.383555"><ele>440.0</ele><time>2026-04-25T15:20:34.997Z</time></trkpt><trkpt lat="44.5153333" lon="8.3834583"><ele>442.0</ele><time>2026-04-25T15:20:35.993Z</time></trkpt><trkpt lat="44.5154367" lon="8.3833667"><ele>444.0</ele><time>2026-04-25T15:20:36.993Z</time></trkpt><trkpt lat="44.5155317" lon="8.3833017"><ele>446.0</ele><time>2026-04-25T15:20:37.994Z</time></trkpt><trkpt lat="44.5156267" lon="8.383265"><ele>448.0</ele><time>2026-04-25T15:20:39.001Z</time></trkpt><trkpt lat="44.5157217" lon="8.3832917"><ele>450.0</ele><time>2026-04-25T15:20:39.995Z</time></trkpt><trkpt lat="44.5158117" lon="8.3833533"><ele>450.0</ele><time>2026-04-25T15:20:40.994Z</time></trkpt><trkpt lat="44.5158933" lon="8.3834183"><ele>450.0</ele><time>2026-04-25T15:20:41.999Z</time></trkpt><trkpt lat="44.51597" lon="8.3834683"><ele>450.0</ele><time>2026-04-25T15:20:42.997Z</time></trkpt><trkpt lat="44.51605" lon="8.3835"><ele>450.0</ele><time>2026-04-25T15:20:43.997Z</time></trkpt><trkpt lat="44.5161333" lon="8.38351"><ele>450.0</ele><time>2026-04-25T15:20:44.999Z</time></trkpt><trkpt lat="44.51621" lon="8.38349"><ele>450.0</ele><time>2026-04-25T15:20:45.995Z</time></trkpt><trkpt lat="44.5162783" lon="8.3834317"><ele>451.8333333333333</ele><time>2026-04-25T15:20:46.992Z</time></trkpt><trkpt lat="44.5163467" lon="8.3833783"><ele>453.66666666666663</ele><time>2026-04-25T15:20:47.999Z</time></trkpt><trkpt lat="44.516405" lon="8.3833283"><ele>455.5</ele><time>2026-04-25T15:20:48.998Z</time></trkpt><trkpt lat="44.5164533" lon="8.383265"><ele>457.3333333333333</ele><time>2026-04-25T15:20:49.993Z</time></trkpt><trkpt lat="44.5164767" lon="8.3831633"><ele>459.16666666666663</ele><time>2026-04-25T15:20:51Z</time></trkpt><trkpt lat="44.5164567" lon="8.383025"><ele>461.0</ele><time>2026-04-25T15:20:51.996Z</time></trkpt><trkpt lat="44.51641" lon="8.3828617"><ele>462.25</ele><time>2026-04-25T15:20:52.998Z</time></trkpt><trkpt lat="44.51634" lon="8.382615"><ele>463.5</ele><time>2026-04-25T15:20:53.995Z</time></trkpt><trkpt lat="44.5163067" lon="8.3824517"><ele>464.75</ele><time>2026-04-25T15:20:54.996Z</time></trkpt><trkpt lat="44.516275" lon="8.3822767"><ele>466.0</ele><time>2026-04-25T15:20:55.996Z</time></trkpt><trkpt lat="44.5162983" lon="8.382145"><ele>464.33333333333337</ele><time>2026-04-25T15:20:57Z</time></trkpt><trkpt lat="44.5163217" lon="8.3820133"><ele>462.6666666666667</ele><time>2026-04-25T15:20:57.998Z</time></trkpt><trkpt lat="44.5163683" lon="8.3819117"><ele>461.0</ele><time>2026-04-25T15:20:58.999Z</time></trkpt><trkpt lat="44.5164133" lon="8.38182"><ele>459.33333333333337</ele><time>2026-04-25T15:20:59.998Z</time></trkpt><trkpt lat="44.516465" lon="8.38175"><ele>457.6666666666667</ele><time>2026-04-25T15:21:00.995Z</time></trkpt><trkpt lat="44.5165317" lon="8.381715"><ele>456.0</ele><time>2026-04-25T15:21:01.996Z</time></trkpt><trkpt lat="44.5166" lon="8.38169"><ele>456.0</ele><time>2026-04-25T15:21:03Z</time></trkpt><trkpt lat="44.51667" lon="8.3816867"><ele>456.0</ele><time>2026-04-25T15:21:03.998Z</time></trkpt><trkpt lat="44.516765" lon="8.3817283"><ele>456.0</ele><time>2026-04-25T15:21:05.995Z</time></trkpt><trkpt lat="44.516765" lon="8.381905"><ele>456.0</ele><time>2026-04-25T15:21:07.996Z</time></trkpt><trkpt lat="44.5167667" lon="8.3820083"><ele>456.0</ele><time>2026-04-25T15:21:08.998Z</time></trkpt><trkpt lat="44.5167783" lon="8.3820967"><ele>456.0</ele><time>2026-04-25T15:21:09.994Z</time></trkpt><trkpt lat="44.5167933" lon="8.3821883"><ele>457.6666666666667</ele><time>2026-04-25T15:21:10.992Z</time></trkpt><trkpt lat="44.5168583" lon="8.382275"><ele>459.33333333333337</ele><time>2026-04-25T15:21:12.996Z</time></trkpt><trkpt lat="44.5169483" lon="8.38227"><ele>461.0</ele><time>2026-04-25T15:21:14.995Z</time></trkpt><trkpt lat="44.5170167" lon="8.38225"><ele>462.6666666666667</ele><time>2026-04-25T15:21:15.995Z</time></trkpt><trkpt lat="44.5170967" lon="8.3822533"><ele>464.33333333333337</ele><time>2026-04-25T15:21:17.996Z</time></trkpt><trkpt lat="44.5171767" lon="8.3822233"><ele>466.0</ele><time>2026-04-25T15:21:21.003Z</time></trkpt><trkpt lat="44.5172483" lon="8.3822433"><ele>467.8</ele><time>2026-04-25T15:21:22.999Z</time></trkpt><trkpt lat="44.5173767" lon="8.3822517"><ele>469.6</ele><time>2026-04-25T15:21:24.995Z</time></trkpt><trkpt lat="44.5174683" lon="8.3822567"><ele>471.4</ele><time>2026-04-25T15:21:25.998Z</time></trkpt><trkpt lat="44.5175533" lon="8.38225"><ele>473.2</ele><time>2026-04-25T15:21:27.001Z</time></trkpt><trkpt lat="44.5176917" lon="8.3823"><ele>475.0</ele><time>2026-04-25T15:21:27.995Z</time></trkpt><trkpt lat="44.5177867" lon="8.3822933"><ele>475.00000000000006</ele><time>2026-04-25T15:21:28.994Z</time></trkpt><trkpt lat="44.5178683" lon="8.3822667"><ele>475.0</ele><time>2026-04-25T15:21:29.996Z</time></trkpt><trkpt lat="44.51794" lon="8.382265"><ele>475.0</ele><time>2026-04-25T15:21:30.996Z</time></trkpt><trkpt lat="44.518015" lon="8.38226"><ele>475.0</ele><time>2026-04-25T15:21:31.997Z</time></trkpt><trkpt lat="44.5180817" lon="8.382235"><ele>475.00000000000006</ele><time>2026-04-25T15:21:32.996Z</time></trkpt><trkpt lat="44.518155" lon="8.38221"><ele>475.0</ele><time>2026-04-25T15:21:33.997Z</time></trkpt><trkpt lat="44.5182267" lon="8.38215"><ele>469.2</ele><time>2026-04-25T15:21:35Z</time></trkpt><trkpt lat="44.5183" lon="8.3820917"><ele>463.4</ele><time>2026-04-25T15:21:35.996Z</time></trkpt><trkpt lat="44.5183817" lon="8.3820667"><ele>457.6</ele><time>2026-04-25T15:21:36.995Z</time></trkpt><trkpt lat="44.51846" lon="8.38203"><ele>451.8</ele><time>2026-04-25T15:21:37.995Z</time></trkpt><trkpt lat="44.5185767" lon="8.382015"><ele>446.0</ele><time>2026-04-25T15:21:38.995Z</time></trkpt><trkpt lat="44.5187083" lon="8.38201"><ele>447.0</ele><time>2026-04-25T15:21:39.997Z</time></trkpt><trkpt lat="44.51883" lon="8.3819783"><ele>448.0</ele><time>2026-04-25T15:21:40.998Z</time></trkpt><trkpt lat="44.5189467" lon="8.3819433"><ele>449.0</ele><time>2026-04-25T15:21:41.995Z</time></trkpt><trkpt lat="44.51907" lon="8.3818883"><ele>450.0</ele><time>2026-04-25T15:21:42.994Z</time></trkpt><trkpt lat="44.5191933" lon="8.3818167"><ele>450.0</ele><time>2026-04-25T15:21:43.997Z</time></trkpt><trkpt lat="44.5193067" lon="8.3817333"><ele>450.0</ele><time>2026-04-25T15:21:45Z</time></trkpt><trkpt lat="44.5194217" lon="8.3816483"><ele>450.0</ele><time>2026-04-25T15:21:45.995Z</time></trkpt><trkpt lat="44.5195333" lon="8.3815567"><ele>450.0</ele><time>2026-04-25T15:21:46.995Z</time></trkpt><trkpt lat="44.5196433" lon="8.3814567"><ele>449.0</ele><time>2026-04-25T15:21:47.994Z</time></trkpt><trkpt lat="44.5197567" lon="8.381365"><ele>448.0</ele><time>2026-04-25T15:21:49.003Z</time></trkpt><trkpt lat="44.5198683" lon="8.3812533"><ele>447.0</ele><time>2026-04-25T15:21:49.998Z</time></trkpt><trkpt lat="44.519975" lon="8.3811367"><ele>446.0</ele><time>2026-04-25T15:21:50.998Z</time></trkpt><trkpt lat="44.5200683" lon="8.38102"><ele>444.8333333333333</ele><time>2026-04-25T15:21:51.996Z</time></trkpt><trkpt lat="44.5201533" lon="8.3809133"><ele>443.66666666666663</ele><time>2026-04-25T15:21:52.993Z</time></trkpt><trkpt lat="44.5202117" lon="8.380815"><ele>442.5</ele><time>2026-04-25T15:21:53.998Z</time></trkpt><trkpt lat="44.5202567" lon="8.3807367"><ele>441.33333333333337</ele><time>2026-04-25T15:21:54.997Z</time></trkpt><trkpt lat="44.5203" lon="8.3806533"><ele>440.1666666666667</ele><time>2026-04-25T15:21:55.999Z</time></trkpt><trkpt lat="44.5203483" lon="8.38058"><ele>439.0</ele><time>2026-04-25T15:21:56.997Z</time></trkpt><trkpt lat="44.5203983" lon="8.3805033"><ele>439.4</ele><time>2026-04-25T15:21:57.996Z</time></trkpt><trkpt lat="44.5204483" lon="8.3804167"><ele>439.79999999999995</ele><time>2026-04-25T15:21:58.993Z</time></trkpt><trkpt lat="44.520495" lon="8.3803133"><ele>440.20000000000005</ele><time>2026-04-25T15:21:59.994Z</time></trkpt><trkpt lat="44.52054" lon="8.380185"><ele>440.6</ele><time>2026-04-25T15:22:00.999Z</time></trkpt><trkpt lat="44.5205817" lon="8.3800533"><ele>441.0</ele><time>2026-04-25T15:22:01.998Z</time></trkpt><trkpt lat="44.5206133" lon="8.379915"><ele>441.0</ele><time>2026-04-25T15:22:03Z</time></trkpt><trkpt lat="44.5206317" lon="8.379765"><ele>441.0</ele><time>2026-04-25T15:22:03.998Z</time></trkpt><trkpt lat="44.5206367" lon="8.379595"><ele>441.0</ele><time>2026-04-25T15:22:04.996Z</time></trkpt><trkpt lat="44.5206283" lon="8.3794117"><ele>441.0</ele><time>2026-04-25T15:22:05.993Z</time></trkpt><trkpt lat="44.5206033" lon="8.379235"><ele>443.75</ele><time>2026-04-25T15:22:06.992Z</time></trkpt><trkpt lat="44.5205717" lon="8.3790583"><ele>446.5</ele><time>2026-04-25T15:22:07.995Z</time></trkpt><trkpt lat="44.520535" lon="8.378875"><ele>449.25</ele><time>2026-04-25T15:22:09Z</time></trkpt><trkpt lat="44.5204917" lon="8.3786983"><ele>452.0</ele><time>2026-04-25T15:22:09.997Z</time></trkpt><trkpt lat="44.5204433" lon="8.3785267"><ele>455.5</ele><time>2026-04-25T15:22:10.995Z</time></trkpt><trkpt lat="44.5204" lon="8.3783633"><ele>459.0</ele><time>2026-04-25T15:22:11.996Z</time></trkpt><trkpt lat="44.5203583" lon="8.378205"><ele>462.5</ele><time>2026-04-25T15:22:12.997Z</time></trkpt><trkpt lat="44.5203233" lon="8.37805"><ele>466.0</ele><time>2026-04-25T15:22:13.995Z</time></trkpt><trkpt lat="44.5202967" lon="8.3778917"><ele>456.75</ele><time>2026-04-25T15:22:14.997Z</time></trkpt><trkpt lat="44.5202883" lon="8.377725"><ele>447.5</ele><time>2026-04-25T15:22:15.995Z</time></trkpt><trkpt lat="44.5202983" lon="8.3775583"><ele>438.25</ele><time>2026-04-25T15:22:16.992Z</time></trkpt><trkpt lat="44.5203283" lon="8.3774117"><ele>429.0</ele><time>2026-04-25T15:22:17.994Z</time></trkpt><trkpt lat="44.52039" lon="8.3772783"><ele>428.6</ele><time>2026-04-25T15:22:18.994Z</time></trkpt><trkpt lat="44.5204517" lon="8.37718"><ele>428.2</ele><time>2026-04-25T15:22:19.996Z</time></trkpt><trkpt lat="44.5205467" lon="8.377125"><ele>427.80000000000007</ele><time>2026-04-25T15:22:20.996Z</time></trkpt><trkpt lat="44.52065" lon="8.3771133"><ele>427.40000000000003</ele><time>2026-04-25T15:22:21.998Z</time></trkpt><trkpt lat="44.52078" lon="8.3771"><ele>427.0</ele><time>2026-04-25T15:22:23.001Z</time></trkpt><trkpt lat="44.52092" lon="8.3770633"><ele>427.0</ele><time>2026-04-25T15:22:23.993Z</time></trkpt><trkpt lat="44.521065" lon="8.3770283"><ele>427.0</ele><time>2026-04-25T15:22:25Z</time></trkpt><trkpt lat="44.521205" lon="8.376975"><ele>427.0</ele><time>2026-04-25T15:22:25.998Z</time></trkpt><trkpt lat="44.521345" lon="8.37693"><ele>427.0</ele><time>2026-04-25T15:22:26.992Z</time></trkpt><trkpt lat="44.5214883" lon="8.3768783"><ele>427.0</ele><time>2026-04-25T15:22:28.003Z</time></trkpt><trkpt lat="44.521625" lon="8.37682"><ele>427.0</ele><time>2026-04-25T15:22:28.996Z</time></trkpt><trkpt lat="44.521765" lon="8.3767683"><ele>427.0</ele><time>2026-04-25T15:22:30Z</time></trkpt><trkpt lat="44.5219017" lon="8.3767067"><ele>427.0</ele><time>2026-04-25T15:22:30.999Z</time></trkpt><trkpt lat="44.52203" lon="8.376645"><ele>431.0</ele><time>2026-04-25T15:22:31.994Z</time></trkpt><trkpt lat="44.5221533" lon="8.3765717"><ele>435.0</ele><time>2026-04-25T15:22:33.003Z</time></trkpt><trkpt lat="44.5222683" lon="8.3765183"><ele>439.0</ele><time>2026-04-25T15:22:33.995Z</time></trkpt><trkpt lat="44.5223817" lon="8.3764983"><ele>443.0</ele><time>2026-04-25T15:22:34.993Z</time></trkpt><trkpt lat="44.5224783" lon="8.3764933"><ele>442.99999999999994</ele><time>2026-04-25T15:22:35.996Z</time></trkpt><trkpt lat="44.52257" lon="8.3764833"><ele>443.0</ele><time>2026-04-25T15:22:36.996Z</time></trkpt><trkpt lat="44.5226567" lon="8.3764617"><ele>443.0</ele><time>2026-04-25T15:22:37.997Z</time></trkpt><trkpt lat="44.5227367" lon="8.37642"><ele>443.0</ele><time>2026-04-25T15:22:38.999Z</time></trkpt><trkpt lat="44.5227867" lon="8.37633"><ele>442.99999999999994</ele><time>2026-04-25T15:22:39.995Z</time></trkpt><trkpt lat="44.522815" lon="8.3761967"><ele>443.0</ele><time>2026-04-25T15:22:40.996Z</time></trkpt><trkpt lat="44.5228133" lon="8.3760067"><ele>438.0</ele><time>2026-04-25T15:22:41.997Z</time></trkpt><trkpt lat="44.522755" lon="8.3758"><ele>433.0</ele><time>2026-04-25T15:22:42.995Z</time></trkpt><trkpt lat="44.5226583" lon="8.3755467"><ele>428.0</ele><time>2026-04-25T15:22:43.994Z</time></trkpt><trkpt lat="44.5225967" lon="8.3753533"><ele>427.75</ele><time>2026-04-25T15:22:44.995Z</time></trkpt><trkpt lat="44.522545" lon="8.3751683"><ele>427.5</ele><time>2026-04-25T15:22:45.994Z</time></trkpt><trkpt lat="44.5225217" lon="8.375005"><ele>427.25</ele><time>2026-04-25T15:22:46.994Z</time></trkpt><trkpt lat="44.5225433" lon="8.3748467"><ele>427.0</ele><time>2026-04-25T15:22:47.995Z</time></trkpt><trkpt lat="44.522565" lon="8.374715"><ele>425.0</ele><time>2026-04-25T15:22:49Z</time></trkpt><trkpt lat="44.522615" lon="8.37459"><ele>423.00000000000006</ele><time>2026-04-25T15:22:49.995Z</time></trkpt><trkpt lat="44.522665" lon="8.3744517"><ele>421.0</ele><time>2026-04-25T15:22:50.998Z</time></trkpt><trkpt lat="44.5227017" lon="8.3743133"><ele>419.0</ele><time>2026-04-25T15:22:51.993Z</time></trkpt><trkpt lat="44.522755" lon="8.3741733"><ele>417.0</ele><time>2026-04-25T15:22:52.997Z</time></trkpt><trkpt lat="44.5227917" lon="8.3740333"><ele>417.0</ele><time>2026-04-25T15:22:53.996Z</time></trkpt><trkpt lat="44.5228133" lon="8.3738883"><ele>417.0</ele><time>2026-04-25T15:22:55.002Z</time></trkpt><trkpt lat="44.5228017" lon="8.373735"><ele>417.0</ele><time>2026-04-25T15:22:55.993Z</time></trkpt><trkpt lat="44.52277" lon="8.3735817"><ele>417.0</ele><time>2026-04-25T15:22:57Z</time></trkpt><trkpt lat="44.5227333" lon="8.373415"><ele>416.25</ele><time>2026-04-25T15:22:57.994Z</time></trkpt><trkpt lat="44.5226983" lon="8.3732517"><ele>415.5</ele><time>2026-04-25T15:22:59.001Z</time></trkpt><trkpt lat="44.5226783" lon="8.3730883"><ele>414.75</ele><time>2026-04-25T15:22:59.999Z</time></trkpt><trkpt lat="44.5226717" lon="8.37293"><ele>414.0</ele><time>2026-04-25T15:23:00.996Z</time></trkpt><trkpt lat="44.5226733" lon="8.3727883"><ele>413.6</ele><time>2026-04-25T15:23:02Z</time></trkpt><trkpt lat="44.5226917" lon="8.3726683"><ele>413.2</ele><time>2026-04-25T15:23:02.996Z</time></trkpt><trkpt lat="44.5227317" lon="8.37256"><ele>412.8</ele><time>2026-04-25T15:23:03.997Z</time></trkpt><trkpt lat="44.5227933" lon="8.3724483"><ele>412.40000000000003</ele><time>2026-04-25T15:23:04.997Z</time></trkpt><trkpt lat="44.522845" lon="8.37232"><ele>412.0</ele><time>2026-04-25T15:23:05.996Z</time></trkpt><trkpt lat="44.5228883" lon="8.37217"><ele>416.25</ele><time>2026-04-25T15:23:06.998Z</time></trkpt><trkpt lat="44.5229167" lon="8.3720033"><ele>420.5</ele><time>2026-04-25T15:23:07.994Z</time></trkpt><trkpt lat="44.522935" lon="8.371825"><ele>424.75</ele><time>2026-04-25T15:23:08.996Z</time></trkpt><trkpt lat="44.5229517" lon="8.3716467"><ele>429.0</ele><time>2026-04-25T15:23:09.997Z</time></trkpt><trkpt lat="44.522955" lon="8.3714667"><ele>428.25</ele><time>2026-04-25T15:23:10.995Z</time></trkpt><trkpt lat="44.5229567" lon="8.3712717"><ele>427.5</ele><time>2026-04-25T15:23:11.994Z</time></trkpt><trkpt lat="44.5229317" lon="8.3710867"><ele>426.75</ele><time>2026-04-25T15:23:12.994Z</time></trkpt><trkpt lat="44.5229033" lon="8.3708983"><ele>426.0</ele><time>2026-04-25T15:23:13.994Z</time></trkpt><trkpt lat="44.5229067" lon="8.3706933"><ele>424.0</ele><time>2026-04-25T15:23:14.997Z</time></trkpt><trkpt lat="44.522925" lon="8.3704717"><ele>422.0</ele><time>2026-04-25T15:23:15.994Z</time></trkpt><trkpt lat="44.52294" lon="8.3702583"><ele>420.0</ele><time>2026-04-25T15:23:16.998Z</time></trkpt><trkpt lat="44.52296" lon="8.370025"><ele>420.0</ele><time>2026-04-25T15:23:17.995Z</time></trkpt><trkpt lat="44.5229767" lon="8.3697967"><ele>420.0</ele><time>2026-04-25T15:23:18.999Z</time></trkpt><trkpt lat="44.5229833" lon="8.36957"><ele>420.0</ele><time>2026-04-25T15:23:20Z</time></trkpt><trkpt lat="44.5229683" lon="8.3693367"><ele>420.66666666666663</ele><time>2026-04-25T15:23:20.997Z</time></trkpt><trkpt lat="44.5229367" lon="8.369095"><ele>421.3333333333333</ele><time>2026-04-25T15:23:21.995Z</time></trkpt><trkpt lat="44.52289" lon="8.368865"><ele>422.0</ele><time>2026-04-25T15:23:22.995Z</time></trkpt><trkpt lat="44.52285" lon="8.368655"><ele>415.75</ele><time>2026-04-25T15:23:24Z</time></trkpt><trkpt lat="44.52282" lon="8.3684717"><ele>409.5</ele><time>2026-04-25T15:23:24.998Z</time></trkpt><trkpt lat="44.5228133" lon="8.3683067"><ele>403.25</ele><time>2026-04-25T15:23:25.995Z</time></trkpt><trkpt lat="44.5228317" lon="8.3681533"><ele>397.0</ele><time>2026-04-25T15:23:27.002Z</time></trkpt><trkpt lat="44.5228733" lon="8.3680117"><ele>398.25</ele><time>2026-04-25T15:23:27.997Z</time></trkpt><trkpt lat="44.52293" lon="8.367875"><ele>399.5</ele><time>2026-04-25T15:23:28.995Z</time></trkpt><trkpt lat="44.5230083" lon="8.367745"><ele>400.75</ele><time>2026-04-25T15:23:29.996Z</time></trkpt><trkpt lat="44.523095" lon="8.3676067"><ele>402.0</ele><time>2026-04-25T15:23:30.992Z</time></trkpt><trkpt lat="44.5231683" lon="8.3674583"><ele>402.0</ele><time>2026-04-25T15:23:31.992Z</time></trkpt><trkpt lat="44.5232317" lon="8.3673033"><ele>402.0</ele><time>2026-04-25T15:23:32.995Z</time></trkpt><trkpt lat="44.5232983" lon="8.3671567"><ele>402.0</ele><time>2026-04-25T15:23:33.994Z</time></trkpt><trkpt lat="44.5233733" lon="8.367025"><ele>402.0</ele><time>2026-04-25T15:23:34.997Z</time></trkpt><trkpt lat="44.5234567" lon="8.36691"><ele>399.25</ele><time>2026-04-25T15:23:35.995Z</time></trkpt><trkpt lat="44.5235583" lon="8.3668417"><ele>396.5</ele><time>2026-04-25T15:23:36.993Z</time></trkpt><trkpt lat="44.523675" lon="8.3667933"><ele>393.75</ele><time>2026-04-25T15:23:37.998Z</time></trkpt><trkpt lat="44.5238017" lon="8.3667717"><ele>391.0</ele><time>2026-04-25T15:23:38.997Z</time></trkpt><trkpt lat="44.52394" lon="8.366785"><ele>391.0</ele><time>2026-04-25T15:23:39.995Z</time></trkpt><trkpt lat="44.52407" lon="8.3668033"><ele>391.0</ele><time>2026-04-25T15:23:40.995Z</time></trkpt><trkpt lat="44.52419" lon="8.3668183"><ele>391.0</ele><time>2026-04-25T15:23:41.999Z</time></trkpt><trkpt lat="44.524305" lon="8.366845"><ele>391.0</ele><time>2026-04-25T15:23:42.994Z</time></trkpt><trkpt lat="44.5244217" lon="8.3668733"><ele>391.0</ele><time>2026-04-25T15:23:43.994Z</time></trkpt><trkpt lat="44.5245367" lon="8.366905"><ele>391.0</ele><time>2026-04-25T15:23:45Z</time></trkpt><trkpt lat="44.5246567" lon="8.366935"><ele>391.0</ele><time>2026-04-25T15:23:45.996Z</time></trkpt><trkpt lat="44.52478" lon="8.3669633"><ele>391.0</ele><time>2026-04-25T15:23:46.997Z</time></trkpt><trkpt lat="44.524905" lon="8.3670017"><ele>389.75</ele><time>2026-04-25T15:23:47.995Z</time></trkpt><trkpt lat="44.525025" lon="8.3670583"><ele>388.5</ele><time>2026-04-25T15:23:48.991Z</time></trkpt><trkpt lat="44.5251383" lon="8.36713"><ele>387.25</ele><time>2026-04-25T15:23:49.995Z</time></trkpt><trkpt lat="44.5252467" lon="8.3672033"><ele>386.0</ele><time>2026-04-25T15:23:50.993Z</time></trkpt><trkpt lat="44.5253417" lon="8.3672583"><ele>386.4</ele><time>2026-04-25T15:23:51.995Z</time></trkpt><trkpt lat="44.5254383" lon="8.3672933"><ele>386.8</ele><time>2026-04-25T15:23:52.998Z</time></trkpt><trkpt lat="44.5255267" lon="8.36729"><ele>387.2</ele><time>2026-04-25T15:23:53.996Z</time></trkpt><trkpt lat="44.5256083" lon="8.3672517"><ele>387.59999999999997</ele><time>2026-04-25T15:23:55.003Z</time></trkpt><trkpt lat="44.52566" lon="8.3671517"><ele>388.0</ele><time>2026-04-25T15:23:55.991Z</time></trkpt><trkpt lat="44.525695" lon="8.3670383"><ele>388.4</ele><time>2026-04-25T15:23:56.998Z</time></trkpt><trkpt lat="44.52567" lon="8.36688"><ele>388.79999999999995</ele><time>2026-04-25T15:23:57.995Z</time></trkpt><trkpt lat="44.5256233" lon="8.3667517"><ele>389.2</ele><time>2026-04-25T15:23:58.994Z</time></trkpt><trkpt lat="44.5255533" lon="8.3666333"><ele>389.6</ele><time>2026-04-25T15:23:59.992Z</time></trkpt><trkpt lat="44.525475" lon="8.3665183"><ele>390.0</ele><time>2026-04-25T15:24:01.003Z</time></trkpt><trkpt lat="44.5253983" lon="8.3663867"><ele>390.0</ele><time>2026-04-25T15:24:01.994Z</time></trkpt><trkpt lat="44.5253117" lon="8.3662483"><ele>390.0</ele><time>2026-04-25T15:24:02.998Z</time></trkpt><trkpt lat="44.5252233" lon="8.36611"><ele>390.0</ele><time>2026-04-25T15:24:04Z</time></trkpt><trkpt lat="44.525115" lon="8.3659783"><ele>390.0</ele><time>2026-04-25T15:24:05.002Z</time></trkpt><trkpt lat="44.5249983" lon="8.3658617"><ele>390.0</ele><time>2026-04-25T15:24:05.996Z</time></trkpt><trkpt lat="44.524875" lon="8.36576"><ele>390.0</ele><time>2026-04-25T15:24:06.998Z</time></trkpt><trkpt lat="44.5247383" lon="8.365675"><ele>390.0</ele><time>2026-04-25T15:24:07.992Z</time></trkpt><trkpt lat="44.5246017" lon="8.3655967"><ele>390.0</ele><time>2026-04-25T15:24:08.996Z</time></trkpt><trkpt lat="44.5244783" lon="8.3655267"><ele>388.0</ele><time>2026-04-25T15:24:09.993Z</time></trkpt><trkpt lat="44.5243783" lon="8.3654433"><ele>386.0</ele><time>2026-04-25T15:24:10.995Z</time></trkpt><trkpt lat="44.5243083" lon="8.3653283"><ele>384.0</ele><time>2026-04-25T15:24:11.995Z</time></trkpt><trkpt lat="44.52426" lon="8.36518"><ele>382.0</ele><time>2026-04-25T15:24:12.994Z</time></trkpt><trkpt lat="44.5242267" lon="8.3650167"><ele>382.0</ele><time>2026-04-25T15:24:13.997Z</time></trkpt><trkpt lat="44.52422" lon="8.3648133"><ele>382.0</ele><time>2026-04-25T15:24:14.996Z</time></trkpt><trkpt lat="44.52422" lon="8.3646183"><ele>382.0</ele><time>2026-04-25T15:24:15.996Z</time></trkpt><trkpt lat="44.5242367" lon="8.36445"><ele>382.0</ele><time>2026-04-25T15:24:16.993Z</time></trkpt><trkpt lat="44.524265" lon="8.36429"><ele>382.0</ele><time>2026-04-25T15:24:17.997Z</time></trkpt><trkpt lat="44.524315" lon="8.3641417"><ele>382.0</ele><time>2026-04-25T15:24:18.999Z</time></trkpt><trkpt lat="44.5243933" lon="8.3640383"><ele>382.0</ele><time>2026-04-25T15:24:19.996Z</time></trkpt><trkpt lat="44.524465" lon="8.3639383"><ele>382.0</ele><time>2026-04-25T15:24:20.993Z</time></trkpt><trkpt lat="44.5245167" lon="8.3638333"><ele>382.0</ele><time>2026-04-25T15:24:21.993Z</time></trkpt><trkpt lat="44.52456" lon="8.3637267"><ele>382.0</ele><time>2026-04-25T15:24:22.993Z</time></trkpt><trkpt lat="44.5245467" lon="8.3636"><ele>382.0</ele><time>2026-04-25T15:24:23.996Z</time></trkpt><trkpt lat="44.524495" lon="8.36351"><ele>382.0</ele><time>2026-04-25T15:24:24.996Z</time></trkpt><trkpt lat="44.5244333" lon="8.3634217"><ele>382.0</ele><time>2026-04-25T15:24:25.997Z</time></trkpt><trkpt lat="44.524335" lon="8.3633917"><ele>382.0</ele><time>2026-04-25T15:24:26.992Z</time></trkpt><trkpt lat="44.5242267" lon="8.3633667"><ele>382.0</ele><time>2026-04-25T15:24:28.01Z</time></trkpt><trkpt lat="44.5241417" lon="8.36329"><ele>382.0</ele><time>2026-04-25T15:24:29.002Z</time></trkpt><trkpt lat="44.5240567" lon="8.3631917"><ele>382.0</ele><time>2026-04-25T15:24:29.993Z</time></trkpt><trkpt lat="44.5239783" lon="8.3630683"><ele>382.0</ele><time>2026-04-25T15:24:31.005Z</time></trkpt><trkpt lat="44.5239167" lon="8.3629233"><ele>382.0</ele><time>2026-04-25T15:24:31.992Z</time></trkpt><trkpt lat="44.5238567" lon="8.3627533"><ele>381.5</ele><time>2026-04-25T15:24:32.995Z</time></trkpt><trkpt lat="44.5238133" lon="8.3625533"><ele>381.0</ele><time>2026-04-25T15:24:33.996Z</time></trkpt><trkpt lat="44.52376" lon="8.3623583"><ele>380.5</ele><time>2026-04-25T15:24:34.992Z</time></trkpt><trkpt lat="44.5237083" lon="8.3621683"><ele>380.0</ele><time>2026-04-25T15:24:35.993Z</time></trkpt><trkpt lat="44.5236467" lon="8.3619833"><ele>380.0</ele><time>2026-04-25T15:24:36.999Z</time></trkpt><trkpt lat="44.523585" lon="8.3617933"><ele>380.0</ele><time>2026-04-25T15:24:37.994Z</time></trkpt><trkpt lat="44.5235267" lon="8.3615967"><ele>380.0</ele><time>2026-04-25T15:24:39Z</time></trkpt><trkpt lat="44.5234667" lon="8.3613933"><ele>381.0</ele><time>2026-04-25T15:24:39.995Z</time></trkpt><trkpt lat="44.5234083" lon="8.361185"><ele>382.0</ele><time>2026-04-25T15:24:41Z</time></trkpt><trkpt lat="44.523345" lon="8.3609883"><ele>383.0</ele><time>2026-04-25T15:24:41.999Z</time></trkpt><trkpt lat="44.5232767" lon="8.3607767"><ele>383.0</ele><time>2026-04-25T15:24:42.998Z</time></trkpt><trkpt lat="44.5232" lon="8.36056"><ele>383.0</ele><time>2026-04-25T15:24:44.001Z</time></trkpt><trkpt lat="44.5231067" lon="8.360375"><ele>383.0</ele><time>2026-04-25T15:24:45Z</time></trkpt><trkpt lat="44.5229933" lon="8.3602033"><ele>380.0</ele><time>2026-04-25T15:24:45.998Z</time></trkpt><trkpt lat="44.5228817" lon="8.3600317"><ele>377.0</ele><time>2026-04-25T15:24:46.996Z</time></trkpt><trkpt lat="44.5227933" lon="8.35984"><ele>374.0</ele><time>2026-04-25T15:24:47.993Z</time></trkpt><trkpt lat="44.5227083" lon="8.3596633"><ele>374.0</ele><time>2026-04-25T15:24:48.995Z</time></trkpt><trkpt lat="44.5226283" lon="8.3594817"><ele>374.0</ele><time>2026-04-25T15:24:50Z</time></trkpt><trkpt lat="44.5225567" lon="8.3592867"><ele>374.0</ele><time>2026-04-25T15:24:50.999Z</time></trkpt><trkpt lat="44.5224833" lon="8.359085"><ele>375.33333333333337</ele><time>2026-04-25T15:24:51.994Z</time></trkpt><trkpt lat="44.5224167" lon="8.3588617"><ele>376.6666666666667</ele><time>2026-04-25T15:24:53.005Z</time></trkpt><trkpt lat="44.5223467" lon="8.358635"><ele>378.0</ele><time>2026-04-25T15:24:54.003Z</time></trkpt><trkpt lat="44.5222867" lon="8.3583683"><ele>378.0</ele><time>2026-04-25T15:24:54.996Z</time></trkpt><trkpt lat="44.5222183" lon="8.3581067"><ele>378.0</ele><time>2026-04-25T15:24:55.998Z</time></trkpt><trkpt lat="44.52215" lon="8.3578483"><ele>378.0</ele><time>2026-04-25T15:24:56.996Z</time></trkpt><trkpt lat="44.5220783" lon="8.3576117"><ele>375.0</ele><time>2026-04-25T15:24:57.993Z</time></trkpt><trkpt lat="44.52201" lon="8.3573883"><ele>372.0</ele><time>2026-04-25T15:24:58.997Z</time></trkpt><trkpt lat="44.5219283" lon="8.3571967"><ele>369.0</ele><time>2026-04-25T15:24:59.993Z</time></trkpt><trkpt lat="44.5218283" lon="8.357015"><ele>369.0</ele><time>2026-04-25T15:25:00.995Z</time></trkpt><trkpt lat="44.5217133" lon="8.356845"><ele>369.0</ele><time>2026-04-25T15:25:01.999Z</time></trkpt><trkpt lat="44.5215983" lon="8.3566767"><ele>369.0</ele><time>2026-04-25T15:25:02.994Z</time></trkpt><trkpt lat="44.521485" lon="8.35651"><ele>364.6666666666667</ele><time>2026-04-25T15:25:03.996Z</time></trkpt><trkpt lat="44.5213717" lon="8.3563517"><ele>360.33333333333337</ele><time>2026-04-25T15:25:04.995Z</time></trkpt><trkpt lat="44.5212633" lon="8.3561733"><ele>356.0</ele><time>2026-04-25T15:25:05.997Z</time></trkpt><trkpt lat="44.5211583" lon="8.3559917"><ele>356.0</ele><time>2026-04-25T15:25:06.995Z</time></trkpt><trkpt lat="44.521055" lon="8.3558233"><ele>356.0</ele><time>2026-04-25T15:25:07.997Z</time></trkpt><trkpt lat="44.52095" lon="8.3556617"><ele>356.0</ele><time>2026-04-25T15:25:08.999Z</time></trkpt><trkpt lat="44.52084" lon="8.3555017"><ele>359.33333333333337</ele><time>2026-04-25T15:25:09.993Z</time></trkpt><trkpt lat="44.520725" lon="8.3553567"><ele>362.6666666666667</ele><time>2026-04-25T15:25:10.994Z</time></trkpt><trkpt lat="44.5206183" lon="8.355205"><ele>366.0</ele><time>2026-04-25T15:25:12.001Z</time></trkpt><trkpt lat="44.5205233" lon="8.355045"><ele>366.0</ele><time>2026-04-25T15:25:12.996Z</time></trkpt><trkpt lat="44.5204333" lon="8.3548667"><ele>366.0</ele><time>2026-04-25T15:25:13.996Z</time></trkpt><trkpt lat="44.520355" lon="8.3546617"><ele>366.0</ele><time>2026-04-25T15:25:14.999Z</time></trkpt><trkpt lat="44.5202717" lon="8.3544717"><ele>362.25</ele><time>2026-04-25T15:25:15.995Z</time></trkpt><trkpt lat="44.5201833" lon="8.3542767"><ele>358.5</ele><time>2026-04-25T15:25:16.997Z</time></trkpt><trkpt lat="44.520105" lon="8.3541"><ele>354.75</ele><time>2026-04-25T15:25:18Z</time></trkpt><trkpt lat="44.5200433" lon="8.3539517"><ele>351.0</ele><time>2026-04-25T15:25:18.995Z</time></trkpt><trkpt lat="44.52" lon="8.3538283"><ele>350.3333333333333</ele><time>2026-04-25T15:25:19.996Z</time></trkpt><trkpt lat="44.51997" lon="8.3537067"><ele>349.6666666666667</ele><time>2026-04-25T15:25:20.997Z</time></trkpt><trkpt lat="44.5199517" lon="8.353585"><ele>349.0</ele><time>2026-04-25T15:25:21.995Z</time></trkpt><trkpt lat="44.519935" lon="8.3534883"><ele>348.33333333333337</ele><time>2026-04-25T15:25:22.996Z</time></trkpt><trkpt lat="44.5199467" lon="8.3533917"><ele>347.6666666666667</ele><time>2026-04-25T15:25:23.995Z</time></trkpt><trkpt lat="44.519995" lon="8.3532867"><ele>347.0</ele><time>2026-04-25T15:25:24.996Z</time></trkpt><trkpt lat="44.520015" lon="8.353145"><ele>345.25</ele><time>2026-04-25T15:25:25.997Z</time></trkpt><trkpt lat="44.520055" lon="8.3529617"><ele>343.5</ele><time>2026-04-25T15:25:26.996Z</time></trkpt><trkpt lat="44.5200733" lon="8.3528067"><ele>341.75</ele><time>2026-04-25T15:25:27.994Z</time></trkpt><trkpt lat="44.5201033" lon="8.3526533"><ele>340.0</ele><time>2026-04-25T15:25:28.996Z</time></trkpt><trkpt lat="44.52015" lon="8.352515"><ele>340.0</ele><time>2026-04-25T15:25:29.997Z</time></trkpt><trkpt lat="44.520215" lon="8.352395"><ele>340.0</ele><time>2026-04-25T15:25:30.992Z</time></trkpt><trkpt lat="44.5203017" lon="8.3522917"><ele>340.0</ele><time>2026-04-25T15:25:31.998Z</time></trkpt><trkpt lat="44.520405" lon="8.3522067"><ele>340.0</ele><time>2026-04-25T15:25:32.995Z</time></trkpt><trkpt lat="44.52051" lon="8.3521283"><ele>339.75</ele><time>2026-04-25T15:25:33.994Z</time></trkpt><trkpt lat="44.52062" lon="8.3520567"><ele>339.5</ele><time>2026-04-25T15:25:34.999Z</time></trkpt><trkpt lat="44.5207333" lon="8.35202"><ele>339.25</ele><time>2026-04-25T15:25:35.993Z</time></trkpt><trkpt lat="44.5208483" lon="8.3520167"><ele>339.0</ele><time>2026-04-25T15:25:36.993Z</time></trkpt><trkpt lat="44.520965" lon="8.352065"><ele>339.0</ele><time>2026-04-25T15:25:38.004Z</time></trkpt><trkpt lat="44.5210933" lon="8.3521583"><ele>339.0</ele><time>2026-04-25T15:25:38.996Z</time></trkpt><trkpt lat="44.521225" lon="8.3522683"><ele>339.0</ele><time>2026-04-25T15:25:39.995Z</time></trkpt><trkpt lat="44.521345" lon="8.35238"><ele>339.0</ele><time>2026-04-25T15:25:40.996Z</time></trkpt><trkpt lat="44.52145" lon="8.35249"><ele>339.75</ele><time>2026-04-25T15:25:41.994Z</time></trkpt><trkpt lat="44.5215483" lon="8.3525783"><ele>340.5</ele><time>2026-04-25T15:25:42.994Z</time></trkpt><trkpt lat="44.5216533" lon="8.3526317"><ele>341.25</ele><time>2026-04-25T15:25:43.994Z</time></trkpt><trkpt lat="44.5217817" lon="8.3526683"><ele>342.0</ele><time>2026-04-25T15:25:44.997Z</time></trkpt><trkpt lat="44.52191" lon="8.35269"><ele>342.0</ele><time>2026-04-25T15:25:45.992Z</time></trkpt><trkpt lat="44.5220517" lon="8.3527033"><ele>342.0</ele><time>2026-04-25T15:25:46.99Z</time></trkpt><trkpt lat="44.52219" lon="8.3527167"><ele>342.0</ele><time>2026-04-25T15:25:47.993Z</time></trkpt><trkpt lat="44.522335" lon="8.3527317"><ele>342.0</ele><time>2026-04-25T15:25:48.997Z</time></trkpt><trkpt lat="44.522475" lon="8.3527467"><ele>340.0</ele><time>2026-04-25T15:25:49.994Z</time></trkpt><trkpt lat="44.5226033" lon="8.3527917"><ele>338.0</ele><time>2026-04-25T15:25:50.995Z</time></trkpt><trkpt lat="44.5227217" lon="8.35286"><ele>336.0</ele><time>2026-04-25T15:25:51.993Z</time></trkpt><trkpt lat="44.52282" lon="8.3529433"><ele>334.0</ele><time>2026-04-25T15:25:52.996Z</time></trkpt><trkpt lat="44.522905" lon="8.3530333"><ele>334.75</ele><time>2026-04-25T15:25:53.992Z</time></trkpt><trkpt lat="44.5230033" lon="8.3530717"><ele>335.5</ele><time>2026-04-25T15:25:54.997Z</time></trkpt><trkpt lat="44.5231167" lon="8.353075"><ele>336.25</ele><time>2026-04-25T15:25:55.996Z</time></trkpt><trkpt lat="44.5232383" lon="8.3530383"><ele>337.0</ele><time>2026-04-25T15:25:57.005Z</time></trkpt><trkpt lat="44.5233683" lon="8.3529833"><ele>333.75</ele><time>2026-04-25T15:25:57.998Z</time></trkpt><trkpt lat="44.5235" lon="8.3529167"><ele>330.5</ele><time>2026-04-25T15:25:58.998Z</time></trkpt><trkpt lat="44.523635" lon="8.35285"><ele>327.25</ele><time>2026-04-25T15:25:59.995Z</time></trkpt><trkpt lat="44.52377" lon="8.35278"><ele>324.0</ele><time>2026-04-25T15:26:00.999Z</time></trkpt><trkpt lat="44.5239" lon="8.352715"><ele>324.0</ele><time>2026-04-25T15:26:01.997Z</time></trkpt><trkpt lat="44.5240383" lon="8.3526583"><ele>324.0</ele><time>2026-04-25T15:26:02.995Z</time></trkpt><trkpt lat="44.5241817" lon="8.3525967"><ele>324.0</ele><time>2026-04-25T15:26:03.995Z</time></trkpt><trkpt lat="44.5243167" lon="8.3525267"><ele>324.0</ele><time>2026-04-25T15:26:04.998Z</time></trkpt><trkpt lat="44.5244517" lon="8.3524417"><ele>324.0</ele><time>2026-04-25T15:26:05.994Z</time></trkpt><trkpt lat="44.5245817" lon="8.35233"><ele>324.0</ele><time>2026-04-25T15:26:06.997Z</time></trkpt><trkpt lat="44.5246933" lon="8.3521833"><ele>324.0</ele><time>2026-04-25T15:26:07.995Z</time></trkpt><trkpt lat="44.5247883" lon="8.3520183"><ele>324.0</ele><time>2026-04-25T15:26:08.995Z</time></trkpt><trkpt lat="44.52487" lon="8.351835"><ele>324.0</ele><time>2026-04-25T15:26:09.994Z</time></trkpt><trkpt lat="44.52494" lon="8.3516467"><ele>324.0</ele><time>2026-04-25T15:26:10.993Z</time></trkpt><trkpt lat="44.5249967" lon="8.3514567"><ele>322.5</ele><time>2026-04-25T15:26:11.997Z</time></trkpt><trkpt lat="44.5250433" lon="8.35127"><ele>321.0</ele><time>2026-04-25T15:26:12.999Z</time></trkpt><trkpt lat="44.5250783" lon="8.3510767"><ele>319.5</ele><time>2026-04-25T15:26:13.994Z</time></trkpt><trkpt lat="44.525115" lon="8.3508933"><ele>318.0</ele><time>2026-04-25T15:26:15Z</time></trkpt><trkpt lat="44.5251483" lon="8.3507167"><ele>318.0</ele><time>2026-04-25T15:26:16Z</time></trkpt><trkpt lat="44.52518" lon="8.3505417"><ele>318.0</ele><time>2026-04-25T15:26:17Z</time></trkpt><trkpt lat="44.5252133" lon="8.3503633"><ele>318.0</ele><time>2026-04-25T15:26:17.993Z</time></trkpt><trkpt lat="44.5252517" lon="8.350175"><ele>318.0</ele><time>2026-04-25T15:26:18.999Z</time></trkpt><trkpt lat="44.5252933" lon="8.3499783"><ele>317.0</ele><time>2026-04-25T15:26:19.995Z</time></trkpt><trkpt lat="44.5253333" lon="8.34977"><ele>316.0</ele><time>2026-04-25T15:26:20.997Z</time></trkpt><trkpt lat="44.525375" lon="8.349555"><ele>315.0</ele><time>2026-04-25T15:26:21.994Z</time></trkpt><trkpt lat="44.52542" lon="8.3493467"><ele>315.0</ele><time>2026-04-25T15:26:22.998Z</time></trkpt><trkpt lat="44.52546" lon="8.3491517"><ele>315.0</ele><time>2026-04-25T15:26:23.996Z</time></trkpt><trkpt lat="44.5255033" lon="8.3489783"><ele>315.0</ele><time>2026-04-25T15:26:24.998Z</time></trkpt><trkpt lat="44.525545" lon="8.348835"><ele>315.0</ele><time>2026-04-25T15:26:25.998Z</time></trkpt><trkpt lat="44.5255967" lon="8.3487117"><ele>312.4</ele><time>2026-04-25T15:26:26.996Z</time></trkpt><trkpt lat="44.5256467" lon="8.3486117"><ele>309.8</ele><time>2026-04-25T15:26:27.999Z</time></trkpt><trkpt lat="44.5257083" lon="8.348545"><ele>307.2</ele><time>2026-04-25T15:26:28.996Z</time></trkpt><trkpt lat="44.5258217" lon="8.3486117"><ele>304.6</ele><time>2026-04-25T15:26:29.997Z</time></trkpt><trkpt lat="44.525915" lon="8.348655"><ele>302.0</ele><time>2026-04-25T15:26:30.999Z</time></trkpt><trkpt lat="44.5260067" lon="8.3487583"><ele>302.0</ele><time>2026-04-25T15:26:31.993Z</time></trkpt><trkpt lat="44.5261133" lon="8.3488583"><ele>302.0</ele><time>2026-04-25T15:26:33Z</time></trkpt><trkpt lat="44.5262083" lon="8.3489717"><ele>302.0</ele><time>2026-04-25T15:26:33.996Z</time></trkpt><trkpt lat="44.5262983" lon="8.3490933"><ele>302.0</ele><time>2026-04-25T15:26:34.998Z</time></trkpt><trkpt lat="44.526365" lon="8.3492667"><ele>302.75</ele><time>2026-04-25T15:26:35.995Z</time></trkpt><trkpt lat="44.526425" lon="8.34943"><ele>303.5</ele><time>2026-04-25T15:26:36.997Z</time></trkpt><trkpt lat="44.5264983" lon="8.349565"><ele>304.25</ele><time>2026-04-25T15:26:38Z</time></trkpt><trkpt lat="44.5265883" lon="8.3496917"><ele>305.0</ele><time>2026-04-25T15:26:38.997Z</time></trkpt><trkpt lat="44.5267" lon="8.3498383"><ele>304.0</ele><time>2026-04-25T15:26:39.997Z</time></trkpt><trkpt lat="44.5268267" lon="8.3499317"><ele>303.0</ele><time>2026-04-25T15:26:41Z</time></trkpt><trkpt lat="44.526955" lon="8.35007"><ele>302.0</ele><time>2026-04-25T15:26:41.999Z</time></trkpt><trkpt lat="44.52709" lon="8.3502"><ele>302.0</ele><time>2026-04-25T15:26:42.996Z</time></trkpt><trkpt lat="44.5272183" lon="8.35031"><ele>302.0</ele><time>2026-04-25T15:26:43.996Z</time></trkpt><trkpt lat="44.527365" lon="8.3504267"><ele>302.0</ele><time>2026-04-25T15:26:44.997Z</time></trkpt><trkpt lat="44.5275217" lon="8.3505167"><ele>302.6666666666667</ele><time>2026-04-25T15:26:45.998Z</time></trkpt><trkpt lat="44.5276733" lon="8.3506067"><ele>303.3333333333333</ele><time>2026-04-25T15:26:46.995Z</time></trkpt><trkpt lat="44.5278217" lon="8.3506933"><ele>304.0</ele><time>2026-04-25T15:26:47.996Z</time></trkpt><trkpt lat="44.5279733" lon="8.35078"><ele>304.0</ele><time>2026-04-25T15:26:48.995Z</time></trkpt><trkpt lat="44.52813" lon="8.3508933"><ele>304.0</ele><time>2026-04-25T15:26:49.995Z</time></trkpt><trkpt lat="44.5282783" lon="8.3509767"><ele>304.0</ele><time>2026-04-25T15:26:50.996Z</time></trkpt><trkpt lat="44.5284233" lon="8.3510533"><ele>304.0</ele><time>2026-04-25T15:26:51.995Z</time></trkpt><trkpt lat="44.528565" lon="8.3511317"><ele>304.0</ele><time>2026-04-25T15:26:52.999Z</time></trkpt><trkpt lat="44.5287117" lon="8.3511967"><ele>304.0</ele><time>2026-04-25T15:26:53.996Z</time></trkpt><trkpt lat="44.5288667" lon="8.35124"><ele>305.0</ele><time>2026-04-25T15:26:54.998Z</time></trkpt><trkpt lat="44.5290283" lon="8.3512683"><ele>306.0</ele><time>2026-04-25T15:26:55.993Z</time></trkpt><trkpt lat="44.52919" lon="8.3513017"><ele>307.0</ele><time>2026-04-25T15:26:56.995Z</time></trkpt><trkpt lat="44.5293567" lon="8.3513317"><ele>308.66666666666663</ele><time>2026-04-25T15:26:57.992Z</time></trkpt><trkpt lat="44.5295183" lon="8.3513883"><ele>310.3333333333333</ele><time>2026-04-25T15:26:58.999Z</time></trkpt><trkpt lat="44.5296833" lon="8.3514517"><ele>312.0</ele><time>2026-04-25T15:26:59.996Z</time></trkpt><trkpt lat="44.52984" lon="8.35151"><ele>312.5</ele><time>2026-04-25T15:27:00.998Z</time></trkpt><trkpt lat="44.52998" lon="8.3515367"><ele>313.0</ele><time>2026-04-25T15:27:01.992Z</time></trkpt><trkpt lat="44.5301183" lon="8.351515"><ele>313.5</ele><time>2026-04-25T15:27:03.002Z</time></trkpt><trkpt lat="44.530255" lon="8.351455"><ele>314.0</ele><time>2026-04-25T15:27:03.997Z</time></trkpt><trkpt lat="44.5303883" lon="8.3513683"><ele>315.6666666666667</ele><time>2026-04-25T15:27:05.003Z</time></trkpt><trkpt lat="44.5305217" lon="8.3512683"><ele>317.3333333333333</ele><time>2026-04-25T15:27:05.995Z</time></trkpt><trkpt lat="44.5306617" lon="8.3511683"><ele>319.0</ele><time>2026-04-25T15:27:06.995Z</time></trkpt><trkpt lat="44.5308067" lon="8.3510767"><ele>319.0</ele><time>2026-04-25T15:27:07.995Z</time></trkpt><trkpt lat="44.5309533" lon="8.3509983"><ele>319.0</ele><time>2026-04-25T15:27:08.999Z</time></trkpt><trkpt lat="44.5311067" lon="8.3509433"><ele>319.0</ele><time>2026-04-25T15:27:09.996Z</time></trkpt><trkpt lat="44.53126" lon="8.3509"><ele>320.3333333333333</ele><time>2026-04-25T15:27:10.995Z</time></trkpt><trkpt lat="44.5314167" lon="8.3508567"><ele>321.6666666666667</ele><time>2026-04-25T15:27:12.002Z</time></trkpt><trkpt lat="44.5315817" lon="8.3508217"><ele>323.0</ele><time>2026-04-25T15:27:12.999Z</time></trkpt><trkpt lat="44.5317567" lon="8.3507767"><ele>323.0</ele><time>2026-04-25T15:27:13.996Z</time></trkpt><trkpt lat="44.5319433" lon="8.3507317"><ele>323.0</ele><time>2026-04-25T15:27:15Z</time></trkpt><trkpt lat="44.532145" lon="8.3506883"><ele>323.0</ele><time>2026-04-25T15:27:15.994Z</time></trkpt><trkpt lat="44.5323417" lon="8.350645"><ele>323.33333333333337</ele><time>2026-04-25T15:27:16.994Z</time></trkpt><trkpt lat="44.5325317" lon="8.3506033"><ele>323.6666666666667</ele><time>2026-04-25T15:27:17.992Z</time></trkpt><trkpt lat="44.5327217" lon="8.3505633"><ele>324.0</ele><time>2026-04-25T15:27:18.998Z</time></trkpt><trkpt lat="44.53291" lon="8.35051"><ele>327.0</ele><time>2026-04-25T15:27:19.995Z</time></trkpt><trkpt lat="44.5330933" lon="8.3504733"><ele>330.0</ele><time>2026-04-25T15:27:21Z</time></trkpt><trkpt lat="44.5332767" lon="8.350445"><ele>333.0</ele><time>2026-04-25T15:27:21.994Z</time></trkpt><trkpt lat="44.5334533" lon="8.3504433"><ele>333.0</ele><time>2026-04-25T15:27:22.999Z</time></trkpt><trkpt lat="44.53363" lon="8.3504533"><ele>333.0</ele><time>2026-04-25T15:27:23.997Z</time></trkpt><trkpt lat="44.533795" lon="8.350475"><ele>333.0</ele><time>2026-04-25T15:27:25.001Z</time></trkpt><trkpt lat="44.5339483" lon="8.3505017"><ele>334.5</ele><time>2026-04-25T15:27:25.992Z</time></trkpt><trkpt lat="44.5340867" lon="8.3505217"><ele>336.0</ele><time>2026-04-25T15:27:27Z</time></trkpt><trkpt lat="44.5342083" lon="8.35053"><ele>337.5</ele><time>2026-04-25T15:27:27.994Z</time></trkpt><trkpt lat="44.53432" lon="8.3505117"><ele>339.0</ele><time>2026-04-25T15:27:28.993Z</time></trkpt><trkpt lat="44.5344233" lon="8.3504667"><ele>339.0</ele><time>2026-04-25T15:27:29.992Z</time></trkpt><trkpt lat="44.5345117" lon="8.3503833"><ele>339.0</ele><time>2026-04-25T15:27:31.001Z</time></trkpt><trkpt lat="44.5345883" lon="8.3502667"><ele>339.0</ele><time>2026-04-25T15:27:31.995Z</time></trkpt><trkpt lat="44.5346517" lon="8.3501217"><ele>339.0</ele><time>2026-04-25T15:27:32.995Z</time></trkpt><trkpt lat="44.5347067" lon="8.3499683"><ele>339.2</ele><time>2026-04-25T15:27:33.997Z</time></trkpt><trkpt lat="44.5347517" lon="8.3498117"><ele>339.4</ele><time>2026-04-25T15:27:34.997Z</time></trkpt><trkpt lat="44.5347833" lon="8.3496833"><ele>339.6</ele><time>2026-04-25T15:27:35.996Z</time></trkpt><trkpt lat="44.534815" lon="8.349585"><ele>339.8</ele><time>2026-04-25T15:27:36.996Z</time></trkpt><trkpt lat="44.5348533" lon="8.3495083"><ele>340.0</ele><time>2026-04-25T15:27:38.003Z</time></trkpt><trkpt lat="44.534935" lon="8.3494267"><ele>340.0</ele><time>2026-04-25T15:27:39.999Z</time></trkpt><trkpt lat="44.53505" lon="8.3494283"><ele>340.0</ele><time>2026-04-25T15:27:41.997Z</time></trkpt><trkpt lat="44.5351317" lon="8.3494833"><ele>340.0</ele><time>2026-04-25T15:27:42.997Z</time></trkpt><trkpt lat="44.5352183" lon="8.3496017"><ele>340.0</ele><time>2026-04-25T15:27:43.997Z</time></trkpt><trkpt lat="44.5352817" lon="8.3497033"><ele>340.0</ele><time>2026-04-25T15:27:44.996Z</time></trkpt><trkpt lat="44.5353283" lon="8.3498067"><ele>338.6</ele><time>2026-04-25T15:27:45.999Z</time></trkpt><trkpt lat="44.5353483" lon="8.3499433"><ele>337.2</ele><time>2026-04-25T15:27:46.996Z</time></trkpt><trkpt lat="44.5353583" lon="8.3501067"><ele>335.79999999999995</ele><time>2026-04-25T15:27:48.004Z</time></trkpt><trkpt lat="44.5353917" lon="8.35023"><ele>334.4</ele><time>2026-04-25T15:27:48.997Z</time></trkpt><trkpt lat="44.5354517" lon="8.3503467"><ele>333.0</ele><time>2026-04-25T15:27:49.994Z</time></trkpt><trkpt lat="44.53554" lon="8.350435"><ele>335.79999999999995</ele><time>2026-04-25T15:27:50.997Z</time></trkpt><trkpt lat="44.5356433" lon="8.3504817"><ele>338.6</ele><time>2026-04-25T15:27:51.995Z</time></trkpt><trkpt lat="44.535755" lon="8.3504933"><ele>341.4</ele><time>2026-04-25T15:27:53Z</time></trkpt><trkpt lat="44.5358683" lon="8.3504783"><ele>344.20000000000005</ele><time>2026-04-25T15:27:53.999Z</time></trkpt><trkpt lat="44.5359817" lon="8.3504583"><ele>347.0</ele><time>2026-04-25T15:27:54.997Z</time></trkpt><trkpt lat="44.5360983" lon="8.3504367"><ele>347.0</ele><time>2026-04-25T15:27:55.996Z</time></trkpt><trkpt lat="44.5362167" lon="8.3504267"><ele>347.0</ele><time>2026-04-25T15:27:56.997Z</time></trkpt><trkpt lat="44.5363233" lon="8.3504383"><ele>347.0</ele><time>2026-04-25T15:27:57.995Z</time></trkpt><trkpt lat="44.5364217" lon="8.3504433"><ele>347.0</ele><time>2026-04-25T15:27:58.992Z</time></trkpt><trkpt lat="44.53651" lon="8.35043"><ele>347.0</ele><time>2026-04-25T15:27:59.994Z</time></trkpt><trkpt lat="44.53659" lon="8.3504033"><ele>347.0</ele><time>2026-04-25T15:28:01.002Z</time></trkpt><trkpt lat="44.5366217" lon="8.350255"><ele>347.0</ele><time>2026-04-25T15:28:02.997Z</time></trkpt><trkpt lat="44.5365283" lon="8.3501333"><ele>347.0</ele><time>2026-04-25T15:28:04.995Z</time></trkpt><trkpt lat="44.53645" lon="8.3500933"><ele>347.0</ele><time>2026-04-25T15:28:05.996Z</time></trkpt><trkpt lat="44.5363333" lon="8.35009"><ele>347.0</ele><time>2026-04-25T15:28:06.997Z</time></trkpt><trkpt lat="44.536215" lon="8.350105"><ele>347.0</ele><time>2026-04-25T15:28:07.999Z</time></trkpt><trkpt lat="44.5361033" lon="8.3501183"><ele>347.0</ele><time>2026-04-25T15:28:08.997Z</time></trkpt><trkpt lat="44.5360017" lon="8.3501017"><ele>347.0</ele><time>2026-04-25T15:28:09.996Z</time></trkpt><trkpt lat="44.5359133" lon="8.3500417"><ele>347.0</ele><time>2026-04-25T15:28:10.996Z</time></trkpt><trkpt lat="44.5358567" lon="8.3499517"><ele>347.0</ele><time>2026-04-25T15:28:11.998Z</time></trkpt><trkpt lat="44.5358283" lon="8.3498533"><ele>347.0</ele><time>2026-04-25T15:28:12.993Z</time></trkpt><trkpt lat="44.535845" lon="8.3497533"><ele>347.0</ele><time>2026-04-25T15:28:13.996Z</time></trkpt><trkpt lat="44.53588" lon="8.3496633"><ele>347.0</ele><time>2026-04-25T15:28:14.995Z</time></trkpt><trkpt lat="44.5359867" lon="8.3495983"><ele>347.0</ele><time>2026-04-25T15:28:15.996Z</time></trkpt><trkpt lat="44.5360933" lon="8.3495283"><ele>347.0</ele><time>2026-04-25T15:28:17Z</time></trkpt><trkpt lat="44.53619" lon="8.3494383"><ele>350.5</ele><time>2026-04-25T15:28:17.996Z</time></trkpt><trkpt lat="44.5362583" lon="8.3493117"><ele>354.0</ele><time>2026-04-25T15:28:18.994Z</time></trkpt><trkpt lat="44.5363083" lon="8.3491733"><ele>357.5</ele><time>2026-04-25T15:28:19.993Z</time></trkpt><trkpt lat="44.5363683" lon="8.3490383"><ele>361.0</ele><time>2026-04-25T15:28:20.995Z</time></trkpt><trkpt lat="44.53645" lon="8.348925"><ele>360.0</ele><time>2026-04-25T15:28:21.996Z</time></trkpt><trkpt lat="44.5365417" lon="8.3488233"><ele>359.0</ele><time>2026-04-25T15:28:22.995Z</time></trkpt><trkpt lat="44.5366367" lon="8.348725"><ele>358.0</ele><time>2026-04-25T15:28:23.997Z</time></trkpt><trkpt lat="44.5367333" lon="8.3486267"><ele>357.0</ele><time>2026-04-25T15:28:24.997Z</time></trkpt><trkpt lat="44.5368317" lon="8.348525"><ele>357.0</ele><time>2026-04-25T15:28:26.002Z</time></trkpt><trkpt lat="44.5369217" lon="8.3484167"><ele>357.0</ele><time>2026-04-25T15:28:26.997Z</time></trkpt><trkpt lat="44.537005" lon="8.348295"><ele>357.0</ele><time>2026-04-25T15:28:27.997Z</time></trkpt><trkpt lat="44.5370733" lon="8.3481517"><ele>357.0</ele><time>2026-04-25T15:28:28.997Z</time></trkpt><trkpt lat="44.5371383" lon="8.3480117"><ele>361.0</ele><time>2026-04-25T15:28:29.996Z</time></trkpt><trkpt lat="44.5372017" lon="8.3478717"><ele>365.0</ele><time>2026-04-25T15:28:30.997Z</time></trkpt><trkpt lat="44.5372633" lon="8.3477317"><ele>369.0</ele><time>2026-04-25T15:28:32.001Z</time></trkpt><trkpt lat="44.5373233" lon="8.3475867"><ele>373.0</ele><time>2026-04-25T15:28:33.004Z</time></trkpt><trkpt lat="44.5373833" lon="8.3474433"><ele>373.0</ele><time>2026-04-25T15:28:33.994Z</time></trkpt><trkpt lat="44.53744" lon="8.3472967"><ele>373.0</ele><time>2026-04-25T15:28:34.995Z</time></trkpt><trkpt lat="44.5374933" lon="8.34715"><ele>373.0</ele><time>2026-04-25T15:28:35.994Z</time></trkpt><trkpt lat="44.5375317" lon="8.346985"><ele>373.0</ele><time>2026-04-25T15:28:37Z</time></trkpt><trkpt lat="44.5375733" lon="8.3468267"><ele>372.0</ele><time>2026-04-25T15:28:37.997Z</time></trkpt><trkpt lat="44.5376067" lon="8.3466633"><ele>371.0</ele><time>2026-04-25T15:28:38.998Z</time></trkpt><trkpt lat="44.537655" lon="8.3465167"><ele>370.0</ele><time>2026-04-25T15:28:39.993Z</time></trkpt><trkpt lat="44.5376933" lon="8.3463583"><ele>369.0</ele><time>2026-04-25T15:28:40.997Z</time></trkpt><trkpt lat="44.5377117" lon="8.34619"><ele>368.0</ele><time>2026-04-25T15:28:41.993Z</time></trkpt><trkpt lat="44.5376983" lon="8.3460217"><ele>367.0</ele><time>2026-04-25T15:28:42.997Z</time></trkpt><trkpt lat="44.5376567" lon="8.3458717"><ele>366.0</ele><time>2026-04-25T15:28:43.994Z</time></trkpt><trkpt lat="44.5375817" lon="8.34573"><ele>365.0</ele><time>2026-04-25T15:28:44.999Z</time></trkpt><trkpt lat="44.5374933" lon="8.345595"><ele>365.25</ele><time>2026-04-25T15:28:45.995Z</time></trkpt><trkpt lat="44.5374017" lon="8.345465"><ele>365.5</ele><time>2026-04-25T15:28:47.003Z</time></trkpt><trkpt lat="44.5373233" lon="8.3453267"><ele>365.75</ele><time>2026-04-25T15:28:47.996Z</time></trkpt><trkpt lat="44.5372583" lon="8.345185"><ele>366.0</ele><time>2026-04-25T15:28:48.995Z</time></trkpt><trkpt lat="44.5372133" lon="8.3450233"><ele>366.0</ele><time>2026-04-25T15:28:49.995Z</time></trkpt><trkpt lat="44.5371817" lon="8.3448517"><ele>366.0</ele><time>2026-04-25T15:28:50.994Z</time></trkpt><trkpt lat="44.5371583" lon="8.3446833"><ele>366.0</ele><time>2026-04-25T15:28:52Z</time></trkpt><trkpt lat="44.5371183" lon="8.34455"><ele>366.0</ele><time>2026-04-25T15:28:52.997Z</time></trkpt><trkpt lat="44.5370733" lon="8.3444383"><ele>366.0</ele><time>2026-04-25T15:28:53.994Z</time></trkpt><trkpt lat="44.5370083" lon="8.3443617"><ele>364.0</ele><time>2026-04-25T15:28:54.994Z</time></trkpt><trkpt lat="44.5369333" lon="8.3443"><ele>362.0</ele><time>2026-04-25T15:28:56.001Z</time></trkpt><trkpt lat="44.5368633" lon="8.3442167"><ele>360.0</ele><time>2026-04-25T15:28:56.995Z</time></trkpt><trkpt lat="44.536795" lon="8.3441117"><ele>358.0</ele><time>2026-04-25T15:28:57.995Z</time></trkpt><trkpt lat="44.5367367" lon="8.3439833"><ele>356.0</ele><time>2026-04-25T15:28:59Z</time></trkpt><trkpt lat="44.5366833" lon="8.3438233"><ele>356.0</ele><time>2026-04-25T15:28:59.997Z</time></trkpt><trkpt lat="44.5366333" lon="8.3436483"><ele>356.0</ele><time>2026-04-25T15:29:00.997Z</time></trkpt><trkpt lat="44.5365717" lon="8.3434817"><ele>356.0</ele><time>2026-04-25T15:29:01.996Z</time></trkpt><trkpt lat="44.5364983" lon="8.343325"><ele>356.0</ele><time>2026-04-25T15:29:02.993Z</time></trkpt><trkpt lat="44.53643" lon="8.3431767"><ele>356.0</ele><time>2026-04-25T15:29:03.995Z</time></trkpt><trkpt lat="44.5363833" lon="8.3430217"><ele>356.0</ele><time>2026-04-25T15:29:04.995Z</time></trkpt><trkpt lat="44.536355" lon="8.3428683"><ele>356.0</ele><time>2026-04-25T15:29:06Z</time></trkpt><trkpt lat="44.53636" lon="8.3427083"><ele>356.0</ele><time>2026-04-25T15:29:06.999Z</time></trkpt><trkpt lat="44.5363833" lon="8.3425683"><ele>356.0</ele><time>2026-04-25T15:29:07.998Z</time></trkpt><trkpt lat="44.5363817" lon="8.342425"><ele>356.0</ele><time>2026-04-25T15:29:08.997Z</time></trkpt><trkpt lat="44.5363517" lon="8.3422967"><ele>356.0</ele><time>2026-04-25T15:29:09.996Z</time></trkpt><trkpt lat="44.5362817" lon="8.34221"><ele>356.0</ele><time>2026-04-25T15:29:10.996Z</time></trkpt><trkpt lat="44.5361933" lon="8.3421217"><ele>356.0</ele><time>2026-04-25T15:29:11.999Z</time></trkpt><trkpt lat="44.53611" lon="8.34201"><ele>352.25</ele><time>2026-04-25T15:29:13Z</time></trkpt><trkpt lat="44.5360567" lon="8.3418717"><ele>348.5</ele><time>2026-04-25T15:29:14.002Z</time></trkpt><trkpt lat="44.5360317" lon="8.3417033"><ele>344.75</ele><time>2026-04-25T15:29:14.997Z</time></trkpt><trkpt lat="44.53604" lon="8.3415217"><ele>341.0</ele><time>2026-04-25T15:29:15.996Z</time></trkpt><trkpt lat="44.5360767" lon="8.3413233"><ele>339.75</ele><time>2026-04-25T15:29:16.994Z</time></trkpt><trkpt lat="44.53609" lon="8.3411333"><ele>338.5</ele><time>2026-04-25T15:29:17.999Z</time></trkpt><trkpt lat="44.5361067" lon="8.3409367"><ele>337.25</ele><time>2026-04-25T15:29:18.998Z</time></trkpt><trkpt lat="44.5361267" lon="8.3407167"><ele>336.0</ele><time>2026-04-25T15:29:19.999Z</time></trkpt><trkpt lat="44.536135" lon="8.3404983"><ele>335.0</ele><time>2026-04-25T15:29:20.996Z</time></trkpt><trkpt lat="44.5361383" lon="8.3402717"><ele>334.0</ele><time>2026-04-25T15:29:21.996Z</time></trkpt><trkpt lat="44.53616" lon="8.3400467"><ele>333.0</ele><time>2026-04-25T15:29:22.993Z</time></trkpt><trkpt lat="44.5361617" lon="8.3398267"><ele>331.0</ele><time>2026-04-25T15:29:23.999Z</time></trkpt><trkpt lat="44.5361717" lon="8.33961"><ele>329.0</ele><time>2026-04-25T15:29:24.996Z</time></trkpt><trkpt lat="44.5361667" lon="8.339395"><ele>327.0</ele><time>2026-04-25T15:29:26Z</time></trkpt><trkpt lat="44.5361483" lon="8.3391917"><ele>327.0</ele><time>2026-04-25T15:29:26.999Z</time></trkpt><trkpt lat="44.5361133" lon="8.338995"><ele>327.0</ele><time>2026-04-25T15:29:27.995Z</time></trkpt><trkpt lat="44.536055" lon="8.3388117"><ele>327.0</ele><time>2026-04-25T15:29:29.001Z</time></trkpt><trkpt lat="44.5359867" lon="8.3386483"><ele>327.0</ele><time>2026-04-25T15:29:29.997Z</time></trkpt><trkpt lat="44.5359233" lon="8.3385"><ele>325.8</ele><time>2026-04-25T15:29:31.001Z</time></trkpt><trkpt lat="44.5358867" lon="8.3383467"><ele>324.6</ele><time>2026-04-25T15:29:31.996Z</time></trkpt><trkpt lat="44.5358667" lon="8.3381983"><ele>323.40000000000003</ele><time>2026-04-25T15:29:32.999Z</time></trkpt><trkpt lat="44.5358667" lon="8.3380517"><ele>322.20000000000005</ele><time>2026-04-25T15:29:34Z</time></trkpt><trkpt lat="44.5359067" lon="8.337935"><ele>321.0</ele><time>2026-04-25T15:29:34.996Z</time></trkpt><trkpt lat="44.5359517" lon="8.33783"><ele>317.0</ele><time>2026-04-25T15:29:35.997Z</time></trkpt><trkpt lat="44.5360067" lon="8.3377617"><ele>313.0</ele><time>2026-04-25T15:29:37.002Z</time></trkpt><trkpt lat="44.53608" lon="8.3378267"><ele>309.0</ele><time>2026-04-25T15:29:38.001Z</time></trkpt><trkpt lat="44.5361667" lon="8.337855"><ele>305.0</ele><time>2026-04-25T15:29:39.003Z</time></trkpt><trkpt lat="44.5362867" lon="8.3379433"><ele>301.0</ele><time>2026-04-25T15:29:39.997Z</time></trkpt><trkpt lat="44.536425" lon="8.3380383"><ele>305.66666666666663</ele><time>2026-04-25T15:29:40.993Z</time></trkpt><trkpt lat="44.5366067" lon="8.3382683"><ele>310.3333333333333</ele><time>2026-04-25T15:29:42.002Z</time></trkpt><trkpt lat="44.5367633" lon="8.338365"><ele>315.0</ele><time>2026-04-25T15:29:42.994Z</time></trkpt><trkpt lat="44.5369033" lon="8.3384467"><ele>315.0</ele><time>2026-04-25T15:29:43.998Z</time></trkpt><trkpt lat="44.53703" lon="8.3385283"><ele>315.0</ele><time>2026-04-25T15:29:45.001Z</time></trkpt><trkpt lat="44.53715" lon="8.3386117"><ele>315.0</ele><time>2026-04-25T15:29:45.996Z</time></trkpt><trkpt lat="44.53727" lon="8.3387367"><ele>315.0</ele><time>2026-04-25T15:29:47.003Z</time></trkpt><trkpt lat="44.53737" lon="8.3389067"><ele>314.0</ele><time>2026-04-25T15:29:48.004Z</time></trkpt><trkpt lat="44.5374517" lon="8.3390567"><ele>313.0</ele><time>2026-04-25T15:29:49.003Z</time></trkpt><trkpt lat="44.5375267" lon="8.33924"><ele>312.0</ele><time>2026-04-25T15:29:50Z</time></trkpt><trkpt lat="44.5375933" lon="8.3394283"><ele>311.0</ele><time>2026-04-25T15:29:51.007Z</time></trkpt><trkpt lat="44.53766" lon="8.339625"><ele>311.8</ele><time>2026-04-25T15:29:51.997Z</time></trkpt><trkpt lat="44.5377233" lon="8.33978"><ele>312.6</ele><time>2026-04-25T15:29:52.997Z</time></trkpt><trkpt lat="44.5377733" lon="8.3398917"><ele>313.4</ele><time>2026-04-25T15:29:53.999Z</time></trkpt><trkpt lat="44.537845" lon="8.3399417"><ele>314.2</ele><time>2026-04-25T15:29:54.998Z</time></trkpt><trkpt lat="44.5379183" lon="8.33998"><ele>315.0</ele><time>2026-04-25T15:29:56Z</time></trkpt><trkpt lat="44.5379917" lon="8.3399217"><ele>315.0</ele><time>2026-04-25T15:29:57Z</time></trkpt><trkpt lat="44.538065" lon="8.339875"><ele>315.0</ele><time>2026-04-25T15:29:58.002Z</time></trkpt><trkpt lat="44.538125" lon="8.3398"><ele>315.0</ele><time>2026-04-25T15:29:59.002Z</time></trkpt><trkpt lat="44.5381867" lon="8.339715"><ele>315.0</ele><time>2026-04-25T15:30:00.001Z</time></trkpt><trkpt lat="44.538245" lon="8.33963"><ele>315.0</ele><time>2026-04-25T15:30:01.005Z</time></trkpt><trkpt lat="44.5383083" lon="8.3395483"><ele>315.0</ele><time>2026-04-25T15:30:01.997Z</time></trkpt><trkpt lat="44.5383767" lon="8.3394617"><ele>311.4</ele><time>2026-04-25T15:30:02.999Z</time></trkpt><trkpt lat="44.53845" lon="8.33939"><ele>307.8</ele><time>2026-04-25T15:30:03.998Z</time></trkpt><trkpt lat="44.538535" lon="8.3393517"><ele>304.2</ele><time>2026-04-25T15:30:04.996Z</time></trkpt><trkpt lat="44.5386333" lon="8.3393317"><ele>300.6</ele><time>2026-04-25T15:30:06.001Z</time></trkpt><trkpt lat="44.538745" lon="8.33935"><ele>297.0</ele><time>2026-04-25T15:30:07.004Z</time></trkpt><trkpt lat="44.5388517" lon="8.33936"><ele>294.4</ele><time>2026-04-25T15:30:07.995Z</time></trkpt><trkpt lat="44.538965" lon="8.339435"><ele>291.79999999999995</ele><time>2026-04-25T15:30:08.997Z</time></trkpt><trkpt lat="44.5390733" lon="8.3394833"><ele>289.2</ele><time>2026-04-25T15:30:09.997Z</time></trkpt><trkpt lat="44.5391617" lon="8.3395483"><ele>286.59999999999997</ele><time>2026-04-25T15:30:10.998Z</time></trkpt><trkpt lat="44.5392483" lon="8.3396083"><ele>284.0</ele><time>2026-04-25T15:30:11.999Z</time></trkpt><trkpt lat="44.5393433" lon="8.3396717"><ele>288.5</ele><time>2026-04-25T15:30:13Z</time></trkpt><trkpt lat="44.53942" lon="8.3397683"><ele>293.0</ele><time>2026-04-25T15:30:13.998Z</time></trkpt><trkpt lat="44.5394867" lon="8.33988"><ele>297.5</ele><time>2026-04-25T15:30:14.995Z</time></trkpt><trkpt lat="44.53947" lon="8.34008"><ele>302.0</ele><time>2026-04-25T15:30:15.997Z</time></trkpt><trkpt lat="44.5395183" lon="8.3402033"><ele>298.75</ele><time>2026-04-25T15:30:17.001Z</time></trkpt><trkpt lat="44.5395667" lon="8.3403267"><ele>295.5</ele><time>2026-04-25T15:30:18.003Z</time></trkpt><trkpt lat="44.53966" lon="8.3404567"><ele>292.25</ele><time>2026-04-25T15:30:19Z</time></trkpt><trkpt lat="44.5397483" lon="8.3406017"><ele>289.0</ele><time>2026-04-25T15:30:19.994Z</time></trkpt><trkpt lat="44.539835" lon="8.340755"><ele>289.0</ele><time>2026-04-25T15:30:20.996Z</time></trkpt><trkpt lat="44.5399117" lon="8.3409233"><ele>289.0</ele><time>2026-04-25T15:30:22.003Z</time></trkpt><trkpt lat="44.5399783" lon="8.3410917"><ele>289.0</ele><time>2026-04-25T15:30:22.999Z</time></trkpt><trkpt lat="44.54004" lon="8.34124"><ele>289.0</ele><time>2026-04-25T15:30:23.996Z</time></trkpt><trkpt lat="44.5400817" lon="8.3414067"><ele>292.0</ele><time>2026-04-25T15:30:25.001Z</time></trkpt><trkpt lat="44.540105" lon="8.3415867"><ele>295.0</ele><time>2026-04-25T15:30:26.002Z</time></trkpt><trkpt lat="44.5401133" lon="8.34178"><ele>298.0</ele><time>2026-04-25T15:30:26.995Z</time></trkpt><trkpt lat="44.5401083" lon="8.341975"><ele>301.0</ele><time>2026-04-25T15:30:27.995Z</time></trkpt><trkpt lat="44.5401033" lon="8.342165"><ele>301.2</ele><time>2026-04-25T15:30:29.002Z</time></trkpt><trkpt lat="44.540105" lon="8.3423367"><ele>301.40000000000003</ele><time>2026-04-25T15:30:29.994Z</time></trkpt><trkpt lat="44.5401183" lon="8.34248"><ele>301.6</ele><time>2026-04-25T15:30:30.998Z</time></trkpt><trkpt lat="44.5401483" lon="8.342595"><ele>301.8</ele><time>2026-04-25T15:30:31.999Z</time></trkpt><trkpt lat="44.5402117" lon="8.3426433"><ele>302.0</ele><time>2026-04-25T15:30:32.996Z</time></trkpt><trkpt lat="44.540295" lon="8.34263"><ele>299.75</ele><time>2026-04-25T15:30:33.995Z</time></trkpt><trkpt lat="44.5403867" lon="8.3425933"><ele>297.5</ele><time>2026-04-25T15:30:35.001Z</time></trkpt><trkpt lat="44.5404867" lon="8.3424833"><ele>295.25</ele><time>2026-04-25T15:30:35.995Z</time></trkpt><trkpt lat="44.54058" lon="8.3423433"><ele>293.0</ele><time>2026-04-25T15:30:36.998Z</time></trkpt><trkpt lat="44.5406783" lon="8.342215"><ele>289.8</ele><time>2026-04-25T15:30:37.997Z</time></trkpt><trkpt lat="44.5407683" lon="8.3421133"><ele>286.6</ele><time>2026-04-25T15:30:38.994Z</time></trkpt><trkpt lat="44.5408583" lon="8.3420683"><ele>283.4</ele><time>2026-04-25T15:30:39.997Z</time></trkpt><trkpt lat="44.540955" lon="8.3420683"><ele>280.2</ele><time>2026-04-25T15:30:40.996Z</time></trkpt><trkpt lat="44.5410483" lon="8.34211"><ele>277.0</ele><time>2026-04-25T15:30:41.996Z</time></trkpt><trkpt lat="44.54114" lon="8.3422"><ele>277.0</ele><time>2026-04-25T15:30:42.996Z</time></trkpt><trkpt lat="44.5412417" lon="8.3422983"><ele>277.0</ele><time>2026-04-25T15:30:43.996Z</time></trkpt><trkpt lat="44.5413483" lon="8.342405"><ele>277.0</ele><time>2026-04-25T15:30:44.995Z</time></trkpt><trkpt lat="44.5414517" lon="8.3425283"><ele>277.0</ele><time>2026-04-25T15:30:45.993Z</time></trkpt><trkpt lat="44.5415617" lon="8.3426717"><ele>277.0</ele><time>2026-04-25T15:30:46.998Z</time></trkpt><trkpt lat="44.5416767" lon="8.342815"><ele>277.0</ele><time>2026-04-25T15:30:47.995Z</time></trkpt><trkpt lat="44.5417917" lon="8.3429583"><ele>277.0</ele><time>2026-04-25T15:30:49.01Z</time></trkpt><trkpt lat="44.541905" lon="8.3430967"><ele>276.25</ele><time>2026-04-25T15:30:49.991Z</time></trkpt><trkpt lat="44.5420117" lon="8.34324"><ele>275.5</ele><time>2026-04-25T15:30:50.998Z</time></trkpt><trkpt lat="44.5421033" lon="8.3433917"><ele>274.75</ele><time>2026-04-25T15:30:51.997Z</time></trkpt><trkpt lat="44.5421733" lon="8.3435383"><ele>274.0</ele><time>2026-04-25T15:30:53.003Z</time></trkpt><trkpt lat="44.5422067" lon="8.3436567"><ele>274.0</ele><time>2026-04-25T15:30:53.999Z</time></trkpt><trkpt lat="44.5422367" lon="8.3437633"><ele>274.0</ele><time>2026-04-25T15:30:54.994Z</time></trkpt><trkpt lat="44.542275" lon="8.3438467"><ele>274.0</ele><time>2026-04-25T15:30:55.998Z</time></trkpt><trkpt lat="44.5423517" lon="8.3438317"><ele>274.0</ele><time>2026-04-25T15:30:56.995Z</time></trkpt><trkpt lat="44.5424333" lon="8.3437717"><ele>274.0</ele><time>2026-04-25T15:30:57.994Z</time></trkpt><trkpt lat="44.5425067" lon="8.34367"><ele>274.0</ele><time>2026-04-25T15:30:58.995Z</time></trkpt><trkpt lat="44.5425783" lon="8.3435517"><ele>274.0</ele><time>2026-04-25T15:30:59.998Z</time></trkpt><trkpt lat="44.54264" lon="8.34343"><ele>274.0</ele><time>2026-04-25T15:31:00.999Z</time></trkpt><trkpt lat="44.5426933" lon="8.343325"><ele>274.0</ele><time>2026-04-25T15:31:01.996Z</time></trkpt><trkpt lat="44.542745" lon="8.34323"><ele>274.0</ele><time>2026-04-25T15:31:02.994Z</time></trkpt><trkpt lat="44.5428017" lon="8.3431483"><ele>274.0</ele><time>2026-04-25T15:31:03.996Z</time></trkpt><trkpt lat="44.542895" lon="8.3431367"><ele>272.5</ele><time>2026-04-25T15:31:04.997Z</time></trkpt><trkpt lat="44.5429867" lon="8.343165"><ele>271.0</ele><time>2026-04-25T15:31:05.996Z</time></trkpt><trkpt lat="44.5431167" lon="8.3432167"><ele>269.5</ele><time>2026-04-25T15:31:06.998Z</time></trkpt><trkpt lat="44.543255" lon="8.34328"><ele>268.0</ele><time>2026-04-25T15:31:07.993Z</time></trkpt><trkpt lat="44.54338" lon="8.343315"><ele>268.0</ele><time>2026-04-25T15:31:08.999Z</time></trkpt><trkpt lat="44.5435067" lon="8.3433383"><ele>268.0</ele><time>2026-04-25T15:31:09.997Z</time></trkpt><trkpt lat="44.543615" lon="8.3433483"><ele>268.0</ele><time>2026-04-25T15:31:10.993Z</time></trkpt><trkpt lat="44.543705" lon="8.3433667"><ele>268.0</ele><time>2026-04-25T15:31:12.001Z</time></trkpt><trkpt lat="44.5438017" lon="8.3434133"><ele>268.0</ele><time>2026-04-25T15:31:12.996Z</time></trkpt><trkpt lat="44.543875" lon="8.3434583"><ele>267.16666666666663</ele><time>2026-04-25T15:31:13.995Z</time></trkpt><trkpt lat="44.543935" lon="8.3435367"><ele>266.3333333333333</ele><time>2026-04-25T15:31:14.996Z</time></trkpt><trkpt lat="44.54396" lon="8.3436733"><ele>265.5</ele><time>2026-04-25T15:31:15.995Z</time></trkpt><trkpt lat="44.544005" lon="8.3437867"><ele>264.6666666666667</ele><time>2026-04-25T15:31:16.993Z</time></trkpt><trkpt lat="44.5440483" lon="8.343885"><ele>263.83333333333337</ele><time>2026-04-25T15:31:17.998Z</time></trkpt><trkpt lat="44.54409" lon="8.3439867"><ele>263.0</ele><time>2026-04-25T15:31:18.996Z</time></trkpt><trkpt lat="44.5441383" lon="8.344045"><ele>263.0</ele><time>2026-04-25T15:31:19.995Z</time></trkpt><trkpt lat="44.5442517" lon="8.3441317"><ele>263.0</ele><time>2026-04-25T15:31:21.995Z</time></trkpt><trkpt lat="44.5443583" lon="8.34406"><ele>263.0</ele><time>2026-04-25T15:31:23.001Z</time></trkpt><trkpt lat="44.544435" lon="8.3440133"><ele>263.0</ele><time>2026-04-25T15:31:24.002Z</time></trkpt><trkpt lat="44.5444833" lon="8.3439367"><ele>263.0</ele><time>2026-04-25T15:31:25.002Z</time></trkpt><trkpt lat="44.5445417" lon="8.343785"><ele>263.0</ele><time>2026-04-25T15:31:26.995Z</time></trkpt><trkpt lat="44.5445433" lon="8.34361"><ele>263.0</ele><time>2026-04-25T15:31:28.996Z</time></trkpt><trkpt lat="44.5445267" lon="8.3435167"><ele>263.0</ele><time>2026-04-25T15:31:29.997Z</time></trkpt><trkpt lat="44.5445117" lon="8.3434217"><ele>263.0</ele><time>2026-04-25T15:31:30.994Z</time></trkpt><trkpt lat="44.5444883" lon="8.3433083"><ele>263.0</ele><time>2026-04-25T15:31:31.993Z</time></trkpt><trkpt lat="44.5444317" lon="8.3431667"><ele>260.0</ele><time>2026-04-25T15:31:32.993Z</time></trkpt><trkpt lat="44.5443983" lon="8.343045"><ele>257.0</ele><time>2026-04-25T15:31:33.992Z</time></trkpt><trkpt lat="44.5443733" lon="8.3429333"><ele>254.0</ele><time>2026-04-25T15:31:34.999Z</time></trkpt><trkpt lat="44.5443633" lon="8.3428167"><ele>251.0</ele><time>2026-04-25T15:31:35.996Z</time></trkpt><trkpt lat="44.54436" lon="8.3426833"><ele>248.0</ele><time>2026-04-25T15:31:36.996Z</time></trkpt><trkpt lat="44.54442" lon="8.3425433"><ele>248.0</ele><time>2026-04-25T15:31:37.998Z</time></trkpt><trkpt lat="44.5444833" lon="8.3424283"><ele>248.0</ele><time>2026-04-25T15:31:38.996Z</time></trkpt><trkpt lat="44.54456" lon="8.342305"><ele>248.0</ele><time>2026-04-25T15:31:39.997Z</time></trkpt><trkpt lat="44.5446417" lon="8.3422"><ele>248.0</ele><time>2026-04-25T15:31:40.995Z</time></trkpt><trkpt lat="44.5446717" lon="8.3420483"><ele>248.0</ele><time>2026-04-25T15:31:41.995Z</time></trkpt><trkpt lat="44.5446767" lon="8.3418733"><ele>253.25</ele><time>2026-04-25T15:31:42.999Z</time></trkpt><trkpt lat="44.544665" lon="8.3417"><ele>258.5</ele><time>2026-04-25T15:31:43.998Z</time></trkpt><trkpt lat="44.544635" lon="8.34149"><ele>263.75</ele><time>2026-04-25T15:31:44.999Z</time></trkpt><trkpt lat="44.5445867" lon="8.3413133"><ele>269.0</ele><time>2026-04-25T15:31:45.997Z</time></trkpt><trkpt lat="44.544555" lon="8.34113"><ele>267.5</ele><time>2026-04-25T15:31:47.002Z</time></trkpt><trkpt lat="44.5445383" lon="8.3409617"><ele>266.0</ele><time>2026-04-25T15:31:47.994Z</time></trkpt><trkpt lat="44.5445367" lon="8.3407783"><ele>264.5</ele><time>2026-04-25T15:31:49.003Z</time></trkpt><trkpt lat="44.5445333" lon="8.34061"><ele>263.0</ele><time>2026-04-25T15:31:49.996Z</time></trkpt><trkpt lat="44.5445467" lon="8.3404267"><ele>263.0</ele><time>2026-04-25T15:31:50.993Z</time></trkpt><trkpt lat="44.5445717" lon="8.3402517"><ele>263.0</ele><time>2026-04-25T15:31:51.996Z</time></trkpt><trkpt lat="44.5445983" lon="8.3400817"><ele>263.0</ele><time>2026-04-25T15:31:52.995Z</time></trkpt><trkpt lat="44.5446233" lon="8.33991"><ele>263.0</ele><time>2026-04-25T15:31:53.995Z</time></trkpt><trkpt lat="44.544635" lon="8.3397367"><ele>257.0</ele><time>2026-04-25T15:31:55.001Z</time></trkpt><trkpt lat="44.5446417" lon="8.3395617"><ele>251.0</ele><time>2026-04-25T15:31:55.993Z</time></trkpt><trkpt lat="44.5446417" lon="8.3393867"><ele>245.0</ele><time>2026-04-25T15:31:56.994Z</time></trkpt><trkpt lat="44.5446383" lon="8.339235"><ele>239.0</ele><time>2026-04-25T15:31:57.995Z</time></trkpt><trkpt lat="44.5446383" lon="8.3390983"><ele>239.00000000000003</ele><time>2026-04-25T15:31:58.995Z</time></trkpt><trkpt lat="44.5446517" lon="8.3390017"><ele>239.0</ele><time>2026-04-25T15:31:59.996Z</time></trkpt><trkpt lat="44.5446533" lon="8.33887"><ele>239.0</ele><time>2026-04-25T15:32:01.991Z</time></trkpt><trkpt lat="44.54472" lon="8.33887"><ele>239.0</ele><time>2026-04-25T15:32:05.995Z</time></trkpt><trkpt lat="44.544785" lon="8.3389133"><ele>239.00000000000003</ele><time>2026-04-25T15:32:07.994Z</time></trkpt><trkpt lat="44.5448433" lon="8.3389717"><ele>239.0</ele><time>2026-04-25T15:32:08.996Z</time></trkpt><trkpt lat="44.544915" lon="8.339065"><ele>239.0</ele><time>2026-04-25T15:32:09.996Z</time></trkpt><trkpt lat="44.544985" lon="8.3391617"><ele>239.0</ele><time>2026-04-25T15:32:10.993Z</time></trkpt><trkpt lat="44.5450833" lon="8.3393033"><ele>239.0</ele><time>2026-04-25T15:32:11.997Z</time></trkpt><trkpt lat="44.5452333" lon="8.3394667"><ele>239.0</ele><time>2026-04-25T15:32:13Z</time></trkpt><trkpt lat="44.5453817" lon="8.3395917"><ele>243.0</ele><time>2026-04-25T15:32:13.998Z</time></trkpt><trkpt lat="44.54553" lon="8.3397267"><ele>247.0</ele><time>2026-04-25T15:32:14.995Z</time></trkpt><trkpt lat="44.5456833" lon="8.33981"><ele>251.0</ele><time>2026-04-25T15:32:15.995Z</time></trkpt><trkpt lat="44.5458317" lon="8.33989"><ele>251.0</ele><time>2026-04-25T15:32:16.995Z</time></trkpt><trkpt lat="44.545975" lon="8.3399383"><ele>251.0</ele><time>2026-04-25T15:32:17.992Z</time></trkpt><trkpt lat="44.5461117" lon="8.33994"><ele>251.0</ele><time>2026-04-25T15:32:18.994Z</time></trkpt><trkpt lat="44.546245" lon="8.3399133"><ele>251.0</ele><time>2026-04-25T15:32:19.998Z</time></trkpt><trkpt lat="44.5463767" lon="8.3398517"><ele>251.0</ele><time>2026-04-25T15:32:20.997Z</time></trkpt><trkpt lat="44.5465033" lon="8.3397767"><ele>251.0</ele><time>2026-04-25T15:32:21.997Z</time></trkpt><trkpt lat="44.5466317" lon="8.3397"><ele>251.0</ele><time>2026-04-25T15:32:22.995Z</time></trkpt><trkpt lat="44.5467633" lon="8.33965"><ele>251.0</ele><time>2026-04-25T15:32:23.996Z</time></trkpt><trkpt lat="44.5468983" lon="8.3396167"><ele>245.25</ele><time>2026-04-25T15:32:24.998Z</time></trkpt><trkpt lat="44.5470367" lon="8.3396"><ele>239.5</ele><time>2026-04-25T15:32:25.997Z</time></trkpt><trkpt lat="44.5471783" lon="8.3395933"><ele>233.75</ele><time>2026-04-25T15:32:27.001Z</time></trkpt><trkpt lat="44.5473217" lon="8.3395883"><ele>228.0</ele><time>2026-04-25T15:32:27.994Z</time></trkpt><trkpt lat="44.547465" lon="8.3395967"><ele>228.0</ele><time>2026-04-25T15:32:29Z</time></trkpt><trkpt lat="44.5476083" lon="8.3396417"><ele>228.0</ele><time>2026-04-25T15:32:29.993Z</time></trkpt><trkpt lat="44.5477467" lon="8.339705"><ele>228.0</ele><time>2026-04-25T15:32:30.997Z</time></trkpt><trkpt lat="44.5478883" lon="8.3397917"><ele>228.0</ele><time>2026-04-25T15:32:31.993Z</time></trkpt><trkpt lat="44.5480167" lon="8.3398983"><ele>231.25</ele><time>2026-04-25T15:32:32.995Z</time></trkpt><trkpt lat="44.548135" lon="8.3400217"><ele>234.5</ele><time>2026-04-25T15:32:34.006Z</time></trkpt><trkpt lat="44.548245" lon="8.340155"><ele>237.75</ele><time>2026-04-25T15:32:34.995Z</time></trkpt><trkpt lat="44.548345" lon="8.3403117"><ele>241.0</ele><time>2026-04-25T15:32:36Z</time></trkpt><trkpt lat="44.548435" lon="8.3404833"><ele>248.0</ele><time>2026-04-25T15:32:36.997Z</time></trkpt><trkpt lat="44.5485167" lon="8.3406683"><ele>255.0</ele><time>2026-04-25T15:32:37.994Z</time></trkpt><trkpt lat="44.5485967" lon="8.34087"><ele>262.0</ele><time>2026-04-25T15:32:38.992Z</time></trkpt><trkpt lat="44.5486833" lon="8.34108"><ele>256.3333333333333</ele><time>2026-04-25T15:32:39.998Z</time></trkpt><trkpt lat="44.54877" lon="8.3413067"><ele>250.66666666666669</ele><time>2026-04-25T15:32:41.003Z</time></trkpt><trkpt lat="44.5488617" lon="8.3415267"><ele>245.0</ele><time>2026-04-25T15:32:41.999Z</time></trkpt><trkpt lat="44.54896" lon="8.3417433"><ele>245.0</ele><time>2026-04-25T15:32:42.997Z</time></trkpt><trkpt lat="44.549075" lon="8.341955"><ele>245.0</ele><time>2026-04-25T15:32:43.997Z</time></trkpt><trkpt lat="44.5492117" lon="8.3421433"><ele>245.0</ele><time>2026-04-25T15:32:44.996Z</time></trkpt><trkpt lat="44.549335" lon="8.3423467"><ele>242.33333333333334</ele><time>2026-04-25T15:32:45.995Z</time></trkpt><trkpt lat="44.5494633" lon="8.3425433"><ele>239.66666666666669</ele><time>2026-04-25T15:32:46.993Z</time></trkpt><trkpt lat="44.5496017" lon="8.3427317"><ele>237.0</ele><time>2026-04-25T15:32:47.995Z</time></trkpt><trkpt lat="44.5497433" lon="8.34291"><ele>243.66666666666669</ele><time>2026-04-25T15:32:48.995Z</time></trkpt><trkpt lat="44.5498967" lon="8.34307"><ele>250.33333333333334</ele><time>2026-04-25T15:32:49.995Z</time></trkpt><trkpt lat="44.5500617" lon="8.3432117"><ele>257.0</ele><time>2026-04-25T15:32:50.993Z</time></trkpt><trkpt lat="44.55022" lon="8.3433533"><ele>257.0</ele><time>2026-04-25T15:32:51.993Z</time></trkpt><trkpt lat="44.5503683" lon="8.34351"><ele>257.0</ele><time>2026-04-25T15:32:52.994Z</time></trkpt><trkpt lat="44.5505" lon="8.34369"><ele>257.0</ele><time>2026-04-25T15:32:53.995Z</time></trkpt><trkpt lat="44.5506133" lon="8.3438883"><ele>253.66666666666669</ele><time>2026-04-25T15:32:54.995Z</time></trkpt><trkpt lat="44.5507583" lon="8.344045"><ele>250.33333333333331</ele><time>2026-04-25T15:32:55.995Z</time></trkpt><trkpt lat="44.5509183" lon="8.3441617"><ele>247.0</ele><time>2026-04-25T15:32:56.995Z</time></trkpt><trkpt lat="44.551075" lon="8.3442783"><ele>242.33333333333331</ele><time>2026-04-25T15:32:57.994Z</time></trkpt><trkpt lat="44.55123" lon="8.3444033"><ele>237.66666666666669</ele><time>2026-04-25T15:32:58.994Z</time></trkpt><trkpt lat="44.5513783" lon="8.3445433"><ele>233.0</ele><time>2026-04-25T15:32:59.994Z</time></trkpt><trkpt lat="44.5515283" lon="8.3446817"><ele>239.33333333333334</ele><time>2026-04-25T15:33:01Z</time></trkpt><trkpt lat="44.5516783" lon="8.3448133"><ele>245.66666666666669</ele><time>2026-04-25T15:33:01.994Z</time></trkpt><trkpt lat="44.5518233" lon="8.3449533"><ele>252.0</ele><time>2026-04-25T15:33:02.993Z</time></trkpt><trkpt lat="44.55197" lon="8.3450883"><ele>250.66666666666669</ele><time>2026-04-25T15:33:03.999Z</time></trkpt><trkpt lat="44.552105" lon="8.3452333"><ele>249.33333333333334</ele><time>2026-04-25T15:33:05Z</time></trkpt><trkpt lat="44.5522317" lon="8.345395"><ele>248.0</ele><time>2026-04-25T15:33:05.998Z</time></trkpt><trkpt lat="44.5523333" lon="8.345595"><ele>248.0</ele><time>2026-04-25T15:33:07.003Z</time></trkpt><trkpt lat="44.552435" lon="8.3457917"><ele>248.0</ele><time>2026-04-25T15:33:08Z</time></trkpt><trkpt lat="44.5525333" lon="8.345985"><ele>248.0</ele><time>2026-04-25T15:33:08.995Z</time></trkpt><trkpt lat="44.552635" lon="8.3461817"><ele>248.0</ele><time>2026-04-25T15:33:10.006Z</time></trkpt><trkpt lat="44.5527533" lon="8.346355"><ele>248.0</ele><time>2026-04-25T15:33:10.996Z</time></trkpt><trkpt lat="44.5528867" lon="8.34652"><ele>248.0</ele><time>2026-04-25T15:33:11.997Z</time></trkpt><trkpt lat="44.5530383" lon="8.3466967"><ele>245.66666666666669</ele><time>2026-04-25T15:33:12.993Z</time></trkpt><trkpt lat="44.553205" lon="8.3468633"><ele>243.33333333333331</ele><time>2026-04-25T15:33:13.993Z</time></trkpt><trkpt lat="44.5533567" lon="8.3470333"><ele>241.0</ele><time>2026-04-25T15:33:14.995Z</time></trkpt><trkpt lat="44.5535067" lon="8.3471683"><ele>243.0</ele><time>2026-04-25T15:33:16Z</time></trkpt><trkpt lat="44.553655" lon="8.3472933"><ele>245.0</ele><time>2026-04-25T15:33:16.997Z</time></trkpt><trkpt lat="44.5537983" lon="8.3474017"><ele>247.0</ele><time>2026-04-25T15:33:17.993Z</time></trkpt><trkpt lat="44.5539317" lon="8.3475033"><ele>247.0</ele><time>2026-04-25T15:33:18.993Z</time></trkpt><trkpt lat="44.5540517" lon="8.34761"><ele>247.0</ele><time>2026-04-25T15:33:19.995Z</time></trkpt><trkpt lat="44.5541633" lon="8.3477383"><ele>247.0</ele><time>2026-04-25T15:33:20.995Z</time></trkpt><trkpt lat="44.5542617" lon="8.3479033"><ele>247.0</ele><time>2026-04-25T15:33:21.996Z</time></trkpt><trkpt lat="44.5543567" lon="8.3480733"><ele>246.66666666666666</ele><time>2026-04-25T15:33:22.998Z</time></trkpt><trkpt lat="44.55445" lon="8.3482517"><ele>246.33333333333331</ele><time>2026-04-25T15:33:23.998Z</time></trkpt><trkpt lat="44.554545" lon="8.3484317"><ele>246.0</ele><time>2026-04-25T15:33:24.998Z</time></trkpt><trkpt lat="44.5546483" lon="8.3486017"><ele>246.0</ele><time>2026-04-25T15:33:25.994Z</time></trkpt><trkpt lat="44.554765" lon="8.3487567"><ele>246.0</ele><time>2026-04-25T15:33:26.996Z</time></trkpt><trkpt lat="44.5548933" lon="8.3488917"><ele>246.0</ele><time>2026-04-25T15:33:27.994Z</time></trkpt><trkpt lat="44.5550317" lon="8.3490083"><ele>247.66666666666669</ele><time>2026-04-25T15:33:29.001Z</time></trkpt><trkpt lat="44.55517" lon="8.3491167"><ele>249.33333333333334</ele><time>2026-04-25T15:33:29.999Z</time></trkpt><trkpt lat="44.5553167" lon="8.34923"><ele>251.0</ele><time>2026-04-25T15:33:30.998Z</time></trkpt><trkpt lat="44.5554567" lon="8.3493367"><ele>251.66666666666669</ele><time>2026-04-25T15:33:31.994Z</time></trkpt><trkpt lat="44.555585" lon="8.3494517"><ele>252.33333333333331</ele><time>2026-04-25T15:33:32.999Z</time></trkpt><trkpt lat="44.5556983" lon="8.3495933"><ele>253.0</ele><time>2026-04-25T15:33:33.996Z</time></trkpt><trkpt lat="44.555815" lon="8.349735"><ele>254.66666666666666</ele><time>2026-04-25T15:33:34.996Z</time></trkpt><trkpt lat="44.5559383" lon="8.3498717"><ele>256.3333333333333</ele><time>2026-04-25T15:33:36.001Z</time></trkpt><trkpt lat="44.5560683" lon="8.3499867"><ele>258.0</ele><time>2026-04-25T15:33:36.997Z</time></trkpt><trkpt lat="44.556205" lon="8.3500733"><ele>254.33333333333331</ele><time>2026-04-25T15:33:37.996Z</time></trkpt><trkpt lat="44.556345" lon="8.3501267"><ele>250.66666666666666</ele><time>2026-04-25T15:33:38.995Z</time></trkpt><trkpt lat="44.5564983" lon="8.3501367"><ele>247.0</ele><time>2026-04-25T15:33:39.997Z</time></trkpt><trkpt lat="44.55665" lon="8.3501033"><ele>247.0</ele><time>2026-04-25T15:33:40.996Z</time></trkpt><trkpt lat="44.55681" lon="8.3500267"><ele>247.0</ele><time>2026-04-25T15:33:41.994Z</time></trkpt><trkpt lat="44.5569583" lon="8.3499167"><ele>247.0</ele><time>2026-04-25T15:33:42.995Z</time></trkpt><trkpt lat="44.557095" lon="8.34978"><ele>245.0</ele><time>2026-04-25T15:33:43.996Z</time></trkpt><trkpt lat="44.5572283" lon="8.3496217"><ele>243.0</ele><time>2026-04-25T15:33:44.995Z</time></trkpt><trkpt lat="44.55737" lon="8.349465"><ele>241.0</ele><time>2026-04-25T15:33:45.992Z</time></trkpt><trkpt lat="44.557515" lon="8.349305"><ele>241.0</ele><time>2026-04-25T15:33:46.996Z</time></trkpt><trkpt lat="44.5576667" lon="8.3491417"><ele>241.0</ele><time>2026-04-25T15:33:47.999Z</time></trkpt><trkpt lat="44.55781" lon="8.3489717"><ele>241.0</ele><time>2026-04-25T15:33:48.998Z</time></trkpt><trkpt lat="44.5579583" lon="8.3488033"><ele>238.0</ele><time>2026-04-25T15:33:49.996Z</time></trkpt><trkpt lat="44.5580867" lon="8.3486117"><ele>235.0</ele><time>2026-04-25T15:33:50.998Z</time></trkpt><trkpt lat="44.558225" lon="8.3484417"><ele>232.0</ele><time>2026-04-25T15:33:52.001Z</time></trkpt><trkpt lat="44.5583683" lon="8.3482783"><ele>232.0</ele><time>2026-04-25T15:33:52.994Z</time></trkpt><trkpt lat="44.5585117" lon="8.3481183"><ele>232.0</ele><time>2026-04-25T15:33:53.994Z</time></trkpt><trkpt lat="44.558655" lon="8.3479567"><ele>232.0</ele><time>2026-04-25T15:33:54.997Z</time></trkpt><trkpt lat="44.558805" lon="8.3478267"><ele>228.33333333333331</ele><time>2026-04-25T15:33:55.996Z</time></trkpt><trkpt lat="44.5589567" lon="8.3477333"><ele>224.66666666666669</ele><time>2026-04-25T15:33:56.995Z</time></trkpt><trkpt lat="44.55911" lon="8.3476717"><ele>221.0</ele><time>2026-04-25T15:33:57.993Z</time></trkpt><trkpt lat="44.5592717" lon="8.3476367"><ele>221.0</ele><time>2026-04-25T15:33:59Z</time></trkpt><trkpt lat="44.5594367" lon="8.3476517"><ele>221.0</ele><time>2026-04-25T15:34:00.001Z</time></trkpt><trkpt lat="44.5595983" lon="8.3477417"><ele>221.0</ele><time>2026-04-25T15:34:00.994Z</time></trkpt><trkpt lat="44.5597583" lon="8.3478267"><ele>220.33333333333334</ele><time>2026-04-25T15:34:01.997Z</time></trkpt><trkpt lat="44.5599267" lon="8.3479117"><ele>219.66666666666669</ele><time>2026-04-25T15:34:02.993Z</time></trkpt><trkpt lat="44.5600967" lon="8.347955"><ele>219.0</ele><time>2026-04-25T15:34:04Z</time></trkpt><trkpt lat="44.5602633" lon="8.3479417"><ele>221.66666666666669</ele><time>2026-04-25T15:34:04.994Z</time></trkpt><trkpt lat="44.5604433" lon="8.347915"><ele>224.33333333333334</ele><time>2026-04-25T15:34:05.993Z</time></trkpt><trkpt lat="44.5605983" lon="8.34784"><ele>227.0</ele><time>2026-04-25T15:34:06.997Z</time></trkpt><trkpt lat="44.5607383" lon="8.3477433"><ele>227.0</ele><time>2026-04-25T15:34:07.996Z</time></trkpt><trkpt lat="44.5608467" lon="8.3476033"><ele>227.0</ele><time>2026-04-25T15:34:08.998Z</time></trkpt><trkpt lat="44.5609267" lon="8.3474467"><ele>227.0</ele><time>2026-04-25T15:34:09.996Z</time></trkpt><trkpt lat="44.560995" lon="8.3472717"><ele>227.0</ele><time>2026-04-25T15:34:10.993Z</time></trkpt><trkpt lat="44.561095" lon="8.3471367"><ele>227.0</ele><time>2026-04-25T15:34:11.999Z</time></trkpt><trkpt lat="44.5612133" lon="8.3470217"><ele>227.0</ele><time>2026-04-25T15:34:12.999Z</time></trkpt><trkpt lat="44.56134" lon="8.34693"><ele>227.0</ele><time>2026-04-25T15:34:13.996Z</time></trkpt><trkpt lat="44.5614833" lon="8.3468767"><ele>227.0</ele><time>2026-04-25T15:34:15Z</time></trkpt><trkpt lat="44.5616267" lon="8.3468133"><ele>227.0</ele><time>2026-04-25T15:34:15.995Z</time></trkpt><trkpt lat="44.56176" lon="8.3467417"><ele>227.0</ele><time>2026-04-25T15:34:16.993Z</time></trkpt><trkpt lat="44.5618717" lon="8.3466233"><ele>227.0</ele><time>2026-04-25T15:34:17.996Z</time></trkpt><trkpt lat="44.561965" lon="8.3464767"><ele>227.0</ele><time>2026-04-25T15:34:19.003Z</time></trkpt><trkpt lat="44.5620483" lon="8.34632"><ele>231.0</ele><time>2026-04-25T15:34:19.994Z</time></trkpt><trkpt lat="44.5621" lon="8.3461183"><ele>235.0</ele><time>2026-04-25T15:34:20.998Z</time></trkpt><trkpt lat="44.5621483" lon="8.345915"><ele>239.0</ele><time>2026-04-25T15:34:21.994Z</time></trkpt><trkpt lat="44.5621883" lon="8.3457183"><ele>236.79999999999998</ele><time>2026-04-25T15:34:22.994Z</time></trkpt><trkpt lat="44.5622317" lon="8.3455433"><ele>234.59999999999997</ele><time>2026-04-25T15:34:23.998Z</time></trkpt><trkpt lat="44.5622833" lon="8.3454117"><ele>232.4</ele><time>2026-04-25T15:34:24.995Z</time></trkpt><trkpt lat="44.562335" lon="8.345295"><ele>230.2</ele><time>2026-04-25T15:34:26.002Z</time></trkpt><trkpt lat="44.5623967" lon="8.3452083"><ele>228.0</ele><time>2026-04-25T15:34:26.998Z</time></trkpt><trkpt lat="44.56246" lon="8.3451267"><ele>228.0</ele><time>2026-04-25T15:34:27.995Z</time></trkpt><trkpt lat="44.5625383" lon="8.3450817"><ele>228.0</ele><time>2026-04-25T15:34:28.994Z</time></trkpt><trkpt lat="44.5626267" lon="8.3450833"><ele>228.0</ele><time>2026-04-25T15:34:29.994Z</time></trkpt><trkpt lat="44.5627733" lon="8.3451917"><ele>228.0</ele><time>2026-04-25T15:34:30.996Z</time></trkpt><trkpt lat="44.56293" lon="8.3453067"><ele>227.0</ele><time>2026-04-25T15:34:31.996Z</time></trkpt><trkpt lat="44.5630917" lon="8.3454217"><ele>226.0</ele><time>2026-04-25T15:34:32.997Z</time></trkpt><trkpt lat="44.56325" lon="8.3455233"><ele>225.0</ele><time>2026-04-25T15:34:33.999Z</time></trkpt><trkpt lat="44.563415" lon="8.3456283"><ele>225.66666666666669</ele><time>2026-04-25T15:34:34.999Z</time></trkpt><trkpt lat="44.563575" lon="8.345735"><ele>226.33333333333334</ele><time>2026-04-25T15:34:36.001Z</time></trkpt><trkpt lat="44.5637383" lon="8.345835"><ele>227.0</ele><time>2026-04-25T15:34:36.997Z</time></trkpt><trkpt lat="44.5638883" lon="8.3459367"><ele>227.0</ele><time>2026-04-25T15:34:37.993Z</time></trkpt><trkpt lat="44.5640467" lon="8.3460233"><ele>227.0</ele><time>2026-04-25T15:34:38.996Z</time></trkpt><trkpt lat="44.5642083" lon="8.3460967"><ele>227.0</ele><time>2026-04-25T15:34:39.995Z</time></trkpt><trkpt lat="44.5643783" lon="8.3461367"><ele>227.33333333333334</ele><time>2026-04-25T15:34:40.995Z</time></trkpt><trkpt lat="44.5645533" lon="8.3461417"><ele>227.66666666666669</ele><time>2026-04-25T15:34:41.999Z</time></trkpt><trkpt lat="44.5647317" lon="8.3461167"><ele>228.0</ele><time>2026-04-25T15:34:43Z</time></trkpt><trkpt lat="44.56491" lon="8.3460717"><ele>228.0</ele><time>2026-04-25T15:34:43.996Z</time></trkpt><trkpt lat="44.5650883" lon="8.3460133"><ele>228.0</ele><time>2026-04-25T15:34:44.995Z</time></trkpt><trkpt lat="44.5652733" lon="8.3459583"><ele>228.0</ele><time>2026-04-25T15:34:45.997Z</time></trkpt><trkpt lat="44.565455" lon="8.3459"><ele>227.66666666666669</ele><time>2026-04-25T15:34:46.993Z</time></trkpt><trkpt lat="44.5656367" lon="8.3458417"><ele>227.33333333333334</ele><time>2026-04-25T15:34:47.994Z</time></trkpt><trkpt lat="44.5658183" lon="8.345785"><ele>227.0</ele><time>2026-04-25T15:34:48.996Z</time></trkpt><trkpt lat="44.565995" lon="8.3457317"><ele>227.0</ele><time>2026-04-25T15:34:49.995Z</time></trkpt><trkpt lat="44.5661667" lon="8.345685"><ele>227.0</ele><time>2026-04-25T15:34:51.002Z</time></trkpt><trkpt lat="44.5663333" lon="8.3456533"><ele>227.0</ele><time>2026-04-25T15:34:51.993Z</time></trkpt><trkpt lat="44.5665" lon="8.345645"><ele>226.0</ele><time>2026-04-25T15:34:52.993Z</time></trkpt><trkpt lat="44.56667" lon="8.3456467"><ele>225.0</ele><time>2026-04-25T15:34:53.995Z</time></trkpt><trkpt lat="44.5668417" lon="8.3456783"><ele>224.0</ele><time>2026-04-25T15:34:54.996Z</time></trkpt><trkpt lat="44.567015" lon="8.3457167"><ele>223.0</ele><time>2026-04-25T15:34:55.997Z</time></trkpt><trkpt lat="44.5671917" lon="8.34576"><ele>222.0</ele><time>2026-04-25T15:34:56.997Z</time></trkpt><trkpt lat="44.56737" lon="8.3457967"><ele>221.0</ele><time>2026-04-25T15:34:57.997Z</time></trkpt><trkpt lat="44.5675433" lon="8.3458367"><ele>221.0</ele><time>2026-04-25T15:34:58.997Z</time></trkpt><trkpt lat="44.56771" lon="8.3458883"><ele>221.0</ele><time>2026-04-25T15:34:59.999Z</time></trkpt><trkpt lat="44.5678567" lon="8.34598"><ele>221.0</ele><time>2026-04-25T15:35:01Z</time></trkpt><trkpt lat="44.5679933" lon="8.3461117"><ele>220.66666666666669</ele><time>2026-04-25T15:35:02.001Z</time></trkpt><trkpt lat="44.56812" lon="8.3462717"><ele>220.33333333333331</ele><time>2026-04-25T15:35:02.999Z</time></trkpt><trkpt lat="44.5682483" lon="8.3464367"><ele>220.0</ele><time>2026-04-25T15:35:03.997Z</time></trkpt><trkpt lat="44.5683667" lon="8.3466167"><ele>220.66666666666666</ele><time>2026-04-25T15:35:04.993Z</time></trkpt><trkpt lat="44.5684767" lon="8.346795"><ele>221.33333333333331</ele><time>2026-04-25T15:35:05.998Z</time></trkpt><trkpt lat="44.5685717" lon="8.3469817"><ele>222.0</ele><time>2026-04-25T15:35:07.003Z</time></trkpt><trkpt lat="44.5686517" lon="8.3471783"><ele>220.25</ele><time>2026-04-25T15:35:07.997Z</time></trkpt><trkpt lat="44.5687283" lon="8.347375"><ele>218.5</ele><time>2026-04-25T15:35:08.993Z</time></trkpt><trkpt lat="44.5688067" lon="8.34755"><ele>216.75</ele><time>2026-04-25T15:35:09.997Z</time></trkpt><trkpt lat="44.5688933" lon="8.3477017"><ele>215.0</ele><time>2026-04-25T15:35:10.996Z</time></trkpt><trkpt lat="44.569" lon="8.3478117"><ele>215.0</ele><time>2026-04-25T15:35:11.996Z</time></trkpt><trkpt lat="44.569125" lon="8.3478833"><ele>215.0</ele><time>2026-04-25T15:35:13Z</time></trkpt><trkpt lat="44.5692633" lon="8.3479183"><ele>215.0</ele><time>2026-04-25T15:35:13.996Z</time></trkpt><trkpt lat="44.5694033" lon="8.3479417"><ele>215.0</ele><time>2026-04-25T15:35:15Z</time></trkpt><trkpt lat="44.5695417" lon="8.34798"><ele>216.0</ele><time>2026-04-25T15:35:15.996Z</time></trkpt><trkpt lat="44.569675" lon="8.34806"><ele>217.0</ele><time>2026-04-25T15:35:17Z</time></trkpt><trkpt lat="44.5698067" lon="8.3481767"><ele>218.0</ele><time>2026-04-25T15:35:17.996Z</time></trkpt><trkpt lat="44.56994" lon="8.3483067"><ele>218.0</ele><time>2026-04-25T15:35:18.996Z</time></trkpt><trkpt lat="44.5700767" lon="8.3484417"><ele>218.0</ele><time>2026-04-25T15:35:19.995Z</time></trkpt><trkpt lat="44.57022" lon="8.34858"><ele>218.0</ele><time>2026-04-25T15:35:21.001Z</time></trkpt><trkpt lat="44.5703667" lon="8.34872"><ele>217.66666666666669</ele><time>2026-04-25T15:35:22.003Z</time></trkpt><trkpt lat="44.57051" lon="8.3488567"><ele>217.33333333333331</ele><time>2026-04-25T15:35:23.006Z</time></trkpt><trkpt lat="44.570655" lon="8.348995"><ele>217.0</ele><time>2026-04-25T15:35:24.002Z</time></trkpt><trkpt lat="44.570795" lon="8.3491367"><ele>217.0</ele><time>2026-04-25T15:35:24.998Z</time></trkpt><trkpt lat="44.570925" lon="8.3493033"><ele>217.0</ele><time>2026-04-25T15:35:25.999Z</time></trkpt><trkpt lat="44.5710467" lon="8.349495"><ele>217.0</ele><time>2026-04-25T15:35:26.999Z</time></trkpt><trkpt lat="44.5711533" lon="8.3496983"><ele>215.0</ele><time>2026-04-25T15:35:27.996Z</time></trkpt><trkpt lat="44.5712483" lon="8.3499033"><ele>213.0</ele><time>2026-04-25T15:35:28.998Z</time></trkpt><trkpt lat="44.5713283" lon="8.35011"><ele>211.0</ele><time>2026-04-25T15:35:29.998Z</time></trkpt><trkpt lat="44.571405" lon="8.350315"><ele>211.0</ele><time>2026-04-25T15:35:30.994Z</time></trkpt><trkpt lat="44.571485" lon="8.3505133"><ele>211.0</ele><time>2026-04-25T15:35:31.999Z</time></trkpt><trkpt lat="44.5715783" lon="8.350705"><ele>211.0</ele><time>2026-04-25T15:35:32.994Z</time></trkpt><trkpt lat="44.5716933" lon="8.3508717"><ele>210.0</ele><time>2026-04-25T15:35:33.995Z</time></trkpt><trkpt lat="44.5718233" lon="8.35103"><ele>209.0</ele><time>2026-04-25T15:35:34.993Z</time></trkpt><trkpt lat="44.57196" lon="8.3511783"><ele>208.0</ele><time>2026-04-25T15:35:35.998Z</time></trkpt><trkpt lat="44.5721033" lon="8.35132"><ele>212.0</ele><time>2026-04-25T15:35:36.997Z</time></trkpt><trkpt lat="44.57225" lon="8.3514467"><ele>216.0</ele><time>2026-04-25T15:35:37.996Z</time></trkpt><trkpt lat="44.57241" lon="8.3515283"><ele>220.0</ele><time>2026-04-25T15:35:38.992Z</time></trkpt><trkpt lat="44.57257" lon="8.3515717"><ele>220.0</ele><time>2026-04-25T15:35:39.999Z</time></trkpt><trkpt lat="44.5727317" lon="8.3515717"><ele>220.0</ele><time>2026-04-25T15:35:40.993Z</time></trkpt><trkpt lat="44.5729" lon="8.3515333"><ele>220.0</ele><time>2026-04-25T15:35:41.996Z</time></trkpt><trkpt lat="44.5730633" lon="8.3514683"><ele>217.0</ele><time>2026-04-25T15:35:42.996Z</time></trkpt><trkpt lat="44.5732283" lon="8.3513883"><ele>214.0</ele><time>2026-04-25T15:35:43.994Z</time></trkpt><trkpt lat="44.5733917" lon="8.3512933"><ele>211.0</ele><time>2026-04-25T15:35:45Z</time></trkpt><trkpt lat="44.5735517" lon="8.3511967"><ele>214.33333333333331</ele><time>2026-04-25T15:35:45.995Z</time></trkpt><trkpt lat="44.573705" lon="8.3511133"><ele>217.66666666666669</ele><time>2026-04-25T15:35:46.996Z</time></trkpt><trkpt lat="44.57384" lon="8.3510233"><ele>221.0</ele><time>2026-04-25T15:35:48.003Z</time></trkpt><trkpt lat="44.573975" lon="8.350965"><ele>221.0</ele><time>2026-04-25T15:35:48.998Z</time></trkpt><trkpt lat="44.5740967" lon="8.3509183"><ele>221.00000000000003</ele><time>2026-04-25T15:35:49.995Z</time></trkpt><trkpt lat="44.5742" lon="8.3508833"><ele>221.00000000000003</ele><time>2026-04-25T15:35:50.996Z</time></trkpt><trkpt lat="44.5742883" lon="8.3508517"><ele>221.0</ele><time>2026-04-25T15:35:51.993Z</time></trkpt><trkpt lat="44.57436" lon="8.3508233"><ele>221.0</ele><time>2026-04-25T15:35:52.996Z</time></trkpt><trkpt lat="44.5744233" lon="8.350805"><ele>221.0</ele><time>2026-04-25T15:35:53.995Z</time></trkpt><trkpt lat="44.5745067" lon="8.3507733"><ele>221.00000000000003</ele><time>2026-04-25T15:35:55.997Z</time></trkpt><trkpt lat="44.5746167" lon="8.3507967"><ele>221.00000000000003</ele><time>2026-04-25T15:37:05.992Z</time></trkpt><trkpt lat="44.5746733" lon="8.3507417"><ele>221.0</ele><time>2026-04-25T15:37:06.997Z</time></trkpt><trkpt lat="44.5747433" lon="8.3506833"><ele>221.0</ele><time>2026-04-25T15:37:08Z</time></trkpt><trkpt lat="44.5748317" lon="8.35061"><ele>220.0</ele><time>2026-04-25T15:37:09Z</time></trkpt><trkpt lat="44.57495" lon="8.3505033"><ele>219.0</ele><time>2026-04-25T15:37:09.993Z</time></trkpt><trkpt lat="44.5750767" lon="8.3503783"><ele>218.0</ele><time>2026-04-25T15:37:10.993Z</time></trkpt><trkpt lat="44.5751983" lon="8.3502467"><ele>217.0</ele><time>2026-04-25T15:37:11.994Z</time></trkpt><trkpt lat="44.5753367" lon="8.35012"><ele>218.25</ele><time>2026-04-25T15:37:13Z</time></trkpt><trkpt lat="44.5754583" lon="8.3499983"><ele>219.5</ele><time>2026-04-25T15:37:13.993Z</time></trkpt><trkpt lat="44.5755733" lon="8.34988"><ele>220.75</ele><time>2026-04-25T15:37:14.999Z</time></trkpt><trkpt lat="44.5756867" lon="8.3497767"><ele>222.0</ele><time>2026-04-25T15:37:15.993Z</time></trkpt><trkpt lat="44.5758" lon="8.3496917"><ele>222.0</ele><time>2026-04-25T15:37:16.993Z</time></trkpt><trkpt lat="44.5759217" lon="8.3496333"><ele>222.0</ele><time>2026-04-25T15:37:17.996Z</time></trkpt><trkpt lat="44.5760433" lon="8.3496067"><ele>222.0</ele><time>2026-04-25T15:37:19.001Z</time></trkpt><trkpt lat="44.5761633" lon="8.34961"><ele>222.0</ele><time>2026-04-25T15:37:19.997Z</time></trkpt><trkpt lat="44.5762717" lon="8.3496367"><ele>225.0</ele><time>2026-04-25T15:37:20.995Z</time></trkpt><trkpt lat="44.5763933" lon="8.3496667"><ele>228.0</ele><time>2026-04-25T15:37:21.995Z</time></trkpt><trkpt lat="44.576505" lon="8.349685"><ele>231.0</ele><time>2026-04-25T15:37:22.995Z</time></trkpt><trkpt lat="44.5766167" lon="8.3496817"><ele>234.0</ele><time>2026-04-25T15:37:23.995Z</time></trkpt><trkpt lat="44.5767283" lon="8.3496267"><ele>234.0</ele><time>2026-04-25T15:37:24.994Z</time></trkpt><trkpt lat="44.57684" lon="8.3495533"><ele>234.0</ele><time>2026-04-25T15:37:25.998Z</time></trkpt><trkpt lat="44.5769533" lon="8.3494667"><ele>234.0</ele><time>2026-04-25T15:37:27Z</time></trkpt><trkpt lat="44.5770733" lon="8.3493817"><ele>234.0</ele><time>2026-04-25T15:37:27.993Z</time></trkpt><trkpt lat="44.5771983" lon="8.3492983"><ele>231.66666666666669</ele><time>2026-04-25T15:37:28.996Z</time></trkpt><trkpt lat="44.5773333" lon="8.34921"><ele>229.33333333333334</ele><time>2026-04-25T15:37:29.997Z</time></trkpt><trkpt lat="44.57747" lon="8.3491183"><ele>227.0</ele><time>2026-04-25T15:37:30.998Z</time></trkpt><trkpt lat="44.57761" lon="8.3490383"><ele>227.0</ele><time>2026-04-25T15:37:31.997Z</time></trkpt><trkpt lat="44.57775" lon="8.348965"><ele>227.0</ele><time>2026-04-25T15:37:32.992Z</time></trkpt><trkpt lat="44.5778867" lon="8.3489033"><ele>227.0</ele><time>2026-04-25T15:37:33.995Z</time></trkpt><trkpt lat="44.5780217" lon="8.3488567"><ele>227.0</ele><time>2026-04-25T15:37:34.996Z</time></trkpt><trkpt lat="44.5781517" lon="8.3488167"><ele>225.6</ele><time>2026-04-25T15:37:36.001Z</time></trkpt><trkpt lat="44.578275" lon="8.34879"><ele>224.2</ele><time>2026-04-25T15:37:36.991Z</time></trkpt><trkpt lat="44.5783867" lon="8.3487683"><ele>222.8</ele><time>2026-04-25T15:37:37.991Z</time></trkpt><trkpt lat="44.57848" lon="8.3487583"><ele>221.4</ele><time>2026-04-25T15:37:38.993Z</time></trkpt><trkpt lat="44.5785467" lon="8.3487367"><ele>220.0</ele><time>2026-04-25T15:37:39.995Z</time></trkpt><trkpt lat="44.5786133" lon="8.34871"><ele>219.99999999999997</ele><time>2026-04-25T15:37:40.998Z</time></trkpt><trkpt lat="44.578655" lon="8.3486433"><ele>220.0</ele><time>2026-04-25T15:37:41.994Z</time></trkpt><trkpt lat="44.5786917" lon="8.3485617"><ele>220.0</ele><time>2026-04-25T15:37:42.994Z</time></trkpt><trkpt lat="44.5787017" lon="8.3484317"><ele>220.0</ele><time>2026-04-25T15:37:43.996Z</time></trkpt><trkpt lat="44.57873" lon="8.3483067"><ele>219.99999999999997</ele><time>2026-04-25T15:37:44.999Z</time></trkpt><trkpt lat="44.5787667" lon="8.348185"><ele>220.0</ele><time>2026-04-25T15:37:45.992Z</time></trkpt><trkpt lat="44.578825" lon="8.3480683"><ele>218.5</ele><time>2026-04-25T15:37:46.995Z</time></trkpt><trkpt lat="44.57891" lon="8.3479717"><ele>217.0</ele><time>2026-04-25T15:37:47.996Z</time></trkpt><trkpt lat="44.5790167" lon="8.347895"><ele>215.5</ele><time>2026-04-25T15:37:48.995Z</time></trkpt><trkpt lat="44.5791233" lon="8.3478183"><ele>214.0</ele><time>2026-04-25T15:37:49.996Z</time></trkpt><trkpt lat="44.5792167" lon="8.347715"><ele>214.0</ele><time>2026-04-25T15:37:50.993Z</time></trkpt><trkpt lat="44.5793017" lon="8.347595"><ele>214.0</ele><time>2026-04-25T15:37:51.995Z</time></trkpt><trkpt lat="44.5793617" lon="8.3474417"><ele>214.0</ele><time>2026-04-25T15:37:52.996Z</time></trkpt><trkpt lat="44.57941" lon="8.34729"><ele>214.0</ele><time>2026-04-25T15:37:54Z</time></trkpt><trkpt lat="44.5794267" lon="8.3471383"><ele>213.25</ele><time>2026-04-25T15:37:54.995Z</time></trkpt><trkpt lat="44.5794183" lon="8.34699"><ele>212.5</ele><time>2026-04-25T15:37:55.993Z</time></trkpt><trkpt lat="44.579375" lon="8.3468317"><ele>211.75</ele><time>2026-04-25T15:37:56.998Z</time></trkpt><trkpt lat="44.5793033" lon="8.3466783"><ele>211.0</ele><time>2026-04-25T15:37:57.995Z</time></trkpt><trkpt lat="44.5792067" lon="8.3465333"><ele>208.0</ele><time>2026-04-25T15:37:58.994Z</time></trkpt><trkpt lat="44.5791" lon="8.3463767"><ele>205.0</ele><time>2026-04-25T15:37:59.993Z</time></trkpt><trkpt lat="44.5789867" lon="8.3462067"><ele>202.0</ele><time>2026-04-25T15:38:00.996Z</time></trkpt><trkpt lat="44.57887" lon="8.3460283"><ele>202.0</ele><time>2026-04-25T15:38:01.994Z</time></trkpt><trkpt lat="44.5787733" lon="8.3458333"><ele>202.0</ele><time>2026-04-25T15:38:02.998Z</time></trkpt><trkpt lat="44.5786867" lon="8.345625"><ele>202.0</ele><time>2026-04-25T15:38:03.996Z</time></trkpt><trkpt lat="44.5786017" lon="8.3454083"><ele>204.0</ele><time>2026-04-25T15:38:04.994Z</time></trkpt><trkpt lat="44.5785183" lon="8.3451883"><ele>206.0</ele><time>2026-04-25T15:38:06.001Z</time></trkpt><trkpt lat="44.57843" lon="8.3449667"><ele>208.0</ele><time>2026-04-25T15:38:07Z</time></trkpt><trkpt lat="44.5783367" lon="8.3447517"><ele>207.66666666666666</ele><time>2026-04-25T15:38:07.994Z</time></trkpt><trkpt lat="44.5782417" lon="8.3445383"><ele>207.33333333333331</ele><time>2026-04-25T15:38:08.998Z</time></trkpt><trkpt lat="44.5781417" lon="8.3443267"><ele>207.0</ele><time>2026-04-25T15:38:09.994Z</time></trkpt><trkpt lat="44.57804" lon="8.3441183"><ele>207.0</ele><time>2026-04-25T15:38:10.999Z</time></trkpt><trkpt lat="44.577935" lon="8.3439167"><ele>207.0</ele><time>2026-04-25T15:38:11.995Z</time></trkpt><trkpt lat="44.57783" lon="8.3437183"><ele>207.0</ele><time>2026-04-25T15:38:12.996Z</time></trkpt><trkpt lat="44.5777283" lon="8.3435233"><ele>207.66666666666669</ele><time>2026-04-25T15:38:13.994Z</time></trkpt><trkpt lat="44.5776283" lon="8.3433317"><ele>208.33333333333334</ele><time>2026-04-25T15:38:14.996Z</time></trkpt><trkpt lat="44.5775317" lon="8.3431467"><ele>209.0</ele><time>2026-04-25T15:38:15.996Z</time></trkpt><trkpt lat="44.5774417" lon="8.3429683"><ele>209.0</ele><time>2026-04-25T15:38:16.995Z</time></trkpt><trkpt lat="44.5773617" lon="8.3427933"><ele>209.0</ele><time>2026-04-25T15:38:18.001Z</time></trkpt><trkpt lat="44.5773" lon="8.3426167"><ele>209.0</ele><time>2026-04-25T15:38:18.993Z</time></trkpt><trkpt lat="44.5772567" lon="8.34244"><ele>209.0</ele><time>2026-04-25T15:38:19.993Z</time></trkpt><trkpt lat="44.577235" lon="8.3422583"><ele>208.75</ele><time>2026-04-25T15:38:21.001Z</time></trkpt><trkpt lat="44.577235" lon="8.3420783"><ele>208.5</ele><time>2026-04-25T15:38:22Z</time></trkpt><trkpt lat="44.5772333" lon="8.34188"><ele>208.25</ele><time>2026-04-25T15:38:22.994Z</time></trkpt><trkpt lat="44.5772467" lon="8.3416817"><ele>208.0</ele><time>2026-04-25T15:38:24.002Z</time></trkpt><trkpt lat="44.5772717" lon="8.341495"><ele>207.25</ele><time>2026-04-25T15:38:24.995Z</time></trkpt><trkpt lat="44.577315" lon="8.34132"><ele>206.5</ele><time>2026-04-25T15:38:25.995Z</time></trkpt><trkpt lat="44.5773633" lon="8.34115"><ele>205.75</ele><time>2026-04-25T15:38:26.996Z</time></trkpt><trkpt lat="44.5774167" lon="8.3409883"><ele>205.0</ele><time>2026-04-25T15:38:27.996Z</time></trkpt><trkpt lat="44.57745" lon="8.34083"><ele>205.0</ele><time>2026-04-25T15:38:29.001Z</time></trkpt><trkpt lat="44.57746" lon="8.3406583"><ele>205.0</ele><time>2026-04-25T15:38:29.997Z</time></trkpt><trkpt lat="44.577455" lon="8.3404817"><ele>205.0</ele><time>2026-04-25T15:38:30.996Z</time></trkpt><trkpt lat="44.5774383" lon="8.3403233"><ele>205.0</ele><time>2026-04-25T15:38:31.994Z</time></trkpt><trkpt lat="44.5774067" lon="8.3401933"><ele>204.2</ele><time>2026-04-25T15:38:32.998Z</time></trkpt><trkpt lat="44.5773517" lon="8.3401017"><ele>203.4</ele><time>2026-04-25T15:38:33.996Z</time></trkpt><trkpt lat="44.577285" lon="8.3400167"><ele>202.60000000000002</ele><time>2026-04-25T15:38:34.995Z</time></trkpt><trkpt lat="44.5771917" lon="8.3399667"><ele>201.8</ele><time>2026-04-25T15:38:35.997Z</time></trkpt><trkpt lat="44.5770833" lon="8.3399083"><ele>201.0</ele><time>2026-04-25T15:38:36.996Z</time></trkpt><trkpt lat="44.57693" lon="8.3399"><ele>200.33333333333331</ele><time>2026-04-25T15:38:37.993Z</time></trkpt><trkpt lat="44.576775" lon="8.3398617"><ele>199.66666666666666</ele><time>2026-04-25T15:38:38.998Z</time></trkpt><trkpt lat="44.5766083" lon="8.33982"><ele>199.0</ele><time>2026-04-25T15:38:39.997Z</time></trkpt><trkpt lat="44.576435" lon="8.3397767"><ele>199.0</ele><time>2026-04-25T15:38:40.997Z</time></trkpt><trkpt lat="44.576255" lon="8.3397267"><ele>199.0</ele><time>2026-04-25T15:38:41.993Z</time></trkpt><trkpt lat="44.5760717" lon="8.3396733"><ele>199.0</ele><time>2026-04-25T15:38:43.002Z</time></trkpt><trkpt lat="44.5758883" lon="8.3396183"><ele>199.33333333333331</ele><time>2026-04-25T15:38:43.998Z</time></trkpt><trkpt lat="44.5757083" lon="8.3395667"><ele>199.66666666666669</ele><time>2026-04-25T15:38:44.998Z</time></trkpt><trkpt lat="44.5755267" lon="8.3395167"><ele>200.0</ele><time>2026-04-25T15:38:46.001Z</time></trkpt><trkpt lat="44.57534" lon="8.3394683"><ele>200.33333333333334</ele><time>2026-04-25T15:38:46.996Z</time></trkpt><trkpt lat="44.575155" lon="8.3394183"><ele>200.66666666666669</ele><time>2026-04-25T15:38:47.996Z</time></trkpt><trkpt lat="44.5749717" lon="8.3393717"><ele>201.0</ele><time>2026-04-25T15:38:48.993Z</time></trkpt><trkpt lat="44.574785" lon="8.3393267"><ele>201.0</ele><time>2026-04-25T15:38:49.997Z</time></trkpt><trkpt lat="44.574605" lon="8.33928"><ele>201.0</ele><time>2026-04-25T15:38:51.002Z</time></trkpt><trkpt lat="44.57443" lon="8.3392267"><ele>201.0</ele><time>2026-04-25T15:38:51.995Z</time></trkpt><trkpt lat="44.57427" lon="8.33915"><ele>201.33333333333331</ele><time>2026-04-25T15:38:52.996Z</time></trkpt><trkpt lat="44.57413" lon="8.3390417"><ele>201.66666666666666</ele><time>2026-04-25T15:38:53.996Z</time></trkpt><trkpt lat="44.574005" lon="8.3389017"><ele>202.0</ele><time>2026-04-25T15:38:54.998Z</time></trkpt><trkpt lat="44.5738917" lon="8.3387367"><ele>202.0</ele><time>2026-04-25T15:38:55.995Z</time></trkpt><trkpt lat="44.5737917" lon="8.3385533"><ele>202.0</ele><time>2026-04-25T15:38:56.998Z</time></trkpt><trkpt lat="44.5736917" lon="8.3383633"><ele>202.0</ele><time>2026-04-25T15:38:57.997Z</time></trkpt><trkpt lat="44.5735917" lon="8.3381733"><ele>203.66666666666666</ele><time>2026-04-25T15:38:58.998Z</time></trkpt><trkpt lat="44.5734967" lon="8.3379867"><ele>205.33333333333331</ele><time>2026-04-25T15:38:59.997Z</time></trkpt><trkpt lat="44.5734067" lon="8.3378017"><ele>207.0</ele><time>2026-04-25T15:39:01.001Z</time></trkpt><trkpt lat="44.5733083" lon="8.337635"><ele>207.0</ele><time>2026-04-25T15:39:01.996Z</time></trkpt><trkpt lat="44.57319" lon="8.3375017"><ele>207.0</ele><time>2026-04-25T15:39:02.997Z</time></trkpt><trkpt lat="44.57306" lon="8.3373867"><ele>207.0</ele><time>2026-04-25T15:39:04.001Z</time></trkpt><trkpt lat="44.5729233" lon="8.3372967"><ele>207.5</ele><time>2026-04-25T15:39:04.996Z</time></trkpt><trkpt lat="44.5727833" lon="8.33721"><ele>208.0</ele><time>2026-04-25T15:39:05.999Z</time></trkpt><trkpt lat="44.5726433" lon="8.3371283"><ele>208.5</ele><time>2026-04-25T15:39:06.997Z</time></trkpt><trkpt lat="44.5725117" lon="8.3370483"><ele>209.0</ele><time>2026-04-25T15:39:07.998Z</time></trkpt><trkpt lat="44.5723833" lon="8.3369767"><ele>209.0</ele><time>2026-04-25T15:39:09.002Z</time></trkpt><trkpt lat="44.5722583" lon="8.336905"><ele>209.0</ele><time>2026-04-25T15:39:10.004Z</time></trkpt><trkpt lat="44.5721417" lon="8.3368233"><ele>209.0</ele><time>2026-04-25T15:39:10.992Z</time></trkpt><trkpt lat="44.5720317" lon="8.3367283"><ele>209.0</ele><time>2026-04-25T15:39:11.998Z</time></trkpt><trkpt lat="44.5719267" lon="8.336625"><ele>209.25</ele><time>2026-04-25T15:39:13.002Z</time></trkpt><trkpt lat="44.5718367" lon="8.3365083"><ele>209.5</ele><time>2026-04-25T15:39:13.999Z</time></trkpt><trkpt lat="44.571755" lon="8.3363883"><ele>209.75</ele><time>2026-04-25T15:39:15.001Z</time></trkpt><trkpt lat="44.5716783" lon="8.3362533"><ele>210.0</ele><time>2026-04-25T15:39:16Z</time></trkpt><trkpt lat="44.571605" lon="8.3361033"><ele>210.0</ele><time>2026-04-25T15:39:17.003Z</time></trkpt><trkpt lat="44.571525" lon="8.3359433"><ele>210.0</ele><time>2026-04-25T15:39:17.996Z</time></trkpt><trkpt lat="44.5714417" lon="8.3357717"><ele>210.0</ele><time>2026-04-25T15:39:18.998Z</time></trkpt><trkpt lat="44.57135" lon="8.3355983"><ele>210.0</ele><time>2026-04-25T15:39:20Z</time></trkpt><trkpt lat="44.5712517" lon="8.3354183"><ele>210.66666666666669</ele><time>2026-04-25T15:39:20.998Z</time></trkpt><trkpt lat="44.5711533" lon="8.3352333"><ele>211.33333333333334</ele><time>2026-04-25T15:39:21.996Z</time></trkpt><trkpt lat="44.5710567" lon="8.3350483"><ele>212.0</ele><time>2026-04-25T15:39:22.996Z</time></trkpt><trkpt lat="44.5709567" lon="8.3348683"><ele>212.66666666666669</ele><time>2026-04-25T15:39:23.999Z</time></trkpt><trkpt lat="44.5708617" lon="8.33469"><ele>213.33333333333331</ele><time>2026-04-25T15:39:25Z</time></trkpt><trkpt lat="44.5707683" lon="8.33452"><ele>214.0</ele><time>2026-04-25T15:39:25.997Z</time></trkpt><trkpt lat="44.5706733" lon="8.3343517"><ele>214.0</ele><time>2026-04-25T15:39:27Z</time></trkpt><trkpt lat="44.5705783" lon="8.334185"><ele>214.0</ele><time>2026-04-25T15:39:27.994Z</time></trkpt><trkpt lat="44.570485" lon="8.3340217"><ele>214.0</ele><time>2026-04-25T15:39:29.001Z</time></trkpt><trkpt lat="44.57039" lon="8.3338617"><ele>215.25</ele><time>2026-04-25T15:39:29.993Z</time></trkpt><trkpt lat="44.5702983" lon="8.333705"><ele>216.5</ele><time>2026-04-25T15:39:30.994Z</time></trkpt><trkpt lat="44.57022" lon="8.333545"><ele>217.75</ele><time>2026-04-25T15:39:31.997Z</time></trkpt><trkpt lat="44.5701767" lon="8.33337"><ele>219.0</ele><time>2026-04-25T15:39:32.996Z</time></trkpt><trkpt lat="44.57014" lon="8.333205"><ele>219.0</ele><time>2026-04-25T15:39:33.996Z</time></trkpt><trkpt lat="44.5701067" lon="8.3330583"><ele>218.99999999999997</ele><time>2026-04-25T15:39:34.997Z</time></trkpt><trkpt lat="44.5700817" lon="8.332915"><ele>218.99999999999997</ele><time>2026-04-25T15:39:35.994Z</time></trkpt><trkpt lat="44.5700617" lon="8.3327783"><ele>219.0</ele><time>2026-04-25T15:39:36.998Z</time></trkpt><trkpt lat="44.5700433" lon="8.332665"><ele>219.0</ele><time>2026-04-25T15:39:37.998Z</time></trkpt><trkpt lat="44.5700367" lon="8.3325683"><ele>219.0</ele><time>2026-04-25T15:39:38.998Z</time></trkpt><trkpt lat="44.5700433" lon="8.3324083"><ele>218.99999999999997</ele><time>2026-04-25T15:39:40.998Z</time></trkpt><trkpt lat="44.5700833" lon="8.3323083"><ele>218.99999999999997</ele><time>2026-04-25T15:39:43.001Z</time></trkpt><trkpt lat="44.570195" lon="8.3322733"><ele>219.0</ele><time>2026-04-25T15:39:44.995Z</time></trkpt><trkpt lat="44.5702967" lon="8.3323017"><ele>219.0</ele><time>2026-04-25T15:39:45.994Z</time></trkpt><trkpt lat="44.570405" lon="8.3323183"><ele>218.5</ele><time>2026-04-25T15:39:46.995Z</time></trkpt><trkpt lat="44.57054" lon="8.3323433"><ele>218.0</ele><time>2026-04-25T15:39:47.996Z</time></trkpt><trkpt lat="44.5706617" lon="8.3323467"><ele>217.5</ele><time>2026-04-25T15:39:48.996Z</time></trkpt><trkpt lat="44.5707883" lon="8.3323483"><ele>217.0</ele><time>2026-04-25T15:39:49.999Z</time></trkpt><trkpt lat="44.5709167" lon="8.3323533"><ele>217.0</ele><time>2026-04-25T15:39:50.996Z</time></trkpt><trkpt lat="44.5710467" lon="8.3323567"><ele>217.0</ele><time>2026-04-25T15:39:51.995Z</time></trkpt><trkpt lat="44.5711783" lon="8.332365"><ele>217.0</ele><time>2026-04-25T15:39:53.001Z</time></trkpt><trkpt lat="44.5713067" lon="8.332365"><ele>217.0</ele><time>2026-04-25T15:39:53.993Z</time></trkpt><trkpt lat="44.5714283" lon="8.3323367"><ele>220.0</ele><time>2026-04-25T15:39:55.001Z</time></trkpt><trkpt lat="44.5715367" lon="8.3322583"><ele>223.0</ele><time>2026-04-25T15:39:55.996Z</time></trkpt><trkpt lat="44.57164" lon="8.3321317"><ele>226.0</ele><time>2026-04-25T15:39:56.996Z</time></trkpt><trkpt lat="44.5717417" lon="8.3319817"><ele>229.0</ele><time>2026-04-25T15:39:57.996Z</time></trkpt><trkpt lat="44.5718333" lon="8.3317967"><ele>229.0</ele><time>2026-04-25T15:39:58.994Z</time></trkpt><trkpt lat="44.57194" lon="8.331615"><ele>229.0</ele><time>2026-04-25T15:39:59.996Z</time></trkpt><trkpt lat="44.5720467" lon="8.3314467"><ele>229.0</ele><time>2026-04-25T15:40:00.997Z</time></trkpt><trkpt lat="44.5721533" lon="8.3312867"><ele>230.25</ele><time>2026-04-25T15:40:01.998Z</time></trkpt><trkpt lat="44.5722567" lon="8.3311317"><ele>231.5</ele><time>2026-04-25T15:40:02.996Z</time></trkpt><trkpt lat="44.5723567" lon="8.330995"><ele>232.75</ele><time>2026-04-25T15:40:03.993Z</time></trkpt><trkpt lat="44.572475" lon="8.3309"><ele>234.0</ele><time>2026-04-25T15:40:04.994Z</time></trkpt><trkpt lat="44.5725967" lon="8.3308067"><ele>234.0</ele><time>2026-04-25T15:40:05.995Z</time></trkpt><trkpt lat="44.5727283" lon="8.330745"><ele>234.0</ele><time>2026-04-25T15:40:06.999Z</time></trkpt><trkpt lat="44.5728667" lon="8.33069"><ele>234.0</ele><time>2026-04-25T15:40:07.997Z</time></trkpt><trkpt lat="44.573005" lon="8.3306617"><ele>234.0</ele><time>2026-04-25T15:40:08.997Z</time></trkpt><trkpt lat="44.5731417" lon="8.33065"><ele>233.75</ele><time>2026-04-25T15:40:09.999Z</time></trkpt><trkpt lat="44.57327" lon="8.3306283"><ele>233.5</ele><time>2026-04-25T15:40:10.994Z</time></trkpt><trkpt lat="44.5733883" lon="8.3305683"><ele>233.25</ele><time>2026-04-25T15:40:11.998Z</time></trkpt><trkpt lat="44.573505" lon="8.3304717"><ele>233.0</ele><time>2026-04-25T15:40:12.998Z</time></trkpt><trkpt lat="44.5736183" lon="8.330365"><ele>236.5</ele><time>2026-04-25T15:40:13.995Z</time></trkpt><trkpt lat="44.57373" lon="8.3302567"><ele>240.0</ele><time>2026-04-25T15:40:14.997Z</time></trkpt><trkpt lat="44.5738517" lon="8.3301683"><ele>243.5</ele><time>2026-04-25T15:40:15.997Z</time></trkpt><trkpt lat="44.5739667" lon="8.3300917"><ele>247.0</ele><time>2026-04-25T15:40:16.995Z</time></trkpt><trkpt lat="44.5740617" lon="8.3300217"><ele>246.99999999999997</ele><time>2026-04-25T15:40:18Z</time></trkpt><trkpt lat="44.574145" lon="8.3299867"><ele>247.0</ele><time>2026-04-25T15:40:18.999Z</time></trkpt><trkpt lat="44.57423" lon="8.329995"><ele>247.0</ele><time>2026-04-25T15:40:19.995Z</time></trkpt><trkpt lat="44.5743167" lon="8.3300217"><ele>247.0</ele><time>2026-04-25T15:40:20.995Z</time></trkpt><trkpt lat="44.5743967" lon="8.3300633"><ele>246.99999999999997</ele><time>2026-04-25T15:40:21.994Z</time></trkpt><trkpt lat="44.5744917" lon="8.3301067"><ele>247.0</ele><time>2026-04-25T15:40:22.995Z</time></trkpt><trkpt lat="44.5746067" lon="8.3301333"><ele>249.99999999999997</ele><time>2026-04-25T15:40:23.993Z</time></trkpt><trkpt lat="44.57471" lon="8.33016"><ele>253.0</ele><time>2026-04-25T15:40:24.995Z</time></trkpt><trkpt lat="44.5748" lon="8.33016"><ele>256.0</ele><time>2026-04-25T15:40:25.994Z</time></trkpt><trkpt lat="44.5748883" lon="8.330125"><ele>259.0</ele><time>2026-04-25T15:40:26.993Z</time></trkpt><trkpt lat="44.5749583" lon="8.3300683"><ele>262.0</ele><time>2026-04-25T15:40:27.993Z</time></trkpt><trkpt lat="44.575005" lon="8.3299967"><ele>265.0</ele><time>2026-04-25T15:40:28.996Z</time></trkpt><trkpt lat="44.5749817" lon="8.3298017"><ele>262.8</ele><time>2026-04-25T15:40:29.995Z</time></trkpt><trkpt lat="44.574985" lon="8.32965"><ele>260.6</ele><time>2026-04-25T15:40:31.002Z</time></trkpt><trkpt lat="44.5749983" lon="8.3295167"><ele>258.4</ele><time>2026-04-25T15:40:31.998Z</time></trkpt><trkpt lat="44.5750467" lon="8.32942"><ele>256.2</ele><time>2026-04-25T15:40:32.996Z</time></trkpt><trkpt lat="44.5751167" lon="8.3293533"><ele>254.0</ele><time>2026-04-25T15:40:34.001Z</time></trkpt><trkpt lat="44.5751983" lon="8.3293"><ele>254.0</ele><time>2026-04-25T15:40:34.994Z</time></trkpt><trkpt lat="44.5753033" lon="8.3292817"><ele>254.0</ele><time>2026-04-25T15:40:35.997Z</time></trkpt><trkpt lat="44.575435" lon="8.3292633"><ele>254.0</ele><time>2026-04-25T15:40:36.998Z</time></trkpt><trkpt lat="44.575565" lon="8.329225"><ele>254.0</ele><time>2026-04-25T15:40:37.997Z</time></trkpt><trkpt lat="44.5756967" lon="8.329195"><ele>257.0</ele><time>2026-04-25T15:40:38.996Z</time></trkpt><trkpt lat="44.5758167" lon="8.3291567"><ele>260.0</ele><time>2026-04-25T15:40:39.996Z</time></trkpt><trkpt lat="44.5759267" lon="8.3290833"><ele>263.0</ele><time>2026-04-25T15:40:40.995Z</time></trkpt><trkpt lat="44.576035" lon="8.3289967"><ele>266.0</ele><time>2026-04-25T15:40:41.999Z</time></trkpt><trkpt lat="44.57615" lon="8.3289383"><ele>264.6</ele><time>2026-04-25T15:40:42.994Z</time></trkpt><trkpt lat="44.576265" lon="8.3289067"><ele>263.20000000000005</ele><time>2026-04-25T15:40:43.999Z</time></trkpt><trkpt lat="44.5763633" lon="8.32889"><ele>261.79999999999995</ele><time>2026-04-25T15:40:44.999Z</time></trkpt><trkpt lat="44.5764633" lon="8.32886"><ele>260.4</ele><time>2026-04-25T15:40:45.991Z</time></trkpt><trkpt lat="44.5765467" lon="8.3287817"><ele>259.0</ele><time>2026-04-25T15:40:46.997Z</time></trkpt><trkpt lat="44.5766283" lon="8.3286817"><ele>262.5</ele><time>2026-04-25T15:40:47.994Z</time></trkpt><trkpt lat="44.5767017" lon="8.328565"><ele>266.0</ele><time>2026-04-25T15:40:48.998Z</time></trkpt><trkpt lat="44.5767617" lon="8.3284283"><ele>269.5</ele><time>2026-04-25T15:40:49.995Z</time></trkpt><trkpt lat="44.5768017" lon="8.3282767"><ele>273.0</ele><time>2026-04-25T15:40:50.999Z</time></trkpt><trkpt lat="44.5768167" lon="8.3281117"><ele>274.0</ele><time>2026-04-25T15:40:51.997Z</time></trkpt><trkpt lat="44.5768067" lon="8.327935"><ele>275.0</ele><time>2026-04-25T15:40:52.996Z</time></trkpt><trkpt lat="44.5767833" lon="8.3277733"><ele>276.0</ele><time>2026-04-25T15:40:53.996Z</time></trkpt><trkpt lat="44.5767733" lon="8.327605"><ele>277.0</ele><time>2026-04-25T15:40:54.993Z</time></trkpt><trkpt lat="44.5767833" lon="8.3274383"><ele>277.0</ele><time>2026-04-25T15:40:55.995Z</time></trkpt><trkpt lat="44.5768017" lon="8.3272717"><ele>277.0</ele><time>2026-04-25T15:40:56.993Z</time></trkpt><trkpt lat="44.5768183" lon="8.32711"><ele>277.0</ele><time>2026-04-25T15:40:57.997Z</time></trkpt><trkpt lat="44.576835" lon="8.326945"><ele>277.0</ele><time>2026-04-25T15:40:58.995Z</time></trkpt><trkpt lat="44.5768633" lon="8.3267883"><ele>275.8</ele><time>2026-04-25T15:40:59.997Z</time></trkpt><trkpt lat="44.57691" lon="8.326635"><ele>274.6</ele><time>2026-04-25T15:41:00.996Z</time></trkpt><trkpt lat="44.576965" lon="8.32651"><ele>273.40000000000003</ele><time>2026-04-25T15:41:01.997Z</time></trkpt><trkpt lat="44.5769833" lon="8.3263683"><ele>272.2</ele><time>2026-04-25T15:41:03.005Z</time></trkpt><trkpt lat="44.5769983" lon="8.32626"><ele>271.0</ele><time>2026-04-25T15:41:03.996Z</time></trkpt><trkpt lat="44.577015" lon="8.3261617"><ele>272.0</ele><time>2026-04-25T15:41:04.995Z</time></trkpt><trkpt lat="44.5771" lon="8.3261383"><ele>273.0</ele><time>2026-04-25T15:41:06.994Z</time></trkpt><trkpt lat="44.5771633" lon="8.3262217"><ele>274.0</ele><time>2026-04-25T15:41:08.999Z</time></trkpt><trkpt lat="44.5771" lon="8.3264767"><ele>275.0</ele><time>2026-04-25T15:41:10.996Z</time></trkpt><trkpt lat="44.5770367" lon="8.3266183"><ele>274.0</ele><time>2026-04-25T15:41:11.996Z</time></trkpt><trkpt lat="44.5769933" lon="8.326735"><ele>273.0</ele><time>2026-04-25T15:41:12.997Z</time></trkpt><trkpt lat="44.5769517" lon="8.3268967"><ele>272.0</ele><time>2026-04-25T15:41:13.995Z</time></trkpt><trkpt lat="44.57695" lon="8.3270533"><ele>271.0</ele><time>2026-04-25T15:41:14.993Z</time></trkpt><trkpt lat="44.5769783" lon="8.327225"><ele>279.25</ele><time>2026-04-25T15:41:16Z</time></trkpt><trkpt lat="44.5770233" lon="8.3273967"><ele>287.5</ele><time>2026-04-25T15:41:16.995Z</time></trkpt><trkpt lat="44.5770767" lon="8.3275683"><ele>295.75</ele><time>2026-04-25T15:41:17.996Z</time></trkpt><trkpt lat="44.577115" lon="8.3277317"><ele>304.0</ele><time>2026-04-25T15:41:18.996Z</time></trkpt><trkpt lat="44.57714" lon="8.3278683"><ele>304.0</ele><time>2026-04-25T15:41:19.998Z</time></trkpt><trkpt lat="44.5771717" lon="8.3279833"><ele>304.0</ele><time>2026-04-25T15:41:20.992Z</time></trkpt><trkpt lat="44.5772083" lon="8.3280833"><ele>304.0</ele><time>2026-04-25T15:41:22.002Z</time></trkpt><trkpt lat="44.5773133" lon="8.328105"><ele>304.0</ele><time>2026-04-25T15:41:23.993Z</time></trkpt><trkpt lat="44.57736" lon="8.32799"><ele>304.0</ele><time>2026-04-25T15:41:25.996Z</time></trkpt><trkpt lat="44.5773667" lon="8.327865"><ele>304.0</ele><time>2026-04-25T15:41:26.999Z</time></trkpt><trkpt lat="44.5773583" lon="8.3277383"><ele>304.0</ele><time>2026-04-25T15:41:28.001Z</time></trkpt><trkpt lat="44.5772917" lon="8.3275567"><ele>304.0</ele><time>2026-04-25T15:41:28.994Z</time></trkpt><trkpt lat="44.5772533" lon="8.32739"><ele>304.0</ele><time>2026-04-25T15:41:29.994Z</time></trkpt><trkpt lat="44.577225" lon="8.3272267"><ele>302.8</ele><time>2026-04-25T15:41:30.994Z</time></trkpt><trkpt lat="44.5772033" lon="8.3270817"><ele>301.59999999999997</ele><time>2026-04-25T15:41:31.992Z</time></trkpt><trkpt lat="44.5772067" lon="8.3269483"><ele>300.4</ele><time>2026-04-25T15:41:32.997Z</time></trkpt><trkpt lat="44.5772317" lon="8.3268067"><ele>299.2</ele><time>2026-04-25T15:41:34.001Z</time></trkpt><trkpt lat="44.577295" lon="8.3267083"><ele>298.0</ele><time>2026-04-25T15:41:34.997Z</time></trkpt><trkpt lat="44.5773983" lon="8.3266417"><ele>298.0</ele><time>2026-04-25T15:41:35.996Z</time></trkpt><trkpt lat="44.577515" lon="8.3266017"><ele>298.0</ele><time>2026-04-25T15:41:36.996Z</time></trkpt><trkpt lat="44.577605" lon="8.3265517"><ele>298.0</ele><time>2026-04-25T15:41:37.994Z</time></trkpt><trkpt lat="44.5776883" lon="8.3265117"><ele>298.0</ele><time>2026-04-25T15:41:38.997Z</time></trkpt><trkpt lat="44.5777717" lon="8.3264967"><ele>298.0</ele><time>2026-04-25T15:41:39.993Z</time></trkpt><trkpt lat="44.5778233" lon="8.326585"><ele>298.0</ele><time>2026-04-25T15:41:40.998Z</time></trkpt><trkpt lat="44.5778667" lon="8.3266533"><ele>298.0</ele><time>2026-04-25T15:41:41.998Z</time></trkpt><trkpt lat="44.577825" lon="8.3267383"><ele>298.0</ele><time>2026-04-25T15:41:43Z</time></trkpt><trkpt lat="44.577745" lon="8.3268"><ele>298.0</ele><time>2026-04-25T15:41:43.997Z</time></trkpt><trkpt lat="44.57765" lon="8.3268533"><ele>298.0</ele><time>2026-04-25T15:41:44.998Z</time></trkpt><trkpt lat="44.5775483" lon="8.3269167"><ele>298.0</ele><time>2026-04-25T15:41:45.994Z</time></trkpt><trkpt lat="44.5774683" lon="8.3269817"><ele>298.0</ele><time>2026-04-25T15:41:46.996Z</time></trkpt><trkpt lat="44.577405" lon="8.32705"><ele>298.0</ele><time>2026-04-25T15:41:47.994Z</time></trkpt><trkpt lat="44.5773983" lon="8.3271783"><ele>298.0</ele><time>2026-04-25T15:41:49.002Z</time></trkpt><trkpt lat="44.5773967" lon="8.3273"><ele>298.0</ele><time>2026-04-25T15:41:49.992Z</time></trkpt><trkpt lat="44.57741" lon="8.3274283"><ele>298.0</ele><time>2026-04-25T15:41:50.995Z</time></trkpt><trkpt lat="44.5774417" lon="8.327535"><ele>298.0</ele><time>2026-04-25T15:41:51.996Z</time></trkpt><trkpt lat="44.5775017" lon="8.3275667"><ele>298.0</ele><time>2026-04-25T15:41:52.995Z</time></trkpt><trkpt lat="44.5775667" lon="8.3275583"><ele>298.0</ele><time>2026-04-25T15:41:53.996Z</time></trkpt><trkpt lat="44.5776567" lon="8.327485"><ele>298.0</ele><time>2026-04-25T15:41:55.993Z</time></trkpt><trkpt lat="44.5776417" lon="8.3273367"><ele>298.0</ele><time>2026-04-25T15:41:57.996Z</time></trkpt><trkpt lat="44.5776383" lon="8.3271767"><ele>298.0</ele><time>2026-04-25T15:41:59.994Z</time></trkpt><trkpt lat="44.5776817" lon="8.3270317"><ele>298.0</ele><time>2026-04-25T15:42:01.999Z</time></trkpt><trkpt lat="44.5777967" lon="8.3269233"><ele>298.0</ele><time>2026-04-25T15:42:03.995Z</time></trkpt><trkpt lat="44.5778767" lon="8.32691"><ele>298.0</ele><time>2026-04-25T15:42:04.996Z</time></trkpt><trkpt lat="44.57813" lon="8.3271"><ele>301.5</ele><time>2026-04-25T15:42:05.999Z</time></trkpt><trkpt lat="44.578265" lon="8.3271433"><ele>305.0</ele><time>2026-04-25T15:42:06.999Z</time></trkpt><trkpt lat="44.5784017" lon="8.3271683"><ele>308.5</ele><time>2026-04-25T15:42:07.997Z</time></trkpt><trkpt lat="44.5785283" lon="8.327135"><ele>312.0</ele><time>2026-04-25T15:42:08.992Z</time></trkpt><trkpt lat="44.5786483" lon="8.32706"><ele>319.3333333333333</ele><time>2026-04-25T15:42:09.992Z</time></trkpt><trkpt lat="44.5787783" lon="8.3269567"><ele>326.66666666666663</ele><time>2026-04-25T15:42:10.995Z</time></trkpt><trkpt lat="44.5789217" lon="8.3268283"><ele>334.0</ele><time>2026-04-25T15:42:11.996Z</time></trkpt><trkpt lat="44.5790767" lon="8.326685"><ele>334.0</ele><time>2026-04-25T15:42:12.998Z</time></trkpt><trkpt lat="44.579235" lon="8.3265367"><ele>334.0</ele><time>2026-04-25T15:42:13.995Z</time></trkpt><trkpt lat="44.5794017" lon="8.32639"><ele>334.0</ele><time>2026-04-25T15:42:14.995Z</time></trkpt><trkpt lat="44.5795667" lon="8.326225"><ele>339.0</ele><time>2026-04-25T15:42:15.995Z</time></trkpt><trkpt lat="44.5797233" lon="8.3260633"><ele>344.0</ele><time>2026-04-25T15:42:16.994Z</time></trkpt><trkpt lat="44.579865" lon="8.3259017"><ele>349.0</ele><time>2026-04-25T15:42:17.994Z</time></trkpt><trkpt lat="44.5799833" lon="8.3257483"><ele>349.0</ele><time>2026-04-25T15:42:18.993Z</time></trkpt><trkpt lat="44.5800867" lon="8.3256383"><ele>349.0</ele><time>2026-04-25T15:42:19.998Z</time></trkpt><trkpt lat="44.5801883" lon="8.3255633"><ele>349.0</ele><time>2026-04-25T15:42:20.997Z</time></trkpt><trkpt lat="44.580295" lon="8.3255283"><ele>349.0</ele><time>2026-04-25T15:42:22.001Z</time></trkpt><trkpt lat="44.5804033" lon="8.3255467"><ele>350.4</ele><time>2026-04-25T15:42:22.992Z</time></trkpt><trkpt lat="44.5805183" lon="8.325555"><ele>351.79999999999995</ele><time>2026-04-25T15:42:23.993Z</time></trkpt><trkpt lat="44.5806283" lon="8.3255417"><ele>353.20000000000005</ele><time>2026-04-25T15:42:24.997Z</time></trkpt><trkpt lat="44.58073" lon="8.3254967"><ele>354.6</ele><time>2026-04-25T15:42:25.994Z</time></trkpt><trkpt lat="44.5808283" lon="8.3254233"><ele>356.0</ele><time>2026-04-25T15:42:26.999Z</time></trkpt><trkpt lat="44.5809017" lon="8.325305"><ele>356.0</ele><time>2026-04-25T15:42:27.992Z</time></trkpt><trkpt lat="44.58098" lon="8.3251817"><ele>356.0</ele><time>2026-04-25T15:42:29.001Z</time></trkpt><trkpt lat="44.5810517" lon="8.3250567"><ele>356.0</ele><time>2026-04-25T15:42:29.992Z</time></trkpt><trkpt lat="44.5811067" lon="8.3249233"><ele>356.0</ele><time>2026-04-25T15:42:30.994Z</time></trkpt><trkpt lat="44.5811517" lon="8.3248067"><ele>356.0</ele><time>2026-04-25T15:42:31.995Z</time></trkpt><trkpt lat="44.58115" lon="8.3246717"><ele>357.25</ele><time>2026-04-25T15:42:32.992Z</time></trkpt><trkpt lat="44.5811083" lon="8.32453"><ele>358.5</ele><time>2026-04-25T15:42:33.996Z</time></trkpt><trkpt lat="44.581045" lon="8.3243983"><ele>359.75</ele><time>2026-04-25T15:42:34.995Z</time></trkpt><trkpt lat="44.580955" lon="8.3242817"><ele>361.0</ele><time>2026-04-25T15:42:35.994Z</time></trkpt><trkpt lat="44.58087" lon="8.324185"><ele>361.0</ele><time>2026-04-25T15:42:36.995Z</time></trkpt><trkpt lat="44.5808" lon="8.32411"><ele>361.0</ele><time>2026-04-25T15:42:37.992Z</time></trkpt><trkpt lat="44.580745" lon="8.324035"><ele>361.0</ele><time>2026-04-25T15:42:38.998Z</time></trkpt><trkpt lat="44.5807617" lon="8.3238783"><ele>361.0</ele><time>2026-04-25T15:42:40.993Z</time></trkpt><trkpt lat="44.5808567" lon="8.32376"><ele>361.0</ele><time>2026-04-25T15:42:42.996Z</time></trkpt><trkpt lat="44.580925" lon="8.32375"><ele>361.0</ele><time>2026-04-25T15:42:43.998Z</time></trkpt><trkpt lat="44.5810017" lon="8.3237783"><ele>361.0</ele><time>2026-04-25T15:42:44.995Z</time></trkpt><trkpt lat="44.581095" lon="8.32395"><ele>361.0</ele><time>2026-04-25T15:42:45.997Z</time></trkpt><trkpt lat="44.581175" lon="8.3241233"><ele>361.0</ele><time>2026-04-25T15:42:46.993Z</time></trkpt><trkpt lat="44.58125" lon="8.32428"><ele>364.25</ele><time>2026-04-25T15:42:47.991Z</time></trkpt><trkpt lat="44.581325" lon="8.3244383"><ele>367.5</ele><time>2026-04-25T15:42:48.995Z</time></trkpt><trkpt lat="44.5814067" lon="8.324585"><ele>370.75</ele><time>2026-04-25T15:42:49.995Z</time></trkpt><trkpt lat="44.5814967" lon="8.3246983"><ele>374.0</ele><time>2026-04-25T15:42:51.005Z</time></trkpt><trkpt lat="44.581595" lon="8.3247817"><ele>374.0</ele><time>2026-04-25T15:42:51.998Z</time></trkpt><trkpt lat="44.5817133" lon="8.324835"><ele>374.0</ele><time>2026-04-25T15:42:52.994Z</time></trkpt><trkpt lat="44.5818483" lon="8.3248583"><ele>374.0</ele><time>2026-04-25T15:42:54.002Z</time></trkpt><trkpt lat="44.5819933" lon="8.3248733"><ele>374.0</ele><time>2026-04-25T15:42:54.996Z</time></trkpt><trkpt lat="44.5821483" lon="8.3249"><ele>379.0</ele><time>2026-04-25T15:42:55.996Z</time></trkpt><trkpt lat="44.5823033" lon="8.32494"><ele>384.0</ele><time>2026-04-25T15:42:56.995Z</time></trkpt><trkpt lat="44.5824517" lon="8.325015"><ele>389.0</ele><time>2026-04-25T15:42:57.994Z</time></trkpt><trkpt lat="44.5825917" lon="8.3251217"><ele>389.0</ele><time>2026-04-25T15:42:58.995Z</time></trkpt><trkpt lat="44.58272" lon="8.3252517"><ele>389.0</ele><time>2026-04-25T15:42:59.995Z</time></trkpt><trkpt lat="44.5828417" lon="8.3253667"><ele>389.0</ele><time>2026-04-25T15:43:00.997Z</time></trkpt><trkpt lat="44.5829617" lon="8.3254617"><ele>389.0</ele><time>2026-04-25T15:43:01.995Z</time></trkpt><trkpt lat="44.5830933" lon="8.3255217"><ele>389.5</ele><time>2026-04-25T15:43:02.997Z</time></trkpt><trkpt lat="44.5832367" lon="8.3255583"><ele>390.0</ele><time>2026-04-25T15:43:03.999Z</time></trkpt><trkpt lat="44.5833817" lon="8.3255783"><ele>390.5</ele><time>2026-04-25T15:43:04.995Z</time></trkpt><trkpt lat="44.583535" lon="8.3255867"><ele>391.0</ele><time>2026-04-25T15:43:05.999Z</time></trkpt><trkpt lat="44.5836867" lon="8.3255883"><ele>391.0</ele><time>2026-04-25T15:43:06.995Z</time></trkpt><trkpt lat="44.5838367" lon="8.3255917"><ele>391.0</ele><time>2026-04-25T15:43:07.996Z</time></trkpt><trkpt lat="44.58398" lon="8.3255783"><ele>391.0</ele><time>2026-04-25T15:43:08.998Z</time></trkpt><trkpt lat="44.5841083" lon="8.32554"><ele>391.0</ele><time>2026-04-25T15:43:09.997Z</time></trkpt><trkpt lat="44.5842233" lon="8.325465"><ele>393.25</ele><time>2026-04-25T15:43:10.997Z</time></trkpt><trkpt lat="44.5843317" lon="8.3253483"><ele>395.5</ele><time>2026-04-25T15:43:11.992Z</time></trkpt><trkpt lat="44.5844367" lon="8.32521"><ele>397.75</ele><time>2026-04-25T15:43:12.998Z</time></trkpt><trkpt lat="44.5845417" lon="8.3250617"><ele>400.0</ele><time>2026-04-25T15:43:13.994Z</time></trkpt><trkpt lat="44.584655" lon="8.3249067"><ele>400.0</ele><time>2026-04-25T15:43:15.001Z</time></trkpt><trkpt lat="44.5847833" lon="8.3247433"><ele>400.0</ele><time>2026-04-25T15:43:15.994Z</time></trkpt><trkpt lat="44.5849133" lon="8.3245883"><ele>400.0</ele><time>2026-04-25T15:43:16.994Z</time></trkpt><trkpt lat="44.5850533" lon="8.3244367"><ele>401.6666666666667</ele><time>2026-04-25T15:43:17.993Z</time></trkpt><trkpt lat="44.5851917" lon="8.3242917"><ele>403.33333333333337</ele><time>2026-04-25T15:43:18.994Z</time></trkpt><trkpt lat="44.5853217" lon="8.3241467"><ele>405.0</ele><time>2026-04-25T15:43:19.998Z</time></trkpt><trkpt lat="44.585445" lon="8.3240167"><ele>405.0</ele><time>2026-04-25T15:43:20.996Z</time></trkpt><trkpt lat="44.5855867" lon="8.323925"><ele>405.0</ele><time>2026-04-25T15:43:21.996Z</time></trkpt><trkpt lat="44.5857117" lon="8.3238683"><ele>405.0</ele><time>2026-04-25T15:43:22.995Z</time></trkpt><trkpt lat="44.5858133" lon="8.3238217"><ele>405.0</ele><time>2026-04-25T15:43:23.998Z</time></trkpt><trkpt lat="44.5858983" lon="8.3237733"><ele>407.2</ele><time>2026-04-25T15:43:24.997Z</time></trkpt><trkpt lat="44.58597" lon="8.3237183"><ele>409.4</ele><time>2026-04-25T15:43:25.994Z</time></trkpt><trkpt lat="44.585985" lon="8.32362"><ele>411.6</ele><time>2026-04-25T15:43:26.994Z</time></trkpt><trkpt lat="44.5859533" lon="8.3234433"><ele>413.8</ele><time>2026-04-25T15:43:28.997Z</time></trkpt><trkpt lat="44.5858733" lon="8.32333"><ele>416.0</ele><time>2026-04-25T15:43:29.993Z</time></trkpt><trkpt lat="44.5857917" lon="8.3232233"><ele>416.0</ele><time>2026-04-25T15:43:30.994Z</time></trkpt><trkpt lat="44.5857167" lon="8.3231133"><ele>416.0</ele><time>2026-04-25T15:43:31.994Z</time></trkpt><trkpt lat="44.5856583" lon="8.3229883"><ele>416.0</ele><time>2026-04-25T15:43:32.997Z</time></trkpt><trkpt lat="44.585635" lon="8.322855"><ele>416.0</ele><time>2026-04-25T15:43:33.997Z</time></trkpt><trkpt lat="44.5856433" lon="8.3227267"><ele>416.0</ele><time>2026-04-25T15:43:34.997Z</time></trkpt><trkpt lat="44.5856567" lon="8.3226033"><ele>417.8</ele><time>2026-04-25T15:43:35.997Z</time></trkpt><trkpt lat="44.5857133" lon="8.32247"><ele>419.6</ele><time>2026-04-25T15:43:36.999Z</time></trkpt><trkpt lat="44.5857717" lon="8.3223533"><ele>421.4</ele><time>2026-04-25T15:43:37.996Z</time></trkpt><trkpt lat="44.5858283" lon="8.3222383"><ele>423.2</ele><time>2026-04-25T15:43:39.001Z</time></trkpt><trkpt lat="44.5858617" lon="8.32212"><ele>425.0</ele><time>2026-04-25T15:43:40Z</time></trkpt><trkpt lat="44.5858533" lon="8.32201"><ele>426.49999999999994</ele><time>2026-04-25T15:43:40.996Z</time></trkpt><trkpt lat="44.585805" lon="8.3219367"><ele>428.0</ele><time>2026-04-25T15:43:41.998Z</time></trkpt><trkpt lat="44.5857433" lon="8.3218883"><ele>429.5</ele><time>2026-04-25T15:43:42.998Z</time></trkpt><trkpt lat="44.5856633" lon="8.3219083"><ele>431.0</ele><time>2026-04-25T15:43:43.998Z</time></trkpt><trkpt lat="44.58558" lon="8.32194"><ele>432.49999999999994</ele><time>2026-04-25T15:43:44.997Z</time></trkpt><trkpt lat="44.5854917" lon="8.32204"><ele>434.0</ele><time>2026-04-25T15:43:45.996Z</time></trkpt><trkpt lat="44.5854" lon="8.3221467"><ele>435.5</ele><time>2026-04-25T15:43:47.002Z</time></trkpt><trkpt lat="44.5852967" lon="8.322265"><ele>437.0</ele><time>2026-04-25T15:43:47.999Z</time></trkpt><trkpt lat="44.5851833" lon="8.3223883"><ele>438.5</ele><time>2026-04-25T15:43:48.998Z</time></trkpt><trkpt lat="44.5850733" lon="8.3225117"><ele>440.0</ele><time>2026-04-25T15:43:50.003Z</time></trkpt><trkpt lat="44.58498" lon="8.32264"><ele>440.0</ele><time>2026-04-25T15:43:50.998Z</time></trkpt><trkpt lat="44.5849083" lon="8.3227717"><ele>440.0</ele><time>2026-04-25T15:43:51.999Z</time></trkpt><trkpt lat="44.58486" lon="8.32292"><ele>440.0</ele><time>2026-04-25T15:43:52.997Z</time></trkpt><trkpt lat="44.5848467" lon="8.3230917"><ele>440.0</ele><time>2026-04-25T15:43:53.996Z</time></trkpt><trkpt lat="44.58484" lon="8.32327"><ele>438.75</ele><time>2026-04-25T15:43:54.996Z</time></trkpt><trkpt lat="44.5848217" lon="8.3234533"><ele>437.5</ele><time>2026-04-25T15:43:55.998Z</time></trkpt><trkpt lat="44.58479" lon="8.3236317"><ele>436.25</ele><time>2026-04-25T15:43:56.998Z</time></trkpt><trkpt lat="44.5847517" lon="8.32379"><ele>435.0</ele><time>2026-04-25T15:43:58.002Z</time></trkpt><trkpt lat="44.5847067" lon="8.32395"><ele>433.0</ele><time>2026-04-25T15:43:58.994Z</time></trkpt><trkpt lat="44.58465" lon="8.3240967"><ele>431.0</ele><time>2026-04-25T15:43:59.999Z</time></trkpt><trkpt lat="44.584555" lon="8.324205"><ele>429.0</ele><time>2026-04-25T15:44:00.998Z</time></trkpt><trkpt lat="44.5844567" lon="8.324305"><ele>427.0</ele><time>2026-04-25T15:44:02Z</time></trkpt><trkpt lat="44.584375" lon="8.3244183"><ele>432.0</ele><time>2026-04-25T15:44:03.001Z</time></trkpt><trkpt lat="44.584295" lon="8.3245133"><ele>437.0</ele><time>2026-04-25T15:44:03.999Z</time></trkpt><trkpt lat="44.5842233" lon="8.3245883"><ele>442.0</ele><time>2026-04-25T15:44:04.999Z</time></trkpt><trkpt lat="44.5840733" lon="8.3245317"><ele>447.0</ele><time>2026-04-25T15:44:05.996Z</time></trkpt><trkpt lat="44.5839583" lon="8.3245167"><ele>447.0</ele><time>2026-04-25T15:44:07.005Z</time></trkpt><trkpt lat="44.58379" lon="8.3244117"><ele>447.0</ele><time>2026-04-25T15:44:07.996Z</time></trkpt><trkpt lat="44.5836617" lon="8.3243333"><ele>447.0</ele><time>2026-04-25T15:44:08.999Z</time></trkpt><trkpt lat="44.5835467" lon="8.3242583"><ele>445.75</ele><time>2026-04-25T15:44:09.999Z</time></trkpt><trkpt lat="44.5834633" lon="8.3241683"><ele>444.5</ele><time>2026-04-25T15:44:10.999Z</time></trkpt><trkpt lat="44.583415" lon="8.32407"><ele>443.25</ele><time>2026-04-25T15:44:11.995Z</time></trkpt><trkpt lat="44.5833717" lon="8.3239583"><ele>442.0</ele><time>2026-04-25T15:44:12.995Z</time></trkpt><trkpt lat="44.5834483" lon="8.3237"><ele>442.0</ele><time>2026-04-25T15:44:13.995Z</time></trkpt><trkpt lat="44.5834733" lon="8.3235567"><ele>442.0</ele><time>2026-04-25T15:44:15.001Z</time></trkpt><trkpt lat="44.5835483" lon="8.3233517"><ele>442.0</ele><time>2026-04-25T15:44:15.994Z</time></trkpt><trkpt lat="44.5836" lon="8.323135"><ele>442.0</ele><time>2026-04-25T15:44:16.996Z</time></trkpt><trkpt lat="44.5836883" lon="8.3229367"><ele>445.6666666666667</ele><time>2026-04-25T15:44:18Z</time></trkpt><trkpt lat="44.5837733" lon="8.3227633"><ele>449.33333333333337</ele><time>2026-04-25T15:44:18.997Z</time></trkpt><trkpt lat="44.5838617" lon="8.3225883"><ele>453.0</ele><time>2026-04-25T15:44:19.998Z</time></trkpt><trkpt lat="44.583945" lon="8.3223883"><ele>455.0</ele><time>2026-04-25T15:44:21Z</time></trkpt><trkpt lat="44.5840183" lon="8.322175"><ele>457.0</ele><time>2026-04-25T15:44:22Z</time></trkpt><trkpt lat="44.5840817" lon="8.3219617"><ele>459.0</ele><time>2026-04-25T15:44:22.993Z</time></trkpt><trkpt lat="44.5841367" lon="8.3217517"><ele>459.0</ele><time>2026-04-25T15:44:23.995Z</time></trkpt><trkpt lat="44.584185" lon="8.321545"><ele>459.0</ele><time>2026-04-25T15:44:24.999Z</time></trkpt><trkpt lat="44.584215" lon="8.32137"><ele>459.0</ele><time>2026-04-25T15:44:25.997Z</time></trkpt><trkpt lat="44.5842183" lon="8.3212083"><ele>459.0</ele><time>2026-04-25T15:44:26.998Z</time></trkpt><trkpt lat="44.584185" lon="8.3210467"><ele>461.4</ele><time>2026-04-25T15:44:27.996Z</time></trkpt><trkpt lat="44.584135" lon="8.3208983"><ele>463.79999999999995</ele><time>2026-04-25T15:44:28.995Z</time></trkpt><trkpt lat="44.5840917" lon="8.320755"><ele>466.20000000000005</ele><time>2026-04-25T15:44:29.999Z</time></trkpt><trkpt lat="44.5840733" lon="8.32062"><ele>468.6</ele><time>2026-04-25T15:44:30.995Z</time></trkpt><trkpt lat="44.5840783" lon="8.3204867"><ele>471.0</ele><time>2026-04-25T15:44:31.998Z</time></trkpt><trkpt lat="44.5841083" lon="8.320345"><ele>472.0</ele><time>2026-04-25T15:44:32.996Z</time></trkpt><trkpt lat="44.5841533" lon="8.3201817"><ele>473.0</ele><time>2026-04-25T15:44:33.999Z</time></trkpt><trkpt lat="44.5842083" lon="8.32001"><ele>474.0</ele><time>2026-04-25T15:44:34.996Z</time></trkpt><trkpt lat="44.5842633" lon="8.31984"><ele>475.0</ele><time>2026-04-25T15:44:36.002Z</time></trkpt><trkpt lat="44.5843183" lon="8.319675"><ele>477.8</ele><time>2026-04-25T15:44:36.993Z</time></trkpt><trkpt lat="44.584375" lon="8.3195417"><ele>480.6</ele><time>2026-04-25T15:44:37.999Z</time></trkpt><trkpt lat="44.5844417" lon="8.3194433"><ele>483.4</ele><time>2026-04-25T15:44:39.002Z</time></trkpt><trkpt lat="44.584505" lon="8.3193617"><ele>486.2</ele><time>2026-04-25T15:44:39.997Z</time></trkpt><trkpt lat="44.5845783" lon="8.3193033"><ele>489.0</ele><time>2026-04-25T15:44:40.996Z</time></trkpt><trkpt lat="44.584665" lon="8.3192583"><ele>489.0</ele><time>2026-04-25T15:44:41.996Z</time></trkpt><trkpt lat="44.5847717" lon="8.3192183"><ele>489.0</ele><time>2026-04-25T15:44:42.994Z</time></trkpt><trkpt lat="44.58487" lon="8.3191467"><ele>489.0</ele><time>2026-04-25T15:44:43.998Z</time></trkpt><trkpt lat="44.5849683" lon="8.3190683"><ele>489.0</ele><time>2026-04-25T15:44:44.999Z</time></trkpt><trkpt lat="44.585055" lon="8.3189633"><ele>489.0</ele><time>2026-04-25T15:44:45.993Z</time></trkpt><trkpt lat="44.585145" lon="8.3188533"><ele>483.5</ele><time>2026-04-25T15:44:47.001Z</time></trkpt><trkpt lat="44.5852183" lon="8.318725"><ele>478.0</ele><time>2026-04-25T15:44:47.994Z</time></trkpt><trkpt lat="44.5852633" lon="8.318585"><ele>472.5</ele><time>2026-04-25T15:44:48.998Z</time></trkpt><trkpt lat="44.5852817" lon="8.3184267"><ele>467.0</ele><time>2026-04-25T15:44:49.996Z</time></trkpt><trkpt lat="44.5852967" lon="8.31827"><ele>467.0</ele><time>2026-04-25T15:44:50.993Z</time></trkpt><trkpt lat="44.58531" lon="8.3181133"><ele>467.00000000000006</ele><time>2026-04-25T15:44:51.996Z</time></trkpt><trkpt lat="44.5853667" lon="8.3179733"><ele>467.00000000000006</ele><time>2026-04-25T15:44:52.999Z</time></trkpt><trkpt lat="44.5854233" lon="8.3178417"><ele>467.0</ele><time>2026-04-25T15:44:54.002Z</time></trkpt><trkpt lat="44.5855033" lon="8.3177433"><ele>467.0</ele><time>2026-04-25T15:44:54.995Z</time></trkpt><trkpt lat="44.5856017" lon="8.317655"><ele>470.75</ele><time>2026-04-25T15:44:55.998Z</time></trkpt><trkpt lat="44.5857133" lon="8.3175533"><ele>474.5</ele><time>2026-04-25T15:44:56.996Z</time></trkpt><trkpt lat="44.585835" lon="8.3174417"><ele>478.25</ele><time>2026-04-25T15:44:57.997Z</time></trkpt><trkpt lat="44.5859467" lon="8.3173"><ele>482.0</ele><time>2026-04-25T15:44:58.998Z</time></trkpt><trkpt lat="44.5860517" lon="8.317155"><ele>482.0</ele><time>2026-04-25T15:44:59.996Z</time></trkpt><trkpt lat="44.5861583" lon="8.3170067"><ele>482.0</ele><time>2026-04-25T15:45:00.996Z</time></trkpt><trkpt lat="44.5862567" lon="8.3168467"><ele>482.0</ele><time>2026-04-25T15:45:01.994Z</time></trkpt><trkpt lat="44.5863483" lon="8.3166733"><ele>489.66666666666663</ele><time>2026-04-25T15:45:02.997Z</time></trkpt><trkpt lat="44.58643" lon="8.3164883"><ele>497.33333333333337</ele><time>2026-04-25T15:45:03.997Z</time></trkpt><trkpt lat="44.586515" lon="8.3163133"><ele>505.0</ele><time>2026-04-25T15:45:04.999Z</time></trkpt><trkpt lat="44.586605" lon="8.3161383"><ele>505.0</ele><time>2026-04-25T15:45:05.999Z</time></trkpt><trkpt lat="44.5867217" lon="8.3159717"><ele>505.0</ele><time>2026-04-25T15:45:06.999Z</time></trkpt><trkpt lat="44.58687" lon="8.31581"><ele>505.0</ele><time>2026-04-25T15:45:07.999Z</time></trkpt><trkpt lat="44.58702" lon="8.3156267"><ele>508.6666666666667</ele><time>2026-04-25T15:45:08.999Z</time></trkpt><trkpt lat="44.5871683" lon="8.3154383"><ele>512.3333333333334</ele><time>2026-04-25T15:45:10.001Z</time></trkpt><trkpt lat="44.5873317" lon="8.3152567"><ele>516.0</ele><time>2026-04-25T15:45:11.003Z</time></trkpt><trkpt lat="44.5874683" lon="8.3150633"><ele>516.0</ele><time>2026-04-25T15:45:11.996Z</time></trkpt><trkpt lat="44.587605" lon="8.3148883"><ele>516.0</ele><time>2026-04-25T15:45:12.997Z</time></trkpt><trkpt lat="44.58773" lon="8.3147183"><ele>516.0</ele><time>2026-04-25T15:45:13.999Z</time></trkpt><trkpt lat="44.5878633" lon="8.3145683"><ele>518.6666666666666</ele><time>2026-04-25T15:45:14.994Z</time></trkpt><trkpt lat="44.5880083" lon="8.314435"><ele>521.3333333333333</ele><time>2026-04-25T15:45:16.001Z</time></trkpt><trkpt lat="44.5881617" lon="8.31429"><ele>524.0</ele><time>2026-04-25T15:45:16.994Z</time></trkpt><trkpt lat="44.5883167" lon="8.3141517"><ele>524.0</ele><time>2026-04-25T15:45:17.996Z</time></trkpt><trkpt lat="44.58846" lon="8.31403"><ele>524.0</ele><time>2026-04-25T15:45:18.997Z</time></trkpt><trkpt lat="44.58859" lon="8.3139167"><ele>524.0</ele><time>2026-04-25T15:45:19.994Z</time></trkpt><trkpt lat="44.5887217" lon="8.3138067"><ele>527.6666666666666</ele><time>2026-04-25T15:45:20.995Z</time></trkpt><trkpt lat="44.5888483" lon="8.3136883"><ele>531.3333333333334</ele><time>2026-04-25T15:45:21.994Z</time></trkpt><trkpt lat="44.5889667" lon="8.3135317"><ele>535.0</ele><time>2026-04-25T15:45:22.995Z</time></trkpt><trkpt lat="44.5890817" lon="8.3133417"><ele>535.0</ele><time>2026-04-25T15:45:23.994Z</time></trkpt><trkpt lat="44.5891967" lon="8.3131283"><ele>535.0</ele><time>2026-04-25T15:45:24.997Z</time></trkpt><trkpt lat="44.5893217" lon="8.31291"><ele>535.0</ele><time>2026-04-25T15:45:25.996Z</time></trkpt><trkpt lat="44.589445" lon="8.312685"><ele>539.6666666666667</ele><time>2026-04-25T15:45:26.995Z</time></trkpt><trkpt lat="44.5895617" lon="8.3124667"><ele>544.3333333333334</ele><time>2026-04-25T15:45:27.997Z</time></trkpt><trkpt lat="44.5896733" lon="8.3122617"><ele>549.0</ele><time>2026-04-25T15:45:28.999Z</time></trkpt><trkpt lat="44.589765" lon="8.3120733"><ele>552.25</ele><time>2026-04-25T15:45:30Z</time></trkpt><trkpt lat="44.589825" lon="8.3118883"><ele>555.5</ele><time>2026-04-25T15:45:30.994Z</time></trkpt><trkpt lat="44.5898467" lon="8.3117033"><ele>558.75</ele><time>2026-04-25T15:45:31.996Z</time></trkpt><trkpt lat="44.5898333" lon="8.31151"><ele>562.0</ele><time>2026-04-25T15:45:33.001Z</time></trkpt><trkpt lat="44.5897967" lon="8.3113217"><ele>564.0</ele><time>2026-04-25T15:45:33.993Z</time></trkpt><trkpt lat="44.58975" lon="8.31113"><ele>566.0</ele><time>2026-04-25T15:45:34.996Z</time></trkpt><trkpt lat="44.5896883" lon="8.310955"><ele>568.0</ele><time>2026-04-25T15:45:35.995Z</time></trkpt><trkpt lat="44.589605" lon="8.3108"><ele>570.0</ele><time>2026-04-25T15:45:37Z</time></trkpt><trkpt lat="44.589505" lon="8.310675"><ele>566.3333333333334</ele><time>2026-04-25T15:45:37.994Z</time></trkpt><trkpt lat="44.5894133" lon="8.3105833"><ele>562.6666666666666</ele><time>2026-04-25T15:45:38.994Z</time></trkpt><trkpt lat="44.5893467" lon="8.3105083"><ele>559.0</ele><time>2026-04-25T15:45:39.994Z</time></trkpt><trkpt lat="44.589295" lon="8.31043"><ele>555.3333333333333</ele><time>2026-04-25T15:45:40.994Z</time></trkpt><trkpt lat="44.5892633" lon="8.3103417"><ele>551.6666666666666</ele><time>2026-04-25T15:45:41.994Z</time></trkpt><trkpt lat="44.589295" lon="8.3102033"><ele>548.0</ele><time>2026-04-25T15:45:42.996Z</time></trkpt><trkpt lat="44.58932" lon="8.3100833"><ele>548.0</ele><time>2026-04-25T15:45:43.998Z</time></trkpt><trkpt lat="44.58936" lon="8.3099667"><ele>548.0</ele><time>2026-04-25T15:45:44.995Z</time></trkpt><trkpt lat="44.5894" lon="8.309865"><ele>548.0</ele><time>2026-04-25T15:45:45.991Z</time></trkpt><trkpt lat="44.5894433" lon="8.309775"><ele>548.0</ele><time>2026-04-25T15:45:46.996Z</time></trkpt><trkpt lat="44.589505" lon="8.3097167"><ele>548.0</ele><time>2026-04-25T15:45:47.994Z</time></trkpt><trkpt lat="44.5895717" lon="8.3096617"><ele>548.0</ele><time>2026-04-25T15:45:48.999Z</time></trkpt><trkpt lat="44.5896633" lon="8.30963"><ele>542.6666666666666</ele><time>2026-04-25T15:45:49.994Z</time></trkpt><trkpt lat="44.5897533" lon="8.309575"><ele>537.3333333333334</ele><time>2026-04-25T15:45:50.993Z</time></trkpt><trkpt lat="44.58997" lon="8.30966"><ele>532.0</ele><time>2026-04-25T15:45:51.993Z</time></trkpt><trkpt lat="44.5902317" lon="8.3097983"><ele>544.6666666666667</ele><time>2026-04-25T15:45:52.995Z</time></trkpt><trkpt lat="44.5904417" lon="8.3098533"><ele>557.3333333333334</ele><time>2026-04-25T15:45:53.994Z</time></trkpt><trkpt lat="44.5906367" lon="8.3098717"><ele>570.0</ele><time>2026-04-25T15:45:54.995Z</time></trkpt><trkpt lat="44.5908117" lon="8.309855"><ele>570.0</ele><time>2026-04-25T15:45:55.995Z</time></trkpt><trkpt lat="44.590995" lon="8.309865"><ele>570.0</ele><time>2026-04-25T15:45:56.996Z</time></trkpt><trkpt lat="44.591165" lon="8.3098667"><ele>570.0</ele><time>2026-04-25T15:45:57.997Z</time></trkpt><trkpt lat="44.5913067" lon="8.3098417"><ele>568.75</ele><time>2026-04-25T15:45:58.991Z</time></trkpt><trkpt lat="44.591435" lon="8.3097983"><ele>567.5</ele><time>2026-04-25T15:45:59.994Z</time></trkpt><trkpt lat="44.5915417" lon="8.3097167"><ele>566.25</ele><time>2026-04-25T15:46:00.998Z</time></trkpt><trkpt lat="44.5916433" lon="8.30961"><ele>565.0</ele><time>2026-04-25T15:46:01.993Z</time></trkpt><trkpt lat="44.5917483" lon="8.3095"><ele>565.0</ele><time>2026-04-25T15:46:02.998Z</time></trkpt><trkpt lat="44.5918467" lon="8.309415"><ele>565.0</ele><time>2026-04-25T15:46:03.996Z</time></trkpt><trkpt lat="44.5919433" lon="8.3093183"><ele>565.0</ele><time>2026-04-25T15:46:04.996Z</time></trkpt><trkpt lat="44.592015" lon="8.3092"><ele>565.0</ele><time>2026-04-25T15:46:05.995Z</time></trkpt><trkpt lat="44.5920667" lon="8.3090717"><ele>567.4</ele><time>2026-04-25T15:46:06.992Z</time></trkpt><trkpt lat="44.592095" lon="8.3089267"><ele>569.8</ele><time>2026-04-25T15:46:07.993Z</time></trkpt><trkpt lat="44.5921233" lon="8.30877"><ele>572.2</ele><time>2026-04-25T15:46:08.994Z</time></trkpt><trkpt lat="44.5921717" lon="8.3086333"><ele>574.6</ele><time>2026-04-25T15:46:09.996Z</time></trkpt><trkpt lat="44.592245" lon="8.3085267"><ele>577.0</ele><time>2026-04-25T15:46:10.998Z</time></trkpt><trkpt lat="44.5923633" lon="8.3084633"><ele>577.0</ele><time>2026-04-25T15:46:11.997Z</time></trkpt><trkpt lat="44.5925217" lon="8.3084183"><ele>577.0</ele><time>2026-04-25T15:46:12.996Z</time></trkpt><trkpt lat="44.592665" lon="8.3083333"><ele>577.0</ele><time>2026-04-25T15:46:13.995Z</time></trkpt><trkpt lat="44.5928083" lon="8.3082217"><ele>579.6666666666667</ele><time>2026-04-25T15:46:15.001Z</time></trkpt><trkpt lat="44.59297" lon="8.308095"><ele>582.3333333333334</ele><time>2026-04-25T15:46:15.997Z</time></trkpt><trkpt lat="44.5931267" lon="8.3079583"><ele>585.0</ele><time>2026-04-25T15:46:17.001Z</time></trkpt><trkpt lat="44.5932817" lon="8.3078333"><ele>585.0</ele><time>2026-04-25T15:46:17.996Z</time></trkpt><trkpt lat="44.5934117" lon="8.3076933"><ele>585.0</ele><time>2026-04-25T15:46:18.995Z</time></trkpt><trkpt lat="44.59352" lon="8.30755"><ele>585.0</ele><time>2026-04-25T15:46:19.994Z</time></trkpt><trkpt lat="44.5936" lon="8.3073917"><ele>588.0</ele><time>2026-04-25T15:46:20.993Z</time></trkpt><trkpt lat="44.5936717" lon="8.30723"><ele>591.0</ele><time>2026-04-25T15:46:21.995Z</time></trkpt><trkpt lat="44.59375" lon="8.3070783"><ele>594.0</ele><time>2026-04-25T15:46:22.998Z</time></trkpt><trkpt lat="44.593835" lon="8.306935"><ele>597.0</ele><time>2026-04-25T15:46:23.996Z</time></trkpt><trkpt lat="44.5939383" lon="8.306815"><ele>597.0</ele><time>2026-04-25T15:46:24.998Z</time></trkpt><trkpt lat="44.5940567" lon="8.306705"><ele>597.0</ele><time>2026-04-25T15:46:25.992Z</time></trkpt><trkpt lat="44.59418" lon="8.3065867"><ele>597.0</ele><time>2026-04-25T15:46:26.997Z</time></trkpt><trkpt lat="44.5943117" lon="8.3064717"><ele>597.0</ele><time>2026-04-25T15:46:27.993Z</time></trkpt><trkpt lat="44.59444" lon="8.3063483"><ele>602.3333333333334</ele><time>2026-04-25T15:46:28.997Z</time></trkpt><trkpt lat="44.5945633" lon="8.3062167"><ele>607.6666666666667</ele><time>2026-04-25T15:46:29.995Z</time></trkpt><trkpt lat="44.5946617" lon="8.3060533"><ele>613.0</ele><time>2026-04-25T15:46:30.992Z</time></trkpt><trkpt lat="44.594755" lon="8.30588"><ele>613.0</ele><time>2026-04-25T15:46:31.993Z</time></trkpt><trkpt lat="44.5948317" lon="8.3056867"><ele>613.0</ele><time>2026-04-25T15:46:32.992Z</time></trkpt><trkpt lat="44.5949017" lon="8.3054817"><ele>613.0</ele><time>2026-04-25T15:46:33.99Z</time></trkpt><trkpt lat="44.5949767" lon="8.3052867"><ele>612.5</ele><time>2026-04-25T15:46:34.992Z</time></trkpt><trkpt lat="44.5950467" lon="8.3050967"><ele>612.0</ele><time>2026-04-25T15:46:35.994Z</time></trkpt><trkpt lat="44.5951067" lon="8.30491"><ele>611.5</ele><time>2026-04-25T15:46:36.998Z</time></trkpt><trkpt lat="44.5951517" lon="8.3047333"><ele>611.0</ele><time>2026-04-25T15:46:37.997Z</time></trkpt><trkpt lat="44.5951717" lon="8.3045583"><ele>611.0</ele><time>2026-04-25T15:46:38.992Z</time></trkpt><trkpt lat="44.5951617" lon="8.304375"><ele>611.0</ele><time>2026-04-25T15:46:40Z</time></trkpt><trkpt lat="44.5951367" lon="8.3041933"><ele>611.0</ele><time>2026-04-25T15:46:40.994Z</time></trkpt><trkpt lat="44.5950983" lon="8.3040133"><ele>611.0</ele><time>2026-04-25T15:46:42Z</time></trkpt><trkpt lat="44.5950383" lon="8.3038517"><ele>614.4</ele><time>2026-04-25T15:46:42.999Z</time></trkpt><trkpt lat="44.5949567" lon="8.3037183"><ele>617.8</ele><time>2026-04-25T15:46:43.993Z</time></trkpt><trkpt lat="44.5948733" lon="8.3035983"><ele>621.1999999999999</ele><time>2026-04-25T15:46:44.995Z</time></trkpt><trkpt lat="44.594785" lon="8.30353"><ele>624.6</ele><time>2026-04-25T15:46:45.998Z</time></trkpt><trkpt lat="44.5947267" lon="8.3034467"><ele>628.0</ele><time>2026-04-25T15:46:46.995Z</time></trkpt><trkpt lat="44.5946833" lon="8.30336"><ele>628.0</ele><time>2026-04-25T15:46:47.996Z</time></trkpt><trkpt lat="44.59465" lon="8.303275"><ele>628.0</ele><time>2026-04-25T15:46:48.995Z</time></trkpt><trkpt lat="44.5946317" lon="8.3031817"><ele>628.0</ele><time>2026-04-25T15:46:49.993Z</time></trkpt><trkpt lat="44.5946183" lon="8.3030567"><ele>628.0</ele><time>2026-04-25T15:46:50.997Z</time></trkpt><trkpt lat="44.5945983" lon="8.3029233"><ele>628.0</ele><time>2026-04-25T15:46:51.996Z</time></trkpt><trkpt lat="44.5946" lon="8.3027483"><ele>629.0</ele><time>2026-04-25T15:46:52.996Z</time></trkpt><trkpt lat="44.5945617" lon="8.3025567"><ele>630.0</ele><time>2026-04-25T15:46:53.994Z</time></trkpt><trkpt lat="44.5945283" lon="8.3023667"><ele>631.0</ele><time>2026-04-25T15:46:55.002Z</time></trkpt><trkpt lat="44.594485" lon="8.3022017"><ele>632.0</ele><time>2026-04-25T15:46:55.996Z</time></trkpt><trkpt lat="44.5944133" lon="8.3020567"><ele>632.0</ele><time>2026-04-25T15:46:56.997Z</time></trkpt><trkpt lat="44.5943333" lon="8.3019233"><ele>632.0</ele><time>2026-04-25T15:46:57.997Z</time></trkpt><trkpt lat="44.5942283" lon="8.3018233"><ele>632.0</ele><time>2026-04-25T15:46:58.996Z</time></trkpt><trkpt lat="44.5941167" lon="8.3017467"><ele>632.0</ele><time>2026-04-25T15:46:59.999Z</time></trkpt><trkpt lat="44.5939983" lon="8.301695"><ele>632.0</ele><time>2026-04-25T15:47:00.992Z</time></trkpt><trkpt lat="44.593895" lon="8.30164"><ele>632.0</ele><time>2026-04-25T15:47:01.995Z</time></trkpt><trkpt lat="44.5938067" lon="8.301585"><ele>632.0</ele><time>2026-04-25T15:47:02.994Z</time></trkpt><trkpt lat="44.5937233" lon="8.3015133"><ele>632.0</ele><time>2026-04-25T15:47:03.995Z</time></trkpt><trkpt lat="44.593655" lon="8.3014217"><ele>632.0</ele><time>2026-04-25T15:47:04.994Z</time></trkpt><trkpt lat="44.5936017" lon="8.3013033"><ele>630.4</ele><time>2026-04-25T15:47:05.992Z</time></trkpt><trkpt lat="44.59358" lon="8.3011517"><ele>628.8000000000001</ele><time>2026-04-25T15:47:06.996Z</time></trkpt><trkpt lat="44.5935617" lon="8.301"><ele>627.2</ele><time>2026-04-25T15:47:07.994Z</time></trkpt><trkpt lat="44.593565" lon="8.300845"><ele>625.6</ele><time>2026-04-25T15:47:08.996Z</time></trkpt><trkpt lat="44.59359" lon="8.300695"><ele>624.0</ele><time>2026-04-25T15:47:09.999Z</time></trkpt><trkpt lat="44.59365" lon="8.300545"><ele>629.0</ele><time>2026-04-25T15:47:10.995Z</time></trkpt><trkpt lat="44.5937133" lon="8.3004017"><ele>634.0</ele><time>2026-04-25T15:47:11.994Z</time></trkpt><trkpt lat="44.59381" lon="8.3002217"><ele>639.0</ele><time>2026-04-25T15:47:12.997Z</time></trkpt><trkpt lat="44.5938917" lon="8.30005"><ele>644.0</ele><time>2026-04-25T15:47:13.997Z</time></trkpt><trkpt lat="44.5939917" lon="8.2998667"><ele>641.3333333333333</ele><time>2026-04-25T15:47:14.996Z</time></trkpt><trkpt lat="44.5940767" lon="8.2996767"><ele>638.6666666666666</ele><time>2026-04-25T15:47:15.994Z</time></trkpt><trkpt lat="44.59415" lon="8.2994883"><ele>636.0</ele><time>2026-04-25T15:47:16.995Z</time></trkpt><trkpt lat="44.5942133" lon="8.2992917"><ele>636.0</ele><time>2026-04-25T15:47:17.996Z</time></trkpt><trkpt lat="44.5942467" lon="8.29913"><ele>636.0</ele><time>2026-04-25T15:47:18.996Z</time></trkpt><trkpt lat="44.5942967" lon="8.298975"><ele>636.0</ele><time>2026-04-25T15:47:19.996Z</time></trkpt><trkpt lat="44.5943667" lon="8.2988217"><ele>636.0</ele><time>2026-04-25T15:47:21.001Z</time></trkpt><trkpt lat="44.5944633" lon="8.2986683"><ele>640.75</ele><time>2026-04-25T15:47:21.999Z</time></trkpt><trkpt lat="44.5945467" lon="8.298495"><ele>645.5</ele><time>2026-04-25T15:47:22.998Z</time></trkpt><trkpt lat="44.5946183" lon="8.2983183"><ele>650.25</ele><time>2026-04-25T15:47:23.994Z</time></trkpt><trkpt lat="44.594675" lon="8.2981417"><ele>655.0</ele><time>2026-04-25T15:47:24.994Z</time></trkpt><trkpt lat="44.5947133" lon="8.2979517"><ele>655.0</ele><time>2026-04-25T15:47:25.994Z</time></trkpt><trkpt lat="44.5947417" lon="8.2977667"><ele>655.0</ele><time>2026-04-25T15:47:26.997Z</time></trkpt><trkpt lat="44.5947467" lon="8.2975867"><ele>655.0</ele><time>2026-04-25T15:47:27.995Z</time></trkpt><trkpt lat="44.5947267" lon="8.2974183"><ele>655.0</ele><time>2026-04-25T15:47:28.995Z</time></trkpt><trkpt lat="44.5946967" lon="8.29724"><ele>657.0</ele><time>2026-04-25T15:47:29.992Z</time></trkpt><trkpt lat="44.594665" lon="8.2970717"><ele>659.0</ele><time>2026-04-25T15:47:30.999Z</time></trkpt><trkpt lat="44.5946367" lon="8.2968933"><ele>661.0</ele><time>2026-04-25T15:47:31.997Z</time></trkpt><trkpt lat="44.5946183" lon="8.2967167"><ele>663.0</ele><time>2026-04-25T15:47:32.997Z</time></trkpt><trkpt lat="44.5946033" lon="8.2965433"><ele>665.25</ele><time>2026-04-25T15:47:33.996Z</time></trkpt><trkpt lat="44.5945817" lon="8.29637"><ele>667.5</ele><time>2026-04-25T15:47:34.991Z</time></trkpt><trkpt lat="44.594545" lon="8.2962033"><ele>669.75</ele><time>2026-04-25T15:47:35.996Z</time></trkpt><trkpt lat="44.594495" lon="8.296025"><ele>672.0</ele><time>2026-04-25T15:47:36.999Z</time></trkpt><trkpt lat="44.594435" lon="8.2958583"><ele>669.0</ele><time>2026-04-25T15:47:37.998Z</time></trkpt><trkpt lat="44.5943617" lon="8.2956883"><ele>666.0</ele><time>2026-04-25T15:47:38.995Z</time></trkpt><trkpt lat="44.5942833" lon="8.29552"><ele>663.0</ele><time>2026-04-25T15:47:39.994Z</time></trkpt><trkpt lat="44.5941967" lon="8.2953817"><ele>660.0</ele><time>2026-04-25T15:47:40.994Z</time></trkpt><trkpt lat="44.59412" lon="8.295255"><ele>660.0</ele><time>2026-04-25T15:47:41.996Z</time></trkpt><trkpt lat="44.59406" lon="8.295135"><ele>660.0</ele><time>2026-04-25T15:47:42.996Z</time></trkpt><trkpt lat="44.5940133" lon="8.29503"><ele>660.0</ele><time>2026-04-25T15:47:43.998Z</time></trkpt><trkpt lat="44.5939783" lon="8.294925"><ele>660.0</ele><time>2026-04-25T15:47:44.994Z</time></trkpt><trkpt lat="44.593995" lon="8.294815"><ele>660.0</ele><time>2026-04-25T15:47:45.997Z</time></trkpt><trkpt lat="44.5940233" lon="8.2946983"><ele>660.0</ele><time>2026-04-25T15:47:47.001Z</time></trkpt><trkpt lat="44.594105" lon="8.2946217"><ele>657.5</ele><time>2026-04-25T15:47:47.994Z</time></trkpt><trkpt lat="44.5941883" lon="8.294545"><ele>655.0</ele><time>2026-04-25T15:47:49Z</time></trkpt><trkpt lat="44.59429" lon="8.2944667"><ele>652.5</ele><time>2026-04-25T15:47:49.999Z</time></trkpt><trkpt lat="44.5943833" lon="8.294355"><ele>650.0</ele><time>2026-04-25T15:47:51Z</time></trkpt><trkpt lat="44.594485" lon="8.29422"><ele>653.25</ele><time>2026-04-25T15:47:51.996Z</time></trkpt><trkpt lat="44.5945833" lon="8.29407"><ele>656.5</ele><time>2026-04-25T15:47:52.997Z</time></trkpt><trkpt lat="44.5946633" lon="8.2938967"><ele>659.75</ele><time>2026-04-25T15:47:53.994Z</time></trkpt><trkpt lat="44.594735" lon="8.29371"><ele>663.0</ele><time>2026-04-25T15:47:54.999Z</time></trkpt><trkpt lat="44.5947967" lon="8.293515"><ele>663.0</ele><time>2026-04-25T15:47:55.999Z</time></trkpt><trkpt lat="44.5948567" lon="8.29332"><ele>663.0</ele><time>2026-04-25T15:47:56.999Z</time></trkpt><trkpt lat="44.5949117" lon="8.293135"><ele>663.0</ele><time>2026-04-25T15:47:57.997Z</time></trkpt><trkpt lat="44.594955" lon="8.2929383"><ele>663.0</ele><time>2026-04-25T15:47:58.998Z</time></trkpt><trkpt lat="44.594975" lon="8.2927217"><ele>661.0</ele><time>2026-04-25T15:47:59.995Z</time></trkpt><trkpt lat="44.5949817" lon="8.2924967"><ele>659.0</ele><time>2026-04-25T15:48:00.996Z</time></trkpt><trkpt lat="44.5949767" lon="8.2922567"><ele>657.0</ele><time>2026-04-25T15:48:01.998Z</time></trkpt><trkpt lat="44.5949717" lon="8.2920217"><ele>655.0</ele><time>2026-04-25T15:48:02.996Z</time></trkpt><trkpt lat="44.5949633" lon="8.2917867"><ele>653.0</ele><time>2026-04-25T15:48:03.997Z</time></trkpt><trkpt lat="44.5949667" lon="8.29156"><ele>651.0</ele><time>2026-04-25T15:48:05Z</time></trkpt><trkpt lat="44.5949567" lon="8.2913317"><ele>650.0</ele><time>2026-04-25T15:48:05.996Z</time></trkpt><trkpt lat="44.5949367" lon="8.2911117"><ele>649.0</ele><time>2026-04-25T15:48:06.996Z</time></trkpt><trkpt lat="44.5949067" lon="8.2909"><ele>648.0</ele><time>2026-04-25T15:48:07.995Z</time></trkpt><trkpt lat="44.5948633" lon="8.2906917"><ele>646.3333333333334</ele><time>2026-04-25T15:48:08.999Z</time></trkpt><trkpt lat="44.5948083" lon="8.2904883"><ele>644.6666666666667</ele><time>2026-04-25T15:48:10.001Z</time></trkpt><trkpt lat="44.5947483" lon="8.290285"><ele>643.0</ele><time>2026-04-25T15:48:11Z</time></trkpt><trkpt lat="44.5946833" lon="8.2900767"><ele>643.0</ele><time>2026-04-25T15:48:11.995Z</time></trkpt><trkpt lat="44.5946133" lon="8.289865"><ele>643.0</ele><time>2026-04-25T15:48:13.003Z</time></trkpt><trkpt lat="44.5945367" lon="8.289655"><ele>643.0</ele><time>2026-04-25T15:48:13.994Z</time></trkpt><trkpt lat="44.594465" lon="8.2894367"><ele>646.0</ele><time>2026-04-25T15:48:14.996Z</time></trkpt><trkpt lat="44.59441" lon="8.2892067"><ele>649.0</ele><time>2026-04-25T15:48:15.999Z</time></trkpt><trkpt lat="44.5943567" lon="8.288975"><ele>652.0</ele><time>2026-04-25T15:48:16.997Z</time></trkpt><trkpt lat="44.5943" lon="8.2887383"><ele>652.0</ele><time>2026-04-25T15:48:17.997Z</time></trkpt><trkpt lat="44.594245" lon="8.288505"><ele>652.0</ele><time>2026-04-25T15:48:18.996Z</time></trkpt><trkpt lat="44.5941917" lon="8.2882717"><ele>652.0</ele><time>2026-04-25T15:48:19.995Z</time></trkpt><trkpt lat="44.5941383" lon="8.28805"><ele>651.0</ele><time>2026-04-25T15:48:20.996Z</time></trkpt><trkpt lat="44.5940933" lon="8.287835"><ele>650.0</ele><time>2026-04-25T15:48:21.996Z</time></trkpt><trkpt lat="44.5940467" lon="8.2876267"><ele>649.0</ele><time>2026-04-25T15:48:23.003Z</time></trkpt><trkpt lat="44.5939967" lon="8.287425"><ele>648.5</ele><time>2026-04-25T15:48:23.998Z</time></trkpt><trkpt lat="44.593955" lon="8.2872233"><ele>648.0</ele><time>2026-04-25T15:48:24.994Z</time></trkpt><trkpt lat="44.5939217" lon="8.28703"><ele>647.5</ele><time>2026-04-25T15:48:25.995Z</time></trkpt><trkpt lat="44.5938933" lon="8.2868317"><ele>647.0</ele><time>2026-04-25T15:48:26.996Z</time></trkpt><trkpt lat="44.5938583" lon="8.2866417"><ele>647.0</ele><time>2026-04-25T15:48:27.995Z</time></trkpt><trkpt lat="44.59382" lon="8.2864617"><ele>647.0</ele><time>2026-04-25T15:48:28.997Z</time></trkpt><trkpt lat="44.5937867" lon="8.2862933"><ele>647.0</ele><time>2026-04-25T15:48:29.993Z</time></trkpt><trkpt lat="44.593725" lon="8.2861633"><ele>647.0</ele><time>2026-04-25T15:48:30.998Z</time></trkpt><trkpt lat="44.59365" lon="8.2860583"><ele>648.2</ele><time>2026-04-25T15:48:31.994Z</time></trkpt><trkpt lat="44.5935633" lon="8.2859733"><ele>649.4000000000001</ele><time>2026-04-25T15:48:32.997Z</time></trkpt><trkpt lat="44.5934667" lon="8.2858917"><ele>650.5999999999999</ele><time>2026-04-25T15:48:33.995Z</time></trkpt><trkpt lat="44.59338" lon="8.2857967"><ele>651.8</ele><time>2026-04-25T15:48:34.993Z</time></trkpt><trkpt lat="44.593305" lon="8.2856817"><ele>653.0</ele><time>2026-04-25T15:48:35.993Z</time></trkpt><trkpt lat="44.5932383" lon="8.2855583"><ele>654.2</ele><time>2026-04-25T15:48:36.995Z</time></trkpt><trkpt lat="44.59318" lon="8.2854283"><ele>655.4</ele><time>2026-04-25T15:48:37.998Z</time></trkpt><trkpt lat="44.593145" lon="8.2852833"><ele>656.6</ele><time>2026-04-25T15:48:38.993Z</time></trkpt><trkpt lat="44.593125" lon="8.28514"><ele>657.8000000000001</ele><time>2026-04-25T15:48:39.993Z</time></trkpt><trkpt lat="44.59313" lon="8.285"><ele>659.0</ele><time>2026-04-25T15:48:40.996Z</time></trkpt><trkpt lat="44.5931633" lon="8.2848617"><ele>659.25</ele><time>2026-04-25T15:48:41.995Z</time></trkpt><trkpt lat="44.5932" lon="8.2847133"><ele>659.5</ele><time>2026-04-25T15:48:42.994Z</time></trkpt><trkpt lat="44.5932383" lon="8.28455"><ele>659.75</ele><time>2026-04-25T15:48:43.993Z</time></trkpt><trkpt lat="44.5932617" lon="8.2843883"><ele>660.0</ele><time>2026-04-25T15:48:44.993Z</time></trkpt><trkpt lat="44.5932567" lon="8.2842167"><ele>660.0</ele><time>2026-04-25T15:48:45.994Z</time></trkpt><trkpt lat="44.59324" lon="8.284045"><ele>660.0</ele><time>2026-04-25T15:48:46.992Z</time></trkpt><trkpt lat="44.5932333" lon="8.2838783"><ele>660.0</ele><time>2026-04-25T15:48:47.993Z</time></trkpt><trkpt lat="44.5932333" lon="8.28371"><ele>660.0</ele><time>2026-04-25T15:48:48.992Z</time></trkpt><trkpt lat="44.5932983" lon="8.283585"><ele>660.0</ele><time>2026-04-25T15:48:49.998Z</time></trkpt><trkpt lat="44.5933633" lon="8.28345"><ele>660.0</ele><time>2026-04-25T15:48:50.995Z</time></trkpt><trkpt lat="44.5934117" lon="8.28329"><ele>660.0</ele><time>2026-04-25T15:48:51.994Z</time></trkpt><trkpt lat="44.59344" lon="8.2831133"><ele>660.0</ele><time>2026-04-25T15:48:52.999Z</time></trkpt><trkpt lat="44.593455" lon="8.2829183"><ele>660.0</ele><time>2026-04-25T15:48:53.992Z</time></trkpt><trkpt lat="44.5934533" lon="8.2827267"><ele>660.0</ele><time>2026-04-25T15:48:54.993Z</time></trkpt><trkpt lat="44.5934433" lon="8.2825367"><ele>660.0</ele><time>2026-04-25T15:48:55.993Z</time></trkpt><trkpt lat="44.5934217" lon="8.2823633"><ele>660.0</ele><time>2026-04-25T15:48:56.996Z</time></trkpt><trkpt lat="44.5934017" lon="8.282195"><ele>661.75</ele><time>2026-04-25T15:48:57.997Z</time></trkpt><trkpt lat="44.5933783" lon="8.2820233"><ele>663.5</ele><time>2026-04-25T15:48:58.993Z</time></trkpt><trkpt lat="44.5933583" lon="8.281865"><ele>665.25</ele><time>2026-04-25T15:48:59.999Z</time></trkpt><trkpt lat="44.593335" lon="8.2816917"><ele>667.0</ele><time>2026-04-25T15:49:00.991Z</time></trkpt><trkpt lat="44.5932967" lon="8.28151"><ele>669.0</ele><time>2026-04-25T15:49:01.994Z</time></trkpt><trkpt lat="44.5932583" lon="8.2813133"><ele>671.0</ele><time>2026-04-25T15:49:03Z</time></trkpt><trkpt lat="44.593215" lon="8.2811067"><ele>673.0</ele><time>2026-04-25T15:49:04.002Z</time></trkpt><trkpt lat="44.5931717" lon="8.2808817"><ele>673.0</ele><time>2026-04-25T15:49:04.994Z</time></trkpt><trkpt lat="44.59312" lon="8.2806483"><ele>673.0</ele><time>2026-04-25T15:49:05.995Z</time></trkpt><trkpt lat="44.593085" lon="8.2803967"><ele>673.0</ele><time>2026-04-25T15:49:06.995Z</time></trkpt><trkpt lat="44.5930417" lon="8.2801517"><ele>673.6666666666667</ele><time>2026-04-25T15:49:07.998Z</time></trkpt><trkpt lat="44.5929983" lon="8.2799083"><ele>674.3333333333334</ele><time>2026-04-25T15:49:08.992Z</time></trkpt><trkpt lat="44.5929517" lon="8.2796617"><ele>675.0</ele><time>2026-04-25T15:49:09.995Z</time></trkpt><trkpt lat="44.5929067" lon="8.2794117"><ele>674.3333333333334</ele><time>2026-04-25T15:49:10.995Z</time></trkpt><trkpt lat="44.5928617" lon="8.27917"><ele>673.6666666666667</ele><time>2026-04-25T15:49:11.994Z</time></trkpt><trkpt lat="44.59281" lon="8.27894"><ele>673.0</ele><time>2026-04-25T15:49:12.997Z</time></trkpt><trkpt lat="44.592755" lon="8.2787167"><ele>677.25</ele><time>2026-04-25T15:49:14.001Z</time></trkpt><trkpt lat="44.5926983" lon="8.27852"><ele>681.5</ele><time>2026-04-25T15:49:14.997Z</time></trkpt><trkpt lat="44.59264" lon="8.278335"><ele>685.75</ele><time>2026-04-25T15:49:15.993Z</time></trkpt><trkpt lat="44.5925483" lon="8.2782117"><ele>690.0</ele><time>2026-04-25T15:49:16.999Z</time></trkpt><trkpt lat="44.5924667" lon="8.2781067"><ele>691.5</ele><time>2026-04-25T15:49:17.996Z</time></trkpt><trkpt lat="44.592415" lon="8.2780167"><ele>693.0</ele><time>2026-04-25T15:49:18.991Z</time></trkpt><trkpt lat="44.5923683" lon="8.277935"><ele>694.5</ele><time>2026-04-25T15:49:19.997Z</time></trkpt><trkpt lat="44.5923933" lon="8.2778167"><ele>696.0</ele><time>2026-04-25T15:49:21.995Z</time></trkpt><trkpt lat="44.5924817" lon="8.27787"><ele>697.5</ele><time>2026-04-25T15:49:23.998Z</time></trkpt><trkpt lat="44.5925267" lon="8.277935"><ele>699.0</ele><time>2026-04-25T15:49:24.996Z</time></trkpt><trkpt lat="44.5925983" lon="8.2780433"><ele>698.8000000000001</ele><time>2026-04-25T15:49:25.995Z</time></trkpt><trkpt lat="44.5926783" lon="8.2781567"><ele>698.6</ele><time>2026-04-25T15:49:26.998Z</time></trkpt><trkpt lat="44.592765" lon="8.27826"><ele>698.4</ele><time>2026-04-25T15:49:27.997Z</time></trkpt><trkpt lat="44.59285" lon="8.2783667"><ele>698.2</ele><time>2026-04-25T15:49:28.995Z</time></trkpt><trkpt lat="44.59293" lon="8.27846"><ele>698.0</ele><time>2026-04-25T15:49:29.997Z</time></trkpt><trkpt lat="44.5930033" lon="8.278515"><ele>698.0</ele><time>2026-04-25T15:49:31Z</time></trkpt><trkpt lat="44.5930783" lon="8.278535"><ele>698.0</ele><time>2026-04-25T15:49:31.996Z</time></trkpt><trkpt lat="44.5931517" lon="8.2785217"><ele>698.0</ele><time>2026-04-25T15:49:32.994Z</time></trkpt><trkpt lat="44.5932033" lon="8.27837"><ele>698.0</ele><time>2026-04-25T15:49:34.991Z</time></trkpt><trkpt lat="44.59313" lon="8.2782267"><ele>698.0</ele><time>2026-04-25T15:49:36.997Z</time></trkpt><trkpt lat="44.5930583" lon="8.2781667"><ele>698.0</ele><time>2026-04-25T15:49:37.995Z</time></trkpt><trkpt lat="44.592985" lon="8.278115"><ele>698.0</ele><time>2026-04-25T15:49:38.994Z</time></trkpt><trkpt lat="44.5929017" lon="8.27808"><ele>698.0</ele><time>2026-04-25T15:49:39.994Z</time></trkpt><trkpt lat="44.5928233" lon="8.278035"><ele>698.0</ele><time>2026-04-25T15:49:40.999Z</time></trkpt><trkpt lat="44.5927517" lon="8.2779833"><ele>698.0</ele><time>2026-04-25T15:49:42.001Z</time></trkpt><trkpt lat="44.5927017" lon="8.2779067"><ele>698.0</ele><time>2026-04-25T15:49:43Z</time></trkpt><trkpt lat="44.59266" lon="8.2778083"><ele>698.25</ele><time>2026-04-25T15:49:43.995Z</time></trkpt><trkpt lat="44.59264" lon="8.277675"><ele>698.5</ele><time>2026-04-25T15:49:44.993Z</time></trkpt><trkpt lat="44.5926283" lon="8.27753"><ele>698.75</ele><time>2026-04-25T15:49:45.996Z</time></trkpt><trkpt lat="44.592645" lon="8.277335"><ele>699.0</ele><time>2026-04-25T15:49:46.993Z</time></trkpt><trkpt lat="44.59266" lon="8.2771467"><ele>699.0</ele><time>2026-04-25T15:49:47.994Z</time></trkpt><trkpt lat="44.5926767" lon="8.27698"><ele>699.0</ele><time>2026-04-25T15:49:48.992Z</time></trkpt><trkpt lat="44.5926967" lon="8.2768233"><ele>699.0</ele><time>2026-04-25T15:49:49.993Z</time></trkpt><trkpt lat="44.5927317" lon="8.276675"><ele>699.0</ele><time>2026-04-25T15:49:50.999Z</time></trkpt><trkpt lat="44.5927733" lon="8.276545"><ele>699.0</ele><time>2026-04-25T15:49:51.992Z</time></trkpt><trkpt lat="44.592825" lon="8.276425"><ele>699.8000000000001</ele><time>2026-04-25T15:49:52.994Z</time></trkpt><trkpt lat="44.5928867" lon="8.2763133"><ele>700.6</ele><time>2026-04-25T15:49:53.993Z</time></trkpt><trkpt lat="44.5929383" lon="8.2761967"><ele>701.4</ele><time>2026-04-25T15:49:54.994Z</time></trkpt><trkpt lat="44.5929733" lon="8.2760683"><ele>702.2</ele><time>2026-04-25T15:49:55.99Z</time></trkpt><trkpt lat="44.5929817" lon="8.27593"><ele>703.0</ele><time>2026-04-25T15:49:56.996Z</time></trkpt><trkpt lat="44.5929733" lon="8.2757867"><ele>703.0</ele><time>2026-04-25T15:49:57.995Z</time></trkpt><trkpt lat="44.5929533" lon="8.2756433"><ele>703.0</ele><time>2026-04-25T15:49:58.995Z</time></trkpt><trkpt lat="44.5929233" lon="8.2755"><ele>703.0</ele><time>2026-04-25T15:49:59.991Z</time></trkpt><trkpt lat="44.5928933" lon="8.27536"><ele>703.0</ele><time>2026-04-25T15:50:00.998Z</time></trkpt><trkpt lat="44.5928717" lon="8.2752067"><ele>703.0</ele><time>2026-04-25T15:50:01.999Z</time></trkpt><trkpt lat="44.5928533" lon="8.2750533"><ele>703.4</ele><time>2026-04-25T15:50:02.994Z</time></trkpt><trkpt lat="44.592835" lon="8.2749033"><ele>703.8</ele><time>2026-04-25T15:50:03.993Z</time></trkpt><trkpt lat="44.5928267" lon="8.2747467"><ele>704.2</ele><time>2026-04-25T15:50:04.992Z</time></trkpt><trkpt lat="44.5928267" lon="8.2745867"><ele>704.6</ele><time>2026-04-25T15:50:05.993Z</time></trkpt><trkpt lat="44.5928333" lon="8.2744283"><ele>705.0</ele><time>2026-04-25T15:50:06.995Z</time></trkpt><trkpt lat="44.5928367" lon="8.2742717"><ele>706.4</ele><time>2026-04-25T15:50:07.995Z</time></trkpt><trkpt lat="44.5928383" lon="8.27412"><ele>707.8</ele><time>2026-04-25T15:50:08.996Z</time></trkpt><trkpt lat="44.592845" lon="8.2739667"><ele>709.2</ele><time>2026-04-25T15:50:09.995Z</time></trkpt><trkpt lat="44.5928567" lon="8.273815"><ele>710.6</ele><time>2026-04-25T15:50:10.998Z</time></trkpt><trkpt lat="44.5928817" lon="8.2736667"><ele>712.0</ele><time>2026-04-25T15:50:11.997Z</time></trkpt><trkpt lat="44.5929233" lon="8.273525"><ele>714.0</ele><time>2026-04-25T15:50:12.995Z</time></trkpt><trkpt lat="44.592975" lon="8.27339"><ele>716.0</ele><time>2026-04-25T15:50:13.996Z</time></trkpt><trkpt lat="44.5930367" lon="8.2732583"><ele>718.0</ele><time>2026-04-25T15:50:14.999Z</time></trkpt><trkpt lat="44.5930933" lon="8.2731467"><ele>720.0</ele><time>2026-04-25T15:50:15.997Z</time></trkpt><trkpt lat="44.59314" lon="8.2730517"><ele>722.0</ele><time>2026-04-25T15:50:16.992Z</time></trkpt><trkpt lat="44.5931783" lon="8.2729517"><ele>722.0</ele><time>2026-04-25T15:50:17.993Z</time></trkpt><trkpt lat="44.5931333" lon="8.2728383"><ele>722.0</ele><time>2026-04-25T15:50:19.993Z</time></trkpt><trkpt lat="44.5930683" lon="8.2728583"><ele>722.0</ele><time>2026-04-25T15:50:20.993Z</time></trkpt><trkpt lat="44.5929783" lon="8.272945"><ele>722.0</ele><time>2026-04-25T15:50:22.993Z</time></trkpt><trkpt lat="44.5929533" lon="8.2730633"><ele>722.0</ele><time>2026-04-25T15:50:23.994Z</time></trkpt><trkpt lat="44.5929217" lon="8.273165"><ele>722.0</ele><time>2026-04-25T15:50:24.999Z</time></trkpt><trkpt lat="44.592875" lon="8.2732567"><ele>724.8333333333333</ele><time>2026-04-25T15:50:25.993Z</time></trkpt><trkpt lat="44.5927983" lon="8.2733317"><ele>727.6666666666666</ele><time>2026-04-25T15:50:26.995Z</time></trkpt><trkpt lat="44.5927283" lon="8.273395"><ele>730.5</ele><time>2026-04-25T15:50:27.993Z</time></trkpt><trkpt lat="44.59265" lon="8.27345"><ele>733.3333333333334</ele><time>2026-04-25T15:50:28.993Z</time></trkpt><trkpt lat="44.59256" lon="8.2734567"><ele>736.1666666666667</ele><time>2026-04-25T15:50:29.995Z</time></trkpt><trkpt lat="44.5924883" lon="8.2734617"><ele>739.0</ele><time>2026-04-25T15:50:30.996Z</time></trkpt><trkpt lat="44.5924033" lon="8.2734333"><ele>739.0</ele><time>2026-04-25T15:50:31.994Z</time></trkpt><trkpt lat="44.5923217" lon="8.2734033"><ele>739.0</ele><time>2026-04-25T15:50:32.996Z</time></trkpt><trkpt lat="44.59226" lon="8.2732867"><ele>739.0</ele><time>2026-04-25T15:50:33.999Z</time></trkpt><trkpt lat="44.592195" lon="8.2731867"><ele>739.0</ele><time>2026-04-25T15:50:34.994Z</time></trkpt><trkpt lat="44.5921283" lon="8.2730667"><ele>739.0</ele><time>2026-04-25T15:50:35.995Z</time></trkpt><trkpt lat="44.5920683" lon="8.2729233"><ele>740.4000000000001</ele><time>2026-04-25T15:50:36.999Z</time></trkpt><trkpt lat="44.5919817" lon="8.2728167"><ele>741.8</ele><time>2026-04-25T15:50:37.995Z</time></trkpt><trkpt lat="44.591885" lon="8.2727383"><ele>743.2</ele><time>2026-04-25T15:50:39.002Z</time></trkpt><trkpt lat="44.5917883" lon="8.2726733"><ele>744.5999999999999</ele><time>2026-04-25T15:50:39.995Z</time></trkpt><trkpt lat="44.5917033" lon="8.272605"><ele>746.0</ele><time>2026-04-25T15:50:40.992Z</time></trkpt><trkpt lat="44.59163" lon="8.27254"><ele>746.0</ele><time>2026-04-25T15:50:41.995Z</time></trkpt><trkpt lat="44.5915533" lon="8.2724933"><ele>746.0</ele><time>2026-04-25T15:50:42.997Z</time></trkpt><trkpt lat="44.5914667" lon="8.2724883"><ele>746.0</ele><time>2026-04-25T15:50:43.994Z</time></trkpt><trkpt lat="44.59138" lon="8.2724983"><ele>746.0</ele><time>2026-04-25T15:50:44.998Z</time></trkpt><trkpt lat="44.5912883" lon="8.2725"><ele>746.0</ele><time>2026-04-25T15:50:45.993Z</time></trkpt><trkpt lat="44.5911983" lon="8.2724683"><ele>746.0</ele><time>2026-04-25T15:50:46.996Z</time></trkpt><trkpt lat="44.5911083" lon="8.2724167"><ele>744.0</ele><time>2026-04-25T15:50:47.995Z</time></trkpt><trkpt lat="44.591015" lon="8.27236"><ele>742.0</ele><time>2026-04-25T15:50:48.997Z</time></trkpt><trkpt lat="44.590925" lon="8.2722933"><ele>740.0</ele><time>2026-04-25T15:50:49.996Z</time></trkpt><trkpt lat="44.5908517" lon="8.2722233"><ele>738.0</ele><time>2026-04-25T15:50:50.995Z</time></trkpt><trkpt lat="44.59079" lon="8.272145"><ele>736.0</ele><time>2026-04-25T15:50:52.002Z</time></trkpt><trkpt lat="44.59075" lon="8.27205"><ele>736.0</ele><time>2026-04-25T15:50:52.995Z</time></trkpt><trkpt lat="44.590735" lon="8.2719267"><ele>736.0</ele><time>2026-04-25T15:50:53.991Z</time></trkpt><trkpt lat="44.590715" lon="8.2718133"><ele>736.0</ele><time>2026-04-25T15:50:54.996Z</time></trkpt><trkpt lat="44.5907317" lon="8.2716617"><ele>736.0</ele><time>2026-04-25T15:50:55.995Z</time></trkpt><trkpt lat="44.5907517" lon="8.2714967"><ele>736.0</ele><time>2026-04-25T15:50:56.995Z</time></trkpt><trkpt lat="44.5908017" lon="8.2712817"><ele>734.25</ele><time>2026-04-25T15:50:57.992Z</time></trkpt><trkpt lat="44.5908283" lon="8.2710967"><ele>732.5</ele><time>2026-04-25T15:50:58.995Z</time></trkpt><trkpt lat="44.5908633" lon="8.2708933"><ele>730.75</ele><time>2026-04-25T15:50:59.993Z</time></trkpt><trkpt lat="44.59086" lon="8.2707183"><ele>729.0</ele><time>2026-04-25T15:51:00.999Z</time></trkpt><trkpt lat="44.5908333" lon="8.2705233"><ele>726.75</ele><time>2026-04-25T15:51:01.994Z</time></trkpt><trkpt lat="44.5907967" lon="8.27033"><ele>724.5</ele><time>2026-04-25T15:51:03.004Z</time></trkpt><trkpt lat="44.5907383" lon="8.2701483"><ele>722.25</ele><time>2026-04-25T15:51:03.995Z</time></trkpt><trkpt lat="44.590675" lon="8.2699533"><ele>720.0</ele><time>2026-04-25T15:51:04.998Z</time></trkpt><trkpt lat="44.59061" lon="8.2697633"><ele>719.6666666666666</ele><time>2026-04-25T15:51:05.993Z</time></trkpt><trkpt lat="44.590555" lon="8.269565"><ele>719.3333333333333</ele><time>2026-04-25T15:51:06.998Z</time></trkpt><trkpt lat="44.5904983" lon="8.2693667"><ele>719.0</ele><time>2026-04-25T15:51:07.998Z</time></trkpt><trkpt lat="44.5904433" lon="8.2691633"><ele>719.0</ele><time>2026-04-25T15:51:08.994Z</time></trkpt><trkpt lat="44.5903783" lon="8.2689683"><ele>719.0</ele><time>2026-04-25T15:51:09.993Z</time></trkpt><trkpt lat="44.5903133" lon="8.2687717"><ele>719.0</ele><time>2026-04-25T15:51:10.991Z</time></trkpt><trkpt lat="44.590245" lon="8.2685767"><ele>721.3333333333333</ele><time>2026-04-25T15:51:11.992Z</time></trkpt><trkpt lat="44.59018" lon="8.268375"><ele>723.6666666666666</ele><time>2026-04-25T15:51:13.001Z</time></trkpt><trkpt lat="44.5901133" lon="8.26818"><ele>726.0</ele><time>2026-04-25T15:51:13.997Z</time></trkpt><trkpt lat="44.5900483" lon="8.2679817"><ele>728.6666666666666</ele><time>2026-04-25T15:51:15.006Z</time></trkpt><trkpt lat="44.58998" lon="8.2677883"><ele>731.3333333333333</ele><time>2026-04-25T15:51:15.997Z</time></trkpt><trkpt lat="44.5899167" lon="8.2675883"><ele>734.0</ele><time>2026-04-25T15:51:16.997Z</time></trkpt><trkpt lat="44.5898567" lon="8.2673917"><ele>733.25</ele><time>2026-04-25T15:51:17.997Z</time></trkpt><trkpt lat="44.5897867" lon="8.2671983"><ele>732.5</ele><time>2026-04-25T15:51:18.997Z</time></trkpt><trkpt lat="44.5897133" lon="8.2670183"><ele>731.75</ele><time>2026-04-25T15:51:19.995Z</time></trkpt><trkpt lat="44.5896383" lon="8.2668433"><ele>731.0</ele><time>2026-04-25T15:51:20.998Z</time></trkpt><trkpt lat="44.589575" lon="8.2666883"><ele>731.0</ele><time>2026-04-25T15:51:21.997Z</time></trkpt><trkpt lat="44.5895283" lon="8.26654"><ele>731.0</ele><time>2026-04-25T15:51:22.995Z</time></trkpt><trkpt lat="44.589505" lon="8.2663933"><ele>731.0</ele><time>2026-04-25T15:51:23.998Z</time></trkpt><trkpt lat="44.5894917" lon="8.266245"><ele>731.0</ele><time>2026-04-25T15:51:25.002Z</time></trkpt><trkpt lat="44.5894783" lon="8.266095"><ele>731.0</ele><time>2026-04-25T15:51:25.994Z</time></trkpt><trkpt lat="44.58945" lon="8.2659367"><ele>732.75</ele><time>2026-04-25T15:51:26.995Z</time></trkpt><trkpt lat="44.589415" lon="8.2657767"><ele>734.5</ele><time>2026-04-25T15:51:27.993Z</time></trkpt><trkpt lat="44.5893717" lon="8.265615"><ele>736.25</ele><time>2026-04-25T15:51:28.995Z</time></trkpt><trkpt lat="44.5893433" lon="8.2654417"><ele>738.0</ele><time>2026-04-25T15:51:29.994Z</time></trkpt><trkpt lat="44.5893183" lon="8.2652667"><ele>738.0</ele><time>2026-04-25T15:51:30.998Z</time></trkpt><trkpt lat="44.589305" lon="8.265095"><ele>738.0</ele><time>2026-04-25T15:51:31.993Z</time></trkpt><trkpt lat="44.58931" lon="8.2649133"><ele>738.0</ele><time>2026-04-25T15:51:32.999Z</time></trkpt><trkpt lat="44.5893117" lon="8.2647483"><ele>738.0</ele><time>2026-04-25T15:51:33.998Z</time></trkpt><trkpt lat="44.5893117" lon="8.2645867"><ele>736.5</ele><time>2026-04-25T15:51:34.996Z</time></trkpt><trkpt lat="44.5893133" lon="8.2644183"><ele>735.0</ele><time>2026-04-25T15:51:35.992Z</time></trkpt><trkpt lat="44.5893167" lon="8.2642433"><ele>733.5</ele><time>2026-04-25T15:51:36.996Z</time></trkpt><trkpt lat="44.589325" lon="8.264065"><ele>732.0</ele><time>2026-04-25T15:51:37.994Z</time></trkpt><trkpt lat="44.5893333" lon="8.2638817"><ele>731.25</ele><time>2026-04-25T15:51:39.002Z</time></trkpt><trkpt lat="44.5893367" lon="8.263695"><ele>730.5</ele><time>2026-04-25T15:51:39.996Z</time></trkpt><trkpt lat="44.5893383" lon="8.2635033"><ele>729.75</ele><time>2026-04-25T15:51:41Z</time></trkpt><trkpt lat="44.5893333" lon="8.2633133"><ele>729.0</ele><time>2026-04-25T15:51:41.996Z</time></trkpt><trkpt lat="44.589345" lon="8.263115"><ele>727.2</ele><time>2026-04-25T15:51:42.994Z</time></trkpt><trkpt lat="44.5893583" lon="8.2629283"><ele>725.4000000000001</ele><time>2026-04-25T15:51:43.996Z</time></trkpt><trkpt lat="44.5893667" lon="8.2627617"><ele>723.6</ele><time>2026-04-25T15:51:44.997Z</time></trkpt><trkpt lat="44.58934" lon="8.26263"><ele>721.8</ele><time>2026-04-25T15:51:45.998Z</time></trkpt><trkpt lat="44.5893" lon="8.2625183"><ele>720.0</ele><time>2026-04-25T15:51:46.993Z</time></trkpt><trkpt lat="44.58927" lon="8.2624067"><ele>720.0</ele><time>2026-04-25T15:51:47.997Z</time></trkpt><trkpt lat="44.5892933" lon="8.26232"><ele>720.0</ele><time>2026-04-25T15:51:48.997Z</time></trkpt><trkpt lat="44.5893383" lon="8.2622433"><ele>720.0</ele><time>2026-04-25T15:51:49.996Z</time></trkpt><trkpt lat="44.5893867" lon="8.2621633"><ele>720.0</ele><time>2026-04-25T15:51:51.002Z</time></trkpt><trkpt lat="44.589495" lon="8.2621133"><ele>720.0</ele><time>2026-04-25T15:51:51.997Z</time></trkpt><trkpt lat="44.5896017" lon="8.2620367"><ele>720.0</ele><time>2026-04-25T15:51:53.001Z</time></trkpt><trkpt lat="44.5897033" lon="8.2619283"><ele>718.75</ele><time>2026-04-25T15:51:53.999Z</time></trkpt><trkpt lat="44.5898133" lon="8.261805"><ele>717.5</ele><time>2026-04-25T15:51:55Z</time></trkpt><trkpt lat="44.589925" lon="8.2616733"><ele>716.25</ele><time>2026-04-25T15:51:55.995Z</time></trkpt><trkpt lat="44.59004" lon="8.2615317"><ele>715.0</ele><time>2026-04-25T15:51:56.995Z</time></trkpt><trkpt lat="44.5901583" lon="8.2613833"><ele>714.3333333333334</ele><time>2026-04-25T15:51:58.001Z</time></trkpt><trkpt lat="44.5902783" lon="8.261235"><ele>713.6666666666666</ele><time>2026-04-25T15:51:58.994Z</time></trkpt><trkpt lat="44.5904" lon="8.2610883"><ele>713.0</ele><time>2026-04-25T15:52:00.004Z</time></trkpt><trkpt lat="44.5905183" lon="8.260945"><ele>713.0</ele><time>2026-04-25T15:52:01.003Z</time></trkpt><trkpt lat="44.5906267" lon="8.260795"><ele>713.0</ele><time>2026-04-25T15:52:01.995Z</time></trkpt><trkpt lat="44.5907267" lon="8.2606433"><ele>713.0</ele><time>2026-04-25T15:52:02.998Z</time></trkpt><trkpt lat="44.590825" lon="8.260495"><ele>713.0</ele><time>2026-04-25T15:52:03.993Z</time></trkpt><trkpt lat="44.5909267" lon="8.2603567"><ele>711.25</ele><time>2026-04-25T15:52:05.003Z</time></trkpt><trkpt lat="44.5910233" lon="8.2602183"><ele>709.5</ele><time>2026-04-25T15:52:06Z</time></trkpt><trkpt lat="44.59113" lon="8.260085"><ele>707.75</ele><time>2026-04-25T15:52:07Z</time></trkpt><trkpt lat="44.59124" lon="8.259955"><ele>706.0</ele><time>2026-04-25T15:52:07.998Z</time></trkpt><trkpt lat="44.591355" lon="8.25983"><ele>700.0</ele><time>2026-04-25T15:52:09Z</time></trkpt><trkpt lat="44.5914733" lon="8.2597117"><ele>694.0</ele><time>2026-04-25T15:52:09.997Z</time></trkpt><trkpt lat="44.5915933" lon="8.2596067"><ele>688.0</ele><time>2026-04-25T15:52:10.994Z</time></trkpt><trkpt lat="44.5917217" lon="8.2595167"><ele>682.0</ele><time>2026-04-25T15:52:11.996Z</time></trkpt><trkpt lat="44.5918467" lon="8.2594283"><ele>682.0</ele><time>2026-04-25T15:52:12.998Z</time></trkpt><trkpt lat="44.5919533" lon="8.2593433"><ele>682.0</ele><time>2026-04-25T15:52:13.999Z</time></trkpt><trkpt lat="44.592035" lon="8.2592633"><ele>682.0</ele><time>2026-04-25T15:52:14.994Z</time></trkpt><trkpt lat="44.592075" lon="8.2591783"><ele>682.0</ele><time>2026-04-25T15:52:15.994Z</time></trkpt><trkpt lat="44.5920783" lon="8.2590883"><ele>682.0</ele><time>2026-04-25T15:52:17.001Z</time></trkpt><trkpt lat="44.592075" lon="8.259"><ele>682.0</ele><time>2026-04-25T15:52:17.995Z</time></trkpt><trkpt lat="44.5920117" lon="8.258985"><ele>682.0</ele><time>2026-04-25T15:52:19.002Z</time></trkpt><trkpt lat="44.5918783" lon="8.2590467"><ele>682.0</ele><time>2026-04-25T15:52:20.995Z</time></trkpt><trkpt lat="44.591815" lon="8.259095"><ele>682.0</ele><time>2026-04-25T15:52:21.997Z</time></trkpt><trkpt lat="44.5917317" lon="8.259165"><ele>682.0</ele><time>2026-04-25T15:52:22.997Z</time></trkpt><trkpt lat="44.5916283" lon="8.2592467"><ele>682.0</ele><time>2026-04-25T15:52:23.994Z</time></trkpt><trkpt lat="44.5915" lon="8.2593367"><ele>682.0</ele><time>2026-04-25T15:52:24.996Z</time></trkpt><trkpt lat="44.59136" lon="8.2594183"><ele>682.0</ele><time>2026-04-25T15:52:25.997Z</time></trkpt><trkpt lat="44.591235" lon="8.259495"><ele>682.0</ele><time>2026-04-25T15:52:26.995Z</time></trkpt><trkpt lat="44.5911133" lon="8.25957"><ele>682.0</ele><time>2026-04-25T15:52:28.001Z</time></trkpt><trkpt lat="44.590995" lon="8.259655"><ele>683.6</ele><time>2026-04-25T15:52:28.997Z</time></trkpt><trkpt lat="44.590885" lon="8.2597317"><ele>685.2</ele><time>2026-04-25T15:52:30.002Z</time></trkpt><trkpt lat="44.5907917" lon="8.2598083"><ele>686.8</ele><time>2026-04-25T15:52:30.998Z</time></trkpt><trkpt lat="44.590715" lon="8.25987"><ele>688.4</ele><time>2026-04-25T15:52:31.997Z</time></trkpt><trkpt lat="44.5906467" lon="8.259915"><ele>690.0</ele><time>2026-04-25T15:52:33.003Z</time></trkpt><trkpt lat="44.59058" lon="8.259935"><ele>690.0</ele><time>2026-04-25T15:52:33.993Z</time></trkpt><trkpt lat="44.5905783" lon="8.259835"><ele>690.0</ele><time>2026-04-25T15:52:35.001Z</time></trkpt><trkpt lat="44.5906067" lon="8.259685"><ele>690.0</ele><time>2026-04-25T15:52:37Z</time></trkpt><trkpt lat="44.5906683" lon="8.2595967"><ele>690.0</ele><time>2026-04-25T15:52:37.994Z</time></trkpt><trkpt lat="44.5907333" lon="8.2595017"><ele>690.0</ele><time>2026-04-25T15:52:38.997Z</time></trkpt><trkpt lat="44.5908033" lon="8.2594017"><ele>686.6</ele><time>2026-04-25T15:52:39.999Z</time></trkpt><trkpt lat="44.59088" lon="8.2593033"><ele>683.2</ele><time>2026-04-25T15:52:40.994Z</time></trkpt><trkpt lat="44.590955" lon="8.2592017"><ele>679.8</ele><time>2026-04-25T15:52:41.996Z</time></trkpt><trkpt lat="44.5910367" lon="8.2590983"><ele>676.4</ele><time>2026-04-25T15:52:42.997Z</time></trkpt><trkpt lat="44.59112" lon="8.2589933"><ele>673.0</ele><time>2026-04-25T15:52:43.997Z</time></trkpt><trkpt lat="44.5912033" lon="8.258885"><ele>671.25</ele><time>2026-04-25T15:52:44.998Z</time></trkpt><trkpt lat="44.59129" lon="8.2587767"><ele>669.5</ele><time>2026-04-25T15:52:45.996Z</time></trkpt><trkpt lat="44.5913783" lon="8.2586733"><ele>667.75</ele><time>2026-04-25T15:52:46.999Z</time></trkpt><trkpt lat="44.5914667" lon="8.2585717"><ele>666.0</ele><time>2026-04-25T15:52:47.996Z</time></trkpt><trkpt lat="44.5915617" lon="8.258485"><ele>666.0</ele><time>2026-04-25T15:52:49.001Z</time></trkpt><trkpt lat="44.591665" lon="8.25843"><ele>666.0</ele><time>2026-04-25T15:52:49.996Z</time></trkpt><trkpt lat="44.591775" lon="8.25839"><ele>666.0</ele><time>2026-04-25T15:52:50.995Z</time></trkpt><trkpt lat="44.591885" lon="8.2583433"><ele>666.0</ele><time>2026-04-25T15:52:51.997Z</time></trkpt><trkpt lat="44.5919967" lon="8.258285"><ele>668.25</ele><time>2026-04-25T15:52:52.996Z</time></trkpt><trkpt lat="44.5921133" lon="8.2582183"><ele>670.5</ele><time>2026-04-25T15:52:53.995Z</time></trkpt><trkpt lat="44.5922317" lon="8.2581433"><ele>672.75</ele><time>2026-04-25T15:52:54.997Z</time></trkpt><trkpt lat="44.5923467" lon="8.2580617"><ele>675.0</ele><time>2026-04-25T15:52:55.994Z</time></trkpt><trkpt lat="44.5924517" lon="8.2579633"><ele>672.25</ele><time>2026-04-25T15:52:56.999Z</time></trkpt><trkpt lat="44.5925633" lon="8.257865"><ele>669.5</ele><time>2026-04-25T15:52:57.996Z</time></trkpt><trkpt lat="44.592675" lon="8.2577683"><ele>666.75</ele><time>2026-04-25T15:52:58.995Z</time></trkpt><trkpt lat="44.5927833" lon="8.2576633"><ele>664.0</ele><time>2026-04-25T15:52:59.995Z</time></trkpt><trkpt lat="44.59289" lon="8.2575533"><ele>664.0</ele><time>2026-04-25T15:53:00.995Z</time></trkpt><trkpt lat="44.5930017" lon="8.2574533"><ele>664.0</ele><time>2026-04-25T15:53:02.005Z</time></trkpt><trkpt lat="44.5931133" lon="8.25736"><ele>664.0</ele><time>2026-04-25T15:53:02.994Z</time></trkpt><trkpt lat="44.59323" lon="8.2572683"><ele>664.0</ele><time>2026-04-25T15:53:03.998Z</time></trkpt><trkpt lat="44.5933433" lon="8.2571717"><ele>661.75</ele><time>2026-04-25T15:53:04.992Z</time></trkpt><trkpt lat="44.593465" lon="8.257085"><ele>659.5</ele><time>2026-04-25T15:53:05.996Z</time></trkpt><trkpt lat="44.5935867" lon="8.2569917"><ele>657.25</ele><time>2026-04-25T15:53:06.995Z</time></trkpt><trkpt lat="44.5937083" lon="8.2568983"><ele>655.0</ele><time>2026-04-25T15:53:07.997Z</time></trkpt><trkpt lat="44.5938067" lon="8.2567717"><ele>655.0</ele><time>2026-04-25T15:53:09Z</time></trkpt><trkpt lat="44.59391" lon="8.2566617"><ele>655.0</ele><time>2026-04-25T15:53:09.995Z</time></trkpt><trkpt lat="44.5940017" lon="8.2565533"><ele>655.0</ele><time>2026-04-25T15:53:10.995Z</time></trkpt><trkpt lat="44.5940817" lon="8.2564533"><ele>655.0</ele><time>2026-04-25T15:53:11.994Z</time></trkpt><trkpt lat="44.594155" lon="8.2563567"><ele>652.2</ele><time>2026-04-25T15:53:13Z</time></trkpt><trkpt lat="44.594215" lon="8.2562567"><ele>649.4</ele><time>2026-04-25T15:53:13.994Z</time></trkpt><trkpt lat="44.5942633" lon="8.25614"><ele>646.5999999999999</ele><time>2026-04-25T15:53:14.994Z</time></trkpt><trkpt lat="44.5942967" lon="8.256005"><ele>643.8</ele><time>2026-04-25T15:53:15.996Z</time></trkpt><trkpt lat="44.5943167" lon="8.255855"><ele>641.0</ele><time>2026-04-25T15:53:16.995Z</time></trkpt><trkpt lat="44.59434" lon="8.25571"><ele>639.4</ele><time>2026-04-25T15:53:17.999Z</time></trkpt><trkpt lat="44.594365" lon="8.2555633"><ele>637.8</ele><time>2026-04-25T15:53:19.001Z</time></trkpt><trkpt lat="44.59439" lon="8.255425"><ele>636.1999999999999</ele><time>2026-04-25T15:53:19.994Z</time></trkpt><trkpt lat="44.594405" lon="8.2552867"><ele>634.5999999999999</ele><time>2026-04-25T15:53:20.995Z</time></trkpt><trkpt lat="44.5944267" lon="8.2551567"><ele>633.0</ele><time>2026-04-25T15:53:21.996Z</time></trkpt><trkpt lat="44.5944567" lon="8.2550183"><ele>633.0</ele><time>2026-04-25T15:53:22.999Z</time></trkpt><trkpt lat="44.5944967" lon="8.2548767"><ele>633.0</ele><time>2026-04-25T15:53:23.996Z</time></trkpt><trkpt lat="44.594545" lon="8.2547317"><ele>633.0</ele><time>2026-04-25T15:53:24.998Z</time></trkpt><trkpt lat="44.594605" lon="8.254595"><ele>633.0</ele><time>2026-04-25T15:53:25.993Z</time></trkpt><trkpt lat="44.5946633" lon="8.2544583"><ele>635.4</ele><time>2026-04-25T15:53:26.997Z</time></trkpt><trkpt lat="44.594725" lon="8.25433"><ele>637.8</ele><time>2026-04-25T15:53:27.998Z</time></trkpt><trkpt lat="44.59478" lon="8.2542083"><ele>640.2</ele><time>2026-04-25T15:53:28.995Z</time></trkpt><trkpt lat="44.594825" lon="8.254085"><ele>642.6</ele><time>2026-04-25T15:53:29.999Z</time></trkpt><trkpt lat="44.5948533" lon="8.2539633"><ele>645.0</ele><time>2026-04-25T15:53:30.996Z</time></trkpt><trkpt lat="44.5948633" lon="8.2538467"><ele>645.0</ele><time>2026-04-25T15:53:31.995Z</time></trkpt><trkpt lat="44.59486" lon="8.2537333"><ele>645.0</ele><time>2026-04-25T15:53:33.002Z</time></trkpt><trkpt lat="44.594845" lon="8.253625"><ele>645.0</ele><time>2026-04-25T15:53:33.995Z</time></trkpt><trkpt lat="44.5948167" lon="8.2535233"><ele>645.0</ele><time>2026-04-25T15:53:34.992Z</time></trkpt><trkpt lat="44.5947833" lon="8.2534167"><ele>645.0</ele><time>2026-04-25T15:53:35.995Z</time></trkpt><trkpt lat="44.5947533" lon="8.2533067"><ele>645.0</ele><time>2026-04-25T15:53:37.002Z</time></trkpt><trkpt lat="44.5947383" lon="8.25319"><ele>644.0</ele><time>2026-04-25T15:53:37.995Z</time></trkpt><trkpt lat="44.594735" lon="8.2530667"><ele>643.0</ele><time>2026-04-25T15:53:38.999Z</time></trkpt><trkpt lat="44.5947433" lon="8.2529467"><ele>642.0</ele><time>2026-04-25T15:53:39.996Z</time></trkpt><trkpt lat="44.594765" lon="8.2528283"><ele>641.0</ele><time>2026-04-25T15:53:40.997Z</time></trkpt><trkpt lat="44.5948283" lon="8.25274"><ele>640.0</ele><time>2026-04-25T15:53:41.998Z</time></trkpt><trkpt lat="44.59488" lon="8.2526467"><ele>639.0</ele><time>2026-04-25T15:53:42.996Z</time></trkpt><trkpt lat="44.5949167" lon="8.2525533"><ele>639.0</ele><time>2026-04-25T15:53:43.996Z</time></trkpt><trkpt lat="44.59495" lon="8.2524633"><ele>639.0</ele><time>2026-04-25T15:53:45.001Z</time></trkpt><trkpt lat="44.5949667" lon="8.25236"><ele>639.0</ele><time>2026-04-25T15:53:45.998Z</time></trkpt><trkpt lat="44.5949267" lon="8.2522333"><ele>639.0</ele><time>2026-04-25T15:53:46.998Z</time></trkpt><trkpt lat="44.594895" lon="8.25212"><ele>639.0</ele><time>2026-04-25T15:53:47.998Z</time></trkpt><trkpt lat="44.5948483" lon="8.2520117"><ele>639.0</ele><time>2026-04-25T15:53:49.001Z</time></trkpt><trkpt lat="44.5947967" lon="8.25191"><ele>639.0</ele><time>2026-04-25T15:53:49.992Z</time></trkpt><trkpt lat="44.5947567" lon="8.2518067"><ele>639.0</ele><time>2026-04-25T15:53:50.996Z</time></trkpt><trkpt lat="44.5947183" lon="8.2516917"><ele>639.0</ele><time>2026-04-25T15:53:51.994Z</time></trkpt><trkpt lat="44.5946683" lon="8.25159"><ele>639.0</ele><time>2026-04-25T15:53:52.992Z</time></trkpt><trkpt lat="44.5946217" lon="8.251485"><ele>639.0</ele><time>2026-04-25T15:53:53.997Z</time></trkpt><trkpt lat="44.594555" lon="8.251395"><ele>639.0</ele><time>2026-04-25T15:53:55.001Z</time></trkpt><trkpt lat="44.5944967" lon="8.2512983"><ele>636.5</ele><time>2026-04-25T15:53:55.994Z</time></trkpt><trkpt lat="44.5944467" lon="8.2512083"><ele>634.0</ele><time>2026-04-25T15:53:56.999Z</time></trkpt><trkpt lat="44.5944133" lon="8.25111"><ele>631.5</ele><time>2026-04-25T15:53:57.998Z</time></trkpt><trkpt lat="44.594425" lon="8.25101"><ele>629.0</ele><time>2026-04-25T15:53:58.996Z</time></trkpt><trkpt lat="44.5944417" lon="8.25092"><ele>626.5</ele><time>2026-04-25T15:53:59.995Z</time></trkpt><trkpt lat="44.59446" lon="8.2508333"><ele>624.0</ele><time>2026-04-25T15:54:00.999Z</time></trkpt><trkpt lat="44.5946217" lon="8.2507667"><ele>624.0</ele><time>2026-04-25T15:54:02.997Z</time></trkpt><trkpt lat="44.5947033" lon="8.2507483"><ele>624.0</ele><time>2026-04-25T15:54:03.998Z</time></trkpt><trkpt lat="44.5948167" lon="8.2507583"><ele>624.0</ele><time>2026-04-25T15:54:04.992Z</time></trkpt><trkpt lat="44.59492" lon="8.2507617"><ele>624.0</ele><time>2026-04-25T15:54:05.993Z</time></trkpt><trkpt lat="44.5950217" lon="8.250745"><ele>624.0</ele><time>2026-04-25T15:54:06.996Z</time></trkpt><trkpt lat="44.5951233" lon="8.2507267"><ele>624.0</ele><time>2026-04-25T15:54:07.996Z</time></trkpt><trkpt lat="44.5952217" lon="8.2507067"><ele>624.0</ele><time>2026-04-25T15:54:09Z</time></trkpt><trkpt lat="44.5953233" lon="8.2507117"><ele>624.0</ele><time>2026-04-25T15:54:09.994Z</time></trkpt><trkpt lat="44.5954233" lon="8.2507433"><ele>624.0</ele><time>2026-04-25T15:54:10.997Z</time></trkpt><trkpt lat="44.5955217" lon="8.250785"><ele>624.0</ele><time>2026-04-25T15:54:11.993Z</time></trkpt><trkpt lat="44.5956183" lon="8.2508317"><ele>623.8</ele><time>2026-04-25T15:54:12.993Z</time></trkpt><trkpt lat="44.5957133" lon="8.2508733"><ele>623.5999999999999</ele><time>2026-04-25T15:54:13.996Z</time></trkpt><trkpt lat="44.5958133" lon="8.25092"><ele>623.4</ele><time>2026-04-25T15:54:14.995Z</time></trkpt><trkpt lat="44.5959117" lon="8.2509717"><ele>623.1999999999999</ele><time>2026-04-25T15:54:15.993Z</time></trkpt><trkpt lat="44.5960083" lon="8.2510383"><ele>623.0</ele><time>2026-04-25T15:54:16.995Z</time></trkpt><trkpt lat="44.5961" lon="8.25111"><ele>622.1999999999999</ele><time>2026-04-25T15:54:17.993Z</time></trkpt><trkpt lat="44.5961883" lon="8.2511767"><ele>621.4</ele><time>2026-04-25T15:54:18.996Z</time></trkpt><trkpt lat="44.5962783" lon="8.2512233"><ele>620.5999999999999</ele><time>2026-04-25T15:54:19.996Z</time></trkpt><trkpt lat="44.5963733" lon="8.2512467"><ele>619.8</ele><time>2026-04-25T15:54:20.998Z</time></trkpt><trkpt lat="44.5964767" lon="8.2512533"><ele>619.0</ele><time>2026-04-25T15:54:22Z</time></trkpt><trkpt lat="44.5965817" lon="8.2512533"><ele>619.0</ele><time>2026-04-25T15:54:22.996Z</time></trkpt><trkpt lat="44.5966867" lon="8.25125"><ele>619.0</ele><time>2026-04-25T15:54:23.997Z</time></trkpt><trkpt lat="44.5967917" lon="8.2512433"><ele>619.0</ele><time>2026-04-25T15:54:24.994Z</time></trkpt><trkpt lat="44.5969033" lon="8.2512467"><ele>619.0</ele><time>2026-04-25T15:54:25.994Z</time></trkpt><trkpt lat="44.59702" lon="8.2512483"><ele>619.0</ele><time>2026-04-25T15:54:26.994Z</time></trkpt><trkpt lat="44.5971367" lon="8.25126"><ele>618.2</ele><time>2026-04-25T15:54:28Z</time></trkpt><trkpt lat="44.5972533" lon="8.25127"><ele>617.4</ele><time>2026-04-25T15:54:28.993Z</time></trkpt><trkpt lat="44.5973667" lon="8.251265"><ele>616.6</ele><time>2026-04-25T15:54:29.996Z</time></trkpt><trkpt lat="44.5974717" lon="8.2512283"><ele>615.8</ele><time>2026-04-25T15:54:30.997Z</time></trkpt><trkpt lat="44.5975633" lon="8.2511683"><ele>615.0</ele><time>2026-04-25T15:54:31.996Z</time></trkpt><trkpt lat="44.5976433" lon="8.2510817"><ele>615.0</ele><time>2026-04-25T15:54:32.998Z</time></trkpt><trkpt lat="44.5977067" lon="8.250965"><ele>615.0</ele><time>2026-04-25T15:54:33.994Z</time></trkpt><trkpt lat="44.5977783" lon="8.250845"><ele>615.0</ele><time>2026-04-25T15:54:35.004Z</time></trkpt><trkpt lat="44.597845" lon="8.2507183"><ele>615.0</ele><time>2026-04-25T15:54:36Z</time></trkpt><trkpt lat="44.59791" lon="8.2505933"><ele>615.0</ele><time>2026-04-25T15:54:36.994Z</time></trkpt><trkpt lat="44.597985" lon="8.2504917"><ele>613.4</ele><time>2026-04-25T15:54:38Z</time></trkpt><trkpt lat="44.598065" lon="8.25041"><ele>611.8</ele><time>2026-04-25T15:54:38.999Z</time></trkpt><trkpt lat="44.5981433" lon="8.2503267"><ele>610.2</ele><time>2026-04-25T15:54:40.002Z</time></trkpt><trkpt lat="44.5982233" lon="8.25025"><ele>608.6</ele><time>2026-04-25T15:54:40.998Z</time></trkpt><trkpt lat="44.59831" lon="8.25021"><ele>607.0</ele><time>2026-04-25T15:54:41.996Z</time></trkpt><trkpt lat="44.5983983" lon="8.2501883"><ele>607.0</ele><time>2026-04-25T15:54:42.998Z</time></trkpt><trkpt lat="44.5984917" lon="8.2501683"><ele>607.0</ele><time>2026-04-25T15:54:43.996Z</time></trkpt><trkpt lat="44.5985883" lon="8.2501733"><ele>607.0</ele><time>2026-04-25T15:54:44.999Z</time></trkpt><trkpt lat="44.5986933" lon="8.2501767"><ele>607.0</ele><time>2026-04-25T15:54:45.998Z</time></trkpt><trkpt lat="44.5988033" lon="8.2501883"><ele>607.0</ele><time>2026-04-25T15:54:46.996Z</time></trkpt><trkpt lat="44.598905" lon="8.2501617"><ele>606.25</ele><time>2026-04-25T15:54:47.996Z</time></trkpt><trkpt lat="44.5990083" lon="8.2501133"><ele>605.5</ele><time>2026-04-25T15:54:48.997Z</time></trkpt><trkpt lat="44.5991" lon="8.25004"><ele>604.75</ele><time>2026-04-25T15:54:49.999Z</time></trkpt><trkpt lat="44.5991983" lon="8.249955"><ele>604.0</ele><time>2026-04-25T15:54:50.996Z</time></trkpt><trkpt lat="44.599305" lon="8.2498733"><ele>601.0</ele><time>2026-04-25T15:54:51.997Z</time></trkpt><trkpt lat="44.5994133" lon="8.249785"><ele>598.0</ele><time>2026-04-25T15:54:52.995Z</time></trkpt><trkpt lat="44.5995283" lon="8.2497"><ele>595.0</ele><time>2026-04-25T15:54:53.997Z</time></trkpt><trkpt lat="44.5996417" lon="8.2496167"><ele>592.0</ele><time>2026-04-25T15:54:54.998Z</time></trkpt><trkpt lat="44.59975" lon="8.2495217"><ele>592.0</ele><time>2026-04-25T15:54:56.001Z</time></trkpt><trkpt lat="44.5998517" lon="8.2493917"><ele>592.0</ele><time>2026-04-25T15:54:56.995Z</time></trkpt><trkpt lat="44.59997" lon="8.2492383"><ele>592.0</ele><time>2026-04-25T15:54:57.996Z</time></trkpt><trkpt lat="44.600075" lon="8.2490617"><ele>587.3333333333334</ele><time>2026-04-25T15:54:58.995Z</time></trkpt><trkpt lat="44.6001583" lon="8.248865"><ele>582.6666666666666</ele><time>2026-04-25T15:54:59.994Z</time></trkpt><trkpt lat="44.6002133" lon="8.2486383"><ele>578.0</ele><time>2026-04-25T15:55:00.995Z</time></trkpt><trkpt lat="44.6002567" lon="8.248405"><ele>578.0</ele><time>2026-04-25T15:55:02Z</time></trkpt><trkpt lat="44.600285" lon="8.2481867"><ele>578.0</ele><time>2026-04-25T15:55:02.997Z</time></trkpt><trkpt lat="44.6003183" lon="8.24801"><ele>578.0</ele><time>2026-04-25T15:55:03.997Z</time></trkpt><trkpt lat="44.6003767" lon="8.2478733"><ele>578.0</ele><time>2026-04-25T15:55:05Z</time></trkpt><trkpt lat="44.6004517" lon="8.2477633"><ele>577.75</ele><time>2026-04-25T15:55:05.995Z</time></trkpt><trkpt lat="44.6005517" lon="8.2476867"><ele>577.5</ele><time>2026-04-25T15:55:06.999Z</time></trkpt><trkpt lat="44.6006783" lon="8.2476533"><ele>577.25</ele><time>2026-04-25T15:55:07.995Z</time></trkpt><trkpt lat="44.6008233" lon="8.2476417"><ele>577.0</ele><time>2026-04-25T15:55:08.995Z</time></trkpt><trkpt lat="44.6009883" lon="8.2476383"><ele>577.0</ele><time>2026-04-25T15:55:10Z</time></trkpt><trkpt lat="44.6011383" lon="8.2476017"><ele>577.0</ele><time>2026-04-25T15:55:10.997Z</time></trkpt><trkpt lat="44.6012733" lon="8.2475517"><ele>577.0</ele><time>2026-04-25T15:55:11.997Z</time></trkpt><trkpt lat="44.6014" lon="8.2474867"><ele>577.0</ele><time>2026-04-25T15:55:12.994Z</time></trkpt><trkpt lat="44.601515" lon="8.24743"><ele>576.25</ele><time>2026-04-25T15:55:13.995Z</time></trkpt><trkpt lat="44.6016217" lon="8.2473767"><ele>575.5</ele><time>2026-04-25T15:55:14.994Z</time></trkpt><trkpt lat="44.6017317" lon="8.24735"><ele>574.75</ele><time>2026-04-25T15:55:15.998Z</time></trkpt><trkpt lat="44.6018617" lon="8.2473483"><ele>574.0</ele><time>2026-04-25T15:55:16.994Z</time></trkpt><trkpt lat="44.602" lon="8.247345"><ele>571.25</ele><time>2026-04-25T15:55:17.995Z</time></trkpt><trkpt lat="44.602145" lon="8.2473383"><ele>568.5</ele><time>2026-04-25T15:55:18.996Z</time></trkpt><trkpt lat="44.6022817" lon="8.247315"><ele>565.75</ele><time>2026-04-25T15:55:19.997Z</time></trkpt><trkpt lat="44.6024083" lon="8.2472633"><ele>563.0</ele><time>2026-04-25T15:55:20.997Z</time></trkpt><trkpt lat="44.60252" lon="8.2471883"><ele>562.4</ele><time>2026-04-25T15:55:21.993Z</time></trkpt><trkpt lat="44.6026217" lon="8.2471033"><ele>561.8</ele><time>2026-04-25T15:55:22.994Z</time></trkpt><trkpt lat="44.6027183" lon="8.2470183"><ele>561.2</ele><time>2026-04-25T15:55:24.002Z</time></trkpt><trkpt lat="44.6028133" lon="8.2469517"><ele>560.6</ele><time>2026-04-25T15:55:24.996Z</time></trkpt><trkpt lat="44.6029167" lon="8.2469233"><ele>560.0</ele><time>2026-04-25T15:55:25.998Z</time></trkpt><trkpt lat="44.6030167" lon="8.2469267"><ele>561.5</ele><time>2026-04-25T15:55:26.997Z</time></trkpt><trkpt lat="44.603125" lon="8.2469317"><ele>563.0</ele><time>2026-04-25T15:55:28Z</time></trkpt><trkpt lat="44.6032267" lon="8.2468833"><ele>564.5</ele><time>2026-04-25T15:55:28.998Z</time></trkpt><trkpt lat="44.6033283" lon="8.2468017"><ele>566.0</ele><time>2026-04-25T15:55:30Z</time></trkpt><trkpt lat="44.6034267" lon="8.2467017"><ele>566.0</ele><time>2026-04-25T15:55:30.994Z</time></trkpt><trkpt lat="44.6035183" lon="8.246595"><ele>566.0</ele><time>2026-04-25T15:55:32.003Z</time></trkpt><trkpt lat="44.6036067" lon="8.24648"><ele>566.0</ele><time>2026-04-25T15:55:32.999Z</time></trkpt><trkpt lat="44.6036917" lon="8.2463717"><ele>566.0</ele><time>2026-04-25T15:55:33.995Z</time></trkpt><trkpt lat="44.6037867" lon="8.2462567"><ele>566.75</ele><time>2026-04-25T15:55:35.001Z</time></trkpt><trkpt lat="44.6038883" lon="8.2461367"><ele>567.5</ele><time>2026-04-25T15:55:35.996Z</time></trkpt><trkpt lat="44.604" lon="8.24603"><ele>568.25</ele><time>2026-04-25T15:55:36.997Z</time></trkpt><trkpt lat="44.6041083" lon="8.245915"><ele>569.0</ele><time>2026-04-25T15:55:37.997Z</time></trkpt><trkpt lat="44.6042117" lon="8.2457933"><ele>569.0</ele><time>2026-04-25T15:55:39.003Z</time></trkpt><trkpt lat="44.6043133" lon="8.24567"><ele>569.0</ele><time>2026-04-25T15:55:40Z</time></trkpt><trkpt lat="44.6044217" lon="8.2455733"><ele>569.0</ele><time>2026-04-25T15:55:40.993Z</time></trkpt><trkpt lat="44.6045333" lon="8.245515"><ele>569.0</ele><time>2026-04-25T15:55:41.993Z</time></trkpt><trkpt lat="44.6046417" lon="8.245495"><ele>569.0</ele><time>2026-04-25T15:55:42.993Z</time></trkpt><trkpt lat="44.6047483" lon="8.2454867"><ele>569.0</ele><time>2026-04-25T15:55:44.005Z</time></trkpt><trkpt lat="44.6048483" lon="8.2454433"><ele>569.0</ele><time>2026-04-25T15:55:44.999Z</time></trkpt><trkpt lat="44.6049517" lon="8.2454233"><ele>569.0</ele><time>2026-04-25T15:55:46.002Z</time></trkpt><trkpt lat="44.605045" lon="8.2453283"><ele>569.0</ele><time>2026-04-25T15:55:47.003Z</time></trkpt><trkpt lat="44.6051383" lon="8.245275"><ele>569.0</ele><time>2026-04-25T15:55:47.995Z</time></trkpt><trkpt lat="44.60522" lon="8.2451683"><ele>569.0</ele><time>2026-04-25T15:55:49.001Z</time></trkpt><trkpt lat="44.60529" lon="8.2450717"><ele>569.0</ele><time>2026-04-25T15:55:49.999Z</time></trkpt><trkpt lat="44.6053533" lon="8.2449467"><ele>569.0</ele><time>2026-04-25T15:55:50.996Z</time></trkpt><trkpt lat="44.6054233" lon="8.2448233"><ele>569.0</ele><time>2026-04-25T15:55:51.998Z</time></trkpt><trkpt lat="44.6055133" lon="8.24473"><ele>568.2</ele><time>2026-04-25T15:55:52.997Z</time></trkpt><trkpt lat="44.605605" lon="8.244655"><ele>567.4</ele><time>2026-04-25T15:55:53.995Z</time></trkpt><trkpt lat="44.605705" lon="8.24461"><ele>566.6</ele><time>2026-04-25T15:55:54.997Z</time></trkpt><trkpt lat="44.6058067" lon="8.2445733"><ele>565.8</ele><time>2026-04-25T15:55:55.999Z</time></trkpt><trkpt lat="44.6059033" lon="8.2445033"><ele>565.0</ele><time>2026-04-25T15:55:57.002Z</time></trkpt><trkpt lat="44.605995" lon="8.2444233"><ele>565.0</ele><time>2026-04-25T15:55:57.995Z</time></trkpt><trkpt lat="44.6060817" lon="8.2443267"><ele>565.0</ele><time>2026-04-25T15:55:58.999Z</time></trkpt><trkpt lat="44.6061683" lon="8.24422"><ele>565.0</ele><time>2026-04-25T15:55:59.998Z</time></trkpt><trkpt lat="44.6062633" lon="8.244115"><ele>565.0</ele><time>2026-04-25T15:56:01.001Z</time></trkpt><trkpt lat="44.6063683" lon="8.2440233"><ele>563.25</ele><time>2026-04-25T15:56:01.998Z</time></trkpt><trkpt lat="44.6064767" lon="8.243935"><ele>561.5</ele><time>2026-04-25T15:56:02.998Z</time></trkpt><trkpt lat="44.6065883" lon="8.2438433"><ele>559.75</ele><time>2026-04-25T15:56:03.995Z</time></trkpt><trkpt lat="44.606715" lon="8.2437733"><ele>558.0</ele><time>2026-04-25T15:56:04.995Z</time></trkpt><trkpt lat="44.606845" lon="8.2437183"><ele>558.0</ele><time>2026-04-25T15:56:05.994Z</time></trkpt><trkpt lat="44.60697" lon="8.243675"><ele>558.0</ele><time>2026-04-25T15:56:06.994Z</time></trkpt><trkpt lat="44.6070917" lon="8.2436233"><ele>558.0</ele><time>2026-04-25T15:56:07.996Z</time></trkpt><trkpt lat="44.6072117" lon="8.2435683"><ele>558.0</ele><time>2026-04-25T15:56:08.996Z</time></trkpt><trkpt lat="44.6073233" lon="8.2435117"><ele>557.5</ele><time>2026-04-25T15:56:10.001Z</time></trkpt><trkpt lat="44.6074217" lon="8.2434617"><ele>557.0</ele><time>2026-04-25T15:56:10.999Z</time></trkpt><trkpt lat="44.6075033" lon="8.2434167"><ele>556.5</ele><time>2026-04-25T15:56:11.996Z</time></trkpt><trkpt lat="44.6075767" lon="8.2433783"><ele>556.0</ele><time>2026-04-25T15:56:12.999Z</time></trkpt><trkpt lat="44.6076367" lon="8.2433433"><ele>555.5</ele><time>2026-04-25T15:56:13.996Z</time></trkpt><trkpt lat="44.607665" lon="8.24322"><ele>555.0</ele><time>2026-04-25T15:56:15.994Z</time></trkpt><trkpt lat="44.6076133" lon="8.2431467"><ele>552.8</ele><time>2026-04-25T15:56:16.995Z</time></trkpt><trkpt lat="44.6075633" lon="8.2430883"><ele>550.6</ele><time>2026-04-25T15:56:17.996Z</time></trkpt><trkpt lat="44.6074967" lon="8.243025"><ele>548.4</ele><time>2026-04-25T15:56:18.997Z</time></trkpt><trkpt lat="44.6073933" lon="8.2429567"><ele>546.2</ele><time>2026-04-25T15:56:20.002Z</time></trkpt><trkpt lat="44.6072883" lon="8.2428733"><ele>544.0</ele><time>2026-04-25T15:56:21.003Z</time></trkpt><trkpt lat="44.6071867" lon="8.242775"><ele>544.0</ele><time>2026-04-25T15:56:22.001Z</time></trkpt><trkpt lat="44.6070867" lon="8.242685"><ele>544.0</ele><time>2026-04-25T15:56:22.998Z</time></trkpt><trkpt lat="44.606975" lon="8.242615"><ele>544.0</ele><time>2026-04-25T15:56:23.996Z</time></trkpt><trkpt lat="44.6068683" lon="8.2425783"><ele>544.0</ele><time>2026-04-25T15:56:24.995Z</time></trkpt><trkpt lat="44.60675" lon="8.24257"><ele>544.5</ele><time>2026-04-25T15:56:25.995Z</time></trkpt><trkpt lat="44.6066317" lon="8.2425717"><ele>545.0</ele><time>2026-04-25T15:56:26.998Z</time></trkpt><trkpt lat="44.606515" lon="8.2425483"><ele>545.5</ele><time>2026-04-25T15:56:27.992Z</time></trkpt><trkpt lat="44.6064017" lon="8.2424967"><ele>546.0</ele><time>2026-04-25T15:56:28.994Z</time></trkpt><trkpt lat="44.6063067" lon="8.2423917"><ele>545.25</ele><time>2026-04-25T15:56:29.992Z</time></trkpt><trkpt lat="44.60622" lon="8.2422583"><ele>544.5</ele><time>2026-04-25T15:56:30.995Z</time></trkpt><trkpt lat="44.6061383" lon="8.2420967"><ele>543.75</ele><time>2026-04-25T15:56:31.996Z</time></trkpt><trkpt lat="44.60608" lon="8.2419067"><ele>543.0</ele><time>2026-04-25T15:56:32.999Z</time></trkpt><trkpt lat="44.6060383" lon="8.2417017"><ele>543.0</ele><time>2026-04-25T15:56:33.995Z</time></trkpt><trkpt lat="44.6060017" lon="8.2414933"><ele>543.0</ele><time>2026-04-25T15:56:34.998Z</time></trkpt><trkpt lat="44.6059683" lon="8.24131"><ele>543.0</ele><time>2026-04-25T15:56:35.995Z</time></trkpt><trkpt lat="44.6059517" lon="8.2411467"><ele>543.0</ele><time>2026-04-25T15:56:36.996Z</time></trkpt><trkpt lat="44.6059483" lon="8.2410083"><ele>541.1999999999999</ele><time>2026-04-25T15:56:37.998Z</time></trkpt><trkpt lat="44.6059683" lon="8.2408867"><ele>539.4</ele><time>2026-04-25T15:56:38.995Z</time></trkpt><trkpt lat="44.6060033" lon="8.2407733"><ele>537.5999999999999</ele><time>2026-04-25T15:56:39.998Z</time></trkpt><trkpt lat="44.6060933" lon="8.2407083"><ele>535.8</ele><time>2026-04-25T15:56:40.996Z</time></trkpt><trkpt lat="44.606205" lon="8.240675"><ele>534.0</ele><time>2026-04-25T15:56:41.998Z</time></trkpt><trkpt lat="44.6063183" lon="8.2406333"><ele>531.0</ele><time>2026-04-25T15:56:42.994Z</time></trkpt><trkpt lat="44.6064317" lon="8.240595"><ele>528.0</ele><time>2026-04-25T15:56:43.992Z</time></trkpt><trkpt lat="44.606535" lon="8.240565"><ele>525.0</ele><time>2026-04-25T15:56:44.997Z</time></trkpt><trkpt lat="44.6066367" lon="8.2405533"><ele>522.0</ele><time>2026-04-25T15:56:45.994Z</time></trkpt><trkpt lat="44.606745" lon="8.24058"><ele>519.0</ele><time>2026-04-25T15:56:46.998Z</time></trkpt><trkpt lat="44.606865" lon="8.24062"><ele>519.5</ele><time>2026-04-25T15:56:47.997Z</time></trkpt><trkpt lat="44.6069817" lon="8.2406417"><ele>520.0</ele><time>2026-04-25T15:56:48.998Z</time></trkpt><trkpt lat="44.6071067" lon="8.2406383"><ele>520.5</ele><time>2026-04-25T15:56:49.991Z</time></trkpt><trkpt lat="44.6072317" lon="8.2406083"><ele>521.0</ele><time>2026-04-25T15:56:50.998Z</time></trkpt><trkpt lat="44.6073483" lon="8.24055"><ele>518.75</ele><time>2026-04-25T15:56:51.997Z</time></trkpt><trkpt lat="44.6074617" lon="8.2404733"><ele>516.5</ele><time>2026-04-25T15:56:52.996Z</time></trkpt><trkpt lat="44.60756" lon="8.2403867"><ele>514.25</ele><time>2026-04-25T15:56:53.998Z</time></trkpt><trkpt lat="44.607665" lon="8.2402967"><ele>512.0</ele><time>2026-04-25T15:56:54.995Z</time></trkpt><trkpt lat="44.60773" lon="8.2401417"><ele>512.0</ele><time>2026-04-25T15:56:55.998Z</time></trkpt><trkpt lat="44.60777" lon="8.2399617"><ele>512.0</ele><time>2026-04-25T15:56:57.001Z</time></trkpt><trkpt lat="44.60782" lon="8.2398333"><ele>512.0</ele><time>2026-04-25T15:56:57.994Z</time></trkpt><trkpt lat="44.6078783" lon="8.2397167"><ele>512.0</ele><time>2026-04-25T15:56:58.995Z</time></trkpt><trkpt lat="44.6079467" lon="8.2396283"><ele>512.0</ele><time>2026-04-25T15:56:59.992Z</time></trkpt><trkpt lat="44.6080233" lon="8.2395683"><ele>509.25</ele><time>2026-04-25T15:57:00.997Z</time></trkpt><trkpt lat="44.6081217" lon="8.239565"><ele>506.5</ele><time>2026-04-25T15:57:01.995Z</time></trkpt><trkpt lat="44.6082567" lon="8.2395717"><ele>503.75</ele><time>2026-04-25T15:57:02.996Z</time></trkpt><trkpt lat="44.6083933" lon="8.2395483"><ele>501.0</ele><time>2026-04-25T15:57:03.997Z</time></trkpt><trkpt lat="44.6085383" lon="8.2395083"><ele>500.0</ele><time>2026-04-25T15:57:04.994Z</time></trkpt><trkpt lat="44.60869" lon="8.239445"><ele>499.0</ele><time>2026-04-25T15:57:05.997Z</time></trkpt><trkpt lat="44.6088433" lon="8.2393667"><ele>498.0</ele><time>2026-04-25T15:57:06.994Z</time></trkpt><trkpt lat="44.608995" lon="8.239275"><ele>498.0</ele><time>2026-04-25T15:57:07.995Z</time></trkpt><trkpt lat="44.6091433" lon="8.2391883"><ele>498.0</ele><time>2026-04-25T15:57:08.996Z</time></trkpt><trkpt lat="44.6092917" lon="8.2390933"><ele>498.0</ele><time>2026-04-25T15:57:09.997Z</time></trkpt><trkpt lat="44.60944" lon="8.2389967"><ele>495.5</ele><time>2026-04-25T15:57:10.992Z</time></trkpt><trkpt lat="44.60958" lon="8.2389067"><ele>493.0</ele><time>2026-04-25T15:57:11.994Z</time></trkpt><trkpt lat="44.6097083" lon="8.238825"><ele>490.5</ele><time>2026-04-25T15:57:13Z</time></trkpt><trkpt lat="44.6098183" lon="8.2387383"><ele>488.0</ele><time>2026-04-25T15:57:14Z</time></trkpt><trkpt lat="44.6099133" lon="8.2386283"><ele>488.0</ele><time>2026-04-25T15:57:15.002Z</time></trkpt><trkpt lat="44.60999" lon="8.2384917"><ele>488.0</ele><time>2026-04-25T15:57:15.995Z</time></trkpt><trkpt lat="44.61006" lon="8.2383367"><ele>488.0</ele><time>2026-04-25T15:57:16.997Z</time></trkpt><trkpt lat="44.61013" lon="8.2381783"><ele>488.0</ele><time>2026-04-25T15:57:18.002Z</time></trkpt><trkpt lat="44.6101967" lon="8.23802"><ele>485.79999999999995</ele><time>2026-04-25T15:57:19.001Z</time></trkpt><trkpt lat="44.6102517" lon="8.2378783"><ele>483.59999999999997</ele><time>2026-04-25T15:57:19.995Z</time></trkpt><trkpt lat="44.6103083" lon="8.237765"><ele>481.40000000000003</ele><time>2026-04-25T15:57:20.997Z</time></trkpt><trkpt lat="44.6103717" lon="8.2376733"><ele>479.20000000000005</ele><time>2026-04-25T15:57:21.995Z</time></trkpt><trkpt lat="44.6104633" lon="8.2376033"><ele>477.0</ele><time>2026-04-25T15:57:22.996Z</time></trkpt><trkpt lat="44.6105633" lon="8.23755"><ele>476.75</ele><time>2026-04-25T15:57:23.996Z</time></trkpt><trkpt lat="44.6106817" lon="8.2375"><ele>476.5</ele><time>2026-04-25T15:57:25.001Z</time></trkpt><trkpt lat="44.610815" lon="8.2374533"><ele>476.25</ele><time>2026-04-25T15:57:25.993Z</time></trkpt><trkpt lat="44.610955" lon="8.2374"><ele>476.0</ele><time>2026-04-25T15:57:26.995Z</time></trkpt><trkpt lat="44.6111033" lon="8.2373533"><ele>474.3333333333333</ele><time>2026-04-25T15:57:27.997Z</time></trkpt><trkpt lat="44.6112533" lon="8.2373083"><ele>472.66666666666663</ele><time>2026-04-25T15:57:28.999Z</time></trkpt><trkpt lat="44.6114067" lon="8.237265"><ele>471.0</ele><time>2026-04-25T15:57:29.994Z</time></trkpt><trkpt lat="44.6115633" lon="8.2372233"><ele>468.5</ele><time>2026-04-25T15:57:30.997Z</time></trkpt><trkpt lat="44.6117167" lon="8.237185"><ele>466.0</ele><time>2026-04-25T15:57:31.992Z</time></trkpt><trkpt lat="44.6118567" lon="8.237145"><ele>463.5</ele><time>2026-04-25T15:57:32.994Z</time></trkpt><trkpt lat="44.6119833" lon="8.2371117"><ele>461.0</ele><time>2026-04-25T15:57:33.994Z</time></trkpt><trkpt lat="44.6120767" lon="8.2370283"><ele>460.75</ele><time>2026-04-25T15:57:34.993Z</time></trkpt><trkpt lat="44.612135" lon="8.2369133"><ele>460.5</ele><time>2026-04-25T15:57:35.998Z</time></trkpt><trkpt lat="44.6121767" lon="8.236765"><ele>460.25</ele><time>2026-04-25T15:57:36.997Z</time></trkpt><trkpt lat="44.612215" lon="8.2365867"><ele>460.0</ele><time>2026-04-25T15:57:37.994Z</time></trkpt><trkpt lat="44.61225" lon="8.23639"><ele>458.33333333333337</ele><time>2026-04-25T15:57:38.996Z</time></trkpt><trkpt lat="44.61229" lon="8.2361767"><ele>456.66666666666663</ele><time>2026-04-25T15:57:39.996Z</time></trkpt><trkpt lat="44.61233" lon="8.235965"><ele>455.0</ele><time>2026-04-25T15:57:40.996Z</time></trkpt><trkpt lat="44.61237" lon="8.23575"><ele>453.0</ele><time>2026-04-25T15:57:42.003Z</time></trkpt><trkpt lat="44.6124067" lon="8.2355367"><ele>451.0</ele><time>2026-04-25T15:57:42.997Z</time></trkpt><trkpt lat="44.6124433" lon="8.2353383"><ele>449.0</ele><time>2026-04-25T15:57:43.993Z</time></trkpt><trkpt lat="44.6124867" lon="8.235155"><ele>447.0</ele><time>2026-04-25T15:57:44.993Z</time></trkpt><trkpt lat="44.6125417" lon="8.2350017"><ele>447.0</ele><time>2026-04-25T15:57:45.993Z</time></trkpt><trkpt lat="44.6126133" lon="8.23487"><ele>447.0</ele><time>2026-04-25T15:57:46.994Z</time></trkpt><trkpt lat="44.612705" lon="8.2347533"><ele>447.0</ele><time>2026-04-25T15:57:47.995Z</time></trkpt><trkpt lat="44.612805" lon="8.2346433"><ele>447.0</ele><time>2026-04-25T15:57:48.998Z</time></trkpt><trkpt lat="44.6129183" lon="8.234535"><ele>445.25</ele><time>2026-04-25T15:57:49.995Z</time></trkpt><trkpt lat="44.613035" lon="8.2344333"><ele>443.5</ele><time>2026-04-25T15:57:50.997Z</time></trkpt><trkpt lat="44.6131483" lon="8.2343367"><ele>441.75</ele><time>2026-04-25T15:57:51.997Z</time></trkpt><trkpt lat="44.6132567" lon="8.2342583"><ele>440.0</ele><time>2026-04-25T15:57:52.995Z</time></trkpt><trkpt lat="44.6133717" lon="8.2342067"><ele>440.0</ele><time>2026-04-25T15:57:53.996Z</time></trkpt><trkpt lat="44.6135017" lon="8.23419"><ele>440.0</ele><time>2026-04-25T15:57:54.994Z</time></trkpt><trkpt lat="44.61364" lon="8.2341917"><ele>440.0</ele><time>2026-04-25T15:57:55.997Z</time></trkpt><trkpt lat="44.6137817" lon="8.2341917"><ele>440.0</ele><time>2026-04-25T15:57:56.999Z</time></trkpt><trkpt lat="44.61393" lon="8.234195"><ele>438.0</ele><time>2026-04-25T15:57:57.995Z</time></trkpt><trkpt lat="44.61408" lon="8.2341983"><ele>436.0</ele><time>2026-04-25T15:57:58.994Z</time></trkpt><trkpt lat="44.61423" lon="8.2342033"><ele>434.0</ele><time>2026-04-25T15:57:59.993Z</time></trkpt><trkpt lat="44.614375" lon="8.234205"><ele>432.0</ele><time>2026-04-25T15:58:00.993Z</time></trkpt><trkpt lat="44.6145183" lon="8.23421"><ele>430.0</ele><time>2026-04-25T15:58:01.992Z</time></trkpt><trkpt lat="44.61464" lon="8.23421"><ele>428.0</ele><time>2026-04-25T15:58:02.996Z</time></trkpt><trkpt lat="44.6147867" lon="8.2341867"><ele>426.0</ele><time>2026-04-25T15:58:03.994Z</time></trkpt><trkpt lat="44.6148733" lon="8.2341283"><ele>424.0</ele><time>2026-04-25T15:58:04.996Z</time></trkpt><trkpt lat="44.61495" lon="8.2340483"><ele>423.79999999999995</ele><time>2026-04-25T15:58:05.995Z</time></trkpt><trkpt lat="44.6149983" lon="8.233945"><ele>423.59999999999997</ele><time>2026-04-25T15:58:06.994Z</time></trkpt><trkpt lat="44.615035" lon="8.2338233"><ele>423.4</ele><time>2026-04-25T15:58:07.994Z</time></trkpt><trkpt lat="44.6150617" lon="8.2337017"><ele>423.2</ele><time>2026-04-25T15:58:08.997Z</time></trkpt><trkpt lat="44.6150617" lon="8.23357"><ele>423.0</ele><time>2026-04-25T15:58:09.995Z</time></trkpt><trkpt lat="44.615" lon="8.2333733"><ele>423.0</ele><time>2026-04-25T15:58:10.997Z</time></trkpt><trkpt lat="44.61484" lon="8.2331667"><ele>423.0</ele><time>2026-04-25T15:58:11.996Z</time></trkpt><trkpt lat="44.6147733" lon="8.233005"><ele>423.0</ele><time>2026-04-25T15:58:12.995Z</time></trkpt><trkpt lat="44.614725" lon="8.2328433"><ele>422.25</ele><time>2026-04-25T15:58:13.993Z</time></trkpt><trkpt lat="44.6146967" lon="8.2326733"><ele>421.5</ele><time>2026-04-25T15:58:15Z</time></trkpt><trkpt lat="44.6146783" lon="8.2325017"><ele>420.75</ele><time>2026-04-25T15:58:15.994Z</time></trkpt><trkpt lat="44.6146533" lon="8.2323433"><ele>420.0</ele><time>2026-04-25T15:58:16.994Z</time></trkpt><trkpt lat="44.61462" lon="8.23221"><ele>417.6</ele><time>2026-04-25T15:58:17.994Z</time></trkpt><trkpt lat="44.6145667" lon="8.232115"><ele>415.2</ele><time>2026-04-25T15:58:18.999Z</time></trkpt><trkpt lat="44.6145067" lon="8.23206"><ele>412.79999999999995</ele><time>2026-04-25T15:58:20.005Z</time></trkpt><trkpt lat="44.6144367" lon="8.2320417"><ele>410.4</ele><time>2026-04-25T15:58:20.994Z</time></trkpt><trkpt lat="44.6143383" lon="8.232105"><ele>408.0</ele><time>2026-04-25T15:58:21.993Z</time></trkpt><trkpt lat="44.61424" lon="8.2322017"><ele>408.0</ele><time>2026-04-25T15:58:22.993Z</time></trkpt><trkpt lat="44.6141367" lon="8.232315"><ele>408.0</ele><time>2026-04-25T15:58:23.995Z</time></trkpt><trkpt lat="44.61403" lon="8.232435"><ele>408.0</ele><time>2026-04-25T15:58:25.004Z</time></trkpt><trkpt lat="44.613925" lon="8.2325467"><ele>408.0</ele><time>2026-04-25T15:58:25.995Z</time></trkpt><trkpt lat="44.6138333" lon="8.2326333"><ele>408.0</ele><time>2026-04-25T15:58:26.997Z</time></trkpt><trkpt lat="44.6137383" lon="8.2326917"><ele>408.0</ele><time>2026-04-25T15:58:27.994Z</time></trkpt><trkpt lat="44.6136417" lon="8.2327217"><ele>408.0</ele><time>2026-04-25T15:58:28.996Z</time></trkpt><trkpt lat="44.6135467" lon="8.2327033"><ele>408.0</ele><time>2026-04-25T15:58:29.995Z</time></trkpt><trkpt lat="44.6134517" lon="8.2326467"><ele>408.0</ele><time>2026-04-25T15:58:30.999Z</time></trkpt><trkpt lat="44.6133517" lon="8.23257"><ele>406.0</ele><time>2026-04-25T15:58:31.995Z</time></trkpt><trkpt lat="44.6132433" lon="8.23249"><ele>404.0</ele><time>2026-04-25T15:58:32.997Z</time></trkpt><trkpt lat="44.6131217" lon="8.232415"><ele>402.0</ele><time>2026-04-25T15:58:33.994Z</time></trkpt><trkpt lat="44.612995" lon="8.2323467"><ele>400.0</ele><time>2026-04-25T15:58:34.996Z</time></trkpt><trkpt lat="44.61287" lon="8.2322783"><ele>398.0</ele><time>2026-04-25T15:58:35.997Z</time></trkpt><trkpt lat="44.6127483" lon="8.2322017"><ele>396.0</ele><time>2026-04-25T15:58:36.995Z</time></trkpt><trkpt lat="44.612635" lon="8.2321233"><ele>394.0</ele><time>2026-04-25T15:58:37.994Z</time></trkpt><trkpt lat="44.6125533" lon="8.2320467"><ele>392.0</ele><time>2026-04-25T15:58:38.995Z</time></trkpt><trkpt lat="44.6124983" lon="8.2319583"><ele>390.0</ele><time>2026-04-25T15:58:39.993Z</time></trkpt><trkpt lat="44.6124883" lon="8.23184"><ele>390.0</ele><time>2026-04-25T15:58:40.996Z</time></trkpt><trkpt lat="44.61249" lon="8.2317217"><ele>390.0</ele><time>2026-04-25T15:58:41.995Z</time></trkpt><trkpt lat="44.612555" lon="8.231575"><ele>390.0</ele><time>2026-04-25T15:58:42.991Z</time></trkpt><trkpt lat="44.6126267" lon="8.2314267"><ele>390.0</ele><time>2026-04-25T15:58:43.993Z</time></trkpt><trkpt lat="44.6127117" lon="8.231275"><ele>388.0</ele><time>2026-04-25T15:58:44.992Z</time></trkpt><trkpt lat="44.6128133" lon="8.23114"><ele>386.0</ele><time>2026-04-25T15:58:45.994Z</time></trkpt><trkpt lat="44.612925" lon="8.2310183"><ele>384.0</ele><time>2026-04-25T15:58:46.995Z</time></trkpt><trkpt lat="44.6130417" lon="8.230905"><ele>382.0</ele><time>2026-04-25T15:58:47.996Z</time></trkpt><trkpt lat="44.6131617" lon="8.230785"><ele>382.0</ele><time>2026-04-25T15:58:48.996Z</time></trkpt><trkpt lat="44.6132717" lon="8.230655"><ele>382.0</ele><time>2026-04-25T15:58:49.997Z</time></trkpt><trkpt lat="44.61338" lon="8.23052"><ele>382.0</ele><time>2026-04-25T15:58:50.997Z</time></trkpt><trkpt lat="44.6134967" lon="8.2303917"><ele>382.0</ele><time>2026-04-25T15:58:51.994Z</time></trkpt><trkpt lat="44.6136183" lon="8.2302767"><ele>380.0</ele><time>2026-04-25T15:58:52.994Z</time></trkpt><trkpt lat="44.6137417" lon="8.2301667"><ele>378.0</ele><time>2026-04-25T15:58:53.997Z</time></trkpt><trkpt lat="44.6138617" lon="8.230055"><ele>376.0</ele><time>2026-04-25T15:58:54.996Z</time></trkpt><trkpt lat="44.61398" lon="8.2299467"><ele>374.0</ele><time>2026-04-25T15:58:55.995Z</time></trkpt><trkpt lat="44.6141067" lon="8.2298283"><ele>373.25</ele><time>2026-04-25T15:58:56.995Z</time></trkpt><trkpt lat="44.614225" lon="8.22971"><ele>372.5</ele><time>2026-04-25T15:58:57.992Z</time></trkpt><trkpt lat="44.6143433" lon="8.22959"><ele>371.75</ele><time>2026-04-25T15:58:58.992Z</time></trkpt><trkpt lat="44.6144633" lon="8.2294633"><ele>371.0</ele><time>2026-04-25T15:58:59.995Z</time></trkpt><trkpt lat="44.61458" lon="8.229325"><ele>371.0</ele><time>2026-04-25T15:59:00.991Z</time></trkpt><trkpt lat="44.6146967" lon="8.2291767"><ele>371.0</ele><time>2026-04-25T15:59:01.995Z</time></trkpt><trkpt lat="44.6148117" lon="8.22902"><ele>371.0</ele><time>2026-04-25T15:59:02.995Z</time></trkpt><trkpt lat="44.6149267" lon="8.22885"><ele>365.6666666666667</ele><time>2026-04-25T15:59:03.994Z</time></trkpt><trkpt lat="44.6150467" lon="8.228675"><ele>360.3333333333333</ele><time>2026-04-25T15:59:04.993Z</time></trkpt><trkpt lat="44.61517" lon="8.228495"><ele>355.0</ele><time>2026-04-25T15:59:05.998Z</time></trkpt><trkpt lat="44.6152917" lon="8.2283133"><ele>353.3333333333333</ele><time>2026-04-25T15:59:07.004Z</time></trkpt><trkpt lat="44.615415" lon="8.22813"><ele>351.6666666666667</ele><time>2026-04-25T15:59:07.995Z</time></trkpt><trkpt lat="44.615535" lon="8.2279433"><ele>350.0</ele><time>2026-04-25T15:59:09.001Z</time></trkpt><trkpt lat="44.6156583" lon="8.2277583"><ele>350.0</ele><time>2026-04-25T15:59:09.998Z</time></trkpt><trkpt lat="44.6157783" lon="8.2275733"><ele>350.0</ele><time>2026-04-25T15:59:10.996Z</time></trkpt><trkpt lat="44.6158983" lon="8.227385"><ele>350.0</ele><time>2026-04-25T15:59:11.996Z</time></trkpt><trkpt lat="44.6160167" lon="8.2272017"><ele>347.6666666666667</ele><time>2026-04-25T15:59:12.995Z</time></trkpt><trkpt lat="44.6161283" lon="8.2270183"><ele>345.3333333333333</ele><time>2026-04-25T15:59:13.993Z</time></trkpt><trkpt lat="44.61624" lon="8.2268367"><ele>343.0</ele><time>2026-04-25T15:59:14.997Z</time></trkpt><trkpt lat="44.616345" lon="8.2266717"><ele>343.0</ele><time>2026-04-25T15:59:15.996Z</time></trkpt><trkpt lat="44.61644" lon="8.2265283"><ele>343.0</ele><time>2026-04-25T15:59:16.997Z</time></trkpt><trkpt lat="44.6165167" lon="8.2264083"><ele>343.0</ele><time>2026-04-25T15:59:17.996Z</time></trkpt><trkpt lat="44.6165667" lon="8.2263083"><ele>343.0</ele><time>2026-04-25T15:59:18.999Z</time></trkpt><trkpt lat="44.616585" lon="8.2262133"><ele>343.0</ele><time>2026-04-25T15:59:19.996Z</time></trkpt><trkpt lat="44.6165683" lon="8.2261167"><ele>340.2</ele><time>2026-04-25T15:59:21.004Z</time></trkpt><trkpt lat="44.6165333" lon="8.22602"><ele>337.4</ele><time>2026-04-25T15:59:21.993Z</time></trkpt><trkpt lat="44.6164383" lon="8.2259567"><ele>334.59999999999997</ele><time>2026-04-25T15:59:22.994Z</time></trkpt><trkpt lat="44.6163383" lon="8.225885"><ele>331.79999999999995</ele><time>2026-04-25T15:59:23.991Z</time></trkpt><trkpt lat="44.6162417" lon="8.2258"><ele>329.0</ele><time>2026-04-25T15:59:24.998Z</time></trkpt><trkpt lat="44.6161583" lon="8.225695"><ele>326.8</ele><time>2026-04-25T15:59:25.996Z</time></trkpt><trkpt lat="44.6161067" lon="8.2255683"><ele>324.59999999999997</ele><time>2026-04-25T15:59:26.999Z</time></trkpt><trkpt lat="44.6160833" lon="8.2254383"><ele>322.4</ele><time>2026-04-25T15:59:27.994Z</time></trkpt><trkpt lat="44.6160917" lon="8.2253083"><ele>320.2</ele><time>2026-04-25T15:59:28.998Z</time></trkpt><trkpt lat="44.616125" lon="8.2251867"><ele>318.0</ele><time>2026-04-25T15:59:29.996Z</time></trkpt><trkpt lat="44.6161867" lon="8.2250717"><ele>318.0</ele><time>2026-04-25T15:59:30.995Z</time></trkpt><trkpt lat="44.61628" lon="8.224985"><ele>318.0</ele><time>2026-04-25T15:59:31.993Z</time></trkpt><trkpt lat="44.6164017" lon="8.2249583"><ele>318.0</ele><time>2026-04-25T15:59:32.996Z</time></trkpt><trkpt lat="44.6165483" lon="8.224965"><ele>318.0</ele><time>2026-04-25T15:59:33.996Z</time></trkpt><trkpt lat="44.6166733" lon="8.2249383"><ele>318.0</ele><time>2026-04-25T15:59:34.995Z</time></trkpt><trkpt lat="44.6167917" lon="8.2248967"><ele>318.0</ele><time>2026-04-25T15:59:35.999Z</time></trkpt><trkpt lat="44.6168917" lon="8.2248133"><ele>318.0</ele><time>2026-04-25T15:59:36.997Z</time></trkpt><trkpt lat="44.6169683" lon="8.224705"><ele>318.0</ele><time>2026-04-25T15:59:38.001Z</time></trkpt><trkpt lat="44.61703" lon="8.2245733"><ele>316.25</ele><time>2026-04-25T15:59:38.999Z</time></trkpt><trkpt lat="44.6171" lon="8.2244417"><ele>314.5</ele><time>2026-04-25T15:59:39.996Z</time></trkpt><trkpt lat="44.61719" lon="8.2243217"><ele>312.75</ele><time>2026-04-25T15:59:40.997Z</time></trkpt><trkpt lat="44.61729" lon="8.2242083"><ele>311.0</ele><time>2026-04-25T15:59:41.997Z</time></trkpt><trkpt lat="44.6173783" lon="8.2241067"><ele>311.0</ele><time>2026-04-25T15:59:42.999Z</time></trkpt><trkpt lat="44.6174417" lon="8.22402"><ele>311.0</ele><time>2026-04-25T15:59:43.995Z</time></trkpt><trkpt lat="44.617495" lon="8.2239317"><ele>311.0</ele><time>2026-04-25T15:59:45Z</time></trkpt><trkpt lat="44.6174867" lon="8.22384"><ele>311.0</ele><time>2026-04-25T15:59:45.995Z</time></trkpt><trkpt lat="44.6174433" lon="8.22377"><ele>311.0</ele><time>2026-04-25T15:59:46.994Z</time></trkpt><trkpt lat="44.61739" lon="8.2237067"><ele>311.0</ele><time>2026-04-25T15:59:47.992Z</time></trkpt><trkpt lat="44.617315" lon="8.2236433"><ele>309.2</ele><time>2026-04-25T15:59:48.993Z</time></trkpt><trkpt lat="44.6172233" lon="8.2235717"><ele>307.40000000000003</ele><time>2026-04-25T15:59:49.992Z</time></trkpt><trkpt lat="44.61714" lon="8.2234683"><ele>305.6</ele><time>2026-04-25T15:59:50.993Z</time></trkpt><trkpt lat="44.6170683" lon="8.223345"><ele>303.8</ele><time>2026-04-25T15:59:51.995Z</time></trkpt><trkpt lat="44.617" lon="8.2232083"><ele>302.0</ele><time>2026-04-25T15:59:52.994Z</time></trkpt><trkpt lat="44.6169433" lon="8.223065"><ele>300.6666666666667</ele><time>2026-04-25T15:59:53.993Z</time></trkpt><trkpt lat="44.6169" lon="8.2229383"><ele>299.33333333333337</ele><time>2026-04-25T15:59:54.996Z</time></trkpt><trkpt lat="44.6168833" lon="8.2228283"><ele>298.0</ele><time>2026-04-25T15:59:55.994Z</time></trkpt><trkpt lat="44.6168783" lon="8.2227317"><ele>296.6666666666667</ele><time>2026-04-25T15:59:56.997Z</time></trkpt><trkpt lat="44.6169283" lon="8.2226767"><ele>295.3333333333333</ele><time>2026-04-25T15:59:57.994Z</time></trkpt><trkpt lat="44.61701" lon="8.2226717"><ele>294.0</ele><time>2026-04-25T15:59:58.996Z</time></trkpt><trkpt lat="44.6170967" lon="8.2226867"><ele>293.75</ele><time>2026-04-25T15:59:59.997Z</time></trkpt><trkpt lat="44.6171917" lon="8.2227233"><ele>293.5</ele><time>2026-04-25T16:00:00.997Z</time></trkpt><trkpt lat="44.6173033" lon="8.222745"><ele>293.25</ele><time>2026-04-25T16:00:01.992Z</time></trkpt><trkpt lat="44.6174283" lon="8.222725"><ele>293.0</ele><time>2026-04-25T16:00:03Z</time></trkpt><trkpt lat="44.61756" lon="8.2226767"><ele>293.0</ele><time>2026-04-25T16:00:04.004Z</time></trkpt><trkpt lat="44.6176967" lon="8.2226117"><ele>293.0</ele><time>2026-04-25T16:00:04.996Z</time></trkpt><trkpt lat="44.6178283" lon="8.22253"><ele>293.0</ele><time>2026-04-25T16:00:05.993Z</time></trkpt><trkpt lat="44.6179567" lon="8.2224333"><ele>293.0</ele><time>2026-04-25T16:00:06.998Z</time></trkpt><trkpt lat="44.61807" lon="8.222325"><ele>292.25</ele><time>2026-04-25T16:00:07.994Z</time></trkpt><trkpt lat="44.6181767" lon="8.222205"><ele>291.5</ele><time>2026-04-25T16:00:08.996Z</time></trkpt><trkpt lat="44.61828" lon="8.2220867"><ele>290.75</ele><time>2026-04-25T16:00:09.998Z</time></trkpt><trkpt lat="44.6183783" lon="8.2219733"><ele>290.0</ele><time>2026-04-25T16:00:10.995Z</time></trkpt><trkpt lat="44.6184767" lon="8.2218617"><ele>290.0</ele><time>2026-04-25T16:00:12Z</time></trkpt><trkpt lat="44.6185783" lon="8.221755"><ele>290.0</ele><time>2026-04-25T16:00:12.999Z</time></trkpt><trkpt lat="44.6186833" lon="8.2216583"><ele>290.0</ele><time>2026-04-25T16:00:13.992Z</time></trkpt><trkpt lat="44.6187967" lon="8.2215783"><ele>290.0</ele><time>2026-04-25T16:00:14.996Z</time></trkpt><trkpt lat="44.6189167" lon="8.2215283"><ele>287.75</ele><time>2026-04-25T16:00:15.992Z</time></trkpt><trkpt lat="44.6190367" lon="8.2214983"><ele>285.5</ele><time>2026-04-25T16:00:16.997Z</time></trkpt><trkpt lat="44.61916" lon="8.2214983"><ele>283.25</ele><time>2026-04-25T16:00:17.995Z</time></trkpt><trkpt lat="44.6192917" lon="8.2215267"><ele>281.0</ele><time>2026-04-25T16:00:18.997Z</time></trkpt><trkpt lat="44.6194183" lon="8.2215917"><ele>279.0</ele><time>2026-04-25T16:00:19.997Z</time></trkpt><trkpt lat="44.61953" lon="8.2216917"><ele>277.0</ele><time>2026-04-25T16:00:20.997Z</time></trkpt><trkpt lat="44.6196233" lon="8.2218267"><ele>275.0</ele><time>2026-04-25T16:00:21.995Z</time></trkpt><trkpt lat="44.6197067" lon="8.22197"><ele>273.0</ele><time>2026-04-25T16:00:22.999Z</time></trkpt><trkpt lat="44.6197867" lon="8.2220883"><ele>273.0</ele><time>2026-04-25T16:00:23.993Z</time></trkpt><trkpt lat="44.6198633" lon="8.22216"><ele>273.0</ele><time>2026-04-25T16:00:24.997Z</time></trkpt><trkpt lat="44.6199467" lon="8.2221883"><ele>273.0</ele><time>2026-04-25T16:00:26.002Z</time></trkpt><trkpt lat="44.6200317" lon="8.2221517"><ele>273.0</ele><time>2026-04-25T16:00:26.995Z</time></trkpt><trkpt lat="44.6201117" lon="8.2220667"><ele>273.0</ele><time>2026-04-25T16:00:27.996Z</time></trkpt><trkpt lat="44.6201933" lon="8.2219467"><ele>273.0</ele><time>2026-04-25T16:00:28.992Z</time></trkpt><trkpt lat="44.620275" lon="8.2218167"><ele>273.0</ele><time>2026-04-25T16:00:29.996Z</time></trkpt><trkpt lat="44.620365" lon="8.2216783"><ele>273.0</ele><time>2026-04-25T16:00:30.995Z</time></trkpt><trkpt lat="44.6204617" lon="8.2215633"><ele>273.0</ele><time>2026-04-25T16:00:31.99Z</time></trkpt><trkpt lat="44.6205633" lon="8.2214867"><ele>271.5</ele><time>2026-04-25T16:00:32.998Z</time></trkpt><trkpt lat="44.6206733" lon="8.2214583"><ele>270.0</ele><time>2026-04-25T16:00:33.997Z</time></trkpt><trkpt lat="44.6207883" lon="8.221485"><ele>268.5</ele><time>2026-04-25T16:00:34.997Z</time></trkpt><trkpt lat="44.6209033" lon="8.2215583"><ele>267.0</ele><time>2026-04-25T16:00:35.993Z</time></trkpt><trkpt lat="44.621025" lon="8.221635"><ele>267.0</ele><time>2026-04-25T16:00:37.004Z</time></trkpt><trkpt lat="44.6211383" lon="8.2217233"><ele>267.0</ele><time>2026-04-25T16:00:38.002Z</time></trkpt><trkpt lat="44.62123" lon="8.2218333"><ele>267.0</ele><time>2026-04-25T16:00:38.999Z</time></trkpt><trkpt lat="44.621295" lon="8.2219817"><ele>267.0</ele><time>2026-04-25T16:00:39.995Z</time></trkpt><trkpt lat="44.62135" lon="8.222145"><ele>267.0</ele><time>2026-04-25T16:00:40.993Z</time></trkpt><trkpt lat="44.6214083" lon="8.2223117"><ele>267.0</ele><time>2026-04-25T16:00:41.996Z</time></trkpt><trkpt lat="44.6214867" lon="8.2224667"><ele>267.0</ele><time>2026-04-25T16:00:42.997Z</time></trkpt><trkpt lat="44.6215783" lon="8.22261"><ele>267.0</ele><time>2026-04-25T16:00:43.994Z</time></trkpt><trkpt lat="44.62168" lon="8.2227467"><ele>266.25</ele><time>2026-04-25T16:00:44.999Z</time></trkpt><trkpt lat="44.621785" lon="8.222885"><ele>265.5</ele><time>2026-04-25T16:00:45.996Z</time></trkpt><trkpt lat="44.6218867" lon="8.2230267"><ele>264.75</ele><time>2026-04-25T16:00:46.999Z</time></trkpt><trkpt lat="44.6219783" lon="8.223185"><ele>264.0</ele><time>2026-04-25T16:00:47.995Z</time></trkpt><trkpt lat="44.6220567" lon="8.22336"><ele>263.0</ele><time>2026-04-25T16:00:48.996Z</time></trkpt><trkpt lat="44.622135" lon="8.22353"><ele>262.0</ele><time>2026-04-25T16:00:49.999Z</time></trkpt><trkpt lat="44.6222167" lon="8.22367"><ele>261.0</ele><time>2026-04-25T16:00:50.996Z</time></trkpt><trkpt lat="44.6223167" lon="8.22378"><ele>260.0</ele><time>2026-04-25T16:00:51.992Z</time></trkpt><trkpt lat="44.6224333" lon="8.2238483"><ele>260.0</ele><time>2026-04-25T16:00:52.996Z</time></trkpt><trkpt lat="44.6225583" lon="8.223905"><ele>260.0</ele><time>2026-04-25T16:00:53.994Z</time></trkpt><trkpt lat="44.6226883" lon="8.22397"><ele>260.0</ele><time>2026-04-25T16:00:54.994Z</time></trkpt><trkpt lat="44.6228233" lon="8.2240517"><ele>260.0</ele><time>2026-04-25T16:00:55.994Z</time></trkpt><trkpt lat="44.6229617" lon="8.2241433"><ele>257.33333333333337</ele><time>2026-04-25T16:00:56.996Z</time></trkpt><trkpt lat="44.623105" lon="8.2242333"><ele>254.66666666666669</ele><time>2026-04-25T16:00:57.994Z</time></trkpt><trkpt lat="44.62325" lon="8.2243217"><ele>252.0</ele><time>2026-04-25T16:00:59.001Z</time></trkpt><trkpt lat="44.6234133" lon="8.224375"><ele>252.0</ele><time>2026-04-25T16:00:59.992Z</time></trkpt><trkpt lat="44.623575" lon="8.224415"><ele>252.0</ele><time>2026-04-25T16:01:00.994Z</time></trkpt><trkpt lat="44.6237183" lon="8.2244333"><ele>252.0</ele><time>2026-04-25T16:01:02Z</time></trkpt><trkpt lat="44.6238383" lon="8.224445"><ele>252.0</ele><time>2026-04-25T16:01:02.996Z</time></trkpt><trkpt lat="44.6239417" lon="8.224465"><ele>249.0</ele><time>2026-04-25T16:01:03.997Z</time></trkpt><trkpt lat="44.624035" lon="8.224515"><ele>246.0</ele><time>2026-04-25T16:01:04.996Z</time></trkpt><trkpt lat="44.6241267" lon="8.224585"><ele>243.0</ele><time>2026-04-25T16:01:05.997Z</time></trkpt><trkpt lat="44.62422" lon="8.224665"><ele>240.0</ele><time>2026-04-25T16:01:07Z</time></trkpt><trkpt lat="44.62431" lon="8.2247583"><ele>237.0</ele><time>2026-04-25T16:01:07.999Z</time></trkpt><trkpt lat="44.6243883" lon="8.2248667"><ele>237.0</ele><time>2026-04-25T16:01:08.997Z</time></trkpt><trkpt lat="44.6244583" lon="8.22499"><ele>237.0</ele><time>2026-04-25T16:01:09.996Z</time></trkpt><trkpt lat="44.6245117" lon="8.2251383"><ele>237.0</ele><time>2026-04-25T16:01:10.995Z</time></trkpt><trkpt lat="44.6245317" lon="8.2253067"><ele>237.0</ele><time>2026-04-25T16:01:11.996Z</time></trkpt><trkpt lat="44.6245433" lon="8.2254867"><ele>233.5</ele><time>2026-04-25T16:01:12.999Z</time></trkpt><trkpt lat="44.62454" lon="8.22568"><ele>230.0</ele><time>2026-04-25T16:01:13.998Z</time></trkpt><trkpt lat="44.6245317" lon="8.2258933"><ele>226.5</ele><time>2026-04-25T16:01:14.999Z</time></trkpt><trkpt lat="44.6245467" lon="8.2260917"><ele>223.0</ele><time>2026-04-25T16:01:15.997Z</time></trkpt><trkpt lat="44.6245667" lon="8.226295"><ele>223.25</ele><time>2026-04-25T16:01:16.997Z</time></trkpt><trkpt lat="44.6246167" lon="8.22649"><ele>223.5</ele><time>2026-04-25T16:01:17.997Z</time></trkpt><trkpt lat="44.62468" lon="8.2266767"><ele>223.75</ele><time>2026-04-25T16:01:18.998Z</time></trkpt><trkpt lat="44.624745" lon="8.226865"><ele>224.0</ele><time>2026-04-25T16:01:19.998Z</time></trkpt><trkpt lat="44.6248117" lon="8.2270517"><ele>224.0</ele><time>2026-04-25T16:01:21.002Z</time></trkpt><trkpt lat="44.6248817" lon="8.2272367"><ele>224.0</ele><time>2026-04-25T16:01:22Z</time></trkpt><trkpt lat="44.6249533" lon="8.2274267"><ele>224.0</ele><time>2026-04-25T16:01:23Z</time></trkpt><trkpt lat="44.6250283" lon="8.227615"><ele>225.75</ele><time>2026-04-25T16:01:24.001Z</time></trkpt><trkpt lat="44.6251033" lon="8.2278017"><ele>227.5</ele><time>2026-04-25T16:01:24.995Z</time></trkpt><trkpt lat="44.6251767" lon="8.2279817"><ele>229.25</ele><time>2026-04-25T16:01:26.002Z</time></trkpt><trkpt lat="44.6252533" lon="8.22815"><ele>231.0</ele><time>2026-04-25T16:01:27.002Z</time></trkpt><trkpt lat="44.6253333" lon="8.2283033"><ele>231.5</ele><time>2026-04-25T16:01:27.999Z</time></trkpt><trkpt lat="44.62543" lon="8.2284183"><ele>232.0</ele><time>2026-04-25T16:01:29Z</time></trkpt><trkpt lat="44.6255483" lon="8.2284817"><ele>232.5</ele><time>2026-04-25T16:01:29.999Z</time></trkpt><trkpt lat="44.6256733" lon="8.2285117"><ele>233.0</ele><time>2026-04-25T16:01:30.996Z</time></trkpt><trkpt lat="44.6257983" lon="8.228525"><ele>233.0</ele><time>2026-04-25T16:01:32.003Z</time></trkpt><trkpt lat="44.6259267" lon="8.2285417"><ele>233.0</ele><time>2026-04-25T16:01:33Z</time></trkpt><trkpt lat="44.6260467" lon="8.22857"><ele>233.0</ele><time>2026-04-25T16:01:33.998Z</time></trkpt><trkpt lat="44.6261667" lon="8.2286217"><ele>233.0</ele><time>2026-04-25T16:01:34.998Z</time></trkpt><trkpt lat="44.6262767" lon="8.2286883"><ele>231.5</ele><time>2026-04-25T16:01:35.998Z</time></trkpt><trkpt lat="44.6263917" lon="8.2287683"><ele>230.0</ele><time>2026-04-25T16:01:36.995Z</time></trkpt><trkpt lat="44.6265167" lon="8.2288433"><ele>228.5</ele><time>2026-04-25T16:01:37.996Z</time></trkpt><trkpt lat="44.62664" lon="8.2289233"><ele>227.0</ele><time>2026-04-25T16:01:38.998Z</time></trkpt><trkpt lat="44.626765" lon="8.2290067"><ele>228.75</ele><time>2026-04-25T16:01:39.997Z</time></trkpt><trkpt lat="44.62689" lon="8.22911"><ele>230.5</ele><time>2026-04-25T16:01:40.999Z</time></trkpt><trkpt lat="44.6270133" lon="8.22922"><ele>232.25</ele><time>2026-04-25T16:01:41.995Z</time></trkpt><trkpt lat="44.6271433" lon="8.2293317"><ele>234.0</ele><time>2026-04-25T16:01:42.999Z</time></trkpt><trkpt lat="44.6272683" lon="8.2294433"><ele>234.0</ele><time>2026-04-25T16:01:43.998Z</time></trkpt><trkpt lat="44.6273933" lon="8.2295583"><ele>234.0</ele><time>2026-04-25T16:01:45Z</time></trkpt><trkpt lat="44.6275183" lon="8.2296767"><ele>234.0</ele><time>2026-04-25T16:01:45.997Z</time></trkpt><trkpt lat="44.62764" lon="8.229805"><ele>233.66666666666669</ele><time>2026-04-25T16:01:46.999Z</time></trkpt><trkpt lat="44.6277567" lon="8.2299483"><ele>233.33333333333334</ele><time>2026-04-25T16:01:47.994Z</time></trkpt><trkpt lat="44.6278733" lon="8.230105"><ele>233.0</ele><time>2026-04-25T16:01:48.997Z</time></trkpt><trkpt lat="44.62799" lon="8.2302717"><ele>233.0</ele><time>2026-04-25T16:01:50.001Z</time></trkpt><trkpt lat="44.6281083" lon="8.23045"><ele>233.0</ele><time>2026-04-25T16:01:51.004Z</time></trkpt><trkpt lat="44.628225" lon="8.2306333"><ele>233.0</ele><time>2026-04-25T16:01:51.994Z</time></trkpt><trkpt lat="44.6283383" lon="8.2308267"><ele>232.33333333333334</ele><time>2026-04-25T16:01:52.996Z</time></trkpt><trkpt lat="44.628455" lon="8.23102"><ele>231.66666666666669</ele><time>2026-04-25T16:01:53.998Z</time></trkpt><trkpt lat="44.6285767" lon="8.2312117"><ele>231.0</ele><time>2026-04-25T16:01:54.998Z</time></trkpt><trkpt lat="44.6287" lon="8.2314017"><ele>231.33333333333331</ele><time>2026-04-25T16:01:55.996Z</time></trkpt><trkpt lat="44.62882" lon="8.2315917"><ele>231.66666666666666</ele><time>2026-04-25T16:01:56.998Z</time></trkpt><trkpt lat="44.62893" lon="8.231765"><ele>232.0</ele><time>2026-04-25T16:01:57.999Z</time></trkpt><trkpt lat="44.6290283" lon="8.2319233"><ele>232.0</ele><time>2026-04-25T16:01:58.994Z</time></trkpt><trkpt lat="44.6291133" lon="8.2320783"><ele>232.0</ele><time>2026-04-25T16:01:59.996Z</time></trkpt><trkpt lat="44.629195" lon="8.2322283"><ele>232.0</ele><time>2026-04-25T16:02:00.994Z</time></trkpt><trkpt lat="44.6292867" lon="8.23236"><ele>232.0</ele><time>2026-04-25T16:02:01.996Z</time></trkpt><trkpt lat="44.6293917" lon="8.2324733"><ele>231.0</ele><time>2026-04-25T16:02:03Z</time></trkpt><trkpt lat="44.629495" lon="8.2325767"><ele>230.0</ele><time>2026-04-25T16:02:03.999Z</time></trkpt><trkpt lat="44.6295917" lon="8.2326783"><ele>229.0</ele><time>2026-04-25T16:02:05Z</time></trkpt><trkpt lat="44.6296767" lon="8.2328067"><ele>228.0</ele><time>2026-04-25T16:02:06.001Z</time></trkpt><trkpt lat="44.629745" lon="8.2329583"><ele>228.0</ele><time>2026-04-25T16:02:07Z</time></trkpt><trkpt lat="44.629815" lon="8.2331333"><ele>228.0</ele><time>2026-04-25T16:02:07.994Z</time></trkpt><trkpt lat="44.6298933" lon="8.2333233"><ele>228.0</ele><time>2026-04-25T16:02:08.996Z</time></trkpt><trkpt lat="44.62998" lon="8.2335283"><ele>229.0</ele><time>2026-04-25T16:02:09.994Z</time></trkpt><trkpt lat="44.6300717" lon="8.2337333"><ele>230.0</ele><time>2026-04-25T16:02:10.999Z</time></trkpt><trkpt lat="44.63016" lon="8.23394"><ele>231.0</ele><time>2026-04-25T16:02:12.001Z</time></trkpt><trkpt lat="44.6302533" lon="8.234135"><ele>229.66666666666669</ele><time>2026-04-25T16:02:12.996Z</time></trkpt><trkpt lat="44.6303417" lon="8.23433"><ele>228.33333333333334</ele><time>2026-04-25T16:02:13.994Z</time></trkpt><trkpt lat="44.6304333" lon="8.2345167"><ele>227.0</ele><time>2026-04-25T16:02:14.995Z</time></trkpt><trkpt lat="44.63053" lon="8.2347033"><ele>228.0</ele><time>2026-04-25T16:02:15.996Z</time></trkpt><trkpt lat="44.6306183" lon="8.2348883"><ele>229.0</ele><time>2026-04-25T16:02:16.995Z</time></trkpt><trkpt lat="44.6306967" lon="8.2350583"><ele>230.0</ele><time>2026-04-25T16:02:17.997Z</time></trkpt><trkpt lat="44.63076" lon="8.2351967"><ele>231.0</ele><time>2026-04-25T16:02:19.001Z</time></trkpt><trkpt lat="44.6308233" lon="8.2352983"><ele>231.0</ele><time>2026-04-25T16:02:20.003Z</time></trkpt><trkpt lat="44.6308983" lon="8.2353517"><ele>231.00000000000003</ele><time>2026-04-25T16:02:20.998Z</time></trkpt><trkpt lat="44.630985" lon="8.2353783"><ele>231.00000000000003</ele><time>2026-04-25T16:02:21.998Z</time></trkpt><trkpt lat="44.6310833" lon="8.2353783"><ele>231.0</ele><time>2026-04-25T16:02:22.997Z</time></trkpt><trkpt lat="44.6311883" lon="8.23536"><ele>231.0</ele><time>2026-04-25T16:02:23.992Z</time></trkpt><trkpt lat="44.6313" lon="8.2353217"><ele>229.0</ele><time>2026-04-25T16:02:24.998Z</time></trkpt><trkpt lat="44.6314617" lon="8.23522"><ele>227.0</ele><time>2026-04-25T16:02:25.992Z</time></trkpt><trkpt lat="44.63161" lon="8.2351433"><ele>225.0</ele><time>2026-04-25T16:02:26.995Z</time></trkpt><trkpt lat="44.631755" lon="8.2350783"><ele>225.0</ele><time>2026-04-25T16:02:27.991Z</time></trkpt><trkpt lat="44.6318933" lon="8.2350083"><ele>225.0</ele><time>2026-04-25T16:02:28.995Z</time></trkpt><trkpt lat="44.6320283" lon="8.2349483"><ele>225.0</ele><time>2026-04-25T16:02:29.993Z</time></trkpt><trkpt lat="44.63216" lon="8.2348917"><ele>225.0</ele><time>2026-04-25T16:02:30.996Z</time></trkpt><trkpt lat="44.63229" lon="8.2348383"><ele>224.0</ele><time>2026-04-25T16:02:32.001Z</time></trkpt><trkpt lat="44.6324133" lon="8.234795"><ele>223.0</ele><time>2026-04-25T16:02:32.995Z</time></trkpt><trkpt lat="44.6325217" lon="8.2347417"><ele>222.0</ele><time>2026-04-25T16:02:33.994Z</time></trkpt><trkpt lat="44.6326217" lon="8.2346817"><ele>221.0</ele><time>2026-04-25T16:02:34.992Z</time></trkpt><trkpt lat="44.6327133" lon="8.234595"><ele>221.0</ele><time>2026-04-25T16:02:35.997Z</time></trkpt><trkpt lat="44.63279" lon="8.2344833"><ele>221.0</ele><time>2026-04-25T16:02:36.996Z</time></trkpt><trkpt lat="44.6328617" lon="8.2343533"><ele>221.0</ele><time>2026-04-25T16:02:37.997Z</time></trkpt><trkpt lat="44.6329317" lon="8.234205"><ele>221.0</ele><time>2026-04-25T16:02:38.993Z</time></trkpt><trkpt lat="44.633" lon="8.2340317"><ele>220.75</ele><time>2026-04-25T16:02:39.999Z</time></trkpt><trkpt lat="44.633065" lon="8.233855"><ele>220.5</ele><time>2026-04-25T16:02:40.993Z</time></trkpt><trkpt lat="44.63313" lon="8.2336783"><ele>220.25</ele><time>2026-04-25T16:02:41.996Z</time></trkpt><trkpt lat="44.6331933" lon="8.2334983"><ele>220.0</ele><time>2026-04-25T16:02:42.996Z</time></trkpt><trkpt lat="44.6332567" lon="8.23331"><ele>220.0</ele><time>2026-04-25T16:02:43.997Z</time></trkpt><trkpt lat="44.6333167" lon="8.2331267"><ele>220.0</ele><time>2026-04-25T16:02:44.996Z</time></trkpt><trkpt lat="44.6333733" lon="8.2329433"><ele>220.0</ele><time>2026-04-25T16:02:45.997Z</time></trkpt><trkpt lat="44.63343" lon="8.2327617"><ele>220.0</ele><time>2026-04-25T16:02:46.996Z</time></trkpt><trkpt lat="44.6334833" lon="8.23258"><ele>220.0</ele><time>2026-04-25T16:02:47.992Z</time></trkpt><trkpt lat="44.6335417" lon="8.2324017"><ele>220.0</ele><time>2026-04-25T16:02:49Z</time></trkpt><trkpt lat="44.6336" lon="8.2322233"><ele>220.0</ele><time>2026-04-25T16:02:49.995Z</time></trkpt><trkpt lat="44.6336567" lon="8.2320433"><ele>220.0</ele><time>2026-04-25T16:02:51Z</time></trkpt><trkpt lat="44.6337117" lon="8.2318667"><ele>220.0</ele><time>2026-04-25T16:02:51.991Z</time></trkpt><trkpt lat="44.63376" lon="8.2316867"><ele>220.0</ele><time>2026-04-25T16:02:52.997Z</time></trkpt><trkpt lat="44.6338017" lon="8.2315183"><ele>220.0</ele><time>2026-04-25T16:02:53.993Z</time></trkpt><trkpt lat="44.63384" lon="8.2313533"><ele>220.0</ele><time>2026-04-25T16:02:54.994Z</time></trkpt><trkpt lat="44.63387" lon="8.2312"><ele>220.0</ele><time>2026-04-25T16:02:55.995Z</time></trkpt><trkpt lat="44.6338967" lon="8.2310617"><ele>220.0</ele><time>2026-04-25T16:02:56.996Z</time></trkpt><trkpt lat="44.6339283" lon="8.23093"><ele>220.0</ele><time>2026-04-25T16:02:57.996Z</time></trkpt><trkpt lat="44.6339783" lon="8.230815"><ele>220.0</ele><time>2026-04-25T16:02:58.996Z</time></trkpt><trkpt lat="44.634045" lon="8.2307167"><ele>220.0</ele><time>2026-04-25T16:02:59.996Z</time></trkpt><trkpt lat="44.6341183" lon="8.2306317"><ele>219.8</ele><time>2026-04-25T16:03:01.003Z</time></trkpt><trkpt lat="44.6342017" lon="8.2305517"><ele>219.6</ele><time>2026-04-25T16:03:01.996Z</time></trkpt><trkpt lat="44.6342817" lon="8.2304683"><ele>219.39999999999998</ele><time>2026-04-25T16:03:02.999Z</time></trkpt><trkpt lat="44.634365" lon="8.2303917"><ele>219.2</ele><time>2026-04-25T16:03:03.998Z</time></trkpt><trkpt lat="44.63445" lon="8.2303067"><ele>219.0</ele><time>2026-04-25T16:03:04.994Z</time></trkpt><trkpt lat="44.634535" lon="8.2302267"><ele>218.6</ele><time>2026-04-25T16:03:06.002Z</time></trkpt><trkpt lat="44.634625" lon="8.2301583"><ele>218.2</ele><time>2026-04-25T16:03:06.996Z</time></trkpt><trkpt lat="44.6347183" lon="8.2300917"><ele>217.79999999999998</ele><time>2026-04-25T16:03:08Z</time></trkpt><trkpt lat="44.6348167" lon="8.2300267"><ele>217.39999999999998</ele><time>2026-04-25T16:03:08.998Z</time></trkpt><trkpt lat="44.6349183" lon="8.2299633"><ele>217.0</ele><time>2026-04-25T16:03:09.994Z</time></trkpt><trkpt lat="44.6350133" lon="8.2299"><ele>217.0</ele><time>2026-04-25T16:03:10.992Z</time></trkpt><trkpt lat="44.635095" lon="8.229835"><ele>217.0</ele><time>2026-04-25T16:03:11.992Z</time></trkpt><trkpt lat="44.6351683" lon="8.2297533"><ele>217.0</ele><time>2026-04-25T16:03:12.996Z</time></trkpt><trkpt lat="44.6352367" lon="8.2296517"><ele>217.0</ele><time>2026-04-25T16:03:13.994Z</time></trkpt><trkpt lat="44.6353033" lon="8.2295433"><ele>217.0</ele><time>2026-04-25T16:03:14.995Z</time></trkpt><trkpt lat="44.6353633" lon="8.229435"><ele>217.2</ele><time>2026-04-25T16:03:15.994Z</time></trkpt><trkpt lat="44.6354267" lon="8.22932"><ele>217.39999999999998</ele><time>2026-04-25T16:03:16.994Z</time></trkpt><trkpt lat="44.6354883" lon="8.2292067"><ele>217.60000000000002</ele><time>2026-04-25T16:03:17.994Z</time></trkpt><trkpt lat="44.63555" lon="8.2290867"><ele>217.8</ele><time>2026-04-25T16:03:18.994Z</time></trkpt><trkpt lat="44.6356117" lon="8.2289733"><ele>218.0</ele><time>2026-04-25T16:03:19.994Z</time></trkpt><trkpt lat="44.6356733" lon="8.2288567"><ele>218.8</ele><time>2026-04-25T16:03:20.995Z</time></trkpt><trkpt lat="44.6357367" lon="8.2287433"><ele>219.60000000000002</ele><time>2026-04-25T16:03:21.996Z</time></trkpt><trkpt lat="44.6358033" lon="8.2286317"><ele>220.39999999999998</ele><time>2026-04-25T16:03:22.992Z</time></trkpt><trkpt lat="44.6358733" lon="8.2285283"><ele>221.2</ele><time>2026-04-25T16:03:23.996Z</time></trkpt><trkpt lat="44.6359367" lon="8.2284467"><ele>222.0</ele><time>2026-04-25T16:03:24.998Z</time></trkpt><trkpt lat="44.6359917" lon="8.22837"><ele>222.0</ele><time>2026-04-25T16:03:25.995Z</time></trkpt><trkpt lat="44.6360383" lon="8.2283083"><ele>222.0</ele><time>2026-04-25T16:03:26.998Z</time></trkpt><trkpt lat="44.63614" lon="8.22833"><ele>222.0</ele><time>2026-04-25T16:03:35.996Z</time></trkpt><trkpt lat="44.636205" lon="8.22841"><ele>222.0</ele><time>2026-04-25T16:03:37.996Z</time></trkpt><trkpt lat="44.636285" lon="8.228535"><ele>222.0</ele><time>2026-04-25T16:03:39.995Z</time></trkpt><trkpt lat="44.6363417" lon="8.2286083"><ele>222.8</ele><time>2026-04-25T16:03:40.995Z</time></trkpt><trkpt lat="44.6364" lon="8.2286883"><ele>223.6</ele><time>2026-04-25T16:03:41.995Z</time></trkpt><trkpt lat="44.6364917" lon="8.2287583"><ele>224.40000000000003</ele><time>2026-04-25T16:03:42.997Z</time></trkpt><trkpt lat="44.6365783" lon="8.2288167"><ele>225.20000000000002</ele><time>2026-04-25T16:03:43.993Z</time></trkpt><trkpt lat="44.636675" lon="8.228855"><ele>226.0</ele><time>2026-04-25T16:03:44.997Z</time></trkpt><trkpt lat="44.6367483" lon="8.2289117"><ele>226.0</ele><time>2026-04-25T16:03:45.994Z</time></trkpt><trkpt lat="44.6368333" lon="8.22897"><ele>226.00000000000003</ele><time>2026-04-25T16:03:46.994Z</time></trkpt><trkpt lat="44.636925" lon="8.22903"><ele>226.00000000000003</ele><time>2026-04-25T16:03:47.994Z</time></trkpt><trkpt lat="44.637005" lon="8.229105"><ele>226.0</ele><time>2026-04-25T16:03:48.999Z</time></trkpt><trkpt lat="44.6370883" lon="8.2291967"><ele>226.0</ele><time>2026-04-25T16:03:49.999Z</time></trkpt><trkpt lat="44.6371667" lon="8.2293083"><ele>227.20000000000002</ele><time>2026-04-25T16:03:51Z</time></trkpt><trkpt lat="44.637235" lon="8.2294133"><ele>228.40000000000003</ele><time>2026-04-25T16:03:52.002Z</time></trkpt><trkpt lat="44.637305" lon="8.2295217"><ele>229.6</ele><time>2026-04-25T16:03:52.997Z</time></trkpt><trkpt lat="44.63736" lon="8.229655"><ele>230.8</ele><time>2026-04-25T16:03:53.993Z</time></trkpt><trkpt lat="44.6374017" lon="8.229795"><ele>232.0</ele><time>2026-04-25T16:03:54.998Z</time></trkpt><trkpt lat="44.637435" lon="8.2299417"><ele>232.0</ele><time>2026-04-25T16:03:56Z</time></trkpt><trkpt lat="44.63746" lon="8.2301017"><ele>232.0</ele><time>2026-04-25T16:03:57Z</time></trkpt><trkpt lat="44.6374967" lon="8.2302583"><ele>232.0</ele><time>2026-04-25T16:03:57.997Z</time></trkpt><trkpt lat="44.6375217" lon="8.230435"><ele>232.0</ele><time>2026-04-25T16:03:58.994Z</time></trkpt><trkpt lat="44.637545" lon="8.2306183"><ele>231.25</ele><time>2026-04-25T16:03:59.996Z</time></trkpt><trkpt lat="44.6375667" lon="8.2307983"><ele>230.5</ele><time>2026-04-25T16:04:00.996Z</time></trkpt><trkpt lat="44.6375933" lon="8.2309833"><ele>229.75</ele><time>2026-04-25T16:04:01.998Z</time></trkpt><trkpt lat="44.6376183" lon="8.2311633"><ele>229.0</ele><time>2026-04-25T16:04:02.998Z</time></trkpt><trkpt lat="44.6376383" lon="8.2313417"><ele>228.25</ele><time>2026-04-25T16:04:04Z</time></trkpt><trkpt lat="44.6376433" lon="8.2315233"><ele>227.5</ele><time>2026-04-25T16:04:05.003Z</time></trkpt><trkpt lat="44.6376267" lon="8.2317067"><ele>226.75</ele><time>2026-04-25T16:04:06Z</time></trkpt><trkpt lat="44.6375933" lon="8.2318817"><ele>226.0</ele><time>2026-04-25T16:04:06.995Z</time></trkpt><trkpt lat="44.6375417" lon="8.23204"><ele>226.0</ele><time>2026-04-25T16:04:07.995Z</time></trkpt><trkpt lat="44.637485" lon="8.2322"><ele>226.0</ele><time>2026-04-25T16:04:09Z</time></trkpt><trkpt lat="44.6374217" lon="8.2323717"><ele>226.0</ele><time>2026-04-25T16:04:09.996Z</time></trkpt><trkpt lat="44.6373633" lon="8.2325533"><ele>226.0</ele><time>2026-04-25T16:04:10.994Z</time></trkpt><trkpt lat="44.6373117" lon="8.2327433"><ele>226.0</ele><time>2026-04-25T16:04:12.003Z</time></trkpt><trkpt lat="44.6372617" lon="8.2329367"><ele>226.0</ele><time>2026-04-25T16:04:12.999Z</time></trkpt><trkpt lat="44.637215" lon="8.23316"><ele>226.0</ele><time>2026-04-25T16:04:13.999Z</time></trkpt><trkpt lat="44.6371683" lon="8.23337"><ele>230.66666666666666</ele><time>2026-04-25T16:04:14.996Z</time></trkpt><trkpt lat="44.6371267" lon="8.23357"><ele>235.33333333333331</ele><time>2026-04-25T16:04:15.999Z</time></trkpt><trkpt lat="44.637085" lon="8.2337767"><ele>240.0</ele><time>2026-04-25T16:04:16.999Z</time></trkpt><trkpt lat="44.6370433" lon="8.2339833"><ele>245.0</ele><time>2026-04-25T16:04:17.998Z</time></trkpt><trkpt lat="44.637" lon="8.23419"><ele>250.0</ele><time>2026-04-25T16:04:19.001Z</time></trkpt><trkpt lat="44.6369467" lon="8.2343967"><ele>255.0</ele><time>2026-04-25T16:04:19.995Z</time></trkpt><trkpt lat="44.6368883" lon="8.2345967"><ele>244.0</ele><time>2026-04-25T16:04:21.004Z</time></trkpt><trkpt lat="44.6368333" lon="8.2347967"><ele>233.0</ele><time>2026-04-25T16:04:21.997Z</time></trkpt><trkpt lat="44.6367883" lon="8.2350033"><ele>222.0</ele><time>2026-04-25T16:04:22.993Z</time></trkpt><trkpt lat="44.6367383" lon="8.2352083"><ele>222.0</ele><time>2026-04-25T16:04:23.994Z</time></trkpt><trkpt lat="44.636685" lon="8.2354167"><ele>222.0</ele><time>2026-04-25T16:04:24.992Z</time></trkpt><trkpt lat="44.6366317" lon="8.23563"><ele>222.0</ele><time>2026-04-25T16:04:25.996Z</time></trkpt><trkpt lat="44.63658" lon="8.235845"><ele>225.66666666666669</ele><time>2026-04-25T16:04:27.006Z</time></trkpt><trkpt lat="44.6365267" lon="8.236055"><ele>229.33333333333334</ele><time>2026-04-25T16:04:27.997Z</time></trkpt><trkpt lat="44.6364683" lon="8.23626"><ele>233.0</ele><time>2026-04-25T16:04:28.995Z</time></trkpt><trkpt lat="44.6364183" lon="8.236465"><ele>233.5</ele><time>2026-04-25T16:04:29.997Z</time></trkpt><trkpt lat="44.6363617" lon="8.2366567"><ele>234.0</ele><time>2026-04-25T16:04:30.996Z</time></trkpt><trkpt lat="44.6363183" lon="8.2368467"><ele>234.5</ele><time>2026-04-25T16:04:32Z</time></trkpt><trkpt lat="44.6362767" lon="8.2370283"><ele>235.0</ele><time>2026-04-25T16:04:32.996Z</time></trkpt><trkpt lat="44.6362417" lon="8.2371983"><ele>235.0</ele><time>2026-04-25T16:04:33.996Z</time></trkpt><trkpt lat="44.636215" lon="8.2373667"><ele>235.0</ele><time>2026-04-25T16:04:34.997Z</time></trkpt><trkpt lat="44.6362" lon="8.2375367"><ele>235.0</ele><time>2026-04-25T16:04:35.996Z</time></trkpt><trkpt lat="44.6361933" lon="8.2377"><ele>235.0</ele><time>2026-04-25T16:04:37.002Z</time></trkpt><trkpt lat="44.6361933" lon="8.237855"><ele>234.99999999999997</ele><time>2026-04-25T16:04:37.999Z</time></trkpt><trkpt lat="44.636195" lon="8.2380033"><ele>235.0</ele><time>2026-04-25T16:04:39.002Z</time></trkpt><trkpt lat="44.6361967" lon="8.2381383"><ele>235.0</ele><time>2026-04-25T16:04:39.996Z</time></trkpt><trkpt lat="44.6362" lon="8.2382633"><ele>235.0</ele><time>2026-04-25T16:04:40.997Z</time></trkpt><trkpt lat="44.6362017" lon="8.238365"><ele>234.99999999999997</ele><time>2026-04-25T16:04:41.996Z</time></trkpt><trkpt lat="44.6362083" lon="8.2384567"><ele>235.0</ele><time>2026-04-25T16:04:42.997Z</time></trkpt><trkpt lat="44.6362133" lon="8.2386067"><ele>234.33333333333331</ele><time>2026-04-25T16:04:44.999Z</time></trkpt><trkpt lat="44.6362233" lon="8.23873"><ele>233.66666666666666</ele><time>2026-04-25T16:04:46.995Z</time></trkpt><trkpt lat="44.63625" lon="8.2388217"><ele>233.0</ele><time>2026-04-25T16:04:48.995Z</time></trkpt><trkpt lat="44.636325" lon="8.2388883"><ele>232.33333333333331</ele><time>2026-04-25T16:04:50.999Z</time></trkpt><trkpt lat="44.63639" lon="8.23893"><ele>231.66666666666666</ele><time>2026-04-25T16:04:52.999Z</time></trkpt><trkpt lat="44.6364517" lon="8.2389833"><ele>231.0</ele><time>2026-04-25T16:04:54.997Z</time></trkpt><trkpt lat="44.6365317" lon="8.2390617"><ele>230.16666666666666</ele><time>2026-04-25T16:04:57.001Z</time></trkpt><trkpt lat="44.63663" lon="8.2391833"><ele>229.33333333333331</ele><time>2026-04-25T16:04:58.997Z</time></trkpt><trkpt lat="44.6366867" lon="8.2392583"><ele>228.5</ele><time>2026-04-25T16:04:59.999Z</time></trkpt><trkpt lat="44.6367433" lon="8.2393233"><ele>227.66666666666666</ele><time>2026-04-25T16:05:01Z</time></trkpt><trkpt lat="44.6368" lon="8.239385"><ele>226.83333333333331</ele><time>2026-04-25T16:05:01.999Z</time></trkpt><trkpt lat="44.6368617" lon="8.2394533"><ele>226.0</ele><time>2026-04-25T16:05:02.996Z</time></trkpt><trkpt lat="44.6369333" lon="8.2395317"><ele>227.0</ele><time>2026-04-25T16:05:03.997Z</time></trkpt><trkpt lat="44.6370183" lon="8.2396167"><ele>228.0</ele><time>2026-04-25T16:05:04.993Z</time></trkpt><trkpt lat="44.6371133" lon="8.2396967"><ele>229.0</ele><time>2026-04-25T16:05:05.995Z</time></trkpt><trkpt lat="44.6372133" lon="8.2397817"><ele>230.0</ele><time>2026-04-25T16:05:07.001Z</time></trkpt><trkpt lat="44.6373133" lon="8.23987"><ele>230.0</ele><time>2026-04-25T16:05:07.998Z</time></trkpt><trkpt lat="44.6374117" lon="8.2399517"><ele>230.0</ele><time>2026-04-25T16:05:09.001Z</time></trkpt><trkpt lat="44.6375067" lon="8.2400333"><ele>230.0</ele><time>2026-04-25T16:05:09.999Z</time></trkpt><trkpt lat="44.6375967" lon="8.2401167"><ele>230.0</ele><time>2026-04-25T16:05:10.995Z</time></trkpt><trkpt lat="44.6376883" lon="8.2401967"><ele>230.0</ele><time>2026-04-25T16:05:11.996Z</time></trkpt><trkpt lat="44.6377717" lon="8.2402717"><ele>231.4</ele><time>2026-04-25T16:05:13.002Z</time></trkpt><trkpt lat="44.6378433" lon="8.2403317"><ele>232.8</ele><time>2026-04-25T16:05:13.997Z</time></trkpt><trkpt lat="44.6379017" lon="8.2403733"><ele>234.2</ele><time>2026-04-25T16:05:14.996Z</time></trkpt><trkpt lat="44.6380167" lon="8.2403917"><ele>235.6</ele><time>2026-04-25T16:05:16.999Z</time></trkpt><trkpt lat="44.63808" lon="8.240285"><ele>237.0</ele><time>2026-04-25T16:05:18.999Z</time></trkpt><trkpt lat="44.638035" lon="8.240125"><ele>237.0</ele><time>2026-04-25T16:05:20.995Z</time></trkpt><trkpt lat="44.6379917" lon="8.2400483"><ele>237.0</ele><time>2026-04-25T16:05:21.999Z</time></trkpt><trkpt lat="44.6379383" lon="8.239965"><ele>237.0</ele><time>2026-04-25T16:05:22.999Z</time></trkpt><trkpt lat="44.63789" lon="8.2398733"><ele>237.0</ele><time>2026-04-25T16:05:24.002Z</time></trkpt><trkpt lat="44.6378517" lon="8.239775"><ele>237.0</ele><time>2026-04-25T16:05:25.001Z</time></trkpt><trkpt lat="44.6378233" lon="8.2396617"><ele>237.0</ele><time>2026-04-25T16:05:25.995Z</time></trkpt><trkpt lat="44.6378067" lon="8.23955"><ele>239.5</ele><time>2026-04-25T16:05:26.996Z</time></trkpt><trkpt lat="44.63781" lon="8.2394233"><ele>242.0</ele><time>2026-04-25T16:05:27.995Z</time></trkpt><trkpt lat="44.6378333" lon="8.2392683"><ele>244.5</ele><time>2026-04-25T16:05:28.998Z</time></trkpt><trkpt lat="44.6378617" lon="8.239095"><ele>247.0</ele><time>2026-04-25T16:05:29.995Z</time></trkpt><trkpt lat="44.63789" lon="8.23893"><ele>249.0</ele><time>2026-04-25T16:05:30.993Z</time></trkpt><trkpt lat="44.6379217" lon="8.2387667"><ele>251.0</ele><time>2026-04-25T16:05:31.996Z</time></trkpt><trkpt lat="44.637955" lon="8.2386033"><ele>253.0</ele><time>2026-04-25T16:05:33Z</time></trkpt><trkpt lat="44.6379917" lon="8.23844"><ele>255.0</ele><time>2026-04-25T16:05:33.995Z</time></trkpt><trkpt lat="44.638025" lon="8.2382783"><ele>257.0</ele><time>2026-04-25T16:05:34.995Z</time></trkpt><trkpt lat="44.63804" lon="8.23813"><ele>259.0</ele><time>2026-04-25T16:05:35.997Z</time></trkpt><trkpt lat="44.63803" lon="8.2379883"><ele>261.0</ele><time>2026-04-25T16:05:36.992Z</time></trkpt><trkpt lat="44.638" lon="8.2378483"><ele>263.0</ele><time>2026-04-25T16:05:37.995Z</time></trkpt><trkpt lat="44.6379517" lon="8.2377183"><ele>265.0</ele><time>2026-04-25T16:05:38.995Z</time></trkpt><trkpt lat="44.6378967" lon="8.2375933"><ele>265.0</ele><time>2026-04-25T16:05:39.998Z</time></trkpt><trkpt lat="44.637835" lon="8.2374683"><ele>265.0</ele><time>2026-04-25T16:05:40.994Z</time></trkpt><trkpt lat="44.6377733" lon="8.2373483"><ele>265.0</ele><time>2026-04-25T16:05:41.996Z</time></trkpt><trkpt lat="44.6377117" lon="8.23723"><ele>265.0</ele><time>2026-04-25T16:05:42.993Z</time></trkpt><trkpt lat="44.6376533" lon="8.2371033"><ele>265.0</ele><time>2026-04-25T16:05:43.993Z</time></trkpt><trkpt lat="44.6375917" lon="8.2369767"><ele>265.4</ele><time>2026-04-25T16:05:44.997Z</time></trkpt><trkpt lat="44.6375317" lon="8.2368583"><ele>265.8</ele><time>2026-04-25T16:05:45.997Z</time></trkpt><trkpt lat="44.6374717" lon="8.2367483"><ele>266.2</ele><time>2026-04-25T16:05:46.999Z</time></trkpt><trkpt lat="44.6374233" lon="8.236635"><ele>266.6</ele><time>2026-04-25T16:05:47.995Z</time></trkpt><trkpt lat="44.6373883" lon="8.2365133"><ele>267.0</ele><time>2026-04-25T16:05:48.999Z</time></trkpt><trkpt lat="44.637365" lon="8.2363867"><ele>267.0</ele><time>2026-04-25T16:05:49.996Z</time></trkpt><trkpt lat="44.6373467" lon="8.2362633"><ele>267.0</ele><time>2026-04-25T16:05:50.993Z</time></trkpt><trkpt lat="44.6373267" lon="8.23614"><ele>267.0</ele><time>2026-04-25T16:05:51.999Z</time></trkpt><trkpt lat="44.6373083" lon="8.2360217"><ele>267.0</ele><time>2026-04-25T16:05:52.993Z</time></trkpt><trkpt lat="44.637285" lon="8.235915"><ele>267.0</ele><time>2026-04-25T16:05:53.992Z</time></trkpt><trkpt lat="44.6372667" lon="8.2358183"><ele>267.0</ele><time>2026-04-25T16:05:54.995Z</time></trkpt><trkpt lat="44.6372633" lon="8.235715"><ele>267.0</ele><time>2026-04-25T16:05:55.995Z</time></trkpt><trkpt lat="44.6372717" lon="8.2356167"><ele>267.0</ele><time>2026-04-25T16:05:57.001Z</time></trkpt><trkpt lat="44.6372983" lon="8.235535"><ele>267.0</ele><time>2026-04-25T16:05:57.994Z</time></trkpt><trkpt lat="44.6374283" lon="8.23559"><ele>267.0</ele><time>2026-04-25T16:05:59.996Z</time></trkpt><trkpt lat="44.6374667" lon="8.2356867"><ele>267.0</ele><time>2026-04-25T16:06:00.995Z</time></trkpt><trkpt lat="44.6374867" lon="8.23579"><ele>267.0</ele><time>2026-04-25T16:06:01.996Z</time></trkpt><trkpt lat="44.6375" lon="8.2359333"><ele>267.0</ele><time>2026-04-25T16:06:02.993Z</time></trkpt><trkpt lat="44.6375067" lon="8.2360783"><ele>267.0</ele><time>2026-04-25T16:06:03.996Z</time></trkpt><trkpt lat="44.6375333" lon="8.236215"><ele>267.0</ele><time>2026-04-25T16:06:04.993Z</time></trkpt><trkpt lat="44.63757" lon="8.236325"><ele>267.0</ele><time>2026-04-25T16:06:05.994Z</time></trkpt><trkpt lat="44.63762" lon="8.2364183"><ele>267.0</ele><time>2026-04-25T16:06:06.993Z</time></trkpt><trkpt lat="44.6376917" lon="8.23649"><ele>265.8</ele><time>2026-04-25T16:06:07.994Z</time></trkpt><trkpt lat="44.6377867" lon="8.2365267"><ele>264.6</ele><time>2026-04-25T16:06:08.995Z</time></trkpt><trkpt lat="44.6378967" lon="8.23652"><ele>263.40000000000003</ele><time>2026-04-25T16:06:09.996Z</time></trkpt><trkpt lat="44.6379967" lon="8.236495"><ele>262.2</ele><time>2026-04-25T16:06:10.997Z</time></trkpt><trkpt lat="44.6381017" lon="8.23641"><ele>261.0</ele><time>2026-04-25T16:06:11.996Z</time></trkpt><trkpt lat="44.6382033" lon="8.2363433"><ele>266.25</ele><time>2026-04-25T16:06:12.994Z</time></trkpt><trkpt lat="44.63831" lon="8.2362867"><ele>271.5</ele><time>2026-04-25T16:06:13.995Z</time></trkpt><trkpt lat="44.638415" lon="8.23626"><ele>276.75</ele><time>2026-04-25T16:06:15.002Z</time></trkpt><trkpt lat="44.6385233" lon="8.236285"><ele>282.0</ele><time>2026-04-25T16:06:15.995Z</time></trkpt><trkpt lat="44.6386367" lon="8.2363433"><ele>281.5</ele><time>2026-04-25T16:06:16.992Z</time></trkpt><trkpt lat="44.6387483" lon="8.2364167"><ele>281.0</ele><time>2026-04-25T16:06:17.993Z</time></trkpt><trkpt lat="44.6388567" lon="8.2365"><ele>280.5</ele><time>2026-04-25T16:06:18.994Z</time></trkpt><trkpt lat="44.63896" lon="8.2365933"><ele>280.0</ele><time>2026-04-25T16:06:20Z</time></trkpt><trkpt lat="44.6390583" lon="8.2366683"><ele>280.0</ele><time>2026-04-25T16:06:20.993Z</time></trkpt><trkpt lat="44.63914" lon="8.2367233"><ele>280.0</ele><time>2026-04-25T16:06:21.995Z</time></trkpt><trkpt lat="44.6392167" lon="8.23676"><ele>280.0</ele><time>2026-04-25T16:06:22.994Z</time></trkpt><trkpt lat="44.6392883" lon="8.236785"><ele>280.0</ele><time>2026-04-25T16:06:23.996Z</time></trkpt><trkpt lat="44.6393633" lon="8.23678"><ele>280.0</ele><time>2026-04-25T16:06:25.002Z</time></trkpt><trkpt lat="44.6394333" lon="8.236755"><ele>280.0</ele><time>2026-04-25T16:06:25.997Z</time></trkpt><trkpt lat="44.6394683" lon="8.2366717"><ele>279.2</ele><time>2026-04-25T16:06:26.994Z</time></trkpt><trkpt lat="44.639485" lon="8.2365617"><ele>278.4</ele><time>2026-04-25T16:06:27.996Z</time></trkpt><trkpt lat="44.6394867" lon="8.236435"><ele>277.6</ele><time>2026-04-25T16:06:28.993Z</time></trkpt><trkpt lat="44.639465" lon="8.2363"><ele>276.8</ele><time>2026-04-25T16:06:29.999Z</time></trkpt><trkpt lat="44.6394167" lon="8.236155"><ele>276.0</ele><time>2026-04-25T16:06:30.994Z</time></trkpt><trkpt lat="44.6393667" lon="8.2359867"><ele>278.75</ele><time>2026-04-25T16:06:31.993Z</time></trkpt><trkpt lat="44.6393283" lon="8.2358133"><ele>281.5</ele><time>2026-04-25T16:06:32.995Z</time></trkpt><trkpt lat="44.6393117" lon="8.2356467"><ele>284.25</ele><time>2026-04-25T16:06:33.997Z</time></trkpt><trkpt lat="44.639315" lon="8.2354683"><ele>287.0</ele><time>2026-04-25T16:06:34.995Z</time></trkpt><trkpt lat="44.6393217" lon="8.23529"><ele>287.75</ele><time>2026-04-25T16:06:36.004Z</time></trkpt><trkpt lat="44.63933" lon="8.2351183"><ele>288.5</ele><time>2026-04-25T16:06:36.992Z</time></trkpt><trkpt lat="44.6393383" lon="8.234955"><ele>289.25</ele><time>2026-04-25T16:06:37.997Z</time></trkpt><trkpt lat="44.6393433" lon="8.2348017"><ele>290.0</ele><time>2026-04-25T16:06:38.996Z</time></trkpt><trkpt lat="44.639355" lon="8.2346433"><ele>290.0</ele><time>2026-04-25T16:06:39.995Z</time></trkpt><trkpt lat="44.6393583" lon="8.234505"><ele>290.0</ele><time>2026-04-25T16:06:40.993Z</time></trkpt><trkpt lat="44.6393517" lon="8.234365"><ele>290.0</ele><time>2026-04-25T16:06:41.995Z</time></trkpt><trkpt lat="44.6393183" lon="8.2342317"><ele>290.0</ele><time>2026-04-25T16:06:42.997Z</time></trkpt><trkpt lat="44.639265" lon="8.2341033"><ele>290.0</ele><time>2026-04-25T16:06:43.999Z</time></trkpt><trkpt lat="44.6392017" lon="8.2339767"><ele>289.75</ele><time>2026-04-25T16:06:44.997Z</time></trkpt><trkpt lat="44.639135" lon="8.2338483"><ele>289.5</ele><time>2026-04-25T16:06:45.995Z</time></trkpt><trkpt lat="44.6390667" lon="8.233715"><ele>289.25</ele><time>2026-04-25T16:06:46.997Z</time></trkpt><trkpt lat="44.639" lon="8.2335817"><ele>289.0</ele><time>2026-04-25T16:06:47.993Z</time></trkpt><trkpt lat="44.638945" lon="8.2334433"><ele>289.0</ele><time>2026-04-25T16:06:48.995Z</time></trkpt><trkpt lat="44.6389183" lon="8.2332883"><ele>289.0</ele><time>2026-04-25T16:06:49.994Z</time></trkpt><trkpt lat="44.6389183" lon="8.2331317"><ele>289.0</ele><time>2026-04-25T16:06:50.996Z</time></trkpt><trkpt lat="44.6389317" lon="8.2329767"><ele>289.0</ele><time>2026-04-25T16:06:51.995Z</time></trkpt><trkpt lat="44.6389633" lon="8.23282"><ele>288.5</ele><time>2026-04-25T16:06:52.996Z</time></trkpt><trkpt lat="44.6390133" lon="8.23265"><ele>288.0</ele><time>2026-04-25T16:06:53.993Z</time></trkpt><trkpt lat="44.6390667" lon="8.2324783"><ele>287.5</ele><time>2026-04-25T16:06:54.994Z</time></trkpt><trkpt lat="44.6391217" lon="8.2323067"><ele>287.0</ele><time>2026-04-25T16:06:55.993Z</time></trkpt><trkpt lat="44.6391833" lon="8.2321367"><ele>287.75</ele><time>2026-04-25T16:06:56.996Z</time></trkpt><trkpt lat="44.639255" lon="8.2319767"><ele>288.5</ele><time>2026-04-25T16:06:57.994Z</time></trkpt><trkpt lat="44.63934" lon="8.2318283"><ele>289.25</ele><time>2026-04-25T16:06:58.992Z</time></trkpt><trkpt lat="44.639435" lon="8.2316933"><ele>290.0</ele><time>2026-04-25T16:06:59.996Z</time></trkpt><trkpt lat="44.639535" lon="8.23156"><ele>291.25</ele><time>2026-04-25T16:07:00.997Z</time></trkpt><trkpt lat="44.6396317" lon="8.2314367"><ele>292.5</ele><time>2026-04-25T16:07:01.992Z</time></trkpt><trkpt lat="44.6397233" lon="8.231325"><ele>293.75</ele><time>2026-04-25T16:07:02.992Z</time></trkpt><trkpt lat="44.63981" lon="8.231215"><ele>295.0</ele><time>2026-04-25T16:07:03.993Z</time></trkpt><trkpt lat="44.6398933" lon="8.23111"><ele>295.0</ele><time>2026-04-25T16:07:04.993Z</time></trkpt><trkpt lat="44.6399733" lon="8.2310117"><ele>295.0</ele><time>2026-04-25T16:07:05.996Z</time></trkpt><trkpt lat="44.6400483" lon="8.2309183"><ele>295.0</ele><time>2026-04-25T16:07:06.993Z</time></trkpt><trkpt lat="44.6401217" lon="8.2308317"><ele>295.0</ele><time>2026-04-25T16:07:07.995Z</time></trkpt><trkpt lat="44.64019" lon="8.2307467"><ele>295.0</ele><time>2026-04-25T16:07:08.999Z</time></trkpt><trkpt lat="44.6402533" lon="8.2306717"><ele>297.8333333333333</ele><time>2026-04-25T16:07:09.999Z</time></trkpt><trkpt lat="44.6403117" lon="8.2305983"><ele>300.66666666666663</ele><time>2026-04-25T16:07:11.004Z</time></trkpt><trkpt lat="44.6403567" lon="8.23051"><ele>303.5</ele><time>2026-04-25T16:07:11.995Z</time></trkpt><trkpt lat="44.6403833" lon="8.2304167"><ele>306.3333333333333</ele><time>2026-04-25T16:07:13.002Z</time></trkpt><trkpt lat="44.6403933" lon="8.2303067"><ele>309.1666666666667</ele><time>2026-04-25T16:07:13.999Z</time></trkpt><trkpt lat="44.640355" lon="8.230215"><ele>312.0</ele><time>2026-04-25T16:07:14.999Z</time></trkpt><trkpt lat="44.6403167" lon="8.2301267"><ele>312.3333333333333</ele><time>2026-04-25T16:07:15.999Z</time></trkpt><trkpt lat="44.6402833" lon="8.23004"><ele>312.6666666666667</ele><time>2026-04-25T16:07:16.996Z</time></trkpt><trkpt lat="44.6402567" lon="8.229955"><ele>313.0</ele><time>2026-04-25T16:07:17.992Z</time></trkpt><trkpt lat="44.64024" lon="8.2298683"><ele>313.33333333333337</ele><time>2026-04-25T16:07:18.995Z</time></trkpt><trkpt lat="44.6402333" lon="8.2297783"><ele>313.6666666666667</ele><time>2026-04-25T16:07:19.995Z</time></trkpt><trkpt lat="44.640315" lon="8.2297533"><ele>314.0</ele><time>2026-04-25T16:07:21.003Z</time></trkpt><trkpt lat="44.6404333" lon="8.2297267"><ele>314.0</ele><time>2026-04-25T16:07:22.994Z</time></trkpt><trkpt lat="44.640515" lon="8.2297817"><ele>314.0</ele><time>2026-04-25T16:07:23.993Z</time></trkpt><trkpt lat="44.6405933" lon="8.22984"><ele>314.0</ele><time>2026-04-25T16:07:24.996Z</time></trkpt><trkpt lat="44.640655" lon="8.229895"><ele>314.0</ele><time>2026-04-25T16:07:25.995Z</time></trkpt><trkpt lat="44.6407267" lon="8.2299533"><ele>314.0</ele><time>2026-04-25T16:07:26.995Z</time></trkpt><trkpt lat="44.6408167" lon="8.2300117"><ele>314.0</ele><time>2026-04-25T16:07:27.998Z</time></trkpt><trkpt lat="44.640915" lon="8.2300533"><ele>313.59999999999997</ele><time>2026-04-25T16:07:28.996Z</time></trkpt><trkpt lat="44.6410167" lon="8.2300933"><ele>313.2</ele><time>2026-04-25T16:07:29.995Z</time></trkpt><trkpt lat="44.6411167" lon="8.23014"><ele>312.79999999999995</ele><time>2026-04-25T16:07:30.999Z</time></trkpt><trkpt lat="44.6412083" lon="8.2302183"><ele>312.4</ele><time>2026-04-25T16:07:31.995Z</time></trkpt><trkpt lat="44.6412883" lon="8.2303133"><ele>312.0</ele><time>2026-04-25T16:07:32.997Z</time></trkpt><trkpt lat="44.641365" lon="8.2304083"><ele>313.75</ele><time>2026-04-25T16:07:33.997Z</time></trkpt><trkpt lat="44.6414483" lon="8.230505"><ele>315.5</ele><time>2026-04-25T16:07:34.994Z</time></trkpt><trkpt lat="44.6415417" lon="8.2305983"><ele>317.25</ele><time>2026-04-25T16:07:36Z</time></trkpt><trkpt lat="44.64164" lon="8.2306983"><ele>319.0</ele><time>2026-04-25T16:07:36.996Z</time></trkpt><trkpt lat="44.6417517" lon="8.2307883"><ele>319.0</ele><time>2026-04-25T16:07:37.996Z</time></trkpt><trkpt lat="44.6418717" lon="8.2308617"><ele>319.0</ele><time>2026-04-25T16:07:38.994Z</time></trkpt><trkpt lat="44.6419967" lon="8.23092"><ele>319.0</ele><time>2026-04-25T16:07:39.995Z</time></trkpt><trkpt lat="44.6421217" lon="8.230965"><ele>319.0</ele><time>2026-04-25T16:07:40.996Z</time></trkpt><trkpt lat="44.64224" lon="8.2309883"><ele>320.0</ele><time>2026-04-25T16:07:41.993Z</time></trkpt><trkpt lat="44.6423533" lon="8.230985"><ele>321.0</ele><time>2026-04-25T16:07:42.995Z</time></trkpt><trkpt lat="44.6424633" lon="8.2309667"><ele>322.0</ele><time>2026-04-25T16:07:43.999Z</time></trkpt><trkpt lat="44.6425717" lon="8.2309467"><ele>323.0</ele><time>2026-04-25T16:07:44.998Z</time></trkpt><trkpt lat="44.642675" lon="8.2309267"><ele>324.0</ele><time>2026-04-25T16:07:45.999Z</time></trkpt><trkpt lat="44.64277" lon="8.230905"><ele>325.6666666666667</ele><time>2026-04-25T16:07:46.994Z</time></trkpt><trkpt lat="44.6428633" lon="8.2308867"><ele>327.3333333333333</ele><time>2026-04-25T16:07:47.995Z</time></trkpt><trkpt lat="44.6429433" lon="8.2308567"><ele>329.0</ele><time>2026-04-25T16:07:49.001Z</time></trkpt><trkpt lat="44.64301" lon="8.2308183"><ele>330.66666666666663</ele><time>2026-04-25T16:07:50Z</time></trkpt><trkpt lat="44.6430633" lon="8.2307633"><ele>332.3333333333333</ele><time>2026-04-25T16:07:50.995Z</time></trkpt><trkpt lat="44.6430617" lon="8.230615"><ele>334.0</ele><time>2026-04-25T16:07:52.994Z</time></trkpt><trkpt lat="44.6430033" lon="8.2304467"><ele>333.8333333333333</ele><time>2026-04-25T16:07:54.997Z</time></trkpt><trkpt lat="44.642945" lon="8.2303717"><ele>333.66666666666663</ele><time>2026-04-25T16:07:55.996Z</time></trkpt><trkpt lat="44.642885" lon="8.2302917"><ele>333.5</ele><time>2026-04-25T16:07:56.995Z</time></trkpt><trkpt lat="44.64282" lon="8.2302067"><ele>333.3333333333333</ele><time>2026-04-25T16:07:57.995Z</time></trkpt><trkpt lat="44.6427483" lon="8.2301183"><ele>333.1666666666667</ele><time>2026-04-25T16:07:58.998Z</time></trkpt><trkpt lat="44.64267" lon="8.2300317"><ele>333.0</ele><time>2026-04-25T16:07:59.994Z</time></trkpt><trkpt lat="44.64258" lon="8.2299517"><ele>333.0</ele><time>2026-04-25T16:08:00.996Z</time></trkpt><trkpt lat="44.642485" lon="8.2298817"><ele>333.0</ele><time>2026-04-25T16:08:01.994Z</time></trkpt><trkpt lat="44.6423917" lon="8.2298067"><ele>333.0</ele><time>2026-04-25T16:08:02.996Z</time></trkpt><trkpt lat="44.642305" lon="8.2297133"><ele>333.0</ele><time>2026-04-25T16:08:03.994Z</time></trkpt><trkpt lat="44.6422283" lon="8.2296167"><ele>333.0</ele><time>2026-04-25T16:08:04.994Z</time></trkpt><trkpt lat="44.6421667" lon="8.2295217"><ele>334.3333333333333</ele><time>2026-04-25T16:08:05.997Z</time></trkpt><trkpt lat="44.64212" lon="8.229435"><ele>335.6666666666667</ele><time>2026-04-25T16:08:06.997Z</time></trkpt><trkpt lat="44.642085" lon="8.229345"><ele>337.0</ele><time>2026-04-25T16:08:07.995Z</time></trkpt><trkpt lat="44.6420667" lon="8.22926"><ele>338.33333333333337</ele><time>2026-04-25T16:08:08.994Z</time></trkpt><trkpt lat="44.6420717" lon="8.2291717"><ele>339.6666666666667</ele><time>2026-04-25T16:08:09.993Z</time></trkpt><trkpt lat="44.6421083" lon="8.2290717"><ele>341.0</ele><time>2026-04-25T16:08:10.994Z</time></trkpt><trkpt lat="44.64216" lon="8.228945"><ele>341.6666666666667</ele><time>2026-04-25T16:08:11.996Z</time></trkpt><trkpt lat="44.6421983" lon="8.2288267"><ele>342.33333333333337</ele><time>2026-04-25T16:08:12.993Z</time></trkpt><trkpt lat="44.6422267" lon="8.228705"><ele>343.0</ele><time>2026-04-25T16:08:13.993Z</time></trkpt><trkpt lat="44.64224" lon="8.2285833"><ele>343.6666666666667</ele><time>2026-04-25T16:08:14.998Z</time></trkpt><trkpt lat="44.6422483" lon="8.2284667"><ele>344.3333333333333</ele><time>2026-04-25T16:08:15.996Z</time></trkpt><trkpt lat="44.6422617" lon="8.2283517"><ele>345.0</ele><time>2026-04-25T16:08:16.995Z</time></trkpt><trkpt lat="44.6422833" lon="8.2282417"><ele>345.4</ele><time>2026-04-25T16:08:17.994Z</time></trkpt><trkpt lat="44.64231" lon="8.2281333"><ele>345.8</ele><time>2026-04-25T16:08:18.999Z</time></trkpt><trkpt lat="44.642345" lon="8.2280233"><ele>346.20000000000005</ele><time>2026-04-25T16:08:19.996Z</time></trkpt><trkpt lat="44.6423833" lon="8.2279017"><ele>346.6</ele><time>2026-04-25T16:08:20.997Z</time></trkpt><trkpt lat="44.6424283" lon="8.2277733"><ele>347.0</ele><time>2026-04-25T16:08:21.993Z</time></trkpt><trkpt lat="44.6424733" lon="8.2276367"><ele>347.0</ele><time>2026-04-25T16:08:22.994Z</time></trkpt><trkpt lat="44.642515" lon="8.227505"><ele>347.0</ele><time>2026-04-25T16:08:23.995Z</time></trkpt><trkpt lat="44.6425467" lon="8.2273717"><ele>347.0</ele><time>2026-04-25T16:08:24.996Z</time></trkpt><trkpt lat="44.6425617" lon="8.2272333"><ele>347.0</ele><time>2026-04-25T16:08:25.996Z</time></trkpt><trkpt lat="44.6425617" lon="8.2271"><ele>347.0</ele><time>2026-04-25T16:08:27Z</time></trkpt><trkpt lat="44.6425483" lon="8.2269717"><ele>348.0</ele><time>2026-04-25T16:08:27.993Z</time></trkpt><trkpt lat="44.6425317" lon="8.226855"><ele>349.0</ele><time>2026-04-25T16:08:28.997Z</time></trkpt><trkpt lat="44.6425233" lon="8.22675"><ele>350.0</ele><time>2026-04-25T16:08:29.997Z</time></trkpt><trkpt lat="44.642525" lon="8.22665"><ele>351.0</ele><time>2026-04-25T16:08:30.995Z</time></trkpt><trkpt lat="44.6425717" lon="8.2265333"><ele>352.0</ele><time>2026-04-25T16:08:32.996Z</time></trkpt><trkpt lat="44.6426317" lon="8.2266067"><ele>353.0</ele><time>2026-04-25T16:08:33.994Z</time></trkpt><trkpt lat="44.6426817" lon="8.2266617"><ele>353.0</ele><time>2026-04-25T16:08:34.996Z</time></trkpt><trkpt lat="44.642715" lon="8.2267517"><ele>353.0</ele><time>2026-04-25T16:08:35.994Z</time></trkpt><trkpt lat="44.64273" lon="8.2269183"><ele>353.0</ele><time>2026-04-25T16:08:36.993Z</time></trkpt><trkpt lat="44.6427367" lon="8.22707"><ele>353.0</ele><time>2026-04-25T16:08:37.997Z</time></trkpt><trkpt lat="44.6427383" lon="8.2272317"><ele>353.0</ele><time>2026-04-25T16:08:38.995Z</time></trkpt><trkpt lat="44.6427333" lon="8.227375"><ele>351.79999999999995</ele><time>2026-04-25T16:08:39.996Z</time></trkpt><trkpt lat="44.6427317" lon="8.2275133"><ele>350.6</ele><time>2026-04-25T16:08:40.996Z</time></trkpt><trkpt lat="44.642745" lon="8.2276383"><ele>349.4</ele><time>2026-04-25T16:08:41.997Z</time></trkpt><trkpt lat="44.6427717" lon="8.2277583"><ele>348.20000000000005</ele><time>2026-04-25T16:08:42.994Z</time></trkpt><trkpt lat="44.6428067" lon="8.22787"><ele>347.0</ele><time>2026-04-25T16:08:43.995Z</time></trkpt><trkpt lat="44.6428517" lon="8.2279717"><ele>352.0</ele><time>2026-04-25T16:08:44.998Z</time></trkpt><trkpt lat="44.6429083" lon="8.2280633"><ele>357.0</ele><time>2026-04-25T16:08:45.997Z</time></trkpt><trkpt lat="44.6429767" lon="8.2281583"><ele>362.0</ele><time>2026-04-25T16:08:46.993Z</time></trkpt><trkpt lat="44.6430483" lon="8.2282633"><ele>367.0</ele><time>2026-04-25T16:08:47.995Z</time></trkpt><trkpt lat="44.6431233" lon="8.2283733"><ele>372.0</ele><time>2026-04-25T16:08:48.996Z</time></trkpt><trkpt lat="44.6432017" lon="8.2284817"><ele>372.0</ele><time>2026-04-25T16:08:49.994Z</time></trkpt><trkpt lat="44.6432867" lon="8.22859"><ele>372.0</ele><time>2026-04-25T16:08:50.998Z</time></trkpt><trkpt lat="44.6433717" lon="8.2286933"><ele>372.0</ele><time>2026-04-25T16:08:51.999Z</time></trkpt><trkpt lat="44.643455" lon="8.2287933"><ele>372.0</ele><time>2026-04-25T16:08:52.995Z</time></trkpt><trkpt lat="44.6435283" lon="8.2289"><ele>372.0</ele><time>2026-04-25T16:08:53.998Z</time></trkpt><trkpt lat="44.6435783" lon="8.2290083"><ele>369.6</ele><time>2026-04-25T16:08:54.997Z</time></trkpt><trkpt lat="44.64361" lon="8.2291233"><ele>367.20000000000005</ele><time>2026-04-25T16:08:56Z</time></trkpt><trkpt lat="44.6436367" lon="8.2292467"><ele>364.8</ele><time>2026-04-25T16:08:57.001Z</time></trkpt><trkpt lat="44.64367" lon="8.2293767"><ele>362.4</ele><time>2026-04-25T16:08:57.997Z</time></trkpt><trkpt lat="44.6437117" lon="8.2295017"><ele>360.0</ele><time>2026-04-25T16:08:58.995Z</time></trkpt><trkpt lat="44.6437567" lon="8.229615"><ele>362.4</ele><time>2026-04-25T16:09:00Z</time></trkpt><trkpt lat="44.64381" lon="8.22972"><ele>364.8</ele><time>2026-04-25T16:09:00.996Z</time></trkpt><trkpt lat="44.643875" lon="8.2298083"><ele>367.20000000000005</ele><time>2026-04-25T16:09:01.997Z</time></trkpt><trkpt lat="44.643955" lon="8.22988"><ele>369.6</ele><time>2026-04-25T16:09:02.996Z</time></trkpt><trkpt lat="44.6440383" lon="8.229935"><ele>372.0</ele><time>2026-04-25T16:09:03.995Z</time></trkpt><trkpt lat="44.6441267" lon="8.2299717"><ele>372.0</ele><time>2026-04-25T16:09:04.995Z</time></trkpt><trkpt lat="44.6442117" lon="8.2299817"><ele>372.0</ele><time>2026-04-25T16:09:05.997Z</time></trkpt><trkpt lat="44.6442967" lon="8.2299633"><ele>372.0</ele><time>2026-04-25T16:09:06.997Z</time></trkpt><trkpt lat="44.6443867" lon="8.2299317"><ele>372.0</ele><time>2026-04-25T16:09:07.998Z</time></trkpt><trkpt lat="44.6444783" lon="8.229895"><ele>372.0</ele><time>2026-04-25T16:09:08.996Z</time></trkpt><trkpt lat="44.644575" lon="8.2298583"><ele>373.8</ele><time>2026-04-25T16:09:09.994Z</time></trkpt><trkpt lat="44.644675" lon="8.2298233"><ele>375.6</ele><time>2026-04-25T16:09:10.995Z</time></trkpt><trkpt lat="44.6447733" lon="8.2298033"><ele>377.40000000000003</ele><time>2026-04-25T16:09:12Z</time></trkpt><trkpt lat="44.6448717" lon="8.2297983"><ele>379.20000000000005</ele><time>2026-04-25T16:09:12.998Z</time></trkpt><trkpt lat="44.6449733" lon="8.2298117"><ele>381.0</ele><time>2026-04-25T16:09:13.995Z</time></trkpt><trkpt lat="44.6450733" lon="8.22984"><ele>381.0</ele><time>2026-04-25T16:09:14.999Z</time></trkpt><trkpt lat="44.645175" lon="8.2298683"><ele>381.0</ele><time>2026-04-25T16:09:15.996Z</time></trkpt><trkpt lat="44.645275" lon="8.2298933"><ele>381.0</ele><time>2026-04-25T16:09:16.998Z</time></trkpt><trkpt lat="44.6453717" lon="8.2299183"><ele>381.0</ele><time>2026-04-25T16:09:17.997Z</time></trkpt><trkpt lat="44.6454617" lon="8.2299533"><ele>381.0</ele><time>2026-04-25T16:09:18.994Z</time></trkpt><trkpt lat="44.645535" lon="8.2300067"><ele>382.6666666666667</ele><time>2026-04-25T16:09:19.996Z</time></trkpt><trkpt lat="44.645605" lon="8.23007"><ele>384.33333333333337</ele><time>2026-04-25T16:09:20.998Z</time></trkpt><trkpt lat="44.6456267" lon="8.2301817"><ele>386.0</ele><time>2026-04-25T16:09:21.994Z</time></trkpt><trkpt lat="44.6456483" lon="8.2302967"><ele>387.6666666666667</ele><time>2026-04-25T16:09:22.997Z</time></trkpt><trkpt lat="44.6456367" lon="8.2304267"><ele>389.33333333333337</ele><time>2026-04-25T16:09:23.993Z</time></trkpt><trkpt lat="44.6456283" lon="8.2305567"><ele>391.0</ele><time>2026-04-25T16:09:24.998Z</time></trkpt><trkpt lat="44.64563" lon="8.2306767"><ele>391.00000000000006</ele><time>2026-04-25T16:09:25.997Z</time></trkpt><trkpt lat="44.64564" lon="8.2307883"><ele>391.0</ele><time>2026-04-25T16:09:26.998Z</time></trkpt><trkpt lat="44.645655" lon="8.230885"><ele>391.0</ele><time>2026-04-25T16:09:27.999Z</time></trkpt><trkpt lat="44.6456917" lon="8.2309633"><ele>391.0</ele><time>2026-04-25T16:09:28.995Z</time></trkpt><trkpt lat="44.6457817" lon="8.2309833"><ele>391.00000000000006</ele><time>2026-04-25T16:09:31.001Z</time></trkpt><trkpt lat="44.645835" lon="8.2308617"><ele>391.0</ele><time>2026-04-25T16:09:32.997Z</time></trkpt><trkpt lat="44.6458267" lon="8.2306883"><ele>392.1666666666667</ele><time>2026-04-25T16:09:35Z</time></trkpt><trkpt lat="44.64581" lon="8.2305883"><ele>393.33333333333337</ele><time>2026-04-25T16:09:35.995Z</time></trkpt><trkpt lat="44.6458017" lon="8.230485"><ele>394.5</ele><time>2026-04-25T16:09:37.003Z</time></trkpt><trkpt lat="44.6458017" lon="8.2303717"><ele>395.66666666666663</ele><time>2026-04-25T16:09:37.998Z</time></trkpt><trkpt lat="44.645815" lon="8.2302517"><ele>396.8333333333333</ele><time>2026-04-25T16:09:39Z</time></trkpt><trkpt lat="44.6458367" lon="8.230145"><ele>398.0</ele><time>2026-04-25T16:09:39.993Z</time></trkpt><trkpt lat="44.6458517" lon="8.230035"><ele>398.0</ele><time>2026-04-25T16:09:40.995Z</time></trkpt><trkpt lat="44.6458483" lon="8.229925"><ele>398.0</ele><time>2026-04-25T16:09:41.994Z</time></trkpt><trkpt lat="44.6458333" lon="8.2298033"><ele>398.0</ele><time>2026-04-25T16:09:42.999Z</time></trkpt><trkpt lat="44.6457833" lon="8.2296783"><ele>398.0</ele><time>2026-04-25T16:09:43.996Z</time></trkpt><trkpt lat="44.6457183" lon="8.229555"><ele>398.0</ele><time>2026-04-25T16:09:44.997Z</time></trkpt><trkpt lat="44.645645" lon="8.2294483"><ele>398.4</ele><time>2026-04-25T16:09:45.996Z</time></trkpt><trkpt lat="44.6455683" lon="8.22935"><ele>398.79999999999995</ele><time>2026-04-25T16:09:46.995Z</time></trkpt><trkpt lat="44.6454867" lon="8.2292517"><ele>399.2</ele><time>2026-04-25T16:09:47.996Z</time></trkpt><trkpt lat="44.6454" lon="8.2291683"><ele>399.6</ele><time>2026-04-25T16:09:48.994Z</time></trkpt><trkpt lat="44.645305" lon="8.2291017"><ele>400.0</ele><time>2026-04-25T16:09:50.005Z</time></trkpt><trkpt lat="44.6452067" lon="8.229045"><ele>400.0</ele><time>2026-04-25T16:09:50.996Z</time></trkpt><trkpt lat="44.6451033" lon="8.2289967"><ele>400.0</ele><time>2026-04-25T16:09:51.996Z</time></trkpt><trkpt lat="44.645005" lon="8.228945"><ele>400.0</ele><time>2026-04-25T16:09:52.995Z</time></trkpt><trkpt lat="44.6449167" lon="8.2288933"><ele>400.0</ele><time>2026-04-25T16:09:53.996Z</time></trkpt><trkpt lat="44.6448367" lon="8.2288317"><ele>400.0</ele><time>2026-04-25T16:09:54.994Z</time></trkpt><trkpt lat="44.6447717" lon="8.2287633"><ele>402.2</ele><time>2026-04-25T16:09:55.996Z</time></trkpt><trkpt lat="44.6447367" lon="8.2286617"><ele>404.4</ele><time>2026-04-25T16:09:56.997Z</time></trkpt><trkpt lat="44.6447167" lon="8.2285333"><ele>406.6</ele><time>2026-04-25T16:09:57.995Z</time></trkpt><trkpt lat="44.6447067" lon="8.2284017"><ele>408.8</ele><time>2026-04-25T16:09:58.998Z</time></trkpt><trkpt lat="44.6446983" lon="8.2282533"><ele>411.0</ele><time>2026-04-25T16:09:59.997Z</time></trkpt><trkpt lat="44.6446867" lon="8.2281033"><ele>413.25</ele><time>2026-04-25T16:10:00.997Z</time></trkpt><trkpt lat="44.644675" lon="8.2279383"><ele>415.5</ele><time>2026-04-25T16:10:01.993Z</time></trkpt><trkpt lat="44.644655" lon="8.2277683"><ele>417.75</ele><time>2026-04-25T16:10:02.993Z</time></trkpt><trkpt lat="44.6446267" lon="8.2275933"><ele>420.0</ele><time>2026-04-25T16:10:04Z</time></trkpt><trkpt lat="44.64459" lon="8.2274283"><ele>418.25</ele><time>2026-04-25T16:10:04.995Z</time></trkpt><trkpt lat="44.64455" lon="8.2272667"><ele>416.5</ele><time>2026-04-25T16:10:05.997Z</time></trkpt><trkpt lat="44.6445067" lon="8.2271067"><ele>414.75</ele><time>2026-04-25T16:10:06.997Z</time></trkpt><trkpt lat="44.6444633" lon="8.226955"><ele>413.0</ele><time>2026-04-25T16:10:07.995Z</time></trkpt><trkpt lat="44.6444233" lon="8.22681"><ele>413.0</ele><time>2026-04-25T16:10:08.998Z</time></trkpt><trkpt lat="44.64438" lon="8.226675"><ele>413.0</ele><time>2026-04-25T16:10:09.995Z</time></trkpt><trkpt lat="44.64434" lon="8.2265433"><ele>413.0</ele><time>2026-04-25T16:10:10.997Z</time></trkpt><trkpt lat="44.6443083" lon="8.2264267"><ele>413.0</ele><time>2026-04-25T16:10:11.996Z</time></trkpt><trkpt lat="44.6442883" lon="8.22632"><ele>413.0</ele><time>2026-04-25T16:10:12.999Z</time></trkpt><trkpt lat="44.6442767" lon="8.2262133"><ele>413.16666666666663</ele><time>2026-04-25T16:10:14.002Z</time></trkpt><trkpt lat="44.6442833" lon="8.226115"><ele>413.3333333333333</ele><time>2026-04-25T16:10:14.999Z</time></trkpt><trkpt lat="44.6443467" lon="8.2260867"><ele>413.5</ele><time>2026-04-25T16:10:16.002Z</time></trkpt><trkpt lat="44.64445" lon="8.2261633"><ele>413.66666666666663</ele><time>2026-04-25T16:10:18.001Z</time></trkpt><trkpt lat="44.6445017" lon="8.226245"><ele>413.8333333333333</ele><time>2026-04-25T16:10:19.002Z</time></trkpt><trkpt lat="44.6445683" lon="8.2263467"><ele>414.0</ele><time>2026-04-25T16:10:19.995Z</time></trkpt><trkpt lat="44.6446467" lon="8.22646"><ele>418.0</ele><time>2026-04-25T16:10:20.999Z</time></trkpt><trkpt lat="44.6447383" lon="8.2266"><ele>422.0</ele><time>2026-04-25T16:10:21.995Z</time></trkpt><trkpt lat="44.64483" lon="8.2267233"><ele>426.0</ele><time>2026-04-25T16:10:22.994Z</time></trkpt><trkpt lat="44.6449183" lon="8.2268517"><ele>430.0</ele><time>2026-04-25T16:10:23.998Z</time></trkpt><trkpt lat="44.64501" lon="8.226975"><ele>430.0</ele><time>2026-04-25T16:10:24.999Z</time></trkpt><trkpt lat="44.6451033" lon="8.227095"><ele>430.0</ele><time>2026-04-25T16:10:26Z</time></trkpt><trkpt lat="44.6451967" lon="8.2272083"><ele>430.0</ele><time>2026-04-25T16:10:26.996Z</time></trkpt><trkpt lat="44.6452867" lon="8.22732"><ele>430.0</ele><time>2026-04-25T16:10:27.997Z</time></trkpt><trkpt lat="44.6453717" lon="8.227425"><ele>433.2</ele><time>2026-04-25T16:10:29.001Z</time></trkpt><trkpt lat="44.6454483" lon="8.2275267"><ele>436.4</ele><time>2026-04-25T16:10:29.994Z</time></trkpt><trkpt lat="44.6455167" lon="8.2276333"><ele>439.6</ele><time>2026-04-25T16:10:30.997Z</time></trkpt><trkpt lat="44.6455733" lon="8.2277517"><ele>442.8</ele><time>2026-04-25T16:10:32.002Z</time></trkpt><trkpt lat="44.645615" lon="8.2278683"><ele>446.0</ele><time>2026-04-25T16:10:32.999Z</time></trkpt><trkpt lat="44.6456483" lon="8.2279783"><ele>445.99999999999994</ele><time>2026-04-25T16:10:34.001Z</time></trkpt><trkpt lat="44.645685" lon="8.22808"><ele>446.0</ele><time>2026-04-25T16:10:34.996Z</time></trkpt><trkpt lat="44.64573" lon="8.2281767"><ele>446.0</ele><time>2026-04-25T16:10:35.998Z</time></trkpt><trkpt lat="44.6457767" lon="8.2282767"><ele>446.0</ele><time>2026-04-25T16:10:36.997Z</time></trkpt><trkpt lat="44.6458317" lon="8.228365"><ele>445.99999999999994</ele><time>2026-04-25T16:10:37.998Z</time></trkpt><trkpt lat="44.6459017" lon="8.2284433"><ele>446.0</ele><time>2026-04-25T16:10:38.999Z</time></trkpt><trkpt lat="44.645975" lon="8.228525"><ele>443.99999999999994</ele><time>2026-04-25T16:10:39.996Z</time></trkpt><trkpt lat="44.646045" lon="8.2286067"><ele>442.0</ele><time>2026-04-25T16:10:40.993Z</time></trkpt><trkpt lat="44.6461117" lon="8.2286917"><ele>440.0</ele><time>2026-04-25T16:10:41.993Z</time></trkpt><trkpt lat="44.6461783" lon="8.22877"><ele>438.0</ele><time>2026-04-25T16:10:43Z</time></trkpt><trkpt lat="44.6462467" lon="8.2288283"><ele>435.99999999999994</ele><time>2026-04-25T16:10:43.995Z</time></trkpt><trkpt lat="44.64632" lon="8.228885"><ele>434.0</ele><time>2026-04-25T16:10:44.999Z</time></trkpt><trkpt lat="44.6463933" lon="8.2288833"><ele>434.85714285714283</ele><time>2026-04-25T16:10:45.995Z</time></trkpt><trkpt lat="44.6464683" lon="8.228865"><ele>435.7142857142857</ele><time>2026-04-25T16:10:46.996Z</time></trkpt><trkpt lat="44.6465417" lon="8.2288433"><ele>436.57142857142856</ele><time>2026-04-25T16:10:47.998Z</time></trkpt><trkpt lat="44.6466133" lon="8.2288433"><ele>437.42857142857144</ele><time>2026-04-25T16:10:48.995Z</time></trkpt><trkpt lat="44.6466833" lon="8.228865"><ele>438.2857142857143</ele><time>2026-04-25T16:10:49.997Z</time></trkpt><trkpt lat="44.64675" lon="8.22891"><ele>439.1428571428571</ele><time>2026-04-25T16:10:50.997Z</time></trkpt><trkpt lat="44.6467983" lon="8.229"><ele>440.0</ele><time>2026-04-25T16:10:51.997Z</time></trkpt><trkpt lat="44.6468367" lon="8.2291117"><ele>440.0</ele><time>2026-04-25T16:10:52.996Z</time></trkpt><trkpt lat="44.6468717" lon="8.22924"><ele>440.0</ele><time>2026-04-25T16:10:53.998Z</time></trkpt><trkpt lat="44.6469233" lon="8.2293533"><ele>440.0</ele><time>2026-04-25T16:10:54.997Z</time></trkpt><trkpt lat="44.6469883" lon="8.2294517"><ele>440.0</ele><time>2026-04-25T16:10:56.006Z</time></trkpt><trkpt lat="44.6470683" lon="8.229535"><ele>440.0</ele><time>2026-04-25T16:10:57Z</time></trkpt><trkpt lat="44.6471517" lon="8.2296167"><ele>441.8</ele><time>2026-04-25T16:10:57.998Z</time></trkpt><trkpt lat="44.6472367" lon="8.2296983"><ele>443.6</ele><time>2026-04-25T16:10:58.997Z</time></trkpt><trkpt lat="44.647315" lon="8.2297717"><ele>445.4</ele><time>2026-04-25T16:10:59.997Z</time></trkpt><trkpt lat="44.647395" lon="8.2298433"><ele>447.2</ele><time>2026-04-25T16:11:00.999Z</time></trkpt><trkpt lat="44.647475" lon="8.2299017"><ele>449.0</ele><time>2026-04-25T16:11:01.995Z</time></trkpt><trkpt lat="44.6475517" lon="8.2299467"><ele>448.99999999999994</ele><time>2026-04-25T16:11:02.995Z</time></trkpt><trkpt lat="44.64763" lon="8.229975"><ele>449.0</ele><time>2026-04-25T16:11:03.995Z</time></trkpt><trkpt lat="44.64771" lon="8.22998"><ele>449.0</ele><time>2026-04-25T16:11:04.997Z</time></trkpt><trkpt lat="44.6477917" lon="8.229965"><ele>449.0</ele><time>2026-04-25T16:11:05.996Z</time></trkpt><trkpt lat="44.647875" lon="8.22994"><ele>448.99999999999994</ele><time>2026-04-25T16:11:06.996Z</time></trkpt><trkpt lat="44.647955" lon="8.229915"><ele>449.0</ele><time>2026-04-25T16:11:07.996Z</time></trkpt><trkpt lat="44.648025" lon="8.22989"><ele>449.49999999999994</ele><time>2026-04-25T16:11:09.001Z</time></trkpt><trkpt lat="44.648085" lon="8.2298533"><ele>450.0</ele><time>2026-04-25T16:11:09.998Z</time></trkpt><trkpt lat="44.64817" lon="8.2297317"><ele>450.5</ele><time>2026-04-25T16:11:11.998Z</time></trkpt><trkpt lat="44.648185" lon="8.2296333"><ele>451.0</ele><time>2026-04-25T16:11:12.998Z</time></trkpt><trkpt lat="44.6481933" lon="8.2295383"><ele>451.49999999999994</ele><time>2026-04-25T16:11:13.997Z</time></trkpt><trkpt lat="44.64819" lon="8.2293683"><ele>452.0</ele><time>2026-04-25T16:11:16.002Z</time></trkpt><trkpt lat="44.6481867" lon="8.2292633"><ele>453.20000000000005</ele><time>2026-04-25T16:11:16.998Z</time></trkpt><trkpt lat="44.648175" lon="8.2291467"><ele>454.40000000000003</ele><time>2026-04-25T16:11:18Z</time></trkpt><trkpt lat="44.64816" lon="8.22905"><ele>455.59999999999997</ele><time>2026-04-25T16:11:18.996Z</time></trkpt><trkpt lat="44.6481317" lon="8.2288917"><ele>456.79999999999995</ele><time>2026-04-25T16:11:20.993Z</time></trkpt><trkpt lat="44.6481317" lon="8.22875"><ele>458.0</ele><time>2026-04-25T16:11:22.994Z</time></trkpt><trkpt lat="44.648165" lon="8.22861"><ele>458.57142857142856</ele><time>2026-04-25T16:11:24.998Z</time></trkpt><trkpt lat="44.648195" lon="8.22853"><ele>459.14285714285717</ele><time>2026-04-25T16:11:25.996Z</time></trkpt><trkpt lat="44.6482217" lon="8.2284417"><ele>459.7142857142857</ele><time>2026-04-25T16:11:27Z</time></trkpt><trkpt lat="44.64824" lon="8.2283433"><ele>460.2857142857143</ele><time>2026-04-25T16:11:27.994Z</time></trkpt><trkpt lat="44.6482417" lon="8.2282333"><ele>460.8571428571429</ele><time>2026-04-25T16:11:28.995Z</time></trkpt><trkpt lat="44.64823" lon="8.228125"><ele>461.42857142857144</ele><time>2026-04-25T16:11:29.995Z</time></trkpt><trkpt lat="44.6482" lon="8.228015"><ele>462.0</ele><time>2026-04-25T16:11:30.994Z</time></trkpt><trkpt lat="44.64816" lon="8.227905"><ele>462.8</ele><time>2026-04-25T16:11:31.993Z</time></trkpt><trkpt lat="44.6481133" lon="8.2277933"><ele>463.6</ele><time>2026-04-25T16:11:32.997Z</time></trkpt><trkpt lat="44.648055" lon="8.227675"><ele>464.40000000000003</ele><time>2026-04-25T16:11:33.995Z</time></trkpt><trkpt lat="44.6479917" lon="8.227555"><ele>465.20000000000005</ele><time>2026-04-25T16:11:34.992Z</time></trkpt><trkpt lat="44.64794" lon="8.2274383"><ele>466.0</ele><time>2026-04-25T16:11:35.994Z</time></trkpt><trkpt lat="44.647895" lon="8.2273267"><ele>467.6666666666667</ele><time>2026-04-25T16:11:36.993Z</time></trkpt><trkpt lat="44.6478617" lon="8.2272183"><ele>469.33333333333337</ele><time>2026-04-25T16:11:37.996Z</time></trkpt><trkpt lat="44.64784" lon="8.2271167"><ele>471.0</ele><time>2026-04-25T16:11:38.996Z</time></trkpt><trkpt lat="44.6478417" lon="8.227005"><ele>472.66666666666663</ele><time>2026-04-25T16:11:39.995Z</time></trkpt><trkpt lat="44.6478767" lon="8.2269017"><ele>474.3333333333333</ele><time>2026-04-25T16:11:40.996Z</time></trkpt><trkpt lat="44.6479167" lon="8.226795"><ele>476.0</ele><time>2026-04-25T16:11:41.994Z</time></trkpt><trkpt lat="44.6479733" lon="8.226685"><ele>476.0</ele><time>2026-04-25T16:11:42.998Z</time></trkpt><trkpt lat="44.648045" lon="8.2265767"><ele>476.0</ele><time>2026-04-25T16:11:43.995Z</time></trkpt><trkpt lat="44.64812" lon="8.2265"><ele>476.0</ele><time>2026-04-25T16:11:44.997Z</time></trkpt><trkpt lat="44.648205" lon="8.2264283"><ele>476.0</ele><time>2026-04-25T16:11:45.997Z</time></trkpt><trkpt lat="44.6482817" lon="8.2263367"><ele>476.0</ele><time>2026-04-25T16:11:46.999Z</time></trkpt><trkpt lat="44.6483483" lon="8.2262517"><ele>477.16666666666663</ele><time>2026-04-25T16:11:47.994Z</time></trkpt><trkpt lat="44.6484033" lon="8.2261417"><ele>478.3333333333333</ele><time>2026-04-25T16:11:48.995Z</time></trkpt><trkpt lat="44.6484483" lon="8.226045"><ele>479.5</ele><time>2026-04-25T16:11:49.995Z</time></trkpt><trkpt lat="44.6484883" lon="8.22596"><ele>480.66666666666663</ele><time>2026-04-25T16:11:50.999Z</time></trkpt><trkpt lat="44.64852" lon="8.22588"><ele>481.8333333333333</ele><time>2026-04-25T16:11:51.993Z</time></trkpt><trkpt lat="44.6485333" lon="8.22575"><ele>483.0</ele><time>2026-04-25T16:11:53.993Z</time></trkpt><trkpt lat="44.6484983" lon="8.2256267"><ele>484.8333333333333</ele><time>2026-04-25T16:11:55.993Z</time></trkpt><trkpt lat="44.64845" lon="8.2255033"><ele>486.66666666666663</ele><time>2026-04-25T16:11:57.997Z</time></trkpt><trkpt lat="44.648445" lon="8.2254033"><ele>488.5</ele><time>2026-04-25T16:11:58.997Z</time></trkpt><trkpt lat="44.6484483" lon="8.2252983"><ele>490.3333333333333</ele><time>2026-04-25T16:11:59.999Z</time></trkpt><trkpt lat="44.6484583" lon="8.225185"><ele>492.16666666666663</ele><time>2026-04-25T16:12:00.998Z</time></trkpt><trkpt lat="44.648465" lon="8.22509"><ele>494.0</ele><time>2026-04-25T16:12:01.997Z</time></trkpt><trkpt lat="44.64846" lon="8.2249183"><ele>493.99999999999994</ele><time>2026-04-25T16:12:03.995Z</time></trkpt><trkpt lat="44.6483917" lon="8.2248633"><ele>494.0</ele><time>2026-04-25T16:12:05.995Z</time></trkpt><trkpt lat="44.6483217" lon="8.224875"><ele>494.0</ele><time>2026-04-25T16:12:07.998Z</time></trkpt><trkpt lat="44.648265" lon="8.22493"><ele>494.0</ele><time>2026-04-25T16:12:09.997Z</time></trkpt><trkpt lat="44.6482133" lon="8.2250783"><ele>493.99999999999994</ele><time>2026-04-25T16:12:11.998Z</time></trkpt><trkpt lat="44.648195" lon="8.2252133"><ele>494.0</ele><time>2026-04-25T16:12:12.996Z</time></trkpt><trkpt lat="44.64818" lon="8.2253483"><ele>493.99999999999994</ele><time>2026-04-25T16:12:13.994Z</time></trkpt><trkpt lat="44.64815" lon="8.2254767"><ele>494.0</ele><time>2026-04-25T16:12:14.995Z</time></trkpt><trkpt lat="44.64812" lon="8.2256017"><ele>494.0</ele><time>2026-04-25T16:12:15.995Z</time></trkpt><trkpt lat="44.6480883" lon="8.2257117"><ele>494.0</ele><time>2026-04-25T16:12:17.003Z</time></trkpt><trkpt lat="44.6480517" lon="8.2258183"><ele>493.99999999999994</ele><time>2026-04-25T16:12:17.993Z</time></trkpt><trkpt lat="44.6480117" lon="8.2259067"><ele>494.0</ele><time>2026-04-25T16:12:19Z</time></trkpt><trkpt lat="44.6479633" lon="8.2259717"><ele>491.79999999999995</ele><time>2026-04-25T16:12:19.995Z</time></trkpt><trkpt lat="44.6478967" lon="8.2259633"><ele>489.59999999999997</ele><time>2026-04-25T16:12:21.002Z</time></trkpt><trkpt lat="44.6477767" lon="8.22596"><ele>487.4</ele><time>2026-04-25T16:12:23Z</time></trkpt><trkpt lat="44.64767" lon="8.2258833"><ele>485.2</ele><time>2026-04-25T16:12:24.996Z</time></trkpt><trkpt lat="44.6476167" lon="8.2258033"><ele>483.0</ele><time>2026-04-25T16:12:26.001Z</time></trkpt><trkpt lat="44.64758" lon="8.2257"><ele>485.2</ele><time>2026-04-25T16:12:26.994Z</time></trkpt><trkpt lat="44.6475733" lon="8.2255717"><ele>487.4</ele><time>2026-04-25T16:12:27.996Z</time></trkpt><trkpt lat="44.6476083" lon="8.2254167"><ele>489.59999999999997</ele><time>2026-04-25T16:12:28.996Z</time></trkpt><trkpt lat="44.6476767" lon="8.22528"><ele>491.79999999999995</ele><time>2026-04-25T16:12:29.997Z</time></trkpt><trkpt lat="44.6477333" lon="8.2251417"><ele>494.0</ele><time>2026-04-25T16:12:31.002Z</time></trkpt><trkpt lat="44.647795" lon="8.2249983"><ele>494.0</ele><time>2026-04-25T16:12:31.997Z</time></trkpt><trkpt lat="44.6478733" lon="8.2248533"><ele>494.0</ele><time>2026-04-25T16:12:32.999Z</time></trkpt><trkpt lat="44.6479517" lon="8.22471"><ele>494.0</ele><time>2026-04-25T16:12:33.994Z</time></trkpt><trkpt lat="44.6480367" lon="8.2245733"><ele>494.0</ele><time>2026-04-25T16:12:34.996Z</time></trkpt><trkpt lat="44.64811" lon="8.2244683"><ele>497.3333333333333</ele><time>2026-04-25T16:12:35.996Z</time></trkpt><trkpt lat="44.6481733" lon="8.2243733"><ele>500.66666666666663</ele><time>2026-04-25T16:12:36.995Z</time></trkpt><trkpt lat="44.6482333" lon="8.22429"><ele>504.0</ele><time>2026-04-25T16:12:37.995Z</time></trkpt><trkpt lat="44.6482833" lon="8.2242083"><ele>507.33333333333337</ele><time>2026-04-25T16:12:38.993Z</time></trkpt><trkpt lat="44.648335" lon="8.22412"><ele>510.6666666666667</ele><time>2026-04-25T16:12:39.994Z</time></trkpt><trkpt lat="44.648375" lon="8.22402"><ele>514.0</ele><time>2026-04-25T16:12:40.995Z</time></trkpt><trkpt lat="44.6484183" lon="8.2239083"><ele>518.6</ele><time>2026-04-25T16:12:42.001Z</time></trkpt><trkpt lat="44.6484433" lon="8.2237817"><ele>523.2</ele><time>2026-04-25T16:12:42.998Z</time></trkpt><trkpt lat="44.6484717" lon="8.2236367"><ele>527.8000000000001</ele><time>2026-04-25T16:12:44.002Z</time></trkpt><trkpt lat="44.6484983" lon="8.2234967"><ele>532.4</ele><time>2026-04-25T16:12:44.998Z</time></trkpt><trkpt lat="44.648525" lon="8.223355"><ele>537.0</ele><time>2026-04-25T16:12:45.994Z</time></trkpt><trkpt lat="44.648555" lon="8.2232033"><ele>534.6</ele><time>2026-04-25T16:12:46.994Z</time></trkpt><trkpt lat="44.6485883" lon="8.2230617"><ele>532.2</ele><time>2026-04-25T16:12:47.996Z</time></trkpt><trkpt lat="44.6486383" lon="8.2229317"><ele>529.8</ele><time>2026-04-25T16:12:48.993Z</time></trkpt><trkpt lat="44.64869" lon="8.2228017"><ele>527.4</ele><time>2026-04-25T16:12:49.995Z</time></trkpt><trkpt lat="44.64875" lon="8.2226733"><ele>525.0</ele><time>2026-04-25T16:12:50.996Z</time></trkpt><trkpt lat="44.648825" lon="8.2225567"><ele>525.0</ele><time>2026-04-25T16:12:51.998Z</time></trkpt><trkpt lat="44.6488933" lon="8.2224483"><ele>525.0</ele><time>2026-04-25T16:12:52.995Z</time></trkpt><trkpt lat="44.6489533" lon="8.2223533"><ele>525.0</ele><time>2026-04-25T16:12:53.993Z</time></trkpt><trkpt lat="44.6490117" lon="8.2222733"><ele>525.0</ele><time>2026-04-25T16:12:54.995Z</time></trkpt><trkpt lat="44.6490683" lon="8.22221"><ele>525.0</ele><time>2026-04-25T16:12:55.997Z</time></trkpt><trkpt lat="44.6491217" lon="8.22216"><ele>525.0</ele><time>2026-04-25T16:12:56.995Z</time></trkpt><trkpt lat="44.64921" lon="8.2220933"><ele>528.4</ele><time>2026-04-25T16:12:58.998Z</time></trkpt><trkpt lat="44.64929" lon="8.22219"><ele>531.8</ele><time>2026-04-25T16:12:59.996Z</time></trkpt><trkpt lat="44.6493533" lon="8.2222433"><ele>535.2</ele><time>2026-04-25T16:13:00.996Z</time></trkpt><trkpt lat="44.64948" lon="8.2222317"><ele>538.6</ele><time>2026-04-25T16:13:02.993Z</time></trkpt><trkpt lat="44.6495533" lon="8.2222467"><ele>542.0</ele><time>2026-04-25T16:13:03.996Z</time></trkpt><trkpt lat="44.6496133" lon="8.222165"><ele>542.0</ele><time>2026-04-25T16:13:04.997Z</time></trkpt><trkpt lat="44.6496717" lon="8.2220817"><ele>542.0</ele><time>2026-04-25T16:13:06.002Z</time></trkpt><trkpt lat="44.6497317" lon="8.2219967"><ele>542.0</ele><time>2026-04-25T16:13:06.996Z</time></trkpt><trkpt lat="44.649795" lon="8.2219067"><ele>542.0</ele><time>2026-04-25T16:13:08Z</time></trkpt><trkpt lat="44.6498617" lon="8.2218117"><ele>542.0</ele><time>2026-04-25T16:13:08.995Z</time></trkpt><trkpt lat="44.6499367" lon="8.221715"><ele>542.0</ele><time>2026-04-25T16:13:09.997Z</time></trkpt><trkpt lat="44.650015" lon="8.2216117"><ele>542.0</ele><time>2026-04-25T16:13:10.997Z</time></trkpt><trkpt lat="44.6500933" lon="8.2215117"><ele>542.0</ele><time>2026-04-25T16:13:11.999Z</time></trkpt><trkpt lat="44.650175" lon="8.2214133"><ele>542.0</ele><time>2026-04-25T16:13:12.993Z</time></trkpt><trkpt lat="44.6502517" lon="8.22132"><ele>542.0</ele><time>2026-04-25T16:13:13.997Z</time></trkpt><trkpt lat="44.6503283" lon="8.2212333"><ele>541.2</ele><time>2026-04-25T16:13:14.999Z</time></trkpt><trkpt lat="44.6504017" lon="8.22114"><ele>540.4000000000001</ele><time>2026-04-25T16:13:15.996Z</time></trkpt><trkpt lat="44.65048" lon="8.22105"><ele>539.5999999999999</ele><time>2026-04-25T16:13:16.995Z</time></trkpt><trkpt lat="44.6505533" lon="8.220965"><ele>538.8</ele><time>2026-04-25T16:13:18.001Z</time></trkpt><trkpt lat="44.6506167" lon="8.2208717"><ele>538.0</ele><time>2026-04-25T16:13:18.994Z</time></trkpt><trkpt lat="44.6506617" lon="8.2207683"><ele>538.0</ele><time>2026-04-25T16:13:19.999Z</time></trkpt><trkpt lat="44.6506933" lon="8.2206617"><ele>538.0</ele><time>2026-04-25T16:13:20.996Z</time></trkpt><trkpt lat="44.65072" lon="8.2205483"><ele>538.0</ele><time>2026-04-25T16:13:21.994Z</time></trkpt><trkpt lat="44.65074" lon="8.2204267"><ele>538.0</ele><time>2026-04-25T16:13:22.997Z</time></trkpt><trkpt lat="44.6507567" lon="8.22031"><ele>538.0</ele><time>2026-04-25T16:13:23.996Z</time></trkpt><trkpt lat="44.6507733" lon="8.2202017"><ele>538.0</ele><time>2026-04-25T16:13:25.002Z</time></trkpt><trkpt lat="44.6508467" lon="8.22008"><ele>541.0</ele><time>2026-04-25T16:13:26.995Z</time></trkpt><trkpt lat="44.6508883" lon="8.220005"><ele>544.0</ele><time>2026-04-25T16:13:27.996Z</time></trkpt><trkpt lat="44.65093" lon="8.219935"><ele>547.0</ele><time>2026-04-25T16:13:28.997Z</time></trkpt><trkpt lat="44.650985" lon="8.21987"><ele>550.0</ele><time>2026-04-25T16:13:29.993Z</time></trkpt><trkpt lat="44.6510517" lon="8.2198583"><ele>553.0</ele><time>2026-04-25T16:13:30.995Z</time></trkpt><trkpt lat="44.65112" lon="8.219805"><ele>556.0</ele><time>2026-04-25T16:13:32Z</time></trkpt><trkpt lat="44.6512017" lon="8.21976"><ele>559.0</ele><time>2026-04-25T16:13:32.999Z</time></trkpt><trkpt lat="44.6512667" lon="8.2197183"><ele>560.6666666666667</ele><time>2026-04-25T16:13:33.995Z</time></trkpt><trkpt lat="44.6513233" lon="8.2196683"><ele>562.3333333333334</ele><time>2026-04-25T16:13:35Z</time></trkpt><trkpt lat="44.6513817" lon="8.219625"><ele>564.0</ele><time>2026-04-25T16:13:35.999Z</time></trkpt><trkpt lat="44.65147" lon="8.2195117"><ele>565.6666666666666</ele><time>2026-04-25T16:13:37.995Z</time></trkpt><trkpt lat="44.65151" lon="8.2194317"><ele>567.3333333333333</ele><time>2026-04-25T16:13:38.996Z</time></trkpt><trkpt lat="44.651555" lon="8.219365"><ele>569.0</ele><time>2026-04-25T16:13:39.995Z</time></trkpt><trkpt lat="44.6516083" lon="8.2193017"><ele>569.0</ele><time>2026-04-25T16:13:40.997Z</time></trkpt><trkpt lat="44.6516617" lon="8.2192483"><ele>569.0</ele><time>2026-04-25T16:13:42Z</time></trkpt><trkpt lat="44.651725" lon="8.2191917"><ele>569.0</ele><time>2026-04-25T16:13:42.997Z</time></trkpt><trkpt lat="44.6518183" lon="8.2191867"><ele>569.0</ele><time>2026-04-25T16:13:43.997Z</time></trkpt><trkpt lat="44.65193" lon="8.2191917"><ele>569.0</ele><time>2026-04-25T16:13:44.996Z</time></trkpt><trkpt lat="44.6520417" lon="8.21919"><ele>570.3333333333333</ele><time>2026-04-25T16:13:45.995Z</time></trkpt><trkpt lat="44.6521383" lon="8.2191917"><ele>571.6666666666666</ele><time>2026-04-25T16:13:46.998Z</time></trkpt><trkpt lat="44.6522283" lon="8.2192017"><ele>573.0</ele><time>2026-04-25T16:13:47.999Z</time></trkpt><trkpt lat="44.6523167" lon="8.2192217"><ele>574.3333333333334</ele><time>2026-04-25T16:13:48.997Z</time></trkpt><trkpt lat="44.652395" lon="8.21927"><ele>575.6666666666667</ele><time>2026-04-25T16:13:49.993Z</time></trkpt><trkpt lat="44.6524617" lon="8.2193317"><ele>577.0</ele><time>2026-04-25T16:13:50.995Z</time></trkpt><trkpt lat="44.6525283" lon="8.2193883"><ele>577.0</ele><time>2026-04-25T16:13:51.997Z</time></trkpt><trkpt lat="44.6525783" lon="8.2194667"><ele>577.0</ele><time>2026-04-25T16:13:52.998Z</time></trkpt><trkpt lat="44.6526283" lon="8.2195667"><ele>577.0</ele><time>2026-04-25T16:13:53.994Z</time></trkpt><trkpt lat="44.6526667" lon="8.21968"><ele>577.0</ele><time>2026-04-25T16:13:54.995Z</time></trkpt><trkpt lat="44.6526967" lon="8.21981"><ele>577.0</ele><time>2026-04-25T16:13:55.995Z</time></trkpt><trkpt lat="44.652715" lon="8.21995"><ele>577.8333333333334</ele><time>2026-04-25T16:13:56.996Z</time></trkpt><trkpt lat="44.6527317" lon="8.2200833"><ele>578.6666666666667</ele><time>2026-04-25T16:13:57.999Z</time></trkpt><trkpt lat="44.65275" lon="8.2202033"><ele>579.5</ele><time>2026-04-25T16:13:58.999Z</time></trkpt><trkpt lat="44.6527767" lon="8.220305"><ele>580.3333333333334</ele><time>2026-04-25T16:13:59.995Z</time></trkpt><trkpt lat="44.652795" lon="8.2204217"><ele>581.1666666666666</ele><time>2026-04-25T16:14:00.999Z</time></trkpt><trkpt lat="44.65284" lon="8.2205067"><ele>582.0</ele><time>2026-04-25T16:14:01.993Z</time></trkpt><trkpt lat="44.6528883" lon="8.2205667"><ele>582.0</ele><time>2026-04-25T16:14:02.994Z</time></trkpt><trkpt lat="44.6529567" lon="8.2204983"><ele>582.0</ele><time>2026-04-25T16:14:03.998Z</time></trkpt><trkpt lat="44.6530233" lon="8.2204383"><ele>582.0</ele><time>2026-04-25T16:14:05Z</time></trkpt><trkpt lat="44.653105" lon="8.2203583"><ele>582.0</ele><time>2026-04-25T16:14:05.995Z</time></trkpt><trkpt lat="44.6531783" lon="8.220275"><ele>582.0</ele><time>2026-04-25T16:14:06.998Z</time></trkpt><trkpt lat="44.65325" lon="8.220205"><ele>582.0</ele><time>2026-04-25T16:14:08.001Z</time></trkpt><trkpt lat="44.6533533" lon="8.220165"><ele>582.0</ele><time>2026-04-25T16:14:08.995Z</time></trkpt><trkpt lat="44.653455" lon="8.2201233"><ele>582.0</ele><time>2026-04-25T16:14:09.995Z</time></trkpt><trkpt lat="44.6535617" lon="8.2200817"><ele>582.0</ele><time>2026-04-25T16:14:10.994Z</time></trkpt><trkpt lat="44.6536717" lon="8.2200433"><ele>582.0</ele><time>2026-04-25T16:14:11.993Z</time></trkpt><trkpt lat="44.65378" lon="8.2200133"><ele>582.0</ele><time>2026-04-25T16:14:12.994Z</time></trkpt><trkpt lat="44.6538917" lon="8.2199767"><ele>580.0</ele><time>2026-04-25T16:14:13.996Z</time></trkpt><trkpt lat="44.6540067" lon="8.2199367"><ele>578.0</ele><time>2026-04-25T16:14:14.995Z</time></trkpt><trkpt lat="44.6541217" lon="8.2198967"><ele>576.0</ele><time>2026-04-25T16:14:15.996Z</time></trkpt><trkpt lat="44.654235" lon="8.219865"><ele>574.0</ele><time>2026-04-25T16:14:16.994Z</time></trkpt><trkpt lat="44.654345" lon="8.2198383"><ele>576.2</ele><time>2026-04-25T16:14:17.996Z</time></trkpt><trkpt lat="44.6544517" lon="8.2198067"><ele>578.4</ele><time>2026-04-25T16:14:18.997Z</time></trkpt><trkpt lat="44.654555" lon="8.21976"><ele>580.6</ele><time>2026-04-25T16:14:19.999Z</time></trkpt><trkpt lat="44.6546483" lon="8.2197"><ele>582.8</ele><time>2026-04-25T16:14:20.997Z</time></trkpt><trkpt lat="44.654735" lon="8.21963"><ele>585.0</ele><time>2026-04-25T16:14:22.002Z</time></trkpt><trkpt lat="44.6548117" lon="8.2195517"><ele>585.0</ele><time>2026-04-25T16:14:22.995Z</time></trkpt><trkpt lat="44.6548833" lon="8.2194617"><ele>585.0</ele><time>2026-04-25T16:14:23.998Z</time></trkpt><trkpt lat="44.6549417" lon="8.2193683"><ele>585.0</ele><time>2026-04-25T16:14:25.001Z</time></trkpt><trkpt lat="44.6549917" lon="8.2192767"><ele>585.0</ele><time>2026-04-25T16:14:25.993Z</time></trkpt><trkpt lat="44.65504" lon="8.2191883"><ele>585.0</ele><time>2026-04-25T16:14:26.999Z</time></trkpt><trkpt lat="44.6551483" lon="8.219135"><ele>585.0</ele><time>2026-04-25T16:14:29Z</time></trkpt><trkpt lat="44.6552833" lon="8.2191983"><ele>585.0</ele><time>2026-04-25T16:14:30.993Z</time></trkpt><trkpt lat="44.6553717" lon="8.2193117"><ele>585.0</ele><time>2026-04-25T16:14:31.994Z</time></trkpt><trkpt lat="44.6554383" lon="8.2193767"><ele>585.0</ele><time>2026-04-25T16:14:32.994Z</time></trkpt><trkpt lat="44.6555017" lon="8.219445"><ele>585.0</ele><time>2026-04-25T16:14:33.994Z</time></trkpt><trkpt lat="44.6555567" lon="8.2195183"><ele>585.2</ele><time>2026-04-25T16:14:34.994Z</time></trkpt><trkpt lat="44.6556467" lon="8.2195983"><ele>585.4</ele><time>2026-04-25T16:14:36.995Z</time></trkpt><trkpt lat="44.6556083" lon="8.2194933"><ele>585.6</ele><time>2026-04-25T16:14:40.996Z</time></trkpt><trkpt lat="44.6555117" lon="8.2194033"><ele>585.8</ele><time>2026-04-25T16:14:42.997Z</time></trkpt><trkpt lat="44.6554383" lon="8.2193333"><ele>586.0</ele><time>2026-04-25T16:14:43.995Z</time></trkpt><trkpt lat="44.6553617" lon="8.2192583"><ele>585.8333333333334</ele><time>2026-04-25T16:14:44.994Z</time></trkpt><trkpt lat="44.6552833" lon="8.2191833"><ele>585.6666666666667</ele><time>2026-04-25T16:14:46Z</time></trkpt><trkpt lat="44.6551967" lon="8.21912"><ele>585.5</ele><time>2026-04-25T16:14:46.996Z</time></trkpt><trkpt lat="44.6551083" lon="8.2190817"><ele>585.3333333333334</ele><time>2026-04-25T16:14:47.998Z</time></trkpt><trkpt lat="44.6550267" lon="8.21905"><ele>585.1666666666666</ele><time>2026-04-25T16:14:48.997Z</time></trkpt><trkpt lat="44.654955" lon="8.219015"><ele>585.0</ele><time>2026-04-25T16:14:49.997Z</time></trkpt><trkpt lat="44.654895" lon="8.21897"><ele>586.4</ele><time>2026-04-25T16:14:50.996Z</time></trkpt><trkpt lat="44.654875" lon="8.2188717"><ele>587.8</ele><time>2026-04-25T16:14:51.995Z</time></trkpt><trkpt lat="44.6548617" lon="8.218775"><ele>589.2</ele><time>2026-04-25T16:14:52.996Z</time></trkpt><trkpt lat="44.6548867" lon="8.21863"><ele>590.6</ele><time>2026-04-25T16:14:53.999Z</time></trkpt><trkpt lat="44.65492" lon="8.2184533"><ele>592.0</ele><time>2026-04-25T16:14:54.991Z</time></trkpt><trkpt lat="44.6549567" lon="8.2182567"><ele>591.0</ele><time>2026-04-25T16:14:55.992Z</time></trkpt><trkpt lat="44.654995" lon="8.2180667"><ele>590.0</ele><time>2026-04-25T16:14:56.999Z</time></trkpt><trkpt lat="44.6550333" lon="8.2178917"><ele>589.0</ele><time>2026-04-25T16:14:57.996Z</time></trkpt><trkpt lat="44.655065" lon="8.2177383"><ele>588.0</ele><time>2026-04-25T16:14:58.994Z</time></trkpt><trkpt lat="44.6550883" lon="8.2176017"><ele>588.0</ele><time>2026-04-25T16:14:59.994Z</time></trkpt><trkpt lat="44.65511" lon="8.21748"><ele>588.0</ele><time>2026-04-25T16:15:00.996Z</time></trkpt><trkpt lat="44.6551333" lon="8.217365"><ele>588.0</ele><time>2026-04-25T16:15:01.997Z</time></trkpt><trkpt lat="44.65516" lon="8.2172583"><ele>588.0</ele><time>2026-04-25T16:15:02.997Z</time></trkpt><trkpt lat="44.6551867" lon="8.2171617"><ele>588.0</ele><time>2026-04-25T16:15:03.995Z</time></trkpt><trkpt lat="44.6552817" lon="8.21706"><ele>588.0</ele><time>2026-04-25T16:15:05.997Z</time></trkpt><trkpt lat="44.65536" lon="8.21709"><ele>587.6666666666666</ele><time>2026-04-25T16:15:06.996Z</time></trkpt><trkpt lat="44.655435" lon="8.2171183"><ele>587.3333333333334</ele><time>2026-04-25T16:15:07.998Z</time></trkpt><trkpt lat="44.6555167" lon="8.217155"><ele>587.0</ele><time>2026-04-25T16:15:08.997Z</time></trkpt><trkpt lat="44.6555967" lon="8.2171867"><ele>586.6666666666667</ele><time>2026-04-25T16:15:09.998Z</time></trkpt><trkpt lat="44.6556767" lon="8.2172033"><ele>586.3333333333334</ele><time>2026-04-25T16:15:10.994Z</time></trkpt><trkpt lat="44.6557517" lon="8.2172067"><ele>586.0</ele><time>2026-04-25T16:15:12.001Z</time></trkpt><trkpt lat="44.65583" lon="8.2171317"><ele>586.0</ele><time>2026-04-25T16:15:13.995Z</time></trkpt><trkpt lat="44.65581" lon="8.21698"><ele>586.0</ele><time>2026-04-25T16:15:15.994Z</time></trkpt><trkpt lat="44.6557517" lon="8.2168883"><ele>586.0</ele><time>2026-04-25T16:15:16.995Z</time></trkpt><trkpt lat="44.655685" lon="8.216795"><ele>586.0</ele><time>2026-04-25T16:15:17.996Z</time></trkpt><trkpt lat="44.6556083" lon="8.2166933"><ele>586.0</ele><time>2026-04-25T16:15:18.996Z</time></trkpt><trkpt lat="44.655525" lon="8.216585"><ele>583.8</ele><time>2026-04-25T16:15:19.993Z</time></trkpt><trkpt lat="44.6554383" lon="8.2164767"><ele>581.6</ele><time>2026-04-25T16:15:20.997Z</time></trkpt><trkpt lat="44.6553533" lon="8.2163733"><ele>579.4</ele><time>2026-04-25T16:15:21.999Z</time></trkpt><trkpt lat="44.6552783" lon="8.21627"><ele>577.2</ele><time>2026-04-25T16:15:22.994Z</time></trkpt><trkpt lat="44.6552183" lon="8.216185"><ele>575.0</ele><time>2026-04-25T16:15:23.994Z</time></trkpt><trkpt lat="44.6551717" lon="8.2161067"><ele>575.0</ele><time>2026-04-25T16:15:24.998Z</time></trkpt><trkpt lat="44.6551317" lon="8.2159683"><ele>575.0</ele><time>2026-04-25T16:15:26.999Z</time></trkpt><trkpt lat="44.6551667" lon="8.215825"><ele>575.0</ele><time>2026-04-25T16:15:28.995Z</time></trkpt><trkpt lat="44.6552183" lon="8.2157717"><ele>575.0</ele><time>2026-04-25T16:15:29.999Z</time></trkpt><trkpt lat="44.655275" lon="8.2157267"><ele>575.0</ele><time>2026-04-25T16:15:31.001Z</time></trkpt><trkpt lat="44.6554" lon="8.2157067"><ele>575.0</ele><time>2026-04-25T16:15:31.997Z</time></trkpt><trkpt lat="44.6556933" lon="8.2157967"><ele>575.0</ele><time>2026-04-25T16:15:32.998Z</time></trkpt><trkpt lat="44.6558817" lon="8.2157917"><ele>575.0</ele><time>2026-04-25T16:15:33.995Z</time></trkpt><trkpt lat="44.65602" lon="8.215755"><ele>575.0</ele><time>2026-04-25T16:15:34.995Z</time></trkpt><trkpt lat="44.6561367" lon="8.215675"><ele>575.0</ele><time>2026-04-25T16:15:35.995Z</time></trkpt><trkpt lat="44.65625" lon="8.2155717"><ele>575.0</ele><time>2026-04-25T16:15:36.995Z</time></trkpt><trkpt lat="44.656345" lon="8.2154417"><ele>572.2</ele><time>2026-04-25T16:15:37.995Z</time></trkpt><trkpt lat="44.6564367" lon="8.2153067"><ele>569.4</ele><time>2026-04-25T16:15:38.997Z</time></trkpt><trkpt lat="44.656515" lon="8.2151867"><ele>566.6</ele><time>2026-04-25T16:15:39.995Z</time></trkpt><trkpt lat="44.656585" lon="8.2150983"><ele>563.8</ele><time>2026-04-25T16:15:40.997Z</time></trkpt><trkpt lat="44.6566567" lon="8.2150283"><ele>561.0</ele><time>2026-04-25T16:15:41.997Z</time></trkpt><trkpt lat="44.65678" lon="8.21506"><ele>561.0</ele><time>2026-04-25T16:15:43.994Z</time></trkpt><trkpt lat="44.6568433" lon="8.21511"><ele>561.0</ele><time>2026-04-25T16:15:44.999Z</time></trkpt><trkpt lat="44.6569183" lon="8.2151667"><ele>561.0</ele><time>2026-04-25T16:15:45.997Z</time></trkpt><trkpt lat="44.6570067" lon="8.2152133"><ele>561.0</ele><time>2026-04-25T16:15:46.997Z</time></trkpt><trkpt lat="44.6571267" lon="8.2151967"><ele>561.0</ele><time>2026-04-25T16:15:47.995Z</time></trkpt><trkpt lat="44.6572583" lon="8.2151533"><ele>558.75</ele><time>2026-04-25T16:15:48.993Z</time></trkpt><trkpt lat="44.65739" lon="8.2151017"><ele>556.5</ele><time>2026-04-25T16:15:49.996Z</time></trkpt><trkpt lat="44.65752" lon="8.21504"><ele>554.25</ele><time>2026-04-25T16:15:50.996Z</time></trkpt><trkpt lat="44.65765" lon="8.2149767"><ele>552.0</ele><time>2026-04-25T16:15:51.997Z</time></trkpt><trkpt lat="44.6577817" lon="8.2149267"><ele>551.2</ele><time>2026-04-25T16:15:52.995Z</time></trkpt><trkpt lat="44.6579083" lon="8.21489"><ele>550.4000000000001</ele><time>2026-04-25T16:15:54.003Z</time></trkpt><trkpt lat="44.6580217" lon="8.21486"><ele>549.5999999999999</ele><time>2026-04-25T16:15:54.995Z</time></trkpt><trkpt lat="44.6581167" lon="8.2148367"><ele>548.8</ele><time>2026-04-25T16:15:55.997Z</time></trkpt><trkpt lat="44.6581983" lon="8.2148033"><ele>548.0</ele><time>2026-04-25T16:15:56.997Z</time></trkpt><trkpt lat="44.6582717" lon="8.2147533"><ele>546.5</ele><time>2026-04-25T16:15:57.994Z</time></trkpt><trkpt lat="44.6583133" lon="8.2146617"><ele>545.0</ele><time>2026-04-25T16:15:58.995Z</time></trkpt><trkpt lat="44.65835" lon="8.2145617"><ele>543.5</ele><time>2026-04-25T16:15:59.997Z</time></trkpt><trkpt lat="44.658375" lon="8.2144583"><ele>542.0</ele><time>2026-04-25T16:16:00.997Z</time></trkpt><trkpt lat="44.6583983" lon="8.2143683"><ele>540.5</ele><time>2026-04-25T16:16:01.994Z</time></trkpt><trkpt lat="44.6584067" lon="8.2142117"><ele>539.0</ele><time>2026-04-25T16:16:03.997Z</time></trkpt><trkpt lat="44.6583167" lon="8.2141667"><ele>539.0</ele><time>2026-04-25T16:16:05.994Z</time></trkpt><trkpt lat="44.6582533" lon="8.2141767"><ele>539.0</ele><time>2026-04-25T16:16:07.004Z</time></trkpt><trkpt lat="44.65818" lon="8.2141883"><ele>539.0</ele><time>2026-04-25T16:16:07.993Z</time></trkpt><trkpt lat="44.6580867" lon="8.2142183"><ele>539.0</ele><time>2026-04-25T16:16:09Z</time></trkpt><trkpt lat="44.6579633" lon="8.2142667"><ele>539.0</ele><time>2026-04-25T16:16:09.994Z</time></trkpt><trkpt lat="44.6578383" lon="8.21429"><ele>538.0</ele><time>2026-04-25T16:16:10.997Z</time></trkpt><trkpt lat="44.6577183" lon="8.2142833"><ele>537.0</ele><time>2026-04-25T16:16:11.996Z</time></trkpt><trkpt lat="44.6576" lon="8.21425"><ele>536.0</ele><time>2026-04-25T16:16:12.997Z</time></trkpt><trkpt lat="44.65749" lon="8.2141967"><ele>535.0</ele><time>2026-04-25T16:16:13.998Z</time></trkpt><trkpt lat="44.6573917" lon="8.21412"><ele>535.0</ele><time>2026-04-25T16:16:14.996Z</time></trkpt><trkpt lat="44.6573017" lon="8.2140167"><ele>535.0</ele><time>2026-04-25T16:16:15.992Z</time></trkpt><trkpt lat="44.6572183" lon="8.2138883"><ele>535.0</ele><time>2026-04-25T16:16:17Z</time></trkpt><trkpt lat="44.6571383" lon="8.2137517"><ele>535.0</ele><time>2026-04-25T16:16:17.996Z</time></trkpt><trkpt lat="44.65707" lon="8.2136117"><ele>533.0</ele><time>2026-04-25T16:16:18.994Z</time></trkpt><trkpt lat="44.65701" lon="8.2134917"><ele>531.0</ele><time>2026-04-25T16:16:19.993Z</time></trkpt><trkpt lat="44.6569517" lon="8.2133917"><ele>529.0</ele><time>2026-04-25T16:16:20.995Z</time></trkpt><trkpt lat="44.6568917" lon="8.21331"><ele>527.0</ele><time>2026-04-25T16:16:21.994Z</time></trkpt><trkpt lat="44.6568233" lon="8.2132517"><ele>525.0</ele><time>2026-04-25T16:16:22.994Z</time></trkpt><trkpt lat="44.6567467" lon="8.2132667"><ele>523.0</ele><time>2026-04-25T16:16:23.999Z</time></trkpt><trkpt lat="44.6566583" lon="8.2133283"><ele>523.0</ele><time>2026-04-25T16:16:24.996Z</time></trkpt><trkpt lat="44.6565783" lon="8.21339"><ele>523.0</ele><time>2026-04-25T16:16:26.001Z</time></trkpt><trkpt lat="44.6565033" lon="8.2134517"><ele>523.0</ele><time>2026-04-25T16:16:26.997Z</time></trkpt><trkpt lat="44.6564" lon="8.2134717"><ele>523.0</ele><time>2026-04-25T16:16:28.993Z</time></trkpt><trkpt lat="44.656375" lon="8.2133567"><ele>523.0</ele><time>2026-04-25T16:16:31.002Z</time></trkpt><trkpt lat="44.65644" lon="8.2131967"><ele>518.75</ele><time>2026-04-25T16:16:32.993Z</time></trkpt><trkpt lat="44.65655" lon="8.2130917"><ele>514.5</ele><time>2026-04-25T16:16:33.996Z</time></trkpt><trkpt lat="44.6566333" lon="8.2129933"><ele>510.25</ele><time>2026-04-25T16:16:34.998Z</time></trkpt><trkpt lat="44.656725" lon="8.2129"><ele>506.0</ele><time>2026-04-25T16:16:35.997Z</time></trkpt><trkpt lat="44.6568217" lon="8.212825"><ele>506.0</ele><time>2026-04-25T16:16:37Z</time></trkpt><trkpt lat="44.656925" lon="8.2127533"><ele>506.0</ele><time>2026-04-25T16:16:37.997Z</time></trkpt><trkpt lat="44.6570317" lon="8.212695"><ele>506.0</ele><time>2026-04-25T16:16:38.997Z</time></trkpt><trkpt lat="44.6571417" lon="8.2126567"><ele>506.0</ele><time>2026-04-25T16:16:39.998Z</time></trkpt><trkpt lat="44.657245" lon="8.2126383"><ele>506.0</ele><time>2026-04-25T16:16:40.994Z</time></trkpt><trkpt lat="44.6573333" lon="8.2126733"><ele>506.4</ele><time>2026-04-25T16:16:41.995Z</time></trkpt><trkpt lat="44.6574233" lon="8.2127217"><ele>506.8</ele><time>2026-04-25T16:16:42.997Z</time></trkpt><trkpt lat="44.6575117" lon="8.2127567"><ele>507.19999999999993</ele><time>2026-04-25T16:16:43.998Z</time></trkpt><trkpt lat="44.6576033" lon="8.212745"><ele>507.59999999999997</ele><time>2026-04-25T16:16:44.997Z</time></trkpt><trkpt lat="44.657695" lon="8.212685"><ele>508.0</ele><time>2026-04-25T16:16:45.998Z</time></trkpt><trkpt lat="44.6577883" lon="8.2125983"><ele>508.25</ele><time>2026-04-25T16:16:46.998Z</time></trkpt><trkpt lat="44.6578817" lon="8.2125"><ele>508.5</ele><time>2026-04-25T16:16:47.996Z</time></trkpt><trkpt lat="44.65798" lon="8.2123917"><ele>508.75</ele><time>2026-04-25T16:16:48.994Z</time></trkpt><trkpt lat="44.6580817" lon="8.212295"><ele>509.0</ele><time>2026-04-25T16:16:49.997Z</time></trkpt><trkpt lat="44.6581833" lon="8.212215"><ele>508.0</ele><time>2026-04-25T16:16:50.998Z</time></trkpt><trkpt lat="44.6582767" lon="8.212145"><ele>507.0</ele><time>2026-04-25T16:16:51.997Z</time></trkpt><trkpt lat="44.65837" lon="8.2120733"><ele>506.0</ele><time>2026-04-25T16:16:52.998Z</time></trkpt><trkpt lat="44.6584667" lon="8.211985"><ele>505.0</ele><time>2026-04-25T16:16:53.996Z</time></trkpt><trkpt lat="44.6585583" lon="8.2118883"><ele>504.0</ele><time>2026-04-25T16:16:54.995Z</time></trkpt><trkpt lat="44.65864" lon="8.21178"><ele>504.0</ele><time>2026-04-25T16:16:55.996Z</time></trkpt><trkpt lat="44.6587317" lon="8.2116433"><ele>504.0</ele><time>2026-04-25T16:16:56.996Z</time></trkpt><trkpt lat="44.6588117" lon="8.211505"><ele>504.0</ele><time>2026-04-25T16:16:57.996Z</time></trkpt><trkpt lat="44.6588867" lon="8.211375"><ele>504.0</ele><time>2026-04-25T16:16:58.996Z</time></trkpt><trkpt lat="44.6589617" lon="8.2112517"><ele>498.0</ele><time>2026-04-25T16:16:59.994Z</time></trkpt><trkpt lat="44.6590283" lon="8.21114"><ele>492.0</ele><time>2026-04-25T16:17:00.999Z</time></trkpt><trkpt lat="44.6591133" lon="8.2110567"><ele>486.0</ele><time>2026-04-25T16:17:01.992Z</time></trkpt><trkpt lat="44.6592183" lon="8.2109667"><ele>480.0</ele><time>2026-04-25T16:17:02.999Z</time></trkpt><trkpt lat="44.659345" lon="8.21088"><ele>482.0</ele><time>2026-04-25T16:17:03.998Z</time></trkpt><trkpt lat="44.659475" lon="8.210785"><ele>484.0</ele><time>2026-04-25T16:17:05Z</time></trkpt><trkpt lat="44.6595983" lon="8.2106833"><ele>486.0</ele><time>2026-04-25T16:17:05.994Z</time></trkpt><trkpt lat="44.6597217" lon="8.21058"><ele>488.0</ele><time>2026-04-25T16:17:06.995Z</time></trkpt><trkpt lat="44.6598433" lon="8.2104783"><ele>482.25</ele><time>2026-04-25T16:17:07.996Z</time></trkpt><trkpt lat="44.6599667" lon="8.210395"><ele>476.5</ele><time>2026-04-25T16:17:08.995Z</time></trkpt><trkpt lat="44.6600917" lon="8.2103317"><ele>470.75</ele><time>2026-04-25T16:17:09.997Z</time></trkpt><trkpt lat="44.66022" lon="8.210275"><ele>465.0</ele><time>2026-04-25T16:17:10.996Z</time></trkpt><trkpt lat="44.6603417" lon="8.2102133"><ele>465.0</ele><time>2026-04-25T16:17:11.996Z</time></trkpt><trkpt lat="44.66045" lon="8.2101333"><ele>465.0</ele><time>2026-04-25T16:17:12.993Z</time></trkpt><trkpt lat="44.6605517" lon="8.2100417"><ele>465.0</ele><time>2026-04-25T16:17:13.994Z</time></trkpt><trkpt lat="44.660625" lon="8.2099283"><ele>465.0</ele><time>2026-04-25T16:17:15Z</time></trkpt><trkpt lat="44.66068" lon="8.2098117"><ele>462.1666666666667</ele><time>2026-04-25T16:17:15.997Z</time></trkpt><trkpt lat="44.6607367" lon="8.2097167"><ele>459.33333333333337</ele><time>2026-04-25T16:17:16.995Z</time></trkpt><trkpt lat="44.6607933" lon="8.2096483"><ele>456.5</ele><time>2026-04-25T16:17:17.997Z</time></trkpt><trkpt lat="44.660865" lon="8.2096283"><ele>453.6666666666667</ele><time>2026-04-25T16:17:18.998Z</time></trkpt><trkpt lat="44.6609533" lon="8.20963"><ele>450.83333333333337</ele><time>2026-04-25T16:17:19.998Z</time></trkpt><trkpt lat="44.6610533" lon="8.2096433"><ele>448.0</ele><time>2026-04-25T16:17:20.999Z</time></trkpt><trkpt lat="44.6611567" lon="8.20968"><ele>447.2</ele><time>2026-04-25T16:17:21.996Z</time></trkpt><trkpt lat="44.6612533" lon="8.2097217"><ele>446.4</ele><time>2026-04-25T16:17:22.997Z</time></trkpt><trkpt lat="44.6613433" lon="8.2097883"><ele>445.59999999999997</ele><time>2026-04-25T16:17:23.996Z</time></trkpt><trkpt lat="44.6614233" lon="8.2098733"><ele>444.79999999999995</ele><time>2026-04-25T16:17:24.998Z</time></trkpt><trkpt lat="44.6615" lon="8.2099683"><ele>444.0</ele><time>2026-04-25T16:17:25.995Z</time></trkpt><trkpt lat="44.661575" lon="8.2100683"><ele>446.0</ele><time>2026-04-25T16:17:26.999Z</time></trkpt><trkpt lat="44.661645" lon="8.2101667"><ele>448.0</ele><time>2026-04-25T16:17:27.995Z</time></trkpt><trkpt lat="44.6617083" lon="8.2102583"><ele>450.0</ele><time>2026-04-25T16:17:28.993Z</time></trkpt><trkpt lat="44.661765" lon="8.21033"><ele>452.0</ele><time>2026-04-25T16:17:29.998Z</time></trkpt><trkpt lat="44.66187" lon="8.210385"><ele>454.0</ele><time>2026-04-25T16:17:31.991Z</time></trkpt><trkpt lat="44.6618983" lon="8.2102517"><ele>454.0</ele><time>2026-04-25T16:17:34Z</time></trkpt><trkpt lat="44.6618917" lon="8.2101617"><ele>454.0</ele><time>2026-04-25T16:17:34.992Z</time></trkpt><trkpt lat="44.66188" lon="8.2100533"><ele>454.0</ele><time>2026-04-25T16:17:35.993Z</time></trkpt><trkpt lat="44.6618517" lon="8.209925"><ele>454.0</ele><time>2026-04-25T16:17:36.999Z</time></trkpt><trkpt lat="44.6618167" lon="8.209775"><ele>454.0</ele><time>2026-04-25T16:17:37.993Z</time></trkpt><trkpt lat="44.6617683" lon="8.20962"><ele>452.0</ele><time>2026-04-25T16:17:39.003Z</time></trkpt><trkpt lat="44.6617217" lon="8.20947"><ele>450.0</ele><time>2026-04-25T16:17:39.995Z</time></trkpt><trkpt lat="44.6616717" lon="8.2093333"><ele>448.0</ele><time>2026-04-25T16:17:40.998Z</time></trkpt><trkpt lat="44.6616267" lon="8.2091917"><ele>446.0</ele><time>2026-04-25T16:17:42.002Z</time></trkpt><trkpt lat="44.6615783" lon="8.2090567"><ele>444.0</ele><time>2026-04-25T16:17:42.994Z</time></trkpt><trkpt lat="44.6615317" lon="8.2089183"><ele>442.2</ele><time>2026-04-25T16:17:43.995Z</time></trkpt><trkpt lat="44.6614817" lon="8.2087833"><ele>440.4</ele><time>2026-04-25T16:17:44.995Z</time></trkpt><trkpt lat="44.6614367" lon="8.2086533"><ele>438.6</ele><time>2026-04-25T16:17:45.997Z</time></trkpt><trkpt lat="44.661405" lon="8.208515"><ele>436.8</ele><time>2026-04-25T16:17:46.995Z</time></trkpt><trkpt lat="44.6613867" lon="8.20838"><ele>435.0</ele><time>2026-04-25T16:17:47.996Z</time></trkpt><trkpt lat="44.6613917" lon="8.2082517"><ele>433.2</ele><time>2026-04-25T16:17:48.996Z</time></trkpt><trkpt lat="44.6614083" lon="8.208125"><ele>431.4</ele><time>2026-04-25T16:17:49.996Z</time></trkpt><trkpt lat="44.66144" lon="8.2079967"><ele>429.6</ele><time>2026-04-25T16:17:50.997Z</time></trkpt><trkpt lat="44.6614733" lon="8.2078617"><ele>427.8</ele><time>2026-04-25T16:17:51.996Z</time></trkpt><trkpt lat="44.6615133" lon="8.2077217"><ele>426.0</ele><time>2026-04-25T16:17:53.001Z</time></trkpt><trkpt lat="44.66156" lon="8.2075733"><ele>426.0</ele><time>2026-04-25T16:17:53.997Z</time></trkpt><trkpt lat="44.66161" lon="8.207415"><ele>426.0</ele><time>2026-04-25T16:17:54.999Z</time></trkpt><trkpt lat="44.6616617" lon="8.2072467"><ele>426.0</ele><time>2026-04-25T16:17:55.995Z</time></trkpt><trkpt lat="44.66171" lon="8.2070667"><ele>426.0</ele><time>2026-04-25T16:17:56.995Z</time></trkpt><trkpt lat="44.6617567" lon="8.2068733"><ele>423.0</ele><time>2026-04-25T16:17:57.995Z</time></trkpt><trkpt lat="44.6618067" lon="8.2066767"><ele>420.0</ele><time>2026-04-25T16:17:58.994Z</time></trkpt><trkpt lat="44.66186" lon="8.206485"><ele>417.0</ele><time>2026-04-25T16:17:59.995Z</time></trkpt><trkpt lat="44.6619217" lon="8.2063"><ele>414.0</ele><time>2026-04-25T16:18:00.995Z</time></trkpt><trkpt lat="44.66199" lon="8.2061217"><ele>413.75</ele><time>2026-04-25T16:18:01.995Z</time></trkpt><trkpt lat="44.6620633" lon="8.2059483"><ele>413.5</ele><time>2026-04-25T16:18:03.003Z</time></trkpt><trkpt lat="44.6621433" lon="8.2057783"><ele>413.25</ele><time>2026-04-25T16:18:03.999Z</time></trkpt><trkpt lat="44.6622217" lon="8.2056167"><ele>413.0</ele><time>2026-04-25T16:18:04.995Z</time></trkpt><trkpt lat="44.6622933" lon="8.20546"><ele>411.2</ele><time>2026-04-25T16:18:05.999Z</time></trkpt><trkpt lat="44.662355" lon="8.20533"><ele>409.4</ele><time>2026-04-25T16:18:06.994Z</time></trkpt><trkpt lat="44.6624083" lon="8.2052233"><ele>407.59999999999997</ele><time>2026-04-25T16:18:07.998Z</time></trkpt><trkpt lat="44.6624583" lon="8.2051183"><ele>405.79999999999995</ele><time>2026-04-25T16:18:09Z</time></trkpt><trkpt lat="44.6625017" lon="8.2050133"><ele>404.0</ele><time>2026-04-25T16:18:10Z</time></trkpt><trkpt lat="44.6625433" lon="8.2049117"><ele>401.8333333333333</ele><time>2026-04-25T16:18:10.993Z</time></trkpt><trkpt lat="44.6625917" lon="8.2048117"><ele>399.66666666666663</ele><time>2026-04-25T16:18:12.001Z</time></trkpt><trkpt lat="44.6626417" lon="8.2047083"><ele>397.5</ele><time>2026-04-25T16:18:12.993Z</time></trkpt><trkpt lat="44.662685" lon="8.2046"><ele>395.33333333333337</ele><time>2026-04-25T16:18:13.995Z</time></trkpt><trkpt lat="44.6627217" lon="8.204485"><ele>393.1666666666667</ele><time>2026-04-25T16:18:14.996Z</time></trkpt><trkpt lat="44.6627567" lon="8.2043767"><ele>391.0</ele><time>2026-04-25T16:18:15.995Z</time></trkpt><trkpt lat="44.662795" lon="8.2042767"><ele>390.83333333333337</ele><time>2026-04-25T16:18:16.992Z</time></trkpt><trkpt lat="44.66284" lon="8.204195"><ele>390.6666666666667</ele><time>2026-04-25T16:18:17.993Z</time></trkpt><trkpt lat="44.6629083" lon="8.2041933"><ele>390.5</ele><time>2026-04-25T16:18:18.999Z</time></trkpt><trkpt lat="44.6629717" lon="8.204205"><ele>390.33333333333337</ele><time>2026-04-25T16:18:19.995Z</time></trkpt><trkpt lat="44.6630533" lon="8.2042433"><ele>390.1666666666667</ele><time>2026-04-25T16:18:20.994Z</time></trkpt><trkpt lat="44.663145" lon="8.2042917"><ele>390.0</ele><time>2026-04-25T16:18:22Z</time></trkpt><trkpt lat="44.663245" lon="8.2043633"><ele>390.0</ele><time>2026-04-25T16:18:22.997Z</time></trkpt><trkpt lat="44.6633483" lon="8.204435"><ele>390.0</ele><time>2026-04-25T16:18:23.996Z</time></trkpt><trkpt lat="44.6634517" lon="8.2045067"><ele>390.0</ele><time>2026-04-25T16:18:24.996Z</time></trkpt><trkpt lat="44.6635583" lon="8.2045783"><ele>390.0</ele><time>2026-04-25T16:18:25.995Z</time></trkpt><trkpt lat="44.6636633" lon="8.2046467"><ele>388.2</ele><time>2026-04-25T16:18:26.996Z</time></trkpt><trkpt lat="44.6637633" lon="8.2047167"><ele>386.4</ele><time>2026-04-25T16:18:27.995Z</time></trkpt><trkpt lat="44.66385" lon="8.2047983"><ele>384.6</ele><time>2026-04-25T16:18:28.992Z</time></trkpt><trkpt lat="44.663935" lon="8.2049033"><ele>382.8</ele><time>2026-04-25T16:18:29.998Z</time></trkpt><trkpt lat="44.66401" lon="8.2050217"><ele>381.0</ele><time>2026-04-25T16:18:30.995Z</time></trkpt><trkpt lat="44.6640833" lon="8.2051517"><ele>381.0</ele><time>2026-04-25T16:18:31.997Z</time></trkpt><trkpt lat="44.6641467" lon="8.2052733"><ele>381.0</ele><time>2026-04-25T16:18:32.996Z</time></trkpt><trkpt lat="44.6642" lon="8.20537"><ele>381.0</ele><time>2026-04-25T16:18:33.993Z</time></trkpt><trkpt lat="44.66425" lon="8.2054483"><ele>381.0</ele><time>2026-04-25T16:18:34.998Z</time></trkpt><trkpt lat="44.6643017" lon="8.2055"><ele>381.0</ele><time>2026-04-25T16:18:35.995Z</time></trkpt><trkpt lat="44.6643717" lon="8.2054383"><ele>381.0</ele><time>2026-04-25T16:18:37.995Z</time></trkpt><trkpt lat="44.6644067" lon="8.2052483"><ele>381.0</ele><time>2026-04-25T16:18:39.999Z</time></trkpt><trkpt lat="44.6644033" lon="8.205075"><ele>381.0</ele><time>2026-04-25T16:18:41Z</time></trkpt><trkpt lat="44.664405" lon="8.20491"><ele>381.0</ele><time>2026-04-25T16:18:41.996Z</time></trkpt><trkpt lat="44.66441" lon="8.2047433"><ele>381.0</ele><time>2026-04-25T16:18:43Z</time></trkpt><trkpt lat="44.6644067" lon="8.20457"><ele>379.5</ele><time>2026-04-25T16:18:43.994Z</time></trkpt><trkpt lat="44.6644" lon="8.204405"><ele>378.0</ele><time>2026-04-25T16:18:45.001Z</time></trkpt><trkpt lat="44.6643833" lon="8.2042433"><ele>376.5</ele><time>2026-04-25T16:18:45.997Z</time></trkpt><trkpt lat="44.6643583" lon="8.2040817"><ele>375.0</ele><time>2026-04-25T16:18:46.995Z</time></trkpt><trkpt lat="44.6643333" lon="8.2039383"><ele>373.6</ele><time>2026-04-25T16:18:47.996Z</time></trkpt><trkpt lat="44.6643167" lon="8.2038183"><ele>372.2</ele><time>2026-04-25T16:18:49Z</time></trkpt><trkpt lat="44.664305" lon="8.2037117"><ele>370.79999999999995</ele><time>2026-04-25T16:18:49.997Z</time></trkpt><trkpt lat="44.6643517" lon="8.2036033"><ele>369.4</ele><time>2026-04-25T16:18:51.998Z</time></trkpt><trkpt lat="44.6644617" lon="8.203655"><ele>368.0</ele><time>2026-04-25T16:18:54Z</time></trkpt><trkpt lat="44.6645267" lon="8.2037283"><ele>365.5</ele><time>2026-04-25T16:18:54.998Z</time></trkpt><trkpt lat="44.6645917" lon="8.203805"><ele>363.0</ele><time>2026-04-25T16:18:55.998Z</time></trkpt><trkpt lat="44.6646533" lon="8.20388"><ele>360.5</ele><time>2026-04-25T16:18:56.996Z</time></trkpt><trkpt lat="44.66471" lon="8.203935"><ele>358.0</ele><time>2026-04-25T16:18:58Z</time></trkpt><trkpt lat="44.6647717" lon="8.2039617"><ele>355.5</ele><time>2026-04-25T16:18:58.996Z</time></trkpt><trkpt lat="44.6648283" lon="8.20387"><ele>353.0</ele><time>2026-04-25T16:19:00.999Z</time></trkpt><trkpt lat="44.66479" lon="8.2037733"><ele>353.0</ele><time>2026-04-25T16:19:01.996Z</time></trkpt><trkpt lat="44.6647467" lon="8.2036883"><ele>353.0</ele><time>2026-04-25T16:19:03.001Z</time></trkpt><trkpt lat="44.6646983" lon="8.2035867"><ele>353.0</ele><time>2026-04-25T16:19:04.003Z</time></trkpt><trkpt lat="44.664655" lon="8.2034683"><ele>353.0</ele><time>2026-04-25T16:19:04.999Z</time></trkpt><trkpt lat="44.664625" lon="8.2033417"><ele>353.0</ele><time>2026-04-25T16:19:05.997Z</time></trkpt><trkpt lat="44.6646233" lon="8.2031967"><ele>351.2</ele><time>2026-04-25T16:19:07Z</time></trkpt><trkpt lat="44.664645" lon="8.2030333"><ele>349.4</ele><time>2026-04-25T16:19:07.997Z</time></trkpt><trkpt lat="44.664655" lon="8.2028883"><ele>347.59999999999997</ele><time>2026-04-25T16:19:08.997Z</time></trkpt><trkpt lat="44.6646567" lon="8.20275"><ele>345.79999999999995</ele><time>2026-04-25T16:19:09.996Z</time></trkpt><trkpt lat="44.6646283" lon="8.20262"><ele>344.0</ele><time>2026-04-25T16:19:10.997Z</time></trkpt><trkpt lat="44.664575" lon="8.2024883"><ele>344.0</ele><time>2026-04-25T16:19:11.997Z</time></trkpt><trkpt lat="44.664505" lon="8.2023533"><ele>344.0</ele><time>2026-04-25T16:19:12.995Z</time></trkpt><trkpt lat="44.66444" lon="8.2022267"><ele>344.0</ele><time>2026-04-25T16:19:13.997Z</time></trkpt><trkpt lat="44.6643883" lon="8.2021183"><ele>344.0</ele><time>2026-04-25T16:19:14.998Z</time></trkpt><trkpt lat="44.66436" lon="8.202015"><ele>344.0</ele><time>2026-04-25T16:19:15.996Z</time></trkpt><trkpt lat="44.664355" lon="8.2019217"><ele>342.6</ele><time>2026-04-25T16:19:16.996Z</time></trkpt><trkpt lat="44.6644317" lon="8.2018833"><ele>341.2</ele><time>2026-04-25T16:19:17.997Z</time></trkpt><trkpt lat="44.6645117" lon="8.20185"><ele>339.8</ele><time>2026-04-25T16:19:18.995Z</time></trkpt><trkpt lat="44.6646067" lon="8.2018183"><ele>338.40000000000003</ele><time>2026-04-25T16:19:19.994Z</time></trkpt><trkpt lat="44.66473" lon="8.201805"><ele>337.0</ele><time>2026-04-25T16:19:20.995Z</time></trkpt><trkpt lat="44.6648767" lon="8.201805"><ele>337.0</ele><time>2026-04-25T16:19:21.997Z</time></trkpt><trkpt lat="44.6650133" lon="8.2017967"><ele>337.0</ele><time>2026-04-25T16:19:22.996Z</time></trkpt><trkpt lat="44.6651267" lon="8.2017933"><ele>337.0</ele><time>2026-04-25T16:19:23.995Z</time></trkpt><trkpt lat="44.6652133" lon="8.2017783"><ele>337.0</ele><time>2026-04-25T16:19:24.995Z</time></trkpt><trkpt lat="44.6652867" lon="8.2017517"><ele>337.0</ele><time>2026-04-25T16:19:25.999Z</time></trkpt><trkpt lat="44.66534" lon="8.2017033"><ele>337.00000000000006</ele><time>2026-04-25T16:19:26.998Z</time></trkpt><trkpt lat="44.66531" lon="8.2016117"><ele>337.0</ele><time>2026-04-25T16:19:27.997Z</time></trkpt><trkpt lat="44.6652633" lon="8.2015483"><ele>337.0</ele><time>2026-04-25T16:19:28.994Z</time></trkpt><trkpt lat="44.665205" lon="8.201495"><ele>337.0</ele><time>2026-04-25T16:19:29.995Z</time></trkpt><trkpt lat="44.66514" lon="8.2014533"><ele>337.0</ele><time>2026-04-25T16:19:30.997Z</time></trkpt><trkpt lat="44.66506" lon="8.2014283"><ele>337.00000000000006</ele><time>2026-04-25T16:19:31.994Z</time></trkpt><trkpt lat="44.664985" lon="8.2013983"><ele>337.0</ele><time>2026-04-25T16:19:32.996Z</time></trkpt><trkpt lat="44.6649133" lon="8.2013583"><ele>334.6</ele><time>2026-04-25T16:19:33.997Z</time></trkpt><trkpt lat="44.6648583" lon="8.2012817"><ele>332.20000000000005</ele><time>2026-04-25T16:19:34.997Z</time></trkpt><trkpt lat="44.6648033" lon="8.2011867"><ele>329.8</ele><time>2026-04-25T16:19:35.996Z</time></trkpt><trkpt lat="44.6647733" lon="8.2010417"><ele>327.4</ele><time>2026-04-25T16:19:36.997Z</time></trkpt><trkpt lat="44.664725" lon="8.2008967"><ele>325.0</ele><time>2026-04-25T16:19:37.993Z</time></trkpt><trkpt lat="44.6646833" lon="8.2007317"><ele>323.0</ele><time>2026-04-25T16:19:38.995Z</time></trkpt><trkpt lat="44.6646417" lon="8.20056"><ele>321.0</ele><time>2026-04-25T16:19:39.994Z</time></trkpt><trkpt lat="44.6645917" lon="8.2003817"><ele>319.0</ele><time>2026-04-25T16:19:40.999Z</time></trkpt><trkpt lat="44.6645517" lon="8.2001883"><ele>317.0</ele><time>2026-04-25T16:19:41.995Z</time></trkpt><trkpt lat="44.6645133" lon="8.1999933"><ele>317.25</ele><time>2026-04-25T16:19:42.995Z</time></trkpt><trkpt lat="44.6644817" lon="8.1997983"><ele>317.5</ele><time>2026-04-25T16:19:44Z</time></trkpt><trkpt lat="44.6644533" lon="8.199605"><ele>317.75</ele><time>2026-04-25T16:19:44.996Z</time></trkpt><trkpt lat="44.6644317" lon="8.19941"><ele>318.0</ele><time>2026-04-25T16:19:45.996Z</time></trkpt><trkpt lat="44.66441" lon="8.1992283"><ele>318.0</ele><time>2026-04-25T16:19:46.995Z</time></trkpt><trkpt lat="44.664385" lon="8.199075"><ele>318.0</ele><time>2026-04-25T16:19:47.993Z</time></trkpt><trkpt lat="44.664355" lon="8.19894"><ele>318.0</ele><time>2026-04-25T16:19:48.998Z</time></trkpt><trkpt lat="44.6643067" lon="8.19882"><ele>318.0</ele><time>2026-04-25T16:19:49.997Z</time></trkpt><trkpt lat="44.66425" lon="8.198715"><ele>318.0</ele><time>2026-04-25T16:19:50.997Z</time></trkpt><trkpt lat="44.6641933" lon="8.198625"><ele>315.5</ele><time>2026-04-25T16:19:52Z</time></trkpt><trkpt lat="44.6641433" lon="8.198545"><ele>313.0</ele><time>2026-04-25T16:19:52.997Z</time></trkpt><trkpt lat="44.6641083" lon="8.1984683"><ele>310.5</ele><time>2026-04-25T16:19:53.996Z</time></trkpt><trkpt lat="44.6641133" lon="8.1983667"><ele>308.0</ele><time>2026-04-25T16:19:54.997Z</time></trkpt><trkpt lat="44.66413" lon="8.1982567"><ele>305.5</ele><time>2026-04-25T16:19:55.999Z</time></trkpt><trkpt lat="44.6641617" lon="8.1981283"><ele>303.0</ele><time>2026-04-25T16:19:57.003Z</time></trkpt><trkpt lat="44.6642083" lon="8.197985"><ele>300.8333333333333</ele><time>2026-04-25T16:19:57.997Z</time></trkpt><trkpt lat="44.6642467" lon="8.1978533"><ele>298.6666666666667</ele><time>2026-04-25T16:19:58.996Z</time></trkpt><trkpt lat="44.66428" lon="8.19774"><ele>296.5</ele><time>2026-04-25T16:19:59.994Z</time></trkpt><trkpt lat="44.6643133" lon="8.19764"><ele>294.33333333333337</ele><time>2026-04-25T16:20:00.998Z</time></trkpt><trkpt lat="44.6643517" lon="8.197565"><ele>292.1666666666667</ele><time>2026-04-25T16:20:01.996Z</time></trkpt><trkpt lat="44.6644067" lon="8.1975083"><ele>290.0</ele><time>2026-04-25T16:20:02.995Z</time></trkpt><trkpt lat="44.6644767" lon="8.19749"><ele>290.0</ele><time>2026-04-25T16:20:03.993Z</time></trkpt><trkpt lat="44.664565" lon="8.1975267"><ele>290.0</ele><time>2026-04-25T16:20:04.997Z</time></trkpt><trkpt lat="44.6646667" lon="8.1975867"><ele>290.0</ele><time>2026-04-25T16:20:05.997Z</time></trkpt><trkpt lat="44.664775" lon="8.19763"><ele>290.0</ele><time>2026-04-25T16:20:06.994Z</time></trkpt><trkpt lat="44.6649017" lon="8.19771"><ele>290.0</ele><time>2026-04-25T16:20:07.995Z</time></trkpt><trkpt lat="44.6650283" lon="8.19778"><ele>290.0</ele><time>2026-04-25T16:20:09Z</time></trkpt><trkpt lat="44.6651683" lon="8.1978533"><ele>290.0</ele><time>2026-04-25T16:20:09.996Z</time></trkpt><trkpt lat="44.6653117" lon="8.19792"><ele>290.0</ele><time>2026-04-25T16:20:10.996Z</time></trkpt><trkpt lat="44.6654583" lon="8.1979933"><ele>289.6666666666667</ele><time>2026-04-25T16:20:11.993Z</time></trkpt><trkpt lat="44.6655983" lon="8.1980667"><ele>289.3333333333333</ele><time>2026-04-25T16:20:12.999Z</time></trkpt><trkpt lat="44.66574" lon="8.1981483"><ele>289.0</ele><time>2026-04-25T16:20:13.997Z</time></trkpt><trkpt lat="44.665885" lon="8.198225"><ele>289.0</ele><time>2026-04-25T16:20:14.996Z</time></trkpt><trkpt lat="44.6660233" lon="8.1982933"><ele>289.0</ele><time>2026-04-25T16:20:15.999Z</time></trkpt><trkpt lat="44.6661667" lon="8.1983783"><ele>289.0</ele><time>2026-04-25T16:20:16.997Z</time></trkpt><trkpt lat="44.6663133" lon="8.1984533"><ele>282.0</ele><time>2026-04-25T16:20:18.002Z</time></trkpt><trkpt lat="44.6664583" lon="8.198535"><ele>275.0</ele><time>2026-04-25T16:20:18.993Z</time></trkpt><trkpt lat="44.6666017" lon="8.198615"><ele>268.0</ele><time>2026-04-25T16:20:19.999Z</time></trkpt><trkpt lat="44.66675" lon="8.1986933"><ele>268.0</ele><time>2026-04-25T16:20:20.994Z</time></trkpt><trkpt lat="44.6669017" lon="8.198765"><ele>268.0</ele><time>2026-04-25T16:20:21.999Z</time></trkpt><trkpt lat="44.6670533" lon="8.1988367"><ele>268.0</ele><time>2026-04-25T16:20:22.996Z</time></trkpt><trkpt lat="44.6671983" lon="8.1989"><ele>268.75</ele><time>2026-04-25T16:20:23.999Z</time></trkpt><trkpt lat="44.6673317" lon="8.1989533"><ele>269.5</ele><time>2026-04-25T16:20:24.996Z</time></trkpt><trkpt lat="44.6674567" lon="8.1990033"><ele>270.25</ele><time>2026-04-25T16:20:25.994Z</time></trkpt><trkpt lat="44.66757" lon="8.1990517"><ele>271.0</ele><time>2026-04-25T16:20:26.995Z</time></trkpt><trkpt lat="44.6676717" lon="8.1991"><ele>271.0</ele><time>2026-04-25T16:20:27.993Z</time></trkpt><trkpt lat="44.66776" lon="8.1991633"><ele>271.0</ele><time>2026-04-25T16:20:28.992Z</time></trkpt><trkpt lat="44.667835" lon="8.1992383"><ele>271.0</ele><time>2026-04-25T16:20:29.997Z</time></trkpt><trkpt lat="44.6679033" lon="8.19932"><ele>271.0</ele><time>2026-04-25T16:20:30.993Z</time></trkpt><trkpt lat="44.6679617" lon="8.1994167"><ele>271.0</ele><time>2026-04-25T16:20:31.994Z</time></trkpt><trkpt lat="44.668015" lon="8.19951"><ele>268.57142857142856</ele><time>2026-04-25T16:20:32.997Z</time></trkpt><trkpt lat="44.6680733" lon="8.1995817"><ele>266.14285714285717</ele><time>2026-04-25T16:20:33.99Z</time></trkpt><trkpt lat="44.668135" lon="8.1996333"><ele>263.7142857142857</ele><time>2026-04-25T16:20:34.997Z</time></trkpt><trkpt lat="44.6681983" lon="8.1996333"><ele>261.2857142857143</ele><time>2026-04-25T16:20:35.998Z</time></trkpt><trkpt lat="44.668265" lon="8.1996133"><ele>258.85714285714283</ele><time>2026-04-25T16:20:37Z</time></trkpt><trkpt lat="44.6683167" lon="8.19956"><ele>256.42857142857144</ele><time>2026-04-25T16:20:37.993Z</time></trkpt><trkpt lat="44.6683533" lon="8.1994783"><ele>254.0</ele><time>2026-04-25T16:20:38.996Z</time></trkpt><trkpt lat="44.6683383" lon="8.1993333"><ele>254.00000000000003</ele><time>2026-04-25T16:20:39.994Z</time></trkpt><trkpt lat="44.66832" lon="8.199225"><ele>254.0</ele><time>2026-04-25T16:20:40.993Z</time></trkpt><trkpt lat="44.6682883" lon="8.19911"><ele>254.0</ele><time>2026-04-25T16:20:41.999Z</time></trkpt><trkpt lat="44.6682417" lon="8.1989917"><ele>254.0</ele><time>2026-04-25T16:20:42.997Z</time></trkpt><trkpt lat="44.6682017" lon="8.1988733"><ele>254.00000000000003</ele><time>2026-04-25T16:20:43.992Z</time></trkpt><trkpt lat="44.6681583" lon="8.1987633"><ele>254.0</ele><time>2026-04-25T16:20:45.001Z</time></trkpt><trkpt lat="44.6681217" lon="8.1986583"><ele>253.16666666666669</ele><time>2026-04-25T16:20:45.995Z</time></trkpt><trkpt lat="44.6680833" lon="8.1985683"><ele>252.33333333333334</ele><time>2026-04-25T16:20:46.999Z</time></trkpt><trkpt lat="44.6680433" lon="8.1984933"><ele>251.5</ele><time>2026-04-25T16:20:47.995Z</time></trkpt><trkpt lat="44.667965" lon="8.1983867"><ele>250.66666666666669</ele><time>2026-04-25T16:20:49.993Z</time></trkpt><trkpt lat="44.6679217" lon="8.198295"><ele>249.83333333333334</ele><time>2026-04-25T16:20:53Z</time></trkpt><trkpt lat="44.66799" lon="8.1983917"><ele>249.0</ele><time>2026-04-25T16:20:59.996Z</time></trkpt><trkpt lat="44.6680433" lon="8.19846"><ele>249.0</ele><time>2026-04-25T16:21:01Z</time></trkpt><trkpt lat="44.6681117" lon="8.198545"><ele>248.99999999999997</ele><time>2026-04-25T16:21:01.998Z</time></trkpt><trkpt lat="44.66819" lon="8.1986317"><ele>248.99999999999997</ele><time>2026-04-25T16:21:03.001Z</time></trkpt><trkpt lat="44.66826" lon="8.1987167"><ele>249.0</ele><time>2026-04-25T16:21:03.997Z</time></trkpt><trkpt lat="44.668335" lon="8.1988133"><ele>249.0</ele><time>2026-04-25T16:21:04.997Z</time></trkpt><trkpt lat="44.6684117" lon="8.1988917"><ele>249.0</ele><time>2026-04-25T16:21:05.995Z</time></trkpt><trkpt lat="44.668495" lon="8.1989583"><ele>248.99999999999997</ele><time>2026-04-25T16:21:06.993Z</time></trkpt><trkpt lat="44.66859" lon="8.1990167"><ele>248.99999999999997</ele><time>2026-04-25T16:21:07.993Z</time></trkpt><trkpt lat="44.6686917" lon="8.1990683"><ele>249.0</ele><time>2026-04-25T16:21:09Z</time></trkpt><trkpt lat="44.6687967" lon="8.1991217"><ele>249.0</ele><time>2026-04-25T16:21:09.993Z</time></trkpt><trkpt lat="44.6689033" lon="8.1991733"><ele>248.75</ele><time>2026-04-25T16:21:10.997Z</time></trkpt><trkpt lat="44.6690183" lon="8.1992183"><ele>248.5</ele><time>2026-04-25T16:21:11.996Z</time></trkpt><trkpt lat="44.6691317" lon="8.1992617"><ele>248.25</ele><time>2026-04-25T16:21:12.995Z</time></trkpt><trkpt lat="44.669245" lon="8.19932"><ele>248.0</ele><time>2026-04-25T16:21:13.997Z</time></trkpt><trkpt lat="44.66937" lon="8.199355"><ele>246.75</ele><time>2026-04-25T16:21:15.001Z</time></trkpt><trkpt lat="44.6694983" lon="8.1993767"><ele>245.5</ele><time>2026-04-25T16:21:15.996Z</time></trkpt><trkpt lat="44.6696367" lon="8.1993817"><ele>244.25</ele><time>2026-04-25T16:21:16.994Z</time></trkpt><trkpt lat="44.66977" lon="8.1993717"><ele>243.0</ele><time>2026-04-25T16:21:17.997Z</time></trkpt><trkpt lat="44.669895" lon="8.1993467"><ele>243.0</ele><time>2026-04-25T16:21:18.997Z</time></trkpt><trkpt lat="44.6700183" lon="8.1993067"><ele>243.0</ele><time>2026-04-25T16:21:19.996Z</time></trkpt><trkpt lat="44.6701383" lon="8.1992533"><ele>243.0</ele><time>2026-04-25T16:21:20.999Z</time></trkpt><trkpt lat="44.67025" lon="8.199175"><ele>243.0</ele><time>2026-04-25T16:21:21.996Z</time></trkpt><trkpt lat="44.67036" lon="8.1990867"><ele>240.0</ele><time>2026-04-25T16:21:22.994Z</time></trkpt><trkpt lat="44.6704667" lon="8.1989983"><ele>237.0</ele><time>2026-04-25T16:21:23.995Z</time></trkpt><trkpt lat="44.6705783" lon="8.19891"><ele>234.0</ele><time>2026-04-25T16:21:24.995Z</time></trkpt><trkpt lat="44.6706933" lon="8.1988233"><ele>231.0</ele><time>2026-04-25T16:21:26Z</time></trkpt><trkpt lat="44.6708033" lon="8.198735"><ele>231.0</ele><time>2026-04-25T16:21:26.995Z</time></trkpt><trkpt lat="44.6709167" lon="8.1986433"><ele>231.0</ele><time>2026-04-25T16:21:27.998Z</time></trkpt><trkpt lat="44.67103" lon="8.19856"><ele>231.0</ele><time>2026-04-25T16:21:28.995Z</time></trkpt><trkpt lat="44.6711417" lon="8.19849"><ele>231.0</ele><time>2026-04-25T16:21:29.994Z</time></trkpt><trkpt lat="44.6712633" lon="8.1984417"><ele>230.75</ele><time>2026-04-25T16:21:30.998Z</time></trkpt><trkpt lat="44.6713867" lon="8.19842"><ele>230.5</ele><time>2026-04-25T16:21:31.996Z</time></trkpt><trkpt lat="44.671515" lon="8.1984317"><ele>230.25</ele><time>2026-04-25T16:21:32.998Z</time></trkpt><trkpt lat="44.6716483" lon="8.1984667"><ele>230.0</ele><time>2026-04-25T16:21:34Z</time></trkpt><trkpt lat="44.67178" lon="8.1985133"><ele>230.0</ele><time>2026-04-25T16:21:34.999Z</time></trkpt><trkpt lat="44.67192" lon="8.1985617"><ele>230.0</ele><time>2026-04-25T16:21:35.999Z</time></trkpt><trkpt lat="44.6720667" lon="8.1986117"><ele>230.0</ele><time>2026-04-25T16:21:36.995Z</time></trkpt><trkpt lat="44.67222" lon="8.1986783"><ele>228.0</ele><time>2026-04-25T16:21:37.996Z</time></trkpt><trkpt lat="44.672365" lon="8.1987417"><ele>226.0</ele><time>2026-04-25T16:21:38.998Z</time></trkpt><trkpt lat="44.6725133" lon="8.1987983"><ele>224.0</ele><time>2026-04-25T16:21:39.995Z</time></trkpt><trkpt lat="44.6726567" lon="8.1988533"><ele>224.5</ele><time>2026-04-25T16:21:40.998Z</time></trkpt><trkpt lat="44.6728033" lon="8.1989033"><ele>225.0</ele><time>2026-04-25T16:21:41.995Z</time></trkpt><trkpt lat="44.67294" lon="8.1989533"><ele>225.5</ele><time>2026-04-25T16:21:42.996Z</time></trkpt><trkpt lat="44.6730817" lon="8.1990083"><ele>226.0</ele><time>2026-04-25T16:21:43.995Z</time></trkpt><trkpt lat="44.67323" lon="8.19907"><ele>226.0</ele><time>2026-04-25T16:21:44.994Z</time></trkpt><trkpt lat="44.6733917" lon="8.1991317"><ele>226.0</ele><time>2026-04-25T16:21:45.995Z</time></trkpt><trkpt lat="44.6735533" lon="8.199195"><ele>226.0</ele><time>2026-04-25T16:21:46.995Z</time></trkpt><trkpt lat="44.6737283" lon="8.1992617"><ele>223.33333333333331</ele><time>2026-04-25T16:21:47.994Z</time></trkpt><trkpt lat="44.673905" lon="8.199335"><ele>220.66666666666669</ele><time>2026-04-25T16:21:48.996Z</time></trkpt><trkpt lat="44.674085" lon="8.1994117"><ele>218.0</ele><time>2026-04-25T16:21:49.994Z</time></trkpt><trkpt lat="44.67427" lon="8.19948"><ele>217.0</ele><time>2026-04-25T16:21:50.997Z</time></trkpt><trkpt lat="44.6744467" lon="8.1995467"><ele>216.0</ele><time>2026-04-25T16:21:51.998Z</time></trkpt><trkpt lat="44.6746217" lon="8.19961"><ele>215.0</ele><time>2026-04-25T16:21:52.996Z</time></trkpt><trkpt lat="44.6747983" lon="8.199655"><ele>215.0</ele><time>2026-04-25T16:21:54Z</time></trkpt><trkpt lat="44.67498" lon="8.1996717"><ele>215.0</ele><time>2026-04-25T16:21:55.002Z</time></trkpt><trkpt lat="44.675145" lon="8.19965"><ele>215.0</ele><time>2026-04-25T16:21:55.994Z</time></trkpt><trkpt lat="44.67531" lon="8.199615"><ele>215.66666666666669</ele><time>2026-04-25T16:21:56.997Z</time></trkpt><trkpt lat="44.675485" lon="8.1995767"><ele>216.33333333333331</ele><time>2026-04-25T16:21:57.995Z</time></trkpt><trkpt lat="44.6756433" lon="8.19954"><ele>217.0</ele><time>2026-04-25T16:21:58.998Z</time></trkpt><trkpt lat="44.6757867" lon="8.1995217"><ele>217.0</ele><time>2026-04-25T16:21:59.994Z</time></trkpt><trkpt lat="44.675935" lon="8.1995267"><ele>217.0</ele><time>2026-04-25T16:22:00.996Z</time></trkpt><trkpt lat="44.6760833" lon="8.1995483"><ele>217.0</ele><time>2026-04-25T16:22:01.997Z</time></trkpt><trkpt lat="44.6762267" lon="8.1995917"><ele>217.0</ele><time>2026-04-25T16:22:02.996Z</time></trkpt><trkpt lat="44.6763667" lon="8.1996517"><ele>217.25</ele><time>2026-04-25T16:22:03.995Z</time></trkpt><trkpt lat="44.67651" lon="8.1997167"><ele>217.5</ele><time>2026-04-25T16:22:04.994Z</time></trkpt><trkpt lat="44.676635" lon="8.199785"><ele>217.75</ele><time>2026-04-25T16:22:05.995Z</time></trkpt><trkpt lat="44.6767667" lon="8.19985"><ele>218.0</ele><time>2026-04-25T16:22:06.998Z</time></trkpt><trkpt lat="44.676905" lon="8.1999133"><ele>216.0</ele><time>2026-04-25T16:22:07.995Z</time></trkpt><trkpt lat="44.6770467" lon="8.1999783"><ele>214.0</ele><time>2026-04-25T16:22:08.995Z</time></trkpt><trkpt lat="44.6771983" lon="8.20004"><ele>212.0</ele><time>2026-04-25T16:22:09.994Z</time></trkpt><trkpt lat="44.6773517" lon="8.2001017"><ele>212.0</ele><time>2026-04-25T16:22:10.997Z</time></trkpt><trkpt lat="44.6775033" lon="8.200165"><ele>212.0</ele><time>2026-04-25T16:22:11.996Z</time></trkpt><trkpt lat="44.67765" lon="8.20023"><ele>212.0</ele><time>2026-04-25T16:22:12.998Z</time></trkpt><trkpt lat="44.6778017" lon="8.2002933"><ele>210.66666666666669</ele><time>2026-04-25T16:22:13.995Z</time></trkpt><trkpt lat="44.6779583" lon="8.2003567"><ele>209.33333333333331</ele><time>2026-04-25T16:22:14.995Z</time></trkpt><trkpt lat="44.6781083" lon="8.2004217"><ele>208.0</ele><time>2026-04-25T16:22:15.997Z</time></trkpt><trkpt lat="44.6782683" lon="8.200475"><ele>208.0</ele><time>2026-04-25T16:22:16.997Z</time></trkpt><trkpt lat="44.678415" lon="8.2005333"><ele>208.0</ele><time>2026-04-25T16:22:17.993Z</time></trkpt><trkpt lat="44.6785617" lon="8.2005967"><ele>208.0</ele><time>2026-04-25T16:22:18.996Z</time></trkpt><trkpt lat="44.678705" lon="8.200655"><ele>208.0</ele><time>2026-04-25T16:22:19.998Z</time></trkpt><trkpt lat="44.678865" lon="8.20071"><ele>208.0</ele><time>2026-04-25T16:22:20.994Z</time></trkpt><trkpt lat="44.6790283" lon="8.20077"><ele>208.0</ele><time>2026-04-25T16:22:21.994Z</time></trkpt><trkpt lat="44.6791717" lon="8.20083"><ele>208.0</ele><time>2026-04-25T16:22:22.994Z</time></trkpt><trkpt lat="44.6793333" lon="8.20089"><ele>208.0</ele><time>2026-04-25T16:22:23.994Z</time></trkpt><trkpt lat="44.67949" lon="8.2009567"><ele>208.0</ele><time>2026-04-25T16:22:25Z</time></trkpt><trkpt lat="44.6796383" lon="8.20102"><ele>207.25</ele><time>2026-04-25T16:22:25.994Z</time></trkpt><trkpt lat="44.67978" lon="8.2010817"><ele>206.5</ele><time>2026-04-25T16:22:26.994Z</time></trkpt><trkpt lat="44.6799233" lon="8.20114"><ele>205.75</ele><time>2026-04-25T16:22:27.997Z</time></trkpt><trkpt lat="44.6800583" lon="8.201195"><ele>205.0</ele><time>2026-04-25T16:22:28.999Z</time></trkpt><trkpt lat="44.6801983" lon="8.20126"><ele>205.25</ele><time>2026-04-25T16:22:29.998Z</time></trkpt><trkpt lat="44.6803317" lon="8.20133"><ele>205.5</ele><time>2026-04-25T16:22:31.001Z</time></trkpt><trkpt lat="44.68046" lon="8.201395"><ele>205.75</ele><time>2026-04-25T16:22:31.995Z</time></trkpt><trkpt lat="44.6805983" lon="8.2014517"><ele>206.0</ele><time>2026-04-25T16:22:32.996Z</time></trkpt><trkpt lat="44.6807483" lon="8.2015083"><ele>206.0</ele><time>2026-04-25T16:22:33.996Z</time></trkpt><trkpt lat="44.680895" lon="8.2015617"><ele>206.0</ele><time>2026-04-25T16:22:34.998Z</time></trkpt><trkpt lat="44.6810333" lon="8.2016167"><ele>206.0</ele><time>2026-04-25T16:22:35.999Z</time></trkpt><trkpt lat="44.6811633" lon="8.2016717"><ele>206.0</ele><time>2026-04-25T16:22:36.995Z</time></trkpt><trkpt lat="44.681295" lon="8.2017283"><ele>205.25</ele><time>2026-04-25T16:22:37.996Z</time></trkpt><trkpt lat="44.6814317" lon="8.2017783"><ele>204.5</ele><time>2026-04-25T16:22:38.996Z</time></trkpt><trkpt lat="44.68157" lon="8.2018333"><ele>203.75</ele><time>2026-04-25T16:22:39.995Z</time></trkpt><trkpt lat="44.6817133" lon="8.2018933"><ele>203.0</ele><time>2026-04-25T16:22:40.994Z</time></trkpt><trkpt lat="44.681845" lon="8.2019467"><ele>202.5</ele><time>2026-04-25T16:22:41.998Z</time></trkpt><trkpt lat="44.6819783" lon="8.202"><ele>202.0</ele><time>2026-04-25T16:22:42.994Z</time></trkpt><trkpt lat="44.6821033" lon="8.20205"><ele>201.5</ele><time>2026-04-25T16:22:43.995Z</time></trkpt><trkpt lat="44.68223" lon="8.2021"><ele>201.0</ele><time>2026-04-25T16:22:44.998Z</time></trkpt><trkpt lat="44.6823583" lon="8.202155"><ele>201.0</ele><time>2026-04-25T16:22:45.995Z</time></trkpt><trkpt lat="44.6824883" lon="8.2022067"><ele>201.0</ele><time>2026-04-25T16:22:46.995Z</time></trkpt><trkpt lat="44.6826167" lon="8.2022567"><ele>201.0</ele><time>2026-04-25T16:22:47.997Z</time></trkpt><trkpt lat="44.68274" lon="8.2023083"><ele>201.0</ele><time>2026-04-25T16:22:48.995Z</time></trkpt><trkpt lat="44.682865" lon="8.2023633"><ele>201.75</ele><time>2026-04-25T16:22:49.997Z</time></trkpt><trkpt lat="44.6829983" lon="8.2024267"><ele>202.5</ele><time>2026-04-25T16:22:50.999Z</time></trkpt><trkpt lat="44.6831267" lon="8.2024883"><ele>203.25</ele><time>2026-04-25T16:22:51.996Z</time></trkpt><trkpt lat="44.6832567" lon="8.2025383"><ele>204.0</ele><time>2026-04-25T16:22:52.993Z</time></trkpt><trkpt lat="44.6833917" lon="8.20259"><ele>204.0</ele><time>2026-04-25T16:22:54.002Z</time></trkpt><trkpt lat="44.6835233" lon="8.20264"><ele>204.0</ele><time>2026-04-25T16:22:54.995Z</time></trkpt><trkpt lat="44.6836517" lon="8.2026883"><ele>204.0</ele><time>2026-04-25T16:22:55.996Z</time></trkpt><trkpt lat="44.6837833" lon="8.2027367"><ele>204.0</ele><time>2026-04-25T16:22:56.996Z</time></trkpt><trkpt lat="44.6839067" lon="8.20279"><ele>203.0</ele><time>2026-04-25T16:22:57.994Z</time></trkpt><trkpt lat="44.6840317" lon="8.2028417"><ele>202.0</ele><time>2026-04-25T16:22:58.994Z</time></trkpt><trkpt lat="44.6841567" lon="8.2028967"><ele>201.0</ele><time>2026-04-25T16:22:59.995Z</time></trkpt><trkpt lat="44.6842883" lon="8.2029467"><ele>200.0</ele><time>2026-04-25T16:23:01.001Z</time></trkpt><trkpt lat="44.68442" lon="8.2029933"><ele>199.75</ele><time>2026-04-25T16:23:01.997Z</time></trkpt><trkpt lat="44.6845567" lon="8.2030417"><ele>199.5</ele><time>2026-04-25T16:23:02.994Z</time></trkpt><trkpt lat="44.6846917" lon="8.2030917"><ele>199.25</ele><time>2026-04-25T16:23:03.994Z</time></trkpt><trkpt lat="44.6848283" lon="8.203145"><ele>199.0</ele><time>2026-04-25T16:23:04.992Z</time></trkpt><trkpt lat="44.684965" lon="8.2031967"><ele>199.0</ele><time>2026-04-25T16:23:05.995Z</time></trkpt><trkpt lat="44.6851" lon="8.20325"><ele>199.0</ele><time>2026-04-25T16:23:06.996Z</time></trkpt><trkpt lat="44.68524" lon="8.2033083"><ele>199.0</ele><time>2026-04-25T16:23:07.995Z</time></trkpt><trkpt lat="44.6853767" lon="8.203365"><ele>199.0</ele><time>2026-04-25T16:23:08.999Z</time></trkpt><trkpt lat="44.6855233" lon="8.20342"><ele>198.33333333333331</ele><time>2026-04-25T16:23:09.995Z</time></trkpt><trkpt lat="44.6856717" lon="8.203475"><ele>197.66666666666669</ele><time>2026-04-25T16:23:10.992Z</time></trkpt><trkpt lat="44.6858167" lon="8.2035317"><ele>197.0</ele><time>2026-04-25T16:23:11.996Z</time></trkpt><trkpt lat="44.685965" lon="8.2035917"><ele>197.0</ele><time>2026-04-25T16:23:12.998Z</time></trkpt><trkpt lat="44.6861183" lon="8.2036467"><ele>197.0</ele><time>2026-04-25T16:23:14Z</time></trkpt><trkpt lat="44.6862767" lon="8.203705"><ele>197.0</ele><time>2026-04-25T16:23:14.995Z</time></trkpt><trkpt lat="44.6864367" lon="8.203765"><ele>197.0</ele><time>2026-04-25T16:23:15.995Z</time></trkpt><trkpt lat="44.686605" lon="8.20383"><ele>197.0</ele><time>2026-04-25T16:23:17Z</time></trkpt><trkpt lat="44.6867733" lon="8.2038967"><ele>197.0</ele><time>2026-04-25T16:23:17.998Z</time></trkpt><trkpt lat="44.6869467" lon="8.20396"><ele>197.0</ele><time>2026-04-25T16:23:18.995Z</time></trkpt><trkpt lat="44.6871183" lon="8.2040267"><ele>197.0</ele><time>2026-04-25T16:23:19.996Z</time></trkpt><trkpt lat="44.6872817" lon="8.2040933"><ele>197.0</ele><time>2026-04-25T16:23:20.993Z</time></trkpt><trkpt lat="44.6874483" lon="8.2041583"><ele>197.0</ele><time>2026-04-25T16:23:21.994Z</time></trkpt><trkpt lat="44.6876083" lon="8.204225"><ele>197.0</ele><time>2026-04-25T16:23:22.996Z</time></trkpt><trkpt lat="44.6877683" lon="8.2042867"><ele>197.0</ele><time>2026-04-25T16:23:23.992Z</time></trkpt><trkpt lat="44.6879217" lon="8.2043467"><ele>196.33333333333334</ele><time>2026-04-25T16:23:24.997Z</time></trkpt><trkpt lat="44.6880767" lon="8.204405"><ele>195.66666666666669</ele><time>2026-04-25T16:23:25.993Z</time></trkpt><trkpt lat="44.6882267" lon="8.204465"><ele>195.0</ele><time>2026-04-25T16:23:27Z</time></trkpt><trkpt lat="44.6883683" lon="8.2045217"><ele>195.0</ele><time>2026-04-25T16:23:27.994Z</time></trkpt><trkpt lat="44.688515" lon="8.20458"><ele>195.0</ele><time>2026-04-25T16:23:28.999Z</time></trkpt><trkpt lat="44.688665" lon="8.2046383"><ele>195.0</ele><time>2026-04-25T16:23:29.993Z</time></trkpt><trkpt lat="44.6888083" lon="8.2046983"><ele>194.75</ele><time>2026-04-25T16:23:30.994Z</time></trkpt><trkpt lat="44.688955" lon="8.204755"><ele>194.5</ele><time>2026-04-25T16:23:31.999Z</time></trkpt><trkpt lat="44.6890933" lon="8.2048133"><ele>194.25</ele><time>2026-04-25T16:23:32.998Z</time></trkpt><trkpt lat="44.68924" lon="8.2048717"><ele>194.0</ele><time>2026-04-25T16:23:33.993Z</time></trkpt><trkpt lat="44.6893917" lon="8.2049267"><ele>195.33333333333334</ele><time>2026-04-25T16:23:34.993Z</time></trkpt><trkpt lat="44.689545" lon="8.2049817"><ele>196.66666666666669</ele><time>2026-04-25T16:23:35.993Z</time></trkpt><trkpt lat="44.6897" lon="8.2050367"><ele>198.0</ele><time>2026-04-25T16:23:36.993Z</time></trkpt><trkpt lat="44.689855" lon="8.2050983"><ele>198.0</ele><time>2026-04-25T16:23:37.996Z</time></trkpt><trkpt lat="44.6900067" lon="8.2051767"><ele>198.0</ele><time>2026-04-25T16:23:38.994Z</time></trkpt><trkpt lat="44.69016" lon="8.2052683"><ele>198.0</ele><time>2026-04-25T16:23:39.995Z</time></trkpt><trkpt lat="44.6903083" lon="8.2053733"><ele>196.66666666666669</ele><time>2026-04-25T16:23:41.004Z</time></trkpt><trkpt lat="44.6904467" lon="8.2054917"><ele>195.33333333333334</ele><time>2026-04-25T16:23:41.994Z</time></trkpt><trkpt lat="44.6905867" lon="8.2056117"><ele>194.0</ele><time>2026-04-25T16:23:42.996Z</time></trkpt><trkpt lat="44.6907283" lon="8.2057283"><ele>194.0</ele><time>2026-04-25T16:23:43.994Z</time></trkpt><trkpt lat="44.6908683" lon="8.205845"><ele>194.0</ele><time>2026-04-25T16:23:44.997Z</time></trkpt><trkpt lat="44.69101" lon="8.2059683"><ele>194.0</ele><time>2026-04-25T16:23:45.995Z</time></trkpt><trkpt lat="44.6911517" lon="8.2060917"><ele>192.0</ele><time>2026-04-25T16:23:46.994Z</time></trkpt><trkpt lat="44.6912933" lon="8.2062167"><ele>190.0</ele><time>2026-04-25T16:23:48Z</time></trkpt><trkpt lat="44.6914383" lon="8.20634"><ele>188.0</ele><time>2026-04-25T16:23:48.994Z</time></trkpt><trkpt lat="44.691585" lon="8.2064583"><ele>188.66666666666666</ele><time>2026-04-25T16:23:49.995Z</time></trkpt><trkpt lat="44.6917317" lon="8.2065783"><ele>189.33333333333334</ele><time>2026-04-25T16:23:50.992Z</time></trkpt><trkpt lat="44.6918717" lon="8.2067"><ele>190.0</ele><time>2026-04-25T16:23:51.995Z</time></trkpt><trkpt lat="44.6920033" lon="8.20682"><ele>190.0</ele><time>2026-04-25T16:23:52.994Z</time></trkpt><trkpt lat="44.6921333" lon="8.2069333"><ele>190.0</ele><time>2026-04-25T16:23:53.995Z</time></trkpt><trkpt lat="44.692265" lon="8.2070417"><ele>190.0</ele><time>2026-04-25T16:23:54.998Z</time></trkpt><trkpt lat="44.6923867" lon="8.20716"><ele>190.0</ele><time>2026-04-25T16:23:55.996Z</time></trkpt><trkpt lat="44.6925067" lon="8.207275"><ele>190.0</ele><time>2026-04-25T16:23:56.997Z</time></trkpt><trkpt lat="44.692625" lon="8.2073917"><ele>190.0</ele><time>2026-04-25T16:23:57.991Z</time></trkpt><trkpt lat="44.6927383" lon="8.207515"><ele>190.0</ele><time>2026-04-25T16:23:58.992Z</time></trkpt><trkpt lat="44.6928483" lon="8.207645"><ele>189.75</ele><time>2026-04-25T16:24:00.005Z</time></trkpt><trkpt lat="44.69294" lon="8.2077967"><ele>189.5</ele><time>2026-04-25T16:24:00.994Z</time></trkpt><trkpt lat="44.6930383" lon="8.2079433"><ele>189.25</ele><time>2026-04-25T16:24:01.994Z</time></trkpt><trkpt lat="44.693145" lon="8.2080783"><ele>189.0</ele><time>2026-04-25T16:24:03.001Z</time></trkpt><trkpt lat="44.69325" lon="8.2082133"><ele>190.0</ele><time>2026-04-25T16:24:03.996Z</time></trkpt><trkpt lat="44.693355" lon="8.20835"><ele>191.0</ele><time>2026-04-25T16:24:04.995Z</time></trkpt><trkpt lat="44.693465" lon="8.20849"><ele>192.0</ele><time>2026-04-25T16:24:06Z</time></trkpt><trkpt lat="44.6935717" lon="8.208635"><ele>193.0</ele><time>2026-04-25T16:24:06.997Z</time></trkpt><trkpt lat="44.69368" lon="8.2087833"><ele>192.33333333333331</ele><time>2026-04-25T16:24:07.995Z</time></trkpt><trkpt lat="44.6937867" lon="8.2089317"><ele>191.66666666666666</ele><time>2026-04-25T16:24:08.993Z</time></trkpt><trkpt lat="44.6938983" lon="8.2090833"><ele>191.0</ele><time>2026-04-25T16:24:09.994Z</time></trkpt><trkpt lat="44.6940117" lon="8.2092417"><ele>191.0</ele><time>2026-04-25T16:24:10.993Z</time></trkpt><trkpt lat="44.6941317" lon="8.2094"><ele>191.0</ele><time>2026-04-25T16:24:11.997Z</time></trkpt><trkpt lat="44.6942483" lon="8.2095717"><ele>191.0</ele><time>2026-04-25T16:24:12.996Z</time></trkpt><trkpt lat="44.6943683" lon="8.20974"><ele>191.0</ele><time>2026-04-25T16:24:13.998Z</time></trkpt><trkpt lat="44.6944883" lon="8.2099117"><ele>191.0</ele><time>2026-04-25T16:24:15.002Z</time></trkpt><trkpt lat="44.6946167" lon="8.2100783"><ele>191.0</ele><time>2026-04-25T16:24:15.995Z</time></trkpt><trkpt lat="44.6947383" lon="8.2102567"><ele>191.0</ele><time>2026-04-25T16:24:16.995Z</time></trkpt><trkpt lat="44.6948583" lon="8.2104367"><ele>191.0</ele><time>2026-04-25T16:24:17.995Z</time></trkpt><trkpt lat="44.6949767" lon="8.210615"><ele>191.0</ele><time>2026-04-25T16:24:18.992Z</time></trkpt><trkpt lat="44.6950917" lon="8.2107833"><ele>190.0</ele><time>2026-04-25T16:24:19.996Z</time></trkpt><trkpt lat="44.6952" lon="8.21095"><ele>189.0</ele><time>2026-04-25T16:24:21.001Z</time></trkpt><trkpt lat="44.6953067" lon="8.2111133"><ele>188.0</ele><time>2026-04-25T16:24:21.993Z</time></trkpt><trkpt lat="44.69541" lon="8.21128"><ele>188.0</ele><time>2026-04-25T16:24:22.999Z</time></trkpt><trkpt lat="44.6955167" lon="8.211445"><ele>188.0</ele><time>2026-04-25T16:24:23.992Z</time></trkpt><trkpt lat="44.6956267" lon="8.2116133"><ele>188.0</ele><time>2026-04-25T16:24:24.999Z</time></trkpt><trkpt lat="44.69574" lon="8.2117817"><ele>188.0</ele><time>2026-04-25T16:24:26.003Z</time></trkpt><trkpt lat="44.6958567" lon="8.2119483"><ele>188.0</ele><time>2026-04-25T16:24:26.996Z</time></trkpt><trkpt lat="44.69598" lon="8.2121183"><ele>188.0</ele><time>2026-04-25T16:24:27.993Z</time></trkpt><trkpt lat="44.6961033" lon="8.2122883"><ele>186.0</ele><time>2026-04-25T16:24:28.999Z</time></trkpt><trkpt lat="44.6962283" lon="8.212465"><ele>184.0</ele><time>2026-04-25T16:24:29.995Z</time></trkpt><trkpt lat="44.696355" lon="8.212645"><ele>182.0</ele><time>2026-04-25T16:24:30.997Z</time></trkpt><trkpt lat="44.6964833" lon="8.212825"><ele>182.0</ele><time>2026-04-25T16:24:31.994Z</time></trkpt><trkpt lat="44.6966117" lon="8.2130033"><ele>182.0</ele><time>2026-04-25T16:24:33.001Z</time></trkpt><trkpt lat="44.6967383" lon="8.2131833"><ele>182.0</ele><time>2026-04-25T16:24:33.993Z</time></trkpt><trkpt lat="44.696865" lon="8.2133617"><ele>182.0</ele><time>2026-04-25T16:24:34.996Z</time></trkpt><trkpt lat="44.69699" lon="8.213545"><ele>182.0</ele><time>2026-04-25T16:24:35.993Z</time></trkpt><trkpt lat="44.6971133" lon="8.2137217"><ele>182.0</ele><time>2026-04-25T16:24:36.993Z</time></trkpt><trkpt lat="44.697235" lon="8.2138967"><ele>181.0</ele><time>2026-04-25T16:24:37.995Z</time></trkpt><trkpt lat="44.6973533" lon="8.2140717"><ele>180.0</ele><time>2026-04-25T16:24:38.996Z</time></trkpt><trkpt lat="44.6974717" lon="8.2142367"><ele>179.0</ele><time>2026-04-25T16:24:39.996Z</time></trkpt><trkpt lat="44.697585" lon="8.2144"><ele>179.0</ele><time>2026-04-25T16:24:40.996Z</time></trkpt><trkpt lat="44.6976967" lon="8.21457"><ele>179.0</ele><time>2026-04-25T16:24:41.995Z</time></trkpt><trkpt lat="44.69781" lon="8.2147333"><ele>179.0</ele><time>2026-04-25T16:24:42.996Z</time></trkpt><trkpt lat="44.697925" lon="8.2148967"><ele>179.66666666666666</ele><time>2026-04-25T16:24:44.002Z</time></trkpt><trkpt lat="44.6980383" lon="8.2150583"><ele>180.33333333333334</ele><time>2026-04-25T16:24:45.003Z</time></trkpt><trkpt lat="44.6981517" lon="8.2152217"><ele>181.0</ele><time>2026-04-25T16:24:45.998Z</time></trkpt><trkpt lat="44.6982633" lon="8.215385"><ele>181.0</ele><time>2026-04-25T16:24:46.995Z</time></trkpt><trkpt lat="44.698375" lon="8.2155467"><ele>181.0</ele><time>2026-04-25T16:24:47.996Z</time></trkpt><trkpt lat="44.698485" lon="8.21571"><ele>181.0</ele><time>2026-04-25T16:24:48.995Z</time></trkpt><trkpt lat="44.698595" lon="8.215875"><ele>181.0</ele><time>2026-04-25T16:24:49.994Z</time></trkpt><trkpt lat="44.698705" lon="8.216035"><ele>181.0</ele><time>2026-04-25T16:24:51.002Z</time></trkpt><trkpt lat="44.6988117" lon="8.216185"><ele>181.0</ele><time>2026-04-25T16:24:51.992Z</time></trkpt><trkpt lat="44.69891" lon="8.2163317"><ele>181.0</ele><time>2026-04-25T16:24:52.995Z</time></trkpt><trkpt lat="44.6990067" lon="8.216475"><ele>181.0</ele><time>2026-04-25T16:24:53.993Z</time></trkpt><trkpt lat="44.6991017" lon="8.216615"><ele>181.0</ele><time>2026-04-25T16:24:54.995Z</time></trkpt><trkpt lat="44.6991933" lon="8.2167533"><ele>181.0</ele><time>2026-04-25T16:24:55.993Z</time></trkpt><trkpt lat="44.699285" lon="8.2168867"><ele>181.0</ele><time>2026-04-25T16:24:56.995Z</time></trkpt><trkpt lat="44.699375" lon="8.2170217"><ele>181.0</ele><time>2026-04-25T16:24:57.994Z</time></trkpt><trkpt lat="44.6994667" lon="8.21716"><ele>181.0</ele><time>2026-04-25T16:24:58.995Z</time></trkpt><trkpt lat="44.69956" lon="8.2172967"><ele>181.0</ele><time>2026-04-25T16:24:59.996Z</time></trkpt><trkpt lat="44.6996533" lon="8.2174333"><ele>181.0</ele><time>2026-04-25T16:25:00.999Z</time></trkpt><trkpt lat="44.6997467" lon="8.21757"><ele>181.0</ele><time>2026-04-25T16:25:01.993Z</time></trkpt><trkpt lat="44.6998417" lon="8.2177033"><ele>181.0</ele><time>2026-04-25T16:25:02.998Z</time></trkpt><trkpt lat="44.6999333" lon="8.21784"><ele>181.0</ele><time>2026-04-25T16:25:03.994Z</time></trkpt><trkpt lat="44.7000233" lon="8.2179833"><ele>181.0</ele><time>2026-04-25T16:25:05Z</time></trkpt><trkpt lat="44.700115" lon="8.2181233"><ele>181.0</ele><time>2026-04-25T16:25:05.993Z</time></trkpt><trkpt lat="44.70021" lon="8.2182583"><ele>181.0</ele><time>2026-04-25T16:25:07Z</time></trkpt><trkpt lat="44.700305" lon="8.2183883"><ele>181.0</ele><time>2026-04-25T16:25:07.996Z</time></trkpt><trkpt lat="44.7004017" lon="8.218515"><ele>181.0</ele><time>2026-04-25T16:25:09Z</time></trkpt><trkpt lat="44.7004983" lon="8.2186417"><ele>181.0</ele><time>2026-04-25T16:25:09.995Z</time></trkpt><trkpt lat="44.70059" lon="8.2187767"><ele>181.0</ele><time>2026-04-25T16:25:10.997Z</time></trkpt><trkpt lat="44.700675" lon="8.2189183"><ele>181.0</ele><time>2026-04-25T16:25:11.996Z</time></trkpt><trkpt lat="44.700765" lon="8.2190533"><ele>180.75</ele><time>2026-04-25T16:25:13.002Z</time></trkpt><trkpt lat="44.7008567" lon="8.2191867"><ele>180.5</ele><time>2026-04-25T16:25:13.996Z</time></trkpt><trkpt lat="44.7009517" lon="8.219315"><ele>180.25</ele><time>2026-04-25T16:25:14.993Z</time></trkpt><trkpt lat="44.7010433" lon="8.2194483"><ele>180.0</ele><time>2026-04-25T16:25:15.996Z</time></trkpt><trkpt lat="44.7011333" lon="8.219585"><ele>179.5</ele><time>2026-04-25T16:25:16.995Z</time></trkpt><trkpt lat="44.7012233" lon="8.2197233"><ele>179.0</ele><time>2026-04-25T16:25:18Z</time></trkpt><trkpt lat="44.7013167" lon="8.2198567"><ele>178.5</ele><time>2026-04-25T16:25:18.997Z</time></trkpt><trkpt lat="44.7014133" lon="8.2199933"><ele>178.0</ele><time>2026-04-25T16:25:19.996Z</time></trkpt><trkpt lat="44.7015167" lon="8.2201317"><ele>178.0</ele><time>2026-04-25T16:25:20.999Z</time></trkpt><trkpt lat="44.7016183" lon="8.220275"><ele>178.0</ele><time>2026-04-25T16:25:21.997Z</time></trkpt><trkpt lat="44.7017183" lon="8.2204217"><ele>178.0</ele><time>2026-04-25T16:25:22.995Z</time></trkpt><trkpt lat="44.7018233" lon="8.2205667"><ele>178.0</ele><time>2026-04-25T16:25:23.999Z</time></trkpt><trkpt lat="44.7019233" lon="8.2207167"><ele>178.0</ele><time>2026-04-25T16:25:24.995Z</time></trkpt><trkpt lat="44.7020267" lon="8.2208617"><ele>178.0</ele><time>2026-04-25T16:25:25.994Z</time></trkpt><trkpt lat="44.70213" lon="8.2210083"><ele>178.0</ele><time>2026-04-25T16:25:26.998Z</time></trkpt><trkpt lat="44.70223" lon="8.2211583"><ele>178.0</ele><time>2026-04-25T16:25:27.997Z</time></trkpt><trkpt lat="44.7023283" lon="8.221305"><ele>178.0</ele><time>2026-04-25T16:25:28.999Z</time></trkpt><trkpt lat="44.702425" lon="8.2214483"><ele>178.0</ele><time>2026-04-25T16:25:30.008Z</time></trkpt><trkpt lat="44.702515" lon="8.221595"><ele>178.0</ele><time>2026-04-25T16:25:30.994Z</time></trkpt><trkpt lat="44.7026083" lon="8.2217383"><ele>178.0</ele><time>2026-04-25T16:25:31.994Z</time></trkpt><trkpt lat="44.7027" lon="8.2218733"><ele>177.5</ele><time>2026-04-25T16:25:32.993Z</time></trkpt><trkpt lat="44.70279" lon="8.2220083"><ele>177.0</ele><time>2026-04-25T16:25:33.996Z</time></trkpt><trkpt lat="44.70288" lon="8.2221433"><ele>176.5</ele><time>2026-04-25T16:25:34.996Z</time></trkpt><trkpt lat="44.7029683" lon="8.2222767"><ele>176.0</ele><time>2026-04-25T16:25:35.994Z</time></trkpt><trkpt lat="44.7030583" lon="8.2224117"><ele>176.0</ele><time>2026-04-25T16:25:36.999Z</time></trkpt><trkpt lat="44.7031483" lon="8.2225467"><ele>176.0</ele><time>2026-04-25T16:25:37.994Z</time></trkpt><trkpt lat="44.7032417" lon="8.2226767"><ele>176.0</ele><time>2026-04-25T16:25:38.992Z</time></trkpt><trkpt lat="44.7033333" lon="8.2228067"><ele>176.0</ele><time>2026-04-25T16:25:39.995Z</time></trkpt><trkpt lat="44.7034267" lon="8.2229367"><ele>176.0</ele><time>2026-04-25T16:25:40.992Z</time></trkpt><trkpt lat="44.7035217" lon="8.2230717"><ele>176.0</ele><time>2026-04-25T16:25:41.994Z</time></trkpt><trkpt lat="44.703615" lon="8.2232033"><ele>176.0</ele><time>2026-04-25T16:25:43.004Z</time></trkpt><trkpt lat="44.7037117" lon="8.2233317"><ele>176.0</ele><time>2026-04-25T16:25:43.994Z</time></trkpt><trkpt lat="44.7038033" lon="8.2234633"><ele>175.75</ele><time>2026-04-25T16:25:44.994Z</time></trkpt><trkpt lat="44.7038933" lon="8.223595"><ele>175.5</ele><time>2026-04-25T16:25:45.999Z</time></trkpt><trkpt lat="44.7039817" lon="8.223725"><ele>175.25</ele><time>2026-04-25T16:25:46.996Z</time></trkpt><trkpt lat="44.70407" lon="8.223855"><ele>175.0</ele><time>2026-04-25T16:25:47.996Z</time></trkpt><trkpt lat="44.70416" lon="8.2239833"><ele>175.5</ele><time>2026-04-25T16:25:48.997Z</time></trkpt><trkpt lat="44.7042483" lon="8.2241117"><ele>176.0</ele><time>2026-04-25T16:25:49.993Z</time></trkpt><trkpt lat="44.7043283" lon="8.2242433"><ele>176.5</ele><time>2026-04-25T16:25:50.996Z</time></trkpt><trkpt lat="44.7044183" lon="8.2243717"><ele>177.0</ele><time>2026-04-25T16:25:51.996Z</time></trkpt><trkpt lat="44.704505" lon="8.2245"><ele>176.75</ele><time>2026-04-25T16:25:52.991Z</time></trkpt><trkpt lat="44.7045917" lon="8.2246333"><ele>176.5</ele><time>2026-04-25T16:25:53.994Z</time></trkpt><trkpt lat="44.7046783" lon="8.22477"><ele>176.25</ele><time>2026-04-25T16:25:54.995Z</time></trkpt><trkpt lat="44.7047667" lon="8.2248967"><ele>176.0</ele><time>2026-04-25T16:25:55.996Z</time></trkpt><trkpt lat="44.7048483" lon="8.2250267"><ele>176.0</ele><time>2026-04-25T16:25:56.997Z</time></trkpt><trkpt lat="44.7049317" lon="8.2251567"><ele>176.0</ele><time>2026-04-25T16:25:57.997Z</time></trkpt><trkpt lat="44.7050217" lon="8.2252867"><ele>176.0</ele><time>2026-04-25T16:25:58.994Z</time></trkpt><trkpt lat="44.70511" lon="8.2254133"><ele>176.0</ele><time>2026-04-25T16:25:59.998Z</time></trkpt><trkpt lat="44.705195" lon="8.2255467"><ele>175.75</ele><time>2026-04-25T16:26:00.996Z</time></trkpt><trkpt lat="44.7052817" lon="8.22567"><ele>175.5</ele><time>2026-04-25T16:26:01.994Z</time></trkpt><trkpt lat="44.7053617" lon="8.2258033"><ele>175.25</ele><time>2026-04-25T16:26:02.994Z</time></trkpt><trkpt lat="44.70544" lon="8.225945"><ele>175.0</ele><time>2026-04-25T16:26:04.003Z</time></trkpt><trkpt lat="44.70553" lon="8.226075"><ele>175.0</ele><time>2026-04-25T16:26:04.995Z</time></trkpt><trkpt lat="44.7056183" lon="8.2262033"><ele>175.0</ele><time>2026-04-25T16:26:05.997Z</time></trkpt><trkpt lat="44.7057167" lon="8.2263283"><ele>175.0</ele><time>2026-04-25T16:26:06.993Z</time></trkpt><trkpt lat="44.7058067" lon="8.2264567"><ele>175.0</ele><time>2026-04-25T16:26:07.993Z</time></trkpt><trkpt lat="44.705895" lon="8.2265767"><ele>175.5</ele><time>2026-04-25T16:26:08.992Z</time></trkpt><trkpt lat="44.705985" lon="8.2266967"><ele>176.0</ele><time>2026-04-25T16:26:09.994Z</time></trkpt><trkpt lat="44.70607" lon="8.226815"><ele>176.5</ele><time>2026-04-25T16:26:10.996Z</time></trkpt><trkpt lat="44.706145" lon="8.2269367"><ele>177.0</ele><time>2026-04-25T16:26:11.992Z</time></trkpt><trkpt lat="44.7062117" lon="8.22707"><ele>176.25</ele><time>2026-04-25T16:26:12.999Z</time></trkpt><trkpt lat="44.70628" lon="8.2272017"><ele>175.5</ele><time>2026-04-25T16:26:13.993Z</time></trkpt><trkpt lat="44.7063583" lon="8.2273217"><ele>174.75</ele><time>2026-04-25T16:26:14.999Z</time></trkpt><trkpt lat="44.70643" lon="8.2274467"><ele>174.0</ele><time>2026-04-25T16:26:16Z</time></trkpt><trkpt lat="44.7065167" lon="8.227565"><ele>174.0</ele><time>2026-04-25T16:26:16.997Z</time></trkpt><trkpt lat="44.7066067" lon="8.2276833"><ele>174.0</ele><time>2026-04-25T16:26:17.997Z</time></trkpt><trkpt lat="44.70668" lon="8.2278117"><ele>174.0</ele><time>2026-04-25T16:26:18.999Z</time></trkpt><trkpt lat="44.7067667" lon="8.2279267"><ele>174.0</ele><time>2026-04-25T16:26:20Z</time></trkpt><trkpt lat="44.7068567" lon="8.2280417"><ele>173.75</ele><time>2026-04-25T16:26:20.996Z</time></trkpt><trkpt lat="44.7069433" lon="8.2281517"><ele>173.5</ele><time>2026-04-25T16:26:21.995Z</time></trkpt><trkpt lat="44.7070283" lon="8.2282583"><ele>173.25</ele><time>2026-04-25T16:26:22.993Z</time></trkpt><trkpt lat="44.7071283" lon="8.2283467"><ele>173.0</ele><time>2026-04-25T16:26:23.993Z</time></trkpt><trkpt lat="44.70721" lon="8.2284567"><ele>173.0</ele><time>2026-04-25T16:26:25.007Z</time></trkpt><trkpt lat="44.7072867" lon="8.22857"><ele>173.0</ele><time>2026-04-25T16:26:25.999Z</time></trkpt><trkpt lat="44.707365" lon="8.22868"><ele>173.0</ele><time>2026-04-25T16:26:27.002Z</time></trkpt><trkpt lat="44.707445" lon="8.2287867"><ele>173.0</ele><time>2026-04-25T16:26:27.999Z</time></trkpt><trkpt lat="44.7075217" lon="8.2288967"><ele>173.0</ele><time>2026-04-25T16:26:28.997Z</time></trkpt><trkpt lat="44.7075933" lon="8.229005"><ele>173.0</ele><time>2026-04-25T16:26:29.999Z</time></trkpt><trkpt lat="44.70766" lon="8.2291083"><ele>173.0</ele><time>2026-04-25T16:26:30.999Z</time></trkpt><trkpt lat="44.7077317" lon="8.2292083"><ele>173.0</ele><time>2026-04-25T16:26:31.999Z</time></trkpt><trkpt lat="44.7077983" lon="8.22931"><ele>173.0</ele><time>2026-04-25T16:26:32.997Z</time></trkpt><trkpt lat="44.7078617" lon="8.2294083"><ele>173.0</ele><time>2026-04-25T16:26:34.001Z</time></trkpt><trkpt lat="44.707925" lon="8.2295083"><ele>173.0</ele><time>2026-04-25T16:26:35Z</time></trkpt><trkpt lat="44.7079933" lon="8.2296033"><ele>173.0</ele><time>2026-04-25T16:26:35.994Z</time></trkpt><trkpt lat="44.7080567" lon="8.2297017"><ele>173.0</ele><time>2026-04-25T16:26:37.002Z</time></trkpt><trkpt lat="44.708125" lon="8.2298"><ele>173.0</ele><time>2026-04-25T16:26:37.994Z</time></trkpt><trkpt lat="44.70819" lon="8.2298967"><ele>173.0</ele><time>2026-04-25T16:26:38.995Z</time></trkpt><trkpt lat="44.70825" lon="8.2299933"><ele>173.0</ele><time>2026-04-25T16:26:39.993Z</time></trkpt><trkpt lat="44.7083067" lon="8.23008"><ele>173.0</ele><time>2026-04-25T16:26:40.996Z</time></trkpt><trkpt lat="44.7083617" lon="8.23016"><ele>173.0</ele><time>2026-04-25T16:26:42Z</time></trkpt><trkpt lat="44.70841" lon="8.2302367"><ele>173.0</ele><time>2026-04-25T16:26:42.996Z</time></trkpt><trkpt lat="44.7084633" lon="8.2302933"><ele>173.0</ele><time>2026-04-25T16:26:43.997Z</time></trkpt><trkpt lat="44.7085767" lon="8.23035"><ele>173.0</ele><time>2026-04-25T16:26:46.002Z</time></trkpt><trkpt lat="44.7087067" lon="8.2302883"><ele>172.4</ele><time>2026-04-25T16:26:47.999Z</time></trkpt><trkpt lat="44.7087833" lon="8.2302267"><ele>171.8</ele><time>2026-04-25T16:26:48.995Z</time></trkpt><trkpt lat="44.7088517" lon="8.2301317"><ele>171.2</ele><time>2026-04-25T16:26:49.998Z</time></trkpt><trkpt lat="44.70891" lon="8.2300183"><ele>170.6</ele><time>2026-04-25T16:26:50.997Z</time></trkpt><trkpt lat="44.708985" lon="8.2299167"><ele>170.0</ele><time>2026-04-25T16:26:51.994Z</time></trkpt><trkpt lat="44.70906" lon="8.22982"><ele>170.0</ele><time>2026-04-25T16:26:52.994Z</time></trkpt><trkpt lat="44.70913" lon="8.22971"><ele>170.0</ele><time>2026-04-25T16:26:53.993Z</time></trkpt><trkpt lat="44.70921" lon="8.2295967"><ele>170.0</ele><time>2026-04-25T16:26:55Z</time></trkpt><trkpt lat="44.7092883" lon="8.2294933"><ele>170.0</ele><time>2026-04-25T16:26:55.993Z</time></trkpt><trkpt lat="44.7093717" lon="8.2293917"><ele>170.0</ele><time>2026-04-25T16:26:56.994Z</time></trkpt><trkpt lat="44.709455" lon="8.2292917"><ele>170.0</ele><time>2026-04-25T16:26:57.997Z</time></trkpt><trkpt lat="44.7095367" lon="8.22919"><ele>170.0</ele><time>2026-04-25T16:26:58.993Z</time></trkpt><trkpt lat="44.7096183" lon="8.2290883"><ele>170.0</ele><time>2026-04-25T16:26:59.998Z</time></trkpt><trkpt lat="44.7096933" lon="8.2289833"><ele>170.0</ele><time>2026-04-25T16:27:00.994Z</time></trkpt><trkpt lat="44.7097683" lon="8.22888"><ele>170.0</ele><time>2026-04-25T16:27:01.994Z</time></trkpt><trkpt lat="44.7098467" lon="8.228775"><ele>170.2</ele><time>2026-04-25T16:27:02.996Z</time></trkpt><trkpt lat="44.7099267" lon="8.2286733"><ele>170.4</ele><time>2026-04-25T16:27:03.995Z</time></trkpt><trkpt lat="44.7100083" lon="8.2285667"><ele>170.60000000000002</ele><time>2026-04-25T16:27:04.996Z</time></trkpt><trkpt lat="44.7100917" lon="8.228465"><ele>170.8</ele><time>2026-04-25T16:27:05.998Z</time></trkpt><trkpt lat="44.7101733" lon="8.22838"><ele>171.0</ele><time>2026-04-25T16:27:06.997Z</time></trkpt><trkpt lat="44.7102633" lon="8.22832"><ele>172.4</ele><time>2026-04-25T16:27:07.997Z</time></trkpt><trkpt lat="44.7103583" lon="8.228315"><ele>173.8</ele><time>2026-04-25T16:27:09.004Z</time></trkpt><trkpt lat="44.71045" lon="8.2283233"><ele>175.20000000000002</ele><time>2026-04-25T16:27:09.998Z</time></trkpt><trkpt lat="44.7105417" lon="8.2284183"><ele>176.60000000000002</ele><time>2026-04-25T16:27:10.995Z</time></trkpt><trkpt lat="44.7106317" lon="8.2285383"><ele>178.0</ele><time>2026-04-25T16:27:11.998Z</time></trkpt><trkpt lat="44.71071" lon="8.2286733"><ele>178.0</ele><time>2026-04-25T16:27:12.997Z</time></trkpt><trkpt lat="44.71079" lon="8.2288117"><ele>178.0</ele><time>2026-04-25T16:27:13.994Z</time></trkpt><trkpt lat="44.7108683" lon="8.22896"><ele>178.0</ele><time>2026-04-25T16:27:14.995Z</time></trkpt><trkpt lat="44.7109433" lon="8.2291117"><ele>178.0</ele><time>2026-04-25T16:27:15.994Z</time></trkpt><trkpt lat="44.7110183" lon="8.2292667"><ele>178.5</ele><time>2026-04-25T16:27:16.998Z</time></trkpt><trkpt lat="44.7110933" lon="8.22942"><ele>179.0</ele><time>2026-04-25T16:27:17.999Z</time></trkpt><trkpt lat="44.7111633" lon="8.2295817"><ele>179.5</ele><time>2026-04-25T16:27:18.996Z</time></trkpt><trkpt lat="44.7112367" lon="8.229735"><ele>180.0</ele><time>2026-04-25T16:27:19.998Z</time></trkpt><trkpt lat="44.7113033" lon="8.2298967"><ele>179.0</ele><time>2026-04-25T16:27:20.996Z</time></trkpt><trkpt lat="44.7113683" lon="8.230065"><ele>178.0</ele><time>2026-04-25T16:27:21.994Z</time></trkpt><trkpt lat="44.7114433" lon="8.2302167"><ele>177.0</ele><time>2026-04-25T16:27:23Z</time></trkpt><trkpt lat="44.7115183" lon="8.2303683"><ele>176.0</ele><time>2026-04-25T16:27:24Z</time></trkpt><trkpt lat="44.7115917" lon="8.2305233"><ele>174.75</ele><time>2026-04-25T16:27:25.003Z</time></trkpt><trkpt lat="44.7116667" lon="8.2306733"><ele>173.5</ele><time>2026-04-25T16:27:25.995Z</time></trkpt><trkpt lat="44.711745" lon="8.2308167"><ele>172.25</ele><time>2026-04-25T16:27:26.998Z</time></trkpt><trkpt lat="44.7118217" lon="8.2309633"><ele>171.0</ele><time>2026-04-25T16:27:27.993Z</time></trkpt><trkpt lat="44.711895" lon="8.2311083"><ele>171.5</ele><time>2026-04-25T16:27:28.996Z</time></trkpt><trkpt lat="44.71197" lon="8.2312483"><ele>172.0</ele><time>2026-04-25T16:27:29.995Z</time></trkpt><trkpt lat="44.7120417" lon="8.2313933"><ele>172.5</ele><time>2026-04-25T16:27:30.996Z</time></trkpt><trkpt lat="44.7121117" lon="8.2315433"><ele>173.0</ele><time>2026-04-25T16:27:31.996Z</time></trkpt><trkpt lat="44.7121883" lon="8.2316867"><ele>173.0</ele><time>2026-04-25T16:27:32.998Z</time></trkpt><trkpt lat="44.7122667" lon="8.2318283"><ele>173.0</ele><time>2026-04-25T16:27:33.994Z</time></trkpt><trkpt lat="44.7123483" lon="8.231965"><ele>173.0</ele><time>2026-04-25T16:27:34.994Z</time></trkpt><trkpt lat="44.712425" lon="8.2321067"><ele>173.0</ele><time>2026-04-25T16:27:35.994Z</time></trkpt><trkpt lat="44.7125" lon="8.2322483"><ele>172.0</ele><time>2026-04-25T16:27:36.996Z</time></trkpt><trkpt lat="44.71257" lon="8.2323867"><ele>171.0</ele><time>2026-04-25T16:27:37.999Z</time></trkpt><trkpt lat="44.7126433" lon="8.232525"><ele>170.0</ele><time>2026-04-25T16:27:38.994Z</time></trkpt><trkpt lat="44.712715" lon="8.232665"><ele>169.0</ele><time>2026-04-25T16:27:39.996Z</time></trkpt><trkpt lat="44.7127883" lon="8.232805"><ele>170.0</ele><time>2026-04-25T16:27:40.991Z</time></trkpt><trkpt lat="44.7128633" lon="8.2329483"><ele>171.0</ele><time>2026-04-25T16:27:41.997Z</time></trkpt><trkpt lat="44.7129367" lon="8.2330933"><ele>172.0</ele><time>2026-04-25T16:27:42.992Z</time></trkpt><trkpt lat="44.7130067" lon="8.2332383"><ele>173.0</ele><time>2026-04-25T16:27:43.992Z</time></trkpt><trkpt lat="44.7130767" lon="8.23338"><ele>173.0</ele><time>2026-04-25T16:27:44.993Z</time></trkpt><trkpt lat="44.7131467" lon="8.2335217"><ele>173.0</ele><time>2026-04-25T16:27:45.997Z</time></trkpt><trkpt lat="44.7132167" lon="8.2336633"><ele>173.0</ele><time>2026-04-25T16:27:46.994Z</time></trkpt><trkpt lat="44.7132867" lon="8.233805"><ele>173.0</ele><time>2026-04-25T16:27:48Z</time></trkpt><trkpt lat="44.7133583" lon="8.2339517"><ele>171.5</ele><time>2026-04-25T16:27:49.001Z</time></trkpt><trkpt lat="44.71343" lon="8.234095"><ele>170.0</ele><time>2026-04-25T16:27:49.996Z</time></trkpt><trkpt lat="44.7135017" lon="8.2342367"><ele>168.5</ele><time>2026-04-25T16:27:50.997Z</time></trkpt><trkpt lat="44.7135733" lon="8.2343717"><ele>167.0</ele><time>2026-04-25T16:27:51.995Z</time></trkpt><trkpt lat="44.713645" lon="8.2345133"><ele>167.75</ele><time>2026-04-25T16:27:52.992Z</time></trkpt><trkpt lat="44.713715" lon="8.234655"><ele>168.5</ele><time>2026-04-25T16:27:53.992Z</time></trkpt><trkpt lat="44.7137883" lon="8.2347983"><ele>169.25</ele><time>2026-04-25T16:27:54.996Z</time></trkpt><trkpt lat="44.7138617" lon="8.23494"><ele>170.0</ele><time>2026-04-25T16:27:56Z</time></trkpt><trkpt lat="44.7139367" lon="8.23508"><ele>170.0</ele><time>2026-04-25T16:27:56.994Z</time></trkpt><trkpt lat="44.71401" lon="8.235225"><ele>170.0</ele><time>2026-04-25T16:27:57.994Z</time></trkpt><trkpt lat="44.7140833" lon="8.235375"><ele>170.0</ele><time>2026-04-25T16:27:58.993Z</time></trkpt><trkpt lat="44.7141617" lon="8.235525"><ele>170.0</ele><time>2026-04-25T16:27:59.992Z</time></trkpt><trkpt lat="44.71424" lon="8.235675"><ele>170.0</ele><time>2026-04-25T16:28:00.997Z</time></trkpt><trkpt lat="44.7143167" lon="8.2358233"><ele>170.0</ele><time>2026-04-25T16:28:01.995Z</time></trkpt><trkpt lat="44.7144" lon="8.2359717"><ele>170.0</ele><time>2026-04-25T16:28:02.993Z</time></trkpt><trkpt lat="44.7144783" lon="8.236125"><ele>170.0</ele><time>2026-04-25T16:28:03.994Z</time></trkpt><trkpt lat="44.7145567" lon="8.2362833"><ele>170.25</ele><time>2026-04-25T16:28:04.998Z</time></trkpt><trkpt lat="44.71464" lon="8.2364367"><ele>170.5</ele><time>2026-04-25T16:28:06.004Z</time></trkpt><trkpt lat="44.7147183" lon="8.236595"><ele>170.75</ele><time>2026-04-25T16:28:07Z</time></trkpt><trkpt lat="44.7147983" lon="8.23675"><ele>171.0</ele><time>2026-04-25T16:28:08.001Z</time></trkpt><trkpt lat="44.7148767" lon="8.2369033"><ele>170.5</ele><time>2026-04-25T16:28:08.999Z</time></trkpt><trkpt lat="44.714955" lon="8.2370467"><ele>170.0</ele><time>2026-04-25T16:28:09.994Z</time></trkpt><trkpt lat="44.7150317" lon="8.2371883"><ele>169.5</ele><time>2026-04-25T16:28:10.997Z</time></trkpt><trkpt lat="44.7151033" lon="8.2373383"><ele>169.0</ele><time>2026-04-25T16:28:11.995Z</time></trkpt><trkpt lat="44.7151783" lon="8.2374783"><ele>169.5</ele><time>2026-04-25T16:28:13.004Z</time></trkpt><trkpt lat="44.7152533" lon="8.2376217"><ele>170.0</ele><time>2026-04-25T16:28:13.995Z</time></trkpt><trkpt lat="44.7153367" lon="8.2377567"><ele>170.5</ele><time>2026-04-25T16:28:14.994Z</time></trkpt><trkpt lat="44.7154233" lon="8.237885"><ele>171.0</ele><time>2026-04-25T16:28:15.996Z</time></trkpt><trkpt lat="44.7155183" lon="8.23801"><ele>171.0</ele><time>2026-04-25T16:28:16.994Z</time></trkpt><trkpt lat="44.715635" lon="8.2381117"><ele>171.0</ele><time>2026-04-25T16:28:17.999Z</time></trkpt><trkpt lat="44.7157567" lon="8.2382"><ele>171.0</ele><time>2026-04-25T16:28:18.995Z</time></trkpt><trkpt lat="44.7158917" lon="8.2382617"><ele>171.0</ele><time>2026-04-25T16:28:19.996Z</time></trkpt><trkpt lat="44.7160367" lon="8.2382983"><ele>169.66666666666666</ele><time>2026-04-25T16:28:20.994Z</time></trkpt><trkpt lat="44.7161967" lon="8.23832"><ele>168.33333333333331</ele><time>2026-04-25T16:28:21.997Z</time></trkpt><trkpt lat="44.7163483" lon="8.23833"><ele>167.0</ele><time>2026-04-25T16:28:22.996Z</time></trkpt><trkpt lat="44.716495" lon="8.238325"><ele>167.0</ele><time>2026-04-25T16:28:23.995Z</time></trkpt><trkpt lat="44.71664" lon="8.2383067"><ele>167.0</ele><time>2026-04-25T16:28:24.996Z</time></trkpt><trkpt lat="44.716775" lon="8.2382867"><ele>167.0</ele><time>2026-04-25T16:28:25.992Z</time></trkpt><trkpt lat="44.7169017" lon="8.2382633"><ele>167.0</ele><time>2026-04-25T16:28:26.997Z</time></trkpt><trkpt lat="44.717025" lon="8.23824"><ele>166.5</ele><time>2026-04-25T16:28:27.998Z</time></trkpt><trkpt lat="44.7171467" lon="8.238225"><ele>166.0</ele><time>2026-04-25T16:28:28.992Z</time></trkpt><trkpt lat="44.7172667" lon="8.238205"><ele>165.5</ele><time>2026-04-25T16:28:29.993Z</time></trkpt><trkpt lat="44.7173783" lon="8.2381867"><ele>165.0</ele><time>2026-04-25T16:28:31.001Z</time></trkpt><trkpt lat="44.717485" lon="8.2381683"><ele>165.0</ele><time>2026-04-25T16:28:31.997Z</time></trkpt><trkpt lat="44.717585" lon="8.2381417"><ele>165.0</ele><time>2026-04-25T16:28:33.001Z</time></trkpt><trkpt lat="44.7176733" lon="8.2381117"><ele>165.0</ele><time>2026-04-25T16:28:33.995Z</time></trkpt><trkpt lat="44.7177467" lon="8.2380917"><ele>165.0</ele><time>2026-04-25T16:28:34.994Z</time></trkpt><trkpt lat="44.717855" lon="8.2380833"><ele>165.0</ele><time>2026-04-25T16:28:36.996Z</time></trkpt><trkpt lat="44.7179467" lon="8.2382267"><ele>164.6</ele><time>2026-04-25T16:28:38.999Z</time></trkpt><trkpt lat="44.718" lon="8.2383333"><ele>164.2</ele><time>2026-04-25T16:28:39.995Z</time></trkpt><trkpt lat="44.71805" lon="8.2384517"><ele>163.8</ele><time>2026-04-25T16:28:40.999Z</time></trkpt><trkpt lat="44.7181067" lon="8.2385717"><ele>163.4</ele><time>2026-04-25T16:28:41.993Z</time></trkpt><trkpt lat="44.7181633" lon="8.238695"><ele>163.0</ele><time>2026-04-25T16:28:42.993Z</time></trkpt><trkpt lat="44.7182167" lon="8.2388183"><ele>163.0</ele><time>2026-04-25T16:28:43.993Z</time></trkpt><trkpt lat="44.7182683" lon="8.2389417"><ele>163.0</ele><time>2026-04-25T16:28:44.996Z</time></trkpt><trkpt lat="44.7183283" lon="8.2390517"><ele>163.0</ele><time>2026-04-25T16:28:45.996Z</time></trkpt><trkpt lat="44.7183933" lon="8.2391533"><ele>163.0</ele><time>2026-04-25T16:28:46.998Z</time></trkpt><trkpt lat="44.718465" lon="8.23924"><ele>163.0</ele><time>2026-04-25T16:28:47.992Z</time></trkpt><trkpt lat="44.7185467" lon="8.2393283"><ele>163.0</ele><time>2026-04-25T16:28:48.999Z</time></trkpt><trkpt lat="44.7186367" lon="8.2394217"><ele>163.0</ele><time>2026-04-25T16:28:49.997Z</time></trkpt><trkpt lat="44.718735" lon="8.2395183"><ele>163.0</ele><time>2026-04-25T16:28:50.997Z</time></trkpt><trkpt lat="44.718845" lon="8.2396167"><ele>163.0</ele><time>2026-04-25T16:28:51.992Z</time></trkpt><trkpt lat="44.7189633" lon="8.2397183"><ele>163.5</ele><time>2026-04-25T16:28:53.001Z</time></trkpt><trkpt lat="44.7190883" lon="8.2398233"><ele>164.0</ele><time>2026-04-25T16:28:53.996Z</time></trkpt><trkpt lat="44.71921" lon="8.2399217"><ele>164.5</ele><time>2026-04-25T16:28:54.995Z</time></trkpt><trkpt lat="44.7193333" lon="8.2400183"><ele>165.0</ele><time>2026-04-25T16:28:56.001Z</time></trkpt><trkpt lat="44.71945" lon="8.2401083"><ele>166.25</ele><time>2026-04-25T16:28:56.993Z</time></trkpt><trkpt lat="44.7195583" lon="8.24021"><ele>167.5</ele><time>2026-04-25T16:28:57.994Z</time></trkpt><trkpt lat="44.7196617" lon="8.2403167"><ele>168.75</ele><time>2026-04-25T16:28:58.997Z</time></trkpt><trkpt lat="44.7197667" lon="8.24043"><ele>170.0</ele><time>2026-04-25T16:28:59.996Z</time></trkpt><trkpt lat="44.7198667" lon="8.2405517"><ele>170.5</ele><time>2026-04-25T16:29:00.998Z</time></trkpt><trkpt lat="44.7199567" lon="8.240685"><ele>171.0</ele><time>2026-04-25T16:29:01.997Z</time></trkpt><trkpt lat="44.72003" lon="8.2408267"><ele>171.5</ele><time>2026-04-25T16:29:02.996Z</time></trkpt><trkpt lat="44.720095" lon="8.240985"><ele>172.0</ele><time>2026-04-25T16:29:03.997Z</time></trkpt><trkpt lat="44.7201683" lon="8.2411383"><ele>172.75</ele><time>2026-04-25T16:29:04.997Z</time></trkpt><trkpt lat="44.7202383" lon="8.2412917"><ele>173.5</ele><time>2026-04-25T16:29:06Z</time></trkpt><trkpt lat="44.7203083" lon="8.2414433"><ele>174.25</ele><time>2026-04-25T16:29:06.993Z</time></trkpt><trkpt lat="44.7203817" lon="8.2415917"><ele>175.0</ele><time>2026-04-25T16:29:07.994Z</time></trkpt><trkpt lat="44.7204567" lon="8.2417533"><ele>175.0</ele><time>2026-04-25T16:29:08.996Z</time></trkpt><trkpt lat="44.72053" lon="8.2419283"><ele>175.0</ele><time>2026-04-25T16:29:09.996Z</time></trkpt><trkpt lat="44.720605" lon="8.2421067"><ele>175.0</ele><time>2026-04-25T16:29:10.992Z</time></trkpt><trkpt lat="44.7206867" lon="8.2422833"><ele>175.0</ele><time>2026-04-25T16:29:11.999Z</time></trkpt><trkpt lat="44.7207733" lon="8.2424567"><ele>174.0</ele><time>2026-04-25T16:29:13Z</time></trkpt><trkpt lat="44.72086" lon="8.24263"><ele>173.0</ele><time>2026-04-25T16:29:13.996Z</time></trkpt><trkpt lat="44.7209417" lon="8.2428117"><ele>172.0</ele><time>2026-04-25T16:29:14.996Z</time></trkpt><trkpt lat="44.7210183" lon="8.243"><ele>174.33333333333334</ele><time>2026-04-25T16:29:15.997Z</time></trkpt><trkpt lat="44.7211033" lon="8.24318"><ele>176.66666666666666</ele><time>2026-04-25T16:29:16.995Z</time></trkpt><trkpt lat="44.72119" lon="8.2433617"><ele>179.0</ele><time>2026-04-25T16:29:17.995Z</time></trkpt><trkpt lat="44.72128" lon="8.2435433"><ele>179.0</ele><time>2026-04-25T16:29:18.995Z</time></trkpt><trkpt lat="44.7213717" lon="8.2437233"><ele>179.0</ele><time>2026-04-25T16:29:19.999Z</time></trkpt><trkpt lat="44.7214583" lon="8.2439067"><ele>179.0</ele><time>2026-04-25T16:29:20.994Z</time></trkpt><trkpt lat="44.72155" lon="8.24409"><ele>178.0</ele><time>2026-04-25T16:29:21.996Z</time></trkpt><trkpt lat="44.7216367" lon="8.24428"><ele>177.0</ele><time>2026-04-25T16:29:22.995Z</time></trkpt><trkpt lat="44.7217267" lon="8.244465"><ele>176.0</ele><time>2026-04-25T16:29:23.994Z</time></trkpt><trkpt lat="44.721815" lon="8.2446483"><ele>177.66666666666666</ele><time>2026-04-25T16:29:24.994Z</time></trkpt><trkpt lat="44.7218967" lon="8.24483"><ele>179.33333333333334</ele><time>2026-04-25T16:29:25.994Z</time></trkpt><trkpt lat="44.7219817" lon="8.2450117"><ele>181.0</ele><time>2026-04-25T16:29:26.997Z</time></trkpt><trkpt lat="44.7220583" lon="8.2452067"><ele>181.0</ele><time>2026-04-25T16:29:27.994Z</time></trkpt><trkpt lat="44.72214" lon="8.2453967"><ele>181.0</ele><time>2026-04-25T16:29:28.992Z</time></trkpt><trkpt lat="44.7222283" lon="8.24558"><ele>181.0</ele><time>2026-04-25T16:29:29.996Z</time></trkpt><trkpt lat="44.7223167" lon="8.24576"><ele>181.0</ele><time>2026-04-25T16:29:30.995Z</time></trkpt><trkpt lat="44.7224067" lon="8.24594"><ele>181.0</ele><time>2026-04-25T16:29:31.993Z</time></trkpt><trkpt lat="44.722495" lon="8.246125"><ele>181.0</ele><time>2026-04-25T16:29:32.995Z</time></trkpt><trkpt lat="44.72259" lon="8.2463067"><ele>182.0</ele><time>2026-04-25T16:29:33.994Z</time></trkpt><trkpt lat="44.7227017" lon="8.2464617"><ele>183.0</ele><time>2026-04-25T16:29:34.998Z</time></trkpt><trkpt lat="44.7228133" lon="8.2466033"><ele>184.0</ele><time>2026-04-25T16:29:35.995Z</time></trkpt><trkpt lat="44.7229317" lon="8.2467283"><ele>184.0</ele><time>2026-04-25T16:29:36.998Z</time></trkpt><trkpt lat="44.72306" lon="8.24683"><ele>184.0</ele><time>2026-04-25T16:29:37.996Z</time></trkpt><trkpt lat="44.7231967" lon="8.2469117"><ele>184.0</ele><time>2026-04-25T16:29:38.993Z</time></trkpt><trkpt lat="44.7233333" lon="8.2469967"><ele>184.0</ele><time>2026-04-25T16:29:39.996Z</time></trkpt><trkpt lat="44.7234733" lon="8.2470717"><ele>187.66666666666669</ele><time>2026-04-25T16:29:40.994Z</time></trkpt><trkpt lat="44.723615" lon="8.2471283"><ele>191.33333333333334</ele><time>2026-04-25T16:29:41.995Z</time></trkpt><trkpt lat="44.723765" lon="8.2471783"><ele>195.0</ele><time>2026-04-25T16:29:43Z</time></trkpt><trkpt lat="44.7239167" lon="8.2472267"><ele>195.0</ele><time>2026-04-25T16:29:43.995Z</time></trkpt><trkpt lat="44.7240717" lon="8.247275"><ele>195.0</ele><time>2026-04-25T16:29:45Z</time></trkpt><trkpt lat="44.7242217" lon="8.2473183"><ele>195.0</ele><time>2026-04-25T16:29:45.994Z</time></trkpt><trkpt lat="44.72437" lon="8.2473633"><ele>192.33333333333334</ele><time>2026-04-25T16:29:47.005Z</time></trkpt><trkpt lat="44.72452" lon="8.2474133"><ele>189.66666666666669</ele><time>2026-04-25T16:29:47.997Z</time></trkpt><trkpt lat="44.7246717" lon="8.2474617"><ele>187.0</ele><time>2026-04-25T16:29:48.997Z</time></trkpt><trkpt lat="44.7248233" lon="8.2475083"><ele>187.0</ele><time>2026-04-25T16:29:49.993Z</time></trkpt><trkpt lat="44.7249683" lon="8.2475517"><ele>187.0</ele><time>2026-04-25T16:29:50.996Z</time></trkpt><trkpt lat="44.72512" lon="8.247595"><ele>187.0</ele><time>2026-04-25T16:29:51.994Z</time></trkpt><trkpt lat="44.72527" lon="8.2476433"><ele>188.25</ele><time>2026-04-25T16:29:52.997Z</time></trkpt><trkpt lat="44.72542" lon="8.247685"><ele>189.5</ele><time>2026-04-25T16:29:53.993Z</time></trkpt><trkpt lat="44.7255667" lon="8.2477267"><ele>190.75</ele><time>2026-04-25T16:29:54.995Z</time></trkpt><trkpt lat="44.72571" lon="8.2477717"><ele>192.0</ele><time>2026-04-25T16:29:55.994Z</time></trkpt><trkpt lat="44.7258517" lon="8.2478167"><ele>192.0</ele><time>2026-04-25T16:29:57Z</time></trkpt><trkpt lat="44.7259967" lon="8.247855"><ele>192.0</ele><time>2026-04-25T16:29:57.994Z</time></trkpt><trkpt lat="44.7261433" lon="8.247895"><ele>192.0</ele><time>2026-04-25T16:29:58.994Z</time></trkpt><trkpt lat="44.7262933" lon="8.2479383"><ele>191.75</ele><time>2026-04-25T16:29:59.993Z</time></trkpt><trkpt lat="44.7264417" lon="8.2479783"><ele>191.5</ele><time>2026-04-25T16:30:00.998Z</time></trkpt><trkpt lat="44.726585" lon="8.24802"><ele>191.25</ele><time>2026-04-25T16:30:01.992Z</time></trkpt><trkpt lat="44.72673" lon="8.2480667"><ele>191.0</ele><time>2026-04-25T16:30:02.994Z</time></trkpt><trkpt lat="44.7268733" lon="8.2481133"><ele>191.5</ele><time>2026-04-25T16:30:03.994Z</time></trkpt><trkpt lat="44.7270217" lon="8.248165"><ele>192.0</ele><time>2026-04-25T16:30:04.997Z</time></trkpt><trkpt lat="44.7271617" lon="8.24822"><ele>192.5</ele><time>2026-04-25T16:30:05.996Z</time></trkpt><trkpt lat="44.7272917" lon="8.2482733"><ele>193.0</ele><time>2026-04-25T16:30:06.997Z</time></trkpt><trkpt lat="44.7274167" lon="8.2483383"><ele>193.0</ele><time>2026-04-25T16:30:07.995Z</time></trkpt><trkpt lat="44.727535" lon="8.248425"><ele>193.0</ele><time>2026-04-25T16:30:08.997Z</time></trkpt><trkpt lat="44.7276467" lon="8.24854"><ele>193.0</ele><time>2026-04-25T16:30:09.999Z</time></trkpt><trkpt lat="44.72774" lon="8.2486833"><ele>193.0</ele><time>2026-04-25T16:30:10.994Z</time></trkpt><trkpt lat="44.7278217" lon="8.2488383"><ele>193.75</ele><time>2026-04-25T16:30:11.995Z</time></trkpt><trkpt lat="44.7278933" lon="8.2490017"><ele>194.5</ele><time>2026-04-25T16:30:12.997Z</time></trkpt><trkpt lat="44.7279633" lon="8.24917"><ele>195.25</ele><time>2026-04-25T16:30:13.999Z</time></trkpt><trkpt lat="44.7280233" lon="8.2493433"><ele>196.0</ele><time>2026-04-25T16:30:14.996Z</time></trkpt><trkpt lat="44.7280883" lon="8.2495117"><ele>196.0</ele><time>2026-04-25T16:30:15.993Z</time></trkpt><trkpt lat="44.7281633" lon="8.2496717"><ele>196.0</ele><time>2026-04-25T16:30:16.995Z</time></trkpt><trkpt lat="44.728245" lon="8.2498267"><ele>196.0</ele><time>2026-04-25T16:30:17.995Z</time></trkpt><trkpt lat="44.728335" lon="8.2499733"><ele>196.0</ele><time>2026-04-25T16:30:18.996Z</time></trkpt><trkpt lat="44.7284367" lon="8.2501017"><ele>196.5</ele><time>2026-04-25T16:30:19.995Z</time></trkpt><trkpt lat="44.7285483" lon="8.2502183"><ele>197.0</ele><time>2026-04-25T16:30:20.995Z</time></trkpt><trkpt lat="44.728665" lon="8.2503283"><ele>197.5</ele><time>2026-04-25T16:30:22Z</time></trkpt><trkpt lat="44.7287983" lon="8.2504217"><ele>198.0</ele><time>2026-04-25T16:30:22.997Z</time></trkpt><trkpt lat="44.7289217" lon="8.25053"><ele>198.25</ele><time>2026-04-25T16:30:23.996Z</time></trkpt><trkpt lat="44.7290433" lon="8.250635"><ele>198.5</ele><time>2026-04-25T16:30:24.997Z</time></trkpt><trkpt lat="44.72916" lon="8.25074"><ele>198.75</ele><time>2026-04-25T16:30:25.994Z</time></trkpt><trkpt lat="44.7292817" lon="8.2508367"><ele>199.0</ele><time>2026-04-25T16:30:26.994Z</time></trkpt><trkpt lat="44.7294" lon="8.2509317"><ele>199.25</ele><time>2026-04-25T16:30:27.997Z</time></trkpt><trkpt lat="44.7295217" lon="8.2510167"><ele>199.5</ele><time>2026-04-25T16:30:29.002Z</time></trkpt><trkpt lat="44.7296367" lon="8.2511067"><ele>199.75</ele><time>2026-04-25T16:30:29.998Z</time></trkpt><trkpt lat="44.72975" lon="8.251195"><ele>200.0</ele><time>2026-04-25T16:30:30.996Z</time></trkpt><trkpt lat="44.7298567" lon="8.251285"><ele>200.0</ele><time>2026-04-25T16:30:31.994Z</time></trkpt><trkpt lat="44.7299617" lon="8.2513767"><ele>200.0</ele><time>2026-04-25T16:30:32.996Z</time></trkpt><trkpt lat="44.7300667" lon="8.2514717"><ele>200.0</ele><time>2026-04-25T16:30:33.994Z</time></trkpt><trkpt lat="44.73018" lon="8.2515617"><ele>200.0</ele><time>2026-04-25T16:30:34.996Z</time></trkpt><trkpt lat="44.7302983" lon="8.2516417"><ele>200.5</ele><time>2026-04-25T16:30:35.994Z</time></trkpt><trkpt lat="44.7304317" lon="8.2517033"><ele>201.0</ele><time>2026-04-25T16:30:36.997Z</time></trkpt><trkpt lat="44.7305567" lon="8.251755"><ele>201.5</ele><time>2026-04-25T16:30:37.996Z</time></trkpt><trkpt lat="44.73068" lon="8.25179"><ele>202.0</ele><time>2026-04-25T16:30:38.998Z</time></trkpt><trkpt lat="44.7307933" lon="8.2518083"><ele>201.99999999999997</ele><time>2026-04-25T16:30:39.999Z</time></trkpt><trkpt lat="44.73089" lon="8.2518083"><ele>202.0</ele><time>2026-04-25T16:30:40.997Z</time></trkpt><trkpt lat="44.7309683" lon="8.251785"><ele>202.0</ele><time>2026-04-25T16:30:41.996Z</time></trkpt><trkpt lat="44.7310367" lon="8.25175"><ele>202.0</ele><time>2026-04-25T16:30:42.998Z</time></trkpt><trkpt lat="44.731095" lon="8.2517117"><ele>201.99999999999997</ele><time>2026-04-25T16:30:43.996Z</time></trkpt><trkpt lat="44.7311567" lon="8.2516067"><ele>202.0</ele><time>2026-04-25T16:30:45.996Z</time></trkpt><trkpt lat="44.731175" lon="8.25142"><ele>203.0</ele><time>2026-04-25T16:30:47.993Z</time></trkpt><trkpt lat="44.7311533" lon="8.2512467"><ele>204.0</ele><time>2026-04-25T16:30:49.995Z</time></trkpt><trkpt lat="44.731105" lon="8.2511517"><ele>205.0</ele><time>2026-04-25T16:30:50.998Z</time></trkpt><trkpt lat="44.73103" lon="8.25106"><ele>206.0</ele><time>2026-04-25T16:30:51.994Z</time></trkpt><trkpt lat="44.73096" lon="8.2509833"><ele>207.0</ele><time>2026-04-25T16:30:52.994Z</time></trkpt><trkpt lat="44.7308917" lon="8.2509067"><ele>207.0</ele><time>2026-04-25T16:30:53.999Z</time></trkpt><trkpt lat="44.7308233" lon="8.2508217"><ele>207.0</ele><time>2026-04-25T16:30:54.996Z</time></trkpt><trkpt lat="44.7307517" lon="8.250735"><ele>207.0</ele><time>2026-04-25T16:30:55.995Z</time></trkpt><trkpt lat="44.730685" lon="8.2506483"><ele>207.0</ele><time>2026-04-25T16:30:56.995Z</time></trkpt><trkpt lat="44.7306117" lon="8.250565"><ele>207.0</ele><time>2026-04-25T16:30:57.994Z</time></trkpt><trkpt lat="44.73055" lon="8.250495"><ele>210.39999999999998</ele><time>2026-04-25T16:30:58.998Z</time></trkpt><trkpt lat="44.7304733" lon="8.2503717"><ele>213.79999999999998</ele><time>2026-04-25T16:31:00.995Z</time></trkpt><trkpt lat="44.7304933" lon="8.2502417"><ele>217.2</ele><time>2026-04-25T16:31:02.993Z</time></trkpt><trkpt lat="44.73058" lon="8.250215"><ele>220.6</ele><time>2026-04-25T16:31:04.994Z</time></trkpt><trkpt lat="44.7307083" lon="8.2502667"><ele>224.0</ele><time>2026-04-25T16:31:06.997Z</time></trkpt><trkpt lat="44.7307717" lon="8.2502817"><ele>224.00000000000003</ele><time>2026-04-25T16:31:07.995Z</time></trkpt><trkpt lat="44.7308367" lon="8.2502817"><ele>224.0</ele><time>2026-04-25T16:31:09Z</time></trkpt><trkpt lat="44.730875" lon="8.2501717"><ele>224.0</ele><time>2026-04-25T16:31:10.997Z</time></trkpt><trkpt lat="44.7308383" lon="8.2500067"><ele>224.0</ele><time>2026-04-25T16:31:12.998Z</time></trkpt><trkpt lat="44.7308" lon="8.2499133"><ele>224.00000000000003</ele><time>2026-04-25T16:31:13.996Z</time></trkpt><trkpt lat="44.7307567" lon="8.2498183"><ele>224.0</ele><time>2026-04-25T16:31:14.995Z</time></trkpt><trkpt lat="44.7307083" lon="8.2497267"><ele>226.50000000000003</ele><time>2026-04-25T16:31:15.997Z</time></trkpt><trkpt lat="44.7306567" lon="8.2496333"><ele>229.0</ele><time>2026-04-25T16:31:16.998Z</time></trkpt><trkpt lat="44.730605" lon="8.249535"><ele>231.5</ele><time>2026-04-25T16:31:17.996Z</time></trkpt><trkpt lat="44.73056" lon="8.2494333"><ele>234.0</ele><time>2026-04-25T16:31:18.994Z</time></trkpt><trkpt lat="44.7305067" lon="8.2493383"><ele>236.50000000000003</ele><time>2026-04-25T16:31:19.997Z</time></trkpt><trkpt lat="44.7304517" lon="8.2492417"><ele>239.0</ele><time>2026-04-25T16:31:21.001Z</time></trkpt><trkpt lat="44.7304033" lon="8.2491367"><ele>239.0</ele><time>2026-04-25T16:31:21.995Z</time></trkpt><trkpt lat="44.73035" lon="8.2490317"><ele>238.99999999999997</ele><time>2026-04-25T16:31:22.995Z</time></trkpt><trkpt lat="44.7302983" lon="8.2489217"><ele>238.99999999999997</ele><time>2026-04-25T16:31:23.996Z</time></trkpt><trkpt lat="44.7302467" lon="8.248805"><ele>239.0</ele><time>2026-04-25T16:31:24.996Z</time></trkpt><trkpt lat="44.73019" lon="8.24869"><ele>239.0</ele><time>2026-04-25T16:31:25.999Z</time></trkpt><trkpt lat="44.7301333" lon="8.2485733"><ele>239.6</ele><time>2026-04-25T16:31:26.997Z</time></trkpt><trkpt lat="44.73007" lon="8.2484667"><ele>240.2</ele><time>2026-04-25T16:31:27.994Z</time></trkpt><trkpt lat="44.7300117" lon="8.24836"><ele>240.79999999999998</ele><time>2026-04-25T16:31:28.997Z</time></trkpt><trkpt lat="44.729955" lon="8.2482567"><ele>241.39999999999998</ele><time>2026-04-25T16:31:29.993Z</time></trkpt><trkpt lat="44.7299033" lon="8.2481583"><ele>242.0</ele><time>2026-04-25T16:31:30.992Z</time></trkpt><trkpt lat="44.7298633" lon="8.248055"><ele>245.33333333333334</ele><time>2026-04-25T16:31:31.992Z</time></trkpt><trkpt lat="44.72983" lon="8.2479517"><ele>248.66666666666669</ele><time>2026-04-25T16:31:32.993Z</time></trkpt><trkpt lat="44.729785" lon="8.2478667"><ele>252.0</ele><time>2026-04-25T16:31:33.995Z</time></trkpt><trkpt lat="44.7297367" lon="8.247795"><ele>255.33333333333331</ele><time>2026-04-25T16:31:34.995Z</time></trkpt><trkpt lat="44.7296817" lon="8.2477467"><ele>258.66666666666663</ele><time>2026-04-25T16:31:35.998Z</time></trkpt><trkpt lat="44.7296183" lon="8.24765"><ele>262.0</ele><time>2026-04-25T16:31:37.993Z</time></trkpt><trkpt lat="44.7296467" lon="8.2475367"><ele>262.0</ele><time>2026-04-25T16:31:39.996Z</time></trkpt><trkpt lat="44.7297483" lon="8.2475367"><ele>262.0</ele><time>2026-04-25T16:31:41.997Z</time></trkpt><trkpt lat="44.7298617" lon="8.24762"><ele>262.0</ele><time>2026-04-25T16:31:43.999Z</time></trkpt><trkpt lat="44.7299667" lon="8.2476883"><ele>262.0</ele><time>2026-04-25T16:31:45.992Z</time></trkpt><trkpt lat="44.7300333" lon="8.2476417"><ele>262.0</ele><time>2026-04-25T16:31:48.995Z</time></trkpt><trkpt lat="44.72998" lon="8.2475733"><ele>262.0</ele><time>2026-04-25T16:31:49.998Z</time></trkpt><trkpt lat="44.7298733" lon="8.247465"><ele>262.0</ele><time>2026-04-25T16:31:52.001Z</time></trkpt><trkpt lat="44.7298183" lon="8.2474133"><ele>262.0</ele><time>2026-04-25T16:31:52.996Z</time></trkpt><trkpt lat="44.7297567" lon="8.2473633"><ele>262.0</ele><time>2026-04-25T16:31:54.002Z</time></trkpt><trkpt lat="44.7297" lon="8.2473183"><ele>262.0</ele><time>2026-04-25T16:31:54.997Z</time></trkpt><trkpt lat="44.7295967" lon="8.247255"><ele>262.0</ele><time>2026-04-25T16:31:56.999Z</time></trkpt><trkpt lat="44.7295217" lon="8.247195"><ele>265.16666666666663</ele><time>2026-04-25T16:31:58.996Z</time></trkpt><trkpt lat="44.7295217" lon="8.24709"><ele>268.3333333333333</ele><time>2026-04-25T16:32:01.991Z</time></trkpt><trkpt lat="44.72963" lon="8.2470767"><ele>271.5</ele><time>2026-04-25T16:32:03.995Z</time></trkpt><trkpt lat="44.7297133" lon="8.2470867"><ele>274.6666666666667</ele><time>2026-04-25T16:32:04.995Z</time></trkpt><trkpt lat="44.7298033" lon="8.2471033"><ele>277.83333333333337</ele><time>2026-04-25T16:32:05.997Z</time></trkpt><trkpt lat="44.7298917" lon="8.2471167"><ele>281.0</ele><time>2026-04-25T16:32:06.998Z</time></trkpt><trkpt lat="44.7299833" lon="8.2471367"><ele>281.0</ele><time>2026-04-25T16:32:07.993Z</time></trkpt><trkpt lat="44.7300733" lon="8.24716"><ele>281.0</ele><time>2026-04-25T16:32:08.999Z</time></trkpt><trkpt lat="44.7301467" lon="8.2471783"><ele>281.0</ele><time>2026-04-25T16:32:09.993Z</time></trkpt><trkpt lat="44.7302467" lon="8.2471683"><ele>281.0</ele><time>2026-04-25T16:32:11.995Z</time></trkpt><trkpt lat="44.7302767" lon="8.2470633"><ele>281.0</ele><time>2026-04-25T16:32:13.995Z</time></trkpt><trkpt lat="44.7302283" lon="8.247"><ele>281.0</ele><time>2026-04-25T16:32:14.991Z</time></trkpt><trkpt lat="44.7301183" lon="8.2469117"><ele>281.0</ele><time>2026-04-25T16:32:16.996Z</time></trkpt><trkpt lat="44.7300567" lon="8.2468683"><ele>281.0</ele><time>2026-04-25T16:32:17.997Z</time></trkpt><trkpt lat="44.73" lon="8.2467967"><ele>281.0</ele><time>2026-04-25T16:32:18.994Z</time></trkpt><trkpt lat="44.7299367" lon="8.2467417"><ele>281.0</ele><time>2026-04-25T16:32:19.995Z</time></trkpt><trkpt lat="44.7298883" lon="8.2466783"><ele>281.0</ele><time>2026-04-25T16:32:20.997Z</time></trkpt><trkpt lat="44.7298383" lon="8.2466233"><ele>281.0</ele><time>2026-04-25T16:32:21.994Z</time></trkpt><trkpt lat="44.72979" lon="8.2464933"><ele>280.8</ele><time>2026-04-25T16:32:23.994Z</time></trkpt><trkpt lat="44.729785" lon="8.2463483"><ele>280.6</ele><time>2026-04-25T16:32:25.997Z</time></trkpt><trkpt lat="44.7298433" lon="8.2462067"><ele>280.4</ele><time>2026-04-25T16:32:27.999Z</time></trkpt><trkpt lat="44.7299433" lon="8.246105"><ele>280.2</ele><time>2026-04-25T16:32:29.996Z</time></trkpt><trkpt lat="44.730005" lon="8.2460617"><ele>280.0</ele><time>2026-04-25T16:32:30.998Z</time></trkpt><trkpt lat="44.73007" lon="8.2460217"><ele>280.0</ele><time>2026-04-25T16:32:31.994Z</time></trkpt><trkpt lat="44.7301333" lon="8.24598"><ele>280.0</ele><time>2026-04-25T16:32:33.002Z</time></trkpt><trkpt lat="44.7302" lon="8.2459467"><ele>280.0</ele><time>2026-04-25T16:32:33.996Z</time></trkpt><trkpt lat="44.730265" lon="8.2459183"><ele>280.0</ele><time>2026-04-25T16:32:34.993Z</time></trkpt><trkpt lat="44.73033" lon="8.2459"><ele>280.0</ele><time>2026-04-25T16:32:35.996Z</time></trkpt><trkpt lat="44.7304483" lon="8.245905"><ele>280.0</ele><time>2026-04-25T16:32:37.995Z</time></trkpt><trkpt lat="44.7305617" lon="8.246025"><ele>283.8333333333333</ele><time>2026-04-25T16:32:39.992Z</time></trkpt><trkpt lat="44.7306217" lon="8.24606"><ele>287.66666666666663</ele><time>2026-04-25T16:32:40.994Z</time></trkpt><trkpt lat="44.7307317" lon="8.246065"><ele>291.5</ele><time>2026-04-25T16:32:42.994Z</time></trkpt><trkpt lat="44.73076" lon="8.2459633"><ele>295.3333333333333</ele><time>2026-04-25T16:32:44.993Z</time></trkpt><trkpt lat="44.73075" lon="8.2458233"><ele>299.1666666666667</ele><time>2026-04-25T16:32:46.995Z</time></trkpt><trkpt lat="44.73079" lon="8.2457133"><ele>303.0</ele><time>2026-04-25T16:32:48.997Z</time></trkpt><trkpt lat="44.7309017" lon="8.245715"><ele>303.0</ele><time>2026-04-25T16:32:50.998Z</time></trkpt><trkpt lat="44.73098" lon="8.2457383"><ele>303.0</ele><time>2026-04-25T16:32:51.995Z</time></trkpt><trkpt lat="44.7310667" lon="8.24575"><ele>303.0</ele><time>2026-04-25T16:32:52.998Z</time></trkpt><trkpt lat="44.731165" lon="8.2457517"><ele>303.0</ele><time>2026-04-25T16:32:53.998Z</time></trkpt><trkpt lat="44.7312683" lon="8.24575"><ele>303.0</ele><time>2026-04-25T16:32:54.997Z</time></trkpt><trkpt lat="44.7313767" lon="8.2457383"><ele>304.0</ele><time>2026-04-25T16:32:55.995Z</time></trkpt><trkpt lat="44.7314883" lon="8.245715"><ele>305.0</ele><time>2026-04-25T16:32:57.002Z</time></trkpt><trkpt lat="44.731595" lon="8.2456717"><ele>306.0</ele><time>2026-04-25T16:32:57.996Z</time></trkpt><trkpt lat="44.731705" lon="8.2456267"><ele>307.0</ele><time>2026-04-25T16:32:58.995Z</time></trkpt><trkpt lat="44.7318083" lon="8.2455767"><ele>308.0</ele><time>2026-04-25T16:32:59.992Z</time></trkpt><trkpt lat="44.73191" lon="8.24553"><ele>312.2</ele><time>2026-04-25T16:33:01.004Z</time></trkpt><trkpt lat="44.732005" lon="8.2454833"><ele>316.4</ele><time>2026-04-25T16:33:02Z</time></trkpt><trkpt lat="44.7320983" lon="8.24544"><ele>320.59999999999997</ele><time>2026-04-25T16:33:02.995Z</time></trkpt><trkpt lat="44.732185" lon="8.2454"><ele>324.8</ele><time>2026-04-25T16:33:03.999Z</time></trkpt><trkpt lat="44.73226" lon="8.2453633"><ele>329.0</ele><time>2026-04-25T16:33:04.992Z</time></trkpt><trkpt lat="44.7323533" lon="8.245295"><ele>329.0</ele><time>2026-04-25T16:33:06.993Z</time></trkpt><trkpt lat="44.73243" lon="8.2452117"><ele>329.0</ele><time>2026-04-25T16:33:09.994Z</time></trkpt><trkpt lat="44.732495" lon="8.2450833"><ele>329.0</ele><time>2026-04-25T16:33:11.997Z</time></trkpt><trkpt lat="44.732535" lon="8.2449967"><ele>329.0</ele><time>2026-04-25T16:33:12.997Z</time></trkpt><trkpt lat="44.7325833" lon="8.2449067"><ele>329.0</ele><time>2026-04-25T16:33:13.997Z</time></trkpt><trkpt lat="44.7326367" lon="8.24481"><ele>329.0</ele><time>2026-04-25T16:33:14.996Z</time></trkpt><trkpt lat="44.7326917" lon="8.2447067"><ele>329.79999999999995</ele><time>2026-04-25T16:33:15.991Z</time></trkpt><trkpt lat="44.732755" lon="8.2445883"><ele>330.59999999999997</ele><time>2026-04-25T16:33:16.995Z</time></trkpt><trkpt lat="44.7328133" lon="8.24447"><ele>331.4</ele><time>2026-04-25T16:33:17.995Z</time></trkpt><trkpt lat="44.7328783" lon="8.2443433"><ele>332.2</ele><time>2026-04-25T16:33:18.999Z</time></trkpt><trkpt lat="44.732955" lon="8.24422"><ele>333.0</ele><time>2026-04-25T16:33:19.997Z</time></trkpt><trkpt lat="44.7330383" lon="8.244105"><ele>333.0</ele><time>2026-04-25T16:33:20.997Z</time></trkpt><trkpt lat="44.7331267" lon="8.2439983"><ele>333.0</ele><time>2026-04-25T16:33:21.993Z</time></trkpt><trkpt lat="44.7332167" lon="8.2439"><ele>333.0</ele><time>2026-04-25T16:33:22.994Z</time></trkpt><trkpt lat="44.73331" lon="8.2438033"><ele>333.0</ele><time>2026-04-25T16:33:23.997Z</time></trkpt><trkpt lat="44.7334033" lon="8.24371"><ele>333.59999999999997</ele><time>2026-04-25T16:33:24.993Z</time></trkpt><trkpt lat="44.7334983" lon="8.2436283"><ele>334.2</ele><time>2026-04-25T16:33:25.998Z</time></trkpt><trkpt lat="44.733595" lon="8.2435633"><ele>334.8</ele><time>2026-04-25T16:33:26.994Z</time></trkpt><trkpt lat="44.733695" lon="8.2435133"><ele>335.4</ele><time>2026-04-25T16:33:28.002Z</time></trkpt><trkpt lat="44.7337933" lon="8.243465"><ele>336.0</ele><time>2026-04-25T16:33:28.997Z</time></trkpt><trkpt lat="44.73388" lon="8.2434133"><ele>336.0</ele><time>2026-04-25T16:33:29.995Z</time></trkpt><trkpt lat="44.7339567" lon="8.243355"><ele>336.0</ele><time>2026-04-25T16:33:31.001Z</time></trkpt><trkpt lat="44.7340367" lon="8.2433"><ele>336.0</ele><time>2026-04-25T16:33:31.995Z</time></trkpt><trkpt lat="44.7341183" lon="8.243245"><ele>336.0</ele><time>2026-04-25T16:33:32.997Z</time></trkpt><trkpt lat="44.7342033" lon="8.2432"><ele>336.0</ele><time>2026-04-25T16:33:33.994Z</time></trkpt><trkpt lat="44.7342917" lon="8.2431617"><ele>336.0</ele><time>2026-04-25T16:33:34.993Z</time></trkpt><trkpt lat="44.7343783" lon="8.2431333"><ele>336.0</ele><time>2026-04-25T16:33:35.993Z</time></trkpt><trkpt lat="44.7344683" lon="8.2431067"><ele>336.0</ele><time>2026-04-25T16:33:36.993Z</time></trkpt><trkpt lat="44.7345533" lon="8.2430867"><ele>336.0</ele><time>2026-04-25T16:33:37.995Z</time></trkpt><trkpt lat="44.73463" lon="8.24307"><ele>336.0</ele><time>2026-04-25T16:33:38.999Z</time></trkpt><trkpt lat="44.7346983" lon="8.243045"><ele>336.0</ele><time>2026-04-25T16:33:39.995Z</time></trkpt><trkpt lat="44.7347633" lon="8.243"><ele>335.0</ele><time>2026-04-25T16:33:40.995Z</time></trkpt><trkpt lat="44.7348233" lon="8.2429333"><ele>334.0</ele><time>2026-04-25T16:33:41.994Z</time></trkpt><trkpt lat="44.73488" lon="8.24286"><ele>333.0</ele><time>2026-04-25T16:33:42.995Z</time></trkpt><trkpt lat="44.7349383" lon="8.242785"><ele>332.0</ele><time>2026-04-25T16:33:43.996Z</time></trkpt><trkpt lat="44.7349967" lon="8.2426983"><ele>331.0</ele><time>2026-04-25T16:33:44.995Z</time></trkpt><trkpt lat="44.73505" lon="8.2426083"><ele>330.0</ele><time>2026-04-25T16:33:45.995Z</time></trkpt><trkpt lat="44.7350933" lon="8.2425017"><ele>330.0</ele><time>2026-04-25T16:33:46.997Z</time></trkpt><trkpt lat="44.735135" lon="8.2423783"><ele>330.0</ele><time>2026-04-25T16:33:47.994Z</time></trkpt><trkpt lat="44.7351833" lon="8.2422517"><ele>330.0</ele><time>2026-04-25T16:33:48.995Z</time></trkpt><trkpt lat="44.7352333" lon="8.2421217"><ele>330.0</ele><time>2026-04-25T16:33:50.001Z</time></trkpt><trkpt lat="44.7352883" lon="8.24199"><ele>330.0</ele><time>2026-04-25T16:33:50.995Z</time></trkpt><trkpt lat="44.7353517" lon="8.2418567"><ele>328.6</ele><time>2026-04-25T16:33:51.996Z</time></trkpt><trkpt lat="44.7354117" lon="8.2417183"><ele>327.2</ele><time>2026-04-25T16:33:52.994Z</time></trkpt><trkpt lat="44.7354717" lon="8.2415883"><ele>325.79999999999995</ele><time>2026-04-25T16:33:54.001Z</time></trkpt><trkpt lat="44.73553" lon="8.2414633"><ele>324.4</ele><time>2026-04-25T16:33:54.997Z</time></trkpt><trkpt lat="44.73559" lon="8.2413433"><ele>323.0</ele><time>2026-04-25T16:33:56Z</time></trkpt><trkpt lat="44.7356617" lon="8.2412367"><ele>322.2</ele><time>2026-04-25T16:33:56.998Z</time></trkpt><trkpt lat="44.7357333" lon="8.2411317"><ele>321.4</ele><time>2026-04-25T16:33:58.004Z</time></trkpt><trkpt lat="44.73581" lon="8.2410283"><ele>320.59999999999997</ele><time>2026-04-25T16:33:58.995Z</time></trkpt><trkpt lat="44.7358867" lon="8.2409217"><ele>319.79999999999995</ele><time>2026-04-25T16:33:59.997Z</time></trkpt><trkpt lat="44.735965" lon="8.240815"><ele>319.0</ele><time>2026-04-25T16:34:00.997Z</time></trkpt><trkpt lat="44.7360467" lon="8.2407083"><ele>317.75</ele><time>2026-04-25T16:34:01.995Z</time></trkpt><trkpt lat="44.736135" lon="8.2406067"><ele>316.5</ele><time>2026-04-25T16:34:02.996Z</time></trkpt><trkpt lat="44.736235" lon="8.2405217"><ele>315.25</ele><time>2026-04-25T16:34:03.999Z</time></trkpt><trkpt lat="44.736345" lon="8.2404467"><ele>314.0</ele><time>2026-04-25T16:34:04.998Z</time></trkpt><trkpt lat="44.7364633" lon="8.2403783"><ele>314.0</ele><time>2026-04-25T16:34:05.999Z</time></trkpt><trkpt lat="44.736575" lon="8.2403183"><ele>314.0</ele><time>2026-04-25T16:34:06.998Z</time></trkpt><trkpt lat="44.7366833" lon="8.24026"><ele>314.0</ele><time>2026-04-25T16:34:07.994Z</time></trkpt><trkpt lat="44.7367783" lon="8.2402"><ele>314.0</ele><time>2026-04-25T16:34:08.997Z</time></trkpt><trkpt lat="44.7368583" lon="8.24014"><ele>314.0</ele><time>2026-04-25T16:34:09.995Z</time></trkpt><trkpt lat="44.7369233" lon="8.2400867"><ele>312.0</ele><time>2026-04-25T16:34:10.994Z</time></trkpt><trkpt lat="44.7369767" lon="8.2400367"><ele>310.0</ele><time>2026-04-25T16:34:12Z</time></trkpt><trkpt lat="44.7370467" lon="8.2399633"><ele>308.0</ele><time>2026-04-25T16:34:13.996Z</time></trkpt><trkpt lat="44.7371083" lon="8.23992"><ele>306.0</ele><time>2026-04-25T16:34:17.996Z</time></trkpt><trkpt lat="44.7371183" lon="8.2400267"><ele>304.0</ele><time>2026-04-25T16:34:21.997Z</time></trkpt><trkpt lat="44.7370517" lon="8.2401667"><ele>302.0</ele><time>2026-04-25T16:34:23.999Z</time></trkpt><trkpt lat="44.737015" lon="8.2402433"><ele>302.0</ele><time>2026-04-25T16:34:25Z</time></trkpt><trkpt lat="44.7369767" lon="8.240325"><ele>302.0</ele><time>2026-04-25T16:34:25.997Z</time></trkpt><trkpt lat="44.7369333" lon="8.2404183"><ele>302.0</ele><time>2026-04-25T16:34:26.998Z</time></trkpt><trkpt lat="44.7368883" lon="8.2405133"><ele>302.0</ele><time>2026-04-25T16:34:27.993Z</time></trkpt><trkpt lat="44.7368417" lon="8.240615"><ele>302.0</ele><time>2026-04-25T16:34:28.993Z</time></trkpt><trkpt lat="44.73679" lon="8.2407183"><ele>302.0</ele><time>2026-04-25T16:34:29.995Z</time></trkpt><trkpt lat="44.7367467" lon="8.2408317"><ele>302.0</ele><time>2026-04-25T16:34:31Z</time></trkpt><trkpt lat="44.7367017" lon="8.2409467"><ele>302.0</ele><time>2026-04-25T16:34:31.996Z</time></trkpt><trkpt lat="44.7366583" lon="8.2410683"><ele>302.0</ele><time>2026-04-25T16:34:33Z</time></trkpt><trkpt lat="44.7366167" lon="8.2411967"><ele>302.0</ele><time>2026-04-25T16:34:33.995Z</time></trkpt><trkpt lat="44.73658" lon="8.2413317"><ele>302.0</ele><time>2026-04-25T16:34:35Z</time></trkpt><trkpt lat="44.73655" lon="8.24147"><ele>302.0</ele><time>2026-04-25T16:34:36Z</time></trkpt><trkpt lat="44.7365283" lon="8.2416183"><ele>302.0</ele><time>2026-04-25T16:34:36.996Z</time></trkpt><trkpt lat="44.73652" lon="8.2417733"><ele>302.0</ele><time>2026-04-25T16:34:37.997Z</time></trkpt><trkpt lat="44.73652" lon="8.24193"><ele>302.0</ele><time>2026-04-25T16:34:39.003Z</time></trkpt><trkpt lat="44.736525" lon="8.2420867"><ele>302.0</ele><time>2026-04-25T16:34:39.997Z</time></trkpt><trkpt lat="44.7365317" lon="8.24224"><ele>301.0</ele><time>2026-04-25T16:34:40.994Z</time></trkpt><trkpt lat="44.7365383" lon="8.24239"><ele>300.0</ele><time>2026-04-25T16:34:41.998Z</time></trkpt><trkpt lat="44.7365383" lon="8.2425383"><ele>299.0</ele><time>2026-04-25T16:34:42.997Z</time></trkpt><trkpt lat="44.7365367" lon="8.2426833"><ele>298.0</ele><time>2026-04-25T16:34:44.003Z</time></trkpt><trkpt lat="44.736535" lon="8.2428283"><ele>297.0</ele><time>2026-04-25T16:34:44.997Z</time></trkpt><trkpt lat="44.7365267" lon="8.2429733"><ele>297.0</ele><time>2026-04-25T16:34:45.996Z</time></trkpt><trkpt lat="44.736515" lon="8.243115"><ele>297.0</ele><time>2026-04-25T16:34:46.995Z</time></trkpt><trkpt lat="44.7365017" lon="8.2432567"><ele>297.0</ele><time>2026-04-25T16:34:47.995Z</time></trkpt><trkpt lat="44.7364917" lon="8.243395"><ele>297.0</ele><time>2026-04-25T16:34:49.002Z</time></trkpt><trkpt lat="44.736485" lon="8.2435383"><ele>297.0</ele><time>2026-04-25T16:34:49.997Z</time></trkpt><trkpt lat="44.7364833" lon="8.2436783"><ele>297.3333333333333</ele><time>2026-04-25T16:34:50.997Z</time></trkpt><trkpt lat="44.7364883" lon="8.2438217"><ele>297.6666666666667</ele><time>2026-04-25T16:34:51.994Z</time></trkpt><trkpt lat="44.736495" lon="8.2439533"><ele>298.0</ele><time>2026-04-25T16:34:52.996Z</time></trkpt><trkpt lat="44.7365083" lon="8.2440633"><ele>298.33333333333337</ele><time>2026-04-25T16:34:53.996Z</time></trkpt><trkpt lat="44.73654" lon="8.24416"><ele>298.6666666666667</ele><time>2026-04-25T16:34:54.998Z</time></trkpt><trkpt lat="44.73657" lon="8.2442433"><ele>299.0</ele><time>2026-04-25T16:34:55.995Z</time></trkpt><trkpt lat="44.7366133" lon="8.2443183"><ele>300.2</ele><time>2026-04-25T16:34:57.002Z</time></trkpt><trkpt lat="44.7366733" lon="8.2443817"><ele>301.4</ele><time>2026-04-25T16:34:57.998Z</time></trkpt><trkpt lat="44.73675" lon="8.2444483"><ele>302.6</ele><time>2026-04-25T16:34:58.998Z</time></trkpt><trkpt lat="44.7368367" lon="8.2445167"><ele>303.8</ele><time>2026-04-25T16:34:59.993Z</time></trkpt><trkpt lat="44.736925" lon="8.244595"><ele>305.0</ele><time>2026-04-25T16:35:00.999Z</time></trkpt><trkpt lat="44.737015" lon="8.244675"><ele>302.75</ele><time>2026-04-25T16:35:01.999Z</time></trkpt><trkpt lat="44.73711" lon="8.24476"><ele>300.5</ele><time>2026-04-25T16:35:02.997Z</time></trkpt><trkpt lat="44.7372233" lon="8.2448667"><ele>298.25</ele><time>2026-04-25T16:35:04Z</time></trkpt><trkpt lat="44.73732" lon="8.24497"><ele>296.0</ele><time>2026-04-25T16:35:04.992Z</time></trkpt><trkpt lat="44.737415" lon="8.24509"><ele>296.0</ele><time>2026-04-25T16:35:05.994Z</time></trkpt><trkpt lat="44.737515" lon="8.2452"><ele>296.0</ele><time>2026-04-25T16:35:06.998Z</time></trkpt><trkpt lat="44.73762" lon="8.2453"><ele>296.0</ele><time>2026-04-25T16:35:07.999Z</time></trkpt><trkpt lat="44.7377283" lon="8.2453883"><ele>296.0</ele><time>2026-04-25T16:35:08.996Z</time></trkpt><trkpt lat="44.7378383" lon="8.2454617"><ele>294.40000000000003</ele><time>2026-04-25T16:35:10Z</time></trkpt><trkpt lat="44.737945" lon="8.2455117"><ele>292.8</ele><time>2026-04-25T16:35:10.994Z</time></trkpt><trkpt lat="44.738055" lon="8.2455367"><ele>291.20000000000005</ele><time>2026-04-25T16:35:11.999Z</time></trkpt><trkpt lat="44.73816" lon="8.24555"><ele>289.6</ele><time>2026-04-25T16:35:12.996Z</time></trkpt><trkpt lat="44.7382483" lon="8.2455717"><ele>288.0</ele><time>2026-04-25T16:35:13.993Z</time></trkpt><trkpt lat="44.7383267" lon="8.24559"><ele>288.0</ele><time>2026-04-25T16:35:14.997Z</time></trkpt><trkpt lat="44.73839" lon="8.2456083"><ele>288.0</ele><time>2026-04-25T16:35:16.003Z</time></trkpt><trkpt lat="44.7385" lon="8.245685"><ele>288.0</ele><time>2026-04-25T16:35:18.002Z</time></trkpt><trkpt lat="44.7385783" lon="8.2457133"><ele>288.0</ele><time>2026-04-25T16:35:18.999Z</time></trkpt><trkpt lat="44.7386667" lon="8.2457383"><ele>288.0</ele><time>2026-04-25T16:35:19.995Z</time></trkpt><trkpt lat="44.738765" lon="8.2457517"><ele>289.5</ele><time>2026-04-25T16:35:20.999Z</time></trkpt><trkpt lat="44.7388733" lon="8.245765"><ele>291.0</ele><time>2026-04-25T16:35:21.993Z</time></trkpt><trkpt lat="44.73899" lon="8.2457883"><ele>292.5</ele><time>2026-04-25T16:35:22.994Z</time></trkpt><trkpt lat="44.7391" lon="8.24583"><ele>294.0</ele><time>2026-04-25T16:35:23.995Z</time></trkpt><trkpt lat="44.7392017" lon="8.2458933"><ele>294.0</ele><time>2026-04-25T16:35:24.998Z</time></trkpt><trkpt lat="44.739295" lon="8.24597"><ele>294.0</ele><time>2026-04-25T16:35:25.993Z</time></trkpt><trkpt lat="44.7393833" lon="8.2460483"><ele>294.0</ele><time>2026-04-25T16:35:26.998Z</time></trkpt><trkpt lat="44.73946" lon="8.2461317"><ele>294.0</ele><time>2026-04-25T16:35:27.999Z</time></trkpt><trkpt lat="44.73953" lon="8.246225"><ele>294.0</ele><time>2026-04-25T16:35:28.994Z</time></trkpt><trkpt lat="44.7396" lon="8.24632"><ele>294.2</ele><time>2026-04-25T16:35:29.995Z</time></trkpt><trkpt lat="44.73965" lon="8.246435"><ele>294.4</ele><time>2026-04-25T16:35:30.993Z</time></trkpt><trkpt lat="44.73971" lon="8.2465417"><ele>294.6</ele><time>2026-04-25T16:35:31.997Z</time></trkpt><trkpt lat="44.7397717" lon="8.24664"><ele>294.8</ele><time>2026-04-25T16:35:32.995Z</time></trkpt><trkpt lat="44.7398467" lon="8.2467283"><ele>295.0</ele><time>2026-04-25T16:35:33.994Z</time></trkpt><trkpt lat="44.73992" lon="8.2468117"><ele>295.0</ele><time>2026-04-25T16:35:34.996Z</time></trkpt><trkpt lat="44.7399783" lon="8.2469133"><ele>295.0</ele><time>2026-04-25T16:35:36Z</time></trkpt><trkpt lat="44.74005" lon="8.247"><ele>295.0</ele><time>2026-04-25T16:35:36.994Z</time></trkpt><trkpt lat="44.7401367" lon="8.24707"><ele>295.0</ele><time>2026-04-25T16:35:37.992Z</time></trkpt><trkpt lat="44.7402367" lon="8.2471367"><ele>295.0</ele><time>2026-04-25T16:35:39.002Z</time></trkpt><trkpt lat="44.7403383" lon="8.2472017"><ele>292.0</ele><time>2026-04-25T16:35:39.997Z</time></trkpt><trkpt lat="44.7404383" lon="8.2472617"><ele>289.0</ele><time>2026-04-25T16:35:40.995Z</time></trkpt><trkpt lat="44.740525" lon="8.2473317"><ele>286.0</ele><time>2026-04-25T16:35:42.002Z</time></trkpt><trkpt lat="44.740605" lon="8.2474217"><ele>283.0</ele><time>2026-04-25T16:35:42.996Z</time></trkpt><trkpt lat="44.74067" lon="8.2475317"><ele>280.0</ele><time>2026-04-25T16:35:43.996Z</time></trkpt><trkpt lat="44.7407283" lon="8.2476533"><ele>279.8</ele><time>2026-04-25T16:35:44.996Z</time></trkpt><trkpt lat="44.740785" lon="8.24777"><ele>279.6</ele><time>2026-04-25T16:35:45.999Z</time></trkpt><trkpt lat="44.7408617" lon="8.247865"><ele>279.4</ele><time>2026-04-25T16:35:46.998Z</time></trkpt><trkpt lat="44.7409533" lon="8.2479467"><ele>279.2</ele><time>2026-04-25T16:35:47.998Z</time></trkpt><trkpt lat="44.7410533" lon="8.248"><ele>279.0</ele><time>2026-04-25T16:35:48.997Z</time></trkpt><trkpt lat="44.741165" lon="8.24804"><ele>276.25</ele><time>2026-04-25T16:35:49.995Z</time></trkpt><trkpt lat="44.74129" lon="8.248075"><ele>273.5</ele><time>2026-04-25T16:35:50.999Z</time></trkpt><trkpt lat="44.7414167" lon="8.2481083"><ele>270.75</ele><time>2026-04-25T16:35:51.995Z</time></trkpt><trkpt lat="44.7415533" lon="8.24814"><ele>268.0</ele><time>2026-04-25T16:35:52.993Z</time></trkpt><trkpt lat="44.7416917" lon="8.2481767"><ele>268.0</ele><time>2026-04-25T16:35:53.994Z</time></trkpt><trkpt lat="44.7418333" lon="8.2482217"><ele>268.0</ele><time>2026-04-25T16:35:54.998Z</time></trkpt><trkpt lat="44.7419667" lon="8.2482817"><ele>268.0</ele><time>2026-04-25T16:35:55.994Z</time></trkpt><trkpt lat="44.742105" lon="8.2483483"><ele>268.0</ele><time>2026-04-25T16:35:57Z</time></trkpt><trkpt lat="44.74224" lon="8.248435"><ele>265.75</ele><time>2026-04-25T16:35:57.994Z</time></trkpt><trkpt lat="44.7423683" lon="8.2485283"><ele>263.5</ele><time>2026-04-25T16:35:58.992Z</time></trkpt><trkpt lat="44.74249" lon="8.24862"><ele>261.25</ele><time>2026-04-25T16:35:59.998Z</time></trkpt><trkpt lat="44.742605" lon="8.2486967"><ele>259.0</ele><time>2026-04-25T16:36:00.993Z</time></trkpt><trkpt lat="44.7427117" lon="8.2487617"><ele>257.2</ele><time>2026-04-25T16:36:01.999Z</time></trkpt><trkpt lat="44.7428183" lon="8.2488167"><ele>255.39999999999998</ele><time>2026-04-25T16:36:02.997Z</time></trkpt><trkpt lat="44.7429167" lon="8.248875"><ele>253.6</ele><time>2026-04-25T16:36:03.996Z</time></trkpt><trkpt lat="44.7430117" lon="8.2489417"><ele>251.8</ele><time>2026-04-25T16:36:05.001Z</time></trkpt><trkpt lat="44.7431017" lon="8.24902"><ele>250.0</ele><time>2026-04-25T16:36:05.998Z</time></trkpt><trkpt lat="44.743185" lon="8.249105"><ele>250.0</ele><time>2026-04-25T16:36:07.002Z</time></trkpt><trkpt lat="44.7432633" lon="8.2491917"><ele>250.0</ele><time>2026-04-25T16:36:07.998Z</time></trkpt><trkpt lat="44.7433417" lon="8.249285"><ele>250.0</ele><time>2026-04-25T16:36:08.998Z</time></trkpt><trkpt lat="44.7434183" lon="8.2493733"><ele>250.0</ele><time>2026-04-25T16:36:09.996Z</time></trkpt><trkpt lat="44.743485" lon="8.24947"><ele>250.0</ele><time>2026-04-25T16:36:11.002Z</time></trkpt><trkpt lat="44.7435517" lon="8.2495617"><ele>246.6</ele><time>2026-04-25T16:36:12.003Z</time></trkpt><trkpt lat="44.7436117" lon="8.249665"><ele>243.2</ele><time>2026-04-25T16:36:13Z</time></trkpt><trkpt lat="44.74366" lon="8.2497833"><ele>239.8</ele><time>2026-04-25T16:36:14.001Z</time></trkpt><trkpt lat="44.743705" lon="8.2499083"><ele>236.4</ele><time>2026-04-25T16:36:14.999Z</time></trkpt><trkpt lat="44.74374" lon="8.250045"><ele>233.0</ele><time>2026-04-25T16:36:15.994Z</time></trkpt><trkpt lat="44.7437717" lon="8.2501883"><ele>232.4</ele><time>2026-04-25T16:36:16.999Z</time></trkpt><trkpt lat="44.7437983" lon="8.25034"><ele>231.8</ele><time>2026-04-25T16:36:17.998Z</time></trkpt><trkpt lat="44.743815" lon="8.250485"><ele>231.2</ele><time>2026-04-25T16:36:18.999Z</time></trkpt><trkpt lat="44.74383" lon="8.250625"><ele>230.6</ele><time>2026-04-25T16:36:19.996Z</time></trkpt><trkpt lat="44.743855" lon="8.25076"><ele>230.0</ele><time>2026-04-25T16:36:20.996Z</time></trkpt><trkpt lat="44.7439" lon="8.2508833"><ele>229.6</ele><time>2026-04-25T16:36:21.998Z</time></trkpt><trkpt lat="44.7439633" lon="8.250985"><ele>229.2</ele><time>2026-04-25T16:36:23Z</time></trkpt><trkpt lat="44.7440367" lon="8.25107"><ele>228.8</ele><time>2026-04-25T16:36:23.995Z</time></trkpt><trkpt lat="44.7441183" lon="8.2511567"><ele>228.4</ele><time>2026-04-25T16:36:24.993Z</time></trkpt><trkpt lat="44.7442033" lon="8.2512483"><ele>228.0</ele><time>2026-04-25T16:36:26.002Z</time></trkpt><trkpt lat="44.7442883" lon="8.2513433"><ele>228.0</ele><time>2026-04-25T16:36:26.995Z</time></trkpt><trkpt lat="44.7443733" lon="8.2514317"><ele>228.0</ele><time>2026-04-25T16:36:27.994Z</time></trkpt><trkpt lat="44.7444583" lon="8.25151"><ele>228.0</ele><time>2026-04-25T16:36:28.994Z</time></trkpt><trkpt lat="44.74454" lon="8.25158"><ele>228.0</ele><time>2026-04-25T16:36:29.996Z</time></trkpt><trkpt lat="44.7446183" lon="8.2516433"><ele>228.0</ele><time>2026-04-25T16:36:30.995Z</time></trkpt><trkpt lat="44.7446967" lon="8.2517033"><ele>227.16666666666666</ele><time>2026-04-25T16:36:31.996Z</time></trkpt><trkpt lat="44.7447683" lon="8.2517633"><ele>226.33333333333331</ele><time>2026-04-25T16:36:32.997Z</time></trkpt><trkpt lat="44.7448383" lon="8.2518217"><ele>225.5</ele><time>2026-04-25T16:36:33.995Z</time></trkpt><trkpt lat="44.7449" lon="8.2518833"><ele>224.66666666666666</ele><time>2026-04-25T16:36:34.996Z</time></trkpt><trkpt lat="44.7449633" lon="8.2519517"><ele>223.83333333333331</ele><time>2026-04-25T16:36:36Z</time></trkpt><trkpt lat="44.7450183" lon="8.252025"><ele>223.0</ele><time>2026-04-25T16:36:36.998Z</time></trkpt><trkpt lat="44.7450617" lon="8.2520983"><ele>222.99999999999997</ele><time>2026-04-25T16:36:37.995Z</time></trkpt><trkpt lat="44.7451033" lon="8.252175"><ele>223.0</ele><time>2026-04-25T16:36:38.997Z</time></trkpt><trkpt lat="44.7451383" lon="8.2522517"><ele>223.0</ele><time>2026-04-25T16:36:39.997Z</time></trkpt><trkpt lat="44.7451917" lon="8.2523883"><ele>223.0</ele><time>2026-04-25T16:36:41.996Z</time></trkpt><trkpt lat="44.7452317" lon="8.252475"><ele>222.99999999999997</ele><time>2026-04-25T16:36:44.994Z</time></trkpt><trkpt lat="44.745305" lon="8.252495"><ele>223.0</ele><time>2026-04-25T16:37:00.008Z</time></trkpt><trkpt lat="44.74541" lon="8.252465"><ele>223.66666666666666</ele><time>2026-04-25T16:37:02.003Z</time></trkpt><trkpt lat="44.7454717" lon="8.252445"><ele>224.33333333333331</ele><time>2026-04-25T16:37:03.001Z</time></trkpt><trkpt lat="44.7455367" lon="8.2524217"><ele>225.0</ele><time>2026-04-25T16:37:03.996Z</time></trkpt><trkpt lat="44.7456" lon="8.2524067"><ele>225.66666666666669</ele><time>2026-04-25T16:37:04.996Z</time></trkpt><trkpt lat="44.7457267" lon="8.2523567"><ele>226.33333333333334</ele><time>2026-04-25T16:37:06.998Z</time></trkpt><trkpt lat="44.745805" lon="8.2523233"><ele>227.0</ele><time>2026-04-25T16:37:07.999Z</time></trkpt><trkpt lat="44.74589" lon="8.25229"><ele>227.0</ele><time>2026-04-25T16:37:08.992Z</time></trkpt><trkpt lat="44.745995" lon="8.2522767"><ele>227.0</ele><time>2026-04-25T16:37:09.999Z</time></trkpt><trkpt lat="44.7460983" lon="8.2522567"><ele>227.0</ele><time>2026-04-25T16:37:10.994Z</time></trkpt><trkpt lat="44.7462" lon="8.252245"><ele>227.0</ele><time>2026-04-25T16:37:12.002Z</time></trkpt><trkpt lat="44.7462967" lon="8.2522283"><ele>227.0</ele><time>2026-04-25T16:37:12.995Z</time></trkpt><trkpt lat="44.7463817" lon="8.2522033"><ele>227.33333333333334</ele><time>2026-04-25T16:37:13.994Z</time></trkpt><trkpt lat="44.74647" lon="8.25218"><ele>227.66666666666669</ele><time>2026-04-25T16:37:14.996Z</time></trkpt><trkpt lat="44.746545" lon="8.2521617"><ele>228.0</ele><time>2026-04-25T16:37:15.994Z</time></trkpt><trkpt lat="44.74661" lon="8.252145"><ele>228.33333333333331</ele><time>2026-04-25T16:37:16.997Z</time></trkpt><trkpt lat="44.74671" lon="8.2521267"><ele>228.66666666666666</ele><time>2026-04-25T16:37:18.999Z</time></trkpt><trkpt lat="44.7468" lon="8.2521783"><ele>229.0</ele><time>2026-04-25T16:37:29.998Z</time></trkpt><trkpt lat="44.7468967" lon="8.2522233"><ele>228.49999999999997</ele><time>2026-04-25T16:37:31.999Z</time></trkpt><trkpt lat="44.7469567" lon="8.2522567"><ele>228.0</ele><time>2026-04-25T16:37:32.998Z</time></trkpt><trkpt lat="44.7470117" lon="8.2523033"><ele>227.5</ele><time>2026-04-25T16:37:33.992Z</time></trkpt><trkpt lat="44.747095" lon="8.25236"><ele>227.0</ele><time>2026-04-25T16:37:34.995Z</time></trkpt><trkpt lat="44.7471967" lon="8.2524233"><ele>226.49999999999997</ele><time>2026-04-25T16:37:35.998Z</time></trkpt><trkpt lat="44.747305" lon="8.252465"><ele>226.0</ele><time>2026-04-25T16:37:36.996Z</time></trkpt><trkpt lat="44.747415" lon="8.252475"><ele>226.0</ele><time>2026-04-25T16:37:37.997Z</time></trkpt><trkpt lat="44.74754" lon="8.2524317"><ele>226.0</ele><time>2026-04-25T16:37:38.997Z</time></trkpt><trkpt lat="44.7476567" lon="8.2523583"><ele>226.0</ele><time>2026-04-25T16:37:39.994Z</time></trkpt><trkpt lat="44.747775" lon="8.2522617"><ele>226.0</ele><time>2026-04-25T16:37:40.997Z</time></trkpt><trkpt lat="44.7478983" lon="8.2521617"><ele>223.75</ele><time>2026-04-25T16:37:41.992Z</time></trkpt><trkpt lat="44.74803" lon="8.2520617"><ele>221.5</ele><time>2026-04-25T16:37:42.995Z</time></trkpt><trkpt lat="44.7481667" lon="8.2519767"><ele>219.25</ele><time>2026-04-25T16:37:43.994Z</time></trkpt><trkpt lat="44.7483033" lon="8.2518917"><ele>217.0</ele><time>2026-04-25T16:37:44.994Z</time></trkpt><trkpt lat="44.7484417" lon="8.2518167"><ele>216.0</ele><time>2026-04-25T16:37:45.998Z</time></trkpt><trkpt lat="44.74858" lon="8.251745"><ele>215.0</ele><time>2026-04-25T16:37:46.995Z</time></trkpt><trkpt lat="44.74872" lon="8.2516683"><ele>214.0</ele><time>2026-04-25T16:37:47.997Z</time></trkpt><trkpt lat="44.7488567" lon="8.2516"><ele>213.0</ele><time>2026-04-25T16:37:49.002Z</time></trkpt><trkpt lat="44.7489783" lon="8.2515417"><ele>213.0</ele><time>2026-04-25T16:37:49.998Z</time></trkpt><trkpt lat="44.749085" lon="8.2514817"><ele>213.0</ele><time>2026-04-25T16:37:50.997Z</time></trkpt><trkpt lat="44.7491767" lon="8.2513983"><ele>213.0</ele><time>2026-04-25T16:37:51.996Z</time></trkpt><trkpt lat="44.74923" lon="8.2513017"><ele>213.0</ele><time>2026-04-25T16:37:52.993Z</time></trkpt><trkpt lat="44.7492733" lon="8.2511917"><ele>213.0</ele><time>2026-04-25T16:37:53.994Z</time></trkpt><trkpt lat="44.749265" lon="8.2510317"><ele>210.75</ele><time>2026-04-25T16:37:54.994Z</time></trkpt><trkpt lat="44.7492283" lon="8.250855"><ele>208.5</ele><time>2026-04-25T16:37:55.996Z</time></trkpt><trkpt lat="44.749175" lon="8.25067"><ele>206.25</ele><time>2026-04-25T16:37:56.993Z</time></trkpt><trkpt lat="44.74913" lon="8.2504767"><ele>204.0</ele><time>2026-04-25T16:37:57.996Z</time></trkpt><trkpt lat="44.7490867" lon="8.2502967"><ele>203.0</ele><time>2026-04-25T16:37:58.995Z</time></trkpt><trkpt lat="44.7490267" lon="8.2501567"><ele>202.0</ele><time>2026-04-25T16:37:59.995Z</time></trkpt><trkpt lat="44.7489567" lon="8.2500383"><ele>201.0</ele><time>2026-04-25T16:38:00.996Z</time></trkpt><trkpt lat="44.7488867" lon="8.2499333"><ele>200.0</ele><time>2026-04-25T16:38:01.993Z</time></trkpt><trkpt lat="44.7488317" lon="8.2498183"><ele>199.0</ele><time>2026-04-25T16:38:02.997Z</time></trkpt><trkpt lat="44.7488033" lon="8.2496933"><ele>198.5</ele><time>2026-04-25T16:38:03.996Z</time></trkpt><trkpt lat="44.7487883" lon="8.2495667"><ele>198.0</ele><time>2026-04-25T16:38:04.995Z</time></trkpt><trkpt lat="44.748835" lon="8.249415"><ele>197.5</ele><time>2026-04-25T16:38:05.999Z</time></trkpt><trkpt lat="44.7488983" lon="8.2492633"><ele>197.0</ele><time>2026-04-25T16:38:06.995Z</time></trkpt><trkpt lat="44.74897" lon="8.2491"><ele>197.5</ele><time>2026-04-25T16:38:07.995Z</time></trkpt><trkpt lat="44.7490383" lon="8.24893"><ele>198.0</ele><time>2026-04-25T16:38:08.996Z</time></trkpt><trkpt lat="44.7491" lon="8.2487767"><ele>198.5</ele><time>2026-04-25T16:38:09.994Z</time></trkpt><trkpt lat="44.7491583" lon="8.2486433"><ele>199.0</ele><time>2026-04-25T16:38:10.995Z</time></trkpt><trkpt lat="44.74922" lon="8.2485417"><ele>198.99999999999997</ele><time>2026-04-25T16:38:11.997Z</time></trkpt><trkpt lat="44.749285" lon="8.2484633"><ele>199.0</ele><time>2026-04-25T16:38:12.996Z</time></trkpt><trkpt lat="44.7493483" lon="8.24847"><ele>199.0</ele><time>2026-04-25T16:38:14Z</time></trkpt><trkpt lat="44.7494117" lon="8.24854"><ele>199.0</ele><time>2026-04-25T16:38:14.998Z</time></trkpt><trkpt lat="44.7494567" lon="8.2486583"><ele>198.99999999999997</ele><time>2026-04-25T16:38:15.993Z</time></trkpt><trkpt lat="44.7494867" lon="8.2487967"><ele>199.0</ele><time>2026-04-25T16:38:16.996Z</time></trkpt><trkpt lat="44.749525" lon="8.2489333"><ele>196.5</ele><time>2026-04-25T16:38:17.999Z</time></trkpt><trkpt lat="44.749585" lon="8.249075"><ele>194.0</ele><time>2026-04-25T16:38:18.995Z</time></trkpt><trkpt lat="44.749665" lon="8.249225"><ele>191.5</ele><time>2026-04-25T16:38:19.997Z</time></trkpt><trkpt lat="44.7497667" lon="8.24937"><ele>189.0</ele><time>2026-04-25T16:38:21.003Z</time></trkpt><trkpt lat="44.749885" lon="8.2495017"><ele>189.0</ele><time>2026-04-25T16:38:22.002Z</time></trkpt><trkpt lat="44.7500067" lon="8.2496367"><ele>189.0</ele><time>2026-04-25T16:38:22.996Z</time></trkpt><trkpt lat="44.7501367" lon="8.249765"><ele>189.0</ele><time>2026-04-25T16:38:23.997Z</time></trkpt><trkpt lat="44.750275" lon="8.24988"><ele>188.33333333333334</ele><time>2026-04-25T16:38:24.997Z</time></trkpt><trkpt lat="44.750415" lon="8.24999"><ele>187.66666666666669</ele><time>2026-04-25T16:38:25.997Z</time></trkpt><trkpt lat="44.7505617" lon="8.2500867"><ele>187.0</ele><time>2026-04-25T16:38:27.001Z</time></trkpt><trkpt lat="44.75071" lon="8.25018"><ele>187.0</ele><time>2026-04-25T16:38:28.001Z</time></trkpt><trkpt lat="44.7508633" lon="8.250255"><ele>187.0</ele><time>2026-04-25T16:38:29.001Z</time></trkpt><trkpt lat="44.7510267" lon="8.2503067"><ele>187.0</ele><time>2026-04-25T16:38:29.997Z</time></trkpt><trkpt lat="44.7511917" lon="8.2503317"><ele>185.33333333333334</ele><time>2026-04-25T16:38:31Z</time></trkpt><trkpt lat="44.7513633" lon="8.2503433"><ele>183.66666666666666</ele><time>2026-04-25T16:38:31.994Z</time></trkpt><trkpt lat="44.75153" lon="8.2503433"><ele>182.0</ele><time>2026-04-25T16:38:32.995Z</time></trkpt><trkpt lat="44.7517" lon="8.250335"><ele>182.0</ele><time>2026-04-25T16:38:33.996Z</time></trkpt><trkpt lat="44.7518717" lon="8.2503367"><ele>182.0</ele><time>2026-04-25T16:38:34.994Z</time></trkpt><trkpt lat="44.75203" lon="8.2503367"><ele>182.0</ele><time>2026-04-25T16:38:35.996Z</time></trkpt><trkpt lat="44.7521767" lon="8.250305"><ele>181.33333333333331</ele><time>2026-04-25T16:38:36.996Z</time></trkpt><trkpt lat="44.7523267" lon="8.25024"><ele>180.66666666666666</ele><time>2026-04-25T16:38:37.999Z</time></trkpt><trkpt lat="44.7524717" lon="8.2501433"><ele>180.0</ele><time>2026-04-25T16:38:38.996Z</time></trkpt><trkpt lat="44.7526117" lon="8.2500217"><ele>179.66666666666666</ele><time>2026-04-25T16:38:39.996Z</time></trkpt><trkpt lat="44.7527433" lon="8.2498833"><ele>179.33333333333331</ele><time>2026-04-25T16:38:40.993Z</time></trkpt><trkpt lat="44.75288" lon="8.2497433"><ele>179.0</ele><time>2026-04-25T16:38:42.002Z</time></trkpt><trkpt lat="44.75301" lon="8.2496083"><ele>179.0</ele><time>2026-04-25T16:38:42.995Z</time></trkpt><trkpt lat="44.75314" lon="8.2494733"><ele>179.0</ele><time>2026-04-25T16:38:43.996Z</time></trkpt><trkpt lat="44.753275" lon="8.249345"><ele>179.0</ele><time>2026-04-25T16:38:44.997Z</time></trkpt><trkpt lat="44.7534117" lon="8.24922"><ele>178.33333333333331</ele><time>2026-04-25T16:38:45.994Z</time></trkpt><trkpt lat="44.75355" lon="8.2490967"><ele>177.66666666666666</ele><time>2026-04-25T16:38:46.998Z</time></trkpt><trkpt lat="44.75369" lon="8.24897"><ele>177.0</ele><time>2026-04-25T16:38:47.999Z</time></trkpt><trkpt lat="44.753835" lon="8.2488433"><ele>177.0</ele><time>2026-04-25T16:38:48.997Z</time></trkpt><trkpt lat="44.7539833" lon="8.2487133"><ele>177.0</ele><time>2026-04-25T16:38:49.998Z</time></trkpt><trkpt lat="44.7541333" lon="8.2485883"><ele>177.0</ele><time>2026-04-25T16:38:50.999Z</time></trkpt><trkpt lat="44.75429" lon="8.24847"><ele>177.33333333333334</ele><time>2026-04-25T16:38:51.995Z</time></trkpt><trkpt lat="44.75445" lon="8.24836"><ele>177.66666666666669</ele><time>2026-04-25T16:38:53Z</time></trkpt><trkpt lat="44.75461" lon="8.2482583"><ele>178.0</ele><time>2026-04-25T16:38:54.001Z</time></trkpt><trkpt lat="44.7547683" lon="8.24816"><ele>176.33333333333334</ele><time>2026-04-25T16:38:54.996Z</time></trkpt><trkpt lat="44.75493" lon="8.2480583"><ele>174.66666666666666</ele><time>2026-04-25T16:38:55.995Z</time></trkpt><trkpt lat="44.75509" lon="8.2479617"><ele>173.0</ele><time>2026-04-25T16:38:56.997Z</time></trkpt><trkpt lat="44.7552467" lon="8.2478617"><ele>172.33333333333331</ele><time>2026-04-25T16:38:57.996Z</time></trkpt><trkpt lat="44.755405" lon="8.2477633"><ele>171.66666666666666</ele><time>2026-04-25T16:38:58.996Z</time></trkpt><trkpt lat="44.7555633" lon="8.2476733"><ele>171.0</ele><time>2026-04-25T16:38:59.997Z</time></trkpt><trkpt lat="44.7557283" lon="8.2475783"><ele>171.0</ele><time>2026-04-25T16:39:00.999Z</time></trkpt><trkpt lat="44.7558967" lon="8.2474783"><ele>171.0</ele><time>2026-04-25T16:39:01.999Z</time></trkpt><trkpt lat="44.7560683" lon="8.2473733"><ele>171.0</ele><time>2026-04-25T16:39:03.001Z</time></trkpt><trkpt lat="44.7562417" lon="8.2472667"><ele>170.66666666666666</ele><time>2026-04-25T16:39:03.999Z</time></trkpt><trkpt lat="44.7564183" lon="8.247155"><ele>170.33333333333331</ele><time>2026-04-25T16:39:04.996Z</time></trkpt><trkpt lat="44.7566" lon="8.2470467"><ele>170.0</ele><time>2026-04-25T16:39:05.998Z</time></trkpt><trkpt lat="44.756785" lon="8.24694"><ele>171.0</ele><time>2026-04-25T16:39:07.001Z</time></trkpt><trkpt lat="44.7569783" lon="8.24682"><ele>172.0</ele><time>2026-04-25T16:39:07.997Z</time></trkpt><trkpt lat="44.7571717" lon="8.2466933"><ele>173.0</ele><time>2026-04-25T16:39:08.998Z</time></trkpt><trkpt lat="44.75736" lon="8.2465683"><ele>172.33333333333331</ele><time>2026-04-25T16:39:09.994Z</time></trkpt><trkpt lat="44.7575417" lon="8.24644"><ele>171.66666666666666</ele><time>2026-04-25T16:39:11Z</time></trkpt><trkpt lat="44.7577233" lon="8.246305"><ele>171.0</ele><time>2026-04-25T16:39:11.999Z</time></trkpt><trkpt lat="44.7579017" lon="8.2461683"><ele>171.0</ele><time>2026-04-25T16:39:12.998Z</time></trkpt><trkpt lat="44.7580767" lon="8.2460217"><ele>171.0</ele><time>2026-04-25T16:39:13.995Z</time></trkpt><trkpt lat="44.7582517" lon="8.2458817"><ele>171.0</ele><time>2026-04-25T16:39:14.993Z</time></trkpt><trkpt lat="44.7584267" lon="8.24574"><ele>170.0</ele><time>2026-04-25T16:39:15.995Z</time></trkpt><trkpt lat="44.7586067" lon="8.2456017"><ele>169.0</ele><time>2026-04-25T16:39:16.993Z</time></trkpt><trkpt lat="44.75878" lon="8.245465"><ele>168.0</ele><time>2026-04-25T16:39:17.996Z</time></trkpt><trkpt lat="44.7589583" lon="8.2453233"><ele>168.0</ele><time>2026-04-25T16:39:18.995Z</time></trkpt><trkpt lat="44.7591267" lon="8.2451883"><ele>168.0</ele><time>2026-04-25T16:39:19.997Z</time></trkpt><trkpt lat="44.7592967" lon="8.2450517"><ele>168.0</ele><time>2026-04-25T16:39:20.998Z</time></trkpt><trkpt lat="44.7594683" lon="8.244925"><ele>169.0</ele><time>2026-04-25T16:39:21.992Z</time></trkpt><trkpt lat="44.75965" lon="8.2448083"><ele>170.0</ele><time>2026-04-25T16:39:22.995Z</time></trkpt><trkpt lat="44.7598317" lon="8.2446983"><ele>171.0</ele><time>2026-04-25T16:39:23.994Z</time></trkpt><trkpt lat="44.7600133" lon="8.24459"><ele>170.0</ele><time>2026-04-25T16:39:24.996Z</time></trkpt><trkpt lat="44.7601917" lon="8.2444867"><ele>169.0</ele><time>2026-04-25T16:39:25.996Z</time></trkpt><trkpt lat="44.7603617" lon="8.24439"><ele>168.0</ele><time>2026-04-25T16:39:26.996Z</time></trkpt><trkpt lat="44.76053" lon="8.2442983"><ele>168.0</ele><time>2026-04-25T16:39:27.996Z</time></trkpt><trkpt lat="44.76069" lon="8.244205"><ele>168.0</ele><time>2026-04-25T16:39:28.996Z</time></trkpt><trkpt lat="44.7608367" lon="8.2441217"><ele>168.0</ele><time>2026-04-25T16:39:29.998Z</time></trkpt><trkpt lat="44.76097" lon="8.2440383"><ele>167.5</ele><time>2026-04-25T16:39:30.996Z</time></trkpt><trkpt lat="44.7610883" lon="8.2439617"><ele>167.0</ele><time>2026-04-25T16:39:31.999Z</time></trkpt><trkpt lat="44.7611917" lon="8.2438683"><ele>166.5</ele><time>2026-04-25T16:39:33Z</time></trkpt><trkpt lat="44.7612733" lon="8.2437417"><ele>166.0</ele><time>2026-04-25T16:39:33.995Z</time></trkpt><trkpt lat="44.7613533" lon="8.2435967"><ele>166.0</ele><time>2026-04-25T16:39:34.995Z</time></trkpt><trkpt lat="44.7614267" lon="8.243445"><ele>166.0</ele><time>2026-04-25T16:39:35.998Z</time></trkpt><trkpt lat="44.7614933" lon="8.243295"><ele>166.0</ele><time>2026-04-25T16:39:36.997Z</time></trkpt><trkpt lat="44.76156" lon="8.2431517"><ele>166.0</ele><time>2026-04-25T16:39:38.001Z</time></trkpt><trkpt lat="44.76163" lon="8.2430067"><ele>165.5</ele><time>2026-04-25T16:39:38.998Z</time></trkpt><trkpt lat="44.7617017" lon="8.242855"><ele>165.0</ele><time>2026-04-25T16:39:39.995Z</time></trkpt><trkpt lat="44.7617817" lon="8.2427117"><ele>164.5</ele><time>2026-04-25T16:39:40.996Z</time></trkpt><trkpt lat="44.76187" lon="8.2425767"><ele>164.0</ele><time>2026-04-25T16:39:41.995Z</time></trkpt><trkpt lat="44.7619633" lon="8.242455"><ele>163.25</ele><time>2026-04-25T16:39:43.001Z</time></trkpt><trkpt lat="44.7620633" lon="8.2423433"><ele>162.5</ele><time>2026-04-25T16:39:43.995Z</time></trkpt><trkpt lat="44.7621717" lon="8.24224"><ele>161.75</ele><time>2026-04-25T16:39:44.992Z</time></trkpt><trkpt lat="44.76228" lon="8.242145"><ele>161.0</ele><time>2026-04-25T16:39:45.996Z</time></trkpt><trkpt lat="44.7623917" lon="8.2420583"><ele>161.0</ele><time>2026-04-25T16:39:46.994Z</time></trkpt><trkpt lat="44.762515" lon="8.2419767"><ele>161.0</ele><time>2026-04-25T16:39:47.998Z</time></trkpt><trkpt lat="44.7626367" lon="8.2419"><ele>161.0</ele><time>2026-04-25T16:39:48.996Z</time></trkpt><trkpt lat="44.7627617" lon="8.2418217"><ele>161.0</ele><time>2026-04-25T16:39:49.999Z</time></trkpt><trkpt lat="44.7628867" lon="8.2417467"><ele>161.5</ele><time>2026-04-25T16:39:50.995Z</time></trkpt><trkpt lat="44.7630133" lon="8.241675"><ele>162.0</ele><time>2026-04-25T16:39:51.995Z</time></trkpt><trkpt lat="44.7631433" lon="8.2415983"><ele>162.5</ele><time>2026-04-25T16:39:52.994Z</time></trkpt><trkpt lat="44.7632783" lon="8.2415283"><ele>163.0</ele><time>2026-04-25T16:39:53.999Z</time></trkpt><trkpt lat="44.7634117" lon="8.2414767"><ele>162.5</ele><time>2026-04-25T16:39:55.002Z</time></trkpt><trkpt lat="44.763545" lon="8.241435"><ele>162.0</ele><time>2026-04-25T16:39:55.995Z</time></trkpt><trkpt lat="44.7636783" lon="8.2413983"><ele>161.5</ele><time>2026-04-25T16:39:56.998Z</time></trkpt><trkpt lat="44.763815" lon="8.24135"><ele>161.0</ele><time>2026-04-25T16:39:57.997Z</time></trkpt><trkpt lat="44.76395" lon="8.24128"><ele>161.0</ele><time>2026-04-25T16:39:58.995Z</time></trkpt><trkpt lat="44.7640817" lon="8.2411883"><ele>161.0</ele><time>2026-04-25T16:39:59.997Z</time></trkpt><trkpt lat="44.7642133" lon="8.24108"><ele>161.0</ele><time>2026-04-25T16:40:00.997Z</time></trkpt><trkpt lat="44.7643383" lon="8.240975"><ele>161.0</ele><time>2026-04-25T16:40:01.995Z</time></trkpt><trkpt lat="44.7644617" lon="8.24087"><ele>161.0</ele><time>2026-04-25T16:40:02.999Z</time></trkpt><trkpt lat="44.7645817" lon="8.2407717"><ele>161.0</ele><time>2026-04-25T16:40:03.998Z</time></trkpt><trkpt lat="44.7647017" lon="8.2406733"><ele>161.0</ele><time>2026-04-25T16:40:04.996Z</time></trkpt><trkpt lat="44.764815" lon="8.240575"><ele>161.0</ele><time>2026-04-25T16:40:05.994Z</time></trkpt><trkpt lat="44.7649317" lon="8.2404717"><ele>161.0</ele><time>2026-04-25T16:40:06.997Z</time></trkpt><trkpt lat="44.76505" lon="8.2403767"><ele>161.0</ele><time>2026-04-25T16:40:07.999Z</time></trkpt><trkpt lat="44.7651683" lon="8.2402817"><ele>161.0</ele><time>2026-04-25T16:40:08.997Z</time></trkpt><trkpt lat="44.7652867" lon="8.2401817"><ele>161.0</ele><time>2026-04-25T16:40:10Z</time></trkpt><trkpt lat="44.7654033" lon="8.2400717"><ele>161.25</ele><time>2026-04-25T16:40:10.995Z</time></trkpt><trkpt lat="44.7655183" lon="8.2399483"><ele>161.5</ele><time>2026-04-25T16:40:11.997Z</time></trkpt><trkpt lat="44.7656333" lon="8.2398167"><ele>161.75</ele><time>2026-04-25T16:40:12.995Z</time></trkpt><trkpt lat="44.7657467" lon="8.2396867"><ele>162.0</ele><time>2026-04-25T16:40:13.995Z</time></trkpt><trkpt lat="44.765855" lon="8.23956"><ele>162.0</ele><time>2026-04-25T16:40:14.994Z</time></trkpt><trkpt lat="44.7659583" lon="8.2394333"><ele>162.0</ele><time>2026-04-25T16:40:16Z</time></trkpt><trkpt lat="44.766055" lon="8.23931"><ele>162.0</ele><time>2026-04-25T16:40:16.999Z</time></trkpt><trkpt lat="44.76615" lon="8.2391817"><ele>162.0</ele><time>2026-04-25T16:40:17.997Z</time></trkpt><trkpt lat="44.7662383" lon="8.2390433"><ele>161.0</ele><time>2026-04-25T16:40:18.999Z</time></trkpt><trkpt lat="44.76632" lon="8.23889"><ele>160.0</ele><time>2026-04-25T16:40:19.993Z</time></trkpt><trkpt lat="44.7663917" lon="8.2387317"><ele>159.0</ele><time>2026-04-25T16:40:21.001Z</time></trkpt><trkpt lat="44.7664617" lon="8.238575"><ele>158.0</ele><time>2026-04-25T16:40:21.997Z</time></trkpt><trkpt lat="44.76653" lon="8.2384133"><ele>158.0</ele><time>2026-04-25T16:40:22.996Z</time></trkpt><trkpt lat="44.766595" lon="8.2382567"><ele>158.0</ele><time>2026-04-25T16:40:23.998Z</time></trkpt><trkpt lat="44.7666683" lon="8.2381017"><ele>158.0</ele><time>2026-04-25T16:40:25.003Z</time></trkpt><trkpt lat="44.7667517" lon="8.2379617"><ele>158.0</ele><time>2026-04-25T16:40:25.996Z</time></trkpt><trkpt lat="44.7668467" lon="8.237835"><ele>157.75</ele><time>2026-04-25T16:40:26.998Z</time></trkpt><trkpt lat="44.7669467" lon="8.23771"><ele>157.5</ele><time>2026-04-25T16:40:27.994Z</time></trkpt><trkpt lat="44.7670517" lon="8.2375933"><ele>157.25</ele><time>2026-04-25T16:40:28.995Z</time></trkpt><trkpt lat="44.7671667" lon="8.237485"><ele>157.0</ele><time>2026-04-25T16:40:29.995Z</time></trkpt><trkpt lat="44.7672917" lon="8.2373933"><ele>157.0</ele><time>2026-04-25T16:40:30.996Z</time></trkpt><trkpt lat="44.767425" lon="8.23733"><ele>157.0</ele><time>2026-04-25T16:40:31.992Z</time></trkpt><trkpt lat="44.7675633" lon="8.2372867"><ele>157.0</ele><time>2026-04-25T16:40:32.993Z</time></trkpt><trkpt lat="44.7676967" lon="8.2372483"><ele>157.0</ele><time>2026-04-25T16:40:33.997Z</time></trkpt><trkpt lat="44.7678267" lon="8.2372067"><ele>157.25</ele><time>2026-04-25T16:40:34.994Z</time></trkpt><trkpt lat="44.7679517" lon="8.2371617"><ele>157.5</ele><time>2026-04-25T16:40:35.999Z</time></trkpt><trkpt lat="44.7680717" lon="8.237105"><ele>157.75</ele><time>2026-04-25T16:40:36.998Z</time></trkpt><trkpt lat="44.7681867" lon="8.2370333"><ele>158.0</ele><time>2026-04-25T16:40:37.997Z</time></trkpt><trkpt lat="44.7683" lon="8.236935"><ele>158.0</ele><time>2026-04-25T16:40:39Z</time></trkpt><trkpt lat="44.76841" lon="8.236825"><ele>158.0</ele><time>2026-04-25T16:40:39.998Z</time></trkpt><trkpt lat="44.7685167" lon="8.2367167"><ele>158.0</ele><time>2026-04-25T16:40:40.994Z</time></trkpt><trkpt lat="44.7686283" lon="8.2366083"><ele>158.0</ele><time>2026-04-25T16:40:41.995Z</time></trkpt><trkpt lat="44.76874" lon="8.2365017"><ele>157.25</ele><time>2026-04-25T16:40:42.995Z</time></trkpt><trkpt lat="44.76885" lon="8.23639"><ele>156.5</ele><time>2026-04-25T16:40:43.995Z</time></trkpt><trkpt lat="44.76896" lon="8.2362767"><ele>155.75</ele><time>2026-04-25T16:40:45Z</time></trkpt><trkpt lat="44.7690683" lon="8.2361667"><ele>155.0</ele><time>2026-04-25T16:40:45.995Z</time></trkpt><trkpt lat="44.7691783" lon="8.23606"><ele>155.0</ele><time>2026-04-25T16:40:47Z</time></trkpt><trkpt lat="44.76929" lon="8.2359733"><ele>155.0</ele><time>2026-04-25T16:40:47.994Z</time></trkpt><trkpt lat="44.76941" lon="8.235915"><ele>155.0</ele><time>2026-04-25T16:40:49Z</time></trkpt><trkpt lat="44.7695367" lon="8.235885"><ele>155.0</ele><time>2026-04-25T16:40:49.996Z</time></trkpt><trkpt lat="44.7696633" lon="8.2358817"><ele>155.25</ele><time>2026-04-25T16:40:50.997Z</time></trkpt><trkpt lat="44.7697917" lon="8.2358883"><ele>155.5</ele><time>2026-04-25T16:40:51.994Z</time></trkpt><trkpt lat="44.7699183" lon="8.2358917"><ele>155.75</ele><time>2026-04-25T16:40:52.995Z</time></trkpt><trkpt lat="44.7700483" lon="8.2359017"><ele>156.0</ele><time>2026-04-25T16:40:53.993Z</time></trkpt><trkpt lat="44.7701767" lon="8.235915"><ele>155.75</ele><time>2026-04-25T16:40:54.997Z</time></trkpt><trkpt lat="44.7702983" lon="8.2359467"><ele>155.5</ele><time>2026-04-25T16:40:55.993Z</time></trkpt><trkpt lat="44.7704133" lon="8.2359933"><ele>155.25</ele><time>2026-04-25T16:40:57.001Z</time></trkpt><trkpt lat="44.770525" lon="8.2360617"><ele>155.0</ele><time>2026-04-25T16:40:57.996Z</time></trkpt><trkpt lat="44.7706333" lon="8.236155"><ele>155.0</ele><time>2026-04-25T16:40:58.995Z</time></trkpt><trkpt lat="44.7707433" lon="8.2362517"><ele>155.0</ele><time>2026-04-25T16:40:59.993Z</time></trkpt><trkpt lat="44.770855" lon="8.236345"><ele>155.0</ele><time>2026-04-25T16:41:00.995Z</time></trkpt><trkpt lat="44.7709617" lon="8.2364333"><ele>155.0</ele><time>2026-04-25T16:41:01.996Z</time></trkpt><trkpt lat="44.7710683" lon="8.2365217"><ele>154.5</ele><time>2026-04-25T16:41:02.995Z</time></trkpt><trkpt lat="44.77118" lon="8.2366017"><ele>154.0</ele><time>2026-04-25T16:41:03.995Z</time></trkpt><trkpt lat="44.771295" lon="8.2366717"><ele>153.5</ele><time>2026-04-25T16:41:04.994Z</time></trkpt><trkpt lat="44.7714133" lon="8.2367383"><ele>153.0</ele><time>2026-04-25T16:41:05.998Z</time></trkpt><trkpt lat="44.7715433" lon="8.2367833"><ele>153.0</ele><time>2026-04-25T16:41:07Z</time></trkpt><trkpt lat="44.7716783" lon="8.236815"><ele>153.0</ele><time>2026-04-25T16:41:07.996Z</time></trkpt><trkpt lat="44.7718117" lon="8.2368367"><ele>153.0</ele><time>2026-04-25T16:41:08.994Z</time></trkpt><trkpt lat="44.771945" lon="8.236845"><ele>153.0</ele><time>2026-04-25T16:41:09.996Z</time></trkpt><trkpt lat="44.77208" lon="8.236835"><ele>153.25</ele><time>2026-04-25T16:41:10.993Z</time></trkpt><trkpt lat="44.772215" lon="8.2368083"><ele>153.5</ele><time>2026-04-25T16:41:11.995Z</time></trkpt><trkpt lat="44.7723417" lon="8.2367817"><ele>153.75</ele><time>2026-04-25T16:41:12.998Z</time></trkpt><trkpt lat="44.7724717" lon="8.23675"><ele>154.0</ele><time>2026-04-25T16:41:13.998Z</time></trkpt><trkpt lat="44.7725983" lon="8.236715"><ele>154.75</ele><time>2026-04-25T16:41:14.999Z</time></trkpt><trkpt lat="44.7727217" lon="8.2366817"><ele>155.5</ele><time>2026-04-25T16:41:15.995Z</time></trkpt><trkpt lat="44.7728467" lon="8.23665"><ele>156.25</ele><time>2026-04-25T16:41:16.994Z</time></trkpt><trkpt lat="44.7729667" lon="8.2366217"><ele>157.0</ele><time>2026-04-25T16:41:17.998Z</time></trkpt><trkpt lat="44.7730867" lon="8.2365933"><ele>157.0</ele><time>2026-04-25T16:41:18.997Z</time></trkpt><trkpt lat="44.773205" lon="8.2365667"><ele>157.0</ele><time>2026-04-25T16:41:20.001Z</time></trkpt><trkpt lat="44.7733183" lon="8.2365433"><ele>157.0</ele><time>2026-04-25T16:41:21.002Z</time></trkpt><trkpt lat="44.7734233" lon="8.2365233"><ele>157.0</ele><time>2026-04-25T16:41:21.993Z</time></trkpt><trkpt lat="44.773515" lon="8.2365067"><ele>157.0</ele><time>2026-04-25T16:41:22.996Z</time></trkpt><trkpt lat="44.7735983" lon="8.236495"><ele>158.0</ele><time>2026-04-25T16:41:23.995Z</time></trkpt><trkpt lat="44.7736717" lon="8.2364983"><ele>159.0</ele><time>2026-04-25T16:41:24.995Z</time></trkpt><trkpt lat="44.773745" lon="8.2365183"><ele>160.0</ele><time>2026-04-25T16:41:26Z</time></trkpt><trkpt lat="44.7738083" lon="8.236555"><ele>161.0</ele><time>2026-04-25T16:41:26.995Z</time></trkpt><trkpt lat="44.7739017" lon="8.2366133"><ele>162.0</ele><time>2026-04-25T16:41:28.992Z</time></trkpt><trkpt lat="44.774" lon="8.2366467"><ele>163.0</ele><time>2026-04-25T16:41:35.996Z</time></trkpt><trkpt lat="44.77408" lon="8.2366217"><ele>162.25</ele><time>2026-04-25T16:41:37.993Z</time></trkpt><trkpt lat="44.7741933" lon="8.2364617"><ele>161.5</ele><time>2026-04-25T16:41:39.992Z</time></trkpt><trkpt lat="44.7742617" lon="8.2363383"><ele>160.75</ele><time>2026-04-25T16:41:40.995Z</time></trkpt><trkpt lat="44.7743367" lon="8.2362017"><ele>160.0</ele><time>2026-04-25T16:41:41.995Z</time></trkpt><trkpt lat="44.77442" lon="8.2360517"><ele>160.25</ele><time>2026-04-25T16:41:43.001Z</time></trkpt><trkpt lat="44.7745017" lon="8.2358967"><ele>160.5</ele><time>2026-04-25T16:41:43.996Z</time></trkpt><trkpt lat="44.77459" lon="8.2357417"><ele>160.75</ele><time>2026-04-25T16:41:44.998Z</time></trkpt><trkpt lat="44.7746783" lon="8.2355883"><ele>161.0</ele><time>2026-04-25T16:41:45.995Z</time></trkpt><trkpt lat="44.7747633" lon="8.23544"><ele>161.0</ele><time>2026-04-25T16:41:46.999Z</time></trkpt><trkpt lat="44.7748517" lon="8.23528"><ele>161.0</ele><time>2026-04-25T16:41:47.996Z</time></trkpt><trkpt lat="44.77494" lon="8.2351233"><ele>161.0</ele><time>2026-04-25T16:41:48.999Z</time></trkpt><trkpt lat="44.7750333" lon="8.2349517"><ele>161.0</ele><time>2026-04-25T16:41:49.996Z</time></trkpt><trkpt lat="44.7751217" lon="8.2347867"><ele>161.75</ele><time>2026-04-25T16:41:51Z</time></trkpt><trkpt lat="44.7752083" lon="8.23462"><ele>162.5</ele><time>2026-04-25T16:41:52.001Z</time></trkpt><trkpt lat="44.775295" lon="8.2344483"><ele>163.25</ele><time>2026-04-25T16:41:53Z</time></trkpt><trkpt lat="44.7753767" lon="8.2342767"><ele>164.0</ele><time>2026-04-25T16:41:53.998Z</time></trkpt><trkpt lat="44.77545" lon="8.234095"><ele>163.33333333333331</ele><time>2026-04-25T16:41:54.998Z</time></trkpt><trkpt lat="44.7755233" lon="8.2339067"><ele>162.66666666666666</ele><time>2026-04-25T16:41:55.999Z</time></trkpt><trkpt lat="44.775595" lon="8.2337183"><ele>162.0</ele><time>2026-04-25T16:41:56.997Z</time></trkpt><trkpt lat="44.7756583" lon="8.2335233"><ele>162.0</ele><time>2026-04-25T16:41:57.996Z</time></trkpt><trkpt lat="44.7757167" lon="8.2333233"><ele>162.0</ele><time>2026-04-25T16:41:59.002Z</time></trkpt><trkpt lat="44.7757683" lon="8.2331167"><ele>162.0</ele><time>2026-04-25T16:41:59.998Z</time></trkpt><trkpt lat="44.7758083" lon="8.232905"><ele>161.33333333333334</ele><time>2026-04-25T16:42:00.996Z</time></trkpt><trkpt lat="44.7758433" lon="8.23269"><ele>160.66666666666669</ele><time>2026-04-25T16:42:01.999Z</time></trkpt><trkpt lat="44.775875" lon="8.2324717"><ele>160.0</ele><time>2026-04-25T16:42:02.998Z</time></trkpt><trkpt lat="44.775905" lon="8.2322517"><ele>160.0</ele><time>2026-04-25T16:42:03.998Z</time></trkpt><trkpt lat="44.775935" lon="8.2320333"><ele>160.0</ele><time>2026-04-25T16:42:05.003Z</time></trkpt><trkpt lat="44.7759683" lon="8.2318133"><ele>160.0</ele><time>2026-04-25T16:42:05.998Z</time></trkpt><trkpt lat="44.776005" lon="8.2315967"><ele>161.33333333333334</ele><time>2026-04-25T16:42:06.995Z</time></trkpt><trkpt lat="44.7760417" lon="8.2313717"><ele>162.66666666666666</ele><time>2026-04-25T16:42:07.997Z</time></trkpt><trkpt lat="44.7760783" lon="8.2311517"><ele>164.0</ele><time>2026-04-25T16:42:08.997Z</time></trkpt><trkpt lat="44.7761167" lon="8.2309317"><ele>164.0</ele><time>2026-04-25T16:42:09.998Z</time></trkpt><trkpt lat="44.7761517" lon="8.2307133"><ele>164.0</ele><time>2026-04-25T16:42:10.996Z</time></trkpt><trkpt lat="44.7761883" lon="8.23049"><ele>164.0</ele><time>2026-04-25T16:42:11.996Z</time></trkpt><trkpt lat="44.776225" lon="8.2302717"><ele>164.0</ele><time>2026-04-25T16:42:13Z</time></trkpt><trkpt lat="44.7762617" lon="8.23005"><ele>164.0</ele><time>2026-04-25T16:42:13.997Z</time></trkpt><trkpt lat="44.776295" lon="8.2298367"><ele>164.0</ele><time>2026-04-25T16:42:15.001Z</time></trkpt><trkpt lat="44.7763217" lon="8.2296383"><ele>164.25</ele><time>2026-04-25T16:42:16.002Z</time></trkpt><trkpt lat="44.7763417" lon="8.2294433"><ele>164.5</ele><time>2026-04-25T16:42:16.993Z</time></trkpt><trkpt lat="44.776355" lon="8.2292533"><ele>164.75</ele><time>2026-04-25T16:42:17.997Z</time></trkpt><trkpt lat="44.7763617" lon="8.2290633"><ele>165.0</ele><time>2026-04-25T16:42:19Z</time></trkpt><trkpt lat="44.7763583" lon="8.228875"><ele>164.5</ele><time>2026-04-25T16:42:19.994Z</time></trkpt><trkpt lat="44.77635" lon="8.2286817"><ele>164.0</ele><time>2026-04-25T16:42:21.001Z</time></trkpt><trkpt lat="44.7763333" lon="8.2284783"><ele>163.5</ele><time>2026-04-25T16:42:21.994Z</time></trkpt><trkpt lat="44.776305" lon="8.2282617"><ele>163.0</ele><time>2026-04-25T16:42:22.994Z</time></trkpt><trkpt lat="44.776265" lon="8.22803"><ele>164.33333333333334</ele><time>2026-04-25T16:42:23.996Z</time></trkpt><trkpt lat="44.776215" lon="8.227795"><ele>165.66666666666666</ele><time>2026-04-25T16:42:24.995Z</time></trkpt><trkpt lat="44.776155" lon="8.22756"><ele>167.0</ele><time>2026-04-25T16:42:25.996Z</time></trkpt><trkpt lat="44.7760817" lon="8.2273333"><ele>166.66666666666666</ele><time>2026-04-25T16:42:26.996Z</time></trkpt><trkpt lat="44.7760017" lon="8.2271117"><ele>166.33333333333334</ele><time>2026-04-25T16:42:27.994Z</time></trkpt><trkpt lat="44.7759167" lon="8.2269183"><ele>166.0</ele><time>2026-04-25T16:42:28.996Z</time></trkpt><trkpt lat="44.7758467" lon="8.22672"><ele>166.0</ele><time>2026-04-25T16:42:29.995Z</time></trkpt><trkpt lat="44.7757833" lon="8.226525"><ele>166.0</ele><time>2026-04-25T16:42:31Z</time></trkpt><trkpt lat="44.7757217" lon="8.2263417"><ele>166.0</ele><time>2026-04-25T16:42:31.995Z</time></trkpt><trkpt lat="44.7756617" lon="8.2261583"><ele>166.0</ele><time>2026-04-25T16:42:32.996Z</time></trkpt><trkpt lat="44.7756083" lon="8.2259667"><ele>167.33333333333334</ele><time>2026-04-25T16:42:33.996Z</time></trkpt><trkpt lat="44.7755517" lon="8.2257733"><ele>168.66666666666666</ele><time>2026-04-25T16:42:34.997Z</time></trkpt><trkpt lat="44.7755" lon="8.225575"><ele>170.0</ele><time>2026-04-25T16:42:35.998Z</time></trkpt><trkpt lat="44.7754467" lon="8.225375"><ele>172.0</ele><time>2026-04-25T16:42:36.997Z</time></trkpt><trkpt lat="44.7753933" lon="8.2251633"><ele>174.0</ele><time>2026-04-25T16:42:38Z</time></trkpt><trkpt lat="44.775345" lon="8.22496"><ele>176.0</ele><time>2026-04-25T16:42:38.996Z</time></trkpt><trkpt lat="44.7753017" lon="8.2247567"><ele>175.5</ele><time>2026-04-25T16:42:39.998Z</time></trkpt><trkpt lat="44.7752617" lon="8.2245517"><ele>175.0</ele><time>2026-04-25T16:42:40.993Z</time></trkpt><trkpt lat="44.7752133" lon="8.2243567"><ele>174.5</ele><time>2026-04-25T16:42:41.999Z</time></trkpt><trkpt lat="44.7751633" lon="8.2241567"><ele>174.0</ele><time>2026-04-25T16:42:42.996Z</time></trkpt><trkpt lat="44.775115" lon="8.2239517"><ele>173.66666666666666</ele><time>2026-04-25T16:42:43.996Z</time></trkpt><trkpt lat="44.7750683" lon="8.22374"><ele>173.33333333333331</ele><time>2026-04-25T16:42:44.996Z</time></trkpt><trkpt lat="44.775025" lon="8.223515"><ele>173.0</ele><time>2026-04-25T16:42:46.002Z</time></trkpt><trkpt lat="44.774975" lon="8.223295"><ele>172.66666666666666</ele><time>2026-04-25T16:42:46.993Z</time></trkpt><trkpt lat="44.774925" lon="8.2230667"><ele>172.33333333333334</ele><time>2026-04-25T16:42:47.996Z</time></trkpt><trkpt lat="44.7748783" lon="8.2228283"><ele>172.0</ele><time>2026-04-25T16:42:48.999Z</time></trkpt><trkpt lat="44.7748283" lon="8.2225983"><ele>172.0</ele><time>2026-04-25T16:42:49.999Z</time></trkpt><trkpt lat="44.7747767" lon="8.22237"><ele>172.0</ele><time>2026-04-25T16:42:50.996Z</time></trkpt><trkpt lat="44.7747283" lon="8.2221467"><ele>172.0</ele><time>2026-04-25T16:42:51.995Z</time></trkpt><trkpt lat="44.7746833" lon="8.22193"><ele>172.0</ele><time>2026-04-25T16:42:52.996Z</time></trkpt><trkpt lat="44.7746367" lon="8.221715"><ele>172.0</ele><time>2026-04-25T16:42:53.995Z</time></trkpt><trkpt lat="44.7745917" lon="8.2214983"><ele>172.0</ele><time>2026-04-25T16:42:54.997Z</time></trkpt><trkpt lat="44.77455" lon="8.2212867"><ele>172.33333333333334</ele><time>2026-04-25T16:42:55.997Z</time></trkpt><trkpt lat="44.7745033" lon="8.2210783"><ele>172.66666666666666</ele><time>2026-04-25T16:42:57.003Z</time></trkpt><trkpt lat="44.7744583" lon="8.2208683"><ele>173.0</ele><time>2026-04-25T16:42:57.995Z</time></trkpt><trkpt lat="44.774415" lon="8.220655"><ele>173.66666666666666</ele><time>2026-04-25T16:42:58.998Z</time></trkpt><trkpt lat="44.7743767" lon="8.2204433"><ele>174.33333333333334</ele><time>2026-04-25T16:42:59.997Z</time></trkpt><trkpt lat="44.774355" lon="8.22023"><ele>175.0</ele><time>2026-04-25T16:43:00.999Z</time></trkpt><trkpt lat="44.7743467" lon="8.2200183"><ele>175.0</ele><time>2026-04-25T16:43:01.999Z</time></trkpt><trkpt lat="44.7743517" lon="8.2198067"><ele>175.0</ele><time>2026-04-25T16:43:02.997Z</time></trkpt><trkpt lat="44.7743617" lon="8.21959"><ele>175.0</ele><time>2026-04-25T16:43:03.994Z</time></trkpt><trkpt lat="44.7743733" lon="8.2193767"><ele>175.0</ele><time>2026-04-25T16:43:04.996Z</time></trkpt><trkpt lat="44.77438" lon="8.2191517"><ele>175.0</ele><time>2026-04-25T16:43:05.996Z</time></trkpt><trkpt lat="44.77439" lon="8.2189233"><ele>175.0</ele><time>2026-04-25T16:43:06.996Z</time></trkpt><trkpt lat="44.774405" lon="8.2186983"><ele>173.66666666666669</ele><time>2026-04-25T16:43:07.995Z</time></trkpt><trkpt lat="44.7744183" lon="8.2184733"><ele>172.33333333333334</ele><time>2026-04-25T16:43:08.998Z</time></trkpt><trkpt lat="44.7744317" lon="8.2182517"><ele>171.0</ele><time>2026-04-25T16:43:09.996Z</time></trkpt><trkpt lat="44.7744467" lon="8.21803"><ele>170.0</ele><time>2026-04-25T16:43:10.996Z</time></trkpt><trkpt lat="44.7744617" lon="8.2178117"><ele>169.0</ele><time>2026-04-25T16:43:11.994Z</time></trkpt><trkpt lat="44.7744733" lon="8.2175917"><ele>168.0</ele><time>2026-04-25T16:43:12.998Z</time></trkpt><trkpt lat="44.7744883" lon="8.2173733"><ele>168.0</ele><time>2026-04-25T16:43:13.995Z</time></trkpt><trkpt lat="44.774505" lon="8.2171567"><ele>168.0</ele><time>2026-04-25T16:43:14.997Z</time></trkpt><trkpt lat="44.7745267" lon="8.216945"><ele>168.0</ele><time>2026-04-25T16:43:15.998Z</time></trkpt><trkpt lat="44.774565" lon="8.2167367"><ele>168.0</ele><time>2026-04-25T16:43:16.994Z</time></trkpt><trkpt lat="44.77462" lon="8.21652"><ele>168.0</ele><time>2026-04-25T16:43:17.995Z</time></trkpt><trkpt lat="44.7746883" lon="8.2163"><ele>168.0</ele><time>2026-04-25T16:43:18.995Z</time></trkpt><trkpt lat="44.77476" lon="8.2160717"><ele>168.0</ele><time>2026-04-25T16:43:19.995Z</time></trkpt><trkpt lat="44.774845" lon="8.2158283"><ele>168.0</ele><time>2026-04-25T16:43:21Z</time></trkpt><trkpt lat="44.7749367" lon="8.21556"><ele>168.0</ele><time>2026-04-25T16:43:21.993Z</time></trkpt><trkpt lat="44.775035" lon="8.215265"><ele>169.0</ele><time>2026-04-25T16:43:22.997Z</time></trkpt><trkpt lat="44.7751517" lon="8.214945"><ele>170.0</ele><time>2026-04-25T16:43:23.994Z</time></trkpt><trkpt lat="44.7752817" lon="8.2146217"><ele>172.5</ele><time>2026-04-25T16:43:25.002Z</time></trkpt><trkpt lat="44.7754017" lon="8.2143033"><ele>175.0</ele><time>2026-04-25T16:43:25.997Z</time></trkpt><trkpt lat="44.7755183" lon="8.2139967"><ele>174.0</ele><time>2026-04-25T16:43:26.995Z</time></trkpt><trkpt lat="44.7756267" lon="8.2137033"><ele>173.0</ele><time>2026-04-25T16:43:27.998Z</time></trkpt><trkpt lat="44.775735" lon="8.2134283"><ele>173.0</ele><time>2026-04-25T16:43:28.995Z</time></trkpt><trkpt lat="44.775835" lon="8.2131633"><ele>173.0</ele><time>2026-04-25T16:43:29.994Z</time></trkpt><trkpt lat="44.7759333" lon="8.2129"><ele>173.0</ele><time>2026-04-25T16:43:30.998Z</time></trkpt><trkpt lat="44.7760167" lon="8.2126467"><ele>173.66666666666666</ele><time>2026-04-25T16:43:31.996Z</time></trkpt><trkpt lat="44.776115" lon="8.212395"><ele>174.33333333333334</ele><time>2026-04-25T16:43:33Z</time></trkpt><trkpt lat="44.77621" lon="8.212135"><ele>175.0</ele><time>2026-04-25T16:43:33.999Z</time></trkpt><trkpt lat="44.7763083" lon="8.2118833"><ele>175.0</ele><time>2026-04-25T16:43:34.999Z</time></trkpt><trkpt lat="44.7764017" lon="8.2116283"><ele>175.0</ele><time>2026-04-25T16:43:35.997Z</time></trkpt><trkpt lat="44.7764867" lon="8.2113667"><ele>175.0</ele><time>2026-04-25T16:43:36.993Z</time></trkpt><trkpt lat="44.7765767" lon="8.2111117"><ele>175.0</ele><time>2026-04-25T16:43:37.993Z</time></trkpt><trkpt lat="44.7766683" lon="8.2108517"><ele>175.0</ele><time>2026-04-25T16:43:38.996Z</time></trkpt><trkpt lat="44.776765" lon="8.2105917"><ele>175.0</ele><time>2026-04-25T16:43:39.999Z</time></trkpt><trkpt lat="44.776855" lon="8.2103367"><ele>175.33333333333334</ele><time>2026-04-25T16:43:40.996Z</time></trkpt><trkpt lat="44.776945" lon="8.21009"><ele>175.66666666666666</ele><time>2026-04-25T16:43:41.998Z</time></trkpt><trkpt lat="44.7770367" lon="8.2098367"><ele>176.0</ele><time>2026-04-25T16:43:42.993Z</time></trkpt><trkpt lat="44.7771233" lon="8.2095867"><ele>176.0</ele><time>2026-04-25T16:43:43.998Z</time></trkpt><trkpt lat="44.7772083" lon="8.2093383"><ele>176.0</ele><time>2026-04-25T16:43:44.999Z</time></trkpt><trkpt lat="44.7772917" lon="8.2090917"><ele>176.0</ele><time>2026-04-25T16:43:45.994Z</time></trkpt><trkpt lat="44.7773733" lon="8.2088433"><ele>176.0</ele><time>2026-04-25T16:43:46.996Z</time></trkpt><trkpt lat="44.7774567" lon="8.2085883"><ele>176.0</ele><time>2026-04-25T16:43:47.996Z</time></trkpt><trkpt lat="44.777545" lon="8.2083333"><ele>176.0</ele><time>2026-04-25T16:43:48.994Z</time></trkpt><trkpt lat="44.7776383" lon="8.2080767"><ele>176.66666666666666</ele><time>2026-04-25T16:43:49.999Z</time></trkpt><trkpt lat="44.7777317" lon="8.20782"><ele>177.33333333333334</ele><time>2026-04-25T16:43:50.996Z</time></trkpt><trkpt lat="44.7778267" lon="8.2075567"><ele>178.0</ele><time>2026-04-25T16:43:51.993Z</time></trkpt><trkpt lat="44.7779233" lon="8.2072933"><ele>179.66666666666669</ele><time>2026-04-25T16:43:52.993Z</time></trkpt><trkpt lat="44.7780167" lon="8.20704"><ele>181.33333333333334</ele><time>2026-04-25T16:43:53.997Z</time></trkpt><trkpt lat="44.7781067" lon="8.20679"><ele>183.0</ele><time>2026-04-25T16:43:54.998Z</time></trkpt><trkpt lat="44.7781933" lon="8.2065417"><ele>183.66666666666666</ele><time>2026-04-25T16:43:55.995Z</time></trkpt><trkpt lat="44.7782767" lon="8.2063033"><ele>184.33333333333331</ele><time>2026-04-25T16:43:57Z</time></trkpt><trkpt lat="44.7783483" lon="8.20606"><ele>185.0</ele><time>2026-04-25T16:43:57.996Z</time></trkpt><trkpt lat="44.7784117" lon="8.2058233"><ele>185.66666666666666</ele><time>2026-04-25T16:43:58.995Z</time></trkpt><trkpt lat="44.77847" lon="8.2055817"><ele>186.33333333333334</ele><time>2026-04-25T16:43:59.995Z</time></trkpt><trkpt lat="44.7785267" lon="8.2053417"><ele>187.0</ele><time>2026-04-25T16:44:01Z</time></trkpt><trkpt lat="44.77858" lon="8.2051083"><ele>187.0</ele><time>2026-04-25T16:44:01.995Z</time></trkpt><trkpt lat="44.77863" lon="8.2048883"><ele>187.0</ele><time>2026-04-25T16:44:02.998Z</time></trkpt><trkpt lat="44.778675" lon="8.2046883"><ele>187.0</ele><time>2026-04-25T16:44:03.995Z</time></trkpt><trkpt lat="44.7787183" lon="8.204495"><ele>188.0</ele><time>2026-04-25T16:44:04.997Z</time></trkpt><trkpt lat="44.7787583" lon="8.2043117"><ele>189.0</ele><time>2026-04-25T16:44:05.997Z</time></trkpt><trkpt lat="44.7787967" lon="8.2041383"><ele>190.0</ele><time>2026-04-25T16:44:06.999Z</time></trkpt><trkpt lat="44.778835" lon="8.2039717"><ele>191.0</ele><time>2026-04-25T16:44:07.994Z</time></trkpt><trkpt lat="44.77887" lon="8.2038083"><ele>193.0</ele><time>2026-04-25T16:44:08.997Z</time></trkpt><trkpt lat="44.7789067" lon="8.2036467"><ele>195.0</ele><time>2026-04-25T16:44:09.995Z</time></trkpt><trkpt lat="44.778945" lon="8.203485"><ele>197.0</ele><time>2026-04-25T16:44:10.993Z</time></trkpt><trkpt lat="44.778985" lon="8.2033183"><ele>199.0</ele><time>2026-04-25T16:44:11.994Z</time></trkpt><trkpt lat="44.7790233" lon="8.2031583"><ele>200.6</ele><time>2026-04-25T16:44:12.997Z</time></trkpt><trkpt lat="44.779055" lon="8.2030117"><ele>202.2</ele><time>2026-04-25T16:44:13.994Z</time></trkpt><trkpt lat="44.7790733" lon="8.202885"><ele>203.79999999999998</ele><time>2026-04-25T16:44:15Z</time></trkpt><trkpt lat="44.7790683" lon="8.2027583"><ele>205.39999999999998</ele><time>2026-04-25T16:44:16.002Z</time></trkpt><trkpt lat="44.7790383" lon="8.2026283"><ele>207.0</ele><time>2026-04-25T16:44:16.997Z</time></trkpt><trkpt lat="44.7789783" lon="8.2025067"><ele>207.0</ele><time>2026-04-25T16:44:18.001Z</time></trkpt><trkpt lat="44.7788983" lon="8.2023967"><ele>207.0</ele><time>2026-04-25T16:44:18.995Z</time></trkpt><trkpt lat="44.7788" lon="8.202305"><ele>207.0</ele><time>2026-04-25T16:44:19.993Z</time></trkpt><trkpt lat="44.7787067" lon="8.2022083"><ele>207.0</ele><time>2026-04-25T16:44:20.995Z</time></trkpt><trkpt lat="44.7786233" lon="8.2021233"><ele>207.0</ele><time>2026-04-25T16:44:21.995Z</time></trkpt><trkpt lat="44.7785433" lon="8.202045"><ele>208.2</ele><time>2026-04-25T16:44:22.996Z</time></trkpt><trkpt lat="44.7784617" lon="8.2019667"><ele>209.39999999999998</ele><time>2026-04-25T16:44:24.001Z</time></trkpt><trkpt lat="44.7783867" lon="8.2018733"><ele>210.60000000000002</ele><time>2026-04-25T16:44:25.002Z</time></trkpt><trkpt lat="44.778335" lon="8.20175"><ele>211.8</ele><time>2026-04-25T16:44:25.995Z</time></trkpt><trkpt lat="44.7783" lon="8.2016133"><ele>213.0</ele><time>2026-04-25T16:44:26.996Z</time></trkpt><trkpt lat="44.7782933" lon="8.2014683"><ele>213.2</ele><time>2026-04-25T16:44:27.997Z</time></trkpt><trkpt lat="44.77831" lon="8.201325"><ele>213.4</ele><time>2026-04-25T16:44:28.996Z</time></trkpt><trkpt lat="44.7783467" lon="8.20119"><ele>213.59999999999997</ele><time>2026-04-25T16:44:29.996Z</time></trkpt><trkpt lat="44.7783933" lon="8.2010567"><ele>213.79999999999998</ele><time>2026-04-25T16:44:30.992Z</time></trkpt><trkpt lat="44.7784433" lon="8.2009367"><ele>214.0</ele><time>2026-04-25T16:44:31.995Z</time></trkpt><trkpt lat="44.7784983" lon="8.2008267"><ele>215.39999999999998</ele><time>2026-04-25T16:44:32.999Z</time></trkpt><trkpt lat="44.7785667" lon="8.20072"><ele>216.79999999999998</ele><time>2026-04-25T16:44:33.998Z</time></trkpt><trkpt lat="44.7786367" lon="8.200635"><ele>218.20000000000002</ele><time>2026-04-25T16:44:34.995Z</time></trkpt><trkpt lat="44.7787233" lon="8.20056"><ele>219.60000000000002</ele><time>2026-04-25T16:44:35.996Z</time></trkpt><trkpt lat="44.7788233" lon="8.2005017"><ele>221.0</ele><time>2026-04-25T16:44:36.994Z</time></trkpt><trkpt lat="44.7789317" lon="8.2004433"><ele>221.60000000000002</ele><time>2026-04-25T16:44:38Z</time></trkpt><trkpt lat="44.7790333" lon="8.200375"><ele>222.20000000000002</ele><time>2026-04-25T16:44:38.999Z</time></trkpt><trkpt lat="44.779135" lon="8.20031"><ele>222.79999999999998</ele><time>2026-04-25T16:44:39.992Z</time></trkpt><trkpt lat="44.779235" lon="8.200235"><ele>223.39999999999998</ele><time>2026-04-25T16:44:40.996Z</time></trkpt><trkpt lat="44.779325" lon="8.20015"><ele>224.0</ele><time>2026-04-25T16:44:41.997Z</time></trkpt><trkpt lat="44.7794117" lon="8.2000567"><ele>224.0</ele><time>2026-04-25T16:44:42.998Z</time></trkpt><trkpt lat="44.7795" lon="8.1999533"><ele>224.0</ele><time>2026-04-25T16:44:43.998Z</time></trkpt><trkpt lat="44.77959" lon="8.1998383"><ele>224.0</ele><time>2026-04-25T16:44:44.994Z</time></trkpt><trkpt lat="44.7796833" lon="8.1997167"><ele>224.0</ele><time>2026-04-25T16:44:45.996Z</time></trkpt><trkpt lat="44.7797767" lon="8.1995967"><ele>227.25</ele><time>2026-04-25T16:44:46.994Z</time></trkpt><trkpt lat="44.7798733" lon="8.199465"><ele>230.5</ele><time>2026-04-25T16:44:48Z</time></trkpt><trkpt lat="44.779965" lon="8.19934"><ele>233.75</ele><time>2026-04-25T16:44:48.996Z</time></trkpt><trkpt lat="44.780045" lon="8.1992017"><ele>237.0</ele><time>2026-04-25T16:44:49.997Z</time></trkpt><trkpt lat="44.7801167" lon="8.1990617"><ele>235.5</ele><time>2026-04-25T16:44:50.997Z</time></trkpt><trkpt lat="44.7801717" lon="8.1989033"><ele>234.0</ele><time>2026-04-25T16:44:51.999Z</time></trkpt><trkpt lat="44.7802067" lon="8.19874"><ele>232.5</ele><time>2026-04-25T16:44:52.996Z</time></trkpt><trkpt lat="44.7802333" lon="8.19858"><ele>231.0</ele><time>2026-04-25T16:44:53.996Z</time></trkpt><trkpt lat="44.7802567" lon="8.1984133"><ele>231.0</ele><time>2026-04-25T16:44:55.003Z</time></trkpt><trkpt lat="44.7802817" lon="8.1982467"><ele>231.0</ele><time>2026-04-25T16:44:55.995Z</time></trkpt><trkpt lat="44.7803067" lon="8.1980817"><ele>231.0</ele><time>2026-04-25T16:44:56.999Z</time></trkpt><trkpt lat="44.7803317" lon="8.1979183"><ele>231.0</ele><time>2026-04-25T16:44:57.997Z</time></trkpt><trkpt lat="44.780365" lon="8.1977617"><ele>232.75</ele><time>2026-04-25T16:44:58.997Z</time></trkpt><trkpt lat="44.7804067" lon="8.197605"><ele>234.5</ele><time>2026-04-25T16:44:59.996Z</time></trkpt><trkpt lat="44.78046" lon="8.1974567"><ele>236.25</ele><time>2026-04-25T16:45:00.993Z</time></trkpt><trkpt lat="44.7805183" lon="8.1973033"><ele>238.0</ele><time>2026-04-25T16:45:01.994Z</time></trkpt><trkpt lat="44.7805817" lon="8.1971533"><ele>240.75</ele><time>2026-04-25T16:45:02.994Z</time></trkpt><trkpt lat="44.7806433" lon="8.1970017"><ele>243.5</ele><time>2026-04-25T16:45:03.993Z</time></trkpt><trkpt lat="44.7807033" lon="8.1968433"><ele>246.25</ele><time>2026-04-25T16:45:04.993Z</time></trkpt><trkpt lat="44.7807667" lon="8.196685"><ele>249.0</ele><time>2026-04-25T16:45:06.002Z</time></trkpt><trkpt lat="44.7808367" lon="8.19653"><ele>248.5</ele><time>2026-04-25T16:45:06.995Z</time></trkpt><trkpt lat="44.7809" lon="8.1963717"><ele>248.0</ele><time>2026-04-25T16:45:07.996Z</time></trkpt><trkpt lat="44.78096" lon="8.1962133"><ele>247.5</ele><time>2026-04-25T16:45:08.999Z</time></trkpt><trkpt lat="44.78102" lon="8.1960583"><ele>247.0</ele><time>2026-04-25T16:45:09.994Z</time></trkpt><trkpt lat="44.78108" lon="8.1959083"><ele>247.0</ele><time>2026-04-25T16:45:10.995Z</time></trkpt><trkpt lat="44.7811383" lon="8.1957617"><ele>247.0</ele><time>2026-04-25T16:45:11.998Z</time></trkpt><trkpt lat="44.7811967" lon="8.1956117"><ele>247.0</ele><time>2026-04-25T16:45:12.999Z</time></trkpt><trkpt lat="44.7812517" lon="8.1954617"><ele>247.0</ele><time>2026-04-25T16:45:13.996Z</time></trkpt><trkpt lat="44.781305" lon="8.1953083"><ele>250.5</ele><time>2026-04-25T16:45:14.999Z</time></trkpt><trkpt lat="44.781365" lon="8.1951533"><ele>254.0</ele><time>2026-04-25T16:45:15.993Z</time></trkpt><trkpt lat="44.78143" lon="8.1950117"><ele>257.5</ele><time>2026-04-25T16:45:16.993Z</time></trkpt><trkpt lat="44.7815033" lon="8.1948683"><ele>261.0</ele><time>2026-04-25T16:45:17.999Z</time></trkpt><trkpt lat="44.781585" lon="8.19474"><ele>263.75</ele><time>2026-04-25T16:45:19.002Z</time></trkpt><trkpt lat="44.7816733" lon="8.19462"><ele>266.5</ele><time>2026-04-25T16:45:19.999Z</time></trkpt><trkpt lat="44.7817617" lon="8.1945033"><ele>269.25</ele><time>2026-04-25T16:45:20.998Z</time></trkpt><trkpt lat="44.78186" lon="8.19441"><ele>272.0</ele><time>2026-04-25T16:45:21.994Z</time></trkpt><trkpt lat="44.7819633" lon="8.1943167"><ele>272.0</ele><time>2026-04-25T16:45:22.995Z</time></trkpt><trkpt lat="44.782065" lon="8.1942183"><ele>272.0</ele><time>2026-04-25T16:45:23.993Z</time></trkpt><trkpt lat="44.7821633" lon="8.1941217"><ele>272.0</ele><time>2026-04-25T16:45:24.996Z</time></trkpt><trkpt lat="44.7822617" lon="8.19403"><ele>272.0</ele><time>2026-04-25T16:45:25.998Z</time></trkpt><trkpt lat="44.7823583" lon="8.1939367"><ele>273.0</ele><time>2026-04-25T16:45:26.995Z</time></trkpt><trkpt lat="44.7824533" lon="8.1938433"><ele>274.0</ele><time>2026-04-25T16:45:27.995Z</time></trkpt><trkpt lat="44.78255" lon="8.1937483"><ele>275.0</ele><time>2026-04-25T16:45:28.993Z</time></trkpt><trkpt lat="44.782645" lon="8.1936617"><ele>276.0</ele><time>2026-04-25T16:45:29.995Z</time></trkpt><trkpt lat="44.7827383" lon="8.19358"><ele>276.0</ele><time>2026-04-25T16:45:31Z</time></trkpt><trkpt lat="44.78282" lon="8.1934983"><ele>276.0</ele><time>2026-04-25T16:45:31.994Z</time></trkpt><trkpt lat="44.7828967" lon="8.1934267"><ele>276.0</ele><time>2026-04-25T16:45:32.996Z</time></trkpt><trkpt lat="44.7829683" lon="8.19336"><ele>276.0</ele><time>2026-04-25T16:45:33.997Z</time></trkpt><trkpt lat="44.7830383" lon="8.193295"><ele>276.0</ele><time>2026-04-25T16:45:34.995Z</time></trkpt><trkpt lat="44.7831" lon="8.193215"><ele>276.0</ele><time>2026-04-25T16:45:35.998Z</time></trkpt><trkpt lat="44.78316" lon="8.1931267"><ele>275.6</ele><time>2026-04-25T16:45:36.996Z</time></trkpt><trkpt lat="44.78321" lon="8.1930167"><ele>275.20000000000005</ele><time>2026-04-25T16:45:37.997Z</time></trkpt><trkpt lat="44.7832717" lon="8.19292"><ele>274.79999999999995</ele><time>2026-04-25T16:45:38.995Z</time></trkpt><trkpt lat="44.783335" lon="8.1928067"><ele>274.4</ele><time>2026-04-25T16:45:39.995Z</time></trkpt><trkpt lat="44.7834033" lon="8.1926933"><ele>274.0</ele><time>2026-04-25T16:45:40.994Z</time></trkpt><trkpt lat="44.78347" lon="8.1925817"><ele>274.59999999999997</ele><time>2026-04-25T16:45:41.996Z</time></trkpt><trkpt lat="44.7835367" lon="8.1924817"><ele>275.2</ele><time>2026-04-25T16:45:42.999Z</time></trkpt><trkpt lat="44.7835983" lon="8.1923767"><ele>275.79999999999995</ele><time>2026-04-25T16:45:43.994Z</time></trkpt><trkpt lat="44.7836583" lon="8.1922683"><ele>276.4</ele><time>2026-04-25T16:45:44.998Z</time></trkpt><trkpt lat="44.7837217" lon="8.19216"><ele>277.0</ele><time>2026-04-25T16:45:45.999Z</time></trkpt><trkpt lat="44.78379" lon="8.1920667"><ele>275.6</ele><time>2026-04-25T16:45:46.999Z</time></trkpt><trkpt lat="44.783845" lon="8.1919683"><ele>274.2</ele><time>2026-04-25T16:45:47.995Z</time></trkpt><trkpt lat="44.7839083" lon="8.1918717"><ele>272.8</ele><time>2026-04-25T16:45:48.993Z</time></trkpt><trkpt lat="44.7839817" lon="8.1917267"><ele>271.4</ele><time>2026-04-25T16:45:50.002Z</time></trkpt><trkpt lat="44.7840583" lon="8.1915783"><ele>270.0</ele><time>2026-04-25T16:45:50.995Z</time></trkpt><trkpt lat="44.7841383" lon="8.1914233"><ele>269.0</ele><time>2026-04-25T16:45:51.994Z</time></trkpt><trkpt lat="44.7842283" lon="8.1912583"><ele>268.0</ele><time>2026-04-25T16:45:52.995Z</time></trkpt><trkpt lat="44.7843233" lon="8.1911033"><ele>267.0</ele><time>2026-04-25T16:45:53.998Z</time></trkpt><trkpt lat="44.7844183" lon="8.1909417"><ele>266.0</ele><time>2026-04-25T16:45:54.995Z</time></trkpt><trkpt lat="44.78452" lon="8.19077"><ele>264.0</ele><time>2026-04-25T16:45:55.996Z</time></trkpt><trkpt lat="44.784625" lon="8.1906017"><ele>262.0</ele><time>2026-04-25T16:45:56.997Z</time></trkpt><trkpt lat="44.7847283" lon="8.1904267"><ele>260.0</ele><time>2026-04-25T16:45:57.995Z</time></trkpt><trkpt lat="44.78483" lon="8.19025"><ele>260.0</ele><time>2026-04-25T16:45:58.997Z</time></trkpt><trkpt lat="44.7849283" lon="8.19008"><ele>260.0</ele><time>2026-04-25T16:45:59.996Z</time></trkpt><trkpt lat="44.785025" lon="8.189915"><ele>260.0</ele><time>2026-04-25T16:46:00.994Z</time></trkpt><trkpt lat="44.785125" lon="8.1897583"><ele>258.6666666666667</ele><time>2026-04-25T16:46:01.992Z</time></trkpt><trkpt lat="44.7852267" lon="8.1896067"><ele>257.3333333333333</ele><time>2026-04-25T16:46:03.001Z</time></trkpt><trkpt lat="44.78533" lon="8.18945"><ele>256.0</ele><time>2026-04-25T16:46:03.999Z</time></trkpt><trkpt lat="44.785435" lon="8.1892983"><ele>256.0</ele><time>2026-04-25T16:46:04.996Z</time></trkpt><trkpt lat="44.785545" lon="8.18916"><ele>256.0</ele><time>2026-04-25T16:46:05.994Z</time></trkpt><trkpt lat="44.7856583" lon="8.1890367"><ele>256.0</ele><time>2026-04-25T16:46:06.999Z</time></trkpt><trkpt lat="44.7857683" lon="8.1889183"><ele>256.0</ele><time>2026-04-25T16:46:07.995Z</time></trkpt><trkpt lat="44.7858783" lon="8.1888117"><ele>255.25</ele><time>2026-04-25T16:46:08.995Z</time></trkpt><trkpt lat="44.78599" lon="8.188705"><ele>254.5</ele><time>2026-04-25T16:46:09.997Z</time></trkpt><trkpt lat="44.7860983" lon="8.1885983"><ele>253.75</ele><time>2026-04-25T16:46:10.992Z</time></trkpt><trkpt lat="44.7861983" lon="8.1884933"><ele>253.0</ele><time>2026-04-25T16:46:11.996Z</time></trkpt><trkpt lat="44.7862933" lon="8.1883883"><ele>253.0</ele><time>2026-04-25T16:46:13.003Z</time></trkpt><trkpt lat="44.7863783" lon="8.1882883"><ele>253.0</ele><time>2026-04-25T16:46:13.999Z</time></trkpt><trkpt lat="44.7864617" lon="8.188195"><ele>253.0</ele><time>2026-04-25T16:46:14.995Z</time></trkpt><trkpt lat="44.7865417" lon="8.18811"><ele>253.0</ele><time>2026-04-25T16:46:15.992Z</time></trkpt><trkpt lat="44.7866217" lon="8.18802"><ele>253.0</ele><time>2026-04-25T16:46:16.996Z</time></trkpt><trkpt lat="44.7867117" lon="8.1879233"><ele>252.5</ele><time>2026-04-25T16:46:17.995Z</time></trkpt><trkpt lat="44.78681" lon="8.1878167"><ele>252.0</ele><time>2026-04-25T16:46:18.994Z</time></trkpt><trkpt lat="44.786915" lon="8.1877033"><ele>251.5</ele><time>2026-04-25T16:46:19.996Z</time></trkpt><trkpt lat="44.78702" lon="8.1875883"><ele>251.0</ele><time>2026-04-25T16:46:20.994Z</time></trkpt><trkpt lat="44.787115" lon="8.1874833"><ele>251.0</ele><time>2026-04-25T16:46:21.994Z</time></trkpt><trkpt lat="44.7872017" lon="8.1873867"><ele>251.00000000000003</ele><time>2026-04-25T16:46:22.999Z</time></trkpt><trkpt lat="44.78729" lon="8.187295"><ele>251.00000000000003</ele><time>2026-04-25T16:46:23.998Z</time></trkpt><trkpt lat="44.7873783" lon="8.1871967"><ele>251.0</ele><time>2026-04-25T16:46:24.998Z</time></trkpt><trkpt lat="44.7874683" lon="8.1870967"><ele>251.0</ele><time>2026-04-25T16:46:25.999Z</time></trkpt><trkpt lat="44.7875633" lon="8.1869967"><ele>251.0</ele><time>2026-04-25T16:46:26.994Z</time></trkpt><trkpt lat="44.78766" lon="8.1868867"><ele>251.0</ele><time>2026-04-25T16:46:27.995Z</time></trkpt><trkpt lat="44.7877583" lon="8.1867733"><ele>251.0</ele><time>2026-04-25T16:46:28.994Z</time></trkpt><trkpt lat="44.7878617" lon="8.18666"><ele>251.0</ele><time>2026-04-25T16:46:29.994Z</time></trkpt><trkpt lat="44.7879733" lon="8.1865417"><ele>248.75</ele><time>2026-04-25T16:46:30.994Z</time></trkpt><trkpt lat="44.7880817" lon="8.1864233"><ele>246.5</ele><time>2026-04-25T16:46:31.993Z</time></trkpt><trkpt lat="44.7881867" lon="8.18631"><ele>244.25</ele><time>2026-04-25T16:46:32.995Z</time></trkpt><trkpt lat="44.7882933" lon="8.1862033"><ele>242.0</ele><time>2026-04-25T16:46:33.997Z</time></trkpt><trkpt lat="44.7883883" lon="8.1860983"><ele>242.00000000000003</ele><time>2026-04-25T16:46:34.993Z</time></trkpt><trkpt lat="44.7884717" lon="8.1860067"><ele>242.0</ele><time>2026-04-25T16:46:35.997Z</time></trkpt><trkpt lat="44.7885417" lon="8.1859267"><ele>242.0</ele><time>2026-04-25T16:46:36.999Z</time></trkpt><trkpt lat="44.7886017" lon="8.18586"><ele>242.0</ele><time>2026-04-25T16:46:37.998Z</time></trkpt><trkpt lat="44.788655" lon="8.1857967"><ele>242.00000000000003</ele><time>2026-04-25T16:46:38.999Z</time></trkpt><trkpt lat="44.7887067" lon="8.185735"><ele>242.0</ele><time>2026-04-25T16:46:39.995Z</time></trkpt><trkpt lat="44.7887583" lon="8.1856767"><ele>242.0</ele><time>2026-04-25T16:46:40.996Z</time></trkpt><trkpt lat="44.7888117" lon="8.1856183"><ele>241.99999999999997</ele><time>2026-04-25T16:46:41.998Z</time></trkpt><trkpt lat="44.7888683" lon="8.1855617"><ele>242.0</ele><time>2026-04-25T16:46:42.996Z</time></trkpt><trkpt lat="44.78893" lon="8.1855033"><ele>242.0</ele><time>2026-04-25T16:46:43.998Z</time></trkpt><trkpt lat="44.7889933" lon="8.18544"><ele>241.99999999999997</ele><time>2026-04-25T16:46:45Z</time></trkpt><trkpt lat="44.7890583" lon="8.1853733"><ele>242.0</ele><time>2026-04-25T16:46:45.995Z</time></trkpt><trkpt lat="44.7891217" lon="8.1853067"><ele>242.0</ele><time>2026-04-25T16:46:46.998Z</time></trkpt><trkpt lat="44.7891883" lon="8.1852367"><ele>242.0</ele><time>2026-04-25T16:46:48Z</time></trkpt><trkpt lat="44.7892583" lon="8.1851683"><ele>242.0</ele><time>2026-04-25T16:46:48.996Z</time></trkpt><trkpt lat="44.7893283" lon="8.185095"><ele>242.0</ele><time>2026-04-25T16:46:49.998Z</time></trkpt><trkpt lat="44.7894083" lon="8.1850267"><ele>242.0</ele><time>2026-04-25T16:46:50.994Z</time></trkpt><trkpt lat="44.7894917" lon="8.1849667"><ele>242.0</ele><time>2026-04-25T16:46:51.996Z</time></trkpt><trkpt lat="44.789575" lon="8.1849167"><ele>242.2</ele><time>2026-04-25T16:46:52.993Z</time></trkpt><trkpt lat="44.7896567" lon="8.1848733"><ele>242.39999999999998</ele><time>2026-04-25T16:46:53.997Z</time></trkpt><trkpt lat="44.7897383" lon="8.1848333"><ele>242.60000000000002</ele><time>2026-04-25T16:46:55.001Z</time></trkpt><trkpt lat="44.789825" lon="8.18481"><ele>242.8</ele><time>2026-04-25T16:46:55.997Z</time></trkpt><trkpt lat="44.789915" lon="8.1847817"><ele>243.0</ele><time>2026-04-25T16:46:56.993Z</time></trkpt><trkpt lat="44.79001" lon="8.1847567"><ele>242.2</ele><time>2026-04-25T16:46:57.999Z</time></trkpt><trkpt lat="44.7901083" lon="8.1847367"><ele>241.4</ele><time>2026-04-25T16:46:58.995Z</time></trkpt><trkpt lat="44.79021" lon="8.18472"><ele>240.59999999999997</ele><time>2026-04-25T16:46:59.999Z</time></trkpt><trkpt lat="44.7903083" lon="8.1847033"><ele>239.79999999999998</ele><time>2026-04-25T16:47:00.996Z</time></trkpt><trkpt lat="44.7904067" lon="8.1846883"><ele>239.0</ele><time>2026-04-25T16:47:01.999Z</time></trkpt><trkpt lat="44.79051" lon="8.1846667"><ele>239.0</ele><time>2026-04-25T16:47:02.995Z</time></trkpt><trkpt lat="44.790615" lon="8.1846367"><ele>239.0</ele><time>2026-04-25T16:47:03.997Z</time></trkpt><trkpt lat="44.7907267" lon="8.1846067"><ele>239.0</ele><time>2026-04-25T16:47:04.999Z</time></trkpt><trkpt lat="44.79084" lon="8.1845867"><ele>239.0</ele><time>2026-04-25T16:47:05.998Z</time></trkpt><trkpt lat="44.7909583" lon="8.18456"><ele>238.75</ele><time>2026-04-25T16:47:07.001Z</time></trkpt><trkpt lat="44.7910817" lon="8.184535"><ele>238.5</ele><time>2026-04-25T16:47:07.993Z</time></trkpt><trkpt lat="44.7912133" lon="8.184505"><ele>238.25</ele><time>2026-04-25T16:47:08.998Z</time></trkpt><trkpt lat="44.79135" lon="8.1844767"><ele>238.0</ele><time>2026-04-25T16:47:09.997Z</time></trkpt><trkpt lat="44.79149" lon="8.1844467"><ele>238.0</ele><time>2026-04-25T16:47:10.995Z</time></trkpt><trkpt lat="44.7916267" lon="8.1844083"><ele>238.0</ele><time>2026-04-25T16:47:11.998Z</time></trkpt><trkpt lat="44.7917633" lon="8.1843633"><ele>238.0</ele><time>2026-04-25T16:47:12.997Z</time></trkpt><trkpt lat="44.7918933" lon="8.1843183"><ele>238.0</ele><time>2026-04-25T16:47:13.995Z</time></trkpt><trkpt lat="44.79202" lon="8.18424"><ele>237.0</ele><time>2026-04-25T16:47:14.995Z</time></trkpt><trkpt lat="44.7921417" lon="8.184145"><ele>236.0</ele><time>2026-04-25T16:47:15.997Z</time></trkpt><trkpt lat="44.7922583" lon="8.1840317"><ele>235.0</ele><time>2026-04-25T16:47:16.996Z</time></trkpt><trkpt lat="44.7923633" lon="8.1839033"><ele>234.0</ele><time>2026-04-25T16:47:17.998Z</time></trkpt><trkpt lat="44.7924567" lon="8.1837667"><ele>234.0</ele><time>2026-04-25T16:47:19Z</time></trkpt><trkpt lat="44.7925417" lon="8.1836183"><ele>234.0</ele><time>2026-04-25T16:47:20Z</time></trkpt><trkpt lat="44.7926183" lon="8.1834617"><ele>234.0</ele><time>2026-04-25T16:47:20.995Z</time></trkpt><trkpt lat="44.7926917" lon="8.1833"><ele>234.0</ele><time>2026-04-25T16:47:21.994Z</time></trkpt><trkpt lat="44.7927717" lon="8.1831433"><ele>233.5</ele><time>2026-04-25T16:47:22.996Z</time></trkpt><trkpt lat="44.7928517" lon="8.18299"><ele>233.0</ele><time>2026-04-25T16:47:24Z</time></trkpt><trkpt lat="44.7929467" lon="8.1828517"><ele>232.5</ele><time>2026-04-25T16:47:24.996Z</time></trkpt><trkpt lat="44.793055" lon="8.1827317"><ele>232.0</ele><time>2026-04-25T16:47:25.996Z</time></trkpt><trkpt lat="44.7931783" lon="8.1826467"><ele>232.0</ele><time>2026-04-25T16:47:27.001Z</time></trkpt><trkpt lat="44.7933083" lon="8.18259"><ele>232.0</ele><time>2026-04-25T16:47:27.995Z</time></trkpt><trkpt lat="44.793435" lon="8.1825467"><ele>232.0</ele><time>2026-04-25T16:47:29Z</time></trkpt><trkpt lat="44.79357" lon="8.182515"><ele>232.0</ele><time>2026-04-25T16:47:30Z</time></trkpt><trkpt lat="44.7937017" lon="8.18249"><ele>231.25</ele><time>2026-04-25T16:47:30.999Z</time></trkpt><trkpt lat="44.7938317" lon="8.1824783"><ele>230.5</ele><time>2026-04-25T16:47:31.993Z</time></trkpt><trkpt lat="44.7939733" lon="8.182485"><ele>229.75</ele><time>2026-04-25T16:47:32.998Z</time></trkpt><trkpt lat="44.7941133" lon="8.182515"><ele>229.0</ele><time>2026-04-25T16:47:33.997Z</time></trkpt><trkpt lat="44.7942583" lon="8.1825533"><ele>227.5</ele><time>2026-04-25T16:47:34.997Z</time></trkpt><trkpt lat="44.7943967" lon="8.1825867"><ele>226.0</ele><time>2026-04-25T16:47:35.998Z</time></trkpt><trkpt lat="44.794535" lon="8.1826183"><ele>224.5</ele><time>2026-04-25T16:47:36.998Z</time></trkpt><trkpt lat="44.7946733" lon="8.18265"><ele>223.0</ele><time>2026-04-25T16:47:38.001Z</time></trkpt><trkpt lat="44.794805" lon="8.182685"><ele>223.0</ele><time>2026-04-25T16:47:38.998Z</time></trkpt><trkpt lat="44.7949367" lon="8.1827217"><ele>223.0</ele><time>2026-04-25T16:47:40.006Z</time></trkpt><trkpt lat="44.79506" lon="8.1827567"><ele>223.0</ele><time>2026-04-25T16:47:40.998Z</time></trkpt><trkpt lat="44.7951767" lon="8.1827933"><ele>223.0</ele><time>2026-04-25T16:47:41.997Z</time></trkpt><trkpt lat="44.79529" lon="8.182825"><ele>221.8</ele><time>2026-04-25T16:47:43Z</time></trkpt><trkpt lat="44.7954017" lon="8.1828583"><ele>220.60000000000002</ele><time>2026-04-25T16:47:43.995Z</time></trkpt><trkpt lat="44.7955117" lon="8.1828883"><ele>219.39999999999998</ele><time>2026-04-25T16:47:44.999Z</time></trkpt><trkpt lat="44.7956167" lon="8.18292"><ele>218.2</ele><time>2026-04-25T16:47:45.998Z</time></trkpt><trkpt lat="44.79572" lon="8.1829617"><ele>217.0</ele><time>2026-04-25T16:47:47Z</time></trkpt><trkpt lat="44.7958117" lon="8.183025"><ele>217.0</ele><time>2026-04-25T16:47:47.999Z</time></trkpt><trkpt lat="44.7959" lon="8.1831083"><ele>217.0</ele><time>2026-04-25T16:47:49.001Z</time></trkpt><trkpt lat="44.7959717" lon="8.1832117"><ele>217.0</ele><time>2026-04-25T16:47:49.998Z</time></trkpt><trkpt lat="44.79602" lon="8.183345"><ele>217.0</ele><time>2026-04-25T16:47:50.999Z</time></trkpt><trkpt lat="44.7960617" lon="8.1834933"><ele>217.0</ele><time>2026-04-25T16:47:51.996Z</time></trkpt><trkpt lat="44.7961217" lon="8.183635"><ele>216.5</ele><time>2026-04-25T16:47:52.997Z</time></trkpt><trkpt lat="44.7961933" lon="8.183775"><ele>216.0</ele><time>2026-04-25T16:47:53.998Z</time></trkpt><trkpt lat="44.796285" lon="8.183895"><ele>215.5</ele><time>2026-04-25T16:47:54.997Z</time></trkpt><trkpt lat="44.7964" lon="8.183975"><ele>215.0</ele><time>2026-04-25T16:47:56.001Z</time></trkpt><trkpt lat="44.7965233" lon="8.18403"><ele>216.25</ele><time>2026-04-25T16:47:56.996Z</time></trkpt><trkpt lat="44.7966583" lon="8.18405"><ele>217.5</ele><time>2026-04-25T16:47:57.999Z</time></trkpt><trkpt lat="44.796785" lon="8.1840217"><ele>218.75</ele><time>2026-04-25T16:47:58.995Z</time></trkpt><trkpt lat="44.7969" lon="8.1839667"><ele>220.0</ele><time>2026-04-25T16:47:59.996Z</time></trkpt><trkpt lat="44.797" lon="8.1838817"><ele>220.0</ele><time>2026-04-25T16:48:00.997Z</time></trkpt><trkpt lat="44.7971" lon="8.1837717"><ele>220.0</ele><time>2026-04-25T16:48:01.999Z</time></trkpt><trkpt lat="44.79719" lon="8.1836367"><ele>220.0</ele><time>2026-04-25T16:48:02.997Z</time></trkpt><trkpt lat="44.7972817" lon="8.1835017"><ele>220.0</ele><time>2026-04-25T16:48:03.996Z</time></trkpt><trkpt lat="44.7973667" lon="8.18337"><ele>220.0</ele><time>2026-04-25T16:48:04.998Z</time></trkpt><trkpt lat="44.7974483" lon="8.183245"><ele>220.0</ele><time>2026-04-25T16:48:05.998Z</time></trkpt><trkpt lat="44.7975233" lon="8.18313"><ele>220.0</ele><time>2026-04-25T16:48:06.996Z</time></trkpt><trkpt lat="44.797585" lon="8.1830267"><ele>220.0</ele><time>2026-04-25T16:48:07.997Z</time></trkpt><trkpt lat="44.797655" lon="8.1829267"><ele>220.0</ele><time>2026-04-25T16:48:09.002Z</time></trkpt><trkpt lat="44.7977233" lon="8.1828233"><ele>219.8</ele><time>2026-04-25T16:48:09.996Z</time></trkpt><trkpt lat="44.7977883" lon="8.1827133"><ele>219.6</ele><time>2026-04-25T16:48:10.999Z</time></trkpt><trkpt lat="44.79786" lon="8.1826017"><ele>219.39999999999998</ele><time>2026-04-25T16:48:11.998Z</time></trkpt><trkpt lat="44.79794" lon="8.18249"><ele>219.2</ele><time>2026-04-25T16:48:12.996Z</time></trkpt><trkpt lat="44.7980233" lon="8.182385"><ele>219.0</ele><time>2026-04-25T16:48:13.997Z</time></trkpt><trkpt lat="44.79811" lon="8.1822833"><ele>216.5</ele><time>2026-04-25T16:48:15Z</time></trkpt><trkpt lat="44.7982083" lon="8.1821933"><ele>214.0</ele><time>2026-04-25T16:48:15.995Z</time></trkpt><trkpt lat="44.7983183" lon="8.1821167"><ele>211.5</ele><time>2026-04-25T16:48:16.998Z</time></trkpt><trkpt lat="44.7984267" lon="8.1820517"><ele>209.0</ele><time>2026-04-25T16:48:17.998Z</time></trkpt><trkpt lat="44.798535" lon="8.18198"><ele>209.0</ele><time>2026-04-25T16:48:19Z</time></trkpt><trkpt lat="44.79865" lon="8.18191"><ele>209.0</ele><time>2026-04-25T16:48:19.998Z</time></trkpt><trkpt lat="44.7987733" lon="8.1818367"><ele>209.0</ele><time>2026-04-25T16:48:21.002Z</time></trkpt><trkpt lat="44.798895" lon="8.1817533"><ele>209.0</ele><time>2026-04-25T16:48:21.999Z</time></trkpt><trkpt lat="44.79902" lon="8.1816667"><ele>209.0</ele><time>2026-04-25T16:48:22.997Z</time></trkpt><trkpt lat="44.7991483" lon="8.1815833"><ele>209.0</ele><time>2026-04-25T16:48:23.997Z</time></trkpt><trkpt lat="44.7992783" lon="8.181505"><ele>209.0</ele><time>2026-04-25T16:48:24.997Z</time></trkpt><trkpt lat="44.7994117" lon="8.1814317"><ele>209.0</ele><time>2026-04-25T16:48:25.996Z</time></trkpt><trkpt lat="44.799545" lon="8.181365"><ele>206.0</ele><time>2026-04-25T16:48:26.998Z</time></trkpt><trkpt lat="44.7996817" lon="8.181315"><ele>203.0</ele><time>2026-04-25T16:48:27.998Z</time></trkpt><trkpt lat="44.7998133" lon="8.1813"><ele>200.0</ele><time>2026-04-25T16:48:28.995Z</time></trkpt><trkpt lat="44.799955" lon="8.1813183"><ele>197.0</ele><time>2026-04-25T16:48:29.995Z</time></trkpt><trkpt lat="44.8000833" lon="8.1813567"><ele>197.0</ele><time>2026-04-25T16:48:30.998Z</time></trkpt><trkpt lat="44.800215" lon="8.18141"><ele>197.0</ele><time>2026-04-25T16:48:31.995Z</time></trkpt><trkpt lat="44.8003383" lon="8.1814533"><ele>197.0</ele><time>2026-04-25T16:48:32.995Z</time></trkpt><trkpt lat="44.8004633" lon="8.181495"><ele>197.0</ele><time>2026-04-25T16:48:33.994Z</time></trkpt><trkpt lat="44.80059" lon="8.1815483"><ele>198.75</ele><time>2026-04-25T16:48:34.996Z</time></trkpt><trkpt lat="44.80071" lon="8.181585"><ele>200.5</ele><time>2026-04-25T16:48:35.996Z</time></trkpt><trkpt lat="44.8008217" lon="8.1816"><ele>202.25</ele><time>2026-04-25T16:48:36.997Z</time></trkpt><trkpt lat="44.800945" lon="8.1815833"><ele>204.0</ele><time>2026-04-25T16:48:37.994Z</time></trkpt><trkpt lat="44.801065" lon="8.18154"><ele>202.5</ele><time>2026-04-25T16:48:38.998Z</time></trkpt><trkpt lat="44.8011733" lon="8.18148"><ele>201.0</ele><time>2026-04-25T16:48:39.996Z</time></trkpt><trkpt lat="44.8012833" lon="8.181395"><ele>199.5</ele><time>2026-04-25T16:48:40.994Z</time></trkpt><trkpt lat="44.8013833" lon="8.1813067"><ele>198.0</ele><time>2026-04-25T16:48:41.995Z</time></trkpt><trkpt lat="44.80149" lon="8.1812383"><ele>198.0</ele><time>2026-04-25T16:48:42.994Z</time></trkpt><trkpt lat="44.8015967" lon="8.18119"><ele>198.0</ele><time>2026-04-25T16:48:43.996Z</time></trkpt><trkpt lat="44.8016967" lon="8.1811533"><ele>198.0</ele><time>2026-04-25T16:48:44.996Z</time></trkpt><trkpt lat="44.801805" lon="8.18113"><ele>198.0</ele><time>2026-04-25T16:48:45.998Z</time></trkpt><trkpt lat="44.801925" lon="8.181125"><ele>198.0</ele><time>2026-04-25T16:48:46.997Z</time></trkpt><trkpt lat="44.80203" lon="8.181105"><ele>199.0</ele><time>2026-04-25T16:48:47.995Z</time></trkpt><trkpt lat="44.8021283" lon="8.1810783"><ele>200.0</ele><time>2026-04-25T16:48:48.999Z</time></trkpt><trkpt lat="44.8022183" lon="8.1810433"><ele>201.0</ele><time>2026-04-25T16:48:49.997Z</time></trkpt><trkpt lat="44.8023" lon="8.1809933"><ele>202.0</ele><time>2026-04-25T16:48:50.997Z</time></trkpt><trkpt lat="44.8023783" lon="8.18094"><ele>203.0</ele><time>2026-04-25T16:48:51.996Z</time></trkpt><trkpt lat="44.802455" lon="8.180875"><ele>203.0</ele><time>2026-04-25T16:48:52.996Z</time></trkpt><trkpt lat="44.8025283" lon="8.18079"><ele>203.0</ele><time>2026-04-25T16:48:53.995Z</time></trkpt><trkpt lat="44.8026067" lon="8.1806983"><ele>203.0</ele><time>2026-04-25T16:48:55.001Z</time></trkpt><trkpt lat="44.8026867" lon="8.1806067"><ele>203.0</ele><time>2026-04-25T16:48:55.995Z</time></trkpt><trkpt lat="44.8027667" lon="8.1805133"><ele>203.0</ele><time>2026-04-25T16:48:56.999Z</time></trkpt><trkpt lat="44.8028483" lon="8.1804183"><ele>202.8</ele><time>2026-04-25T16:48:57.996Z</time></trkpt><trkpt lat="44.80293" lon="8.1803233"><ele>202.60000000000002</ele><time>2026-04-25T16:48:58.994Z</time></trkpt><trkpt lat="44.8030117" lon="8.180225"><ele>202.39999999999998</ele><time>2026-04-25T16:48:59.997Z</time></trkpt><trkpt lat="44.8030983" lon="8.1801283"><ele>202.2</ele><time>2026-04-25T16:49:00.995Z</time></trkpt><trkpt lat="44.8031817" lon="8.1800217"><ele>202.0</ele><time>2026-04-25T16:49:01.997Z</time></trkpt><trkpt lat="44.8032667" lon="8.17992"><ele>202.0</ele><time>2026-04-25T16:49:02.994Z</time></trkpt><trkpt lat="44.803355" lon="8.1798217"><ele>202.0</ele><time>2026-04-25T16:49:03.998Z</time></trkpt><trkpt lat="44.8034333" lon="8.1797183"><ele>202.0</ele><time>2026-04-25T16:49:04.995Z</time></trkpt><trkpt lat="44.8035133" lon="8.1796167"><ele>202.0</ele><time>2026-04-25T16:49:05.995Z</time></trkpt><trkpt lat="44.8035933" lon="8.1795283"><ele>202.0</ele><time>2026-04-25T16:49:07Z</time></trkpt><trkpt lat="44.80368" lon="8.179445"><ele>202.0</ele><time>2026-04-25T16:49:07.997Z</time></trkpt><trkpt lat="44.803765" lon="8.179365"><ele>202.0</ele><time>2026-04-25T16:49:08.994Z</time></trkpt><trkpt lat="44.80385" lon="8.17929"><ele>202.0</ele><time>2026-04-25T16:49:09.992Z</time></trkpt><trkpt lat="44.80394" lon="8.179225"><ele>202.0</ele><time>2026-04-25T16:49:11.001Z</time></trkpt><trkpt lat="44.804045" lon="8.1791783"><ele>202.0</ele><time>2026-04-25T16:49:11.997Z</time></trkpt><trkpt lat="44.8041517" lon="8.1791467"><ele>202.0</ele><time>2026-04-25T16:49:12.998Z</time></trkpt><trkpt lat="44.80426" lon="8.179125"><ele>202.0</ele><time>2026-04-25T16:49:13.997Z</time></trkpt><trkpt lat="44.80437" lon="8.1791133"><ele>202.0</ele><time>2026-04-25T16:49:14.993Z</time></trkpt><trkpt lat="44.80448" lon="8.1791017"><ele>202.0</ele><time>2026-04-25T16:49:16.001Z</time></trkpt><trkpt lat="44.8045817" lon="8.1790833"><ele>202.0</ele><time>2026-04-25T16:49:16.997Z</time></trkpt><trkpt lat="44.8046817" lon="8.1790717"><ele>202.0</ele><time>2026-04-25T16:49:17.998Z</time></trkpt><trkpt lat="44.8047833" lon="8.1790717"><ele>202.0</ele><time>2026-04-25T16:49:19Z</time></trkpt><trkpt lat="44.8048917" lon="8.1790633"><ele>202.0</ele><time>2026-04-25T16:49:19.997Z</time></trkpt><trkpt lat="44.804995" lon="8.17906"><ele>202.0</ele><time>2026-04-25T16:49:20.996Z</time></trkpt><trkpt lat="44.8051067" lon="8.1790667"><ele>202.0</ele><time>2026-04-25T16:49:21.999Z</time></trkpt><trkpt lat="44.8052167" lon="8.1790967"><ele>202.25</ele><time>2026-04-25T16:49:22.994Z</time></trkpt><trkpt lat="44.8053317" lon="8.1791267"><ele>202.5</ele><time>2026-04-25T16:49:23.997Z</time></trkpt><trkpt lat="44.8054433" lon="8.1791683"><ele>202.75</ele><time>2026-04-25T16:49:24.995Z</time></trkpt><trkpt lat="44.805555" lon="8.17921"><ele>203.0</ele><time>2026-04-25T16:49:25.994Z</time></trkpt><trkpt lat="44.8056683" lon="8.1792533"><ele>203.0</ele><time>2026-04-25T16:49:26.999Z</time></trkpt><trkpt lat="44.8057767" lon="8.1792783"><ele>203.0</ele><time>2026-04-25T16:49:27.996Z</time></trkpt><trkpt lat="44.80589" lon="8.17927"><ele>203.0</ele><time>2026-04-25T16:49:28.993Z</time></trkpt><trkpt lat="44.806" lon="8.17923"><ele>203.0</ele><time>2026-04-25T16:49:29.994Z</time></trkpt><trkpt lat="44.8061" lon="8.1791567"><ele>204.0</ele><time>2026-04-25T16:49:30.995Z</time></trkpt><trkpt lat="44.8061967" lon="8.1790517"><ele>205.0</ele><time>2026-04-25T16:49:31.998Z</time></trkpt><trkpt lat="44.8062917" lon="8.178935"><ele>206.0</ele><time>2026-04-25T16:49:32.996Z</time></trkpt><trkpt lat="44.8063883" lon="8.1788167"><ele>207.0</ele><time>2026-04-25T16:49:33.996Z</time></trkpt><trkpt lat="44.8064833" lon="8.1786983"><ele>206.0</ele><time>2026-04-25T16:49:34.993Z</time></trkpt><trkpt lat="44.8065733" lon="8.178585"><ele>205.0</ele><time>2026-04-25T16:49:35.997Z</time></trkpt><trkpt lat="44.8066633" lon="8.178475"><ele>204.0</ele><time>2026-04-25T16:49:36.999Z</time></trkpt><trkpt lat="44.806755" lon="8.1783683"><ele>203.0</ele><time>2026-04-25T16:49:37.993Z</time></trkpt><trkpt lat="44.8068533" lon="8.17827"><ele>200.0</ele><time>2026-04-25T16:49:38.999Z</time></trkpt><trkpt lat="44.8069667" lon="8.1781817"><ele>197.0</ele><time>2026-04-25T16:49:39.997Z</time></trkpt><trkpt lat="44.80709" lon="8.178105"><ele>194.0</ele><time>2026-04-25T16:49:40.996Z</time></trkpt><trkpt lat="44.807215" lon="8.1780317"><ele>191.0</ele><time>2026-04-25T16:49:41.994Z</time></trkpt><trkpt lat="44.8073617" lon="8.1779583"><ele>191.0</ele><time>2026-04-25T16:49:42.995Z</time></trkpt><trkpt lat="44.8075333" lon="8.17787"><ele>191.0</ele><time>2026-04-25T16:49:43.994Z</time></trkpt><trkpt lat="44.8077217" lon="8.1777733"><ele>191.0</ele><time>2026-04-25T16:49:44.995Z</time></trkpt><trkpt lat="44.8079333" lon="8.17768"><ele>192.5</ele><time>2026-04-25T16:49:45.996Z</time></trkpt><trkpt lat="44.80816" lon="8.1775917"><ele>194.0</ele><time>2026-04-25T16:49:46.999Z</time></trkpt><trkpt lat="44.8083817" lon="8.1774967"><ele>193.33333333333334</ele><time>2026-04-25T16:49:47.993Z</time></trkpt><trkpt lat="44.808595" lon="8.1774"><ele>192.66666666666669</ele><time>2026-04-25T16:49:48.993Z</time></trkpt><trkpt lat="44.808805" lon="8.1773067"><ele>192.0</ele><time>2026-04-25T16:49:49.993Z</time></trkpt><trkpt lat="44.8090117" lon="8.1772117"><ele>190.0</ele><time>2026-04-25T16:49:50.998Z</time></trkpt><trkpt lat="44.8092083" lon="8.1771233"><ele>188.0</ele><time>2026-04-25T16:49:52.003Z</time></trkpt><trkpt lat="44.8094017" lon="8.17704"><ele>186.0</ele><time>2026-04-25T16:49:52.993Z</time></trkpt><trkpt lat="44.8095933" lon="8.176955"><ele>186.0</ele><time>2026-04-25T16:49:53.998Z</time></trkpt><trkpt lat="44.8097833" lon="8.1768683"><ele>186.0</ele><time>2026-04-25T16:49:54.997Z</time></trkpt><trkpt lat="44.8099683" lon="8.176795"><ele>186.0</ele><time>2026-04-25T16:49:55.996Z</time></trkpt><trkpt lat="44.8101567" lon="8.1767217"><ele>187.33333333333334</ele><time>2026-04-25T16:49:56.996Z</time></trkpt><trkpt lat="44.8103483" lon="8.17666"><ele>188.66666666666669</ele><time>2026-04-25T16:49:57.994Z</time></trkpt><trkpt lat="44.810545" lon="8.1766117"><ele>190.0</ele><time>2026-04-25T16:49:58.998Z</time></trkpt><trkpt lat="44.810745" lon="8.1765717"><ele>190.0</ele><time>2026-04-25T16:49:59.999Z</time></trkpt><trkpt lat="44.8109433" lon="8.1765483"><ele>190.0</ele><time>2026-04-25T16:50:00.997Z</time></trkpt><trkpt lat="44.81115" lon="8.1765217"><ele>190.0</ele><time>2026-04-25T16:50:02Z</time></trkpt><trkpt lat="44.811345" lon="8.1764967"><ele>185.33333333333334</ele><time>2026-04-25T16:50:02.992Z</time></trkpt><trkpt lat="44.8115417" lon="8.1764667"><ele>180.66666666666666</ele><time>2026-04-25T16:50:03.998Z</time></trkpt><trkpt lat="44.8117367" lon="8.1764417"><ele>176.0</ele><time>2026-04-25T16:50:04.994Z</time></trkpt><trkpt lat="44.8119267" lon="8.1764217"><ele>175.0</ele><time>2026-04-25T16:50:05.995Z</time></trkpt><trkpt lat="44.81212" lon="8.17641"><ele>174.0</ele><time>2026-04-25T16:50:06.996Z</time></trkpt><trkpt lat="44.8123133" lon="8.1763983"><ele>173.0</ele><time>2026-04-25T16:50:07.997Z</time></trkpt><trkpt lat="44.8125033" lon="8.1763867"><ele>172.66666666666666</ele><time>2026-04-25T16:50:09Z</time></trkpt><trkpt lat="44.8126883" lon="8.1763783"><ele>172.33333333333334</ele><time>2026-04-25T16:50:09.997Z</time></trkpt><trkpt lat="44.8128783" lon="8.176365"><ele>172.0</ele><time>2026-04-25T16:50:11.001Z</time></trkpt><trkpt lat="44.8130583" lon="8.176355"><ele>172.0</ele><time>2026-04-25T16:50:11.997Z</time></trkpt><trkpt lat="44.813245" lon="8.1763417"><ele>172.0</ele><time>2026-04-25T16:50:12.998Z</time></trkpt><trkpt lat="44.8134417" lon="8.17633"><ele>172.0</ele><time>2026-04-25T16:50:13.994Z</time></trkpt><trkpt lat="44.8136483" lon="8.1763133"><ele>172.33333333333334</ele><time>2026-04-25T16:50:14.994Z</time></trkpt><trkpt lat="44.8138567" lon="8.1762867"><ele>172.66666666666666</ele><time>2026-04-25T16:50:15.995Z</time></trkpt><trkpt lat="44.8140717" lon="8.1762533"><ele>173.0</ele><time>2026-04-25T16:50:16.999Z</time></trkpt><trkpt lat="44.8142933" lon="8.17622"><ele>172.0</ele><time>2026-04-25T16:50:17.997Z</time></trkpt><trkpt lat="44.8145167" lon="8.176185"><ele>171.0</ele><time>2026-04-25T16:50:18.996Z</time></trkpt><trkpt lat="44.8147433" lon="8.1761517"><ele>171.0</ele><time>2026-04-25T16:50:19.993Z</time></trkpt><trkpt lat="44.8149717" lon="8.17612"><ele>171.0</ele><time>2026-04-25T16:50:20.996Z</time></trkpt><trkpt lat="44.815195" lon="8.176085"><ele>171.0</ele><time>2026-04-25T16:50:21.996Z</time></trkpt><trkpt lat="44.8154117" lon="8.1760517"><ele>171.0</ele><time>2026-04-25T16:50:22.998Z</time></trkpt><trkpt lat="44.8156333" lon="8.176025"><ele>171.0</ele><time>2026-04-25T16:50:24.001Z</time></trkpt><trkpt lat="44.8158533" lon="8.17599"><ele>173.0</ele><time>2026-04-25T16:50:24.996Z</time></trkpt><trkpt lat="44.8160767" lon="8.17595"><ele>175.0</ele><time>2026-04-25T16:50:25.996Z</time></trkpt><trkpt lat="44.8162917" lon="8.17591"><ele>177.0</ele><time>2026-04-25T16:50:26.994Z</time></trkpt><trkpt lat="44.8165033" lon="8.1758733"><ele>177.0</ele><time>2026-04-25T16:50:27.995Z</time></trkpt><trkpt lat="44.816705" lon="8.175845"><ele>177.0</ele><time>2026-04-25T16:50:28.995Z</time></trkpt><trkpt lat="44.8169" lon="8.1758117"><ele>177.0</ele><time>2026-04-25T16:50:29.995Z</time></trkpt><trkpt lat="44.81709" lon="8.1757767"><ele>178.33333333333334</ele><time>2026-04-25T16:50:30.997Z</time></trkpt><trkpt lat="44.8172767" lon="8.1757483"><ele>179.66666666666669</ele><time>2026-04-25T16:50:31.996Z</time></trkpt><trkpt lat="44.8174567" lon="8.1757167"><ele>181.0</ele><time>2026-04-25T16:50:33Z</time></trkpt><trkpt lat="44.8176133" lon="8.1756917"><ele>178.33333333333334</ele><time>2026-04-25T16:50:33.993Z</time></trkpt><trkpt lat="44.8177783" lon="8.1756833"><ele>175.66666666666666</ele><time>2026-04-25T16:50:34.999Z</time></trkpt><trkpt lat="44.81794" lon="8.17569"><ele>173.0</ele><time>2026-04-25T16:50:35.997Z</time></trkpt><trkpt lat="44.8180933" lon="8.1757033"><ele>173.0</ele><time>2026-04-25T16:50:36.994Z</time></trkpt><trkpt lat="44.8182533" lon="8.175745"><ele>173.0</ele><time>2026-04-25T16:50:37.997Z</time></trkpt><trkpt lat="44.8184017" lon="8.1758233"><ele>173.0</ele><time>2026-04-25T16:50:38.993Z</time></trkpt><trkpt lat="44.8185567" lon="8.1759233"><ele>171.33333333333331</ele><time>2026-04-25T16:50:39.994Z</time></trkpt><trkpt lat="44.8187183" lon="8.1760367"><ele>169.66666666666666</ele><time>2026-04-25T16:50:40.997Z</time></trkpt><trkpt lat="44.8188817" lon="8.17616"><ele>168.0</ele><time>2026-04-25T16:50:41.996Z</time></trkpt><trkpt lat="44.81905" lon="8.17629"><ele>168.0</ele><time>2026-04-25T16:50:42.998Z</time></trkpt><trkpt lat="44.8192217" lon="8.1764267"><ele>168.0</ele><time>2026-04-25T16:50:43.993Z</time></trkpt><trkpt lat="44.81939" lon="8.176565"><ele>168.0</ele><time>2026-04-25T16:50:44.996Z</time></trkpt><trkpt lat="44.8195567" lon="8.1766967"><ele>168.66666666666666</ele><time>2026-04-25T16:50:45.995Z</time></trkpt><trkpt lat="44.8197317" lon="8.1768117"><ele>169.33333333333331</ele><time>2026-04-25T16:50:47.004Z</time></trkpt><trkpt lat="44.8199117" lon="8.1769083"><ele>170.0</ele><time>2026-04-25T16:50:47.994Z</time></trkpt><trkpt lat="44.8200967" lon="8.1769917"><ele>169.66666666666666</ele><time>2026-04-25T16:50:48.996Z</time></trkpt><trkpt lat="44.8202883" lon="8.1770767"><ele>169.33333333333334</ele><time>2026-04-25T16:50:49.996Z</time></trkpt><trkpt lat="44.8204867" lon="8.1771683"><ele>169.0</ele><time>2026-04-25T16:50:50.997Z</time></trkpt><trkpt lat="44.8206867" lon="8.1772617"><ele>169.0</ele><time>2026-04-25T16:50:51.996Z</time></trkpt><trkpt lat="44.8208933" lon="8.177355"><ele>169.0</ele><time>2026-04-25T16:50:52.999Z</time></trkpt><trkpt lat="44.8210983" lon="8.1774583"><ele>169.0</ele><time>2026-04-25T16:50:53.992Z</time></trkpt><trkpt lat="44.8213017" lon="8.1775583"><ele>169.33333333333334</ele><time>2026-04-25T16:50:54.999Z</time></trkpt><trkpt lat="44.8214983" lon="8.1776533"><ele>169.66666666666666</ele><time>2026-04-25T16:50:55.994Z</time></trkpt><trkpt lat="44.8216833" lon="8.1777417"><ele>170.0</ele><time>2026-04-25T16:50:56.994Z</time></trkpt><trkpt lat="44.821865" lon="8.1778233"><ele>171.33333333333331</ele><time>2026-04-25T16:50:57.997Z</time></trkpt><trkpt lat="44.8220417" lon="8.1779"><ele>172.66666666666666</ele><time>2026-04-25T16:50:58.996Z</time></trkpt><trkpt lat="44.8222167" lon="8.1779783"><ele>174.0</ele><time>2026-04-25T16:50:59.996Z</time></trkpt><trkpt lat="44.822385" lon="8.178055"><ele>174.0</ele><time>2026-04-25T16:51:00.997Z</time></trkpt><trkpt lat="44.82255" lon="8.17813"><ele>174.0</ele><time>2026-04-25T16:51:01.994Z</time></trkpt><trkpt lat="44.822705" lon="8.1782033"><ele>174.0</ele><time>2026-04-25T16:51:02.996Z</time></trkpt><trkpt lat="44.8228583" lon="8.1782667"><ele>172.75</ele><time>2026-04-25T16:51:03.996Z</time></trkpt><trkpt lat="44.8230017" lon="8.1783333"><ele>171.5</ele><time>2026-04-25T16:51:04.992Z</time></trkpt><trkpt lat="44.8231417" lon="8.1783967"><ele>170.25</ele><time>2026-04-25T16:51:05.998Z</time></trkpt><trkpt lat="44.8232767" lon="8.1784633"><ele>169.0</ele><time>2026-04-25T16:51:07Z</time></trkpt><trkpt lat="44.8234067" lon="8.1785217"><ele>169.75</ele><time>2026-04-25T16:51:07.997Z</time></trkpt><trkpt lat="44.8235333" lon="8.1785817"><ele>170.5</ele><time>2026-04-25T16:51:08.999Z</time></trkpt><trkpt lat="44.8236533" lon="8.1786383"><ele>171.25</ele><time>2026-04-25T16:51:09.99Z</time></trkpt><trkpt lat="44.82377" lon="8.1786933"><ele>172.0</ele><time>2026-04-25T16:51:10.999Z</time></trkpt><trkpt lat="44.8238817" lon="8.178745"><ele>172.0</ele><time>2026-04-25T16:51:11.997Z</time></trkpt><trkpt lat="44.82399" lon="8.1787933"><ele>172.0</ele><time>2026-04-25T16:51:12.998Z</time></trkpt><trkpt lat="44.8240883" lon="8.1788333"><ele>172.0</ele><time>2026-04-25T16:51:13.997Z</time></trkpt><trkpt lat="44.824175" lon="8.1788767"><ele>172.0</ele><time>2026-04-25T16:51:15Z</time></trkpt><trkpt lat="44.8242617" lon="8.17892"><ele>172.0</ele><time>2026-04-25T16:51:15.999Z</time></trkpt><trkpt lat="44.8243533" lon="8.17895"><ele>172.33333333333334</ele><time>2026-04-25T16:51:16.994Z</time></trkpt><trkpt lat="44.8244383" lon="8.1789733"><ele>172.66666666666669</ele><time>2026-04-25T16:51:17.995Z</time></trkpt><trkpt lat="44.8245233" lon="8.1789817"><ele>173.0</ele><time>2026-04-25T16:51:18.998Z</time></trkpt><trkpt lat="44.8246067" lon="8.1789767"><ele>173.33333333333334</ele><time>2026-04-25T16:51:19.997Z</time></trkpt><trkpt lat="44.8246917" lon="8.17896"><ele>173.66666666666666</ele><time>2026-04-25T16:51:20.995Z</time></trkpt><trkpt lat="44.8247833" lon="8.1789267"><ele>174.0</ele><time>2026-04-25T16:51:21.995Z</time></trkpt><trkpt lat="44.82488" lon="8.1788883"><ele>174.0</ele><time>2026-04-25T16:51:22.994Z</time></trkpt><trkpt lat="44.824975" lon="8.178835"><ele>174.0</ele><time>2026-04-25T16:51:23.995Z</time></trkpt><trkpt lat="44.8250767" lon="8.17877"><ele>174.0</ele><time>2026-04-25T16:51:24.999Z</time></trkpt><trkpt lat="44.8251833" lon="8.1786917"><ele>174.0</ele><time>2026-04-25T16:51:26Z</time></trkpt><trkpt lat="44.825295" lon="8.1786017"><ele>174.0</ele><time>2026-04-25T16:51:26.991Z</time></trkpt><trkpt lat="44.8254" lon="8.1785067"><ele>174.0</ele><time>2026-04-25T16:51:27.996Z</time></trkpt><trkpt lat="44.8254983" lon="8.1783917"><ele>174.0</ele><time>2026-04-25T16:51:28.997Z</time></trkpt><trkpt lat="44.8255933" lon="8.178275"><ele>174.0</ele><time>2026-04-25T16:51:29.996Z</time></trkpt><trkpt lat="44.8256867" lon="8.1781533"><ele>170.75</ele><time>2026-04-25T16:51:30.998Z</time></trkpt><trkpt lat="44.825795" lon="8.1780467"><ele>167.5</ele><time>2026-04-25T16:51:31.995Z</time></trkpt><trkpt lat="44.8259167" lon="8.1779567"><ele>164.25</ele><time>2026-04-25T16:51:32.996Z</time></trkpt><trkpt lat="44.8260467" lon="8.17788"><ele>161.0</ele><time>2026-04-25T16:51:33.998Z</time></trkpt><trkpt lat="44.82618" lon="8.17781"><ele>160.0</ele><time>2026-04-25T16:51:34.996Z</time></trkpt><trkpt lat="44.8262967" lon="8.1777567"><ele>159.0</ele><time>2026-04-25T16:51:35.996Z</time></trkpt><trkpt lat="44.8264233" lon="8.1776933"><ele>158.0</ele><time>2026-04-25T16:51:36.997Z</time></trkpt><trkpt lat="44.826555" lon="8.1776517"><ele>157.0</ele><time>2026-04-25T16:51:37.998Z</time></trkpt><trkpt lat="44.82669" lon="8.1775983"><ele>156.0</ele><time>2026-04-25T16:51:39Z</time></trkpt><trkpt lat="44.826825" lon="8.1775617"><ele>155.0</ele><time>2026-04-25T16:51:39.996Z</time></trkpt><trkpt lat="44.826955" lon="8.1775217"><ele>154.0</ele><time>2026-04-25T16:51:40.996Z</time></trkpt><trkpt lat="44.8270733" lon="8.1774867"><ele>153.0</ele><time>2026-04-25T16:51:41.998Z</time></trkpt><trkpt lat="44.8271717" lon="8.1774633"><ele>153.0</ele><time>2026-04-25T16:51:42.996Z</time></trkpt><trkpt lat="44.8272517" lon="8.17744"><ele>153.0</ele><time>2026-04-25T16:51:43.996Z</time></trkpt><trkpt lat="44.827315" lon="8.1774167"><ele>153.0</ele><time>2026-04-25T16:51:44.996Z</time></trkpt><trkpt lat="44.827405" lon="8.177395"><ele>153.0</ele><time>2026-04-25T16:51:47Z</time></trkpt><trkpt lat="44.8274833" lon="8.1773833"><ele>153.0</ele><time>2026-04-25T16:51:49.997Z</time></trkpt><trkpt lat="44.8275467" lon="8.1774117"><ele>153.0</ele><time>2026-04-25T16:51:59.996Z</time></trkpt><trkpt lat="44.82765" lon="8.1773917"><ele>151.8</ele><time>2026-04-25T16:52:01.994Z</time></trkpt><trkpt lat="44.827735" lon="8.1773667"><ele>150.60000000000002</ele><time>2026-04-25T16:52:02.996Z</time></trkpt><trkpt lat="44.827825" lon="8.1773467"><ele>149.39999999999998</ele><time>2026-04-25T16:52:04Z</time></trkpt><trkpt lat="44.8279233" lon="8.1773317"><ele>148.2</ele><time>2026-04-25T16:52:04.997Z</time></trkpt><trkpt lat="44.82802" lon="8.1773317"><ele>147.0</ele><time>2026-04-25T16:52:05.994Z</time></trkpt><trkpt lat="44.8281267" lon="8.1773467"><ele>147.0</ele><time>2026-04-25T16:52:06.999Z</time></trkpt><trkpt lat="44.82823" lon="8.1773717"><ele>147.0</ele><time>2026-04-25T16:52:07.993Z</time></trkpt><trkpt lat="44.8283317" lon="8.1774117"><ele>147.0</ele><time>2026-04-25T16:52:08.994Z</time></trkpt><trkpt lat="44.8284333" lon="8.1774617"><ele>147.0</ele><time>2026-04-25T16:52:09.996Z</time></trkpt><trkpt lat="44.82853" lon="8.177515"><ele>147.0</ele><time>2026-04-25T16:52:10.995Z</time></trkpt><trkpt lat="44.828635" lon="8.177565"><ele>146.0</ele><time>2026-04-25T16:52:11.996Z</time></trkpt><trkpt lat="44.8287317" lon="8.1776183"><ele>145.0</ele><time>2026-04-25T16:52:12.995Z</time></trkpt><trkpt lat="44.8288333" lon="8.17767"><ele>144.0</ele><time>2026-04-25T16:52:13.993Z</time></trkpt><trkpt lat="44.828935" lon="8.17772"><ele>143.0</ele><time>2026-04-25T16:52:14.999Z</time></trkpt><trkpt lat="44.82904" lon="8.1777733"><ele>142.0</ele><time>2026-04-25T16:52:15.994Z</time></trkpt><trkpt lat="44.8291383" lon="8.177825"><ele>142.0</ele><time>2026-04-25T16:52:16.994Z</time></trkpt><trkpt lat="44.8292367" lon="8.1778733"><ele>142.0</ele><time>2026-04-25T16:52:17.996Z</time></trkpt><trkpt lat="44.8293383" lon="8.1779217"><ele>142.0</ele><time>2026-04-25T16:52:18.996Z</time></trkpt><trkpt lat="44.829445" lon="8.17797"><ele>142.0</ele><time>2026-04-25T16:52:19.992Z</time></trkpt><trkpt lat="44.8295517" lon="8.1780083"><ele>142.0</ele><time>2026-04-25T16:52:20.996Z</time></trkpt><trkpt lat="44.82965" lon="8.1780567"><ele>141.79999999999998</ele><time>2026-04-25T16:52:21.994Z</time></trkpt><trkpt lat="44.8297433" lon="8.178115"><ele>141.6</ele><time>2026-04-25T16:52:22.996Z</time></trkpt><trkpt lat="44.8298483" lon="8.1781733"><ele>141.39999999999998</ele><time>2026-04-25T16:52:23.993Z</time></trkpt><trkpt lat="44.8299517" lon="8.1782383"><ele>141.2</ele><time>2026-04-25T16:52:24.999Z</time></trkpt><trkpt lat="44.830055" lon="8.178305"><ele>141.0</ele><time>2026-04-25T16:52:25.995Z</time></trkpt><trkpt lat="44.8301567" lon="8.1783583"><ele>138.75</ele><time>2026-04-25T16:52:26.999Z</time></trkpt><trkpt lat="44.8302567" lon="8.1784183"><ele>136.5</ele><time>2026-04-25T16:52:27.996Z</time></trkpt><trkpt lat="44.8303617" lon="8.17848"><ele>134.25</ele><time>2026-04-25T16:52:29Z</time></trkpt><trkpt lat="44.8304733" lon="8.1785617"><ele>132.0</ele><time>2026-04-25T16:52:29.995Z</time></trkpt><trkpt lat="44.8305717" lon="8.17864"><ele>132.0</ele><time>2026-04-25T16:52:30.995Z</time></trkpt><trkpt lat="44.8306867" lon="8.1787067"><ele>132.0</ele><time>2026-04-25T16:52:31.997Z</time></trkpt><trkpt lat="44.8308033" lon="8.1787833"><ele>132.0</ele><time>2026-04-25T16:52:32.998Z</time></trkpt><trkpt lat="44.830915" lon="8.1788717"><ele>132.0</ele><time>2026-04-25T16:52:33.997Z</time></trkpt><trkpt lat="44.8310317" lon="8.1789483"><ele>130.75</ele><time>2026-04-25T16:52:34.997Z</time></trkpt><trkpt lat="44.8311433" lon="8.17903"><ele>129.5</ele><time>2026-04-25T16:52:35.999Z</time></trkpt><trkpt lat="44.8312617" lon="8.17911"><ele>128.25</ele><time>2026-04-25T16:52:36.998Z</time></trkpt><trkpt lat="44.8313717" lon="8.1792083"><ele>127.0</ele><time>2026-04-25T16:52:37.998Z</time></trkpt><trkpt lat="44.8314833" lon="8.17931"><ele>127.0</ele><time>2026-04-25T16:52:38.997Z</time></trkpt><trkpt lat="44.8315967" lon="8.1794117"><ele>127.0</ele><time>2026-04-25T16:52:39.995Z</time></trkpt><trkpt lat="44.83171" lon="8.1795117"><ele>127.0</ele><time>2026-04-25T16:52:40.995Z</time></trkpt><trkpt lat="44.8318233" lon="8.1796117"><ele>127.0</ele><time>2026-04-25T16:52:41.996Z</time></trkpt><trkpt lat="44.8319367" lon="8.1797133"><ele>127.0</ele><time>2026-04-25T16:52:42.996Z</time></trkpt><trkpt lat="44.8320533" lon="8.1798117"><ele>127.0</ele><time>2026-04-25T16:52:43.999Z</time></trkpt><trkpt lat="44.8321667" lon="8.1799117"><ele>127.0</ele><time>2026-04-25T16:52:44.999Z</time></trkpt><trkpt lat="44.8322733" lon="8.18001"><ele>127.0</ele><time>2026-04-25T16:52:45.994Z</time></trkpt><trkpt lat="44.8323783" lon="8.180105"><ele>127.25</ele><time>2026-04-25T16:52:46.999Z</time></trkpt><trkpt lat="44.8324867" lon="8.1801967"><ele>127.5</ele><time>2026-04-25T16:52:47.996Z</time></trkpt><trkpt lat="44.8325933" lon="8.1802883"><ele>127.75</ele><time>2026-04-25T16:52:48.999Z</time></trkpt><trkpt lat="44.832695" lon="8.1803867"><ele>128.0</ele><time>2026-04-25T16:52:49.999Z</time></trkpt><trkpt lat="44.8328017" lon="8.1804817"><ele>128.0</ele><time>2026-04-25T16:52:50.996Z</time></trkpt><trkpt lat="44.8329067" lon="8.1805817"><ele>128.0</ele><time>2026-04-25T16:52:51.994Z</time></trkpt><trkpt lat="44.83302" lon="8.18068"><ele>128.0</ele><time>2026-04-25T16:52:53.002Z</time></trkpt><trkpt lat="44.8331317" lon="8.1807817"><ele>128.0</ele><time>2026-04-25T16:52:53.995Z</time></trkpt><trkpt lat="44.8332517" lon="8.1808733"><ele>128.0</ele><time>2026-04-25T16:52:54.994Z</time></trkpt><trkpt lat="44.83337" lon="8.18097"><ele>128.0</ele><time>2026-04-25T16:52:55.996Z</time></trkpt><trkpt lat="44.8334867" lon="8.18107"><ele>128.0</ele><time>2026-04-25T16:52:56.997Z</time></trkpt><trkpt lat="44.833595" lon="8.1811783"><ele>128.0</ele><time>2026-04-25T16:52:57.997Z</time></trkpt><trkpt lat="44.8337067" lon="8.1812733"><ele>128.0</ele><time>2026-04-25T16:52:58.995Z</time></trkpt><trkpt lat="44.8338117" lon="8.181365"><ele>128.0</ele><time>2026-04-25T16:52:59.996Z</time></trkpt><trkpt lat="44.8339133" lon="8.1814483"><ele>128.0</ele><time>2026-04-25T16:53:00.994Z</time></trkpt><trkpt lat="44.8340083" lon="8.1815317"><ele>128.0</ele><time>2026-04-25T16:53:01.999Z</time></trkpt><trkpt lat="44.8341033" lon="8.1816117"><ele>128.0</ele><time>2026-04-25T16:53:02.999Z</time></trkpt><trkpt lat="44.8342" lon="8.1816883"><ele>128.0</ele><time>2026-04-25T16:53:03.997Z</time></trkpt><trkpt lat="44.8342933" lon="8.1817733"><ele>128.0</ele><time>2026-04-25T16:53:04.995Z</time></trkpt><trkpt lat="44.8343933" lon="8.1818533"><ele>128.0</ele><time>2026-04-25T16:53:05.992Z</time></trkpt><trkpt lat="44.83449" lon="8.181935"><ele>127.25</ele><time>2026-04-25T16:53:06.997Z</time></trkpt><trkpt lat="44.8345883" lon="8.182025"><ele>126.5</ele><time>2026-04-25T16:53:07.993Z</time></trkpt><trkpt lat="44.83469" lon="8.1821133"><ele>125.75</ele><time>2026-04-25T16:53:08.997Z</time></trkpt><trkpt lat="44.8347933" lon="8.182195"><ele>125.0</ele><time>2026-04-25T16:53:09.995Z</time></trkpt><trkpt lat="44.8348967" lon="8.18228"><ele>124.75</ele><time>2026-04-25T16:53:10.992Z</time></trkpt><trkpt lat="44.8350017" lon="8.1823667"><ele>124.5</ele><time>2026-04-25T16:53:11.997Z</time></trkpt><trkpt lat="44.8351067" lon="8.1824517"><ele>124.25</ele><time>2026-04-25T16:53:12.995Z</time></trkpt><trkpt lat="44.8352083" lon="8.1825367"><ele>124.0</ele><time>2026-04-25T16:53:13.999Z</time></trkpt><trkpt lat="44.83531" lon="8.18262"><ele>124.5</ele><time>2026-04-25T16:53:14.995Z</time></trkpt><trkpt lat="44.8354117" lon="8.1827067"><ele>125.0</ele><time>2026-04-25T16:53:15.992Z</time></trkpt><trkpt lat="44.835515" lon="8.182795"><ele>125.5</ele><time>2026-04-25T16:53:16.997Z</time></trkpt><trkpt lat="44.83562" lon="8.1828767"><ele>126.0</ele><time>2026-04-25T16:53:17.995Z</time></trkpt><trkpt lat="44.8357267" lon="8.182965"><ele>126.0</ele><time>2026-04-25T16:53:18.995Z</time></trkpt><trkpt lat="44.8358283" lon="8.183055"><ele>126.0</ele><time>2026-04-25T16:53:20.001Z</time></trkpt><trkpt lat="44.8359317" lon="8.1831483"><ele>126.0</ele><time>2026-04-25T16:53:20.998Z</time></trkpt><trkpt lat="44.8360317" lon="8.1832417"><ele>126.0</ele><time>2026-04-25T16:53:21.998Z</time></trkpt><trkpt lat="44.8361333" lon="8.18334"><ele>125.75</ele><time>2026-04-25T16:53:22.994Z</time></trkpt><trkpt lat="44.8362383" lon="8.18343"><ele>125.5</ele><time>2026-04-25T16:53:23.995Z</time></trkpt><trkpt lat="44.836345" lon="8.1835117"><ele>125.25</ele><time>2026-04-25T16:53:24.995Z</time></trkpt><trkpt lat="44.836445" lon="8.1835933"><ele>125.0</ele><time>2026-04-25T16:53:25.998Z</time></trkpt><trkpt lat="44.8365467" lon="8.1836733"><ele>125.0</ele><time>2026-04-25T16:53:26.997Z</time></trkpt><trkpt lat="44.8366467" lon="8.1837567"><ele>125.0</ele><time>2026-04-25T16:53:27.996Z</time></trkpt><trkpt lat="44.8367483" lon="8.1838367"><ele>125.0</ele><time>2026-04-25T16:53:28.994Z</time></trkpt><trkpt lat="44.83685" lon="8.1839133"><ele>125.0</ele><time>2026-04-25T16:53:29.995Z</time></trkpt><trkpt lat="44.8369483" lon="8.1839933"><ele>124.75</ele><time>2026-04-25T16:53:30.996Z</time></trkpt><trkpt lat="44.8370467" lon="8.1840817"><ele>124.5</ele><time>2026-04-25T16:53:31.997Z</time></trkpt><trkpt lat="44.837145" lon="8.1841617"><ele>124.25</ele><time>2026-04-25T16:53:32.996Z</time></trkpt><trkpt lat="44.8372417" lon="8.1842417"><ele>124.0</ele><time>2026-04-25T16:53:33.997Z</time></trkpt><trkpt lat="44.8373383" lon="8.1843217"><ele>124.0</ele><time>2026-04-25T16:53:34.993Z</time></trkpt><trkpt lat="44.837425" lon="8.1844"><ele>124.0</ele><time>2026-04-25T16:53:35.996Z</time></trkpt><trkpt lat="44.8375133" lon="8.1844767"><ele>124.0</ele><time>2026-04-25T16:53:37.001Z</time></trkpt><trkpt lat="44.8375967" lon="8.1845583"><ele>124.0</ele><time>2026-04-25T16:53:37.995Z</time></trkpt><trkpt lat="44.837685" lon="8.1846383"><ele>124.0</ele><time>2026-04-25T16:53:38.995Z</time></trkpt><trkpt lat="44.8377733" lon="8.1847183"><ele>123.80000000000001</ele><time>2026-04-25T16:53:39.995Z</time></trkpt><trkpt lat="44.8378583" lon="8.1847917"><ele>123.60000000000001</ele><time>2026-04-25T16:53:40.993Z</time></trkpt><trkpt lat="44.8379433" lon="8.1848667"><ele>123.4</ele><time>2026-04-25T16:53:41.996Z</time></trkpt><trkpt lat="44.83803" lon="8.18494"><ele>123.2</ele><time>2026-04-25T16:53:42.995Z</time></trkpt><trkpt lat="44.8381217" lon="8.1850167"><ele>123.0</ele><time>2026-04-25T16:53:43.999Z</time></trkpt><trkpt lat="44.8382167" lon="8.1850933"><ele>122.75</ele><time>2026-04-25T16:53:44.998Z</time></trkpt><trkpt lat="44.83831" lon="8.1851733"><ele>122.5</ele><time>2026-04-25T16:53:45.994Z</time></trkpt><trkpt lat="44.8384067" lon="8.1852583"><ele>122.25</ele><time>2026-04-25T16:53:46.997Z</time></trkpt><trkpt lat="44.8385033" lon="8.1853417"><ele>122.0</ele><time>2026-04-25T16:53:48Z</time></trkpt><trkpt lat="44.8386033" lon="8.1854233"><ele>122.0</ele><time>2026-04-25T16:53:48.997Z</time></trkpt><trkpt lat="44.838705" lon="8.1855117"><ele>122.0</ele><time>2026-04-25T16:53:49.997Z</time></trkpt><trkpt lat="44.8388133" lon="8.1856033"><ele>122.0</ele><time>2026-04-25T16:53:50.996Z</time></trkpt><trkpt lat="44.8389217" lon="8.1856917"><ele>122.0</ele><time>2026-04-25T16:53:51.995Z</time></trkpt><trkpt lat="44.8390317" lon="8.1857817"><ele>122.25</ele><time>2026-04-25T16:53:52.995Z</time></trkpt><trkpt lat="44.8391417" lon="8.1858733"><ele>122.5</ele><time>2026-04-25T16:53:53.996Z</time></trkpt><trkpt lat="44.8392483" lon="8.1859667"><ele>122.75</ele><time>2026-04-25T16:53:54.998Z</time></trkpt><trkpt lat="44.8393533" lon="8.186055"><ele>123.0</ele><time>2026-04-25T16:53:55.995Z</time></trkpt><trkpt lat="44.8394583" lon="8.18614"><ele>123.0</ele><time>2026-04-25T16:53:56.993Z</time></trkpt><trkpt lat="44.8395683" lon="8.1862217"><ele>123.0</ele><time>2026-04-25T16:53:58.001Z</time></trkpt><trkpt lat="44.83967" lon="8.186315"><ele>123.0</ele><time>2026-04-25T16:53:58.993Z</time></trkpt><trkpt lat="44.8397683" lon="8.1864183"><ele>123.0</ele><time>2026-04-25T16:53:59.997Z</time></trkpt><trkpt lat="44.8398717" lon="8.1865217"><ele>123.0</ele><time>2026-04-25T16:54:01.001Z</time></trkpt><trkpt lat="44.8399817" lon="8.1866217"><ele>123.0</ele><time>2026-04-25T16:54:01.994Z</time></trkpt><trkpt lat="44.8400933" lon="8.1867167"><ele>123.0</ele><time>2026-04-25T16:54:02.993Z</time></trkpt><trkpt lat="44.8402083" lon="8.1868117"><ele>123.0</ele><time>2026-04-25T16:54:03.992Z</time></trkpt><trkpt lat="44.8403233" lon="8.1869083"><ele>123.0</ele><time>2026-04-25T16:54:04.991Z</time></trkpt><trkpt lat="44.8404383" lon="8.1870067"><ele>123.0</ele><time>2026-04-25T16:54:05.995Z</time></trkpt><trkpt lat="44.84055" lon="8.187105"><ele>123.0</ele><time>2026-04-25T16:54:06.997Z</time></trkpt><trkpt lat="44.840655" lon="8.1872"><ele>123.0</ele><time>2026-04-25T16:54:07.992Z</time></trkpt><trkpt lat="44.8407567" lon="8.1872867"><ele>123.0</ele><time>2026-04-25T16:54:08.999Z</time></trkpt><trkpt lat="44.840855" lon="8.1873683"><ele>123.0</ele><time>2026-04-25T16:54:09.996Z</time></trkpt><trkpt lat="44.8409533" lon="8.1874567"><ele>123.0</ele><time>2026-04-25T16:54:10.994Z</time></trkpt><trkpt lat="44.841055" lon="8.1875417"><ele>123.0</ele><time>2026-04-25T16:54:11.996Z</time></trkpt><trkpt lat="44.8411583" lon="8.1876333"><ele>123.0</ele><time>2026-04-25T16:54:12.996Z</time></trkpt><trkpt lat="44.841265" lon="8.18773"><ele>123.0</ele><time>2026-04-25T16:54:13.998Z</time></trkpt><trkpt lat="44.84138" lon="8.187825"><ele>123.0</ele><time>2026-04-25T16:54:14.997Z</time></trkpt><trkpt lat="44.8414967" lon="8.1879217"><ele>123.0</ele><time>2026-04-25T16:54:15.996Z</time></trkpt><trkpt lat="44.8416167" lon="8.1880217"><ele>123.0</ele><time>2026-04-25T16:54:16.996Z</time></trkpt><trkpt lat="44.8417383" lon="8.1881217"><ele>123.0</ele><time>2026-04-25T16:54:18Z</time></trkpt><trkpt lat="44.8418667" lon="8.1882283"><ele>123.0</ele><time>2026-04-25T16:54:18.997Z</time></trkpt><trkpt lat="44.8419967" lon="8.1883367"><ele>123.0</ele><time>2026-04-25T16:54:19.994Z</time></trkpt><trkpt lat="44.8421267" lon="8.1884467"><ele>122.66666666666666</ele><time>2026-04-25T16:54:20.993Z</time></trkpt><trkpt lat="44.842255" lon="8.1885567"><ele>122.33333333333333</ele><time>2026-04-25T16:54:22.003Z</time></trkpt><trkpt lat="44.8423883" lon="8.18867"><ele>122.0</ele><time>2026-04-25T16:54:22.995Z</time></trkpt><trkpt lat="44.84252" lon="8.1887867"><ele>121.66666666666666</ele><time>2026-04-25T16:54:23.994Z</time></trkpt><trkpt lat="44.8426533" lon="8.1889"><ele>121.33333333333334</ele><time>2026-04-25T16:54:25.002Z</time></trkpt><trkpt lat="44.8427867" lon="8.189015"><ele>121.0</ele><time>2026-04-25T16:54:25.995Z</time></trkpt><trkpt lat="44.8429233" lon="8.1891283"><ele>121.0</ele><time>2026-04-25T16:54:26.997Z</time></trkpt><trkpt lat="44.8430483" lon="8.1892383"><ele>121.0</ele><time>2026-04-25T16:54:27.993Z</time></trkpt><trkpt lat="44.84317" lon="8.1893467"><ele>121.0</ele><time>2026-04-25T16:54:28.998Z</time></trkpt><trkpt lat="44.8432933" lon="8.18945"><ele>121.0</ele><time>2026-04-25T16:54:29.996Z</time></trkpt><trkpt lat="44.843415" lon="8.18955"><ele>120.75</ele><time>2026-04-25T16:54:31.001Z</time></trkpt><trkpt lat="44.8435367" lon="8.1896533"><ele>120.5</ele><time>2026-04-25T16:54:31.996Z</time></trkpt><trkpt lat="44.84366" lon="8.189755"><ele>120.25</ele><time>2026-04-25T16:54:32.995Z</time></trkpt><trkpt lat="44.8437817" lon="8.18986"><ele>120.0</ele><time>2026-04-25T16:54:33.996Z</time></trkpt><trkpt lat="44.8438967" lon="8.18996"><ele>120.25</ele><time>2026-04-25T16:54:34.997Z</time></trkpt><trkpt lat="44.8440267" lon="8.190065"><ele>120.5</ele><time>2026-04-25T16:54:35.997Z</time></trkpt><trkpt lat="44.8441533" lon="8.190175"><ele>120.75</ele><time>2026-04-25T16:54:37Z</time></trkpt><trkpt lat="44.8442767" lon="8.190285"><ele>121.0</ele><time>2026-04-25T16:54:37.994Z</time></trkpt><trkpt lat="44.8444017" lon="8.1904033"><ele>121.0</ele><time>2026-04-25T16:54:38.997Z</time></trkpt><trkpt lat="44.8445267" lon="8.19051"><ele>121.0</ele><time>2026-04-25T16:54:39.996Z</time></trkpt><trkpt lat="44.84465" lon="8.190615"><ele>121.0</ele><time>2026-04-25T16:54:40.998Z</time></trkpt><trkpt lat="44.8447733" lon="8.1907217"><ele>121.0</ele><time>2026-04-25T16:54:41.997Z</time></trkpt><trkpt lat="44.844895" lon="8.1908267"><ele>121.25</ele><time>2026-04-25T16:54:43Z</time></trkpt><trkpt lat="44.8450217" lon="8.1909317"><ele>121.5</ele><time>2026-04-25T16:54:43.994Z</time></trkpt><trkpt lat="44.8451433" lon="8.19103"><ele>121.75</ele><time>2026-04-25T16:54:44.997Z</time></trkpt><trkpt lat="44.845265" lon="8.191135"><ele>122.0</ele><time>2026-04-25T16:54:45.996Z</time></trkpt><trkpt lat="44.8453867" lon="8.1912367"><ele>121.25</ele><time>2026-04-25T16:54:46.999Z</time></trkpt><trkpt lat="44.84551" lon="8.1913433"><ele>120.5</ele><time>2026-04-25T16:54:47.994Z</time></trkpt><trkpt lat="44.8456333" lon="8.1914483"><ele>119.75</ele><time>2026-04-25T16:54:48.995Z</time></trkpt><trkpt lat="44.8457583" lon="8.19155"><ele>119.0</ele><time>2026-04-25T16:54:49.999Z</time></trkpt><trkpt lat="44.8458833" lon="8.1916517"><ele>119.0</ele><time>2026-04-25T16:54:50.998Z</time></trkpt><trkpt lat="44.846005" lon="8.191755"><ele>119.0</ele><time>2026-04-25T16:54:51.997Z</time></trkpt><trkpt lat="44.84613" lon="8.191855"><ele>119.0</ele><time>2026-04-25T16:54:52.993Z</time></trkpt><trkpt lat="44.8462517" lon="8.19196"><ele>119.0</ele><time>2026-04-25T16:54:53.997Z</time></trkpt><trkpt lat="44.8463733" lon="8.1920633"><ele>119.0</ele><time>2026-04-25T16:54:55Z</time></trkpt><trkpt lat="44.846495" lon="8.1921683"><ele>119.0</ele><time>2026-04-25T16:54:55.996Z</time></trkpt><trkpt lat="44.8466017" lon="8.1922817"><ele>119.0</ele><time>2026-04-25T16:54:56.997Z</time></trkpt><trkpt lat="44.846715" lon="8.19239"><ele>119.0</ele><time>2026-04-25T16:54:57.994Z</time></trkpt><trkpt lat="44.8468317" lon="8.1925033"><ele>119.75</ele><time>2026-04-25T16:54:58.997Z</time></trkpt><trkpt lat="44.84695" lon="8.19262"><ele>120.5</ele><time>2026-04-25T16:55:00.005Z</time></trkpt><trkpt lat="44.84708" lon="8.1927283"><ele>121.25</ele><time>2026-04-25T16:55:01.001Z</time></trkpt><trkpt lat="44.8472083" lon="8.1928383"><ele>122.0</ele><time>2026-04-25T16:55:01.995Z</time></trkpt><trkpt lat="44.8473333" lon="8.19295"><ele>122.0</ele><time>2026-04-25T16:55:02.993Z</time></trkpt><trkpt lat="44.847465" lon="8.19306"><ele>122.0</ele><time>2026-04-25T16:55:03.994Z</time></trkpt><trkpt lat="44.8475983" lon="8.19317"><ele>122.0</ele><time>2026-04-25T16:55:04.994Z</time></trkpt><trkpt lat="44.8477317" lon="8.1932817"><ele>121.66666666666666</ele><time>2026-04-25T16:55:06Z</time></trkpt><trkpt lat="44.8478633" lon="8.1933917"><ele>121.33333333333334</ele><time>2026-04-25T16:55:06.997Z</time></trkpt><trkpt lat="44.8479933" lon="8.1935017"><ele>121.0</ele><time>2026-04-25T16:55:07.996Z</time></trkpt><trkpt lat="44.848125" lon="8.1936167"><ele>121.0</ele><time>2026-04-25T16:55:08.993Z</time></trkpt><trkpt lat="44.8482583" lon="8.1937367"><ele>121.0</ele><time>2026-04-25T16:55:09.998Z</time></trkpt><trkpt lat="44.8483917" lon="8.1938533"><ele>121.0</ele><time>2026-04-25T16:55:10.995Z</time></trkpt><trkpt lat="44.84853" lon="8.1939717"><ele>121.0</ele><time>2026-04-25T16:55:11.995Z</time></trkpt><trkpt lat="44.8486683" lon="8.1940933"><ele>121.0</ele><time>2026-04-25T16:55:12.995Z</time></trkpt><trkpt lat="44.8488083" lon="8.1942133"><ele>121.0</ele><time>2026-04-25T16:55:13.995Z</time></trkpt><trkpt lat="44.8489517" lon="8.194335"><ele>121.0</ele><time>2026-04-25T16:55:14.998Z</time></trkpt><trkpt lat="44.8490933" lon="8.1944583"><ele>121.0</ele><time>2026-04-25T16:55:15.996Z</time></trkpt><trkpt lat="44.849235" lon="8.1945817"><ele>121.0</ele><time>2026-04-25T16:55:16.995Z</time></trkpt><trkpt lat="44.8493767" lon="8.1947017"><ele>120.66666666666667</ele><time>2026-04-25T16:55:17.998Z</time></trkpt><trkpt lat="44.8495217" lon="8.194825"><ele>120.33333333333334</ele><time>2026-04-25T16:55:18.995Z</time></trkpt><trkpt lat="44.849665" lon="8.1949467"><ele>120.0</ele><time>2026-04-25T16:55:19.996Z</time></trkpt><trkpt lat="44.84981" lon="8.1950683"><ele>120.0</ele><time>2026-04-25T16:55:20.997Z</time></trkpt><trkpt lat="44.8499533" lon="8.19519"><ele>120.0</ele><time>2026-04-25T16:55:21.999Z</time></trkpt><trkpt lat="44.8500933" lon="8.1953117"><ele>120.0</ele><time>2026-04-25T16:55:22.998Z</time></trkpt><trkpt lat="44.850235" lon="8.1954317"><ele>119.66666666666666</ele><time>2026-04-25T16:55:23.997Z</time></trkpt><trkpt lat="44.8503683" lon="8.1955583"><ele>119.33333333333333</ele><time>2026-04-25T16:55:24.999Z</time></trkpt><trkpt lat="44.850505" lon="8.195685"><ele>119.0</ele><time>2026-04-25T16:55:25.994Z</time></trkpt><trkpt lat="44.85065" lon="8.195795"><ele>119.0</ele><time>2026-04-25T16:55:27.001Z</time></trkpt><trkpt lat="44.850795" lon="8.1959083"><ele>119.0</ele><time>2026-04-25T16:55:27.995Z</time></trkpt><trkpt lat="44.85093" lon="8.1960317"><ele>119.0</ele><time>2026-04-25T16:55:28.998Z</time></trkpt><trkpt lat="44.851065" lon="8.1961533"><ele>119.0</ele><time>2026-04-25T16:55:29.995Z</time></trkpt><trkpt lat="44.8512017" lon="8.1962733"><ele>119.0</ele><time>2026-04-25T16:55:30.995Z</time></trkpt><trkpt lat="44.8513417" lon="8.19639"><ele>119.0</ele><time>2026-04-25T16:55:31.994Z</time></trkpt><trkpt lat="44.8514817" lon="8.19651"><ele>119.33333333333333</ele><time>2026-04-25T16:55:32.994Z</time></trkpt><trkpt lat="44.85162" lon="8.1966267"><ele>119.66666666666666</ele><time>2026-04-25T16:55:33.996Z</time></trkpt><trkpt lat="44.85176" lon="8.1967433"><ele>120.0</ele><time>2026-04-25T16:55:34.995Z</time></trkpt><trkpt lat="44.8518983" lon="8.19686"><ele>120.0</ele><time>2026-04-25T16:55:35.997Z</time></trkpt><trkpt lat="44.852035" lon="8.1969767"><ele>120.0</ele><time>2026-04-25T16:55:37.001Z</time></trkpt><trkpt lat="44.8521717" lon="8.197095"><ele>120.0</ele><time>2026-04-25T16:55:37.994Z</time></trkpt><trkpt lat="44.8523067" lon="8.19721"><ele>120.0</ele><time>2026-04-25T16:55:38.999Z</time></trkpt><trkpt lat="44.852445" lon="8.197325"><ele>120.0</ele><time>2026-04-25T16:55:39.994Z</time></trkpt><trkpt lat="44.8525883" lon="8.1974367"><ele>120.0</ele><time>2026-04-25T16:55:40.995Z</time></trkpt><trkpt lat="44.8527283" lon="8.197555"><ele>119.33333333333334</ele><time>2026-04-25T16:55:41.995Z</time></trkpt><trkpt lat="44.8528667" lon="8.1976783"><ele>118.66666666666667</ele><time>2026-04-25T16:55:42.996Z</time></trkpt><trkpt lat="44.8530117" lon="8.1978"><ele>118.0</ele><time>2026-04-25T16:55:44.001Z</time></trkpt><trkpt lat="44.8531583" lon="8.1979233"><ele>118.0</ele><time>2026-04-25T16:55:44.999Z</time></trkpt><trkpt lat="44.853305" lon="8.19805"><ele>118.0</ele><time>2026-04-25T16:55:45.997Z</time></trkpt><trkpt lat="44.8534533" lon="8.1981783"><ele>118.0</ele><time>2026-04-25T16:55:46.995Z</time></trkpt><trkpt lat="44.8536017" lon="8.1983067"><ele>117.66666666666667</ele><time>2026-04-25T16:55:47.998Z</time></trkpt><trkpt lat="44.8537517" lon="8.1984367"><ele>117.33333333333334</ele><time>2026-04-25T16:55:48.999Z</time></trkpt><trkpt lat="44.8539067" lon="8.1985667"><ele>117.0</ele><time>2026-04-25T16:55:49.998Z</time></trkpt><trkpt lat="44.8540617" lon="8.1986967"><ele>117.0</ele><time>2026-04-25T16:55:50.999Z</time></trkpt><trkpt lat="44.8542133" lon="8.1988283"><ele>117.0</ele><time>2026-04-25T16:55:51.993Z</time></trkpt><trkpt lat="44.8543667" lon="8.19896"><ele>117.0</ele><time>2026-04-25T16:55:52.998Z</time></trkpt><trkpt lat="44.85452" lon="8.19909"><ele>117.33333333333334</ele><time>2026-04-25T16:55:53.997Z</time></trkpt><trkpt lat="44.8546717" lon="8.19922"><ele>117.66666666666667</ele><time>2026-04-25T16:55:55.005Z</time></trkpt><trkpt lat="44.8548183" lon="8.1993433"><ele>118.0</ele><time>2026-04-25T16:55:55.994Z</time></trkpt><trkpt lat="44.8549617" lon="8.199465"><ele>118.0</ele><time>2026-04-25T16:55:56.998Z</time></trkpt><trkpt lat="44.8551017" lon="8.1995867"><ele>118.0</ele><time>2026-04-25T16:55:57.994Z</time></trkpt><trkpt lat="44.8552417" lon="8.1997033"><ele>118.0</ele><time>2026-04-25T16:55:58.994Z</time></trkpt><trkpt lat="44.8553767" lon="8.1998217"><ele>118.0</ele><time>2026-04-25T16:56:00Z</time></trkpt><trkpt lat="44.85551" lon="8.1999417"><ele>118.0</ele><time>2026-04-25T16:56:00.993Z</time></trkpt><trkpt lat="44.8556433" lon="8.2000567"><ele>118.0</ele><time>2026-04-25T16:56:01.999Z</time></trkpt><trkpt lat="44.8557733" lon="8.2001683"><ele>118.0</ele><time>2026-04-25T16:56:02.994Z</time></trkpt><trkpt lat="44.8559083" lon="8.20028"><ele>118.0</ele><time>2026-04-25T16:56:03.996Z</time></trkpt><trkpt lat="44.8560383" lon="8.2003883"><ele>118.0</ele><time>2026-04-25T16:56:04.997Z</time></trkpt><trkpt lat="44.8561717" lon="8.2004967"><ele>117.66666666666667</ele><time>2026-04-25T16:56:06Z</time></trkpt><trkpt lat="44.8562983" lon="8.200605"><ele>117.33333333333334</ele><time>2026-04-25T16:56:06.996Z</time></trkpt><trkpt lat="44.8564267" lon="8.2007183"><ele>117.0</ele><time>2026-04-25T16:56:07.993Z</time></trkpt><trkpt lat="44.856555" lon="8.2008333"><ele>117.0</ele><time>2026-04-25T16:56:08.996Z</time></trkpt><trkpt lat="44.8566883" lon="8.2009433"><ele>117.0</ele><time>2026-04-25T16:56:09.999Z</time></trkpt><trkpt lat="44.8568217" lon="8.20106"><ele>117.0</ele><time>2026-04-25T16:56:10.999Z</time></trkpt><trkpt lat="44.85695" lon="8.2011783"><ele>117.33333333333334</ele><time>2026-04-25T16:56:11.996Z</time></trkpt><trkpt lat="44.8570783" lon="8.201295"><ele>117.66666666666667</ele><time>2026-04-25T16:56:12.995Z</time></trkpt><trkpt lat="44.8572083" lon="8.2014117"><ele>118.0</ele><time>2026-04-25T16:56:13.999Z</time></trkpt><trkpt lat="44.85734" lon="8.201525"><ele>118.33333333333334</ele><time>2026-04-25T16:56:14.999Z</time></trkpt><trkpt lat="44.85747" lon="8.20164"><ele>118.66666666666666</ele><time>2026-04-25T16:56:16.002Z</time></trkpt><trkpt lat="44.8576033" lon="8.2017533"><ele>119.0</ele><time>2026-04-25T16:56:17.002Z</time></trkpt><trkpt lat="44.857735" lon="8.2018683"><ele>118.33333333333333</ele><time>2026-04-25T16:56:18Z</time></trkpt><trkpt lat="44.8578683" lon="8.2019817"><ele>117.66666666666666</ele><time>2026-04-25T16:56:18.994Z</time></trkpt><trkpt lat="44.8580017" lon="8.202095"><ele>117.0</ele><time>2026-04-25T16:56:19.996Z</time></trkpt><trkpt lat="44.8581333" lon="8.2022133"><ele>117.0</ele><time>2026-04-25T16:56:20.998Z</time></trkpt><trkpt lat="44.858265" lon="8.2023267"><ele>117.0</ele><time>2026-04-25T16:56:21.998Z</time></trkpt><trkpt lat="44.8583983" lon="8.2024383"><ele>117.0</ele><time>2026-04-25T16:56:22.994Z</time></trkpt><trkpt lat="44.85853" lon="8.20255"><ele>117.33333333333334</ele><time>2026-04-25T16:56:24Z</time></trkpt><trkpt lat="44.8586617" lon="8.2026683"><ele>117.66666666666667</ele><time>2026-04-25T16:56:24.994Z</time></trkpt><trkpt lat="44.8587933" lon="8.2027833"><ele>118.0</ele><time>2026-04-25T16:56:25.999Z</time></trkpt><trkpt lat="44.858925" lon="8.2028883"><ele>118.0</ele><time>2026-04-25T16:56:26.997Z</time></trkpt><trkpt lat="44.859055" lon="8.20299"><ele>118.0</ele><time>2026-04-25T16:56:27.996Z</time></trkpt><trkpt lat="44.8591867" lon="8.2031017"><ele>118.0</ele><time>2026-04-25T16:56:28.994Z</time></trkpt><trkpt lat="44.8593167" lon="8.20321"><ele>118.0</ele><time>2026-04-25T16:56:29.999Z</time></trkpt><trkpt lat="44.8594483" lon="8.2033133"><ele>118.0</ele><time>2026-04-25T16:56:31Z</time></trkpt><trkpt lat="44.8595783" lon="8.2034183"><ele>118.0</ele><time>2026-04-25T16:56:31.998Z</time></trkpt><trkpt lat="44.859705" lon="8.203525"><ele>118.0</ele><time>2026-04-25T16:56:32.991Z</time></trkpt><trkpt lat="44.8598283" lon="8.2036283"><ele>118.0</ele><time>2026-04-25T16:56:33.998Z</time></trkpt><trkpt lat="44.85994" lon="8.203745"><ele>118.0</ele><time>2026-04-25T16:56:34.992Z</time></trkpt><trkpt lat="44.8600583" lon="8.203855"><ele>118.0</ele><time>2026-04-25T16:56:35.999Z</time></trkpt><trkpt lat="44.8601767" lon="8.2039583"><ele>118.0</ele><time>2026-04-25T16:56:36.993Z</time></trkpt><trkpt lat="44.8603" lon="8.20406"><ele>118.5</ele><time>2026-04-25T16:56:37.996Z</time></trkpt><trkpt lat="44.8604217" lon="8.2041617"><ele>119.0</ele><time>2026-04-25T16:56:38.995Z</time></trkpt><trkpt lat="44.8605417" lon="8.2042617"><ele>119.5</ele><time>2026-04-25T16:56:39.995Z</time></trkpt><trkpt lat="44.8606617" lon="8.2043633"><ele>120.0</ele><time>2026-04-25T16:56:40.996Z</time></trkpt><trkpt lat="44.86078" lon="8.2044683"><ele>120.0</ele><time>2026-04-25T16:56:41.994Z</time></trkpt><trkpt lat="44.8608983" lon="8.2045717"><ele>120.0</ele><time>2026-04-25T16:56:42.993Z</time></trkpt><trkpt lat="44.8610167" lon="8.2046733"><ele>120.0</ele><time>2026-04-25T16:56:43.996Z</time></trkpt><trkpt lat="44.861135" lon="8.204775"><ele>120.0</ele><time>2026-04-25T16:56:45.002Z</time></trkpt><trkpt lat="44.8612517" lon="8.204875"><ele>119.75</ele><time>2026-04-25T16:56:45.997Z</time></trkpt><trkpt lat="44.86137" lon="8.20498"><ele>119.5</ele><time>2026-04-25T16:56:46.998Z</time></trkpt><trkpt lat="44.86149" lon="8.2050833"><ele>119.25</ele><time>2026-04-25T16:56:47.997Z</time></trkpt><trkpt lat="44.8616133" lon="8.2051833"><ele>119.0</ele><time>2026-04-25T16:56:48.996Z</time></trkpt><trkpt lat="44.8617367" lon="8.2052867"><ele>119.0</ele><time>2026-04-25T16:56:49.995Z</time></trkpt><trkpt lat="44.86186" lon="8.2053917"><ele>119.0</ele><time>2026-04-25T16:56:51Z</time></trkpt><trkpt lat="44.8619833" lon="8.205495"><ele>119.0</ele><time>2026-04-25T16:56:51.998Z</time></trkpt><trkpt lat="44.8621017" lon="8.2056"><ele>119.0</ele><time>2026-04-25T16:56:52.995Z</time></trkpt><trkpt lat="44.86222" lon="8.2057067"><ele>119.25</ele><time>2026-04-25T16:56:53.998Z</time></trkpt><trkpt lat="44.862345" lon="8.2058083"><ele>119.5</ele><time>2026-04-25T16:56:54.998Z</time></trkpt><trkpt lat="44.8624717" lon="8.2059117"><ele>119.75</ele><time>2026-04-25T16:56:55.998Z</time></trkpt><trkpt lat="44.8626" lon="8.206015"><ele>120.0</ele><time>2026-04-25T16:56:56.999Z</time></trkpt><trkpt lat="44.8627217" lon="8.20612"><ele>120.0</ele><time>2026-04-25T16:56:58.001Z</time></trkpt><trkpt lat="44.8628467" lon="8.2062167"><ele>120.0</ele><time>2026-04-25T16:56:58.995Z</time></trkpt><trkpt lat="44.8629683" lon="8.2063183"><ele>120.0</ele><time>2026-04-25T16:56:59.995Z</time></trkpt><trkpt lat="44.8630883" lon="8.2064167"><ele>120.0</ele><time>2026-04-25T16:57:00.998Z</time></trkpt><trkpt lat="44.8632083" lon="8.2065167"><ele>120.0</ele><time>2026-04-25T16:57:01.996Z</time></trkpt><trkpt lat="44.8633267" lon="8.2066183"><ele>120.0</ele><time>2026-04-25T16:57:02.995Z</time></trkpt><trkpt lat="44.863445" lon="8.2067183"><ele>120.0</ele><time>2026-04-25T16:57:03.997Z</time></trkpt><trkpt lat="44.8635617" lon="8.2068183"><ele>120.0</ele><time>2026-04-25T16:57:04.995Z</time></trkpt><trkpt lat="44.86368" lon="8.20692"><ele>120.0</ele><time>2026-04-25T16:57:05.996Z</time></trkpt><trkpt lat="44.8637917" lon="8.207025"><ele>120.0</ele><time>2026-04-25T16:57:06.999Z</time></trkpt><trkpt lat="44.8639033" lon="8.2071317"><ele>120.0</ele><time>2026-04-25T16:57:07.997Z</time></trkpt><trkpt lat="44.8640183" lon="8.2072317"><ele>120.0</ele><time>2026-04-25T16:57:08.998Z</time></trkpt><trkpt lat="44.864135" lon="8.2073283"><ele>120.0</ele><time>2026-04-25T16:57:09.999Z</time></trkpt><trkpt lat="44.86425" lon="8.2074233"><ele>120.0</ele><time>2026-04-25T16:57:10.998Z</time></trkpt><trkpt lat="44.8643467" lon="8.207545"><ele>120.0</ele><time>2026-04-25T16:57:12Z</time></trkpt><trkpt lat="44.8644583" lon="8.2076467"><ele>120.0</ele><time>2026-04-25T16:57:12.996Z</time></trkpt><trkpt lat="44.86457" lon="8.20775"><ele>119.25</ele><time>2026-04-25T16:57:13.996Z</time></trkpt><trkpt lat="44.8646833" lon="8.2078533"><ele>118.5</ele><time>2026-04-25T16:57:14.996Z</time></trkpt><trkpt lat="44.8648" lon="8.2079517"><ele>117.75</ele><time>2026-04-25T16:57:15.995Z</time></trkpt><trkpt lat="44.864915" lon="8.20805"><ele>117.0</ele><time>2026-04-25T16:57:16.997Z</time></trkpt><trkpt lat="44.865015" lon="8.20815"><ele>117.5</ele><time>2026-04-25T16:57:17.999Z</time></trkpt><trkpt lat="44.8651283" lon="8.2082417"><ele>118.0</ele><time>2026-04-25T16:57:18.995Z</time></trkpt><trkpt lat="44.86524" lon="8.2083317"><ele>118.5</ele><time>2026-04-25T16:57:19.997Z</time></trkpt><trkpt lat="44.8653467" lon="8.2084233"><ele>119.0</ele><time>2026-04-25T16:57:20.995Z</time></trkpt><trkpt lat="44.8654567" lon="8.2085133"><ele>119.0</ele><time>2026-04-25T16:57:21.994Z</time></trkpt><trkpt lat="44.8655567" lon="8.20861"><ele>119.0</ele><time>2026-04-25T16:57:22.993Z</time></trkpt><trkpt lat="44.865655" lon="8.208695"><ele>119.0</ele><time>2026-04-25T16:57:23.995Z</time></trkpt><trkpt lat="44.8657533" lon="8.20877"><ele>119.0</ele><time>2026-04-25T16:57:24.996Z</time></trkpt><trkpt lat="44.8658517" lon="8.2088333"><ele>119.0</ele><time>2026-04-25T16:57:25.994Z</time></trkpt><trkpt lat="44.8659533" lon="8.2088867"><ele>119.0</ele><time>2026-04-25T16:57:26.995Z</time></trkpt><trkpt lat="44.8660583" lon="8.20894"><ele>119.0</ele><time>2026-04-25T16:57:27.996Z</time></trkpt><trkpt lat="44.8661683" lon="8.2089883"><ele>119.0</ele><time>2026-04-25T16:57:28.998Z</time></trkpt><trkpt lat="44.8662767" lon="8.209035"><ele>119.0</ele><time>2026-04-25T16:57:29.996Z</time></trkpt><trkpt lat="44.86639" lon="8.2090733"><ele>119.0</ele><time>2026-04-25T16:57:30.995Z</time></trkpt><trkpt lat="44.866505" lon="8.2091033"><ele>119.0</ele><time>2026-04-25T16:57:31.994Z</time></trkpt><trkpt lat="44.86662" lon="8.2091317"><ele>119.0</ele><time>2026-04-25T16:57:32.999Z</time></trkpt><trkpt lat="44.8667383" lon="8.2091483"><ele>119.0</ele><time>2026-04-25T16:57:33.999Z</time></trkpt><trkpt lat="44.866855" lon="8.209175"><ele>118.75</ele><time>2026-04-25T16:57:34.998Z</time></trkpt><trkpt lat="44.8669833" lon="8.2091817"><ele>118.5</ele><time>2026-04-25T16:57:35.998Z</time></trkpt><trkpt lat="44.8671233" lon="8.2091667"><ele>118.25</ele><time>2026-04-25T16:57:36.997Z</time></trkpt><trkpt lat="44.8672633" lon="8.20915"><ele>118.0</ele><time>2026-04-25T16:57:37.998Z</time></trkpt><trkpt lat="44.8673983" lon="8.2091417"><ele>118.0</ele><time>2026-04-25T16:57:38.995Z</time></trkpt><trkpt lat="44.8675317" lon="8.2091267"><ele>118.0</ele><time>2026-04-25T16:57:39.999Z</time></trkpt><trkpt lat="44.8676683" lon="8.2091183"><ele>118.0</ele><time>2026-04-25T16:57:40.995Z</time></trkpt><trkpt lat="44.8678017" lon="8.2091117"><ele>118.0</ele><time>2026-04-25T16:57:41.999Z</time></trkpt><trkpt lat="44.8679333" lon="8.209105"><ele>117.5</ele><time>2026-04-25T16:57:42.995Z</time></trkpt><trkpt lat="44.8680617" lon="8.209095"><ele>117.0</ele><time>2026-04-25T16:57:43.996Z</time></trkpt><trkpt lat="44.86819" lon="8.2090883"><ele>116.5</ele><time>2026-04-25T16:57:44.995Z</time></trkpt><trkpt lat="44.8683183" lon="8.209085"><ele>116.0</ele><time>2026-04-25T16:57:45.993Z</time></trkpt><trkpt lat="44.8684483" lon="8.2090783"><ele>116.0</ele><time>2026-04-25T16:57:47.001Z</time></trkpt><trkpt lat="44.86858" lon="8.209085"><ele>116.0</ele><time>2026-04-25T16:57:47.993Z</time></trkpt><trkpt lat="44.8687117" lon="8.2090917"><ele>116.0</ele><time>2026-04-25T16:57:48.992Z</time></trkpt><trkpt lat="44.8688417" lon="8.2090933"><ele>116.0</ele><time>2026-04-25T16:57:49.998Z</time></trkpt><trkpt lat="44.8689733" lon="8.2090967"><ele>116.0</ele><time>2026-04-25T16:57:50.998Z</time></trkpt><trkpt lat="44.8691067" lon="8.2090917"><ele>116.0</ele><time>2026-04-25T16:57:51.997Z</time></trkpt><trkpt lat="44.86924" lon="8.209085"><ele>116.0</ele><time>2026-04-25T16:57:52.998Z</time></trkpt><trkpt lat="44.8693733" lon="8.20908"><ele>116.0</ele><time>2026-04-25T16:57:53.998Z</time></trkpt><trkpt lat="44.8695083" lon="8.2090783"><ele>117.0</ele><time>2026-04-25T16:57:54.993Z</time></trkpt><trkpt lat="44.8696467" lon="8.2090717"><ele>118.0</ele><time>2026-04-25T16:57:55.998Z</time></trkpt><trkpt lat="44.8697867" lon="8.209065"><ele>119.0</ele><time>2026-04-25T16:57:56.996Z</time></trkpt><trkpt lat="44.8699317" lon="8.2090583"><ele>120.0</ele><time>2026-04-25T16:57:57.993Z</time></trkpt><trkpt lat="44.870075" lon="8.2090533"><ele>120.75</ele><time>2026-04-25T16:57:58.997Z</time></trkpt><trkpt lat="44.8702217" lon="8.2090483"><ele>121.5</ele><time>2026-04-25T16:57:59.996Z</time></trkpt><trkpt lat="44.8703667" lon="8.2090383"><ele>122.25</ele><time>2026-04-25T16:58:00.998Z</time></trkpt><trkpt lat="44.87051" lon="8.20903"><ele>123.0</ele><time>2026-04-25T16:58:01.995Z</time></trkpt><trkpt lat="44.8706517" lon="8.2090233"><ele>123.0</ele><time>2026-04-25T16:58:02.996Z</time></trkpt><trkpt lat="44.870795" lon="8.2090267"><ele>123.0</ele><time>2026-04-25T16:58:03.992Z</time></trkpt><trkpt lat="44.8709317" lon="8.2090233"><ele>123.0</ele><time>2026-04-25T16:58:04.995Z</time></trkpt><trkpt lat="44.8710667" lon="8.2090183"><ele>123.0</ele><time>2026-04-25T16:58:05.998Z</time></trkpt><trkpt lat="44.8711983" lon="8.209015"><ele>124.25</ele><time>2026-04-25T16:58:06.993Z</time></trkpt><trkpt lat="44.8713217" lon="8.20901"><ele>125.5</ele><time>2026-04-25T16:58:07.996Z</time></trkpt><trkpt lat="44.871435" lon="8.2090117"><ele>126.75</ele><time>2026-04-25T16:58:09.001Z</time></trkpt><trkpt lat="44.8715433" lon="8.2090267"><ele>128.0</ele><time>2026-04-25T16:58:09.994Z</time></trkpt><trkpt lat="44.8716467" lon="8.2090417"><ele>128.0</ele><time>2026-04-25T16:58:10.995Z</time></trkpt><trkpt lat="44.8717433" lon="8.2090617"><ele>128.0</ele><time>2026-04-25T16:58:12.001Z</time></trkpt><trkpt lat="44.8718417" lon="8.2090933"><ele>128.0</ele><time>2026-04-25T16:58:12.996Z</time></trkpt><trkpt lat="44.8719417" lon="8.2091467"><ele>128.0</ele><time>2026-04-25T16:58:13.995Z</time></trkpt><trkpt lat="44.8720417" lon="8.2092117"><ele>128.0</ele><time>2026-04-25T16:58:14.999Z</time></trkpt><trkpt lat="44.8721383" lon="8.2092883"><ele>126.75</ele><time>2026-04-25T16:58:15.997Z</time></trkpt><trkpt lat="44.8722267" lon="8.2093783"><ele>125.5</ele><time>2026-04-25T16:58:16.993Z</time></trkpt><trkpt lat="44.8723167" lon="8.209485"><ele>124.25</ele><time>2026-04-25T16:58:17.998Z</time></trkpt><trkpt lat="44.872405" lon="8.2096083"><ele>123.0</ele><time>2026-04-25T16:58:18.999Z</time></trkpt><trkpt lat="44.872475" lon="8.2097467"><ele>122.0</ele><time>2026-04-25T16:58:19.995Z</time></trkpt><trkpt lat="44.8725317" lon="8.2098983"><ele>121.0</ele><time>2026-04-25T16:58:21.001Z</time></trkpt><trkpt lat="44.872575" lon="8.210065"><ele>120.0</ele><time>2026-04-25T16:58:21.995Z</time></trkpt><trkpt lat="44.87262" lon="8.2102283"><ele>119.0</ele><time>2026-04-25T16:58:22.997Z</time></trkpt><trkpt lat="44.87266" lon="8.2103967"><ele>119.0</ele><time>2026-04-25T16:58:23.998Z</time></trkpt><trkpt lat="44.87269" lon="8.2105817"><ele>119.0</ele><time>2026-04-25T16:58:24.995Z</time></trkpt><trkpt lat="44.872725" lon="8.21076"><ele>119.0</ele><time>2026-04-25T16:58:25.994Z</time></trkpt><trkpt lat="44.8727617" lon="8.2109417"><ele>119.0</ele><time>2026-04-25T16:58:26.998Z</time></trkpt><trkpt lat="44.8728" lon="8.21112"><ele>118.75</ele><time>2026-04-25T16:58:27.995Z</time></trkpt><trkpt lat="44.872835" lon="8.2112917"><ele>118.5</ele><time>2026-04-25T16:58:28.997Z</time></trkpt><trkpt lat="44.8728717" lon="8.2114617"><ele>118.25</ele><time>2026-04-25T16:58:29.993Z</time></trkpt><trkpt lat="44.8729083" lon="8.2116233"><ele>118.0</ele><time>2026-04-25T16:58:30.996Z</time></trkpt><trkpt lat="44.872945" lon="8.2117783"><ele>117.75</ele><time>2026-04-25T16:58:31.992Z</time></trkpt><trkpt lat="44.8729833" lon="8.2119333"><ele>117.5</ele><time>2026-04-25T16:58:32.995Z</time></trkpt><trkpt lat="44.8730233" lon="8.2120883"><ele>117.25</ele><time>2026-04-25T16:58:33.998Z</time></trkpt><trkpt lat="44.8730617" lon="8.2122433"><ele>117.0</ele><time>2026-04-25T16:58:34.996Z</time></trkpt><trkpt lat="44.8731033" lon="8.2124067"><ele>117.75</ele><time>2026-04-25T16:58:35.996Z</time></trkpt><trkpt lat="44.8731583" lon="8.2125633"><ele>118.5</ele><time>2026-04-25T16:58:36.996Z</time></trkpt><trkpt lat="44.8732117" lon="8.2127217"><ele>119.25</ele><time>2026-04-25T16:58:37.993Z</time></trkpt><trkpt lat="44.8732717" lon="8.2128767"><ele>120.0</ele><time>2026-04-25T16:58:38.996Z</time></trkpt><trkpt lat="44.873335" lon="8.21303"><ele>119.0</ele><time>2026-04-25T16:58:39.995Z</time></trkpt><trkpt lat="44.873395" lon="8.2131817"><ele>118.0</ele><time>2026-04-25T16:58:40.994Z</time></trkpt><trkpt lat="44.8734517" lon="8.2133333"><ele>117.0</ele><time>2026-04-25T16:58:41.997Z</time></trkpt><trkpt lat="44.873515" lon="8.2134767"><ele>116.0</ele><time>2026-04-25T16:58:42.998Z</time></trkpt><trkpt lat="44.8735867" lon="8.2136167"><ele>116.0</ele><time>2026-04-25T16:58:44.003Z</time></trkpt><trkpt lat="44.8736667" lon="8.2137467"><ele>116.0</ele><time>2026-04-25T16:58:44.996Z</time></trkpt><trkpt lat="44.873745" lon="8.2138817"><ele>116.0</ele><time>2026-04-25T16:58:45.996Z</time></trkpt><trkpt lat="44.873825" lon="8.2140183"><ele>116.0</ele><time>2026-04-25T16:58:46.995Z</time></trkpt><trkpt lat="44.873905" lon="8.214155"><ele>116.75</ele><time>2026-04-25T16:58:47.998Z</time></trkpt><trkpt lat="44.8739883" lon="8.2142933"><ele>117.5</ele><time>2026-04-25T16:58:48.999Z</time></trkpt><trkpt lat="44.87407" lon="8.2144283"><ele>118.25</ele><time>2026-04-25T16:58:49.996Z</time></trkpt><trkpt lat="44.874155" lon="8.2145633"><ele>119.0</ele><time>2026-04-25T16:58:51.002Z</time></trkpt><trkpt lat="44.8742383" lon="8.2146967"><ele>118.75</ele><time>2026-04-25T16:58:51.995Z</time></trkpt><trkpt lat="44.8743217" lon="8.2148217"><ele>118.5</ele><time>2026-04-25T16:58:52.997Z</time></trkpt><trkpt lat="44.8744017" lon="8.2149433"><ele>118.25</ele><time>2026-04-25T16:58:53.995Z</time></trkpt><trkpt lat="44.8744783" lon="8.21506"><ele>118.0</ele><time>2026-04-25T16:58:54.996Z</time></trkpt><trkpt lat="44.8745517" lon="8.2151733"><ele>118.0</ele><time>2026-04-25T16:58:55.994Z</time></trkpt><trkpt lat="44.8746233" lon="8.215285"><ele>118.00000000000001</ele><time>2026-04-25T16:58:56.999Z</time></trkpt><trkpt lat="44.8746917" lon="8.2153967"><ele>118.00000000000001</ele><time>2026-04-25T16:58:57.996Z</time></trkpt><trkpt lat="44.874765" lon="8.2155083"><ele>118.0</ele><time>2026-04-25T16:58:58.997Z</time></trkpt><trkpt lat="44.8748333" lon="8.21562"><ele>118.0</ele><time>2026-04-25T16:58:59.993Z</time></trkpt><trkpt lat="44.8748967" lon="8.2157233"><ele>118.00000000000001</ele><time>2026-04-25T16:59:00.999Z</time></trkpt><trkpt lat="44.874955" lon="8.2158217"><ele>118.0</ele><time>2026-04-25T16:59:01.995Z</time></trkpt><trkpt lat="44.87501" lon="8.2159117"><ele>118.0</ele><time>2026-04-25T16:59:02.996Z</time></trkpt><trkpt lat="44.87506" lon="8.216"><ele>118.0</ele><time>2026-04-25T16:59:03.997Z</time></trkpt><trkpt lat="44.87511" lon="8.2160833"><ele>118.00000000000001</ele><time>2026-04-25T16:59:05Z</time></trkpt><trkpt lat="44.8751483" lon="8.2161633"><ele>118.0</ele><time>2026-04-25T16:59:05.995Z</time></trkpt><trkpt lat="44.8751917" lon="8.2163167"><ele>118.0</ele><time>2026-04-25T16:59:08.002Z</time></trkpt><trkpt lat="44.875205" lon="8.2164133"><ele>118.00000000000001</ele><time>2026-04-25T16:59:08.995Z</time></trkpt><trkpt lat="44.8752117" lon="8.2165283"><ele>118.00000000000001</ele><time>2026-04-25T16:59:09.994Z</time></trkpt><trkpt lat="44.875215" lon="8.216655"><ele>118.0</ele><time>2026-04-25T16:59:10.997Z</time></trkpt><trkpt lat="44.8752117" lon="8.216835"><ele>118.0</ele><time>2026-04-25T16:59:11.997Z</time></trkpt><trkpt lat="44.8752033" lon="8.21702"><ele>118.0</ele><time>2026-04-25T16:59:12.997Z</time></trkpt><trkpt lat="44.8751883" lon="8.217215"><ele>118.0</ele><time>2026-04-25T16:59:13.993Z</time></trkpt><trkpt lat="44.8751733" lon="8.21743"><ele>118.0</ele><time>2026-04-25T16:59:14.999Z</time></trkpt><trkpt lat="44.87517" lon="8.217655"><ele>117.66666666666667</ele><time>2026-04-25T16:59:15.994Z</time></trkpt><trkpt lat="44.8751733" lon="8.217885"><ele>117.33333333333334</ele><time>2026-04-25T16:59:16.993Z</time></trkpt><trkpt lat="44.875185" lon="8.2181233"><ele>117.0</ele><time>2026-04-25T16:59:17.993Z</time></trkpt><trkpt lat="44.8752117" lon="8.218375"><ele>117.66666666666666</ele><time>2026-04-25T16:59:18.993Z</time></trkpt><trkpt lat="44.87524" lon="8.2186333"><ele>118.33333333333333</ele><time>2026-04-25T16:59:19.993Z</time></trkpt><trkpt lat="44.8752683" lon="8.218895"><ele>119.0</ele><time>2026-04-25T16:59:20.995Z</time></trkpt><trkpt lat="44.8752967" lon="8.21916"><ele>119.0</ele><time>2026-04-25T16:59:21.997Z</time></trkpt><trkpt lat="44.8753267" lon="8.2194267"><ele>119.0</ele><time>2026-04-25T16:59:22.993Z</time></trkpt><trkpt lat="44.875355" lon="8.2196967"><ele>119.0</ele><time>2026-04-25T16:59:24.001Z</time></trkpt><trkpt lat="44.875385" lon="8.219965"><ele>118.66666666666666</ele><time>2026-04-25T16:59:24.995Z</time></trkpt><trkpt lat="44.875415" lon="8.2202333"><ele>118.33333333333334</ele><time>2026-04-25T16:59:25.997Z</time></trkpt><trkpt lat="44.87544" lon="8.2204917"><ele>118.0</ele><time>2026-04-25T16:59:26.995Z</time></trkpt><trkpt lat="44.8754683" lon="8.2207333"><ele>119.0</ele><time>2026-04-25T16:59:27.995Z</time></trkpt><trkpt lat="44.8754967" lon="8.2209667"><ele>120.0</ele><time>2026-04-25T16:59:28.996Z</time></trkpt><trkpt lat="44.875525" lon="8.2211867"><ele>121.0</ele><time>2026-04-25T16:59:29.998Z</time></trkpt><trkpt lat="44.8755583" lon="8.221405"><ele>121.66666666666667</ele><time>2026-04-25T16:59:31.003Z</time></trkpt><trkpt lat="44.87559" lon="8.2216333"><ele>122.33333333333334</ele><time>2026-04-25T16:59:31.99Z</time></trkpt><trkpt lat="44.87562" lon="8.2218717"><ele>123.0</ele><time>2026-04-25T16:59:32.998Z</time></trkpt><trkpt lat="44.8756467" lon="8.22212"><ele>123.33333333333334</ele><time>2026-04-25T16:59:33.993Z</time></trkpt><trkpt lat="44.875675" lon="8.222365"><ele>123.66666666666667</ele><time>2026-04-25T16:59:34.993Z</time></trkpt><trkpt lat="44.8757033" lon="8.2226117"><ele>124.0</ele><time>2026-04-25T16:59:35.996Z</time></trkpt><trkpt lat="44.8757317" lon="8.2228533"><ele>124.0</ele><time>2026-04-25T16:59:37.001Z</time></trkpt><trkpt lat="44.8757633" lon="8.223095"><ele>124.0</ele><time>2026-04-25T16:59:37.995Z</time></trkpt><trkpt lat="44.8757867" lon="8.2233383"><ele>124.0</ele><time>2026-04-25T16:59:38.995Z</time></trkpt><trkpt lat="44.8758117" lon="8.22358"><ele>124.0</ele><time>2026-04-25T16:59:39.998Z</time></trkpt><trkpt lat="44.8758367" lon="8.223825"><ele>124.0</ele><time>2026-04-25T16:59:40.996Z</time></trkpt><trkpt lat="44.8758667" lon="8.22407"><ele>124.0</ele><time>2026-04-25T16:59:41.992Z</time></trkpt><trkpt lat="44.8758967" lon="8.2243133"><ele>123.66666666666667</ele><time>2026-04-25T16:59:42.997Z</time></trkpt><trkpt lat="44.8759267" lon="8.2245583"><ele>123.33333333333334</ele><time>2026-04-25T16:59:43.993Z</time></trkpt><trkpt lat="44.8759567" lon="8.224805"><ele>123.0</ele><time>2026-04-25T16:59:44.992Z</time></trkpt><trkpt lat="44.875985" lon="8.2250517"><ele>123.66666666666666</ele><time>2026-04-25T16:59:45.992Z</time></trkpt><trkpt lat="44.87601" lon="8.2253"><ele>124.33333333333333</ele><time>2026-04-25T16:59:46.994Z</time></trkpt><trkpt lat="44.8760417" lon="8.2255483"><ele>125.0</ele><time>2026-04-25T16:59:47.993Z</time></trkpt><trkpt lat="44.8760667" lon="8.2258017"><ele>125.0</ele><time>2026-04-25T16:59:48.994Z</time></trkpt><trkpt lat="44.8760933" lon="8.2260533"><ele>125.0</ele><time>2026-04-25T16:59:49.997Z</time></trkpt><trkpt lat="44.8761233" lon="8.2263067"><ele>125.0</ele><time>2026-04-25T16:59:51.001Z</time></trkpt><trkpt lat="44.8761583" lon="8.2265567"><ele>124.66666666666666</ele><time>2026-04-25T16:59:51.995Z</time></trkpt><trkpt lat="44.8761883" lon="8.2268067"><ele>124.33333333333334</ele><time>2026-04-25T16:59:52.997Z</time></trkpt><trkpt lat="44.8762183" lon="8.227055"><ele>124.0</ele><time>2026-04-25T16:59:53.996Z</time></trkpt><trkpt lat="44.8762483" lon="8.2272983"><ele>124.33333333333334</ele><time>2026-04-25T16:59:54.998Z</time></trkpt><trkpt lat="44.8762833" lon="8.2275367"><ele>124.66666666666666</ele><time>2026-04-25T16:59:55.998Z</time></trkpt><trkpt lat="44.8763267" lon="8.2277683"><ele>125.0</ele><time>2026-04-25T16:59:56.994Z</time></trkpt><trkpt lat="44.8763767" lon="8.2279967"><ele>125.66666666666666</ele><time>2026-04-25T16:59:57.996Z</time></trkpt><trkpt lat="44.8764317" lon="8.228225"><ele>126.33333333333334</ele><time>2026-04-25T16:59:58.997Z</time></trkpt><trkpt lat="44.87649" lon="8.2284517"><ele>127.0</ele><time>2026-04-25T16:59:59.993Z</time></trkpt><trkpt lat="44.876555" lon="8.22867"><ele>127.0</ele><time>2026-04-25T17:00:00.995Z</time></trkpt><trkpt lat="44.876625" lon="8.2288783"><ele>127.0</ele><time>2026-04-25T17:00:01.997Z</time></trkpt><trkpt lat="44.8766967" lon="8.22908"><ele>127.0</ele><time>2026-04-25T17:00:02.997Z</time></trkpt><trkpt lat="44.87677" lon="8.229275"><ele>126.25</ele><time>2026-04-25T17:00:03.994Z</time></trkpt><trkpt lat="44.8768367" lon="8.2294667"><ele>125.5</ele><time>2026-04-25T17:00:04.994Z</time></trkpt><trkpt lat="44.8769017" lon="8.22965"><ele>124.75</ele><time>2026-04-25T17:00:05.996Z</time></trkpt><trkpt lat="44.876965" lon="8.2298267"><ele>124.0</ele><time>2026-04-25T17:00:07Z</time></trkpt><trkpt lat="44.8770167" lon="8.23"><ele>124.0</ele><time>2026-04-25T17:00:08Z</time></trkpt><trkpt lat="44.87706" lon="8.230175"><ele>124.0</ele><time>2026-04-25T17:00:08.994Z</time></trkpt><trkpt lat="44.8770783" lon="8.2303417"><ele>124.0</ele><time>2026-04-25T17:00:09.992Z</time></trkpt><trkpt lat="44.877095" lon="8.230505"><ele>124.0</ele><time>2026-04-25T17:00:10.997Z</time></trkpt><trkpt lat="44.8770733" lon="8.2306667"><ele>124.4</ele><time>2026-04-25T17:00:11.997Z</time></trkpt><trkpt lat="44.8770433" lon="8.23082"><ele>124.80000000000001</ele><time>2026-04-25T17:00:12.995Z</time></trkpt><trkpt lat="44.8769983" lon="8.2309633"><ele>125.19999999999999</ele><time>2026-04-25T17:00:13.994Z</time></trkpt><trkpt lat="44.876945" lon="8.2310917"><ele>125.6</ele><time>2026-04-25T17:00:14.996Z</time></trkpt><trkpt lat="44.876895" lon="8.2312067"><ele>126.0</ele><time>2026-04-25T17:00:15.995Z</time></trkpt><trkpt lat="44.8768417" lon="8.2313133"><ele>126.0</ele><time>2026-04-25T17:00:16.995Z</time></trkpt><trkpt lat="44.8767933" lon="8.2314117"><ele>126.0</ele><time>2026-04-25T17:00:17.993Z</time></trkpt><trkpt lat="44.876745" lon="8.2315133"><ele>126.0</ele><time>2026-04-25T17:00:19.001Z</time></trkpt><trkpt lat="44.8767033" lon="8.23161"><ele>126.0</ele><time>2026-04-25T17:00:19.993Z</time></trkpt><trkpt lat="44.8766633" lon="8.2317"><ele>126.0</ele><time>2026-04-25T17:00:20.998Z</time></trkpt><trkpt lat="44.8766333" lon="8.2318"><ele>126.0</ele><time>2026-04-25T17:00:21.994Z</time></trkpt><trkpt lat="44.8765883" lon="8.2319133"><ele>126.0</ele><time>2026-04-25T17:00:22.995Z</time></trkpt><trkpt lat="44.87657" lon="8.232045"><ele>126.0</ele><time>2026-04-25T17:00:23.996Z</time></trkpt><trkpt lat="44.8765533" lon="8.23218"><ele>126.0</ele><time>2026-04-25T17:00:25Z</time></trkpt><trkpt lat="44.876545" lon="8.2323317"><ele>126.0</ele><time>2026-04-25T17:00:25.995Z</time></trkpt><trkpt lat="44.8765433" lon="8.232495"><ele>126.0</ele><time>2026-04-25T17:00:26.996Z</time></trkpt><trkpt lat="44.8765433" lon="8.232675"><ele>125.0</ele><time>2026-04-25T17:00:27.994Z</time></trkpt><trkpt lat="44.8765417" lon="8.2328567"><ele>124.0</ele><time>2026-04-25T17:00:28.995Z</time></trkpt><trkpt lat="44.8765417" lon="8.2330467"><ele>123.0</ele><time>2026-04-25T17:00:29.998Z</time></trkpt><trkpt lat="44.8765383" lon="8.2332267"><ele>122.0</ele><time>2026-04-25T17:00:30.998Z</time></trkpt><trkpt lat="44.8765367" lon="8.2334117"><ele>122.0</ele><time>2026-04-25T17:00:32Z</time></trkpt><trkpt lat="44.8765433" lon="8.2335867"><ele>122.0</ele><time>2026-04-25T17:00:32.998Z</time></trkpt><trkpt lat="44.8765567" lon="8.2337517"><ele>122.0</ele><time>2026-04-25T17:00:33.998Z</time></trkpt><trkpt lat="44.8765833" lon="8.2339133"><ele>122.0</ele><time>2026-04-25T17:00:35.001Z</time></trkpt><trkpt lat="44.8766117" lon="8.234085"><ele>121.75</ele><time>2026-04-25T17:00:35.999Z</time></trkpt><trkpt lat="44.8766417" lon="8.2342633"><ele>121.5</ele><time>2026-04-25T17:00:36.995Z</time></trkpt><trkpt lat="44.8766667" lon="8.2344433"><ele>121.25</ele><time>2026-04-25T17:00:37.994Z</time></trkpt><trkpt lat="44.8766983" lon="8.2346383"><ele>121.0</ele><time>2026-04-25T17:00:39Z</time></trkpt><trkpt lat="44.8767317" lon="8.23484"><ele>121.0</ele><time>2026-04-25T17:00:39.996Z</time></trkpt><trkpt lat="44.8767667" lon="8.2350567"><ele>121.0</ele><time>2026-04-25T17:00:40.998Z</time></trkpt><trkpt lat="44.8767967" lon="8.2352867"><ele>121.0</ele><time>2026-04-25T17:00:41.998Z</time></trkpt><trkpt lat="44.87683" lon="8.2355183"><ele>119.66666666666667</ele><time>2026-04-25T17:00:42.993Z</time></trkpt><trkpt lat="44.8768633" lon="8.2357583"><ele>118.33333333333334</ele><time>2026-04-25T17:00:43.996Z</time></trkpt><trkpt lat="44.876905" lon="8.2360017"><ele>117.0</ele><time>2026-04-25T17:00:44.994Z</time></trkpt><trkpt lat="44.87694" lon="8.2362483"><ele>116.66666666666666</ele><time>2026-04-25T17:00:45.995Z</time></trkpt><trkpt lat="44.8769717" lon="8.2364967"><ele>116.33333333333333</ele><time>2026-04-25T17:00:46.995Z</time></trkpt><trkpt lat="44.8770117" lon="8.23674"><ele>116.0</ele><time>2026-04-25T17:00:47.994Z</time></trkpt><trkpt lat="44.8770483" lon="8.23698"><ele>116.0</ele><time>2026-04-25T17:00:48.995Z</time></trkpt><trkpt lat="44.877085" lon="8.2372183"><ele>116.0</ele><time>2026-04-25T17:00:49.995Z</time></trkpt><trkpt lat="44.8771217" lon="8.23745"><ele>116.0</ele><time>2026-04-25T17:00:50.996Z</time></trkpt><trkpt lat="44.8771567" lon="8.23768"><ele>115.66666666666666</ele><time>2026-04-25T17:00:51.998Z</time></trkpt><trkpt lat="44.87719" lon="8.2379067"><ele>115.33333333333334</ele><time>2026-04-25T17:00:52.994Z</time></trkpt><trkpt lat="44.877225" lon="8.2381283"><ele>115.0</ele><time>2026-04-25T17:00:53.993Z</time></trkpt><trkpt lat="44.8772583" lon="8.2383483"><ele>115.0</ele><time>2026-04-25T17:00:54.997Z</time></trkpt><trkpt lat="44.8772917" lon="8.23857"><ele>115.0</ele><time>2026-04-25T17:00:55.994Z</time></trkpt><trkpt lat="44.8773267" lon="8.2387917"><ele>115.0</ele><time>2026-04-25T17:00:57.001Z</time></trkpt><trkpt lat="44.8773567" lon="8.2390067"><ele>114.66666666666667</ele><time>2026-04-25T17:00:57.995Z</time></trkpt><trkpt lat="44.8773867" lon="8.239215"><ele>114.33333333333334</ele><time>2026-04-25T17:00:58.994Z</time></trkpt><trkpt lat="44.87742" lon="8.2394283"><ele>114.0</ele><time>2026-04-25T17:00:59.995Z</time></trkpt><trkpt lat="44.8774583" lon="8.2396333"><ele>114.0</ele><time>2026-04-25T17:01:01.001Z</time></trkpt><trkpt lat="44.8775117" lon="8.239835"><ele>114.0</ele><time>2026-04-25T17:01:01.997Z</time></trkpt><trkpt lat="44.8775667" lon="8.2400367"><ele>114.0</ele><time>2026-04-25T17:01:02.997Z</time></trkpt><trkpt lat="44.8776133" lon="8.2402433"><ele>113.66666666666666</ele><time>2026-04-25T17:01:03.999Z</time></trkpt><trkpt lat="44.8776617" lon="8.2404483"><ele>113.33333333333333</ele><time>2026-04-25T17:01:04.996Z</time></trkpt><trkpt lat="44.87771" lon="8.240655"><ele>113.0</ele><time>2026-04-25T17:01:05.999Z</time></trkpt><trkpt lat="44.8777617" lon="8.2408667"><ele>113.0</ele><time>2026-04-25T17:01:06.995Z</time></trkpt><trkpt lat="44.87782" lon="8.2410767"><ele>113.0</ele><time>2026-04-25T17:01:08.001Z</time></trkpt><trkpt lat="44.877875" lon="8.2412867"><ele>113.0</ele><time>2026-04-25T17:01:08.996Z</time></trkpt><trkpt lat="44.8779283" lon="8.2414967"><ele>113.0</ele><time>2026-04-25T17:01:09.996Z</time></trkpt><trkpt lat="44.8779767" lon="8.2417133"><ele>113.0</ele><time>2026-04-25T17:01:10.995Z</time></trkpt><trkpt lat="44.8780183" lon="8.241925"><ele>113.0</ele><time>2026-04-25T17:01:11.999Z</time></trkpt><trkpt lat="44.87806" lon="8.242145"><ele>113.66666666666666</ele><time>2026-04-25T17:01:12.996Z</time></trkpt><trkpt lat="44.8781033" lon="8.2423683"><ele>114.33333333333334</ele><time>2026-04-25T17:01:13.995Z</time></trkpt><trkpt lat="44.87815" lon="8.242595"><ele>115.0</ele><time>2026-04-25T17:01:14.997Z</time></trkpt><trkpt lat="44.8781967" lon="8.2428283"><ele>115.0</ele><time>2026-04-25T17:01:15.997Z</time></trkpt><trkpt lat="44.8782483" lon="8.243055"><ele>115.0</ele><time>2026-04-25T17:01:16.997Z</time></trkpt><trkpt lat="44.878295" lon="8.2432867"><ele>115.0</ele><time>2026-04-25T17:01:17.995Z</time></trkpt><trkpt lat="44.8783417" lon="8.2435267"><ele>115.33333333333334</ele><time>2026-04-25T17:01:18.995Z</time></trkpt><trkpt lat="44.878395" lon="8.2437633"><ele>115.66666666666666</ele><time>2026-04-25T17:01:20Z</time></trkpt><trkpt lat="44.8784567" lon="8.2439933"><ele>116.0</ele><time>2026-04-25T17:01:20.995Z</time></trkpt><trkpt lat="44.878515" lon="8.2442183"><ele>116.0</ele><time>2026-04-25T17:01:21.997Z</time></trkpt><trkpt lat="44.878575" lon="8.24444"><ele>116.0</ele><time>2026-04-25T17:01:22.997Z</time></trkpt><trkpt lat="44.8786317" lon="8.2446583"><ele>116.0</ele><time>2026-04-25T17:01:23.996Z</time></trkpt><trkpt lat="44.878685" lon="8.244875"><ele>116.0</ele><time>2026-04-25T17:01:24.996Z</time></trkpt><trkpt lat="44.8787417" lon="8.2450867"><ele>116.0</ele><time>2026-04-25T17:01:25.998Z</time></trkpt><trkpt lat="44.8787983" lon="8.2453"><ele>116.0</ele><time>2026-04-25T17:01:26.995Z</time></trkpt><trkpt lat="44.8788317" lon="8.2455117"><ele>115.5</ele><time>2026-04-25T17:01:27.995Z</time></trkpt><trkpt lat="44.87888" lon="8.2457"><ele>115.0</ele><time>2026-04-25T17:01:28.994Z</time></trkpt><trkpt lat="44.8789167" lon="8.2458633"><ele>114.5</ele><time>2026-04-25T17:01:29.994Z</time></trkpt><trkpt lat="44.8789483" lon="8.2460183"><ele>114.0</ele><time>2026-04-25T17:01:31.002Z</time></trkpt><trkpt lat="44.878975" lon="8.246165"><ele>114.0</ele><time>2026-04-25T17:01:31.996Z</time></trkpt><trkpt lat="44.8789967" lon="8.246315"><ele>114.0</ele><time>2026-04-25T17:01:32.996Z</time></trkpt><trkpt lat="44.879025" lon="8.2464783"><ele>114.0</ele><time>2026-04-25T17:01:34.004Z</time></trkpt><trkpt lat="44.8790517" lon="8.2466417"><ele>114.0</ele><time>2026-04-25T17:01:34.991Z</time></trkpt><trkpt lat="44.8790683" lon="8.2468183"><ele>114.0</ele><time>2026-04-25T17:01:35.994Z</time></trkpt><trkpt lat="44.8790933" lon="8.246995"><ele>114.0</ele><time>2026-04-25T17:01:36.992Z</time></trkpt><trkpt lat="44.8791117" lon="8.247165"><ele>114.0</ele><time>2026-04-25T17:01:37.999Z</time></trkpt><trkpt lat="44.8791083" lon="8.2473267"><ele>114.0</ele><time>2026-04-25T17:01:38.995Z</time></trkpt><trkpt lat="44.8790683" lon="8.2474933"><ele>114.0</ele><time>2026-04-25T17:01:39.993Z</time></trkpt><trkpt lat="44.8790367" lon="8.2476133"><ele>114.0</ele><time>2026-04-25T17:01:40.996Z</time></trkpt><trkpt lat="44.8790083" lon="8.247715"><ele>114.0</ele><time>2026-04-25T17:01:41.991Z</time></trkpt><trkpt lat="44.8789533" lon="8.2478117"><ele>114.0</ele><time>2026-04-25T17:01:42.997Z</time></trkpt><trkpt lat="44.8788683" lon="8.24785"><ele>114.0</ele><time>2026-04-25T17:01:43.994Z</time></trkpt><trkpt lat="44.8787533" lon="8.2478917"><ele>114.0</ele><time>2026-04-25T17:01:44.994Z</time></trkpt><trkpt lat="44.8786383" lon="8.24794"><ele>114.0</ele><time>2026-04-25T17:01:45.997Z</time></trkpt><trkpt lat="44.8785267" lon="8.2479933"><ele>114.0</ele><time>2026-04-25T17:01:46.996Z</time></trkpt><trkpt lat="44.8784117" lon="8.2480433"><ele>114.0</ele><time>2026-04-25T17:01:47.998Z</time></trkpt><trkpt lat="44.8783117" lon="8.2481567"><ele>115.25</ele><time>2026-04-25T17:01:48.998Z</time></trkpt><trkpt lat="44.8782233" lon="8.2482867"><ele>116.5</ele><time>2026-04-25T17:01:49.997Z</time></trkpt><trkpt lat="44.8781333" lon="8.2484317"><ele>117.75</ele><time>2026-04-25T17:01:50.996Z</time></trkpt><trkpt lat="44.8780517" lon="8.2485867"><ele>119.0</ele><time>2026-04-25T17:01:52Z</time></trkpt><trkpt lat="44.8779683" lon="8.24874"><ele>119.0</ele><time>2026-04-25T17:01:52.994Z</time></trkpt><trkpt lat="44.8778933" lon="8.2488883"><ele>119.0</ele><time>2026-04-25T17:01:53.996Z</time></trkpt><trkpt lat="44.8778067" lon="8.24902"><ele>119.0</ele><time>2026-04-25T17:01:54.994Z</time></trkpt><trkpt lat="44.8777183" lon="8.24911"><ele>119.0</ele><time>2026-04-25T17:01:55.999Z</time></trkpt><trkpt lat="44.8776217" lon="8.24916"><ele>119.80000000000001</ele><time>2026-04-25T17:01:56.999Z</time></trkpt><trkpt lat="44.87752" lon="8.2491567"><ele>120.60000000000001</ele><time>2026-04-25T17:01:57.993Z</time></trkpt><trkpt lat="44.8774283" lon="8.2491133"><ele>121.4</ele><time>2026-04-25T17:01:58.996Z</time></trkpt><trkpt lat="44.8773733" lon="8.2489933"><ele>122.2</ele><time>2026-04-25T17:01:59.997Z</time></trkpt><trkpt lat="44.8773" lon="8.248875"><ele>123.0</ele><time>2026-04-25T17:02:00.994Z</time></trkpt><trkpt lat="44.8772267" lon="8.2487683"><ele>123.0</ele><time>2026-04-25T17:02:01.997Z</time></trkpt><trkpt lat="44.8771517" lon="8.2487083"><ele>123.0</ele><time>2026-04-25T17:02:02.997Z</time></trkpt><trkpt lat="44.87708" lon="8.2487"><ele>123.0</ele><time>2026-04-25T17:02:03.998Z</time></trkpt><trkpt lat="44.87702" lon="8.2487567"><ele>123.0</ele><time>2026-04-25T17:02:04.996Z</time></trkpt><trkpt lat="44.87697" lon="8.2488433"><ele>123.0</ele><time>2026-04-25T17:02:05.996Z</time></trkpt><trkpt lat="44.8769333" lon="8.248945"><ele>123.0</ele><time>2026-04-25T17:02:06.997Z</time></trkpt><trkpt lat="44.876965" lon="8.2490783"><ele>123.80000000000001</ele><time>2026-04-25T17:02:07.997Z</time></trkpt><trkpt lat="44.8769933" lon="8.2492133"><ele>124.60000000000001</ele><time>2026-04-25T17:02:08.996Z</time></trkpt><trkpt lat="44.8770317" lon="8.2493633"><ele>125.39999999999999</ele><time>2026-04-25T17:02:09.999Z</time></trkpt><trkpt lat="44.8770717" lon="8.2495183"><ele>126.19999999999999</ele><time>2026-04-25T17:02:10.999Z</time></trkpt><trkpt lat="44.87709" lon="8.24968"><ele>127.0</ele><time>2026-04-25T17:02:11.997Z</time></trkpt><trkpt lat="44.877095" lon="8.2498367"><ele>127.25</ele><time>2026-04-25T17:02:12.996Z</time></trkpt><trkpt lat="44.8770833" lon="8.2499967"><ele>127.5</ele><time>2026-04-25T17:02:13.992Z</time></trkpt><trkpt lat="44.8770533" lon="8.250155"><ele>127.75</ele><time>2026-04-25T17:02:15Z</time></trkpt><trkpt lat="44.8770067" lon="8.25031"><ele>128.0</ele><time>2026-04-25T17:02:15.998Z</time></trkpt><trkpt lat="44.8769433" lon="8.2504767"><ele>129.5</ele><time>2026-04-25T17:02:16.994Z</time></trkpt><trkpt lat="44.876875" lon="8.2506433"><ele>131.0</ele><time>2026-04-25T17:02:17.993Z</time></trkpt><trkpt lat="44.8767833" lon="8.2508233"><ele>132.5</ele><time>2026-04-25T17:02:18.993Z</time></trkpt><trkpt lat="44.876695" lon="8.2509967"><ele>134.0</ele><time>2026-04-25T17:02:19.999Z</time></trkpt><trkpt lat="44.8766033" lon="8.2511567"><ele>136.75</ele><time>2026-04-25T17:02:20.993Z</time></trkpt><trkpt lat="44.87651" lon="8.251305"><ele>139.5</ele><time>2026-04-25T17:02:21.995Z</time></trkpt><trkpt lat="44.8764067" lon="8.2514283"><ele>142.25</ele><time>2026-04-25T17:02:22.995Z</time></trkpt><trkpt lat="44.8762967" lon="8.2515333"><ele>145.0</ele><time>2026-04-25T17:02:23.996Z</time></trkpt><trkpt lat="44.8761817" lon="8.251635"><ele>146.75</ele><time>2026-04-25T17:02:24.996Z</time></trkpt><trkpt lat="44.8760633" lon="8.25173"><ele>148.5</ele><time>2026-04-25T17:02:25.995Z</time></trkpt><trkpt lat="44.8759417" lon="8.2518233"><ele>150.25</ele><time>2026-04-25T17:02:26.994Z</time></trkpt><trkpt lat="44.875815" lon="8.2519167"><ele>152.0</ele><time>2026-04-25T17:02:27.997Z</time></trkpt><trkpt lat="44.875685" lon="8.2520217"><ele>152.33333333333331</ele><time>2026-04-25T17:02:28.994Z</time></trkpt><trkpt lat="44.875545" lon="8.2521233"><ele>152.66666666666666</ele><time>2026-04-25T17:02:29.995Z</time></trkpt><trkpt lat="44.8754067" lon="8.2522333"><ele>153.0</ele><time>2026-04-25T17:02:31.005Z</time></trkpt><trkpt lat="44.87526" lon="8.2523467"><ele>156.0</ele><time>2026-04-25T17:02:31.995Z</time></trkpt><trkpt lat="44.8751067" lon="8.2524567"><ele>159.0</ele><time>2026-04-25T17:02:32.996Z</time></trkpt><trkpt lat="44.8749533" lon="8.252575"><ele>162.0</ele><time>2026-04-25T17:02:33.993Z</time></trkpt><trkpt lat="44.874795" lon="8.2526917"><ele>154.66666666666666</ele><time>2026-04-25T17:02:34.993Z</time></trkpt><trkpt lat="44.8746317" lon="8.25281"><ele>147.33333333333331</ele><time>2026-04-25T17:02:35.993Z</time></trkpt><trkpt lat="44.8744767" lon="8.2529283"><ele>140.0</ele><time>2026-04-25T17:02:36.995Z</time></trkpt><trkpt lat="44.8743233" lon="8.25304"><ele>136.66666666666666</ele><time>2026-04-25T17:02:37.998Z</time></trkpt><trkpt lat="44.8741783" lon="8.2531533"><ele>133.33333333333334</ele><time>2026-04-25T17:02:38.996Z</time></trkpt><trkpt lat="44.8740433" lon="8.2532567"><ele>130.0</ele><time>2026-04-25T17:02:39.995Z</time></trkpt><trkpt lat="44.87391" lon="8.25336"><ele>130.0</ele><time>2026-04-25T17:02:40.992Z</time></trkpt><trkpt lat="44.87377" lon="8.2534667"><ele>130.0</ele><time>2026-04-25T17:02:41.994Z</time></trkpt><trkpt lat="44.8736283" lon="8.25358"><ele>130.0</ele><time>2026-04-25T17:02:42.994Z</time></trkpt><trkpt lat="44.87348" lon="8.2536933"><ele>129.66666666666669</ele><time>2026-04-25T17:02:43.999Z</time></trkpt><trkpt lat="44.8733167" lon="8.2538017"><ele>129.33333333333334</ele><time>2026-04-25T17:02:44.995Z</time></trkpt><trkpt lat="44.873145" lon="8.2538933"><ele>129.0</ele><time>2026-04-25T17:02:45.995Z</time></trkpt><trkpt lat="44.8729667" lon="8.2539717"><ele>129.0</ele><time>2026-04-25T17:02:46.998Z</time></trkpt><trkpt lat="44.8727833" lon="8.2540333"><ele>129.0</ele><time>2026-04-25T17:02:47.996Z</time></trkpt><trkpt lat="44.8725917" lon="8.25409"><ele>129.0</ele><time>2026-04-25T17:02:49.002Z</time></trkpt><trkpt lat="44.87239" lon="8.2541483"><ele>129.0</ele><time>2026-04-25T17:02:49.995Z</time></trkpt><trkpt lat="44.8721883" lon="8.2542133"><ele>129.0</ele><time>2026-04-25T17:02:50.995Z</time></trkpt><trkpt lat="44.8719883" lon="8.2542783"><ele>129.0</ele><time>2026-04-25T17:02:51.992Z</time></trkpt><trkpt lat="44.8717833" lon="8.2543467"><ele>130.66666666666666</ele><time>2026-04-25T17:02:53.001Z</time></trkpt><trkpt lat="44.871575" lon="8.2544133"><ele>132.33333333333331</ele><time>2026-04-25T17:02:53.998Z</time></trkpt><trkpt lat="44.8713733" lon="8.2544817"><ele>134.0</ele><time>2026-04-25T17:02:54.997Z</time></trkpt><trkpt lat="44.8711717" lon="8.2545467"><ele>134.0</ele><time>2026-04-25T17:02:55.998Z</time></trkpt><trkpt lat="44.87097" lon="8.2546117"><ele>134.0</ele><time>2026-04-25T17:02:56.998Z</time></trkpt><trkpt lat="44.8707683" lon="8.254675"><ele>134.0</ele><time>2026-04-25T17:02:57.999Z</time></trkpt><trkpt lat="44.8705667" lon="8.2547367"><ele>137.0</ele><time>2026-04-25T17:02:58.995Z</time></trkpt><trkpt lat="44.8703633" lon="8.2548"><ele>140.0</ele><time>2026-04-25T17:03:00.002Z</time></trkpt><trkpt lat="44.8701583" lon="8.254865"><ele>143.0</ele><time>2026-04-25T17:03:00.997Z</time></trkpt><trkpt lat="44.869965" lon="8.2549333"><ele>143.66666666666666</ele><time>2026-04-25T17:03:01.992Z</time></trkpt><trkpt lat="44.86978" lon="8.254995"><ele>144.33333333333334</ele><time>2026-04-25T17:03:02.997Z</time></trkpt><trkpt lat="44.8696083" lon="8.25505"><ele>145.0</ele><time>2026-04-25T17:03:03.994Z</time></trkpt><trkpt lat="44.8694483" lon="8.255105"><ele>145.0</ele><time>2026-04-25T17:03:04.996Z</time></trkpt><trkpt lat="44.8693067" lon="8.2551533"><ele>145.0</ele><time>2026-04-25T17:03:05.997Z</time></trkpt><trkpt lat="44.8691867" lon="8.255215"><ele>145.0</ele><time>2026-04-25T17:03:06.996Z</time></trkpt><trkpt lat="44.8691033" lon="8.2552983"><ele>145.0</ele><time>2026-04-25T17:03:07.999Z</time></trkpt><trkpt lat="44.8690417" lon="8.255415"><ele>146.2</ele><time>2026-04-25T17:03:08.994Z</time></trkpt><trkpt lat="44.8690033" lon="8.25555"><ele>147.4</ele><time>2026-04-25T17:03:09.994Z</time></trkpt><trkpt lat="44.869005" lon="8.25568"><ele>148.6</ele><time>2026-04-25T17:03:10.994Z</time></trkpt><trkpt lat="44.86903" lon="8.2558067"><ele>149.8</ele><time>2026-04-25T17:03:11.997Z</time></trkpt><trkpt lat="44.869085" lon="8.2559267"><ele>151.0</ele><time>2026-04-25T17:03:13.001Z</time></trkpt><trkpt lat="44.8691567" lon="8.25605"><ele>153.25</ele><time>2026-04-25T17:03:13.995Z</time></trkpt><trkpt lat="44.8692383" lon="8.25617"><ele>155.5</ele><time>2026-04-25T17:03:14.995Z</time></trkpt><trkpt lat="44.8693317" lon="8.25627"><ele>157.75</ele><time>2026-04-25T17:03:15.998Z</time></trkpt><trkpt lat="44.8694333" lon="8.2563333"><ele>160.0</ele><time>2026-04-25T17:03:16.995Z</time></trkpt><trkpt lat="44.8695417" lon="8.256365"><ele>160.0</ele><time>2026-04-25T17:03:17.998Z</time></trkpt><trkpt lat="44.86965" lon="8.2563533"><ele>160.0</ele><time>2026-04-25T17:03:18.996Z</time></trkpt><trkpt lat="44.8697567" lon="8.256295"><ele>160.0</ele><time>2026-04-25T17:03:19.997Z</time></trkpt><trkpt lat="44.86987" lon="8.2562183"><ele>160.0</ele><time>2026-04-25T17:03:20.997Z</time></trkpt><trkpt lat="44.8699717" lon="8.2561233"><ele>160.0</ele><time>2026-04-25T17:03:21.999Z</time></trkpt><trkpt lat="44.8700667" lon="8.2560417"><ele>160.0</ele><time>2026-04-25T17:03:22.996Z</time></trkpt><trkpt lat="44.870165" lon="8.2559867"><ele>160.0</ele><time>2026-04-25T17:03:24.002Z</time></trkpt><trkpt lat="44.8702583" lon="8.2559633"><ele>160.0</ele><time>2026-04-25T17:03:24.997Z</time></trkpt><trkpt lat="44.8703433" lon="8.2559433"><ele>160.0</ele><time>2026-04-25T17:03:25.997Z</time></trkpt><trkpt lat="44.87026" lon="8.2561333"><ele>160.0</ele><time>2026-04-25T17:03:27.994Z</time></trkpt><trkpt lat="44.870215" lon="8.25622"><ele>160.0</ele><time>2026-04-25T17:03:28.996Z</time></trkpt><trkpt lat="44.87016" lon="8.2563033"><ele>160.0</ele><time>2026-04-25T17:03:29.996Z</time></trkpt><trkpt lat="44.8700817" lon="8.25638"><ele>160.0</ele><time>2026-04-25T17:03:30.995Z</time></trkpt><trkpt lat="44.8699933" lon="8.2564583"><ele>160.0</ele><time>2026-04-25T17:03:31.999Z</time></trkpt><trkpt lat="44.8698883" lon="8.2565533"><ele>164.5</ele><time>2026-04-25T17:03:32.999Z</time></trkpt><trkpt lat="44.8697733" lon="8.256665"><ele>169.0</ele><time>2026-04-25T17:03:33.994Z</time></trkpt><trkpt lat="44.8696717" lon="8.256765"><ele>173.5</ele><time>2026-04-25T17:03:34.996Z</time></trkpt><trkpt lat="44.869575" lon="8.2568633"><ele>178.0</ele><time>2026-04-25T17:03:35.996Z</time></trkpt><trkpt lat="44.8694817" lon="8.2569467"><ele>178.0</ele><time>2026-04-25T17:03:36.999Z</time></trkpt><trkpt lat="44.8693933" lon="8.2570033"><ele>178.0</ele><time>2026-04-25T17:03:37.994Z</time></trkpt><trkpt lat="44.8693" lon="8.2570167"><ele>178.0</ele><time>2026-04-25T17:03:38.998Z</time></trkpt><trkpt lat="44.86922" lon="8.2569833"><ele>178.0</ele><time>2026-04-25T17:03:39.995Z</time></trkpt><trkpt lat="44.8691367" lon="8.2569217"><ele>178.0</ele><time>2026-04-25T17:03:41Z</time></trkpt><trkpt lat="44.8690733" lon="8.2568467"><ele>178.16666666666669</ele><time>2026-04-25T17:03:41.998Z</time></trkpt><trkpt lat="44.869015" lon="8.2567367"><ele>178.33333333333334</ele><time>2026-04-25T17:03:42.997Z</time></trkpt><trkpt lat="44.8689683" lon="8.256635"><ele>178.5</ele><time>2026-04-25T17:03:43.994Z</time></trkpt><trkpt lat="44.8689067" lon="8.256555"><ele>178.66666666666666</ele><time>2026-04-25T17:03:44.996Z</time></trkpt><trkpt lat="44.8688333" lon="8.256495"><ele>178.83333333333331</ele><time>2026-04-25T17:03:45.994Z</time></trkpt><trkpt lat="44.86875" lon="8.2564583"><ele>179.0</ele><time>2026-04-25T17:03:46.993Z</time></trkpt><trkpt lat="44.8686717" lon="8.2564233"><ele>179.0</ele><time>2026-04-25T17:03:48Z</time></trkpt><trkpt lat="44.86858" lon="8.25643"><ele>179.0</ele><time>2026-04-25T17:03:48.992Z</time></trkpt><trkpt lat="44.8684583" lon="8.2564567"><ele>179.0</ele><time>2026-04-25T17:03:50.002Z</time></trkpt><trkpt lat="44.868355" lon="8.2564583"><ele>179.0</ele><time>2026-04-25T17:03:50.996Z</time></trkpt><trkpt lat="44.8682517" lon="8.2564467"><ele>179.0</ele><time>2026-04-25T17:03:51.997Z</time></trkpt><trkpt lat="44.868145" lon="8.2564183"><ele>177.0</ele><time>2026-04-25T17:03:52.997Z</time></trkpt><trkpt lat="44.868025" lon="8.2564017"><ele>175.0</ele><time>2026-04-25T17:03:53.996Z</time></trkpt><trkpt lat="44.8679033" lon="8.2563933"><ele>173.0</ele><time>2026-04-25T17:03:54.998Z</time></trkpt><trkpt lat="44.8677817" lon="8.25638"><ele>171.0</ele><time>2026-04-25T17:03:56.001Z</time></trkpt><trkpt lat="44.8676617" lon="8.25639"><ele>171.0</ele><time>2026-04-25T17:03:56.995Z</time></trkpt><trkpt lat="44.8675467" lon="8.2564267"><ele>171.0</ele><time>2026-04-25T17:03:57.998Z</time></trkpt><trkpt lat="44.867435" lon="8.2564867"><ele>171.0</ele><time>2026-04-25T17:03:58.996Z</time></trkpt><trkpt lat="44.86733" lon="8.2565617"><ele>171.0</ele><time>2026-04-25T17:03:59.998Z</time></trkpt><trkpt lat="44.8672267" lon="8.2566433"><ele>176.0</ele><time>2026-04-25T17:04:00.997Z</time></trkpt><trkpt lat="44.8671333" lon="8.256745"><ele>181.0</ele><time>2026-04-25T17:04:01.997Z</time></trkpt><trkpt lat="44.86704" lon="8.256835"><ele>186.0</ele><time>2026-04-25T17:04:02.998Z</time></trkpt><trkpt lat="44.86694" lon="8.2568933"><ele>191.0</ele><time>2026-04-25T17:04:03.993Z</time></trkpt><trkpt lat="44.8668433" lon="8.25692"><ele>196.0</ele><time>2026-04-25T17:04:04.999Z</time></trkpt><trkpt lat="44.8667517" lon="8.25691"><ele>197.20000000000002</ele><time>2026-04-25T17:04:05.994Z</time></trkpt><trkpt lat="44.86666" lon="8.2568517"><ele>198.4</ele><time>2026-04-25T17:04:06.996Z</time></trkpt><trkpt lat="44.86658" lon="8.2567717"><ele>199.6</ele><time>2026-04-25T17:04:07.994Z</time></trkpt><trkpt lat="44.8664983" lon="8.25668"><ele>200.8</ele><time>2026-04-25T17:04:08.996Z</time></trkpt><trkpt lat="44.8664267" lon="8.25658"><ele>202.0</ele><time>2026-04-25T17:04:09.994Z</time></trkpt><trkpt lat="44.8663533" lon="8.256485"><ele>202.66666666666666</ele><time>2026-04-25T17:04:10.993Z</time></trkpt><trkpt lat="44.86628" lon="8.2564"><ele>203.33333333333331</ele><time>2026-04-25T17:04:12Z</time></trkpt><trkpt lat="44.8662" lon="8.2563333"><ele>204.0</ele><time>2026-04-25T17:04:12.997Z</time></trkpt><trkpt lat="44.8661217" lon="8.2562983"><ele>204.66666666666669</ele><time>2026-04-25T17:04:13.995Z</time></trkpt><trkpt lat="44.8660433" lon="8.256285"><ele>205.33333333333334</ele><time>2026-04-25T17:04:14.996Z</time></trkpt><trkpt lat="44.86596" lon="8.2562867"><ele>206.0</ele><time>2026-04-25T17:04:15.996Z</time></trkpt><trkpt lat="44.865885" lon="8.2563067"><ele>206.0</ele><time>2026-04-25T17:04:16.996Z</time></trkpt><trkpt lat="44.86582" lon="8.2563333"><ele>206.0</ele><time>2026-04-25T17:04:17.994Z</time></trkpt><trkpt lat="44.865745" lon="8.2564183"><ele>206.0</ele><time>2026-04-25T17:04:19.998Z</time></trkpt><trkpt lat="44.865785" lon="8.25656"><ele>206.0</ele><time>2026-04-25T17:04:21.995Z</time></trkpt><trkpt lat="44.865875" lon="8.256695"><ele>206.0</ele><time>2026-04-25T17:04:23.995Z</time></trkpt><trkpt lat="44.8659483" lon="8.2567833"><ele>205.20000000000002</ele><time>2026-04-25T17:04:24.996Z</time></trkpt><trkpt lat="44.8660267" lon="8.2568767"><ele>204.4</ele><time>2026-04-25T17:04:25.996Z</time></trkpt><trkpt lat="44.8661033" lon="8.2569733"><ele>203.6</ele><time>2026-04-25T17:04:26.994Z</time></trkpt><trkpt lat="44.866185" lon="8.2570483"><ele>202.8</ele><time>2026-04-25T17:04:27.997Z</time></trkpt><trkpt lat="44.8662567" lon="8.2571133"><ele>202.0</ele><time>2026-04-25T17:04:28.993Z</time></trkpt><trkpt lat="44.8663283" lon="8.25716"><ele>201.99999999999997</ele><time>2026-04-25T17:04:29.995Z</time></trkpt><trkpt lat="44.866405" lon="8.257195"><ele>202.0</ele><time>2026-04-25T17:04:31Z</time></trkpt><trkpt lat="44.8664683" lon="8.25723"><ele>202.0</ele><time>2026-04-25T17:04:31.997Z</time></trkpt><trkpt lat="44.8665417" lon="8.2572517"><ele>202.0</ele><time>2026-04-25T17:04:32.997Z</time></trkpt><trkpt lat="44.8666167" lon="8.2572683"><ele>201.99999999999997</ele><time>2026-04-25T17:04:33.997Z</time></trkpt><trkpt lat="44.8667017" lon="8.2572933"><ele>202.0</ele><time>2026-04-25T17:04:34.997Z</time></trkpt><trkpt lat="44.8667817" lon="8.2573233"><ele>202.6</ele><time>2026-04-25T17:04:35.996Z</time></trkpt><trkpt lat="44.8668883" lon="8.25734"><ele>203.2</ele><time>2026-04-25T17:04:36.994Z</time></trkpt><trkpt lat="44.8669783" lon="8.257365"><ele>203.8</ele><time>2026-04-25T17:04:37.993Z</time></trkpt><trkpt lat="44.86708" lon="8.2574033"><ele>204.4</ele><time>2026-04-25T17:04:39Z</time></trkpt><trkpt lat="44.8672" lon="8.2574183"><ele>205.0</ele><time>2026-04-25T17:04:39.996Z</time></trkpt><trkpt lat="44.867305" lon="8.257455"><ele>205.0</ele><time>2026-04-25T17:04:40.993Z</time></trkpt><trkpt lat="44.86743" lon="8.2574783"><ele>205.0</ele><time>2026-04-25T17:04:41.993Z</time></trkpt><trkpt lat="44.86754" lon="8.25752"><ele>205.0</ele><time>2026-04-25T17:04:43Z</time></trkpt><trkpt lat="44.86765" lon="8.2575833"><ele>205.0</ele><time>2026-04-25T17:04:43.995Z</time></trkpt><trkpt lat="44.8677733" lon="8.2576383"><ele>203.75</ele><time>2026-04-25T17:04:45.001Z</time></trkpt><trkpt lat="44.867905" lon="8.2576767"><ele>202.5</ele><time>2026-04-25T17:04:45.998Z</time></trkpt><trkpt lat="44.8680317" lon="8.2577233"><ele>201.25</ele><time>2026-04-25T17:04:46.994Z</time></trkpt><trkpt lat="44.8681533" lon="8.25777"><ele>200.0</ele><time>2026-04-25T17:04:47.998Z</time></trkpt><trkpt lat="44.868285" lon="8.2578183"><ele>200.0</ele><time>2026-04-25T17:04:49Z</time></trkpt><trkpt lat="44.8684067" lon="8.257875"><ele>200.0</ele><time>2026-04-25T17:04:49.991Z</time></trkpt><trkpt lat="44.8685317" lon="8.2579433"><ele>200.0</ele><time>2026-04-25T17:04:50.993Z</time></trkpt><trkpt lat="44.8686517" lon="8.2580017"><ele>200.0</ele><time>2026-04-25T17:04:51.997Z</time></trkpt><trkpt lat="44.8687783" lon="8.2580283"><ele>198.0</ele><time>2026-04-25T17:04:52.997Z</time></trkpt><trkpt lat="44.8689067" lon="8.2580283"><ele>196.0</ele><time>2026-04-25T17:04:53.992Z</time></trkpt><trkpt lat="44.8690317" lon="8.258025"><ele>194.0</ele><time>2026-04-25T17:04:54.994Z</time></trkpt><trkpt lat="44.86916" lon="8.2580183"><ele>192.0</ele><time>2026-04-25T17:04:55.999Z</time></trkpt><trkpt lat="44.86927" lon="8.2580317"><ele>193.5</ele><time>2026-04-25T17:04:56.995Z</time></trkpt><trkpt lat="44.86939" lon="8.2580467"><ele>195.0</ele><time>2026-04-25T17:04:57.995Z</time></trkpt><trkpt lat="44.86952" lon="8.2580833"><ele>196.5</ele><time>2026-04-25T17:04:58.996Z</time></trkpt><trkpt lat="44.8696533" lon="8.25813"><ele>198.0</ele><time>2026-04-25T17:04:59.996Z</time></trkpt><trkpt lat="44.8697783" lon="8.2581833"><ele>198.0</ele><time>2026-04-25T17:05:00.996Z</time></trkpt><trkpt lat="44.8698967" lon="8.2582383"><ele>198.0</ele><time>2026-04-25T17:05:01.993Z</time></trkpt><trkpt lat="44.8700317" lon="8.2582817"><ele>198.0</ele><time>2026-04-25T17:05:02.996Z</time></trkpt><trkpt lat="44.8701567" lon="8.25833"><ele>198.0</ele><time>2026-04-25T17:05:03.994Z</time></trkpt><trkpt lat="44.87029" lon="8.2583783"><ele>200.25</ele><time>2026-04-25T17:05:04.993Z</time></trkpt><trkpt lat="44.87041" lon="8.2584333"><ele>202.5</ele><time>2026-04-25T17:05:05.993Z</time></trkpt><trkpt lat="44.8705133" lon="8.2585117"><ele>204.75</ele><time>2026-04-25T17:05:06.996Z</time></trkpt><trkpt lat="44.870595" lon="8.258615"><ele>207.0</ele><time>2026-04-25T17:05:08Z</time></trkpt><trkpt lat="44.8706583" lon="8.2587267"><ele>207.0</ele><time>2026-04-25T17:05:08.998Z</time></trkpt><trkpt lat="44.87071" lon="8.2588483"><ele>207.0</ele><time>2026-04-25T17:05:09.997Z</time></trkpt><trkpt lat="44.87074" lon="8.2589767"><ele>207.0</ele><time>2026-04-25T17:05:10.997Z</time></trkpt><trkpt lat="44.8707533" lon="8.259115"><ele>207.0</ele><time>2026-04-25T17:05:11.994Z</time></trkpt><trkpt lat="44.8707417" lon="8.259275"><ele>207.0</ele><time>2026-04-25T17:05:12.994Z</time></trkpt><trkpt lat="44.8707583" lon="8.25943"><ele>206.8</ele><time>2026-04-25T17:05:13.994Z</time></trkpt><trkpt lat="44.87077" lon="8.2596"><ele>206.6</ele><time>2026-04-25T17:05:14.999Z</time></trkpt><trkpt lat="44.8707817" lon="8.25977"><ele>206.4</ele><time>2026-04-25T17:05:15.995Z</time></trkpt><trkpt lat="44.8708383" lon="8.259895"><ele>206.20000000000002</ele><time>2026-04-25T17:05:16.997Z</time></trkpt><trkpt lat="44.8708967" lon="8.26001"><ele>206.0</ele><time>2026-04-25T17:05:17.995Z</time></trkpt><trkpt lat="44.8709467" lon="8.2601283"><ele>205.60000000000002</ele><time>2026-04-25T17:05:19.003Z</time></trkpt><trkpt lat="44.8709817" lon="8.26026"><ele>205.2</ele><time>2026-04-25T17:05:19.994Z</time></trkpt><trkpt lat="44.8710117" lon="8.2604083"><ele>204.8</ele><time>2026-04-25T17:05:20.999Z</time></trkpt><trkpt lat="44.8710233" lon="8.2605683"><ele>204.39999999999998</ele><time>2026-04-25T17:05:21.997Z</time></trkpt><trkpt lat="44.8710183" lon="8.2607317"><ele>204.0</ele><time>2026-04-25T17:05:22.992Z</time></trkpt><trkpt lat="44.871005" lon="8.2609133"><ele>203.5</ele><time>2026-04-25T17:05:23.998Z</time></trkpt><trkpt lat="44.8709817" lon="8.261095"><ele>203.0</ele><time>2026-04-25T17:05:24.997Z</time></trkpt><trkpt lat="44.8709483" lon="8.2612733"><ele>202.5</ele><time>2026-04-25T17:05:25.992Z</time></trkpt><trkpt lat="44.8708983" lon="8.26144"><ele>202.0</ele><time>2026-04-25T17:05:27Z</time></trkpt><trkpt lat="44.8708367" lon="8.26158"><ele>202.0</ele><time>2026-04-25T17:05:27.994Z</time></trkpt><trkpt lat="44.8707633" lon="8.26169"><ele>202.0</ele><time>2026-04-25T17:05:28.995Z</time></trkpt><trkpt lat="44.87069" lon="8.2617933"><ele>202.0</ele><time>2026-04-25T17:05:29.998Z</time></trkpt><trkpt lat="44.8706283" lon="8.261905"><ele>202.0</ele><time>2026-04-25T17:05:30.997Z</time></trkpt><trkpt lat="44.8705883" lon="8.262035"><ele>202.0</ele><time>2026-04-25T17:05:31.997Z</time></trkpt><trkpt lat="44.8705733" lon="8.2621583"><ele>201.6</ele><time>2026-04-25T17:05:32.997Z</time></trkpt><trkpt lat="44.870595" lon="8.262295"><ele>201.2</ele><time>2026-04-25T17:05:33.996Z</time></trkpt><trkpt lat="44.8706433" lon="8.2624283"><ele>200.8</ele><time>2026-04-25T17:05:34.993Z</time></trkpt><trkpt lat="44.870715" lon="8.2625533"><ele>200.4</ele><time>2026-04-25T17:05:35.998Z</time></trkpt><trkpt lat="44.8708" lon="8.2626767"><ele>200.0</ele><time>2026-04-25T17:05:36.998Z</time></trkpt><trkpt lat="44.8708933" lon="8.2628133"><ele>199.5</ele><time>2026-04-25T17:05:37.997Z</time></trkpt><trkpt lat="44.87099" lon="8.262955"><ele>199.0</ele><time>2026-04-25T17:05:39.001Z</time></trkpt><trkpt lat="44.8710883" lon="8.263105"><ele>198.5</ele><time>2026-04-25T17:05:39.999Z</time></trkpt><trkpt lat="44.87119" lon="8.26325"><ele>198.0</ele><time>2026-04-25T17:05:40.993Z</time></trkpt><trkpt lat="44.8712867" lon="8.2633983"><ele>199.5</ele><time>2026-04-25T17:05:41.993Z</time></trkpt><trkpt lat="44.8713817" lon="8.2635533"><ele>201.0</ele><time>2026-04-25T17:05:42.998Z</time></trkpt><trkpt lat="44.8714733" lon="8.2637067"><ele>202.5</ele><time>2026-04-25T17:05:43.995Z</time></trkpt><trkpt lat="44.8715733" lon="8.2638467"><ele>204.0</ele><time>2026-04-25T17:05:44.995Z</time></trkpt><trkpt lat="44.8716733" lon="8.2639867"><ele>204.25</ele><time>2026-04-25T17:05:45.999Z</time></trkpt><trkpt lat="44.87178" lon="8.2641083"><ele>204.5</ele><time>2026-04-25T17:05:46.996Z</time></trkpt><trkpt lat="44.8718833" lon="8.2642233"><ele>204.75</ele><time>2026-04-25T17:05:47.997Z</time></trkpt><trkpt lat="44.8719767" lon="8.2643233"><ele>205.0</ele><time>2026-04-25T17:05:48.999Z</time></trkpt><trkpt lat="44.8720667" lon="8.2643967"><ele>205.0</ele><time>2026-04-25T17:05:49.994Z</time></trkpt><trkpt lat="44.8721517" lon="8.2644433"><ele>205.0</ele><time>2026-04-25T17:05:51Z</time></trkpt><trkpt lat="44.8722383" lon="8.2644767"><ele>205.0</ele><time>2026-04-25T17:05:51.995Z</time></trkpt><trkpt lat="44.872345" lon="8.2644933"><ele>205.0</ele><time>2026-04-25T17:05:52.994Z</time></trkpt><trkpt lat="44.8724533" lon="8.26452"><ele>205.0</ele><time>2026-04-25T17:05:53.995Z</time></trkpt><trkpt lat="44.8725633" lon="8.2645467"><ele>201.25</ele><time>2026-04-25T17:05:54.996Z</time></trkpt><trkpt lat="44.8726667" lon="8.264575"><ele>197.5</ele><time>2026-04-25T17:05:55.995Z</time></trkpt><trkpt lat="44.87278" lon="8.2646217"><ele>193.75</ele><time>2026-04-25T17:05:56.998Z</time></trkpt><trkpt lat="44.8728983" lon="8.2646767"><ele>190.0</ele><time>2026-04-25T17:05:57.998Z</time></trkpt><trkpt lat="44.873015" lon="8.2647333"><ele>188.25</ele><time>2026-04-25T17:05:58.996Z</time></trkpt><trkpt lat="44.87313" lon="8.2647933"><ele>186.5</ele><time>2026-04-25T17:05:59.994Z</time></trkpt><trkpt lat="44.8732417" lon="8.2648633"><ele>184.75</ele><time>2026-04-25T17:06:01Z</time></trkpt><trkpt lat="44.8733517" lon="8.264945"><ele>183.0</ele><time>2026-04-25T17:06:02Z</time></trkpt><trkpt lat="44.873455" lon="8.2650283"><ele>183.0</ele><time>2026-04-25T17:06:02.995Z</time></trkpt><trkpt lat="44.8735417" lon="8.2650967"><ele>183.0</ele><time>2026-04-25T17:06:03.997Z</time></trkpt><trkpt lat="44.8736183" lon="8.2651733"><ele>183.0</ele><time>2026-04-25T17:06:04.994Z</time></trkpt><trkpt lat="44.873675" lon="8.2652617"><ele>183.0</ele><time>2026-04-25T17:06:05.996Z</time></trkpt><trkpt lat="44.8737233" lon="8.265355"><ele>183.0</ele><time>2026-04-25T17:06:06.995Z</time></trkpt><trkpt lat="44.8737683" lon="8.2654533"><ele>183.0</ele><time>2026-04-25T17:06:08Z</time></trkpt><trkpt lat="44.8737933" lon="8.2655767"><ele>183.4</ele><time>2026-04-25T17:06:08.999Z</time></trkpt><trkpt lat="44.8737967" lon="8.2657117"><ele>183.8</ele><time>2026-04-25T17:06:09.999Z</time></trkpt><trkpt lat="44.8738167" lon="8.2658133"><ele>184.2</ele><time>2026-04-25T17:06:10.996Z</time></trkpt><trkpt lat="44.8737833" lon="8.2659233"><ele>184.6</ele><time>2026-04-25T17:06:11.997Z</time></trkpt><trkpt lat="44.8737967" lon="8.266095"><ele>185.0</ele><time>2026-04-25T17:06:13.998Z</time></trkpt><trkpt lat="44.87385" lon="8.2662383"><ele>185.0</ele><time>2026-04-25T17:06:15.995Z</time></trkpt><trkpt lat="44.8739533" lon="8.2663117"><ele>185.0</ele><time>2026-04-25T17:06:17.998Z</time></trkpt><trkpt lat="44.8740117" lon="8.2663667"><ele>185.0</ele><time>2026-04-25T17:06:18.995Z</time></trkpt><trkpt lat="44.874085" lon="8.2664433"><ele>185.0</ele><time>2026-04-25T17:06:19.996Z</time></trkpt><trkpt lat="44.8741567" lon="8.2665233"><ele>185.0</ele><time>2026-04-25T17:06:20.996Z</time></trkpt><trkpt lat="44.8742217" lon="8.2666383"><ele>185.2</ele><time>2026-04-25T17:06:21.997Z</time></trkpt><trkpt lat="44.874285" lon="8.266755"><ele>185.4</ele><time>2026-04-25T17:06:22.999Z</time></trkpt><trkpt lat="44.87434" lon="8.2668783"><ele>185.60000000000002</ele><time>2026-04-25T17:06:24.002Z</time></trkpt><trkpt lat="44.8743917" lon="8.2670017"><ele>185.8</ele><time>2026-04-25T17:06:25.001Z</time></trkpt><trkpt lat="44.8744583" lon="8.267115"><ele>186.0</ele><time>2026-04-25T17:06:26Z</time></trkpt><trkpt lat="44.8745233" lon="8.2672117"><ele>189.20000000000002</ele><time>2026-04-25T17:06:26.995Z</time></trkpt><trkpt lat="44.8745983" lon="8.26729"><ele>192.4</ele><time>2026-04-25T17:06:27.994Z</time></trkpt><trkpt lat="44.8746667" lon="8.2673683"><ele>195.6</ele><time>2026-04-25T17:06:28.99Z</time></trkpt><trkpt lat="44.8747533" lon="8.2674317"><ele>198.8</ele><time>2026-04-25T17:06:29.996Z</time></trkpt><trkpt lat="44.8748367" lon="8.2675"><ele>202.0</ele><time>2026-04-25T17:06:30.997Z</time></trkpt><trkpt lat="44.8749367" lon="8.26756"><ele>202.0</ele><time>2026-04-25T17:06:31.993Z</time></trkpt><trkpt lat="44.87503" lon="8.267625"><ele>202.0</ele><time>2026-04-25T17:06:32.998Z</time></trkpt><trkpt lat="44.87513" lon="8.2676883"><ele>202.0</ele><time>2026-04-25T17:06:33.995Z</time></trkpt><trkpt lat="44.8752383" lon="8.2677583"><ele>202.0</ele><time>2026-04-25T17:06:34.994Z</time></trkpt><trkpt lat="44.8753617" lon="8.267835"><ele>200.25</ele><time>2026-04-25T17:06:35.991Z</time></trkpt><trkpt lat="44.875475" lon="8.2679133"><ele>198.5</ele><time>2026-04-25T17:06:36.995Z</time></trkpt><trkpt lat="44.875595" lon="8.26799"><ele>196.75</ele><time>2026-04-25T17:06:38.001Z</time></trkpt><trkpt lat="44.8757283" lon="8.2680633"><ele>195.0</ele><time>2026-04-25T17:06:39.002Z</time></trkpt><trkpt lat="44.8758317" lon="8.268155"><ele>195.0</ele><time>2026-04-25T17:06:39.998Z</time></trkpt><trkpt lat="44.875925" lon="8.2682217"><ele>195.0</ele><time>2026-04-25T17:06:40.994Z</time></trkpt><trkpt lat="44.87601" lon="8.26827"><ele>195.0</ele><time>2026-04-25T17:06:41.999Z</time></trkpt><trkpt lat="44.876075" lon="8.2683267"><ele>195.0</ele><time>2026-04-25T17:06:42.992Z</time></trkpt><trkpt lat="44.8761283" lon="8.268395"><ele>195.0</ele><time>2026-04-25T17:06:43.994Z</time></trkpt><trkpt lat="44.8761733" lon="8.2685417"><ele>193.75</ele><time>2026-04-25T17:06:45.997Z</time></trkpt><trkpt lat="44.8761267" lon="8.26871"><ele>192.5</ele><time>2026-04-25T17:06:46.996Z</time></trkpt><trkpt lat="44.8760783" lon="8.2688833"><ele>191.25</ele><time>2026-04-25T17:06:47.994Z</time></trkpt><trkpt lat="44.8760433" lon="8.26906"><ele>190.0</ele><time>2026-04-25T17:06:48.995Z</time></trkpt><trkpt lat="44.8760083" lon="8.2692367"><ele>190.0</ele><time>2026-04-25T17:06:49.996Z</time></trkpt><trkpt lat="44.8759767" lon="8.26942"><ele>190.0</ele><time>2026-04-25T17:06:50.997Z</time></trkpt><trkpt lat="44.87594" lon="8.26961"><ele>190.0</ele><time>2026-04-25T17:06:51.994Z</time></trkpt><trkpt lat="44.8759083" lon="8.2698"><ele>190.0</ele><time>2026-04-25T17:06:53.001Z</time></trkpt><trkpt lat="44.875875" lon="8.2699917"><ele>187.25</ele><time>2026-04-25T17:06:53.993Z</time></trkpt><trkpt lat="44.8758383" lon="8.2701867"><ele>184.5</ele><time>2026-04-25T17:06:54.994Z</time></trkpt><trkpt lat="44.8758033" lon="8.27038"><ele>181.75</ele><time>2026-04-25T17:06:55.996Z</time></trkpt><trkpt lat="44.8757733" lon="8.27058"><ele>179.0</ele><time>2026-04-25T17:06:56.996Z</time></trkpt><trkpt lat="44.8757283" lon="8.2707633"><ele>177.5</ele><time>2026-04-25T17:06:57.993Z</time></trkpt><trkpt lat="44.8757033" lon="8.270965"><ele>176.0</ele><time>2026-04-25T17:06:58.999Z</time></trkpt><trkpt lat="44.8756867" lon="8.2711683"><ele>174.5</ele><time>2026-04-25T17:06:59.997Z</time></trkpt><trkpt lat="44.8756733" lon="8.2713817"><ele>173.0</ele><time>2026-04-25T17:07:00.997Z</time></trkpt><trkpt lat="44.8756683" lon="8.2715883"><ele>171.66666666666666</ele><time>2026-04-25T17:07:02.004Z</time></trkpt><trkpt lat="44.8756667" lon="8.2718067"><ele>170.33333333333334</ele><time>2026-04-25T17:07:02.998Z</time></trkpt><trkpt lat="44.8756717" lon="8.27203"><ele>169.0</ele><time>2026-04-25T17:07:03.997Z</time></trkpt><trkpt lat="44.8756567" lon="8.2722333"><ele>167.66666666666669</ele><time>2026-04-25T17:07:04.994Z</time></trkpt><trkpt lat="44.8756283" lon="8.2724533"><ele>166.33333333333334</ele><time>2026-04-25T17:07:05.996Z</time></trkpt><trkpt lat="44.87559" lon="8.2726633"><ele>165.0</ele><time>2026-04-25T17:07:06.991Z</time></trkpt><trkpt lat="44.8755383" lon="8.2728783"><ele>165.0</ele><time>2026-04-25T17:07:07.998Z</time></trkpt><trkpt lat="44.8755" lon="8.2730817"><ele>165.0</ele><time>2026-04-25T17:07:08.994Z</time></trkpt><trkpt lat="44.87545" lon="8.2733017"><ele>165.0</ele><time>2026-04-25T17:07:09.997Z</time></trkpt><trkpt lat="44.8753933" lon="8.27351"><ele>166.0</ele><time>2026-04-25T17:07:10.994Z</time></trkpt><trkpt lat="44.8753433" lon="8.273725"><ele>167.0</ele><time>2026-04-25T17:07:11.995Z</time></trkpt><trkpt lat="44.87529" lon="8.2739417"><ele>168.0</ele><time>2026-04-25T17:07:12.996Z</time></trkpt><trkpt lat="44.875235" lon="8.274155"><ele>168.33333333333334</ele><time>2026-04-25T17:07:13.999Z</time></trkpt><trkpt lat="44.87518" lon="8.2743683"><ele>168.66666666666669</ele><time>2026-04-25T17:07:14.994Z</time></trkpt><trkpt lat="44.875125" lon="8.2745883"><ele>169.0</ele><time>2026-04-25T17:07:15.997Z</time></trkpt><trkpt lat="44.8750667" lon="8.2748067"><ele>161.0</ele><time>2026-04-25T17:07:16.997Z</time></trkpt><trkpt lat="44.8750083" lon="8.2750267"><ele>153.0</ele><time>2026-04-25T17:07:18Z</time></trkpt><trkpt lat="44.87496" lon="8.2752483"><ele>145.0</ele><time>2026-04-25T17:07:18.998Z</time></trkpt><trkpt lat="44.8749133" lon="8.27547"><ele>144.33333333333334</ele><time>2026-04-25T17:07:20.001Z</time></trkpt><trkpt lat="44.87486" lon="8.27569"><ele>143.66666666666666</ele><time>2026-04-25T17:07:20.996Z</time></trkpt><trkpt lat="44.8748017" lon="8.2759117"><ele>143.0</ele><time>2026-04-25T17:07:21.996Z</time></trkpt><trkpt lat="44.87474" lon="8.2761333"><ele>143.0</ele><time>2026-04-25T17:07:23.001Z</time></trkpt><trkpt lat="44.8746833" lon="8.276355"><ele>143.0</ele><time>2026-04-25T17:07:23.999Z</time></trkpt><trkpt lat="44.8746283" lon="8.2765733"><ele>143.0</ele><time>2026-04-25T17:07:25.002Z</time></trkpt><trkpt lat="44.8745717" lon="8.276795"><ele>143.33333333333331</ele><time>2026-04-25T17:07:25.997Z</time></trkpt><trkpt lat="44.874515" lon="8.2770083"><ele>143.66666666666666</ele><time>2026-04-25T17:07:26.997Z</time></trkpt><trkpt lat="44.8744683" lon="8.277215"><ele>144.0</ele><time>2026-04-25T17:07:27.994Z</time></trkpt><trkpt lat="44.874435" lon="8.2774183"><ele>144.0</ele><time>2026-04-25T17:07:28.997Z</time></trkpt><trkpt lat="44.8744167" lon="8.27762"><ele>144.0</ele><time>2026-04-25T17:07:30Z</time></trkpt><trkpt lat="44.8744133" lon="8.2778183"><ele>144.0</ele><time>2026-04-25T17:07:30.994Z</time></trkpt><trkpt lat="44.8744283" lon="8.27802"><ele>144.0</ele><time>2026-04-25T17:07:31.993Z</time></trkpt><trkpt lat="44.8744683" lon="8.2782"><ele>141.5</ele><time>2026-04-25T17:07:33.001Z</time></trkpt><trkpt lat="44.874525" lon="8.2783717"><ele>139.0</ele><time>2026-04-25T17:07:33.993Z</time></trkpt><trkpt lat="44.874605" lon="8.278535"><ele>136.5</ele><time>2026-04-25T17:07:34.992Z</time></trkpt><trkpt lat="44.8746967" lon="8.2786967"><ele>134.0</ele><time>2026-04-25T17:07:36.002Z</time></trkpt><trkpt lat="44.874805" lon="8.2788467"><ele>131.0</ele><time>2026-04-25T17:07:36.994Z</time></trkpt><trkpt lat="44.87492" lon="8.2789933"><ele>128.0</ele><time>2026-04-25T17:07:37.995Z</time></trkpt><trkpt lat="44.87502" lon="8.2791483"><ele>125.0</ele><time>2026-04-25T17:07:38.992Z</time></trkpt><trkpt lat="44.87511" lon="8.279305"><ele>122.0</ele><time>2026-04-25T17:07:39.993Z</time></trkpt><trkpt lat="44.8751767" lon="8.2794683"><ele>122.0</ele><time>2026-04-25T17:07:40.994Z</time></trkpt><trkpt lat="44.8752183" lon="8.27964"><ele>122.0</ele><time>2026-04-25T17:07:41.993Z</time></trkpt><trkpt lat="44.8752383" lon="8.27982"><ele>122.0</ele><time>2026-04-25T17:07:42.995Z</time></trkpt><trkpt lat="44.8752383" lon="8.2800017"><ele>122.0</ele><time>2026-04-25T17:07:43.994Z</time></trkpt><trkpt lat="44.8752233" lon="8.2801733"><ele>120.6</ele><time>2026-04-25T17:07:45Z</time></trkpt><trkpt lat="44.8751833" lon="8.28033"><ele>119.19999999999999</ele><time>2026-04-25T17:07:45.995Z</time></trkpt><trkpt lat="44.8751417" lon="8.2804767"><ele>117.8</ele><time>2026-04-25T17:07:46.993Z</time></trkpt><trkpt lat="44.8750733" lon="8.2805783"><ele>116.4</ele><time>2026-04-25T17:07:47.997Z</time></trkpt><trkpt lat="44.875005" lon="8.280675"><ele>115.0</ele><time>2026-04-25T17:07:49.002Z</time></trkpt><trkpt lat="44.8749333" lon="8.2807483"><ele>114.2</ele><time>2026-04-25T17:07:49.995Z</time></trkpt><trkpt lat="44.8748683" lon="8.2808033"><ele>113.4</ele><time>2026-04-25T17:07:50.996Z</time></trkpt><trkpt lat="44.8747783" lon="8.280905"><ele>112.6</ele><time>2026-04-25T17:07:52.992Z</time></trkpt><trkpt lat="44.87476" lon="8.2810467"><ele>111.8</ele><time>2026-04-25T17:07:54.995Z</time></trkpt><trkpt lat="44.8748267" lon="8.2811917"><ele>111.0</ele><time>2026-04-25T17:07:56.998Z</time></trkpt><trkpt lat="44.874885" lon="8.2812467"><ele>111.0</ele><time>2026-04-25T17:07:57.999Z</time></trkpt><trkpt lat="44.8749483" lon="8.2812833"><ele>111.0</ele><time>2026-04-25T17:07:58.995Z</time></trkpt><trkpt lat="44.8750183" lon="8.281315"><ele>111.0</ele><time>2026-04-25T17:07:59.995Z</time></trkpt><trkpt lat="44.8751083" lon="8.2813233"><ele>111.0</ele><time>2026-04-25T17:08:00.996Z</time></trkpt><trkpt lat="44.8752" lon="8.2813283"><ele>111.0</ele><time>2026-04-25T17:08:01.994Z</time></trkpt><trkpt lat="44.8753133" lon="8.2813467"><ele>111.0</ele><time>2026-04-25T17:08:02.993Z</time></trkpt><trkpt lat="44.87543" lon="8.2813833"><ele>110.19999999999999</ele><time>2026-04-25T17:08:03.999Z</time></trkpt><trkpt lat="44.8755217" lon="8.2814467"><ele>109.39999999999999</ele><time>2026-04-25T17:08:04.996Z</time></trkpt><trkpt lat="44.875605" lon="8.28153"><ele>108.6</ele><time>2026-04-25T17:08:05.998Z</time></trkpt><trkpt lat="44.87568" lon="8.2816317"><ele>107.8</ele><time>2026-04-25T17:08:06.997Z</time></trkpt><trkpt lat="44.87576" lon="8.281735"><ele>107.0</ele><time>2026-04-25T17:08:08Z</time></trkpt><trkpt lat="44.8758167" lon="8.28186"><ele>107.0</ele><time>2026-04-25T17:08:08.999Z</time></trkpt><trkpt lat="44.8758417" lon="8.2820017"><ele>106.99999999999999</ele><time>2026-04-25T17:08:09.995Z</time></trkpt><trkpt lat="44.87586" lon="8.2821517"><ele>106.99999999999999</ele><time>2026-04-25T17:08:10.996Z</time></trkpt><trkpt lat="44.875875" lon="8.2823033"><ele>107.0</ele><time>2026-04-25T17:08:11.991Z</time></trkpt><trkpt lat="44.8758883" lon="8.2824633"><ele>107.0</ele><time>2026-04-25T17:08:12.999Z</time></trkpt><trkpt lat="44.8759017" lon="8.2826317"><ele>107.25</ele><time>2026-04-25T17:08:13.998Z</time></trkpt><trkpt lat="44.875915" lon="8.28281"><ele>107.5</ele><time>2026-04-25T17:08:15.001Z</time></trkpt><trkpt lat="44.8759283" lon="8.283"><ele>107.75</ele><time>2026-04-25T17:08:15.996Z</time></trkpt><trkpt lat="44.875945" lon="8.283195"><ele>108.0</ele><time>2026-04-25T17:08:17.002Z</time></trkpt><trkpt lat="44.8759567" lon="8.2833983"><ele>107.25</ele><time>2026-04-25T17:08:17.997Z</time></trkpt><trkpt lat="44.8759733" lon="8.283605"><ele>106.5</ele><time>2026-04-25T17:08:18.994Z</time></trkpt><trkpt lat="44.8759983" lon="8.2838133"><ele>105.75</ele><time>2026-04-25T17:08:19.995Z</time></trkpt><trkpt lat="44.876025" lon="8.2840133"><ele>105.0</ele><time>2026-04-25T17:08:20.995Z</time></trkpt><trkpt lat="44.8760567" lon="8.2842033"><ele>105.0</ele><time>2026-04-25T17:08:21.996Z</time></trkpt><trkpt lat="44.87609" lon="8.2843883"><ele>105.0</ele><time>2026-04-25T17:08:22.991Z</time></trkpt><trkpt lat="44.8761183" lon="8.2845683"><ele>105.0</ele><time>2026-04-25T17:08:23.994Z</time></trkpt><trkpt lat="44.8761517" lon="8.2847417"><ele>105.0</ele><time>2026-04-25T17:08:24.994Z</time></trkpt><trkpt lat="44.876185" lon="8.2849083"><ele>105.0</ele><time>2026-04-25T17:08:25.994Z</time></trkpt><trkpt lat="44.87622" lon="8.2850717"><ele>105.0</ele><time>2026-04-25T17:08:26.995Z</time></trkpt><trkpt lat="44.8762533" lon="8.28523"><ele>105.0</ele><time>2026-04-25T17:08:27.997Z</time></trkpt><trkpt lat="44.8762883" lon="8.285375"><ele>105.0</ele><time>2026-04-25T17:08:28.996Z</time></trkpt><trkpt lat="44.8763183" lon="8.2855233"><ele>105.0</ele><time>2026-04-25T17:08:29.998Z</time></trkpt><trkpt lat="44.8763467" lon="8.2856817"><ele>105.0</ele><time>2026-04-25T17:08:30.997Z</time></trkpt><trkpt lat="44.8763717" lon="8.28585"><ele>105.0</ele><time>2026-04-25T17:08:31.994Z</time></trkpt><trkpt lat="44.8763883" lon="8.28603"><ele>105.0</ele><time>2026-04-25T17:08:32.998Z</time></trkpt><trkpt lat="44.876395" lon="8.2862133"><ele>105.0</ele><time>2026-04-25T17:08:33.996Z</time></trkpt><trkpt lat="44.8764067" lon="8.2864033"><ele>105.0</ele><time>2026-04-25T17:08:34.998Z</time></trkpt><trkpt lat="44.8764217" lon="8.286605"><ele>105.0</ele><time>2026-04-25T17:08:35.997Z</time></trkpt><trkpt lat="44.87644" lon="8.28681"><ele>105.0</ele><time>2026-04-25T17:08:36.998Z</time></trkpt><trkpt lat="44.8764633" lon="8.287025"><ele>105.66666666666666</ele><time>2026-04-25T17:08:37.992Z</time></trkpt><trkpt lat="44.8764917" lon="8.28724"><ele>106.33333333333333</ele><time>2026-04-25T17:08:39.001Z</time></trkpt><trkpt lat="44.8765317" lon="8.2874517"><ele>107.0</ele><time>2026-04-25T17:08:39.991Z</time></trkpt><trkpt lat="44.8765817" lon="8.2876617"><ele>107.33333333333333</ele><time>2026-04-25T17:08:40.993Z</time></trkpt><trkpt lat="44.876645" lon="8.287865"><ele>107.66666666666666</ele><time>2026-04-25T17:08:41.995Z</time></trkpt><trkpt lat="44.876705" lon="8.28806"><ele>108.0</ele><time>2026-04-25T17:08:42.994Z</time></trkpt><trkpt lat="44.876765" lon="8.288255"><ele>108.0</ele><time>2026-04-25T17:08:44Z</time></trkpt><trkpt lat="44.87683" lon="8.2884467"><ele>108.0</ele><time>2026-04-25T17:08:44.995Z</time></trkpt><trkpt lat="44.8769067" lon="8.2886233"><ele>108.0</ele><time>2026-04-25T17:08:45.993Z</time></trkpt><trkpt lat="44.8769683" lon="8.2888117"><ele>108.0</ele><time>2026-04-25T17:08:46.993Z</time></trkpt><trkpt lat="44.877025" lon="8.2889967"><ele>108.0</ele><time>2026-04-25T17:08:47.995Z</time></trkpt><trkpt lat="44.8770633" lon="8.289185"><ele>108.0</ele><time>2026-04-25T17:08:48.997Z</time></trkpt><trkpt lat="44.8770917" lon="8.2893767"><ele>108.0</ele><time>2026-04-25T17:08:49.999Z</time></trkpt><trkpt lat="44.8771167" lon="8.2895767"><ele>108.0</ele><time>2026-04-25T17:08:50.999Z</time></trkpt><trkpt lat="44.8771367" lon="8.2897867"><ele>107.33333333333334</ele><time>2026-04-25T17:08:52Z</time></trkpt><trkpt lat="44.8771517" lon="8.290005"><ele>106.66666666666667</ele><time>2026-04-25T17:08:52.999Z</time></trkpt><trkpt lat="44.8771667" lon="8.2902317"><ele>106.0</ele><time>2026-04-25T17:08:53.998Z</time></trkpt><trkpt lat="44.8771833" lon="8.2904583"><ele>106.0</ele><time>2026-04-25T17:08:54.999Z</time></trkpt><trkpt lat="44.8771983" lon="8.2906833"><ele>106.0</ele><time>2026-04-25T17:08:55.997Z</time></trkpt><trkpt lat="44.8772083" lon="8.2908983"><ele>106.0</ele><time>2026-04-25T17:08:57Z</time></trkpt><trkpt lat="44.87722" lon="8.29111"><ele>106.0</ele><time>2026-04-25T17:08:58Z</time></trkpt><trkpt lat="44.8772383" lon="8.291315"><ele>106.0</ele><time>2026-04-25T17:08:58.999Z</time></trkpt><trkpt lat="44.8772667" lon="8.29151"><ele>106.0</ele><time>2026-04-25T17:08:59.994Z</time></trkpt><trkpt lat="44.8773083" lon="8.2916967"><ele>106.0</ele><time>2026-04-25T17:09:00.996Z</time></trkpt><trkpt lat="44.8773517" lon="8.291875"><ele>106.0</ele><time>2026-04-25T17:09:02Z</time></trkpt><trkpt lat="44.8773883" lon="8.2920417"><ele>106.0</ele><time>2026-04-25T17:09:02.996Z</time></trkpt><trkpt lat="44.8774183" lon="8.29219"><ele>106.0</ele><time>2026-04-25T17:09:03.997Z</time></trkpt><trkpt lat="44.8774383" lon="8.2923183"><ele>106.0</ele><time>2026-04-25T17:09:04.996Z</time></trkpt><trkpt lat="44.87745" lon="8.292435"><ele>106.0</ele><time>2026-04-25T17:09:05.996Z</time></trkpt><trkpt lat="44.8774483" lon="8.2925417"><ele>106.0</ele><time>2026-04-25T17:09:06.995Z</time></trkpt><trkpt lat="44.87743" lon="8.2926383"><ele>106.0</ele><time>2026-04-25T17:09:07.995Z</time></trkpt><trkpt lat="44.8773517" lon="8.2927083"><ele>106.0</ele><time>2026-04-25T17:09:08.999Z</time></trkpt><trkpt lat="44.8772733" lon="8.292775"><ele>106.0</ele><time>2026-04-25T17:09:10.001Z</time></trkpt><trkpt lat="44.8771917" lon="8.2928483"><ele>106.0</ele><time>2026-04-25T17:09:10.997Z</time></trkpt><trkpt lat="44.8770983" lon="8.2929217"><ele>106.0</ele><time>2026-04-25T17:09:12.001Z</time></trkpt><trkpt lat="44.877" lon="8.2930017"><ele>106.0</ele><time>2026-04-25T17:09:12.993Z</time></trkpt><trkpt lat="44.8768933" lon="8.29309"><ele>106.0</ele><time>2026-04-25T17:09:14Z</time></trkpt><trkpt lat="44.8767817" lon="8.2931767"><ele>106.0</ele><time>2026-04-25T17:09:15Z</time></trkpt><trkpt lat="44.8766617" lon="8.293275"><ele>106.0</ele><time>2026-04-25T17:09:15.995Z</time></trkpt><trkpt lat="44.876545" lon="8.2933783"><ele>106.0</ele><time>2026-04-25T17:09:17Z</time></trkpt><trkpt lat="44.876435" lon="8.293465"><ele>106.0</ele><time>2026-04-25T17:09:17.999Z</time></trkpt><trkpt lat="44.8763383" lon="8.2935417"><ele>106.0</ele><time>2026-04-25T17:09:18.997Z</time></trkpt><trkpt lat="44.8762617" lon="8.2936133"><ele>106.00000000000001</ele><time>2026-04-25T17:09:19.996Z</time></trkpt><trkpt lat="44.8762083" lon="8.2936983"><ele>106.0</ele><time>2026-04-25T17:09:21.003Z</time></trkpt><trkpt lat="44.8761583" lon="8.2938067"><ele>106.0</ele><time>2026-04-25T17:09:22Z</time></trkpt><trkpt lat="44.8761383" lon="8.2939183"><ele>106.0</ele><time>2026-04-25T17:09:22.996Z</time></trkpt><trkpt lat="44.8761383" lon="8.29404"><ele>106.00000000000001</ele><time>2026-04-25T17:09:23.996Z</time></trkpt><trkpt lat="44.8761667" lon="8.2941883"><ele>106.0</ele><time>2026-04-25T17:09:25.001Z</time></trkpt><trkpt lat="44.8762133" lon="8.2943433"><ele>106.0</ele><time>2026-04-25T17:09:26.002Z</time></trkpt><trkpt lat="44.87625" lon="8.294505"><ele>106.0</ele><time>2026-04-25T17:09:27Z</time></trkpt><trkpt lat="44.87629" lon="8.2946717"><ele>106.0</ele><time>2026-04-25T17:09:27.994Z</time></trkpt><trkpt lat="44.87633" lon="8.2948483"><ele>106.0</ele><time>2026-04-25T17:09:28.996Z</time></trkpt><trkpt lat="44.8763717" lon="8.2950233"><ele>106.19999999999999</ele><time>2026-04-25T17:09:30Z</time></trkpt><trkpt lat="44.876415" lon="8.2952033"><ele>106.39999999999999</ele><time>2026-04-25T17:09:30.999Z</time></trkpt><trkpt lat="44.876455" lon="8.2953733"><ele>106.6</ele><time>2026-04-25T17:09:32Z</time></trkpt><trkpt lat="44.87649" lon="8.2955133"><ele>106.8</ele><time>2026-04-25T17:09:32.997Z</time></trkpt><trkpt lat="44.8765133" lon="8.29562"><ele>107.0</ele><time>2026-04-25T17:09:33.996Z</time></trkpt><trkpt lat="44.8765417" lon="8.2957733"><ele>107.0</ele><time>2026-04-25T17:09:35.998Z</time></trkpt><trkpt lat="44.8764633" lon="8.2958633"><ele>106.99999999999999</ele><time>2026-04-25T17:09:37.995Z</time></trkpt><trkpt lat="44.8763983" lon="8.2959067"><ele>106.99999999999999</ele><time>2026-04-25T17:09:38.996Z</time></trkpt><trkpt lat="44.8763083" lon="8.2959433"><ele>107.0</ele><time>2026-04-25T17:09:39.992Z</time></trkpt><trkpt lat="44.8762117" lon="8.295985"><ele>107.0</ele><time>2026-04-25T17:09:40.991Z</time></trkpt><trkpt lat="44.87609" lon="8.296025"><ele>107.0</ele><time>2026-04-25T17:09:41.997Z</time></trkpt><trkpt lat="44.8759683" lon="8.2960717"><ele>107.0</ele><time>2026-04-25T17:09:42.995Z</time></trkpt><trkpt lat="44.8758517" lon="8.2961167"><ele>107.0</ele><time>2026-04-25T17:09:43.995Z</time></trkpt><trkpt lat="44.875735" lon="8.2961667"><ele>107.0</ele><time>2026-04-25T17:09:44.998Z</time></trkpt><trkpt lat="44.87562" lon="8.2962233"><ele>107.25</ele><time>2026-04-25T17:09:45.996Z</time></trkpt><trkpt lat="44.8755033" lon="8.2962817"><ele>107.5</ele><time>2026-04-25T17:09:46.993Z</time></trkpt><trkpt lat="44.87538" lon="8.2963333"><ele>107.75</ele><time>2026-04-25T17:09:47.998Z</time></trkpt><trkpt lat="44.8752583" lon="8.296385"><ele>108.0</ele><time>2026-04-25T17:09:48.997Z</time></trkpt><trkpt lat="44.8751333" lon="8.2964333"><ele>109.4</ele><time>2026-04-25T17:09:49.996Z</time></trkpt><trkpt lat="44.8750133" lon="8.2964733"><ele>110.80000000000001</ele><time>2026-04-25T17:09:50.996Z</time></trkpt><trkpt lat="44.8749" lon="8.2965067"><ele>112.2</ele><time>2026-04-25T17:09:51.999Z</time></trkpt><trkpt lat="44.8747983" lon="8.296535"><ele>113.6</ele><time>2026-04-25T17:09:52.995Z</time></trkpt><trkpt lat="44.8747167" lon="8.296555"><ele>115.0</ele><time>2026-04-25T17:09:53.997Z</time></trkpt><trkpt lat="44.8746467" lon="8.2965767"><ele>115.00000000000001</ele><time>2026-04-25T17:09:54.999Z</time></trkpt><trkpt lat="44.87456" lon="8.2966267"><ele>115.0</ele><time>2026-04-25T17:09:56.999Z</time></trkpt><trkpt lat="44.87457" lon="8.2967417"><ele>115.0</ele><time>2026-04-25T17:10:02.995Z</time></trkpt><trkpt lat="44.8745783" lon="8.29683"><ele>115.0</ele><time>2026-04-25T17:10:03.999Z</time></trkpt><trkpt lat="44.8745833" lon="8.2969283"><ele>115.00000000000001</ele><time>2026-04-25T17:10:04.995Z</time></trkpt><trkpt lat="44.8745917" lon="8.2970467"><ele>115.0</ele><time>2026-04-25T17:10:05.995Z</time></trkpt><trkpt lat="44.8746" lon="8.29717"><ele>113.8</ele><time>2026-04-25T17:10:06.999Z</time></trkpt><trkpt lat="44.8746067" lon="8.2973017"><ele>112.6</ele><time>2026-04-25T17:10:07.995Z</time></trkpt><trkpt lat="44.8746133" lon="8.2974333"><ele>111.4</ele><time>2026-04-25T17:10:08.998Z</time></trkpt><trkpt lat="44.8746283" lon="8.29758"><ele>110.2</ele><time>2026-04-25T17:10:09.995Z</time></trkpt><trkpt lat="44.874645" lon="8.2977283"><ele>109.0</ele><time>2026-04-25T17:10:10.993Z</time></trkpt><trkpt lat="44.8746867" lon="8.297905"><ele>109.0</ele><time>2026-04-25T17:10:11.998Z</time></trkpt><trkpt lat="44.8747367" lon="8.2980733"><ele>109.0</ele><time>2026-04-25T17:10:12.999Z</time></trkpt><trkpt lat="44.874785" lon="8.2982417"><ele>109.0</ele><time>2026-04-25T17:10:13.994Z</time></trkpt><trkpt lat="44.8748567" lon="8.2984217"><ele>109.0</ele><time>2026-04-25T17:10:15.004Z</time></trkpt><trkpt lat="44.87492" lon="8.2986117"><ele>108.33333333333334</ele><time>2026-04-25T17:10:16Z</time></trkpt><trkpt lat="44.8749883" lon="8.2988033"><ele>107.66666666666666</ele><time>2026-04-25T17:10:16.996Z</time></trkpt><trkpt lat="44.875055" lon="8.2989983"><ele>107.0</ele><time>2026-04-25T17:10:17.999Z</time></trkpt><trkpt lat="44.8751233" lon="8.2991917"><ele>107.0</ele><time>2026-04-25T17:10:18.997Z</time></trkpt><trkpt lat="44.8751933" lon="8.299385"><ele>107.0</ele><time>2026-04-25T17:10:20.003Z</time></trkpt><trkpt lat="44.8752683" lon="8.2995883"><ele>107.0</ele><time>2026-04-25T17:10:20.997Z</time></trkpt><trkpt lat="44.8753433" lon="8.299795"><ele>107.0</ele><time>2026-04-25T17:10:21.994Z</time></trkpt><trkpt lat="44.875415" lon="8.300005"><ele>107.0</ele><time>2026-04-25T17:10:22.995Z</time></trkpt><trkpt lat="44.8754867" lon="8.3002133"><ele>107.0</ele><time>2026-04-25T17:10:23.995Z</time></trkpt><trkpt lat="44.8755567" lon="8.3004117"><ele>107.33333333333333</ele><time>2026-04-25T17:10:25Z</time></trkpt><trkpt lat="44.8756267" lon="8.3006133"><ele>107.66666666666666</ele><time>2026-04-25T17:10:25.997Z</time></trkpt><trkpt lat="44.8756983" lon="8.3008117"><ele>108.0</ele><time>2026-04-25T17:10:26.995Z</time></trkpt><trkpt lat="44.8757683" lon="8.3009933"><ele>108.0</ele><time>2026-04-25T17:10:28Z</time></trkpt><trkpt lat="44.8758317" lon="8.3011817"><ele>108.0</ele><time>2026-04-25T17:10:29Z</time></trkpt><trkpt lat="44.8758933" lon="8.3013683"><ele>108.0</ele><time>2026-04-25T17:10:29.996Z</time></trkpt><trkpt lat="44.8759533" lon="8.3015467"><ele>108.0</ele><time>2026-04-25T17:10:30.996Z</time></trkpt><trkpt lat="44.8760167" lon="8.3017217"><ele>108.0</ele><time>2026-04-25T17:10:31.998Z</time></trkpt><trkpt lat="44.8760767" lon="8.3019033"><ele>108.0</ele><time>2026-04-25T17:10:33.001Z</time></trkpt><trkpt lat="44.87614" lon="8.3020767"><ele>108.0</ele><time>2026-04-25T17:10:34.003Z</time></trkpt><trkpt lat="44.8762033" lon="8.30225"><ele>108.0</ele><time>2026-04-25T17:10:34.995Z</time></trkpt><trkpt lat="44.8762717" lon="8.3024167"><ele>108.0</ele><time>2026-04-25T17:10:35.996Z</time></trkpt><trkpt lat="44.87634" lon="8.3025783"><ele>108.0</ele><time>2026-04-25T17:10:36.997Z</time></trkpt><trkpt lat="44.87641" lon="8.3027433"><ele>108.0</ele><time>2026-04-25T17:10:37.998Z</time></trkpt><trkpt lat="44.876475" lon="8.3029"><ele>108.0</ele><time>2026-04-25T17:10:38.996Z</time></trkpt><trkpt lat="44.87655" lon="8.3030533"><ele>108.0</ele><time>2026-04-25T17:10:40Z</time></trkpt><trkpt lat="44.876625" lon="8.303195"><ele>108.0</ele><time>2026-04-25T17:10:40.997Z</time></trkpt><trkpt lat="44.8767" lon="8.3033433"><ele>108.0</ele><time>2026-04-25T17:10:41.997Z</time></trkpt><trkpt lat="44.8767767" lon="8.30349"><ele>108.0</ele><time>2026-04-25T17:10:42.997Z</time></trkpt><trkpt lat="44.87685" lon="8.303635"><ele>107.5</ele><time>2026-04-25T17:10:43.998Z</time></trkpt><trkpt lat="44.8769267" lon="8.3037833"><ele>107.0</ele><time>2026-04-25T17:10:44.999Z</time></trkpt><trkpt lat="44.8770017" lon="8.3039333"><ele>106.5</ele><time>2026-04-25T17:10:45.996Z</time></trkpt><trkpt lat="44.8770767" lon="8.3040867"><ele>106.0</ele><time>2026-04-25T17:10:46.996Z</time></trkpt><trkpt lat="44.8771517" lon="8.3042417"><ele>106.0</ele><time>2026-04-25T17:10:47.998Z</time></trkpt><trkpt lat="44.8772233" lon="8.3043967"><ele>106.0</ele><time>2026-04-25T17:10:48.997Z</time></trkpt><trkpt lat="44.877295" lon="8.30455"><ele>106.0</ele><time>2026-04-25T17:10:49.998Z</time></trkpt><trkpt lat="44.8773667" lon="8.304705"><ele>106.0</ele><time>2026-04-25T17:10:50.997Z</time></trkpt><trkpt lat="44.8774383" lon="8.3048533"><ele>106.0</ele><time>2026-04-25T17:10:51.998Z</time></trkpt><trkpt lat="44.8775167" lon="8.304995"><ele>106.0</ele><time>2026-04-25T17:10:52.996Z</time></trkpt><trkpt lat="44.8775983" lon="8.3051217"><ele>106.0</ele><time>2026-04-25T17:10:53.997Z</time></trkpt><trkpt lat="44.8776867" lon="8.3052317"><ele>106.0</ele><time>2026-04-25T17:10:55Z</time></trkpt><trkpt lat="44.8777817" lon="8.3053317"><ele>106.5</ele><time>2026-04-25T17:10:55.995Z</time></trkpt><trkpt lat="44.877885" lon="8.305425"><ele>107.0</ele><time>2026-04-25T17:10:56.999Z</time></trkpt><trkpt lat="44.8779933" lon="8.3055033"><ele>107.5</ele><time>2026-04-25T17:10:57.994Z</time></trkpt><trkpt lat="44.8781067" lon="8.30557"><ele>108.0</ele><time>2026-04-25T17:10:58.998Z</time></trkpt><trkpt lat="44.8782233" lon="8.305615"><ele>107.0</ele><time>2026-04-25T17:10:59.997Z</time></trkpt><trkpt lat="44.8783483" lon="8.305655"><ele>106.0</ele><time>2026-04-25T17:11:00.996Z</time></trkpt><trkpt lat="44.878465" lon="8.3056883"><ele>105.0</ele><time>2026-04-25T17:11:01.998Z</time></trkpt><trkpt lat="44.8785867" lon="8.30573"><ele>104.0</ele><time>2026-04-25T17:11:02.998Z</time></trkpt><trkpt lat="44.8787117" lon="8.3057667"><ele>102.5</ele><time>2026-04-25T17:11:03.995Z</time></trkpt><trkpt lat="44.8788367" lon="8.305805"><ele>101.0</ele><time>2026-04-25T17:11:04.996Z</time></trkpt><trkpt lat="44.8789633" lon="8.30584"><ele>99.5</ele><time>2026-04-25T17:11:05.997Z</time></trkpt><trkpt lat="44.879095" lon="8.3058683"><ele>98.0</ele><time>2026-04-25T17:11:06.997Z</time></trkpt><trkpt lat="44.8792283" lon="8.3059017"><ele>99.0</ele><time>2026-04-25T17:11:07.995Z</time></trkpt><trkpt lat="44.879365" lon="8.30594"><ele>100.0</ele><time>2026-04-25T17:11:08.997Z</time></trkpt><trkpt lat="44.8795067" lon="8.3059817"><ele>101.0</ele><time>2026-04-25T17:11:09.998Z</time></trkpt><trkpt lat="44.8796517" lon="8.3060183"><ele>102.0</ele><time>2026-04-25T17:11:10.997Z</time></trkpt><trkpt lat="44.8798033" lon="8.3060533"><ele>102.0</ele><time>2026-04-25T17:11:11.997Z</time></trkpt><trkpt lat="44.8799517" lon="8.3060917"><ele>102.0</ele><time>2026-04-25T17:11:13.003Z</time></trkpt><trkpt lat="44.8800983" lon="8.3061317"><ele>102.0</ele><time>2026-04-25T17:11:13.996Z</time></trkpt><trkpt lat="44.88024" lon="8.3061717"><ele>102.0</ele><time>2026-04-25T17:11:15Z</time></trkpt><trkpt lat="44.8803767" lon="8.30621"><ele>103.0</ele><time>2026-04-25T17:11:15.999Z</time></trkpt><trkpt lat="44.8805117" lon="8.306245"><ele>104.0</ele><time>2026-04-25T17:11:16.995Z</time></trkpt><trkpt lat="44.88065" lon="8.3062783"><ele>105.0</ele><time>2026-04-25T17:11:17.996Z</time></trkpt><trkpt lat="44.8807867" lon="8.3063167"><ele>106.0</ele><time>2026-04-25T17:11:18.995Z</time></trkpt><trkpt lat="44.8809217" lon="8.3063567"><ele>105.75</ele><time>2026-04-25T17:11:19.995Z</time></trkpt><trkpt lat="44.8810583" lon="8.3064"><ele>105.5</ele><time>2026-04-25T17:11:20.995Z</time></trkpt><trkpt lat="44.881185" lon="8.30645"><ele>105.25</ele><time>2026-04-25T17:11:21.998Z</time></trkpt><trkpt lat="44.881305" lon="8.3065133"><ele>105.0</ele><time>2026-04-25T17:11:22.995Z</time></trkpt><trkpt lat="44.8814183" lon="8.3065833"><ele>105.0</ele><time>2026-04-25T17:11:23.996Z</time></trkpt><trkpt lat="44.881525" lon="8.30665"><ele>105.0</ele><time>2026-04-25T17:11:24.999Z</time></trkpt><trkpt lat="44.881625" lon="8.30672"><ele>105.0</ele><time>2026-04-25T17:11:25.994Z</time></trkpt><trkpt lat="44.8817167" lon="8.306795"><ele>105.0</ele><time>2026-04-25T17:11:27Z</time></trkpt><trkpt lat="44.8818" lon="8.3068633"><ele>105.0</ele><time>2026-04-25T17:11:27.999Z</time></trkpt><trkpt lat="44.881875" lon="8.30693"><ele>105.0</ele><time>2026-04-25T17:11:29Z</time></trkpt><trkpt lat="44.8819417" lon="8.3070017"><ele>105.0</ele><time>2026-04-25T17:11:29.996Z</time></trkpt><trkpt lat="44.8819983" lon="8.3070867"><ele>105.0</ele><time>2026-04-25T17:11:30.998Z</time></trkpt><trkpt lat="44.8820417" lon="8.3071817"><ele>105.0</ele><time>2026-04-25T17:11:31.996Z</time></trkpt><trkpt lat="44.8820667" lon="8.3072783"><ele>105.0</ele><time>2026-04-25T17:11:32.998Z</time></trkpt><trkpt lat="44.8820767" lon="8.3073867"><ele>105.0</ele><time>2026-04-25T17:11:33.998Z</time></trkpt><trkpt lat="44.88207" lon="8.307495"><ele>104.6</ele><time>2026-04-25T17:11:34.995Z</time></trkpt><trkpt lat="44.882045" lon="8.3076"><ele>104.2</ele><time>2026-04-25T17:11:35.996Z</time></trkpt><trkpt lat="44.8819883" lon="8.3077183"><ele>103.80000000000001</ele><time>2026-04-25T17:11:36.998Z</time></trkpt><trkpt lat="44.8819217" lon="8.3078417"><ele>103.4</ele><time>2026-04-25T17:11:37.999Z</time></trkpt><trkpt lat="44.8818317" lon="8.30798"><ele>103.0</ele><time>2026-04-25T17:11:38.999Z</time></trkpt><trkpt lat="44.8817483" lon="8.308115"><ele>104.25</ele><time>2026-04-25T17:11:39.996Z</time></trkpt><trkpt lat="44.8816733" lon="8.308255"><ele>105.5</ele><time>2026-04-25T17:11:40.997Z</time></trkpt><trkpt lat="44.881595" lon="8.3083983"><ele>106.75</ele><time>2026-04-25T17:11:41.995Z</time></trkpt><trkpt lat="44.881505" lon="8.30855"><ele>108.0</ele><time>2026-04-25T17:11:42.998Z</time></trkpt><trkpt lat="44.881415" lon="8.308695"><ele>108.0</ele><time>2026-04-25T17:11:44.004Z</time></trkpt><trkpt lat="44.8813233" lon="8.308845"><ele>108.0</ele><time>2026-04-25T17:11:44.994Z</time></trkpt><trkpt lat="44.881245" lon="8.30899"><ele>108.0</ele><time>2026-04-25T17:11:46.001Z</time></trkpt><trkpt lat="44.8811633" lon="8.3091367"><ele>108.0</ele><time>2026-04-25T17:11:46.993Z</time></trkpt><trkpt lat="44.8810917" lon="8.309275"><ele>108.0</ele><time>2026-04-25T17:11:47.997Z</time></trkpt><trkpt lat="44.8810167" lon="8.3094083"><ele>108.0</ele><time>2026-04-25T17:11:48.999Z</time></trkpt><trkpt lat="44.8809483" lon="8.30953"><ele>108.0</ele><time>2026-04-25T17:11:50.001Z</time></trkpt><trkpt lat="44.8808833" lon="8.3096467"><ele>108.0</ele><time>2026-04-25T17:11:50.998Z</time></trkpt><trkpt lat="44.880815" lon="8.3097783"><ele>108.4</ele><time>2026-04-25T17:11:52Z</time></trkpt><trkpt lat="44.8807533" lon="8.3099017"><ele>108.80000000000001</ele><time>2026-04-25T17:11:52.999Z</time></trkpt><trkpt lat="44.88068" lon="8.31002"><ele>109.2</ele><time>2026-04-25T17:11:53.995Z</time></trkpt><trkpt lat="44.8805983" lon="8.310125"><ele>109.6</ele><time>2026-04-25T17:11:54.996Z</time></trkpt><trkpt lat="44.8805217" lon="8.3102283"><ele>110.0</ele><time>2026-04-25T17:11:55.996Z</time></trkpt><trkpt lat="44.8804333" lon="8.3103133"><ele>110.0</ele><time>2026-04-25T17:11:56.997Z</time></trkpt><trkpt lat="44.8803317" lon="8.3103883"><ele>110.0</ele><time>2026-04-25T17:11:57.994Z</time></trkpt><trkpt lat="44.8802367" lon="8.3104583"><ele>110.0</ele><time>2026-04-25T17:11:58.998Z</time></trkpt><trkpt lat="44.8801467" lon="8.3105217"><ele>110.0</ele><time>2026-04-25T17:11:59.997Z</time></trkpt><trkpt lat="44.8800667" lon="8.3105733"><ele>110.0</ele><time>2026-04-25T17:12:00.998Z</time></trkpt><trkpt lat="44.8800067" lon="8.3106317"><ele>110.49999999999999</ele><time>2026-04-25T17:12:01.996Z</time></trkpt><trkpt lat="44.879925" lon="8.31071"><ele>111.0</ele><time>2026-04-25T17:12:03.996Z</time></trkpt><trkpt lat="44.879865" lon="8.3108"><ele>111.5</ele><time>2026-04-25T17:12:07Z</time></trkpt><trkpt lat="44.8798183" lon="8.3108983"><ele>112.0</ele><time>2026-04-25T17:12:08.995Z</time></trkpt><trkpt lat="44.8797867" lon="8.311005"><ele>112.49999999999999</ele><time>2026-04-25T17:12:10.993Z</time></trkpt><trkpt lat="44.87977" lon="8.311105"><ele>113.0</ele><time>2026-04-25T17:12:12.998Z</time></trkpt><trkpt lat="44.87976" lon="8.3112033"><ele>112.99999999999999</ele><time>2026-04-25T17:12:14.998Z</time></trkpt><trkpt lat="44.8797433" lon="8.3113233"><ele>113.0</ele><time>2026-04-25T17:12:16.997Z</time></trkpt><trkpt lat="44.8797183" lon="8.31143"><ele>113.0</ele><time>2026-04-25T17:12:18.994Z</time></trkpt><trkpt lat="44.879665" lon="8.3115133"><ele>113.0</ele><time>2026-04-25T17:12:22Z</time></trkpt><trkpt lat="44.87957" lon="8.31151"><ele>112.99999999999999</ele><time>2026-04-25T17:12:23.997Z</time></trkpt><trkpt lat="44.8794733" lon="8.31155"><ele>113.0</ele><time>2026-04-25T17:12:25.997Z</time></trkpt><trkpt lat="44.87939" lon="8.3116583"><ele>113.16666666666666</ele><time>2026-04-25T17:12:27.998Z</time></trkpt><trkpt lat="44.8793333" lon="8.3117667"><ele>113.33333333333333</ele><time>2026-04-25T17:12:29.996Z</time></trkpt><trkpt lat="44.8792883" lon="8.3118633"><ele>113.5</ele><time>2026-04-25T17:12:32.996Z</time></trkpt><trkpt lat="44.8792533" lon="8.311965"><ele>113.66666666666666</ele><time>2026-04-25T17:12:34.995Z</time></trkpt><trkpt lat="44.8792117" lon="8.3120717"><ele>113.83333333333333</ele><time>2026-04-25T17:12:36.994Z</time></trkpt><trkpt lat="44.8791733" lon="8.312195"><ele>114.0</ele><time>2026-04-25T17:12:38.998Z</time></trkpt><trkpt lat="44.879125" lon="8.312325"><ele>113.0</ele><time>2026-04-25T17:12:40.997Z</time></trkpt><trkpt lat="44.87908" lon="8.3124567"><ele>112.0</ele><time>2026-04-25T17:12:43Z</time></trkpt><trkpt lat="44.8790417" lon="8.3125867"><ele>111.0</ele><time>2026-04-25T17:12:45.002Z</time></trkpt><trkpt lat="44.8790217" lon="8.312735"><ele>110.0</ele><time>2026-04-25T17:12:46.999Z</time></trkpt><trkpt lat="44.879045" lon="8.31292"><ele>109.0</ele><time>2026-04-25T17:12:48.996Z</time></trkpt><trkpt lat="44.879085" lon="8.3130517"><ele>109.16666666666667</ele><time>2026-04-25T17:12:50.996Z</time></trkpt><trkpt lat="44.8791233" lon="8.3131383"><ele>109.33333333333334</ele><time>2026-04-25T17:12:52.994Z</time></trkpt><trkpt lat="44.8792" lon="8.3131933"><ele>109.5</ele><time>2026-04-25T17:12:55.996Z</time></trkpt><trkpt lat="44.8792" lon="8.3133183"><ele>109.66666666666666</ele><time>2026-04-25T17:12:58.993Z</time></trkpt><trkpt lat="44.8791533" lon="8.3134317"><ele>109.83333333333333</ele><time>2026-04-25T17:13:02Z</time></trkpt><trkpt lat="44.8791383" lon="8.3135183"><ele>110.0</ele><time>2026-04-25T17:13:03.994Z</time></trkpt><trkpt lat="44.87906" lon="8.3136783"><ele>109.99999999999999</ele><time>2026-04-25T17:13:05.998Z</time></trkpt><trkpt lat="44.8790083" lon="8.313775"><ele>110.0</ele><time>2026-04-25T17:13:06.992Z</time></trkpt><trkpt lat="44.8789733" lon="8.3138717"><ele>110.0</ele><time>2026-04-25T17:13:07.998Z</time></trkpt><trkpt lat="44.87894" lon="8.31398"><ele>110.0</ele><time>2026-04-25T17:13:08.998Z</time></trkpt><trkpt lat="44.87893" lon="8.3140783"><ele>109.99999999999999</ele><time>2026-04-25T17:13:09.994Z</time></trkpt><trkpt lat="44.8789433" lon="8.3142183"><ele>110.0</ele><time>2026-04-25T17:13:11.998Z</time></trkpt><trkpt lat="44.8789317" lon="8.31434"><ele>109.83333333333333</ele><time>2026-04-25T17:13:13.995Z</time></trkpt><trkpt lat="44.8789067" lon="8.3144233"><ele>109.66666666666666</ele><time>2026-04-25T17:13:15Z</time></trkpt><trkpt lat="44.8788783" lon="8.3145217"><ele>109.5</ele><time>2026-04-25T17:13:15.994Z</time></trkpt><trkpt lat="44.8788517" lon="8.3146267"><ele>109.33333333333334</ele><time>2026-04-25T17:13:16.992Z</time></trkpt><trkpt lat="44.8788033" lon="8.31475"><ele>109.16666666666667</ele><time>2026-04-25T17:13:17.994Z</time></trkpt><trkpt lat="44.8787667" lon="8.3148917"><ele>109.0</ele><time>2026-04-25T17:13:18.998Z</time></trkpt><trkpt lat="44.8786833" lon="8.3150683"><ele>109.0</ele><time>2026-04-25T17:13:19.993Z</time></trkpt><trkpt lat="44.8786117" lon="8.3152233"><ele>109.0</ele><time>2026-04-25T17:13:20.999Z</time></trkpt><trkpt lat="44.878545" lon="8.3153967"><ele>109.0</ele><time>2026-04-25T17:13:21.995Z</time></trkpt><trkpt lat="44.8784817" lon="8.3155617"><ele>109.0</ele><time>2026-04-25T17:13:22.993Z</time></trkpt><trkpt lat="44.8784183" lon="8.31571"><ele>109.0</ele><time>2026-04-25T17:13:23.994Z</time></trkpt><trkpt lat="44.87837" lon="8.3158533"><ele>109.0</ele><time>2026-04-25T17:13:24.994Z</time></trkpt><trkpt lat="44.8783067" lon="8.316035"><ele>109.0</ele><time>2026-04-25T17:13:25.999Z</time></trkpt><trkpt lat="44.8782533" lon="8.3161917"><ele>109.0</ele><time>2026-04-25T17:13:26.999Z</time></trkpt><trkpt lat="44.8782" lon="8.3163517"><ele>109.25</ele><time>2026-04-25T17:13:27.995Z</time></trkpt><trkpt lat="44.8781417" lon="8.3165"><ele>109.5</ele><time>2026-04-25T17:13:28.992Z</time></trkpt><trkpt lat="44.8780833" lon="8.3166717"><ele>109.75</ele><time>2026-04-25T17:13:29.994Z</time></trkpt><trkpt lat="44.8780167" lon="8.3168367"><ele>110.0</ele><time>2026-04-25T17:13:30.995Z</time></trkpt><trkpt lat="44.87795" lon="8.31701"><ele>110.0</ele><time>2026-04-25T17:13:32Z</time></trkpt><trkpt lat="44.8778883" lon="8.3171767"><ele>110.0</ele><time>2026-04-25T17:13:32.999Z</time></trkpt><trkpt lat="44.8778283" lon="8.3173567"><ele>110.0</ele><time>2026-04-25T17:13:33.994Z</time></trkpt><trkpt lat="44.8777667" lon="8.3175417"><ele>110.0</ele><time>2026-04-25T17:13:34.993Z</time></trkpt><trkpt lat="44.8777" lon="8.317715"><ele>110.25</ele><time>2026-04-25T17:13:36Z</time></trkpt><trkpt lat="44.8776317" lon="8.31789"><ele>110.5</ele><time>2026-04-25T17:13:36.998Z</time></trkpt><trkpt lat="44.8775733" lon="8.3180617"><ele>110.75</ele><time>2026-04-25T17:13:37.995Z</time></trkpt><trkpt lat="44.8775217" lon="8.31823"><ele>111.0</ele><time>2026-04-25T17:13:38.998Z</time></trkpt><trkpt lat="44.8774783" lon="8.3184017"><ele>111.0</ele><time>2026-04-25T17:13:39.997Z</time></trkpt><trkpt lat="44.87745" lon="8.3185717"><ele>111.0</ele><time>2026-04-25T17:13:40.996Z</time></trkpt><trkpt lat="44.877435" lon="8.31874"><ele>111.0</ele><time>2026-04-25T17:13:41.998Z</time></trkpt><trkpt lat="44.8774417" lon="8.318915"><ele>111.0</ele><time>2026-04-25T17:13:43.002Z</time></trkpt><trkpt lat="44.8774583" lon="8.31909"><ele>111.0</ele><time>2026-04-25T17:13:43.993Z</time></trkpt><trkpt lat="44.8774767" lon="8.31927"><ele>111.0</ele><time>2026-04-25T17:13:44.996Z</time></trkpt><trkpt lat="44.877495" lon="8.3194533"><ele>111.0</ele><time>2026-04-25T17:13:45.996Z</time></trkpt><trkpt lat="44.87751" lon="8.3196317"><ele>111.0</ele><time>2026-04-25T17:13:46.996Z</time></trkpt><trkpt lat="44.8775283" lon="8.3197967"><ele>111.0</ele><time>2026-04-25T17:13:47.999Z</time></trkpt><trkpt lat="44.877535" lon="8.3199433"><ele>111.0</ele><time>2026-04-25T17:13:48.998Z</time></trkpt><trkpt lat="44.8775367" lon="8.3200717"><ele>111.0</ele><time>2026-04-25T17:13:49.997Z</time></trkpt><trkpt lat="44.8775517" lon="8.320175"><ele>111.0</ele><time>2026-04-25T17:13:50.996Z</time></trkpt><trkpt lat="44.877575" lon="8.3202667"><ele>111.0</ele><time>2026-04-25T17:13:51.998Z</time></trkpt><trkpt lat="44.87765" lon="8.3203683"><ele>111.0</ele><time>2026-04-25T17:13:53.996Z</time></trkpt><trkpt lat="44.8777833" lon="8.32043"><ele>111.19999999999999</ele><time>2026-04-25T17:13:55.995Z</time></trkpt><trkpt lat="44.8778783" lon="8.3204517"><ele>111.39999999999999</ele><time>2026-04-25T17:13:56.999Z</time></trkpt><trkpt lat="44.87798" lon="8.3204767"><ele>111.6</ele><time>2026-04-25T17:13:58.001Z</time></trkpt><trkpt lat="44.8780983" lon="8.3205017"><ele>111.8</ele><time>2026-04-25T17:13:58.997Z</time></trkpt><trkpt lat="44.87822" lon="8.3205333"><ele>112.0</ele><time>2026-04-25T17:13:59.996Z</time></trkpt><trkpt lat="44.87834" lon="8.3205733"><ele>114.0</ele><time>2026-04-25T17:14:00.999Z</time></trkpt><trkpt lat="44.8784533" lon="8.3206233"><ele>115.99999999999999</ele><time>2026-04-25T17:14:01.994Z</time></trkpt><trkpt lat="44.87856" lon="8.320675"><ele>117.99999999999999</ele><time>2026-04-25T17:14:03.006Z</time></trkpt><trkpt lat="44.878655" lon="8.3207267"><ele>120.0</ele><time>2026-04-25T17:14:03.996Z</time></trkpt><trkpt lat="44.8787467" lon="8.3207867"><ele>122.0</ele><time>2026-04-25T17:14:04.994Z</time></trkpt><trkpt lat="44.87882" lon="8.32087"><ele>122.0</ele><time>2026-04-25T17:14:05.998Z</time></trkpt><trkpt lat="44.8788683" lon="8.3209783"><ele>121.99999999999999</ele><time>2026-04-25T17:14:06.998Z</time></trkpt><trkpt lat="44.878915" lon="8.3211067"><ele>121.99999999999999</ele><time>2026-04-25T17:14:08Z</time></trkpt><trkpt lat="44.878925" lon="8.3212567"><ele>122.0</ele><time>2026-04-25T17:14:08.994Z</time></trkpt><trkpt lat="44.878935" lon="8.3214167"><ele>122.0</ele><time>2026-04-25T17:14:09.997Z</time></trkpt><trkpt lat="44.8789533" lon="8.3215817"><ele>124.5</ele><time>2026-04-25T17:14:10.997Z</time></trkpt><trkpt lat="44.8789783" lon="8.32175"><ele>127.0</ele><time>2026-04-25T17:14:11.996Z</time></trkpt><trkpt lat="44.8790083" lon="8.3219217"><ele>129.5</ele><time>2026-04-25T17:14:12.996Z</time></trkpt><trkpt lat="44.8790417" lon="8.3220967"><ele>132.0</ele><time>2026-04-25T17:14:13.998Z</time></trkpt><trkpt lat="44.8790833" lon="8.3222717"><ele>132.0</ele><time>2026-04-25T17:14:14.998Z</time></trkpt><trkpt lat="44.879125" lon="8.3224483"><ele>132.0</ele><time>2026-04-25T17:14:15.997Z</time></trkpt><trkpt lat="44.879165" lon="8.3226267"><ele>132.0</ele><time>2026-04-25T17:14:16.997Z</time></trkpt><trkpt lat="44.8792083" lon="8.3228017"><ele>132.0</ele><time>2026-04-25T17:14:17.998Z</time></trkpt><trkpt lat="44.8792483" lon="8.3229767"><ele>131.25</ele><time>2026-04-25T17:14:18.996Z</time></trkpt><trkpt lat="44.8792883" lon="8.3231517"><ele>130.5</ele><time>2026-04-25T17:14:19.998Z</time></trkpt><trkpt lat="44.8793217" lon="8.3233367"><ele>129.75</ele><time>2026-04-25T17:14:21Z</time></trkpt><trkpt lat="44.8793617" lon="8.3235183"><ele>129.0</ele><time>2026-04-25T17:14:21.996Z</time></trkpt><trkpt lat="44.8793983" lon="8.3236983"><ele>129.0</ele><time>2026-04-25T17:14:22.993Z</time></trkpt><trkpt lat="44.8794467" lon="8.3238733"><ele>129.0</ele><time>2026-04-25T17:14:24Z</time></trkpt><trkpt lat="44.8795017" lon="8.324045"><ele>129.0</ele><time>2026-04-25T17:14:24.995Z</time></trkpt><trkpt lat="44.8795683" lon="8.32421"><ele>129.0</ele><time>2026-04-25T17:14:25.994Z</time></trkpt><trkpt lat="44.8796467" lon="8.3243667"><ele>130.5</ele><time>2026-04-25T17:14:26.995Z</time></trkpt><trkpt lat="44.879725" lon="8.324515"><ele>132.0</ele><time>2026-04-25T17:14:27.991Z</time></trkpt><trkpt lat="44.8798083" lon="8.3246567"><ele>133.5</ele><time>2026-04-25T17:14:28.994Z</time></trkpt><trkpt lat="44.8798883" lon="8.3247983"><ele>135.0</ele><time>2026-04-25T17:14:29.998Z</time></trkpt><trkpt lat="44.87997" lon="8.324935"><ele>136.25</ele><time>2026-04-25T17:14:30.996Z</time></trkpt><trkpt lat="44.880055" lon="8.325065"><ele>137.5</ele><time>2026-04-25T17:14:31.995Z</time></trkpt><trkpt lat="44.8801483" lon="8.3251867"><ele>138.75</ele><time>2026-04-25T17:14:32.996Z</time></trkpt><trkpt lat="44.8802433" lon="8.3253033"><ele>140.0</ele><time>2026-04-25T17:14:33.996Z</time></trkpt><trkpt lat="44.8803433" lon="8.3254183"><ele>140.0</ele><time>2026-04-25T17:14:34.997Z</time></trkpt><trkpt lat="44.8804583" lon="8.3255267"><ele>140.0</ele><time>2026-04-25T17:14:35.996Z</time></trkpt><trkpt lat="44.8805783" lon="8.32563"><ele>140.0</ele><time>2026-04-25T17:14:36.995Z</time></trkpt><trkpt lat="44.8807033" lon="8.3257367"><ele>140.0</ele><time>2026-04-25T17:14:37.997Z</time></trkpt><trkpt lat="44.8808283" lon="8.32585"><ele>140.0</ele><time>2026-04-25T17:14:38.994Z</time></trkpt><trkpt lat="44.8809583" lon="8.3259633"><ele>140.0</ele><time>2026-04-25T17:14:39.995Z</time></trkpt><trkpt lat="44.88109" lon="8.3260783"><ele>140.0</ele><time>2026-04-25T17:14:40.997Z</time></trkpt><trkpt lat="44.8812233" lon="8.326195"><ele>140.0</ele><time>2026-04-25T17:14:41.996Z</time></trkpt><trkpt lat="44.8813567" lon="8.3263083"><ele>140.0</ele><time>2026-04-25T17:14:42.993Z</time></trkpt><trkpt lat="44.8814933" lon="8.32642"><ele>140.0</ele><time>2026-04-25T17:14:43.993Z</time></trkpt><trkpt lat="44.8816333" lon="8.326525"><ele>139.0</ele><time>2026-04-25T17:14:44.995Z</time></trkpt><trkpt lat="44.881775" lon="8.3266183"><ele>138.0</ele><time>2026-04-25T17:14:45.991Z</time></trkpt><trkpt lat="44.881925" lon="8.3266967"><ele>137.0</ele><time>2026-04-25T17:14:46.999Z</time></trkpt><trkpt lat="44.8820717" lon="8.3267617"><ele>137.0</ele><time>2026-04-25T17:14:47.998Z</time></trkpt><trkpt lat="44.8822183" lon="8.3268267"><ele>137.0</ele><time>2026-04-25T17:14:48.997Z</time></trkpt><trkpt lat="44.8823633" lon="8.326895"><ele>137.0</ele><time>2026-04-25T17:14:50.001Z</time></trkpt><trkpt lat="44.882505" lon="8.3269733"><ele>136.75</ele><time>2026-04-25T17:14:51.004Z</time></trkpt><trkpt lat="44.8826383" lon="8.32705"><ele>136.5</ele><time>2026-04-25T17:14:51.998Z</time></trkpt><trkpt lat="44.8827683" lon="8.3271317"><ele>136.25</ele><time>2026-04-25T17:14:52.999Z</time></trkpt><trkpt lat="44.8829" lon="8.3272067"><ele>136.0</ele><time>2026-04-25T17:14:53.999Z</time></trkpt><trkpt lat="44.8830317" lon="8.3272917"><ele>135.5</ele><time>2026-04-25T17:14:54.995Z</time></trkpt><trkpt lat="44.8831633" lon="8.3273617"><ele>135.0</ele><time>2026-04-25T17:14:56Z</time></trkpt><trkpt lat="44.8833033" lon="8.3274117"><ele>134.5</ele><time>2026-04-25T17:14:57.001Z</time></trkpt><trkpt lat="44.8834467" lon="8.327445"><ele>134.0</ele><time>2026-04-25T17:14:57.994Z</time></trkpt><trkpt lat="44.8835933" lon="8.3274733"><ele>134.0</ele><time>2026-04-25T17:14:58.997Z</time></trkpt><trkpt lat="44.88374" lon="8.3275017"><ele>134.0</ele><time>2026-04-25T17:14:59.998Z</time></trkpt><trkpt lat="44.8838867" lon="8.3275317"><ele>134.0</ele><time>2026-04-25T17:15:00.998Z</time></trkpt><trkpt lat="44.884035" lon="8.3275733"><ele>134.0</ele><time>2026-04-25T17:15:02.004Z</time></trkpt><trkpt lat="44.8841667" lon="8.3276367"><ele>133.75</ele><time>2026-04-25T17:15:02.996Z</time></trkpt><trkpt lat="44.884285" lon="8.327735"><ele>133.5</ele><time>2026-04-25T17:15:03.999Z</time></trkpt><trkpt lat="44.884395" lon="8.3278517"><ele>133.25</ele><time>2026-04-25T17:15:04.993Z</time></trkpt><trkpt lat="44.8844983" lon="8.3279767"><ele>133.0</ele><time>2026-04-25T17:15:05.999Z</time></trkpt><trkpt lat="44.8846067" lon="8.3281067"><ele>133.0</ele><time>2026-04-25T17:15:06.996Z</time></trkpt><trkpt lat="44.8847183" lon="8.328235"><ele>133.0</ele><time>2026-04-25T17:15:07.998Z</time></trkpt><trkpt lat="44.884835" lon="8.3283583"><ele>133.0</ele><time>2026-04-25T17:15:09Z</time></trkpt><trkpt lat="44.8849517" lon="8.32849"><ele>133.0</ele><time>2026-04-25T17:15:09.995Z</time></trkpt><trkpt lat="44.8850683" lon="8.328625"><ele>134.66666666666669</ele><time>2026-04-25T17:15:10.993Z</time></trkpt><trkpt lat="44.8851883" lon="8.3287533"><ele>136.33333333333334</ele><time>2026-04-25T17:15:11.997Z</time></trkpt><trkpt lat="44.885325" lon="8.328865"><ele>138.0</ele><time>2026-04-25T17:15:13Z</time></trkpt><trkpt lat="44.8854567" lon="8.3289633"><ele>139.0</ele><time>2026-04-25T17:15:13.996Z</time></trkpt><trkpt lat="44.8855983" lon="8.3290567"><ele>140.0</ele><time>2026-04-25T17:15:15Z</time></trkpt><trkpt lat="44.8857467" lon="8.3291533"><ele>141.0</ele><time>2026-04-25T17:15:16Z</time></trkpt><trkpt lat="44.885875" lon="8.3292617"><ele>142.33333333333334</ele><time>2026-04-25T17:15:17Z</time></trkpt><trkpt lat="44.886" lon="8.3293667"><ele>143.66666666666669</ele><time>2026-04-25T17:15:17.994Z</time></trkpt><trkpt lat="44.88613" lon="8.3294633"><ele>145.0</ele><time>2026-04-25T17:15:18.995Z</time></trkpt><trkpt lat="44.8862783" lon="8.3295417"><ele>145.0</ele><time>2026-04-25T17:15:19.996Z</time></trkpt><trkpt lat="44.8864217" lon="8.3296133"><ele>145.0</ele><time>2026-04-25T17:15:21.001Z</time></trkpt><trkpt lat="44.8865667" lon="8.32968"><ele>145.0</ele><time>2026-04-25T17:15:21.996Z</time></trkpt><trkpt lat="44.8867033" lon="8.32974"><ele>145.0</ele><time>2026-04-25T17:15:22.996Z</time></trkpt><trkpt lat="44.8868383" lon="8.3297967"><ele>145.5</ele><time>2026-04-25T17:15:24Z</time></trkpt><trkpt lat="44.88697" lon="8.3298567"><ele>146.0</ele><time>2026-04-25T17:15:24.999Z</time></trkpt><trkpt lat="44.8871" lon="8.3299083"><ele>146.5</ele><time>2026-04-25T17:15:25.998Z</time></trkpt><trkpt lat="44.8872283" lon="8.3299633"><ele>147.0</ele><time>2026-04-25T17:15:26.997Z</time></trkpt><trkpt lat="44.887355" lon="8.3300233"><ele>147.0</ele><time>2026-04-25T17:15:27.994Z</time></trkpt><trkpt lat="44.88749" lon="8.3300767"><ele>147.0</ele><time>2026-04-25T17:15:28.994Z</time></trkpt><trkpt lat="44.8876217" lon="8.3301333"><ele>147.0</ele><time>2026-04-25T17:15:29.992Z</time></trkpt><trkpt lat="44.8877667" lon="8.3301967"><ele>147.0</ele><time>2026-04-25T17:15:30.992Z</time></trkpt><trkpt lat="44.8879033" lon="8.330265"><ele>147.0</ele><time>2026-04-25T17:15:31.995Z</time></trkpt><trkpt lat="44.88804" lon="8.3303367"><ele>147.0</ele><time>2026-04-25T17:15:32.999Z</time></trkpt><trkpt lat="44.8881783" lon="8.3304133"><ele>147.0</ele><time>2026-04-25T17:15:33.999Z</time></trkpt><trkpt lat="44.88832" lon="8.3304983"><ele>147.0</ele><time>2026-04-25T17:15:34.998Z</time></trkpt><trkpt lat="44.88846" lon="8.3305883"><ele>147.0</ele><time>2026-04-25T17:15:36.003Z</time></trkpt><trkpt lat="44.8885917" lon="8.330695"><ele>147.0</ele><time>2026-04-25T17:15:36.994Z</time></trkpt><trkpt lat="44.8887317" lon="8.3308117"><ele>147.0</ele><time>2026-04-25T17:15:37.998Z</time></trkpt><trkpt lat="44.8888617" lon="8.3309433"><ele>147.0</ele><time>2026-04-25T17:15:38.995Z</time></trkpt><trkpt lat="44.8889883" lon="8.3310833"><ele>147.0</ele><time>2026-04-25T17:15:39.997Z</time></trkpt><trkpt lat="44.8891083" lon="8.331235"><ele>147.0</ele><time>2026-04-25T17:15:40.997Z</time></trkpt><trkpt lat="44.889235" lon="8.331395"><ele>148.66666666666666</ele><time>2026-04-25T17:15:41.996Z</time></trkpt><trkpt lat="44.8893583" lon="8.33156"><ele>150.33333333333331</ele><time>2026-04-25T17:15:42.997Z</time></trkpt><trkpt lat="44.8894783" lon="8.3317367"><ele>152.0</ele><time>2026-04-25T17:15:43.997Z</time></trkpt><trkpt lat="44.889595" lon="8.3319267"><ele>152.0</ele><time>2026-04-25T17:15:44.999Z</time></trkpt><trkpt lat="44.889705" lon="8.3321267"><ele>152.0</ele><time>2026-04-25T17:15:45.999Z</time></trkpt><trkpt lat="44.8898117" lon="8.3323383"><ele>152.0</ele><time>2026-04-25T17:15:46.998Z</time></trkpt><trkpt lat="44.88992" lon="8.3325483"><ele>152.66666666666666</ele><time>2026-04-25T17:15:47.999Z</time></trkpt><trkpt lat="44.8900267" lon="8.3327583"><ele>153.33333333333334</ele><time>2026-04-25T17:15:48.995Z</time></trkpt><trkpt lat="44.8901383" lon="8.3329667"><ele>154.0</ele><time>2026-04-25T17:15:49.994Z</time></trkpt><trkpt lat="44.8902467" lon="8.333175"><ele>158.33333333333334</ele><time>2026-04-25T17:15:50.994Z</time></trkpt><trkpt lat="44.890355" lon="8.3333767"><ele>162.66666666666666</ele><time>2026-04-25T17:15:51.995Z</time></trkpt><trkpt lat="44.8904633" lon="8.33358"><ele>167.0</ele><time>2026-04-25T17:15:52.997Z</time></trkpt><trkpt lat="44.8905733" lon="8.333775"><ele>166.66666666666666</ele><time>2026-04-25T17:15:53.994Z</time></trkpt><trkpt lat="44.8906783" lon="8.33396"><ele>166.33333333333334</ele><time>2026-04-25T17:15:54.997Z</time></trkpt><trkpt lat="44.8907833" lon="8.3341283"><ele>166.0</ele><time>2026-04-25T17:15:55.992Z</time></trkpt><trkpt lat="44.8908933" lon="8.33427"><ele>168.75</ele><time>2026-04-25T17:15:56.997Z</time></trkpt><trkpt lat="44.89101" lon="8.334395"><ele>171.5</ele><time>2026-04-25T17:15:57.995Z</time></trkpt><trkpt lat="44.891135" lon="8.3345067"><ele>174.25</ele><time>2026-04-25T17:15:58.993Z</time></trkpt><trkpt lat="44.8912633" lon="8.334605"><ele>177.0</ele><time>2026-04-25T17:15:59.999Z</time></trkpt><trkpt lat="44.8914" lon="8.3347"><ele>176.75</ele><time>2026-04-25T17:16:00.999Z</time></trkpt><trkpt lat="44.8915217" lon="8.3348067"><ele>176.5</ele><time>2026-04-25T17:16:02.003Z</time></trkpt><trkpt lat="44.89163" lon="8.3349217"><ele>176.25</ele><time>2026-04-25T17:16:03.004Z</time></trkpt><trkpt lat="44.8917333" lon="8.33504"><ele>176.0</ele><time>2026-04-25T17:16:03.996Z</time></trkpt><trkpt lat="44.891835" lon="8.3351567"><ele>176.0</ele><time>2026-04-25T17:16:04.996Z</time></trkpt><trkpt lat="44.8919317" lon="8.335285"><ele>176.0</ele><time>2026-04-25T17:16:05.998Z</time></trkpt><trkpt lat="44.892025" lon="8.3354133"><ele>176.0</ele><time>2026-04-25T17:16:06.997Z</time></trkpt><trkpt lat="44.89211" lon="8.3355567"><ele>176.0</ele><time>2026-04-25T17:16:07.996Z</time></trkpt><trkpt lat="44.8921917" lon="8.3357117"><ele>176.5</ele><time>2026-04-25T17:16:08.997Z</time></trkpt><trkpt lat="44.8922683" lon="8.3358833"><ele>177.0</ele><time>2026-04-25T17:16:09.994Z</time></trkpt><trkpt lat="44.892345" lon="8.3360617"><ele>177.5</ele><time>2026-04-25T17:16:10.995Z</time></trkpt><trkpt lat="44.8924167" lon="8.3362383"><ele>178.0</ele><time>2026-04-25T17:16:12Z</time></trkpt><trkpt lat="44.8924883" lon="8.336405"><ele>178.2</ele><time>2026-04-25T17:16:12.994Z</time></trkpt><trkpt lat="44.8925567" lon="8.33654"><ele>178.4</ele><time>2026-04-25T17:16:13.994Z</time></trkpt><trkpt lat="44.8926233" lon="8.3366433"><ele>178.6</ele><time>2026-04-25T17:16:14.996Z</time></trkpt><trkpt lat="44.8927033" lon="8.3367233"><ele>178.79999999999998</ele><time>2026-04-25T17:16:15.995Z</time></trkpt><trkpt lat="44.8928" lon="8.33678"><ele>179.0</ele><time>2026-04-25T17:16:16.998Z</time></trkpt><trkpt lat="44.8929167" lon="8.3368167"><ele>179.0</ele><time>2026-04-25T17:16:17.994Z</time></trkpt><trkpt lat="44.893045" lon="8.3368367"><ele>179.0</ele><time>2026-04-25T17:16:19Z</time></trkpt><trkpt lat="44.89319" lon="8.3368267"><ele>179.0</ele><time>2026-04-25T17:16:19.996Z</time></trkpt><trkpt lat="44.8933417" lon="8.3367983"><ele>179.0</ele><time>2026-04-25T17:16:20.998Z</time></trkpt><trkpt lat="44.8934967" lon="8.3367683"><ele>178.33333333333331</ele><time>2026-04-25T17:16:21.997Z</time></trkpt><trkpt lat="44.8936533" lon="8.3367683"><ele>177.66666666666666</ele><time>2026-04-25T17:16:22.994Z</time></trkpt><trkpt lat="44.8938083" lon="8.33679"><ele>177.0</ele><time>2026-04-25T17:16:23.999Z</time></trkpt><trkpt lat="44.89396" lon="8.33682"><ele>177.0</ele><time>2026-04-25T17:16:24.996Z</time></trkpt><trkpt lat="44.8941117" lon="8.3368567"><ele>177.0</ele><time>2026-04-25T17:16:25.999Z</time></trkpt><trkpt lat="44.8942667" lon="8.3368767"><ele>177.0</ele><time>2026-04-25T17:16:27Z</time></trkpt><trkpt lat="44.8944183" lon="8.33687"><ele>177.66666666666666</ele><time>2026-04-25T17:16:27.996Z</time></trkpt><trkpt lat="44.8945667" lon="8.33683"><ele>178.33333333333331</ele><time>2026-04-25T17:16:28.993Z</time></trkpt><trkpt lat="44.8947083" lon="8.3367483"><ele>179.0</ele><time>2026-04-25T17:16:29.997Z</time></trkpt><trkpt lat="44.8948367" lon="8.3366317"><ele>179.0</ele><time>2026-04-25T17:16:30.999Z</time></trkpt><trkpt lat="44.89495" lon="8.336485"><ele>179.0</ele><time>2026-04-25T17:16:31.999Z</time></trkpt><trkpt lat="44.89505" lon="8.3363117"><ele>179.0</ele><time>2026-04-25T17:16:32.995Z</time></trkpt><trkpt lat="44.8951417" lon="8.33612"><ele>178.66666666666666</ele><time>2026-04-25T17:16:33.996Z</time></trkpt><trkpt lat="44.8952267" lon="8.3359133"><ele>178.33333333333334</ele><time>2026-04-25T17:16:34.996Z</time></trkpt><trkpt lat="44.8953133" lon="8.3357017"><ele>178.0</ele><time>2026-04-25T17:16:35.996Z</time></trkpt><trkpt lat="44.8954033" lon="8.3354933"><ele>178.0</ele><time>2026-04-25T17:16:36.999Z</time></trkpt><trkpt lat="44.8954967" lon="8.3352867"><ele>178.0</ele><time>2026-04-25T17:16:37.994Z</time></trkpt><trkpt lat="44.8955917" lon="8.3350833"><ele>178.0</ele><time>2026-04-25T17:16:38.996Z</time></trkpt><trkpt lat="44.895685" lon="8.3348833"><ele>178.66666666666669</ele><time>2026-04-25T17:16:39.995Z</time></trkpt><trkpt lat="44.895785" lon="8.3346767"><ele>179.33333333333334</ele><time>2026-04-25T17:16:40.997Z</time></trkpt><trkpt lat="44.8958917" lon="8.3344967"><ele>180.0</ele><time>2026-04-25T17:16:41.997Z</time></trkpt><trkpt lat="44.8960067" lon="8.334325"><ele>180.0</ele><time>2026-04-25T17:16:42.996Z</time></trkpt><trkpt lat="44.8961283" lon="8.3341617"><ele>180.0</ele><time>2026-04-25T17:16:43.993Z</time></trkpt><trkpt lat="44.896255" lon="8.3340033"><ele>180.0</ele><time>2026-04-25T17:16:44.999Z</time></trkpt><trkpt lat="44.8963817" lon="8.3338583"><ele>180.0</ele><time>2026-04-25T17:16:45.998Z</time></trkpt><trkpt lat="44.8965017" lon="8.33372"><ele>180.0</ele><time>2026-04-25T17:16:46.996Z</time></trkpt><trkpt lat="44.8966083" lon="8.3335567"><ele>180.0</ele><time>2026-04-25T17:16:47.999Z</time></trkpt><trkpt lat="44.896695" lon="8.3333717"><ele>178.66666666666666</ele><time>2026-04-25T17:16:48.997Z</time></trkpt><trkpt lat="44.896765" lon="8.3331733"><ele>177.33333333333331</ele><time>2026-04-25T17:16:49.997Z</time></trkpt><trkpt lat="44.896835" lon="8.3329683"><ele>176.0</ele><time>2026-04-25T17:16:50.995Z</time></trkpt><trkpt lat="44.896905" lon="8.3327583"><ele>176.0</ele><time>2026-04-25T17:16:51.995Z</time></trkpt><trkpt lat="44.89699" lon="8.3325567"><ele>176.0</ele><time>2026-04-25T17:16:52.994Z</time></trkpt><trkpt lat="44.897095" lon="8.3323633"><ele>176.0</ele><time>2026-04-25T17:16:53.998Z</time></trkpt><trkpt lat="44.89721" lon="8.332175"><ele>177.0</ele><time>2026-04-25T17:16:54.995Z</time></trkpt><trkpt lat="44.89733" lon="8.3319967"><ele>178.0</ele><time>2026-04-25T17:16:56Z</time></trkpt><trkpt lat="44.8974533" lon="8.3318167"><ele>179.0</ele><time>2026-04-25T17:16:56.994Z</time></trkpt><trkpt lat="44.8975783" lon="8.3316383"><ele>178.0</ele><time>2026-04-25T17:16:57.999Z</time></trkpt><trkpt lat="44.8977083" lon="8.33146"><ele>177.0</ele><time>2026-04-25T17:16:58.997Z</time></trkpt><trkpt lat="44.8978433" lon="8.3313033"><ele>176.0</ele><time>2026-04-25T17:16:59.993Z</time></trkpt><trkpt lat="44.89798" lon="8.3311633"><ele>176.0</ele><time>2026-04-25T17:17:00.996Z</time></trkpt><trkpt lat="44.8981217" lon="8.33104"><ele>176.0</ele><time>2026-04-25T17:17:01.996Z</time></trkpt><trkpt lat="44.898265" lon="8.3309217"><ele>176.0</ele><time>2026-04-25T17:17:02.996Z</time></trkpt><trkpt lat="44.89841" lon="8.3308083"><ele>175.66666666666666</ele><time>2026-04-25T17:17:03.998Z</time></trkpt><trkpt lat="44.898555" lon="8.330705"><ele>175.33333333333334</ele><time>2026-04-25T17:17:04.996Z</time></trkpt><trkpt lat="44.898705" lon="8.33062"><ele>175.0</ele><time>2026-04-25T17:17:05.997Z</time></trkpt><trkpt lat="44.89886" lon="8.3305517"><ele>177.33333333333334</ele><time>2026-04-25T17:17:07Z</time></trkpt><trkpt lat="44.899015" lon="8.3304933"><ele>179.66666666666666</ele><time>2026-04-25T17:17:07.998Z</time></trkpt><trkpt lat="44.8991667" lon="8.33044"><ele>182.0</ele><time>2026-04-25T17:17:09.001Z</time></trkpt><trkpt lat="44.89932" lon="8.3303917"><ele>182.66666666666666</ele><time>2026-04-25T17:17:09.999Z</time></trkpt><trkpt lat="44.899475" lon="8.330345"><ele>183.33333333333334</ele><time>2026-04-25T17:17:11Z</time></trkpt><trkpt lat="44.8996233" lon="8.3302983"><ele>184.0</ele><time>2026-04-25T17:17:11.999Z</time></trkpt><trkpt lat="44.8997633" lon="8.33026"><ele>184.0</ele><time>2026-04-25T17:17:12.996Z</time></trkpt><trkpt lat="44.89989" lon="8.3302233"><ele>184.0</ele><time>2026-04-25T17:17:13.995Z</time></trkpt><trkpt lat="44.900005" lon="8.33018"><ele>184.0</ele><time>2026-04-25T17:17:14.999Z</time></trkpt><trkpt lat="44.9001083" lon="8.3301183"><ele>184.0</ele><time>2026-04-25T17:17:16.001Z</time></trkpt><trkpt lat="44.9002083" lon="8.3300383"><ele>183.75</ele><time>2026-04-25T17:17:16.997Z</time></trkpt><trkpt lat="44.9003033" lon="8.3299417"><ele>183.5</ele><time>2026-04-25T17:17:17.998Z</time></trkpt><trkpt lat="44.9004017" lon="8.3298367"><ele>183.25</ele><time>2026-04-25T17:17:18.995Z</time></trkpt><trkpt lat="44.900505" lon="8.329725"><ele>183.0</ele><time>2026-04-25T17:17:19.996Z</time></trkpt><trkpt lat="44.9006083" lon="8.32961"><ele>182.75</ele><time>2026-04-25T17:17:20.999Z</time></trkpt><trkpt lat="44.900705" lon="8.3294983"><ele>182.5</ele><time>2026-04-25T17:17:21.995Z</time></trkpt><trkpt lat="44.9007917" lon="8.32938"><ele>182.25</ele><time>2026-04-25T17:17:22.999Z</time></trkpt><trkpt lat="44.900865" lon="8.3292567"><ele>182.0</ele><time>2026-04-25T17:17:23.995Z</time></trkpt><trkpt lat="44.9009117" lon="8.329125"><ele>181.25</ele><time>2026-04-25T17:17:24.999Z</time></trkpt><trkpt lat="44.9009433" lon="8.3289717"><ele>180.5</ele><time>2026-04-25T17:17:25.998Z</time></trkpt><trkpt lat="44.90097" lon="8.3287983"><ele>179.75</ele><time>2026-04-25T17:17:26.996Z</time></trkpt><trkpt lat="44.9009967" lon="8.3286117"><ele>179.0</ele><time>2026-04-25T17:17:27.996Z</time></trkpt><trkpt lat="44.9010233" lon="8.32842"><ele>178.75</ele><time>2026-04-25T17:17:28.993Z</time></trkpt><trkpt lat="44.9010567" lon="8.3282267"><ele>178.5</ele><time>2026-04-25T17:17:29.996Z</time></trkpt><trkpt lat="44.9010967" lon="8.3280283"><ele>178.25</ele><time>2026-04-25T17:17:30.995Z</time></trkpt><trkpt lat="44.901145" lon="8.32783"><ele>178.0</ele><time>2026-04-25T17:17:32Z</time></trkpt><trkpt lat="44.901205" lon="8.3276333"><ele>178.0</ele><time>2026-04-25T17:17:33Z</time></trkpt><trkpt lat="44.901285" lon="8.3274517"><ele>178.0</ele><time>2026-04-25T17:17:34.001Z</time></trkpt><trkpt lat="44.9013883" lon="8.32728"><ele>178.0</ele><time>2026-04-25T17:17:34.995Z</time></trkpt><trkpt lat="44.9015117" lon="8.327115"><ele>178.66666666666669</ele><time>2026-04-25T17:17:35.997Z</time></trkpt><trkpt lat="44.901635" lon="8.3269617"><ele>179.33333333333334</ele><time>2026-04-25T17:17:36.995Z</time></trkpt><trkpt lat="44.901765" lon="8.32681"><ele>180.0</ele><time>2026-04-25T17:17:37.994Z</time></trkpt><trkpt lat="44.9018983" lon="8.3266533"><ele>180.33333333333334</ele><time>2026-04-25T17:17:38.999Z</time></trkpt><trkpt lat="44.90203" lon="8.3265067"><ele>180.66666666666669</ele><time>2026-04-25T17:17:39.997Z</time></trkpt><trkpt lat="44.9021617" lon="8.32636"><ele>181.0</ele><time>2026-04-25T17:17:41Z</time></trkpt><trkpt lat="44.9022933" lon="8.3262133"><ele>181.0</ele><time>2026-04-25T17:17:41.995Z</time></trkpt><trkpt lat="44.9024267" lon="8.3260767"><ele>181.0</ele><time>2026-04-25T17:17:42.995Z</time></trkpt><trkpt lat="44.9025617" lon="8.3259433"><ele>181.0</ele><time>2026-04-25T17:17:43.999Z</time></trkpt><trkpt lat="44.90269" lon="8.3258117"><ele>180.33333333333334</ele><time>2026-04-25T17:17:44.995Z</time></trkpt><trkpt lat="44.9028167" lon="8.3256817"><ele>179.66666666666666</ele><time>2026-04-25T17:17:45.994Z</time></trkpt><trkpt lat="44.9029383" lon="8.3255617"><ele>179.0</ele><time>2026-04-25T17:17:46.994Z</time></trkpt><trkpt lat="44.9030633" lon="8.3254517"><ele>180.25</ele><time>2026-04-25T17:17:48.004Z</time></trkpt><trkpt lat="44.9031867" lon="8.3253617"><ele>181.5</ele><time>2026-04-25T17:17:48.992Z</time></trkpt><trkpt lat="44.9033133" lon="8.3252817"><ele>182.75</ele><time>2026-04-25T17:17:49.996Z</time></trkpt><trkpt lat="44.903445" lon="8.3252033"><ele>184.0</ele><time>2026-04-25T17:17:50.997Z</time></trkpt><trkpt lat="44.903575" lon="8.3251267"><ele>184.0</ele><time>2026-04-25T17:17:51.994Z</time></trkpt><trkpt lat="44.9037033" lon="8.3250467"><ele>184.0</ele><time>2026-04-25T17:17:52.992Z</time></trkpt><trkpt lat="44.90383" lon="8.3249667"><ele>184.0</ele><time>2026-04-25T17:17:53.996Z</time></trkpt><trkpt lat="44.9039633" lon="8.324885"><ele>184.0</ele><time>2026-04-25T17:17:54.997Z</time></trkpt><trkpt lat="44.9040933" lon="8.324795"><ele>184.75</ele><time>2026-04-25T17:17:56Z</time></trkpt><trkpt lat="44.904215" lon="8.3247183"><ele>185.5</ele><time>2026-04-25T17:17:57.001Z</time></trkpt><trkpt lat="44.9043233" lon="8.3246567"><ele>186.25</ele><time>2026-04-25T17:17:57.994Z</time></trkpt><trkpt lat="44.904415" lon="8.324585"><ele>187.0</ele><time>2026-04-25T17:17:58.994Z</time></trkpt><trkpt lat="44.904495" lon="8.3245067"><ele>185.8</ele><time>2026-04-25T17:17:59.995Z</time></trkpt><trkpt lat="44.90456" lon="8.3243983"><ele>184.6</ele><time>2026-04-25T17:18:00.997Z</time></trkpt><trkpt lat="44.9046133" lon="8.32428"><ele>183.4</ele><time>2026-04-25T17:18:01.994Z</time></trkpt><trkpt lat="44.9046483" lon="8.3241583"><ele>182.20000000000002</ele><time>2026-04-25T17:18:02.995Z</time></trkpt><trkpt lat="44.9046767" lon="8.3240267"><ele>181.0</ele><time>2026-04-25T17:18:03.999Z</time></trkpt><trkpt lat="44.9047033" lon="8.323885"><ele>181.0</ele><time>2026-04-25T17:18:05Z</time></trkpt><trkpt lat="44.904735" lon="8.3237367"><ele>181.0</ele><time>2026-04-25T17:18:05.996Z</time></trkpt><trkpt lat="44.9047667" lon="8.3235833"><ele>181.0</ele><time>2026-04-25T17:18:06.995Z</time></trkpt><trkpt lat="44.9047967" lon="8.3234283"><ele>181.0</ele><time>2026-04-25T17:18:07.995Z</time></trkpt><trkpt lat="44.90483" lon="8.3232783"><ele>181.0</ele><time>2026-04-25T17:18:08.994Z</time></trkpt><trkpt lat="44.9048583" lon="8.323135"><ele>181.83333333333334</ele><time>2026-04-25T17:18:09.996Z</time></trkpt><trkpt lat="44.9048867" lon="8.323005"><ele>182.66666666666669</ele><time>2026-04-25T17:18:10.993Z</time></trkpt><trkpt lat="44.904915" lon="8.322875"><ele>183.5</ele><time>2026-04-25T17:18:12Z</time></trkpt><trkpt lat="44.9049467" lon="8.322755"><ele>184.33333333333334</ele><time>2026-04-25T17:18:12.998Z</time></trkpt><trkpt lat="44.9049733" lon="8.3226417"><ele>185.16666666666666</ele><time>2026-04-25T17:18:13.999Z</time></trkpt><trkpt lat="44.9049933" lon="8.322535"><ele>186.0</ele><time>2026-04-25T17:18:14.999Z</time></trkpt><trkpt lat="44.9050067" lon="8.3224383"><ele>186.0</ele><time>2026-04-25T17:18:15.996Z</time></trkpt><trkpt lat="44.9050217" lon="8.3223483"><ele>186.0</ele><time>2026-04-25T17:18:16.995Z</time></trkpt><trkpt lat="44.9050383" lon="8.3221933"><ele>186.0</ele><time>2026-04-25T17:18:18.998Z</time></trkpt><trkpt lat="44.90503" lon="8.3220217"><ele>186.0</ele><time>2026-04-25T17:18:20.995Z</time></trkpt><trkpt lat="44.90501" lon="8.321925"><ele>186.0</ele><time>2026-04-25T17:18:21.997Z</time></trkpt><trkpt lat="44.9049833" lon="8.3218167"><ele>186.0</ele><time>2026-04-25T17:18:22.998Z</time></trkpt><trkpt lat="44.9049383" lon="8.3217083"><ele>186.0</ele><time>2026-04-25T17:18:23.996Z</time></trkpt><trkpt lat="44.9048933" lon="8.321595"><ele>186.0</ele><time>2026-04-25T17:18:24.997Z</time></trkpt><trkpt lat="44.90484" lon="8.3214833"><ele>186.0</ele><time>2026-04-25T17:18:25.994Z</time></trkpt><trkpt lat="44.904775" lon="8.32138"><ele>186.0</ele><time>2026-04-25T17:18:26.997Z</time></trkpt><trkpt lat="44.9047133" lon="8.3212633"><ele>186.0</ele><time>2026-04-25T17:18:27.997Z</time></trkpt><trkpt lat="44.90465" lon="8.321155"><ele>186.0</ele><time>2026-04-25T17:18:28.998Z</time></trkpt><trkpt lat="44.9045817" lon="8.3210667"><ele>186.0</ele><time>2026-04-25T17:18:29.997Z</time></trkpt><trkpt lat="44.90451" lon="8.321"><ele>186.0</ele><time>2026-04-25T17:18:30.997Z</time></trkpt><trkpt lat="44.904455" lon="8.3209433"><ele>186.0</ele><time>2026-04-25T17:18:31.994Z</time></trkpt><trkpt lat="44.904355" lon="8.3208567"><ele>186.0</ele><time>2026-04-25T17:18:34Z</time></trkpt><trkpt lat="44.9043167" lon="8.3207717"><ele>186.0</ele><time>2026-04-25T17:18:36.002Z</time></trkpt><trkpt lat="44.90437" lon="8.3206483"><ele>186.0</ele><time>2026-04-25T17:18:37.996Z</time></trkpt><trkpt lat="44.9044333" lon="8.320605"><ele>186.0</ele><time>2026-04-25T17:18:38.996Z</time></trkpt><trkpt lat="44.904495" lon="8.3205467"><ele>186.0</ele><time>2026-04-25T17:18:39.995Z</time></trkpt><trkpt lat="44.9045483" lon="8.3204717"><ele>186.0</ele><time>2026-04-25T17:18:41.003Z</time></trkpt><trkpt lat="44.9045783" lon="8.3203883"><ele>186.60000000000002</ele><time>2026-04-25T17:18:41.996Z</time></trkpt><trkpt lat="44.90458" lon="8.320275"><ele>187.2</ele><time>2026-04-25T17:18:42.995Z</time></trkpt><trkpt lat="44.9045833" lon="8.3201467"><ele>187.8</ele><time>2026-04-25T17:18:43.996Z</time></trkpt><trkpt lat="44.9045733" lon="8.3200033"><ele>188.39999999999998</ele><time>2026-04-25T17:18:45.002Z</time></trkpt><trkpt lat="44.90456" lon="8.3198517"><ele>189.0</ele><time>2026-04-25T17:18:45.995Z</time></trkpt><trkpt lat="44.9045483" lon="8.3197033"><ele>189.2</ele><time>2026-04-25T17:18:46.996Z</time></trkpt><trkpt lat="44.904545" lon="8.319555"><ele>189.39999999999998</ele><time>2026-04-25T17:18:47.995Z</time></trkpt><trkpt lat="44.904555" lon="8.3194083"><ele>189.6</ele><time>2026-04-25T17:18:48.995Z</time></trkpt><trkpt lat="44.9045767" lon="8.3192667"><ele>189.8</ele><time>2026-04-25T17:18:49.991Z</time></trkpt><trkpt lat="44.9046133" lon="8.31913"><ele>190.0</ele><time>2026-04-25T17:18:50.995Z</time></trkpt><trkpt lat="44.90467" lon="8.3189983"><ele>190.25</ele><time>2026-04-25T17:18:51.994Z</time></trkpt><trkpt lat="44.90473" lon="8.3188783"><ele>190.5</ele><time>2026-04-25T17:18:52.998Z</time></trkpt><trkpt lat="44.9048083" lon="8.3187633"><ele>190.75</ele><time>2026-04-25T17:18:53.994Z</time></trkpt><trkpt lat="44.9049" lon="8.31865"><ele>191.0</ele><time>2026-04-25T17:18:54.999Z</time></trkpt><trkpt lat="44.9049967" lon="8.3185333"><ele>189.75</ele><time>2026-04-25T17:18:55.995Z</time></trkpt><trkpt lat="44.9051017" lon="8.31843"><ele>188.5</ele><time>2026-04-25T17:18:57Z</time></trkpt><trkpt lat="44.9052" lon="8.3183233"><ele>187.25</ele><time>2026-04-25T17:18:57.996Z</time></trkpt><trkpt lat="44.9052967" lon="8.31822"><ele>186.0</ele><time>2026-04-25T17:18:58.995Z</time></trkpt><trkpt lat="44.905395" lon="8.3181233"><ele>187.0</ele><time>2026-04-25T17:18:59.995Z</time></trkpt><trkpt lat="44.9055" lon="8.3180317"><ele>188.0</ele><time>2026-04-25T17:19:00.997Z</time></trkpt><trkpt lat="44.90561" lon="8.3179283"><ele>189.0</ele><time>2026-04-25T17:19:02.002Z</time></trkpt><trkpt lat="44.9057217" lon="8.3178183"><ele>190.0</ele><time>2026-04-25T17:19:03.001Z</time></trkpt><trkpt lat="44.9058283" lon="8.3177017"><ele>189.5</ele><time>2026-04-25T17:19:03.997Z</time></trkpt><trkpt lat="44.9059383" lon="8.3175767"><ele>189.0</ele><time>2026-04-25T17:19:05Z</time></trkpt><trkpt lat="44.9060483" lon="8.3174467"><ele>188.5</ele><time>2026-04-25T17:19:05.997Z</time></trkpt><trkpt lat="44.90616" lon="8.3173183"><ele>188.0</ele><time>2026-04-25T17:19:06.998Z</time></trkpt><trkpt lat="44.9062683" lon="8.3171917"><ele>189.0</ele><time>2026-04-25T17:19:07.997Z</time></trkpt><trkpt lat="44.90638" lon="8.3170633"><ele>190.0</ele><time>2026-04-25T17:19:08.998Z</time></trkpt><trkpt lat="44.90649" lon="8.3169333"><ele>191.0</ele><time>2026-04-25T17:19:09.998Z</time></trkpt><trkpt lat="44.9066" lon="8.316805"><ele>192.0</ele><time>2026-04-25T17:19:10.997Z</time></trkpt><trkpt lat="44.9067067" lon="8.3166817"><ele>191.5</ele><time>2026-04-25T17:19:12Z</time></trkpt><trkpt lat="44.90681" lon="8.3165683"><ele>191.0</ele><time>2026-04-25T17:19:12.998Z</time></trkpt><trkpt lat="44.9069133" lon="8.3164567"><ele>190.5</ele><time>2026-04-25T17:19:13.995Z</time></trkpt><trkpt lat="44.9070133" lon="8.3163433"><ele>190.0</ele><time>2026-04-25T17:19:14.997Z</time></trkpt><trkpt lat="44.9071" lon="8.3162383"><ele>190.0</ele><time>2026-04-25T17:19:16.003Z</time></trkpt><trkpt lat="44.90718" lon="8.31614"><ele>190.0</ele><time>2026-04-25T17:19:16.997Z</time></trkpt><trkpt lat="44.9072517" lon="8.3160567"><ele>190.0</ele><time>2026-04-25T17:19:18.002Z</time></trkpt><trkpt lat="44.9073133" lon="8.3159883"><ele>190.0</ele><time>2026-04-25T17:19:18.998Z</time></trkpt><trkpt lat="44.9073617" lon="8.3159283"><ele>190.0</ele><time>2026-04-25T17:19:20Z</time></trkpt><trkpt lat="44.9073533" lon="8.31583"><ele>190.0</ele><time>2026-04-25T17:19:27.997Z</time></trkpt><trkpt lat="44.9072517" lon="8.315765"><ele>190.0</ele><time>2026-04-25T17:19:29.996Z</time></trkpt><trkpt lat="44.907185" lon="8.31574"><ele>190.0</ele><time>2026-04-25T17:19:30.993Z</time></trkpt><trkpt lat="44.9071133" lon="8.315715"><ele>190.0</ele><time>2026-04-25T17:19:31.997Z</time></trkpt><trkpt lat="44.9070383" lon="8.3156883"><ele>190.0</ele><time>2026-04-25T17:19:32.999Z</time></trkpt><trkpt lat="44.9069683" lon="8.3156617"><ele>190.0</ele><time>2026-04-25T17:19:33.994Z</time></trkpt><trkpt lat="44.9068933" lon="8.3156267"><ele>190.0</ele><time>2026-04-25T17:19:34.996Z</time></trkpt><trkpt lat="44.9068133" lon="8.3155767"><ele>188.75</ele><time>2026-04-25T17:19:36.001Z</time></trkpt><trkpt lat="44.906725" lon="8.3155167"><ele>187.5</ele><time>2026-04-25T17:19:36.996Z</time></trkpt><trkpt lat="44.9066233" lon="8.315425"><ele>186.25</ele><time>2026-04-25T17:19:37.997Z</time></trkpt><trkpt lat="44.9065233" lon="8.31532"><ele>185.0</ele><time>2026-04-25T17:19:38.993Z</time></trkpt><trkpt lat="44.90643" lon="8.31521"><ele>185.0</ele><time>2026-04-25T17:19:39.995Z</time></trkpt><trkpt lat="44.90633" lon="8.3150983"><ele>185.0</ele><time>2026-04-25T17:19:40.997Z</time></trkpt><trkpt lat="44.906235" lon="8.3149883"><ele>185.0</ele><time>2026-04-25T17:19:41.995Z</time></trkpt><trkpt lat="44.9061417" lon="8.3148883"><ele>185.0</ele><time>2026-04-25T17:19:42.994Z</time></trkpt><trkpt lat="44.9060483" lon="8.3147883"><ele>185.2</ele><time>2026-04-25T17:19:43.997Z</time></trkpt><trkpt lat="44.905955" lon="8.31469"><ele>185.4</ele><time>2026-04-25T17:19:44.997Z</time></trkpt><trkpt lat="44.9058633" lon="8.31459"><ele>185.60000000000002</ele><time>2026-04-25T17:19:45.997Z</time></trkpt><trkpt lat="44.9057867" lon="8.314485"><ele>185.8</ele><time>2026-04-25T17:19:46.994Z</time></trkpt><trkpt lat="44.90571" lon="8.314375"><ele>186.0</ele><time>2026-04-25T17:19:48Z</time></trkpt><trkpt lat="44.9056467" lon="8.3142483"><ele>186.0</ele><time>2026-04-25T17:19:48.996Z</time></trkpt><trkpt lat="44.9056083" lon="8.3141033"><ele>186.0</ele><time>2026-04-25T17:19:49.996Z</time></trkpt><trkpt lat="44.905565" lon="8.313955"><ele>186.0</ele><time>2026-04-25T17:19:50.997Z</time></trkpt><trkpt lat="44.905515" lon="8.3138033"><ele>186.0</ele><time>2026-04-25T17:19:51.995Z</time></trkpt><trkpt lat="44.9054533" lon="8.3136483"><ele>184.75</ele><time>2026-04-25T17:19:52.996Z</time></trkpt><trkpt lat="44.9053917" lon="8.3134833"><ele>183.5</ele><time>2026-04-25T17:19:53.996Z</time></trkpt><trkpt lat="44.905335" lon="8.3133117"><ele>182.25</ele><time>2026-04-25T17:19:54.999Z</time></trkpt><trkpt lat="44.905285" lon="8.3131333"><ele>181.0</ele><time>2026-04-25T17:19:56.001Z</time></trkpt><trkpt lat="44.9052333" lon="8.31295"><ele>181.25</ele><time>2026-04-25T17:19:56.995Z</time></trkpt><trkpt lat="44.90518" lon="8.3127683"><ele>181.5</ele><time>2026-04-25T17:19:57.998Z</time></trkpt><trkpt lat="44.9051217" lon="8.3125983"><ele>181.75</ele><time>2026-04-25T17:19:58.998Z</time></trkpt><trkpt lat="44.9050567" lon="8.31243"><ele>182.0</ele><time>2026-04-25T17:19:59.994Z</time></trkpt><trkpt lat="44.9049833" lon="8.31227"><ele>181.5</ele><time>2026-04-25T17:20:00.997Z</time></trkpt><trkpt lat="44.904905" lon="8.3121133"><ele>181.0</ele><time>2026-04-25T17:20:02Z</time></trkpt><trkpt lat="44.9048267" lon="8.3119617"><ele>180.5</ele><time>2026-04-25T17:20:02.996Z</time></trkpt><trkpt lat="44.904745" lon="8.3118083"><ele>180.0</ele><time>2026-04-25T17:20:03.996Z</time></trkpt><trkpt lat="44.9046517" lon="8.3116533"><ele>180.0</ele><time>2026-04-25T17:20:04.996Z</time></trkpt><trkpt lat="44.904555" lon="8.3114967"><ele>180.0</ele><time>2026-04-25T17:20:05.999Z</time></trkpt><trkpt lat="44.9044567" lon="8.3113433"><ele>180.0</ele><time>2026-04-25T17:20:06.994Z</time></trkpt><trkpt lat="44.9043567" lon="8.31119"><ele>180.0</ele><time>2026-04-25T17:20:07.997Z</time></trkpt><trkpt lat="44.90426" lon="8.3110383"><ele>179.25</ele><time>2026-04-25T17:20:08.997Z</time></trkpt><trkpt lat="44.90417" lon="8.310885"><ele>178.5</ele><time>2026-04-25T17:20:09.996Z</time></trkpt><trkpt lat="44.904085" lon="8.31073"><ele>177.75</ele><time>2026-04-25T17:20:10.996Z</time></trkpt><trkpt lat="44.9040033" lon="8.3105683"><ele>177.0</ele><time>2026-04-25T17:20:11.995Z</time></trkpt><trkpt lat="44.903935" lon="8.3104"><ele>177.0</ele><time>2026-04-25T17:20:12.994Z</time></trkpt><trkpt lat="44.9038783" lon="8.31022"><ele>177.0</ele><time>2026-04-25T17:20:13.996Z</time></trkpt><trkpt lat="44.9038133" lon="8.3100433"><ele>177.0</ele><time>2026-04-25T17:20:15.002Z</time></trkpt><trkpt lat="44.9037467" lon="8.3098667"><ele>177.0</ele><time>2026-04-25T17:20:15.997Z</time></trkpt><trkpt lat="44.9036767" lon="8.309685"><ele>176.33333333333334</ele><time>2026-04-25T17:20:16.991Z</time></trkpt><trkpt lat="44.9036067" lon="8.3095"><ele>175.66666666666669</ele><time>2026-04-25T17:20:17.998Z</time></trkpt><trkpt lat="44.9035317" lon="8.3093117"><ele>175.0</ele><time>2026-04-25T17:20:18.995Z</time></trkpt><trkpt lat="44.90346" lon="8.3091233"><ele>175.33333333333334</ele><time>2026-04-25T17:20:19.994Z</time></trkpt><trkpt lat="44.90339" lon="8.308935"><ele>175.66666666666666</ele><time>2026-04-25T17:20:20.995Z</time></trkpt><trkpt lat="44.90332" lon="8.3087417"><ele>176.0</ele><time>2026-04-25T17:20:21.996Z</time></trkpt><trkpt lat="44.9032583" lon="8.3085517"><ele>175.0</ele><time>2026-04-25T17:20:22.993Z</time></trkpt><trkpt lat="44.9032017" lon="8.308355"><ele>174.0</ele><time>2026-04-25T17:20:23.993Z</time></trkpt><trkpt lat="44.903155" lon="8.3081517"><ele>173.0</ele><time>2026-04-25T17:20:25Z</time></trkpt><trkpt lat="44.9031167" lon="8.3079433"><ele>173.0</ele><time>2026-04-25T17:20:25.995Z</time></trkpt><trkpt lat="44.903075" lon="8.3077333"><ele>173.0</ele><time>2026-04-25T17:20:26.997Z</time></trkpt><trkpt lat="44.9030217" lon="8.307535"><ele>173.0</ele><time>2026-04-25T17:20:27.997Z</time></trkpt><trkpt lat="44.9029583" lon="8.3073517"><ele>173.0</ele><time>2026-04-25T17:20:28.999Z</time></trkpt><trkpt lat="44.9028917" lon="8.3071717"><ele>173.0</ele><time>2026-04-25T17:20:29.999Z</time></trkpt><trkpt lat="44.9028233" lon="8.3069917"><ele>173.0</ele><time>2026-04-25T17:20:30.997Z</time></trkpt><trkpt lat="44.9027533" lon="8.3068183"><ele>173.0</ele><time>2026-04-25T17:20:31.996Z</time></trkpt><trkpt lat="44.902685" lon="8.30665"><ele>173.0</ele><time>2026-04-25T17:20:33.001Z</time></trkpt><trkpt lat="44.902615" lon="8.3064867"><ele>173.75</ele><time>2026-04-25T17:20:33.997Z</time></trkpt><trkpt lat="44.9025433" lon="8.3063217"><ele>174.5</ele><time>2026-04-25T17:20:34.998Z</time></trkpt><trkpt lat="44.9024717" lon="8.30616"><ele>175.25</ele><time>2026-04-25T17:20:36.001Z</time></trkpt><trkpt lat="44.9024067" lon="8.3059983"><ele>176.0</ele><time>2026-04-25T17:20:36.999Z</time></trkpt><trkpt lat="44.9023533" lon="8.30584"><ele>176.0</ele><time>2026-04-25T17:20:37.996Z</time></trkpt><trkpt lat="44.9023183" lon="8.3056733"><ele>176.0</ele><time>2026-04-25T17:20:38.998Z</time></trkpt><trkpt lat="44.902295" lon="8.3054983"><ele>176.0</ele><time>2026-04-25T17:20:39.995Z</time></trkpt><trkpt lat="44.9022717" lon="8.30532"><ele>176.0</ele><time>2026-04-25T17:20:40.998Z</time></trkpt><trkpt lat="44.9022383" lon="8.3051417"><ele>175.0</ele><time>2026-04-25T17:20:42Z</time></trkpt><trkpt lat="44.902195" lon="8.3049667"><ele>174.0</ele><time>2026-04-25T17:20:42.999Z</time></trkpt><trkpt lat="44.9021467" lon="8.3047917"><ele>173.0</ele><time>2026-04-25T17:20:43.997Z</time></trkpt><trkpt lat="44.90209" lon="8.3046167"><ele>172.0</ele><time>2026-04-25T17:20:45Z</time></trkpt><trkpt lat="44.9020367" lon="8.304465"><ele>171.0</ele><time>2026-04-25T17:20:45.993Z</time></trkpt><trkpt lat="44.901995" lon="8.304335"><ele>170.0</ele><time>2026-04-25T17:20:46.995Z</time></trkpt><trkpt lat="44.90196" lon="8.304225"><ele>169.0</ele><time>2026-04-25T17:20:47.996Z</time></trkpt><trkpt lat="44.9019333" lon="8.304125"><ele>168.0</ele><time>2026-04-25T17:20:48.995Z</time></trkpt><trkpt lat="44.9019217" lon="8.30395"><ele>167.0</ele><time>2026-04-25T17:20:50.996Z</time></trkpt><trkpt lat="44.901965" lon="8.3038717"><ele>165.83333333333331</ele><time>2026-04-25T17:20:51.997Z</time></trkpt><trkpt lat="44.9020117" lon="8.3037867"><ele>164.66666666666666</ele><time>2026-04-25T17:20:52.992Z</time></trkpt><trkpt lat="44.9020433" lon="8.303695"><ele>163.5</ele><time>2026-04-25T17:20:53.997Z</time></trkpt><trkpt lat="44.9020583" lon="8.3035867"><ele>162.33333333333334</ele><time>2026-04-25T17:20:54.995Z</time></trkpt><trkpt lat="44.9020583" lon="8.3034633"><ele>161.16666666666669</ele><time>2026-04-25T17:20:55.996Z</time></trkpt><trkpt lat="44.9020367" lon="8.3033417"><ele>160.0</ele><time>2026-04-25T17:20:56.997Z</time></trkpt><trkpt lat="44.9020167" lon="8.3032367"><ele>160.0</ele><time>2026-04-25T17:20:57.995Z</time></trkpt><trkpt lat="44.9020083" lon="8.3031433"><ele>160.0</ele><time>2026-04-25T17:20:58.992Z</time></trkpt><trkpt lat="44.902075" lon="8.3030683"><ele>160.0</ele><time>2026-04-25T17:21:00.994Z</time></trkpt><trkpt lat="44.90218" lon="8.3030967"><ele>160.0</ele><time>2026-04-25T17:21:02.999Z</time></trkpt><trkpt lat="44.9022267" lon="8.3032217"><ele>160.0</ele><time>2026-04-25T17:21:03.993Z</time></trkpt><trkpt lat="44.9022767" lon="8.3033033"><ele>160.0</ele><time>2026-04-25T17:21:04.994Z</time></trkpt><trkpt lat="44.902325" lon="8.3033833"><ele>160.0</ele><time>2026-04-25T17:21:05.994Z</time></trkpt><trkpt lat="44.902375" lon="8.30344"><ele>160.0</ele><time>2026-04-25T17:21:06.997Z</time></trkpt><trkpt lat="44.902405" lon="8.3033217"><ele>160.0</ele><time>2026-04-25T17:21:08.995Z</time></trkpt><trkpt lat="44.90234" lon="8.3031483"><ele>160.0</ele><time>2026-04-25T17:21:10.996Z</time></trkpt><trkpt lat="44.9022883" lon="8.3030483"><ele>160.0</ele><time>2026-04-25T17:21:11.993Z</time></trkpt><trkpt lat="44.9022533" lon="8.302945"><ele>158.33333333333334</ele><time>2026-04-25T17:21:12.995Z</time></trkpt><trkpt lat="44.9022183" lon="8.30284"><ele>156.66666666666669</ele><time>2026-04-25T17:21:13.996Z</time></trkpt><trkpt lat="44.9022033" lon="8.3027333"><ele>155.0</ele><time>2026-04-25T17:21:14.998Z</time></trkpt><trkpt lat="44.90223" lon="8.302625"><ele>153.33333333333334</ele><time>2026-04-25T17:21:15.997Z</time></trkpt><trkpt lat="44.902225" lon="8.3025183"><ele>151.66666666666666</ele><time>2026-04-25T17:21:16.999Z</time></trkpt><trkpt lat="44.9022133" lon="8.3024083"><ele>150.0</ele><time>2026-04-25T17:21:17.994Z</time></trkpt><trkpt lat="44.902205" lon="8.302295"><ele>148.6</ele><time>2026-04-25T17:21:18.998Z</time></trkpt><trkpt lat="44.902185" lon="8.3021767"><ele>147.2</ele><time>2026-04-25T17:21:20.001Z</time></trkpt><trkpt lat="44.9021417" lon="8.3020683"><ele>145.8</ele><time>2026-04-25T17:21:20.996Z</time></trkpt><trkpt lat="44.9020817" lon="8.3019683"><ele>144.4</ele><time>2026-04-25T17:21:22.002Z</time></trkpt><trkpt lat="44.902005" lon="8.3018733"><ele>143.0</ele><time>2026-04-25T17:21:23.005Z</time></trkpt><trkpt lat="44.9019133" lon="8.301775"><ele>143.0</ele><time>2026-04-25T17:21:23.999Z</time></trkpt><trkpt lat="44.9018167" lon="8.3016667"><ele>143.0</ele><time>2026-04-25T17:21:24.993Z</time></trkpt><trkpt lat="44.9017283" lon="8.30154"><ele>143.0</ele><time>2026-04-25T17:21:25.995Z</time></trkpt><trkpt lat="44.9016367" lon="8.3014067"><ele>143.0</ele><time>2026-04-25T17:21:26.999Z</time></trkpt><trkpt lat="44.901545" lon="8.30126"><ele>143.75</ele><time>2026-04-25T17:21:27.994Z</time></trkpt><trkpt lat="44.9014517" lon="8.3011083"><ele>144.5</ele><time>2026-04-25T17:21:28.993Z</time></trkpt><trkpt lat="44.9013533" lon="8.3009483"><ele>145.25</ele><time>2026-04-25T17:21:29.997Z</time></trkpt><trkpt lat="44.901265" lon="8.3007817"><ele>146.0</ele><time>2026-04-25T17:21:31.003Z</time></trkpt><trkpt lat="44.9011733" lon="8.3006167"><ele>145.75</ele><time>2026-04-25T17:21:31.996Z</time></trkpt><trkpt lat="44.9010867" lon="8.3004433"><ele>145.5</ele><time>2026-04-25T17:21:32.999Z</time></trkpt><trkpt lat="44.9010017" lon="8.300275"><ele>145.25</ele><time>2026-04-25T17:21:33.995Z</time></trkpt><trkpt lat="44.9009217" lon="8.3001067"><ele>145.0</ele><time>2026-04-25T17:21:34.994Z</time></trkpt><trkpt lat="44.9008567" lon="8.2999383"><ele>145.0</ele><time>2026-04-25T17:21:35.999Z</time></trkpt><trkpt lat="44.9008167" lon="8.299775"><ele>145.0</ele><time>2026-04-25T17:21:36.995Z</time></trkpt><trkpt lat="44.9007833" lon="8.299625"><ele>145.0</ele><time>2026-04-25T17:21:37.997Z</time></trkpt><trkpt lat="44.9007533" lon="8.2994883"><ele>145.0</ele><time>2026-04-25T17:21:38.995Z</time></trkpt><trkpt lat="44.9007183" lon="8.2993667"><ele>145.0</ele><time>2026-04-25T17:21:39.999Z</time></trkpt><trkpt lat="44.900665" lon="8.2992817"><ele>147.0</ele><time>2026-04-25T17:21:40.996Z</time></trkpt><trkpt lat="44.9006" lon="8.2992233"><ele>149.0</ele><time>2026-04-25T17:21:41.999Z</time></trkpt><trkpt lat="44.9005267" lon="8.2991983"><ele>151.0</ele><time>2026-04-25T17:21:42.996Z</time></trkpt><trkpt lat="44.9004383" lon="8.299225"><ele>153.0</ele><time>2026-04-25T17:21:43.994Z</time></trkpt><trkpt lat="44.900355" lon="8.2992383"><ele>155.0</ele><time>2026-04-25T17:21:45Z</time></trkpt><trkpt lat="44.9002833" lon="8.299215"><ele>157.0</ele><time>2026-04-25T17:21:45.995Z</time></trkpt><trkpt lat="44.9002117" lon="8.29916"><ele>157.0</ele><time>2026-04-25T17:21:46.996Z</time></trkpt><trkpt lat="44.9001283" lon="8.2991033"><ele>157.0</ele><time>2026-04-25T17:21:47.995Z</time></trkpt><trkpt lat="44.9000317" lon="8.2990617"><ele>157.0</ele><time>2026-04-25T17:21:48.992Z</time></trkpt><trkpt lat="44.899955" lon="8.29896"><ele>157.0</ele><time>2026-04-25T17:21:49.995Z</time></trkpt><trkpt lat="44.89987" lon="8.29887"><ele>157.0</ele><time>2026-04-25T17:21:50.994Z</time></trkpt><trkpt lat="44.8997767" lon="8.298775"><ele>156.75</ele><time>2026-04-25T17:21:51.996Z</time></trkpt><trkpt lat="44.8996617" lon="8.2986983"><ele>156.5</ele><time>2026-04-25T17:21:53Z</time></trkpt><trkpt lat="44.8995383" lon="8.2986133"><ele>156.25</ele><time>2026-04-25T17:21:53.993Z</time></trkpt><trkpt lat="44.8994133" lon="8.2985383"><ele>156.0</ele><time>2026-04-25T17:21:54.999Z</time></trkpt><trkpt lat="44.8992817" lon="8.2984717"><ele>153.25</ele><time>2026-04-25T17:21:55.998Z</time></trkpt><trkpt lat="44.8991517" lon="8.2984067"><ele>150.5</ele><time>2026-04-25T17:21:56.993Z</time></trkpt><trkpt lat="44.8990283" lon="8.2983433"><ele>147.75</ele><time>2026-04-25T17:21:57.996Z</time></trkpt><trkpt lat="44.898905" lon="8.29828"><ele>145.0</ele><time>2026-04-25T17:21:58.99Z</time></trkpt><trkpt lat="44.898775" lon="8.2982"><ele>145.0</ele><time>2026-04-25T17:21:59.992Z</time></trkpt><trkpt lat="44.8986533" lon="8.29811"><ele>145.0</ele><time>2026-04-25T17:22:00.997Z</time></trkpt><trkpt lat="44.8985383" lon="8.298015"><ele>145.0</ele><time>2026-04-25T17:22:01.996Z</time></trkpt><trkpt lat="44.8984317" lon="8.2979083"><ele>145.0</ele><time>2026-04-25T17:22:03.002Z</time></trkpt><trkpt lat="44.898325" lon="8.2978017"><ele>141.25</ele><time>2026-04-25T17:22:03.993Z</time></trkpt><trkpt lat="44.8982183" lon="8.2976917"><ele>137.5</ele><time>2026-04-25T17:22:04.995Z</time></trkpt><trkpt lat="44.8981267" lon="8.2975683"><ele>133.75</ele><time>2026-04-25T17:22:05.996Z</time></trkpt><trkpt lat="44.898045" lon="8.297425"><ele>130.0</ele><time>2026-04-25T17:22:06.998Z</time></trkpt><trkpt lat="44.8979617" lon="8.2972717"><ele>128.25</ele><time>2026-04-25T17:22:07.997Z</time></trkpt><trkpt lat="44.897885" lon="8.2971"><ele>126.5</ele><time>2026-04-25T17:22:08.997Z</time></trkpt><trkpt lat="44.8978" lon="8.2969267"><ele>124.75</ele><time>2026-04-25T17:22:09.993Z</time></trkpt><trkpt lat="44.8977183" lon="8.2967517"><ele>123.0</ele><time>2026-04-25T17:22:10.993Z</time></trkpt><trkpt lat="44.8976433" lon="8.296585"><ele>121.75</ele><time>2026-04-25T17:22:11.995Z</time></trkpt><trkpt lat="44.8975667" lon="8.2964217"><ele>120.5</ele><time>2026-04-25T17:22:12.995Z</time></trkpt><trkpt lat="44.8974967" lon="8.29628"><ele>119.25</ele><time>2026-04-25T17:22:13.993Z</time></trkpt><trkpt lat="44.8974367" lon="8.2961567"><ele>118.0</ele><time>2026-04-25T17:22:14.999Z</time></trkpt><trkpt lat="44.897385" lon="8.29604"><ele>117.83333333333334</ele><time>2026-04-25T17:22:15.996Z</time></trkpt><trkpt lat="44.8973433" lon="8.29594"><ele>117.66666666666667</ele><time>2026-04-25T17:22:16.996Z</time></trkpt><trkpt lat="44.8973117" lon="8.295855"><ele>117.5</ele><time>2026-04-25T17:22:17.994Z</time></trkpt><trkpt lat="44.8972817" lon="8.2956983"><ele>117.33333333333334</ele><time>2026-04-25T17:22:19.999Z</time></trkpt><trkpt lat="44.89731" lon="8.29558"><ele>117.16666666666667</ele><time>2026-04-25T17:22:21.997Z</time></trkpt><trkpt lat="44.89737" lon="8.29551"><ele>117.0</ele><time>2026-04-25T17:22:22.997Z</time></trkpt><trkpt lat="44.8974417" lon="8.2954333"><ele>117.0</ele><time>2026-04-25T17:22:23.998Z</time></trkpt><trkpt lat="44.897515" lon="8.29534"><ele>117.0</ele><time>2026-04-25T17:22:25.004Z</time></trkpt><trkpt lat="44.897615" lon="8.29522"><ele>117.0</ele><time>2026-04-25T17:22:25.994Z</time></trkpt><trkpt lat="44.8977283" lon="8.2950733"><ele>117.0</ele><time>2026-04-25T17:22:26.995Z</time></trkpt><trkpt lat="44.897835" lon="8.2949367"><ele>117.0</ele><time>2026-04-25T17:22:27.995Z</time></trkpt><trkpt lat="44.8979467" lon="8.2948"><ele>117.0</ele><time>2026-04-25T17:22:28.994Z</time></trkpt><trkpt lat="44.8980717" lon="8.2946517"><ele>117.0</ele><time>2026-04-25T17:22:29.995Z</time></trkpt><trkpt lat="44.8982" lon="8.2944967"><ele>117.0</ele><time>2026-04-25T17:22:30.999Z</time></trkpt><trkpt lat="44.8983333" lon="8.2943383"><ele>117.0</ele><time>2026-04-25T17:22:31.997Z</time></trkpt><trkpt lat="44.89847" lon="8.2941783"><ele>117.0</ele><time>2026-04-25T17:22:32.994Z</time></trkpt><trkpt lat="44.898615" lon="8.294015"><ele>116.66666666666666</ele><time>2026-04-25T17:22:33.994Z</time></trkpt><trkpt lat="44.898765" lon="8.29385"><ele>116.33333333333333</ele><time>2026-04-25T17:22:34.994Z</time></trkpt><trkpt lat="44.89891" lon="8.29368"><ele>116.0</ele><time>2026-04-25T17:22:35.993Z</time></trkpt><trkpt lat="44.89906" lon="8.2935033"><ele>116.0</ele><time>2026-04-25T17:22:36.997Z</time></trkpt><trkpt lat="44.8992067" lon="8.2933267"><ele>116.0</ele><time>2026-04-25T17:22:37.993Z</time></trkpt><trkpt lat="44.899355" lon="8.2931583"><ele>116.0</ele><time>2026-04-25T17:22:38.996Z</time></trkpt><trkpt lat="44.8995" lon="8.2929967"><ele>115.66666666666666</ele><time>2026-04-25T17:22:39.994Z</time></trkpt><trkpt lat="44.8996383" lon="8.292835"><ele>115.33333333333334</ele><time>2026-04-25T17:22:40.996Z</time></trkpt><trkpt lat="44.8997733" lon="8.2926767"><ele>115.0</ele><time>2026-04-25T17:22:41.998Z</time></trkpt><trkpt lat="44.8999083" lon="8.29252"><ele>115.0</ele><time>2026-04-25T17:22:42.997Z</time></trkpt><trkpt lat="44.9000433" lon="8.2923633"><ele>115.0</ele><time>2026-04-25T17:22:43.995Z</time></trkpt><trkpt lat="44.900175" lon="8.292205"><ele>115.0</ele><time>2026-04-25T17:22:45Z</time></trkpt><trkpt lat="44.900305" lon="8.2920467"><ele>115.66666666666667</ele><time>2026-04-25T17:22:45.998Z</time></trkpt><trkpt lat="44.90044" lon="8.2918867"><ele>116.33333333333334</ele><time>2026-04-25T17:22:46.994Z</time></trkpt><trkpt lat="44.9005783" lon="8.2917217"><ele>117.0</ele><time>2026-04-25T17:22:48.001Z</time></trkpt><trkpt lat="44.90072" lon="8.2915533"><ele>117.0</ele><time>2026-04-25T17:22:48.996Z</time></trkpt><trkpt lat="44.9008683" lon="8.2913817"><ele>117.0</ele><time>2026-04-25T17:22:49.997Z</time></trkpt><trkpt lat="44.9010233" lon="8.291215"><ele>117.0</ele><time>2026-04-25T17:22:51Z</time></trkpt><trkpt lat="44.90118" lon="8.29104"><ele>117.33333333333334</ele><time>2026-04-25T17:22:51.995Z</time></trkpt><trkpt lat="44.9013333" lon="8.2908583"><ele>117.66666666666667</ele><time>2026-04-25T17:22:52.997Z</time></trkpt><trkpt lat="44.9014867" lon="8.2906767"><ele>118.0</ele><time>2026-04-25T17:22:54.002Z</time></trkpt><trkpt lat="44.9016417" lon="8.2904967"><ele>117.0</ele><time>2026-04-25T17:22:54.996Z</time></trkpt><trkpt lat="44.9018" lon="8.2903133"><ele>116.0</ele><time>2026-04-25T17:22:55.998Z</time></trkpt><trkpt lat="44.9019633" lon="8.29012"><ele>115.0</ele><time>2026-04-25T17:22:56.997Z</time></trkpt><trkpt lat="44.9021267" lon="8.2899283"><ele>115.66666666666667</ele><time>2026-04-25T17:22:57.994Z</time></trkpt><trkpt lat="44.902295" lon="8.28973"><ele>116.33333333333334</ele><time>2026-04-25T17:22:58.993Z</time></trkpt><trkpt lat="44.902465" lon="8.2895283"><ele>117.0</ele><time>2026-04-25T17:22:59.994Z</time></trkpt><trkpt lat="44.9026317" lon="8.2893267"><ele>117.0</ele><time>2026-04-25T17:23:00.995Z</time></trkpt><trkpt lat="44.9027983" lon="8.2891233"><ele>117.0</ele><time>2026-04-25T17:23:01.995Z</time></trkpt><trkpt lat="44.9029667" lon="8.28892"><ele>117.0</ele><time>2026-04-25T17:23:02.994Z</time></trkpt><trkpt lat="44.903135" lon="8.2887183"><ele>116.66666666666666</ele><time>2026-04-25T17:23:03.997Z</time></trkpt><trkpt lat="44.903305" lon="8.2885183"><ele>116.33333333333333</ele><time>2026-04-25T17:23:04.994Z</time></trkpt><trkpt lat="44.9034717" lon="8.2883233"><ele>116.0</ele><time>2026-04-25T17:23:05.996Z</time></trkpt><trkpt lat="44.9036367" lon="8.2881283"><ele>115.66666666666666</ele><time>2026-04-25T17:23:06.997Z</time></trkpt><trkpt lat="44.9037983" lon="8.2879383"><ele>115.33333333333334</ele><time>2026-04-25T17:23:07.998Z</time></trkpt><trkpt lat="44.9039617" lon="8.287755"><ele>115.0</ele><time>2026-04-25T17:23:08.996Z</time></trkpt><trkpt lat="44.9041217" lon="8.2875683"><ele>115.66666666666667</ele><time>2026-04-25T17:23:09.993Z</time></trkpt><trkpt lat="44.90428" lon="8.2873867"><ele>116.33333333333334</ele><time>2026-04-25T17:23:10.999Z</time></trkpt><trkpt lat="44.9044333" lon="8.2872083"><ele>117.0</ele><time>2026-04-25T17:23:12.001Z</time></trkpt><trkpt lat="44.9045833" lon="8.2870317"><ele>117.0</ele><time>2026-04-25T17:23:12.997Z</time></trkpt><trkpt lat="44.9047317" lon="8.2868583"><ele>117.0</ele><time>2026-04-25T17:23:13.998Z</time></trkpt><trkpt lat="44.9048833" lon="8.286685"><ele>117.0</ele><time>2026-04-25T17:23:14.995Z</time></trkpt><trkpt lat="44.9050317" lon="8.28651"><ele>117.66666666666666</ele><time>2026-04-25T17:23:15.995Z</time></trkpt><trkpt lat="44.9051783" lon="8.2863333"><ele>118.33333333333333</ele><time>2026-04-25T17:23:16.997Z</time></trkpt><trkpt lat="44.9053233" lon="8.286155"><ele>119.0</ele><time>2026-04-25T17:23:17.997Z</time></trkpt><trkpt lat="44.9054667" lon="8.2859883"><ele>119.0</ele><time>2026-04-25T17:23:18.999Z</time></trkpt><trkpt lat="44.9056067" lon="8.2858183"><ele>119.0</ele><time>2026-04-25T17:23:19.994Z</time></trkpt><trkpt lat="44.9057433" lon="8.2856467"><ele>119.0</ele><time>2026-04-25T17:23:20.996Z</time></trkpt><trkpt lat="44.9058833" lon="8.28548"><ele>119.66666666666666</ele><time>2026-04-25T17:23:22.002Z</time></trkpt><trkpt lat="44.906025" lon="8.28531"><ele>120.33333333333334</ele><time>2026-04-25T17:23:23.001Z</time></trkpt><trkpt lat="44.9061667" lon="8.2851433"><ele>121.0</ele><time>2026-04-25T17:23:23.997Z</time></trkpt><trkpt lat="44.90631" lon="8.2849733"><ele>121.0</ele><time>2026-04-25T17:23:24.997Z</time></trkpt><trkpt lat="44.9064517" lon="8.2848"><ele>121.0</ele><time>2026-04-25T17:23:26.002Z</time></trkpt><trkpt lat="44.90659" lon="8.2846333"><ele>121.0</ele><time>2026-04-25T17:23:26.995Z</time></trkpt><trkpt lat="44.9067217" lon="8.2844783"><ele>121.66666666666667</ele><time>2026-04-25T17:23:27.991Z</time></trkpt><trkpt lat="44.9068467" lon="8.2843283"><ele>122.33333333333334</ele><time>2026-04-25T17:23:28.996Z</time></trkpt><trkpt lat="44.9069667" lon="8.2841767"><ele>123.0</ele><time>2026-04-25T17:23:29.992Z</time></trkpt><trkpt lat="44.9070733" lon="8.2840267"><ele>122.75</ele><time>2026-04-25T17:23:30.996Z</time></trkpt><trkpt lat="44.90717" lon="8.2838667"><ele>122.5</ele><time>2026-04-25T17:23:31.998Z</time></trkpt><trkpt lat="44.9072517" lon="8.2836933"><ele>122.25</ele><time>2026-04-25T17:23:32.996Z</time></trkpt><trkpt lat="44.90731" lon="8.28351"><ele>122.0</ele><time>2026-04-25T17:23:33.995Z</time></trkpt><trkpt lat="44.9073483" lon="8.283305"><ele>122.0</ele><time>2026-04-25T17:23:34.996Z</time></trkpt><trkpt lat="44.907365" lon="8.2830867"><ele>122.0</ele><time>2026-04-25T17:23:36.001Z</time></trkpt><trkpt lat="44.9073683" lon="8.2828583"><ele>122.0</ele><time>2026-04-25T17:23:37Z</time></trkpt><trkpt lat="44.90737" lon="8.28262"><ele>122.0</ele><time>2026-04-25T17:23:37.995Z</time></trkpt><trkpt lat="44.90736" lon="8.28238"><ele>122.0</ele><time>2026-04-25T17:23:38.997Z</time></trkpt><trkpt lat="44.90735" lon="8.2821283"><ele>122.0</ele><time>2026-04-25T17:23:39.999Z</time></trkpt><trkpt lat="44.90734" lon="8.2818783"><ele>121.33333333333333</ele><time>2026-04-25T17:23:40.994Z</time></trkpt><trkpt lat="44.907335" lon="8.281625"><ele>120.66666666666666</ele><time>2026-04-25T17:23:41.996Z</time></trkpt><trkpt lat="44.90733" lon="8.2813767"><ele>120.0</ele><time>2026-04-25T17:23:42.993Z</time></trkpt><trkpt lat="44.9073267" lon="8.2811233"><ele>119.66666666666666</ele><time>2026-04-25T17:23:43.995Z</time></trkpt><trkpt lat="44.9073217" lon="8.280865"><ele>119.33333333333333</ele><time>2026-04-25T17:23:44.998Z</time></trkpt><trkpt lat="44.907315" lon="8.2806067"><ele>119.0</ele><time>2026-04-25T17:23:45.994Z</time></trkpt><trkpt lat="44.90731" lon="8.280345"><ele>118.33333333333333</ele><time>2026-04-25T17:23:46.992Z</time></trkpt><trkpt lat="44.9073033" lon="8.28008"><ele>117.66666666666666</ele><time>2026-04-25T17:23:47.995Z</time></trkpt><trkpt lat="44.907295" lon="8.279815"><ele>117.0</ele><time>2026-04-25T17:23:48.997Z</time></trkpt><trkpt lat="44.907285" lon="8.27955"><ele>117.0</ele><time>2026-04-25T17:23:49.995Z</time></trkpt><trkpt lat="44.9072717" lon="8.2792817"><ele>117.0</ele><time>2026-04-25T17:23:50.998Z</time></trkpt><trkpt lat="44.9072633" lon="8.279015"><ele>117.0</ele><time>2026-04-25T17:23:51.995Z</time></trkpt><trkpt lat="44.9072567" lon="8.278755"><ele>117.0</ele><time>2026-04-25T17:23:52.999Z</time></trkpt><trkpt lat="44.9072483" lon="8.27851"><ele>117.0</ele><time>2026-04-25T17:23:53.997Z</time></trkpt><trkpt lat="44.90724" lon="8.278275"><ele>117.0</ele><time>2026-04-25T17:23:55Z</time></trkpt><trkpt lat="44.907235" lon="8.2780467"><ele>116.75</ele><time>2026-04-25T17:23:56Z</time></trkpt><trkpt lat="44.9072283" lon="8.2778367"><ele>116.5</ele><time>2026-04-25T17:23:56.995Z</time></trkpt><trkpt lat="44.9072217" lon="8.27763"><ele>116.25</ele><time>2026-04-25T17:23:57.994Z</time></trkpt><trkpt lat="44.907215" lon="8.27743"><ele>116.0</ele><time>2026-04-25T17:23:58.993Z</time></trkpt><trkpt lat="44.9072083" lon="8.2772367"><ele>116.5</ele><time>2026-04-25T17:23:59.997Z</time></trkpt><trkpt lat="44.9072" lon="8.27705"><ele>117.0</ele><time>2026-04-25T17:24:00.994Z</time></trkpt><trkpt lat="44.9071917" lon="8.2768667"><ele>117.5</ele><time>2026-04-25T17:24:01.998Z</time></trkpt><trkpt lat="44.9071833" lon="8.2766833"><ele>118.0</ele><time>2026-04-25T17:24:02.998Z</time></trkpt><trkpt lat="44.90718" lon="8.2765"><ele>118.5</ele><time>2026-04-25T17:24:03.998Z</time></trkpt><trkpt lat="44.9071767" lon="8.276315"><ele>119.0</ele><time>2026-04-25T17:24:04.995Z</time></trkpt><trkpt lat="44.9071683" lon="8.2761333"><ele>119.5</ele><time>2026-04-25T17:24:05.999Z</time></trkpt><trkpt lat="44.9071633" lon="8.2759533"><ele>120.0</ele><time>2026-04-25T17:24:06.995Z</time></trkpt><trkpt lat="44.90716" lon="8.2757683"><ele>120.25</ele><time>2026-04-25T17:24:07.994Z</time></trkpt><trkpt lat="44.907155" lon="8.2755833"><ele>120.5</ele><time>2026-04-25T17:24:08.995Z</time></trkpt><trkpt lat="44.9071467" lon="8.2753983"><ele>120.75</ele><time>2026-04-25T17:24:09.998Z</time></trkpt><trkpt lat="44.9071367" lon="8.275215"><ele>121.0</ele><time>2026-04-25T17:24:11.001Z</time></trkpt><trkpt lat="44.9071283" lon="8.2750317"><ele>121.0</ele><time>2026-04-25T17:24:11.995Z</time></trkpt><trkpt lat="44.907125" lon="8.2748483"><ele>121.0</ele><time>2026-04-25T17:24:12.997Z</time></trkpt><trkpt lat="44.9071217" lon="8.274675"><ele>121.0</ele><time>2026-04-25T17:24:13.994Z</time></trkpt><trkpt lat="44.9071183" lon="8.2745117"><ele>121.0</ele><time>2026-04-25T17:24:14.997Z</time></trkpt><trkpt lat="44.907115" lon="8.2743567"><ele>121.0</ele><time>2026-04-25T17:24:15.997Z</time></trkpt><trkpt lat="44.9071" lon="8.27421"><ele>121.0</ele><time>2026-04-25T17:24:16.998Z</time></trkpt><trkpt lat="44.9070917" lon="8.274065"><ele>121.0</ele><time>2026-04-25T17:24:18.002Z</time></trkpt><trkpt lat="44.9070833" lon="8.2739283"><ele>121.0</ele><time>2026-04-25T17:24:18.994Z</time></trkpt><trkpt lat="44.9070783" lon="8.273795"><ele>121.0</ele><time>2026-04-25T17:24:19.993Z</time></trkpt><trkpt lat="44.9070733" lon="8.2736617"><ele>120.66666666666667</ele><time>2026-04-25T17:24:20.995Z</time></trkpt><trkpt lat="44.907065" lon="8.27353"><ele>120.33333333333334</ele><time>2026-04-25T17:24:21.999Z</time></trkpt><trkpt lat="44.907055" lon="8.273415"><ele>120.0</ele><time>2026-04-25T17:24:22.997Z</time></trkpt><trkpt lat="44.9070533" lon="8.2733083"><ele>119.66666666666666</ele><time>2026-04-25T17:24:23.996Z</time></trkpt><trkpt lat="44.90706" lon="8.2732167"><ele>119.33333333333333</ele><time>2026-04-25T17:24:24.995Z</time></trkpt><trkpt lat="44.9070917" lon="8.2730767"><ele>119.0</ele><time>2026-04-25T17:24:26.997Z</time></trkpt><trkpt lat="44.9071317" lon="8.2729733"><ele>118.2</ele><time>2026-04-25T17:24:28.997Z</time></trkpt><trkpt lat="44.9072033" lon="8.2728767"><ele>117.4</ele><time>2026-04-25T17:24:30.995Z</time></trkpt><trkpt lat="44.907315" lon="8.2728217"><ele>116.6</ele><time>2026-04-25T17:24:32.998Z</time></trkpt><trkpt lat="44.907385" lon="8.27283"><ele>115.8</ele><time>2026-04-25T17:24:33.996Z</time></trkpt><trkpt lat="44.9074633" lon="8.2728767"><ele>115.0</ele><time>2026-04-25T17:24:34.997Z</time></trkpt><trkpt lat="44.90753" lon="8.2729583"><ele>115.2</ele><time>2026-04-25T17:24:35.996Z</time></trkpt><trkpt lat="44.9075867" lon="8.2730717"><ele>115.4</ele><time>2026-04-25T17:24:36.996Z</time></trkpt><trkpt lat="44.9076467" lon="8.2731633"><ele>115.6</ele><time>2026-04-25T17:24:37.998Z</time></trkpt><trkpt lat="44.9077233" lon="8.2732317"><ele>115.8</ele><time>2026-04-25T17:24:38.997Z</time></trkpt><trkpt lat="44.9078117" lon="8.2732883"><ele>116.0</ele><time>2026-04-25T17:24:40.001Z</time></trkpt><trkpt lat="44.9079133" lon="8.273335"><ele>116.4</ele><time>2026-04-25T17:24:40.992Z</time></trkpt><trkpt lat="44.9080167" lon="8.273375"><ele>116.8</ele><time>2026-04-25T17:24:42.001Z</time></trkpt><trkpt lat="44.9081233" lon="8.27342"><ele>117.20000000000002</ele><time>2026-04-25T17:24:42.998Z</time></trkpt><trkpt lat="44.9082333" lon="8.2734617"><ele>117.60000000000001</ele><time>2026-04-25T17:24:43.996Z</time></trkpt><trkpt lat="44.9083433" lon="8.2734967"><ele>118.0</ele><time>2026-04-25T17:24:45Z</time></trkpt><trkpt lat="44.908455" lon="8.2735283"><ele>118.0</ele><time>2026-04-25T17:24:46.001Z</time></trkpt><trkpt lat="44.9085633" lon="8.2735683"><ele>118.0</ele><time>2026-04-25T17:24:46.995Z</time></trkpt><trkpt lat="44.9086767" lon="8.273595"><ele>118.0</ele><time>2026-04-25T17:24:47.997Z</time></trkpt><trkpt lat="44.9087967" lon="8.27362"><ele>118.0</ele><time>2026-04-25T17:24:49Z</time></trkpt><trkpt lat="44.9089067" lon="8.2736633"><ele>118.0</ele><time>2026-04-25T17:24:49.996Z</time></trkpt><trkpt lat="44.90902" lon="8.273705"><ele>118.0</ele><time>2026-04-25T17:24:50.995Z</time></trkpt><trkpt lat="44.9091317" lon="8.2737433"><ele>118.0</ele><time>2026-04-25T17:24:51.994Z</time></trkpt><trkpt lat="44.9092483" lon="8.2737717"><ele>118.0</ele><time>2026-04-25T17:24:52.992Z</time></trkpt><trkpt lat="44.9093767" lon="8.2738067"><ele>118.25</ele><time>2026-04-25T17:24:53.996Z</time></trkpt><trkpt lat="44.9094917" lon="8.2738483"><ele>118.5</ele><time>2026-04-25T17:24:54.997Z</time></trkpt><trkpt lat="44.90961" lon="8.2738833"><ele>118.75</ele><time>2026-04-25T17:24:55.994Z</time></trkpt><trkpt lat="44.9097333" lon="8.273915"><ele>119.0</ele><time>2026-04-25T17:24:56.996Z</time></trkpt><trkpt lat="44.909855" lon="8.2739417"><ele>119.0</ele><time>2026-04-25T17:24:57.993Z</time></trkpt><trkpt lat="44.9099783" lon="8.2739667"><ele>119.0</ele><time>2026-04-25T17:24:58.997Z</time></trkpt><trkpt lat="44.910105" lon="8.273995"><ele>119.0</ele><time>2026-04-25T17:24:59.993Z</time></trkpt><trkpt lat="44.9102217" lon="8.274025"><ele>119.0</ele><time>2026-04-25T17:25:00.996Z</time></trkpt><trkpt lat="44.9103467" lon="8.2740467"><ele>120.75</ele><time>2026-04-25T17:25:01.993Z</time></trkpt><trkpt lat="44.91047" lon="8.2740683"><ele>122.5</ele><time>2026-04-25T17:25:02.994Z</time></trkpt><trkpt lat="44.9105867" lon="8.27409"><ele>124.25</ele><time>2026-04-25T17:25:03.994Z</time></trkpt><trkpt lat="44.9106983" lon="8.2741117"><ele>126.0</ele><time>2026-04-25T17:25:04.996Z</time></trkpt><trkpt lat="44.9108083" lon="8.2741383"><ele>125.6</ele><time>2026-04-25T17:25:05.994Z</time></trkpt><trkpt lat="44.9109133" lon="8.2741717"><ele>125.19999999999999</ele><time>2026-04-25T17:25:06.996Z</time></trkpt><trkpt lat="44.91101" lon="8.274195"><ele>124.80000000000001</ele><time>2026-04-25T17:25:07.996Z</time></trkpt><trkpt lat="44.9110967" lon="8.2742367"><ele>124.4</ele><time>2026-04-25T17:25:08.996Z</time></trkpt><trkpt lat="44.9111767" lon="8.2742867"><ele>124.0</ele><time>2026-04-25T17:25:09.998Z</time></trkpt><trkpt lat="44.9112433" lon="8.2743433"><ele>124.00000000000001</ele><time>2026-04-25T17:25:10.998Z</time></trkpt><trkpt lat="44.9113017" lon="8.27439"><ele>124.0</ele><time>2026-04-25T17:25:11.998Z</time></trkpt><trkpt lat="44.9113683" lon="8.2744117"><ele>124.0</ele><time>2026-04-25T17:25:12.997Z</time></trkpt><trkpt lat="44.91144" lon="8.27442"><ele>124.0</ele><time>2026-04-25T17:25:13.995Z</time></trkpt><trkpt lat="44.9115183" lon="8.2744067"><ele>124.00000000000001</ele><time>2026-04-25T17:25:14.997Z</time></trkpt><trkpt lat="44.9115967" lon="8.2743733"><ele>124.0</ele><time>2026-04-25T17:25:15.997Z</time></trkpt><trkpt lat="44.9116833" lon="8.2743233"><ele>124.0</ele><time>2026-04-25T17:25:16.995Z</time></trkpt><trkpt lat="44.91177" lon="8.27428"><ele>124.0</ele><time>2026-04-25T17:25:17.996Z</time></trkpt><trkpt lat="44.91186" lon="8.27426"><ele>124.0</ele><time>2026-04-25T17:25:19.001Z</time></trkpt><trkpt lat="44.911965" lon="8.2742417"><ele>124.0</ele><time>2026-04-25T17:25:19.998Z</time></trkpt><trkpt lat="44.91207" lon="8.274235"><ele>124.0</ele><time>2026-04-25T17:25:20.996Z</time></trkpt><trkpt lat="44.9121783" lon="8.2742267"><ele>124.0</ele><time>2026-04-25T17:25:21.996Z</time></trkpt><trkpt lat="44.912285" lon="8.2742283"><ele>124.0</ele><time>2026-04-25T17:25:22.995Z</time></trkpt><trkpt lat="44.9123917" lon="8.27423"><ele>124.0</ele><time>2026-04-25T17:25:23.998Z</time></trkpt><trkpt lat="44.912495" lon="8.2742467"><ele>124.0</ele><time>2026-04-25T17:25:24.998Z</time></trkpt><trkpt lat="44.9125967" lon="8.2742683"><ele>124.0</ele><time>2026-04-25T17:25:26.001Z</time></trkpt><trkpt lat="44.9127" lon="8.2742817"><ele>123.80000000000001</ele><time>2026-04-25T17:25:26.999Z</time></trkpt><trkpt lat="44.912805" lon="8.2742833"><ele>123.60000000000001</ele><time>2026-04-25T17:25:27.996Z</time></trkpt><trkpt lat="44.9129067" lon="8.2742733"><ele>123.4</ele><time>2026-04-25T17:25:29.002Z</time></trkpt><trkpt lat="44.9130067" lon="8.2742417"><ele>123.2</ele><time>2026-04-25T17:25:29.999Z</time></trkpt><trkpt lat="44.9131033" lon="8.2741867"><ele>123.0</ele><time>2026-04-25T17:25:30.996Z</time></trkpt><trkpt lat="44.9131933" lon="8.274115"><ele>123.0</ele><time>2026-04-25T17:25:31.999Z</time></trkpt><trkpt lat="44.9132817" lon="8.2740133"><ele>123.0</ele><time>2026-04-25T17:25:33.002Z</time></trkpt><trkpt lat="44.9133683" lon="8.2738967"><ele>123.0</ele><time>2026-04-25T17:25:33.996Z</time></trkpt><trkpt lat="44.9134533" lon="8.27378"><ele>123.0</ele><time>2026-04-25T17:25:34.996Z</time></trkpt><trkpt lat="44.91354" lon="8.2736633"><ele>123.25</ele><time>2026-04-25T17:25:36Z</time></trkpt><trkpt lat="44.9136333" lon="8.273555"><ele>123.5</ele><time>2026-04-25T17:25:36.997Z</time></trkpt><trkpt lat="44.91373" lon="8.2734467"><ele>123.75</ele><time>2026-04-25T17:25:37.994Z</time></trkpt><trkpt lat="44.9138217" lon="8.2733417"><ele>124.0</ele><time>2026-04-25T17:25:38.994Z</time></trkpt><trkpt lat="44.9139117" lon="8.2732483"><ele>124.0</ele><time>2026-04-25T17:25:39.998Z</time></trkpt><trkpt lat="44.9140017" lon="8.2731583"><ele>124.0</ele><time>2026-04-25T17:25:40.998Z</time></trkpt><trkpt lat="44.9140917" lon="8.2730717"><ele>124.0</ele><time>2026-04-25T17:25:41.996Z</time></trkpt><trkpt lat="44.914185" lon="8.2729933"><ele>124.0</ele><time>2026-04-25T17:25:43.001Z</time></trkpt><trkpt lat="44.91428" lon="8.27293"><ele>124.0</ele><time>2026-04-25T17:25:43.995Z</time></trkpt><trkpt lat="44.9143783" lon="8.2728833"><ele>125.0</ele><time>2026-04-25T17:25:44.997Z</time></trkpt><trkpt lat="44.9144783" lon="8.2728367"><ele>126.0</ele><time>2026-04-25T17:25:45.995Z</time></trkpt><trkpt lat="44.9145767" lon="8.2727883"><ele>127.0</ele><time>2026-04-25T17:25:47.001Z</time></trkpt><trkpt lat="44.9146767" lon="8.272755"><ele>128.0</ele><time>2026-04-25T17:25:47.998Z</time></trkpt><trkpt lat="44.9147767" lon="8.27272"><ele>129.0</ele><time>2026-04-25T17:25:49Z</time></trkpt><trkpt lat="44.9148767" lon="8.2726917"><ele>129.0</ele><time>2026-04-25T17:25:50.001Z</time></trkpt><trkpt lat="44.9149783" lon="8.272665"><ele>129.0</ele><time>2026-04-25T17:25:50.998Z</time></trkpt><trkpt lat="44.9150783" lon="8.2726383"><ele>129.0</ele><time>2026-04-25T17:25:51.999Z</time></trkpt><trkpt lat="44.91518" lon="8.27261"><ele>129.0</ele><time>2026-04-25T17:25:52.997Z</time></trkpt><trkpt lat="44.9152833" lon="8.272575"><ele>129.0</ele><time>2026-04-25T17:25:54.004Z</time></trkpt><trkpt lat="44.9153833" lon="8.2725383"><ele>128.8</ele><time>2026-04-25T17:25:54.996Z</time></trkpt><trkpt lat="44.9154833" lon="8.2724967"><ele>128.60000000000002</ele><time>2026-04-25T17:25:55.997Z</time></trkpt><trkpt lat="44.9155833" lon="8.2724433"><ele>128.4</ele><time>2026-04-25T17:25:56.997Z</time></trkpt><trkpt lat="44.9156867" lon="8.2723883"><ele>128.20000000000002</ele><time>2026-04-25T17:25:57.994Z</time></trkpt><trkpt lat="44.9157983" lon="8.2723167"><ele>128.0</ele><time>2026-04-25T17:25:58.992Z</time></trkpt><trkpt lat="44.9159167" lon="8.2722467"><ele>129.5</ele><time>2026-04-25T17:25:59.993Z</time></trkpt><trkpt lat="44.9160417" lon="8.2721867"><ele>131.0</ele><time>2026-04-25T17:26:00.997Z</time></trkpt><trkpt lat="44.916165" lon="8.27214"><ele>132.5</ele><time>2026-04-25T17:26:01.994Z</time></trkpt><trkpt lat="44.9162833" lon="8.2721117"><ele>134.0</ele><time>2026-04-25T17:26:03Z</time></trkpt><trkpt lat="44.9163967" lon="8.272105"><ele>134.0</ele><time>2026-04-25T17:26:03.996Z</time></trkpt><trkpt lat="44.916505" lon="8.2721067"><ele>134.0</ele><time>2026-04-25T17:26:04.996Z</time></trkpt><trkpt lat="44.9166017" lon="8.272125"><ele>134.0</ele><time>2026-04-25T17:26:05.999Z</time></trkpt><trkpt lat="44.91669" lon="8.2721683"><ele>134.0</ele><time>2026-04-25T17:26:06.997Z</time></trkpt><trkpt lat="44.9167767" lon="8.2722283"><ele>134.0</ele><time>2026-04-25T17:26:08Z</time></trkpt><trkpt lat="44.9168633" lon="8.2723067"><ele>132.25</ele><time>2026-04-25T17:26:08.994Z</time></trkpt><trkpt lat="44.9169533" lon="8.27239"><ele>130.5</ele><time>2026-04-25T17:26:09.997Z</time></trkpt><trkpt lat="44.9170517" lon="8.2724733"><ele>128.75</ele><time>2026-04-25T17:26:10.993Z</time></trkpt><trkpt lat="44.9171567" lon="8.27255"><ele>127.0</ele><time>2026-04-25T17:26:11.996Z</time></trkpt><trkpt lat="44.9172667" lon="8.2726233"><ele>127.0</ele><time>2026-04-25T17:26:13.001Z</time></trkpt><trkpt lat="44.917375" lon="8.2726883"><ele>127.0</ele><time>2026-04-25T17:26:13.993Z</time></trkpt><trkpt lat="44.9174867" lon="8.27274"><ele>127.0</ele><time>2026-04-25T17:26:14.997Z</time></trkpt><trkpt lat="44.917595" lon="8.2727917"><ele>127.0</ele><time>2026-04-25T17:26:15.994Z</time></trkpt><trkpt lat="44.9177067" lon="8.2728367"><ele>127.25</ele><time>2026-04-25T17:26:16.998Z</time></trkpt><trkpt lat="44.917825" lon="8.2728717"><ele>127.5</ele><time>2026-04-25T17:26:17.997Z</time></trkpt><trkpt lat="44.91794" lon="8.272895"><ele>127.75</ele><time>2026-04-25T17:26:18.995Z</time></trkpt><trkpt lat="44.9180517" lon="8.2729083"><ele>128.0</ele><time>2026-04-25T17:26:20Z</time></trkpt><trkpt lat="44.9181567" lon="8.2729133"><ele>127.99999999999999</ele><time>2026-04-25T17:26:20.997Z</time></trkpt><trkpt lat="44.9182533" lon="8.2729133"><ele>128.0</ele><time>2026-04-25T17:26:21.999Z</time></trkpt><trkpt lat="44.9183433" lon="8.27291"><ele>128.0</ele><time>2026-04-25T17:26:22.995Z</time></trkpt><trkpt lat="44.91841" lon="8.2729017"><ele>128.0</ele><time>2026-04-25T17:26:23.998Z</time></trkpt><trkpt lat="44.9184883" lon="8.27287"><ele>127.99999999999999</ele><time>2026-04-25T17:26:25.999Z</time></trkpt><trkpt lat="44.91851" lon="8.27278"><ele>128.0</ele><time>2026-04-25T17:26:27.999Z</time></trkpt><trkpt lat="44.918505" lon="8.2726517"><ele>128.5</ele><time>2026-04-25T17:26:29.995Z</time></trkpt><trkpt lat="44.9185" lon="8.2725267"><ele>129.0</ele><time>2026-04-25T17:26:31.996Z</time></trkpt><trkpt lat="44.9185233" lon="8.2724267"><ele>129.5</ele><time>2026-04-25T17:26:34.995Z</time></trkpt><trkpt lat="44.9185983" lon="8.2723683"><ele>130.0</ele><time>2026-04-25T17:27:11.995Z</time></trkpt><trkpt lat="44.9186533" lon="8.2723167"><ele>130.5</ele><time>2026-04-25T17:27:13.999Z</time></trkpt><trkpt lat="44.91871" lon="8.2722367"><ele>131.0</ele><time>2026-04-25T17:27:16.995Z</time></trkpt><trkpt lat="44.91873" lon="8.272145"><ele>140.0</ele><time>2026-04-25T17:27:20.995Z</time></trkpt></trkseg></trk></gpx>